<?xml version="1.0" encoding="UTF-8"?>
<gpx version="1.1" creator="https://www.youtrack.es" xsi:schemaLocation="http://www.topografix.com/GPX/1/1 http://www.topografix.com/GPX/1/1/gpx.xsd http://www.garmin.com/xmlschemas/GpxExtensions/v3 http://www.garmin.com/xmlschemas/GpxExtensionsv3.xsd http://www.garmin.com/xmlschemas/TrackPointExtension/v1 http://www.garmin.com/xmlschemas/TrackPointExtensionv1.xsd" xmlns:gpxtpx="http://www.garmin.com/xmlschemas/TrackPointExtension/v1" xmlns:gpxx="http://www.garmin.com/xmlschemas/GpxExtensions/v3" xmlns:xsi="http://www.w3.org/2001/XMLSchema-instance">
  <metadata>
    <author>
      <name>JAVIER MORON</name>
      <email id="javimoron" domain="gmail.com"/>
    </author>
    <link href="https://www.youtrack.es">
      <text>YouTrack.es</text>
    </link>
    <time>2026-05-08T10:45:01Z</time>
  </metadata>
  <trk>
    <src>https://www.youtrack.es</src>
    <link href="https://www.youtrack.es/ruta/19458-alicante-tarifa">
      <text>YouTrack.es</text>
    </link>
    <trkseg>
      <trkpt lat="38.36222612299025058746337890625" lon="-0.4218881763517856597900390625">
        <ele>32</ele>
        <time>2019-10-25T07:11:14.000Z</time>
      </trkpt>
      <trkpt lat="38.36227172054350376129150390625" lon="-0.42185640893876552581787109375">
        <ele>32</ele>
        <time>2019-10-25T07:11:51.000Z</time>
      </trkpt>
      <trkpt lat="38.36226761341094970703125" lon="-0.42192690074443817138671875">
        <ele>32</ele>
        <time>2019-10-25T07:11:55.000Z</time>
      </trkpt>
      <trkpt lat="38.362404070794582366943359375" lon="-0.421888343989849090576171875">
        <ele>32</ele>
        <time>2019-10-25T07:12:05.000Z</time>
      </trkpt>
      <trkpt lat="38.3625474013388156890869140625" lon="-0.42204148136079311370849609375">
        <ele>32.40000152587890625</ele>
        <time>2019-10-25T07:12:14.000Z</time>
      </trkpt>
      <trkpt lat="38.3625889755785465240478515625" lon="-0.42209126986563205718994140625">
        <ele>32.40000152587890625</ele>
        <time>2019-10-25T07:12:17.000Z</time>
      </trkpt>
      <trkpt lat="38.3626550249755382537841796875" lon="-0.42222957126796245574951171875">
        <ele>31.200000762939453125</ele>
        <time>2019-10-25T07:12:23.000Z</time>
      </trkpt>
      <trkpt lat="38.36268628947436809539794921875" lon="-0.42246862314641475677490234375">
        <ele>29.3999996185302734375</ele>
        <time>2019-10-25T07:12:31.000Z</time>
      </trkpt>
      <trkpt lat="38.36265879683196544647216796875" lon="-0.4227018915116786956787109375">
        <ele>27.200000762939453125</ele>
        <time>2019-10-25T07:12:38.000Z</time>
      </trkpt>
      <trkpt lat="38.36264890618622303009033203125" lon="-0.4229312203824520111083984375">
        <ele>26.6000003814697265625</ele>
        <time>2019-10-25T07:12:45.000Z</time>
      </trkpt>
      <trkpt lat="38.362622000277042388916015625" lon="-0.42317488230764865875244140625">
        <ele>27.200000762939453125</ele>
        <time>2019-10-25T07:12:53.000Z</time>
      </trkpt>
      <trkpt lat="38.36261135526001453399658203125" lon="-0.42343706823885440826416015625">
        <ele>28</ele>
        <time>2019-10-25T07:13:00.000Z</time>
      </trkpt>
      <trkpt lat="38.36257003247737884521484375" lon="-0.423672683537006378173828125">
        <ele>28.3999996185302734375</ele>
        <time>2019-10-25T07:13:06.000Z</time>
      </trkpt>
      <trkpt lat="38.36254983209073543548583984375" lon="-0.42392036877572536468505859375">
        <ele>27</ele>
        <time>2019-10-25T07:13:12.000Z</time>
      </trkpt>
      <trkpt lat="38.36251596920192241668701171875" lon="-0.424190349876880645751953125">
        <ele>24.799999237060546875</ele>
        <time>2019-10-25T07:13:18.000Z</time>
      </trkpt>
      <trkpt lat="38.362503983080387115478515625" lon="-0.42443971149623394012451171875">
        <ele>24.799999237060546875</ele>
        <time>2019-10-25T07:13:24.000Z</time>
      </trkpt>
      <trkpt lat="38.3625101856887340545654296875" lon="-0.4246991313993930816650390625">
        <ele>27.6000003814697265625</ele>
        <time>2019-10-25T07:13:30.000Z</time>
      </trkpt>
      <trkpt lat="38.36249317042529582977294921875" lon="-0.42494949884712696075439453125">
        <ele>30.200000762939453125</ele>
        <time>2019-10-25T07:13:35.000Z</time>
      </trkpt>
      <trkpt lat="38.362487219274044036865234375" lon="-0.42518435977399349212646484375">
        <ele>32.799999237060546875</ele>
        <time>2019-10-25T07:13:40.000Z</time>
      </trkpt>
      <trkpt lat="38.36247506551444530487060546875" lon="-0.42545744217932224273681640625">
        <ele>34</ele>
        <time>2019-10-25T07:13:46.000Z</time>
      </trkpt>
      <trkpt lat="38.36247204802930355072021484375" lon="-0.42571476660668849945068359375">
        <ele>34.200000762939453125</ele>
        <time>2019-10-25T07:13:52.000Z</time>
      </trkpt>
      <trkpt lat="38.36245360784232616424560546875" lon="-0.4259495437145233154296875">
        <ele>33.40000152587890625</ele>
        <time>2019-10-25T07:13:57.000Z</time>
      </trkpt>
      <trkpt lat="38.362446986138820648193359375" lon="-0.4261978156864643096923828125">
        <ele>32</ele>
        <time>2019-10-25T07:14:01.000Z</time>
      </trkpt>
      <trkpt lat="38.36246953345835208892822265625" lon="-0.42645178735256195068359375">
        <ele>30.799999237060546875</ele>
        <time>2019-10-25T07:14:06.000Z</time>
      </trkpt>
      <trkpt lat="38.36246333085000514984130859375" lon="-0.4267138056457042694091796875">
        <ele>30.6000003814697265625</ele>
        <time>2019-10-25T07:14:11.000Z</time>
      </trkpt>
      <trkpt lat="38.3624538592994213104248046875" lon="-0.42694665491580963134765625">
        <ele>31.799999237060546875</ele>
        <time>2019-10-25T07:14:15.000Z</time>
      </trkpt>
      <trkpt lat="38.3624515123665332794189453125" lon="-0.4271784983575344085693359375">
        <ele>31.6000003814697265625</ele>
        <time>2019-10-25T07:14:19.000Z</time>
      </trkpt>
      <trkpt lat="38.36249493062496185302734375" lon="-0.42742081917822360992431640625">
        <ele>31.200000762939453125</ele>
        <time>2019-10-25T07:14:23.000Z</time>
      </trkpt>
      <trkpt lat="38.3625447191298007965087890625" lon="-0.42763623408973217010498046875">
        <ele>30.6000003814697265625</ele>
        <time>2019-10-25T07:14:27.000Z</time>
      </trkpt>
      <trkpt lat="38.3625628240406513214111328125" lon="-0.4278698377311229705810546875">
        <ele>27.200000762939453125</ele>
        <time>2019-10-25T07:14:31.000Z</time>
      </trkpt>
      <trkpt lat="38.36254010908305644989013671875" lon="-0.42810126207768917083740234375">
        <ele>23.3999996185302734375</ele>
        <time>2019-10-25T07:14:35.000Z</time>
      </trkpt>
      <trkpt lat="38.36253114044666290283203125" lon="-0.42834064923226833343505859375">
        <ele>21.3999996185302734375</ele>
        <time>2019-10-25T07:14:40.000Z</time>
      </trkpt>
      <trkpt lat="38.36254413239657878875732421875" lon="-0.428583808243274688720703125">
        <ele>20.3999996185302734375</ele>
        <time>2019-10-25T07:14:45.000Z</time>
      </trkpt>
      <trkpt lat="38.362508676946163177490234375" lon="-0.428829230368137359619140625">
        <ele>20.200000762939453125</ele>
        <time>2019-10-25T07:14:50.000Z</time>
      </trkpt>
      <trkpt lat="38.36249585263431072235107421875" lon="-0.42894548736512660980224609375">
        <ele>20.3999996185302734375</ele>
        <time>2019-10-25T07:14:52.000Z</time>
      </trkpt>
      <trkpt lat="38.36249761283397674560546875" lon="-0.429223515093326568603515625">
        <ele>20.799999237060546875</ele>
        <time>2019-10-25T07:14:57.000Z</time>
      </trkpt>
      <trkpt lat="38.36249568499624729156494140625" lon="-0.42927808128297328948974609375">
        <ele>20.799999237060546875</ele>
        <time>2019-10-25T07:14:58.000Z</time>
      </trkpt>
      <trkpt lat="38.36249736137688159942626953125" lon="-0.4295244254171848297119140625">
        <ele>21</ele>
        <time>2019-10-25T07:15:02.000Z</time>
      </trkpt>
      <trkpt lat="38.36253155954182147979736328125" lon="-0.42979541234672069549560546875">
        <ele>21.6000003814697265625</ele>
        <time>2019-10-25T07:15:07.000Z</time>
      </trkpt>
      <trkpt lat="38.3625631593167781829833984375" lon="-0.42991275899112224578857421875">
        <ele>21.799999237060546875</ele>
        <time>2019-10-25T07:15:10.000Z</time>
      </trkpt>
      <trkpt lat="38.36271596141159534454345703125" lon="-0.4300662316381931304931640625">
        <ele>22.6000003814697265625</ele>
        <time>2019-10-25T07:15:18.000Z</time>
      </trkpt>
      <trkpt lat="38.3628514967858791351318359375" lon="-0.43023261241614818572998046875">
        <ele>24</ele>
        <time>2019-10-25T07:15:23.000Z</time>
      </trkpt>
      <trkpt lat="38.36294746957719326019287109375" lon="-0.430447943508625030517578125">
        <ele>26.3999996185302734375</ele>
        <time>2019-10-25T07:15:28.000Z</time>
      </trkpt>
      <trkpt lat="38.36296490393579006195068359375" lon="-0.4306844808161258697509765625">
        <ele>27.6000003814697265625</ele>
        <time>2019-10-25T07:15:34.000Z</time>
      </trkpt>
      <trkpt lat="38.36298041045665740966796875" lon="-0.43070577085018157958984375">
        <ele>27.799999237060546875</ele>
        <time>2019-10-25T07:15:35.000Z</time>
      </trkpt>
      <trkpt lat="38.36309029720723628997802734375" lon="-0.43082806281745433807373046875">
        <ele>28</ele>
        <time>2019-10-25T07:15:40.000Z</time>
      </trkpt>
      <trkpt lat="38.36318652145564556121826171875" lon="-0.43109896592795848846435546875">
        <ele>26.799999237060546875</ele>
        <time>2019-10-25T07:15:49.000Z</time>
      </trkpt>
      <trkpt lat="38.3632672391831874847412109375" lon="-0.43123223818838596343994140625">
        <ele>26.799999237060546875</ele>
        <time>2019-10-25T07:15:53.000Z</time>
      </trkpt>
      <trkpt lat="38.36345792748034000396728515625" lon="-0.43121228925883769989013671875">
        <ele>25.200000762939453125</ele>
        <time>2019-10-25T07:15:59.000Z</time>
      </trkpt>
      <trkpt lat="38.36353026330471038818359375" lon="-0.4313292168080806732177734375">
        <ele>24.3999996185302734375</ele>
        <time>2019-10-25T07:16:04.000Z</time>
      </trkpt>
      <trkpt lat="38.3636642061173915863037109375" lon="-0.43150615878403186798095703125">
        <ele>23.6000003814697265625</ele>
        <time>2019-10-25T07:16:13.000Z</time>
      </trkpt>
      <trkpt lat="38.3636715821921825408935546875" lon="-0.431527532637119293212890625">
        <ele>23.6000003814697265625</ele>
        <time>2019-10-25T07:16:14.000Z</time>
      </trkpt>
      <trkpt lat="38.36379974149167537689208984375" lon="-0.4316745512187480926513671875">
        <ele>21.799999237060546875</ele>
        <time>2019-10-25T07:16:22.000Z</time>
      </trkpt>
      <trkpt lat="38.36395296268165111541748046875" lon="-0.4318096674978733062744140625">
        <ele>19.6000003814697265625</ele>
        <time>2019-10-25T07:16:28.000Z</time>
      </trkpt>
      <trkpt lat="38.36398716084659099578857421875" lon="-0.43186037801206111907958984375">
        <ele>19</ele>
        <time>2019-10-25T07:16:30.000Z</time>
      </trkpt>
      <trkpt lat="38.36402513086795806884765625" lon="-0.43191100470721721649169921875">
        <ele>18.3999996185302734375</ele>
        <time>2019-10-25T07:16:34.000Z</time>
      </trkpt>
      <trkpt lat="38.36415748111903667449951171875" lon="-0.4319065622985363006591796875">
        <ele>17</ele>
        <time>2019-10-25T07:16:40.000Z</time>
      </trkpt>
      <trkpt lat="38.36439753882586956024169921875" lon="-0.431867502629756927490234375">
        <ele>16.200000762939453125</ele>
        <time>2019-10-25T07:16:45.000Z</time>
      </trkpt>
      <trkpt lat="38.3645888976752758026123046875" lon="-0.431807152926921844482421875">
        <ele>18</ele>
        <time>2019-10-25T07:16:47.000Z</time>
      </trkpt>
      <trkpt lat="38.3648343198001384735107421875" lon="-0.4317033849656581878662109375">
        <ele>20</ele>
        <time>2019-10-25T07:16:51.000Z</time>
      </trkpt>
      <trkpt lat="38.3649967610836029052734375" lon="-0.4316170513629913330078125">
        <ele>21.200000762939453125</ele>
        <time>2019-10-25T07:16:56.000Z</time>
      </trkpt>
      <trkpt lat="38.3650824241340160369873046875" lon="-0.43175040744245052337646484375">
        <ele>21</ele>
        <time>2019-10-25T07:17:15.000Z</time>
      </trkpt>
      <trkpt lat="38.36521997116506099700927734375" lon="-0.43189122341573238372802734375">
        <ele>20.200000762939453125</ele>
        <time>2019-10-25T07:17:25.000Z</time>
      </trkpt>
      <trkpt lat="38.365314938127994537353515625" lon="-0.4319484718143939971923828125">
        <ele>19.6000003814697265625</ele>
        <time>2019-10-25T07:17:30.000Z</time>
      </trkpt>
      <trkpt lat="38.36536413989961147308349609375" lon="-0.43207663111388683319091796875">
        <ele>19</ele>
        <time>2019-10-25T07:17:35.000Z</time>
      </trkpt>
      <trkpt lat="38.3653938956558704376220703125" lon="-0.432324148714542388916015625">
        <ele>19</ele>
        <time>2019-10-25T07:17:45.000Z</time>
      </trkpt>
      <trkpt lat="38.3654109947383403778076171875" lon="-0.43235977180302143096923828125">
        <ele>19</ele>
        <time>2019-10-25T07:17:48.000Z</time>
      </trkpt>
      <trkpt lat="38.36551375687122344970703125" lon="-0.43228148482739925384521484375">
        <ele>19</ele>
        <time>2019-10-25T07:18:25.000Z</time>
      </trkpt>
      <trkpt lat="38.3655122481286525726318359375" lon="-0.4322666488587856292724609375">
        <ele>19</ele>
        <time>2019-10-25T07:18:50.000Z</time>
      </trkpt>
      <trkpt lat="38.36546706967055797576904296875" lon="-0.43231308460235595703125">
        <ele>19</ele>
        <time>2019-10-25T07:20:15.000Z</time>
      </trkpt>
      <trkpt lat="38.36540504358708858489990234375" lon="-0.4323176108300685882568359375">
        <ele>19</ele>
        <time>2019-10-25T07:22:38.000Z</time>
      </trkpt>
      <trkpt lat="38.36545784957706928253173828125" lon="-0.43231518007814884185791015625">
        <ele>19</ele>
        <time>2019-10-25T07:25:01.000Z</time>
      </trkpt>
      <trkpt lat="38.3654237352311611175537109375" lon="-0.43232859112322330474853515625">
        <ele>19</ele>
        <time>2019-10-25T07:26:29.000Z</time>
      </trkpt>
      <trkpt lat="38.36531820707023143768310546875" lon="-0.43247200548648834228515625">
        <ele>19</ele>
        <time>2019-10-25T07:26:56.000Z</time>
      </trkpt>
      <trkpt lat="38.36523950099945068359375" lon="-0.432675518095493316650390625">
        <ele>18.200000762939453125</ele>
        <time>2019-10-25T07:27:05.000Z</time>
      </trkpt>
      <trkpt lat="38.36536028422415256500244140625" lon="-0.432780794799327850341796875">
        <ele>17.799999237060546875</ele>
        <time>2019-10-25T07:27:13.000Z</time>
      </trkpt>
      <trkpt lat="38.36551065556704998016357421875" lon="-0.43290652334690093994140625">
        <ele>16.3999996185302734375</ele>
        <time>2019-10-25T07:27:19.000Z</time>
      </trkpt>
      <trkpt lat="38.3656798861920833587646484375" lon="-0.4330562241375446319580078125">
        <ele>15.6000003814697265625</ele>
        <time>2019-10-25T07:27:25.000Z</time>
      </trkpt>
      <trkpt lat="38.36584140546619892120361328125" lon="-0.43317298404872417449951171875">
        <ele>14.80000019073486328125</ele>
        <time>2019-10-25T07:27:30.000Z</time>
      </trkpt>
      <trkpt lat="38.3660133183002471923828125" lon="-0.43330441229045391082763671875">
        <ele>14.6000003814697265625</ele>
        <time>2019-10-25T07:27:35.000Z</time>
      </trkpt>
      <trkpt lat="38.36620367132127285003662109375" lon="-0.43343667872250080108642578125">
        <ele>13.80000019073486328125</ele>
        <time>2019-10-25T07:27:41.000Z</time>
      </trkpt>
      <trkpt lat="38.36636812426149845123291015625" lon="-0.433553941547870635986328125">
        <ele>12.6000003814697265625</ele>
        <time>2019-10-25T07:27:47.000Z</time>
      </trkpt>
      <trkpt lat="38.3665569685399532318115234375" lon="-0.43366064317524433135986328125">
        <ele>13.80000019073486328125</ele>
        <time>2019-10-25T07:27:53.000Z</time>
      </trkpt>
      <trkpt lat="38.36670524440705776214599609375" lon="-0.433823503553867340087890625">
        <ele>13</ele>
        <time>2019-10-25T07:28:01.000Z</time>
      </trkpt>
      <trkpt lat="38.36686986498534679412841796875" lon="-0.4339403472840785980224609375">
        <ele>15.3999996185302734375</ele>
        <time>2019-10-25T07:28:08.000Z</time>
      </trkpt>
      <trkpt lat="38.36703213863074779510498046875" lon="-0.434061549603939056396484375">
        <ele>17</ele>
        <time>2019-10-25T07:28:15.000Z</time>
      </trkpt>
      <trkpt lat="38.36720212362706661224365234375" lon="-0.43419674970209598541259765625">
        <ele>16.6000003814697265625</ele>
        <time>2019-10-25T07:28:22.000Z</time>
      </trkpt>
      <trkpt lat="38.36728041060268878936767578125" lon="-0.434245280921459197998046875">
        <ele>15.6000003814697265625</ele>
        <time>2019-10-25T07:28:25.000Z</time>
      </trkpt>
      <trkpt lat="38.36745291016995906829833984375" lon="-0.43439808301627635955810546875">
        <ele>14.19999980926513671875</ele>
        <time>2019-10-25T07:28:31.000Z</time>
      </trkpt>
      <trkpt lat="38.36760990321636199951171875" lon="-0.43453470803797245025634765625">
        <ele>14</ele>
        <time>2019-10-25T07:28:36.000Z</time>
      </trkpt>
      <trkpt lat="38.36777527816593647003173828125" lon="-0.434648953378200531005859375">
        <ele>14.6000003814697265625</ele>
        <time>2019-10-25T07:28:42.000Z</time>
      </trkpt>
      <trkpt lat="38.3678920380771160125732421875" lon="-0.434697233140468597412109375">
        <ele>14.3999996185302734375</ele>
        <time>2019-10-25T07:28:46.000Z</time>
      </trkpt>
      <trkpt lat="38.36803092621266841888427734375" lon="-0.43485514819622039794921875">
        <ele>14.6000003814697265625</ele>
        <time>2019-10-25T07:28:52.000Z</time>
      </trkpt>
      <trkpt lat="38.36819688789546489715576171875" lon="-0.43495028279721736907958984375">
        <ele>15</ele>
        <time>2019-10-25T07:28:58.000Z</time>
      </trkpt>
      <trkpt lat="38.36835731752216815948486328125" lon="-0.43507039546966552734375">
        <ele>14.6000003814697265625</ele>
        <time>2019-10-25T07:29:04.000Z</time>
      </trkpt>
      <trkpt lat="38.368512801826000213623046875" lon="-0.4352100379765033721923828125">
        <ele>14.80000019073486328125</ele>
        <time>2019-10-25T07:29:11.000Z</time>
      </trkpt>
      <trkpt lat="38.36862889118492603302001953125" lon="-0.435324199497699737548828125">
        <ele>14.80000019073486328125</ele>
        <time>2019-10-25T07:29:19.000Z</time>
      </trkpt>
      <trkpt lat="38.36857424117624759674072265625" lon="-0.43526007793843746185302734375">
        <ele>15</ele>
        <time>2019-10-25T07:29:26.000Z</time>
      </trkpt>
      <trkpt lat="38.36866577155888080596923828125" lon="-0.43530550785362720489501953125">
        <ele>15</ele>
        <time>2019-10-25T07:29:35.000Z</time>
      </trkpt>
      <trkpt lat="38.3686150610446929931640625" lon="-0.43526560999453067779541015625">
        <ele>15.19999980926513671875</ele>
        <time>2019-10-25T07:29:39.000Z</time>
      </trkpt>
      <trkpt lat="38.36848790757358074188232421875" lon="-0.43519578874111175537109375">
        <ele>14.6000003814697265625</ele>
        <time>2019-10-25T07:29:45.000Z</time>
      </trkpt>
      <trkpt lat="38.3683843910694122314453125" lon="-0.43538966216146945953369140625">
        <ele>13.19999980926513671875</ele>
        <time>2019-10-25T07:29:53.000Z</time>
      </trkpt>
      <trkpt lat="38.3683885820209980010986328125" lon="-0.4354901611804962158203125">
        <ele>12.6000003814697265625</ele>
        <time>2019-10-25T07:29:56.000Z</time>
      </trkpt>
      <trkpt lat="38.36846007965505123138427734375" lon="-0.4356308095157146453857421875">
        <ele>13</ele>
        <time>2019-10-25T07:30:02.000Z</time>
      </trkpt>
      <trkpt lat="38.36862905882298946380615234375" lon="-0.43576776981353759765625">
        <ele>12.3999996185302734375</ele>
        <time>2019-10-25T07:30:09.000Z</time>
      </trkpt>
      <trkpt lat="38.3687885664403438568115234375" lon="-0.43591596186161041259765625">
        <ele>12.80000019073486328125</ele>
        <time>2019-10-25T07:30:16.000Z</time>
      </trkpt>
      <trkpt lat="38.368804156780242919921875" lon="-0.43601646088063716888427734375">
        <ele>12.80000019073486328125</ele>
        <time>2019-10-25T07:30:19.000Z</time>
      </trkpt>
      <trkpt lat="38.368717990815639495849609375" lon="-0.43624880723655223846435546875">
        <ele>13.6000003814697265625</ele>
        <time>2019-10-25T07:30:26.000Z</time>
      </trkpt>
      <trkpt lat="38.3686346746981143951416015625" lon="-0.43645441532135009765625">
        <ele>13.80000019073486328125</ele>
        <time>2019-10-25T07:30:31.000Z</time>
      </trkpt>
      <trkpt lat="38.3684988878667354583740234375" lon="-0.4366785474121570587158203125">
        <ele>13.19999980926513671875</ele>
        <time>2019-10-25T07:30:37.000Z</time>
      </trkpt>
      <trkpt lat="38.3684727363288402557373046875" lon="-0.4367194510996341705322265625">
        <ele>13.3999996185302734375</ele>
        <time>2019-10-25T07:30:38.000Z</time>
      </trkpt>
      <trkpt lat="38.3683647774159908294677734375" lon="-0.43690544553101062774658203125">
        <ele>14</ele>
        <time>2019-10-25T07:30:42.000Z</time>
      </trkpt>
      <trkpt lat="38.36825606413185596466064453125" lon="-0.43710376136004924774169921875">
        <ele>14</ele>
        <time>2019-10-25T07:30:46.000Z</time>
      </trkpt>
      <trkpt lat="38.3681458421051502227783203125" lon="-0.437300987541675567626953125">
        <ele>14</ele>
        <time>2019-10-25T07:30:50.000Z</time>
      </trkpt>
      <trkpt lat="38.36802757345139980316162109375" lon="-0.43753844685852527618408203125">
        <ele>14</ele>
        <time>2019-10-25T07:30:55.000Z</time>
      </trkpt>
      <trkpt lat="38.36790938861668109893798828125" lon="-0.43777515180408954620361328125">
        <ele>13.80000019073486328125</ele>
        <time>2019-10-25T07:31:00.000Z</time>
      </trkpt>
      <trkpt lat="38.36782271973788738250732421875" lon="-0.43795578181743621826171875">
        <ele>12.6000003814697265625</ele>
        <time>2019-10-25T07:31:04.000Z</time>
      </trkpt>
      <trkpt lat="38.3677254058420658111572265625" lon="-0.43816574849188327789306640625">
        <ele>11.19999980926513671875</ele>
        <time>2019-10-25T07:31:09.000Z</time>
      </trkpt>
      <trkpt lat="38.3676422573626041412353515625" lon="-0.4383783973753452301025390625">
        <ele>10.3999996185302734375</ele>
        <time>2019-10-25T07:31:14.000Z</time>
      </trkpt>
      <trkpt lat="38.36762926541268825531005859375" lon="-0.438426174223423004150390625">
        <ele>10.3999996185302734375</ele>
        <time>2019-10-25T07:31:15.000Z</time>
      </trkpt>
      <trkpt lat="38.367559276521205902099609375" lon="-0.4386777989566326141357421875">
        <ele>10.3999996185302734375</ele>
        <time>2019-10-25T07:31:20.000Z</time>
      </trkpt>
      <trkpt lat="38.36747109889984130859375" lon="-0.43888256885111331939697265625">
        <ele>11</ele>
        <time>2019-10-25T07:31:24.000Z</time>
      </trkpt>
      <trkpt lat="38.36737311445176601409912109375" lon="-0.43908725492656230926513671875">
        <ele>11.3999996185302734375</ele>
        <time>2019-10-25T07:31:28.000Z</time>
      </trkpt>
      <trkpt lat="38.36725979112088680267333984375" lon="-0.43929127044975757598876953125">
        <ele>11.80000019073486328125</ele>
        <time>2019-10-25T07:31:32.000Z</time>
      </trkpt>
      <trkpt lat="38.36715350858867168426513671875" lon="-0.439492352306842803955078125">
        <ele>11.80000019073486328125</ele>
        <time>2019-10-25T07:31:36.000Z</time>
      </trkpt>
      <trkpt lat="38.367044962942600250244140625" lon="-0.43968387879431247711181640625">
        <ele>11.3999996185302734375</ele>
        <time>2019-10-25T07:31:40.000Z</time>
      </trkpt>
      <trkpt lat="38.36699961684644222259521484375" lon="-0.4397939331829547882080078125">
        <ele>10.6000003814697265625</ele>
        <time>2019-10-25T07:31:42.000Z</time>
      </trkpt>
      <trkpt lat="38.36694932542741298675537109375" lon="-0.4399079270660877227783203125">
        <ele>9.6000003814697265625</ele>
        <time>2019-10-25T07:31:44.000Z</time>
      </trkpt>
      <trkpt lat="38.36684002541005611419677734375" lon="-0.4401412792503833770751953125">
        <ele>8.3999996185302734375</ele>
        <time>2019-10-25T07:31:48.000Z</time>
      </trkpt>
      <trkpt lat="38.36672008037567138671875" lon="-0.440362729132175445556640625">
        <ele>8.3999996185302734375</ele>
        <time>2019-10-25T07:31:52.000Z</time>
      </trkpt>
      <trkpt lat="38.36668856441974639892578125" lon="-0.44041461311280727386474609375">
        <ele>8.6000003814697265625</ele>
        <time>2019-10-25T07:31:53.000Z</time>
      </trkpt>
      <trkpt lat="38.3665604889392852783203125" lon="-0.44063656590878963470458984375">
        <ele>9.80000019073486328125</ele>
        <time>2019-10-25T07:31:57.000Z</time>
      </trkpt>
      <trkpt lat="38.36643819697201251983642578125" lon="-0.440875031054019927978515625">
        <ele>11.19999980926513671875</ele>
        <time>2019-10-25T07:32:01.000Z</time>
      </trkpt>
      <trkpt lat="38.36631716229021549224853515625" lon="-0.44109790585935115814208984375">
        <ele>12.19999980926513671875</ele>
        <time>2019-10-25T07:32:05.000Z</time>
      </trkpt>
      <trkpt lat="38.36629092693328857421875" lon="-0.44115439988672733306884765625">
        <ele>12</ele>
        <time>2019-10-25T07:32:06.000Z</time>
      </trkpt>
      <trkpt lat="38.366188667714595794677734375" lon="-0.44137316755950450897216796875">
        <ele>12</ele>
        <time>2019-10-25T07:32:10.000Z</time>
      </trkpt>
      <trkpt lat="38.36615891195833683013916015625" lon="-0.44142077676951885223388671875">
        <ele>12.19999980926513671875</ele>
        <time>2019-10-25T07:32:11.000Z</time>
      </trkpt>
      <trkpt lat="38.3661036752164363861083984375" lon="-0.4415130615234375">
        <ele>12.6000003814697265625</ele>
        <time>2019-10-25T07:32:13.000Z</time>
      </trkpt>
      <trkpt lat="38.36599848233163356781005859375" lon="-0.4417133890092372894287109375">
        <ele>13.3999996185302734375</ele>
        <time>2019-10-25T07:32:17.000Z</time>
      </trkpt>
      <trkpt lat="38.3658991567790508270263671875" lon="-0.4419274628162384033203125">
        <ele>14.19999980926513671875</ele>
        <time>2019-10-25T07:32:21.000Z</time>
      </trkpt>
      <trkpt lat="38.36578407324850559234619140625" lon="-0.44213843531906604766845703125">
        <ele>13.3999996185302734375</ele>
        <time>2019-10-25T07:32:25.000Z</time>
      </trkpt>
      <trkpt lat="38.3656621165573596954345703125" lon="-0.442348234355449676513671875">
        <ele>12</ele>
        <time>2019-10-25T07:32:29.000Z</time>
      </trkpt>
      <trkpt lat="38.36564158089458942413330078125" lon="-0.442405231297016143798828125">
        <ele>11.6000003814697265625</ele>
        <time>2019-10-25T07:32:30.000Z</time>
      </trkpt>
      <trkpt lat="38.365611992776393890380859375" lon="-0.44262659735977649688720703125">
        <ele>9.3999996185302734375</ele>
        <time>2019-10-25T07:32:35.000Z</time>
      </trkpt>
      <trkpt lat="38.36556966416537761688232421875" lon="-0.44272634200751781463623046875">
        <ele>8.3999996185302734375</ele>
        <time>2019-10-25T07:32:39.000Z</time>
      </trkpt>
      <trkpt lat="38.36555792950093746185302734375" lon="-0.4427953250706195831298828125">
        <ele>8</ele>
        <time>2019-10-25T07:32:42.000Z</time>
      </trkpt>
      <trkpt lat="38.365459777414798736572265625" lon="-0.44300965033471584320068359375">
        <ele>6.400000095367431640625</ele>
        <time>2019-10-25T07:32:51.000Z</time>
      </trkpt>
      <trkpt lat="38.365349806845188140869140625" lon="-0.4430206306278705596923828125">
        <ele>6.80000019073486328125</ele>
        <time>2019-10-25T07:32:54.000Z</time>
      </trkpt>
      <trkpt lat="38.3651568554341793060302734375" lon="-0.44305155985057353973388671875">
        <ele>8</ele>
        <time>2019-10-25T07:32:59.000Z</time>
      </trkpt>
      <trkpt lat="38.36498075164854526519775390625" lon="-0.44313169084489345550537109375">
        <ele>10.3999996185302734375</ele>
        <time>2019-10-25T07:33:04.000Z</time>
      </trkpt>
      <trkpt lat="38.36479500867426395416259765625" lon="-0.4431788809597492218017578125">
        <ele>13</ele>
        <time>2019-10-25T07:33:09.000Z</time>
      </trkpt>
      <trkpt lat="38.3645863831043243408203125" lon="-0.443240739405155181884765625">
        <ele>14.3999996185302734375</ele>
        <time>2019-10-25T07:33:14.000Z</time>
      </trkpt>
      <trkpt lat="38.3643682859838008880615234375" lon="-0.4432546533644199371337890625">
        <ele>13.3999996185302734375</ele>
        <time>2019-10-25T07:33:19.000Z</time>
      </trkpt>
      <trkpt lat="38.36415597237646579742431640625" lon="-0.44328440912067890167236328125">
        <ele>11.19999980926513671875</ele>
        <time>2019-10-25T07:33:24.000Z</time>
      </trkpt>
      <trkpt lat="38.36394994519650936126708984375" lon="-0.443248450756072998046875">
        <ele>10.80000019073486328125</ele>
        <time>2019-10-25T07:33:29.000Z</time>
      </trkpt>
      <trkpt lat="38.363739140331745147705078125" lon="-0.44320109300315380096435546875">
        <ele>10.6000003814697265625</ele>
        <time>2019-10-25T07:33:35.000Z</time>
      </trkpt>
      <trkpt lat="38.3636189438402652740478515625" lon="-0.44319371692836284637451171875">
        <ele>10.80000019073486328125</ele>
        <time>2019-10-25T07:33:42.000Z</time>
      </trkpt>
      <trkpt lat="38.36347527801990509033203125" lon="-0.4430974088609218597412109375">
        <ele>10.80000019073486328125</ele>
        <time>2019-10-25T07:34:10.000Z</time>
      </trkpt>
      <trkpt lat="38.36343613453209400177001953125" lon="-0.44285290874540805816650390625">
        <ele>10.19999980926513671875</ele>
        <time>2019-10-25T07:34:15.000Z</time>
      </trkpt>
      <trkpt lat="38.36340562440454959869384765625" lon="-0.4426209814846515655517578125">
        <ele>10.80000019073486328125</ele>
        <time>2019-10-25T07:34:21.000Z</time>
      </trkpt>
      <trkpt lat="38.36338341236114501953125" lon="-0.44255032204091548919677734375">
        <ele>10.6000003814697265625</ele>
        <time>2019-10-25T07:34:24.000Z</time>
      </trkpt>
      <trkpt lat="38.36336958222091197967529296875" lon="-0.44265895150601863861083984375">
        <ele>10.6000003814697265625</ele>
        <time>2019-10-25T07:34:29.000Z</time>
      </trkpt>
      <trkpt lat="38.363377042114734649658203125" lon="-0.44289196841418743133544921875">
        <ele>9.80000019073486328125</ele>
        <time>2019-10-25T07:34:34.000Z</time>
      </trkpt>
      <trkpt lat="38.36337008513510227203369140625" lon="-0.44313588179647922515869140625">
        <ele>10.19999980926513671875</ele>
        <time>2019-10-25T07:34:38.000Z</time>
      </trkpt>
      <trkpt lat="38.363397158682346343994140625" lon="-0.44339169748127460479736328125">
        <ele>11.80000019073486328125</ele>
        <time>2019-10-25T07:34:42.000Z</time>
      </trkpt>
      <trkpt lat="38.36335147731006145477294921875" lon="-0.44365681707859039306640625">
        <ele>14.80000019073486328125</ele>
        <time>2019-10-25T07:34:47.000Z</time>
      </trkpt>
      <trkpt lat="38.36333152838051319122314453125" lon="-0.44389192946255207061767578125">
        <ele>17.3999996185302734375</ele>
        <time>2019-10-25T07:34:52.000Z</time>
      </trkpt>
      <trkpt lat="38.3633235655725002288818359375" lon="-0.444151349365711212158203125">
        <ele>19.3999996185302734375</ele>
        <time>2019-10-25T07:34:58.000Z</time>
      </trkpt>
      <trkpt lat="38.36332264356315135955810546875" lon="-0.44441730715334415435791015625">
        <ele>19.3999996185302734375</ele>
        <time>2019-10-25T07:35:05.000Z</time>
      </trkpt>
      <trkpt lat="38.36331040598452091217041015625" lon="-0.444648563861846923828125">
        <ele>19.200000762939453125</ele>
        <time>2019-10-25T07:35:10.000Z</time>
      </trkpt>
      <trkpt lat="38.3632793091237545013427734375" lon="-0.4448859393596649169921875">
        <ele>18</ele>
        <time>2019-10-25T07:35:16.000Z</time>
      </trkpt>
      <trkpt lat="38.3632544986903667449951171875" lon="-0.44511116109788417816162109375">
        <ele>16.3999996185302734375</ele>
        <time>2019-10-25T07:35:22.000Z</time>
      </trkpt>
      <trkpt lat="38.3631911315023899078369140625" lon="-0.44533252716064453125">
        <ele>14.19999980926513671875</ele>
        <time>2019-10-25T07:35:28.000Z</time>
      </trkpt>
      <trkpt lat="38.36310672573745250701904296875" lon="-0.4455603472888469696044921875">
        <ele>13.6000003814697265625</ele>
        <time>2019-10-25T07:35:35.000Z</time>
      </trkpt>
      <trkpt lat="38.36302273906767368316650390625" lon="-0.4457782767713069915771484375">
        <ele>13</ele>
        <time>2019-10-25T07:35:41.000Z</time>
      </trkpt>
      <trkpt lat="38.3629265986382961273193359375" lon="-0.445957817137241363525390625">
        <ele>12.6000003814697265625</ele>
        <time>2019-10-25T07:35:48.000Z</time>
      </trkpt>
      <trkpt lat="38.36285124532878398895263671875" lon="-0.44619058258831501007080078125">
        <ele>12.80000019073486328125</ele>
        <time>2019-10-25T07:35:54.000Z</time>
      </trkpt>
      <trkpt lat="38.3627445437014102935791015625" lon="-0.4463777504861354827880859375">
        <ele>13.19999980926513671875</ele>
        <time>2019-10-25T07:35:58.000Z</time>
      </trkpt>
      <trkpt lat="38.3626489900052547454833984375" lon="-0.44660246931016445159912109375">
        <ele>13.80000019073486328125</ele>
        <time>2019-10-25T07:36:03.000Z</time>
      </trkpt>
      <trkpt lat="38.3625457249581813812255859375" lon="-0.44681352563202381134033203125">
        <ele>14.19999980926513671875</ele>
        <time>2019-10-25T07:36:08.000Z</time>
      </trkpt>
      <trkpt lat="38.36244589649140834808349609375" lon="-0.44700480066239833831787109375">
        <ele>14.6000003814697265625</ele>
        <time>2019-10-25T07:36:13.000Z</time>
      </trkpt>
      <trkpt lat="38.36233399808406829833984375" lon="-0.4472387395799160003662109375">
        <ele>16.200000762939453125</ele>
        <time>2019-10-25T07:36:19.000Z</time>
      </trkpt>
      <trkpt lat="38.36221707053482532501220703125" lon="-0.44745792634785175323486328125">
        <ele>17.799999237060546875</ele>
        <time>2019-10-25T07:36:25.000Z</time>
      </trkpt>
      <trkpt lat="38.3620907552540302276611328125" lon="-0.4476682282984256744384765625">
        <ele>19</ele>
        <time>2019-10-25T07:36:31.000Z</time>
      </trkpt>
      <trkpt lat="38.36197349242866039276123046875" lon="-0.44788154773414134979248046875">
        <ele>19.6000003814697265625</ele>
        <time>2019-10-25T07:36:37.000Z</time>
      </trkpt>
      <trkpt lat="38.361848853528499603271484375" lon="-0.44808455742895603179931640625">
        <ele>20</ele>
        <time>2019-10-25T07:36:43.000Z</time>
      </trkpt>
      <trkpt lat="38.3617145754396915435791015625" lon="-0.4482827894389629364013671875">
        <ele>20.3999996185302734375</ele>
        <time>2019-10-25T07:36:49.000Z</time>
      </trkpt>
      <trkpt lat="38.3615871705114841461181640625" lon="-0.44847833923995494842529296875">
        <ele>21</ele>
        <time>2019-10-25T07:36:55.000Z</time>
      </trkpt>
      <trkpt lat="38.3614694885909557342529296875" lon="-0.44866181910037994384765625">
        <ele>21.6000003814697265625</ele>
        <time>2019-10-25T07:37:01.000Z</time>
      </trkpt>
      <trkpt lat="38.36135323159396648406982421875" lon="-0.44887463562190532684326171875">
        <ele>22</ele>
        <time>2019-10-25T07:37:07.000Z</time>
      </trkpt>
      <trkpt lat="38.361247368156909942626953125" lon="-0.44908820651471614837646484375">
        <ele>22.3999996185302734375</ele>
        <time>2019-10-25T07:37:12.000Z</time>
      </trkpt>
      <trkpt lat="38.361126668751239776611328125" lon="-0.449281744658946990966796875">
        <ele>22.6000003814697265625</ele>
        <time>2019-10-25T07:37:18.000Z</time>
      </trkpt>
      <trkpt lat="38.36102306842803955078125" lon="-0.4494617879390716552734375">
        <ele>24</ele>
        <time>2019-10-25T07:37:25.000Z</time>
      </trkpt>
      <trkpt lat="38.360716961324214935302734375" lon="-0.4499162547290325164794921875">
        <ele>30.3999996185302734375</ele>
        <time>2019-10-25T07:37:37.000Z</time>
      </trkpt>
      <trkpt lat="38.360677398741245269775390625" lon="-0.45006318949162960052490234375">
        <ele>33.40000152587890625</ele>
        <time>2019-10-25T07:37:42.000Z</time>
      </trkpt>
      <trkpt lat="38.36050498299300670623779296875" lon="-0.45017718337476253509521484375">
        <ele>38.40000152587890625</ele>
        <time>2019-10-25T07:37:46.000Z</time>
      </trkpt>
      <trkpt lat="38.36046441458165645599365234375" lon="-0.450262762606143951416015625">
        <ele>39.799999237060546875</ele>
        <time>2019-10-25T07:37:48.000Z</time>
      </trkpt>
      <trkpt lat="38.3603701181709766387939453125" lon="-0.4504783451557159423828125">
        <ele>39</ele>
        <time>2019-10-25T07:37:52.000Z</time>
      </trkpt>
      <trkpt lat="38.36034153588116168975830078125" lon="-0.45051212422549724578857421875">
        <ele>38.59999847412109375</ele>
        <time>2019-10-25T07:37:53.000Z</time>
      </trkpt>
      <trkpt lat="38.36022184230387210845947265625" lon="-0.45071446336805820465087890625">
        <ele>37.59999847412109375</ele>
        <time>2019-10-25T07:37:59.000Z</time>
      </trkpt>
      <trkpt lat="38.3601310662925243377685546875" lon="-0.450949408113956451416015625">
        <ele>36.40000152587890625</ele>
        <time>2019-10-25T07:38:04.000Z</time>
      </trkpt>
      <trkpt lat="38.36000843904912471771240234375" lon="-0.45113992877304553985595703125">
        <ele>33.200000762939453125</ele>
        <time>2019-10-25T07:38:09.000Z</time>
      </trkpt>
      <trkpt lat="38.35989293642342090606689453125" lon="-0.45131879858672618865966796875">
        <ele>30.799999237060546875</ele>
        <time>2019-10-25T07:38:13.000Z</time>
      </trkpt>
      <trkpt lat="38.35979260504245758056640625" lon="-0.45153002254664897918701171875">
        <ele>34.200000762939453125</ele>
        <time>2019-10-25T07:38:17.000Z</time>
      </trkpt>
      <trkpt lat="38.35966947488486766815185546875" lon="-0.4517458565533161163330078125">
        <ele>41.59999847412109375</ele>
        <time>2019-10-25T07:38:22.000Z</time>
      </trkpt>
      <trkpt lat="38.3596073649823665618896484375" lon="-0.45190586708486080169677734375">
        <ele>49.200000762939453125</ele>
        <time>2019-10-25T07:38:26.000Z</time>
      </trkpt>
      <trkpt lat="38.35958330892026424407958984375" lon="-0.452165119349956512451171875">
        <ele>50</ele>
        <time>2019-10-25T07:38:33.000Z</time>
      </trkpt>
      <trkpt lat="38.35953821428120136260986328125" lon="-0.45238950289785861968994140625">
        <ele>45.59999847412109375</ele>
        <time>2019-10-25T07:38:37.000Z</time>
      </trkpt>
      <trkpt lat="38.35954441688954830169677734375" lon="-0.45264816842973232269287109375">
        <ele>45.59999847412109375</ele>
        <time>2019-10-25T07:38:42.000Z</time>
      </trkpt>
      <trkpt lat="38.35955497808754444122314453125" lon="-0.45288923196494579315185546875">
        <ele>47.799999237060546875</ele>
        <time>2019-10-25T07:38:47.000Z</time>
      </trkpt>
      <trkpt lat="38.3595419861376285552978515625" lon="-0.45314169488847255706787109375">
        <ele>44.40000152587890625</ele>
        <time>2019-10-25T07:38:51.000Z</time>
      </trkpt>
      <trkpt lat="38.3594920299947261810302734375" lon="-0.453413017094135284423828125">
        <ele>36</ele>
        <time>2019-10-25T07:38:55.000Z</time>
      </trkpt>
      <trkpt lat="38.35942371748387813568115234375" lon="-0.45368132181465625762939453125">
        <ele>28.799999237060546875</ele>
        <time>2019-10-25T07:38:59.000Z</time>
      </trkpt>
      <trkpt lat="38.3593585900962352752685546875" lon="-0.4538751952350139617919921875">
        <ele>26.200000762939453125</ele>
        <time>2019-10-25T07:39:02.000Z</time>
      </trkpt>
      <trkpt lat="38.35925205610692501068115234375" lon="-0.45412120409309864044189453125">
        <ele>25</ele>
        <time>2019-10-25T07:39:06.000Z</time>
      </trkpt>
      <trkpt lat="38.35915717296302318572998046875" lon="-0.45431591570377349853515625">
        <ele>24.3999996185302734375</ele>
        <time>2019-10-25T07:39:09.000Z</time>
      </trkpt>
      <trkpt lat="38.3590350486338138580322265625" lon="-0.4544962942600250244140625">
        <ele>23.6000003814697265625</ele>
        <time>2019-10-25T07:39:12.000Z</time>
      </trkpt>
      <trkpt lat="38.35891342721879482269287109375" lon="-0.45468396507203578948974609375">
        <ele>25.200000762939453125</ele>
        <time>2019-10-25T07:39:15.000Z</time>
      </trkpt>
      <trkpt lat="38.3587949909269809722900390625" lon="-0.4549122042953968048095703125">
        <ele>28.200000762939453125</ele>
        <time>2019-10-25T07:39:19.000Z</time>
      </trkpt>
      <trkpt lat="38.35868418216705322265625" lon="-0.45510088093578815460205078125">
        <ele>25</ele>
        <time>2019-10-25T07:39:23.000Z</time>
      </trkpt>
      <trkpt lat="38.358566500246524810791015625" lon="-0.4551965184509754180908203125">
        <ele>17.3999996185302734375</ele>
        <time>2019-10-25T07:39:26.000Z</time>
      </trkpt>
      <trkpt lat="38.358461558818817138671875" lon="-0.4552521742880344390869140625">
        <ele>16.3999996185302734375</ele>
        <time>2019-10-25T07:39:29.000Z</time>
      </trkpt>
      <trkpt lat="38.35829216055572032928466796875" lon="-0.4553829319775104522705078125">
        <ele>14.80000019073486328125</ele>
        <time>2019-10-25T07:39:35.000Z</time>
      </trkpt>
      <trkpt lat="38.35823616944253444671630859375" lon="-0.45543766580522060394287109375">
        <ele>14.19999980926513671875</ele>
        <time>2019-10-25T07:39:37.000Z</time>
      </trkpt>
      <trkpt lat="38.358084373176097869873046875" lon="-0.4556186310946941375732421875">
        <ele>14.19999980926513671875</ele>
        <time>2019-10-25T07:39:42.000Z</time>
      </trkpt>
      <trkpt lat="38.35795286111533641815185546875" lon="-0.45573455281555652618408203125">
        <ele>14.19999980926513671875</ele>
        <time>2019-10-25T07:39:46.000Z</time>
      </trkpt>
      <trkpt lat="38.35791514255106449127197265625" lon="-0.4558191262185573577880859375">
        <ele>15.3999996185302734375</ele>
        <time>2019-10-25T07:39:48.000Z</time>
      </trkpt>
      <trkpt lat="38.3577682077884674072265625" lon="-0.45601165853440761566162109375">
        <ele>20</ele>
        <time>2019-10-25T07:39:54.000Z</time>
      </trkpt>
      <trkpt lat="38.35764004848897457122802734375" lon="-0.45612774789333343505859375">
        <ele>20</ele>
        <time>2019-10-25T07:39:59.000Z</time>
      </trkpt>
      <trkpt lat="38.3575152419507503509521484375" lon="-0.4563203640282154083251953125">
        <ele>21.3999996185302734375</ele>
        <time>2019-10-25T07:40:05.000Z</time>
      </trkpt>
      <trkpt lat="38.35738691501319408416748046875" lon="-0.4564846493303775787353515625">
        <ele>20.200000762939453125</ele>
        <time>2019-10-25T07:40:10.000Z</time>
      </trkpt>
      <trkpt lat="38.3572376333177089691162109375" lon="-0.45662990771234035491943359375">
        <ele>18</ele>
        <time>2019-10-25T07:40:15.000Z</time>
      </trkpt>
      <trkpt lat="38.35711668245494365692138671875" lon="-0.4568437300622463226318359375">
        <ele>17.6000003814697265625</ele>
        <time>2019-10-25T07:40:20.000Z</time>
      </trkpt>
      <trkpt lat="38.3570279181003570556640625" lon="-0.45707146637141704559326171875">
        <ele>16.6000003814697265625</ele>
        <time>2019-10-25T07:40:25.000Z</time>
      </trkpt>
      <trkpt lat="38.35691417567431926727294921875" lon="-0.45729090459644794464111328125">
        <ele>15.6000003814697265625</ele>
        <time>2019-10-25T07:40:30.000Z</time>
      </trkpt>
      <trkpt lat="38.35678844712674617767333984375" lon="-0.45750212855637073516845703125">
        <ele>13</ele>
        <time>2019-10-25T07:40:35.000Z</time>
      </trkpt>
      <trkpt lat="38.356696665287017822265625" lon="-0.45775794424116611480712890625">
        <ele>18.3999996185302734375</ele>
        <time>2019-10-25T07:40:40.000Z</time>
      </trkpt>
      <trkpt lat="38.35661955177783966064453125" lon="-0.45796782709658145904541015625">
        <ele>23.6000003814697265625</ele>
        <time>2019-10-25T07:40:44.000Z</time>
      </trkpt>
      <trkpt lat="38.3565177954733371734619140625" lon="-0.4582213796675205230712890625">
        <ele>26.3999996185302734375</ele>
        <time>2019-10-25T07:40:49.000Z</time>
      </trkpt>
      <trkpt lat="38.35641293786466121673583984375" lon="-0.45845934189856052398681640625">
        <ele>25.200000762939453125</ele>
        <time>2019-10-25T07:40:54.000Z</time>
      </trkpt>
      <trkpt lat="38.35630849935114383697509765625" lon="-0.45866771601140499114990234375">
        <ele>22.6000003814697265625</ele>
        <time>2019-10-25T07:40:59.000Z</time>
      </trkpt>
      <trkpt lat="38.356192745268344879150390625" lon="-0.45887340791523456573486328125">
        <ele>19</ele>
        <time>2019-10-25T07:41:05.000Z</time>
      </trkpt>
      <trkpt lat="38.3561588823795318603515625" lon="-0.458927638828754425048828125">
        <ele>18</ele>
        <time>2019-10-25T07:41:07.000Z</time>
      </trkpt>
      <trkpt lat="38.35607347078621387481689453125" lon="-0.45908882282674312591552734375">
        <ele>15.80000019073486328125</ele>
        <time>2019-10-25T07:41:13.000Z</time>
      </trkpt>
      <trkpt lat="38.35597188211977481842041015625" lon="-0.45928202569484710693359375">
        <ele>15.80000019073486328125</ele>
        <time>2019-10-25T07:41:21.000Z</time>
      </trkpt>
      <trkpt lat="38.35586895234882831573486328125" lon="-0.4594867117702960968017578125">
        <ele>16</ele>
        <time>2019-10-25T07:41:29.000Z</time>
      </trkpt>
      <trkpt lat="38.3557838760316371917724609375" lon="-0.45969483442604541778564453125">
        <ele>13.80000019073486328125</ele>
        <time>2019-10-25T07:41:36.000Z</time>
      </trkpt>
      <trkpt lat="38.35569955408573150634765625" lon="-0.45992910861968994140625">
        <ele>12.6000003814697265625</ele>
        <time>2019-10-25T07:41:43.000Z</time>
      </trkpt>
      <trkpt lat="38.35571723990142345428466796875" lon="-0.46003036201000213623046875">
        <ele>13.3999996185302734375</ele>
        <time>2019-10-25T07:41:46.000Z</time>
      </trkpt>
      <trkpt lat="38.35586090572178363800048828125" lon="-0.460179559886455535888671875">
        <ele>22.6000003814697265625</ele>
        <time>2019-10-25T07:41:53.000Z</time>
      </trkpt>
      <trkpt lat="38.355870544910430908203125" lon="-0.46020663343369960784912109375">
        <ele>24</ele>
        <time>2019-10-25T07:41:54.000Z</time>
      </trkpt>
      <trkpt lat="38.35583156906068325042724609375" lon="-0.46035767532885074615478515625">
        <ele>27.200000762939453125</ele>
        <time>2019-10-25T07:41:59.000Z</time>
      </trkpt>
      <trkpt lat="38.3557503484189510345458984375" lon="-0.4605683125555515289306640625">
        <ele>29.200000762939453125</ele>
        <time>2019-10-25T07:42:04.000Z</time>
      </trkpt>
      <trkpt lat="38.35569142363965511322021484375" lon="-0.46074860729277133941650390625">
        <ele>30.200000762939453125</ele>
        <time>2019-10-25T07:42:07.000Z</time>
      </trkpt>
      <trkpt lat="38.3556008152663707733154296875" lon="-0.46098732389509677886962890625">
        <ele>29</ele>
        <time>2019-10-25T07:42:11.000Z</time>
      </trkpt>
      <trkpt lat="38.355503417551517486572265625" lon="-0.46118999831378459930419921875">
        <ele>26.6000003814697265625</ele>
        <time>2019-10-25T07:42:15.000Z</time>
      </trkpt>
      <trkpt lat="38.35541415028274059295654296875" lon="-0.4614299722015857696533203125">
        <ele>26.799999237060546875</ele>
        <time>2019-10-25T07:42:20.000Z</time>
      </trkpt>
      <trkpt lat="38.3553336001932621002197265625" lon="-0.4616418667137622833251953125">
        <ele>25</ele>
        <time>2019-10-25T07:42:24.000Z</time>
      </trkpt>
      <trkpt lat="38.35522614419460296630859375" lon="-0.46189039014279842376708984375">
        <ele>22.799999237060546875</ele>
        <time>2019-10-25T07:42:28.000Z</time>
      </trkpt>
      <trkpt lat="38.35511759854853153228759765625" lon="-0.46212323941290378570556640625">
        <ele>22</ele>
        <time>2019-10-25T07:42:32.000Z</time>
      </trkpt>
      <trkpt lat="38.3549865894019603729248046875" lon="-0.4623566754162311553955078125">
        <ele>19</ele>
        <time>2019-10-25T07:42:37.000Z</time>
      </trkpt>
      <trkpt lat="38.35487083531916141510009765625" lon="-0.46258927322924137115478515625">
        <ele>16.3999996185302734375</ele>
        <time>2019-10-25T07:42:41.000Z</time>
      </trkpt>
      <trkpt lat="38.35475969128310680389404296875" lon="-0.462785661220550537109375">
        <ele>13.6000003814697265625</ele>
        <time>2019-10-25T07:42:44.000Z</time>
      </trkpt>
      <trkpt lat="38.354686014354228973388671875" lon="-0.46291172504425048828125">
        <ele>11.6000003814697265625</ele>
        <time>2019-10-25T07:42:46.000Z</time>
      </trkpt>
      <trkpt lat="38.354593478143215179443359375" lon="-0.4630808718502521514892578125">
        <ele>11.19999980926513671875</ele>
        <time>2019-10-25T07:42:49.000Z</time>
      </trkpt>
      <trkpt lat="38.354547880589962005615234375" lon="-0.46319142915308475494384765625">
        <ele>11.19999980926513671875</ele>
        <time>2019-10-25T07:42:51.000Z</time>
      </trkpt>
      <trkpt lat="38.35440882481634616851806640625" lon="-0.4633983783423900604248046875">
        <ele>10.3999996185302734375</ele>
        <time>2019-10-25T07:42:56.000Z</time>
      </trkpt>
      <trkpt lat="38.3543706871569156646728515625" lon="-0.46345814131200313568115234375">
        <ele>10.19999980926513671875</ele>
        <time>2019-10-25T07:42:58.000Z</time>
      </trkpt>
      <trkpt lat="38.35433523170650005340576171875" lon="-0.4635224305093288421630859375">
        <ele>10.19999980926513671875</ele>
        <time>2019-10-25T07:43:01.000Z</time>
      </trkpt>
      <trkpt lat="38.35427236743271350860595703125" lon="-0.463622175157070159912109375">
        <ele>10</ele>
        <time>2019-10-25T07:43:05.000Z</time>
      </trkpt>
      <trkpt lat="38.35414814762771129608154296875" lon="-0.4638198204338550567626953125">
        <ele>8.3999996185302734375</ele>
        <time>2019-10-25T07:43:10.000Z</time>
      </trkpt>
      <trkpt lat="38.35400431416928768157958984375" lon="-0.46399290673434734344482421875">
        <ele>7.400000095367431640625</ele>
        <time>2019-10-25T07:43:14.000Z</time>
      </trkpt>
      <trkpt lat="38.3539629913866519927978515625" lon="-0.46403816901147365570068359375">
        <ele>7.400000095367431640625</ele>
        <time>2019-10-25T07:43:15.000Z</time>
      </trkpt>
      <trkpt lat="38.3537973649799823760986328125" lon="-0.46421905048191547393798828125">
        <ele>6.80000019073486328125</ele>
        <time>2019-10-25T07:43:19.000Z</time>
      </trkpt>
      <trkpt lat="38.3536354266107082366943359375" lon="-0.46439641155302524566650390625">
        <ele>6.400000095367431640625</ele>
        <time>2019-10-25T07:43:23.000Z</time>
      </trkpt>
      <trkpt lat="38.35346166975796222686767578125" lon="-0.46456606127321720123291015625">
        <ele>5.599999904632568359375</ele>
        <time>2019-10-25T07:43:27.000Z</time>
      </trkpt>
      <trkpt lat="38.35327483713626861572265625" lon="-0.46474174596369266510009765625">
        <ele>5.19999980926513671875</ele>
        <time>2019-10-25T07:43:31.000Z</time>
      </trkpt>
      <trkpt lat="38.35323250852525234222412109375" lon="-0.464786924421787261962890625">
        <ele>5.400000095367431640625</ele>
        <time>2019-10-25T07:43:32.000Z</time>
      </trkpt>
      <trkpt lat="38.35307677276432514190673828125" lon="-0.4649542272090911865234375">
        <ele>6</ele>
        <time>2019-10-25T07:43:36.000Z</time>
      </trkpt>
      <trkpt lat="38.35299546830356121063232421875" lon="-0.46504869125783443450927734375">
        <ele>6.599999904632568359375</ele>
        <time>2019-10-25T07:43:39.000Z</time>
      </trkpt>
      <trkpt lat="38.35292103700339794158935546875" lon="-0.46516922302544116973876953125">
        <ele>8</ele>
        <time>2019-10-25T07:43:45.000Z</time>
      </trkpt>
      <trkpt lat="38.35286001674830913543701171875" lon="-0.46526201069355010986328125">
        <ele>9</ele>
        <time>2019-10-25T07:43:50.000Z</time>
      </trkpt>
      <trkpt lat="38.3528471924364566802978515625" lon="-0.46528204344213008880615234375">
        <ele>9.19999980926513671875</ele>
        <time>2019-10-25T07:43:51.000Z</time>
      </trkpt>
      <trkpt lat="38.352805115282535552978515625" lon="-0.4653734900057315826416015625">
        <ele>9.80000019073486328125</ele>
        <time>2019-10-25T07:43:55.000Z</time>
      </trkpt>
      <trkpt lat="38.3527308516204357147216796875" lon="-0.4655335843563079833984375">
        <ele>10.80000019073486328125</ele>
        <time>2019-10-25T07:44:04.000Z</time>
      </trkpt>
      <trkpt lat="38.35269070230424404144287109375" lon="-0.4656849615275859832763671875">
        <ele>10.6000003814697265625</ele>
        <time>2019-10-25T07:44:22.000Z</time>
      </trkpt>
      <trkpt lat="38.35259431041777133941650390625" lon="-0.46587950550019741058349609375">
        <ele>9.6000003814697265625</ele>
        <time>2019-10-25T07:44:29.000Z</time>
      </trkpt>
      <trkpt lat="38.35247947834432125091552734375" lon="-0.46609508804976940155029296875">
        <ele>9.19999980926513671875</ele>
        <time>2019-10-25T07:44:36.000Z</time>
      </trkpt>
      <trkpt lat="38.35239230655133724212646484375" lon="-0.46630748547613620758056640625">
        <ele>10</ele>
        <time>2019-10-25T07:44:42.000Z</time>
      </trkpt>
      <trkpt lat="38.35228702984750270843505859375" lon="-0.466527678072452545166015625">
        <ele>9.80000019073486328125</ele>
        <time>2019-10-25T07:44:49.000Z</time>
      </trkpt>
      <trkpt lat="38.3521877042949199676513671875" lon="-0.4667481221258640289306640625">
        <ele>9.80000019073486328125</ele>
        <time>2019-10-25T07:44:56.000Z</time>
      </trkpt>
      <trkpt lat="38.35207982920110225677490234375" lon="-0.466965548694133758544921875">
        <ele>9</ele>
        <time>2019-10-25T07:45:02.000Z</time>
      </trkpt>
      <trkpt lat="38.35198863409459590911865234375" lon="-0.46717115677893161773681640625">
        <ele>7.80000019073486328125</ele>
        <time>2019-10-25T07:45:08.000Z</time>
      </trkpt>
      <trkpt lat="38.35190028883516788482666015625" lon="-0.4673843085765838623046875">
        <ele>8.3999996185302734375</ele>
        <time>2019-10-25T07:45:14.000Z</time>
      </trkpt>
      <trkpt lat="38.35180255584418773651123046875" lon="-0.467597208917140960693359375">
        <ele>9.3999996185302734375</ele>
        <time>2019-10-25T07:45:20.000Z</time>
      </trkpt>
      <trkpt lat="38.351624272763729095458984375" lon="-0.46763467602431774139404296875">
        <ele>7.599999904632568359375</ele>
        <time>2019-10-25T07:45:28.000Z</time>
      </trkpt>
      <trkpt lat="38.3515825308859348297119140625" lon="-0.4677271284162998199462890625">
        <ele>7.400000095367431640625</ele>
        <time>2019-10-25T07:45:31.000Z</time>
      </trkpt>
      <trkpt lat="38.35146979428827762603759765625" lon="-0.46794162131845951080322265625">
        <ele>6.400000095367431640625</ele>
        <time>2019-10-25T07:45:37.000Z</time>
      </trkpt>
      <trkpt lat="38.35136317647993564605712890625" lon="-0.46815535984933376312255859375">
        <ele>5.19999980926513671875</ele>
        <time>2019-10-25T07:45:43.000Z</time>
      </trkpt>
      <trkpt lat="38.351275920867919921875" lon="-0.4683738760650157928466796875">
        <ele>5</ele>
        <time>2019-10-25T07:45:48.000Z</time>
      </trkpt>
      <trkpt lat="38.35118095390498638153076171875" lon="-0.4685747064650058746337890625">
        <ele>5</ele>
        <time>2019-10-25T07:45:53.000Z</time>
      </trkpt>
      <trkpt lat="38.3510641939938068389892578125" lon="-0.4687845893204212188720703125">
        <ele>5</ele>
        <time>2019-10-25T07:45:58.000Z</time>
      </trkpt>
      <trkpt lat="38.35095548070967197418212890625" lon="-0.4689854197204113006591796875">
        <ele>5.400000095367431640625</ele>
        <time>2019-10-25T07:46:03.000Z</time>
      </trkpt>
      <trkpt lat="38.35083863697946071624755859375" lon="-0.4691827297210693359375">
        <ele>5.599999904632568359375</ele>
        <time>2019-10-25T07:46:08.000Z</time>
      </trkpt>
      <trkpt lat="38.3506925404071807861328125" lon="-0.469358079135417938232421875">
        <ele>6.80000019073486328125</ele>
        <time>2019-10-25T07:46:14.000Z</time>
      </trkpt>
      <trkpt lat="38.350495062768459320068359375" lon="-0.4694232903420925140380859375">
        <ele>7.80000019073486328125</ele>
        <time>2019-10-25T07:46:21.000Z</time>
      </trkpt>
      <trkpt lat="38.35031242109835147857666015625" lon="-0.46956025063991546630859375">
        <ele>7.400000095367431640625</ele>
        <time>2019-10-25T07:46:26.000Z</time>
      </trkpt>
      <trkpt lat="38.35015467368066310882568359375" lon="-0.46967424452304840087890625">
        <ele>7.80000019073486328125</ele>
        <time>2019-10-25T07:46:30.000Z</time>
      </trkpt>
      <trkpt lat="38.349969685077667236328125" lon="-0.469837188720703125">
        <ele>8.80000019073486328125</ele>
        <time>2019-10-25T07:46:35.000Z</time>
      </trkpt>
      <trkpt lat="38.34982124157249927520751953125" lon="-0.469987057149410247802734375">
        <ele>10.3999996185302734375</ele>
        <time>2019-10-25T07:46:39.000Z</time>
      </trkpt>
      <trkpt lat="38.349680341780185699462890625" lon="-0.4701443016529083251953125">
        <ele>9.3999996185302734375</ele>
        <time>2019-10-25T07:46:43.000Z</time>
      </trkpt>
      <trkpt lat="38.34955318830907344818115234375" lon="-0.47033398412168025970458984375">
        <ele>7.80000019073486328125</ele>
        <time>2019-10-25T07:46:47.000Z</time>
      </trkpt>
      <trkpt lat="38.3494417928159236907958984375" lon="-0.4705293662846088409423828125">
        <ele>5.400000095367431640625</ele>
        <time>2019-10-25T07:46:51.000Z</time>
      </trkpt>
      <trkpt lat="38.3493204228579998016357421875" lon="-0.47072307206690311431884765625">
        <ele>4.80000019073486328125</ele>
        <time>2019-10-25T07:46:55.000Z</time>
      </trkpt>
      <trkpt lat="38.34922763518989086151123046875" lon="-0.4709333740174770355224609375">
        <ele>5.19999980926513671875</ele>
        <time>2019-10-25T07:46:59.000Z</time>
      </trkpt>
      <trkpt lat="38.3491205982863903045654296875" lon="-0.4711744375526905059814453125">
        <ele>6.599999904632568359375</ele>
        <time>2019-10-25T07:47:04.000Z</time>
      </trkpt>
      <trkpt lat="38.3490572310984134674072265625" lon="-0.4713414050638675689697265625">
        <ele>7.80000019073486328125</ele>
        <time>2019-10-25T07:47:08.000Z</time>
      </trkpt>
      <trkpt lat="38.3490515314042568206787109375" lon="-0.471385829150676727294921875">
        <ele>8</ele>
        <time>2019-10-25T07:47:09.000Z</time>
      </trkpt>
      <trkpt lat="38.3490327559411525726318359375" lon="-0.47151289880275726318359375">
        <ele>8.19999980926513671875</ele>
        <time>2019-10-25T07:47:12.000Z</time>
      </trkpt>
      <trkpt lat="38.3490213565528392791748046875" lon="-0.471551120281219482421875">
        <ele>8.19999980926513671875</ele>
        <time>2019-10-25T07:47:13.000Z</time>
      </trkpt>
      <trkpt lat="38.348940722644329071044921875" lon="-0.47176343388855457305908203125">
        <ele>7.599999904632568359375</ele>
        <time>2019-10-25T07:47:20.000Z</time>
      </trkpt>
      <trkpt lat="38.3489023335278034210205078125" lon="-0.47200642526149749755859375">
        <ele>7</ele>
        <time>2019-10-25T07:47:28.000Z</time>
      </trkpt>
      <trkpt lat="38.34883318282663822174072265625" lon="-0.472246147692203521728515625">
        <ele>7.19999980926513671875</ele>
        <time>2019-10-25T07:47:36.000Z</time>
      </trkpt>
      <trkpt lat="38.34877886809408664703369140625" lon="-0.47239626757800579071044921875">
        <ele>7.599999904632568359375</ele>
        <time>2019-10-25T07:47:42.000Z</time>
      </trkpt>
      <trkpt lat="38.34876109845936298370361328125" lon="-0.47241747379302978515625">
        <ele>7.80000019073486328125</ele>
        <time>2019-10-25T07:47:45.000Z</time>
      </trkpt>
      <trkpt lat="38.348692953586578369140625" lon="-0.4724944196641445159912109375">
        <ele>8</ele>
        <time>2019-10-25T07:48:06.000Z</time>
      </trkpt>
      <trkpt lat="38.3486897684633731842041015625" lon="-0.4724662564694881439208984375">
        <ele>8</ele>
        <time>2019-10-25T07:48:10.000Z</time>
      </trkpt>
      <trkpt lat="38.34872337989509105682373046875" lon="-0.47247287817299365997314453125">
        <ele>8</ele>
        <time>2019-10-25T07:48:30.000Z</time>
      </trkpt>
      <trkpt lat="38.3487437479197978973388671875" lon="-0.472442619502544403076171875">
        <ele>7.80000019073486328125</ele>
        <time>2019-10-25T07:49:29.000Z</time>
      </trkpt>
      <trkpt lat="38.34869773127138614654541015625" lon="-0.47249366529285907745361328125">
        <ele>8</ele>
        <time>2019-10-25T07:49:36.000Z</time>
      </trkpt>
      <trkpt lat="38.34866420365869998931884765625" lon="-0.4725279472768306732177734375">
        <ele>7.80000019073486328125</ele>
        <time>2019-10-25T07:51:08.000Z</time>
      </trkpt>
      <trkpt lat="38.3486679755151271820068359375" lon="-0.4726345650851726531982421875">
        <ele>7.400000095367431640625</ele>
        <time>2019-10-25T07:51:40.000Z</time>
      </trkpt>
      <trkpt lat="38.3486404828727245330810546875" lon="-0.47286339104175567626953125">
        <ele>7</ele>
        <time>2019-10-25T07:51:47.000Z</time>
      </trkpt>
      <trkpt lat="38.34859228692948818206787109375" lon="-0.47310034744441509246826171875">
        <ele>7.400000095367431640625</ele>
        <time>2019-10-25T07:51:53.000Z</time>
      </trkpt>
      <trkpt lat="38.34853763692080974578857421875" lon="-0.473362617194652557373046875">
        <ele>7.80000019073486328125</ele>
        <time>2019-10-25T07:51:59.000Z</time>
      </trkpt>
      <trkpt lat="38.348478041589260101318359375" lon="-0.473589263856410980224609375">
        <ele>8.6000003814697265625</ele>
        <time>2019-10-25T07:52:04.000Z</time>
      </trkpt>
      <trkpt lat="38.3483896963298320770263671875" lon="-0.473813228309154510498046875">
        <ele>9.3999996185302734375</ele>
        <time>2019-10-25T07:52:09.000Z</time>
      </trkpt>
      <trkpt lat="38.34827997721731662750244140625" lon="-0.4740628413856029510498046875">
        <ele>10.3999996185302734375</ele>
        <time>2019-10-25T07:52:14.000Z</time>
      </trkpt>
      <trkpt lat="38.348163552582263946533203125" lon="-0.4742588102817535400390625">
        <ele>13.80000019073486328125</ele>
        <time>2019-10-25T07:52:18.000Z</time>
      </trkpt>
      <trkpt lat="38.3480289392173290252685546875" lon="-0.474464334547519683837890625">
        <ele>18.3999996185302734375</ele>
        <time>2019-10-25T07:52:22.000Z</time>
      </trkpt>
      <trkpt lat="38.3478871174156665802001953125" lon="-0.47467279247939586639404296875">
        <ele>18.200000762939453125</ele>
        <time>2019-10-25T07:52:26.000Z</time>
      </trkpt>
      <trkpt lat="38.3477560244500637054443359375" lon="-0.47488770447671413421630859375">
        <ele>16.200000762939453125</ele>
        <time>2019-10-25T07:52:30.000Z</time>
      </trkpt>
      <trkpt lat="38.34768955595791339874267578125" lon="-0.47498744912445545196533203125">
        <ele>15.19999980926513671875</ele>
        <time>2019-10-25T07:52:32.000Z</time>
      </trkpt>
      <trkpt lat="38.3475561998784542083740234375" lon="-0.47516866587102413177490234375">
        <ele>16.6000003814697265625</ele>
        <time>2019-10-25T07:52:36.000Z</time>
      </trkpt>
      <trkpt lat="38.3474643342196941375732421875" lon="-0.47530914656817913055419921875">
        <ele>17.799999237060546875</ele>
        <time>2019-10-25T07:52:39.000Z</time>
      </trkpt>
      <trkpt lat="38.3473520167171955108642578125" lon="-0.47549606300890445709228515625">
        <ele>18.3999996185302734375</ele>
        <time>2019-10-25T07:52:43.000Z</time>
      </trkpt>
      <trkpt lat="38.34722704254090785980224609375" lon="-0.47568448819220066070556640625">
        <ele>17.200000762939453125</ele>
        <time>2019-10-25T07:52:47.000Z</time>
      </trkpt>
      <trkpt lat="38.34709360264241695404052734375" lon="-0.47584676183760166168212890625">
        <ele>15.6000003814697265625</ele>
        <time>2019-10-25T07:52:51.000Z</time>
      </trkpt>
      <trkpt lat="38.3470609970390796661376953125" lon="-0.47589026391506195068359375">
        <ele>15.80000019073486328125</ele>
        <time>2019-10-25T07:52:52.000Z</time>
      </trkpt>
      <trkpt lat="38.34692680276930332183837890625" lon="-0.476054884493350982666015625">
        <ele>16.3999996185302734375</ele>
        <time>2019-10-25T07:52:56.000Z</time>
      </trkpt>
      <trkpt lat="38.3467569015920162200927734375" lon="-0.47623652033507823944091796875">
        <ele>15.19999980926513671875</ele>
        <time>2019-10-25T07:53:01.000Z</time>
      </trkpt>
      <trkpt lat="38.34660158492624759674072265625" lon="-0.47635872848331928253173828125">
        <ele>13.3999996185302734375</ele>
        <time>2019-10-25T07:53:05.000Z</time>
      </trkpt>
      <trkpt lat="38.34644970484077930450439453125" lon="-0.47649443149566650390625">
        <ele>12.80000019073486328125</ele>
        <time>2019-10-25T07:53:09.000Z</time>
      </trkpt>
      <trkpt lat="38.34629748947918415069580078125" lon="-0.4766176454722881317138671875">
        <ele>12.3999996185302734375</ele>
        <time>2019-10-25T07:53:13.000Z</time>
      </trkpt>
      <trkpt lat="38.346145190298557281494140625" lon="-0.47675125300884246826171875">
        <ele>13.6000003814697265625</ele>
        <time>2019-10-25T07:53:18.000Z</time>
      </trkpt>
      <trkpt lat="38.346027843654155731201171875" lon="-0.47685594297945499420166015625">
        <ele>14.3999996185302734375</ele>
        <time>2019-10-25T07:53:22.000Z</time>
      </trkpt>
      <trkpt lat="38.34596053697168827056884765625" lon="-0.47695836983621120452880859375">
        <ele>14.80000019073486328125</ele>
        <time>2019-10-25T07:53:25.000Z</time>
      </trkpt>
      <trkpt lat="38.34591745398938655853271484375" lon="-0.47703196294605731964111328125">
        <ele>14</ele>
        <time>2019-10-25T07:53:27.000Z</time>
      </trkpt>
      <trkpt lat="38.3458516560494899749755859375" lon="-0.47713338397443294525146484375">
        <ele>13</ele>
        <time>2019-10-25T07:53:30.000Z</time>
      </trkpt>
      <trkpt lat="38.34576339460909366607666015625" lon="-0.47725860960781574249267578125">
        <ele>11.80000019073486328125</ele>
        <time>2019-10-25T07:53:35.000Z</time>
      </trkpt>
      <trkpt lat="38.34565644152462482452392578125" lon="-0.4774238169193267822265625">
        <ele>11</ele>
        <time>2019-10-25T07:53:43.000Z</time>
      </trkpt>
      <trkpt lat="38.345546387135982513427734375" lon="-0.47761014662683010101318359375">
        <ele>10.19999980926513671875</ele>
        <time>2019-10-25T07:53:50.000Z</time>
      </trkpt>
      <trkpt lat="38.3454147912561893463134765625" lon="-0.47778792679309844970703125">
        <ele>9.6000003814697265625</ele>
        <time>2019-10-25T07:53:57.000Z</time>
      </trkpt>
      <trkpt lat="38.3452944271266460418701171875" lon="-0.4779597558081150054931640625">
        <ele>8.6000003814697265625</ele>
        <time>2019-10-25T07:54:03.000Z</time>
      </trkpt>
      <trkpt lat="38.345178253948688507080078125" lon="-0.47813661396503448486328125">
        <ele>7.400000095367431640625</ele>
        <time>2019-10-25T07:54:09.000Z</time>
      </trkpt>
      <trkpt lat="38.34504875354468822479248046875" lon="-0.47834205441176891326904296875">
        <ele>6.19999980926513671875</ele>
        <time>2019-10-25T07:54:16.000Z</time>
      </trkpt>
      <trkpt lat="38.34492537193000316619873046875" lon="-0.47855076380074024200439453125">
        <ele>7.19999980926513671875</ele>
        <time>2019-10-25T07:54:23.000Z</time>
      </trkpt>
      <trkpt lat="38.34477801807224750518798828125" lon="-0.4787168093025684356689453125">
        <ele>7.599999904632568359375</ele>
        <time>2019-10-25T07:54:30.000Z</time>
      </trkpt>
      <trkpt lat="38.34465865977108478546142578125" lon="-0.47890531830489635467529296875">
        <ele>7.80000019073486328125</ele>
        <time>2019-10-25T07:54:36.000Z</time>
      </trkpt>
      <trkpt lat="38.34449328482151031494140625" lon="-0.47899668104946613311767578125">
        <ele>6.400000095367431640625</ele>
        <time>2019-10-25T07:54:42.000Z</time>
      </trkpt>
      <trkpt lat="38.3443170972168445587158203125" lon="-0.47910732217133045196533203125">
        <ele>6.400000095367431640625</ele>
        <time>2019-10-25T07:54:49.000Z</time>
      </trkpt>
      <trkpt lat="38.34421274252235889434814453125" lon="-0.47929742373526096343994140625">
        <ele>7.80000019073486328125</ele>
        <time>2019-10-25T07:54:55.000Z</time>
      </trkpt>
      <trkpt lat="38.34413495846092700958251953125" lon="-0.479531697928905487060546875">
        <ele>8.6000003814697265625</ele>
        <time>2019-10-25T07:55:02.000Z</time>
      </trkpt>
      <trkpt lat="38.34408584050834178924560546875" lon="-0.4796929657459259033203125">
        <ele>8.3999996185302734375</ele>
        <time>2019-10-25T07:55:07.000Z</time>
      </trkpt>
      <trkpt lat="38.3440475352108478546142578125" lon="-0.47983000986278057098388671875">
        <ele>7.400000095367431640625</ele>
        <time>2019-10-25T07:55:12.000Z</time>
      </trkpt>
      <trkpt lat="38.344021551311016082763671875" lon="-0.4800706543028354644775390625">
        <ele>5.80000019073486328125</ele>
        <time>2019-10-25T07:55:19.000Z</time>
      </trkpt>
      <trkpt lat="38.3439590223133563995361328125" lon="-0.48032387159764766693115234375">
        <ele>7.19999980926513671875</ele>
        <time>2019-10-25T07:55:26.000Z</time>
      </trkpt>
      <trkpt lat="38.34388316608965396881103515625" lon="-0.4805732332170009613037109375">
        <ele>7</ele>
        <time>2019-10-25T07:55:32.000Z</time>
      </trkpt>
      <trkpt lat="38.34379750303924083709716796875" lon="-0.48079795204102993011474609375">
        <ele>6.19999980926513671875</ele>
        <time>2019-10-25T07:55:37.000Z</time>
      </trkpt>
      <trkpt lat="38.34370329044759273529052734375" lon="-0.481026358902454376220703125">
        <ele>6.19999980926513671875</ele>
        <time>2019-10-25T07:55:42.000Z</time>
      </trkpt>
      <trkpt lat="38.34361963905394077301025390625" lon="-0.48124588094651699066162109375">
        <ele>9.3999996185302734375</ele>
        <time>2019-10-25T07:55:47.000Z</time>
      </trkpt>
      <trkpt lat="38.34354923106729984283447265625" lon="-0.48147051595151424407958984375">
        <ele>12.3999996185302734375</ele>
        <time>2019-10-25T07:55:52.000Z</time>
      </trkpt>
      <trkpt lat="38.3434601314365863800048828125" lon="-0.481691546738147735595703125">
        <ele>12.80000019073486328125</ele>
        <time>2019-10-25T07:55:57.000Z</time>
      </trkpt>
      <trkpt lat="38.34336566738784313201904296875" lon="-0.4819072969257831573486328125">
        <ele>11.6000003814697265625</ele>
        <time>2019-10-25T07:56:02.000Z</time>
      </trkpt>
      <trkpt lat="38.343277908861637115478515625" lon="-0.482119023799896240234375">
        <ele>10.19999980926513671875</ele>
        <time>2019-10-25T07:56:07.000Z</time>
      </trkpt>
      <trkpt lat="38.34319350309669971466064453125" lon="-0.48233703710138797760009765625">
        <ele>8.80000019073486328125</ele>
        <time>2019-10-25T07:56:12.000Z</time>
      </trkpt>
      <trkpt lat="38.34310314618051052093505859375" lon="-0.482563935220241546630859375">
        <ele>9</ele>
        <time>2019-10-25T07:56:17.000Z</time>
      </trkpt>
      <trkpt lat="38.3430293016135692596435546875" lon="-0.4827776737511157989501953125">
        <ele>9.3999996185302734375</ele>
        <time>2019-10-25T07:56:22.000Z</time>
      </trkpt>
      <trkpt lat="38.34293894469738006591796875" lon="-0.4830113612115383148193359375">
        <ele>9.80000019073486328125</ele>
        <time>2019-10-25T07:56:28.000Z</time>
      </trkpt>
      <trkpt lat="38.34285168908536434173583984375" lon="-0.483218729496002197265625">
        <ele>9.19999980926513671875</ele>
        <time>2019-10-25T07:56:33.000Z</time>
      </trkpt>
      <trkpt lat="38.342772312462329864501953125" lon="-0.48344361595809459686279296875">
        <ele>10.19999980926513671875</ele>
        <time>2019-10-25T07:56:38.000Z</time>
      </trkpt>
      <trkpt lat="38.34267181344330310821533203125" lon="-0.48365718685090541839599609375">
        <ele>12.19999980926513671875</ele>
        <time>2019-10-25T07:56:43.000Z</time>
      </trkpt>
      <trkpt lat="38.34258028306066989898681640625" lon="-0.4838871024549007415771484375">
        <ele>14.80000019073486328125</ele>
        <time>2019-10-25T07:56:48.000Z</time>
      </trkpt>
      <trkpt lat="38.3425042591989040374755859375" lon="-0.484116934239864349365234375">
        <ele>15.3999996185302734375</ele>
        <time>2019-10-25T07:56:53.000Z</time>
      </trkpt>
      <trkpt lat="38.3424009941518306732177734375" lon="-0.4843407310545444488525390625">
        <ele>13.80000019073486328125</ele>
        <time>2019-10-25T07:56:58.000Z</time>
      </trkpt>
      <trkpt lat="38.3423101343214511871337890625" lon="-0.4845636896789073944091796875">
        <ele>11.6000003814697265625</ele>
        <time>2019-10-25T07:57:03.000Z</time>
      </trkpt>
      <trkpt lat="38.34222639910876750946044921875" lon="-0.48477952368557453155517578125">
        <ele>10</ele>
        <time>2019-10-25T07:57:08.000Z</time>
      </trkpt>
      <trkpt lat="38.342136628925800323486328125" lon="-0.4849978722631931304931640625">
        <ele>9.6000003814697265625</ele>
        <time>2019-10-25T07:57:13.000Z</time>
      </trkpt>
      <trkpt lat="38.34199438802897930145263671875" lon="-0.48519543372094631195068359375">
        <ele>9.3999996185302734375</ele>
        <time>2019-10-25T07:57:18.000Z</time>
      </trkpt>
      <trkpt lat="38.34182574413716793060302734375" lon="-0.48535041511058807373046875">
        <ele>9.19999980926513671875</ele>
        <time>2019-10-25T07:57:23.000Z</time>
      </trkpt>
      <trkpt lat="38.34166129119694232940673828125" lon="-0.48549927771091461181640625">
        <ele>9.80000019073486328125</ele>
        <time>2019-10-25T07:57:28.000Z</time>
      </trkpt>
      <trkpt lat="38.341503627598285675048828125" lon="-0.48563213087618350982666015625">
        <ele>9.19999980926513671875</ele>
        <time>2019-10-25T07:57:34.000Z</time>
      </trkpt>
      <trkpt lat="38.34149918518960475921630859375" lon="-0.48563850112259387969970703125">
        <ele>9.19999980926513671875</ele>
        <time>2019-10-25T07:57:35.000Z</time>
      </trkpt>
      <trkpt lat="38.341380916535854339599609375" lon="-0.48573941923677921295166015625">
        <ele>8.3999996185302734375</ele>
        <time>2019-10-25T07:58:44.000Z</time>
      </trkpt>
      <trkpt lat="38.3412218280136585235595703125" lon="-0.48586070537567138671875">
        <ele>7.19999980926513671875</ele>
        <time>2019-10-25T07:58:50.000Z</time>
      </trkpt>
      <trkpt lat="38.34104455076158046722412109375" lon="-0.48599204979836940765380859375">
        <ele>5.19999980926513671875</ele>
        <time>2019-10-25T07:58:56.000Z</time>
      </trkpt>
      <trkpt lat="38.34088705480098724365234375" lon="-0.4861222207546234130859375">
        <ele>4</ele>
        <time>2019-10-25T07:59:01.000Z</time>
      </trkpt>
      <trkpt lat="38.34072478115558624267578125" lon="-0.4862504638731479644775390625">
        <ele>3.7999999523162841796875</ele>
        <time>2019-10-25T07:59:06.000Z</time>
      </trkpt>
      <trkpt lat="38.3405636809766292572021484375" lon="-0.48636697232723236083984375">
        <ele>3.7999999523162841796875</ele>
        <time>2019-10-25T07:59:11.000Z</time>
      </trkpt>
      <trkpt lat="38.3404094539582729339599609375" lon="-0.4864950478076934814453125">
        <ele>5.599999904632568359375</ele>
        <time>2019-10-25T07:59:16.000Z</time>
      </trkpt>
      <trkpt lat="38.34024525247514247894287109375" lon="-0.48663460649549961090087890625">
        <ele>7.599999904632568359375</ele>
        <time>2019-10-25T07:59:21.000Z</time>
      </trkpt>
      <trkpt lat="38.3400849066674709320068359375" lon="-0.4867788590490818023681640625">
        <ele>7.80000019073486328125</ele>
        <time>2019-10-25T07:59:26.000Z</time>
      </trkpt>
      <trkpt lat="38.3399098925292491912841796875" lon="-0.48691623844206333160400390625">
        <ele>7.19999980926513671875</ele>
        <time>2019-10-25T07:59:31.000Z</time>
      </trkpt>
      <trkpt lat="38.33973496221005916595458984375" lon="-0.48704666085541248321533203125">
        <ele>6</ele>
        <time>2019-10-25T07:59:36.000Z</time>
      </trkpt>
      <trkpt lat="38.33956531248986721038818359375" lon="-0.48718261532485485076904296875">
        <ele>5.400000095367431640625</ele>
        <time>2019-10-25T07:59:41.000Z</time>
      </trkpt>
      <trkpt lat="38.33940622396767139434814453125" lon="-0.4873223416507244110107421875">
        <ele>4.80000019073486328125</ele>
        <time>2019-10-25T07:59:47.000Z</time>
      </trkpt>
      <trkpt lat="38.33930731751024723052978515625" lon="-0.48752174712717533111572265625">
        <ele>5.599999904632568359375</ele>
        <time>2019-10-25T07:59:54.000Z</time>
      </trkpt>
      <trkpt lat="38.3391203172504901885986328125" lon="-0.4876871220767498016357421875">
        <ele>5</ele>
        <time>2019-10-25T07:59:59.000Z</time>
      </trkpt>
      <trkpt lat="38.33895452320575714111328125" lon="-0.4878289438784122467041015625">
        <ele>4.400000095367431640625</ele>
        <time>2019-10-25T08:00:03.000Z</time>
      </trkpt>
      <trkpt lat="38.3388021402060985565185546875" lon="-0.48795509152114391326904296875">
        <ele>4.19999980926513671875</ele>
        <time>2019-10-25T08:00:07.000Z</time>
      </trkpt>
      <trkpt lat="38.33872511051595211029052734375" lon="-0.48808685503900051116943359375">
        <ele>4.599999904632568359375</ele>
        <time>2019-10-25T08:00:10.000Z</time>
      </trkpt>
      <trkpt lat="38.3387545309960842132568359375" lon="-0.48825952224433422088623046875">
        <ele>5.80000019073486328125</ele>
        <time>2019-10-25T08:00:13.000Z</time>
      </trkpt>
      <trkpt lat="38.3387961052358150482177734375" lon="-0.48835423775017261505126953125">
        <ele>6.19999980926513671875</ele>
        <time>2019-10-25T08:00:15.000Z</time>
      </trkpt>
      <trkpt lat="38.33886039443314075469970703125" lon="-0.48848415724933147430419921875">
        <ele>7.400000095367431640625</ele>
        <time>2019-10-25T08:00:19.000Z</time>
      </trkpt>
      <trkpt lat="38.33887137472629547119140625" lon="-0.48850427381694316864013671875">
        <ele>7.599999904632568359375</ele>
        <time>2019-10-25T08:00:21.000Z</time>
      </trkpt>
      <trkpt lat="38.3387615717947483062744140625" lon="-0.48863402567803859710693359375">
        <ele>8</ele>
        <time>2019-10-25T08:00:51.000Z</time>
      </trkpt>
      <trkpt lat="38.33869594149291515350341796875" lon="-0.48875120468437671661376953125">
        <ele>8</ele>
        <time>2019-10-25T08:00:55.000Z</time>
      </trkpt>
      <trkpt lat="38.33859066478908061981201171875" lon="-0.4888756759464740753173828125">
        <ele>8.19999980926513671875</ele>
        <time>2019-10-25T08:01:02.000Z</time>
      </trkpt>
      <trkpt lat="38.33860340528190135955810546875" lon="-0.48907332122325897216796875">
        <ele>8.19999980926513671875</ele>
        <time>2019-10-25T08:01:07.000Z</time>
      </trkpt>
      <trkpt lat="38.33858144469559192657470703125" lon="-0.48931413330137729644775390625">
        <ele>7.599999904632568359375</ele>
        <time>2019-10-25T08:01:13.000Z</time>
      </trkpt>
      <trkpt lat="38.33848538808524608612060546875" lon="-0.4895261116325855255126953125">
        <ele>6.80000019073486328125</ele>
        <time>2019-10-25T08:01:19.000Z</time>
      </trkpt>
      <trkpt lat="38.33836820907890796661376953125" lon="-0.48975502140820026397705078125">
        <ele>6.599999904632568359375</ele>
        <time>2019-10-25T08:01:25.000Z</time>
      </trkpt>
      <trkpt lat="38.33825983107089996337890625" lon="-0.4899792373180389404296875">
        <ele>5.80000019073486328125</ele>
        <time>2019-10-25T08:01:31.000Z</time>
      </trkpt>
      <trkpt lat="38.338152207434177398681640625" lon="-0.49016254954040050506591796875">
        <ele>5.19999980926513671875</ele>
        <time>2019-10-25T08:01:36.000Z</time>
      </trkpt>
      <trkpt lat="38.3380700647830963134765625" lon="-0.490371845662593841552734375">
        <ele>4.599999904632568359375</ele>
        <time>2019-10-25T08:01:43.000Z</time>
      </trkpt>
      <trkpt lat="38.338026814162731170654296875" lon="-0.4904218018054962158203125">
        <ele>4.19999980926513671875</ele>
        <time>2019-10-25T08:01:46.000Z</time>
      </trkpt>
      <trkpt lat="38.33788775838911533355712890625" lon="-0.4905758611857891082763671875">
        <ele>3.2000000476837158203125</ele>
        <time>2019-10-25T08:01:53.000Z</time>
      </trkpt>
      <trkpt lat="38.3378482796251773834228515625" lon="-0.49083880148828029632568359375">
        <ele>3.7999999523162841796875</ele>
        <time>2019-10-25T08:01:58.000Z</time>
      </trkpt>
      <trkpt lat="38.3378130756318569183349609375" lon="-0.4910724051296710968017578125">
        <ele>4.400000095367431640625</ele>
        <time>2019-10-25T08:02:03.000Z</time>
      </trkpt>
      <trkpt lat="38.3377654664218425750732421875" lon="-0.49129762686789035797119140625">
        <ele>4.19999980926513671875</ele>
        <time>2019-10-25T08:02:09.000Z</time>
      </trkpt>
      <trkpt lat="38.33771458826959133148193359375" lon="-0.4915201663970947265625">
        <ele>4</ele>
        <time>2019-10-25T08:02:14.000Z</time>
      </trkpt>
      <trkpt lat="38.33766706287860870361328125" lon="-0.491763241589069366455078125">
        <ele>3.400000095367431640625</ele>
        <time>2019-10-25T08:02:20.000Z</time>
      </trkpt>
      <trkpt lat="38.33764837123453617095947265625" lon="-0.491781346499919891357421875">
        <ele>3.2000000476837158203125</ele>
        <time>2019-10-25T08:02:21.000Z</time>
      </trkpt>
      <trkpt lat="38.33744980394840240478515625" lon="-0.49173499457538127899169921875">
        <ele>2.7999999523162841796875</ele>
        <time>2019-10-25T08:02:28.000Z</time>
      </trkpt>
      <trkpt lat="38.337387777864933013916015625" lon="-0.4917510040104389190673828125">
        <ele>3.2000000476837158203125</ele>
        <time>2019-10-25T08:02:31.000Z</time>
      </trkpt>
      <trkpt lat="38.33746279589831829071044921875" lon="-0.49193129874765872955322265625">
        <ele>2</ele>
        <time>2019-10-25T08:02:36.000Z</time>
      </trkpt>
      <trkpt lat="38.33758936263620853424072265625" lon="-0.49209726043045520782470703125">
        <ele>2.400000095367431640625</ele>
        <time>2019-10-25T08:02:42.000Z</time>
      </trkpt>
      <trkpt lat="38.337466232478618621826171875" lon="-0.49228132702410221099853515625">
        <ele>2.2000000476837158203125</ele>
        <time>2019-10-25T08:02:49.000Z</time>
      </trkpt>
      <trkpt lat="38.33734662272036075592041015625" lon="-0.49247578717768192291259765625">
        <ele>4</ele>
        <time>2019-10-25T08:02:54.000Z</time>
      </trkpt>
      <trkpt lat="38.337244279682636260986328125" lon="-0.492695309221744537353515625">
        <ele>5.19999980926513671875</ele>
        <time>2019-10-25T08:03:00.000Z</time>
      </trkpt>
      <trkpt lat="38.337159454822540283203125" lon="-0.49293595366179943084716796875">
        <ele>6</ele>
        <time>2019-10-25T08:03:06.000Z</time>
      </trkpt>
      <trkpt lat="38.33716289140284061431884765625" lon="-0.49315840937197208404541015625">
        <ele>5.599999904632568359375</ele>
        <time>2019-10-25T08:03:13.000Z</time>
      </trkpt>
      <trkpt lat="38.33728342317044734954833984375" lon="-0.49334867857396602630615234375">
        <ele>4.19999980926513671875</ele>
        <time>2019-10-25T08:03:19.000Z</time>
      </trkpt>
      <trkpt lat="38.33728476427495479583740234375" lon="-0.493390001356601715087890625">
        <ele>4.19999980926513671875</ele>
        <time>2019-10-25T08:03:20.000Z</time>
      </trkpt>
      <trkpt lat="38.3372994326055049896240234375" lon="-0.4935578070580959320068359375">
        <ele>4.19999980926513671875</ele>
        <time>2019-10-25T08:03:25.000Z</time>
      </trkpt>
      <trkpt lat="38.3374650590121746063232421875" lon="-0.49343517981469631195068359375">
        <ele>3</ele>
        <time>2019-10-25T08:03:31.000Z</time>
      </trkpt>
      <trkpt lat="38.33766865544021129608154296875" lon="-0.49336410127580165863037109375">
        <ele>3.7999999523162841796875</ele>
        <time>2019-10-25T08:03:36.000Z</time>
      </trkpt>
      <trkpt lat="38.33771022967994213104248046875" lon="-0.49336628057062625885009765625">
        <ele>4</ele>
        <time>2019-10-25T08:03:37.000Z</time>
      </trkpt>
      <trkpt lat="38.3379049412906169891357421875" lon="-0.4933982156217098236083984375">
        <ele>4.80000019073486328125</ele>
        <time>2019-10-25T08:03:42.000Z</time>
      </trkpt>
      <trkpt lat="38.3381067775189876556396484375" lon="-0.49342948012053966522216796875">
        <ele>5.400000095367431640625</ele>
        <time>2019-10-25T08:03:48.000Z</time>
      </trkpt>
      <trkpt lat="38.33821129985153675079345703125" lon="-0.49362695775926113128662109375">
        <ele>5</ele>
        <time>2019-10-25T08:03:54.000Z</time>
      </trkpt>
      <trkpt lat="38.338232338428497314453125" lon="-0.49387774430215358734130859375">
        <ele>4.19999980926513671875</ele>
        <time>2019-10-25T08:03:59.000Z</time>
      </trkpt>
      <trkpt lat="38.33823300898075103759765625" lon="-0.4941616393625736236572265625">
        <ele>3.400000095367431640625</ele>
        <time>2019-10-25T08:04:04.000Z</time>
      </trkpt>
      <trkpt lat="38.338242731988430023193359375" lon="-0.49441552720963954925537109375">
        <ele>4.599999904632568359375</ele>
        <time>2019-10-25T08:04:09.000Z</time>
      </trkpt>
      <trkpt lat="38.33821230567991733551025390625" lon="-0.49464418552815914154052734375">
        <ele>4.400000095367431640625</ele>
        <time>2019-10-25T08:04:14.000Z</time>
      </trkpt>
      <trkpt lat="38.33817324601113796234130859375" lon="-0.49488709308207035064697265625">
        <ele>4.19999980926513671875</ele>
        <time>2019-10-25T08:04:19.000Z</time>
      </trkpt>
      <trkpt lat="38.3381478488445281982421875" lon="-0.4951473511755466461181640625">
        <ele>3.599999904632568359375</ele>
        <time>2019-10-25T08:04:24.000Z</time>
      </trkpt>
      <trkpt lat="38.33810702897608280181884765625" lon="-0.495411045849323272705078125">
        <ele>3.7999999523162841796875</ele>
        <time>2019-10-25T08:04:29.000Z</time>
      </trkpt>
      <trkpt lat="38.33804123103618621826171875" lon="-0.4956603236496448516845703125">
        <ele>3.7999999523162841796875</ele>
        <time>2019-10-25T08:04:34.000Z</time>
      </trkpt>
      <trkpt lat="38.33797677420079708099365234375" lon="-0.495902560651302337646484375">
        <ele>4.19999980926513671875</ele>
        <time>2019-10-25T08:04:39.000Z</time>
      </trkpt>
      <trkpt lat="38.337942995131015777587890625" lon="-0.49617178738117218017578125">
        <ele>6.599999904632568359375</ele>
        <time>2019-10-25T08:04:44.000Z</time>
      </trkpt>
      <trkpt lat="38.33788541145622730255126953125" lon="-0.49642383120954036712646484375">
        <ele>7.599999904632568359375</ele>
        <time>2019-10-25T08:04:49.000Z</time>
      </trkpt>
      <trkpt lat="38.33784132264554500579833984375" lon="-0.49669104628264904022216796875">
        <ele>7.599999904632568359375</ele>
        <time>2019-10-25T08:04:54.000Z</time>
      </trkpt>
      <trkpt lat="38.3378026820719242095947265625" lon="-0.49695792607963085174560546875">
        <ele>7</ele>
        <time>2019-10-25T08:04:59.000Z</time>
      </trkpt>
      <trkpt lat="38.3377567492425441741943359375" lon="-0.497238636016845703125">
        <ele>4.19999980926513671875</ele>
        <time>2019-10-25T08:05:04.000Z</time>
      </trkpt>
      <trkpt lat="38.33772380836308002471923828125" lon="-0.49750124104321002960205078125">
        <ele>3</ele>
        <time>2019-10-25T08:05:09.000Z</time>
      </trkpt>
      <trkpt lat="38.33769212476909160614013671875" lon="-0.4976518638432025909423828125">
        <ele>3</ele>
        <time>2019-10-25T08:05:12.000Z</time>
      </trkpt>
      <trkpt lat="38.3376430906355381011962890625" lon="-0.4979110322892665863037109375">
        <ele>2.599999904632568359375</ele>
        <time>2019-10-25T08:05:17.000Z</time>
      </trkpt>
      <trkpt lat="38.3376172743737697601318359375" lon="-0.49816709943115711212158203125">
        <ele>2</ele>
        <time>2019-10-25T08:05:22.000Z</time>
      </trkpt>
      <trkpt lat="38.33759271539747714996337890625" lon="-0.49841302447021007537841796875">
        <ele>3</ele>
        <time>2019-10-25T08:05:27.000Z</time>
      </trkpt>
      <trkpt lat="38.33758299238979816436767578125" lon="-0.49846348352730274200439453125">
        <ele>3.400000095367431640625</ele>
        <time>2019-10-25T08:05:28.000Z</time>
      </trkpt>
      <trkpt lat="38.33754426799714565277099609375" lon="-0.498611927032470703125">
        <ele>4</ele>
        <time>2019-10-25T08:05:31.000Z</time>
      </trkpt>
      <trkpt lat="38.337485007941722869873046875" lon="-0.4988394118845462799072265625">
        <ele>4</ele>
        <time>2019-10-25T08:05:36.000Z</time>
      </trkpt>
      <trkpt lat="38.3374558389186859130859375" lon="-0.49907200969755649566650390625">
        <ele>4</ele>
        <time>2019-10-25T08:05:41.000Z</time>
      </trkpt>
      <trkpt lat="38.33744754083454608917236328125" lon="-0.49932799302041530609130859375">
        <ele>2.7999999523162841796875</ele>
        <time>2019-10-25T08:05:46.000Z</time>
      </trkpt>
      <trkpt lat="38.33743832074105739593505859375" lon="-0.49956687726080417633056640625">
        <ele>2</ele>
        <time>2019-10-25T08:05:51.000Z</time>
      </trkpt>
      <trkpt lat="38.337427675724029541015625" lon="-0.49974373541772365570068359375">
        <ele>2</ele>
        <time>2019-10-25T08:05:57.000Z</time>
      </trkpt>
      <trkpt lat="38.33744712173938751220703125" lon="-0.4999485053122043609619140625">
        <ele>2</ele>
        <time>2019-10-25T08:06:57.000Z</time>
      </trkpt>
      <trkpt lat="38.33747101016342639923095703125" lon="-0.49999929964542388916015625">
        <ele>2.2000000476837158203125</ele>
        <time>2019-10-25T08:06:59.000Z</time>
      </trkpt>
      <trkpt lat="38.337436057627201080322265625" lon="-0.500229634344577789306640625">
        <ele>2.7999999523162841796875</ele>
        <time>2019-10-25T08:07:09.000Z</time>
      </trkpt>
      <trkpt lat="38.3374948985874652862548828125" lon="-0.500464998185634613037109375">
        <ele>4.19999980926513671875</ele>
        <time>2019-10-25T08:07:17.000Z</time>
      </trkpt>
      <trkpt lat="38.3375083096325397491455078125" lon="-0.500509254634380340576171875">
        <ele>4.400000095367431640625</ele>
        <time>2019-10-25T08:07:20.000Z</time>
      </trkpt>
      <trkpt lat="38.33739071153104305267333984375" lon="-0.5006851069629192352294921875">
        <ele>4.80000019073486328125</ele>
        <time>2019-10-25T08:07:32.000Z</time>
      </trkpt>
      <trkpt lat="38.33723681978881359100341796875" lon="-0.5005538463592529296875">
        <ele>1.60000002384185791015625</ele>
        <time>2019-10-25T08:07:38.000Z</time>
      </trkpt>
      <trkpt lat="38.3371193893253803253173828125" lon="-0.5007018707692623138427734375">
        <ele>1.7999999523162841796875</ele>
        <time>2019-10-25T08:07:42.000Z</time>
      </trkpt>
      <trkpt lat="38.336977064609527587890625" lon="-0.50090496428310871124267578125">
        <ele>2.599999904632568359375</ele>
        <time>2019-10-25T08:07:47.000Z</time>
      </trkpt>
      <trkpt lat="38.33683180622756481170654296875" lon="-0.50111266784369945526123046875">
        <ele>3</ele>
        <time>2019-10-25T08:07:52.000Z</time>
      </trkpt>
      <trkpt lat="38.336687721312046051025390625" lon="-0.5013321898877620697021484375">
        <ele>3.7999999523162841796875</ele>
        <time>2019-10-25T08:07:57.000Z</time>
      </trkpt>
      <trkpt lat="38.3365653455257415771484375" lon="-0.50151466391980648040771484375">
        <ele>4.19999980926513671875</ele>
        <time>2019-10-25T08:08:01.000Z</time>
      </trkpt>
      <trkpt lat="38.336440958082675933837890625" lon="-0.50168640911579132080078125">
        <ele>4.400000095367431640625</ele>
        <time>2019-10-25T08:08:05.000Z</time>
      </trkpt>
      <trkpt lat="38.33629502914845943450927734375" lon="-0.501885898411273956298828125">
        <ele>4.80000019073486328125</ele>
        <time>2019-10-25T08:08:10.000Z</time>
      </trkpt>
      <trkpt lat="38.33616594783961772918701171875" lon="-0.50206501968204975128173828125">
        <ele>5</ele>
        <time>2019-10-25T08:08:15.000Z</time>
      </trkpt>
      <trkpt lat="38.33603166975080966949462890625" lon="-0.5022511817514896392822265625">
        <ele>4.80000019073486328125</ele>
        <time>2019-10-25T08:08:20.000Z</time>
      </trkpt>
      <trkpt lat="38.33592136390507221221923828125" lon="-0.502411611378192901611328125">
        <ele>4</ele>
        <time>2019-10-25T08:08:24.000Z</time>
      </trkpt>
      <trkpt lat="38.335776440799236297607421875" lon="-0.50262509845197200775146484375">
        <ele>3</ele>
        <time>2019-10-25T08:08:29.000Z</time>
      </trkpt>
      <trkpt lat="38.33564601838588714599609375" lon="-0.5028416030108928680419921875">
        <ele>3.2000000476837158203125</ele>
        <time>2019-10-25T08:08:34.000Z</time>
      </trkpt>
      <trkpt lat="38.335519619286060333251953125" lon="-0.5030429363250732421875">
        <ele>4</ele>
        <time>2019-10-25T08:08:39.000Z</time>
      </trkpt>
      <trkpt lat="38.3353824913501739501953125" lon="-0.50323798321187496185302734375">
        <ele>4.599999904632568359375</ele>
        <time>2019-10-25T08:08:44.000Z</time>
      </trkpt>
      <trkpt lat="38.33535994403064250946044921875" lon="-0.503279976546764373779296875">
        <ele>4.80000019073486328125</ele>
        <time>2019-10-25T08:08:45.000Z</time>
      </trkpt>
      <trkpt lat="38.33523740060627460479736328125" lon="-0.50345909781754016876220703125">
        <ele>5.400000095367431640625</ele>
        <time>2019-10-25T08:08:50.000Z</time>
      </trkpt>
      <trkpt lat="38.33520974032580852508544921875" lon="-0.5034927092492580413818359375">
        <ele>5.599999904632568359375</ele>
        <time>2019-10-25T08:08:51.000Z</time>
      </trkpt>
      <trkpt lat="38.3351375721395015716552734375" lon="-0.50360561348497867584228515625">
        <ele>6</ele>
        <time>2019-10-25T08:08:54.000Z</time>
      </trkpt>
      <trkpt lat="38.335005305707454681396484375" lon="-0.503809712827205657958984375">
        <ele>8.19999980926513671875</ele>
        <time>2019-10-25T08:08:59.000Z</time>
      </trkpt>
      <trkpt lat="38.33488485775887966156005859375" lon="-0.50395446829497814178466796875">
        <ele>9.19999980926513671875</ele>
        <time>2019-10-25T08:09:03.000Z</time>
      </trkpt>
      <trkpt lat="38.334822915494441986083984375" lon="-0.5040257982909679412841796875">
        <ele>9.3999996185302734375</ele>
        <time>2019-10-25T08:09:05.000Z</time>
      </trkpt>
      <trkpt lat="38.33467765711247920989990234375" lon="-0.50423006527125835418701171875">
        <ele>9.6000003814697265625</ele>
        <time>2019-10-25T08:09:10.000Z</time>
      </trkpt>
      <trkpt lat="38.33456668071448802947998046875" lon="-0.50438378937542438507080078125">
        <ele>7.599999904632568359375</ele>
        <time>2019-10-25T08:09:14.000Z</time>
      </trkpt>
      <trkpt lat="38.33443005569279193878173828125" lon="-0.50454036332666873931884765625">
        <ele>5.19999980926513671875</ele>
        <time>2019-10-25T08:09:18.000Z</time>
      </trkpt>
      <trkpt lat="38.33433886058628559112548828125" lon="-0.504653938114643096923828125">
        <ele>4</ele>
        <time>2019-10-25T08:09:21.000Z</time>
      </trkpt>
      <trkpt lat="38.3342693746089935302734375" lon="-0.50483255647122859954833984375">
        <ele>3.7999999523162841796875</ele>
        <time>2019-10-25T08:09:25.000Z</time>
      </trkpt>
      <trkpt lat="38.3342360146343708038330078125" lon="-0.50493129529058933258056640625">
        <ele>4.400000095367431640625</ele>
        <time>2019-10-25T08:09:28.000Z</time>
      </trkpt>
      <trkpt lat="38.33404851146042346954345703125" lon="-0.50506674684584140777587890625">
        <ele>5.400000095367431640625</ele>
        <time>2019-10-25T08:09:34.000Z</time>
      </trkpt>
      <trkpt lat="38.33388992585241794586181640625" lon="-0.5052532441914081573486328125">
        <ele>6.80000019073486328125</ele>
        <time>2019-10-25T08:09:39.000Z</time>
      </trkpt>
      <trkpt lat="38.33375581540167331695556640625" lon="-0.50541291944682598114013671875">
        <ele>8.19999980926513671875</ele>
        <time>2019-10-25T08:09:47.000Z</time>
      </trkpt>
      <trkpt lat="38.33357946015894412994384765625" lon="-0.5055352114140987396240234375">
        <ele>9.80000019073486328125</ele>
        <time>2019-10-25T08:10:43.000Z</time>
      </trkpt>
      <trkpt lat="38.333391956984996795654296875" lon="-0.50565498881042003631591796875">
        <ele>10.6000003814697265625</ele>
        <time>2019-10-25T08:10:49.000Z</time>
      </trkpt>
      <trkpt lat="38.33332984708249568939208984375" lon="-0.5057273246347904205322265625">
        <ele>10.80000019073486328125</ele>
        <time>2019-10-25T08:10:51.000Z</time>
      </trkpt>
      <trkpt lat="38.33316656760871410369873046875" lon="-0.50586453638970851898193359375">
        <ele>10</ele>
        <time>2019-10-25T08:10:56.000Z</time>
      </trkpt>
      <trkpt lat="38.3330033719539642333984375" lon="-0.50597836263477802276611328125">
        <ele>8.3999996185302734375</ele>
        <time>2019-10-25T08:11:01.000Z</time>
      </trkpt>
      <trkpt lat="38.33282894454896450042724609375" lon="-0.5060988105833530426025390625">
        <ele>8</ele>
        <time>2019-10-25T08:11:06.000Z</time>
      </trkpt>
      <trkpt lat="38.3326578699052333831787109375" lon="-0.5062047578394412994384765625">
        <ele>7.19999980926513671875</ele>
        <time>2019-10-25T08:11:11.000Z</time>
      </trkpt>
      <trkpt lat="38.3324573747813701629638671875" lon="-0.5062976293265819549560546875">
        <ele>3.400000095367431640625</ele>
        <time>2019-10-25T08:11:17.000Z</time>
      </trkpt>
      <trkpt lat="38.33229593932628631591796875" lon="-0.506403408944606781005859375">
        <ele>2.400000095367431640625</ele>
        <time>2019-10-25T08:11:22.000Z</time>
      </trkpt>
      <trkpt lat="38.33210282027721405029296875" lon="-0.50653927959501743316650390625">
        <ele>1.60000002384185791015625</ele>
        <time>2019-10-25T08:11:28.000Z</time>
      </trkpt>
      <trkpt lat="38.33191364072263240814208984375" lon="-0.50666668452322483062744140625">
        <ele>0.4000000059604644775390625</ele>
        <time>2019-10-25T08:11:33.000Z</time>
      </trkpt>
      <trkpt lat="38.33175706677138805389404296875" lon="-0.506789647042751312255859375">
        <ele>0</ele>
        <time>2019-10-25T08:11:37.000Z</time>
      </trkpt>
      <trkpt lat="38.33159663714468479156494140625" lon="-0.5068984441459178924560546875">
        <ele>0</ele>
        <time>2019-10-25T08:11:41.000Z</time>
      </trkpt>
      <trkpt lat="38.331437297165393829345703125" lon="-0.5070224963128566741943359375">
        <ele>2</ele>
        <time>2019-10-25T08:11:45.000Z</time>
      </trkpt>
      <trkpt lat="38.3312802202999591827392578125" lon="-0.50714747048914432525634765625">
        <ele>4.599999904632568359375</ele>
        <time>2019-10-25T08:11:49.000Z</time>
      </trkpt>
      <trkpt lat="38.3310928009450435638427734375" lon="-0.507301278412342071533203125">
        <ele>5.80000019073486328125</ele>
        <time>2019-10-25T08:11:54.000Z</time>
      </trkpt>
      <trkpt lat="38.33092038519680500030517578125" lon="-0.507480315864086151123046875">
        <ele>6.400000095367431640625</ele>
        <time>2019-10-25T08:11:59.000Z</time>
      </trkpt>
      <trkpt lat="38.33084394223988056182861328125" lon="-0.50755231641232967376708984375">
        <ele>6.80000019073486328125</ele>
        <time>2019-10-25T08:12:01.000Z</time>
      </trkpt>
      <trkpt lat="38.33069122396409511566162109375" lon="-0.5077084712684154510498046875">
        <ele>7.80000019073486328125</ele>
        <time>2019-10-25T08:12:05.000Z</time>
      </trkpt>
      <trkpt lat="38.33065442740917205810546875" lon="-0.50774283707141876220703125">
        <ele>8.19999980926513671875</ele>
        <time>2019-10-25T08:12:06.000Z</time>
      </trkpt>
      <trkpt lat="38.33050313405692577362060546875" lon="-0.50788206048309803009033203125">
        <ele>8.6000003814697265625</ele>
        <time>2019-10-25T08:12:10.000Z</time>
      </trkpt>
      <trkpt lat="38.33035477437078952789306640625" lon="-0.5080211162567138671875">
        <ele>7.599999904632568359375</ele>
        <time>2019-10-25T08:12:14.000Z</time>
      </trkpt>
      <trkpt lat="38.3302774094045162200927734375" lon="-0.5080814659595489501953125">
        <ele>6.80000019073486328125</ele>
        <time>2019-10-25T08:12:16.000Z</time>
      </trkpt>
      <trkpt lat="38.33011253736913204193115234375" lon="-0.50818297080695629119873046875">
        <ele>4.80000019073486328125</ele>
        <time>2019-10-25T08:12:20.000Z</time>
      </trkpt>
      <trkpt lat="38.3300743997097015380859375" lon="-0.50821222364902496337890625">
        <ele>4.400000095367431640625</ele>
        <time>2019-10-25T08:12:21.000Z</time>
      </trkpt>
      <trkpt lat="38.32990684546530246734619140625" lon="-0.50836108624935150146484375">
        <ele>3</ele>
        <time>2019-10-25T08:12:25.000Z</time>
      </trkpt>
      <trkpt lat="38.32973937503993511199951171875" lon="-0.508508272469043731689453125">
        <ele>2.7999999523162841796875</ele>
        <time>2019-10-25T08:12:29.000Z</time>
      </trkpt>
      <trkpt lat="38.3295781910419464111328125" lon="-0.50865101628005504608154296875">
        <ele>3.599999904632568359375</ele>
        <time>2019-10-25T08:12:33.000Z</time>
      </trkpt>
      <trkpt lat="38.32947819493710994720458984375" lon="-0.50875394605100154876708984375">
        <ele>4.80000019073486328125</ele>
        <time>2019-10-25T08:12:36.000Z</time>
      </trkpt>
      <trkpt lat="38.3294440805912017822265625" lon="-0.5089828558266162872314453125">
        <ele>6.400000095367431640625</ele>
        <time>2019-10-25T08:12:43.000Z</time>
      </trkpt>
      <trkpt lat="38.329355232417583465576171875" lon="-0.50907363183796405792236328125">
        <ele>7.400000095367431640625</ele>
        <time>2019-10-25T08:12:46.000Z</time>
      </trkpt>
      <trkpt lat="38.32927837036550045013427734375" lon="-0.50916130654513835906982421875">
        <ele>8.3999996185302734375</ele>
        <time>2019-10-25T08:12:49.000Z</time>
      </trkpt>
      <trkpt lat="38.3291891030967235565185546875" lon="-0.5092480592429637908935546875">
        <ele>9</ele>
        <time>2019-10-25T08:12:52.000Z</time>
      </trkpt>
      <trkpt lat="38.32906253635883331298828125" lon="-0.5093479715287685394287109375">
        <ele>9.3999996185302734375</ele>
        <time>2019-10-25T08:12:56.000Z</time>
      </trkpt>
      <trkpt lat="38.3289510570466518402099609375" lon="-0.5094525776803493499755859375">
        <ele>9.3999996185302734375</ele>
        <time>2019-10-25T08:13:00.000Z</time>
      </trkpt>
      <trkpt lat="38.32889682613313198089599609375" lon="-0.5094934813678264617919921875">
        <ele>9.19999980926513671875</ele>
        <time>2019-10-25T08:13:02.000Z</time>
      </trkpt>
      <trkpt lat="38.3287562616169452667236328125" lon="-0.50960303284227848052978515625">
        <ele>8.6000003814697265625</ele>
        <time>2019-10-25T08:13:08.000Z</time>
      </trkpt>
      <trkpt lat="38.3286191336810588836669921875" lon="-0.50979078747332096099853515625">
        <ele>8.19999980926513671875</ele>
        <time>2019-10-25T08:13:14.000Z</time>
      </trkpt>
      <trkpt lat="38.3284360729157924652099609375" lon="-0.5099179409444332122802734375">
        <ele>7.599999904632568359375</ele>
        <time>2019-10-25T08:13:20.000Z</time>
      </trkpt>
      <trkpt lat="38.328274302184581756591796875" lon="-0.51005062647163867950439453125">
        <ele>7</ele>
        <time>2019-10-25T08:13:25.000Z</time>
      </trkpt>
      <trkpt lat="38.32810205407440662384033203125" lon="-0.51020317710936069488525390625">
        <ele>7</ele>
        <time>2019-10-25T08:13:31.000Z</time>
      </trkpt>
      <trkpt lat="38.32792586646974086761474609375" lon="-0.51034189760684967041015625">
        <ele>7.599999904632568359375</ele>
        <time>2019-10-25T08:13:37.000Z</time>
      </trkpt>
      <trkpt lat="38.32776208408176898956298828125" lon="-0.51045748405158519744873046875">
        <ele>8.6000003814697265625</ele>
        <time>2019-10-25T08:13:42.000Z</time>
      </trkpt>
      <trkpt lat="38.32758874632418155670166015625" lon="-0.51057080738246440887451171875">
        <ele>9.6000003814697265625</ele>
        <time>2019-10-25T08:13:47.000Z</time>
      </trkpt>
      <trkpt lat="38.32740224897861480712890625" lon="-0.51067826338112354278564453125">
        <ele>10.6000003814697265625</ele>
        <time>2019-10-25T08:13:52.000Z</time>
      </trkpt>
      <trkpt lat="38.327198065817356109619140625" lon="-0.51077851094305515289306640625">
        <ele>10.6000003814697265625</ele>
        <time>2019-10-25T08:13:57.000Z</time>
      </trkpt>
      <trkpt lat="38.32698918879032135009765625" lon="-0.51086266525089740753173828125">
        <ele>9.80000019073486328125</ele>
        <time>2019-10-25T08:14:02.000Z</time>
      </trkpt>
      <trkpt lat="38.32679950632154941558837890625" lon="-0.510938353836536407470703125">
        <ele>8.6000003814697265625</ele>
        <time>2019-10-25T08:14:06.000Z</time>
      </trkpt>
      <trkpt lat="38.326586186885833740234375" lon="-0.51101513206958770751953125">
        <ele>7.599999904632568359375</ele>
        <time>2019-10-25T08:14:10.000Z</time>
      </trkpt>
      <trkpt lat="38.3263566903769969940185546875" lon="-0.5110971070826053619384765625">
        <ele>7</ele>
        <time>2019-10-25T08:14:14.000Z</time>
      </trkpt>
      <trkpt lat="38.32617471925914287567138671875" lon="-0.5111695267260074615478515625">
        <ele>7.80000019073486328125</ele>
        <time>2019-10-25T08:14:17.000Z</time>
      </trkpt>
      <trkpt lat="38.325985372066497802734375" lon="-0.51124186255037784576416015625">
        <ele>8.80000019073486328125</ele>
        <time>2019-10-25T08:14:20.000Z</time>
      </trkpt>
      <trkpt lat="38.32579652778804302215576171875" lon="-0.511313192546367645263671875">
        <ele>9.3999996185302734375</ele>
        <time>2019-10-25T08:14:23.000Z</time>
      </trkpt>
      <trkpt lat="38.32567163743078708648681640625" lon="-0.51136490888893604278564453125">
        <ele>9.80000019073486328125</ele>
        <time>2019-10-25T08:14:25.000Z</time>
      </trkpt>
      <trkpt lat="38.3254832960665225982666015625" lon="-0.51145006902515888214111328125">
        <ele>10.3999996185302734375</ele>
        <time>2019-10-25T08:14:28.000Z</time>
      </trkpt>
      <trkpt lat="38.3253102935850620269775390625" lon="-0.511529445648193359375">
        <ele>12</ele>
        <time>2019-10-25T08:14:31.000Z</time>
      </trkpt>
      <trkpt lat="38.32516930997371673583984375" lon="-0.5116016976535320281982421875">
        <ele>14</ele>
        <time>2019-10-25T08:14:34.000Z</time>
      </trkpt>
      <trkpt lat="38.3250264823436737060546875" lon="-0.5117887817323207855224609375">
        <ele>15.6000003814697265625</ele>
        <time>2019-10-25T08:14:38.000Z</time>
      </trkpt>
      <trkpt lat="38.32487954758107662200927734375" lon="-0.51186664961278438568115234375">
        <ele>15.6000003814697265625</ele>
        <time>2019-10-25T08:14:41.000Z</time>
      </trkpt>
      <trkpt lat="38.32473873160779476165771484375" lon="-0.51193320192396640777587890625">
        <ele>13.6000003814697265625</ele>
        <time>2019-10-25T08:14:44.000Z</time>
      </trkpt>
      <trkpt lat="38.3245807327330112457275390625" lon="-0.51187151111662387847900390625">
        <ele>12.3999996185302734375</ele>
        <time>2019-10-25T08:14:50.000Z</time>
      </trkpt>
      <trkpt lat="38.32447956316173076629638671875" lon="-0.511853992938995361328125">
        <ele>11.6000003814697265625</ele>
        <time>2019-10-25T08:14:53.000Z</time>
      </trkpt>
      <trkpt lat="38.3242984302341938018798828125" lon="-0.51191392354667186737060546875">
        <ele>10.3999996185302734375</ele>
        <time>2019-10-25T08:14:57.000Z</time>
      </trkpt>
      <trkpt lat="38.324103467166423797607421875" lon="-0.5119872651994228363037109375">
        <ele>9.19999980926513671875</ele>
        <time>2019-10-25T08:15:01.000Z</time>
      </trkpt>
      <trkpt lat="38.323895595967769622802734375" lon="-0.5120536498725414276123046875">
        <ele>7.400000095367431640625</ele>
        <time>2019-10-25T08:15:05.000Z</time>
      </trkpt>
      <trkpt lat="38.32368495874106884002685546875" lon="-0.51212330348789691925048828125">
        <ele>5.19999980926513671875</ele>
        <time>2019-10-25T08:15:09.000Z</time>
      </trkpt>
      <trkpt lat="38.3234783448278903961181640625" lon="-0.5122125707566738128662109375">
        <ele>6</ele>
        <time>2019-10-25T08:15:13.000Z</time>
      </trkpt>
      <trkpt lat="38.32327709533274173736572265625" lon="-0.51229764707386493682861328125">
        <ele>7.400000095367431640625</ele>
        <time>2019-10-25T08:15:17.000Z</time>
      </trkpt>
      <trkpt lat="38.3230810426175594329833984375" lon="-0.51237693987786769866943359375">
        <ele>7</ele>
        <time>2019-10-25T08:15:21.000Z</time>
      </trkpt>
      <trkpt lat="38.32289303652942180633544921875" lon="-0.51248230040073394775390625">
        <ele>7</ele>
        <time>2019-10-25T08:15:25.000Z</time>
      </trkpt>
      <trkpt lat="38.322696648538112640380859375" lon="-0.51257106475532054901123046875">
        <ele>8.3999996185302734375</ele>
        <time>2019-10-25T08:15:29.000Z</time>
      </trkpt>
      <trkpt lat="38.322489447891712188720703125" lon="-0.51264666952192783355712890625">
        <ele>10.6000003814697265625</ele>
        <time>2019-10-25T08:15:33.000Z</time>
      </trkpt>
      <trkpt lat="38.32228124141693115234375" lon="-0.51272495649755001068115234375">
        <ele>9.80000019073486328125</ele>
        <time>2019-10-25T08:15:37.000Z</time>
      </trkpt>
      <trkpt lat="38.32207261584699153900146484375" lon="-0.51281196065247058868408203125">
        <ele>8</ele>
        <time>2019-10-25T08:15:41.000Z</time>
      </trkpt>
      <trkpt lat="38.321863822638988494873046875" lon="-0.512899719178676605224609375">
        <ele>5.80000019073486328125</ele>
        <time>2019-10-25T08:15:45.000Z</time>
      </trkpt>
      <trkpt lat="38.3216561190783977508544921875" lon="-0.51298655569553375244140625">
        <ele>4.80000019073486328125</ele>
        <time>2019-10-25T08:15:49.000Z</time>
      </trkpt>
      <trkpt lat="38.32144045270979404449462890625" lon="-0.51307900808751583099365234375">
        <ele>6.400000095367431640625</ele>
        <time>2019-10-25T08:15:53.000Z</time>
      </trkpt>
      <trkpt lat="38.32122134976089000701904296875" lon="-0.5131667666137218475341796875">
        <ele>8.6000003814697265625</ele>
        <time>2019-10-25T08:15:57.000Z</time>
      </trkpt>
      <trkpt lat="38.32100509665906429290771484375" lon="-0.51325988955795764923095703125">
        <ele>10.80000019073486328125</ele>
        <time>2019-10-25T08:16:01.000Z</time>
      </trkpt>
      <trkpt lat="38.32078649662435054779052734375" lon="-0.513353012502193450927734375">
        <ele>10</ele>
        <time>2019-10-25T08:16:05.000Z</time>
      </trkpt>
      <trkpt lat="38.3205741830170154571533203125" lon="-0.51344378851354122161865234375">
        <ele>7.400000095367431640625</ele>
        <time>2019-10-25T08:16:09.000Z</time>
      </trkpt>
      <trkpt lat="38.3203622885048389434814453125" lon="-0.51353179849684238433837890625">
        <ele>5.599999904632568359375</ele>
        <time>2019-10-25T08:16:13.000Z</time>
      </trkpt>
      <trkpt lat="38.3201513998210430145263671875" lon="-0.51361997611820697784423828125">
        <ele>5.80000019073486328125</ele>
        <time>2019-10-25T08:16:17.000Z</time>
      </trkpt>
      <trkpt lat="38.31995249725878238677978515625" lon="-0.51371284760534763336181640625">
        <ele>8.6000003814697265625</ele>
        <time>2019-10-25T08:16:21.000Z</time>
      </trkpt>
      <trkpt lat="38.31982098519802093505859375" lon="-0.513787530362606048583984375">
        <ele>9.19999980926513671875</ele>
        <time>2019-10-25T08:16:24.000Z</time>
      </trkpt>
      <trkpt lat="38.3196746371686458587646484375" lon="-0.51394276320934295654296875">
        <ele>10</ele>
        <time>2019-10-25T08:16:29.000Z</time>
      </trkpt>
      <trkpt lat="38.319462575018405914306640625" lon="-0.5139392428100109100341796875">
        <ele>10</ele>
        <time>2019-10-25T08:16:35.000Z</time>
      </trkpt>
      <trkpt lat="38.3192726410925388336181640625" lon="-0.51398207433521747589111328125">
        <ele>11</ele>
        <time>2019-10-25T08:16:39.000Z</time>
      </trkpt>
      <trkpt lat="38.319077007472515106201171875" lon="-0.51407678984105587005615234375">
        <ele>12.6000003814697265625</ele>
        <time>2019-10-25T08:16:43.000Z</time>
      </trkpt>
      <trkpt lat="38.318877853453159332275390625" lon="-0.514179132878780364990234375">
        <ele>14.80000019073486328125</ele>
        <time>2019-10-25T08:16:47.000Z</time>
      </trkpt>
      <trkpt lat="38.31868196837604045867919921875" lon="-0.51427326165139675140380859375">
        <ele>16.799999237060546875</ele>
        <time>2019-10-25T08:16:51.000Z</time>
      </trkpt>
      <trkpt lat="38.31847828812897205352783203125" lon="-0.51436076872050762176513671875">
        <ele>18.6000003814697265625</ele>
        <time>2019-10-25T08:16:55.000Z</time>
      </trkpt>
      <trkpt lat="38.31826773472130298614501953125" lon="-0.5144445039331912994384765625">
        <ele>19.799999237060546875</ele>
        <time>2019-10-25T08:16:59.000Z</time>
      </trkpt>
      <trkpt lat="38.318062461912631988525390625" lon="-0.5145206116139888763427734375">
        <ele>18.3999996185302734375</ele>
        <time>2019-10-25T08:17:03.000Z</time>
      </trkpt>
      <trkpt lat="38.3178654871881008148193359375" lon="-0.51458775065839290618896484375">
        <ele>16.3999996185302734375</ele>
        <time>2019-10-25T08:17:07.000Z</time>
      </trkpt>
      <trkpt lat="38.3176691830158233642578125" lon="-0.51465312950313091278076171875">
        <ele>14</ele>
        <time>2019-10-25T08:17:11.000Z</time>
      </trkpt>
      <trkpt lat="38.31747463904321193695068359375" lon="-0.51472119055688381195068359375">
        <ele>11.3999996185302734375</ele>
        <time>2019-10-25T08:17:15.000Z</time>
      </trkpt>
      <trkpt lat="38.31728135235607624053955078125" lon="-0.5147881619632244110107421875">
        <ele>10.80000019073486328125</ele>
        <time>2019-10-25T08:17:19.000Z</time>
      </trkpt>
      <trkpt lat="38.31723290495574474334716796875" lon="-0.51480601541697978973388671875">
        <ele>10.80000019073486328125</ele>
        <time>2019-10-25T08:17:20.000Z</time>
      </trkpt>
      <trkpt lat="38.31704012118279933929443359375" lon="-0.51487240009009838104248046875">
        <ele>10.6000003814697265625</ele>
        <time>2019-10-25T08:17:24.000Z</time>
      </trkpt>
      <trkpt lat="38.316849432885646820068359375" lon="-0.5149433948099613189697265625">
        <ele>10.3999996185302734375</ele>
        <time>2019-10-25T08:17:28.000Z</time>
      </trkpt>
      <trkpt lat="38.31665120087563991546630859375" lon="-0.51501564681529998779296875">
        <ele>10.19999980926513671875</ele>
        <time>2019-10-25T08:17:32.000Z</time>
      </trkpt>
      <trkpt lat="38.31645037047564983367919921875" lon="-0.5150892399251461029052734375">
        <ele>9.80000019073486328125</ele>
        <time>2019-10-25T08:17:36.000Z</time>
      </trkpt>
      <trkpt lat="38.31624601967632770538330078125" lon="-0.515160821378231048583984375">
        <ele>9</ele>
        <time>2019-10-25T08:17:40.000Z</time>
      </trkpt>
      <trkpt lat="38.31603915430605411529541015625" lon="-0.51522829569876194000244140625">
        <ele>7.400000095367431640625</ele>
        <time>2019-10-25T08:17:44.000Z</time>
      </trkpt>
      <trkpt lat="38.31583413295447826385498046875" lon="-0.51530205644667148590087890625">
        <ele>9</ele>
        <time>2019-10-25T08:17:48.000Z</time>
      </trkpt>
      <trkpt lat="38.31573195755481719970703125" lon="-0.5153393559157848358154296875">
        <ele>9.80000019073486328125</ele>
        <time>2019-10-25T08:17:50.000Z</time>
      </trkpt>
      <trkpt lat="38.31552953459322452545166015625" lon="-0.5154154635965824127197265625">
        <ele>11.3999996185302734375</ele>
        <time>2019-10-25T08:17:54.000Z</time>
      </trkpt>
      <trkpt lat="38.315328620374202728271484375" lon="-0.51550137810409069061279296875">
        <ele>11.19999980926513671875</ele>
        <time>2019-10-25T08:17:58.000Z</time>
      </trkpt>
      <trkpt lat="38.3151291310787200927734375" lon="-0.5155970156192779541015625">
        <ele>10.80000019073486328125</ele>
        <time>2019-10-25T08:18:02.000Z</time>
      </trkpt>
      <trkpt lat="38.31493291072547435760498046875" lon="-0.51569600589573383331298828125">
        <ele>10.6000003814697265625</ele>
        <time>2019-10-25T08:18:06.000Z</time>
      </trkpt>
      <trkpt lat="38.31473560072481632232666015625" lon="-0.51579960621893405914306640625">
        <ele>11.6000003814697265625</ele>
        <time>2019-10-25T08:18:10.000Z</time>
      </trkpt>
      <trkpt lat="38.314534015953540802001953125" lon="-0.51589733920991420745849609375">
        <ele>12.80000019073486328125</ele>
        <time>2019-10-25T08:18:14.000Z</time>
      </trkpt>
      <trkpt lat="38.31433628685772418975830078125" lon="-0.51600445993244647979736328125">
        <ele>13.3999996185302734375</ele>
        <time>2019-10-25T08:18:18.000Z</time>
      </trkpt>
      <trkpt lat="38.314137719571590423583984375" lon="-0.516107976436614990234375">
        <ele>13</ele>
        <time>2019-10-25T08:18:22.000Z</time>
      </trkpt>
      <trkpt lat="38.3139353804290294647216796875" lon="-0.5162060447037220001220703125">
        <ele>13.3999996185302734375</ele>
        <time>2019-10-25T08:18:26.000Z</time>
      </trkpt>
      <trkpt lat="38.3137325383722782135009765625" lon="-0.51629631780087947845458984375">
        <ele>14</ele>
        <time>2019-10-25T08:18:30.000Z</time>
      </trkpt>
      <trkpt lat="38.31353095360100269317626953125" lon="-0.51638684235513210296630859375">
        <ele>14.80000019073486328125</ele>
        <time>2019-10-25T08:18:34.000Z</time>
      </trkpt>
      <trkpt lat="38.31344344653189182281494140625" lon="-0.5164404027163982391357421875">
        <ele>15</ele>
        <time>2019-10-25T08:18:36.000Z</time>
      </trkpt>
      <trkpt lat="38.3133292011916637420654296875" lon="-0.5165543965995311737060546875">
        <ele>16</ele>
        <time>2019-10-25T08:18:39.000Z</time>
      </trkpt>
      <trkpt lat="38.31314538605511188507080078125" lon="-0.5166509561240673065185546875">
        <ele>16.799999237060546875</ele>
        <time>2019-10-25T08:18:43.000Z</time>
      </trkpt>
      <trkpt lat="38.31297020427882671356201171875" lon="-0.5167369544506072998046875">
        <ele>18</ele>
        <time>2019-10-25T08:18:47.000Z</time>
      </trkpt>
      <trkpt lat="38.3129261992871761322021484375" lon="-0.5167535506188869476318359375">
        <ele>17.6000003814697265625</ele>
        <time>2019-10-25T08:18:48.000Z</time>
      </trkpt>
      <trkpt lat="38.3127521909773349761962890625" lon="-0.51685555838048458099365234375">
        <ele>18</ele>
        <time>2019-10-25T08:18:54.000Z</time>
      </trkpt>
      <trkpt lat="38.31257105804979801177978515625" lon="-0.51691574044525623321533203125">
        <ele>16.3999996185302734375</ele>
        <time>2019-10-25T08:19:00.000Z</time>
      </trkpt>
      <trkpt lat="38.31253300420939922332763671875" lon="-0.5169154889881610870361328125">
        <ele>15.80000019073486328125</ele>
        <time>2019-10-25T08:19:01.000Z</time>
      </trkpt>
      <trkpt lat="38.3123314194381237030029296875" lon="-0.51689629442989826202392578125">
        <ele>13.6000003814697265625</ele>
        <time>2019-10-25T08:19:06.000Z</time>
      </trkpt>
      <trkpt lat="38.31212262623012065887451171875" lon="-0.51693820394575595855712890625">
        <ele>12.19999980926513671875</ele>
        <time>2019-10-25T08:19:11.000Z</time>
      </trkpt>
      <trkpt lat="38.311918862164020538330078125" lon="-0.5169858969748020172119140625">
        <ele>13.6000003814697265625</ele>
        <time>2019-10-25T08:19:16.000Z</time>
      </trkpt>
      <trkpt lat="38.31172213889658451080322265625" lon="-0.51702017895877361297607421875">
        <ele>14.80000019073486328125</ele>
        <time>2019-10-25T08:19:21.000Z</time>
      </trkpt>
      <trkpt lat="38.31151694990694522857666015625" lon="-0.5170609988272190093994140625">
        <ele>15</ele>
        <time>2019-10-25T08:19:26.000Z</time>
      </trkpt>
      <trkpt lat="38.31133774481713771820068359375" lon="-0.517100729048252105712890625">
        <ele>15</ele>
        <time>2019-10-25T08:19:30.000Z</time>
      </trkpt>
      <trkpt lat="38.31115284003317356109619140625" lon="-0.51715412177145481109619140625">
        <ele>15.3999996185302734375</ele>
        <time>2019-10-25T08:19:34.000Z</time>
      </trkpt>
      <trkpt lat="38.310975395143032073974609375" lon="-0.51720709539949893951416015625">
        <ele>15.3999996185302734375</ele>
        <time>2019-10-25T08:19:38.000Z</time>
      </trkpt>
      <trkpt lat="38.3107579685747623443603515625" lon="-0.51726057194173336029052734375">
        <ele>15.6000003814697265625</ele>
        <time>2019-10-25T08:19:43.000Z</time>
      </trkpt>
      <trkpt lat="38.3105430565774440765380859375" lon="-0.51733441650867462158203125">
        <ele>14.80000019073486328125</ele>
        <time>2019-10-25T08:19:48.000Z</time>
      </trkpt>
      <trkpt lat="38.31035505048930644989013671875" lon="-0.5173962749540805816650390625">
        <ele>13.6000003814697265625</ele>
        <time>2019-10-25T08:19:52.000Z</time>
      </trkpt>
      <trkpt lat="38.31016369163990020751953125" lon="-0.517442040145397186279296875">
        <ele>12.6000003814697265625</ele>
        <time>2019-10-25T08:19:56.000Z</time>
      </trkpt>
      <trkpt lat="38.30997166223824024200439453125" lon="-0.5174971930682659149169921875">
        <ele>12</ele>
        <time>2019-10-25T08:20:00.000Z</time>
      </trkpt>
      <trkpt lat="38.3097754418849945068359375" lon="-0.51755041815340518951416015625">
        <ele>12.80000019073486328125</ele>
        <time>2019-10-25T08:20:04.000Z</time>
      </trkpt>
      <trkpt lat="38.30957301892340183258056640625" lon="-0.51760531961917877197265625">
        <ele>13.80000019073486328125</ele>
        <time>2019-10-25T08:20:08.000Z</time>
      </trkpt>
      <trkpt lat="38.309370093047618865966796875" lon="-0.51766273565590381622314453125">
        <ele>14.6000003814697265625</ele>
        <time>2019-10-25T08:20:12.000Z</time>
      </trkpt>
      <trkpt lat="38.30916163511574268341064453125" lon="-0.5177251808345317840576171875">
        <ele>14.80000019073486328125</ele>
        <time>2019-10-25T08:20:16.000Z</time>
      </trkpt>
      <trkpt lat="38.30894588492810726165771484375" lon="-0.51779198460280895233154296875">
        <ele>15.80000019073486328125</ele>
        <time>2019-10-25T08:20:20.000Z</time>
      </trkpt>
      <trkpt lat="38.3087282069027423858642578125" lon="-0.5178468860685825347900390625">
        <ele>16.6000003814697265625</ele>
        <time>2019-10-25T08:20:24.000Z</time>
      </trkpt>
      <trkpt lat="38.308619745075702667236328125" lon="-0.517877899110317230224609375">
        <ele>17</ele>
        <time>2019-10-25T08:20:26.000Z</time>
      </trkpt>
      <trkpt lat="38.30846023745834827423095703125" lon="-0.517928190529346466064453125">
        <ele>16.6000003814697265625</ele>
        <time>2019-10-25T08:20:29.000Z</time>
      </trkpt>
      <trkpt lat="38.30824566073715686798095703125" lon="-0.51799952052533626556396484375">
        <ele>15</ele>
        <time>2019-10-25T08:20:33.000Z</time>
      </trkpt>
      <trkpt lat="38.308138288557529449462890625" lon="-0.5180386640131473541259765625">
        <ele>14.80000019073486328125</ele>
        <time>2019-10-25T08:20:35.000Z</time>
      </trkpt>
      <trkpt lat="38.3079166710376739501953125" lon="-0.5180953256785869598388671875">
        <ele>14.6000003814697265625</ele>
        <time>2019-10-25T08:20:39.000Z</time>
      </trkpt>
      <trkpt lat="38.3076968975365161895751953125" lon="-0.51814855076372623443603515625">
        <ele>15.19999980926513671875</ele>
        <time>2019-10-25T08:20:43.000Z</time>
      </trkpt>
      <trkpt lat="38.30748676322400569915771484375" lon="-0.51819532178342342376708984375">
        <ele>15.3999996185302734375</ele>
        <time>2019-10-25T08:20:47.000Z</time>
      </trkpt>
      <trkpt lat="38.30728559754788875579833984375" lon="-0.51822700537741184234619140625">
        <ele>14</ele>
        <time>2019-10-25T08:20:51.000Z</time>
      </trkpt>
      <trkpt lat="38.30710069276392459869384765625" lon="-0.5182565934956073760986328125">
        <ele>12.6000003814697265625</ele>
        <time>2019-10-25T08:20:55.000Z</time>
      </trkpt>
      <trkpt lat="38.30688980408012866973876953125" lon="-0.51829464733600616455078125">
        <ele>10.6000003814697265625</ele>
        <time>2019-10-25T08:21:00.000Z</time>
      </trkpt>
      <trkpt lat="38.3067772351205348968505859375" lon="-0.51831115968525409698486328125">
        <ele>10.80000019073486328125</ele>
        <time>2019-10-25T08:21:03.000Z</time>
      </trkpt>
      <trkpt lat="38.30662426538765430450439453125" lon="-0.5183417536318302154541015625">
        <ele>11</ele>
        <time>2019-10-25T08:21:07.000Z</time>
      </trkpt>
      <trkpt lat="38.30640055239200592041015625" lon="-0.51837285049259662628173828125">
        <ele>12</ele>
        <time>2019-10-25T08:21:12.000Z</time>
      </trkpt>
      <trkpt lat="38.30620131455361843109130859375" lon="-0.51840118132531642913818359375">
        <ele>12.80000019073486328125</ele>
        <time>2019-10-25T08:21:16.000Z</time>
      </trkpt>
      <trkpt lat="38.30598087050020694732666015625" lon="-0.5184240639209747314453125">
        <ele>14.19999980926513671875</ele>
        <time>2019-10-25T08:21:20.000Z</time>
      </trkpt>
      <trkpt lat="38.3057999052107334136962890625" lon="-0.518449880182743072509765625">
        <ele>14.6000003814697265625</ele>
        <time>2019-10-25T08:21:23.000Z</time>
      </trkpt>
      <trkpt lat="38.30556479282677173614501953125" lon="-0.518492795526981353759765625">
        <ele>17</ele>
        <time>2019-10-25T08:21:27.000Z</time>
      </trkpt>
      <trkpt lat="38.30533303320407867431640625" lon="-0.518561191856861114501953125">
        <ele>19</ele>
        <time>2019-10-25T08:21:31.000Z</time>
      </trkpt>
      <trkpt lat="38.3051565103232860565185546875" lon="-0.51864643581211566925048828125">
        <ele>19</ele>
        <time>2019-10-25T08:21:34.000Z</time>
      </trkpt>
      <trkpt lat="38.304994739592075347900390625" lon="-0.51876395009458065032958984375">
        <ele>17</ele>
        <time>2019-10-25T08:21:37.000Z</time>
      </trkpt>
      <trkpt lat="38.304846547544002532958984375" lon="-0.51889789290726184844970703125">
        <ele>16</ele>
        <time>2019-10-25T08:21:40.000Z</time>
      </trkpt>
      <trkpt lat="38.30466021783649921417236328125" lon="-0.5190758407115936279296875">
        <ele>16</ele>
        <time>2019-10-25T08:21:44.000Z</time>
      </trkpt>
      <trkpt lat="38.30448034219443798065185546875" lon="-0.519253872334957122802734375">
        <ele>17</ele>
        <time>2019-10-25T08:21:48.000Z</time>
      </trkpt>
      <trkpt lat="38.304304070770740509033203125" lon="-0.51940214820206165313720703125">
        <ele>17.3999996185302734375</ele>
        <time>2019-10-25T08:21:52.000Z</time>
      </trkpt>
      <trkpt lat="38.30412209965288639068603515625" lon="-0.5195054970681667327880859375">
        <ele>17.200000762939453125</ele>
        <time>2019-10-25T08:21:56.000Z</time>
      </trkpt>
      <trkpt lat="38.303905427455902099609375" lon="-0.519557297229766845703125">
        <ele>16.6000003814697265625</ele>
        <time>2019-10-25T08:22:01.000Z</time>
      </trkpt>
      <trkpt lat="38.3036970533430576324462890625" lon="-0.51956794224679470062255859375">
        <ele>15.6000003814697265625</ele>
        <time>2019-10-25T08:22:06.000Z</time>
      </trkpt>
      <trkpt lat="38.30349463038146495819091796875" lon="-0.5195202492177486419677734375">
        <ele>15</ele>
        <time>2019-10-25T08:22:11.000Z</time>
      </trkpt>
      <trkpt lat="38.30329061485826969146728515625" lon="-0.51945344544947147369384765625">
        <ele>14</ele>
        <time>2019-10-25T08:22:16.000Z</time>
      </trkpt>
      <trkpt lat="38.30308257602155208587646484375" lon="-0.5194153077900409698486328125">
        <ele>13.19999980926513671875</ele>
        <time>2019-10-25T08:22:20.000Z</time>
      </trkpt>
      <trkpt lat="38.3028950728476047515869140625" lon="-0.5194143019616603851318359375">
        <ele>13.3999996185302734375</ele>
        <time>2019-10-25T08:22:23.000Z</time>
      </trkpt>
      <trkpt lat="38.30276548862457275390625" lon="-0.51943165250122547149658203125">
        <ele>13.80000019073486328125</ele>
        <time>2019-10-25T08:22:25.000Z</time>
      </trkpt>
      <trkpt lat="38.3026365749537944793701171875" lon="-0.51947079598903656005859375">
        <ele>14</ele>
        <time>2019-10-25T08:22:27.000Z</time>
      </trkpt>
      <trkpt lat="38.3024370856583118438720703125" lon="-0.5195398628711700439453125">
        <ele>14.3999996185302734375</ele>
        <time>2019-10-25T08:22:30.000Z</time>
      </trkpt>
      <trkpt lat="38.30223776400089263916015625" lon="-0.51960666663944721221923828125">
        <ele>14.80000019073486328125</ele>
        <time>2019-10-25T08:22:33.000Z</time>
      </trkpt>
      <trkpt lat="38.3020267076790332794189453125" lon="-0.5196852050721645355224609375">
        <ele>15</ele>
        <time>2019-10-25T08:22:36.000Z</time>
      </trkpt>
      <trkpt lat="38.30181607045233249664306640625" lon="-0.519766174256801605224609375">
        <ele>15</ele>
        <time>2019-10-25T08:22:39.000Z</time>
      </trkpt>
      <trkpt lat="38.30160032026469707489013671875" lon="-0.51984362304210662841796875">
        <ele>15</ele>
        <time>2019-10-25T08:22:42.000Z</time>
      </trkpt>
      <trkpt lat="38.30138289369642734527587890625" lon="-0.5199219100177288055419921875">
        <ele>15.80000019073486328125</ele>
        <time>2019-10-25T08:22:45.000Z</time>
      </trkpt>
      <trkpt lat="38.30116010271012783050537109375" lon="-0.52000396884977817535400390625">
        <ele>14.80000019073486328125</ele>
        <time>2019-10-25T08:22:48.000Z</time>
      </trkpt>
      <trkpt lat="38.30092490650713443756103515625" lon="-0.52008912898600101470947265625">
        <ele>12.19999980926513671875</ele>
        <time>2019-10-25T08:22:51.000Z</time>
      </trkpt>
      <trkpt lat="38.30068686045706272125244140625" lon="-0.52018082700669765472412109375">
        <ele>10</ele>
        <time>2019-10-25T08:22:54.000Z</time>
      </trkpt>
      <trkpt lat="38.300445377826690673828125" lon="-0.5202747881412506103515625">
        <ele>9.19999980926513671875</ele>
        <time>2019-10-25T08:22:57.000Z</time>
      </trkpt>
      <trkpt lat="38.30020909197628498077392578125" lon="-0.5203793942928314208984375">
        <ele>10</ele>
        <time>2019-10-25T08:23:00.000Z</time>
      </trkpt>
      <trkpt lat="38.2999976165592670440673828125" lon="-0.52050034515559673309326171875">
        <ele>9.19999980926513671875</ele>
        <time>2019-10-25T08:23:03.000Z</time>
      </trkpt>
      <trkpt lat="38.29980625770986080169677734375" lon="-0.520621128380298614501953125">
        <ele>8.80000019073486328125</ele>
        <time>2019-10-25T08:23:06.000Z</time>
      </trkpt>
      <trkpt lat="38.29974465072154998779296875" lon="-0.5206658877432346343994140625">
        <ele>8.6000003814697265625</ele>
        <time>2019-10-25T08:23:07.000Z</time>
      </trkpt>
      <trkpt lat="38.2995781861245632171630859375" lon="-0.52083277143537998199462890625">
        <ele>8</ele>
        <time>2019-10-25T08:23:10.000Z</time>
      </trkpt>
      <trkpt lat="38.29942387528717517852783203125" lon="-0.5210222862660884857177734375">
        <ele>7.400000095367431640625</ele>
        <time>2019-10-25T08:23:13.000Z</time>
      </trkpt>
      <trkpt lat="38.299277611076831817626953125" lon="-0.52123191766440868377685546875">
        <ele>7</ele>
        <time>2019-10-25T08:23:16.000Z</time>
      </trkpt>
      <trkpt lat="38.299232684075832366943359375" lon="-0.5213092826306819915771484375">
        <ele>7.19999980926513671875</ele>
        <time>2019-10-25T08:23:17.000Z</time>
      </trkpt>
      <trkpt lat="38.29911190085113048553466796875" lon="-0.52156954072415828704833984375">
        <ele>7</ele>
        <time>2019-10-25T08:23:20.000Z</time>
      </trkpt>
      <trkpt lat="38.2989941351115703582763671875" lon="-0.521826446056365966796875">
        <ele>6.19999980926513671875</ele>
        <time>2019-10-25T08:23:23.000Z</time>
      </trkpt>
      <trkpt lat="38.29887972213327884674072265625" lon="-0.52207329310476779937744140625">
        <ele>5.400000095367431640625</ele>
        <time>2019-10-25T08:23:26.000Z</time>
      </trkpt>
      <trkpt lat="38.29875357449054718017578125" lon="-0.522308237850666046142578125">
        <ele>4.80000019073486328125</ele>
        <time>2019-10-25T08:23:29.000Z</time>
      </trkpt>
      <trkpt lat="38.2986333779990673065185546875" lon="-0.5225219763815402984619140625">
        <ele>4.400000095367431640625</ele>
        <time>2019-10-25T08:23:32.000Z</time>
      </trkpt>
      <trkpt lat="38.29850144684314727783203125" lon="-0.52271266467869281768798828125">
        <ele>4.80000019073486328125</ele>
        <time>2019-10-25T08:23:35.000Z</time>
      </trkpt>
      <trkpt lat="38.29835954122245311737060546875" lon="-0.52287326194345951080322265625">
        <ele>5</ele>
        <time>2019-10-25T08:23:38.000Z</time>
      </trkpt>
      <trkpt lat="38.29820045270025730133056640625" lon="-0.5230240523815155029296875">
        <ele>5</ele>
        <time>2019-10-25T08:23:41.000Z</time>
      </trkpt>
      <trkpt lat="38.2980375923216342926025390625" lon="-0.523175261914730072021484375">
        <ele>5</ele>
        <time>2019-10-25T08:23:44.000Z</time>
      </trkpt>
      <trkpt lat="38.29787339083850383758544921875" lon="-0.5233246274292469024658203125">
        <ele>5</ele>
        <time>2019-10-25T08:23:47.000Z</time>
      </trkpt>
      <trkpt lat="38.2977153919637203216552734375" lon="-0.5234647728502750396728515625">
        <ele>4.19999980926513671875</ele>
        <time>2019-10-25T08:23:50.000Z</time>
      </trkpt>
      <trkpt lat="38.297563008964061737060546875" lon="-0.5235998891294002532958984375">
        <ele>3.2000000476837158203125</ele>
        <time>2019-10-25T08:23:53.000Z</time>
      </trkpt>
      <trkpt lat="38.297412805259227752685546875" lon="-0.5237360112369060516357421875">
        <ele>3</ele>
        <time>2019-10-25T08:23:56.000Z</time>
      </trkpt>
      <trkpt lat="38.29726100899279117584228515625" lon="-0.523872636258602142333984375">
        <ele>3</ele>
        <time>2019-10-25T08:23:59.000Z</time>
      </trkpt>
      <trkpt lat="38.29710829071700572967529296875" lon="-0.52400532178580760955810546875">
        <ele>3.599999904632568359375</ele>
        <time>2019-10-25T08:24:02.000Z</time>
      </trkpt>
      <trkpt lat="38.2969142496585845947265625" lon="-0.5241779051721096038818359375">
        <ele>5</ele>
        <time>2019-10-25T08:24:06.000Z</time>
      </trkpt>
      <trkpt lat="38.2967655546963214874267578125" lon="-0.524308495223522186279296875">
        <ele>5.400000095367431640625</ele>
        <time>2019-10-25T08:24:09.000Z</time>
      </trkpt>
      <trkpt lat="38.2966183684766292572021484375" lon="-0.52444403059780597686767578125">
        <ele>6</ele>
        <time>2019-10-25T08:24:12.000Z</time>
      </trkpt>
      <trkpt lat="38.29646908678114414215087890625" lon="-0.52457763813436031341552734375">
        <ele>5</ele>
        <time>2019-10-25T08:24:15.000Z</time>
      </trkpt>
      <trkpt lat="38.29631620086729526519775390625" lon="-0.5247138440608978271484375">
        <ele>4</ele>
        <time>2019-10-25T08:24:18.000Z</time>
      </trkpt>
      <trkpt lat="38.296164907515048980712890625" lon="-0.52485189400613307952880859375">
        <ele>3.400000095367431640625</ele>
        <time>2019-10-25T08:24:21.000Z</time>
      </trkpt>
      <trkpt lat="38.2959727942943572998046875" lon="-0.52502573467791080474853515625">
        <ele>2.7999999523162841796875</ele>
        <time>2019-10-25T08:24:25.000Z</time>
      </trkpt>
      <trkpt lat="38.2957823574542999267578125" lon="-0.5251974798738956451416015625">
        <ele>2.7999999523162841796875</ele>
        <time>2019-10-25T08:24:29.000Z</time>
      </trkpt>
      <trkpt lat="38.2955900765955448150634765625" lon="-0.5253694765269756317138671875">
        <ele>4</ele>
        <time>2019-10-25T08:24:33.000Z</time>
      </trkpt>
      <trkpt lat="38.29540659673511981964111328125" lon="-0.52553258836269378662109375">
        <ele>5.19999980926513671875</ele>
        <time>2019-10-25T08:24:37.000Z</time>
      </trkpt>
      <trkpt lat="38.2952125556766986846923828125" lon="-0.5257024057209491729736328125">
        <ele>6</ele>
        <time>2019-10-25T08:24:41.000Z</time>
      </trkpt>
      <trkpt lat="38.2950204424560070037841796875" lon="-0.52586643956601619720458984375">
        <ele>5.19999980926513671875</ele>
        <time>2019-10-25T08:24:45.000Z</time>
      </trkpt>
      <trkpt lat="38.29482547938823699951171875" lon="-0.5260346643626689910888671875">
        <ele>3.7999999523162841796875</ele>
        <time>2019-10-25T08:24:49.000Z</time>
      </trkpt>
      <trkpt lat="38.2946325279772281646728515625" lon="-0.52620439790189266204833984375">
        <ele>3.400000095367431640625</ele>
        <time>2019-10-25T08:24:53.000Z</time>
      </trkpt>
      <trkpt lat="38.29443815164268016815185546875" lon="-0.52637387998402118682861328125">
        <ele>4</ele>
        <time>2019-10-25T08:24:57.000Z</time>
      </trkpt>
      <trkpt lat="38.294288031756877899169921875" lon="-0.52650849334895610809326171875">
        <ele>4</ele>
        <time>2019-10-25T08:25:00.000Z</time>
      </trkpt>
      <trkpt lat="38.29409181140363216400146484375" lon="-0.5266824178397655487060546875">
        <ele>4</ele>
        <time>2019-10-25T08:25:04.000Z</time>
      </trkpt>
      <trkpt lat="38.2938996143639087677001953125" lon="-0.5268534086644649505615234375">
        <ele>3.7999999523162841796875</ele>
        <time>2019-10-25T08:25:08.000Z</time>
      </trkpt>
      <trkpt lat="38.29370657913386821746826171875" lon="-0.52702146582305431365966796875">
        <ele>2.7999999523162841796875</ele>
        <time>2019-10-25T08:25:12.000Z</time>
      </trkpt>
      <trkpt lat="38.2935160584747791290283203125" lon="-0.52718843333423137664794921875">
        <ele>1</ele>
        <time>2019-10-25T08:25:16.000Z</time>
      </trkpt>
      <trkpt lat="38.29332369379699230194091796875" lon="-0.52735942415893077850341796875">
        <ele>0.20000000298023223876953125</ele>
        <time>2019-10-25T08:25:20.000Z</time>
      </trkpt>
      <trkpt lat="38.2931398786604404449462890625" lon="-0.5275165848433971405029296875">
        <ele>0</ele>
        <time>2019-10-25T08:25:24.000Z</time>
      </trkpt>
      <trkpt lat="38.293047510087490081787109375" lon="-0.5276007391512393951416015625">
        <ele>0.60000002384185791015625</ele>
        <time>2019-10-25T08:25:26.000Z</time>
      </trkpt>
      <trkpt lat="38.29286285676062107086181640625" lon="-0.52776309661567211151123046875">
        <ele>2.7999999523162841796875</ele>
        <time>2019-10-25T08:25:30.000Z</time>
      </trkpt>
      <trkpt lat="38.29267627559602260589599609375" lon="-0.52792905829846858978271484375">
        <ele>4.400000095367431640625</ele>
        <time>2019-10-25T08:25:34.000Z</time>
      </trkpt>
      <trkpt lat="38.29248785041272640228271484375" lon="-0.52810013294219970703125">
        <ele>5.599999904632568359375</ele>
        <time>2019-10-25T08:25:38.000Z</time>
      </trkpt>
      <trkpt lat="38.29229925759136676788330078125" lon="-0.52826517261564731597900390625">
        <ele>5.80000019073486328125</ele>
        <time>2019-10-25T08:25:42.000Z</time>
      </trkpt>
      <trkpt lat="38.2921149395406246185302734375" lon="-0.5284287035465240478515625">
        <ele>5.80000019073486328125</ele>
        <time>2019-10-25T08:25:46.000Z</time>
      </trkpt>
      <trkpt lat="38.291963227093219757080078125" lon="-0.52856340073049068450927734375">
        <ele>5.19999980926513671875</ele>
        <time>2019-10-25T08:25:49.000Z</time>
      </trkpt>
      <trkpt lat="38.2917726226150989532470703125" lon="-0.528738163411617279052734375">
        <ele>3.7999999523162841796875</ele>
        <time>2019-10-25T08:25:53.000Z</time>
      </trkpt>
      <trkpt lat="38.29159014858305454254150390625" lon="-0.52890320308506488800048828125">
        <ele>2</ele>
        <time>2019-10-25T08:25:57.000Z</time>
      </trkpt>
      <trkpt lat="38.2914014719426631927490234375" lon="-0.52907042205333709716796875">
        <ele>2.599999904632568359375</ele>
        <time>2019-10-25T08:26:01.000Z</time>
      </trkpt>
      <trkpt lat="38.29121313057839870452880859375" lon="-0.52923277951776981353759765625">
        <ele>3.400000095367431640625</ele>
        <time>2019-10-25T08:26:05.000Z</time>
      </trkpt>
      <trkpt lat="38.29102168790996074676513671875" lon="-0.52940108813345432281494140625">
        <ele>4</ele>
        <time>2019-10-25T08:26:09.000Z</time>
      </trkpt>
      <trkpt lat="38.290839381515979766845703125" lon="-0.52955782972276210784912109375">
        <ele>3.599999904632568359375</ele>
        <time>2019-10-25T08:26:13.000Z</time>
      </trkpt>
      <trkpt lat="38.29065254889428615570068359375" lon="-0.5297213606536388397216796875">
        <ele>3.400000095367431640625</ele>
        <time>2019-10-25T08:26:17.000Z</time>
      </trkpt>
      <trkpt lat="38.29050444066524505615234375" lon="-0.52985186688601970672607421875">
        <ele>3.2000000476837158203125</ele>
        <time>2019-10-25T08:26:20.000Z</time>
      </trkpt>
      <trkpt lat="38.29031241126358509063720703125" lon="-0.5300257913768291473388671875">
        <ele>2.599999904632568359375</ele>
        <time>2019-10-25T08:26:24.000Z</time>
      </trkpt>
      <trkpt lat="38.290162123739719390869140625" lon="-0.53016685880720615386962890625">
        <ele>3.2000000476837158203125</ele>
        <time>2019-10-25T08:26:27.000Z</time>
      </trkpt>
      <trkpt lat="38.29001686535775661468505859375" lon="-0.53030365146696567535400390625">
        <ele>3.7999999523162841796875</ele>
        <time>2019-10-25T08:26:30.000Z</time>
      </trkpt>
      <trkpt lat="38.2898273505270481109619140625" lon="-0.530467517673969268798828125">
        <ele>4</ele>
        <time>2019-10-25T08:26:34.000Z</time>
      </trkpt>
      <trkpt lat="38.28964638523757457733154296875" lon="-0.530627779662609100341796875">
        <ele>4</ele>
        <time>2019-10-25T08:26:38.000Z</time>
      </trkpt>
      <trkpt lat="38.28946332447230815887451171875" lon="-0.53078728727996349334716796875">
        <ele>4</ele>
        <time>2019-10-25T08:26:42.000Z</time>
      </trkpt>
      <trkpt lat="38.2892780005931854248046875" lon="-0.530942939221858978271484375">
        <ele>4</ele>
        <time>2019-10-25T08:26:46.000Z</time>
      </trkpt>
      <trkpt lat="38.28909049741923809051513671875" lon="-0.53111292421817779541015625">
        <ele>4</ele>
        <time>2019-10-25T08:26:50.000Z</time>
      </trkpt>
      <trkpt lat="38.2889013178646564483642578125" lon="-0.5312827415764331817626953125">
        <ele>3.400000095367431640625</ele>
        <time>2019-10-25T08:26:54.000Z</time>
      </trkpt>
      <trkpt lat="38.2887189276516437530517578125" lon="-0.5314436741173267364501953125">
        <ele>3</ele>
        <time>2019-10-25T08:26:58.000Z</time>
      </trkpt>
      <trkpt lat="38.28852874226868152618408203125" lon="-0.5316039361059665679931640625">
        <ele>3</ele>
        <time>2019-10-25T08:27:02.000Z</time>
      </trkpt>
      <trkpt lat="38.28833780251443386077880859375" lon="-0.5317745916545391082763671875">
        <ele>2.2000000476837158203125</ele>
        <time>2019-10-25T08:27:06.000Z</time>
      </trkpt>
      <trkpt lat="38.28815256245434284210205078125" lon="-0.5319445766508579254150390625">
        <ele>1.60000002384185791015625</ele>
        <time>2019-10-25T08:27:10.000Z</time>
      </trkpt>
      <trkpt lat="38.28796715475618839263916015625" lon="-0.5321081914007663726806640625">
        <ele>1.60000002384185791015625</ele>
        <time>2019-10-25T08:27:14.000Z</time>
      </trkpt>
      <trkpt lat="38.28778577037155628204345703125" lon="-0.532270967960357666015625">
        <ele>3</ele>
        <time>2019-10-25T08:27:18.000Z</time>
      </trkpt>
      <trkpt lat="38.287591226398944854736328125" lon="-0.53244170732796192169189453125">
        <ele>5</ele>
        <time>2019-10-25T08:27:22.000Z</time>
      </trkpt>
      <trkpt lat="38.287401460111141204833984375" lon="-0.53260884247720241546630859375">
        <ele>6</ele>
        <time>2019-10-25T08:27:26.000Z</time>
      </trkpt>
      <trkpt lat="38.287213034927845001220703125" lon="-0.5327703617513179779052734375">
        <ele>6</ele>
        <time>2019-10-25T08:27:30.000Z</time>
      </trkpt>
      <trkpt lat="38.2870303094387054443359375" lon="-0.53293355740606784820556640625">
        <ele>5.599999904632568359375</ele>
        <time>2019-10-25T08:27:34.000Z</time>
      </trkpt>
      <trkpt lat="38.28684498555958271026611328125" lon="-0.5330928973853588104248046875">
        <ele>5.19999980926513671875</ele>
        <time>2019-10-25T08:27:38.000Z</time>
      </trkpt>
      <trkpt lat="38.28666242770850658416748046875" lon="-0.5332591943442821502685546875">
        <ele>5.80000019073486328125</ele>
        <time>2019-10-25T08:27:42.000Z</time>
      </trkpt>
      <trkpt lat="38.2864729128777980804443359375" lon="-0.53342993371188640594482421875">
        <ele>6.400000095367431640625</ele>
        <time>2019-10-25T08:27:46.000Z</time>
      </trkpt>
      <trkpt lat="38.28628356568515300750732421875" lon="-0.53359589539468288421630859375">
        <ele>7</ele>
        <time>2019-10-25T08:27:50.000Z</time>
      </trkpt>
      <trkpt lat="38.2860953919589519500732421875" lon="-0.5337657965719699859619140625">
        <ele>6.400000095367431640625</ele>
        <time>2019-10-25T08:27:54.000Z</time>
      </trkpt>
      <trkpt lat="38.28591057099401950836181640625" lon="-0.53393167443573474884033203125">
        <ele>5.400000095367431640625</ele>
        <time>2019-10-25T08:27:58.000Z</time>
      </trkpt>
      <trkpt lat="38.2857312820851802825927734375" lon="-0.53409663029015064239501953125">
        <ele>5</ele>
        <time>2019-10-25T08:28:02.000Z</time>
      </trkpt>
      <trkpt lat="38.2856860198080539703369140625" lon="-0.5341364443302154541015625">
        <ele>5</ele>
        <time>2019-10-25T08:28:03.000Z</time>
      </trkpt>
      <trkpt lat="38.28550522215664386749267578125" lon="-0.5343002267181873321533203125">
        <ele>5.400000095367431640625</ele>
        <time>2019-10-25T08:28:07.000Z</time>
      </trkpt>
      <trkpt lat="38.28531495295464992523193359375" lon="-0.534465350210666656494140625">
        <ele>6</ele>
        <time>2019-10-25T08:28:11.000Z</time>
      </trkpt>
      <trkpt lat="38.2851626537740230560302734375" lon="-0.53458998911082744598388671875">
        <ele>6.400000095367431640625</ele>
        <time>2019-10-25T08:28:14.000Z</time>
      </trkpt>
      <trkpt lat="38.28500725328922271728515625" lon="-0.53472057916224002838134765625">
        <ele>7</ele>
        <time>2019-10-25T08:28:17.000Z</time>
      </trkpt>
      <trkpt lat="38.28484439291059970855712890625" lon="-0.5348530970513820648193359375">
        <ele>6.599999904632568359375</ele>
        <time>2019-10-25T08:28:20.000Z</time>
      </trkpt>
      <trkpt lat="38.2846805267035961151123046875" lon="-0.53499148227274417877197265625">
        <ele>6</ele>
        <time>2019-10-25T08:28:23.000Z</time>
      </trkpt>
      <trkpt lat="38.28451666049659252166748046875" lon="-0.5351229943335056304931640625">
        <ele>5.599999904632568359375</ele>
        <time>2019-10-25T08:28:26.000Z</time>
      </trkpt>
      <trkpt lat="38.28436159528791904449462890625" lon="-0.53524310700595378875732421875">
        <ele>5.19999980926513671875</ele>
        <time>2019-10-25T08:28:29.000Z</time>
      </trkpt>
      <trkpt lat="38.2841682247817516326904296875" lon="-0.5353912152349948883056640625">
        <ele>5.80000019073486328125</ele>
        <time>2019-10-25T08:28:33.000Z</time>
      </trkpt>
      <trkpt lat="38.283965885639190673828125" lon="-0.53552758879959583282470703125">
        <ele>6.599999904632568359375</ele>
        <time>2019-10-25T08:28:37.000Z</time>
      </trkpt>
      <trkpt lat="38.2837575115263462066650390625" lon="-0.5356332845985889434814453125">
        <ele>7</ele>
        <time>2019-10-25T08:28:41.000Z</time>
      </trkpt>
      <trkpt lat="38.28356246463954448699951171875" lon="-0.53572942502796649932861328125">
        <ele>7</ele>
        <time>2019-10-25T08:28:45.000Z</time>
      </trkpt>
      <trkpt lat="38.2833773083984851837158203125" lon="-0.53582062013447284698486328125">
        <ele>6.400000095367431640625</ele>
        <time>2019-10-25T08:28:49.000Z</time>
      </trkpt>
      <trkpt lat="38.2831667549908161163330078125" lon="-0.53590762428939342498779296875">
        <ele>6</ele>
        <time>2019-10-25T08:28:53.000Z</time>
      </trkpt>
      <trkpt lat="38.28295536339282989501953125" lon="-0.5359729193150997161865234375">
        <ele>6</ele>
        <time>2019-10-25T08:28:57.000Z</time>
      </trkpt>
      <trkpt lat="38.2827496714890003204345703125" lon="-0.53604877553880214691162109375">
        <ele>6</ele>
        <time>2019-10-25T08:29:01.000Z</time>
      </trkpt>
      <trkpt lat="38.28255034983158111572265625" lon="-0.53611247800290584564208984375">
        <ele>6</ele>
        <time>2019-10-25T08:29:05.000Z</time>
      </trkpt>
      <trkpt lat="38.28234273009002208709716796875" lon="-0.53618204779922962188720703125">
        <ele>6</ele>
        <time>2019-10-25T08:29:09.000Z</time>
      </trkpt>
      <trkpt lat="38.28212245367467403411865234375" lon="-0.5362553894519805908203125">
        <ele>5.80000019073486328125</ele>
        <time>2019-10-25T08:29:13.000Z</time>
      </trkpt>
      <trkpt lat="38.281898908317089080810546875" lon="-0.536319427192211151123046875">
        <ele>5.19999980926513671875</ele>
        <time>2019-10-25T08:29:17.000Z</time>
      </trkpt>
      <trkpt lat="38.2818437553942203521728515625" lon="-0.53633862175047397613525390625">
        <ele>5.19999980926513671875</ele>
        <time>2019-10-25T08:29:18.000Z</time>
      </trkpt>
      <trkpt lat="38.2816335372626781463623046875" lon="-0.5364332534372806549072265625">
        <ele>5.19999980926513671875</ele>
        <time>2019-10-25T08:29:22.000Z</time>
      </trkpt>
      <trkpt lat="38.28147352673113346099853515625" lon="-0.53652905859053134918212890625">
        <ele>6</ele>
        <time>2019-10-25T08:29:25.000Z</time>
      </trkpt>
      <trkpt lat="38.28124470077455043792724609375" lon="-0.53660382516682147979736328125">
        <ele>7</ele>
        <time>2019-10-25T08:29:29.000Z</time>
      </trkpt>
      <trkpt lat="38.281029202044010162353515625" lon="-0.53668378852307796478271484375">
        <ele>8</ele>
        <time>2019-10-25T08:29:33.000Z</time>
      </trkpt>
      <trkpt lat="38.28080079518258571624755859375" lon="-0.53677263669669628143310546875">
        <ele>8.3999996185302734375</ele>
        <time>2019-10-25T08:29:37.000Z</time>
      </trkpt>
      <trkpt lat="38.28057029284536838531494140625" lon="-0.53686081431806087493896484375">
        <ele>8</ele>
        <time>2019-10-25T08:29:41.000Z</time>
      </trkpt>
      <trkpt lat="38.28038991428911685943603515625" lon="-0.53693222813308238983154296875">
        <ele>8.3999996185302734375</ele>
        <time>2019-10-25T08:29:44.000Z</time>
      </trkpt>
      <trkpt lat="38.28021020628511905670166015625" lon="-0.53699945099651813507080078125">
        <ele>8.80000019073486328125</ele>
        <time>2019-10-25T08:29:47.000Z</time>
      </trkpt>
      <trkpt lat="38.27998481690883636474609375" lon="-0.53707681596279144287109375">
        <ele>9.80000019073486328125</ele>
        <time>2019-10-25T08:29:51.000Z</time>
      </trkpt>
      <trkpt lat="38.27975154854357242584228515625" lon="-0.53716172464191913604736328125">
        <ele>10</ele>
        <time>2019-10-25T08:29:55.000Z</time>
      </trkpt>
      <trkpt lat="38.2795652188360691070556640625" lon="-0.53722701966762542724609375">
        <ele>9.3999996185302734375</ele>
        <time>2019-10-25T08:29:58.000Z</time>
      </trkpt>
      <trkpt lat="38.27937821857631206512451171875" lon="-0.5372912250459194183349609375">
        <ele>8.19999980926513671875</ele>
        <time>2019-10-25T08:30:01.000Z</time>
      </trkpt>
      <trkpt lat="38.2791937328875064849853515625" lon="-0.5373572744429111480712890625">
        <ele>8</ele>
        <time>2019-10-25T08:30:04.000Z</time>
      </trkpt>
      <trkpt lat="38.27901461161673069000244140625" lon="-0.53741938434541225433349609375">
        <ele>7.599999904632568359375</ele>
        <time>2019-10-25T08:30:07.000Z</time>
      </trkpt>
      <trkpt lat="38.27878997661173343658447265625" lon="-0.53750596940517425537109375">
        <ele>7.19999980926513671875</ele>
        <time>2019-10-25T08:30:11.000Z</time>
      </trkpt>
      <trkpt lat="38.27857255004346370697021484375" lon="-0.53760093636810779571533203125">
        <ele>7.599999904632568359375</ele>
        <time>2019-10-25T08:30:15.000Z</time>
      </trkpt>
      <trkpt lat="38.27835763804614543914794921875" lon="-0.53772666491568088531494140625">
        <ele>8</ele>
        <time>2019-10-25T08:30:19.000Z</time>
      </trkpt>
      <trkpt lat="38.27819771133363246917724609375" lon="-0.53783479146659374237060546875">
        <ele>7.80000019073486328125</ele>
        <time>2019-10-25T08:30:22.000Z</time>
      </trkpt>
      <trkpt lat="38.27803895808756351470947265625" lon="-0.53794853389263153076171875">
        <ele>7.19999980926513671875</ele>
        <time>2019-10-25T08:30:25.000Z</time>
      </trkpt>
      <trkpt lat="38.2778492756187915802001953125" lon="-0.53810351528227329254150390625">
        <ele>6.400000095367431640625</ele>
        <time>2019-10-25T08:30:29.000Z</time>
      </trkpt>
      <trkpt lat="38.27767300419509410858154296875" lon="-0.53825321607291698455810546875">
        <ele>5.80000019073486328125</ele>
        <time>2019-10-25T08:30:33.000Z</time>
      </trkpt>
      <trkpt lat="38.277507461607456207275390625" lon="-0.5384221114218235015869140625">
        <ele>5.80000019073486328125</ele>
        <time>2019-10-25T08:30:37.000Z</time>
      </trkpt>
      <trkpt lat="38.27743093483150005340576171875" lon="-0.5385164916515350341796875">
        <ele>6.19999980926513671875</ele>
        <time>2019-10-25T08:30:39.000Z</time>
      </trkpt>
      <trkpt lat="38.2772786356508731842041015625" lon="-0.53872461430728435516357421875">
        <ele>8</ele>
        <time>2019-10-25T08:30:43.000Z</time>
      </trkpt>
      <trkpt lat="38.27713538892567157745361328125" lon="-0.53894899785518646240234375">
        <ele>8.80000019073486328125</ele>
        <time>2019-10-25T08:30:47.000Z</time>
      </trkpt>
      <trkpt lat="38.27700865454971790313720703125" lon="-0.53918444551527500152587890625">
        <ele>8</ele>
        <time>2019-10-25T08:30:51.000Z</time>
      </trkpt>
      <trkpt lat="38.27688845805823802947998046875" lon="-0.53940304554998874664306640625">
        <ele>7.19999980926513671875</ele>
        <time>2019-10-25T08:30:55.000Z</time>
      </trkpt>
      <trkpt lat="38.276774547994136810302734375" lon="-0.53961175493896007537841796875">
        <ele>7.80000019073486328125</ele>
        <time>2019-10-25T08:30:59.000Z</time>
      </trkpt>
      <trkpt lat="38.27665493823587894439697265625" lon="-0.53982398472726345062255859375">
        <ele>8.6000003814697265625</ele>
        <time>2019-10-25T08:31:03.000Z</time>
      </trkpt>
      <trkpt lat="38.2765359990298748016357421875" lon="-0.5400445125997066497802734375">
        <ele>9.19999980926513671875</ele>
        <time>2019-10-25T08:31:07.000Z</time>
      </trkpt>
      <trkpt lat="38.27641353942453861236572265625" lon="-0.54025590419769287109375">
        <ele>9.80000019073486328125</ele>
        <time>2019-10-25T08:31:11.000Z</time>
      </trkpt>
      <trkpt lat="38.27628429047763347625732421875" lon="-0.5404803715646266937255859375">
        <ele>10.6000003814697265625</ele>
        <time>2019-10-25T08:31:16.000Z</time>
      </trkpt>
      <trkpt lat="38.276149928569793701171875" lon="-0.54068732075393199920654296875">
        <ele>11.80000019073486328125</ele>
        <time>2019-10-25T08:31:21.000Z</time>
      </trkpt>
      <trkpt lat="38.27601389028131961822509765625" lon="-0.54089049808681011199951171875">
        <ele>13.19999980926513671875</ele>
        <time>2019-10-25T08:31:26.000Z</time>
      </trkpt>
      <trkpt lat="38.27588849700987339019775390625" lon="-0.54108805954456329345703125">
        <ele>14.19999980926513671875</ele>
        <time>2019-10-25T08:31:31.000Z</time>
      </trkpt>
      <trkpt lat="38.2757430709898471832275390625" lon="-0.541302300989627838134765625">
        <ele>13.80000019073486328125</ele>
        <time>2019-10-25T08:31:36.000Z</time>
      </trkpt>
      <trkpt lat="38.27559378929436206817626953125" lon="-0.5415044724941253662109375">
        <ele>13</ele>
        <time>2019-10-25T08:31:41.000Z</time>
      </trkpt>
      <trkpt lat="38.27544610016047954559326171875" lon="-0.5417068116366863250732421875">
        <ele>12</ele>
        <time>2019-10-25T08:31:46.000Z</time>
      </trkpt>
      <trkpt lat="38.2753008417785167694091796875" lon="-0.541905798017978668212890625">
        <ele>12</ele>
        <time>2019-10-25T08:31:51.000Z</time>
      </trkpt>
      <trkpt lat="38.2751670666038990020751953125" lon="-0.54206379689276218414306640625">
        <ele>12.19999980926513671875</ele>
        <time>2019-10-25T08:31:55.000Z</time>
      </trkpt>
      <trkpt lat="38.2750193774700164794921875" lon="-0.54223126731812953948974609375">
        <ele>12.80000019073486328125</ele>
        <time>2019-10-25T08:31:59.000Z</time>
      </trkpt>
      <trkpt lat="38.274866156280040740966796875" lon="-0.5423934571444988250732421875">
        <ele>13</ele>
        <time>2019-10-25T08:32:03.000Z</time>
      </trkpt>
      <trkpt lat="38.27470849268138408660888671875" lon="-0.542555563151836395263671875">
        <ele>13.19999980926513671875</ele>
        <time>2019-10-25T08:32:07.000Z</time>
      </trkpt>
      <trkpt lat="38.27456281520426273345947265625" lon="-0.54271205328404903411865234375">
        <ele>14</ele>
        <time>2019-10-25T08:32:11.000Z</time>
      </trkpt>
      <trkpt lat="38.2743944227695465087890625" lon="-0.5428608320653438568115234375">
        <ele>15.19999980926513671875</ele>
        <time>2019-10-25T08:32:15.000Z</time>
      </trkpt>
      <trkpt lat="38.274213373661041259765625" lon="-0.5429949425160884857177734375">
        <ele>15.80000019073486328125</ele>
        <time>2019-10-25T08:32:19.000Z</time>
      </trkpt>
      <trkpt lat="38.2740408740937709808349609375" lon="-0.54311706684529781341552734375">
        <ele>16</ele>
        <time>2019-10-25T08:32:23.000Z</time>
      </trkpt>
      <trkpt lat="38.27387231402099132537841796875" lon="-0.54323022253811359405517578125">
        <ele>15.80000019073486328125</ele>
        <time>2019-10-25T08:32:27.000Z</time>
      </trkpt>
      <trkpt lat="38.2736925221979618072509765625" lon="-0.5433295480906963348388671875">
        <ele>16.3999996185302734375</ele>
        <time>2019-10-25T08:32:31.000Z</time>
      </trkpt>
      <trkpt lat="38.27351273037493228912353515625" lon="-0.54341353476047515869140625">
        <ele>17.200000762939453125</ele>
        <time>2019-10-25T08:32:35.000Z</time>
      </trkpt>
      <trkpt lat="38.2733321003615856170654296875" lon="-0.54349224083125591278076171875">
        <ele>17.799999237060546875</ele>
        <time>2019-10-25T08:32:39.000Z</time>
      </trkpt>
      <trkpt lat="38.27315649949014186859130859375" lon="-0.543565414845943450927734375">
        <ele>17.6000003814697265625</ele>
        <time>2019-10-25T08:32:43.000Z</time>
      </trkpt>
      <trkpt lat="38.27296220697462558746337890625" lon="-0.54361612536013126373291015625">
        <ele>16.799999237060546875</ele>
        <time>2019-10-25T08:32:47.000Z</time>
      </trkpt>
      <trkpt lat="38.27291074208915233612060546875" lon="-0.5436212383210659027099609375">
        <ele>16.799999237060546875</ele>
        <time>2019-10-25T08:32:48.000Z</time>
      </trkpt>
      <trkpt lat="38.27276489697396755218505859375" lon="-0.543612353503704071044921875">
        <ele>16.200000762939453125</ele>
        <time>2019-10-25T08:32:51.000Z</time>
      </trkpt>
      <trkpt lat="38.27260605990886688232421875" lon="-0.54369650781154632568359375">
        <ele>16.200000762939453125</ele>
        <time>2019-10-25T08:32:55.000Z</time>
      </trkpt>
      <trkpt lat="38.27240648679435253143310546875" lon="-0.54366700351238250732421875">
        <ele>16.200000762939453125</ele>
        <time>2019-10-25T08:33:00.000Z</time>
      </trkpt>
      <trkpt lat="38.27238653786480426788330078125" lon="-0.5434304662048816680908203125">
        <ele>16.200000762939453125</ele>
        <time>2019-10-25T08:33:05.000Z</time>
      </trkpt>
      <trkpt lat="38.2724674232304096221923828125" lon="-0.5432926677167415618896484375">
        <ele>16.200000762939453125</ele>
        <time>2019-10-25T08:33:08.000Z</time>
      </trkpt>
      <trkpt lat="38.27249483205378055572509765625" lon="-0.54324430413544178009033203125">
        <ele>16.3999996185302734375</ele>
        <time>2019-10-25T08:33:09.000Z</time>
      </trkpt>
      <trkpt lat="38.2724999450147151947021484375" lon="-0.5430073477327823638916015625">
        <ele>17.200000762939453125</ele>
        <time>2019-10-25T08:33:13.000Z</time>
      </trkpt>
      <trkpt lat="38.27247907407581806182861328125" lon="-0.54273317568004131317138671875">
        <ele>17.799999237060546875</ele>
        <time>2019-10-25T08:33:18.000Z</time>
      </trkpt>
      <trkpt lat="38.27245677821338176727294921875" lon="-0.542501918971538543701171875">
        <ele>18</ele>
        <time>2019-10-25T08:33:22.000Z</time>
      </trkpt>
      <trkpt lat="38.2724221609532833099365234375" lon="-0.5422675609588623046875">
        <ele>18</ele>
        <time>2019-10-25T08:33:26.000Z</time>
      </trkpt>
      <trkpt lat="38.27241889201104640960693359375" lon="-0.542212910950183868408203125">
        <ele>18.200000762939453125</ele>
        <time>2019-10-25T08:33:27.000Z</time>
      </trkpt>
      <trkpt lat="38.2724020443856716156005859375" lon="-0.5419733561575412750244140625">
        <ele>19</ele>
        <time>2019-10-25T08:33:31.000Z</time>
      </trkpt>
      <trkpt lat="38.272409252822399139404296875" lon="-0.5417929776012897491455078125">
        <ele>19.6000003814697265625</ele>
        <time>2019-10-25T08:33:34.000Z</time>
      </trkpt>
      <trkpt lat="38.27242660336196422576904296875" lon="-0.54161243140697479248046875">
        <ele>20</ele>
        <time>2019-10-25T08:33:37.000Z</time>
      </trkpt>
      <trkpt lat="38.2724201492965221405029296875" lon="-0.54148812778294086456298828125">
        <ele>20</ele>
        <time>2019-10-25T08:33:39.000Z</time>
      </trkpt>
      <trkpt lat="38.27240757644176483154296875" lon="-0.5413058213889598846435546875">
        <ele>20.200000762939453125</ele>
        <time>2019-10-25T08:33:42.000Z</time>
      </trkpt>
      <trkpt lat="38.272420652210712432861328125" lon="-0.54107590578496456146240234375">
        <ele>20</ele>
        <time>2019-10-25T08:33:46.000Z</time>
      </trkpt>
      <trkpt lat="38.2724471390247344970703125" lon="-0.540914721786975860595703125">
        <ele>20</ele>
        <time>2019-10-25T08:33:49.000Z</time>
      </trkpt>
      <trkpt lat="38.27246599830687046051025390625" lon="-0.54075035266578197479248046875">
        <ele>20.200000762939453125</ele>
        <time>2019-10-25T08:33:52.000Z</time>
      </trkpt>
      <trkpt lat="38.27243817038834095001220703125" lon="-0.54050526581704616546630859375">
        <ele>21</ele>
        <time>2019-10-25T08:33:56.000Z</time>
      </trkpt>
      <trkpt lat="38.27244646847248077392578125" lon="-0.5403486080467700958251953125">
        <ele>21</ele>
        <time>2019-10-25T08:33:59.000Z</time>
      </trkpt>
      <trkpt lat="38.27245309017598628997802734375" lon="-0.54010637104511260986328125">
        <ele>20.3999996185302734375</ele>
        <time>2019-10-25T08:34:03.000Z</time>
      </trkpt>
      <trkpt lat="38.2724918983876705169677734375" lon="-0.5399342067539691925048828125">
        <ele>20</ele>
        <time>2019-10-25T08:34:06.000Z</time>
      </trkpt>
      <trkpt lat="38.27230699360370635986328125" lon="-0.5398396588861942291259765625">
        <ele>18.6000003814697265625</ele>
        <time>2019-10-25T08:34:10.000Z</time>
      </trkpt>
      <trkpt lat="38.27224488370120525360107421875" lon="-0.53985918872058391571044921875">
        <ele>18.3999996185302734375</ele>
        <time>2019-10-25T08:34:11.000Z</time>
      </trkpt>
      <trkpt lat="38.27205209992825984954833984375" lon="-0.539922975003719329833984375">
        <ele>17.200000762939453125</ele>
        <time>2019-10-25T08:34:14.000Z</time>
      </trkpt>
      <trkpt lat="38.2718428038060665130615234375" lon="-0.53998810239136219024658203125">
        <ele>15.80000019073486328125</ele>
        <time>2019-10-25T08:34:17.000Z</time>
      </trkpt>
      <trkpt lat="38.27161791734397411346435546875" lon="-0.540046356618404388427734375">
        <ele>14.19999980926513671875</ele>
        <time>2019-10-25T08:34:20.000Z</time>
      </trkpt>
      <trkpt lat="38.2713999040424823760986328125" lon="-0.5401159264147281646728515625">
        <ele>13.19999980926513671875</ele>
        <time>2019-10-25T08:34:23.000Z</time>
      </trkpt>
      <trkpt lat="38.27118306420743465423583984375" lon="-0.54017786867916584014892578125">
        <ele>12.19999980926513671875</ele>
        <time>2019-10-25T08:34:26.000Z</time>
      </trkpt>
      <trkpt lat="38.27097871340811252593994140625" lon="-0.5402386374771595001220703125">
        <ele>11.19999980926513671875</ele>
        <time>2019-10-25T08:34:29.000Z</time>
      </trkpt>
      <trkpt lat="38.2707866840064525604248046875" lon="-0.54029890336096286773681640625">
        <ele>11.19999980926513671875</ele>
        <time>2019-10-25T08:34:32.000Z</time>
      </trkpt>
      <trkpt lat="38.27059633098542690277099609375" lon="-0.54035757668316364288330078125">
        <ele>10.80000019073486328125</ele>
        <time>2019-10-25T08:34:35.000Z</time>
      </trkpt>
      <trkpt lat="38.2704175449907779693603515625" lon="-0.54041692055761814117431640625">
        <ele>10.6000003814697265625</ele>
        <time>2019-10-25T08:34:38.000Z</time>
      </trkpt>
      <trkpt lat="38.27021528966724872589111328125" lon="-0.54048229940235614776611328125">
        <ele>10.3999996185302734375</ele>
        <time>2019-10-25T08:34:42.000Z</time>
      </trkpt>
      <trkpt lat="38.270034827291965484619140625" lon="-0.54054818116128444671630859375">
        <ele>10.19999980926513671875</ele>
        <time>2019-10-25T08:34:46.000Z</time>
      </trkpt>
      <trkpt lat="38.26985889114439487457275390625" lon="-0.540607273578643798828125">
        <ele>10.3999996185302734375</ele>
        <time>2019-10-25T08:34:50.000Z</time>
      </trkpt>
      <trkpt lat="38.26965068466961383819580078125" lon="-0.54068027995526790618896484375">
        <ele>11.19999980926513671875</ele>
        <time>2019-10-25T08:34:55.000Z</time>
      </trkpt>
      <trkpt lat="38.26944666914641857147216796875" lon="-0.54074834100902080535888671875">
        <ele>11.19999980926513671875</ele>
        <time>2019-10-25T08:35:00.000Z</time>
      </trkpt>
      <trkpt lat="38.269261009991168975830078125" lon="-0.5408133007586002349853515625">
        <ele>11.19999980926513671875</ele>
        <time>2019-10-25T08:35:05.000Z</time>
      </trkpt>
      <trkpt lat="38.2690761052072048187255859375" lon="-0.54087859578430652618408203125">
        <ele>11.19999980926513671875</ele>
        <time>2019-10-25T08:35:10.000Z</time>
      </trkpt>
      <trkpt lat="38.26887100003659725189208984375" lon="-0.5409517697989940643310546875">
        <ele>12.6000003814697265625</ele>
        <time>2019-10-25T08:35:15.000Z</time>
      </trkpt>
      <trkpt lat="38.26868810690939426422119140625" lon="-0.54102075286209583282470703125">
        <ele>13.3999996185302734375</ele>
        <time>2019-10-25T08:35:19.000Z</time>
      </trkpt>
      <trkpt lat="38.26849431730806827545166015625" lon="-0.54109199903905391693115234375">
        <ele>13.80000019073486328125</ele>
        <time>2019-10-25T08:35:23.000Z</time>
      </trkpt>
      <trkpt lat="38.268301449716091156005859375" lon="-0.5411639995872974395751953125">
        <ele>13</ele>
        <time>2019-10-25T08:35:27.000Z</time>
      </trkpt>
      <trkpt lat="38.2680967636406421661376953125" lon="-0.5412421189248561859130859375">
        <ele>13.6000003814697265625</ele>
        <time>2019-10-25T08:35:31.000Z</time>
      </trkpt>
      <trkpt lat="38.26787841506302356719970703125" lon="-0.5413162149488925933837890625">
        <ele>14</ele>
        <time>2019-10-25T08:35:35.000Z</time>
      </trkpt>
      <trkpt lat="38.26767238788306713104248046875" lon="-0.5413913168013095855712890625">
        <ele>13.80000019073486328125</ele>
        <time>2019-10-25T08:35:39.000Z</time>
      </trkpt>
      <trkpt lat="38.267479352653026580810546875" lon="-0.541461221873760223388671875">
        <ele>13</ele>
        <time>2019-10-25T08:35:43.000Z</time>
      </trkpt>
      <trkpt lat="38.2673380337655544281005859375" lon="-0.54150522686541080474853515625">
        <ele>12.19999980926513671875</ele>
        <time>2019-10-25T08:35:46.000Z</time>
      </trkpt>
      <trkpt lat="38.26710887253284454345703125" lon="-0.54158720187842845916748046875">
        <ele>11.19999980926513671875</ele>
        <time>2019-10-25T08:35:50.000Z</time>
      </trkpt>
      <trkpt lat="38.26692304573953151702880859375" lon="-0.54165995679795742034912109375">
        <ele>10.19999980926513671875</ele>
        <time>2019-10-25T08:35:53.000Z</time>
      </trkpt>
      <trkpt lat="38.26673202216625213623046875" lon="-0.54172508418560028076171875">
        <ele>10.80000019073486328125</ele>
        <time>2019-10-25T08:35:56.000Z</time>
      </trkpt>
      <trkpt lat="38.2665310241281986236572265625" lon="-0.54179540835320949554443359375">
        <ele>11.80000019073486328125</ele>
        <time>2019-10-25T08:35:59.000Z</time>
      </trkpt>
      <trkpt lat="38.2663281820714473724365234375" lon="-0.541862212121486663818359375">
        <ele>12</ele>
        <time>2019-10-25T08:36:02.000Z</time>
      </trkpt>
      <trkpt lat="38.2661300338804721832275390625" lon="-0.54192314855754375457763671875">
        <ele>11.3999996185302734375</ele>
        <time>2019-10-25T08:36:05.000Z</time>
      </trkpt>
      <trkpt lat="38.265943117439746856689453125" lon="-0.541984923183917999267578125">
        <ele>10.80000019073486328125</ele>
        <time>2019-10-25T08:36:08.000Z</time>
      </trkpt>
      <trkpt lat="38.265768773853778839111328125" lon="-0.54204485379159450531005859375">
        <ele>10.3999996185302734375</ele>
        <time>2019-10-25T08:36:11.000Z</time>
      </trkpt>
      <trkpt lat="38.2655417919158935546875" lon="-0.54211802780628204345703125">
        <ele>10</ele>
        <time>2019-10-25T08:36:15.000Z</time>
      </trkpt>
      <trkpt lat="38.26532696373760700225830078125" lon="-0.5421946384012699127197265625">
        <ele>8.80000019073486328125</ele>
        <time>2019-10-25T08:36:19.000Z</time>
      </trkpt>
      <trkpt lat="38.2651231996715068817138671875" lon="-0.54226689040660858154296875">
        <ele>8.19999980926513671875</ele>
        <time>2019-10-25T08:36:23.000Z</time>
      </trkpt>
      <trkpt lat="38.26491675339639186859130859375" lon="-0.54234023205935955047607421875">
        <ele>8.3999996185302734375</ele>
        <time>2019-10-25T08:36:27.000Z</time>
      </trkpt>
      <trkpt lat="38.26470536179840564727783203125" lon="-0.54241240024566650390625">
        <ele>8.6000003814697265625</ele>
        <time>2019-10-25T08:36:31.000Z</time>
      </trkpt>
      <trkpt lat="38.26459740288555622100830078125" lon="-0.54244852624833583831787109375">
        <ele>8.80000019073486328125</ele>
        <time>2019-10-25T08:36:33.000Z</time>
      </trkpt>
      <trkpt lat="38.2643805630505084991455078125" lon="-0.54252815432846546173095703125">
        <ele>9</ele>
        <time>2019-10-25T08:36:37.000Z</time>
      </trkpt>
      <trkpt lat="38.2641552574932575225830078125" lon="-0.542608201503753662109375">
        <ele>9</ele>
        <time>2019-10-25T08:36:41.000Z</time>
      </trkpt>
      <trkpt lat="38.26392902992665767669677734375" lon="-0.54268556647002696990966796875">
        <ele>9.6000003814697265625</ele>
        <time>2019-10-25T08:36:45.000Z</time>
      </trkpt>
      <trkpt lat="38.26370389200747013092041015625" lon="-0.54276636801660060882568359375">
        <ele>11.19999980926513671875</ele>
        <time>2019-10-25T08:36:49.000Z</time>
      </trkpt>
      <trkpt lat="38.26347975991666316986083984375" lon="-0.542844571173191070556640625">
        <ele>12.6000003814697265625</ele>
        <time>2019-10-25T08:36:53.000Z</time>
      </trkpt>
      <trkpt lat="38.26325998641550540924072265625" lon="-0.542921014130115509033203125">
        <ele>11.3999996185302734375</ele>
        <time>2019-10-25T08:36:57.000Z</time>
      </trkpt>
      <trkpt lat="38.26304021291434764862060546875" lon="-0.542995445430278778076171875">
        <ele>9.6000003814697265625</ele>
        <time>2019-10-25T08:37:01.000Z</time>
      </trkpt>
      <trkpt lat="38.2628218643367290496826171875" lon="-0.54307549260556697845458984375">
        <ele>7.80000019073486328125</ele>
        <time>2019-10-25T08:37:05.000Z</time>
      </trkpt>
      <trkpt lat="38.262600414454936981201171875" lon="-0.5431558750569820404052734375">
        <ele>8</ele>
        <time>2019-10-25T08:37:09.000Z</time>
      </trkpt>
      <trkpt lat="38.26238592155277729034423828125" lon="-0.54323240183293819427490234375">
        <ele>9.3999996185302734375</ele>
        <time>2019-10-25T08:37:13.000Z</time>
      </trkpt>
      <trkpt lat="38.262174613773822784423828125" lon="-0.54330901242792606353759765625">
        <ele>10.80000019073486328125</ele>
        <time>2019-10-25T08:37:17.000Z</time>
      </trkpt>
      <trkpt lat="38.26196816749870777130126953125" lon="-0.5433835275471210479736328125">
        <ele>11.6000003814697265625</ele>
        <time>2019-10-25T08:37:21.000Z</time>
      </trkpt>
      <trkpt lat="38.26176599599421024322509765625" lon="-0.5434542708098888397216796875">
        <ele>12.80000019073486328125</ele>
        <time>2019-10-25T08:37:25.000Z</time>
      </trkpt>
      <trkpt lat="38.26156801544129848480224609375" lon="-0.54352375678718090057373046875">
        <ele>13.6000003814697265625</ele>
        <time>2019-10-25T08:37:29.000Z</time>
      </trkpt>
      <trkpt lat="38.26136626303195953369140625" lon="-0.54359483532607555389404296875">
        <ele>13.80000019073486328125</ele>
        <time>2019-10-25T08:37:33.000Z</time>
      </trkpt>
      <trkpt lat="38.26116836629807949066162109375" lon="-0.54366189055144786834716796875">
        <ele>13.6000003814697265625</ele>
        <time>2019-10-25T08:37:37.000Z</time>
      </trkpt>
      <trkpt lat="38.26098530553281307220458984375" lon="-0.543713606894016265869140625">
        <ele>12.80000019073486328125</ele>
        <time>2019-10-25T08:37:41.000Z</time>
      </trkpt>
      <trkpt lat="38.26079218648374080657958984375" lon="-0.54378409869968891143798828125">
        <ele>12</ele>
        <time>2019-10-25T08:37:45.000Z</time>
      </trkpt>
      <trkpt lat="38.2606043480336666107177734375" lon="-0.54386775009334087371826171875">
        <ele>11.3999996185302734375</ele>
        <time>2019-10-25T08:37:49.000Z</time>
      </trkpt>
      <trkpt lat="38.2604175992310047149658203125" lon="-0.54395056329667568206787109375">
        <ele>11</ele>
        <time>2019-10-25T08:37:53.000Z</time>
      </trkpt>
      <trkpt lat="38.2602278329432010650634765625" lon="-0.5440168641507625579833984375">
        <ele>10.80000019073486328125</ele>
        <time>2019-10-25T08:37:57.000Z</time>
      </trkpt>
      <trkpt lat="38.2600285112857818603515625" lon="-0.5440557561814785003662109375">
        <ele>11.19999980926513671875</ele>
        <time>2019-10-25T08:38:01.000Z</time>
      </trkpt>
      <trkpt lat="38.25983882881700992584228515625" lon="-0.54410546086728572845458984375">
        <ele>12.3999996185302734375</ele>
        <time>2019-10-25T08:38:05.000Z</time>
      </trkpt>
      <trkpt lat="38.25966247357428073883056640625" lon="-0.54417888633906841278076171875">
        <ele>14</ele>
        <time>2019-10-25T08:38:09.000Z</time>
      </trkpt>
      <trkpt lat="38.2596196420490741729736328125" lon="-0.544204451143741607666015625">
        <ele>14.19999980926513671875</ele>
        <time>2019-10-25T08:38:10.000Z</time>
      </trkpt>
      <trkpt lat="38.2594902254641056060791015625" lon="-0.5443823151290416717529296875">
        <ele>14.80000019073486328125</ele>
        <time>2019-10-25T08:38:14.000Z</time>
      </trkpt>
      <trkpt lat="38.2594563625752925872802734375" lon="-0.5444285832345485687255859375">
        <ele>14.80000019073486328125</ele>
        <time>2019-10-25T08:38:15.000Z</time>
      </trkpt>
      <trkpt lat="38.2593678496778011322021484375" lon="-0.54458021186292171478271484375">
        <ele>15</ele>
        <time>2019-10-25T08:38:18.000Z</time>
      </trkpt>
      <trkpt lat="38.25930364429950714111328125" lon="-0.54483720101416110992431640625">
        <ele>14.80000019073486328125</ele>
        <time>2019-10-25T08:38:22.000Z</time>
      </trkpt>
      <trkpt lat="38.2593041472136974334716796875" lon="-0.54501271806657314300537109375">
        <ele>14.80000019073486328125</ele>
        <time>2019-10-25T08:38:25.000Z</time>
      </trkpt>
      <trkpt lat="38.2593943364918231964111328125" lon="-0.5452429689466953277587890625">
        <ele>14.19999980926513671875</ele>
        <time>2019-10-25T08:38:29.000Z</time>
      </trkpt>
      <trkpt lat="38.2593899779021739959716796875" lon="-0.54548746906220912933349609375">
        <ele>14</ele>
        <time>2019-10-25T08:38:33.000Z</time>
      </trkpt>
      <trkpt lat="38.25924354605376720428466796875" lon="-0.54562040604650974273681640625">
        <ele>14.6000003814697265625</ele>
        <time>2019-10-25T08:38:37.000Z</time>
      </trkpt>
      <trkpt lat="38.25919828377664089202880859375" lon="-0.54562845267355442047119140625">
        <ele>14.80000019073486328125</ele>
        <time>2019-10-25T08:38:38.000Z</time>
      </trkpt>
      <trkpt lat="38.2591120339930057525634765625" lon="-0.54565980099141597747802734375">
        <ele>15.19999980926513671875</ele>
        <time>2019-10-25T08:38:40.000Z</time>
      </trkpt>
      <trkpt lat="38.25896945782005786895751953125" lon="-0.545847974717617034912109375">
        <ele>16.3999996185302734375</ele>
        <time>2019-10-25T08:38:44.000Z</time>
      </trkpt>
      <trkpt lat="38.2588283903896808624267578125" lon="-0.54603028111159801483154296875">
        <ele>17</ele>
        <time>2019-10-25T08:38:48.000Z</time>
      </trkpt>
      <trkpt lat="38.25868430547416210174560546875" lon="-0.54621518589556217193603515625">
        <ele>17</ele>
        <time>2019-10-25T08:38:52.000Z</time>
      </trkpt>
      <trkpt lat="38.25854633934795856475830078125" lon="-0.54639304988086223602294921875">
        <ele>17</ele>
        <time>2019-10-25T08:38:56.000Z</time>
      </trkpt>
      <trkpt lat="38.25841985642910003662109375" lon="-0.54656119085848331451416015625">
        <ele>17</ele>
        <time>2019-10-25T08:39:00.000Z</time>
      </trkpt>
      <trkpt lat="38.2582694850862026214599609375" lon="-0.54675498045980930328369140625">
        <ele>17.200000762939453125</ele>
        <time>2019-10-25T08:39:05.000Z</time>
      </trkpt>
      <trkpt lat="38.25812674127519130706787109375" lon="-0.546947009861469268798828125">
        <ele>17.3999996185302734375</ele>
        <time>2019-10-25T08:39:10.000Z</time>
      </trkpt>
      <trkpt lat="38.257997743785381317138671875" lon="-0.5471121333539485931396484375">
        <ele>17</ele>
        <time>2019-10-25T08:39:14.000Z</time>
      </trkpt>
      <trkpt lat="38.257852233946323394775390625" lon="-0.54729276336729526519775390625">
        <ele>17</ele>
        <time>2019-10-25T08:39:18.000Z</time>
      </trkpt>
      <trkpt lat="38.2577474601566791534423828125" lon="-0.54742452688515186309814453125">
        <ele>17.3999996185302734375</ele>
        <time>2019-10-25T08:39:21.000Z</time>
      </trkpt>
      <trkpt lat="38.25761393643915653228759765625" lon="-0.5475992895662784576416015625">
        <ele>18.200000762939453125</ele>
        <time>2019-10-25T08:39:25.000Z</time>
      </trkpt>
      <trkpt lat="38.2574805803596973419189453125" lon="-0.547769106924533843994140625">
        <ele>18.799999237060546875</ele>
        <time>2019-10-25T08:39:29.000Z</time>
      </trkpt>
      <trkpt lat="38.2574467174708843231201171875" lon="-0.547810010612010955810546875">
        <ele>19</ele>
        <time>2019-10-25T08:39:30.000Z</time>
      </trkpt>
      <trkpt lat="38.25730933807790279388427734375" lon="-0.547981671988964080810546875">
        <ele>19</ele>
        <time>2019-10-25T08:39:34.000Z</time>
      </trkpt>
      <trkpt lat="38.257168270647525787353515625" lon="-0.5481457896530628204345703125">
        <ele>19.200000762939453125</ele>
        <time>2019-10-25T08:39:38.000Z</time>
      </trkpt>
      <trkpt lat="38.25703022070229053497314453125" lon="-0.54831317625939846038818359375">
        <ele>19.3999996185302734375</ele>
        <time>2019-10-25T08:39:42.000Z</time>
      </trkpt>
      <trkpt lat="38.2568925060331821441650390625" lon="-0.54847528226673603057861328125">
        <ele>20</ele>
        <time>2019-10-25T08:39:46.000Z</time>
      </trkpt>
      <trkpt lat="38.2567614130675792694091796875" lon="-0.54864459671080112457275390625">
        <ele>21</ele>
        <time>2019-10-25T08:39:50.000Z</time>
      </trkpt>
      <trkpt lat="38.25663275085389614105224609375" lon="-0.5488049425184726715087890625">
        <ele>21</ele>
        <time>2019-10-25T08:39:54.000Z</time>
      </trkpt>
      <trkpt lat="38.25651339255273342132568359375" lon="-0.54898087866604328155517578125">
        <ele>20.3999996185302734375</ele>
        <time>2019-10-25T08:39:58.000Z</time>
      </trkpt>
      <trkpt lat="38.25640979222953319549560546875" lon="-0.5491724051535129547119140625">
        <ele>19.3999996185302734375</ele>
        <time>2019-10-25T08:40:02.000Z</time>
      </trkpt>
      <trkpt lat="38.256307281553745269775390625" lon="-0.54936401546001434326171875">
        <ele>18.3999996185302734375</ele>
        <time>2019-10-25T08:40:06.000Z</time>
      </trkpt>
      <trkpt lat="38.256188593804836273193359375" lon="-0.549601726233959197998046875">
        <ele>18</ele>
        <time>2019-10-25T08:40:11.000Z</time>
      </trkpt>
      <trkpt lat="38.25609111227095127105712890625" lon="-0.549800880253314971923828125">
        <ele>18.3999996185302734375</ele>
        <time>2019-10-25T08:40:15.000Z</time>
      </trkpt>
      <trkpt lat="38.255988769233226776123046875" lon="-0.55000632070004940032958984375">
        <ele>19.3999996185302734375</ele>
        <time>2019-10-25T08:40:19.000Z</time>
      </trkpt>
      <trkpt lat="38.25588173232972621917724609375" lon="-0.55021586827933788299560546875">
        <ele>20.799999237060546875</ele>
        <time>2019-10-25T08:40:23.000Z</time>
      </trkpt>
      <trkpt lat="38.25576187111437320709228515625" lon="-0.5504528246819972991943359375">
        <ele>21.3999996185302734375</ele>
        <time>2019-10-25T08:40:28.000Z</time>
      </trkpt>
      <trkpt lat="38.2556694187223911285400390625" lon="-0.55065021850168704986572265625">
        <ele>21.6000003814697265625</ele>
        <time>2019-10-25T08:40:32.000Z</time>
      </trkpt>
      <trkpt lat="38.25558283366262912750244140625" lon="-0.5508551560342311859130859375">
        <ele>22.6000003814697265625</ele>
        <time>2019-10-25T08:40:36.000Z</time>
      </trkpt>
      <trkpt lat="38.255498595535755157470703125" lon="-0.55106897838413715362548828125">
        <ele>23.799999237060546875</ele>
        <time>2019-10-25T08:40:40.000Z</time>
      </trkpt>
      <trkpt lat="38.25541938655078411102294921875" lon="-0.5513007380068302154541015625">
        <ele>23.3999996185302734375</ele>
        <time>2019-10-25T08:40:44.000Z</time>
      </trkpt>
      <trkpt lat="38.25533171184360980987548828125" lon="-0.55154104717075824737548828125">
        <ele>22.6000003814697265625</ele>
        <time>2019-10-25T08:40:48.000Z</time>
      </trkpt>
      <trkpt lat="38.25524101965129375457763671875" lon="-0.55178429000079631805419921875">
        <ele>22.200000762939453125</ele>
        <time>2019-10-25T08:40:52.000Z</time>
      </trkpt>
      <trkpt lat="38.255151920020580291748046875" lon="-0.55202803574502468109130859375">
        <ele>21.6000003814697265625</ele>
        <time>2019-10-25T08:40:56.000Z</time>
      </trkpt>
      <trkpt lat="38.25506332330405712127685546875" lon="-0.55226490832865238189697265625">
        <ele>20.3999996185302734375</ele>
        <time>2019-10-25T08:41:00.000Z</time>
      </trkpt>
      <trkpt lat="38.25496693141758441925048828125" lon="-0.55252759717404842376708984375">
        <ele>20.200000762939453125</ele>
        <time>2019-10-25T08:41:04.000Z</time>
      </trkpt>
      <trkpt lat="38.25487104244530200958251953125" lon="-0.55278106592595577239990234375">
        <ele>20.3999996185302734375</ele>
        <time>2019-10-25T08:41:08.000Z</time>
      </trkpt>
      <trkpt lat="38.2547852955758571624755859375" lon="-0.55302296765148639678955078125">
        <ele>21.3999996185302734375</ele>
        <time>2019-10-25T08:41:12.000Z</time>
      </trkpt>
      <trkpt lat="38.25468680821359157562255859375" lon="-0.55326126515865325927734375">
        <ele>21.799999237060546875</ele>
        <time>2019-10-25T08:41:16.000Z</time>
      </trkpt>
      <trkpt lat="38.2545713894069194793701171875" lon="-0.55348615162074565887451171875">
        <ele>21.200000762939453125</ele>
        <time>2019-10-25T08:41:20.000Z</time>
      </trkpt>
      <trkpt lat="38.2544349320232868194580078125" lon="-0.55369720794260501861572265625">
        <ele>20</ele>
        <time>2019-10-25T08:41:24.000Z</time>
      </trkpt>
      <trkpt lat="38.25428447686135768890380859375" lon="-0.5539038218557834625244140625">
        <ele>19.3999996185302734375</ele>
        <time>2019-10-25T08:41:28.000Z</time>
      </trkpt>
      <trkpt lat="38.25413745827972888946533203125" lon="-0.554117225110530853271484375">
        <ele>19</ele>
        <time>2019-10-25T08:41:32.000Z</time>
      </trkpt>
      <trkpt lat="38.25399111025035381317138671875" lon="-0.55433607660233974456787109375">
        <ele>19.200000762939453125</ele>
        <time>2019-10-25T08:41:36.000Z</time>
      </trkpt>
      <trkpt lat="38.25384861789643764495849609375" lon="-0.55456540547311305999755859375">
        <ele>19.3999996185302734375</ele>
        <time>2019-10-25T08:41:40.000Z</time>
      </trkpt>
      <trkpt lat="38.25370729900896549224853515625" lon="-0.5547909624874591827392578125">
        <ele>18.799999237060546875</ele>
        <time>2019-10-25T08:41:44.000Z</time>
      </trkpt>
      <trkpt lat="38.25356530956923961639404296875" lon="-0.55502288974821567535400390625">
        <ele>17.200000762939453125</ele>
        <time>2019-10-25T08:41:48.000Z</time>
      </trkpt>
      <trkpt lat="38.253426589071750640869140625" lon="-0.55524936877191066741943359375">
        <ele>17.799999237060546875</ele>
        <time>2019-10-25T08:41:52.000Z</time>
      </trkpt>
      <trkpt lat="38.2532973401248455047607421875" lon="-0.55546193383634090423583984375">
        <ele>19.200000762939453125</ele>
        <time>2019-10-25T08:41:56.000Z</time>
      </trkpt>
      <trkpt lat="38.253175802528858184814453125" lon="-0.5556665360927581787109375">
        <ele>20.3999996185302734375</ele>
        <time>2019-10-25T08:42:00.000Z</time>
      </trkpt>
      <trkpt lat="38.25304881669580936431884765625" lon="-0.5558745749294757843017578125">
        <ele>21.200000762939453125</ele>
        <time>2019-10-25T08:42:04.000Z</time>
      </trkpt>
      <trkpt lat="38.25292912311851978302001953125" lon="-0.5560794286429882049560546875">
        <ele>20.799999237060546875</ele>
        <time>2019-10-25T08:42:08.000Z</time>
      </trkpt>
      <trkpt lat="38.2528088428080081939697265625" lon="-0.5562872998416423797607421875">
        <ele>19.799999237060546875</ele>
        <time>2019-10-25T08:42:12.000Z</time>
      </trkpt>
      <trkpt lat="38.25268185697495937347412109375" lon="-0.55649374611675739288330078125">
        <ele>19</ele>
        <time>2019-10-25T08:42:16.000Z</time>
      </trkpt>
      <trkpt lat="38.25255646370351314544677734375" lon="-0.556697510182857513427734375">
        <ele>18.6000003814697265625</ele>
        <time>2019-10-25T08:42:20.000Z</time>
      </trkpt>
      <trkpt lat="38.25242721475660800933837890625" lon="-0.5569132603704929351806640625">
        <ele>19.6000003814697265625</ele>
        <time>2019-10-25T08:42:24.000Z</time>
      </trkpt>
      <trkpt lat="38.25229930691421031951904296875" lon="-0.55712775327265262603759765625">
        <ele>21</ele>
        <time>2019-10-25T08:42:28.000Z</time>
      </trkpt>
      <trkpt lat="38.25217005796730518341064453125" lon="-0.5573487840592861175537109375">
        <ele>21.6000003814697265625</ele>
        <time>2019-10-25T08:42:32.000Z</time>
      </trkpt>
      <trkpt lat="38.25203779153525829315185546875" lon="-0.5575643666088581085205078125">
        <ele>20</ele>
        <time>2019-10-25T08:42:36.000Z</time>
      </trkpt>
      <trkpt lat="38.251907117664813995361328125" lon="-0.557775087654590606689453125">
        <ele>18.200000762939453125</ele>
        <time>2019-10-25T08:42:40.000Z</time>
      </trkpt>
      <trkpt lat="38.251779712736606597900390625" lon="-0.55798337794840335845947265625">
        <ele>18.3999996185302734375</ele>
        <time>2019-10-25T08:42:44.000Z</time>
      </trkpt>
      <trkpt lat="38.2516568340361118316650390625" lon="-0.55819376371800899505615234375">
        <ele>18.6000003814697265625</ele>
        <time>2019-10-25T08:42:48.000Z</time>
      </trkpt>
      <trkpt lat="38.2515297643840312957763671875" lon="-0.55839660577476024627685546875">
        <ele>19</ele>
        <time>2019-10-25T08:42:52.000Z</time>
      </trkpt>
      <trkpt lat="38.25139649212360382080078125" lon="-0.55859207175672054290771484375">
        <ele>19</ele>
        <time>2019-10-25T08:42:56.000Z</time>
      </trkpt>
      <trkpt lat="38.25125341303646564483642578125" lon="-0.5587924830615520477294921875">
        <ele>19.3999996185302734375</ele>
        <time>2019-10-25T08:43:00.000Z</time>
      </trkpt>
      <trkpt lat="38.2511113397777080535888671875" lon="-0.558977387845516204833984375">
        <ele>19.6000003814697265625</ele>
        <time>2019-10-25T08:43:04.000Z</time>
      </trkpt>
      <trkpt lat="38.25096742250025272369384765625" lon="-0.55916480720043182373046875">
        <ele>20</ele>
        <time>2019-10-25T08:43:08.000Z</time>
      </trkpt>
      <trkpt lat="38.2508303783833980560302734375" lon="-0.5593356303870677947998046875">
        <ele>20.6000003814697265625</ele>
        <time>2019-10-25T08:43:12.000Z</time>
      </trkpt>
      <trkpt lat="38.25069718994200229644775390625" lon="-0.5595022626221179962158203125">
        <ele>21.200000762939453125</ele>
        <time>2019-10-25T08:43:16.000Z</time>
      </trkpt>
      <trkpt lat="38.250567018985748291015625" lon="-0.55966529063880443572998046875">
        <ele>21.799999237060546875</ele>
        <time>2019-10-25T08:43:20.000Z</time>
      </trkpt>
      <trkpt lat="38.25040943920612335205078125" lon="-0.55985941551625728607177734375">
        <ele>22.200000762939453125</ele>
        <time>2019-10-25T08:43:25.000Z</time>
      </trkpt>
      <trkpt lat="38.25026971288025379180908203125" lon="-0.560014732182025909423828125">
        <ele>22.799999237060546875</ele>
        <time>2019-10-25T08:43:29.000Z</time>
      </trkpt>
      <trkpt lat="38.2501175813376903533935546875" lon="-0.56014406494796276092529296875">
        <ele>22.799999237060546875</ele>
        <time>2019-10-25T08:43:33.000Z</time>
      </trkpt>
      <trkpt lat="38.24995706789195537567138671875" lon="-0.560266189277172088623046875">
        <ele>23</ele>
        <time>2019-10-25T08:43:37.000Z</time>
      </trkpt>
      <trkpt lat="38.2497920282185077667236328125" lon="-0.56038043461740016937255859375">
        <ele>22.799999237060546875</ele>
        <time>2019-10-25T08:43:41.000Z</time>
      </trkpt>
      <trkpt lat="38.24962665326893329620361328125" lon="-0.56048889644443988800048828125">
        <ele>22.6000003814697265625</ele>
        <time>2019-10-25T08:43:45.000Z</time>
      </trkpt>
      <trkpt lat="38.24944811873137950897216796875" lon="-0.5606049858033657073974609375">
        <ele>22.6000003814697265625</ele>
        <time>2019-10-25T08:43:49.000Z</time>
      </trkpt>
      <trkpt lat="38.2492460310459136962890625" lon="-0.560734570026397705078125">
        <ele>23.3999996185302734375</ele>
        <time>2019-10-25T08:43:53.000Z</time>
      </trkpt>
      <trkpt lat="38.2490359805524349212646484375" lon="-0.56086759082973003387451171875">
        <ele>23.799999237060546875</ele>
        <time>2019-10-25T08:43:57.000Z</time>
      </trkpt>
      <trkpt lat="38.248822577297687530517578125" lon="-0.56101041845977306365966796875">
        <ele>22.3999996185302734375</ele>
        <time>2019-10-25T08:44:01.000Z</time>
      </trkpt>
      <trkpt lat="38.24865686707198619842529296875" lon="-0.5611382424831390380859375">
        <ele>20.799999237060546875</ele>
        <time>2019-10-25T08:44:04.000Z</time>
      </trkpt>
      <trkpt lat="38.24850372970104217529296875" lon="-0.56128635071218013763427734375">
        <ele>19.799999237060546875</ele>
        <time>2019-10-25T08:44:07.000Z</time>
      </trkpt>
      <trkpt lat="38.2483674399554729461669921875" lon="-0.56144610978662967681884765625">
        <ele>18.799999237060546875</ele>
        <time>2019-10-25T08:44:10.000Z</time>
      </trkpt>
      <trkpt lat="38.248237185180187225341796875" lon="-0.5616094730794429779052734375">
        <ele>18.6000003814697265625</ele>
        <time>2019-10-25T08:44:13.000Z</time>
      </trkpt>
      <trkpt lat="38.24811070226132869720458984375" lon="-0.56177669204771518707275390625">
        <ele>19.200000762939453125</ele>
        <time>2019-10-25T08:44:16.000Z</time>
      </trkpt>
      <trkpt lat="38.2479513622820377349853515625" lon="-0.56198406033217906951904296875">
        <ele>20</ele>
        <time>2019-10-25T08:44:20.000Z</time>
      </trkpt>
      <trkpt lat="38.24780006892979145050048828125" lon="-0.5621891655027866363525390625">
        <ele>20</ele>
        <time>2019-10-25T08:44:24.000Z</time>
      </trkpt>
      <trkpt lat="38.247639723122119903564453125" lon="-0.5623846314847469329833984375">
        <ele>20.6000003814697265625</ele>
        <time>2019-10-25T08:44:28.000Z</time>
      </trkpt>
      <trkpt lat="38.24746613390743732452392578125" lon="-0.56255034171044826507568359375">
        <ele>21</ele>
        <time>2019-10-25T08:44:32.000Z</time>
      </trkpt>
      <trkpt lat="38.24728944338858127593994140625" lon="-0.56272032670676708221435546875">
        <ele>20.3999996185302734375</ele>
        <time>2019-10-25T08:44:36.000Z</time>
      </trkpt>
      <trkpt lat="38.247144855558872222900390625" lon="-0.5628278665244579315185546875">
        <ele>20</ele>
        <time>2019-10-25T08:44:39.000Z</time>
      </trkpt>
      <trkpt lat="38.24703983031213283538818359375" lon="-0.56287958286702632904052734375">
        <ele>20.3999996185302734375</ele>
        <time>2019-10-25T08:44:41.000Z</time>
      </trkpt>
      <trkpt lat="38.2468164525926113128662109375" lon="-0.5629411898553371429443359375">
        <ele>20.3999996185302734375</ele>
        <time>2019-10-25T08:44:45.000Z</time>
      </trkpt>
      <trkpt lat="38.24659994803369045257568359375" lon="-0.56299961172044277191162109375">
        <ele>20</ele>
        <time>2019-10-25T08:44:49.000Z</time>
      </trkpt>
      <trkpt lat="38.24649651534855365753173828125" lon="-0.5630246736109256744384765625">
        <ele>19.6000003814697265625</ele>
        <time>2019-10-25T08:44:51.000Z</time>
      </trkpt>
      <trkpt lat="38.24629099108278751373291015625" lon="-0.56308351457118988037109375">
        <ele>19</ele>
        <time>2019-10-25T08:44:55.000Z</time>
      </trkpt>
      <trkpt lat="38.24608010239899158477783203125" lon="-0.5631423555314540863037109375">
        <ele>19.200000762939453125</ele>
        <time>2019-10-25T08:44:59.000Z</time>
      </trkpt>
      <trkpt lat="38.2458629272878170013427734375" lon="-0.5631648190319538116455078125">
        <ele>20</ele>
        <time>2019-10-25T08:45:03.000Z</time>
      </trkpt>
      <trkpt lat="38.24576410464942455291748046875" lon="-0.56316272355616092681884765625">
        <ele>20.3999996185302734375</ele>
        <time>2019-10-25T08:45:05.000Z</time>
      </trkpt>
      <trkpt lat="38.24555673636496067047119140625" lon="-0.56308980099856853485107421875">
        <ele>19.3999996185302734375</ele>
        <time>2019-10-25T08:45:09.000Z</time>
      </trkpt>
      <trkpt lat="38.24533595703542232513427734375" lon="-0.56299324147403240203857421875">
        <ele>17.6000003814697265625</ele>
        <time>2019-10-25T08:45:13.000Z</time>
      </trkpt>
      <trkpt lat="38.24515457265079021453857421875" lon="-0.5629012919962406158447265625">
        <ele>17.200000762939453125</ele>
        <time>2019-10-25T08:45:16.000Z</time>
      </trkpt>
      <trkpt lat="38.24508869089186191558837890625" lon="-0.56287790648639202117919921875">
        <ele>17.200000762939453125</ele>
        <time>2019-10-25T08:45:17.000Z</time>
      </trkpt>
      <trkpt lat="38.24487796984612941741943359375" lon="-0.56286315433681011199951171875">
        <ele>17.200000762939453125</ele>
        <time>2019-10-25T08:45:20.000Z</time>
      </trkpt>
      <trkpt lat="38.24465341866016387939453125" lon="-0.56287623010575771331787109375">
        <ele>18</ele>
        <time>2019-10-25T08:45:23.000Z</time>
      </trkpt>
      <trkpt lat="38.24443875811994075775146484375" lon="-0.562892742455005645751953125">
        <ele>16.799999237060546875</ele>
        <time>2019-10-25T08:45:26.000Z</time>
      </trkpt>
      <trkpt lat="38.24422485195100307464599609375" lon="-0.56290506385266780853271484375">
        <ele>14.6000003814697265625</ele>
        <time>2019-10-25T08:45:29.000Z</time>
      </trkpt>
      <trkpt lat="38.24401530437171459197998046875" lon="-0.56292383931577205657958984375">
        <ele>13</ele>
        <time>2019-10-25T08:45:32.000Z</time>
      </trkpt>
      <trkpt lat="38.24381279759109020233154296875" lon="-0.5629257671535015106201171875">
        <ele>13</ele>
        <time>2019-10-25T08:45:35.000Z</time>
      </trkpt>
      <trkpt lat="38.24362236075103282928466796875" lon="-0.56290917098522186279296875">
        <ele>12.80000019073486328125</ele>
        <time>2019-10-25T08:45:38.000Z</time>
      </trkpt>
      <trkpt lat="38.24343645013868808746337890625" lon="-0.56287773884832859039306640625">
        <ele>12.19999980926513671875</ele>
        <time>2019-10-25T08:45:41.000Z</time>
      </trkpt>
      <trkpt lat="38.2432028464972972869873046875" lon="-0.562829039990901947021484375">
        <ele>12</ele>
        <time>2019-10-25T08:45:45.000Z</time>
      </trkpt>
      <trkpt lat="38.2430043630301952362060546875" lon="-0.56273977272212505340576171875">
        <ele>11</ele>
        <time>2019-10-25T08:45:49.000Z</time>
      </trkpt>
      <trkpt lat="38.242814429104328155517578125" lon="-0.56263885460793972015380859375">
        <ele>11</ele>
        <time>2019-10-25T08:45:53.000Z</time>
      </trkpt>
      <trkpt lat="38.2426171191036701202392578125" lon="-0.56256995536386966705322265625">
        <ele>11</ele>
        <time>2019-10-25T08:45:57.000Z</time>
      </trkpt>
      <trkpt lat="38.2424159534275531768798828125" lon="-0.56250373832881450653076171875">
        <ele>11</ele>
        <time>2019-10-25T08:46:01.000Z</time>
      </trkpt>
      <trkpt lat="38.2422137819230556488037109375" lon="-0.5624406225979328155517578125">
        <ele>11.3999996185302734375</ele>
        <time>2019-10-25T08:46:05.000Z</time>
      </trkpt>
      <trkpt lat="38.242002390325069427490234375" lon="-0.56237683631479740142822265625">
        <ele>12.6000003814697265625</ele>
        <time>2019-10-25T08:46:09.000Z</time>
      </trkpt>
      <trkpt lat="38.24178890325129032135009765625" lon="-0.56231514550745487213134765625">
        <ele>13.3999996185302734375</ele>
        <time>2019-10-25T08:46:13.000Z</time>
      </trkpt>
      <trkpt lat="38.241584636270999908447265625" lon="-0.5622532032430171966552734375">
        <ele>14</ele>
        <time>2019-10-25T08:46:17.000Z</time>
      </trkpt>
      <trkpt lat="38.24137617833912372589111328125" lon="-0.56219779886305332183837890625">
        <ele>13.80000019073486328125</ele>
        <time>2019-10-25T08:46:21.000Z</time>
      </trkpt>
      <trkpt lat="38.24117233045399188995361328125" lon="-0.5621546320617198944091796875">
        <ele>13.19999980926513671875</ele>
        <time>2019-10-25T08:46:25.000Z</time>
      </trkpt>
      <trkpt lat="38.2409719191491603851318359375" lon="-0.56212722323834896087646484375">
        <ele>12.6000003814697265625</ele>
        <time>2019-10-25T08:46:29.000Z</time>
      </trkpt>
      <trkpt lat="38.24077628552913665771484375" lon="-0.5621221102774143218994140625">
        <ele>11.19999980926513671875</ele>
        <time>2019-10-25T08:46:33.000Z</time>
      </trkpt>
      <trkpt lat="38.24072272516787052154541015625" lon="-0.56212487630546092987060546875">
        <ele>10.80000019073486328125</ele>
        <time>2019-10-25T08:46:34.000Z</time>
      </trkpt>
      <trkpt lat="38.24061937630176544189453125" lon="-0.5621445737779140472412109375">
        <ele>10</ele>
        <time>2019-10-25T08:46:36.000Z</time>
      </trkpt>
      <trkpt lat="38.24041494168341159820556640625" lon="-0.5622082762420177459716796875">
        <ele>8.80000019073486328125</ele>
        <time>2019-10-25T08:46:40.000Z</time>
      </trkpt>
      <trkpt lat="38.24021142907440662384033203125" lon="-0.5623055063188076019287109375">
        <ele>7.80000019073486328125</ele>
        <time>2019-10-25T08:46:44.000Z</time>
      </trkpt>
      <trkpt lat="38.24001847766339778900146484375" lon="-0.56244523264467716217041015625">
        <ele>8.6000003814697265625</ele>
        <time>2019-10-25T08:46:48.000Z</time>
      </trkpt>
      <trkpt lat="38.23983457870781421661376953125" lon="-0.562604404985904693603515625">
        <ele>9.6000003814697265625</ele>
        <time>2019-10-25T08:46:52.000Z</time>
      </trkpt>
      <trkpt lat="38.2396660186350345611572265625" lon="-0.56277933530509471893310546875">
        <ele>10.80000019073486328125</ele>
        <time>2019-10-25T08:46:56.000Z</time>
      </trkpt>
      <trkpt lat="38.23950491845607757568359375" lon="-0.56298335082828998565673828125">
        <ele>10.3999996185302734375</ele>
        <time>2019-10-25T08:47:00.000Z</time>
      </trkpt>
      <trkpt lat="38.23936569504439830780029296875" lon="-0.56321234442293643951416015625">
        <ele>10</ele>
        <time>2019-10-25T08:47:04.000Z</time>
      </trkpt>
      <trkpt lat="38.23924147523939609527587890625" lon="-0.56345676071941852569580078125">
        <ele>9.6000003814697265625</ele>
        <time>2019-10-25T08:47:08.000Z</time>
      </trkpt>
      <trkpt lat="38.23913670144975185394287109375" lon="-0.56371190585196018218994140625">
        <ele>9.19999980926513671875</ele>
        <time>2019-10-25T08:47:12.000Z</time>
      </trkpt>
      <trkpt lat="38.23904282413423061370849609375" lon="-0.5639674700796604156494140625">
        <ele>8.80000019073486328125</ele>
        <time>2019-10-25T08:47:16.000Z</time>
      </trkpt>
      <trkpt lat="38.23894995264708995819091796875" lon="-0.5642199330031871795654296875">
        <ele>8.80000019073486328125</ele>
        <time>2019-10-25T08:47:20.000Z</time>
      </trkpt>
      <trkpt lat="38.23886361904442310333251953125" lon="-0.564468540251255035400390625">
        <ele>10</ele>
        <time>2019-10-25T08:47:24.000Z</time>
      </trkpt>
      <trkpt lat="38.2387688197195529937744140625" lon="-0.5647144652903079986572265625">
        <ele>11</ele>
        <time>2019-10-25T08:47:28.000Z</time>
      </trkpt>
      <trkpt lat="38.2386746071279048919677734375" lon="-0.564949996769428253173828125">
        <ele>11</ele>
        <time>2019-10-25T08:47:32.000Z</time>
      </trkpt>
      <trkpt lat="38.23857419192790985107421875" lon="-0.56518276222050189971923828125">
        <ele>11</ele>
        <time>2019-10-25T08:47:36.000Z</time>
      </trkpt>
      <trkpt lat="38.2384583540260791778564453125" lon="-0.56542080827057361602783203125">
        <ele>10.3999996185302734375</ele>
        <time>2019-10-25T08:47:40.000Z</time>
      </trkpt>
      <trkpt lat="38.2383309490978717803955078125" lon="-0.565644018352031707763671875">
        <ele>9.6000003814697265625</ele>
        <time>2019-10-25T08:47:44.000Z</time>
      </trkpt>
      <trkpt lat="38.23819935321807861328125" lon="-0.56586228311061859130859375">
        <ele>9.19999980926513671875</ele>
        <time>2019-10-25T08:47:48.000Z</time>
      </trkpt>
      <trkpt lat="38.2380563579499721527099609375" lon="-0.56606118567287921905517578125">
        <ele>10.3999996185302734375</ele>
        <time>2019-10-25T08:47:52.000Z</time>
      </trkpt>
      <trkpt lat="38.23792467825114727020263671875" lon="-0.56625463999807834625244140625">
        <ele>11.19999980926513671875</ele>
        <time>2019-10-25T08:47:56.000Z</time>
      </trkpt>
      <trkpt lat="38.23789014481008052825927734375" lon="-0.5663014948368072509765625">
        <ele>11.3999996185302734375</ele>
        <time>2019-10-25T08:47:57.000Z</time>
      </trkpt>
      <trkpt lat="38.2377541065216064453125" lon="-0.5664991401135921478271484375">
        <ele>12.3999996185302734375</ele>
        <time>2019-10-25T08:48:01.000Z</time>
      </trkpt>
      <trkpt lat="38.23761639185249805450439453125" lon="-0.56669536046683788299560546875">
        <ele>13.3999996185302734375</ele>
        <time>2019-10-25T08:48:05.000Z</time>
      </trkpt>
      <trkpt lat="38.23748295195400714874267578125" lon="-0.56688864715397357940673828125">
        <ele>13.80000019073486328125</ele>
        <time>2019-10-25T08:48:09.000Z</time>
      </trkpt>
      <trkpt lat="38.2373452372848987579345703125" lon="-0.56708662770688533782958984375">
        <ele>13.6000003814697265625</ele>
        <time>2019-10-25T08:48:13.000Z</time>
      </trkpt>
      <trkpt lat="38.2372047565877437591552734375" lon="-0.56728377006947994232177734375">
        <ele>13.19999980926513671875</ele>
        <time>2019-10-25T08:48:17.000Z</time>
      </trkpt>
      <trkpt lat="38.23705899529159069061279296875" lon="-0.56747621856629848480224609375">
        <ele>14.19999980926513671875</ele>
        <time>2019-10-25T08:48:21.000Z</time>
      </trkpt>
      <trkpt lat="38.23690543882548809051513671875" lon="-0.56765961460769176483154296875">
        <ele>14.80000019073486328125</ele>
        <time>2019-10-25T08:48:25.000Z</time>
      </trkpt>
      <trkpt lat="38.23674534447491168975830078125" lon="-0.56783194653689861297607421875">
        <ele>14.6000003814697265625</ele>
        <time>2019-10-25T08:48:29.000Z</time>
      </trkpt>
      <trkpt lat="38.23657887987792491912841796875" lon="-0.5679998360574245452880859375">
        <ele>14.80000019073486328125</ele>
        <time>2019-10-25T08:48:33.000Z</time>
      </trkpt>
      <trkpt lat="38.23640855960547924041748046875" lon="-0.5681694857776165008544921875">
        <ele>15.6000003814697265625</ele>
        <time>2019-10-25T08:48:37.000Z</time>
      </trkpt>
      <trkpt lat="38.2362378202378749847412109375" lon="-0.56834072805941104888916015625">
        <ele>16.6000003814697265625</ele>
        <time>2019-10-25T08:48:41.000Z</time>
      </trkpt>
      <trkpt lat="38.23608107864856719970703125" lon="-0.56851507164537906646728515625">
        <ele>15.6000003814697265625</ele>
        <time>2019-10-25T08:48:45.000Z</time>
      </trkpt>
      <trkpt lat="38.23592056520283222198486328125" lon="-0.5686861462891101837158203125">
        <ele>14.6000003814697265625</ele>
        <time>2019-10-25T08:48:49.000Z</time>
      </trkpt>
      <trkpt lat="38.23576030321419239044189453125" lon="-0.5688584782183170318603515625">
        <ele>14</ele>
        <time>2019-10-25T08:48:53.000Z</time>
      </trkpt>
      <trkpt lat="38.23559920303523540496826171875" lon="-0.5690400302410125732421875">
        <ele>13.80000019073486328125</ele>
        <time>2019-10-25T08:48:57.000Z</time>
      </trkpt>
      <trkpt lat="38.235433660447597503662109375" lon="-0.56921504437923431396484375">
        <ele>13.80000019073486328125</ele>
        <time>2019-10-25T08:49:01.000Z</time>
      </trkpt>
      <trkpt lat="38.23526560328900814056396484375" lon="-0.56938544847071170806884765625">
        <ele>13.19999980926513671875</ele>
        <time>2019-10-25T08:49:05.000Z</time>
      </trkpt>
      <trkpt lat="38.23511305265128612518310546875" lon="-0.56954629719257354736328125">
        <ele>12.6000003814697265625</ele>
        <time>2019-10-25T08:49:09.000Z</time>
      </trkpt>
      <trkpt lat="38.2349631004035472869873046875" lon="-0.56970412842929363250732421875">
        <ele>12.19999980926513671875</ele>
        <time>2019-10-25T08:49:13.000Z</time>
      </trkpt>
      <trkpt lat="38.234814070165157318115234375" lon="-0.56985743343830108642578125">
        <ele>12.80000019073486328125</ele>
        <time>2019-10-25T08:49:17.000Z</time>
      </trkpt>
      <trkpt lat="38.2346626929938793182373046875" lon="-0.57002046145498752593994140625">
        <ele>14</ele>
        <time>2019-10-25T08:49:21.000Z</time>
      </trkpt>
      <trkpt lat="38.23450796306133270263671875" lon="-0.57019279338419437408447265625">
        <ele>14.6000003814697265625</ele>
        <time>2019-10-25T08:49:25.000Z</time>
      </trkpt>
      <trkpt lat="38.234361112117767333984375" lon="-0.570374093949794769287109375">
        <ele>15.6000003814697265625</ele>
        <time>2019-10-25T08:49:29.000Z</time>
      </trkpt>
      <trkpt lat="38.2342264987528324127197265625" lon="-0.57055748999118804931640625">
        <ele>16.799999237060546875</ele>
        <time>2019-10-25T08:49:33.000Z</time>
      </trkpt>
      <trkpt lat="38.234192468225955963134765625" lon="-0.570603422820568084716796875">
        <ele>17</ele>
        <time>2019-10-25T08:49:34.000Z</time>
      </trkpt>
      <trkpt lat="38.2340531609952449798583984375" lon="-0.57078874669969081878662109375">
        <ele>17.200000762939453125</ele>
        <time>2019-10-25T08:49:38.000Z</time>
      </trkpt>
      <trkpt lat="38.23390773497521877288818359375" lon="-0.57097256183624267578125">
        <ele>17.200000762939453125</ele>
        <time>2019-10-25T08:49:42.000Z</time>
      </trkpt>
      <trkpt lat="38.2337571121752262115478515625" lon="-0.57115436531603336334228515625">
        <ele>16.799999237060546875</ele>
        <time>2019-10-25T08:49:46.000Z</time>
      </trkpt>
      <trkpt lat="38.23359257541596889495849609375" lon="-0.5713172256946563720703125">
        <ele>15.6000003814697265625</ele>
        <time>2019-10-25T08:49:50.000Z</time>
      </trkpt>
      <trkpt lat="38.2334127835929393768310546875" lon="-0.57147153653204441070556640625">
        <ele>14.19999980926513671875</ele>
        <time>2019-10-25T08:49:54.000Z</time>
      </trkpt>
      <trkpt lat="38.23322075419127941131591796875" lon="-0.57161687873303890228271484375">
        <ele>12.6000003814697265625</ele>
        <time>2019-10-25T08:49:58.000Z</time>
      </trkpt>
      <trkpt lat="38.233033083379268646240234375" lon="-0.57176708243787288665771484375">
        <ele>11.80000019073486328125</ele>
        <time>2019-10-25T08:50:02.000Z</time>
      </trkpt>
      <trkpt lat="38.232848346233367919921875" lon="-0.5719108320772647857666015625">
        <ele>11.19999980926513671875</ele>
        <time>2019-10-25T08:50:06.000Z</time>
      </trkpt>
      <trkpt lat="38.23266570456326007843017578125" lon="-0.57204569689929485321044921875">
        <ele>11.3999996185302734375</ele>
        <time>2019-10-25T08:50:10.000Z</time>
      </trkpt>
      <trkpt lat="38.23247644118964672088623046875" lon="-0.5721636302769184112548828125">
        <ele>13.3999996185302734375</ele>
        <time>2019-10-25T08:50:14.000Z</time>
      </trkpt>
      <trkpt lat="38.23228114284574985504150390625" lon="-0.5722667276859283447265625">
        <ele>14.6000003814697265625</ele>
        <time>2019-10-25T08:50:18.000Z</time>
      </trkpt>
      <trkpt lat="38.23208383284509181976318359375" lon="-0.57236303575336933135986328125">
        <ele>14.80000019073486328125</ele>
        <time>2019-10-25T08:50:22.000Z</time>
      </trkpt>
      <trkpt lat="38.23198509402573108673095703125" lon="-0.57241198606789112091064453125">
        <ele>14.3999996185302734375</ele>
        <time>2019-10-25T08:50:24.000Z</time>
      </trkpt>
      <trkpt lat="38.231790550053119659423828125" lon="-0.57250720448791980743408203125">
        <ele>13.80000019073486328125</ele>
        <time>2019-10-25T08:50:28.000Z</time>
      </trkpt>
      <trkpt lat="38.231599442660808563232421875" lon="-0.5725998245179653167724609375">
        <ele>13</ele>
        <time>2019-10-25T08:50:32.000Z</time>
      </trkpt>
      <trkpt lat="38.23140825144946575164794921875" lon="-0.57269562967121601104736328125">
        <ele>13</ele>
        <time>2019-10-25T08:50:36.000Z</time>
      </trkpt>
      <trkpt lat="38.23122032918035984039306640625" lon="-0.57279252447187900543212890625">
        <ele>13.3999996185302734375</ele>
        <time>2019-10-25T08:50:40.000Z</time>
      </trkpt>
      <trkpt lat="38.23103341273963451385498046875" lon="-0.57288908399641513824462890625">
        <ele>14.3999996185302734375</ele>
        <time>2019-10-25T08:50:44.000Z</time>
      </trkpt>
      <trkpt lat="38.230845071375370025634765625" lon="-0.57298514060676097869873046875">
        <ele>14</ele>
        <time>2019-10-25T08:50:48.000Z</time>
      </trkpt>
      <trkpt lat="38.230751864612102508544921875" lon="-0.5730299837887287139892578125">
        <ele>14</ele>
        <time>2019-10-25T08:50:50.000Z</time>
      </trkpt>
      <trkpt lat="38.23057475499808788299560546875" lon="-0.57313232682645320892333984375">
        <ele>13.3999996185302734375</ele>
        <time>2019-10-25T08:50:54.000Z</time>
      </trkpt>
      <trkpt lat="38.23041214607656002044677734375" lon="-0.5732489190995693206787109375">
        <ele>13</ele>
        <time>2019-10-25T08:50:58.000Z</time>
      </trkpt>
      <trkpt lat="38.23024752549827098846435546875" lon="-0.57337582111358642578125">
        <ele>13</ele>
        <time>2019-10-25T08:51:02.000Z</time>
      </trkpt>
      <trkpt lat="38.23008206672966480255126953125" lon="-0.5735100992023944854736328125">
        <ele>14.3999996185302734375</ele>
        <time>2019-10-25T08:51:06.000Z</time>
      </trkpt>
      <trkpt lat="38.22992029599845409393310546875" lon="-0.57364563457667827606201171875">
        <ele>16</ele>
        <time>2019-10-25T08:51:10.000Z</time>
      </trkpt>
      <trkpt lat="38.22975642979145050048828125" lon="-0.573790557682514190673828125">
        <ele>15.3999996185302734375</ele>
        <time>2019-10-25T08:51:14.000Z</time>
      </trkpt>
      <trkpt lat="38.22959541343152523040771484375" lon="-0.57393196038901805877685546875">
        <ele>15</ele>
        <time>2019-10-25T08:51:18.000Z</time>
      </trkpt>
      <trkpt lat="38.22943682782351970672607421875" lon="-0.57406959123909473419189453125">
        <ele>14.6000003814697265625</ele>
        <time>2019-10-25T08:51:22.000Z</time>
      </trkpt>
      <trkpt lat="38.22927631437778472900390625" lon="-0.57420755736529827117919921875">
        <ele>14.3999996185302734375</ele>
        <time>2019-10-25T08:51:26.000Z</time>
      </trkpt>
      <trkpt lat="38.22911278344690799713134765625" lon="-0.57434879243373870849609375">
        <ele>15</ele>
        <time>2019-10-25T08:51:30.000Z</time>
      </trkpt>
      <trkpt lat="38.22895436547696590423583984375" lon="-0.57449136860668659210205078125">
        <ele>16</ele>
        <time>2019-10-25T08:51:34.000Z</time>
      </trkpt>
      <trkpt lat="38.22879460640251636505126953125" lon="-0.57462246157228946685791015625">
        <ele>17</ele>
        <time>2019-10-25T08:51:38.000Z</time>
      </trkpt>
      <trkpt lat="38.22864088229835033416748046875" lon="-0.57475791312754154205322265625">
        <ele>17</ele>
        <time>2019-10-25T08:51:42.000Z</time>
      </trkpt>
      <trkpt lat="38.2284859009087085723876953125" lon="-0.574898310005664825439453125">
        <ele>16.6000003814697265625</ele>
        <time>2019-10-25T08:51:46.000Z</time>
      </trkpt>
      <trkpt lat="38.228337876498699188232421875" lon="-0.5750426463782787322998046875">
        <ele>16.799999237060546875</ele>
        <time>2019-10-25T08:51:50.000Z</time>
      </trkpt>
      <trkpt lat="38.2281975634396076202392578125" lon="-0.57520802132785320281982421875">
        <ele>17.3999996185302734375</ele>
        <time>2019-10-25T08:51:54.000Z</time>
      </trkpt>
      <trkpt lat="38.22804593481123447418212890625" lon="-0.5753789283335208892822265625">
        <ele>18.200000762939453125</ele>
        <time>2019-10-25T08:51:58.000Z</time>
      </trkpt>
      <trkpt lat="38.22788936085999011993408203125" lon="-0.5755522660911083221435546875">
        <ele>18.3999996185302734375</ele>
        <time>2019-10-25T08:52:02.000Z</time>
      </trkpt>
      <trkpt lat="38.22772608138620853424072265625" lon="-0.5757205747067928314208984375">
        <ele>17.799999237060546875</ele>
        <time>2019-10-25T08:52:06.000Z</time>
      </trkpt>
      <trkpt lat="38.227564394474029541015625" lon="-0.57589835487306118011474609375">
        <ele>17.799999237060546875</ele>
        <time>2019-10-25T08:52:10.000Z</time>
      </trkpt>
      <trkpt lat="38.22740572504699230194091796875" lon="-0.57607789523899555206298828125">
        <ele>18.200000762939453125</ele>
        <time>2019-10-25T08:52:14.000Z</time>
      </trkpt>
      <trkpt lat="38.22725501842796802520751953125" lon="-0.5762659013271331787109375">
        <ele>17.6000003814697265625</ele>
        <time>2019-10-25T08:52:18.000Z</time>
      </trkpt>
      <trkpt lat="38.2271065749228000640869140625" lon="-0.57646279223263263702392578125">
        <ele>16.6000003814697265625</ele>
        <time>2019-10-25T08:52:22.000Z</time>
      </trkpt>
      <trkpt lat="38.2269617356359958648681640625" lon="-0.57667049579322338104248046875">
        <ele>15.3999996185302734375</ele>
        <time>2019-10-25T08:52:26.000Z</time>
      </trkpt>
      <trkpt lat="38.22682100348174571990966796875" lon="-0.5768962204456329345703125">
        <ele>14.80000019073486328125</ele>
        <time>2019-10-25T08:52:30.000Z</time>
      </trkpt>
      <trkpt lat="38.2267843745648860931396484375" lon="-0.57694944553077220916748046875">
        <ele>15</ele>
        <time>2019-10-25T08:52:31.000Z</time>
      </trkpt>
      <trkpt lat="38.22671052999794483184814453125" lon="-0.5770613439381122589111328125">
        <ele>15.80000019073486328125</ele>
        <time>2019-10-25T08:52:33.000Z</time>
      </trkpt>
      <trkpt lat="38.22657507844269275665283203125" lon="-0.57730483822524547576904296875">
        <ele>17.3999996185302734375</ele>
        <time>2019-10-25T08:52:37.000Z</time>
      </trkpt>
      <trkpt lat="38.2264423929154872894287109375" lon="-0.5775337480008602142333984375">
        <ele>19</ele>
        <time>2019-10-25T08:52:41.000Z</time>
      </trkpt>
      <trkpt lat="38.22630937211215496063232421875" lon="-0.57775980792939662933349609375">
        <ele>19.200000762939453125</ele>
        <time>2019-10-25T08:52:45.000Z</time>
      </trkpt>
      <trkpt lat="38.22617970407009124755859375" lon="-0.5779820121824741363525390625">
        <ele>17.6000003814697265625</ele>
        <time>2019-10-25T08:52:49.000Z</time>
      </trkpt>
      <trkpt lat="38.22605364024639129638671875" lon="-0.57819985784590244293212890625">
        <ele>16.6000003814697265625</ele>
        <time>2019-10-25T08:52:53.000Z</time>
      </trkpt>
      <trkpt lat="38.2259076274931430816650390625" lon="-0.578420050442218780517578125">
        <ele>16</ele>
        <time>2019-10-25T08:52:57.000Z</time>
      </trkpt>
      <trkpt lat="38.22578944265842437744140625" lon="-0.57858441956341266632080078125">
        <ele>16</ele>
        <time>2019-10-25T08:53:00.000Z</time>
      </trkpt>
      <trkpt lat="38.22563597001135349273681640625" lon="-0.578806288540363311767578125">
        <ele>16.3999996185302734375</ele>
        <time>2019-10-25T08:53:04.000Z</time>
      </trkpt>
      <trkpt lat="38.22548693977296352386474609375" lon="-0.57902681641280651092529296875">
        <ele>17</ele>
        <time>2019-10-25T08:53:08.000Z</time>
      </trkpt>
      <trkpt lat="38.22534277103841304779052734375" lon="-0.57925530709326267242431640625">
        <ele>17</ele>
        <time>2019-10-25T08:53:12.000Z</time>
      </trkpt>
      <trkpt lat="38.2252045534551143646240234375" lon="-0.57948899455368518829345703125">
        <ele>17</ele>
        <time>2019-10-25T08:53:16.000Z</time>
      </trkpt>
      <trkpt lat="38.2250748015940189361572265625" lon="-0.57972251437604427337646484375">
        <ele>15.6000003814697265625</ele>
        <time>2019-10-25T08:53:20.000Z</time>
      </trkpt>
      <trkpt lat="38.2249477319419384002685546875" lon="-0.579954944550991058349609375">
        <ele>15</ele>
        <time>2019-10-25T08:53:24.000Z</time>
      </trkpt>
      <trkpt lat="38.2248233444988727569580078125" lon="-0.58019072748720645904541015625">
        <ele>15</ele>
        <time>2019-10-25T08:53:28.000Z</time>
      </trkpt>
      <trkpt lat="38.2246979512274265289306640625" lon="-0.580427683889865875244140625">
        <ele>15.3999996185302734375</ele>
        <time>2019-10-25T08:53:32.000Z</time>
      </trkpt>
      <trkpt lat="38.22457565926015377044677734375" lon="-0.58067344129085540771484375">
        <ele>15.6000003814697265625</ele>
        <time>2019-10-25T08:53:36.000Z</time>
      </trkpt>
      <trkpt lat="38.224453032016754150390625" lon="-0.580917187035083770751953125">
        <ele>14.80000019073486328125</ele>
        <time>2019-10-25T08:53:40.000Z</time>
      </trkpt>
      <trkpt lat="38.22442193515598773956298828125" lon="-0.58097745291888713836669921875">
        <ele>14.6000003814697265625</ele>
        <time>2019-10-25T08:53:41.000Z</time>
      </trkpt>
      <trkpt lat="38.2242999784648418426513671875" lon="-0.5812251381576061248779296875">
        <ele>14</ele>
        <time>2019-10-25T08:53:45.000Z</time>
      </trkpt>
      <trkpt lat="38.22418187744915485382080078125" lon="-0.58147114701569080352783203125">
        <ele>13.6000003814697265625</ele>
        <time>2019-10-25T08:53:49.000Z</time>
      </trkpt>
      <trkpt lat="38.224061764776706695556640625" lon="-0.5817246995866298675537109375">
        <ele>13.80000019073486328125</ele>
        <time>2019-10-25T08:53:53.000Z</time>
      </trkpt>
      <trkpt lat="38.22397182695567607879638671875" lon="-0.58192678727209568023681640625">
        <ele>13.19999980926513671875</ele>
        <time>2019-10-25T08:53:56.000Z</time>
      </trkpt>
      <trkpt lat="38.223850540816783905029296875" lon="-0.5821602232754230499267578125">
        <ele>13</ele>
        <time>2019-10-25T08:54:00.000Z</time>
      </trkpt>
      <trkpt lat="38.2237516343593597412109375" lon="-0.58240036480128765106201171875">
        <ele>13.3999996185302734375</ele>
        <time>2019-10-25T08:54:04.000Z</time>
      </trkpt>
      <trkpt lat="38.2236658036708831787109375" lon="-0.58265785686671733856201171875">
        <ele>13.3999996185302734375</ele>
        <time>2019-10-25T08:54:08.000Z</time>
      </trkpt>
      <trkpt lat="38.22359983809292316436767578125" lon="-0.582932867109775543212890625">
        <ele>12.6000003814697265625</ele>
        <time>2019-10-25T08:54:12.000Z</time>
      </trkpt>
      <trkpt lat="38.22355356998741626739501953125" lon="-0.58322690427303314208984375">
        <ele>12</ele>
        <time>2019-10-25T08:54:16.000Z</time>
      </trkpt>
      <trkpt lat="38.2235181145370006561279296875" lon="-0.5835241265594959259033203125">
        <ele>12</ele>
        <time>2019-10-25T08:54:20.000Z</time>
      </trkpt>
      <trkpt lat="38.22349724359810352325439453125" lon="-0.5837591551244258880615234375">
        <ele>12.3999996185302734375</ele>
        <time>2019-10-25T08:54:23.000Z</time>
      </trkpt>
      <trkpt lat="38.22347142733633518218994140625" lon="-0.58399795554578304290771484375">
        <ele>13</ele>
        <time>2019-10-25T08:54:26.000Z</time>
      </trkpt>
      <trkpt lat="38.22342951782047748565673828125" lon="-0.58428847230970859527587890625">
        <ele>12.6000003814697265625</ele>
        <time>2019-10-25T08:54:30.000Z</time>
      </trkpt>
      <trkpt lat="38.22339716367423534393310546875" lon="-0.58456800878047943115234375">
        <ele>12.6000003814697265625</ele>
        <time>2019-10-25T08:54:34.000Z</time>
      </trkpt>
      <trkpt lat="38.2233658991754055023193359375" lon="-0.58484553359448909759521484375">
        <ele>12.3999996185302734375</ele>
        <time>2019-10-25T08:54:38.000Z</time>
      </trkpt>
      <trkpt lat="38.2233360596001148223876953125" lon="-0.58512465097010135650634765625">
        <ele>12.6000003814697265625</ele>
        <time>2019-10-25T08:54:42.000Z</time>
      </trkpt>
      <trkpt lat="38.22330328635871410369873046875" lon="-0.58540712110698223114013671875">
        <ele>13</ele>
        <time>2019-10-25T08:54:46.000Z</time>
      </trkpt>
      <trkpt lat="38.2232686690986156463623046875" lon="-0.58569579385221004486083984375">
        <ele>12.19999980926513671875</ele>
        <time>2019-10-25T08:54:50.000Z</time>
      </trkpt>
      <trkpt lat="38.2232582755386829376220703125" lon="-0.5859904177486896514892578125">
        <ele>10.6000003814697265625</ele>
        <time>2019-10-25T08:54:54.000Z</time>
      </trkpt>
      <trkpt lat="38.2232690043747425079345703125" lon="-0.586290322244167327880859375">
        <ele>9.3999996185302734375</ele>
        <time>2019-10-25T08:54:58.000Z</time>
      </trkpt>
      <trkpt lat="38.22328300215303897857666015625" lon="-0.58658326976001262664794921875">
        <ele>9</ele>
        <time>2019-10-25T08:55:02.000Z</time>
      </trkpt>
      <trkpt lat="38.22327445261180400848388671875" lon="-0.586871020495891571044921875">
        <ele>9.6000003814697265625</ele>
        <time>2019-10-25T08:55:06.000Z</time>
      </trkpt>
      <trkpt lat="38.22324134409427642822265625" lon="-0.5871494673192501068115234375">
        <ele>10.6000003814697265625</ele>
        <time>2019-10-25T08:55:10.000Z</time>
      </trkpt>
      <trkpt lat="38.2231731154024600982666015625" lon="-0.5874163471162319183349609375">
        <ele>11.6000003814697265625</ele>
        <time>2019-10-25T08:55:14.000Z</time>
      </trkpt>
      <trkpt lat="38.22309759445488452911376953125" lon="-0.58767207898199558258056640625">
        <ele>12.6000003814697265625</ele>
        <time>2019-10-25T08:55:18.000Z</time>
      </trkpt>
      <trkpt lat="38.2230423577129840850830078125" lon="-0.5879346840083599090576171875">
        <ele>13.19999980926513671875</ele>
        <time>2019-10-25T08:55:22.000Z</time>
      </trkpt>
      <trkpt lat="38.2230032980442047119140625" lon="-0.5882052518427371978759765625">
        <ele>14.3999996185302734375</ele>
        <time>2019-10-25T08:55:26.000Z</time>
      </trkpt>
      <trkpt lat="38.2229783199727535247802734375" lon="-0.58847137726843357086181640625">
        <ele>14.19999980926513671875</ele>
        <time>2019-10-25T08:55:30.000Z</time>
      </trkpt>
      <trkpt lat="38.2229451276361942291259765625" lon="-0.58875183574855327606201171875">
        <ele>12.3999996185302734375</ele>
        <time>2019-10-25T08:55:34.000Z</time>
      </trkpt>
      <trkpt lat="38.22290497832000255584716796875" lon="-0.58904117904603481292724609375">
        <ele>11.19999980926513671875</ele>
        <time>2019-10-25T08:55:38.000Z</time>
      </trkpt>
      <trkpt lat="38.22286005131900310516357421875" lon="-0.58933035470545291900634765625">
        <ele>10</ele>
        <time>2019-10-25T08:55:42.000Z</time>
      </trkpt>
      <trkpt lat="38.22278059087693691253662109375" lon="-0.5896211229264736175537109375">
        <ele>9.19999980926513671875</ele>
        <time>2019-10-25T08:55:46.000Z</time>
      </trkpt>
      <trkpt lat="38.22269325144588947296142578125" lon="-0.5898325145244598388671875">
        <ele>9.19999980926513671875</ele>
        <time>2019-10-25T08:55:49.000Z</time>
      </trkpt>
      <trkpt lat="38.2225863821804523468017578125" lon="-0.590029656887054443359375">
        <ele>9.19999980926513671875</ele>
        <time>2019-10-25T08:55:52.000Z</time>
      </trkpt>
      <trkpt lat="38.2224583066999912261962890625" lon="-0.5902132205665111541748046875">
        <ele>9</ele>
        <time>2019-10-25T08:55:55.000Z</time>
      </trkpt>
      <trkpt lat="38.22231539525091648101806640625" lon="-0.5903721414506435394287109375">
        <ele>8</ele>
        <time>2019-10-25T08:55:58.000Z</time>
      </trkpt>
      <trkpt lat="38.22216569446027278900146484375" lon="-0.5905129574239253997802734375">
        <ele>6.400000095367431640625</ele>
        <time>2019-10-25T08:56:01.000Z</time>
      </trkpt>
      <trkpt lat="38.222013898193836212158203125" lon="-0.5906371772289276123046875">
        <ele>6</ele>
        <time>2019-10-25T08:56:04.000Z</time>
      </trkpt>
      <trkpt lat="38.221856988966464996337890625" lon="-0.59076257050037384033203125">
        <ele>6</ele>
        <time>2019-10-25T08:56:07.000Z</time>
      </trkpt>
      <trkpt lat="38.2217002473771572113037109375" lon="-0.59088050387799739837646484375">
        <ele>6.599999904632568359375</ele>
        <time>2019-10-25T08:56:10.000Z</time>
      </trkpt>
      <trkpt lat="38.22153805755078792572021484375" lon="-0.5909913964569568634033203125">
        <ele>6.599999904632568359375</ele>
        <time>2019-10-25T08:56:13.000Z</time>
      </trkpt>
      <trkpt lat="38.221383579075336456298828125" lon="-0.59110530652105808258056640625">
        <ele>6.19999980926513671875</ele>
        <time>2019-10-25T08:56:16.000Z</time>
      </trkpt>
      <trkpt lat="38.22123505175113677978515625" lon="-0.5912358127534389495849609375">
        <ele>6.599999904632568359375</ele>
        <time>2019-10-25T08:56:19.000Z</time>
      </trkpt>
      <trkpt lat="38.22108811698853969573974609375" lon="-0.5913695879280567169189453125">
        <ele>7.599999904632568359375</ele>
        <time>2019-10-25T08:56:22.000Z</time>
      </trkpt>
      <trkpt lat="38.22094679810106754302978515625" lon="-0.5915142595767974853515625">
        <ele>7.599999904632568359375</ele>
        <time>2019-10-25T08:56:25.000Z</time>
      </trkpt>
      <trkpt lat="38.2208087481558322906494140625" lon="-0.59166119433939456939697265625">
        <ele>7.19999980926513671875</ele>
        <time>2019-10-25T08:56:28.000Z</time>
      </trkpt>
      <trkpt lat="38.22062929160892963409423828125" lon="-0.5918550677597522735595703125">
        <ele>6.599999904632568359375</ele>
        <time>2019-10-25T08:56:32.000Z</time>
      </trkpt>
      <trkpt lat="38.22044639848172664642333984375" lon="-0.59204592369496822357177734375">
        <ele>6</ele>
        <time>2019-10-25T08:56:36.000Z</time>
      </trkpt>
      <trkpt lat="38.22026216425001621246337890625" lon="-0.59222462587058544158935546875">
        <ele>6</ele>
        <time>2019-10-25T08:56:40.000Z</time>
      </trkpt>
      <trkpt lat="38.22007155977189540863037109375" lon="-0.59239469468593597412109375">
        <ele>5.400000095367431640625</ele>
        <time>2019-10-25T08:56:44.000Z</time>
      </trkpt>
      <trkpt lat="38.21987609378993511199951171875" lon="-0.592555962502956390380859375">
        <ele>4.80000019073486328125</ele>
        <time>2019-10-25T08:56:48.000Z</time>
      </trkpt>
      <trkpt lat="38.21971784345805644989013671875" lon="-0.5926721356809139251708984375">
        <ele>4.400000095367431640625</ele>
        <time>2019-10-25T08:56:51.000Z</time>
      </trkpt>
      <trkpt lat="38.21955573745071887969970703125" lon="-0.5927807651460170745849609375">
        <ele>4.400000095367431640625</ele>
        <time>2019-10-25T08:56:54.000Z</time>
      </trkpt>
      <trkpt lat="38.21934719569981098175048828125" lon="-0.59292116202414035797119140625">
        <ele>5.400000095367431640625</ele>
        <time>2019-10-25T08:56:58.000Z</time>
      </trkpt>
      <trkpt lat="38.21913613937795162200927734375" lon="-0.5930543504655361175537109375">
        <ele>6.80000019073486328125</ele>
        <time>2019-10-25T08:57:02.000Z</time>
      </trkpt>
      <trkpt lat="38.21893128566443920135498046875" lon="-0.5931861139833927154541015625">
        <ele>7.400000095367431640625</ele>
        <time>2019-10-25T08:57:06.000Z</time>
      </trkpt>
      <trkpt lat="38.21873062290251255035400390625" lon="-0.59331326745450496673583984375">
        <ele>8.3999996185302734375</ele>
        <time>2019-10-25T08:57:10.000Z</time>
      </trkpt>
      <trkpt lat="38.21853616274893283843994140625" lon="-0.5934275127947330474853515625">
        <ele>10</ele>
        <time>2019-10-25T08:57:14.000Z</time>
      </trkpt>
      <trkpt lat="38.21835310198366641998291015625" lon="-0.59355340898036956787109375">
        <ele>10</ele>
        <time>2019-10-25T08:57:18.000Z</time>
      </trkpt>
      <trkpt lat="38.2181855477392673492431640625" lon="-0.59368642978370189666748046875">
        <ele>9.80000019073486328125</ele>
        <time>2019-10-25T08:57:22.000Z</time>
      </trkpt>
      <trkpt lat="38.2180259563028812408447265625" lon="-0.59382908977568149566650390625">
        <ele>9.19999980926513671875</ele>
        <time>2019-10-25T08:57:26.000Z</time>
      </trkpt>
      <trkpt lat="38.21788270957767963409423828125" lon="-0.5939899384975433349609375">
        <ele>8.6000003814697265625</ele>
        <time>2019-10-25T08:57:30.000Z</time>
      </trkpt>
      <trkpt lat="38.21778749115765094757080078125" lon="-0.59409731067717075347900390625">
        <ele>8.3999996185302734375</ele>
        <time>2019-10-25T08:57:33.000Z</time>
      </trkpt>
      <trkpt lat="38.21773669682443141937255859375" lon="-0.59417727403342723846435546875">
        <ele>8.19999980926513671875</ele>
        <time>2019-10-25T08:57:35.000Z</time>
      </trkpt>
      <trkpt lat="38.21767148561775684356689453125" lon="-0.59430233202874660491943359375">
        <ele>7.599999904632568359375</ele>
        <time>2019-10-25T08:57:38.000Z</time>
      </trkpt>
      <trkpt lat="38.21763644926249980926513671875" lon="-0.594389922916889190673828125">
        <ele>7</ele>
        <time>2019-10-25T08:57:40.000Z</time>
      </trkpt>
      <trkpt lat="38.21753234602510929107666015625" lon="-0.59461983852088451385498046875">
        <ele>7</ele>
        <time>2019-10-25T08:57:45.000Z</time>
      </trkpt>
      <trkpt lat="38.21741499938070774078369140625" lon="-0.5948034860193729400634765625">
        <ele>7</ele>
        <time>2019-10-25T08:57:49.000Z</time>
      </trkpt>
      <trkpt lat="38.217381723225116729736328125" lon="-0.59484262950718402862548828125">
        <ele>7.19999980926513671875</ele>
        <time>2019-10-25T08:57:50.000Z</time>
      </trkpt>
      <trkpt lat="38.21726663969457149505615234375" lon="-0.59495343826711177825927734375">
        <ele>8.19999980926513671875</ele>
        <time>2019-10-25T08:57:53.000Z</time>
      </trkpt>
      <trkpt lat="38.21706865914165973663330078125" lon="-0.5949984490871429443359375">
        <ele>9.19999980926513671875</ele>
        <time>2019-10-25T08:57:57.000Z</time>
      </trkpt>
      <trkpt lat="38.21688509546220302581787109375" lon="-0.59501026757061481475830078125">
        <ele>9.80000019073486328125</ele>
        <time>2019-10-25T08:58:03.000Z</time>
      </trkpt>
      <trkpt lat="38.2167126797139644622802734375" lon="-0.5950425378978252410888671875">
        <ele>10.3999996185302734375</ele>
        <time>2019-10-25T08:58:10.000Z</time>
      </trkpt>
      <trkpt lat="38.216668255627155303955078125" lon="-0.595231465995311737060546875">
        <ele>10</ele>
        <time>2019-10-25T08:58:16.000Z</time>
      </trkpt>
      <trkpt lat="38.21667839772999286651611328125" lon="-0.5954314582049846649169921875">
        <ele>9.6000003814697265625</ele>
        <time>2019-10-25T08:58:20.000Z</time>
      </trkpt>
      <trkpt lat="38.21665811352431774139404296875" lon="-0.595588199794292449951171875">
        <ele>9</ele>
        <time>2019-10-25T08:58:23.000Z</time>
      </trkpt>
      <trkpt lat="38.21657664142549037933349609375" lon="-0.59579481370747089385986328125">
        <ele>8.19999980926513671875</ele>
        <time>2019-10-25T08:58:27.000Z</time>
      </trkpt>
      <trkpt lat="38.21652199141681194305419921875" lon="-0.5958971567451953887939453125">
        <ele>7.400000095367431640625</ele>
        <time>2019-10-25T08:58:29.000Z</time>
      </trkpt>
      <trkpt lat="38.21639022789895534515380859375" lon="-0.59609270654618740081787109375">
        <ele>5.80000019073486328125</ele>
        <time>2019-10-25T08:58:33.000Z</time>
      </trkpt>
      <trkpt lat="38.21624740026891231536865234375" lon="-0.5962921120226383209228515625">
        <ele>5</ele>
        <time>2019-10-25T08:58:37.000Z</time>
      </trkpt>
      <trkpt lat="38.21610742248594760894775390625" lon="-0.59649369679391384124755859375">
        <ele>5</ele>
        <time>2019-10-25T08:58:41.000Z</time>
      </trkpt>
      <trkpt lat="38.21596912108361721038818359375" lon="-0.596697628498077392578125">
        <ele>5.19999980926513671875</ele>
        <time>2019-10-25T08:58:45.000Z</time>
      </trkpt>
      <trkpt lat="38.215831406414508819580078125" lon="-0.59689988382160663604736328125">
        <ele>5.80000019073486328125</ele>
        <time>2019-10-25T08:58:49.000Z</time>
      </trkpt>
      <trkpt lat="38.2156917639076709747314453125" lon="-0.5971095152199268341064453125">
        <ele>6.19999980926513671875</ele>
        <time>2019-10-25T08:58:53.000Z</time>
      </trkpt>
      <trkpt lat="38.2155425660312175750732421875" lon="-0.5973183922469615936279296875">
        <ele>6.599999904632568359375</ele>
        <time>2019-10-25T08:58:57.000Z</time>
      </trkpt>
      <trkpt lat="38.2154000736773014068603515625" lon="-0.597534477710723876953125">
        <ele>6</ele>
        <time>2019-10-25T08:59:01.000Z</time>
      </trkpt>
      <trkpt lat="38.21525816805660724639892578125" lon="-0.5977448634803295135498046875">
        <ele>6</ele>
        <time>2019-10-25T08:59:05.000Z</time>
      </trkpt>
      <trkpt lat="38.2151144184172153472900390625" lon="-0.59795147739350795745849609375">
        <ele>6.19999980926513671875</ele>
        <time>2019-10-25T08:59:09.000Z</time>
      </trkpt>
      <trkpt lat="38.21497368626296520233154296875" lon="-0.59815582819283008575439453125">
        <ele>6.19999980926513671875</ele>
        <time>2019-10-25T08:59:13.000Z</time>
      </trkpt>
      <trkpt lat="38.2149011828005313873291015625" lon="-0.59826110489666461944580078125">
        <ele>6</ele>
        <time>2019-10-25T08:59:15.000Z</time>
      </trkpt>
      <trkpt lat="38.21475475095212459564208984375" lon="-0.598469562828540802001953125">
        <ele>5.400000095367431640625</ele>
        <time>2019-10-25T08:59:19.000Z</time>
      </trkpt>
      <trkpt lat="38.214608319103717803955078125" lon="-0.5986826308071613311767578125">
        <ele>5</ele>
        <time>2019-10-25T08:59:23.000Z</time>
      </trkpt>
      <trkpt lat="38.2144971750676631927490234375" lon="-0.59884515590965747833251953125">
        <ele>5</ele>
        <time>2019-10-25T08:59:26.000Z</time>
      </trkpt>
      <trkpt lat="38.2143516652286052703857421875" lon="-0.599059648811817169189453125">
        <ele>5.400000095367431640625</ele>
        <time>2019-10-25T08:59:30.000Z</time>
      </trkpt>
      <trkpt lat="38.2142074964940547943115234375" lon="-0.5992747284471988677978515625">
        <ele>5.80000019073486328125</ele>
        <time>2019-10-25T08:59:34.000Z</time>
      </trkpt>
      <trkpt lat="38.214072547852993011474609375" lon="-0.59950715862214565277099609375">
        <ele>5.80000019073486328125</ele>
        <time>2019-10-25T08:59:38.000Z</time>
      </trkpt>
      <trkpt lat="38.21394522674381732940673828125" lon="-0.5997548438608646392822265625">
        <ele>4</ele>
        <time>2019-10-25T08:59:42.000Z</time>
      </trkpt>
      <trkpt lat="38.21381606161594390869140625" lon="-0.5999954044818878173828125">
        <ele>3.2000000476837158203125</ele>
        <time>2019-10-25T08:59:46.000Z</time>
      </trkpt>
      <trkpt lat="38.21368555538356304168701171875" lon="-0.600237809121608734130859375">
        <ele>3.7999999523162841796875</ele>
        <time>2019-10-25T08:59:50.000Z</time>
      </trkpt>
      <trkpt lat="38.21355379186570644378662109375" lon="-0.6004844047129154205322265625">
        <ele>4.80000019073486328125</ele>
        <time>2019-10-25T08:59:54.000Z</time>
      </trkpt>
      <trkpt lat="38.21344046853482723236083984375" lon="-0.60072387568652629852294921875">
        <ele>5</ele>
        <time>2019-10-25T08:59:58.000Z</time>
      </trkpt>
      <trkpt lat="38.21335338056087493896484375" lon="-0.60097985900938510894775390625">
        <ele>5</ele>
        <time>2019-10-25T09:00:02.000Z</time>
      </trkpt>
      <trkpt lat="38.2132871635258197784423828125" lon="-0.60124657116830348968505859375">
        <ele>5</ele>
        <time>2019-10-25T09:00:06.000Z</time>
      </trkpt>
      <trkpt lat="38.2132212817668914794921875" lon="-0.60150641016662120819091796875">
        <ele>4.80000019073486328125</ele>
        <time>2019-10-25T09:00:10.000Z</time>
      </trkpt>
      <trkpt lat="38.21316185407340526580810546875" lon="-0.6017540954053401947021484375">
        <ele>4.400000095367431640625</ele>
        <time>2019-10-25T09:00:14.000Z</time>
      </trkpt>
      <trkpt lat="38.2130937092006206512451171875" lon="-0.60200731270015239715576171875">
        <ele>5</ele>
        <time>2019-10-25T09:00:18.000Z</time>
      </trkpt>
      <trkpt lat="38.213034532964229583740234375" lon="-0.60224653221666812896728515625">
        <ele>5</ele>
        <time>2019-10-25T09:00:22.000Z</time>
      </trkpt>
      <trkpt lat="38.212978541851043701171875" lon="-0.60247368179261684417724609375">
        <ele>5</ele>
        <time>2019-10-25T09:00:26.000Z</time>
      </trkpt>
      <trkpt lat="38.212919533252716064453125" lon="-0.60270871035754680633544921875">
        <ele>5.400000095367431640625</ele>
        <time>2019-10-25T09:00:30.000Z</time>
      </trkpt>
      <trkpt lat="38.21286429651081562042236328125" lon="-0.60295228846371173858642578125">
        <ele>5.80000019073486328125</ele>
        <time>2019-10-25T09:00:34.000Z</time>
      </trkpt>
      <trkpt lat="38.21280579082667827606201171875" lon="-0.60319326817989349365234375">
        <ele>5.400000095367431640625</ele>
        <time>2019-10-25T09:00:38.000Z</time>
      </trkpt>
      <trkpt lat="38.212749548256397247314453125" lon="-0.6034153886139392852783203125">
        <ele>4.80000019073486328125</ele>
        <time>2019-10-25T09:00:42.000Z</time>
      </trkpt>
      <trkpt lat="38.21268978528678417205810546875" lon="-0.6036453880369663238525390625">
        <ele>4</ele>
        <time>2019-10-25T09:00:46.000Z</time>
      </trkpt>
      <trkpt lat="38.21264921687543392181396484375" lon="-0.60389072634279727935791015625">
        <ele>3</ele>
        <time>2019-10-25T09:00:50.000Z</time>
      </trkpt>
      <trkpt lat="38.212589286267757415771484375" lon="-0.60414084233343601226806640625">
        <ele>3</ele>
        <time>2019-10-25T09:00:54.000Z</time>
      </trkpt>
      <trkpt lat="38.21253036148846149444580078125" lon="-0.604380480945110321044921875">
        <ele>3</ele>
        <time>2019-10-25T09:00:58.000Z</time>
      </trkpt>
      <trkpt lat="38.212468922138214111328125" lon="-0.6046109832823276519775390625">
        <ele>3</ele>
        <time>2019-10-25T09:01:02.000Z</time>
      </trkpt>
      <trkpt lat="38.21240429766476154327392578125" lon="-0.6048419885337352752685546875">
        <ele>3</ele>
        <time>2019-10-25T09:01:06.000Z</time>
      </trkpt>
      <trkpt lat="38.21234260685741901397705078125" lon="-0.60508883558213710784912109375">
        <ele>3.2000000476837158203125</ele>
        <time>2019-10-25T09:01:10.000Z</time>
      </trkpt>
      <trkpt lat="38.21227136068046092987060546875" lon="-0.60534213669598102569580078125">
        <ele>3.599999904632568359375</ele>
        <time>2019-10-25T09:01:14.000Z</time>
      </trkpt>
      <trkpt lat="38.21219659410417079925537109375" lon="-0.60557682998478412628173828125">
        <ele>4</ele>
        <time>2019-10-25T09:01:18.000Z</time>
      </trkpt>
      <trkpt lat="38.21211151778697967529296875" lon="-0.60582862235605716705322265625">
        <ele>4.80000019073486328125</ele>
        <time>2019-10-25T09:01:23.000Z</time>
      </trkpt>
      <trkpt lat="38.2120255194604396820068359375" lon="-0.60606448911130428314208984375">
        <ele>5.400000095367431640625</ele>
        <time>2019-10-25T09:01:28.000Z</time>
      </trkpt>
      <trkpt lat="38.2119309715926647186279296875" lon="-0.6063175387680530548095703125">
        <ele>5.80000019073486328125</ele>
        <time>2019-10-25T09:01:33.000Z</time>
      </trkpt>
      <trkpt lat="38.21185410954058170318603515625" lon="-0.606526918709278106689453125">
        <ele>6</ele>
        <time>2019-10-25T09:01:37.000Z</time>
      </trkpt>
      <trkpt lat="38.211754448711872100830078125" lon="-0.60677845962345600128173828125">
        <ele>6.80000019073486328125</ele>
        <time>2019-10-25T09:01:42.000Z</time>
      </trkpt>
      <trkpt lat="38.21167306043207645416259765625" lon="-0.606985576450824737548828125">
        <ele>7.599999904632568359375</ele>
        <time>2019-10-25T09:01:46.000Z</time>
      </trkpt>
      <trkpt lat="38.21157918311655521392822265625" lon="-0.60724348761141300201416015625">
        <ele>8</ele>
        <time>2019-10-25T09:01:51.000Z</time>
      </trkpt>
      <trkpt lat="38.21148782037198543548583984375" lon="-0.6075030751526355743408203125">
        <ele>6.80000019073486328125</ele>
        <time>2019-10-25T09:01:56.000Z</time>
      </trkpt>
      <trkpt lat="38.21140517480671405792236328125" lon="-0.60770935378968715667724609375">
        <ele>5.80000019073486328125</ele>
        <time>2019-10-25T09:02:00.000Z</time>
      </trkpt>
      <trkpt lat="38.21132034994661808013916015625" lon="-0.607914291322231292724609375">
        <ele>5.400000095367431640625</ele>
        <time>2019-10-25T09:02:04.000Z</time>
      </trkpt>
      <trkpt lat="38.2112409733235836029052734375" lon="-0.608119480311870574951171875">
        <ele>5.80000019073486328125</ele>
        <time>2019-10-25T09:02:08.000Z</time>
      </trkpt>
      <trkpt lat="38.2111598365008831024169921875" lon="-0.60832994990050792694091796875">
        <ele>6</ele>
        <time>2019-10-25T09:02:12.000Z</time>
      </trkpt>
      <trkpt lat="38.21109487675130367279052734375" lon="-0.6084907986223697662353515625">
        <ele>6</ele>
        <time>2019-10-25T09:02:15.000Z</time>
      </trkpt>
      <trkpt lat="38.21101223118603229522705078125" lon="-0.608705542981624603271484375">
        <ele>5.80000019073486328125</ele>
        <time>2019-10-25T09:02:19.000Z</time>
      </trkpt>
      <trkpt lat="38.2109331898391246795654296875" lon="-0.60891919769346714019775390625">
        <ele>5</ele>
        <time>2019-10-25T09:02:23.000Z</time>
      </trkpt>
      <trkpt lat="38.21085490286350250244140625" lon="-0.6091338582336902618408203125">
        <ele>4.80000019073486328125</ele>
        <time>2019-10-25T09:02:27.000Z</time>
      </trkpt>
      <trkpt lat="38.21077250875532627105712890625" lon="-0.6093477644026279449462890625">
        <ele>5</ele>
        <time>2019-10-25T09:02:31.000Z</time>
      </trkpt>
      <trkpt lat="38.21069061756134033203125" lon="-0.6095653586089611053466796875">
        <ele>5.19999980926513671875</ele>
        <time>2019-10-25T09:02:35.000Z</time>
      </trkpt>
      <trkpt lat="38.21061107330024242401123046875" lon="-0.60977809131145477294921875">
        <ele>5.400000095367431640625</ele>
        <time>2019-10-25T09:02:39.000Z</time>
      </trkpt>
      <trkpt lat="38.21053043939173221588134765625" lon="-0.6099978648126125335693359375">
        <ele>5.19999980926513671875</ele>
        <time>2019-10-25T09:02:43.000Z</time>
      </trkpt>
      <trkpt lat="38.2104480452835559844970703125" lon="-0.61022040434181690216064453125">
        <ele>5</ele>
        <time>2019-10-25T09:02:47.000Z</time>
      </trkpt>
      <trkpt lat="38.2103709317743778228759765625" lon="-0.61043917201459407806396484375">
        <ele>5</ele>
        <time>2019-10-25T09:02:51.000Z</time>
      </trkpt>
      <trkpt lat="38.21028803475201129913330078125" lon="-0.6106630526483058929443359375">
        <ele>4.599999904632568359375</ele>
        <time>2019-10-25T09:02:55.000Z</time>
      </trkpt>
      <trkpt lat="38.2102059759199619293212890625" lon="-0.610882826149463653564453125">
        <ele>5</ele>
        <time>2019-10-25T09:02:59.000Z</time>
      </trkpt>
      <trkpt lat="38.2101204805076122283935546875" lon="-0.6111029349267482757568359375">
        <ele>4.80000019073486328125</ele>
        <time>2019-10-25T09:03:03.000Z</time>
      </trkpt>
      <trkpt lat="38.2100339792668819427490234375" lon="-0.611327402293682098388671875">
        <ele>5.599999904632568359375</ele>
        <time>2019-10-25T09:03:07.000Z</time>
      </trkpt>
      <trkpt lat="38.20995175279676914215087890625" lon="-0.6115481816232204437255859375">
        <ele>6.400000095367431640625</ele>
        <time>2019-10-25T09:03:11.000Z</time>
      </trkpt>
      <trkpt lat="38.2098720408976078033447265625" lon="-0.6117741577327251434326171875">
        <ele>6.599999904632568359375</ele>
        <time>2019-10-25T09:03:15.000Z</time>
      </trkpt>
      <trkpt lat="38.20977958850562572479248046875" lon="-0.61200164258480072021484375">
        <ele>5.400000095367431640625</ele>
        <time>2019-10-25T09:03:19.000Z</time>
      </trkpt>
      <trkpt lat="38.2096889801323413848876953125" lon="-0.6122303009033203125">
        <ele>5.19999980926513671875</ele>
        <time>2019-10-25T09:03:23.000Z</time>
      </trkpt>
      <trkpt lat="38.20960088633000850677490234375" lon="-0.612470023334026336669921875">
        <ele>4.80000019073486328125</ele>
        <time>2019-10-25T09:03:27.000Z</time>
      </trkpt>
      <trkpt lat="38.20950977504253387451171875" lon="-0.6127166189253330230712890625">
        <ele>4.599999904632568359375</ele>
        <time>2019-10-25T09:03:31.000Z</time>
      </trkpt>
      <trkpt lat="38.209421932697296142578125" lon="-0.612954162061214447021484375">
        <ele>4.80000019073486328125</ele>
        <time>2019-10-25T09:03:35.000Z</time>
      </trkpt>
      <trkpt lat="38.20933367125689983367919921875" lon="-0.613182149827480316162109375">
        <ele>5.19999980926513671875</ele>
        <time>2019-10-25T09:03:39.000Z</time>
      </trkpt>
      <trkpt lat="38.20924985222518444061279296875" lon="-0.6134106405079364776611328125">
        <ele>5.19999980926513671875</ele>
        <time>2019-10-25T09:03:43.000Z</time>
      </trkpt>
      <trkpt lat="38.20915899239480495452880859375" lon="-0.6136409752070903778076171875">
        <ele>5</ele>
        <time>2019-10-25T09:03:47.000Z</time>
      </trkpt>
      <trkpt lat="38.20907433517277240753173828125" lon="-0.61385546810925006866455078125">
        <ele>5</ele>
        <time>2019-10-25T09:03:51.000Z</time>
      </trkpt>
      <trkpt lat="38.20899202488362789154052734375" lon="-0.61409116722643375396728515625">
        <ele>5.599999904632568359375</ele>
        <time>2019-10-25T09:03:56.000Z</time>
      </trkpt>
      <trkpt lat="38.20889848284423351287841796875" lon="-0.61434262432157993316650390625">
        <ele>6</ele>
        <time>2019-10-25T09:04:01.000Z</time>
      </trkpt>
      <trkpt lat="38.208812065422534942626953125" lon="-0.6146053969860076904296875">
        <ele>6</ele>
        <time>2019-10-25T09:04:06.000Z</time>
      </trkpt>
      <trkpt lat="38.20874324999749660491943359375" lon="-0.614816956222057342529296875">
        <ele>6</ele>
        <time>2019-10-25T09:04:10.000Z</time>
      </trkpt>
      <trkpt lat="38.2086559943854808807373046875" lon="-0.61503429897129535675048828125">
        <ele>6</ele>
        <time>2019-10-25T09:04:14.000Z</time>
      </trkpt>
      <trkpt lat="38.20856940932571887969970703125" lon="-0.61526312492787837982177734375">
        <ele>6.80000019073486328125</ele>
        <time>2019-10-25T09:04:18.000Z</time>
      </trkpt>
      <trkpt lat="38.2084871828556060791015625" lon="-0.615478456020355224609375">
        <ele>7</ele>
        <time>2019-10-25T09:04:22.000Z</time>
      </trkpt>
      <trkpt lat="38.20840738713741302490234375" lon="-0.61569512821733951568603515625">
        <ele>6.599999904632568359375</ele>
        <time>2019-10-25T09:04:26.000Z</time>
      </trkpt>
      <trkpt lat="38.208321891725063323974609375" lon="-0.61589880846440792083740234375">
        <ele>6.19999980926513671875</ele>
        <time>2019-10-25T09:04:30.000Z</time>
      </trkpt>
      <trkpt lat="38.208266906440258026123046875" lon="-0.616040043532848358154296875">
        <ele>5.400000095367431640625</ele>
        <time>2019-10-25T09:04:33.000Z</time>
      </trkpt>
      <trkpt lat="38.20820756256580352783203125" lon="-0.61618077568709850311279296875">
        <ele>4.80000019073486328125</ele>
        <time>2019-10-25T09:04:36.000Z</time>
      </trkpt>
      <trkpt lat="38.208103962242603302001953125" lon="-0.61642594635486602783203125">
        <ele>5</ele>
        <time>2019-10-25T09:04:41.000Z</time>
      </trkpt>
      <trkpt lat="38.20800094865262508392333984375" lon="-0.6166665069758892059326171875">
        <ele>5</ele>
        <time>2019-10-25T09:04:46.000Z</time>
      </trkpt>
      <trkpt lat="38.20791520178318023681640625" lon="-0.6168720312416553497314453125">
        <ele>4.80000019073486328125</ele>
        <time>2019-10-25T09:04:50.000Z</time>
      </trkpt>
      <trkpt lat="38.2078238390386104583740234375" lon="-0.617077052593231201171875">
        <ele>4.80000019073486328125</ele>
        <time>2019-10-25T09:04:54.000Z</time>
      </trkpt>
      <trkpt lat="38.2077373377978801727294921875" lon="-0.61728031374514102935791015625">
        <ele>5.400000095367431640625</ele>
        <time>2019-10-25T09:04:58.000Z</time>
      </trkpt>
      <trkpt lat="38.2076354138553142547607421875" lon="-0.61752590350806713104248046875">
        <ele>6.599999904632568359375</ele>
        <time>2019-10-25T09:05:03.000Z</time>
      </trkpt>
      <trkpt lat="38.2075522653758525848388671875" lon="-0.61772991903126239776611328125">
        <ele>6.400000095367431640625</ele>
        <time>2019-10-25T09:05:07.000Z</time>
      </trkpt>
      <trkpt lat="38.207475654780864715576171875" lon="-0.61793728731572628021240234375">
        <ele>6.599999904632568359375</ele>
        <time>2019-10-25T09:05:11.000Z</time>
      </trkpt>
      <trkpt lat="38.20738471113145351409912109375" lon="-0.6181370280683040618896484375">
        <ele>6.80000019073486328125</ele>
        <time>2019-10-25T09:05:15.000Z</time>
      </trkpt>
      <trkpt lat="38.20728865452110767364501953125" lon="-0.61836627312004566192626953125">
        <ele>6.599999904632568359375</ele>
        <time>2019-10-25T09:05:20.000Z</time>
      </trkpt>
      <trkpt lat="38.20718832314014434814453125" lon="-0.61861060559749603271484375">
        <ele>7</ele>
        <time>2019-10-25T09:05:25.000Z</time>
      </trkpt>
      <trkpt lat="38.20714482106268405914306640625" lon="-0.61871663667261600494384765625">
        <ele>7.19999980926513671875</ele>
        <time>2019-10-25T09:05:27.000Z</time>
      </trkpt>
      <trkpt lat="38.20705278776586055755615234375" lon="-0.61893439851701259613037109375">
        <ele>8</ele>
        <time>2019-10-25T09:05:31.000Z</time>
      </trkpt>
      <trkpt lat="38.20695823989808559417724609375" lon="-0.619144700467586517333984375">
        <ele>8.19999980926513671875</ele>
        <time>2019-10-25T09:05:35.000Z</time>
      </trkpt>
      <trkpt lat="38.2068716548383235931396484375" lon="-0.619354583323001861572265625">
        <ele>8</ele>
        <time>2019-10-25T09:05:39.000Z</time>
      </trkpt>
      <trkpt lat="38.20678490214049816131591796875" lon="-0.61956639401614665985107421875">
        <ele>7.400000095367431640625</ele>
        <time>2019-10-25T09:05:43.000Z</time>
      </trkpt>
      <trkpt lat="38.2066942937672138214111328125" lon="-0.6197768636047840118408203125">
        <ele>6</ele>
        <time>2019-10-25T09:05:47.000Z</time>
      </trkpt>
      <trkpt lat="38.206605277955532073974609375" lon="-0.61999856494367122650146484375">
        <ele>5.19999980926513671875</ele>
        <time>2019-10-25T09:05:51.000Z</time>
      </trkpt>
      <trkpt lat="38.20651198737323284149169921875" lon="-0.6202180869877338409423828125">
        <ele>5.599999904632568359375</ele>
        <time>2019-10-25T09:05:55.000Z</time>
      </trkpt>
      <trkpt lat="38.20641928352415561676025390625" lon="-0.62044347636401653289794921875">
        <ele>5</ele>
        <time>2019-10-25T09:05:59.000Z</time>
      </trkpt>
      <trkpt lat="38.2063315249979496002197265625" lon="-0.62066517770290374755859375">
        <ele>3.599999904632568359375</ele>
        <time>2019-10-25T09:06:03.000Z</time>
      </trkpt>
      <trkpt lat="38.20624812506139278411865234375" lon="-0.62088838778436183929443359375">
        <ele>2.599999904632568359375</ele>
        <time>2019-10-25T09:06:07.000Z</time>
      </trkpt>
      <trkpt lat="38.20616715587675571441650390625" lon="-0.62111335806548595428466796875">
        <ele>3.7999999523162841796875</ele>
        <time>2019-10-25T09:06:11.000Z</time>
      </trkpt>
      <trkpt lat="38.20608451031148433685302734375" lon="-0.62135450541973114013671875">
        <ele>4.599999904632568359375</ele>
        <time>2019-10-25T09:06:15.000Z</time>
      </trkpt>
      <trkpt lat="38.206004798412322998046875" lon="-0.62159364111721515655517578125">
        <ele>5.599999904632568359375</ele>
        <time>2019-10-25T09:06:19.000Z</time>
      </trkpt>
      <trkpt lat="38.20591486059129238128662109375" lon="-0.62182866968214511871337890625">
        <ele>6</ele>
        <time>2019-10-25T09:06:23.000Z</time>
      </trkpt>
      <trkpt lat="38.20582441985607147216796875" lon="-0.62206797301769256591796875">
        <ele>7</ele>
        <time>2019-10-25T09:06:27.000Z</time>
      </trkpt>
      <trkpt lat="38.20573733188211917877197265625" lon="-0.6222947873175144195556640625">
        <ele>8.19999980926513671875</ele>
        <time>2019-10-25T09:06:31.000Z</time>
      </trkpt>
      <trkpt lat="38.20564948953688144683837890625" lon="-0.62253006733953952789306640625">
        <ele>9</ele>
        <time>2019-10-25T09:06:35.000Z</time>
      </trkpt>
      <trkpt lat="38.2055582106113433837890625" lon="-0.62277071177959442138671875">
        <ele>8.19999980926513671875</ele>
        <time>2019-10-25T09:06:39.000Z</time>
      </trkpt>
      <trkpt lat="38.2054735533893108367919921875" lon="-0.6230114400386810302734375">
        <ele>7.19999980926513671875</ele>
        <time>2019-10-25T09:06:43.000Z</time>
      </trkpt>
      <trkpt lat="38.20538730360567569732666015625" lon="-0.6232543475925922393798828125">
        <ele>7.400000095367431640625</ele>
        <time>2019-10-25T09:06:47.000Z</time>
      </trkpt>
      <trkpt lat="38.2053079269826412200927734375" lon="-0.6234933994710445404052734375">
        <ele>7.599999904632568359375</ele>
        <time>2019-10-25T09:06:51.000Z</time>
      </trkpt>
      <trkpt lat="38.205223940312862396240234375" lon="-0.6237237341701984405517578125">
        <ele>8</ele>
        <time>2019-10-25T09:06:55.000Z</time>
      </trkpt>
      <trkpt lat="38.2051456533372402191162109375" lon="-0.62394526787102222442626953125">
        <ele>8</ele>
        <time>2019-10-25T09:06:59.000Z</time>
      </trkpt>
      <trkpt lat="38.205071054399013519287109375" lon="-0.6241693161427974700927734375">
        <ele>8.3999996185302734375</ele>
        <time>2019-10-25T09:07:03.000Z</time>
      </trkpt>
      <trkpt lat="38.20499050430953502655029296875" lon="-0.6244036741554737091064453125">
        <ele>9</ele>
        <time>2019-10-25T09:07:07.000Z</time>
      </trkpt>
      <trkpt lat="38.2049126364290714263916015625" lon="-0.6246422231197357177734375">
        <ele>9</ele>
        <time>2019-10-25T09:07:11.000Z</time>
      </trkpt>
      <trkpt lat="38.20484247989952564239501953125" lon="-0.62487767077982425689697265625">
        <ele>8.19999980926513671875</ele>
        <time>2019-10-25T09:07:15.000Z</time>
      </trkpt>
      <trkpt lat="38.2047912664711475372314453125" lon="-0.6251201592385768890380859375">
        <ele>7</ele>
        <time>2019-10-25T09:07:19.000Z</time>
      </trkpt>
      <trkpt lat="38.20475245825946331024169921875" lon="-0.62536709010601043701171875">
        <ele>5.19999980926513671875</ele>
        <time>2019-10-25T09:07:23.000Z</time>
      </trkpt>
      <trkpt lat="38.2047262229025363922119140625" lon="-0.62562885694205760955810546875">
        <ele>4.19999980926513671875</ele>
        <time>2019-10-25T09:07:27.000Z</time>
      </trkpt>
      <trkpt lat="38.204706944525241851806640625" lon="-0.6258966587483882904052734375">
        <ele>3.400000095367431640625</ele>
        <time>2019-10-25T09:07:31.000Z</time>
      </trkpt>
      <trkpt lat="38.20469361729919910430908203125" lon="-0.6261531449854373931884765625">
        <ele>4.19999980926513671875</ele>
        <time>2019-10-25T09:07:35.000Z</time>
      </trkpt>
      <trkpt lat="38.2046839781105518341064453125" lon="-0.62641507945954799652099609375">
        <ele>5.19999980926513671875</ele>
        <time>2019-10-25T09:07:39.000Z</time>
      </trkpt>
      <trkpt lat="38.20467869751155376434326171875" lon="-0.62666838057339191436767578125">
        <ele>6</ele>
        <time>2019-10-25T09:07:43.000Z</time>
      </trkpt>
      <trkpt lat="38.204674758017063140869140625" lon="-0.62690659426152706146240234375">
        <ele>6.80000019073486328125</ele>
        <time>2019-10-25T09:07:47.000Z</time>
      </trkpt>
      <trkpt lat="38.2046730816364288330078125" lon="-0.62714195810258388519287109375">
        <ele>7.599999904632568359375</ele>
        <time>2019-10-25T09:07:51.000Z</time>
      </trkpt>
      <trkpt lat="38.20467802695930004119873046875" lon="-0.62738142907619476318359375">
        <ele>7.400000095367431640625</ele>
        <time>2019-10-25T09:07:55.000Z</time>
      </trkpt>
      <trkpt lat="38.20468540303409099578857421875" lon="-0.6276387535035610198974609375">
        <ele>7.19999980926513671875</ele>
        <time>2019-10-25T09:07:59.000Z</time>
      </trkpt>
      <trkpt lat="38.20469512604176998138427734375" lon="-0.62788845039904117584228515625">
        <ele>6.400000095367431640625</ele>
        <time>2019-10-25T09:08:03.000Z</time>
      </trkpt>
      <trkpt lat="38.204696215689182281494140625" lon="-0.6281262449920177459716796875">
        <ele>5</ele>
        <time>2019-10-25T09:08:07.000Z</time>
      </trkpt>
      <trkpt lat="38.204694204032421112060546875" lon="-0.62837108038365840911865234375">
        <ele>4.19999980926513671875</ele>
        <time>2019-10-25T09:08:11.000Z</time>
      </trkpt>
      <trkpt lat="38.20469663478434085845947265625" lon="-0.62860359437763690948486328125">
        <ele>5</ele>
        <time>2019-10-25T09:08:16.000Z</time>
      </trkpt>
      <trkpt lat="38.20469344966113567352294921875" lon="-0.62883074395358562469482421875">
        <ele>5</ele>
        <time>2019-10-25T09:08:22.000Z</time>
      </trkpt>
      <trkpt lat="38.2046878337860107421875" lon="-0.6289386190474033355712890625">
        <ele>5.19999980926513671875</ele>
        <time>2019-10-25T09:08:25.000Z</time>
      </trkpt>
      <trkpt lat="38.20478816516697406768798828125" lon="-0.629133246839046478271484375">
        <ele>5.599999904632568359375</ele>
        <time>2019-10-25T09:08:31.000Z</time>
      </trkpt>
      <trkpt lat="38.2048100419342517852783203125" lon="-0.62917892821133136749267578125">
        <ele>5.599999904632568359375</ele>
        <time>2019-10-25T09:08:32.000Z</time>
      </trkpt>
      <trkpt lat="38.20483895950019359588623046875" lon="-0.6294080056250095367431640625">
        <ele>6.400000095367431640625</ele>
        <time>2019-10-25T09:08:36.000Z</time>
      </trkpt>
      <trkpt lat="38.20483812130987644195556640625" lon="-0.62946709804236888885498046875">
        <ele>6.599999904632568359375</ele>
        <time>2019-10-25T09:08:37.000Z</time>
      </trkpt>
      <trkpt lat="38.2048345170915126800537109375" lon="-0.629705898463726043701171875">
        <ele>7.400000095367431640625</ele>
        <time>2019-10-25T09:08:41.000Z</time>
      </trkpt>
      <trkpt lat="38.20483007468283176422119140625" lon="-0.62988066114485263824462890625">
        <ele>7.599999904632568359375</ele>
        <time>2019-10-25T09:08:44.000Z</time>
      </trkpt>
      <trkpt lat="38.20478280074894428253173828125" lon="-0.63015055842697620391845703125">
        <ele>8.80000019073486328125</ele>
        <time>2019-10-25T09:08:49.000Z</time>
      </trkpt>
      <trkpt lat="38.2047218643128871917724609375" lon="-0.63041207380592823028564453125">
        <ele>9.80000019073486328125</ele>
        <time>2019-10-25T09:08:54.000Z</time>
      </trkpt>
      <trkpt lat="38.20466310717165470123291015625" lon="-0.63067442737519741058349609375">
        <ele>10.19999980926513671875</ele>
        <time>2019-10-25T09:08:59.000Z</time>
      </trkpt>
      <trkpt lat="38.204610385000705718994140625" lon="-0.6308983080089092254638671875">
        <ele>10.6000003814697265625</ele>
        <time>2019-10-25T09:09:03.000Z</time>
      </trkpt>
      <trkpt lat="38.20455397479236125946044921875" lon="-0.63112855888903141021728515625">
        <ele>9.3999996185302734375</ele>
        <time>2019-10-25T09:09:07.000Z</time>
      </trkpt>
      <trkpt lat="38.204497732222080230712890625" lon="-0.6313665211200714111328125">
        <ele>8.6000003814697265625</ele>
        <time>2019-10-25T09:09:11.000Z</time>
      </trkpt>
      <trkpt lat="38.2044439204037189483642578125" lon="-0.63160833902657032012939453125">
        <ele>7.599999904632568359375</ele>
        <time>2019-10-25T09:09:15.000Z</time>
      </trkpt>
      <trkpt lat="38.20439019240438938140869140625" lon="-0.63188125379383563995361328125">
        <ele>6.599999904632568359375</ele>
        <time>2019-10-25T09:09:20.000Z</time>
      </trkpt>
      <trkpt lat="38.20433604530990123748779296875" lon="-0.63211376778781414031982421875">
        <ele>5.80000019073486328125</ele>
        <time>2019-10-25T09:09:24.000Z</time>
      </trkpt>
      <trkpt lat="38.20429044775664806365966796875" lon="-0.63234477303922176361083984375">
        <ele>5.599999904632568359375</ele>
        <time>2019-10-25T09:09:28.000Z</time>
      </trkpt>
      <trkpt lat="38.2042504660785198211669921875" lon="-0.63256856985390186309814453125">
        <ele>5.599999904632568359375</ele>
        <time>2019-10-25T09:09:32.000Z</time>
      </trkpt>
      <trkpt lat="38.204201348125934600830078125" lon="-0.632842741906642913818359375">
        <ele>4.400000095367431640625</ele>
        <time>2019-10-25T09:09:37.000Z</time>
      </trkpt>
      <trkpt lat="38.20416253991425037384033203125" lon="-0.63306611962616443634033203125">
        <ele>4</ele>
        <time>2019-10-25T09:09:41.000Z</time>
      </trkpt>
      <trkpt lat="38.20412280969321727752685546875" lon="-0.633296035230159759521484375">
        <ele>4.80000019073486328125</ele>
        <time>2019-10-25T09:09:45.000Z</time>
      </trkpt>
      <trkpt lat="38.2040831632912158966064453125" lon="-0.63352494500577449798583984375">
        <ele>5.599999904632568359375</ele>
        <time>2019-10-25T09:09:49.000Z</time>
      </trkpt>
      <trkpt lat="38.2040409184992313385009765625" lon="-0.6337551958858966827392578125">
        <ele>6</ele>
        <time>2019-10-25T09:09:53.000Z</time>
      </trkpt>
      <trkpt lat="38.2040025293827056884765625" lon="-0.6339838542044162750244140625">
        <ele>5.400000095367431640625</ele>
        <time>2019-10-25T09:09:57.000Z</time>
      </trkpt>
      <trkpt lat="38.2039661519229412078857421875" lon="-0.63420807011425495147705078125">
        <ele>5.400000095367431640625</ele>
        <time>2019-10-25T09:10:01.000Z</time>
      </trkpt>
      <trkpt lat="38.20392801426351070404052734375" lon="-0.63444125466048717498779296875">
        <ele>5.599999904632568359375</ele>
        <time>2019-10-25T09:10:05.000Z</time>
      </trkpt>
      <trkpt lat="38.20388493128120899200439453125" lon="-0.63467527739703655242919921875">
        <ele>6.400000095367431640625</ele>
        <time>2019-10-25T09:10:09.000Z</time>
      </trkpt>
      <trkpt lat="38.203842602670192718505859375" lon="-0.63491600565612316131591796875">
        <ele>7.400000095367431640625</ele>
        <time>2019-10-25T09:10:13.000Z</time>
      </trkpt>
      <trkpt lat="38.2037981785833835601806640625" lon="-0.635152794420719146728515625">
        <ele>8.3999996185302734375</ele>
        <time>2019-10-25T09:10:17.000Z</time>
      </trkpt>
      <trkpt lat="38.20375266484916210174560546875" lon="-0.63538673333823680877685546875">
        <ele>9</ele>
        <time>2019-10-25T09:10:21.000Z</time>
      </trkpt>
      <trkpt lat="38.2037244178354740142822265625" lon="-0.635614134371280670166015625">
        <ele>9</ele>
        <time>2019-10-25T09:10:25.000Z</time>
      </trkpt>
      <trkpt lat="38.20369332097470760345458984375" lon="-0.6358432956039905548095703125">
        <ele>9</ele>
        <time>2019-10-25T09:10:29.000Z</time>
      </trkpt>
      <trkpt lat="38.20364604704082012176513671875" lon="-0.6361245922744274139404296875">
        <ele>8</ele>
        <time>2019-10-25T09:10:34.000Z</time>
      </trkpt>
      <trkpt lat="38.203606568276882171630859375" lon="-0.636360459029674530029296875">
        <ele>7.19999980926513671875</ele>
        <time>2019-10-25T09:10:38.000Z</time>
      </trkpt>
      <trkpt lat="38.2035715319216251373291015625" lon="-0.6366097368299961090087890625">
        <ele>7</ele>
        <time>2019-10-25T09:10:42.000Z</time>
      </trkpt>
      <trkpt lat="38.20353741757571697235107421875" lon="-0.63686043955385684967041015625">
        <ele>7</ele>
        <time>2019-10-25T09:10:46.000Z</time>
      </trkpt>
      <trkpt lat="38.20349919609725475311279296875" lon="-0.63711038790643215179443359375">
        <ele>7.19999980926513671875</ele>
        <time>2019-10-25T09:10:50.000Z</time>
      </trkpt>
      <trkpt lat="38.20346164517104625701904296875" lon="-0.637360252439975738525390625">
        <ele>7.400000095367431640625</ele>
        <time>2019-10-25T09:10:54.000Z</time>
      </trkpt>
      <trkpt lat="38.2034273631870746612548828125" lon="-0.6376068480312824249267578125">
        <ele>7.80000019073486328125</ele>
        <time>2019-10-25T09:10:58.000Z</time>
      </trkpt>
      <trkpt lat="38.2033901475369930267333984375" lon="-0.6378489173948764801025390625">
        <ele>7.80000019073486328125</ele>
        <time>2019-10-25T09:11:02.000Z</time>
      </trkpt>
      <trkpt lat="38.203360140323638916015625" lon="-0.63809526152908802032470703125">
        <ele>7.19999980926513671875</ele>
        <time>2019-10-25T09:11:06.000Z</time>
      </trkpt>
      <trkpt lat="38.20333993993699550628662109375" lon="-0.63833825290203094482421875">
        <ele>6.80000019073486328125</ele>
        <time>2019-10-25T09:11:10.000Z</time>
      </trkpt>
      <trkpt lat="38.203334994614124298095703125" lon="-0.63858560286462306976318359375">
        <ele>6.599999904632568359375</ele>
        <time>2019-10-25T09:11:14.000Z</time>
      </trkpt>
      <trkpt lat="38.20335536263883113861083984375" lon="-0.6388312764465808868408203125">
        <ele>6.80000019073486328125</ele>
        <time>2019-10-25T09:11:18.000Z</time>
      </trkpt>
      <trkpt lat="38.2033909857273101806640625" lon="-0.63906923867762088775634765625">
        <ele>7</ele>
        <time>2019-10-25T09:11:22.000Z</time>
      </trkpt>
      <trkpt lat="38.2034384272992610931396484375" lon="-0.63930108211934566497802734375">
        <ele>6.599999904632568359375</ele>
        <time>2019-10-25T09:11:26.000Z</time>
      </trkpt>
      <trkpt lat="38.2034947536885738372802734375" lon="-0.639537535607814788818359375">
        <ele>7</ele>
        <time>2019-10-25T09:11:30.000Z</time>
      </trkpt>
      <trkpt lat="38.20355367846786975860595703125" lon="-0.639775581657886505126953125">
        <ele>7.19999980926513671875</ele>
        <time>2019-10-25T09:11:34.000Z</time>
      </trkpt>
      <trkpt lat="38.203604556620121002197265625" lon="-0.6400137953460216522216796875">
        <ele>8</ele>
        <time>2019-10-25T09:11:38.000Z</time>
      </trkpt>
      <trkpt lat="38.20363330654799938201904296875" lon="-0.64026047475636005401611328125">
        <ele>7.19999980926513671875</ele>
        <time>2019-10-25T09:11:42.000Z</time>
      </trkpt>
      <trkpt lat="38.20363783277571201324462890625" lon="-0.64050623215734958648681640625">
        <ele>6.400000095367431640625</ele>
        <time>2019-10-25T09:11:46.000Z</time>
      </trkpt>
      <trkpt lat="38.2036359049379825592041015625" lon="-0.640566162765026092529296875">
        <ele>6.19999980926513671875</ele>
        <time>2019-10-25T09:11:47.000Z</time>
      </trkpt>
      <trkpt lat="38.20361268706619739532470703125" lon="-0.64080814830958843231201171875">
        <ele>6</ele>
        <time>2019-10-25T09:11:51.000Z</time>
      </trkpt>
      <trkpt lat="38.2035705260932445526123046875" lon="-0.641047954559326171875">
        <ele>6.80000019073486328125</ele>
        <time>2019-10-25T09:11:55.000Z</time>
      </trkpt>
      <trkpt lat="38.2035291194915771484375" lon="-0.64129044301807880401611328125">
        <ele>7.599999904632568359375</ele>
        <time>2019-10-25T09:11:59.000Z</time>
      </trkpt>
      <trkpt lat="38.20349399931728839874267578125" lon="-0.64153200946748256683349609375">
        <ele>8.3999996185302734375</ele>
        <time>2019-10-25T09:12:03.000Z</time>
      </trkpt>
      <trkpt lat="38.20347388274967670440673828125" lon="-0.6417780183255672454833984375">
        <ele>9.19999980926513671875</ele>
        <time>2019-10-25T09:12:07.000Z</time>
      </trkpt>
      <trkpt lat="38.2034692727029323577880859375" lon="-0.642015226185321807861328125">
        <ele>9.19999980926513671875</ele>
        <time>2019-10-25T09:12:11.000Z</time>
      </trkpt>
      <trkpt lat="38.20349894464015960693359375" lon="-0.64224866218864917755126953125">
        <ele>8.19999980926513671875</ele>
        <time>2019-10-25T09:12:15.000Z</time>
      </trkpt>
      <trkpt lat="38.20353708229959011077880859375" lon="-0.64247430302202701568603515625">
        <ele>8</ele>
        <time>2019-10-25T09:12:19.000Z</time>
      </trkpt>
      <trkpt lat="38.20357865653932094573974609375" lon="-0.64270698465406894683837890625">
        <ele>9.19999980926513671875</ele>
        <time>2019-10-25T09:12:23.000Z</time>
      </trkpt>
      <trkpt lat="38.20362190715968608856201171875" lon="-0.6429531611502170562744140625">
        <ele>10</ele>
        <time>2019-10-25T09:12:27.000Z</time>
      </trkpt>
      <trkpt lat="38.203661553561687469482421875" lon="-0.6431972421705722808837890625">
        <ele>10.80000019073486328125</ele>
        <time>2019-10-25T09:12:31.000Z</time>
      </trkpt>
      <trkpt lat="38.2036851905286312103271484375" lon="-0.643438138067722320556640625">
        <ele>10.80000019073486328125</ele>
        <time>2019-10-25T09:12:35.000Z</time>
      </trkpt>
      <trkpt lat="38.20369876921176910400390625" lon="-0.64368548803031444549560546875">
        <ele>10</ele>
        <time>2019-10-25T09:12:39.000Z</time>
      </trkpt>
      <trkpt lat="38.20369248278439044952392578125" lon="-0.6439321674406528472900390625">
        <ele>10</ele>
        <time>2019-10-25T09:12:43.000Z</time>
      </trkpt>
      <trkpt lat="38.20367856882512569427490234375" lon="-0.64411447383463382720947265625">
        <ele>10.19999980926513671875</ele>
        <time>2019-10-25T09:12:46.000Z</time>
      </trkpt>
      <trkpt lat="38.20364453829824924468994140625" lon="-0.64435386098921298980712890625">
        <ele>11</ele>
        <time>2019-10-25T09:12:50.000Z</time>
      </trkpt>
      <trkpt lat="38.2035960070788860321044921875" lon="-0.6445862911641597747802734375">
        <ele>11.3999996185302734375</ele>
        <time>2019-10-25T09:12:54.000Z</time>
      </trkpt>
      <trkpt lat="38.203540183603763580322265625" lon="-0.64481536857783794403076171875">
        <ele>12.19999980926513671875</ele>
        <time>2019-10-25T09:12:58.000Z</time>
      </trkpt>
      <trkpt lat="38.20347882807254791259765625" lon="-0.645048134028911590576171875">
        <ele>12.3999996185302734375</ele>
        <time>2019-10-25T09:13:02.000Z</time>
      </trkpt>
      <trkpt lat="38.20341738872230052947998046875" lon="-0.64528877846896648406982421875">
        <ele>11</ele>
        <time>2019-10-25T09:13:06.000Z</time>
      </trkpt>
      <trkpt lat="38.20334932766854763031005859375" lon="-0.6455287523567676544189453125">
        <ele>10</ele>
        <time>2019-10-25T09:13:10.000Z</time>
      </trkpt>
      <trkpt lat="38.2032939232885837554931640625" lon="-0.6457793712615966796875">
        <ele>10</ele>
        <time>2019-10-25T09:13:14.000Z</time>
      </trkpt>
      <trkpt lat="38.20326785556972026824951171875" lon="-0.6460397131741046905517578125">
        <ele>10.6000003814697265625</ele>
        <time>2019-10-25T09:13:18.000Z</time>
      </trkpt>
      <trkpt lat="38.20325561799108982086181640625" lon="-0.64631204120814800262451171875">
        <ele>10.3999996185302734375</ele>
        <time>2019-10-25T09:13:22.000Z</time>
      </trkpt>
      <trkpt lat="38.2032503373920917510986328125" lon="-0.64658847637474536895751953125">
        <ele>10</ele>
        <time>2019-10-25T09:13:26.000Z</time>
      </trkpt>
      <trkpt lat="38.203254528343677520751953125" lon="-0.646867342293262481689453125">
        <ele>10</ele>
        <time>2019-10-25T09:13:30.000Z</time>
      </trkpt>
      <trkpt lat="38.20326483808457851409912109375" lon="-0.647142268717288970947265625">
        <ele>10</ele>
        <time>2019-10-25T09:13:34.000Z</time>
      </trkpt>
      <trkpt lat="38.2032687775790691375732421875" lon="-0.647407472133636474609375">
        <ele>10.6000003814697265625</ele>
        <time>2019-10-25T09:13:38.000Z</time>
      </trkpt>
      <trkpt lat="38.2032600603997707366943359375" lon="-0.64767611213028430938720703125">
        <ele>11</ele>
        <time>2019-10-25T09:13:42.000Z</time>
      </trkpt>
      <trkpt lat="38.20323214866220951080322265625" lon="-0.64793947152793407440185546875">
        <ele>11</ele>
        <time>2019-10-25T09:13:46.000Z</time>
      </trkpt>
      <trkpt lat="38.2031844556331634521484375" lon="-0.64820903353393077850341796875">
        <ele>10.6000003814697265625</ele>
        <time>2019-10-25T09:13:50.000Z</time>
      </trkpt>
      <trkpt lat="38.20313206873834133148193359375" lon="-0.64847742207348346710205078125">
        <ele>10</ele>
        <time>2019-10-25T09:13:54.000Z</time>
      </trkpt>
      <trkpt lat="38.20308295078575611114501953125" lon="-0.64874949865043163299560546875">
        <ele>9.19999980926513671875</ele>
        <time>2019-10-25T09:13:58.000Z</time>
      </trkpt>
      <trkpt lat="38.20304087363183498382568359375" lon="-0.64901855774223804473876953125">
        <ele>9</ele>
        <time>2019-10-25T09:14:02.000Z</time>
      </trkpt>
      <trkpt lat="38.20299728773534297943115234375" lon="-0.6492831744253635406494140625">
        <ele>9.3999996185302734375</ele>
        <time>2019-10-25T09:14:06.000Z</time>
      </trkpt>
      <trkpt lat="38.202956803143024444580078125" lon="-0.649540834128856658935546875">
        <ele>10.19999980926513671875</ele>
        <time>2019-10-25T09:14:10.000Z</time>
      </trkpt>
      <trkpt lat="38.20291833020746707916259765625" lon="-0.64979220740497112274169921875">
        <ele>11</ele>
        <time>2019-10-25T09:14:14.000Z</time>
      </trkpt>
      <trkpt lat="38.20287826471030712127685546875" lon="-0.65004207193851470947265625">
        <ele>11</ele>
        <time>2019-10-25T09:14:18.000Z</time>
      </trkpt>
      <trkpt lat="38.20283769629895687103271484375" lon="-0.650293193757534027099609375">
        <ele>10.6000003814697265625</ele>
        <time>2019-10-25T09:14:22.000Z</time>
      </trkpt>
      <trkpt lat="38.2027967087924480438232421875" lon="-0.6505429744720458984375">
        <ele>8.80000019073486328125</ele>
        <time>2019-10-25T09:14:26.000Z</time>
      </trkpt>
      <trkpt lat="38.20275739766657352447509765625" lon="-0.65078697167336940765380859375">
        <ele>8.19999980926513671875</ele>
        <time>2019-10-25T09:14:30.000Z</time>
      </trkpt>
      <trkpt lat="38.20271632634103298187255859375" lon="-0.6510356627404689788818359375">
        <ele>8.6000003814697265625</ele>
        <time>2019-10-25T09:14:34.000Z</time>
      </trkpt>
      <trkpt lat="38.20267491973936557769775390625" lon="-0.65128988586366176605224609375">
        <ele>10.19999980926513671875</ele>
        <time>2019-10-25T09:14:38.000Z</time>
      </trkpt>
      <trkpt lat="38.20263284258544445037841796875" lon="-0.65154519863426685333251953125">
        <ele>11.3999996185302734375</ele>
        <time>2019-10-25T09:14:42.000Z</time>
      </trkpt>
      <trkpt lat="38.20259881205856800079345703125" lon="-0.651800930500030517578125">
        <ele>11.6000003814697265625</ele>
        <time>2019-10-25T09:14:46.000Z</time>
      </trkpt>
      <trkpt lat="38.2025824673473834991455078125" lon="-0.6520552374422550201416015625">
        <ele>10.80000019073486328125</ele>
        <time>2019-10-25T09:14:50.000Z</time>
      </trkpt>
      <trkpt lat="38.20258037187159061431884765625" lon="-0.65231398679316043853759765625">
        <ele>10.6000003814697265625</ele>
        <time>2019-10-25T09:14:54.000Z</time>
      </trkpt>
      <trkpt lat="38.2025858201086521148681640625" lon="-0.6525769270956516265869140625">
        <ele>10.80000019073486328125</ele>
        <time>2019-10-25T09:14:58.000Z</time>
      </trkpt>
      <trkpt lat="38.20259244181215763092041015625" lon="-0.65283752046525478363037109375">
        <ele>12.3999996185302734375</ele>
        <time>2019-10-25T09:15:02.000Z</time>
      </trkpt>
      <trkpt lat="38.2025985606014728546142578125" lon="-0.65310113131999969482421875">
        <ele>13.3999996185302734375</ele>
        <time>2019-10-25T09:15:06.000Z</time>
      </trkpt>
      <trkpt lat="38.2026032544672489166259765625" lon="-0.65337094478309154510498046875">
        <ele>14.6000003814697265625</ele>
        <time>2019-10-25T09:15:10.000Z</time>
      </trkpt>
      <trkpt lat="38.20260819979012012481689453125" lon="-0.6536404229700565338134765625">
        <ele>13.80000019073486328125</ele>
        <time>2019-10-25T09:15:14.000Z</time>
      </trkpt>
      <trkpt lat="38.2026012428104877471923828125" lon="-0.6539073027670383453369140625">
        <ele>13</ele>
        <time>2019-10-25T09:15:18.000Z</time>
      </trkpt>
      <trkpt lat="38.20257316343486309051513671875" lon="-0.6541731767356395721435546875">
        <ele>13.3999996185302734375</ele>
        <time>2019-10-25T09:15:22.000Z</time>
      </trkpt>
      <trkpt lat="38.2025221176445484161376953125" lon="-0.6544360332190990447998046875">
        <ele>15.19999980926513671875</ele>
        <time>2019-10-25T09:15:26.000Z</time>
      </trkpt>
      <trkpt lat="38.20244072936475276947021484375" lon="-0.65468338318169116973876953125">
        <ele>15.19999980926513671875</ele>
        <time>2019-10-25T09:15:30.000Z</time>
      </trkpt>
      <trkpt lat="38.20234551094472408294677734375" lon="-0.6549218483269214630126953125">
        <ele>14.3999996185302734375</ele>
        <time>2019-10-25T09:15:34.000Z</time>
      </trkpt>
      <trkpt lat="38.202248699963092803955078125" lon="-0.65516165457665920257568359375">
        <ele>14</ele>
        <time>2019-10-25T09:15:38.000Z</time>
      </trkpt>
      <trkpt lat="38.20215708576142787933349609375" lon="-0.65539467148482799530029296875">
        <ele>14</ele>
        <time>2019-10-25T09:15:42.000Z</time>
      </trkpt>
      <trkpt lat="38.202067315578460693359375" lon="-0.65562852658331394195556640625">
        <ele>13.80000019073486328125</ele>
        <time>2019-10-25T09:15:46.000Z</time>
      </trkpt>
      <trkpt lat="38.20197352208197116851806640625" lon="-0.655853413045406341552734375">
        <ele>13.6000003814697265625</ele>
        <time>2019-10-25T09:15:50.000Z</time>
      </trkpt>
      <trkpt lat="38.20188551209867000579833984375" lon="-0.6560792215168476104736328125">
        <ele>14</ele>
        <time>2019-10-25T09:15:54.000Z</time>
      </trkpt>
      <trkpt lat="38.20179834030568599700927734375" lon="-0.65630595199763774871826171875">
        <ele>14.80000019073486328125</ele>
        <time>2019-10-25T09:15:58.000Z</time>
      </trkpt>
      <trkpt lat="38.2017117552459239959716796875" lon="-0.6565425731241703033447265625">
        <ele>15.19999980926513671875</ele>
        <time>2019-10-25T09:16:02.000Z</time>
      </trkpt>
      <trkpt lat="38.20163749158382415771484375" lon="-0.65677978098392486572265625">
        <ele>14.80000019073486328125</ele>
        <time>2019-10-25T09:16:06.000Z</time>
      </trkpt>
      <trkpt lat="38.20157672278583049774169921875" lon="-0.657019503414630889892578125">
        <ele>13.80000019073486328125</ele>
        <time>2019-10-25T09:16:10.000Z</time>
      </trkpt>
      <trkpt lat="38.2015297003090381622314453125" lon="-0.6572644226253032684326171875">
        <ele>13</ele>
        <time>2019-10-25T09:16:14.000Z</time>
      </trkpt>
      <trkpt lat="38.20148988626897335052490234375" lon="-0.65751931630074977874755859375">
        <ele>13</ele>
        <time>2019-10-25T09:16:18.000Z</time>
      </trkpt>
      <trkpt lat="38.20145099423825740814208984375" lon="-0.657773874700069427490234375">
        <ele>12.6000003814697265625</ele>
        <time>2019-10-25T09:16:22.000Z</time>
      </trkpt>
      <trkpt lat="38.20141377858817577362060546875" lon="-0.6580295227468013763427734375">
        <ele>13.19999980926513671875</ele>
        <time>2019-10-25T09:16:26.000Z</time>
      </trkpt>
      <trkpt lat="38.2013858668506145477294921875" lon="-0.65828961320221424102783203125">
        <ele>14</ele>
        <time>2019-10-25T09:16:30.000Z</time>
      </trkpt>
      <trkpt lat="38.20137404836714267730712890625" lon="-0.658555068075656890869140625">
        <ele>14.19999980926513671875</ele>
        <time>2019-10-25T09:16:34.000Z</time>
      </trkpt>
      <trkpt lat="38.20137999951839447021484375" lon="-0.65881867893040180206298828125">
        <ele>14</ele>
        <time>2019-10-25T09:16:38.000Z</time>
      </trkpt>
      <trkpt lat="38.20140011608600616455078125" lon="-0.6590765900909900665283203125">
        <ele>13.3999996185302734375</ele>
        <time>2019-10-25T09:16:42.000Z</time>
      </trkpt>
      <trkpt lat="38.20142920129001140594482421875" lon="-0.65933483652770519256591796875">
        <ele>13.6000003814697265625</ele>
        <time>2019-10-25T09:16:46.000Z</time>
      </trkpt>
      <trkpt lat="38.201458789408206939697265625" lon="-0.65958981402218341827392578125">
        <ele>13.3999996185302734375</ele>
        <time>2019-10-25T09:16:50.000Z</time>
      </trkpt>
      <trkpt lat="38.20148368366062641143798828125" lon="-0.65984420478343963623046875">
        <ele>13.3999996185302734375</ele>
        <time>2019-10-25T09:16:54.000Z</time>
      </trkpt>
      <trkpt lat="38.20149122737348079681396484375" lon="-0.660105384886264801025390625">
        <ele>13.3999996185302734375</ele>
        <time>2019-10-25T09:16:58.000Z</time>
      </trkpt>
      <trkpt lat="38.20148234255611896514892578125" lon="-0.660365559160709381103515625">
        <ele>14</ele>
        <time>2019-10-25T09:17:02.000Z</time>
      </trkpt>
      <trkpt lat="38.20145912468433380126953125" lon="-0.6606232188642024993896484375">
        <ele>14.6000003814697265625</ele>
        <time>2019-10-25T09:17:06.000Z</time>
      </trkpt>
      <trkpt lat="38.201433308422565460205078125" lon="-0.66088146530091762542724609375">
        <ele>14.3999996185302734375</ele>
        <time>2019-10-25T09:17:10.000Z</time>
      </trkpt>
      <trkpt lat="38.20140338502824306488037109375" lon="-0.66114465706050395965576171875">
        <ele>14.3999996185302734375</ele>
        <time>2019-10-25T09:17:14.000Z</time>
      </trkpt>
      <trkpt lat="38.20137052796781063079833984375" lon="-0.66140667535364627838134765625">
        <ele>14.19999980926513671875</ele>
        <time>2019-10-25T09:17:18.000Z</time>
      </trkpt>
      <trkpt lat="38.201330713927745819091796875" lon="-0.661660395562648773193359375">
        <ele>15</ele>
        <time>2019-10-25T09:17:22.000Z</time>
      </trkpt>
      <trkpt lat="38.2012913189828395843505859375" lon="-0.66191160120069980621337890625">
        <ele>15</ele>
        <time>2019-10-25T09:17:26.000Z</time>
      </trkpt>
      <trkpt lat="38.201253600418567657470703125" lon="-0.662164650857448577880859375">
        <ele>15.19999980926513671875</ele>
        <time>2019-10-25T09:17:30.000Z</time>
      </trkpt>
      <trkpt lat="38.20121143944561481475830078125" lon="-0.6624189577996730804443359375">
        <ele>15.6000003814697265625</ele>
        <time>2019-10-25T09:17:34.000Z</time>
      </trkpt>
      <trkpt lat="38.201171457767486572265625" lon="-0.66266781650483608245849609375">
        <ele>15.6000003814697265625</ele>
        <time>2019-10-25T09:17:38.000Z</time>
      </trkpt>
      <trkpt lat="38.2011414505541324615478515625" lon="-0.66285456530749797821044921875">
        <ele>15</ele>
        <time>2019-10-25T09:17:41.000Z</time>
      </trkpt>
      <trkpt lat="38.20110683329403400421142578125" lon="-0.663105435669422149658203125">
        <ele>14.80000019073486328125</ele>
        <time>2019-10-25T09:17:45.000Z</time>
      </trkpt>
      <trkpt lat="38.201077915728092193603515625" lon="-0.663356222212314605712890625">
        <ele>14.80000019073486328125</ele>
        <time>2019-10-25T09:17:49.000Z</time>
      </trkpt>
      <trkpt lat="38.20105017162859439849853515625" lon="-0.663612373173236846923828125">
        <ele>15</ele>
        <time>2019-10-25T09:17:53.000Z</time>
      </trkpt>
      <trkpt lat="38.20102301426231861114501953125" lon="-0.66387355327606201171875">
        <ele>15</ele>
        <time>2019-10-25T09:17:57.000Z</time>
      </trkpt>
      <trkpt lat="38.20099920965731143951416015625" lon="-0.66413816995918750762939453125">
        <ele>15.6000003814697265625</ele>
        <time>2019-10-25T09:18:01.000Z</time>
      </trkpt>
      <trkpt lat="38.200963251292705535888671875" lon="-0.66440932452678680419921875">
        <ele>16.3999996185302734375</ele>
        <time>2019-10-25T09:18:05.000Z</time>
      </trkpt>
      <trkpt lat="38.20093131624162197113037109375" lon="-0.664677880704402923583984375">
        <ele>16.6000003814697265625</ele>
        <time>2019-10-25T09:18:09.000Z</time>
      </trkpt>
      <trkpt lat="38.2008970342576503753662109375" lon="-0.66494467668235301971435546875">
        <ele>15.3999996185302734375</ele>
        <time>2019-10-25T09:18:13.000Z</time>
      </trkpt>
      <trkpt lat="38.20085738785564899444580078125" lon="-0.66520820371806621551513671875">
        <ele>14.19999980926513671875</ele>
        <time>2019-10-25T09:18:17.000Z</time>
      </trkpt>
      <trkpt lat="38.2008088566362857818603515625" lon="-0.66547675989568233489990234375">
        <ele>13.3999996185302734375</ele>
        <time>2019-10-25T09:18:21.000Z</time>
      </trkpt>
      <trkpt lat="38.20076216943562030792236328125" lon="-0.66573978401720523834228515625">
        <ele>13</ele>
        <time>2019-10-25T09:18:25.000Z</time>
      </trkpt>
      <trkpt lat="38.200719840824604034423828125" lon="-0.6659956835210323333740234375">
        <ele>13.3999996185302734375</ele>
        <time>2019-10-25T09:18:29.000Z</time>
      </trkpt>
      <trkpt lat="38.20068396627902984619140625" lon="-0.666253007948398590087890625">
        <ele>14.19999980926513671875</ele>
        <time>2019-10-25T09:18:33.000Z</time>
      </trkpt>
      <trkpt lat="38.2006455771625041961669921875" lon="-0.6665130145847797393798828125">
        <ele>14.3999996185302734375</ele>
        <time>2019-10-25T09:18:37.000Z</time>
      </trkpt>
      <trkpt lat="38.20060593076050281524658203125" lon="-0.66678106784820556640625">
        <ele>14.6000003814697265625</ele>
        <time>2019-10-25T09:18:41.000Z</time>
      </trkpt>
      <trkpt lat="38.2005624286830425262451171875" lon="-0.6670447625219821929931640625">
        <ele>14.3999996185302734375</ele>
        <time>2019-10-25T09:18:45.000Z</time>
      </trkpt>
      <trkpt lat="38.20051205344498157501220703125" lon="-0.6673072837293148040771484375">
        <ele>14</ele>
        <time>2019-10-25T09:18:49.000Z</time>
      </trkpt>
      <trkpt lat="38.20046343840658664703369140625" lon="-0.667567290365695953369140625">
        <ele>14</ele>
        <time>2019-10-25T09:18:53.000Z</time>
      </trkpt>
      <trkpt lat="38.20041465573012828826904296875" lon="-0.6678343378007411956787109375">
        <ele>15</ele>
        <time>2019-10-25T09:18:57.000Z</time>
      </trkpt>
      <trkpt lat="38.20036612451076507568359375" lon="-0.66810850985348224639892578125">
        <ele>15.3999996185302734375</ele>
        <time>2019-10-25T09:19:01.000Z</time>
      </trkpt>
      <trkpt lat="38.200320191681385040283203125" lon="-0.66838142462074756622314453125">
        <ele>16.6000003814697265625</ele>
        <time>2019-10-25T09:19:05.000Z</time>
      </trkpt>
      <trkpt lat="38.20027668960392475128173828125" lon="-0.66865702159702777862548828125">
        <ele>16.3999996185302734375</ele>
        <time>2019-10-25T09:19:09.000Z</time>
      </trkpt>
      <trkpt lat="38.20023377425968647003173828125" lon="-0.66892608068883419036865234375">
        <ele>15.80000019073486328125</ele>
        <time>2019-10-25T09:19:13.000Z</time>
      </trkpt>
      <trkpt lat="38.20015951059758663177490234375" lon="-0.66919438540935516357421875">
        <ele>15</ele>
        <time>2019-10-25T09:19:17.000Z</time>
      </trkpt>
      <trkpt lat="38.20008491165935993194580078125" lon="-0.6694681383669376373291015625">
        <ele>14</ele>
        <time>2019-10-25T09:19:21.000Z</time>
      </trkpt>
      <trkpt lat="38.19999975152313709259033203125" lon="-0.669739544391632080078125">
        <ele>14.19999980926513671875</ele>
        <time>2019-10-25T09:19:25.000Z</time>
      </trkpt>
      <trkpt lat="38.19991140626370906829833984375" lon="-0.6700050830841064453125">
        <ele>14.80000019073486328125</ele>
        <time>2019-10-25T09:19:29.000Z</time>
      </trkpt>
      <trkpt lat="38.1998107396066188812255859375" lon="-0.6702620722353458404541015625">
        <ele>14.6000003814697265625</ele>
        <time>2019-10-25T09:19:33.000Z</time>
      </trkpt>
      <trkpt lat="38.19970135577023029327392578125" lon="-0.67051696591079235076904296875">
        <ele>14.80000019073486328125</ele>
        <time>2019-10-25T09:19:37.000Z</time>
      </trkpt>
      <trkpt lat="38.1995876133441925048828125" lon="-0.6707643158733844757080078125">
        <ele>15.19999980926513671875</ele>
        <time>2019-10-25T09:19:41.000Z</time>
      </trkpt>
      <trkpt lat="38.1994722783565521240234375" lon="-0.67100621759891510009765625">
        <ele>15.6000003814697265625</ele>
        <time>2019-10-25T09:19:45.000Z</time>
      </trkpt>
      <trkpt lat="38.1993540935218334197998046875" lon="-0.67125004716217517852783203125">
        <ele>15.6000003814697265625</ele>
        <time>2019-10-25T09:19:49.000Z</time>
      </trkpt>
      <trkpt lat="38.1992421112954616546630859375" lon="-0.6714938767254352569580078125">
        <ele>14.80000019073486328125</ele>
        <time>2019-10-25T09:19:53.000Z</time>
      </trkpt>
      <trkpt lat="38.19913096725940704345703125" lon="-0.6717369519174098968505859375">
        <ele>14</ele>
        <time>2019-10-25T09:19:57.000Z</time>
      </trkpt>
      <trkpt lat="38.19903868250548839569091796875" lon="-0.67199016921222209930419921875">
        <ele>14.19999980926513671875</ele>
        <time>2019-10-25T09:20:01.000Z</time>
      </trkpt>
      <trkpt lat="38.19896626286208629608154296875" lon="-0.672250092029571533203125">
        <ele>15.80000019073486328125</ele>
        <time>2019-10-25T09:20:05.000Z</time>
      </trkpt>
      <trkpt lat="38.198907338082790374755859375" lon="-0.67250825464725494384765625">
        <ele>16.799999237060546875</ele>
        <time>2019-10-25T09:20:09.000Z</time>
      </trkpt>
      <trkpt lat="38.1988421268761157989501953125" lon="-0.67276247777044773101806640625">
        <ele>17.799999237060546875</ele>
        <time>2019-10-25T09:20:13.000Z</time>
      </trkpt>
      <trkpt lat="38.19875252433121204376220703125" lon="-0.673006139695644378662109375">
        <ele>17.799999237060546875</ele>
        <time>2019-10-25T09:20:17.000Z</time>
      </trkpt>
      <trkpt lat="38.19867490790784358978271484375" lon="-0.6731843389570713043212890625">
        <ele>17.6000003814697265625</ele>
        <time>2019-10-25T09:20:20.000Z</time>
      </trkpt>
      <trkpt lat="38.1985433958470821380615234375" lon="-0.673407129943370819091796875">
        <ele>17</ele>
        <time>2019-10-25T09:20:24.000Z</time>
      </trkpt>
      <trkpt lat="38.1984354369342327117919921875" lon="-0.6735672242939472198486328125">
        <ele>16.6000003814697265625</ele>
        <time>2019-10-25T09:20:27.000Z</time>
      </trkpt>
      <trkpt lat="38.198290430009365081787109375" lon="-0.6737816333770751953125">
        <ele>15.80000019073486328125</ele>
        <time>2019-10-25T09:20:31.000Z</time>
      </trkpt>
      <trkpt lat="38.1982201896607875823974609375" lon="-0.6738931126892566680908203125">
        <ele>15.19999980926513671875</ele>
        <time>2019-10-25T09:20:33.000Z</time>
      </trkpt>
      <trkpt lat="38.1980709917843341827392578125" lon="-0.6741013191640377044677734375">
        <ele>15</ele>
        <time>2019-10-25T09:20:37.000Z</time>
      </trkpt>
      <trkpt lat="38.19792506285011768341064453125" lon="-0.67431715317070484161376953125">
        <ele>14.6000003814697265625</ele>
        <time>2019-10-25T09:20:41.000Z</time>
      </trkpt>
      <trkpt lat="38.19778424687683582305908203125" lon="-0.6745368428528308868408203125">
        <ele>14.19999980926513671875</ele>
        <time>2019-10-25T09:20:45.000Z</time>
      </trkpt>
      <trkpt lat="38.1976488791406154632568359375" lon="-0.674756281077861785888671875">
        <ele>14.19999980926513671875</ele>
        <time>2019-10-25T09:20:49.000Z</time>
      </trkpt>
      <trkpt lat="38.19751518778502941131591796875" lon="-0.67497454583644866943359375">
        <ele>14.80000019073486328125</ele>
        <time>2019-10-25T09:20:53.000Z</time>
      </trkpt>
      <trkpt lat="38.19736733101308345794677734375" lon="-0.675198175013065338134765625">
        <ele>14.80000019073486328125</ele>
        <time>2019-10-25T09:20:57.000Z</time>
      </trkpt>
      <trkpt lat="38.1972287781536579132080078125" lon="-0.67542742006480693817138671875">
        <ele>14.3999996185302734375</ele>
        <time>2019-10-25T09:21:01.000Z</time>
      </trkpt>
      <trkpt lat="38.1970822624862194061279296875" lon="-0.6756556592881679534912109375">
        <ele>14</ele>
        <time>2019-10-25T09:21:05.000Z</time>
      </trkpt>
      <trkpt lat="38.19694136269390583038330078125" lon="-0.6758722476661205291748046875">
        <ele>13.80000019073486328125</ele>
        <time>2019-10-25T09:21:09.000Z</time>
      </trkpt>
      <trkpt lat="38.1968053244054317474365234375" lon="-0.6760874949395656585693359375">
        <ele>14.3999996185302734375</ele>
        <time>2019-10-25T09:21:13.000Z</time>
      </trkpt>
      <trkpt lat="38.1966626644134521484375" lon="-0.67630316130816936492919921875">
        <ele>15</ele>
        <time>2019-10-25T09:21:17.000Z</time>
      </trkpt>
      <trkpt lat="38.196520507335662841796875" lon="-0.67653165198862552642822265625">
        <ele>14.80000019073486328125</ele>
        <time>2019-10-25T09:21:21.000Z</time>
      </trkpt>
      <trkpt lat="38.1963875703513622283935546875" lon="-0.6767580471932888031005859375">
        <ele>14.19999980926513671875</ele>
        <time>2019-10-25T09:21:25.000Z</time>
      </trkpt>
      <trkpt lat="38.1962618418037891387939453125" lon="-0.67696281708776950836181640625">
        <ele>13.19999980926513671875</ele>
        <time>2019-10-25T09:21:29.000Z</time>
      </trkpt>
      <trkpt lat="38.196136951446533203125" lon="-0.67717990837991237640380859375">
        <ele>13</ele>
        <time>2019-10-25T09:21:33.000Z</time>
      </trkpt>
      <trkpt lat="38.1960167549550533294677734375" lon="-0.67740974016487598419189453125">
        <ele>13</ele>
        <time>2019-10-25T09:21:37.000Z</time>
      </trkpt>
      <trkpt lat="38.19589748047292232513427734375" lon="-0.67763253115117549896240234375">
        <ele>13.19999980926513671875</ele>
        <time>2019-10-25T09:21:41.000Z</time>
      </trkpt>
      <trkpt lat="38.19578918628394603729248046875" lon="-0.67785649560391902923583984375">
        <ele>13.80000019073486328125</ele>
        <time>2019-10-25T09:21:45.000Z</time>
      </trkpt>
      <trkpt lat="38.19567519240081310272216796875" lon="-0.6780843995511531829833984375">
        <ele>13.80000019073486328125</ele>
        <time>2019-10-25T09:21:49.000Z</time>
      </trkpt>
      <trkpt lat="38.19557226262986660003662109375" lon="-0.6783214397728443145751953125">
        <ele>13.3999996185302734375</ele>
        <time>2019-10-25T09:21:53.000Z</time>
      </trkpt>
      <trkpt lat="38.1955285929143428802490234375" lon="-0.67844205535948276519775390625">
        <ele>13.19999980926513671875</ele>
        <time>2019-10-25T09:21:55.000Z</time>
      </trkpt>
      <trkpt lat="38.1955051235854625701904296875" lon="-0.67870549857616424560546875">
        <ele>13.19999980926513671875</ele>
        <time>2019-10-25T09:21:59.000Z</time>
      </trkpt>
      <trkpt lat="38.19539288990199565887451171875" lon="-0.67893658764660358428955078125">
        <ele>13</ele>
        <time>2019-10-25T09:22:03.000Z</time>
      </trkpt>
      <trkpt lat="38.195283003151416778564453125" lon="-0.67899576388299465179443359375">
        <ele>13</ele>
        <time>2019-10-25T09:22:05.000Z</time>
      </trkpt>
      <trkpt lat="38.1952332146465778350830078125" lon="-0.67903348244726657867431640625">
        <ele>13</ele>
        <time>2019-10-25T09:22:06.000Z</time>
      </trkpt>
      <trkpt lat="38.19510354660451412200927734375" lon="-0.67928208969533443450927734375">
        <ele>13.3999996185302734375</ele>
        <time>2019-10-25T09:22:10.000Z</time>
      </trkpt>
      <trkpt lat="38.1950803287327289581298828125" lon="-0.67935325205326080322265625">
        <ele>13.3999996185302734375</ele>
        <time>2019-10-25T09:22:11.000Z</time>
      </trkpt>
      <trkpt lat="38.1950224936008453369140625" lon="-0.67957093007862567901611328125">
        <ele>13.6000003814697265625</ele>
        <time>2019-10-25T09:22:14.000Z</time>
      </trkpt>
      <trkpt lat="38.19494848139584064483642578125" lon="-0.67985926754772663116455078125">
        <ele>14</ele>
        <time>2019-10-25T09:22:18.000Z</time>
      </trkpt>
      <trkpt lat="38.19488813169300556182861328125" lon="-0.6801480241119861602783203125">
        <ele>14</ele>
        <time>2019-10-25T09:22:22.000Z</time>
      </trkpt>
      <trkpt lat="38.1948214955627918243408203125" lon="-0.68042990751564502716064453125">
        <ele>13.6000003814697265625</ele>
        <time>2019-10-25T09:22:26.000Z</time>
      </trkpt>
      <trkpt lat="38.1947489082813262939453125" lon="-0.6807042472064495086669921875">
        <ele>13</ele>
        <time>2019-10-25T09:22:30.000Z</time>
      </trkpt>
      <trkpt lat="38.19467221386730670928955078125" lon="-0.68098277784883975982666015625">
        <ele>12.19999980926513671875</ele>
        <time>2019-10-25T09:22:34.000Z</time>
      </trkpt>
      <trkpt lat="38.19457414560019969940185546875" lon="-0.68124999292194843292236328125">
        <ele>12</ele>
        <time>2019-10-25T09:22:38.000Z</time>
      </trkpt>
      <trkpt lat="38.1944697909057140350341796875" lon="-0.6815112568438053131103515625">
        <ele>12</ele>
        <time>2019-10-25T09:22:42.000Z</time>
      </trkpt>
      <trkpt lat="38.19435956887900829315185546875" lon="-0.681762881577014923095703125">
        <ele>12</ele>
        <time>2019-10-25T09:22:46.000Z</time>
      </trkpt>
      <trkpt lat="38.19425228051841259002685546875" lon="-0.682010985910892486572265625">
        <ele>12</ele>
        <time>2019-10-25T09:22:50.000Z</time>
      </trkpt>
      <trkpt lat="38.19415236823260784149169921875" lon="-0.68224735558032989501953125">
        <ele>11.19999980926513671875</ele>
        <time>2019-10-25T09:22:54.000Z</time>
      </trkpt>
      <trkpt lat="38.19404843263328075408935546875" lon="-0.682486407458782196044921875">
        <ele>11.80000019073486328125</ele>
        <time>2019-10-25T09:22:58.000Z</time>
      </trkpt>
      <trkpt lat="38.19394935853779315948486328125" lon="-0.6827209331095218658447265625">
        <ele>13</ele>
        <time>2019-10-25T09:23:02.000Z</time>
      </trkpt>
      <trkpt lat="38.1938559003174304962158203125" lon="-0.68295411765575408935546875">
        <ele>14.19999980926513671875</ele>
        <time>2019-10-25T09:23:06.000Z</time>
      </trkpt>
      <trkpt lat="38.193780966103076934814453125" lon="-0.68312401883304119110107421875">
        <ele>14.80000019073486328125</ele>
        <time>2019-10-25T09:23:09.000Z</time>
      </trkpt>
      <trkpt lat="38.19368205964565277099609375" lon="-0.68335552699863910675048828125">
        <ele>12.80000019073486328125</ele>
        <time>2019-10-25T09:23:13.000Z</time>
      </trkpt>
      <trkpt lat="38.19358323700726032257080078125" lon="-0.6835889630019664764404296875">
        <ele>12.19999980926513671875</ele>
        <time>2019-10-25T09:23:17.000Z</time>
      </trkpt>
      <trkpt lat="38.193483911454677581787109375" lon="-0.68381669931113719940185546875">
        <ele>12</ele>
        <time>2019-10-25T09:23:21.000Z</time>
      </trkpt>
      <trkpt lat="38.19337737746536731719970703125" lon="-0.68404351361095905303955078125">
        <ele>11.6000003814697265625</ele>
        <time>2019-10-25T09:23:25.000Z</time>
      </trkpt>
      <trkpt lat="38.19326522760093212127685546875" lon="-0.6842705793678760528564453125">
        <ele>11</ele>
        <time>2019-10-25T09:23:29.000Z</time>
      </trkpt>
      <trkpt lat="38.19314897060394287109375" lon="-0.68449613638222217559814453125">
        <ele>10.6000003814697265625</ele>
        <time>2019-10-25T09:23:33.000Z</time>
      </trkpt>
      <trkpt lat="38.1930294446647167205810546875" lon="-0.6847232021391391754150390625">
        <ele>11.80000019073486328125</ele>
        <time>2019-10-25T09:23:37.000Z</time>
      </trkpt>
      <trkpt lat="38.1929077394306659698486328125" lon="-0.6849558837711811065673828125">
        <ele>12.80000019073486328125</ele>
        <time>2019-10-25T09:23:41.000Z</time>
      </trkpt>
      <trkpt lat="38.19278351962566375732421875" lon="-0.685190744698047637939453125">
        <ele>12.6000003814697265625</ele>
        <time>2019-10-25T09:23:45.000Z</time>
      </trkpt>
      <trkpt lat="38.19266240112483501434326171875" lon="-0.685425102710723876953125">
        <ele>12</ele>
        <time>2019-10-25T09:23:49.000Z</time>
      </trkpt>
      <trkpt lat="38.1925422884523868560791015625" lon="-0.68565887399017810821533203125">
        <ele>12</ele>
        <time>2019-10-25T09:23:53.000Z</time>
      </trkpt>
      <trkpt lat="38.19242351688444614410400390625" lon="-0.68588652648031711578369140625">
        <ele>12</ele>
        <time>2019-10-25T09:23:57.000Z</time>
      </trkpt>
      <trkpt lat="38.19229535758495330810546875" lon="-0.68610881455242633819580078125">
        <ele>12</ele>
        <time>2019-10-25T09:24:01.000Z</time>
      </trkpt>
      <trkpt lat="38.19216233678162097930908203125" lon="-0.68632431328296661376953125">
        <ele>12</ele>
        <time>2019-10-25T09:24:05.000Z</time>
      </trkpt>
      <trkpt lat="38.1920262984931468963623046875" lon="-0.686535537242889404296875">
        <ele>12</ele>
        <time>2019-10-25T09:24:09.000Z</time>
      </trkpt>
      <trkpt lat="38.1918896734714508056640625" lon="-0.686743743717670440673828125">
        <ele>12</ele>
        <time>2019-10-25T09:24:13.000Z</time>
      </trkpt>
      <trkpt lat="38.19176201708614826202392578125" lon="-0.68695873953402042388916015625">
        <ele>12.6000003814697265625</ele>
        <time>2019-10-25T09:24:17.000Z</time>
      </trkpt>
      <trkpt lat="38.19164433516561985015869140625" lon="-0.687182284891605377197265625">
        <ele>12.80000019073486328125</ele>
        <time>2019-10-25T09:24:21.000Z</time>
      </trkpt>
      <trkpt lat="38.19155012257397174835205078125" lon="-0.6874174810945987701416015625">
        <ele>12.80000019073486328125</ele>
        <time>2019-10-25T09:24:25.000Z</time>
      </trkpt>
      <trkpt lat="38.1914868392050266265869140625" lon="-0.6876739673316478729248046875">
        <ele>12.6000003814697265625</ele>
        <time>2019-10-25T09:24:29.000Z</time>
      </trkpt>
      <trkpt lat="38.19144568406045436859130859375" lon="-0.68793657235801219940185546875">
        <ele>12</ele>
        <time>2019-10-25T09:24:33.000Z</time>
      </trkpt>
      <trkpt lat="38.19142221473157405853271484375" lon="-0.688198842108249664306640625">
        <ele>12.3999996185302734375</ele>
        <time>2019-10-25T09:24:37.000Z</time>
      </trkpt>
      <trkpt lat="38.19139958359301090240478515625" lon="-0.68845809437334537506103515625">
        <ele>13.19999980926513671875</ele>
        <time>2019-10-25T09:24:41.000Z</time>
      </trkpt>
      <trkpt lat="38.19137795828282833099365234375" lon="-0.6887186877429485321044921875">
        <ele>14</ele>
        <time>2019-10-25T09:24:45.000Z</time>
      </trkpt>
      <trkpt lat="38.1913540698587894439697265625" lon="-0.68897760473191738128662109375">
        <ele>14</ele>
        <time>2019-10-25T09:24:49.000Z</time>
      </trkpt>
      <trkpt lat="38.19133252836763858795166015625" lon="-0.68923342041671276092529296875">
        <ele>13</ele>
        <time>2019-10-25T09:24:53.000Z</time>
      </trkpt>
      <trkpt lat="38.19130704738199710845947265625" lon="-0.6894891522824764251708984375">
        <ele>12</ele>
        <time>2019-10-25T09:24:57.000Z</time>
      </trkpt>
      <trkpt lat="38.19129833020269870758056640625" lon="-0.6896822713315486907958984375">
        <ele>12</ele>
        <time>2019-10-25T09:25:00.000Z</time>
      </trkpt>
      <trkpt lat="38.19127033464610576629638671875" lon="-0.68993951193988323211669921875">
        <ele>12.19999980926513671875</ele>
        <time>2019-10-25T09:25:04.000Z</time>
      </trkpt>
      <trkpt lat="38.19124124944210052490234375" lon="-0.6902032904326915740966796875">
        <ele>12.19999980926513671875</ele>
        <time>2019-10-25T09:25:08.000Z</time>
      </trkpt>
      <trkpt lat="38.19120327942073345184326171875" lon="-0.690467990934848785400390625">
        <ele>11.80000019073486328125</ele>
        <time>2019-10-25T09:25:12.000Z</time>
      </trkpt>
      <trkpt lat="38.1911599449813365936279296875" lon="-0.690737552940845489501953125">
        <ele>11.6000003814697265625</ele>
        <time>2019-10-25T09:25:16.000Z</time>
      </trkpt>
      <trkpt lat="38.19111057557165622711181640625" lon="-0.691005773842334747314453125">
        <ele>12</ele>
        <time>2019-10-25T09:25:20.000Z</time>
      </trkpt>
      <trkpt lat="38.19106045179069042205810546875" lon="-0.69127441383898258209228515625">
        <ele>13</ele>
        <time>2019-10-25T09:25:24.000Z</time>
      </trkpt>
      <trkpt lat="38.191006220877170562744140625" lon="-0.69154045544564723968505859375">
        <ele>14</ele>
        <time>2019-10-25T09:25:28.000Z</time>
      </trkpt>
      <trkpt lat="38.190952576696872711181640625" lon="-0.69179811514914035797119140625">
        <ele>13.80000019073486328125</ele>
        <time>2019-10-25T09:25:32.000Z</time>
      </trkpt>
      <trkpt lat="38.19091494195163249969482421875" lon="-0.69206030108034610748291015625">
        <ele>13.3999996185302734375</ele>
        <time>2019-10-25T09:25:36.000Z</time>
      </trkpt>
      <trkpt lat="38.190873451530933380126953125" lon="-0.69231494329869747161865234375">
        <ele>12.3999996185302734375</ele>
        <time>2019-10-25T09:25:40.000Z</time>
      </trkpt>
      <trkpt lat="38.19082207046449184417724609375" lon="-0.69256581366062164306640625">
        <ele>12</ele>
        <time>2019-10-25T09:25:44.000Z</time>
      </trkpt>
      <trkpt lat="38.1907462142407894134521484375" lon="-0.69280478172004222869873046875">
        <ele>13</ele>
        <time>2019-10-25T09:25:48.000Z</time>
      </trkpt>
      <trkpt lat="38.19065325893461704254150390625" lon="-0.6930320151150226593017578125">
        <ele>12.3999996185302734375</ele>
        <time>2019-10-25T09:25:52.000Z</time>
      </trkpt>
      <trkpt lat="38.19054731167852878570556640625" lon="-0.69324977695941925048828125">
        <ele>12</ele>
        <time>2019-10-25T09:25:56.000Z</time>
      </trkpt>
      <trkpt lat="38.19041403941810131072998046875" lon="-0.69345655851066112518310546875">
        <ele>12.3999996185302734375</ele>
        <time>2019-10-25T09:26:00.000Z</time>
      </trkpt>
      <trkpt lat="38.19027473218739032745361328125" lon="-0.69366342388093471527099609375">
        <ele>13.6000003814697265625</ele>
        <time>2019-10-25T09:26:04.000Z</time>
      </trkpt>
      <trkpt lat="38.1901274621486663818359375" lon="-0.69387515075504779815673828125">
        <ele>13.80000019073486328125</ele>
        <time>2019-10-25T09:26:08.000Z</time>
      </trkpt>
      <trkpt lat="38.1899801082909107208251953125" lon="-0.69408930838108062744140625">
        <ele>12.80000019073486328125</ele>
        <time>2019-10-25T09:26:12.000Z</time>
      </trkpt>
      <trkpt lat="38.18983535282313823699951171875" lon="-0.6943077407777309417724609375">
        <ele>12</ele>
        <time>2019-10-25T09:26:16.000Z</time>
      </trkpt>
      <trkpt lat="38.18969017826020717620849609375" lon="-0.69452919065952301025390625">
        <ele>11.80000019073486328125</ele>
        <time>2019-10-25T09:26:20.000Z</time>
      </trkpt>
      <trkpt lat="38.18955824710428714752197265625" lon="-0.69476195611059665679931640625">
        <ele>11</ele>
        <time>2019-10-25T09:26:24.000Z</time>
      </trkpt>
      <trkpt lat="38.1894446723163127899169921875" lon="-0.69500369019806385040283203125">
        <ele>10.80000019073486328125</ele>
        <time>2019-10-25T09:26:28.000Z</time>
      </trkpt>
      <trkpt lat="38.189348280429840087890625" lon="-0.6952540576457977294921875">
        <ele>11</ele>
        <time>2019-10-25T09:26:32.000Z</time>
      </trkpt>
      <trkpt lat="38.18926312029361724853515625" lon="-0.69550878368318080902099609375">
        <ele>11.6000003814697265625</ele>
        <time>2019-10-25T09:26:36.000Z</time>
      </trkpt>
      <trkpt lat="38.18917594850063323974609375" lon="-0.6957635097205638885498046875">
        <ele>12.6000003814697265625</ele>
        <time>2019-10-25T09:26:40.000Z</time>
      </trkpt>
      <trkpt lat="38.189090788364410400390625" lon="-0.69601521827280521392822265625">
        <ele>13.3999996185302734375</ele>
        <time>2019-10-25T09:26:44.000Z</time>
      </trkpt>
      <trkpt lat="38.18900722078979015350341796875" lon="-0.69626667536795139312744140625">
        <ele>14.3999996185302734375</ele>
        <time>2019-10-25T09:26:48.000Z</time>
      </trkpt>
      <trkpt lat="38.18891870789229869842529296875" lon="-0.69651008583605289459228515625">
        <ele>15.19999980926513671875</ele>
        <time>2019-10-25T09:26:52.000Z</time>
      </trkpt>
      <trkpt lat="38.18881846033036708831787109375" lon="-0.6967502273619174957275390625">
        <ele>16</ele>
        <time>2019-10-25T09:26:56.000Z</time>
      </trkpt>
      <trkpt lat="38.18870178423821926116943359375" lon="-0.6969785504043102264404296875">
        <ele>16</ele>
        <time>2019-10-25T09:27:00.000Z</time>
      </trkpt>
      <trkpt lat="38.18856549449265003204345703125" lon="-0.69719421677291393280029296875">
        <ele>16</ele>
        <time>2019-10-25T09:27:04.000Z</time>
      </trkpt>
      <trkpt lat="38.18841981701552867889404296875" lon="-0.69740393199026584625244140625">
        <ele>16</ele>
        <time>2019-10-25T09:27:08.000Z</time>
      </trkpt>
      <trkpt lat="38.18827464245259761810302734375" lon="-0.6976165808737277984619140625">
        <ele>16.200000762939453125</ele>
        <time>2019-10-25T09:27:12.000Z</time>
      </trkpt>
      <trkpt lat="38.1881307251751422882080078125" lon="-0.69782554171979427337646484375">
        <ele>17</ele>
        <time>2019-10-25T09:27:16.000Z</time>
      </trkpt>
      <trkpt lat="38.18798446096479892730712890625" lon="-0.69803793914616107940673828125">
        <ele>16.200000762939453125</ele>
        <time>2019-10-25T09:27:20.000Z</time>
      </trkpt>
      <trkpt lat="38.1878475844860076904296875" lon="-0.69826894439756870269775390625">
        <ele>14.6000003814697265625</ele>
        <time>2019-10-25T09:27:24.000Z</time>
      </trkpt>
      <trkpt lat="38.18773266859352588653564453125" lon="-0.6985198147594928741455078125">
        <ele>13.19999980926513671875</ele>
        <time>2019-10-25T09:27:28.000Z</time>
      </trkpt>
      <trkpt lat="38.187646754086017608642578125" lon="-0.6987866945564746856689453125">
        <ele>12.80000019073486328125</ele>
        <time>2019-10-25T09:27:32.000Z</time>
      </trkpt>
      <trkpt lat="38.18759336136281490325927734375" lon="-0.69906522519886493682861328125">
        <ele>12.3999996185302734375</ele>
        <time>2019-10-25T09:27:36.000Z</time>
      </trkpt>
      <trkpt lat="38.18756687454879283905029296875" lon="-0.69934702478349208831787109375">
        <ele>12.80000019073486328125</ele>
        <time>2019-10-25T09:27:40.000Z</time>
      </trkpt>
      <trkpt lat="38.18755296058952808380126953125" lon="-0.69962672889232635498046875">
        <ele>13</ele>
        <time>2019-10-25T09:27:44.000Z</time>
      </trkpt>
      <trkpt lat="38.18754340521991252899169921875" lon="-0.699903666973114013671875">
        <ele>13</ele>
        <time>2019-10-25T09:27:48.000Z</time>
      </trkpt>
      <trkpt lat="38.187527395784854888916015625" lon="-0.70016794838011264801025390625">
        <ele>13</ele>
        <time>2019-10-25T09:27:52.000Z</time>
      </trkpt>
      <trkpt lat="38.1875205226242542266845703125" lon="-0.70042192004621028900146484375">
        <ele>13</ele>
        <time>2019-10-25T09:27:56.000Z</time>
      </trkpt>
      <trkpt lat="38.18752077408134937286376953125" lon="-0.70065024308860301971435546875">
        <ele>13.19999980926513671875</ele>
        <time>2019-10-25T09:28:00.000Z</time>
      </trkpt>
      <trkpt lat="38.18750551901757717132568359375" lon="-0.70090890862047672271728515625">
        <ele>13.6000003814697265625</ele>
        <time>2019-10-25T09:28:06.000Z</time>
      </trkpt>
      <trkpt lat="38.1875034235417842864990234375" lon="-0.700988955795764923095703125">
        <ele>13.6000003814697265625</ele>
        <time>2019-10-25T09:28:09.000Z</time>
      </trkpt>
      <trkpt lat="38.18754474632441997528076171875" lon="-0.70108962245285511016845703125">
        <ele>13.80000019073486328125</ele>
        <time>2019-10-25T09:29:15.000Z</time>
      </trkpt>
      <trkpt lat="38.18755262531340122222900390625" lon="-0.70107369683682918548583984375">
        <ele>13.6000003814697265625</ele>
        <time>2019-10-25T09:29:25.000Z</time>
      </trkpt>
      <trkpt lat="38.1874799542129039764404296875" lon="-0.70121870376169681549072265625">
        <ele>14</ele>
        <time>2019-10-25T10:29:31.000Z</time>
      </trkpt>
      <trkpt lat="38.1875034235417842864990234375" lon="-0.70119858719408512115478515625">
        <ele>14</ele>
        <time>2019-10-25T10:29:33.000Z</time>
      </trkpt>
      <trkpt lat="38.18754457868635654449462890625" lon="-0.7010632194578647613525390625">
        <ele>13.6000003814697265625</ele>
        <time>2019-10-25T10:29:37.000Z</time>
      </trkpt>
      <trkpt lat="38.18751105107367038726806640625" lon="-0.70114997215569019317626953125">
        <ele>14</ele>
        <time>2019-10-25T10:29:40.000Z</time>
      </trkpt>
      <trkpt lat="38.187534771859645843505859375" lon="-0.70110152475535869598388671875">
        <ele>13.80000019073486328125</ele>
        <time>2019-10-25T10:29:42.000Z</time>
      </trkpt>
      <trkpt lat="38.1874920241534709930419921875" lon="-0.70112876594066619873046875">
        <ele>13.80000019073486328125</ele>
        <time>2019-10-25T10:30:01.000Z</time>
      </trkpt>
      <trkpt lat="38.18749177269637584686279296875" lon="-0.70112767629325389862060546875">
        <ele>13.80000019073486328125</ele>
        <time>2019-10-25T10:30:02.000Z</time>
      </trkpt>
      <trkpt lat="38.18750618956983089447021484375" lon="-0.70112876594066619873046875">
        <ele>13.80000019073486328125</ele>
        <time>2019-10-25T10:33:10.000Z</time>
      </trkpt>
      <trkpt lat="38.18754424341022968292236328125" lon="-0.7013042829930782318115234375">
        <ele>14</ele>
        <time>2019-10-25T10:34:21.000Z</time>
      </trkpt>
      <trkpt lat="38.1875503621995449066162109375" lon="-0.701540149748325347900390625">
        <ele>14.3999996185302734375</ele>
        <time>2019-10-25T10:34:26.000Z</time>
      </trkpt>
      <trkpt lat="38.18748892284929752349853515625" lon="-0.70180526934564113616943359375">
        <ele>14.19999980926513671875</ele>
        <time>2019-10-25T10:34:31.000Z</time>
      </trkpt>
      <trkpt lat="38.18747249431908130645751953125" lon="-0.70207935757935047149658203125">
        <ele>14.3999996185302734375</ele>
        <time>2019-10-25T10:34:36.000Z</time>
      </trkpt>
      <trkpt lat="38.18744265474379062652587890625" lon="-0.702324695885181427001953125">
        <ele>15.19999980926513671875</ele>
        <time>2019-10-25T10:34:41.000Z</time>
      </trkpt>
      <trkpt lat="38.18742052651941776275634765625" lon="-0.702558718621730804443359375">
        <ele>16</ele>
        <time>2019-10-25T10:34:46.000Z</time>
      </trkpt>
      <trkpt lat="38.1874144077301025390625" lon="-0.70260875858366489410400390625">
        <ele>16.200000762939453125</ele>
        <time>2019-10-25T10:34:47.000Z</time>
      </trkpt>
      <trkpt lat="38.18738649599254131317138671875" lon="-0.70284982211887836456298828125">
        <ele>17</ele>
        <time>2019-10-25T10:34:52.000Z</time>
      </trkpt>
      <trkpt lat="38.1873528845608234405517578125" lon="-0.703105889260768890380859375">
        <ele>16.799999237060546875</ele>
        <time>2019-10-25T10:34:57.000Z</time>
      </trkpt>
      <trkpt lat="38.18732178770005702972412109375" lon="-0.7033860124647617340087890625">
        <ele>16.6000003814697265625</ele>
        <time>2019-10-25T10:35:02.000Z</time>
      </trkpt>
      <trkpt lat="38.18730150349438190460205078125" lon="-0.703626573085784912109375">
        <ele>16.6000003814697265625</ele>
        <time>2019-10-25T10:35:06.000Z</time>
      </trkpt>
      <trkpt lat="38.1872828118503093719482421875" lon="-0.703877024352550506591796875">
        <ele>16.200000762939453125</ele>
        <time>2019-10-25T10:35:10.000Z</time>
      </trkpt>
      <trkpt lat="38.18726914934813976287841796875" lon="-0.70411783643066883087158203125">
        <ele>15</ele>
        <time>2019-10-25T10:35:14.000Z</time>
      </trkpt>
      <trkpt lat="38.18725280463695526123046875" lon="-0.7043569721281528472900390625">
        <ele>14.80000019073486328125</ele>
        <time>2019-10-25T10:35:18.000Z</time>
      </trkpt>
      <trkpt lat="38.187235035002231597900390625" lon="-0.7045926712453365325927734375">
        <ele>14.6000003814697265625</ele>
        <time>2019-10-25T10:35:22.000Z</time>
      </trkpt>
      <trkpt lat="38.18722623400390148162841796875" lon="-0.70465260185301303863525390625">
        <ele>14.80000019073486328125</ele>
        <time>2019-10-25T10:35:23.000Z</time>
      </trkpt>
      <trkpt lat="38.18721257150173187255859375" lon="-0.70489400066435337066650390625">
        <ele>15.6000003814697265625</ele>
        <time>2019-10-25T10:35:27.000Z</time>
      </trkpt>
      <trkpt lat="38.187197148799896240234375" lon="-0.705126263201236724853515625">
        <ele>16.200000762939453125</ele>
        <time>2019-10-25T10:35:31.000Z</time>
      </trkpt>
      <trkpt lat="38.1871842406690120697021484375" lon="-0.705364644527435302734375">
        <ele>16</ele>
        <time>2019-10-25T10:35:35.000Z</time>
      </trkpt>
      <trkpt lat="38.18716906942427158355712890625" lon="-0.705592632293701171875">
        <ele>16</ele>
        <time>2019-10-25T10:35:39.000Z</time>
      </trkpt>
      <trkpt lat="38.1871577538549900054931640625" lon="-0.70587418042123317718505859375">
        <ele>17</ele>
        <time>2019-10-25T10:35:44.000Z</time>
      </trkpt>
      <trkpt lat="38.1871396489441394805908203125" lon="-0.7061557285487651824951171875">
        <ele>17</ele>
        <time>2019-10-25T10:35:49.000Z</time>
      </trkpt>
      <trkpt lat="38.1871295906603336334228515625" lon="-0.706428475677967071533203125">
        <ele>17</ele>
        <time>2019-10-25T10:35:54.000Z</time>
      </trkpt>
      <trkpt lat="38.18711735308170318603515625" lon="-0.7067099399864673614501953125">
        <ele>16.200000762939453125</ele>
        <time>2019-10-25T10:35:59.000Z</time>
      </trkpt>
      <trkpt lat="38.187103606760501861572265625" lon="-0.70695594884455204010009765625">
        <ele>16.200000762939453125</ele>
        <time>2019-10-25T10:36:03.000Z</time>
      </trkpt>
      <trkpt lat="38.18709648214280605316162109375" lon="-0.7071867026388645172119140625">
        <ele>16</ele>
        <time>2019-10-25T10:36:07.000Z</time>
      </trkpt>
      <trkpt lat="38.1870920397341251373291015625" lon="-0.7074381597340106964111328125">
        <ele>15.3999996185302734375</ele>
        <time>2019-10-25T10:36:11.000Z</time>
      </trkpt>
      <trkpt lat="38.1870970688760280609130859375" lon="-0.7077102363109588623046875">
        <ele>14.3999996185302734375</ele>
        <time>2019-10-25T10:36:15.000Z</time>
      </trkpt>
      <trkpt lat="38.187106959521770477294921875" lon="-0.707979463040828704833984375">
        <ele>13.3999996185302734375</ele>
        <time>2019-10-25T10:36:19.000Z</time>
      </trkpt>
      <trkpt lat="38.1871178559958934783935546875" lon="-0.70825162343680858612060546875">
        <ele>13</ele>
        <time>2019-10-25T10:36:23.000Z</time>
      </trkpt>
      <trkpt lat="38.1871285848319530487060546875" lon="-0.70852537639439105987548828125">
        <ele>13.3999996185302734375</ele>
        <time>2019-10-25T10:36:27.000Z</time>
      </trkpt>
      <trkpt lat="38.18713839165866374969482421875" lon="-0.70878655649721622467041015625">
        <ele>14</ele>
        <time>2019-10-25T10:36:31.000Z</time>
      </trkpt>
      <trkpt lat="38.18714811466634273529052734375" lon="-0.70904932916164398193359375">
        <ele>14.3999996185302734375</ele>
        <time>2019-10-25T10:36:35.000Z</time>
      </trkpt>
      <trkpt lat="38.18715482018887996673583984375" lon="-0.70931629277765750885009765625">
        <ele>15</ele>
        <time>2019-10-25T10:36:39.000Z</time>
      </trkpt>
      <trkpt lat="38.1871647946536540985107421875" lon="-0.70956925861537456512451171875">
        <ele>15.3999996185302734375</ele>
        <time>2019-10-25T10:36:43.000Z</time>
      </trkpt>
      <trkpt lat="38.187166638672351837158203125" lon="-0.709827840328216552734375">
        <ele>16.200000762939453125</ele>
        <time>2019-10-25T10:36:47.000Z</time>
      </trkpt>
      <trkpt lat="38.18717233836650848388671875" lon="-0.71009002625942230224609375">
        <ele>17</ele>
        <time>2019-10-25T10:36:51.000Z</time>
      </trkpt>
      <trkpt lat="38.18718784488737583160400390625" lon="-0.71034349501132965087890625">
        <ele>18</ele>
        <time>2019-10-25T10:36:55.000Z</time>
      </trkpt>
      <trkpt lat="38.18722304888069629669189453125" lon="-0.71059620939195156097412109375">
        <ele>19</ele>
        <time>2019-10-25T10:36:59.000Z</time>
      </trkpt>
      <trkpt lat="38.187279291450977325439453125" lon="-0.71085118688642978668212890625">
        <ele>17.200000762939453125</ele>
        <time>2019-10-25T10:37:03.000Z</time>
      </trkpt>
      <trkpt lat="38.18736654706299304962158203125" lon="-0.711104236543178558349609375">
        <ele>15.3999996185302734375</ele>
        <time>2019-10-25T10:37:07.000Z</time>
      </trkpt>
      <trkpt lat="38.1874506175518035888671875" lon="-0.7113521732389926910400390625">
        <ele>15.19999980926513671875</ele>
        <time>2019-10-25T10:37:11.000Z</time>
      </trkpt>
      <trkpt lat="38.18753552623093128204345703125" lon="-0.71160086430609226226806640625">
        <ele>15.80000019073486328125</ele>
        <time>2019-10-25T10:37:15.000Z</time>
      </trkpt>
      <trkpt lat="38.18761892616748809814453125" lon="-0.71184947155416011810302734375">
        <ele>15.80000019073486328125</ele>
        <time>2019-10-25T10:37:19.000Z</time>
      </trkpt>
      <trkpt lat="38.18770869635045528411865234375" lon="-0.71209506131708621978759765625">
        <ele>14.3999996185302734375</ele>
        <time>2019-10-25T10:37:23.000Z</time>
      </trkpt>
      <trkpt lat="38.18779218010604381561279296875" lon="-0.7123477756977081298828125">
        <ele>13.19999980926513671875</ele>
        <time>2019-10-25T10:37:27.000Z</time>
      </trkpt>
      <trkpt lat="38.18786124698817729949951171875" lon="-0.7126074470579624176025390625">
        <ele>13.19999980926513671875</ele>
        <time>2019-10-25T10:37:31.000Z</time>
      </trkpt>
      <trkpt lat="38.18792981095612049102783203125" lon="-0.7128800265491008758544921875">
        <ele>15.6000003814697265625</ele>
        <time>2019-10-25T10:37:35.000Z</time>
      </trkpt>
      <trkpt lat="38.187995441257953643798828125" lon="-0.71316157467663288116455078125">
        <ele>16</ele>
        <time>2019-10-25T10:37:39.000Z</time>
      </trkpt>
      <trkpt lat="38.1880640052258968353271484375" lon="-0.71344857104122638702392578125">
        <ele>15.19999980926513671875</ele>
        <time>2019-10-25T10:37:43.000Z</time>
      </trkpt>
      <trkpt lat="38.18812779150903224945068359375" lon="-0.71374042890965938568115234375">
        <ele>14.6000003814697265625</ele>
        <time>2019-10-25T10:37:47.000Z</time>
      </trkpt>
      <trkpt lat="38.1881801784038543701171875" lon="-0.71402558125555515289306640625">
        <ele>14</ele>
        <time>2019-10-25T10:37:51.000Z</time>
      </trkpt>
      <trkpt lat="38.1882078386843204498291015625" lon="-0.71430553682148456573486328125">
        <ele>14</ele>
        <time>2019-10-25T10:37:55.000Z</time>
      </trkpt>
      <trkpt lat="38.18822284229099750518798828125" lon="-0.71458876132965087890625">
        <ele>14.19999980926513671875</ele>
        <time>2019-10-25T10:37:59.000Z</time>
      </trkpt>
      <trkpt lat="38.188227452337741851806640625" lon="-0.71488849818706512451171875">
        <ele>15</ele>
        <time>2019-10-25T10:38:03.000Z</time>
      </trkpt>
      <trkpt lat="38.1882336549460887908935546875" lon="-0.7151880674064159393310546875">
        <ele>14.6000003814697265625</ele>
        <time>2019-10-25T10:38:07.000Z</time>
      </trkpt>
      <trkpt lat="38.188247568905353546142578125" lon="-0.71547984145581722259521484375">
        <ele>13.3999996185302734375</ele>
        <time>2019-10-25T10:38:11.000Z</time>
      </trkpt>
      <trkpt lat="38.1882681883871555328369140625" lon="-0.7157727889716625213623046875">
        <ele>13</ele>
        <time>2019-10-25T10:38:15.000Z</time>
      </trkpt>
      <trkpt lat="38.18830448202788829803466796875" lon="-0.7160624675452709197998046875">
        <ele>13</ele>
        <time>2019-10-25T10:38:19.000Z</time>
      </trkpt>
      <trkpt lat="38.1883429549634456634521484375" lon="-0.71635776199400424957275390625">
        <ele>13</ele>
        <time>2019-10-25T10:38:23.000Z</time>
      </trkpt>
      <trkpt lat="38.18839550949633121490478515625" lon="-0.7166473567485809326171875">
        <ele>13</ele>
        <time>2019-10-25T10:38:27.000Z</time>
      </trkpt>
      <trkpt lat="38.18845334462821483612060546875" lon="-0.71692672558128833770751953125">
        <ele>12.80000019073486328125</ele>
        <time>2019-10-25T10:38:31.000Z</time>
      </trkpt>
      <trkpt lat="38.1885169632732868194580078125" lon="-0.71719829924404621124267578125">
        <ele>13</ele>
        <time>2019-10-25T10:38:35.000Z</time>
      </trkpt>
      <trkpt lat="38.18859214894473552703857421875" lon="-0.717472136020660400390625">
        <ele>13</ele>
        <time>2019-10-25T10:38:39.000Z</time>
      </trkpt>
      <trkpt lat="38.18865694105625152587890625" lon="-0.71773826144635677337646484375">
        <ele>12.6000003814697265625</ele>
        <time>2019-10-25T10:38:43.000Z</time>
      </trkpt>
      <trkpt lat="38.18871871568262577056884765625" lon="-0.71799960918724536895751953125">
        <ele>13.6000003814697265625</ele>
        <time>2019-10-25T10:38:47.000Z</time>
      </trkpt>
      <trkpt lat="38.1887774728238582611083984375" lon="-0.718262381851673126220703125">
        <ele>14.3999996185302734375</ele>
        <time>2019-10-25T10:38:51.000Z</time>
      </trkpt>
      <trkpt lat="38.18884142674505710601806640625" lon="-0.71851979009807109832763671875">
        <ele>14.80000019073486328125</ele>
        <time>2019-10-25T10:38:55.000Z</time>
      </trkpt>
      <trkpt lat="38.18890370428562164306640625" lon="-0.71877677924931049346923828125">
        <ele>15.3999996185302734375</ele>
        <time>2019-10-25T10:38:59.000Z</time>
      </trkpt>
      <trkpt lat="38.18897386081516742706298828125" lon="-0.71902312338352203369140625">
        <ele>15.3999996185302734375</ele>
        <time>2019-10-25T10:39:03.000Z</time>
      </trkpt>
      <trkpt lat="38.1890000961720943450927734375" lon="-0.71914055384695529937744140625">
        <ele>15</ele>
        <time>2019-10-25T10:39:05.000Z</time>
      </trkpt>
      <trkpt lat="38.1890282593667507171630859375" lon="-0.71936720050871372222900390625">
        <ele>14.3999996185302734375</ele>
        <time>2019-10-25T10:39:09.000Z</time>
      </trkpt>
      <trkpt lat="38.18903638981282711029052734375" lon="-0.7196004688739776611328125">
        <ele>14</ele>
        <time>2019-10-25T10:39:14.000Z</time>
      </trkpt>
      <trkpt lat="38.18886615335941314697265625" lon="-0.71973382495343685150146484375">
        <ele>14</ele>
        <time>2019-10-25T10:39:19.000Z</time>
      </trkpt>
      <trkpt lat="38.18882617168128490447998046875" lon="-0.7197474874556064605712890625">
        <ele>14</ele>
        <time>2019-10-25T10:39:20.000Z</time>
      </trkpt>
      <trkpt lat="38.18864763714373111724853515625" lon="-0.71984329260885715484619140625">
        <ele>13.19999980926513671875</ele>
        <time>2019-10-25T10:39:24.000Z</time>
      </trkpt>
      <trkpt lat="38.1886004470288753509521484375" lon="-0.71987363509833812713623046875">
        <ele>12.80000019073486328125</ele>
        <time>2019-10-25T10:39:25.000Z</time>
      </trkpt>
      <trkpt lat="38.18844496272504329681396484375" lon="-0.7200671732425689697265625">
        <ele>12.80000019073486328125</ele>
        <time>2019-10-25T10:39:29.000Z</time>
      </trkpt>
      <trkpt lat="38.188395760953426361083984375" lon="-0.72019600309431552886962890625">
        <ele>13.3999996185302734375</ele>
        <time>2019-10-25T10:39:31.000Z</time>
      </trkpt>
      <trkpt lat="38.18831571377813816070556640625" lon="-0.72046506218612194061279296875">
        <ele>14.3999996185302734375</ele>
        <time>2019-10-25T10:39:35.000Z</time>
      </trkpt>
      <trkpt lat="38.18824748508632183074951171875" lon="-0.72074602358043193817138671875">
        <ele>15</ele>
        <time>2019-10-25T10:39:39.000Z</time>
      </trkpt>
      <trkpt lat="38.1882128678262233734130859375" lon="-0.7210436649620532989501953125">
        <ele>13.6000003814697265625</ele>
        <time>2019-10-25T10:39:43.000Z</time>
      </trkpt>
      <trkpt lat="38.1882172264158725738525390625" lon="-0.721341557800769805908203125">
        <ele>11.6000003814697265625</ele>
        <time>2019-10-25T10:39:47.000Z</time>
      </trkpt>
      <trkpt lat="38.18822686560451984405517578125" lon="-0.72163769043982028961181640625">
        <ele>11.6000003814697265625</ele>
        <time>2019-10-25T10:39:51.000Z</time>
      </trkpt>
      <trkpt lat="38.1882303021848201751708984375" lon="-0.7219274528324604034423828125">
        <ele>12</ele>
        <time>2019-10-25T10:39:55.000Z</time>
      </trkpt>
      <trkpt lat="38.1882400251924991607666015625" lon="-0.7222255133092403411865234375">
        <ele>12</ele>
        <time>2019-10-25T10:39:59.000Z</time>
      </trkpt>
      <trkpt lat="38.18825058639049530029296875" lon="-0.72252340614795684814453125">
        <ele>12</ele>
        <time>2019-10-25T10:40:03.000Z</time>
      </trkpt>
      <trkpt lat="38.18826039321720600128173828125" lon="-0.7228212989866733551025390625">
        <ele>13</ele>
        <time>2019-10-25T10:40:07.000Z</time>
      </trkpt>
      <trkpt lat="38.1882705353200435638427734375" lon="-0.72311122901737689971923828125">
        <ele>13</ele>
        <time>2019-10-25T10:40:11.000Z</time>
      </trkpt>
      <trkpt lat="38.188275061547756195068359375" lon="-0.72340861894190311431884765625">
        <ele>12.80000019073486328125</ele>
        <time>2019-10-25T10:40:15.000Z</time>
      </trkpt>
      <trkpt lat="38.18828738294541835784912109375" lon="-0.7237064279615879058837890625">
        <ele>12</ele>
        <time>2019-10-25T10:40:19.000Z</time>
      </trkpt>
      <trkpt lat="38.18829484283924102783203125" lon="-0.72400742210447788238525390625">
        <ele>12</ele>
        <time>2019-10-25T10:40:23.000Z</time>
      </trkpt>
      <trkpt lat="38.1882928311824798583984375" lon="-0.72430707514286041259765625">
        <ele>11.80000019073486328125</ele>
        <time>2019-10-25T10:40:27.000Z</time>
      </trkpt>
      <trkpt lat="38.18829157389700412750244140625" lon="-0.72452944703400135040283203125">
        <ele>11.19999980926513671875</ele>
        <time>2019-10-25T10:40:30.000Z</time>
      </trkpt>
      <trkpt lat="38.18828637711703777313232421875" lon="-0.72482247836887836456298828125">
        <ele>12</ele>
        <time>2019-10-25T10:40:34.000Z</time>
      </trkpt>
      <trkpt lat="38.188286460936069488525390625" lon="-0.72511701844632625579833984375">
        <ele>12.19999980926513671875</ele>
        <time>2019-10-25T10:40:38.000Z</time>
      </trkpt>
      <trkpt lat="38.18829677067697048187255859375" lon="-0.72540954686701297760009765625">
        <ele>11.80000019073486328125</ele>
        <time>2019-10-25T10:40:42.000Z</time>
      </trkpt>
      <trkpt lat="38.18830431438982486724853515625" lon="-0.72564725764095783233642578125">
        <ele>10.6000003814697265625</ele>
        <time>2019-10-25T10:40:45.000Z</time>
      </trkpt>
      <trkpt lat="38.18832476623356342315673828125" lon="-0.72587675414979457855224609375">
        <ele>9</ele>
        <time>2019-10-25T10:40:48.000Z</time>
      </trkpt>
      <trkpt lat="38.1883625686168670654296875" lon="-0.72616777382791042327880859375">
        <ele>8.3999996185302734375</ele>
        <time>2019-10-25T10:40:52.000Z</time>
      </trkpt>
      <trkpt lat="38.1883798353374004364013671875" lon="-0.72623885236680507659912109375">
        <ele>8.80000019073486328125</ele>
        <time>2019-10-25T10:40:53.000Z</time>
      </trkpt>
      <trkpt lat="38.18846826441586017608642578125" lon="-0.7265126891434192657470703125">
        <ele>10.19999980926513671875</ele>
        <time>2019-10-25T10:40:57.000Z</time>
      </trkpt>
      <trkpt lat="38.1885913945734500885009765625" lon="-0.726763643324375152587890625">
        <ele>11.6000003814697265625</ele>
        <time>2019-10-25T10:41:01.000Z</time>
      </trkpt>
      <trkpt lat="38.1887258403003215789794921875" lon="-0.72700940072536468505859375">
        <ele>11</ele>
        <time>2019-10-25T10:41:05.000Z</time>
      </trkpt>
      <trkpt lat="38.18885852582752704620361328125" lon="-0.7272583432495594024658203125">
        <ele>10</ele>
        <time>2019-10-25T10:41:09.000Z</time>
      </trkpt>
      <trkpt lat="38.188998587429523468017578125" lon="-0.727503933012485504150390625">
        <ele>9.19999980926513671875</ele>
        <time>2019-10-25T10:41:13.000Z</time>
      </trkpt>
      <trkpt lat="38.18910545669496059417724609375" lon="-0.72769428603351116180419921875">
        <ele>9</ele>
        <time>2019-10-25T10:41:16.000Z</time>
      </trkpt>
      <trkpt lat="38.18921215832233428955078125" lon="-0.727886818349361419677734375">
        <ele>9.3999996185302734375</ele>
        <time>2019-10-25T10:41:19.000Z</time>
      </trkpt>
      <trkpt lat="38.1893120706081390380859375" lon="-0.7280824519693851470947265625">
        <ele>9.80000019073486328125</ele>
        <time>2019-10-25T10:41:22.000Z</time>
      </trkpt>
      <trkpt lat="38.1894433312118053436279296875" lon="-0.728326030075550079345703125">
        <ele>10.3999996185302734375</ele>
        <time>2019-10-25T10:41:26.000Z</time>
      </trkpt>
      <trkpt lat="38.18957484327256679534912109375" lon="-0.7285595498979091644287109375">
        <ele>11.6000003814697265625</ele>
        <time>2019-10-25T10:41:30.000Z</time>
      </trkpt>
      <trkpt lat="38.1897045113146305084228515625" lon="-0.728796087205410003662109375">
        <ele>11.3999996185302734375</ele>
        <time>2019-10-25T10:41:34.000Z</time>
      </trkpt>
      <trkpt lat="38.18981942720711231231689453125" lon="-0.7290540821850299835205078125">
        <ele>11</ele>
        <time>2019-10-25T10:41:38.000Z</time>
      </trkpt>
      <trkpt lat="38.18987223319709300994873046875" lon="-0.7293306849896907806396484375">
        <ele>10.19999980926513671875</ele>
        <time>2019-10-25T10:41:42.000Z</time>
      </trkpt>
      <trkpt lat="38.18989335559308528900146484375" lon="-0.72961893863976001739501953125">
        <ele>10.3999996185302734375</ele>
        <time>2019-10-25T10:41:46.000Z</time>
      </trkpt>
      <trkpt lat="38.18990006111562252044677734375" lon="-0.7298505306243896484375">
        <ele>11.19999980926513671875</ele>
        <time>2019-10-25T10:41:49.000Z</time>
      </trkpt>
      <trkpt lat="38.1899050064384937286376953125" lon="-0.7300927676260471343994140625">
        <ele>12.19999980926513671875</ele>
        <time>2019-10-25T10:41:52.000Z</time>
      </trkpt>
      <trkpt lat="38.18992034532129764556884765625" lon="-0.730334334075450897216796875">
        <ele>13</ele>
        <time>2019-10-25T10:41:55.000Z</time>
      </trkpt>
      <trkpt lat="38.1899378634989261627197265625" lon="-0.73058017529547214508056640625">
        <ele>13</ele>
        <time>2019-10-25T10:41:58.000Z</time>
      </trkpt>
      <trkpt lat="38.18995219655334949493408203125" lon="-0.73082408867776393890380859375">
        <ele>13</ele>
        <time>2019-10-25T10:42:01.000Z</time>
      </trkpt>
      <trkpt lat="38.18993157707154750823974609375" lon="-0.731055177748203277587890625">
        <ele>12.3999996185302734375</ele>
        <time>2019-10-25T10:42:04.000Z</time>
      </trkpt>
      <trkpt lat="38.18991380743682384490966796875" lon="-0.7311311177909374237060546875">
        <ele>12.19999980926513671875</ele>
        <time>2019-10-25T10:42:05.000Z</time>
      </trkpt>
      <trkpt lat="38.18984759040176868438720703125" lon="-0.73135047219693660736083984375">
        <ele>10.80000019073486328125</ele>
        <time>2019-10-25T10:42:08.000Z</time>
      </trkpt>
      <trkpt lat="38.1897735781967639923095703125" lon="-0.73156513273715972900390625">
        <ele>10.3999996185302734375</ele>
        <time>2019-10-25T10:42:11.000Z</time>
      </trkpt>
      <trkpt lat="38.189696967601776123046875" lon="-0.73177794925868511199951171875">
        <ele>10.3999996185302734375</ele>
        <time>2019-10-25T10:42:14.000Z</time>
      </trkpt>
      <trkpt lat="38.18961356766521930694580078125" lon="-0.7319978065788745880126953125">
        <ele>10.80000019073486328125</ele>
        <time>2019-10-25T10:42:17.000Z</time>
      </trkpt>
      <trkpt lat="38.18953226320445537567138671875" lon="-0.73222470469772815704345703125">
        <ele>10.19999980926513671875</ele>
        <time>2019-10-25T10:42:20.000Z</time>
      </trkpt>
      <trkpt lat="38.18945229984819889068603515625" lon="-0.73244892060756683349609375">
        <ele>9</ele>
        <time>2019-10-25T10:42:23.000Z</time>
      </trkpt>
      <trkpt lat="38.1893762759864330291748046875" lon="-0.73267766274511814117431640625">
        <ele>8.19999980926513671875</ele>
        <time>2019-10-25T10:42:26.000Z</time>
      </trkpt>
      <trkpt lat="38.18929731845855712890625" lon="-0.7329013757407665252685546875">
        <ele>8</ele>
        <time>2019-10-25T10:42:29.000Z</time>
      </trkpt>
      <trkpt lat="38.18923084996640682220458984375" lon="-0.7331250049173831939697265625">
        <ele>8</ele>
        <time>2019-10-25T10:42:32.000Z</time>
      </trkpt>
      <trkpt lat="38.18921349942684173583984375" lon="-0.73327629826962947845458984375">
        <ele>7.400000095367431640625</ele>
        <time>2019-10-25T10:42:34.000Z</time>
      </trkpt>
      <trkpt lat="38.18922783248126506805419921875" lon="-0.73351585306227207183837890625">
        <ele>7.599999904632568359375</ele>
        <time>2019-10-25T10:42:37.000Z</time>
      </trkpt>
      <trkpt lat="38.18929153494536876678466796875" lon="-0.7337437570095062255859375">
        <ele>7</ele>
        <time>2019-10-25T10:42:40.000Z</time>
      </trkpt>
      <trkpt lat="38.18935574032366275787353515625" lon="-0.7338823936879634857177734375">
        <ele>7</ele>
        <time>2019-10-25T10:42:42.000Z</time>
      </trkpt>
      <trkpt lat="38.18946353159844875335693359375" lon="-0.734075009822845458984375">
        <ele>7.80000019073486328125</ele>
        <time>2019-10-25T10:42:45.000Z</time>
      </trkpt>
      <trkpt lat="38.18958406336605548858642578125" lon="-0.73425077833235263824462890625">
        <ele>8.80000019073486328125</ele>
        <time>2019-10-25T10:42:48.000Z</time>
      </trkpt>
      <trkpt lat="38.1897009909152984619140625" lon="-0.73443182744085788726806640625">
        <ele>9</ele>
        <time>2019-10-25T10:42:51.000Z</time>
      </trkpt>
      <trkpt lat="38.18981708027422428131103515625" lon="-0.73461614549160003662109375">
        <ele>9</ele>
        <time>2019-10-25T10:42:54.000Z</time>
      </trkpt>
      <trkpt lat="38.1899371929466724395751953125" lon="-0.7347983680665493011474609375">
        <ele>9</ele>
        <time>2019-10-25T10:42:57.000Z</time>
      </trkpt>
      <trkpt lat="38.189978264272212982177734375" lon="-0.73486014269292354583740234375">
        <ele>9.19999980926513671875</ele>
        <time>2019-10-25T10:42:58.000Z</time>
      </trkpt>
      <trkpt lat="38.19010399281978607177734375" lon="-0.73503783904016017913818359375">
        <ele>9.3999996185302734375</ele>
        <time>2019-10-25T10:43:01.000Z</time>
      </trkpt>
      <trkpt lat="38.19023005664348602294921875" lon="-0.73522710241377353668212890625">
        <ele>9.80000019073486328125</ele>
        <time>2019-10-25T10:43:04.000Z</time>
      </trkpt>
      <trkpt lat="38.1903586350381374359130859375" lon="-0.73541284538805484771728515625">
        <ele>10</ele>
        <time>2019-10-25T10:43:07.000Z</time>
      </trkpt>
      <trkpt lat="38.190485872328281402587890625" lon="-0.73560453951358795166015625">
        <ele>10</ele>
        <time>2019-10-25T10:43:10.000Z</time>
      </trkpt>
      <trkpt lat="38.1906084157526493072509765625" lon="-0.73579656891524791717529296875">
        <ele>9.80000019073486328125</ele>
        <time>2019-10-25T10:43:13.000Z</time>
      </trkpt>
      <trkpt lat="38.19072735495865345001220703125" lon="-0.73598650284111499786376953125">
        <ele>8.80000019073486328125</ele>
        <time>2019-10-25T10:43:16.000Z</time>
      </trkpt>
      <trkpt lat="38.1908476352691650390625" lon="-0.73616889305412769317626953125">
        <ele>7.599999904632568359375</ele>
        <time>2019-10-25T10:43:19.000Z</time>
      </trkpt>
      <trkpt lat="38.19096741266548633575439453125" lon="-0.7363496907055377960205078125">
        <ele>7.19999980926513671875</ele>
        <time>2019-10-25T10:43:22.000Z</time>
      </trkpt>
      <trkpt lat="38.191092051565647125244140625" lon="-0.73651506565511226654052734375">
        <ele>7.19999980926513671875</ele>
        <time>2019-10-25T10:43:25.000Z</time>
      </trkpt>
      <trkpt lat="38.191246278584003448486328125" lon="-0.736650265753269195556640625">
        <ele>7.80000019073486328125</ele>
        <time>2019-10-25T10:43:28.000Z</time>
      </trkpt>
      <trkpt lat="38.19142187945544719696044921875" lon="-0.73673433624207973480224609375">
        <ele>8</ele>
        <time>2019-10-25T10:43:31.000Z</time>
      </trkpt>
      <trkpt lat="38.19148256443440914154052734375" lon="-0.73675193823873996734619140625">
        <ele>8</ele>
        <time>2019-10-25T10:43:32.000Z</time>
      </trkpt>
      <trkpt lat="38.19167283363640308380126953125" lon="-0.7367758266627788543701171875">
        <ele>8.3999996185302734375</ele>
        <time>2019-10-25T10:43:35.000Z</time>
      </trkpt>
      <trkpt lat="38.191857151687145233154296875" lon="-0.73674389161169528961181640625">
        <ele>9</ele>
        <time>2019-10-25T10:43:38.000Z</time>
      </trkpt>
      <trkpt lat="38.19191875867545604705810546875" lon="-0.7367231883108615875244140625">
        <ele>9</ele>
        <time>2019-10-25T10:43:39.000Z</time>
      </trkpt>
      <trkpt lat="38.19210517220199108123779296875" lon="-0.73664884082973003387451171875">
        <ele>9</ele>
        <time>2019-10-25T10:43:42.000Z</time>
      </trkpt>
      <trkpt lat="38.19228270091116428375244140625" lon="-0.7365709729492664337158203125">
        <ele>8.3999996185302734375</ele>
        <time>2019-10-25T10:43:45.000Z</time>
      </trkpt>
      <trkpt lat="38.192460648715496063232421875" lon="-0.7364975474774837493896484375">
        <ele>8.3999996185302734375</ele>
        <time>2019-10-25T10:43:48.000Z</time>
      </trkpt>
      <trkpt lat="38.1926368363201618194580078125" lon="-0.736437700688838958740234375">
        <ele>8.80000019073486328125</ele>
        <time>2019-10-25T10:43:51.000Z</time>
      </trkpt>
      <trkpt lat="38.19286239333450794219970703125" lon="-0.73633636347949504852294921875">
        <ele>9.6000003814697265625</ele>
        <time>2019-10-25T10:43:55.000Z</time>
      </trkpt>
      <trkpt lat="38.19303388707339763641357421875" lon="-0.73626260273158550262451171875">
        <ele>9.80000019073486328125</ele>
        <time>2019-10-25T10:43:58.000Z</time>
      </trkpt>
      <trkpt lat="38.193259947001934051513671875" lon="-0.73616973124444484710693359375">
        <ele>9</ele>
        <time>2019-10-25T10:44:02.000Z</time>
      </trkpt>
      <trkpt lat="38.19348617456853389739990234375" lon="-0.7360878400504589080810546875">
        <ele>9.3999996185302734375</ele>
        <time>2019-10-25T10:44:06.000Z</time>
      </trkpt>
      <trkpt lat="38.1937177665531635284423828125" lon="-0.736034698784351348876953125">
        <ele>10.80000019073486328125</ele>
        <time>2019-10-25T10:44:10.000Z</time>
      </trkpt>
      <trkpt lat="38.1939494423568248748779296875" lon="-0.73604467324912548065185546875">
        <ele>11.6000003814697265625</ele>
        <time>2019-10-25T10:44:14.000Z</time>
      </trkpt>
      <trkpt lat="38.1941784359514713287353515625" lon="-0.7360985688865184783935546875">
        <ele>12.19999980926513671875</ele>
        <time>2019-10-25T10:44:18.000Z</time>
      </trkpt>
      <trkpt lat="38.1944044120609760284423828125" lon="-0.73617073707282543182373046875">
        <ele>12</ele>
        <time>2019-10-25T10:44:22.000Z</time>
      </trkpt>
      <trkpt lat="38.19461303763091564178466796875" lon="-0.7362903468310832977294921875">
        <ele>11.19999980926513671875</ele>
        <time>2019-10-25T10:44:26.000Z</time>
      </trkpt>
      <trkpt lat="38.19475100375711917877197265625" lon="-0.73641163296997547149658203125">
        <ele>10.19999980926513671875</ele>
        <time>2019-10-25T10:44:29.000Z</time>
      </trkpt>
      <trkpt lat="38.19489886052906513214111328125" lon="-0.73661531321704387664794921875">
        <ele>9.3999996185302734375</ele>
        <time>2019-10-25T10:44:33.000Z</time>
      </trkpt>
      <trkpt lat="38.19500514306128025054931640625" lon="-0.7368546165525913238525390625">
        <ele>9.3999996185302734375</ele>
        <time>2019-10-25T10:44:37.000Z</time>
      </trkpt>
      <trkpt lat="38.19507873617112636566162109375" lon="-0.7371124438941478729248046875">
        <ele>9.6000003814697265625</ele>
        <time>2019-10-25T10:44:41.000Z</time>
      </trkpt>
      <trkpt lat="38.19513455964624881744384765625" lon="-0.73738125152885913848876953125">
        <ele>10</ele>
        <time>2019-10-25T10:44:45.000Z</time>
      </trkpt>
      <trkpt lat="38.19519340060651302337646484375" lon="-0.73765651322901248931884765625">
        <ele>10</ele>
        <time>2019-10-25T10:44:49.000Z</time>
      </trkpt>
      <trkpt lat="38.195248134434223175048828125" lon="-0.7379268296062946319580078125">
        <ele>10.19999980926513671875</ele>
        <time>2019-10-25T10:44:53.000Z</time>
      </trkpt>
      <trkpt lat="38.19530890323221683502197265625" lon="-0.7381937094032764434814453125">
        <ele>10</ele>
        <time>2019-10-25T10:44:57.000Z</time>
      </trkpt>
      <trkpt lat="38.1953710131347179412841796875" lon="-0.7384632714092731475830078125">
        <ele>9.19999980926513671875</ele>
        <time>2019-10-25T10:45:01.000Z</time>
      </trkpt>
      <trkpt lat="38.195432536303997039794921875" lon="-0.7387402094900608062744140625">
        <ele>7.19999980926513671875</ele>
        <time>2019-10-25T10:45:05.000Z</time>
      </trkpt>
      <trkpt lat="38.19549657404422760009765625" lon="-0.73901304043829441070556640625">
        <ele>7</ele>
        <time>2019-10-25T10:45:09.000Z</time>
      </trkpt>
      <trkpt lat="38.1955554150044918060302734375" lon="-0.73928184807300567626953125">
        <ele>7.19999980926513671875</ele>
        <time>2019-10-25T10:45:13.000Z</time>
      </trkpt>
      <trkpt lat="38.19562733173370361328125" lon="-0.7395653240382671356201171875">
        <ele>7.599999904632568359375</ele>
        <time>2019-10-25T10:45:17.000Z</time>
      </trkpt>
      <trkpt lat="38.195694386959075927734375" lon="-0.73984838090837001800537109375">
        <ele>7.19999980926513671875</ele>
        <time>2019-10-25T10:45:21.000Z</time>
      </trkpt>
      <trkpt lat="38.1957485340535640716552734375" lon="-0.740131437778472900390625">
        <ele>6.19999980926513671875</ele>
        <time>2019-10-25T10:45:25.000Z</time>
      </trkpt>
      <trkpt lat="38.195802681148052215576171875" lon="-0.7404279895126819610595703125">
        <ele>7.19999980926513671875</ele>
        <time>2019-10-25T10:45:29.000Z</time>
      </trkpt>
      <trkpt lat="38.195818774402141571044921875" lon="-0.74050225317478179931640625">
        <ele>7.19999980926513671875</ele>
        <time>2019-10-25T10:45:30.000Z</time>
      </trkpt>
      <trkpt lat="38.19587702862918376922607421875" lon="-0.74072848074138164520263671875">
        <ele>8.3999996185302734375</ele>
        <time>2019-10-25T10:45:33.000Z</time>
      </trkpt>
      <trkpt lat="38.19593369029462337493896484375" lon="-0.7409642636775970458984375">
        <ele>9.19999980926513671875</ele>
        <time>2019-10-25T10:45:36.000Z</time>
      </trkpt>
      <trkpt lat="38.19599303416907787322998046875" lon="-0.7411927543580532073974609375">
        <ele>9.19999980926513671875</ele>
        <time>2019-10-25T10:45:39.000Z</time>
      </trkpt>
      <trkpt lat="38.1960482709109783172607421875" lon="-0.741431303322315216064453125">
        <ele>9</ele>
        <time>2019-10-25T10:45:42.000Z</time>
      </trkpt>
      <trkpt lat="38.19609093479812145233154296875" lon="-0.74166306294500827789306640625">
        <ele>9.6000003814697265625</ele>
        <time>2019-10-25T10:45:45.000Z</time>
      </trkpt>
      <trkpt lat="38.19615329615771770477294921875" lon="-0.7419605366885662078857421875">
        <ele>10.19999980926513671875</ele>
        <time>2019-10-25T10:45:49.000Z</time>
      </trkpt>
      <trkpt lat="38.19620023481547832489013671875" lon="-0.74219112284481525421142578125">
        <ele>11</ele>
        <time>2019-10-25T10:45:52.000Z</time>
      </trkpt>
      <trkpt lat="38.19625538773834705352783203125" lon="-0.74241475202143192291259765625">
        <ele>11.80000019073486328125</ele>
        <time>2019-10-25T10:45:55.000Z</time>
      </trkpt>
      <trkpt lat="38.1963206827640533447265625" lon="-0.74270644225180149078369140625">
        <ele>12</ele>
        <time>2019-10-25T10:45:59.000Z</time>
      </trkpt>
      <trkpt lat="38.1963822059333324432373046875" lon="-0.74298329651355743408203125">
        <ele>11.19999980926513671875</ele>
        <time>2019-10-25T10:46:03.000Z</time>
      </trkpt>
      <trkpt lat="38.19644850678741931915283203125" lon="-0.743261240422725677490234375">
        <ele>10</ele>
        <time>2019-10-25T10:46:07.000Z</time>
      </trkpt>
      <trkpt lat="38.196524195373058319091796875" lon="-0.7435376755893230438232421875">
        <ele>11</ele>
        <time>2019-10-25T10:46:11.000Z</time>
      </trkpt>
      <trkpt lat="38.1965920887887477874755859375" lon="-0.743825845420360565185546875">
        <ele>11.6000003814697265625</ele>
        <time>2019-10-25T10:46:15.000Z</time>
      </trkpt>
      <trkpt lat="38.1966544501483440399169921875" lon="-0.7440469600260257720947265625">
        <ele>11.3999996185302734375</ele>
        <time>2019-10-25T10:46:18.000Z</time>
      </trkpt>
      <trkpt lat="38.1967332400381565093994140625" lon="-0.74433906935155391693115234375">
        <ele>10.6000003814697265625</ele>
        <time>2019-10-25T10:46:22.000Z</time>
      </trkpt>
      <trkpt lat="38.196804486215114593505859375" lon="-0.7445535622537136077880859375">
        <ele>9.80000019073486328125</ele>
        <time>2019-10-25T10:46:25.000Z</time>
      </trkpt>
      <trkpt lat="38.19689844734966754913330078125" lon="-0.74475355446338653564453125">
        <ele>8.19999980926513671875</ele>
        <time>2019-10-25T10:46:28.000Z</time>
      </trkpt>
      <trkpt lat="38.19703591056168079376220703125" lon="-0.7450004853308200836181640625">
        <ele>8</ele>
        <time>2019-10-25T10:46:32.000Z</time>
      </trkpt>
      <trkpt lat="38.19717253558337688446044921875" lon="-0.74525110423564910888671875">
        <ele>8</ele>
        <time>2019-10-25T10:46:36.000Z</time>
      </trkpt>
      <trkpt lat="38.1972790695726871490478515625" lon="-0.745437853038311004638671875">
        <ele>8.19999980926513671875</ele>
        <time>2019-10-25T10:46:39.000Z</time>
      </trkpt>
      <trkpt lat="38.19739281199872493743896484375" lon="-0.7456230930984020233154296875">
        <ele>8</ele>
        <time>2019-10-25T10:46:42.000Z</time>
      </trkpt>
      <trkpt lat="38.19750479422509670257568359375" lon="-0.74580858461558818817138671875">
        <ele>7.599999904632568359375</ele>
        <time>2019-10-25T10:46:45.000Z</time>
      </trkpt>
      <trkpt lat="38.1976180337369441986083984375" lon="-0.7459892146289348602294921875">
        <ele>7.400000095367431640625</ele>
        <time>2019-10-25T10:46:48.000Z</time>
      </trkpt>
      <trkpt lat="38.197724483907222747802734375" lon="-0.746186859905719757080078125">
        <ele>6.80000019073486328125</ele>
        <time>2019-10-25T10:46:51.000Z</time>
      </trkpt>
      <trkpt lat="38.1978366337716579437255859375" lon="-0.7463875226676464080810546875">
        <ele>6</ele>
        <time>2019-10-25T10:46:54.000Z</time>
      </trkpt>
      <trkpt lat="38.197953142225742340087890625" lon="-0.7465890236198902130126953125">
        <ele>5.599999904632568359375</ele>
        <time>2019-10-25T10:46:57.000Z</time>
      </trkpt>
      <trkpt lat="38.19807275198400020599365234375" lon="-0.74677954427897930145263671875">
        <ele>5.80000019073486328125</ele>
        <time>2019-10-25T10:47:00.000Z</time>
      </trkpt>
      <trkpt lat="38.19820719771087169647216796875" lon="-0.74694156646728515625">
        <ele>6.599999904632568359375</ele>
        <time>2019-10-25T10:47:03.000Z</time>
      </trkpt>
      <trkpt lat="38.19830962456762790679931640625" lon="-0.7470255531370639801025390625">
        <ele>7.400000095367431640625</ele>
        <time>2019-10-25T10:47:05.000Z</time>
      </trkpt>
      <trkpt lat="38.19847458042204380035400390625" lon="-0.747123621404170989990234375">
        <ele>8.3999996185302734375</ele>
        <time>2019-10-25T10:47:08.000Z</time>
      </trkpt>
      <trkpt lat="38.19865076802670955657958984375" lon="-0.74720299802720546722412109375">
        <ele>8.80000019073486328125</ele>
        <time>2019-10-25T10:47:11.000Z</time>
      </trkpt>
      <trkpt lat="38.1988256983458995819091796875" lon="-0.7472808659076690673828125">
        <ele>9</ele>
        <time>2019-10-25T10:47:14.000Z</time>
      </trkpt>
      <trkpt lat="38.19900532253086566925048828125" lon="-0.74736208654940128326416015625">
        <ele>8.80000019073486328125</ele>
        <time>2019-10-25T10:47:17.000Z</time>
      </trkpt>
      <trkpt lat="38.19918754510581493377685546875" lon="-0.7474423013627529144287109375">
        <ele>8</ele>
        <time>2019-10-25T10:47:20.000Z</time>
      </trkpt>
      <trkpt lat="38.1993695162236690521240234375" lon="-0.74752452783286571502685546875">
        <ele>7.19999980926513671875</ele>
        <time>2019-10-25T10:47:23.000Z</time>
      </trkpt>
      <trkpt lat="38.199555091559886932373046875" lon="-0.7476139627397060394287109375">
        <ele>7</ele>
        <time>2019-10-25T10:47:26.000Z</time>
      </trkpt>
      <trkpt lat="38.19973580539226531982421875" lon="-0.74770038016140460968017578125">
        <ele>6.80000019073486328125</ele>
        <time>2019-10-25T10:47:29.000Z</time>
      </trkpt>
      <trkpt lat="38.19991626776754856109619140625" lon="-0.74779207818210124969482421875">
        <ele>6.400000095367431640625</ele>
        <time>2019-10-25T10:47:32.000Z</time>
      </trkpt>
      <trkpt lat="38.2000860013067722320556640625" lon="-0.74789819307625293731689453125">
        <ele>7</ele>
        <time>2019-10-25T10:47:35.000Z</time>
      </trkpt>
      <trkpt lat="38.20024676620960235595703125" lon="-0.74801755137741565704345703125">
        <ele>7.80000019073486328125</ele>
        <time>2019-10-25T10:47:38.000Z</time>
      </trkpt>
      <trkpt lat="38.20040811784565448760986328125" lon="-0.7481420226395130157470703125">
        <ele>8.6000003814697265625</ele>
        <time>2019-10-25T10:47:41.000Z</time>
      </trkpt>
      <trkpt lat="38.20057491771876811981201171875" lon="-0.74826381169259548187255859375">
        <ele>9.19999980926513671875</ele>
        <time>2019-10-25T10:47:44.000Z</time>
      </trkpt>
      <trkpt lat="38.20073735900223255157470703125" lon="-0.74838719330728054046630859375">
        <ele>10</ele>
        <time>2019-10-25T10:47:47.000Z</time>
      </trkpt>
      <trkpt lat="38.200897872447967529296875" lon="-0.748507641255855560302734375">
        <ele>10.6000003814697265625</ele>
        <time>2019-10-25T10:47:50.000Z</time>
      </trkpt>
      <trkpt lat="38.20105603896081447601318359375" lon="-0.74862624518573284149169921875">
        <ele>10</ele>
        <time>2019-10-25T10:47:53.000Z</time>
      </trkpt>
      <trkpt lat="38.2012138701975345611572265625" lon="-0.74874459765851497650146484375">
        <ele>9.80000019073486328125</ele>
        <time>2019-10-25T10:47:56.000Z</time>
      </trkpt>
      <trkpt lat="38.2014167122542858123779296875" lon="-0.7489007525146007537841796875">
        <ele>9.3999996185302734375</ele>
        <time>2019-10-25T10:48:00.000Z</time>
      </trkpt>
      <trkpt lat="38.20156909525394439697265625" lon="-0.7490244694054126739501953125">
        <ele>9.6000003814697265625</ele>
        <time>2019-10-25T10:48:03.000Z</time>
      </trkpt>
      <trkpt lat="38.201723657548427581787109375" lon="-0.74914977885782718658447265625">
        <ele>9.6000003814697265625</ele>
        <time>2019-10-25T10:48:06.000Z</time>
      </trkpt>
      <trkpt lat="38.20188869722187519073486328125" lon="-0.74927064590156078338623046875">
        <ele>10.80000019073486328125</ele>
        <time>2019-10-25T10:48:09.000Z</time>
      </trkpt>
      <trkpt lat="38.20204879157245159149169921875" lon="-0.74939704500138759613037109375">
        <ele>11</ele>
        <time>2019-10-25T10:48:12.000Z</time>
      </trkpt>
      <trkpt lat="38.20220720954239368438720703125" lon="-0.7495139725506305694580078125">
        <ele>12</ele>
        <time>2019-10-25T10:48:15.000Z</time>
      </trkpt>
      <trkpt lat="38.20236244238913059234619140625" lon="-0.7496400363743305206298828125">
        <ele>11.3999996185302734375</ele>
        <time>2019-10-25T10:48:18.000Z</time>
      </trkpt>
      <trkpt lat="38.20251717232167720794677734375" lon="-0.7497724704444408416748046875">
        <ele>10.80000019073486328125</ele>
        <time>2019-10-25T10:48:21.000Z</time>
      </trkpt>
      <trkpt lat="38.20267324335873126983642578125" lon="-0.74991144239902496337890625">
        <ele>9.6000003814697265625</ele>
        <time>2019-10-25T10:48:24.000Z</time>
      </trkpt>
      <trkpt lat="38.2028295658528804779052734375" lon="-0.75005368329584598541259765625">
        <ele>9</ele>
        <time>2019-10-25T10:48:27.000Z</time>
      </trkpt>
      <trkpt lat="38.202984295785427093505859375" lon="-0.75020489282906055450439453125">
        <ele>9.6000003814697265625</ele>
        <time>2019-10-25T10:48:30.000Z</time>
      </trkpt>
      <trkpt lat="38.20314757525920867919921875" lon="-0.75034721754491329193115234375">
        <ele>10</ele>
        <time>2019-10-25T10:48:33.000Z</time>
      </trkpt>
      <trkpt lat="38.20331026799976825714111328125" lon="-0.7504949904978275299072265625">
        <ele>10.6000003814697265625</ele>
        <time>2019-10-25T10:48:36.000Z</time>
      </trkpt>
      <trkpt lat="38.20347354747354984283447265625" lon="-0.75064192526042461395263671875">
        <ele>9.3999996185302734375</ele>
        <time>2019-10-25T10:48:39.000Z</time>
      </trkpt>
      <trkpt lat="38.20363573729991912841796875" lon="-0.7507891952991485595703125">
        <ele>8.3999996185302734375</ele>
        <time>2019-10-25T10:48:42.000Z</time>
      </trkpt>
      <trkpt lat="38.20379675365984439849853515625" lon="-0.7509338669478893280029296875">
        <ele>8</ele>
        <time>2019-10-25T10:48:45.000Z</time>
      </trkpt>
      <trkpt lat="38.203957267105579376220703125" lon="-0.7510787062346935272216796875">
        <ele>7.80000019073486328125</ele>
        <time>2019-10-25T10:48:48.000Z</time>
      </trkpt>
      <trkpt lat="38.2041124999523162841796875" lon="-0.75121524743735790252685546875">
        <ele>6.80000019073486328125</ele>
        <time>2019-10-25T10:48:51.000Z</time>
      </trkpt>
      <trkpt lat="38.2042695768177509307861328125" lon="-0.7513524591922760009765625">
        <ele>5.80000019073486328125</ele>
        <time>2019-10-25T10:48:54.000Z</time>
      </trkpt>
      <trkpt lat="38.20442019961774349212646484375" lon="-0.75149796903133392333984375">
        <ele>5.19999980926513671875</ele>
        <time>2019-10-25T10:48:57.000Z</time>
      </trkpt>
      <trkpt lat="38.20456369780004024505615234375" lon="-0.751656554639339447021484375">
        <ele>6.19999980926513671875</ele>
        <time>2019-10-25T10:49:00.000Z</time>
      </trkpt>
      <trkpt lat="38.20469713769853115081787109375" lon="-0.7518387772142887115478515625">
        <ele>7.19999980926513671875</ele>
        <time>2019-10-25T10:49:03.000Z</time>
      </trkpt>
      <trkpt lat="38.20482638664543628692626953125" lon="-0.75203080661594867706298828125">
        <ele>8.3999996185302734375</ele>
        <time>2019-10-25T10:49:06.000Z</time>
      </trkpt>
      <trkpt lat="38.20494976826012134552001953125" lon="-0.75222208164632320404052734375">
        <ele>9.19999980926513671875</ele>
        <time>2019-10-25T10:49:09.000Z</time>
      </trkpt>
      <trkpt lat="38.205074407160282135009765625" lon="-0.75241587124764919281005859375">
        <ele>9</ele>
        <time>2019-10-25T10:49:12.000Z</time>
      </trkpt>
      <trkpt lat="38.2052006386220455169677734375" lon="-0.752610079944133758544921875">
        <ele>8</ele>
        <time>2019-10-25T10:49:15.000Z</time>
      </trkpt>
      <trkpt lat="38.20532728917896747589111328125" lon="-0.75280194170773029327392578125">
        <ele>8</ele>
        <time>2019-10-25T10:49:18.000Z</time>
      </trkpt>
      <trkpt lat="38.205451257526874542236328125" lon="-0.7529939711093902587890625">
        <ele>8</ele>
        <time>2019-10-25T10:49:21.000Z</time>
      </trkpt>
      <trkpt lat="38.2055758126080036163330078125" lon="-0.75318365357816219329833984375">
        <ele>8.19999980926513671875</ele>
        <time>2019-10-25T10:49:24.000Z</time>
      </trkpt>
      <trkpt lat="38.2057012058794498443603515625" lon="-0.753375850617885589599609375">
        <ele>8</ele>
        <time>2019-10-25T10:49:27.000Z</time>
      </trkpt>
      <trkpt lat="38.20582601241767406463623046875" lon="-0.753567628562450408935546875">
        <ele>7</ele>
        <time>2019-10-25T10:49:30.000Z</time>
      </trkpt>
      <trkpt lat="38.20594972930848598480224609375" lon="-0.7537552155554294586181640625">
        <ele>7.400000095367431640625</ele>
        <time>2019-10-25T10:49:33.000Z</time>
      </trkpt>
      <trkpt lat="38.2060731947422027587890625" lon="-0.7539443112909793853759765625">
        <ele>7.19999980926513671875</ele>
        <time>2019-10-25T10:49:36.000Z</time>
      </trkpt>
      <trkpt lat="38.2061960734426975250244140625" lon="-0.75413189828395843505859375">
        <ele>7.400000095367431640625</ele>
        <time>2019-10-25T10:49:39.000Z</time>
      </trkpt>
      <trkpt lat="38.20631660521030426025390625" lon="-0.75431856326758861541748046875">
        <ele>7</ele>
        <time>2019-10-25T10:49:42.000Z</time>
      </trkpt>
      <trkpt lat="38.20642246864736080169677734375" lon="-0.75450581498444080352783203125">
        <ele>7.80000019073486328125</ele>
        <time>2019-10-25T10:49:45.000Z</time>
      </trkpt>
      <trkpt lat="38.20650645531713962554931640625" lon="-0.75470966286957263946533203125">
        <ele>8.80000019073486328125</ele>
        <time>2019-10-25T10:49:48.000Z</time>
      </trkpt>
      <trkpt lat="38.20657317526638507843017578125" lon="-0.75500068254768848419189453125">
        <ele>9</ele>
        <time>2019-10-25T10:49:52.000Z</time>
      </trkpt>
      <trkpt lat="38.20660385303199291229248046875" lon="-0.7552294246852397918701171875">
        <ele>9</ele>
        <time>2019-10-25T10:49:55.000Z</time>
      </trkpt>
      <trkpt lat="38.20664115250110626220703125" lon="-0.75546470470726490020751953125">
        <ele>9</ele>
        <time>2019-10-25T10:49:58.000Z</time>
      </trkpt>
      <trkpt lat="38.20668146945536136627197265625" lon="-0.7557055167853832244873046875">
        <ele>9.19999980926513671875</ele>
        <time>2019-10-25T10:50:01.000Z</time>
      </trkpt>
      <trkpt lat="38.206717930734157562255859375" lon="-0.75593761168420314788818359375">
        <ele>9.3999996185302734375</ele>
        <time>2019-10-25T10:50:04.000Z</time>
      </trkpt>
      <trkpt lat="38.2067499496042728424072265625" lon="-0.75617372989654541015625">
        <ele>9.6000003814697265625</ele>
        <time>2019-10-25T10:50:07.000Z</time>
      </trkpt>
      <trkpt lat="38.2067839801311492919921875" lon="-0.7564045675098896026611328125">
        <ele>9</ele>
        <time>2019-10-25T10:50:10.000Z</time>
      </trkpt>
      <trkpt lat="38.2068166695535182952880859375" lon="-0.75663029216229915618896484375">
        <ele>8.19999980926513671875</ele>
        <time>2019-10-25T10:50:13.000Z</time>
      </trkpt>
      <trkpt lat="38.20685028098523616790771484375" lon="-0.75685593299567699432373046875">
        <ele>7.400000095367431640625</ele>
        <time>2019-10-25T10:50:16.000Z</time>
      </trkpt>
      <trkpt lat="38.2068726606667041778564453125" lon="-0.75700496323406696319580078125">
        <ele>7</ele>
        <time>2019-10-25T10:50:18.000Z</time>
      </trkpt>
      <trkpt lat="38.2069242931902408599853515625" lon="-0.757299922406673431396484375">
        <ele>6.400000095367431640625</ele>
        <time>2019-10-25T10:50:22.000Z</time>
      </trkpt>
      <trkpt lat="38.206970058381557464599609375" lon="-0.7575880922377109527587890625">
        <ele>6.400000095367431640625</ele>
        <time>2019-10-25T10:50:26.000Z</time>
      </trkpt>
      <trkpt lat="38.207013644278049468994140625" lon="-0.75787584297358989715576171875">
        <ele>6.599999904632568359375</ele>
        <time>2019-10-25T10:50:30.000Z</time>
      </trkpt>
      <trkpt lat="38.207058571279048919677734375" lon="-0.75817071832716464996337890625">
        <ele>7.400000095367431640625</ele>
        <time>2019-10-25T10:50:34.000Z</time>
      </trkpt>
      <trkpt lat="38.20709955878555774688720703125" lon="-0.75839350931346416473388671875">
        <ele>7.19999980926513671875</ele>
        <time>2019-10-25T10:50:37.000Z</time>
      </trkpt>
      <trkpt lat="38.20715990848839282989501953125" lon="-0.758610852062702178955078125">
        <ele>7</ele>
        <time>2019-10-25T10:50:40.000Z</time>
      </trkpt>
      <trkpt lat="38.20722277276217937469482421875" lon="-0.7588262669742107391357421875">
        <ele>7</ele>
        <time>2019-10-25T10:50:43.000Z</time>
      </trkpt>
      <trkpt lat="38.20728915743529796600341796875" lon="-0.7590423524379730224609375">
        <ele>7.19999980926513671875</ele>
        <time>2019-10-25T10:50:46.000Z</time>
      </trkpt>
      <trkpt lat="38.20736124180257320404052734375" lon="-0.759251900017261505126953125">
        <ele>8.19999980926513671875</ele>
        <time>2019-10-25T10:50:49.000Z</time>
      </trkpt>
      <trkpt lat="38.20743802003562450408935546875" lon="-0.7594632916152477264404296875">
        <ele>8.80000019073486328125</ele>
        <time>2019-10-25T10:50:52.000Z</time>
      </trkpt>
      <trkpt lat="38.2075096853077411651611328125" lon="-0.75967677868902683258056640625">
        <ele>8</ele>
        <time>2019-10-25T10:50:55.000Z</time>
      </trkpt>
      <trkpt lat="38.2075861282646656036376953125" lon="-0.759889595210552215576171875">
        <ele>7</ele>
        <time>2019-10-25T10:50:58.000Z</time>
      </trkpt>
      <trkpt lat="38.207673132419586181640625" lon="-0.76009335927665233612060546875">
        <ele>5.80000019073486328125</ele>
        <time>2019-10-25T10:51:01.000Z</time>
      </trkpt>
      <trkpt lat="38.20777027867734432220458984375" lon="-0.7602910883724689483642578125">
        <ele>6.400000095367431640625</ele>
        <time>2019-10-25T10:51:04.000Z</time>
      </trkpt>
      <trkpt lat="38.207807242870330810546875" lon="-0.7603551261126995086669921875">
        <ele>6.80000019073486328125</ele>
        <time>2019-10-25T10:51:05.000Z</time>
      </trkpt>
      <trkpt lat="38.20792215876281261444091796875" lon="-0.76053994707763195037841796875">
        <ele>8.3999996185302734375</ele>
        <time>2019-10-25T10:51:08.000Z</time>
      </trkpt>
      <trkpt lat="38.208031542599201202392578125" lon="-0.7607286237180233001708984375">
        <ele>9.6000003814697265625</ele>
        <time>2019-10-25T10:51:11.000Z</time>
      </trkpt>
      <trkpt lat="38.2081175409257411956787109375" lon="-0.7609378360211849212646484375">
        <ele>11</ele>
        <time>2019-10-25T10:51:14.000Z</time>
      </trkpt>
      <trkpt lat="38.2081835903227329254150390625" lon="-0.76116020791232585906982421875">
        <ele>10.6000003814697265625</ele>
        <time>2019-10-25T10:51:17.000Z</time>
      </trkpt>
      <trkpt lat="38.2082362286746501922607421875" lon="-0.76138685457408428192138671875">
        <ele>9.3999996185302734375</ele>
        <time>2019-10-25T10:51:20.000Z</time>
      </trkpt>
      <trkpt lat="38.208282329142093658447265625" lon="-0.761622302234172821044921875">
        <ele>7.80000019073486328125</ele>
        <time>2019-10-25T10:51:23.000Z</time>
      </trkpt>
      <trkpt lat="38.2083274237811565399169921875" lon="-0.76185490004718303680419921875">
        <ele>7</ele>
        <time>2019-10-25T10:51:26.000Z</time>
      </trkpt>
      <trkpt lat="38.20837712846696376800537109375" lon="-0.76209076680243015289306640625">
        <ele>7.80000019073486328125</ele>
        <time>2019-10-25T10:51:29.000Z</time>
      </trkpt>
      <trkpt lat="38.2084226422011852264404296875" lon="-0.76233166269958019256591796875">
        <ele>8.3999996185302734375</ele>
        <time>2019-10-25T10:51:32.000Z</time>
      </trkpt>
      <trkpt lat="38.2084685750305652618408203125" lon="-0.76257239095866680145263671875">
        <ele>7.599999904632568359375</ele>
        <time>2019-10-25T10:51:35.000Z</time>
      </trkpt>
      <trkpt lat="38.2085175253450870513916015625" lon="-0.76281110756099224090576171875">
        <ele>6.19999980926513671875</ele>
        <time>2019-10-25T10:51:38.000Z</time>
      </trkpt>
      <trkpt lat="38.20856806822121143341064453125" lon="-0.76303658075630664825439453125">
        <ele>5.80000019073486328125</ele>
        <time>2019-10-25T10:51:41.000Z</time>
      </trkpt>
      <trkpt lat="38.20860712788999080657958984375" lon="-0.763262473046779632568359375">
        <ele>5.80000019073486328125</ele>
        <time>2019-10-25T10:51:44.000Z</time>
      </trkpt>
      <trkpt lat="38.2086378894746303558349609375" lon="-0.7634980045258998870849609375">
        <ele>5</ele>
        <time>2019-10-25T10:51:47.000Z</time>
      </trkpt>
      <trkpt lat="38.20866161026060581207275390625" lon="-0.7637333683669567108154296875">
        <ele>4.19999980926513671875</ele>
        <time>2019-10-25T10:51:50.000Z</time>
      </trkpt>
      <trkpt lat="38.20868373848497867584228515625" lon="-0.76396621763706207275390625">
        <ele>4.19999980926513671875</ele>
        <time>2019-10-25T10:51:53.000Z</time>
      </trkpt>
      <trkpt lat="38.2087056152522563934326171875" lon="-0.764193870127201080322265625">
        <ele>5</ele>
        <time>2019-10-25T10:51:56.000Z</time>
      </trkpt>
      <trkpt lat="38.2087280787527561187744140625" lon="-0.7644230313599109649658203125">
        <ele>5.80000019073486328125</ele>
        <time>2019-10-25T10:51:59.000Z</time>
      </trkpt>
      <trkpt lat="38.20874660275876522064208984375" lon="-0.76465445570647716522216796875">
        <ele>5.599999904632568359375</ele>
        <time>2019-10-25T10:52:02.000Z</time>
      </trkpt>
      <trkpt lat="38.20876252837479114532470703125" lon="-0.7648867182433605194091796875">
        <ele>4.80000019073486328125</ele>
        <time>2019-10-25T10:52:05.000Z</time>
      </trkpt>
      <trkpt lat="38.20878423750400543212890625" lon="-0.7651148736476898193359375">
        <ele>4.19999980926513671875</ele>
        <time>2019-10-25T10:52:08.000Z</time>
      </trkpt>
      <trkpt lat="38.20880837738513946533203125" lon="-0.76534596271812915802001953125">
        <ele>5</ele>
        <time>2019-10-25T10:52:11.000Z</time>
      </trkpt>
      <trkpt lat="38.20882941596210002899169921875" lon="-0.76557780615985393524169921875">
        <ele>7.599999904632568359375</ele>
        <time>2019-10-25T10:52:14.000Z</time>
      </trkpt>
      <trkpt lat="38.20884592831134796142578125" lon="-0.76580562628805637359619140625">
        <ele>9.19999980926513671875</ele>
        <time>2019-10-25T10:52:17.000Z</time>
      </trkpt>
      <trkpt lat="38.20884383283555507659912109375" lon="-0.7661037705838680267333984375">
        <ele>9.80000019073486328125</ele>
        <time>2019-10-25T10:52:21.000Z</time>
      </trkpt>
      <trkpt lat="38.2088085450232028961181640625" lon="-0.76639085076749324798583984375">
        <ele>10</ele>
        <time>2019-10-25T10:52:25.000Z</time>
      </trkpt>
      <trkpt lat="38.20875917561352252960205078125" lon="-0.76666586101055145263671875">
        <ele>10.19999980926513671875</ele>
        <time>2019-10-25T10:52:29.000Z</time>
      </trkpt>
      <trkpt lat="38.20870921947062015533447265625" lon="-0.766929052770137786865234375">
        <ele>11.3999996185302734375</ele>
        <time>2019-10-25T10:52:33.000Z</time>
      </trkpt>
      <trkpt lat="38.20865607820451259613037109375" lon="-0.7671989500522613525390625">
        <ele>12.6000003814697265625</ele>
        <time>2019-10-25T10:52:37.000Z</time>
      </trkpt>
      <trkpt lat="38.20862556807696819305419921875" lon="-0.76749893836677074432373046875">
        <ele>11.19999980926513671875</ele>
        <time>2019-10-25T10:52:41.000Z</time>
      </trkpt>
      <trkpt lat="38.20861299522221088409423828125" lon="-0.767741091549396514892578125">
        <ele>9.3999996185302734375</ele>
        <time>2019-10-25T10:52:44.000Z</time>
      </trkpt>
      <trkpt lat="38.208604194223880767822265625" lon="-0.76791048981249332427978515625">
        <ele>7.80000019073486328125</ele>
        <time>2019-10-25T10:52:46.000Z</time>
      </trkpt>
      <trkpt lat="38.20858751423656940460205078125" lon="-0.76816228218376636505126953125">
        <ele>6.19999980926513671875</ele>
        <time>2019-10-25T10:52:49.000Z</time>
      </trkpt>
      <trkpt lat="38.20857041515409946441650390625" lon="-0.76841466128826141357421875">
        <ele>7</ele>
        <time>2019-10-25T10:52:52.000Z</time>
      </trkpt>
      <trkpt lat="38.20855633355677127838134765625" lon="-0.76867282390594482421875">
        <ele>8</ele>
        <time>2019-10-25T10:52:55.000Z</time>
      </trkpt>
      <trkpt lat="38.2085366360843181610107421875" lon="-0.76891916804015636444091796875">
        <ele>6.400000095367431640625</ele>
        <time>2019-10-25T10:52:58.000Z</time>
      </trkpt>
      <trkpt lat="38.20851333439350128173828125" lon="-0.769153274595737457275390625">
        <ele>4.80000019073486328125</ele>
        <time>2019-10-25T10:53:01.000Z</time>
      </trkpt>
      <trkpt lat="38.2084863446652889251708984375" lon="-0.76938687823712825775146484375">
        <ele>4.19999980926513671875</ele>
        <time>2019-10-25T10:53:04.000Z</time>
      </trkpt>
      <trkpt lat="38.20845692418515682220458984375" lon="-0.7696236670017242431640625">
        <ele>5</ele>
        <time>2019-10-25T10:53:07.000Z</time>
      </trkpt>
      <trkpt lat="38.20842792280018329620361328125" lon="-0.769863389432430267333984375">
        <ele>6.19999980926513671875</ele>
        <time>2019-10-25T10:53:10.000Z</time>
      </trkpt>
      <trkpt lat="38.2084018550813198089599609375" lon="-0.77010311186313629150390625">
        <ele>7.599999904632568359375</ele>
        <time>2019-10-25T10:53:13.000Z</time>
      </trkpt>
      <trkpt lat="38.2083740271627902984619140625" lon="-0.77033889479935169219970703125">
        <ele>6.19999980926513671875</ele>
        <time>2019-10-25T10:53:16.000Z</time>
      </trkpt>
      <trkpt lat="38.2083478756248950958251953125" lon="-0.77057576738297939300537109375">
        <ele>6.19999980926513671875</ele>
        <time>2019-10-25T10:53:19.000Z</time>
      </trkpt>
      <trkpt lat="38.20830881595611572265625" lon="-0.7708762586116790771484375">
        <ele>7.19999980926513671875</ele>
        <time>2019-10-25T10:53:23.000Z</time>
      </trkpt>
      <trkpt lat="38.208285011351108551025390625" lon="-0.7711030729115009307861328125">
        <ele>7.19999980926513671875</ele>
        <time>2019-10-25T10:53:26.000Z</time>
      </trkpt>
      <trkpt lat="38.20824938826262950897216796875" lon="-0.77139719389379024505615234375">
        <ele>7</ele>
        <time>2019-10-25T10:53:30.000Z</time>
      </trkpt>
      <trkpt lat="38.2081959955394268035888671875" lon="-0.77168234623968601226806640625">
        <ele>6</ele>
        <time>2019-10-25T10:53:34.000Z</time>
      </trkpt>
      <trkpt lat="38.2081242464482784271240234375" lon="-0.7719503156840801239013671875">
        <ele>5</ele>
        <time>2019-10-25T10:53:38.000Z</time>
      </trkpt>
      <trkpt lat="38.20802651345729827880859375" lon="-0.77221241779625415802001953125">
        <ele>5.80000019073486328125</ele>
        <time>2019-10-25T10:53:42.000Z</time>
      </trkpt>
      <trkpt lat="38.2079260982573032379150390625" lon="-0.77247594483196735382080078125">
        <ele>7</ele>
        <time>2019-10-25T10:53:46.000Z</time>
      </trkpt>
      <trkpt lat="38.207819648087024688720703125" lon="-0.77274240553379058837890625">
        <ele>8</ele>
        <time>2019-10-25T10:53:50.000Z</time>
      </trkpt>
      <trkpt lat="38.20773624815046787261962890625" lon="-0.77294893562793731689453125">
        <ele>8.19999980926513671875</ele>
        <time>2019-10-25T10:53:53.000Z</time>
      </trkpt>
      <trkpt lat="38.2076235115528106689453125" lon="-0.7732178270816802978515625">
        <ele>7.80000019073486328125</ele>
        <time>2019-10-25T10:53:57.000Z</time>
      </trkpt>
      <trkpt lat="38.2075381837785243988037109375" lon="-0.77342100441455841064453125">
        <ele>7.400000095367431640625</ele>
        <time>2019-10-25T10:54:00.000Z</time>
      </trkpt>
      <trkpt lat="38.207424022257328033447265625" lon="-0.77368025667965412139892578125">
        <ele>7</ele>
        <time>2019-10-25T10:54:04.000Z</time>
      </trkpt>
      <trkpt lat="38.20731765590608119964599609375" lon="-0.77394093386828899383544921875">
        <ele>7.599999904632568359375</ele>
        <time>2019-10-25T10:54:08.000Z</time>
      </trkpt>
      <trkpt lat="38.20720785297453403472900390625" lon="-0.7741775549948215484619140625">
        <ele>8.19999980926513671875</ele>
        <time>2019-10-25T10:54:12.000Z</time>
      </trkpt>
      <trkpt lat="38.2071117125451564788818359375" lon="-0.7743872702121734619140625">
        <ele>8.3999996185302734375</ele>
        <time>2019-10-25T10:54:16.000Z</time>
      </trkpt>
      <trkpt lat="38.20701037533581256866455078125" lon="-0.77461182139813899993896484375">
        <ele>7.599999904632568359375</ele>
        <time>2019-10-25T10:54:20.000Z</time>
      </trkpt>
      <trkpt lat="38.20690141059458255767822265625" lon="-0.7748588360846042633056640625">
        <ele>7.400000095367431640625</ele>
        <time>2019-10-25T10:54:24.000Z</time>
      </trkpt>
      <trkpt lat="38.20678867399692535400390625" lon="-0.77510811388492584228515625">
        <ele>8.19999980926513671875</ele>
        <time>2019-10-25T10:54:28.000Z</time>
      </trkpt>
      <trkpt lat="38.20668281055986881256103515625" lon="-0.7753473334014415740966796875">
        <ele>10</ele>
        <time>2019-10-25T10:54:32.000Z</time>
      </trkpt>
      <trkpt lat="38.20657334290444850921630859375" lon="-0.77558630146086215972900390625">
        <ele>10.80000019073486328125</ele>
        <time>2019-10-25T10:54:36.000Z</time>
      </trkpt>
      <trkpt lat="38.20646504871547222137451171875" lon="-0.77582753263413906097412109375">
        <ele>9.80000019073486328125</ele>
        <time>2019-10-25T10:54:40.000Z</time>
      </trkpt>
      <trkpt lat="38.20635273121297359466552734375" lon="-0.776080079376697540283203125">
        <ele>9.19999980926513671875</ele>
        <time>2019-10-25T10:54:44.000Z</time>
      </trkpt>
      <trkpt lat="38.20623748004436492919921875" lon="-0.77633329667150974273681640625">
        <ele>9.19999980926513671875</ele>
        <time>2019-10-25T10:54:48.000Z</time>
      </trkpt>
      <trkpt lat="38.206150643527507781982421875" lon="-0.7765357196331024169921875">
        <ele>9.6000003814697265625</ele>
        <time>2019-10-25T10:54:51.000Z</time>
      </trkpt>
      <trkpt lat="38.2060374878346920013427734375" lon="-0.77678021974861621856689453125">
        <ele>10</ele>
        <time>2019-10-25T10:54:55.000Z</time>
      </trkpt>
      <trkpt lat="38.2059328816831111907958984375" lon="-0.77702949754893779754638671875">
        <ele>9.19999980926513671875</ele>
        <time>2019-10-25T10:54:59.000Z</time>
      </trkpt>
      <trkpt lat="38.2058215700089931488037109375" lon="-0.77727936208248138427734375">
        <ele>8</ele>
        <time>2019-10-25T10:55:03.000Z</time>
      </trkpt>
      <trkpt lat="38.205712772905826568603515625" lon="-0.7775202579796314239501953125">
        <ele>6.80000019073486328125</ele>
        <time>2019-10-25T10:55:07.000Z</time>
      </trkpt>
      <trkpt lat="38.20560473017394542694091796875" lon="-0.77776526100933551788330078125">
        <ele>7.599999904632568359375</ele>
        <time>2019-10-25T10:55:11.000Z</time>
      </trkpt>
      <trkpt lat="38.20549274794757366180419921875" lon="-0.77800691127777099609375">
        <ele>8.3999996185302734375</ele>
        <time>2019-10-25T10:55:15.000Z</time>
      </trkpt>
      <trkpt lat="38.20538043044507503509521484375" lon="-0.778251998126506805419921875">
        <ele>7.80000019073486328125</ele>
        <time>2019-10-25T10:55:19.000Z</time>
      </trkpt>
      <trkpt lat="38.2053216733038425445556640625" lon="-0.77836859039962291717529296875">
        <ele>6.80000019073486328125</ele>
        <time>2019-10-25T10:55:21.000Z</time>
      </trkpt>
      <trkpt lat="38.20521279238164424896240234375" lon="-0.77860437333583831787109375">
        <ele>5.400000095367431640625</ele>
        <time>2019-10-25T10:55:25.000Z</time>
      </trkpt>
      <trkpt lat="38.205130062997341156005859375" lon="-0.77885339967906475067138671875">
        <ele>5.19999980926513671875</ele>
        <time>2019-10-25T10:55:29.000Z</time>
      </trkpt>
      <trkpt lat="38.20507667027413845062255859375" lon="-0.779122374951839447021484375">
        <ele>3.7999999523162841796875</ele>
        <time>2019-10-25T10:55:33.000Z</time>
      </trkpt>
      <trkpt lat="38.205042891204357147216796875" lon="-0.7794030010700225830078125">
        <ele>1.39999997615814208984375</ele>
        <time>2019-10-25T10:55:37.000Z</time>
      </trkpt>
      <trkpt lat="38.20500827394425868988037109375" lon="-0.77967734076082706451416015625">
        <ele>0.60000002384185791015625</ele>
        <time>2019-10-25T10:55:41.000Z</time>
      </trkpt>
      <trkpt lat="38.2049703039228916168212890625" lon="-0.77995352447032928466796875">
        <ele>2.7999999523162841796875</ele>
        <time>2019-10-25T10:55:45.000Z</time>
      </trkpt>
      <trkpt lat="38.20493618957698345184326171875" lon="-0.78022384084761142730712890625">
        <ele>5.19999980926513671875</ele>
        <time>2019-10-25T10:55:49.000Z</time>
      </trkpt>
      <trkpt lat="38.20490148849785327911376953125" lon="-0.7805022038519382476806640625">
        <ele>7.400000095367431640625</ele>
        <time>2019-10-25T10:55:53.000Z</time>
      </trkpt>
      <trkpt lat="38.20485505275428295135498046875" lon="-0.78077050857245922088623046875">
        <ele>9.19999980926513671875</ele>
        <time>2019-10-25T10:55:57.000Z</time>
      </trkpt>
      <trkpt lat="38.20481984876096248626708984375" lon="-0.7808974944055080413818359375">
        <ele>9.6000003814697265625</ele>
        <time>2019-10-25T10:55:59.000Z</time>
      </trkpt>
      <trkpt lat="38.204746507108211517333984375" lon="-0.78107812441885471343994140625">
        <ele>8.19999980926513671875</ele>
        <time>2019-10-25T10:56:02.000Z</time>
      </trkpt>
      <trkpt lat="38.20460611023008823394775390625" lon="-0.7812927849590778350830078125">
        <ele>6.19999980926513671875</ele>
        <time>2019-10-25T10:56:06.000Z</time>
      </trkpt>
      <trkpt lat="38.20444903336465358734130859375" lon="-0.7815093733370304107666015625">
        <ele>5</ele>
        <time>2019-10-25T10:56:10.000Z</time>
      </trkpt>
      <trkpt lat="38.20428349077701568603515625" lon="-0.78172235749661922454833984375">
        <ele>5.19999980926513671875</ele>
        <time>2019-10-25T10:56:14.000Z</time>
      </trkpt>
      <trkpt lat="38.20412063039839267730712890625" lon="-0.78193274326622486114501953125">
        <ele>7.19999980926513671875</ele>
        <time>2019-10-25T10:56:18.000Z</time>
      </trkpt>
      <trkpt lat="38.2039601169526576995849609375" lon="-0.78213323839008808135986328125">
        <ele>8.3999996185302734375</ele>
        <time>2019-10-25T10:56:22.000Z</time>
      </trkpt>
      <trkpt lat="38.2037995196878910064697265625" lon="-0.78233574517071247100830078125">
        <ele>9.3999996185302734375</ele>
        <time>2019-10-25T10:56:26.000Z</time>
      </trkpt>
      <trkpt lat="38.2036449573934078216552734375" lon="-0.78254185616970062255859375">
        <ele>12</ele>
        <time>2019-10-25T10:56:30.000Z</time>
      </trkpt>
      <trkpt lat="38.20349517278373241424560546875" lon="-0.7827468775212764739990234375">
        <ele>13.3999996185302734375</ele>
        <time>2019-10-25T10:56:34.000Z</time>
      </trkpt>
      <trkpt lat="38.203335665166378021240234375" lon="-0.78295097686350345611572265625">
        <ele>14.80000019073486328125</ele>
        <time>2019-10-25T10:56:38.000Z</time>
      </trkpt>
      <trkpt lat="38.20317733101546764373779296875" lon="-0.78315071761608123779296875">
        <ele>13.80000019073486328125</ele>
        <time>2019-10-25T10:56:42.000Z</time>
      </trkpt>
      <trkpt lat="38.20302125997841358184814453125" lon="-0.78335330821573734283447265625">
        <ele>11.6000003814697265625</ele>
        <time>2019-10-25T10:56:46.000Z</time>
      </trkpt>
      <trkpt lat="38.202856890857219696044921875" lon="-0.78355439007282257080078125">
        <ele>9.80000019073486328125</ele>
        <time>2019-10-25T10:56:50.000Z</time>
      </trkpt>
      <trkpt lat="38.2026951201260089874267578125" lon="-0.78375765122473239898681640625">
        <ele>8.19999980926513671875</ele>
        <time>2019-10-25T10:56:54.000Z</time>
      </trkpt>
      <trkpt lat="38.20253360085189342498779296875" lon="-0.78396233730018138885498046875">
        <ele>9</ele>
        <time>2019-10-25T10:56:58.000Z</time>
      </trkpt>
      <trkpt lat="38.20236797444522380828857421875" lon="-0.78418110497295856475830078125">
        <ele>9.80000019073486328125</ele>
        <time>2019-10-25T10:57:02.000Z</time>
      </trkpt>
      <trkpt lat="38.2022401504218578338623046875" lon="-0.784345306456089019775390625">
        <ele>9.6000003814697265625</ele>
        <time>2019-10-25T10:57:05.000Z</time>
      </trkpt>
      <trkpt lat="38.2020825706422328948974609375" lon="-0.784557200968265533447265625">
        <ele>8.3999996185302734375</ele>
        <time>2019-10-25T10:57:09.000Z</time>
      </trkpt>
      <trkpt lat="38.20192909799516201019287109375" lon="-0.7847595401108264923095703125">
        <ele>6.599999904632568359375</ele>
        <time>2019-10-25T10:57:13.000Z</time>
      </trkpt>
      <trkpt lat="38.20186145603656768798828125" lon="-0.784861631691455841064453125">
        <ele>6</ele>
        <time>2019-10-25T10:57:15.000Z</time>
      </trkpt>
      <trkpt lat="38.201788365840911865234375" lon="-0.78509800136089324951171875">
        <ele>5.80000019073486328125</ele>
        <time>2019-10-25T10:57:19.000Z</time>
      </trkpt>
      <trkpt lat="38.2017794810235500335693359375" lon="-0.78517000190913677215576171875">
        <ele>5.80000019073486328125</ele>
        <time>2019-10-25T10:57:20.000Z</time>
      </trkpt>
      <trkpt lat="38.20176380686461925506591796875" lon="-0.78530989587306976318359375">
        <ele>5.599999904632568359375</ele>
        <time>2019-10-25T10:57:22.000Z</time>
      </trkpt>
      <trkpt lat="38.20175173692405223846435546875" lon="-0.7855853252112865447998046875">
        <ele>6.400000095367431640625</ele>
        <time>2019-10-25T10:57:26.000Z</time>
      </trkpt>
      <trkpt lat="38.2017348892986774444580078125" lon="-0.78585974872112274169921875">
        <ele>7</ele>
        <time>2019-10-25T10:57:30.000Z</time>
      </trkpt>
      <trkpt lat="38.201713599264621734619140625" lon="-0.78613626770675182342529296875">
        <ele>5.80000019073486328125</ele>
        <time>2019-10-25T10:57:34.000Z</time>
      </trkpt>
      <trkpt lat="38.20169784128665924072265625" lon="-0.78641957603394985198974609375">
        <ele>4.19999980926513671875</ele>
        <time>2019-10-25T10:57:38.000Z</time>
      </trkpt>
      <trkpt lat="38.20168619044125080108642578125" lon="-0.78669969923794269561767578125">
        <ele>3.400000095367431640625</ele>
        <time>2019-10-25T10:57:42.000Z</time>
      </trkpt>
      <trkpt lat="38.20167060010135173797607421875" lon="-0.7869829237461090087890625">
        <ele>4.400000095367431640625</ele>
        <time>2019-10-25T10:57:46.000Z</time>
      </trkpt>
      <trkpt lat="38.201661966741085052490234375" lon="-0.78726564534008502960205078125">
        <ele>6.599999904632568359375</ele>
        <time>2019-10-25T10:57:50.000Z</time>
      </trkpt>
      <trkpt lat="38.201647885143756866455078125" lon="-0.78755146823823451995849609375">
        <ele>7.80000019073486328125</ele>
        <time>2019-10-25T10:57:54.000Z</time>
      </trkpt>
      <trkpt lat="38.2016292773187160491943359375" lon="-0.7878310047090053558349609375">
        <ele>7</ele>
        <time>2019-10-25T10:57:58.000Z</time>
      </trkpt>
      <trkpt lat="38.20161360315978527069091796875" lon="-0.78811892308294773101806640625">
        <ele>6</ele>
        <time>2019-10-25T10:58:02.000Z</time>
      </trkpt>
      <trkpt lat="38.2016011141240596771240234375" lon="-0.7884090207517147064208984375">
        <ele>5</ele>
        <time>2019-10-25T10:58:06.000Z</time>
      </trkpt>
      <trkpt lat="38.20158409886062145233154296875" lon="-0.78870247118175029754638671875">
        <ele>4</ele>
        <time>2019-10-25T10:58:10.000Z</time>
      </trkpt>
      <trkpt lat="38.2015706039965152740478515625" lon="-0.78899282030761241912841796875">
        <ele>5.400000095367431640625</ele>
        <time>2019-10-25T10:58:14.000Z</time>
      </trkpt>
      <trkpt lat="38.201555348932743072509765625" lon="-0.78928568400442600250244140625">
        <ele>8</ele>
        <time>2019-10-25T10:58:18.000Z</time>
      </trkpt>
      <trkpt lat="38.20154822431504726409912109375" lon="-0.78958173282444477081298828125">
        <ele>8.3999996185302734375</ele>
        <time>2019-10-25T10:58:22.000Z</time>
      </trkpt>
      <trkpt lat="38.20154654793441295623779296875" lon="-0.78987660817801952362060546875">
        <ele>7.400000095367431640625</ele>
        <time>2019-10-25T10:58:26.000Z</time>
      </trkpt>
      <trkpt lat="38.201523832976818084716796875" lon="-0.7901702262461185455322265625">
        <ele>7.80000019073486328125</ele>
        <time>2019-10-25T10:58:30.000Z</time>
      </trkpt>
      <trkpt lat="38.20151536725461483001708984375" lon="-0.7904662750661373138427734375">
        <ele>9.6000003814697265625</ele>
        <time>2019-10-25T10:58:34.000Z</time>
      </trkpt>
      <trkpt lat="38.20149642415344715118408203125" lon="-0.790761150419712066650390625">
        <ele>10.6000003814697265625</ele>
        <time>2019-10-25T10:58:38.000Z</time>
      </trkpt>
      <trkpt lat="38.20148468948900699615478515625" lon="-0.7910597138106822967529296875">
        <ele>10.3999996185302734375</ele>
        <time>2019-10-25T10:58:42.000Z</time>
      </trkpt>
      <trkpt lat="38.201477229595184326171875" lon="-0.79120698384940624237060546875">
        <ele>10.3999996185302734375</ele>
        <time>2019-10-25T10:58:44.000Z</time>
      </trkpt>
      <trkpt lat="38.20145585574209690093994140625" lon="-0.7914972491562366485595703125">
        <ele>12</ele>
        <time>2019-10-25T10:58:48.000Z</time>
      </trkpt>
      <trkpt lat="38.20143456570804119110107421875" lon="-0.79179220832884311676025390625">
        <ele>12</ele>
        <time>2019-10-25T10:58:52.000Z</time>
      </trkpt>
      <trkpt lat="38.2014227472245693206787109375" lon="-0.79208188690245151519775390625">
        <ele>11.19999980926513671875</ele>
        <time>2019-10-25T10:58:56.000Z</time>
      </trkpt>
      <trkpt lat="38.20141562260687351226806640625" lon="-0.7923146523535251617431640625">
        <ele>10</ele>
        <time>2019-10-25T10:58:59.000Z</time>
      </trkpt>
      <trkpt lat="38.2014029659330844879150390625" lon="-0.79254842363297939300537109375">
        <ele>9.3999996185302734375</ele>
        <time>2019-10-25T10:59:02.000Z</time>
      </trkpt>
      <trkpt lat="38.2013882137835025787353515625" lon="-0.7927872240543365478515625">
        <ele>7.80000019073486328125</ele>
        <time>2019-10-25T10:59:05.000Z</time>
      </trkpt>
      <trkpt lat="38.201369605958461761474609375" lon="-0.793033652007579803466796875">
        <ele>6.80000019073486328125</ele>
        <time>2019-10-25T10:59:08.000Z</time>
      </trkpt>
      <trkpt lat="38.20134806446731090545654296875" lon="-0.7932614721357822418212890625">
        <ele>6.400000095367431640625</ele>
        <time>2019-10-25T10:59:11.000Z</time>
      </trkpt>
      <trkpt lat="38.201337754726409912109375" lon="-0.79349574632942676544189453125">
        <ele>6.599999904632568359375</ele>
        <time>2019-10-25T10:59:14.000Z</time>
      </trkpt>
      <trkpt lat="38.20132124237716197967529296875" lon="-0.79372524283826351165771484375">
        <ele>7</ele>
        <time>2019-10-25T10:59:17.000Z</time>
      </trkpt>
      <trkpt lat="38.2013191469013690948486328125" lon="-0.793959684669971466064453125">
        <ele>7</ele>
        <time>2019-10-25T10:59:20.000Z</time>
      </trkpt>
      <trkpt lat="38.201321661472320556640625" lon="-0.79419312067329883575439453125">
        <ele>7</ele>
        <time>2019-10-25T10:59:23.000Z</time>
      </trkpt>
      <trkpt lat="38.20135862566530704498291015625" lon="-0.7944895885884761810302734375">
        <ele>9</ele>
        <time>2019-10-25T10:59:27.000Z</time>
      </trkpt>
      <trkpt lat="38.20141017436981201171875" lon="-0.794787146151065826416015625">
        <ele>9.6000003814697265625</ele>
        <time>2019-10-25T10:59:31.000Z</time>
      </trkpt>
      <trkpt lat="38.2014468871057033538818359375" lon="-0.79501672647893428802490234375">
        <ele>9.3999996185302734375</ele>
        <time>2019-10-25T10:59:34.000Z</time>
      </trkpt>
      <trkpt lat="38.2014857791364192962646484375" lon="-0.7952426187694072723388671875">
        <ele>7</ele>
        <time>2019-10-25T10:59:37.000Z</time>
      </trkpt>
      <trkpt lat="38.20154001004993915557861328125" lon="-0.79553891904652118682861328125">
        <ele>3.599999904632568359375</ele>
        <time>2019-10-25T10:59:41.000Z</time>
      </trkpt>
      <trkpt lat="38.20157772861421108245849609375" lon="-0.7957633025944232940673828125">
        <ele>3</ele>
        <time>2019-10-25T10:59:44.000Z</time>
      </trkpt>
      <trkpt lat="38.201630450785160064697265625" lon="-0.796058513224124908447265625">
        <ele>5.400000095367431640625</ele>
        <time>2019-10-25T10:59:48.000Z</time>
      </trkpt>
      <trkpt lat="38.20168082602322101593017578125" lon="-0.7963513769209384918212890625">
        <ele>7</ele>
        <time>2019-10-25T10:59:52.000Z</time>
      </trkpt>
      <trkpt lat="38.20172843523323535919189453125" lon="-0.79664616845548152923583984375">
        <ele>6.599999904632568359375</ele>
        <time>2019-10-25T10:59:56.000Z</time>
      </trkpt>
      <trkpt lat="38.20176623761653900146484375" lon="-0.796870552003383636474609375">
        <ele>6.400000095367431640625</ele>
        <time>2019-10-25T10:59:59.000Z</time>
      </trkpt>
      <trkpt lat="38.20180990733206272125244140625" lon="-0.7970973663032054901123046875">
        <ele>6.19999980926513671875</ele>
        <time>2019-10-25T11:00:02.000Z</time>
      </trkpt>
      <trkpt lat="38.20184293203055858612060546875" lon="-0.79732392914593219757080078125">
        <ele>5</ele>
        <time>2019-10-25T11:00:05.000Z</time>
      </trkpt>
      <trkpt lat="38.2018750347197055816650390625" lon="-0.7975516654551029205322265625">
        <ele>5</ele>
        <time>2019-10-25T11:00:08.000Z</time>
      </trkpt>
      <trkpt lat="38.20191702805459499359130859375" lon="-0.7978520728647708892822265625">
        <ele>5.400000095367431640625</ele>
        <time>2019-10-25T11:00:12.000Z</time>
      </trkpt>
      <trkpt lat="38.20195608772337436676025390625" lon="-0.79807779751718044281005859375">
        <ele>5.80000019073486328125</ele>
        <time>2019-10-25T11:00:15.000Z</time>
      </trkpt>
      <trkpt lat="38.20200805552303791046142578125" lon="-0.7983734272420406341552734375">
        <ele>9.3999996185302734375</ele>
        <time>2019-10-25T11:00:19.000Z</time>
      </trkpt>
      <trkpt lat="38.20204376243054866790771484375" lon="-0.798597894608974456787109375">
        <ele>11</ele>
        <time>2019-10-25T11:00:22.000Z</time>
      </trkpt>
      <trkpt lat="38.20208198390901088714599609375" lon="-0.798824541270732879638671875">
        <ele>11.80000019073486328125</ele>
        <time>2019-10-25T11:00:25.000Z</time>
      </trkpt>
      <trkpt lat="38.20213646627962589263916015625" lon="-0.79911614768207073211669921875">
        <ele>10.3999996185302734375</ele>
        <time>2019-10-25T11:00:29.000Z</time>
      </trkpt>
      <trkpt lat="38.202179968357086181640625" lon="-0.7994042336940765380859375">
        <ele>7.400000095367431640625</ele>
        <time>2019-10-25T11:00:33.000Z</time>
      </trkpt>
      <trkpt lat="38.20219011045992374420166015625" lon="-0.79947640188038349151611328125">
        <ele>6.80000019073486328125</ele>
        <time>2019-10-25T11:00:34.000Z</time>
      </trkpt>
      <trkpt lat="38.202241994440555572509765625" lon="-0.7997711934149265289306640625">
        <ele>5.400000095367431640625</ele>
        <time>2019-10-25T11:00:38.000Z</time>
      </trkpt>
      <trkpt lat="38.202282898128032684326171875" lon="-0.80006204545497894287109375">
        <ele>5.599999904632568359375</ele>
        <time>2019-10-25T11:00:42.000Z</time>
      </trkpt>
      <trkpt lat="38.20233360864222049713134765625" lon="-0.80035381950438022613525390625">
        <ele>6.400000095367431640625</ele>
        <time>2019-10-25T11:00:46.000Z</time>
      </trkpt>
      <trkpt lat="38.20238859392702579498291015625" lon="-0.80064467154443264007568359375">
        <ele>7.19999980926513671875</ele>
        <time>2019-10-25T11:00:50.000Z</time>
      </trkpt>
      <trkpt lat="38.20243184454739093780517578125" lon="-0.80092571675777435302734375">
        <ele>8</ele>
        <time>2019-10-25T11:00:54.000Z</time>
      </trkpt>
      <trkpt lat="38.2024768553674221038818359375" lon="-0.80122218467295169830322265625">
        <ele>9</ele>
        <time>2019-10-25T11:00:58.000Z</time>
      </trkpt>
      <trkpt lat="38.20251801051199436187744140625" lon="-0.8015159703791141510009765625">
        <ele>9</ele>
        <time>2019-10-25T11:01:02.000Z</time>
      </trkpt>
      <trkpt lat="38.2025648653507232666015625" lon="-0.80180489458143711090087890625">
        <ele>8.3999996185302734375</ele>
        <time>2019-10-25T11:01:06.000Z</time>
      </trkpt>
      <trkpt lat="38.20260040462017059326171875" lon="-0.802031122148036956787109375">
        <ele>8.3999996185302734375</ele>
        <time>2019-10-25T11:01:09.000Z</time>
      </trkpt>
      <trkpt lat="38.20263887755572795867919921875" lon="-0.8022612892091274261474609375">
        <ele>8.80000019073486328125</ele>
        <time>2019-10-25T11:01:12.000Z</time>
      </trkpt>
      <trkpt lat="38.2026807032525539398193359375" lon="-0.8024926297366619110107421875">
        <ele>9.80000019073486328125</ele>
        <time>2019-10-25T11:01:15.000Z</time>
      </trkpt>
      <trkpt lat="38.20272034965455532073974609375" lon="-0.8027243055403232574462890625">
        <ele>10.3999996185302734375</ele>
        <time>2019-10-25T11:01:18.000Z</time>
      </trkpt>
      <trkpt lat="38.20276041515171527862548828125" lon="-0.80294986255466938018798828125">
        <ele>11</ele>
        <time>2019-10-25T11:01:21.000Z</time>
      </trkpt>
      <trkpt lat="38.202786147594451904296875" lon="-0.8031799457967281341552734375">
        <ele>11.19999980926513671875</ele>
        <time>2019-10-25T11:01:24.000Z</time>
      </trkpt>
      <trkpt lat="38.2027950324118137359619140625" lon="-0.80341271124780178070068359375">
        <ele>11</ele>
        <time>2019-10-25T11:01:27.000Z</time>
      </trkpt>
      <trkpt lat="38.20278321392834186553955078125" lon="-0.8036479912698268890380859375">
        <ele>11.6000003814697265625</ele>
        <time>2019-10-25T11:01:30.000Z</time>
      </trkpt>
      <trkpt lat="38.20275153033435344696044921875" lon="-0.80388151109218597412109375">
        <ele>11.6000003814697265625</ele>
        <time>2019-10-25T11:01:33.000Z</time>
      </trkpt>
      <trkpt lat="38.20271305739879608154296875" lon="-0.804109163582324981689453125">
        <ele>11.3999996185302734375</ele>
        <time>2019-10-25T11:01:36.000Z</time>
      </trkpt>
      <trkpt lat="38.20266318507492542266845703125" lon="-0.804404206573963165283203125">
        <ele>9.80000019073486328125</ele>
        <time>2019-10-25T11:01:40.000Z</time>
      </trkpt>
      <trkpt lat="38.20262881927192211151123046875" lon="-0.8046310208737850189208984375">
        <ele>8.6000003814697265625</ele>
        <time>2019-10-25T11:01:43.000Z</time>
      </trkpt>
      <trkpt lat="38.202602751553058624267578125" lon="-0.804858505725860595703125">
        <ele>8.19999980926513671875</ele>
        <time>2019-10-25T11:01:46.000Z</time>
      </trkpt>
      <trkpt lat="38.2025620155036449432373046875" lon="-0.80515648238360881805419921875">
        <ele>8.3999996185302734375</ele>
        <time>2019-10-25T11:01:50.000Z</time>
      </trkpt>
      <trkpt lat="38.20252723060548305511474609375" lon="-0.80538623034954071044921875">
        <ele>9</ele>
        <time>2019-10-25T11:01:53.000Z</time>
      </trkpt>
      <trkpt lat="38.20249018259346485137939453125" lon="-0.80561958253383636474609375">
        <ele>8.19999980926513671875</ele>
        <time>2019-10-25T11:01:56.000Z</time>
      </trkpt>
      <trkpt lat="38.2024537213146686553955078125" lon="-0.80584891140460968017578125">
        <ele>7.400000095367431640625</ele>
        <time>2019-10-25T11:01:59.000Z</time>
      </trkpt>
      <trkpt lat="38.20242027752101421356201171875" lon="-0.80607555806636810302734375">
        <ele>7.599999904632568359375</ele>
        <time>2019-10-25T11:02:02.000Z</time>
      </trkpt>
      <trkpt lat="38.2023836486041545867919921875" lon="-0.80630178563296794891357421875">
        <ele>7.400000095367431640625</ele>
        <time>2019-10-25T11:02:05.000Z</time>
      </trkpt>
      <trkpt lat="38.20233888924121856689453125" lon="-0.80659724771976470947265625">
        <ele>6.80000019073486328125</ele>
        <time>2019-10-25T11:02:09.000Z</time>
      </trkpt>
      <trkpt lat="38.20230058394372463226318359375" lon="-0.8068867586553096771240234375">
        <ele>7.400000095367431640625</ele>
        <time>2019-10-25T11:02:13.000Z</time>
      </trkpt>
      <trkpt lat="38.20225951261818408966064453125" lon="-0.80718507058918476104736328125">
        <ele>7.19999980926513671875</ele>
        <time>2019-10-25T11:02:17.000Z</time>
      </trkpt>
      <trkpt lat="38.202205784618854522705078125" lon="-0.8074751682579517364501953125">
        <ele>8.19999980926513671875</ele>
        <time>2019-10-25T11:02:21.000Z</time>
      </trkpt>
      <trkpt lat="38.20216697640717029571533203125" lon="-0.80770139582455158233642578125">
        <ele>9.6000003814697265625</ele>
        <time>2019-10-25T11:02:24.000Z</time>
      </trkpt>
      <trkpt lat="38.2021238096058368682861328125" lon="-0.80792502500116825103759765625">
        <ele>10.80000019073486328125</ele>
        <time>2019-10-25T11:02:27.000Z</time>
      </trkpt>
      <trkpt lat="38.2020668126642704010009765625" lon="-0.80820363946259021759033203125">
        <ele>8.80000019073486328125</ele>
        <time>2019-10-25T11:02:31.000Z</time>
      </trkpt>
      <trkpt lat="38.20200688205659389495849609375" lon="-0.808452665805816650390625">
        <ele>5</ele>
        <time>2019-10-25T11:02:35.000Z</time>
      </trkpt>
      <trkpt lat="38.20196807384490966796875" lon="-0.80867671407759189605712890625">
        <ele>3</ele>
        <time>2019-10-25T11:02:39.000Z</time>
      </trkpt>
      <trkpt lat="38.20193530060350894927978515625" lon="-0.8089233934879302978515625">
        <ele>5.19999980926513671875</ele>
        <time>2019-10-25T11:02:43.000Z</time>
      </trkpt>
      <trkpt lat="38.20189137943089008331298828125" lon="-0.809108130633831024169921875">
        <ele>6</ele>
        <time>2019-10-25T11:02:46.000Z</time>
      </trkpt>
      <trkpt lat="38.20185072720050811767578125" lon="-0.8093520440161228179931640625">
        <ele>6.599999904632568359375</ele>
        <time>2019-10-25T11:02:50.000Z</time>
      </trkpt>
      <trkpt lat="38.201809823513031005859375" lon="-0.80959905870258808135986328125">
        <ele>6.19999980926513671875</ele>
        <time>2019-10-25T11:02:54.000Z</time>
      </trkpt>
      <trkpt lat="38.20176087319850921630859375" lon="-0.80983442254364490509033203125">
        <ele>6.400000095367431640625</ele>
        <time>2019-10-25T11:02:58.000Z</time>
      </trkpt>
      <trkpt lat="38.20173447020351886749267578125" lon="-0.809955708682537078857421875">
        <ele>7</ele>
        <time>2019-10-25T11:03:00.000Z</time>
      </trkpt>
      <trkpt lat="38.20168199948966503143310546875" lon="-0.8102147094905376434326171875">
        <ele>8.19999980926513671875</ele>
        <time>2019-10-25T11:03:04.000Z</time>
      </trkpt>
      <trkpt lat="38.2016359828412532806396484375" lon="-0.8105084113776683807373046875">
        <ele>8.80000019073486328125</ele>
        <time>2019-10-25T11:03:08.000Z</time>
      </trkpt>
      <trkpt lat="38.20161343552172183990478515625" lon="-0.81064461730420589447021484375">
        <ele>8.80000019073486328125</ele>
        <time>2019-10-25T11:03:10.000Z</time>
      </trkpt>
      <trkpt lat="38.201562725007534027099609375" lon="-0.81091828644275665283203125">
        <ele>9</ele>
        <time>2019-10-25T11:03:14.000Z</time>
      </trkpt>
      <trkpt lat="38.2015152834355831146240234375" lon="-0.8111927099525928497314453125">
        <ele>10</ele>
        <time>2019-10-25T11:03:18.000Z</time>
      </trkpt>
      <trkpt lat="38.20147144608199596405029296875" lon="-0.81148557364940643310546875">
        <ele>9.6000003814697265625</ele>
        <time>2019-10-25T11:03:22.000Z</time>
      </trkpt>
      <trkpt lat="38.20141713134944438934326171875" lon="-0.8117640204727649688720703125">
        <ele>9.3999996185302734375</ele>
        <time>2019-10-25T11:03:26.000Z</time>
      </trkpt>
      <trkpt lat="38.20137740112841129302978515625" lon="-0.8119569718837738037109375">
        <ele>9.19999980926513671875</ele>
        <time>2019-10-25T11:03:29.000Z</time>
      </trkpt>
      <trkpt lat="38.20132392458617687225341796875" lon="-0.81223131157457828521728515625">
        <ele>9</ele>
        <time>2019-10-25T11:03:33.000Z</time>
      </trkpt>
      <trkpt lat="38.20127564482390880584716796875" lon="-0.812497437000274658203125">
        <ele>8.80000019073486328125</ele>
        <time>2019-10-25T11:03:37.000Z</time>
      </trkpt>
      <trkpt lat="38.20122350938618183135986328125" lon="-0.81279105506837368011474609375">
        <ele>9.19999980926513671875</ele>
        <time>2019-10-25T11:03:41.000Z</time>
      </trkpt>
      <trkpt lat="38.20116668008267879486083984375" lon="-0.813065059483051300048828125">
        <ele>9.80000019073486328125</ele>
        <time>2019-10-25T11:03:45.000Z</time>
      </trkpt>
      <trkpt lat="38.201117813587188720703125" lon="-0.81333738751709461212158203125">
        <ele>10.3999996185302734375</ele>
        <time>2019-10-25T11:03:49.000Z</time>
      </trkpt>
      <trkpt lat="38.2010998763144016265869140625" lon="-0.81347485072910785675048828125">
        <ele>10.6000003814697265625</ele>
        <time>2019-10-25T11:03:51.000Z</time>
      </trkpt>
      <trkpt lat="38.20106492377817630767822265625" lon="-0.81370602361857891082763671875">
        <ele>10.19999980926513671875</ele>
        <time>2019-10-25T11:03:55.000Z</time>
      </trkpt>
      <trkpt lat="38.201057799160480499267578125" lon="-0.8137558959424495697021484375">
        <ele>9.80000019073486328125</ele>
        <time>2019-10-25T11:03:56.000Z</time>
      </trkpt>
      <trkpt lat="38.201060481369495391845703125" lon="-0.8138423971831798553466796875">
        <ele>9.6000003814697265625</ele>
        <time>2019-10-25T11:03:58.000Z</time>
      </trkpt>
      <trkpt lat="38.20120071060955524444580078125" lon="-0.81394624896347522735595703125">
        <ele>9.80000019073486328125</ele>
        <time>2019-10-25T11:04:03.000Z</time>
      </trkpt>
      <trkpt lat="38.201407492160797119140625" lon="-0.81400425173342227935791015625">
        <ele>9.6000003814697265625</ele>
        <time>2019-10-25T11:04:07.000Z</time>
      </trkpt>
      <trkpt lat="38.201632797718048095703125" lon="-0.81407398916780948638916015625">
        <ele>8.3999996185302734375</ele>
        <time>2019-10-25T11:04:11.000Z</time>
      </trkpt>
      <trkpt lat="38.2018621265888214111328125" lon="-0.8141349256038665771484375">
        <ele>6.599999904632568359375</ele>
        <time>2019-10-25T11:04:15.000Z</time>
      </trkpt>
      <trkpt lat="38.20208315737545490264892578125" lon="-0.8141917549073696136474609375">
        <ele>7.599999904632568359375</ele>
        <time>2019-10-25T11:04:19.000Z</time>
      </trkpt>
      <trkpt lat="38.20228046737611293792724609375" lon="-0.8142410404980182647705078125">
        <ele>9.6000003814697265625</ele>
        <time>2019-10-25T11:04:23.000Z</time>
      </trkpt>
      <trkpt lat="38.202496469020843505859375" lon="-0.814296863973140716552734375">
        <ele>11.6000003814697265625</ele>
        <time>2019-10-25T11:04:28.000Z</time>
      </trkpt>
      <trkpt lat="38.2027051784098148345947265625" lon="-0.8143597282469272613525390625">
        <ele>12.6000003814697265625</ele>
        <time>2019-10-25T11:04:33.000Z</time>
      </trkpt>
      <trkpt lat="38.202911205589771270751953125" lon="-0.81442284397780895233154296875">
        <ele>12</ele>
        <time>2019-10-25T11:04:38.000Z</time>
      </trkpt>
      <trkpt lat="38.20310759358108043670654296875" lon="-0.81448906101286411285400390625">
        <ele>11.6000003814697265625</ele>
        <time>2019-10-25T11:04:43.000Z</time>
      </trkpt>
      <trkpt lat="38.20331119000911712646484375" lon="-0.81455008126795291900634765625">
        <ele>11.6000003814697265625</ele>
        <time>2019-10-25T11:04:48.000Z</time>
      </trkpt>
      <trkpt lat="38.20351998321712017059326171875" lon="-0.81461428664624691009521484375">
        <ele>10.3999996185302734375</ele>
        <time>2019-10-25T11:04:53.000Z</time>
      </trkpt>
      <trkpt lat="38.20371259935200214385986328125" lon="-0.814671702682971954345703125">
        <ele>9.80000019073486328125</ele>
        <time>2019-10-25T11:04:57.000Z</time>
      </trkpt>
      <trkpt lat="38.20390068925917148590087890625" lon="-0.8147238381206989288330078125">
        <ele>10</ele>
        <time>2019-10-25T11:05:01.000Z</time>
      </trkpt>
      <trkpt lat="38.20411040447652339935302734375" lon="-0.8147882111370563507080078125">
        <ele>10.19999980926513671875</ele>
        <time>2019-10-25T11:05:06.000Z</time>
      </trkpt>
      <trkpt lat="38.2042950578033924102783203125" lon="-0.8148462139070034027099609375">
        <ele>9.80000019073486328125</ele>
        <time>2019-10-25T11:05:10.000Z</time>
      </trkpt>
      <trkpt lat="38.204495720565319061279296875" lon="-0.81491352058947086334228515625">
        <ele>10.3999996185302734375</ele>
        <time>2019-10-25T11:05:14.000Z</time>
      </trkpt>
      <trkpt lat="38.2047198526561260223388671875" lon="-0.81498661078512668609619140625">
        <ele>11.19999980926513671875</ele>
        <time>2019-10-25T11:05:18.000Z</time>
      </trkpt>
      <trkpt lat="38.20490886457264423370361328125" lon="-0.81504260189831256866455078125">
        <ele>12.80000019073486328125</ele>
        <time>2019-10-25T11:05:21.000Z</time>
      </trkpt>
      <trkpt lat="38.2051183283329010009765625" lon="-0.8151040412485599517822265625">
        <ele>13</ele>
        <time>2019-10-25T11:05:24.000Z</time>
      </trkpt>
      <trkpt lat="38.2053382694721221923828125" lon="-0.81517419777810573577880859375">
        <ele>13</ele>
        <time>2019-10-25T11:05:27.000Z</time>
      </trkpt>
      <trkpt lat="38.2055660896003246307373046875" lon="-0.8152361400425434112548828125">
        <ele>12.19999980926513671875</ele>
        <time>2019-10-25T11:05:30.000Z</time>
      </trkpt>
      <trkpt lat="38.20579893887042999267578125" lon="-0.8152730204164981842041015625">
        <ele>11.19999980926513671875</ele>
        <time>2019-10-25T11:05:33.000Z</time>
      </trkpt>
      <trkpt lat="38.20587663911283016204833984375" lon="-0.81526882946491241455078125">
        <ele>11</ele>
        <time>2019-10-25T11:05:34.000Z</time>
      </trkpt>
      <trkpt lat="38.2060964964330196380615234375" lon="-0.81526086665689945220947265625">
        <ele>11</ele>
        <time>2019-10-25T11:05:37.000Z</time>
      </trkpt>
      <trkpt lat="38.2062068022787570953369140625" lon="-0.81544644199311733245849609375">
        <ele>12</ele>
        <time>2019-10-25T11:05:40.000Z</time>
      </trkpt>
      <trkpt lat="38.20607294328510761260986328125" lon="-0.815671496093273162841796875">
        <ele>10.19999980926513671875</ele>
        <time>2019-10-25T11:05:44.000Z</time>
      </trkpt>
      <trkpt lat="38.20589273236691951751708984375" lon="-0.815645344555377960205078125">
        <ele>9.6000003814697265625</ele>
        <time>2019-10-25T11:05:47.000Z</time>
      </trkpt>
      <trkpt lat="38.205832131206989288330078125" lon="-0.81562019884586334228515625">
        <ele>9.3999996185302734375</ele>
        <time>2019-10-25T11:05:48.000Z</time>
      </trkpt>
      <trkpt lat="38.20571050979197025299072265625" lon="-0.81558457575738430023193359375">
        <ele>9.6000003814697265625</ele>
        <time>2019-10-25T11:05:50.000Z</time>
      </trkpt>
      <trkpt lat="38.20558972656726837158203125" lon="-0.81556429155170917510986328125">
        <ele>10.19999980926513671875</ele>
        <time>2019-10-25T11:05:52.000Z</time>
      </trkpt>
      <trkpt lat="38.20541077293455600738525390625" lon="-0.8155003376305103302001953125">
        <ele>11.19999980926513671875</ele>
        <time>2019-10-25T11:05:55.000Z</time>
      </trkpt>
      <trkpt lat="38.20528957061469554901123046875" lon="-0.81545817665755748748779296875">
        <ele>12</ele>
        <time>2019-10-25T11:05:57.000Z</time>
      </trkpt>
      <trkpt lat="38.205092512071132659912109375" lon="-0.815400592982769012451171875">
        <ele>12.80000019073486328125</ele>
        <time>2019-10-25T11:06:00.000Z</time>
      </trkpt>
      <trkpt lat="38.20488631725311279296875" lon="-0.81535122357308864593505859375">
        <ele>12.80000019073486328125</ele>
        <time>2019-10-25T11:06:03.000Z</time>
      </trkpt>
      <trkpt lat="38.2046784460544586181640625" lon="-0.81531384028494358062744140625">
        <ele>11.19999980926513671875</ele>
        <time>2019-10-25T11:06:06.000Z</time>
      </trkpt>
      <trkpt lat="38.20446780882775783538818359375" lon="-0.8152750320732593536376953125">
        <ele>9.80000019073486328125</ele>
        <time>2019-10-25T11:06:09.000Z</time>
      </trkpt>
      <trkpt lat="38.2042571716010570526123046875" lon="-0.815238989889621734619140625">
        <ele>9.80000019073486328125</ele>
        <time>2019-10-25T11:06:12.000Z</time>
      </trkpt>
      <trkpt lat="38.2041173614561557769775390625" lon="-0.81523488275706768035888671875">
        <ele>9.6000003814697265625</ele>
        <time>2019-10-25T11:06:14.000Z</time>
      </trkpt>
      <trkpt lat="38.20390739478170871734619140625" lon="-0.81529338844120502471923828125">
        <ele>10.3999996185302734375</ele>
        <time>2019-10-25T11:06:17.000Z</time>
      </trkpt>
      <trkpt lat="38.20371377281844615936279296875" lon="-0.815417356789112091064453125">
        <ele>10.80000019073486328125</ele>
        <time>2019-10-25T11:06:20.000Z</time>
      </trkpt>
      <trkpt lat="38.20352786220610141754150390625" lon="-0.81556362099945545196533203125">
        <ele>10.19999980926513671875</ele>
        <time>2019-10-25T11:06:23.000Z</time>
      </trkpt>
      <trkpt lat="38.2033462263643741607666015625" lon="-0.81571080721914768218994140625">
        <ele>8.3999996185302734375</ele>
        <time>2019-10-25T11:06:26.000Z</time>
      </trkpt>
      <trkpt lat="38.2031584717333316802978515625" lon="-0.8158621005713939666748046875">
        <ele>6.80000019073486328125</ele>
        <time>2019-10-25T11:06:29.000Z</time>
      </trkpt>
      <trkpt lat="38.2029700465500354766845703125" lon="-0.81600266508758068084716796875">
        <ele>6.599999904632568359375</ele>
        <time>2019-10-25T11:06:32.000Z</time>
      </trkpt>
      <trkpt lat="38.2027806155383586883544921875" lon="-0.816132836043834686279296875">
        <ele>8.19999980926513671875</ele>
        <time>2019-10-25T11:06:35.000Z</time>
      </trkpt>
      <trkpt lat="38.2026015780866146087646484375" lon="-0.81626283936202526092529296875">
        <ele>9.6000003814697265625</ele>
        <time>2019-10-25T11:06:38.000Z</time>
      </trkpt>
      <trkpt lat="38.20240594446659088134765625" lon="-0.81640264950692653656005859375">
        <ele>11</ele>
        <time>2019-10-25T11:06:41.000Z</time>
      </trkpt>
      <trkpt lat="38.20220888592302799224853515625" lon="-0.8165360055863857269287109375">
        <ele>10.19999980926513671875</ele>
        <time>2019-10-25T11:06:44.000Z</time>
      </trkpt>
      <trkpt lat="38.202016353607177734375" lon="-0.8166664279997348785400390625">
        <ele>10.3999996185302734375</ele>
        <time>2019-10-25T11:06:47.000Z</time>
      </trkpt>
      <trkpt lat="38.201823569834232330322265625" lon="-0.81678167916834354400634765625">
        <ele>11.19999980926513671875</ele>
        <time>2019-10-25T11:06:50.000Z</time>
      </trkpt>
      <trkpt lat="38.20163221098482608795166015625" lon="-0.81690187565982341766357421875">
        <ele>12.3999996185302734375</ele>
        <time>2019-10-25T11:06:53.000Z</time>
      </trkpt>
      <trkpt lat="38.2014411874115467071533203125" lon="-0.81703263334929943084716796875">
        <ele>13</ele>
        <time>2019-10-25T11:06:56.000Z</time>
      </trkpt>
      <trkpt lat="38.20125083439052104949951171875" lon="-0.8171582780778408050537109375">
        <ele>12.19999980926513671875</ele>
        <time>2019-10-25T11:06:59.000Z</time>
      </trkpt>
      <trkpt lat="38.2010593079030513763427734375" lon="-0.81729079596698284149169921875">
        <ele>10.19999980926513671875</ele>
        <time>2019-10-25T11:07:02.000Z</time>
      </trkpt>
      <trkpt lat="38.20087716914713382720947265625" lon="-0.8174110762774944305419921875">
        <ele>8.19999980926513671875</ele>
        <time>2019-10-25T11:07:05.000Z</time>
      </trkpt>
      <trkpt lat="38.2006980478763580322265625" lon="-0.81753420643508434295654296875">
        <ele>6.599999904632568359375</ele>
        <time>2019-10-25T11:07:08.000Z</time>
      </trkpt>
      <trkpt lat="38.2005252130329608917236328125" lon="-0.817665047943592071533203125">
        <ele>7</ele>
        <time>2019-10-25T11:07:11.000Z</time>
      </trkpt>
      <trkpt lat="38.20035547949373722076416015625" lon="-0.8177899383008480072021484375">
        <ele>8.19999980926513671875</ele>
        <time>2019-10-25T11:07:14.000Z</time>
      </trkpt>
      <trkpt lat="38.20018733851611614227294921875" lon="-0.81791591830551624298095703125">
        <ele>9.3999996185302734375</ele>
        <time>2019-10-25T11:07:17.000Z</time>
      </trkpt>
      <trkpt lat="38.20001752115786075592041015625" lon="-0.8180377073585987091064453125">
        <ele>9</ele>
        <time>2019-10-25T11:07:20.000Z</time>
      </trkpt>
      <trkpt lat="38.19984451867640018463134765625" lon="-0.8181631006300449371337890625">
        <ele>8.80000019073486328125</ele>
        <time>2019-10-25T11:07:23.000Z</time>
      </trkpt>
      <trkpt lat="38.199663050472736358642578125" lon="-0.8182908408343791961669921875">
        <ele>8.6000003814697265625</ele>
        <time>2019-10-25T11:07:26.000Z</time>
      </trkpt>
      <trkpt lat="38.199484683573246002197265625" lon="-0.81843123771250247955322265625">
        <ele>7.400000095367431640625</ele>
        <time>2019-10-25T11:07:29.000Z</time>
      </trkpt>
      <trkpt lat="38.19931394420564174652099609375" lon="-0.81856769509613513946533203125">
        <ele>6.599999904632568359375</ele>
        <time>2019-10-25T11:07:32.000Z</time>
      </trkpt>
      <trkpt lat="38.19914706051349639892578125" lon="-0.8187080919742584228515625">
        <ele>5.80000019073486328125</ele>
        <time>2019-10-25T11:07:35.000Z</time>
      </trkpt>
      <trkpt lat="38.19897648878395557403564453125" lon="-0.81885234452784061431884765625">
        <ele>5.80000019073486328125</ele>
        <time>2019-10-25T11:07:38.000Z</time>
      </trkpt>
      <trkpt lat="38.19881119765341281890869140625" lon="-0.8189912326633930206298828125">
        <ele>6</ele>
        <time>2019-10-25T11:07:41.000Z</time>
      </trkpt>
      <trkpt lat="38.198649175465106964111328125" lon="-0.819138586521148681640625">
        <ele>7.19999980926513671875</ele>
        <time>2019-10-25T11:07:44.000Z</time>
      </trkpt>
      <trkpt lat="38.198482878506183624267578125" lon="-0.8192805759608745574951171875">
        <ele>8</ele>
        <time>2019-10-25T11:07:47.000Z</time>
      </trkpt>
      <trkpt lat="38.19830979220569133758544921875" lon="-0.81943488679826259613037109375">
        <ele>8.6000003814697265625</ele>
        <time>2019-10-25T11:07:50.000Z</time>
      </trkpt>
      <trkpt lat="38.19813678972423076629638671875" lon="-0.81957402639091014862060546875">
        <ele>8</ele>
        <time>2019-10-25T11:07:53.000Z</time>
      </trkpt>
      <trkpt lat="38.19795842282474040985107421875" lon="-0.81970478408038616180419921875">
        <ele>6.19999980926513671875</ele>
        <time>2019-10-25T11:07:56.000Z</time>
      </trkpt>
      <trkpt lat="38.19777234457433223724365234375" lon="-0.81981978379189968109130859375">
        <ele>4.599999904632568359375</ele>
        <time>2019-10-25T11:07:59.000Z</time>
      </trkpt>
      <trkpt lat="38.19758593104779720306396484375" lon="-0.81992992199957370758056640625">
        <ele>4.400000095367431640625</ele>
        <time>2019-10-25T11:08:02.000Z</time>
      </trkpt>
      <trkpt lat="38.19739683531224727630615234375" lon="-0.82003553397953510284423828125">
        <ele>5</ele>
        <time>2019-10-25T11:08:05.000Z</time>
      </trkpt>
      <trkpt lat="38.19733380340039730072021484375" lon="-0.820068977773189544677734375">
        <ele>5.19999980926513671875</ele>
        <time>2019-10-25T11:08:06.000Z</time>
      </trkpt>
      <trkpt lat="38.19714403711259365081787109375" lon="-0.8201764337718486785888671875">
        <ele>6.19999980926513671875</ele>
        <time>2019-10-25T11:08:09.000Z</time>
      </trkpt>
      <trkpt lat="38.196946643292903900146484375" lon="-0.820281542837619781494140625">
        <ele>6</ele>
        <time>2019-10-25T11:08:12.000Z</time>
      </trkpt>
      <trkpt lat="38.19673449732363224029541015625" lon="-0.82038841210305690765380859375">
        <ele>6</ele>
        <time>2019-10-25T11:08:15.000Z</time>
      </trkpt>
      <trkpt lat="38.19650910794734954833984375" lon="-0.82051347009837627410888671875">
        <ele>6.599999904632568359375</ele>
        <time>2019-10-25T11:08:18.000Z</time>
      </trkpt>
      <trkpt lat="38.19628790952265262603759765625" lon="-0.82064942456781864166259765625">
        <ele>7</ele>
        <time>2019-10-25T11:08:21.000Z</time>
      </trkpt>
      <trkpt lat="38.19608003832399845123291015625" lon="-0.82077012397348880767822265625">
        <ele>6.599999904632568359375</ele>
        <time>2019-10-25T11:08:24.000Z</time>
      </trkpt>
      <trkpt lat="38.19587610661983489990234375" lon="-0.82088059745728969573974609375">
        <ele>6.80000019073486328125</ele>
        <time>2019-10-25T11:08:27.000Z</time>
      </trkpt>
      <trkpt lat="38.19568055681884288787841796875" lon="-0.820989646017551422119140625">
        <ele>6.80000019073486328125</ele>
        <time>2019-10-25T11:08:30.000Z</time>
      </trkpt>
      <trkpt lat="38.1954890303313732147216796875" lon="-0.821099616587162017822265625">
        <ele>6</ele>
        <time>2019-10-25T11:08:33.000Z</time>
      </trkpt>
      <trkpt lat="38.19529968313872814178466796875" lon="-0.821202211081981658935546875">
        <ele>5.400000095367431640625</ele>
        <time>2019-10-25T11:08:36.000Z</time>
      </trkpt>
      <trkpt lat="38.1951168738305568695068359375" lon="-0.8213069848716259002685546875">
        <ele>5.599999904632568359375</ele>
        <time>2019-10-25T11:08:39.000Z</time>
      </trkpt>
      <trkpt lat="38.19493792019784450531005859375" lon="-0.8214109204709529876708984375">
        <ele>6.80000019073486328125</ele>
        <time>2019-10-25T11:08:42.000Z</time>
      </trkpt>
      <trkpt lat="38.1947547756135463714599609375" lon="-0.82151326350867748260498046875">
        <ele>8</ele>
        <time>2019-10-25T11:08:45.000Z</time>
      </trkpt>
      <trkpt lat="38.194580934941768646240234375" lon="-0.8216236531734466552734375">
        <ele>7.599999904632568359375</ele>
        <time>2019-10-25T11:08:48.000Z</time>
      </trkpt>
      <trkpt lat="38.19440835155546665191650390625" lon="-0.821729935705661773681640625">
        <ele>5.599999904632568359375</ele>
        <time>2019-10-25T11:08:51.000Z</time>
      </trkpt>
      <trkpt lat="38.194240964949131011962890625" lon="-0.821836553514003753662109375">
        <ele>4.80000019073486328125</ele>
        <time>2019-10-25T11:08:54.000Z</time>
      </trkpt>
      <trkpt lat="38.194061927497386932373046875" lon="-0.8219523914158344268798828125">
        <ele>4.80000019073486328125</ele>
        <time>2019-10-25T11:08:57.000Z</time>
      </trkpt>
      <trkpt lat="38.19387559778988361358642578125" lon="-0.82206713967025279998779296875">
        <ele>5.400000095367431640625</ele>
        <time>2019-10-25T11:09:00.000Z</time>
      </trkpt>
      <trkpt lat="38.1936862505972385406494140625" lon="-0.82217954099178314208984375">
        <ele>7</ele>
        <time>2019-10-25T11:09:03.000Z</time>
      </trkpt>
      <trkpt lat="38.19348801858723163604736328125" lon="-0.82230082713067531585693359375">
        <ele>9</ele>
        <time>2019-10-25T11:09:06.000Z</time>
      </trkpt>
      <trkpt lat="38.19329204969108104705810546875" lon="-0.82241783849895000457763671875">
        <ele>10.19999980926513671875</ele>
        <time>2019-10-25T11:09:09.000Z</time>
      </trkpt>
      <trkpt lat="38.19308903999626636505126953125" lon="-0.822542645037174224853515625">
        <ele>9.6000003814697265625</ele>
        <time>2019-10-25T11:09:12.000Z</time>
      </trkpt>
      <trkpt lat="38.19288804195821285247802734375" lon="-0.82266694866120815277099609375">
        <ele>8.3999996185302734375</ele>
        <time>2019-10-25T11:09:15.000Z</time>
      </trkpt>
      <trkpt lat="38.19269634783267974853515625" lon="-0.8227909170091152191162109375">
        <ele>7.19999980926513671875</ele>
        <time>2019-10-25T11:09:18.000Z</time>
      </trkpt>
      <trkpt lat="38.19250985048711299896240234375" lon="-0.822915472090244293212890625">
        <ele>6.19999980926513671875</ele>
        <time>2019-10-25T11:09:21.000Z</time>
      </trkpt>
      <trkpt lat="38.19231840781867504119873046875" lon="-0.82303424365818500518798828125">
        <ele>4</ele>
        <time>2019-10-25T11:09:24.000Z</time>
      </trkpt>
      <trkpt lat="38.1921258755028247833251953125" lon="-0.8231520093977451324462890625">
        <ele>1</ele>
        <time>2019-10-25T11:09:27.000Z</time>
      </trkpt>
      <trkpt lat="38.19193460047245025634765625" lon="-0.82327296026051044464111328125">
        <ele>1.2000000476837158203125</ele>
        <time>2019-10-25T11:09:30.000Z</time>
      </trkpt>
      <trkpt lat="38.19174676202237606048583984375" lon="-0.82339215092360973358154296875">
        <ele>2.400000095367431640625</ele>
        <time>2019-10-25T11:09:33.000Z</time>
      </trkpt>
      <trkpt lat="38.1915626116096973419189453125" lon="-0.82350991666316986083984375">
        <ele>4</ele>
        <time>2019-10-25T11:09:36.000Z</time>
      </trkpt>
      <trkpt lat="38.19137477315962314605712890625" lon="-0.82363019697368144989013671875">
        <ele>3.2000000476837158203125</ele>
        <time>2019-10-25T11:09:39.000Z</time>
      </trkpt>
      <trkpt lat="38.19118903018534183502197265625" lon="-0.8237464539706707000732421875">
        <ele>2</ele>
        <time>2019-10-25T11:09:42.000Z</time>
      </trkpt>
      <trkpt lat="38.191013596951961517333984375" lon="-0.82385164685547351837158203125">
        <ele>0.60000002384185791015625</ele>
        <time>2019-10-25T11:09:45.000Z</time>
      </trkpt>
      <trkpt lat="38.19083447568118572235107421875" lon="-0.82396077923476696014404296875">
        <ele>2.2000000476837158203125</ele>
        <time>2019-10-25T11:09:48.000Z</time>
      </trkpt>
      <trkpt lat="38.19065828807651996612548828125" lon="-0.82407318055629730224609375">
        <ele>4</ele>
        <time>2019-10-25T11:09:51.000Z</time>
      </trkpt>
      <trkpt lat="38.19047941826283931732177734375" lon="-0.8241843245923519134521484375">
        <ele>6.19999980926513671875</ele>
        <time>2019-10-25T11:09:54.000Z</time>
      </trkpt>
      <trkpt lat="38.19030490703880786895751953125" lon="-0.82429270260035991668701171875">
        <ele>7.19999980926513671875</ele>
        <time>2019-10-25T11:09:57.000Z</time>
      </trkpt>
      <trkpt lat="38.19013039581477642059326171875" lon="-0.8244019187986850738525390625">
        <ele>8.19999980926513671875</ele>
        <time>2019-10-25T11:10:00.000Z</time>
      </trkpt>
      <trkpt lat="38.1899472512304782867431640625" lon="-0.8245246298611164093017578125">
        <ele>8.80000019073486328125</ele>
        <time>2019-10-25T11:10:03.000Z</time>
      </trkpt>
      <trkpt lat="38.18976444192230701446533203125" lon="-0.8246372826397418975830078125">
        <ele>9.80000019073486328125</ele>
        <time>2019-10-25T11:10:06.000Z</time>
      </trkpt>
      <trkpt lat="38.1895824708044528961181640625" lon="-0.824756138026714324951171875">
        <ele>10.19999980926513671875</ele>
        <time>2019-10-25T11:10:09.000Z</time>
      </trkpt>
      <trkpt lat="38.1894054450094699859619140625" lon="-0.8248619176447391510009765625">
        <ele>9.6000003814697265625</ele>
        <time>2019-10-25T11:10:12.000Z</time>
      </trkpt>
      <trkpt lat="38.18922900594770908355712890625" lon="-0.82497750408947467803955078125">
        <ele>8.3999996185302734375</ele>
        <time>2019-10-25T11:10:15.000Z</time>
      </trkpt>
      <trkpt lat="38.18903672508895397186279296875" lon="-0.8251002989709377288818359375">
        <ele>6.599999904632568359375</ele>
        <time>2019-10-25T11:10:18.000Z</time>
      </trkpt>
      <trkpt lat="38.18882818333804607391357421875" lon="-0.825223512947559356689453125">
        <ele>4.80000019073486328125</ele>
        <time>2019-10-25T11:10:21.000Z</time>
      </trkpt>
      <trkpt lat="38.18863053806126117706298828125" lon="-0.825346224009990692138671875">
        <ele>4.599999904632568359375</ele>
        <time>2019-10-25T11:10:24.000Z</time>
      </trkpt>
      <trkpt lat="38.18843641318380832672119140625" lon="-0.82546851597726345062255859375">
        <ele>5.599999904632568359375</ele>
        <time>2019-10-25T11:10:27.000Z</time>
      </trkpt>
      <trkpt lat="38.18823776207864284515380859375" lon="-0.825594328343868255615234375">
        <ele>7</ele>
        <time>2019-10-25T11:10:30.000Z</time>
      </trkpt>
      <trkpt lat="38.1880353391170501708984375" lon="-0.82571544684469699859619140625">
        <ele>8.19999980926513671875</ele>
        <time>2019-10-25T11:10:33.000Z</time>
      </trkpt>
      <trkpt lat="38.1878390349447727203369140625" lon="-0.82583329640328884124755859375">
        <ele>8.3999996185302734375</ele>
        <time>2019-10-25T11:10:36.000Z</time>
      </trkpt>
      <trkpt lat="38.18764440715312957763671875" lon="-0.825953744351863861083984375">
        <ele>7.599999904632568359375</ele>
        <time>2019-10-25T11:10:39.000Z</time>
      </trkpt>
      <trkpt lat="38.18745237775146961212158203125" lon="-0.82607385702431201934814453125">
        <ele>6.19999980926513671875</ele>
        <time>2019-10-25T11:10:42.000Z</time>
      </trkpt>
      <trkpt lat="38.18726160563528537750244140625" lon="-0.826191790401935577392578125">
        <ele>6</ele>
        <time>2019-10-25T11:10:45.000Z</time>
      </trkpt>
      <trkpt lat="38.18706898950040340423583984375" lon="-0.8263139985501766204833984375">
        <ele>6.19999980926513671875</ele>
        <time>2019-10-25T11:10:48.000Z</time>
      </trkpt>
      <trkpt lat="38.18687729537487030029296875" lon="-0.82643796689808368682861328125">
        <ele>6.80000019073486328125</ele>
        <time>2019-10-25T11:10:51.000Z</time>
      </trkpt>
      <trkpt lat="38.18668174557387828826904296875" lon="-0.8265590853989124298095703125">
        <ele>7.599999904632568359375</ele>
        <time>2019-10-25T11:10:54.000Z</time>
      </trkpt>
      <trkpt lat="38.1864845193922519683837890625" lon="-0.82668607123196125030517578125">
        <ele>8.3999996185302734375</ele>
        <time>2019-10-25T11:10:57.000Z</time>
      </trkpt>
      <trkpt lat="38.18629148416221141815185546875" lon="-0.82680911757051944732666015625">
        <ele>8.80000019073486328125</ele>
        <time>2019-10-25T11:11:00.000Z</time>
      </trkpt>
      <trkpt lat="38.18609853275120258331298828125" lon="-0.8269295655190944671630859375">
        <ele>7.80000019073486328125</ele>
        <time>2019-10-25T11:11:03.000Z</time>
      </trkpt>
      <trkpt lat="38.1859125383198261260986328125" lon="-0.8270470798015594482421875">
        <ele>6.599999904632568359375</ele>
        <time>2019-10-25T11:11:06.000Z</time>
      </trkpt>
      <trkpt lat="38.185730315744876861572265625" lon="-0.82716199569404125213623046875">
        <ele>5.400000095367431640625</ele>
        <time>2019-10-25T11:11:09.000Z</time>
      </trkpt>
      <trkpt lat="38.18554549477994441986083984375" lon="-0.82728168927133083343505859375">
        <ele>4.400000095367431640625</ele>
        <time>2019-10-25T11:11:12.000Z</time>
      </trkpt>
      <trkpt lat="38.18536243401467800140380859375" lon="-0.82739266566932201385498046875">
        <ele>4.599999904632568359375</ele>
        <time>2019-10-25T11:11:15.000Z</time>
      </trkpt>
      <trkpt lat="38.1851779483258724212646484375" lon="-0.82751043140888214111328125">
        <ele>5.400000095367431640625</ele>
        <time>2019-10-25T11:11:18.000Z</time>
      </trkpt>
      <trkpt lat="38.184997737407684326171875" lon="-0.82762300036847591400146484375">
        <ele>6</ele>
        <time>2019-10-25T11:11:21.000Z</time>
      </trkpt>
      <trkpt lat="38.184835799038410186767578125" lon="-0.82772324793040752410888671875">
        <ele>6.19999980926513671875</ele>
        <time>2019-10-25T11:11:24.000Z</time>
      </trkpt>
      <trkpt lat="38.1846331246197223663330078125" lon="-0.827849395573139190673828125">
        <ele>7</ele>
        <time>2019-10-25T11:11:28.000Z</time>
      </trkpt>
      <trkpt lat="38.1844440288841724395751953125" lon="-0.82796397618949413299560546875">
        <ele>7</ele>
        <time>2019-10-25T11:11:32.000Z</time>
      </trkpt>
      <trkpt lat="38.18426172249019145965576171875" lon="-0.82807905972003936767578125">
        <ele>6.599999904632568359375</ele>
        <time>2019-10-25T11:11:36.000Z</time>
      </trkpt>
      <trkpt lat="38.184086792171001434326171875" lon="-0.82819280214607715606689453125">
        <ele>6</ele>
        <time>2019-10-25T11:11:40.000Z</time>
      </trkpt>
      <trkpt lat="38.18391487933695316314697265625" lon="-0.828306041657924652099609375">
        <ele>6</ele>
        <time>2019-10-25T11:11:44.000Z</time>
      </trkpt>
      <trkpt lat="38.1837545335292816162109375" lon="-0.82844761200249195098876953125">
        <ele>6</ele>
        <time>2019-10-25T11:11:48.000Z</time>
      </trkpt>
      <trkpt lat="38.1836192496120929718017578125" lon="-0.82862949930131435394287109375">
        <ele>5.19999980926513671875</ele>
        <time>2019-10-25T11:11:52.000Z</time>
      </trkpt>
      <trkpt lat="38.18350047804415225982666015625" lon="-0.82884105853736400604248046875">
        <ele>5.400000095367431640625</ele>
        <time>2019-10-25T11:11:56.000Z</time>
      </trkpt>
      <trkpt lat="38.18340391851961612701416015625" lon="-0.8290682919323444366455078125">
        <ele>6.400000095367431640625</ele>
        <time>2019-10-25T11:12:00.000Z</time>
      </trkpt>
      <trkpt lat="38.18332177586853504180908203125" lon="-0.82927239127457141876220703125">
        <ele>7</ele>
        <time>2019-10-25T11:12:04.000Z</time>
      </trkpt>
      <trkpt lat="38.183230496942996978759765625" lon="-0.8294867165386676788330078125">
        <ele>6.19999980926513671875</ele>
        <time>2019-10-25T11:12:08.000Z</time>
      </trkpt>
      <trkpt lat="38.18312144838273525238037109375" lon="-0.82973808981478214263916015625">
        <ele>6.400000095367431640625</ele>
        <time>2019-10-25T11:12:12.000Z</time>
      </trkpt>
      <trkpt lat="38.183028660714626312255859375" lon="-0.8299410156905651092529296875">
        <ele>7.19999980926513671875</ele>
        <time>2019-10-25T11:12:15.000Z</time>
      </trkpt>
      <trkpt lat="38.18293486721813678741455078125" lon="-0.8301435224711894989013671875">
        <ele>7.80000019073486328125</ele>
        <time>2019-10-25T11:12:18.000Z</time>
      </trkpt>
      <trkpt lat="38.18283864296972751617431640625" lon="-0.83034628070890903472900390625">
        <ele>7.599999904632568359375</ele>
        <time>2019-10-25T11:12:21.000Z</time>
      </trkpt>
      <trkpt lat="38.18273722194135189056396484375" lon="-0.830547697842121124267578125">
        <ele>6.599999904632568359375</ele>
        <time>2019-10-25T11:12:24.000Z</time>
      </trkpt>
      <trkpt lat="38.1826305203139781951904296875" lon="-0.83075967617332935333251953125">
        <ele>5.80000019073486328125</ele>
        <time>2019-10-25T11:12:27.000Z</time>
      </trkpt>
      <trkpt lat="38.1825155206024646759033203125" lon="-0.8309750072658061981201171875">
        <ele>5</ele>
        <time>2019-10-25T11:12:30.000Z</time>
      </trkpt>
      <trkpt lat="38.1824027001857757568359375" lon="-0.831189416348934173583984375">
        <ele>3</ele>
        <time>2019-10-25T11:12:33.000Z</time>
      </trkpt>
      <trkpt lat="38.1822902150452136993408203125" lon="-0.83141296170651912689208984375">
        <ele>3</ele>
        <time>2019-10-25T11:12:36.000Z</time>
      </trkpt>
      <trkpt lat="38.1822120957076549530029296875" lon="-0.8315627463161945343017578125">
        <ele>3.7999999523162841796875</ele>
        <time>2019-10-25T11:12:38.000Z</time>
      </trkpt>
      <trkpt lat="38.18209634162485599517822265625" lon="-0.83178855478763580322265625">
        <ele>6.400000095367431640625</ele>
        <time>2019-10-25T11:12:41.000Z</time>
      </trkpt>
      <trkpt lat="38.18198134191334247589111328125" lon="-0.83200824446976184844970703125">
        <ele>8.3999996185302734375</ele>
        <time>2019-10-25T11:12:44.000Z</time>
      </trkpt>
      <trkpt lat="38.1818670965731143951416015625" lon="-0.8322235755622386932373046875">
        <ele>8.19999980926513671875</ele>
        <time>2019-10-25T11:12:47.000Z</time>
      </trkpt>
      <trkpt lat="38.18175829946994781494140625" lon="-0.8324441872537136077880859375">
        <ele>8.80000019073486328125</ele>
        <time>2019-10-25T11:12:50.000Z</time>
      </trkpt>
      <trkpt lat="38.18167389370501041412353515625" lon="-0.832703523337841033935546875">
        <ele>9.3999996185302734375</ele>
        <time>2019-10-25T11:12:53.000Z</time>
      </trkpt>
      <trkpt lat="38.181652016937732696533203125" lon="-0.8329908549785614013671875">
        <ele>9.3999996185302734375</ele>
        <time>2019-10-25T11:12:56.000Z</time>
      </trkpt>
      <trkpt lat="38.1816521845757961273193359375" lon="-0.83327273838222026824951171875">
        <ele>9.19999980926513671875</ele>
        <time>2019-10-25T11:12:59.000Z</time>
      </trkpt>
      <trkpt lat="38.18164204247295856475830078125" lon="-0.83336091600358486175537109375">
        <ele>9</ele>
        <time>2019-10-25T11:13:00.000Z</time>
      </trkpt>
      <trkpt lat="38.18154548294842243194580078125" lon="-0.8335958607494831085205078125">
        <ele>8.80000019073486328125</ele>
        <time>2019-10-25T11:13:03.000Z</time>
      </trkpt>
      <trkpt lat="38.1813459098339080810546875" lon="-0.8337225951254367828369140625">
        <ele>7.400000095367431640625</ele>
        <time>2019-10-25T11:13:06.000Z</time>
      </trkpt>
      <trkpt lat="38.1812736578285694122314453125" lon="-0.83374899812042713165283203125">
        <ele>7.19999980926513671875</ele>
        <time>2019-10-25T11:13:07.000Z</time>
      </trkpt>
      <trkpt lat="38.18105748854577541351318359375" lon="-0.83382795564830303192138671875">
        <ele>8.3999996185302734375</ele>
        <time>2019-10-25T11:13:10.000Z</time>
      </trkpt>
      <trkpt lat="38.1808416545391082763671875" lon="-0.83389953710138797760009765625">
        <ele>8.80000019073486328125</ele>
        <time>2019-10-25T11:13:13.000Z</time>
      </trkpt>
      <trkpt lat="38.1806299276649951934814453125" lon="-0.8339737169444561004638671875">
        <ele>8.19999980926513671875</ele>
        <time>2019-10-25T11:13:16.000Z</time>
      </trkpt>
      <trkpt lat="38.18042255938053131103515625" lon="-0.83405963145196437835693359375">
        <ele>7.19999980926513671875</ele>
        <time>2019-10-25T11:13:19.000Z</time>
      </trkpt>
      <trkpt lat="38.18021259270608425140380859375" lon="-0.83415099419653415679931640625">
        <ele>8</ele>
        <time>2019-10-25T11:13:22.000Z</time>
      </trkpt>
      <trkpt lat="38.18000790663063526153564453125" lon="-0.834241099655628204345703125">
        <ele>8.6000003814697265625</ele>
        <time>2019-10-25T11:13:25.000Z</time>
      </trkpt>
      <trkpt lat="38.1798111833631992340087890625" lon="-0.83432248793542385101318359375">
        <ele>8.6000003814697265625</ele>
        <time>2019-10-25T11:13:28.000Z</time>
      </trkpt>
      <trkpt lat="38.179628290235996246337890625" lon="-0.8344032056629657745361328125">
        <ele>8</ele>
        <time>2019-10-25T11:13:31.000Z</time>
      </trkpt>
      <trkpt lat="38.179407678544521331787109375" lon="-0.83450655452907085418701171875">
        <ele>5.599999904632568359375</ele>
        <time>2019-10-25T11:13:35.000Z</time>
      </trkpt>
      <trkpt lat="38.1792026571929454803466796875" lon="-0.83460428752005100250244140625">
        <ele>6.599999904632568359375</ele>
        <time>2019-10-25T11:13:39.000Z</time>
      </trkpt>
      <trkpt lat="38.17901280708611011505126953125" lon="-0.83469095639884471893310546875">
        <ele>8.3999996185302734375</ele>
        <time>2019-10-25T11:13:43.000Z</time>
      </trkpt>
      <trkpt lat="38.1788365356624126434326171875" lon="-0.8347693271934986114501953125">
        <ele>9.80000019073486328125</ele>
        <time>2019-10-25T11:13:47.000Z</time>
      </trkpt>
      <trkpt lat="38.17865674383938312530517578125" lon="-0.8348491229116916656494140625">
        <ele>8.3999996185302734375</ele>
        <time>2019-10-25T11:13:51.000Z</time>
      </trkpt>
      <trkpt lat="38.17847267724573612213134765625" lon="-0.83493537269532680511474609375">
        <ele>6.599999904632568359375</ele>
        <time>2019-10-25T11:13:55.000Z</time>
      </trkpt>
      <trkpt lat="38.17828291095793247222900390625" lon="-0.83502539433538913726806640625">
        <ele>6.19999980926513671875</ele>
        <time>2019-10-25T11:13:59.000Z</time>
      </trkpt>
      <trkpt lat="38.1780828349292278289794921875" lon="-0.8350985683500766754150390625">
        <ele>7.80000019073486328125</ele>
        <time>2019-10-25T11:14:03.000Z</time>
      </trkpt>
      <trkpt lat="38.17787638865411281585693359375" lon="-0.83516336046159267425537109375">
        <ele>9.3999996185302734375</ele>
        <time>2019-10-25T11:14:07.000Z</time>
      </trkpt>
      <trkpt lat="38.17767304368317127227783203125" lon="-0.8352628536522388458251953125">
        <ele>10</ele>
        <time>2019-10-25T11:14:11.000Z</time>
      </trkpt>
      <trkpt lat="38.17754379473626613616943359375" lon="-0.83548354916274547576904296875">
        <ele>10.3999996185302734375</ele>
        <time>2019-10-25T11:14:15.000Z</time>
      </trkpt>
      <trkpt lat="38.17751144059002399444580078125" lon="-0.83554959855973720550537109375">
        <ele>10.6000003814697265625</ele>
        <time>2019-10-25T11:14:16.000Z</time>
      </trkpt>
      <trkpt lat="38.1773046590387821197509765625" lon="-0.83563241176307201385498046875">
        <ele>11</ele>
        <time>2019-10-25T11:14:20.000Z</time>
      </trkpt>
      <trkpt lat="38.17719242535531520843505859375" lon="-0.8355565555393695831298828125">
        <ele>10.6000003814697265625</ele>
        <time>2019-10-25T11:14:22.000Z</time>
      </trkpt>
      <trkpt lat="38.1770146451890468597412109375" lon="-0.83546452224254608154296875">
        <ele>10.6000003814697265625</ele>
        <time>2019-10-25T11:14:25.000Z</time>
      </trkpt>
      <trkpt lat="38.17689185030758380889892578125" lon="-0.83544013090431690216064453125">
        <ele>10.3999996185302734375</ele>
        <time>2019-10-25T11:14:27.000Z</time>
      </trkpt>
      <trkpt lat="38.17669889889657497406005859375" lon="-0.83547080866992473602294921875">
        <ele>9.80000019073486328125</ele>
        <time>2019-10-25T11:14:30.000Z</time>
      </trkpt>
      <trkpt lat="38.17650058306753635406494140625" lon="-0.83550953306257724761962890625">
        <ele>8.19999980926513671875</ele>
        <time>2019-10-25T11:14:33.000Z</time>
      </trkpt>
      <trkpt lat="38.17629732191562652587890625" lon="-0.835548005998134613037109375">
        <ele>7</ele>
        <time>2019-10-25T11:14:36.000Z</time>
      </trkpt>
      <trkpt lat="38.17609976045787334442138671875" lon="-0.83557407371699810028076171875">
        <ele>8</ele>
        <time>2019-10-25T11:14:39.000Z</time>
      </trkpt>
      <trkpt lat="38.17590974271297454833984375" lon="-0.83559972234070301055908203125">
        <ele>9</ele>
        <time>2019-10-25T11:14:42.000Z</time>
      </trkpt>
      <trkpt lat="38.17572626285254955291748046875" lon="-0.83562369458377361297607421875">
        <ele>10</ele>
        <time>2019-10-25T11:14:45.000Z</time>
      </trkpt>
      <trkpt lat="38.175538592040538787841796875" lon="-0.83565286360681056976318359375">
        <ele>10</ele>
        <time>2019-10-25T11:14:48.000Z</time>
      </trkpt>
      <trkpt lat="38.1753563694655895233154296875" lon="-0.83568471483886241912841796875">
        <ele>10.19999980926513671875</ele>
        <time>2019-10-25T11:14:51.000Z</time>
      </trkpt>
      <trkpt lat="38.1751293875277042388916015625" lon="-0.8357184939086437225341796875">
        <ele>10.80000019073486328125</ele>
        <time>2019-10-25T11:14:55.000Z</time>
      </trkpt>
      <trkpt lat="38.17490525543689727783203125" lon="-0.83574338816106319427490234375">
        <ele>10.6000003814697265625</ele>
        <time>2019-10-25T11:14:59.000Z</time>
      </trkpt>
      <trkpt lat="38.174721859395503997802734375" lon="-0.8357677794992923736572265625">
        <ele>10.3999996185302734375</ele>
        <time>2019-10-25T11:15:02.000Z</time>
      </trkpt>
      <trkpt lat="38.17449009977281093597412109375" lon="-0.83580038510262966156005859375">
        <ele>10</ele>
        <time>2019-10-25T11:15:06.000Z</time>
      </trkpt>
      <trkpt lat="38.17426957190036773681640625" lon="-0.83585679531097412109375">
        <ele>9.80000019073486328125</ele>
        <time>2019-10-25T11:15:10.000Z</time>
      </trkpt>
      <trkpt lat="38.1741044484078884124755859375" lon="-0.8360700309276580810546875">
        <ele>9.3999996185302734375</ele>
        <time>2019-10-25T11:15:14.000Z</time>
      </trkpt>
      <trkpt lat="38.17405633628368377685546875" lon="-0.83621059544384479522705078125">
        <ele>9</ele>
        <time>2019-10-25T11:15:16.000Z</time>
      </trkpt>
      <trkpt lat="38.174006044864654541015625" lon="-0.8364346437156200408935546875">
        <ele>8</ele>
        <time>2019-10-25T11:15:19.000Z</time>
      </trkpt>
      <trkpt lat="38.17397008650004863739013671875" lon="-0.83666254766285419464111328125">
        <ele>7.80000019073486328125</ele>
        <time>2019-10-25T11:15:22.000Z</time>
      </trkpt>
      <trkpt lat="38.173925243318080902099609375" lon="-0.83689154125750064849853515625">
        <ele>9.3999996185302734375</ele>
        <time>2019-10-25T11:15:25.000Z</time>
      </trkpt>
      <trkpt lat="38.17387470044195652008056640625" lon="-0.83711667917668819427490234375">
        <ele>10.6000003814697265625</ele>
        <time>2019-10-25T11:15:28.000Z</time>
      </trkpt>
      <trkpt lat="38.17381736822426319122314453125" lon="-0.837406776845455169677734375">
        <ele>11.6000003814697265625</ele>
        <time>2019-10-25T11:15:32.000Z</time>
      </trkpt>
      <trkpt lat="38.17376506514847278594970703125" lon="-0.8376999758183956146240234375">
        <ele>10.6000003814697265625</ele>
        <time>2019-10-25T11:15:36.000Z</time>
      </trkpt>
      <trkpt lat="38.173699267208576202392578125" lon="-0.83797297440469264984130859375">
        <ele>10</ele>
        <time>2019-10-25T11:15:40.000Z</time>
      </trkpt>
      <trkpt lat="38.17358233965933322906494140625" lon="-0.83822426386177539825439453125">
        <ele>10</ele>
        <time>2019-10-25T11:15:44.000Z</time>
      </trkpt>
      <trkpt lat="38.17351318895816802978515625" lon="-0.8383393473923206329345703125">
        <ele>10</ele>
        <time>2019-10-25T11:15:46.000Z</time>
      </trkpt>
      <trkpt lat="38.17339726723730564117431640625" lon="-0.838492400944232940673828125">
        <ele>10</ele>
        <time>2019-10-25T11:15:49.000Z</time>
      </trkpt>
      <trkpt lat="38.17319341935217380523681640625" lon="-0.83844621665775775909423828125">
        <ele>10.19999980926513671875</ele>
        <time>2019-10-25T11:15:53.000Z</time>
      </trkpt>
      <trkpt lat="38.17311530001461505889892578125" lon="-0.83836130797863006591796875">
        <ele>10.3999996185302734375</ele>
        <time>2019-10-25T11:15:55.000Z</time>
      </trkpt>
      <trkpt lat="38.17294984124600887298583984375" lon="-0.83819827996194362640380859375">
        <ele>11</ele>
        <time>2019-10-25T11:15:59.000Z</time>
      </trkpt>
      <trkpt lat="38.17278941161930561065673828125" lon="-0.83804254420101642608642578125">
        <ele>11.3999996185302734375</ele>
        <time>2019-10-25T11:16:03.000Z</time>
      </trkpt>
      <trkpt lat="38.17261590622365474700927734375" lon="-0.83788161166012287139892578125">
        <ele>11.19999980926513671875</ele>
        <time>2019-10-25T11:16:07.000Z</time>
      </trkpt>
      <trkpt lat="38.17244701087474822998046875" lon="-0.83772872574627399444580078125">
        <ele>9.80000019073486328125</ele>
        <time>2019-10-25T11:16:11.000Z</time>
      </trkpt>
      <trkpt lat="38.172276355326175689697265625" lon="-0.83756427280604839324951171875">
        <ele>9.6000003814697265625</ele>
        <time>2019-10-25T11:16:15.000Z</time>
      </trkpt>
      <trkpt lat="38.17209966480731964111328125" lon="-0.837393365800380706787109375">
        <ele>9.19999980926513671875</ele>
        <time>2019-10-25T11:16:19.000Z</time>
      </trkpt>
      <trkpt lat="38.172054402530193328857421875" lon="-0.83735288120806217193603515625">
        <ele>9.19999980926513671875</ele>
        <time>2019-10-25T11:16:20.000Z</time>
      </trkpt>
      <trkpt lat="38.17184225656092166900634765625" lon="-0.83725154399871826171875">
        <ele>10</ele>
        <time>2019-10-25T11:16:24.000Z</time>
      </trkpt>
      <trkpt lat="38.1716247461736202239990234375" lon="-0.83718155510723590850830078125">
        <ele>10.80000019073486328125</ele>
        <time>2019-10-25T11:16:28.000Z</time>
      </trkpt>
      <trkpt lat="38.1714641489088535308837890625" lon="-0.83711584098637104034423828125">
        <ele>11.3999996185302734375</ele>
        <time>2019-10-25T11:16:31.000Z</time>
      </trkpt>
      <trkpt lat="38.17123775370419025421142578125" lon="-0.8370678126811981201171875">
        <ele>12</ele>
        <time>2019-10-25T11:16:35.000Z</time>
      </trkpt>
      <trkpt lat="38.1710115261375904083251953125" lon="-0.83700142800807952880859375">
        <ele>12.19999980926513671875</ele>
        <time>2019-10-25T11:16:39.000Z</time>
      </trkpt>
      <trkpt lat="38.1708039902150630950927734375" lon="-0.83696521818637847900390625">
        <ele>12.19999980926513671875</ele>
        <time>2019-10-25T11:16:43.000Z</time>
      </trkpt>
      <trkpt lat="38.170607350766658782958984375" lon="-0.836894810199737548828125">
        <ele>13</ele>
        <time>2019-10-25T11:16:47.000Z</time>
      </trkpt>
      <trkpt lat="38.17040358670055866241455078125" lon="-0.83682440221309661865234375">
        <ele>14.19999980926513671875</ele>
        <time>2019-10-25T11:16:51.000Z</time>
      </trkpt>
      <trkpt lat="38.17022387869656085968017578125" lon="-0.83677251823246479034423828125">
        <ele>14</ele>
        <time>2019-10-25T11:16:55.000Z</time>
      </trkpt>
      <trkpt lat="38.17001131363213062286376953125" lon="-0.83673228509724140167236328125">
        <ele>14.6000003814697265625</ele>
        <time>2019-10-25T11:16:59.000Z</time>
      </trkpt>
      <trkpt lat="38.169791288673877716064453125" lon="-0.83682482130825519561767578125">
        <ele>14.6000003814697265625</ele>
        <time>2019-10-25T11:17:03.000Z</time>
      </trkpt>
      <trkpt lat="38.169741332530975341796875" lon="-0.8368586003780364990234375">
        <ele>14.3999996185302734375</ele>
        <time>2019-10-25T11:17:04.000Z</time>
      </trkpt>
      <trkpt lat="38.16954712383449077606201171875" lon="-0.83697653375566005706787109375">
        <ele>13.3999996185302734375</ele>
        <time>2019-10-25T11:17:08.000Z</time>
      </trkpt>
      <trkpt lat="38.169355429708957672119140625" lon="-0.837105028331279754638671875">
        <ele>11.80000019073486328125</ele>
        <time>2019-10-25T11:17:12.000Z</time>
      </trkpt>
      <trkpt lat="38.16915200091898441314697265625" lon="-0.8372421562671661376953125">
        <ele>10.6000003814697265625</ele>
        <time>2019-10-25T11:17:16.000Z</time>
      </trkpt>
      <trkpt lat="38.16905678249895572662353515625" lon="-0.837311558425426483154296875">
        <ele>10</ele>
        <time>2019-10-25T11:17:18.000Z</time>
      </trkpt>
      <trkpt lat="38.1689069978892803192138671875" lon="-0.8374696411192417144775390625">
        <ele>10.6000003814697265625</ele>
        <time>2019-10-25T11:17:22.000Z</time>
      </trkpt>
      <trkpt lat="38.16883684135973453521728515625" lon="-0.83769469521939754486083984375">
        <ele>10.6000003814697265625</ele>
        <time>2019-10-25T11:17:26.000Z</time>
      </trkpt>
      <trkpt lat="38.16882527433335781097412109375" lon="-0.8377609960734844207763671875">
        <ele>10.3999996185302734375</ele>
        <time>2019-10-25T11:17:27.000Z</time>
      </trkpt>
      <trkpt lat="38.16880716942250728607177734375" lon="-0.83782578818500041961669921875">
        <ele>10.19999980926513671875</ele>
        <time>2019-10-25T11:17:28.000Z</time>
      </trkpt>
      <trkpt lat="38.168649338185787200927734375" lon="-0.83799174986779689788818359375">
        <ele>9.6000003814697265625</ele>
        <time>2019-10-25T11:17:32.000Z</time>
      </trkpt>
      <trkpt lat="38.16844305954873561859130859375" lon="-0.83794154226779937744140625">
        <ele>9.80000019073486328125</ele>
        <time>2019-10-25T11:17:36.000Z</time>
      </trkpt>
      <trkpt lat="38.16839444451034069061279296875" lon="-0.83792352117598056793212890625">
        <ele>9.6000003814697265625</ele>
        <time>2019-10-25T11:17:37.000Z</time>
      </trkpt>
      <trkpt lat="38.168192692101001739501953125" lon="-0.83793056197464466094970703125">
        <ele>9</ele>
        <time>2019-10-25T11:17:41.000Z</time>
      </trkpt>
      <trkpt lat="38.16810677759349346160888671875" lon="-0.837967358529567718505859375">
        <ele>9</ele>
        <time>2019-10-25T11:17:43.000Z</time>
      </trkpt>
      <trkpt lat="38.167984150350093841552734375" lon="-0.83804053254425525665283203125">
        <ele>9</ele>
        <time>2019-10-25T11:17:46.000Z</time>
      </trkpt>
      <trkpt lat="38.1679434143006801605224609375" lon="-0.83807154558598995208740234375">
        <ele>9</ele>
        <time>2019-10-25T11:17:47.000Z</time>
      </trkpt>
      <trkpt lat="38.1677875109016895294189453125" lon="-0.83819777704775333404541015625">
        <ele>9.19999980926513671875</ele>
        <time>2019-10-25T11:17:51.000Z</time>
      </trkpt>
      <trkpt lat="38.16764342598617076873779296875" lon="-0.83834278397262096405029296875">
        <ele>9.6000003814697265625</ele>
        <time>2019-10-25T11:17:56.000Z</time>
      </trkpt>
      <trkpt lat="38.167568407952785491943359375" lon="-0.83842207677662372589111328125">
        <ele>9.6000003814697265625</ele>
        <time>2019-10-25T11:18:01.000Z</time>
      </trkpt>
      <trkpt lat="38.1675360538065433502197265625" lon="-0.8384570293128490447998046875">
        <ele>9.3999996185302734375</ele>
        <time>2019-10-25T11:18:04.000Z</time>
      </trkpt>
      <trkpt lat="38.16744410432875156402587890625" lon="-0.83851897157728672027587890625">
        <ele>9.19999980926513671875</ele>
        <time>2019-10-25T11:20:09.000Z</time>
      </trkpt>
      <trkpt lat="38.16728266887366771697998046875" lon="-0.8386625535786151885986328125">
        <ele>8.6000003814697265625</ele>
        <time>2019-10-25T11:20:14.000Z</time>
      </trkpt>
      <trkpt lat="38.1671248376369476318359375" lon="-0.83878601901233196258544921875">
        <ele>8</ele>
        <time>2019-10-25T11:20:18.000Z</time>
      </trkpt>
      <trkpt lat="38.16695309244096279144287109375" lon="-0.83890889771282672882080078125">
        <ele>8</ele>
        <time>2019-10-25T11:20:22.000Z</time>
      </trkpt>
      <trkpt lat="38.1667709536850452423095703125" lon="-0.83903613500297069549560546875">
        <ele>8.3999996185302734375</ele>
        <time>2019-10-25T11:20:26.000Z</time>
      </trkpt>
      <trkpt lat="38.16658546216785907745361328125" lon="-0.83915415219962596893310546875">
        <ele>9.3999996185302734375</ele>
        <time>2019-10-25T11:20:30.000Z</time>
      </trkpt>
      <trkpt lat="38.166394270956516265869140625" lon="-0.83927594125270843505859375">
        <ele>8.80000019073486328125</ele>
        <time>2019-10-25T11:20:34.000Z</time>
      </trkpt>
      <trkpt lat="38.1661801971495151519775390625" lon="-0.83941717632114887237548828125">
        <ele>7</ele>
        <time>2019-10-25T11:20:38.000Z</time>
      </trkpt>
      <trkpt lat="38.16601029597222805023193359375" lon="-0.83953217603266239166259765625">
        <ele>5.19999980926513671875</ele>
        <time>2019-10-25T11:20:41.000Z</time>
      </trkpt>
      <trkpt lat="38.1658476032316684722900390625" lon="-0.83967885933816432952880859375">
        <ele>4.80000019073486328125</ele>
        <time>2019-10-25T11:20:44.000Z</time>
      </trkpt>
      <trkpt lat="38.1657094694674015045166015625" lon="-0.8398594893515110015869140625">
        <ele>4</ele>
        <time>2019-10-25T11:20:47.000Z</time>
      </trkpt>
      <trkpt lat="38.16560729406774044036865234375" lon="-0.84006107412278652191162109375">
        <ele>4.400000095367431640625</ele>
        <time>2019-10-25T11:20:50.000Z</time>
      </trkpt>
      <trkpt lat="38.16553118638694286346435546875" lon="-0.84029258228838443756103515625">
        <ele>7</ele>
        <time>2019-10-25T11:20:53.000Z</time>
      </trkpt>
      <trkpt lat="38.16549933515489101409912109375" lon="-0.84054202772676944732666015625">
        <ele>10.3999996185302734375</ele>
        <time>2019-10-25T11:20:56.000Z</time>
      </trkpt>
      <trkpt lat="38.165495395660400390625" lon="-0.8407868631184101104736328125">
        <ele>14</ele>
        <time>2019-10-25T11:20:59.000Z</time>
      </trkpt>
      <trkpt lat="38.165519535541534423828125" lon="-0.84102817811071872711181640625">
        <ele>14.80000019073486328125</ele>
        <time>2019-10-25T11:21:02.000Z</time>
      </trkpt>
      <trkpt lat="38.16555440425872802734375" lon="-0.84126211702823638916015625">
        <ele>12</ele>
        <time>2019-10-25T11:21:05.000Z</time>
      </trkpt>
      <trkpt lat="38.16557510755956172943115234375" lon="-0.8414919488131999969482421875">
        <ele>8.6000003814697265625</ele>
        <time>2019-10-25T11:21:08.000Z</time>
      </trkpt>
      <trkpt lat="38.1655850820243358612060546875" lon="-0.841725133359432220458984375">
        <ele>6</ele>
        <time>2019-10-25T11:21:11.000Z</time>
      </trkpt>
      <trkpt lat="38.1655653007328510284423828125" lon="-0.84195286966860294342041015625">
        <ele>4.80000019073486328125</ele>
        <time>2019-10-25T11:21:14.000Z</time>
      </trkpt>
      <trkpt lat="38.16555901430547237396240234375" lon="-0.842023193836212158203125">
        <ele>4.400000095367431640625</ele>
        <time>2019-10-25T11:21:15.000Z</time>
      </trkpt>
      <trkpt lat="38.16559103317558765411376953125" lon="-0.84224087186157703399658203125">
        <ele>6</ele>
        <time>2019-10-25T11:21:18.000Z</time>
      </trkpt>
      <trkpt lat="38.16554979421198368072509765625" lon="-0.84246383048593997955322265625">
        <ele>6.599999904632568359375</ele>
        <time>2019-10-25T11:21:21.000Z</time>
      </trkpt>
      <trkpt lat="38.1653974950313568115234375" lon="-0.84258302114903926849365234375">
        <ele>7</ele>
        <time>2019-10-25T11:21:24.000Z</time>
      </trkpt>
      <trkpt lat="38.16518920473754405975341796875" lon="-0.84249920211732387542724609375">
        <ele>6</ele>
        <time>2019-10-25T11:21:28.000Z</time>
      </trkpt>
      <trkpt lat="38.1651606224477291107177734375" lon="-0.8424813486635684967041015625">
        <ele>5.599999904632568359375</ele>
        <time>2019-10-25T11:21:29.000Z</time>
      </trkpt>
      <trkpt lat="38.16506288945674896240234375" lon="-0.84247522987425327301025390625">
        <ele>5.19999980926513671875</ele>
        <time>2019-10-25T11:21:34.000Z</time>
      </trkpt>
      <trkpt lat="38.1649420224130153656005859375" lon="-0.8423026464879512786865234375">
        <ele>3</ele>
        <time>2019-10-25T11:21:42.000Z</time>
      </trkpt>
      <trkpt lat="38.16493908874690532684326171875" lon="-0.8422610722482204437255859375">
        <ele>2.599999904632568359375</ele>
        <time>2019-10-25T11:21:43.000Z</time>
      </trkpt>
      <trkpt lat="38.16491545177996158599853515625" lon="-0.84203325212001800537109375">
        <ele>1</ele>
        <time>2019-10-25T11:21:49.000Z</time>
      </trkpt>
      <trkpt lat="38.164881505072116851806640625" lon="-0.84190039895474910736083984375">
        <ele>1.7999999523162841796875</ele>
        <time>2019-10-25T11:21:54.000Z</time>
      </trkpt>
      <trkpt lat="38.16479106433689594268798828125" lon="-0.84172052331268787384033203125">
        <ele>4.19999980926513671875</ele>
        <time>2019-10-25T11:22:37.000Z</time>
      </trkpt>
      <trkpt lat="38.1646587140858173370361328125" lon="-0.8415465988218784332275390625">
        <ele>7.19999980926513671875</ele>
        <time>2019-10-25T11:22:42.000Z</time>
      </trkpt>
      <trkpt lat="38.1645150482654571533203125" lon="-0.841386504471302032470703125">
        <ele>9.19999980926513671875</ele>
        <time>2019-10-25T11:22:47.000Z</time>
      </trkpt>
      <trkpt lat="38.16436777822673320770263671875" lon="-0.8411885239183902740478515625">
        <ele>9</ele>
        <time>2019-10-25T11:22:52.000Z</time>
      </trkpt>
      <trkpt lat="38.164232410490512847900390625" lon="-0.84096330218017101287841796875">
        <ele>9.3999996185302734375</ele>
        <time>2019-10-25T11:22:57.000Z</time>
      </trkpt>
      <trkpt lat="38.1641162373125553131103515625" lon="-0.8407784812152385711669921875">
        <ele>9.80000019073486328125</ele>
        <time>2019-10-25T11:23:01.000Z</time>
      </trkpt>
      <trkpt lat="38.16399511881172657012939453125" lon="-0.84060807712376117706298828125">
        <ele>10.3999996185302734375</ele>
        <time>2019-10-25T11:23:05.000Z</time>
      </trkpt>
      <trkpt lat="38.1638324260711669921875" lon="-0.8404720388352870941162109375">
        <ele>11</ele>
        <time>2019-10-25T11:23:10.000Z</time>
      </trkpt>
      <trkpt lat="38.163759000599384307861328125" lon="-0.84048704244196414947509765625">
        <ele>11.3999996185302734375</ele>
        <time>2019-10-25T11:23:12.000Z</time>
      </trkpt>
      <trkpt lat="38.16358071751892566680908203125" lon="-0.8406095020473003387451171875">
        <ele>11.80000019073486328125</ele>
        <time>2019-10-25T11:23:17.000Z</time>
      </trkpt>
      <trkpt lat="38.1633900292217731475830078125" lon="-0.840746797621250152587890625">
        <ele>11.80000019073486328125</ele>
        <time>2019-10-25T11:23:22.000Z</time>
      </trkpt>
      <trkpt lat="38.16319473087787628173828125" lon="-0.84086917340755462646484375">
        <ele>11.3999996185302734375</ele>
        <time>2019-10-25T11:23:27.000Z</time>
      </trkpt>
      <trkpt lat="38.16300253383815288543701171875" lon="-0.84097386337816715240478515625">
        <ele>10.19999980926513671875</ele>
        <time>2019-10-25T11:23:32.000Z</time>
      </trkpt>
      <trkpt lat="38.1628089956939220428466796875" lon="-0.84111459553241729736328125">
        <ele>10</ele>
        <time>2019-10-25T11:23:37.000Z</time>
      </trkpt>
      <trkpt lat="38.16264219582080841064453125" lon="-0.84123185835778713226318359375">
        <ele>9.80000019073486328125</ele>
        <time>2019-10-25T11:23:41.000Z</time>
      </trkpt>
      <trkpt lat="38.16255410201847553253173828125" lon="-0.841289944946765899658203125">
        <ele>9.6000003814697265625</ele>
        <time>2019-10-25T11:23:43.000Z</time>
      </trkpt>
      <trkpt lat="38.16237556748092174530029296875" lon="-0.8413982391357421875">
        <ele>9.19999980926513671875</ele>
        <time>2019-10-25T11:23:47.000Z</time>
      </trkpt>
      <trkpt lat="38.16221161745488643646240234375" lon="-0.8415137417614459991455078125">
        <ele>9.80000019073486328125</ele>
        <time>2019-10-25T11:23:51.000Z</time>
      </trkpt>
      <trkpt lat="38.16204942762851715087890625" lon="-0.84164910949766635894775390625">
        <ele>10</ele>
        <time>2019-10-25T11:23:56.000Z</time>
      </trkpt>
      <trkpt lat="38.1618983857333660125732421875" lon="-0.84178514778614044189453125">
        <ele>10</ele>
        <time>2019-10-25T11:24:02.000Z</time>
      </trkpt>
      <trkpt lat="38.1617273949086666107177734375" lon="-0.8419274725019931793212890625">
        <ele>9</ele>
        <time>2019-10-25T11:24:07.000Z</time>
      </trkpt>
      <trkpt lat="38.16158448345959186553955078125" lon="-0.84206686355173587799072265625">
        <ele>8</ele>
        <time>2019-10-25T11:24:11.000Z</time>
      </trkpt>
      <trkpt lat="38.16142371855676174163818359375" lon="-0.8422134630382061004638671875">
        <ele>7.400000095367431640625</ele>
        <time>2019-10-25T11:24:15.000Z</time>
      </trkpt>
      <trkpt lat="38.16126362420618534088134765625" lon="-0.84236894734203815460205078125">
        <ele>7.19999980926513671875</ele>
        <time>2019-10-25T11:24:19.000Z</time>
      </trkpt>
      <trkpt lat="38.161109983921051025390625" lon="-0.8425269462168216705322265625">
        <ele>8.19999980926513671875</ele>
        <time>2019-10-25T11:24:23.000Z</time>
      </trkpt>
      <trkpt lat="38.16096246242523193359375" lon="-0.842684023082256317138671875">
        <ele>9.19999980926513671875</ele>
        <time>2019-10-25T11:24:27.000Z</time>
      </trkpt>
      <trkpt lat="38.1608134321868419647216796875" lon="-0.84284738637506961822509765625">
        <ele>9.80000019073486328125</ele>
        <time>2019-10-25T11:24:31.000Z</time>
      </trkpt>
      <trkpt lat="38.16065870225429534912109375" lon="-0.84300697781145572662353515625">
        <ele>9.80000019073486328125</ele>
        <time>2019-10-25T11:24:35.000Z</time>
      </trkpt>
      <trkpt lat="38.16050908528268337249755859375" lon="-0.8431783877313137054443359375">
        <ele>9.19999980926513671875</ele>
        <time>2019-10-25T11:24:39.000Z</time>
      </trkpt>
      <trkpt lat="38.16035963594913482666015625" lon="-0.8433356322348117828369140625">
        <ele>8.6000003814697265625</ele>
        <time>2019-10-25T11:24:43.000Z</time>
      </trkpt>
      <trkpt lat="38.1602448038756847381591796875" lon="-0.8434553258121013641357421875">
        <ele>8.19999980926513671875</ele>
        <time>2019-10-25T11:24:46.000Z</time>
      </trkpt>
      <trkpt lat="38.160088397562503814697265625" lon="-0.8436236344277858734130859375">
        <ele>7.400000095367431640625</ele>
        <time>2019-10-25T11:24:50.000Z</time>
      </trkpt>
      <trkpt lat="38.159929476678371429443359375" lon="-0.84378984756767749786376953125">
        <ele>6.400000095367431640625</ele>
        <time>2019-10-25T11:24:54.000Z</time>
      </trkpt>
      <trkpt lat="38.15976686775684356689453125" lon="-0.84395798854529857635498046875">
        <ele>8</ele>
        <time>2019-10-25T11:24:58.000Z</time>
      </trkpt>
      <trkpt lat="38.1596061028540134429931640625" lon="-0.84413350559771060943603515625">
        <ele>9.6000003814697265625</ele>
        <time>2019-10-25T11:25:02.000Z</time>
      </trkpt>
      <trkpt lat="38.15944860689342021942138671875" lon="-0.84430952556431293487548828125">
        <ele>9.80000019073486328125</ele>
        <time>2019-10-25T11:25:06.000Z</time>
      </trkpt>
      <trkpt lat="38.15929153002798557281494140625" lon="-0.8444829471409320831298828125">
        <ele>9</ele>
        <time>2019-10-25T11:25:10.000Z</time>
      </trkpt>
      <trkpt lat="38.15912984311580657958984375" lon="-0.84465913474559783935546875">
        <ele>7.80000019073486328125</ele>
        <time>2019-10-25T11:25:14.000Z</time>
      </trkpt>
      <trkpt lat="38.1589677371084690093994140625" lon="-0.8448346517980098724365234375">
        <ele>7.400000095367431640625</ele>
        <time>2019-10-25T11:25:18.000Z</time>
      </trkpt>
      <trkpt lat="38.15880437381565570831298828125" lon="-0.8450110070407390594482421875">
        <ele>8</ele>
        <time>2019-10-25T11:25:22.000Z</time>
      </trkpt>
      <trkpt lat="38.15864360891282558441162109375" lon="-0.84518677555024623870849609375">
        <ele>8</ele>
        <time>2019-10-25T11:25:26.000Z</time>
      </trkpt>
      <trkpt lat="38.15848217345774173736572265625" lon="-0.84536396898329257965087890625">
        <ele>8</ele>
        <time>2019-10-25T11:25:30.000Z</time>
      </trkpt>
      <trkpt lat="38.15836348570883274078369140625" lon="-0.8454968221485614776611328125">
        <ele>8</ele>
        <time>2019-10-25T11:25:33.000Z</time>
      </trkpt>
      <trkpt lat="38.15820992924273014068603515625" lon="-0.8456745184957981109619140625">
        <ele>8</ele>
        <time>2019-10-25T11:25:37.000Z</time>
      </trkpt>
      <trkpt lat="38.1580484099686145782470703125" lon="-0.84584224037826061248779296875">
        <ele>8</ele>
        <time>2019-10-25T11:25:41.000Z</time>
      </trkpt>
      <trkpt lat="38.15788261592388153076171875" lon="-0.8460148237645626068115234375">
        <ele>8.6000003814697265625</ele>
        <time>2019-10-25T11:25:45.000Z</time>
      </trkpt>
      <trkpt lat="38.15771975554525852203369140625" lon="-0.84618355147540569305419921875">
        <ele>9.80000019073486328125</ele>
        <time>2019-10-25T11:25:49.000Z</time>
      </trkpt>
      <trkpt lat="38.15756569616496562957763671875" lon="-0.846341550350189208984375">
        <ele>11</ele>
        <time>2019-10-25T11:25:53.000Z</time>
      </trkpt>
      <trkpt lat="38.15741700120270252227783203125" lon="-0.84650910459458827972412109375">
        <ele>12</ele>
        <time>2019-10-25T11:25:57.000Z</time>
      </trkpt>
      <trkpt lat="38.1572641991078853607177734375" lon="-0.84667456336319446563720703125">
        <ele>11</ele>
        <time>2019-10-25T11:26:01.000Z</time>
      </trkpt>
      <trkpt lat="38.1571079604327678680419921875" lon="-0.8468479849398136138916015625">
        <ele>10</ele>
        <time>2019-10-25T11:26:05.000Z</time>
      </trkpt>
      <trkpt lat="38.1569540686905384063720703125" lon="-0.84701235406100749969482421875">
        <ele>9.3999996185302734375</ele>
        <time>2019-10-25T11:26:09.000Z</time>
      </trkpt>
      <trkpt lat="38.156796656548976898193359375" lon="-0.84717965684831142425537109375">
        <ele>9</ele>
        <time>2019-10-25T11:26:13.000Z</time>
      </trkpt>
      <trkpt lat="38.1566419266164302825927734375" lon="-0.8473482169210910797119140625">
        <ele>9</ele>
        <time>2019-10-25T11:26:17.000Z</time>
      </trkpt>
      <trkpt lat="38.15648518502712249755859375" lon="-0.84751275368034839630126953125">
        <ele>9</ele>
        <time>2019-10-25T11:26:21.000Z</time>
      </trkpt>
      <trkpt lat="38.15633255057036876678466796875" lon="-0.8476764522492885589599609375">
        <ele>9</ele>
        <time>2019-10-25T11:26:25.000Z</time>
      </trkpt>
      <trkpt lat="38.15618184395134449005126953125" lon="-0.847839228808879852294921875">
        <ele>9</ele>
        <time>2019-10-25T11:26:29.000Z</time>
      </trkpt>
      <trkpt lat="38.15602594055235385894775390625" lon="-0.84800259210169315338134765625">
        <ele>9</ele>
        <time>2019-10-25T11:26:33.000Z</time>
      </trkpt>
      <trkpt lat="38.15587422810494899749755859375" lon="-0.848181210458278656005859375">
        <ele>8.19999980926513671875</ele>
        <time>2019-10-25T11:26:37.000Z</time>
      </trkpt>
      <trkpt lat="38.1557722203433513641357421875" lon="-0.848295204341411590576171875">
        <ele>7</ele>
        <time>2019-10-25T11:26:41.000Z</time>
      </trkpt>
      <trkpt lat="38.1556716375052928924560546875" lon="-0.84841816686093807220458984375">
        <ele>5.80000019073486328125</ele>
        <time>2019-10-25T11:26:45.000Z</time>
      </trkpt>
      <trkpt lat="38.15564070828258991241455078125" lon="-0.84851573221385478973388671875">
        <ele>5.599999904632568359375</ele>
        <time>2019-10-25T11:26:47.000Z</time>
      </trkpt>
      <trkpt lat="38.15557667054235935211181640625" lon="-0.84874548017978668212890625">
        <ele>4.599999904632568359375</ele>
        <time>2019-10-25T11:26:51.000Z</time>
      </trkpt>
      <trkpt lat="38.15551766194403171539306640625" lon="-0.84899165667593479156494140625">
        <ele>5</ele>
        <time>2019-10-25T11:26:55.000Z</time>
      </trkpt>
      <trkpt lat="38.15544591285288333892822265625" lon="-0.84925384260714054107666015625">
        <ele>7</ele>
        <time>2019-10-25T11:26:59.000Z</time>
      </trkpt>
      <trkpt lat="38.15538187511265277862548828125" lon="-0.84944997914135456085205078125">
        <ele>8.3999996185302734375</ele>
        <time>2019-10-25T11:27:02.000Z</time>
      </trkpt>
      <trkpt lat="38.155268467962741851806640625" lon="-0.84970596246421337127685546875">
        <ele>9.6000003814697265625</ele>
        <time>2019-10-25T11:27:06.000Z</time>
      </trkpt>
      <trkpt lat="38.15515925176441669464111328125" lon="-0.8499462716281414031982421875">
        <ele>9.80000019073486328125</ele>
        <time>2019-10-25T11:27:10.000Z</time>
      </trkpt>
      <trkpt lat="38.1550562381744384765625" lon="-0.85018624551594257354736328125">
        <ele>9.3999996185302734375</ele>
        <time>2019-10-25T11:27:14.000Z</time>
      </trkpt>
      <trkpt lat="38.154953308403491973876953125" lon="-0.85043183527886867523193359375">
        <ele>10</ele>
        <time>2019-10-25T11:27:18.000Z</time>
      </trkpt>
      <trkpt lat="38.15484694205224514007568359375" lon="-0.85068966262042522430419921875">
        <ele>11.6000003814697265625</ele>
        <time>2019-10-25T11:27:22.000Z</time>
      </trkpt>
      <trkpt lat="38.1547355465590953826904296875" lon="-0.85093676112592220306396484375">
        <ele>11.19999980926513671875</ele>
        <time>2019-10-25T11:27:26.000Z</time>
      </trkpt>
      <trkpt lat="38.154627420008182525634765625" lon="-0.8511931635439395904541015625">
        <ele>10</ele>
        <time>2019-10-25T11:27:30.000Z</time>
      </trkpt>
      <trkpt lat="38.15452717244625091552734375" lon="-0.85144302807748317718505859375">
        <ele>10.3999996185302734375</ele>
        <time>2019-10-25T11:27:34.000Z</time>
      </trkpt>
      <trkpt lat="38.15442801453173160552978515625" lon="-0.85168526507914066314697265625">
        <ele>10</ele>
        <time>2019-10-25T11:27:38.000Z</time>
      </trkpt>
      <trkpt lat="38.15432156436145305633544921875" lon="-0.8519334532320499420166015625">
        <ele>8.3999996185302734375</ele>
        <time>2019-10-25T11:27:42.000Z</time>
      </trkpt>
      <trkpt lat="38.15421159379184246063232421875" lon="-0.85217812098562717437744140625">
        <ele>7.400000095367431640625</ele>
        <time>2019-10-25T11:27:46.000Z</time>
      </trkpt>
      <trkpt lat="38.15410112030804157257080078125" lon="-0.852436535060405731201171875">
        <ele>7.80000019073486328125</ele>
        <time>2019-10-25T11:27:50.000Z</time>
      </trkpt>
      <trkpt lat="38.1539865396916866302490234375" lon="-0.85269578732550144195556640625">
        <ele>8.3999996185302734375</ele>
        <time>2019-10-25T11:27:54.000Z</time>
      </trkpt>
      <trkpt lat="38.15387765876948833465576171875" lon="-0.85295026190578937530517578125">
        <ele>8.6000003814697265625</ele>
        <time>2019-10-25T11:27:58.000Z</time>
      </trkpt>
      <trkpt lat="38.15376802347600460052490234375" lon="-0.85321144200861454010009765625">
        <ele>9.19999980926513671875</ele>
        <time>2019-10-25T11:28:02.000Z</time>
      </trkpt>
      <trkpt lat="38.153655119240283966064453125" lon="-0.85347614251077175140380859375">
        <ele>10</ele>
        <time>2019-10-25T11:28:06.000Z</time>
      </trkpt>
      <trkpt lat="38.15356920473277568817138671875" lon="-0.8536812476813793182373046875">
        <ele>10</ele>
        <time>2019-10-25T11:28:09.000Z</time>
      </trkpt>
      <trkpt lat="38.153481446206569671630859375" lon="-0.8538854308426380157470703125">
        <ele>10.3999996185302734375</ele>
        <time>2019-10-25T11:28:12.000Z</time>
      </trkpt>
      <trkpt lat="38.153392262756824493408203125" lon="-0.85408584214746952056884765625">
        <ele>10.19999980926513671875</ele>
        <time>2019-10-25T11:28:15.000Z</time>
      </trkpt>
      <trkpt lat="38.15330333076417446136474609375" lon="-0.8542897738516330718994140625">
        <ele>9.3999996185302734375</ele>
        <time>2019-10-25T11:28:18.000Z</time>
      </trkpt>
      <trkpt lat="38.1532140634953975677490234375" lon="-0.85449605248868465423583984375">
        <ele>9</ele>
        <time>2019-10-25T11:28:21.000Z</time>
      </trkpt>
      <trkpt lat="38.1531221978366374969482421875" lon="-0.8547035045921802520751953125">
        <ele>8.6000003814697265625</ele>
        <time>2019-10-25T11:28:24.000Z</time>
      </trkpt>
      <trkpt lat="38.15303142182528972625732421875" lon="-0.85491229780018329620361328125">
        <ele>8.3999996185302734375</ele>
        <time>2019-10-25T11:28:27.000Z</time>
      </trkpt>
      <trkpt lat="38.152939639985561370849609375" lon="-0.8551189117133617401123046875">
        <ele>9</ele>
        <time>2019-10-25T11:28:30.000Z</time>
      </trkpt>
      <trkpt lat="38.15284651704132556915283203125" lon="-0.855332314968109130859375">
        <ele>9.80000019073486328125</ele>
        <time>2019-10-25T11:28:33.000Z</time>
      </trkpt>
      <trkpt lat="38.15275968052446842193603515625" lon="-0.85554161109030246734619140625">
        <ele>10.6000003814697265625</ele>
        <time>2019-10-25T11:28:36.000Z</time>
      </trkpt>
      <trkpt lat="38.1526744365692138671875" lon="-0.8557467162609100341796875">
        <ele>11.3999996185302734375</ele>
        <time>2019-10-25T11:28:39.000Z</time>
      </trkpt>
      <trkpt lat="38.1525901146233081817626953125" lon="-0.8559500612318515777587890625">
        <ele>11.80000019073486328125</ele>
        <time>2019-10-25T11:28:42.000Z</time>
      </trkpt>
      <trkpt lat="38.15250470302999019622802734375" lon="-0.85615374147891998291015625">
        <ele>11.80000019073486328125</ele>
        <time>2019-10-25T11:28:45.000Z</time>
      </trkpt>
      <trkpt lat="38.15239406190812587738037109375" lon="-0.856418944895267486572265625">
        <ele>11.3999996185302734375</ele>
        <time>2019-10-25T11:28:49.000Z</time>
      </trkpt>
      <trkpt lat="38.1522853486239910125732421875" lon="-0.85667048580944538116455078125">
        <ele>11.3999996185302734375</ele>
        <time>2019-10-25T11:28:53.000Z</time>
      </trkpt>
      <trkpt lat="38.15216875635087490081787109375" lon="-0.85692194290459156036376953125">
        <ele>11.80000019073486328125</ele>
        <time>2019-10-25T11:28:57.000Z</time>
      </trkpt>
      <trkpt lat="38.1520573608577251434326171875" lon="-0.85718094371259212493896484375">
        <ele>11.19999980926513671875</ele>
        <time>2019-10-25T11:29:01.000Z</time>
      </trkpt>
      <trkpt lat="38.1519359908998012542724609375" lon="-0.85743206553161144256591796875">
        <ele>10.3999996185302734375</ele>
        <time>2019-10-25T11:29:05.000Z</time>
      </trkpt>
      <trkpt lat="38.15185108222067356109619140625" lon="-0.8576524257659912109375">
        <ele>10</ele>
        <time>2019-10-25T11:29:10.000Z</time>
      </trkpt>
      <trkpt lat="38.151899613440036773681640625" lon="-0.8577635698020458221435546875">
        <ele>10</ele>
        <time>2019-10-25T11:29:14.000Z</time>
      </trkpt>
      <trkpt lat="38.15191981382668018341064453125" lon="-0.8577900566160678863525390625">
        <ele>10</ele>
        <time>2019-10-25T11:29:15.000Z</time>
      </trkpt>
      <trkpt lat="38.1519641540944576263427734375" lon="-0.85783959366381168365478515625">
        <ele>10</ele>
        <time>2019-10-25T11:29:17.000Z</time>
      </trkpt>
      <trkpt lat="38.15215752460062503814697265625" lon="-0.857942104339599609375">
        <ele>9.80000019073486328125</ele>
        <time>2019-10-25T11:29:22.000Z</time>
      </trkpt>
      <trkpt lat="38.15219624899327754974365234375" lon="-0.8579660765826702117919921875">
        <ele>9.80000019073486328125</ele>
        <time>2019-10-25T11:29:23.000Z</time>
      </trkpt>
      <trkpt lat="38.15230630338191986083984375" lon="-0.85803262889385223388671875">
        <ele>9.3999996185302734375</ele>
        <time>2019-10-25T11:29:26.000Z</time>
      </trkpt>
      <trkpt lat="38.15245239995419979095458984375" lon="-0.85810144431889057159423828125">
        <ele>9</ele>
        <time>2019-10-25T11:29:30.000Z</time>
      </trkpt>
      <trkpt lat="38.15259271301329135894775390625" lon="-0.85818140767514705657958984375">
        <ele>9</ele>
        <time>2019-10-25T11:29:34.000Z</time>
      </trkpt>
      <trkpt lat="38.152772001922130584716796875" lon="-0.85829188115894794464111328125">
        <ele>10</ele>
        <time>2019-10-25T11:29:40.000Z</time>
      </trkpt>
      <trkpt lat="38.15278080292046070098876953125" lon="-0.85830227471888065338134765625">
        <ele>10</ele>
        <time>2019-10-25T11:29:42.000Z</time>
      </trkpt>
      <trkpt lat="38.15265834331512451171875" lon="-0.85819029249250888824462890625">
        <ele>9</ele>
        <time>2019-10-25T11:30:40.000Z</time>
      </trkpt>
      <trkpt lat="38.15247234888374805450439453125" lon="-0.85809490643441677093505859375">
        <ele>9</ele>
        <time>2019-10-25T11:30:45.000Z</time>
      </trkpt>
      <trkpt lat="38.1523029506206512451171875" lon="-0.8579970896244049072265625">
        <ele>9.3999996185302734375</ele>
        <time>2019-10-25T11:30:50.000Z</time>
      </trkpt>
      <trkpt lat="38.15211720764636993408203125" lon="-0.8578866161406040191650390625">
        <ele>10</ele>
        <time>2019-10-25T11:30:56.000Z</time>
      </trkpt>
      <trkpt lat="38.15195032395422458648681640625" lon="-0.8577771484851837158203125">
        <ele>10</ele>
        <time>2019-10-25T11:31:02.000Z</time>
      </trkpt>
      <trkpt lat="38.15185837447643280029296875" lon="-0.8576542697846889495849609375">
        <ele>10</ele>
        <time>2019-10-25T11:31:08.000Z</time>
      </trkpt>
      <trkpt lat="38.1517790816724300384521484375" lon="-0.8577317185699939727783203125">
        <ele>10</ele>
        <time>2019-10-25T11:31:12.000Z</time>
      </trkpt>
      <trkpt lat="38.15167196094989776611328125" lon="-0.857917629182338714599609375">
        <ele>10.3999996185302734375</ele>
        <time>2019-10-25T11:31:17.000Z</time>
      </trkpt>
      <trkpt lat="38.151540197432041168212890625" lon="-0.858130864799022674560546875">
        <ele>12.80000019073486328125</ele>
        <time>2019-10-25T11:31:22.000Z</time>
      </trkpt>
      <trkpt lat="38.1514250300824642181396484375" lon="-0.85831291973590850830078125">
        <ele>14.19999980926513671875</ele>
        <time>2019-10-25T11:31:26.000Z</time>
      </trkpt>
      <trkpt lat="38.15130558796226978302001953125" lon="-0.85849505849182605743408203125">
        <ele>14.80000019073486328125</ele>
        <time>2019-10-25T11:31:30.000Z</time>
      </trkpt>
      <trkpt lat="38.1511873193085193634033203125" lon="-0.858694799244403839111328125">
        <ele>14</ele>
        <time>2019-10-25T11:31:34.000Z</time>
      </trkpt>
      <trkpt lat="38.15106687135994434356689453125" lon="-0.8588917739689350128173828125">
        <ele>12.6000003814697265625</ele>
        <time>2019-10-25T11:31:38.000Z</time>
      </trkpt>
      <trkpt lat="38.1509315036237239837646484375" lon="-0.8591060154139995574951171875">
        <ele>11.19999980926513671875</ele>
        <time>2019-10-25T11:31:42.000Z</time>
      </trkpt>
      <trkpt lat="38.1508051045238971710205078125" lon="-0.8593048341572284698486328125">
        <ele>10.6000003814697265625</ele>
        <time>2019-10-25T11:31:46.000Z</time>
      </trkpt>
      <trkpt lat="38.1506763584911823272705078125" lon="-0.8595073409378528594970703125">
        <ele>11.3999996185302734375</ele>
        <time>2019-10-25T11:31:50.000Z</time>
      </trkpt>
      <trkpt lat="38.15054836682975292205810546875" lon="-0.8597051538527011871337890625">
        <ele>12.3999996185302734375</ele>
        <time>2019-10-25T11:31:54.000Z</time>
      </trkpt>
      <trkpt lat="38.15043252892792224884033203125" lon="-0.85989835672080516815185546875">
        <ele>13</ele>
        <time>2019-10-25T11:31:58.000Z</time>
      </trkpt>
      <trkpt lat="38.15030981786549091339111328125" lon="-0.86010086350142955780029296875">
        <ele>12.3999996185302734375</ele>
        <time>2019-10-25T11:32:02.000Z</time>
      </trkpt>
      <trkpt lat="38.1501798145473003387451171875" lon="-0.86030990816652774810791015625">
        <ele>12</ele>
        <time>2019-10-25T11:32:06.000Z</time>
      </trkpt>
      <trkpt lat="38.1500520743429660797119140625" lon="-0.86051576770842075347900390625">
        <ele>11</ele>
        <time>2019-10-25T11:32:10.000Z</time>
      </trkpt>
      <trkpt lat="38.14993279986083507537841796875" lon="-0.86071106605231761932373046875">
        <ele>10.19999980926513671875</ele>
        <time>2019-10-25T11:32:14.000Z</time>
      </trkpt>
      <trkpt lat="38.14980782568454742431640625" lon="-0.86091223172843456268310546875">
        <ele>9.6000003814697265625</ele>
        <time>2019-10-25T11:32:18.000Z</time>
      </trkpt>
      <trkpt lat="38.14967773854732513427734375" lon="-0.86111457087099552154541015625">
        <ele>9.19999980926513671875</ele>
        <time>2019-10-25T11:32:22.000Z</time>
      </trkpt>
      <trkpt lat="38.14954639412462711334228515625" lon="-0.86132177151739597320556640625">
        <ele>9.19999980926513671875</ele>
        <time>2019-10-25T11:32:26.000Z</time>
      </trkpt>
      <trkpt lat="38.14942158758640289306640625" lon="-0.8615257032215595245361328125">
        <ele>9.3999996185302734375</ele>
        <time>2019-10-25T11:32:30.000Z</time>
      </trkpt>
      <trkpt lat="38.14929191954433917999267578125" lon="-0.86173231713473796844482421875">
        <ele>9.6000003814697265625</ele>
        <time>2019-10-25T11:32:34.000Z</time>
      </trkpt>
      <trkpt lat="38.14916585572063922882080078125" lon="-0.86193767376244068145751953125">
        <ele>9.3999996185302734375</ele>
        <time>2019-10-25T11:32:38.000Z</time>
      </trkpt>
      <trkpt lat="38.149045072495937347412109375" lon="-0.862133391201496124267578125">
        <ele>9.19999980926513671875</ele>
        <time>2019-10-25T11:32:42.000Z</time>
      </trkpt>
      <trkpt lat="38.148922361433506011962890625" lon="-0.8623404242098331451416015625">
        <ele>9</ele>
        <time>2019-10-25T11:32:46.000Z</time>
      </trkpt>
      <trkpt lat="38.1487870775163173675537109375" lon="-0.862565226852893829345703125">
        <ele>8</ele>
        <time>2019-10-25T11:32:50.000Z</time>
      </trkpt>
      <trkpt lat="38.14865606836974620819091796875" lon="-0.86279178969562053680419921875">
        <ele>7.80000019073486328125</ele>
        <time>2019-10-25T11:32:54.000Z</time>
      </trkpt>
      <trkpt lat="38.1485275737941265106201171875" lon="-0.8630046062171459197998046875">
        <ele>8</ele>
        <time>2019-10-25T11:32:58.000Z</time>
      </trkpt>
      <trkpt lat="38.1483897753059864044189453125" lon="-0.86322429589927196502685546875">
        <ele>9.3999996185302734375</ele>
        <time>2019-10-25T11:33:02.000Z</time>
      </trkpt>
      <trkpt lat="38.1482482887804508209228515625" lon="-0.86344398558139801025390625">
        <ele>10.80000019073486328125</ele>
        <time>2019-10-25T11:33:06.000Z</time>
      </trkpt>
      <trkpt lat="38.1481079757213592529296875" lon="-0.86365051567554473876953125">
        <ele>12.80000019073486328125</ele>
        <time>2019-10-25T11:33:10.000Z</time>
      </trkpt>
      <trkpt lat="38.1479834206402301788330078125" lon="-0.86386165581643581390380859375">
        <ele>13.6000003814697265625</ele>
        <time>2019-10-25T11:33:14.000Z</time>
      </trkpt>
      <trkpt lat="38.1478504836559295654296875" lon="-0.86405360139906406402587890625">
        <ele>12.3999996185302734375</ele>
        <time>2019-10-25T11:33:18.000Z</time>
      </trkpt>
      <trkpt lat="38.14772953279316425323486328125" lon="-0.86424202658236026763916015625">
        <ele>10.19999980926513671875</ele>
        <time>2019-10-25T11:33:22.000Z</time>
      </trkpt>
      <trkpt lat="38.147596679627895355224609375" lon="-0.8644338883459568023681640625">
        <ele>9.19999980926513671875</ele>
        <time>2019-10-25T11:33:26.000Z</time>
      </trkpt>
      <trkpt lat="38.14744790084660053253173828125" lon="-0.86461585946381092071533203125">
        <ele>8.80000019073486328125</ele>
        <time>2019-10-25T11:33:30.000Z</time>
      </trkpt>
      <trkpt lat="38.14729459583759307861328125" lon="-0.86479824967682361602783203125">
        <ele>9.3999996185302734375</ele>
        <time>2019-10-25T11:33:34.000Z</time>
      </trkpt>
      <trkpt lat="38.14713827334344387054443359375" lon="-0.8649763651192188262939453125">
        <ele>11</ele>
        <time>2019-10-25T11:33:38.000Z</time>
      </trkpt>
      <trkpt lat="38.1469787657260894775390625" lon="-0.8651585876941680908203125">
        <ele>11</ele>
        <time>2019-10-25T11:33:42.000Z</time>
      </trkpt>
      <trkpt lat="38.146820850670337677001953125" lon="-0.865343324840068817138671875">
        <ele>10</ele>
        <time>2019-10-25T11:33:46.000Z</time>
      </trkpt>
      <trkpt lat="38.1466574035584926605224609375" lon="-0.8655295707285404205322265625">
        <ele>8.80000019073486328125</ele>
        <time>2019-10-25T11:33:50.000Z</time>
      </trkpt>
      <trkpt lat="38.14649051986634731292724609375" lon="-0.8657106198370456695556640625">
        <ele>8.19999980926513671875</ele>
        <time>2019-10-25T11:33:54.000Z</time>
      </trkpt>
      <trkpt lat="38.1463177688419818878173828125" lon="-0.86589292623102664947509765625">
        <ele>8.80000019073486328125</ele>
        <time>2019-10-25T11:33:58.000Z</time>
      </trkpt>
      <trkpt lat="38.146146275103092193603515625" lon="-0.86607699282467365264892578125">
        <ele>10.6000003814697265625</ele>
        <time>2019-10-25T11:34:02.000Z</time>
      </trkpt>
      <trkpt lat="38.145981989800930023193359375" lon="-0.8662410266697406768798828125">
        <ele>12</ele>
        <time>2019-10-25T11:34:06.000Z</time>
      </trkpt>
      <trkpt lat="38.1458111666142940521240234375" lon="-0.86640824563801288604736328125">
        <ele>11.3999996185302734375</ele>
        <time>2019-10-25T11:34:10.000Z</time>
      </trkpt>
      <trkpt lat="38.14562198705971240997314453125" lon="-0.8665467984974384307861328125">
        <ele>10.80000019073486328125</ele>
        <time>2019-10-25T11:34:14.000Z</time>
      </trkpt>
      <trkpt lat="38.14542920328676700592041015625" lon="-0.866689123213291168212890625">
        <ele>10.3999996185302734375</ele>
        <time>2019-10-25T11:34:18.000Z</time>
      </trkpt>
      <trkpt lat="38.14522887580096721649169921875" lon="-0.86681527085602283477783203125">
        <ele>10.80000019073486328125</ele>
        <time>2019-10-25T11:34:22.000Z</time>
      </trkpt>
      <trkpt lat="38.145041875541210174560546875" lon="-0.86693898774683475494384765625">
        <ele>10.6000003814697265625</ele>
        <time>2019-10-25T11:34:26.000Z</time>
      </trkpt>
      <trkpt lat="38.144862838089466094970703125" lon="-0.86705264635384082794189453125">
        <ele>10</ele>
        <time>2019-10-25T11:34:30.000Z</time>
      </trkpt>
      <trkpt lat="38.14467432908713817596435546875" lon="-0.86717435158789157867431640625">
        <ele>10.19999980926513671875</ele>
        <time>2019-10-25T11:34:34.000Z</time>
      </trkpt>
      <trkpt lat="38.14448221586644649505615234375" lon="-0.86729161441326141357421875">
        <ele>10.80000019073486328125</ele>
        <time>2019-10-25T11:34:38.000Z</time>
      </trkpt>
      <trkpt lat="38.1442916952073574066162109375" lon="-0.86740803904831409454345703125">
        <ele>11.19999980926513671875</ele>
        <time>2019-10-25T11:34:42.000Z</time>
      </trkpt>
      <trkpt lat="38.14411257393658161163330078125" lon="-0.86754064075648784637451171875">
        <ele>11.80000019073486328125</ele>
        <time>2019-10-25T11:34:46.000Z</time>
      </trkpt>
      <trkpt lat="38.143933117389678955078125" lon="-0.867670811712741851806640625">
        <ele>12.80000019073486328125</ele>
        <time>2019-10-25T11:34:50.000Z</time>
      </trkpt>
      <trkpt lat="38.1437562592327594757080078125" lon="-0.8678067661821842193603515625">
        <ele>13.80000019073486328125</ele>
        <time>2019-10-25T11:34:54.000Z</time>
      </trkpt>
      <trkpt lat="38.14361418597400188446044921875" lon="-0.86801019497215747833251953125">
        <ele>13.6000003814697265625</ele>
        <time>2019-10-25T11:34:58.000Z</time>
      </trkpt>
      <trkpt lat="38.1434903852641582489013671875" lon="-0.86824505589902400970458984375">
        <ele>12.6000003814697265625</ele>
        <time>2019-10-25T11:35:02.000Z</time>
      </trkpt>
      <trkpt lat="38.14340941607952117919921875" lon="-0.8684038929641246795654296875">
        <ele>12.19999980926513671875</ele>
        <time>2019-10-25T11:35:05.000Z</time>
      </trkpt>
      <trkpt lat="38.143299110233783721923828125" lon="-0.86863498203456401824951171875">
        <ele>12</ele>
        <time>2019-10-25T11:35:09.000Z</time>
      </trkpt>
      <trkpt lat="38.14318000338971614837646484375" lon="-0.8688779734075069427490234375">
        <ele>12</ele>
        <time>2019-10-25T11:35:13.000Z</time>
      </trkpt>
      <trkpt lat="38.143064416944980621337890625" lon="-0.869119875133037567138671875">
        <ele>11.6000003814697265625</ele>
        <time>2019-10-25T11:35:17.000Z</time>
      </trkpt>
      <trkpt lat="38.1429475732147693634033203125" lon="-0.869358591735363006591796875">
        <ele>11</ele>
        <time>2019-10-25T11:35:21.000Z</time>
      </trkpt>
      <trkpt lat="38.142837099730968475341796875" lon="-0.86958264000713825225830078125">
        <ele>10.6000003814697265625</ele>
        <time>2019-10-25T11:35:25.000Z</time>
      </trkpt>
      <trkpt lat="38.1427350081503391265869140625" lon="-0.8697859011590480804443359375">
        <ele>11</ele>
        <time>2019-10-25T11:35:29.000Z</time>
      </trkpt>
      <trkpt lat="38.142707683145999908447265625" lon="-0.869835354387760162353515625">
        <ele>11</ele>
        <time>2019-10-25T11:35:30.000Z</time>
      </trkpt>
      <trkpt lat="38.1425713934004306793212890625" lon="-0.8700440637767314910888671875">
        <ele>11</ele>
        <time>2019-10-25T11:35:34.000Z</time>
      </trkpt>
      <trkpt lat="38.1424181722104549407958984375" lon="-0.87025436572730541229248046875">
        <ele>11.3999996185302734375</ele>
        <time>2019-10-25T11:35:38.000Z</time>
      </trkpt>
      <trkpt lat="38.1422894261777400970458984375" lon="-0.87048402987420558929443359375">
        <ele>12.19999980926513671875</ele>
        <time>2019-10-25T11:35:42.000Z</time>
      </trkpt>
      <trkpt lat="38.14217828214168548583984375" lon="-0.87072542868554592132568359375">
        <ele>13</ele>
        <time>2019-10-25T11:35:46.000Z</time>
      </trkpt>
      <trkpt lat="38.14207728020846843719482421875" lon="-0.870951823890209197998046875">
        <ele>12</ele>
        <time>2019-10-25T11:35:50.000Z</time>
      </trkpt>
      <trkpt lat="38.14203889109194278717041015625" lon="-0.8710706792771816253662109375">
        <ele>11.80000019073486328125</ele>
        <time>2019-10-25T11:35:52.000Z</time>
      </trkpt>
      <trkpt lat="38.14197971485555171966552734375" lon="-0.8713214658200740814208984375">
        <ele>11.19999980926513671875</ele>
        <time>2019-10-25T11:35:56.000Z</time>
      </trkpt>
      <trkpt lat="38.14191483892500400543212890625" lon="-0.8715692348778247833251953125">
        <ele>11.6000003814697265625</ele>
        <time>2019-10-25T11:36:00.000Z</time>
      </trkpt>
      <trkpt lat="38.14186572097241878509521484375" lon="-0.87175439111888408660888671875">
        <ele>12</ele>
        <time>2019-10-25T11:36:03.000Z</time>
      </trkpt>
      <trkpt lat="38.14181861467659473419189453125" lon="-0.87201020680367946624755859375">
        <ele>12</ele>
        <time>2019-10-25T11:36:07.000Z</time>
      </trkpt>
      <trkpt lat="38.141781650483608245849609375" lon="-0.87226711213588714599609375">
        <ele>12.3999996185302734375</ele>
        <time>2019-10-25T11:36:11.000Z</time>
      </trkpt>
      <trkpt lat="38.14177201129496097564697265625" lon="-0.87233106605708599090576171875">
        <ele>12.6000003814697265625</ele>
        <time>2019-10-25T11:36:12.000Z</time>
      </trkpt>
      <trkpt lat="38.1417201273143291473388671875" lon="-0.87259107269346714019775390625">
        <ele>14</ele>
        <time>2019-10-25T11:36:16.000Z</time>
      </trkpt>
      <trkpt lat="38.14165131188929080963134765625" lon="-0.87285610847175121307373046875">
        <ele>15.19999980926513671875</ele>
        <time>2019-10-25T11:36:20.000Z</time>
      </trkpt>
      <trkpt lat="38.14157009124755859375" lon="-0.873122401535511016845703125">
        <ele>15.80000019073486328125</ele>
        <time>2019-10-25T11:36:24.000Z</time>
      </trkpt>
      <trkpt lat="38.1414934806525707244873046875" lon="-0.873406045138835906982421875">
        <ele>14.19999980926513671875</ele>
        <time>2019-10-25T11:36:28.000Z</time>
      </trkpt>
      <trkpt lat="38.14147512428462505340576171875" lon="-0.8734766207635402679443359375">
        <ele>14</ele>
        <time>2019-10-25T11:36:29.000Z</time>
      </trkpt>
      <trkpt lat="38.1414274312555789947509765625" lon="-0.8737582527101039886474609375">
        <ele>13.19999980926513671875</ele>
        <time>2019-10-25T11:36:33.000Z</time>
      </trkpt>
      <trkpt lat="38.1414009444415569305419921875" lon="-0.87402320466935634613037109375">
        <ele>11.80000019073486328125</ele>
        <time>2019-10-25T11:36:37.000Z</time>
      </trkpt>
      <trkpt lat="38.14137688837945461273193359375" lon="-0.87429829873144626617431640625">
        <ele>11</ele>
        <time>2019-10-25T11:36:41.000Z</time>
      </trkpt>
      <trkpt lat="38.1413459591567516326904296875" lon="-0.87459401227533817291259765625">
        <ele>11.19999980926513671875</ele>
        <time>2019-10-25T11:36:45.000Z</time>
      </trkpt>
      <trkpt lat="38.14128066413104534149169921875" lon="-0.87487363256514072418212890625">
        <ele>12.19999980926513671875</ele>
        <time>2019-10-25T11:36:49.000Z</time>
      </trkpt>
      <trkpt lat="38.14119852147996425628662109375" lon="-0.87514386512339115142822265625">
        <ele>12.80000019073486328125</ele>
        <time>2019-10-25T11:36:53.000Z</time>
      </trkpt>
      <trkpt lat="38.14110531471669673919677734375" lon="-0.8754061348736286163330078125">
        <ele>12.6000003814697265625</ele>
        <time>2019-10-25T11:36:57.000Z</time>
      </trkpt>
      <trkpt lat="38.141013868153095245361328125" lon="-0.87565742433071136474609375">
        <ele>12</ele>
        <time>2019-10-25T11:37:01.000Z</time>
      </trkpt>
      <trkpt lat="38.14093901775777339935302734375" lon="-0.87589253671467304229736328125">
        <ele>11.3999996185302734375</ele>
        <time>2019-10-25T11:37:05.000Z</time>
      </trkpt>
      <trkpt lat="38.1408705376088619232177734375" lon="-0.8761447481811046600341796875">
        <ele>10.3999996185302734375</ele>
        <time>2019-10-25T11:37:09.000Z</time>
      </trkpt>
      <trkpt lat="38.1407997943460941314697265625" lon="-0.87640332989394664764404296875">
        <ele>7.599999904632568359375</ele>
        <time>2019-10-25T11:37:13.000Z</time>
      </trkpt>
      <trkpt lat="38.1407256983220577239990234375" lon="-0.87666249834001064300537109375">
        <ele>6</ele>
        <time>2019-10-25T11:37:17.000Z</time>
      </trkpt>
      <trkpt lat="38.140644729137420654296875" lon="-0.87689635343849658966064453125">
        <ele>6.400000095367431640625</ele>
        <time>2019-10-25T11:37:21.000Z</time>
      </trkpt>
      <trkpt lat="38.14055043272674083709716796875" lon="-0.87710036896169185638427734375">
        <ele>6.599999904632568359375</ele>
        <time>2019-10-25T11:37:25.000Z</time>
      </trkpt>
      <trkpt lat="38.14046124927699565887451171875" lon="-0.8773158676922321319580078125">
        <ele>7</ele>
        <time>2019-10-25T11:37:29.000Z</time>
      </trkpt>
      <trkpt lat="38.14037458039820194244384765625" lon="-0.87751795537769794464111328125">
        <ele>8.3999996185302734375</ele>
        <time>2019-10-25T11:37:34.000Z</time>
      </trkpt>
      <trkpt lat="38.14036552794277667999267578125" lon="-0.87754695676267147064208984375">
        <ele>8.6000003814697265625</ele>
        <time>2019-10-25T11:37:35.000Z</time>
      </trkpt>
      <trkpt lat="38.14030484296381473541259765625" lon="-0.87767670862376689910888671875">
        <ele>9.6000003814697265625</ele>
        <time>2019-10-25T11:37:39.000Z</time>
      </trkpt>
      <trkpt lat="38.14022957347333431243896484375" lon="-0.87788189761340618133544921875">
        <ele>10.80000019073486328125</ele>
        <time>2019-10-25T11:37:44.000Z</time>
      </trkpt>
      <trkpt lat="38.1401929445564746856689453125" lon="-0.878028832376003265380859375">
        <ele>11.3999996185302734375</ele>
        <time>2019-10-25T11:37:50.000Z</time>
      </trkpt>
      <trkpt lat="38.14019168727099895477294921875" lon="-0.8780303411185741424560546875">
        <ele>11.3999996185302734375</ele>
        <time>2019-10-25T11:37:51.000Z</time>
      </trkpt>
      <trkpt lat="38.14017090015113353729248046875" lon="-0.87808306328952312469482421875">
        <ele>11.80000019073486328125</ele>
        <time>2019-10-25T11:38:36.000Z</time>
      </trkpt>
      <trkpt lat="38.14013636671006679534912109375" lon="-0.87815514765679836273193359375">
        <ele>12</ele>
        <time>2019-10-25T11:38:40.000Z</time>
      </trkpt>
      <trkpt lat="38.14007232896983623504638671875" lon="-0.87838564999401569366455078125">
        <ele>12.3999996185302734375</ele>
        <time>2019-10-25T11:38:48.000Z</time>
      </trkpt>
      <trkpt lat="38.1399793736636638641357421875" lon="-0.87860877625644207000732421875">
        <ele>11.3999996185302734375</ele>
        <time>2019-10-25T11:38:56.000Z</time>
      </trkpt>
      <trkpt lat="38.139877617359161376953125" lon="-0.87883106432855129241943359375">
        <ele>10.80000019073486328125</ele>
        <time>2019-10-25T11:39:03.000Z</time>
      </trkpt>
      <trkpt lat="38.139775358140468597412109375" lon="-0.879035331308841705322265625">
        <ele>10.3999996185302734375</ele>
        <time>2019-10-25T11:39:10.000Z</time>
      </trkpt>
      <trkpt lat="38.1396709196269512176513671875" lon="-0.879229120910167694091796875">
        <ele>11</ele>
        <time>2019-10-25T11:39:17.000Z</time>
      </trkpt>
      <trkpt lat="38.13956488855183124542236328125" lon="-0.879423581063747406005859375">
        <ele>11.6000003814697265625</ele>
        <time>2019-10-25T11:39:24.000Z</time>
      </trkpt>
      <trkpt lat="38.1394449435174465179443359375" lon="-0.8796339668333530426025390625">
        <ele>11.6000003814697265625</ele>
        <time>2019-10-25T11:39:31.000Z</time>
      </trkpt>
      <trkpt lat="38.13940412364900112152099609375" lon="-0.87973304092884063720703125">
        <ele>11.3999996185302734375</ele>
        <time>2019-10-25T11:39:36.000Z</time>
      </trkpt>
      <trkpt lat="38.139387778937816619873046875" lon="-0.87977972812950611114501953125">
        <ele>11.19999980926513671875</ele>
        <time>2019-10-25T11:41:48.000Z</time>
      </trkpt>
      <trkpt lat="38.13919968903064727783203125" lon="-0.8797151036560535430908203125">
        <ele>11.3999996185302734375</ele>
        <time>2019-10-25T11:41:56.000Z</time>
      </trkpt>
      <trkpt lat="38.139017634093761444091796875" lon="-0.87967135012149810791015625">
        <ele>11.80000019073486328125</ele>
        <time>2019-10-25T11:42:02.000Z</time>
      </trkpt>
      <trkpt lat="38.13880917616188526153564453125" lon="-0.879632122814655303955078125">
        <ele>12.6000003814697265625</ele>
        <time>2019-10-25T11:42:08.000Z</time>
      </trkpt>
      <trkpt lat="38.13861236907541751861572265625" lon="-0.87957588024437427520751953125">
        <ele>13</ele>
        <time>2019-10-25T11:42:14.000Z</time>
      </trkpt>
      <trkpt lat="38.138430230319499969482421875" lon="-0.8794844336807727813720703125">
        <ele>13.6000003814697265625</ele>
        <time>2019-10-25T11:42:21.000Z</time>
      </trkpt>
      <trkpt lat="38.13834582455456256866455078125" lon="-0.8794512413442134857177734375">
        <ele>14</ele>
        <time>2019-10-25T11:42:25.000Z</time>
      </trkpt>
      <trkpt lat="38.1381930224597454071044921875" lon="-0.8793526701629161834716796875">
        <ele>14.6000003814697265625</ele>
        <time>2019-10-25T11:42:55.000Z</time>
      </trkpt>
      <trkpt lat="38.13801222480833530426025390625" lon="-0.879236161708831787109375">
        <ele>14</ele>
        <time>2019-10-25T11:43:01.000Z</time>
      </trkpt>
      <trkpt lat="38.1378436647355556488037109375" lon="-0.87913088500499725341796875">
        <ele>12.6000003814697265625</ele>
        <time>2019-10-25T11:43:06.000Z</time>
      </trkpt>
      <trkpt lat="38.13764895312488079071044921875" lon="-0.8790214173495769500732421875">
        <ele>11</ele>
        <time>2019-10-25T11:43:11.000Z</time>
      </trkpt>
      <trkpt lat="38.13745901919901371002197265625" lon="-0.8789181523025035858154296875">
        <ele>9.19999980926513671875</ele>
        <time>2019-10-25T11:43:16.000Z</time>
      </trkpt>
      <trkpt lat="38.13727159984409809112548828125" lon="-0.87879586033523082733154296875">
        <ele>9</ele>
        <time>2019-10-25T11:43:21.000Z</time>
      </trkpt>
      <trkpt lat="38.1370795704424381256103515625" lon="-0.8786734007298946380615234375">
        <ele>9.3999996185302734375</ele>
        <time>2019-10-25T11:43:26.000Z</time>
      </trkpt>
      <trkpt lat="38.1368898041546344757080078125" lon="-0.87854440324008464813232421875">
        <ele>10.19999980926513671875</ele>
        <time>2019-10-25T11:43:31.000Z</time>
      </trkpt>
      <trkpt lat="38.136696182191371917724609375" lon="-0.87842085398733615875244140625">
        <ele>9.6000003814697265625</ele>
        <time>2019-10-25T11:43:36.000Z</time>
      </trkpt>
      <trkpt lat="38.1365712918341159820556640625" lon="-0.87837240658700466156005859375">
        <ele>9.3999996185302734375</ele>
        <time>2019-10-25T11:43:39.000Z</time>
      </trkpt>
      <trkpt lat="38.13639451749622821807861328125" lon="-0.878323875367641448974609375">
        <ele>10.3999996185302734375</ele>
        <time>2019-10-25T11:43:43.000Z</time>
      </trkpt>
      <trkpt lat="38.13630382530391216278076171875" lon="-0.87829411961138248443603515625">
        <ele>10.6000003814697265625</ele>
        <time>2019-10-25T11:43:45.000Z</time>
      </trkpt>
      <trkpt lat="38.13625671900808811187744140625" lon="-0.87828607298433780670166015625">
        <ele>10.80000019073486328125</ele>
        <time>2019-10-25T11:43:46.000Z</time>
      </trkpt>
      <trkpt lat="38.13604096882045269012451171875" lon="-0.87823125533759593963623046875">
        <ele>13.3999996185302734375</ele>
        <time>2019-10-25T11:43:51.000Z</time>
      </trkpt>
      <trkpt lat="38.13582144677639007568359375" lon="-0.87818414904177188873291015625">
        <ele>14.6000003814697265625</ele>
        <time>2019-10-25T11:43:56.000Z</time>
      </trkpt>
      <trkpt lat="38.1356117315590381622314453125" lon="-0.87812371551990509033203125">
        <ele>15.6000003814697265625</ele>
        <time>2019-10-25T11:44:01.000Z</time>
      </trkpt>
      <trkpt lat="38.135404698550701141357421875" lon="-0.87803562171757221221923828125">
        <ele>15.80000019073486328125</ele>
        <time>2019-10-25T11:44:06.000Z</time>
      </trkpt>
      <trkpt lat="38.1352977454662322998046875" lon="-0.8779924549162387847900390625">
        <ele>15.3999996185302734375</ele>
        <time>2019-10-25T11:44:09.000Z</time>
      </trkpt>
      <trkpt lat="38.1351517327129840850830078125" lon="-0.87805188260972499847412109375">
        <ele>15</ele>
        <time>2019-10-25T11:44:14.000Z</time>
      </trkpt>
      <trkpt lat="38.1351289339363574981689453125" lon="-0.8780653774738311767578125">
        <ele>14.80000019073486328125</ele>
        <time>2019-10-25T11:44:15.000Z</time>
      </trkpt>
      <trkpt lat="38.1350783072412014007568359375" lon="-0.87808557786047458648681640625">
        <ele>14.6000003814697265625</ele>
        <time>2019-10-25T11:44:17.000Z</time>
      </trkpt>
      <trkpt lat="38.13494645990431308746337890625" lon="-0.87806730531156063079833984375">
        <ele>14.3999996185302734375</ele>
        <time>2019-10-25T11:44:22.000Z</time>
      </trkpt>
      <trkpt lat="38.1347919814288616180419921875" lon="-0.87795473635196685791015625">
        <ele>14</ele>
        <time>2019-10-25T11:44:28.000Z</time>
      </trkpt>
      <trkpt lat="38.134597353637218475341796875" lon="-0.87790637277066707611083984375">
        <ele>13.6000003814697265625</ele>
        <time>2019-10-25T11:44:33.000Z</time>
      </trkpt>
      <trkpt lat="38.13441521488130092620849609375" lon="-0.87795767001807689666748046875">
        <ele>13</ele>
        <time>2019-10-25T11:44:37.000Z</time>
      </trkpt>
      <trkpt lat="38.13422343693673610687255859375" lon="-0.8779907785356044769287109375">
        <ele>13.19999980926513671875</ele>
        <time>2019-10-25T11:44:41.000Z</time>
      </trkpt>
      <trkpt lat="38.13404188491404056549072265625" lon="-0.8779713325202465057373046875">
        <ele>13.3999996185302734375</ele>
        <time>2019-10-25T11:44:45.000Z</time>
      </trkpt>
      <trkpt lat="38.13385069370269775390625" lon="-0.87793922983109951019287109375">
        <ele>13.19999980926513671875</ele>
        <time>2019-10-25T11:44:49.000Z</time>
      </trkpt>
      <trkpt lat="38.13365162350237369537353515625" lon="-0.877900086343288421630859375">
        <ele>13</ele>
        <time>2019-10-25T11:44:53.000Z</time>
      </trkpt>
      <trkpt lat="38.13346554525196552276611328125" lon="-0.87787033058702945709228515625">
        <ele>13.19999980926513671875</ele>
        <time>2019-10-25T11:44:57.000Z</time>
      </trkpt>
      <trkpt lat="38.1332644633948802947998046875" lon="-0.87786815129220485687255859375">
        <ele>13.80000019073486328125</ele>
        <time>2019-10-25T11:45:01.000Z</time>
      </trkpt>
      <trkpt lat="38.13306740485131740570068359375" lon="-0.8778400719165802001953125">
        <ele>14.19999980926513671875</ele>
        <time>2019-10-25T11:45:05.000Z</time>
      </trkpt>
      <trkpt lat="38.13287143595516681671142578125" lon="-0.87780394591391086578369140625">
        <ele>14.19999980926513671875</ele>
        <time>2019-10-25T11:45:09.000Z</time>
      </trkpt>
      <trkpt lat="38.13268502242863178253173828125" lon="-0.87778014130890369415283203125">
        <ele>14.19999980926513671875</ele>
        <time>2019-10-25T11:45:13.000Z</time>
      </trkpt>
      <trkpt lat="38.13250078819692134857177734375" lon="-0.87775767780840396881103515625">
        <ele>14.6000003814697265625</ele>
        <time>2019-10-25T11:45:17.000Z</time>
      </trkpt>
      <trkpt lat="38.1322888098657131195068359375" lon="-0.87773739360272884368896484375">
        <ele>13.6000003814697265625</ele>
        <time>2019-10-25T11:45:22.000Z</time>
      </trkpt>
      <trkpt lat="38.13207850791513919830322265625" lon="-0.8777121640741825103759765625">
        <ele>12.80000019073486328125</ele>
        <time>2019-10-25T11:45:27.000Z</time>
      </trkpt>
      <trkpt lat="38.13187248073518276214599609375" lon="-0.8776893652975559234619140625">
        <ele>13.19999980926513671875</ele>
        <time>2019-10-25T11:45:32.000Z</time>
      </trkpt>
      <trkpt lat="38.13183090649545192718505859375" lon="-0.87768626399338245391845703125">
        <ele>13.19999980926513671875</ele>
        <time>2019-10-25T11:45:33.000Z</time>
      </trkpt>
      <trkpt lat="38.13174893148243427276611328125" lon="-0.8776766248047351837158203125">
        <ele>13.3999996185302734375</ele>
        <time>2019-10-25T11:45:35.000Z</time>
      </trkpt>
      <trkpt lat="38.1315708160400390625" lon="-0.8776451088488101959228515625">
        <ele>14</ele>
        <time>2019-10-25T11:45:40.000Z</time>
      </trkpt>
      <trkpt lat="38.131382726132869720458984375" lon="-0.87763681076467037200927734375">
        <ele>13.19999980926513671875</ele>
        <time>2019-10-25T11:45:45.000Z</time>
      </trkpt>
      <trkpt lat="38.131172843277454376220703125" lon="-0.87760076858103275299072265625">
        <ele>12.6000003814697265625</ele>
        <time>2019-10-25T11:45:50.000Z</time>
      </trkpt>
      <trkpt lat="38.13095566816627979278564453125" lon="-0.8775629661977291107177734375">
        <ele>12.6000003814697265625</ele>
        <time>2019-10-25T11:45:55.000Z</time>
      </trkpt>
      <trkpt lat="38.130762465298175811767578125" lon="-0.877549387514591217041015625">
        <ele>13.80000019073486328125</ele>
        <time>2019-10-25T11:45:59.000Z</time>
      </trkpt>
      <trkpt lat="38.130568675696849822998046875" lon="-0.87752181105315685272216796875">
        <ele>14.19999980926513671875</ele>
        <time>2019-10-25T11:46:03.000Z</time>
      </trkpt>
      <trkpt lat="38.13044319860637187957763671875" lon="-0.87749297730624675750732421875">
        <ele>15.19999980926513671875</ele>
        <time>2019-10-25T11:46:07.000Z</time>
      </trkpt>
      <trkpt lat="38.1303012929856777191162109375" lon="-0.87756724096834659576416015625">
        <ele>17.200000762939453125</ele>
        <time>2019-10-25T11:46:13.000Z</time>
      </trkpt>
      <trkpt lat="38.13011772930622100830078125" lon="-0.87767637334764003753662109375">
        <ele>18.3999996185302734375</ele>
        <time>2019-10-25T11:46:19.000Z</time>
      </trkpt>
      <trkpt lat="38.1299306452274322509765625" lon="-0.877763293683528900146484375">
        <ele>18.3999996185302734375</ele>
        <time>2019-10-25T11:46:25.000Z</time>
      </trkpt>
      <trkpt lat="38.129747249186038970947265625" lon="-0.8778362162411212921142578125">
        <ele>17.200000762939453125</ele>
        <time>2019-10-25T11:46:31.000Z</time>
      </trkpt>
      <trkpt lat="38.12962478958070278167724609375" lon="-0.87800460867583751678466796875">
        <ele>16.3999996185302734375</ele>
        <time>2019-10-25T11:46:39.000Z</time>
      </trkpt>
      <trkpt lat="38.12955304048955440521240234375" lon="-0.8780766092240810394287109375">
        <ele>16.3999996185302734375</ele>
        <time>2019-10-25T11:46:42.000Z</time>
      </trkpt>
      <trkpt lat="38.129381127655506134033203125" lon="-0.877981223165988922119140625">
        <ele>16</ele>
        <time>2019-10-25T11:46:47.000Z</time>
      </trkpt>
      <trkpt lat="38.1292413175106048583984375" lon="-0.8779572509229183197021484375">
        <ele>16.6000003814697265625</ele>
        <time>2019-10-25T11:46:51.000Z</time>
      </trkpt>
      <trkpt lat="38.1291248090565204620361328125" lon="-0.87798214517533779144287109375">
        <ele>17.200000762939453125</ele>
        <time>2019-10-25T11:46:58.000Z</time>
      </trkpt>
      <trkpt lat="38.129074685275554656982421875" lon="-0.8779688179492950439453125">
        <ele>17.200000762939453125</ele>
        <time>2019-10-25T11:49:24.000Z</time>
      </trkpt>
      <trkpt lat="38.12901626341044902801513671875" lon="-0.87783630006015300750732421875">
        <ele>17.799999237060546875</ele>
        <time>2019-10-25T11:50:02.000Z</time>
      </trkpt>
      <trkpt lat="38.129033111035823822021484375" lon="-0.87760747410356998443603515625">
        <ele>18.3999996185302734375</ele>
        <time>2019-10-25T11:50:08.000Z</time>
      </trkpt>
      <trkpt lat="38.12906286679208278656005859375" lon="-0.87736372835934162139892578125">
        <ele>18.799999237060546875</ele>
        <time>2019-10-25T11:50:14.000Z</time>
      </trkpt>
      <trkpt lat="38.12905934639275074005126953125" lon="-0.87712098844349384307861328125">
        <ele>19.799999237060546875</ele>
        <time>2019-10-25T11:50:19.000Z</time>
      </trkpt>
      <trkpt lat="38.12907711602747440338134765625" lon="-0.876862071454524993896484375">
        <ele>19.200000762939453125</ele>
        <time>2019-10-25T11:50:24.000Z</time>
      </trkpt>
      <trkpt lat="38.12909857369959354400634765625" lon="-0.87661019526422023773193359375">
        <ele>18.200000762939453125</ele>
        <time>2019-10-25T11:50:29.000Z</time>
      </trkpt>
      <trkpt lat="38.12912589870393276214599609375" lon="-0.87634163908660411834716796875">
        <ele>17</ele>
        <time>2019-10-25T11:50:34.000Z</time>
      </trkpt>
      <trkpt lat="38.129149787127971649169921875" lon="-0.8762495219707489013671875">
        <ele>16.200000762939453125</ele>
        <time>2019-10-25T11:50:36.000Z</time>
      </trkpt>
      <trkpt lat="38.12914551235735416412353515625" lon="-0.87598809041082859039306640625">
        <ele>15.3999996185302734375</ele>
        <time>2019-10-25T11:50:41.000Z</time>
      </trkpt>
      <trkpt lat="38.1290634535253047943115234375" lon="-0.87571249343454837799072265625">
        <ele>13.3999996185302734375</ele>
        <time>2019-10-25T11:50:46.000Z</time>
      </trkpt>
      <trkpt lat="38.1289477832615375518798828125" lon="-0.87551484815776348114013671875">
        <ele>13.3999996185302734375</ele>
        <time>2019-10-25T11:50:50.000Z</time>
      </trkpt>
      <trkpt lat="38.12890327535569667816162109375" lon="-0.875425077974796295166015625">
        <ele>13.3999996185302734375</ele>
        <time>2019-10-25T11:50:52.000Z</time>
      </trkpt>
      <trkpt lat="38.12877352349460124969482421875" lon="-0.8752716891467571258544921875">
        <ele>13.6000003814697265625</ele>
        <time>2019-10-25T11:50:56.000Z</time>
      </trkpt>
      <trkpt lat="38.12863522209227085113525390625" lon="-0.875112600624561309814453125">
        <ele>14</ele>
        <time>2019-10-25T11:51:00.000Z</time>
      </trkpt>
      <trkpt lat="38.12850111164152622222900390625" lon="-0.87494253180921077728271484375">
        <ele>15</ele>
        <time>2019-10-25T11:51:04.000Z</time>
      </trkpt>
      <trkpt lat="38.12837219797074794769287109375" lon="-0.87476558983325958251953125">
        <ele>15.19999980926513671875</ele>
        <time>2019-10-25T11:51:08.000Z</time>
      </trkpt>
      <trkpt lat="38.12823439948260784149169921875" lon="-0.8746155537664890289306640625">
        <ele>15.80000019073486328125</ele>
        <time>2019-10-25T11:51:12.000Z</time>
      </trkpt>
      <trkpt lat="38.12820120714604854583740234375" lon="-0.874583534896373748779296875">
        <ele>16</ele>
        <time>2019-10-25T11:51:13.000Z</time>
      </trkpt>
      <trkpt lat="38.12805376946926116943359375" lon="-0.8744036592543125152587890625">
        <ele>15</ele>
        <time>2019-10-25T11:51:18.000Z</time>
      </trkpt>
      <trkpt lat="38.1279094330966472625732421875" lon="-0.874234847724437713623046875">
        <ele>12</ele>
        <time>2019-10-25T11:51:23.000Z</time>
      </trkpt>
      <trkpt lat="38.12776903621852397918701171875" lon="-0.87407718412578105926513671875">
        <ele>10.80000019073486328125</ele>
        <time>2019-10-25T11:51:28.000Z</time>
      </trkpt>
      <trkpt lat="38.12769058160483837127685546875" lon="-0.87398045696318149566650390625">
        <ele>9</ele>
        <time>2019-10-25T11:51:31.000Z</time>
      </trkpt>
      <trkpt lat="38.127533756196498870849609375" lon="-0.8737994916737079620361328125">
        <ele>11.19999980926513671875</ele>
        <time>2019-10-25T11:51:38.000Z</time>
      </trkpt>
      <trkpt lat="38.12737693078815937042236328125" lon="-0.87361685000360012054443359375">
        <ele>11.80000019073486328125</ele>
        <time>2019-10-25T11:51:44.000Z</time>
      </trkpt>
      <trkpt lat="38.1272150762379169464111328125" lon="-0.87347318418323993682861328125">
        <ele>13.6000003814697265625</ele>
        <time>2019-10-25T11:51:51.000Z</time>
      </trkpt>
      <trkpt lat="38.127052299678325653076171875" lon="-0.87361223995685577392578125">
        <ele>13.6000003814697265625</ele>
        <time>2019-10-25T11:51:58.000Z</time>
      </trkpt>
      <trkpt lat="38.12703478150069713592529296875" lon="-0.8736450970172882080078125">
        <ele>13.6000003814697265625</ele>
        <time>2019-10-25T11:52:02.000Z</time>
      </trkpt>
      <trkpt lat="38.12688793055713176727294921875" lon="-0.873652808368206024169921875">
        <ele>14</ele>
        <time>2019-10-25T11:53:12.000Z</time>
      </trkpt>
      <trkpt lat="38.12681199051439762115478515625" lon="-0.87361626327037811279296875">
        <ele>14</ele>
        <time>2019-10-25T11:53:14.000Z</time>
      </trkpt>
      <trkpt lat="38.12663094140589237213134765625" lon="-0.87353806011378765106201171875">
        <ele>14.3999996185302734375</ele>
        <time>2019-10-25T11:53:19.000Z</time>
      </trkpt>
      <trkpt lat="38.12647000886499881744384765625" lon="-0.87367669679224491119384765625">
        <ele>15.19999980926513671875</ele>
        <time>2019-10-25T11:53:24.000Z</time>
      </trkpt>
      <trkpt lat="38.12639239244163036346435546875" lon="-0.87381474673748016357421875">
        <ele>15.80000019073486328125</ele>
        <time>2019-10-25T11:53:27.000Z</time>
      </trkpt>
      <trkpt lat="38.1263042986392974853515625" lon="-0.87403326295316219329833984375">
        <ele>17.200000762939453125</ele>
        <time>2019-10-25T11:53:33.000Z</time>
      </trkpt>
      <trkpt lat="38.12630438245832920074462890625" lon="-0.87404617108404636383056640625">
        <ele>17.200000762939453125</ele>
        <time>2019-10-25T11:53:34.000Z</time>
      </trkpt>
      <trkpt lat="38.1261586211621761322021484375" lon="-0.87421330623328685760498046875">
        <ele>19</ele>
        <time>2019-10-25T11:53:41.000Z</time>
      </trkpt>
      <trkpt lat="38.1259665079414844512939453125" lon="-0.87429360486567020416259765625">
        <ele>20</ele>
        <time>2019-10-25T11:53:46.000Z</time>
      </trkpt>
      <trkpt lat="38.12573374249041080474853515625" lon="-0.87430433370172977447509765625">
        <ele>19.200000762939453125</ele>
        <time>2019-10-25T11:53:49.000Z</time>
      </trkpt>
      <trkpt lat="38.12554950825870037078857421875" lon="-0.87436401285231113433837890625">
        <ele>17.799999237060546875</ele>
        <time>2019-10-25T11:53:53.000Z</time>
      </trkpt>
      <trkpt lat="38.12535001896321773529052734375" lon="-0.87443458847701549530029296875">
        <ele>17.6000003814697265625</ele>
        <time>2019-10-25T11:53:58.000Z</time>
      </trkpt>
      <trkpt lat="38.12527156434953212738037109375" lon="-0.87446727789938449859619140625">
        <ele>18</ele>
        <time>2019-10-25T11:54:00.000Z</time>
      </trkpt>
      <trkpt lat="38.12509420327842235565185546875" lon="-0.87453064508736133575439453125">
        <ele>19.200000762939453125</ele>
        <time>2019-10-25T11:54:05.000Z</time>
      </trkpt>
      <trkpt lat="38.12491114251315593719482421875" lon="-0.8746343292295932769775390625">
        <ele>20.200000762939453125</ele>
        <time>2019-10-25T11:54:11.000Z</time>
      </trkpt>
      <trkpt lat="38.1247196160256862640380859375" lon="-0.8746933378279209136962890625">
        <ele>20.6000003814697265625</ele>
        <time>2019-10-25T11:54:17.000Z</time>
      </trkpt>
      <trkpt lat="38.12458005733788013458251953125" lon="-0.87466542609035968780517578125">
        <ele>21</ele>
        <time>2019-10-25T11:54:25.000Z</time>
      </trkpt>
      <trkpt lat="38.12450529076159000396728515625" lon="-0.87442017160356044769287109375">
        <ele>20</ele>
        <time>2019-10-25T11:54:31.000Z</time>
      </trkpt>
      <trkpt lat="38.12442281283438205718994140625" lon="-0.87416737340390682220458984375">
        <ele>20</ele>
        <time>2019-10-25T11:54:36.000Z</time>
      </trkpt>
      <trkpt lat="38.12434695661067962646484375" lon="-0.8739034272730350494384765625">
        <ele>20</ele>
        <time>2019-10-25T11:54:41.000Z</time>
      </trkpt>
      <trkpt lat="38.12425148673355579376220703125" lon="-0.87368055246770381927490234375">
        <ele>20.200000762939453125</ele>
        <time>2019-10-25T11:54:45.000Z</time>
      </trkpt>
      <trkpt lat="38.12414570711553096771240234375" lon="-0.873455666005611419677734375">
        <ele>19.799999237060546875</ele>
        <time>2019-10-25T11:54:49.000Z</time>
      </trkpt>
      <trkpt lat="38.12408200465142726898193359375" lon="-0.87329079397022724151611328125">
        <ele>19</ele>
        <time>2019-10-25T11:54:53.000Z</time>
      </trkpt>
      <trkpt lat="38.12396851368248462677001953125" lon="-0.87306967936456203460693359375">
        <ele>18</ele>
        <time>2019-10-25T11:55:00.000Z</time>
      </trkpt>
      <trkpt lat="38.12379383482038974761962890625" lon="-0.87292299605906009674072265625">
        <ele>18.200000762939453125</ele>
        <time>2019-10-25T11:55:07.000Z</time>
      </trkpt>
      <trkpt lat="38.12364329583942890167236328125" lon="-0.87279978208243846893310546875">
        <ele>18</ele>
        <time>2019-10-25T11:55:16.000Z</time>
      </trkpt>
      <trkpt lat="38.12346710823476314544677734375" lon="-0.87279894389212131500244140625">
        <ele>17.6000003814697265625</ele>
        <time>2019-10-25T11:55:25.000Z</time>
      </trkpt>
      <trkpt lat="38.1232967041432857513427734375" lon="-0.87291226722300052642822265625">
        <ele>17.3999996185302734375</ele>
        <time>2019-10-25T11:55:31.000Z</time>
      </trkpt>
      <trkpt lat="38.12312898226082324981689453125" lon="-0.87303766049444675445556640625">
        <ele>17.200000762939453125</ele>
        <time>2019-10-25T11:55:37.000Z</time>
      </trkpt>
      <trkpt lat="38.1229651160538196563720703125" lon="-0.87315182201564311981201171875">
        <ele>17</ele>
        <time>2019-10-25T11:55:43.000Z</time>
      </trkpt>
      <trkpt lat="38.1228715740144252777099609375" lon="-0.87336279451847076416015625">
        <ele>17.3999996185302734375</ele>
        <time>2019-10-25T11:55:49.000Z</time>
      </trkpt>
      <trkpt lat="38.122864030301570892333984375" lon="-0.8735554106533527374267578125">
        <ele>18.200000762939453125</ele>
        <time>2019-10-25T11:55:53.000Z</time>
      </trkpt>
      <trkpt lat="38.12286310829222202301025390625" lon="-0.87380963377654552459716796875">
        <ele>19</ele>
        <time>2019-10-25T11:55:59.000Z</time>
      </trkpt>
      <trkpt lat="38.12276118434965610504150390625" lon="-0.87401012890040874481201171875">
        <ele>19</ele>
        <time>2019-10-25T11:56:04.000Z</time>
      </trkpt>
      <trkpt lat="38.12260008417069911956787109375" lon="-0.87412479333579540252685546875">
        <ele>19.200000762939453125</ele>
        <time>2019-10-25T11:56:08.000Z</time>
      </trkpt>
      <trkpt lat="38.12243797816336154937744140625" lon="-0.8742407150566577911376953125">
        <ele>19</ele>
        <time>2019-10-25T11:56:12.000Z</time>
      </trkpt>
      <trkpt lat="38.12227687798440456390380859375" lon="-0.87434708140790462493896484375">
        <ele>17.6000003814697265625</ele>
        <time>2019-10-25T11:56:16.000Z</time>
      </trkpt>
      <trkpt lat="38.1220913864672183990478515625" lon="-0.8744972012937068939208984375">
        <ele>15.19999980926513671875</ele>
        <time>2019-10-25T11:56:21.000Z</time>
      </trkpt>
      <trkpt lat="38.1219032965600490570068359375" lon="-0.8746195770800113677978515625">
        <ele>14</ele>
        <time>2019-10-25T11:56:26.000Z</time>
      </trkpt>
      <trkpt lat="38.12172333709895610809326171875" lon="-0.8747483231127262115478515625">
        <ele>14</ele>
        <time>2019-10-25T11:56:31.000Z</time>
      </trkpt>
      <trkpt lat="38.121559806168079376220703125" lon="-0.874860472977161407470703125">
        <ele>14.19999980926513671875</ele>
        <time>2019-10-25T11:56:36.000Z</time>
      </trkpt>
      <trkpt lat="38.1214178167283535003662109375" lon="-0.8750130236148834228515625">
        <ele>15.3999996185302734375</ele>
        <time>2019-10-25T11:56:42.000Z</time>
      </trkpt>
      <trkpt lat="38.12125931493937969207763671875" lon="-0.8751498162746429443359375">
        <ele>16</ele>
        <time>2019-10-25T11:56:49.000Z</time>
      </trkpt>
      <trkpt lat="38.1210969574749469757080078125" lon="-0.87526045739650726318359375">
        <ele>15.3999996185302734375</ele>
        <time>2019-10-25T11:56:54.000Z</time>
      </trkpt>
      <trkpt lat="38.1209211051464080810546875" lon="-0.87538995780050754547119140625">
        <ele>14.6000003814697265625</ele>
        <time>2019-10-25T11:56:59.000Z</time>
      </trkpt>
      <trkpt lat="38.12073402106761932373046875" lon="-0.87553714402019977569580078125">
        <ele>14</ele>
        <time>2019-10-25T11:57:04.000Z</time>
      </trkpt>
      <trkpt lat="38.12055104412138462066650390625" lon="-0.87567393667995929718017578125">
        <ele>14.80000019073486328125</ele>
        <time>2019-10-25T11:57:09.000Z</time>
      </trkpt>
      <trkpt lat="38.12038122676312923431396484375" lon="-0.8758077956736087799072265625">
        <ele>16</ele>
        <time>2019-10-25T11:57:14.000Z</time>
      </trkpt>
      <trkpt lat="38.1202188692986965179443359375" lon="-0.87593059055507183074951171875">
        <ele>17</ele>
        <time>2019-10-25T11:57:19.000Z</time>
      </trkpt>
      <trkpt lat="38.12003924511373043060302734375" lon="-0.8760602585971355438232421875">
        <ele>17</ele>
        <time>2019-10-25T11:57:24.000Z</time>
      </trkpt>
      <trkpt lat="38.11985417269170284271240234375" lon="-0.8761905133724212646484375">
        <ele>16.6000003814697265625</ele>
        <time>2019-10-25T11:57:29.000Z</time>
      </trkpt>
      <trkpt lat="38.1196757219731807708740234375" lon="-0.8763415552675724029541015625">
        <ele>15.3999996185302734375</ele>
        <time>2019-10-25T11:57:34.000Z</time>
      </trkpt>
      <trkpt lat="38.11949274502694606781005859375" lon="-0.87648882530629634857177734375">
        <ele>14.6000003814697265625</ele>
        <time>2019-10-25T11:57:39.000Z</time>
      </trkpt>
      <trkpt lat="38.11933114193379878997802734375" lon="-0.87664925493299961090087890625">
        <ele>14.6000003814697265625</ele>
        <time>2019-10-25T11:57:44.000Z</time>
      </trkpt>
      <trkpt lat="38.11917833983898162841796875" lon="-0.87680918164551258087158203125">
        <ele>16.200000762939453125</ele>
        <time>2019-10-25T11:57:49.000Z</time>
      </trkpt>
      <trkpt lat="38.11903618276119232177734375" lon="-0.87695703841745853424072265625">
        <ele>17.799999237060546875</ele>
        <time>2019-10-25T11:57:54.000Z</time>
      </trkpt>
      <trkpt lat="38.11887047253549098968505859375" lon="-0.8771090023219585418701171875">
        <ele>19.200000762939453125</ele>
        <time>2019-10-25T11:58:00.000Z</time>
      </trkpt>
      <trkpt lat="38.1188371963798999786376953125" lon="-0.8771090023219585418701171875">
        <ele>19.3999996185302734375</ele>
        <time>2019-10-25T11:58:01.000Z</time>
      </trkpt>
      <trkpt lat="38.1186963804066181182861328125" lon="-0.87691194377839565277099609375">
        <ele>19.200000762939453125</ele>
        <time>2019-10-25T11:58:07.000Z</time>
      </trkpt>
      <trkpt lat="38.1185401417315006256103515625" lon="-0.8767210878431797027587890625">
        <ele>18.6000003814697265625</ele>
        <time>2019-10-25T11:58:12.000Z</time>
      </trkpt>
      <trkpt lat="38.1183971464633941650390625" lon="-0.87655185721814632415771484375">
        <ele>18</ele>
        <time>2019-10-25T11:58:16.000Z</time>
      </trkpt>
      <trkpt lat="38.118259347975254058837890625" lon="-0.87637550197541713714599609375">
        <ele>17.200000762939453125</ele>
        <time>2019-10-25T11:58:20.000Z</time>
      </trkpt>
      <trkpt lat="38.1181150116026401519775390625" lon="-0.8761953748762607574462890625">
        <ele>15.19999980926513671875</ele>
        <time>2019-10-25T11:58:24.000Z</time>
      </trkpt>
      <trkpt lat="38.11803965829312801361083984375" lon="-0.87610644288361072540283203125">
        <ele>14.6000003814697265625</ele>
        <time>2019-10-25T11:58:26.000Z</time>
      </trkpt>
      <trkpt lat="38.11789398081600666046142578125" lon="-0.8759435825049877166748046875">
        <ele>13</ele>
        <time>2019-10-25T11:58:30.000Z</time>
      </trkpt>
      <trkpt lat="38.1177829205989837646484375" lon="-0.87583704851567745208740234375">
        <ele>14</ele>
        <time>2019-10-25T11:58:33.000Z</time>
      </trkpt>
      <trkpt lat="38.1176003627479076385498046875" lon="-0.87577653117477893829345703125">
        <ele>14.19999980926513671875</ele>
        <time>2019-10-25T11:58:37.000Z</time>
      </trkpt>
      <trkpt lat="38.11755199916660785675048828125" lon="-0.87577250786125659942626953125">
        <ele>14.19999980926513671875</ele>
        <time>2019-10-25T11:58:38.000Z</time>
      </trkpt>
      <trkpt lat="38.11745795421302318572998046875" lon="-0.87577317841351032257080078125">
        <ele>14.19999980926513671875</ele>
        <time>2019-10-25T11:58:40.000Z</time>
      </trkpt>
      <trkpt lat="38.11727941967546939849853515625" lon="-0.8758450113236904144287109375">
        <ele>14</ele>
        <time>2019-10-25T11:58:44.000Z</time>
      </trkpt>
      <trkpt lat="38.11712301336228847503662109375" lon="-0.87596160359680652618408203125">
        <ele>14</ele>
        <time>2019-10-25T11:58:48.000Z</time>
      </trkpt>
      <trkpt lat="38.11693123541772365570068359375" lon="-0.87611231021583080291748046875">
        <ele>16</ele>
        <time>2019-10-25T11:58:53.000Z</time>
      </trkpt>
      <trkpt lat="38.11676963232457637786865234375" lon="-0.87623552419245243072509765625">
        <ele>17.200000762939453125</ele>
        <time>2019-10-25T11:58:57.000Z</time>
      </trkpt>
      <trkpt lat="38.11658154241740703582763671875" lon="-0.87638287805020809173583984375">
        <ele>18</ele>
        <time>2019-10-25T11:59:02.000Z</time>
      </trkpt>
      <trkpt lat="38.11641390435397624969482421875" lon="-0.87654054164886474609375">
        <ele>17.3999996185302734375</ele>
        <time>2019-10-25T11:59:07.000Z</time>
      </trkpt>
      <trkpt lat="38.11629488132894039154052734375" lon="-0.87669619359076023101806640625">
        <ele>16.3999996185302734375</ele>
        <time>2019-10-25T11:59:12.000Z</time>
      </trkpt>
      <trkpt lat="38.1162354536354541778564453125" lon="-0.876918733119964599609375">
        <ele>15.6000003814697265625</ele>
        <time>2019-10-25T11:59:17.000Z</time>
      </trkpt>
      <trkpt lat="38.116107545793056488037109375" lon="-0.877111516892910003662109375">
        <ele>15.3999996185302734375</ele>
        <time>2019-10-25T11:59:21.000Z</time>
      </trkpt>
      <trkpt lat="38.11590461991727352142333984375" lon="-0.87714965455234050750732421875">
        <ele>16</ele>
        <time>2019-10-25T11:59:25.000Z</time>
      </trkpt>
      <trkpt lat="38.11576061882078647613525390625" lon="-0.87708301842212677001953125">
        <ele>16</ele>
        <time>2019-10-25T11:59:28.000Z</time>
      </trkpt>
      <trkpt lat="38.11571426689624786376953125" lon="-0.8770716190338134765625">
        <ele>16</ele>
        <time>2019-10-25T11:59:29.000Z</time>
      </trkpt>
      <trkpt lat="38.1155353970825672149658203125" lon="-0.8771733753383159637451171875">
        <ele>16</ele>
        <time>2019-10-25T11:59:33.000Z</time>
      </trkpt>
      <trkpt lat="38.1153949163854122161865234375" lon="-0.877332128584384918212890625">
        <ele>15.80000019073486328125</ele>
        <time>2019-10-25T11:59:36.000Z</time>
      </trkpt>
      <trkpt lat="38.11525569297373294830322265625" lon="-0.8775123395025730133056640625">
        <ele>15.3999996185302734375</ele>
        <time>2019-10-25T11:59:39.000Z</time>
      </trkpt>
      <trkpt lat="38.11513214372098445892333984375" lon="-0.87770788930356502532958984375">
        <ele>14.3999996185302734375</ele>
        <time>2019-10-25T11:59:42.000Z</time>
      </trkpt>
      <trkpt lat="38.11500825919210910797119140625" lon="-0.87795968167483806610107421875">
        <ele>13.19999980926513671875</ele>
        <time>2019-10-25T11:59:46.000Z</time>
      </trkpt>
      <trkpt lat="38.11490549705922603607177734375" lon="-0.87820460088551044464111328125">
        <ele>13.19999980926513671875</ele>
        <time>2019-10-25T11:59:50.000Z</time>
      </trkpt>
      <trkpt lat="38.1148078478872776031494140625" lon="-0.878435857594013214111328125">
        <ele>14.19999980926513671875</ele>
        <time>2019-10-25T11:59:54.000Z</time>
      </trkpt>
      <trkpt lat="38.114732913672924041748046875" lon="-0.87867566384375095367431640625">
        <ele>15.3999996185302734375</ele>
        <time>2019-10-25T11:59:58.000Z</time>
      </trkpt>
      <trkpt lat="38.1146851368248462677001953125" lon="-0.87878949008882045745849609375">
        <ele>16.200000762939453125</ele>
        <time>2019-10-25T12:00:00.000Z</time>
      </trkpt>
      <trkpt lat="38.1145003996789455413818359375" lon="-0.8788044936954975128173828125">
        <ele>16.3999996185302734375</ele>
        <time>2019-10-25T12:00:04.000Z</time>
      </trkpt>
      <trkpt lat="38.11431549489498138427734375" lon="-0.87878144346177577972412109375">
        <ele>16</ele>
        <time>2019-10-25T12:00:08.000Z</time>
      </trkpt>
      <trkpt lat="38.11424466781318187713623046875" lon="-0.87879586033523082733154296875">
        <ele>15.3999996185302734375</ele>
        <time>2019-10-25T12:00:10.000Z</time>
      </trkpt>
      <trkpt lat="38.1142289936542510986328125" lon="-0.87900574319064617156982421875">
        <ele>15.80000019073486328125</ele>
        <time>2019-10-25T12:00:15.000Z</time>
      </trkpt>
      <trkpt lat="38.11425388790667057037353515625" lon="-0.87921881116926670074462890625">
        <ele>15.3999996185302734375</ele>
        <time>2019-10-25T12:00:19.000Z</time>
      </trkpt>
      <trkpt lat="38.1142851524055004119873046875" lon="-0.879434645175933837890625">
        <ele>16.3999996185302734375</ele>
        <time>2019-10-25T12:00:23.000Z</time>
      </trkpt>
      <trkpt lat="38.11431356705725193023681640625" lon="-0.87969641201198101043701171875">
        <ele>18.200000762939453125</ele>
        <time>2019-10-25T12:00:28.000Z</time>
      </trkpt>
      <trkpt lat="38.11435061506927013397216796875" lon="-0.87997016496956348419189453125">
        <ele>19</ele>
        <time>2019-10-25T12:00:33.000Z</time>
      </trkpt>
      <trkpt lat="38.11437492258846759796142578125" lon="-0.88019848801195621490478515625">
        <ele>19.200000762939453125</ele>
        <time>2019-10-25T12:00:37.000Z</time>
      </trkpt>
      <trkpt lat="38.11440224759280681610107421875" lon="-0.880428738892078399658203125">
        <ele>19.3999996185302734375</ele>
        <time>2019-10-25T12:00:41.000Z</time>
      </trkpt>
      <trkpt lat="38.11442554928362369537353515625" lon="-0.8806005679070949554443359375">
        <ele>20</ele>
        <time>2019-10-25T12:00:44.000Z</time>
      </trkpt>
      <trkpt lat="38.1144796125590801239013671875" lon="-0.8808389492332935333251953125">
        <ele>18.6000003814697265625</ele>
        <time>2019-10-25T12:00:48.000Z</time>
      </trkpt>
      <trkpt lat="38.1145205162465572357177734375" lon="-0.881088562309741973876953125">
        <ele>17.799999237060546875</ele>
        <time>2019-10-25T12:00:52.000Z</time>
      </trkpt>
      <trkpt lat="38.11452780850231647491455078125" lon="-0.88114933110773563385009765625">
        <ele>17.6000003814697265625</ele>
        <time>2019-10-25T12:00:53.000Z</time>
      </trkpt>
      <trkpt lat="38.11455245129764080047607421875" lon="-0.88137698359787464141845703125">
        <ele>17.799999237060546875</ele>
        <time>2019-10-25T12:00:57.000Z</time>
      </trkpt>
      <trkpt lat="38.11457390896975994110107421875" lon="-0.8815829269587993621826171875">
        <ele>18.200000762939453125</ele>
        <time>2019-10-25T12:01:01.000Z</time>
      </trkpt>
      <trkpt lat="38.11458899639546871185302734375" lon="-0.8816890418529510498046875">
        <ele>17.6000003814697265625</ele>
        <time>2019-10-25T12:01:03.000Z</time>
      </trkpt>
      <trkpt lat="38.11460525728762149810791015625" lon="-0.88192063383758068084716796875">
        <ele>15.80000019073486328125</ele>
        <time>2019-10-25T12:01:07.000Z</time>
      </trkpt>
      <trkpt lat="38.11461699195206165313720703125" lon="-0.88214032351970672607421875">
        <ele>14.3999996185302734375</ele>
        <time>2019-10-25T12:01:11.000Z</time>
      </trkpt>
      <trkpt lat="38.11448891647160053253173828125" lon="-0.88235062547028064727783203125">
        <ele>13</ele>
        <time>2019-10-25T12:01:16.000Z</time>
      </trkpt>
      <trkpt lat="38.114286325871944427490234375" lon="-0.8822883479297161102294921875">
        <ele>13.19999980926513671875</ele>
        <time>2019-10-25T12:01:21.000Z</time>
      </trkpt>
      <trkpt lat="38.114235363900661468505859375" lon="-0.88219488970935344696044921875">
        <ele>13.3999996185302734375</ele>
        <time>2019-10-25T12:01:23.000Z</time>
      </trkpt>
      <trkpt lat="38.11418264172971248626708984375" lon="-0.88212179951369762420654296875">
        <ele>14</ele>
        <time>2019-10-25T12:01:25.000Z</time>
      </trkpt>
      <trkpt lat="38.11406194232404232025146484375" lon="-0.88213403709232807159423828125">
        <ele>14.3999996185302734375</ele>
        <time>2019-10-25T12:01:29.000Z</time>
      </trkpt>
      <trkpt lat="38.11400595121085643768310546875" lon="-0.88214300572872161865234375">
        <ele>14.6000003814697265625</ele>
        <time>2019-10-25T12:01:31.000Z</time>
      </trkpt>
      <trkpt lat="38.113914839923381805419921875" lon="-0.88217695243656635284423828125">
        <ele>14.6000003814697265625</ele>
        <time>2019-10-25T12:01:35.000Z</time>
      </trkpt>
      <trkpt lat="38.11391928233206272125244140625" lon="-0.88233587332069873809814453125">
        <ele>13.6000003814697265625</ele>
        <time>2019-10-25T12:01:42.000Z</time>
      </trkpt>
      <trkpt lat="38.11399069614708423614501953125" lon="-0.882547013461589813232421875">
        <ele>13.3999996185302734375</ele>
        <time>2019-10-25T12:01:47.000Z</time>
      </trkpt>
      <trkpt lat="38.11407677829265594482421875" lon="-0.88277290575206279754638671875">
        <ele>14.80000019073486328125</ele>
        <time>2019-10-25T12:01:52.000Z</time>
      </trkpt>
      <trkpt lat="38.114179708063602447509765625" lon="-0.8829443156719207763671875">
        <ele>16.200000762939453125</ele>
        <time>2019-10-25T12:01:56.000Z</time>
      </trkpt>
      <trkpt lat="38.11411223374307155609130859375" lon="-0.8832103572785854339599609375">
        <ele>16.799999237060546875</ele>
        <time>2019-10-25T12:02:01.000Z</time>
      </trkpt>
      <trkpt lat="38.114054314792156219482421875" lon="-0.883433818817138671875">
        <ele>16</ele>
        <time>2019-10-25T12:02:05.000Z</time>
      </trkpt>
      <trkpt lat="38.11397845856845378875732421875" lon="-0.88365375995635986328125">
        <ele>16.200000762939453125</ele>
        <time>2019-10-25T12:02:09.000Z</time>
      </trkpt>
      <trkpt lat="38.11387318186461925506591796875" lon="-0.8838507346808910369873046875">
        <ele>16.200000762939453125</ele>
        <time>2019-10-25T12:02:13.000Z</time>
      </trkpt>
      <trkpt lat="38.11376103200018405914306640625" lon="-0.884047038853168487548828125">
        <ele>15.6000003814697265625</ele>
        <time>2019-10-25T12:02:17.000Z</time>
      </trkpt>
      <trkpt lat="38.11365567147731781005859375" lon="-0.8842537365853786468505859375">
        <ele>14.19999980926513671875</ele>
        <time>2019-10-25T12:02:21.000Z</time>
      </trkpt>
      <trkpt lat="38.11363463290035724639892578125" lon="-0.8843090571463108062744140625">
        <ele>14.19999980926513671875</ele>
        <time>2019-10-25T12:02:22.000Z</time>
      </trkpt>
      <trkpt lat="38.11360060237348079681396484375" lon="-0.88443185202777385711669921875">
        <ele>14.80000019073486328125</ele>
        <time>2019-10-25T12:02:24.000Z</time>
      </trkpt>
      <trkpt lat="38.1135664880275726318359375" lon="-0.88469504378736019134521484375">
        <ele>16.200000762939453125</ele>
        <time>2019-10-25T12:02:28.000Z</time>
      </trkpt>
      <trkpt lat="38.1135562621057033538818359375" lon="-0.8848218619823455810546875">
        <ele>17</ele>
        <time>2019-10-25T12:02:30.000Z</time>
      </trkpt>
      <trkpt lat="38.113551400601863861083984375" lon="-0.88494725525379180908203125">
        <ele>16.6000003814697265625</ele>
        <time>2019-10-25T12:02:32.000Z</time>
      </trkpt>
      <trkpt lat="38.11350303702056407928466796875" lon="-0.8851884864270687103271484375">
        <ele>16</ele>
        <time>2019-10-25T12:02:36.000Z</time>
      </trkpt>
      <trkpt lat="38.11340781860053539276123046875" lon="-0.8853997103869915008544921875">
        <ele>16.200000762939453125</ele>
        <time>2019-10-25T12:02:40.000Z</time>
      </trkpt>
      <trkpt lat="38.11334730125963687896728515625" lon="-0.88549652136862277984619140625">
        <ele>16.799999237060546875</ele>
        <time>2019-10-25T12:02:42.000Z</time>
      </trkpt>
      <trkpt lat="38.113260380923748016357421875" lon="-0.88563616387546062469482421875">
        <ele>17.799999237060546875</ele>
        <time>2019-10-25T12:02:45.000Z</time>
      </trkpt>
      <trkpt lat="38.11315502040088176727294921875" lon="-0.8858048915863037109375">
        <ele>19</ele>
        <time>2019-10-25T12:02:49.000Z</time>
      </trkpt>
      <trkpt lat="38.1131009571254253387451171875" lon="-0.8858962543308734893798828125">
        <ele>19.6000003814697265625</ele>
        <time>2019-10-25T12:02:51.000Z</time>
      </trkpt>
      <trkpt lat="38.11296324245631694793701171875" lon="-0.88610806502401828765869140625">
        <ele>19.799999237060546875</ele>
        <time>2019-10-25T12:02:56.000Z</time>
      </trkpt>
      <trkpt lat="38.1128203310072422027587890625" lon="-0.88631677441298961639404296875">
        <ele>17.799999237060546875</ele>
        <time>2019-10-25T12:03:01.000Z</time>
      </trkpt>
      <trkpt lat="38.112752102315425872802734375" lon="-0.8864508010447025299072265625">
        <ele>16.3999996185302734375</ele>
        <time>2019-10-25T12:03:04.000Z</time>
      </trkpt>
      <trkpt lat="38.112655542790889739990234375" lon="-0.8866377174854278564453125">
        <ele>16</ele>
        <time>2019-10-25T12:03:13.000Z</time>
      </trkpt>
      <trkpt lat="38.1125333346426486968994140625" lon="-0.88679873384535312652587890625">
        <ele>16.200000762939453125</ele>
        <time>2019-10-25T12:03:49.000Z</time>
      </trkpt>
      <trkpt lat="38.11241473071277141571044921875" lon="-0.88698179461061954498291015625">
        <ele>16.6000003814697265625</ele>
        <time>2019-10-25T12:03:54.000Z</time>
      </trkpt>
      <trkpt lat="38.1122879125177860260009765625" lon="-0.88719134218990802764892578125">
        <ele>17.200000762939453125</ele>
        <time>2019-10-25T12:03:59.000Z</time>
      </trkpt>
      <trkpt lat="38.1121504493057727813720703125" lon="-0.88741312734782695770263671875">
        <ele>17.200000762939453125</ele>
        <time>2019-10-25T12:04:04.000Z</time>
      </trkpt>
      <trkpt lat="38.112017847597599029541015625" lon="-0.887635834515094757080078125">
        <ele>17.200000762939453125</ele>
        <time>2019-10-25T12:04:09.000Z</time>
      </trkpt>
      <trkpt lat="38.11188616789877414703369140625" lon="-0.88785317726433277130126953125">
        <ele>18.799999237060546875</ele>
        <time>2019-10-25T12:04:14.000Z</time>
      </trkpt>
      <trkpt lat="38.11176127754151821136474609375" lon="-0.88805333711206912994384765625">
        <ele>19</ele>
        <time>2019-10-25T12:04:19.000Z</time>
      </trkpt>
      <trkpt lat="38.11163823120296001434326171875" lon="-0.88824729435145854949951171875">
        <ele>18.6000003814697265625</ele>
        <time>2019-10-25T12:04:24.000Z</time>
      </trkpt>
      <trkpt lat="38.11148216016590595245361328125" lon="-0.88841845281422138214111328125">
        <ele>18.3999996185302734375</ele>
        <time>2019-10-25T12:04:30.000Z</time>
      </trkpt>
      <trkpt lat="38.11130228452384471893310546875" lon="-0.88847729377448558807373046875">
        <ele>18.799999237060546875</ele>
        <time>2019-10-25T12:04:35.000Z</time>
      </trkpt>
      <trkpt lat="38.11112232506275177001953125" lon="-0.88845298625528812408447265625">
        <ele>19</ele>
        <time>2019-10-25T12:04:40.000Z</time>
      </trkpt>
      <trkpt lat="38.11100271530449390411376953125" lon="-0.88841761462390422821044921875">
        <ele>19</ele>
        <time>2019-10-25T12:04:46.000Z</time>
      </trkpt>
      <trkpt lat="38.11109759844839572906494140625" lon="-0.88851316832005977630615234375">
        <ele>19</ele>
        <time>2019-10-25T12:05:43.000Z</time>
      </trkpt>
      <trkpt lat="38.1112482212483882904052734375" lon="-0.8886207081377506256103515625">
        <ele>18.3999996185302734375</ele>
        <time>2019-10-25T12:06:16.000Z</time>
      </trkpt>
      <trkpt lat="38.111419714987277984619140625" lon="-0.8887078799307346343994140625">
        <ele>17.6000003814697265625</ele>
        <time>2019-10-25T12:06:45.000Z</time>
      </trkpt>
      <trkpt lat="38.111555837094783782958984375" lon="-0.8888728357851505279541015625">
        <ele>16</ele>
        <time>2019-10-25T12:07:01.000Z</time>
      </trkpt>
      <trkpt lat="38.1116673164069652557373046875" lon="-0.889069475233554840087890625">
        <ele>15.6000003814697265625</ele>
        <time>2019-10-25T12:07:14.000Z</time>
      </trkpt>
      <trkpt lat="38.1117320246994495391845703125" lon="-0.8892832137644290924072265625">
        <ele>15.80000019073486328125</ele>
        <time>2019-10-25T12:07:28.000Z</time>
      </trkpt>
      <trkpt lat="38.11168952845036983489990234375" lon="-0.8893636800348758697509765625">
        <ele>15.3999996185302734375</ele>
        <time>2019-10-25T12:07:34.000Z</time>
      </trkpt>
      <trkpt lat="38.11165834777057170867919921875" lon="-0.88953785598278045654296875">
        <ele>15.3999996185302734375</ele>
        <time>2019-10-25T12:08:34.000Z</time>
      </trkpt>
      <trkpt lat="38.11163253150880336761474609375" lon="-0.8895961940288543701171875">
        <ele>15.19999980926513671875</ele>
        <time>2019-10-25T12:10:47.000Z</time>
      </trkpt>
      <trkpt lat="38.11163437552750110626220703125" lon="-0.889700464904308319091796875">
        <ele>15.6000003814697265625</ele>
        <time>2019-10-25T12:10:55.000Z</time>
      </trkpt>
      <trkpt lat="38.1115318648517131805419921875" lon="-0.88990221731364727020263671875">
        <ele>15.19999980926513671875</ele>
        <time>2019-10-25T12:11:03.000Z</time>
      </trkpt>
      <trkpt lat="38.11141711659729480743408203125" lon="-0.89011964388191699981689453125">
        <ele>16</ele>
        <time>2019-10-25T12:11:10.000Z</time>
      </trkpt>
      <trkpt lat="38.11131720431149005889892578125" lon="-0.89032801799476146697998046875">
        <ele>16.799999237060546875</ele>
        <time>2019-10-25T12:11:15.000Z</time>
      </trkpt>
      <trkpt lat="38.11120681464672088623046875" lon="-0.89054100215435028076171875">
        <ele>17</ele>
        <time>2019-10-25T12:11:20.000Z</time>
      </trkpt>
      <trkpt lat="38.11111754737794399261474609375" lon="-0.89070403017103672027587890625">
        <ele>16.799999237060546875</ele>
        <time>2019-10-25T12:11:24.000Z</time>
      </trkpt>
      <trkpt lat="38.11100405640900135040283203125" lon="-0.89090720750391483306884765625">
        <ele>16.200000762939453125</ele>
        <time>2019-10-25T12:11:29.000Z</time>
      </trkpt>
      <trkpt lat="38.11087380163371562957763671875" lon="-0.89111742563545703887939453125">
        <ele>16</ele>
        <time>2019-10-25T12:11:34.000Z</time>
      </trkpt>
      <trkpt lat="38.1107614003121852874755859375" lon="-0.8913310803472995758056640625">
        <ele>16.3999996185302734375</ele>
        <time>2019-10-25T12:11:39.000Z</time>
      </trkpt>
      <trkpt lat="38.11063391156494617462158203125" lon="-0.891568623483180999755859375">
        <ele>17.3999996185302734375</ele>
        <time>2019-10-25T12:11:44.000Z</time>
      </trkpt>
      <trkpt lat="38.1105221807956695556640625" lon="-0.89177724905312061309814453125">
        <ele>17.799999237060546875</ele>
        <time>2019-10-25T12:11:48.000Z</time>
      </trkpt>
      <trkpt lat="38.11041195876896381378173828125" lon="-0.8920093439519405364990234375">
        <ele>18</ele>
        <time>2019-10-25T12:11:52.000Z</time>
      </trkpt>
      <trkpt lat="38.11030684970319271087646484375" lon="-0.89222819544374942779541015625">
        <ele>18.200000762939453125</ele>
        <time>2019-10-25T12:11:56.000Z</time>
      </trkpt>
      <trkpt lat="38.11019687913358211517333984375" lon="-0.89245836250483989715576171875">
        <ele>17.6000003814697265625</ele>
        <time>2019-10-25T12:12:01.000Z</time>
      </trkpt>
      <trkpt lat="38.11015429906547069549560546875" lon="-0.892536900937557220458984375">
        <ele>17.200000762939453125</ele>
        <time>2019-10-25T12:12:03.000Z</time>
      </trkpt>
      <trkpt lat="38.110043741762638092041015625" lon="-0.892734043300151824951171875">
        <ele>14.80000019073486328125</ele>
        <time>2019-10-25T12:12:08.000Z</time>
      </trkpt>
      <trkpt lat="38.1099669635295867919921875" lon="-0.89285574853420257568359375">
        <ele>12.80000019073486328125</ele>
        <time>2019-10-25T12:12:11.000Z</time>
      </trkpt>
      <trkpt lat="38.1098618544638156890869140625" lon="-0.8930272422730922698974609375">
        <ele>12.19999980926513671875</ele>
        <time>2019-10-25T12:12:15.000Z</time>
      </trkpt>
      <trkpt lat="38.10972900129854679107666015625" lon="-0.89325606822967529296875">
        <ele>13.3999996185302734375</ele>
        <time>2019-10-25T12:12:20.000Z</time>
      </trkpt>
      <trkpt lat="38.1096073798835277557373046875" lon="-0.89348799549043178558349609375">
        <ele>15</ele>
        <time>2019-10-25T12:12:25.000Z</time>
      </trkpt>
      <trkpt lat="38.10947678983211517333984375" lon="-0.89371296577155590057373046875">
        <ele>15.3999996185302734375</ele>
        <time>2019-10-25T12:12:30.000Z</time>
      </trkpt>
      <trkpt lat="38.1093366444110870361328125" lon="-0.8939217589795589447021484375">
        <ele>16.799999237060546875</ele>
        <time>2019-10-25T12:12:35.000Z</time>
      </trkpt>
      <trkpt lat="38.10924972407519817352294921875" lon="-0.89404405094683170318603515625">
        <ele>16.799999237060546875</ele>
        <time>2019-10-25T12:12:38.000Z</time>
      </trkpt>
      <trkpt lat="38.10910354368388652801513671875" lon="-0.89424823410809040069580078125">
        <ele>17</ele>
        <time>2019-10-25T12:12:43.000Z</time>
      </trkpt>
      <trkpt lat="38.1090481393039226531982421875" lon="-0.8943361602723598480224609375">
        <ele>17.200000762939453125</ele>
        <time>2019-10-25T12:12:45.000Z</time>
      </trkpt>
      <trkpt lat="38.1089643202722072601318359375" lon="-0.894549898803234100341796875">
        <ele>17.6000003814697265625</ele>
        <time>2019-10-25T12:12:49.000Z</time>
      </trkpt>
      <trkpt lat="38.1088851951062679290771484375" lon="-0.89478769339621067047119140625">
        <ele>19</ele>
        <time>2019-10-25T12:12:53.000Z</time>
      </trkpt>
      <trkpt lat="38.10879777185618877410888671875" lon="-0.89502708055078983306884765625">
        <ele>19</ele>
        <time>2019-10-25T12:12:57.000Z</time>
      </trkpt>
      <trkpt lat="38.1087064929306507110595703125" lon="-0.89526864700019359588623046875">
        <ele>19.3999996185302734375</ele>
        <time>2019-10-25T12:13:01.000Z</time>
      </trkpt>
      <trkpt lat="38.1086070835590362548828125" lon="-0.89550686068832874298095703125">
        <ele>19.3999996185302734375</ele>
        <time>2019-10-25T12:13:05.000Z</time>
      </trkpt>
      <trkpt lat="38.10850691981613636016845703125" lon="-0.8957262150943279266357421875">
        <ele>18.6000003814697265625</ele>
        <time>2019-10-25T12:13:09.000Z</time>
      </trkpt>
      <trkpt lat="38.1083858013153076171875" lon="-0.8959538675844669342041015625">
        <ele>17</ele>
        <time>2019-10-25T12:13:14.000Z</time>
      </trkpt>
      <trkpt lat="38.10829603113234043121337890625" lon="-0.89616299606859683990478515625">
        <ele>15.3999996185302734375</ele>
        <time>2019-10-25T12:13:19.000Z</time>
      </trkpt>
      <trkpt lat="38.1082860566675662994384765625" lon="-0.89620004408061504364013671875">
        <ele>15.19999980926513671875</ele>
        <time>2019-10-25T12:13:20.000Z</time>
      </trkpt>
      <trkpt lat="38.10822629369795322418212890625" lon="-0.896463654935359954833984375">
        <ele>14.19999980926513671875</ele>
        <time>2019-10-25T12:13:26.000Z</time>
      </trkpt>
      <trkpt lat="38.108162172138690948486328125" lon="-0.89672743342816829681396484375">
        <ele>15.80000019073486328125</ele>
        <time>2019-10-25T12:13:31.000Z</time>
      </trkpt>
      <trkpt lat="38.10809939168393611907958984375" lon="-0.89696983806788921356201171875">
        <ele>18.799999237060546875</ele>
        <time>2019-10-25T12:13:36.000Z</time>
      </trkpt>
      <trkpt lat="38.108044825494289398193359375" lon="-0.897209979593753814697265625">
        <ele>20.3999996185302734375</ele>
        <time>2019-10-25T12:13:41.000Z</time>
      </trkpt>
      <trkpt lat="38.10797332786023616790771484375" lon="-0.89745867066085338592529296875">
        <ele>21.200000762939453125</ele>
        <time>2019-10-25T12:13:46.000Z</time>
      </trkpt>
      <trkpt lat="38.10788330622017383575439453125" lon="-0.8977154083549976348876953125">
        <ele>20.200000762939453125</ele>
        <time>2019-10-25T12:13:51.000Z</time>
      </trkpt>
      <trkpt lat="38.1077787838876247406005859375" lon="-0.897904336452484130859375">
        <ele>19</ele>
        <time>2019-10-25T12:13:55.000Z</time>
      </trkpt>
      <trkpt lat="38.1076584197580814361572265625" lon="-0.89808739721775054931640625">
        <ele>19</ele>
        <time>2019-10-25T12:13:59.000Z</time>
      </trkpt>
      <trkpt lat="38.10753847472369670867919921875" lon="-0.8982635848224163055419921875">
        <ele>18.6000003814697265625</ele>
        <time>2019-10-25T12:14:03.000Z</time>
      </trkpt>
      <trkpt lat="38.10741551220417022705078125" lon="-0.8984389342367649078369140625">
        <ele>18</ele>
        <time>2019-10-25T12:14:07.000Z</time>
      </trkpt>
      <trkpt lat="38.10730109922587871551513671875" lon="-0.89863196946680545806884765625">
        <ele>18</ele>
        <time>2019-10-25T12:14:11.000Z</time>
      </trkpt>
      <trkpt lat="38.1071860156953334808349609375" lon="-0.8988238312304019927978515625">
        <ele>18</ele>
        <time>2019-10-25T12:14:15.000Z</time>
      </trkpt>
      <trkpt lat="38.10710982419550418853759765625" lon="-0.89896850287914276123046875">
        <ele>18</ele>
        <time>2019-10-25T12:14:18.000Z</time>
      </trkpt>
      <trkpt lat="38.10699306428432464599609375" lon="-0.8991515636444091796875">
        <ele>18.200000762939453125</ele>
        <time>2019-10-25T12:14:22.000Z</time>
      </trkpt>
      <trkpt lat="38.10684931464493274688720703125" lon="-0.899310149252414703369140625">
        <ele>18.200000762939453125</ele>
        <time>2019-10-25T12:14:26.000Z</time>
      </trkpt>
      <trkpt lat="38.10669274069368839263916015625" lon="-0.8994494564831256866455078125">
        <ele>17.6000003814697265625</ele>
        <time>2019-10-25T12:14:30.000Z</time>
      </trkpt>
      <trkpt lat="38.1065258570015430450439453125" lon="-0.89957208372652530670166015625">
        <ele>17</ele>
        <time>2019-10-25T12:14:34.000Z</time>
      </trkpt>
      <trkpt lat="38.10635327361524105072021484375" lon="-0.89971273206174373626708984375">
        <ele>16.3999996185302734375</ele>
        <time>2019-10-25T12:14:39.000Z</time>
      </trkpt>
      <trkpt lat="38.106194771826267242431640625" lon="-0.89988389052450656890869140625">
        <ele>16.200000762939453125</ele>
        <time>2019-10-25T12:14:44.000Z</time>
      </trkpt>
      <trkpt lat="38.10604414902627468109130859375" lon="-0.9000727348029613494873046875">
        <ele>16</ele>
        <time>2019-10-25T12:14:49.000Z</time>
      </trkpt>
      <trkpt lat="38.10592177323997020721435546875" lon="-0.90025504119694232940673828125">
        <ele>16.200000762939453125</ele>
        <time>2019-10-25T12:14:54.000Z</time>
      </trkpt>
      <trkpt lat="38.10588422231376171112060546875" lon="-0.90032645501196384429931640625">
        <ele>16.3999996185302734375</ele>
        <time>2019-10-25T12:14:56.000Z</time>
      </trkpt>
      <trkpt lat="38.105998300015926361083984375" lon="-0.900382697582244873046875">
        <ele>16</ele>
        <time>2019-10-25T12:15:02.000Z</time>
      </trkpt>
      <trkpt lat="38.10605420731008052825927734375" lon="-0.90037238784134387969970703125">
        <ele>15.6000003814697265625</ele>
        <time>2019-10-25T12:15:04.000Z</time>
      </trkpt>
      <trkpt lat="38.1062046624720096588134765625" lon="-0.90048302896320819854736328125">
        <ele>14.80000019073486328125</ele>
        <time>2019-10-25T12:15:10.000Z</time>
      </trkpt>
      <trkpt lat="38.1063122861087322235107421875" lon="-0.9006227552890777587890625">
        <ele>15</ele>
        <time>2019-10-25T12:15:15.000Z</time>
      </trkpt>
      <trkpt lat="38.10652493499219417572021484375" lon="-0.90066902339458465576171875">
        <ele>15</ele>
        <time>2019-10-25T12:15:20.000Z</time>
      </trkpt>
      <trkpt lat="38.1066489033401012420654296875" lon="-0.9008421935141086578369140625">
        <ele>17.200000762939453125</ele>
        <time>2019-10-25T12:15:24.000Z</time>
      </trkpt>
      <trkpt lat="38.10664462856948375701904296875" lon="-0.90107596479356288909912109375">
        <ele>19</ele>
        <time>2019-10-25T12:15:28.000Z</time>
      </trkpt>
      <trkpt lat="38.1064950115978717803955078125" lon="-0.90127310715615749359130859375">
        <ele>20.200000762939453125</ele>
        <time>2019-10-25T12:15:33.000Z</time>
      </trkpt>
      <trkpt lat="38.106289319694042205810546875" lon="-0.90140126645565032958984375">
        <ele>20.3999996185302734375</ele>
        <time>2019-10-25T12:15:38.000Z</time>
      </trkpt>
      <trkpt lat="38.1061238609254360198974609375" lon="-0.90141274966299533843994140625">
        <ele>19.200000762939453125</ele>
        <time>2019-10-25T12:15:41.000Z</time>
      </trkpt>
      <trkpt lat="38.10592378489673137664794921875" lon="-0.901335887610912322998046875">
        <ele>19</ele>
        <time>2019-10-25T12:15:45.000Z</time>
      </trkpt>
      <trkpt lat="38.1058308295905590057373046875" lon="-0.901317112147808074951171875">
        <ele>19</ele>
        <time>2019-10-25T12:15:47.000Z</time>
      </trkpt>
      <trkpt lat="38.10564165003597736358642578125" lon="-0.90139313600957393646240234375">
        <ele>19</ele>
        <time>2019-10-25T12:15:52.000Z</time>
      </trkpt>
      <trkpt lat="38.1056018359959125518798828125" lon="-0.90142138302326202392578125">
        <ele>19</ele>
        <time>2019-10-25T12:15:53.000Z</time>
      </trkpt>
      <trkpt lat="38.10543981380760669708251953125" lon="-0.901527665555477142333984375">
        <ele>19</ele>
        <time>2019-10-25T12:15:57.000Z</time>
      </trkpt>
      <trkpt lat="38.1052987463772296905517578125" lon="-0.90159916318953037261962890625">
        <ele>18.799999237060546875</ele>
        <time>2019-10-25T12:16:00.000Z</time>
      </trkpt>
      <trkpt lat="38.10510571114718914031982421875" lon="-0.90170796029269695281982421875">
        <ele>18.799999237060546875</ele>
        <time>2019-10-25T12:16:04.000Z</time>
      </trkpt>
      <trkpt lat="38.10493673197925090789794921875" lon="-0.90181273408234119415283203125">
        <ele>19.200000762939453125</ele>
        <time>2019-10-25T12:16:08.000Z</time>
      </trkpt>
      <trkpt lat="38.10489934869110584259033203125" lon="-0.90184207074344158172607421875">
        <ele>19.3999996185302734375</ele>
        <time>2019-10-25T12:16:09.000Z</time>
      </trkpt>
      <trkpt lat="38.1047634780406951904296875" lon="-0.902035944163799285888671875">
        <ele>20</ele>
        <time>2019-10-25T12:16:13.000Z</time>
      </trkpt>
      <trkpt lat="38.104634396731853485107421875" lon="-0.902254544198513031005859375">
        <ele>20.6000003814697265625</ele>
        <time>2019-10-25T12:16:17.000Z</time>
      </trkpt>
      <trkpt lat="38.1045086681842803955078125" lon="-0.902466438710689544677734375">
        <ele>20.799999237060546875</ele>
        <time>2019-10-25T12:16:21.000Z</time>
      </trkpt>
      <trkpt lat="38.10438889078795909881591796875" lon="-0.9026826918125152587890625">
        <ele>20.6000003814697265625</ele>
        <time>2019-10-25T12:16:25.000Z</time>
      </trkpt>
      <trkpt lat="38.10427053831517696380615234375" lon="-0.90289517305791378021240234375">
        <ele>20.799999237060546875</ele>
        <time>2019-10-25T12:16:29.000Z</time>
      </trkpt>
      <trkpt lat="38.10415084473788738250732421875" lon="-0.90310270898044109344482421875">
        <ele>20.3999996185302734375</ele>
        <time>2019-10-25T12:16:33.000Z</time>
      </trkpt>
      <trkpt lat="38.104032911360263824462890625" lon="-0.90330186299979686737060546875">
        <ele>19.3999996185302734375</ele>
        <time>2019-10-25T12:16:37.000Z</time>
      </trkpt>
      <trkpt lat="38.1039723940193653106689453125" lon="-0.90340613387525081634521484375">
        <ele>18.6000003814697265625</ele>
        <time>2019-10-25T12:16:39.000Z</time>
      </trkpt>
      <trkpt lat="38.1038527004420757293701171875" lon="-0.90361584909260272979736328125">
        <ele>17.6000003814697265625</ele>
        <time>2019-10-25T12:16:43.000Z</time>
      </trkpt>
      <trkpt lat="38.103731833398342132568359375" lon="-0.9038268215954303741455078125">
        <ele>17.3999996185302734375</ele>
        <time>2019-10-25T12:16:47.000Z</time>
      </trkpt>
      <trkpt lat="38.10360409319400787353515625" lon="-0.904034189879894256591796875">
        <ele>18.200000762939453125</ele>
        <time>2019-10-25T12:16:51.000Z</time>
      </trkpt>
      <trkpt lat="38.10349085368216037750244140625" lon="-0.90424097143113613128662109375">
        <ele>19.6000003814697265625</ele>
        <time>2019-10-25T12:16:55.000Z</time>
      </trkpt>
      <trkpt lat="38.1033655442297458648681640625" lon="-0.90444666333496570587158203125">
        <ele>19.6000003814697265625</ele>
        <time>2019-10-25T12:16:59.000Z</time>
      </trkpt>
      <trkpt lat="38.10323956422507762908935546875" lon="-0.90465269051492214202880859375">
        <ele>19.3999996185302734375</ele>
        <time>2019-10-25T12:17:03.000Z</time>
      </trkpt>
      <trkpt lat="38.10310930944979190826416015625" lon="-0.9048588015139102935791015625">
        <ele>19.6000003814697265625</ele>
        <time>2019-10-25T12:17:07.000Z</time>
      </trkpt>
      <trkpt lat="38.10298358090221881866455078125" lon="-0.90506625361740589141845703125">
        <ele>20</ele>
        <time>2019-10-25T12:17:11.000Z</time>
      </trkpt>
      <trkpt lat="38.1028582714498043060302734375" lon="-0.9052792377769947052001953125">
        <ele>20.3999996185302734375</ele>
        <time>2019-10-25T12:17:15.000Z</time>
      </trkpt>
      <trkpt lat="38.102733381092548370361328125" lon="-0.90547797270119190216064453125">
        <ele>20.3999996185302734375</ele>
        <time>2019-10-25T12:17:19.000Z</time>
      </trkpt>
      <trkpt lat="38.1026981770992279052734375" lon="-0.90552222914993762969970703125">
        <ele>20.3999996185302734375</ele>
        <time>2019-10-25T12:17:20.000Z</time>
      </trkpt>
      <trkpt lat="38.10258083045482635498046875" lon="-0.90563337318599224090576171875">
        <ele>20.3999996185302734375</ele>
        <time>2019-10-25T12:17:23.000Z</time>
      </trkpt>
      <trkpt lat="38.1025062315165996551513671875" lon="-0.9056814014911651611328125">
        <ele>20.6000003814697265625</ele>
        <time>2019-10-25T12:17:25.000Z</time>
      </trkpt>
      <trkpt lat="38.10231663286685943603515625" lon="-0.90576949529349803924560546875">
        <ele>20.6000003814697265625</ele>
        <time>2019-10-25T12:17:30.000Z</time>
      </trkpt>
      <trkpt lat="38.10220708139240741729736328125" lon="-0.905815847218036651611328125">
        <ele>20.3999996185302734375</ele>
        <time>2019-10-25T12:17:33.000Z</time>
      </trkpt>
      <trkpt lat="38.1020264513790607452392578125" lon="-0.9058518894016742706298828125">
        <ele>20.3999996185302734375</ele>
        <time>2019-10-25T12:17:38.000Z</time>
      </trkpt>
      <trkpt lat="38.101873733103275299072265625" lon="-0.90600804425776004791259765625">
        <ele>19.799999237060546875</ele>
        <time>2019-10-25T12:17:44.000Z</time>
      </trkpt>
      <trkpt lat="38.1017521955072879791259765625" lon="-0.90615657158195972442626953125">
        <ele>19.200000762939453125</ele>
        <time>2019-10-25T12:17:49.000Z</time>
      </trkpt>
      <trkpt lat="38.101691342890262603759765625" lon="-0.90621273033320903778076171875">
        <ele>19</ele>
        <time>2019-10-25T12:17:51.000Z</time>
      </trkpt>
      <trkpt lat="38.101582042872905731201171875" lon="-0.90631063096225261688232421875">
        <ele>19</ele>
        <time>2019-10-25T12:17:55.000Z</time>
      </trkpt>
      <trkpt lat="38.10150685720145702362060546875" lon="-0.906381122767925262451171875">
        <ele>18.799999237060546875</ele>
        <time>2019-10-25T12:17:58.000Z</time>
      </trkpt>
      <trkpt lat="38.1014360301196575164794921875" lon="-0.906473658978939056396484375">
        <ele>18.6000003814697265625</ele>
        <time>2019-10-25T12:18:01.000Z</time>
      </trkpt>
      <trkpt lat="38.1013072840869426727294921875" lon="-0.90664456598460674285888671875">
        <ele>18.6000003814697265625</ele>
        <time>2019-10-25T12:18:06.000Z</time>
      </trkpt>
      <trkpt lat="38.10117409564554691314697265625" lon="-0.9068084321916103363037109375">
        <ele>19.3999996185302734375</ele>
        <time>2019-10-25T12:18:11.000Z</time>
      </trkpt>
      <trkpt lat="38.10104032047092914581298828125" lon="-0.90699593536555767059326171875">
        <ele>20.6000003814697265625</ele>
        <time>2019-10-25T12:18:16.000Z</time>
      </trkpt>
      <trkpt lat="38.1009103171527385711669921875" lon="-0.9072129428386688232421875">
        <ele>20.200000762939453125</ele>
        <time>2019-10-25T12:18:21.000Z</time>
      </trkpt>
      <trkpt lat="38.1007715128362178802490234375" lon="-0.9073780663311481475830078125">
        <ele>19.200000762939453125</ele>
        <time>2019-10-25T12:18:25.000Z</time>
      </trkpt>
      <trkpt lat="38.1005676649510860443115234375" lon="-0.90746180154383182525634765625">
        <ele>18.6000003814697265625</ele>
        <time>2019-10-25T12:18:30.000Z</time>
      </trkpt>
      <trkpt lat="38.1003953330218791961669921875" lon="-0.9075021184980869293212890625">
        <ele>18.3999996185302734375</ele>
        <time>2019-10-25T12:18:35.000Z</time>
      </trkpt>
      <trkpt lat="38.100203387439250946044921875" lon="-0.9075510688126087188720703125">
        <ele>18.200000762939453125</ele>
        <time>2019-10-25T12:18:40.000Z</time>
      </trkpt>
      <trkpt lat="38.099998533725738525390625" lon="-0.9075705148279666900634765625">
        <ele>18</ele>
        <time>2019-10-25T12:18:45.000Z</time>
      </trkpt>
      <trkpt lat="38.0998146347701549530029296875" lon="-0.90767822228372097015380859375">
        <ele>18.6000003814697265625</ele>
        <time>2019-10-25T12:18:51.000Z</time>
      </trkpt>
      <trkpt lat="38.099714554846286773681640625" lon="-0.907912664115428924560546875">
        <ele>19.6000003814697265625</ele>
        <time>2019-10-25T12:18:56.000Z</time>
      </trkpt>
      <trkpt lat="38.09961028397083282470703125" lon="-0.9081383049488067626953125">
        <ele>20</ele>
        <time>2019-10-25T12:19:01.000Z</time>
      </trkpt>
      <trkpt lat="38.09946821071207523345947265625" lon="-0.9083292447030544281005859375">
        <ele>20.3999996185302734375</ele>
        <time>2019-10-25T12:19:06.000Z</time>
      </trkpt>
      <trkpt lat="38.09933443553745746612548828125" lon="-0.9084988944232463836669921875">
        <ele>20.799999237060546875</ele>
        <time>2019-10-25T12:19:11.000Z</time>
      </trkpt>
      <trkpt lat="38.0992885865271091461181640625" lon="-0.9087352640926837921142578125">
        <ele>20.200000762939453125</ele>
        <time>2019-10-25T12:19:16.000Z</time>
      </trkpt>
      <trkpt lat="38.0992765165865421295166015625" lon="-0.90896786190569400787353515625">
        <ele>21</ele>
        <time>2019-10-25T12:19:20.000Z</time>
      </trkpt>
      <trkpt lat="38.09921507723629474639892578125" lon="-0.909186713397502899169921875">
        <ele>22.3999996185302734375</ele>
        <time>2019-10-25T12:19:24.000Z</time>
      </trkpt>
      <trkpt lat="38.099157996475696563720703125" lon="-0.9094084985554218292236328125">
        <ele>23</ele>
        <time>2019-10-25T12:19:28.000Z</time>
      </trkpt>
      <trkpt lat="38.09913796372711658477783203125" lon="-0.90946155600249767303466796875">
        <ele>23</ele>
        <time>2019-10-25T12:19:29.000Z</time>
      </trkpt>
      <trkpt lat="38.099113740026950836181640625" lon="-0.9095094166696071624755859375">
        <ele>23</ele>
        <time>2019-10-25T12:19:30.000Z</time>
      </trkpt>
      <trkpt lat="38.09902111999690532684326171875" lon="-0.9096388332545757293701171875">
        <ele>22.6000003814697265625</ele>
        <time>2019-10-25T12:19:33.000Z</time>
      </trkpt>
      <trkpt lat="38.09887007810175418853759765625" lon="-0.9098255820572376251220703125">
        <ele>21.3999996185302734375</ele>
        <time>2019-10-25T12:19:38.000Z</time>
      </trkpt>
      <trkpt lat="38.098721466958522796630859375" lon="-0.91002968139946460723876953125">
        <ele>21.200000762939453125</ele>
        <time>2019-10-25T12:19:43.000Z</time>
      </trkpt>
      <trkpt lat="38.0985664017498493194580078125" lon="-0.91022397391498088836669921875">
        <ele>21.799999237060546875</ele>
        <time>2019-10-25T12:19:48.000Z</time>
      </trkpt>
      <trkpt lat="38.09846900403499603271484375" lon="-0.9103953838348388671875">
        <ele>22</ele>
        <time>2019-10-25T12:19:52.000Z</time>
      </trkpt>
      <trkpt lat="38.0984218977391719818115234375" lon="-0.9105796180665493011474609375">
        <ele>21.799999237060546875</ele>
        <time>2019-10-25T12:19:56.000Z</time>
      </trkpt>
      <trkpt lat="38.098364733159542083740234375" lon="-0.91069755144417285919189453125">
        <ele>21.6000003814697265625</ele>
        <time>2019-10-25T12:19:59.000Z</time>
      </trkpt>
      <trkpt lat="38.0982401780784130096435546875" lon="-0.9108927659690380096435546875">
        <ele>21</ele>
        <time>2019-10-25T12:20:04.000Z</time>
      </trkpt>
      <trkpt lat="38.098211847245693206787109375" lon="-0.91093123890459537506103515625">
        <ele>21</ele>
        <time>2019-10-25T12:20:05.000Z</time>
      </trkpt>
      <trkpt lat="38.0980430357158184051513671875" lon="-0.9110858850181102752685546875">
        <ele>20.799999237060546875</ele>
        <time>2019-10-25T12:20:10.000Z</time>
      </trkpt>
      <trkpt lat="38.0980131961405277252197265625" lon="-0.9111254476010799407958984375">
        <ele>20.799999237060546875</ele>
        <time>2019-10-25T12:20:11.000Z</time>
      </trkpt>
      <trkpt lat="38.09790213592350482940673828125" lon="-0.911328457295894622802734375">
        <ele>21</ele>
        <time>2019-10-25T12:20:15.000Z</time>
      </trkpt>
      <trkpt lat="38.097787387669086456298828125" lon="-0.91151663102209568023681640625">
        <ele>21</ele>
        <time>2019-10-25T12:20:19.000Z</time>
      </trkpt>
      <trkpt lat="38.09773013927042484283447265625" lon="-0.91159500181674957275390625">
        <ele>21</ele>
        <time>2019-10-25T12:20:21.000Z</time>
      </trkpt>
      <trkpt lat="38.0975759960711002349853515625" lon="-0.91179088689386844635009765625">
        <ele>21</ele>
        <time>2019-10-25T12:20:26.000Z</time>
      </trkpt>
      <trkpt lat="38.09745647013187408447265625" lon="-0.91196472756564617156982421875">
        <ele>20.3999996185302734375</ele>
        <time>2019-10-25T12:20:30.000Z</time>
      </trkpt>
      <trkpt lat="38.09732177294790744781494140625" lon="-0.912123061716556549072265625">
        <ele>20</ele>
        <time>2019-10-25T12:20:34.000Z</time>
      </trkpt>
      <trkpt lat="38.09718481265008449554443359375" lon="-0.9122838266193866729736328125">
        <ele>20</ele>
        <time>2019-10-25T12:20:38.000Z</time>
      </trkpt>
      <trkpt lat="38.0970559827983379364013671875" lon="-0.91244417242705821990966796875">
        <ele>20.200000762939453125</ele>
        <time>2019-10-25T12:20:42.000Z</time>
      </trkpt>
      <trkpt lat="38.09690787456929683685302734375" lon="-0.91263863258063793182373046875">
        <ele>20.799999237060546875</ele>
        <time>2019-10-25T12:20:47.000Z</time>
      </trkpt>
      <trkpt lat="38.0968214571475982666015625" lon="-0.91276444494724273681640625">
        <ele>21</ele>
        <time>2019-10-25T12:20:50.000Z</time>
      </trkpt>
      <trkpt lat="38.0966875143349170684814453125" lon="-0.91293870471417903900146484375">
        <ele>21</ele>
        <time>2019-10-25T12:20:54.000Z</time>
      </trkpt>
      <trkpt lat="38.09655751101672649383544921875" lon="-0.91312143020331859588623046875">
        <ele>21</ele>
        <time>2019-10-25T12:20:58.000Z</time>
      </trkpt>
      <trkpt lat="38.09641845524311065673828125" lon="-0.9133483283221721649169921875">
        <ele>20.6000003814697265625</ele>
        <time>2019-10-25T12:21:03.000Z</time>
      </trkpt>
      <trkpt lat="38.0963106639683246612548828125" lon="-0.91354387812316417694091796875">
        <ele>20.200000762939453125</ele>
        <time>2019-10-25T12:21:07.000Z</time>
      </trkpt>
      <trkpt lat="38.09622055850923061370849609375" lon="-0.9137939102947711944580078125">
        <ele>20</ele>
        <time>2019-10-25T12:21:12.000Z</time>
      </trkpt>
      <trkpt lat="38.09620480053126811981201171875" lon="-0.913845039904117584228515625">
        <ele>19.799999237060546875</ele>
        <time>2019-10-25T12:21:13.000Z</time>
      </trkpt>
      <trkpt lat="38.09614679776132106781005859375" lon="-0.91411066241562366485595703125">
        <ele>19.3999996185302734375</ele>
        <time>2019-10-25T12:21:18.000Z</time>
      </trkpt>
      <trkpt lat="38.09608058072626590728759765625" lon="-0.9143179468810558319091796875">
        <ele>19.799999237060546875</ele>
        <time>2019-10-25T12:21:22.000Z</time>
      </trkpt>
      <trkpt lat="38.0959881283342838287353515625" lon="-0.9145620279014110565185546875">
        <ele>20</ele>
        <time>2019-10-25T12:21:27.000Z</time>
      </trkpt>
      <trkpt lat="38.0959421955049037933349609375" lon="-0.91470493935048580169677734375">
        <ele>20</ele>
        <time>2019-10-25T12:21:30.000Z</time>
      </trkpt>
      <trkpt lat="38.0959012918174266815185546875" lon="-0.91483871452510356903076171875">
        <ele>20</ele>
        <time>2019-10-25T12:21:33.000Z</time>
      </trkpt>
      <trkpt lat="38.09598351828753948211669921875" lon="-0.9150310792028903961181640625">
        <ele>20.6000003814697265625</ele>
        <time>2019-10-25T12:21:40.000Z</time>
      </trkpt>
      <trkpt lat="38.09597144834697246551513671875" lon="-0.915215313434600830078125">
        <ele>21.200000762939453125</ele>
        <time>2019-10-25T12:21:45.000Z</time>
      </trkpt>
      <trkpt lat="38.09595175087451934814453125" lon="-0.915252864360809326171875">
        <ele>21.3999996185302734375</ele>
        <time>2019-10-25T12:21:46.000Z</time>
      </trkpt>
      <trkpt lat="38.09590523131191730499267578125" lon="-0.91532805003225803375244140625">
        <ele>21.3999996185302734375</ele>
        <time>2019-10-25T12:21:48.000Z</time>
      </trkpt>
      <trkpt lat="38.09579257853329181671142578125" lon="-0.91552368365228176116943359375">
        <ele>21.200000762939453125</ele>
        <time>2019-10-25T12:21:53.000Z</time>
      </trkpt>
      <trkpt lat="38.095689900219440460205078125" lon="-0.91575385071337223052978515625">
        <ele>20.3999996185302734375</ele>
        <time>2019-10-25T12:21:58.000Z</time>
      </trkpt>
      <trkpt lat="38.0956508405506610870361328125" lon="-0.9160278551280498504638671875">
        <ele>19.799999237060546875</ele>
        <time>2019-10-25T12:22:03.000Z</time>
      </trkpt>
      <trkpt lat="38.09561236761510372161865234375" lon="-0.91625341214239597320556640625">
        <ele>19.200000762939453125</ele>
        <time>2019-10-25T12:22:07.000Z</time>
      </trkpt>
      <trkpt lat="38.0955086834728717803955078125" lon="-0.9164928831160068511962890625">
        <ele>21.3999996185302734375</ele>
        <time>2019-10-25T12:22:12.000Z</time>
      </trkpt>
      <trkpt lat="38.0954091064631938934326171875" lon="-0.9167131595313549041748046875">
        <ele>22.6000003814697265625</ele>
        <time>2019-10-25T12:22:17.000Z</time>
      </trkpt>
      <trkpt lat="38.09539225883781909942626953125" lon="-0.91675984673202037811279296875">
        <ele>22.799999237060546875</ele>
        <time>2019-10-25T12:22:18.000Z</time>
      </trkpt>
      <trkpt lat="38.09532151557505130767822265625" lon="-0.916976518929004669189453125">
        <ele>22.3999996185302734375</ele>
        <time>2019-10-25T12:22:22.000Z</time>
      </trkpt>
      <trkpt lat="38.09525848366320133209228515625" lon="-0.91714357025921344757080078125">
        <ele>21.3999996185302734375</ele>
        <time>2019-10-25T12:22:25.000Z</time>
      </trkpt>
      <trkpt lat="38.09517533518373966217041015625" lon="-0.91734875924885272979736328125">
        <ele>20</ele>
        <time>2019-10-25T12:22:29.000Z</time>
      </trkpt>
      <trkpt lat="38.09509654529392719268798828125" lon="-0.91760809533298015594482421875">
        <ele>17.799999237060546875</ele>
        <time>2019-10-25T12:22:34.000Z</time>
      </trkpt>
      <trkpt lat="38.09508112259209156036376953125" lon="-0.91784454882144927978515625">
        <ele>16.799999237060546875</ele>
        <time>2019-10-25T12:22:38.000Z</time>
      </trkpt>
      <trkpt lat="38.0950664542615413665771484375" lon="-0.9180837683379650115966796875">
        <ele>17.6000003814697265625</ele>
        <time>2019-10-25T12:22:42.000Z</time>
      </trkpt>
      <trkpt lat="38.0950597487390041351318359375" lon="-0.91814420185983180999755859375">
        <ele>18</ele>
        <time>2019-10-25T12:22:43.000Z</time>
      </trkpt>
      <trkpt lat="38.095038793981075286865234375" lon="-0.91826356016099452972412109375">
        <ele>18.3999996185302734375</ele>
        <time>2019-10-25T12:22:45.000Z</time>
      </trkpt>
      <trkpt lat="38.09496201574802398681640625" lon="-0.918483920395374298095703125">
        <ele>18.6000003814697265625</ele>
        <time>2019-10-25T12:22:49.000Z</time>
      </trkpt>
      <trkpt lat="38.09484642930328845977783203125" lon="-0.91868131421506404876708984375">
        <ele>19</ele>
        <time>2019-10-25T12:22:53.000Z</time>
      </trkpt>
      <trkpt lat="38.0947301723062992095947265625" lon="-0.918873511254787445068359375">
        <ele>20</ele>
        <time>2019-10-25T12:22:57.000Z</time>
      </trkpt>
      <trkpt lat="38.09467057697474956512451171875" lon="-0.918971411883831024169921875">
        <ele>20.6000003814697265625</ele>
        <time>2019-10-25T12:22:59.000Z</time>
      </trkpt>
      <trkpt lat="38.09456261806190013885498046875" lon="-0.9191633574664592742919921875">
        <ele>19.6000003814697265625</ele>
        <time>2019-10-25T12:23:03.000Z</time>
      </trkpt>
      <trkpt lat="38.0944284237921237945556640625" lon="-0.91938287951052188873291015625">
        <ele>18.6000003814697265625</ele>
        <time>2019-10-25T12:23:08.000Z</time>
      </trkpt>
      <trkpt lat="38.0942695029079914093017578125" lon="-0.91958153061568737030029296875">
        <ele>18.6000003814697265625</ele>
        <time>2019-10-25T12:23:13.000Z</time>
      </trkpt>
      <trkpt lat="38.09410379268229007720947265625" lon="-0.9197708778083324432373046875">
        <ele>20.3999996185302734375</ele>
        <time>2019-10-25T12:23:18.000Z</time>
      </trkpt>
      <trkpt lat="38.09404545463621616363525390625" lon="-0.91986768878996372222900390625">
        <ele>21.200000762939453125</ele>
        <time>2019-10-25T12:23:20.000Z</time>
      </trkpt>
      <trkpt lat="38.09397320263087749481201171875" lon="-0.92009919695556163787841796875">
        <ele>23.200000762939453125</ele>
        <time>2019-10-25T12:23:24.000Z</time>
      </trkpt>
      <trkpt lat="38.0939238332211971282958984375" lon="-0.92034227214753627777099609375">
        <ele>24.200000762939453125</ele>
        <time>2019-10-25T12:23:28.000Z</time>
      </trkpt>
      <trkpt lat="38.09386591427028179168701171875" lon="-0.9205864369869232177734375">
        <ele>24</ele>
        <time>2019-10-25T12:23:32.000Z</time>
      </trkpt>
      <trkpt lat="38.093816377222537994384765625" lon="-0.92082523740828037261962890625">
        <ele>22.799999237060546875</ele>
        <time>2019-10-25T12:23:36.000Z</time>
      </trkpt>
      <trkpt lat="38.0937744677066802978515625" lon="-0.9210385568439960479736328125">
        <ele>21</ele>
        <time>2019-10-25T12:23:40.000Z</time>
      </trkpt>
      <trkpt lat="38.093719147145748138427734375" lon="-0.92127752490341663360595703125">
        <ele>18.6000003814697265625</ele>
        <time>2019-10-25T12:23:45.000Z</time>
      </trkpt>
      <trkpt lat="38.09366843663156032562255859375" lon="-0.92153686098754405975341796875">
        <ele>17.6000003814697265625</ele>
        <time>2019-10-25T12:23:50.000Z</time>
      </trkpt>
      <trkpt lat="38.0936308018863201141357421875" lon="-0.92176132835447788238525390625">
        <ele>17</ele>
        <time>2019-10-25T12:23:54.000Z</time>
      </trkpt>
      <trkpt lat="38.09358880855143070220947265625" lon="-0.9219897352159023284912109375">
        <ele>18</ele>
        <time>2019-10-25T12:23:58.000Z</time>
      </trkpt>
      <trkpt lat="38.0935449711978435516357421875" lon="-0.9222197346389293670654296875">
        <ele>19.200000762939453125</ele>
        <time>2019-10-25T12:24:02.000Z</time>
      </trkpt>
      <trkpt lat="38.0934966914355754852294921875" lon="-0.9224567748606204986572265625">
        <ele>22.200000762939453125</ele>
        <time>2019-10-25T12:24:06.000Z</time>
      </trkpt>
      <trkpt lat="38.09343759901821613311767578125" lon="-0.9226817451417446136474609375">
        <ele>25.200000762939453125</ele>
        <time>2019-10-25T12:24:10.000Z</time>
      </trkpt>
      <trkpt lat="38.0933746509253978729248046875" lon="-0.9229167737066745758056640625">
        <ele>25.799999237060546875</ele>
        <time>2019-10-25T12:24:14.000Z</time>
      </trkpt>
      <trkpt lat="38.09331689961254596710205078125" lon="-0.923151634633541107177734375">
        <ele>23.799999237060546875</ele>
        <time>2019-10-25T12:24:18.000Z</time>
      </trkpt>
      <trkpt lat="38.0932569690048694610595703125" lon="-0.92339378781616687774658203125">
        <ele>21.6000003814697265625</ele>
        <time>2019-10-25T12:24:22.000Z</time>
      </trkpt>
      <trkpt lat="38.0931999720633029937744140625" lon="-0.9236349351704120635986328125">
        <ele>20.200000762939453125</ele>
        <time>2019-10-25T12:24:26.000Z</time>
      </trkpt>
      <trkpt lat="38.0931414663791656494140625" lon="-0.92388513498008251190185546875">
        <ele>19.3999996185302734375</ele>
        <time>2019-10-25T12:24:30.000Z</time>
      </trkpt>
      <trkpt lat="38.09312948025763034820556640625" lon="-0.923948921263217926025390625">
        <ele>19.200000762939453125</ele>
        <time>2019-10-25T12:24:31.000Z</time>
      </trkpt>
      <trkpt lat="38.09308178722858428955078125" lon="-0.92419593594968318939208984375">
        <ele>19</ele>
        <time>2019-10-25T12:24:35.000Z</time>
      </trkpt>
      <trkpt lat="38.0930400453507900238037109375" lon="-0.9244352392852306365966796875">
        <ele>19.6000003814697265625</ele>
        <time>2019-10-25T12:24:39.000Z</time>
      </trkpt>
      <trkpt lat="38.0929934419691562652587890625" lon="-0.92466272413730621337890625">
        <ele>20.6000003814697265625</ele>
        <time>2019-10-25T12:24:43.000Z</time>
      </trkpt>
      <trkpt lat="38.09294122271239757537841796875" lon="-0.92489079572260379791259765625">
        <ele>21.200000762939453125</ele>
        <time>2019-10-25T12:24:47.000Z</time>
      </trkpt>
      <trkpt lat="38.092884309589862823486328125" lon="-0.9251094795763492584228515625">
        <ele>21.6000003814697265625</ele>
        <time>2019-10-25T12:24:51.000Z</time>
      </trkpt>
      <trkpt lat="38.092823959887027740478515625" lon="-0.9253411553800106048583984375">
        <ele>22.3999996185302734375</ele>
        <time>2019-10-25T12:24:55.000Z</time>
      </trkpt>
      <trkpt lat="38.092762939631938934326171875" lon="-0.9255621023476123809814453125">
        <ele>23</ele>
        <time>2019-10-25T12:24:59.000Z</time>
      </trkpt>
      <trkpt lat="38.09269077144563198089599609375" lon="-0.92577944509685039520263671875">
        <ele>22.6000003814697265625</ele>
        <time>2019-10-25T12:25:03.000Z</time>
      </trkpt>
      <trkpt lat="38.09266964904963970184326171875" lon="-0.9258333407342433929443359375">
        <ele>22.3999996185302734375</ele>
        <time>2019-10-25T12:25:04.000Z</time>
      </trkpt>
      <trkpt lat="38.09262941591441631317138671875" lon="-0.92593937180936336517333984375">
        <ele>22</ele>
        <time>2019-10-25T12:25:06.000Z</time>
      </trkpt>
      <trkpt lat="38.09254257939755916595458984375" lon="-0.92616501264274120330810546875">
        <ele>20.799999237060546875</ele>
        <time>2019-10-25T12:25:10.000Z</time>
      </trkpt>
      <trkpt lat="38.0924305133521556854248046875" lon="-0.92638025991618633270263671875">
        <ele>20.6000003814697265625</ele>
        <time>2019-10-25T12:25:14.000Z</time>
      </trkpt>
      <trkpt lat="38.09231492690742015838623046875" lon="-0.92658762820065021514892578125">
        <ele>21</ele>
        <time>2019-10-25T12:25:18.000Z</time>
      </trkpt>
      <trkpt lat="38.09222356416285037994384765625" lon="-0.9268123470246791839599609375">
        <ele>21.799999237060546875</ele>
        <time>2019-10-25T12:25:22.000Z</time>
      </trkpt>
      <trkpt lat="38.09213756583631038665771484375" lon="-0.92704117298126220703125">
        <ele>23.799999237060546875</ele>
        <time>2019-10-25T12:25:26.000Z</time>
      </trkpt>
      <trkpt lat="38.0920590274035930633544921875" lon="-0.927270166575908660888671875">
        <ele>24.3999996185302734375</ele>
        <time>2019-10-25T12:25:30.000Z</time>
      </trkpt>
      <trkpt lat="38.0919899605214595794677734375" lon="-0.92751852236688137054443359375">
        <ele>23.6000003814697265625</ele>
        <time>2019-10-25T12:25:34.000Z</time>
      </trkpt>
      <trkpt lat="38.09192801825702190399169921875" lon="-0.92777232639491558074951171875">
        <ele>22.6000003814697265625</ele>
        <time>2019-10-25T12:25:38.000Z</time>
      </trkpt>
      <trkpt lat="38.09185408987104892730712890625" lon="-0.92801959253847599029541015625">
        <ele>22</ele>
        <time>2019-10-25T12:25:42.000Z</time>
      </trkpt>
      <trkpt lat="38.091838918626308441162109375" lon="-0.92807793058454990386962890625">
        <ele>22</ele>
        <time>2019-10-25T12:25:43.000Z</time>
      </trkpt>
      <trkpt lat="38.09175409376621246337890625" lon="-0.928334333002567291259765625">
        <ele>22.200000762939453125</ele>
        <time>2019-10-25T12:25:48.000Z</time>
      </trkpt>
      <trkpt lat="38.09172802604734897613525390625" lon="-0.92842125333845615386962890625">
        <ele>22.6000003814697265625</ele>
        <time>2019-10-25T12:25:50.000Z</time>
      </trkpt>
      <trkpt lat="38.09171444736421108245849609375" lon="-0.928569696843624114990234375">
        <ele>23</ele>
        <time>2019-10-25T12:25:54.000Z</time>
      </trkpt>
      <trkpt lat="38.09175434522330760955810546875" lon="-0.92868695966899394989013671875">
        <ele>22.3999996185302734375</ele>
        <time>2019-10-25T12:25:57.000Z</time>
      </trkpt>
      <trkpt lat="38.0917153693735599517822265625" lon="-0.9289534203708171844482421875">
        <ele>21.6000003814697265625</ele>
        <time>2019-10-25T12:26:02.000Z</time>
      </trkpt>
      <trkpt lat="38.09154689311981201171875" lon="-0.92907722108066082000732421875">
        <ele>22</ele>
        <time>2019-10-25T12:26:06.000Z</time>
      </trkpt>
      <trkpt lat="38.09151227585971355438232421875" lon="-0.9291049651801586151123046875">
        <ele>22</ele>
        <time>2019-10-25T12:26:07.000Z</time>
      </trkpt>
      <trkpt lat="38.09144429862499237060546875" lon="-0.9292826615273952484130859375">
        <ele>22</ele>
        <time>2019-10-25T12:26:12.000Z</time>
      </trkpt>
      <trkpt lat="38.09143382124602794647216796875" lon="-0.92931945808231830596923828125">
        <ele>22</ele>
        <time>2019-10-25T12:26:13.000Z</time>
      </trkpt>
      <trkpt lat="38.09139392338693141937255859375" lon="-0.9294913709163665771484375">
        <ele>22</ele>
        <time>2019-10-25T12:26:17.000Z</time>
      </trkpt>
      <trkpt lat="38.0913418717682361602783203125" lon="-0.9297289140522480010986328125">
        <ele>22.6000003814697265625</ele>
        <time>2019-10-25T12:26:22.000Z</time>
      </trkpt>
      <trkpt lat="38.091307170689105987548828125" lon="-0.929911471903324127197265625">
        <ele>23</ele>
        <time>2019-10-25T12:26:26.000Z</time>
      </trkpt>
      <trkpt lat="38.09127154760062694549560546875" lon="-0.93009947799146175384521484375">
        <ele>24</ele>
        <time>2019-10-25T12:26:30.000Z</time>
      </trkpt>
      <trkpt lat="38.0911941826343536376953125" lon="-0.93034758232533931732177734375">
        <ele>23.3999996185302734375</ele>
        <time>2019-10-25T12:26:35.000Z</time>
      </trkpt>
      <trkpt lat="38.09113425202667713165283203125" lon="-0.930580012500286102294921875">
        <ele>22.3999996185302734375</ele>
        <time>2019-10-25T12:26:40.000Z</time>
      </trkpt>
      <trkpt lat="38.0910806916654109954833984375" lon="-0.93082937411963939666748046875">
        <ele>23</ele>
        <time>2019-10-25T12:26:46.000Z</time>
      </trkpt>
      <trkpt lat="38.09104272164404392242431640625" lon="-0.9310686774551868438720703125">
        <ele>23.200000762939453125</ele>
        <time>2019-10-25T12:26:52.000Z</time>
      </trkpt>
      <trkpt lat="38.09103450737893581390380859375" lon="-0.93131418339908123016357421875">
        <ele>23.3999996185302734375</ele>
        <time>2019-10-25T12:26:59.000Z</time>
      </trkpt>
      <trkpt lat="38.0910297296941280364990234375" lon="-0.93156429938971996307373046875">
        <ele>23.6000003814697265625</ele>
        <time>2019-10-25T12:27:05.000Z</time>
      </trkpt>
      <trkpt lat="38.091030232608318328857421875" lon="-0.93183151446282863616943359375">
        <ele>22.799999237060546875</ele>
        <time>2019-10-25T12:27:11.000Z</time>
      </trkpt>
      <trkpt lat="38.0910314060747623443603515625" lon="-0.93208280391991138458251953125">
        <ele>22.799999237060546875</ele>
        <time>2019-10-25T12:27:16.000Z</time>
      </trkpt>
      <trkpt lat="38.09101807884871959686279296875" lon="-0.93233912251889705657958984375">
        <ele>22</ele>
        <time>2019-10-25T12:27:21.000Z</time>
      </trkpt>
      <trkpt lat="38.0909978784620761871337890625" lon="-0.932596363127231597900390625">
        <ele>21</ele>
        <time>2019-10-25T12:27:27.000Z</time>
      </trkpt>
      <trkpt lat="38.09097415767610073089599609375" lon="-0.93283466063439846038818359375">
        <ele>20.3999996185302734375</ele>
        <time>2019-10-25T12:27:33.000Z</time>
      </trkpt>
      <trkpt lat="38.09094834141433238983154296875" lon="-0.9330960921943187713623046875">
        <ele>19.3999996185302734375</ele>
        <time>2019-10-25T12:27:39.000Z</time>
      </trkpt>
      <trkpt lat="38.0909264646470546722412109375" lon="-0.93334042467176914215087890625">
        <ele>19</ele>
        <time>2019-10-25T12:27:44.000Z</time>
      </trkpt>
      <trkpt lat="38.0908704735338687896728515625" lon="-0.93360076658427715301513671875">
        <ele>19</ele>
        <time>2019-10-25T12:27:49.000Z</time>
      </trkpt>
      <trkpt lat="38.090819679200649261474609375" lon="-0.9338608570396900177001953125">
        <ele>19.799999237060546875</ele>
        <time>2019-10-25T12:27:54.000Z</time>
      </trkpt>
      <trkpt lat="38.09078053571283817291259765625" lon="-0.93413922004401683807373046875">
        <ele>20.799999237060546875</ele>
        <time>2019-10-25T12:27:59.000Z</time>
      </trkpt>
      <trkpt lat="38.09074097312986850738525390625" lon="-0.934374667704105377197265625">
        <ele>20.6000003814697265625</ele>
        <time>2019-10-25T12:28:03.000Z</time>
      </trkpt>
      <trkpt lat="38.09070124290883541107177734375" lon="-0.93460475094616413116455078125">
        <ele>20</ele>
        <time>2019-10-25T12:28:07.000Z</time>
      </trkpt>
      <trkpt lat="38.09064642526209354400634765625" lon="-0.93484179116785526275634765625">
        <ele>20.200000762939453125</ele>
        <time>2019-10-25T12:28:11.000Z</time>
      </trkpt>
      <trkpt lat="38.09058859013020992279052734375" lon="-0.93507346697151660919189453125">
        <ele>21.6000003814697265625</ele>
        <time>2019-10-25T12:28:15.000Z</time>
      </trkpt>
      <trkpt lat="38.09056947939097881317138671875" lon="-0.93519181944429874420166015625">
        <ele>22.200000762939453125</ele>
        <time>2019-10-25T12:28:17.000Z</time>
      </trkpt>
      <trkpt lat="38.09053109027445316314697265625" lon="-0.93542642891407012939453125">
        <ele>23</ele>
        <time>2019-10-25T12:28:21.000Z</time>
      </trkpt>
      <trkpt lat="38.0904765240848064422607421875" lon="-0.93564997427165508270263671875">
        <ele>23.799999237060546875</ele>
        <time>2019-10-25T12:28:25.000Z</time>
      </trkpt>
      <trkpt lat="38.09040653519332408905029296875" lon="-0.93586689792573451995849609375">
        <ele>23.799999237060546875</ele>
        <time>2019-10-25T12:28:29.000Z</time>
      </trkpt>
      <trkpt lat="38.0903466045856475830078125" lon="-0.9360887669026851654052734375">
        <ele>23.799999237060546875</ele>
        <time>2019-10-25T12:28:33.000Z</time>
      </trkpt>
      <trkpt lat="38.09028550051152706146240234375" lon="-0.93631650321185588836669921875">
        <ele>23.6000003814697265625</ele>
        <time>2019-10-25T12:28:37.000Z</time>
      </trkpt>
      <trkpt lat="38.0902378074824810028076171875" lon="-0.9365427307784557342529296875">
        <ele>23.799999237060546875</ele>
        <time>2019-10-25T12:28:41.000Z</time>
      </trkpt>
      <trkpt lat="38.0902327783405780792236328125" lon="-0.93671598471701145172119140625">
        <ele>24.3999996185302734375</ele>
        <time>2019-10-25T12:28:44.000Z</time>
      </trkpt>
      <trkpt lat="38.0902795493602752685546875" lon="-0.93698923476040363311767578125">
        <ele>24.200000762939453125</ele>
        <time>2019-10-25T12:28:49.000Z</time>
      </trkpt>
      <trkpt lat="38.09030813165009021759033203125" lon="-0.9371794201433658599853515625">
        <ele>24</ele>
        <time>2019-10-25T12:28:54.000Z</time>
      </trkpt>
      <trkpt lat="38.09031098149716854095458984375" lon="-0.937222503125667572021484375">
        <ele>23.799999237060546875</ele>
        <time>2019-10-25T12:28:58.000Z</time>
      </trkpt>
      <trkpt lat="38.0903115682303905487060546875" lon="-0.937459878623485565185546875">
        <ele>23</ele>
        <time>2019-10-25T12:29:05.000Z</time>
      </trkpt>
      <trkpt lat="38.09025247581303119659423828125" lon="-0.93758602626621723175048828125">
        <ele>23.6000003814697265625</ele>
        <time>2019-10-25T12:29:08.000Z</time>
      </trkpt>
      <trkpt lat="38.0901717580854892730712890625" lon="-0.93781904317438602447509765625">
        <ele>24.6000003814697265625</ele>
        <time>2019-10-25T12:29:13.000Z</time>
      </trkpt>
      <trkpt lat="38.0900917947292327880859375" lon="-0.9380561672151088714599609375">
        <ele>25.6000003814697265625</ele>
        <time>2019-10-25T12:29:18.000Z</time>
      </trkpt>
      <trkpt lat="38.0899751186370849609375" lon="-0.93829027377068996429443359375">
        <ele>26.3999996185302734375</ele>
        <time>2019-10-25T12:29:23.000Z</time>
      </trkpt>
      <trkpt lat="38.08984243310987949371337890625" lon="-0.93851189129054546356201171875">
        <ele>26.799999237060546875</ele>
        <time>2019-10-25T12:29:28.000Z</time>
      </trkpt>
      <trkpt lat="38.08973631821572780609130859375" lon="-0.9387015737593173980712890625">
        <ele>26.799999237060546875</ele>
        <time>2019-10-25T12:29:32.000Z</time>
      </trkpt>
      <trkpt lat="38.0896358191967010498046875" lon="-0.9388973750174045562744140625">
        <ele>26.799999237060546875</ele>
        <time>2019-10-25T12:29:36.000Z</time>
      </trkpt>
      <trkpt lat="38.08954420499503612518310546875" lon="-0.9391070902347564697265625">
        <ele>27</ele>
        <time>2019-10-25T12:29:40.000Z</time>
      </trkpt>
      <trkpt lat="38.08945636264979839324951171875" lon="-0.9393057413399219512939453125">
        <ele>27.3999996185302734375</ele>
        <time>2019-10-25T12:29:44.000Z</time>
      </trkpt>
      <trkpt lat="38.08940070681273937225341796875" lon="-0.9395067393779754638671875">
        <ele>27.6000003814697265625</ele>
        <time>2019-10-25T12:29:48.000Z</time>
      </trkpt>
      <trkpt lat="38.0893211625516414642333984375" lon="-0.93975744210183620452880859375">
        <ele>27.6000003814697265625</ele>
        <time>2019-10-25T12:29:54.000Z</time>
      </trkpt>
      <trkpt lat="38.08931487612426280975341796875" lon="-0.939798764884471893310546875">
        <ele>27.799999237060546875</ele>
        <time>2019-10-25T12:29:55.000Z</time>
      </trkpt>
      <trkpt lat="38.0892759002745151519775390625" lon="-0.93995039351284503936767578125">
        <ele>28.200000762939453125</ele>
        <time>2019-10-25T12:30:00.000Z</time>
      </trkpt>
      <trkpt lat="38.08926575817167758941650390625" lon="-0.94000739045441150665283203125">
        <ele>28.200000762939453125</ele>
        <time>2019-10-25T12:30:03.000Z</time>
      </trkpt>
      <trkpt lat="38.0892829410731792449951171875" lon="-0.94013948924839496612548828125">
        <ele>28.200000762939453125</ele>
        <time>2019-10-25T12:30:13.000Z</time>
      </trkpt>
      <trkpt lat="38.08929509483277797698974609375" lon="-0.9401942230761051177978515625">
        <ele>28.3999996185302734375</ele>
        <time>2019-10-25T12:30:17.000Z</time>
      </trkpt>
      <trkpt lat="38.0892567895352840423583984375" lon="-0.940197408199310302734375">
        <ele>28.6000003814697265625</ele>
        <time>2019-10-25T12:30:54.000Z</time>
      </trkpt>
      <trkpt lat="38.08925737626850605010986328125" lon="-0.94025750644505023956298828125">
        <ele>28.799999237060546875</ele>
        <time>2019-10-25T12:32:24.000Z</time>
      </trkpt>
      <trkpt lat="38.0892782472074031829833984375" lon="-0.9401546604931354522705078125">
        <ele>28.3999996185302734375</ele>
        <time>2019-10-25T12:33:45.000Z</time>
      </trkpt>
      <trkpt lat="38.0892541073262691497802734375" lon="-0.9401637129485607147216796875">
        <ele>28.3999996185302734375</ele>
        <time>2019-10-25T12:35:23.000Z</time>
      </trkpt>
      <trkpt lat="38.08925000019371509552001953125" lon="-0.94016513787209987640380859375">
        <ele>28.3999996185302734375</ele>
        <time>2019-10-25T12:35:24.000Z</time>
      </trkpt>
      <trkpt lat="38.089268021285533905029296875" lon="-0.94017653726041316986083984375">
        <ele>28.3999996185302734375</ele>
        <time>2019-10-25T12:36:24.000Z</time>
      </trkpt>
      <trkpt lat="38.089320324361324310302734375" lon="-0.94022565521299839019775390625">
        <ele>28.3999996185302734375</ele>
        <time>2019-10-25T12:37:32.000Z</time>
      </trkpt>
      <trkpt lat="38.08932401239871978759765625" lon="-0.94015172682702541351318359375">
        <ele>28.200000762939453125</ele>
        <time>2019-10-25T12:37:44.000Z</time>
      </trkpt>
      <trkpt lat="38.0892229266464710235595703125" lon="-0.94014334492385387420654296875">
        <ele>28.3999996185302734375</ele>
        <time>2019-10-25T12:38:26.000Z</time>
      </trkpt>
      <trkpt lat="38.08910465799272060394287109375" lon="-0.94009724445641040802001953125">
        <ele>28.799999237060546875</ele>
        <time>2019-10-25T12:38:36.000Z</time>
      </trkpt>
      <trkpt lat="38.08875429444015026092529296875" lon="-0.94029673375189304351806640625">
        <ele>28</ele>
        <time>2019-10-25T12:39:08.000Z</time>
      </trkpt>
      <trkpt lat="38.08881011791527271270751953125" lon="-0.9401156008243560791015625">
        <ele>28.200000762939453125</ele>
        <time>2019-10-25T12:39:16.000Z</time>
      </trkpt>
      <trkpt lat="38.088833503425121307373046875" lon="-0.94000554643571376800537109375">
        <ele>27.799999237060546875</ele>
        <time>2019-10-25T12:39:22.000Z</time>
      </trkpt>
      <trkpt lat="38.0890851281583309173583984375" lon="-0.939582176506519317626953125">
        <ele>26.200000762939453125</ele>
        <time>2019-10-25T12:39:33.000Z</time>
      </trkpt>
      <trkpt lat="38.0890462361276149749755859375" lon="-0.9394918195903301239013671875">
        <ele>25.3999996185302734375</ele>
        <time>2019-10-25T12:39:35.000Z</time>
      </trkpt>
      <trkpt lat="38.0890133790671825408935546875" lon="-0.93938746489584445953369140625">
        <ele>24.799999237060546875</ele>
        <time>2019-10-25T12:39:40.000Z</time>
      </trkpt>
      <trkpt lat="38.08894137851893901824951171875" lon="-0.93947589397430419921875">
        <ele>25.3999996185302734375</ele>
        <time>2019-10-25T12:40:03.000Z</time>
      </trkpt>
      <trkpt lat="38.089093677699565887451171875" lon="-0.940028764307498931884765625">
        <ele>28.6000003814697265625</ele>
        <time>2019-10-25T12:41:16.000Z</time>
      </trkpt>
      <trkpt lat="38.0891572125256061553955078125" lon="-0.94014183618128299713134765625">
        <ele>28.6000003814697265625</ele>
        <time>2019-10-25T12:41:24.000Z</time>
      </trkpt>
      <trkpt lat="38.08922770433127880096435546875" lon="-0.940140746533870697021484375">
        <ele>28.3999996185302734375</ele>
        <time>2019-10-25T12:41:32.000Z</time>
      </trkpt>
      <trkpt lat="38.08923977427184581756591796875" lon="-0.9402019344270229339599609375">
        <ele>28.6000003814697265625</ele>
        <time>2019-10-25T12:41:45.000Z</time>
      </trkpt>
      <trkpt lat="38.08927581645548343658447265625" lon="-0.9402140043675899505615234375">
        <ele>28.6000003814697265625</ele>
        <time>2019-10-25T12:42:47.000Z</time>
      </trkpt>
      <trkpt lat="38.089301548898220062255859375" lon="-0.94019497744739055633544921875">
        <ele>28.3999996185302734375</ele>
        <time>2019-10-25T12:43:48.000Z</time>
      </trkpt>
      <trkpt lat="38.08917825110256671905517578125" lon="-0.9402186982333660125732421875">
        <ele>28.799999237060546875</ele>
        <time>2019-10-25T12:44:37.000Z</time>
      </trkpt>
      <trkpt lat="38.0891256965696811676025390625" lon="-0.94028969295322895050048828125">
        <ele>29.3999996185302734375</ele>
        <time>2019-10-25T12:44:41.000Z</time>
      </trkpt>
      <trkpt lat="38.0890844576060771942138671875" lon="-0.9404144994914531707763671875">
        <ele>30</ele>
        <time>2019-10-25T12:45:37.000Z</time>
      </trkpt>
      <trkpt lat="38.0890100263059139251708984375" lon="-0.94065447337925434112548828125">
        <ele>30.6000003814697265625</ele>
        <time>2019-10-25T12:45:45.000Z</time>
      </trkpt>
      <trkpt lat="38.08893978595733642578125" lon="-0.94086636789143085479736328125">
        <ele>31.200000762939453125</ele>
        <time>2019-10-25T12:45:52.000Z</time>
      </trkpt>
      <trkpt lat="38.0888373591005802154541015625" lon="-0.94107524491846561431884765625">
        <ele>32</ele>
        <time>2019-10-25T12:45:59.000Z</time>
      </trkpt>
      <trkpt lat="38.08875136077404022216796875" lon="-0.941292084753513336181640625">
        <ele>32.59999847412109375</ele>
        <time>2019-10-25T12:46:07.000Z</time>
      </trkpt>
      <trkpt lat="38.08867357671260833740234375" lon="-0.94151428900659084320068359375">
        <ele>31.200000762939453125</ele>
        <time>2019-10-25T12:46:14.000Z</time>
      </trkpt>
      <trkpt lat="38.08857777155935764312744140625" lon="-0.941721908748149871826171875">
        <ele>30.6000003814697265625</ele>
        <time>2019-10-25T12:46:22.000Z</time>
      </trkpt>
      <trkpt lat="38.08854281902313232421875" lon="-0.9418112598359584808349609375">
        <ele>30</ele>
        <time>2019-10-25T12:46:26.000Z</time>
      </trkpt>
      <trkpt lat="38.0884316749870777130126953125" lon="-0.9420077316462993621826171875">
        <ele>29.3999996185302734375</ele>
        <time>2019-10-25T12:46:35.000Z</time>
      </trkpt>
      <trkpt lat="38.08826982043683528900146484375" lon="-0.9421757049858570098876953125">
        <ele>29.799999237060546875</ele>
        <time>2019-10-25T12:46:42.000Z</time>
      </trkpt>
      <trkpt lat="38.08813034556806087493896484375" lon="-0.94232364557683467864990234375">
        <ele>30</ele>
        <time>2019-10-25T12:46:48.000Z</time>
      </trkpt>
      <trkpt lat="38.0880404077470302581787109375" lon="-0.942552722990512847900390625">
        <ele>29.3999996185302734375</ele>
        <time>2019-10-25T12:46:54.000Z</time>
      </trkpt>
      <trkpt lat="38.087886013090610504150390625" lon="-0.94271533191204071044921875">
        <ele>28.799999237060546875</ele>
        <time>2019-10-25T12:47:00.000Z</time>
      </trkpt>
      <trkpt lat="38.08776305057108402252197265625" lon="-0.94288322143256664276123046875">
        <ele>28.3999996185302734375</ele>
        <time>2019-10-25T12:47:08.000Z</time>
      </trkpt>
      <trkpt lat="38.087714016437530517578125" lon="-0.942936278879642486572265625">
        <ele>28.3999996185302734375</ele>
        <time>2019-10-25T12:47:12.000Z</time>
      </trkpt>
      <trkpt lat="38.087630532681941986083984375" lon="-0.94317021779716014862060546875">
        <ele>28.799999237060546875</ele>
        <time>2019-10-25T12:47:19.000Z</time>
      </trkpt>
      <trkpt lat="38.087592981755733489990234375" lon="-0.94340826384723186492919921875">
        <ele>29</ele>
        <time>2019-10-25T12:47:25.000Z</time>
      </trkpt>
      <trkpt lat="38.08752114884555339813232421875" lon="-0.94363541342318058013916015625">
        <ele>29</ele>
        <time>2019-10-25T12:47:32.000Z</time>
      </trkpt>
      <trkpt lat="38.08748343028128147125244140625" lon="-0.9436593018472194671630859375">
        <ele>29</ele>
        <time>2019-10-25T12:47:34.000Z</time>
      </trkpt>
      <trkpt lat="38.0872947536408901214599609375" lon="-0.9437273629009723663330078125">
        <ele>29.3999996185302734375</ele>
        <time>2019-10-25T12:47:40.000Z</time>
      </trkpt>
      <trkpt lat="38.087175898253917694091796875" lon="-0.9438908100128173828125">
        <ele>30.3999996185302734375</ele>
        <time>2019-10-25T12:47:45.000Z</time>
      </trkpt>
      <trkpt lat="38.087043799459934234619140625" lon="-0.94409625045955181121826171875">
        <ele>31.3999996185302734375</ele>
        <time>2019-10-25T12:47:51.000Z</time>
      </trkpt>
      <trkpt lat="38.08692402206361293792724609375" lon="-0.94431350938975811004638671875">
        <ele>31.799999237060546875</ele>
        <time>2019-10-25T12:47:57.000Z</time>
      </trkpt>
      <trkpt lat="38.0868075974285602569580078125" lon="-0.94451249577105045318603515625">
        <ele>30.3999996185302734375</ele>
        <time>2019-10-25T12:48:02.000Z</time>
      </trkpt>
      <trkpt lat="38.08666669763624668121337890625" lon="-0.94468415714800357818603515625">
        <ele>31</ele>
        <time>2019-10-25T12:48:07.000Z</time>
      </trkpt>
      <trkpt lat="38.08655002154409885406494140625" lon="-0.94485950656235218048095703125">
        <ele>32</ele>
        <time>2019-10-25T12:48:12.000Z</time>
      </trkpt>
      <trkpt lat="38.08645882643759250640869140625" lon="-0.945074670016765594482421875">
        <ele>33.40000152587890625</ele>
        <time>2019-10-25T12:48:17.000Z</time>
      </trkpt>
      <trkpt lat="38.0863663740456104278564453125" lon="-0.94529335387051105499267578125">
        <ele>34.40000152587890625</ele>
        <time>2019-10-25T12:48:22.000Z</time>
      </trkpt>
      <trkpt lat="38.08624693192541599273681640625" lon="-0.945494435727596282958984375">
        <ele>35</ele>
        <time>2019-10-25T12:48:27.000Z</time>
      </trkpt>
      <trkpt lat="38.08616193942725658416748046875" lon="-0.9456783346831798553466796875">
        <ele>34.59999847412109375</ele>
        <time>2019-10-25T12:48:32.000Z</time>
      </trkpt>
      <trkpt lat="38.08605498634278774261474609375" lon="-0.94588511623442173004150390625">
        <ele>34.200000762939453125</ele>
        <time>2019-10-25T12:48:38.000Z</time>
      </trkpt>
      <trkpt lat="38.0860267393290996551513671875" lon="-0.94614763744175434112548828125">
        <ele>33.40000152587890625</ele>
        <time>2019-10-25T12:48:43.000Z</time>
      </trkpt>
      <trkpt lat="38.086004443466663360595703125" lon="-0.94638786278665065765380859375">
        <ele>33.59999847412109375</ele>
        <time>2019-10-25T12:48:47.000Z</time>
      </trkpt>
      <trkpt lat="38.0859933793544769287109375" lon="-0.9465061314404010772705078125">
        <ele>34</ele>
        <time>2019-10-25T12:48:49.000Z</time>
      </trkpt>
      <trkpt lat="38.08595440350472927093505859375" lon="-0.94666144810616970062255859375">
        <ele>34.799999237060546875</ele>
        <time>2019-10-25T12:48:52.000Z</time>
      </trkpt>
      <trkpt lat="38.08588407933712005615234375" lon="-0.94683294184505939483642578125">
        <ele>35.59999847412109375</ele>
        <time>2019-10-25T12:48:56.000Z</time>
      </trkpt>
      <trkpt lat="38.08586572296917438507080078125" lon="-0.94690737314522266387939453125">
        <ele>36.40000152587890625</ele>
        <time>2019-10-25T12:48:58.000Z</time>
      </trkpt>
      <trkpt lat="38.0858255736529827117919921875" lon="-0.94715162180364131927490234375">
        <ele>38.799999237060546875</ele>
        <time>2019-10-25T12:49:04.000Z</time>
      </trkpt>
      <trkpt lat="38.0857439339160919189453125" lon="-0.947385728359222412109375">
        <ele>39.59999847412109375</ele>
        <time>2019-10-25T12:49:10.000Z</time>
      </trkpt>
      <trkpt lat="38.085734546184539794921875" lon="-0.94762503169476985931396484375">
        <ele>40.40000152587890625</ele>
        <time>2019-10-25T12:49:16.000Z</time>
      </trkpt>
      <trkpt lat="38.0858109891414642333984375" lon="-0.947878248989582061767578125">
        <ele>40.59999847412109375</ele>
        <time>2019-10-25T12:49:24.000Z</time>
      </trkpt>
      <trkpt lat="38.0857866816222667694091796875" lon="-0.948115289211273193359375">
        <ele>36.59999847412109375</ele>
        <time>2019-10-25T12:49:31.000Z</time>
      </trkpt>
      <trkpt lat="38.08572893030941486358642578125" lon="-0.94840228557586669921875">
        <ele>33.40000152587890625</ele>
        <time>2019-10-25T12:49:36.000Z</time>
      </trkpt>
      <trkpt lat="38.08569942601025104522705078125" lon="-0.94867344014346599578857421875">
        <ele>33</ele>
        <time>2019-10-25T12:49:41.000Z</time>
      </trkpt>
      <trkpt lat="38.0855851806700229644775390625" lon="-0.9488544054329395294189453125">
        <ele>33.40000152587890625</ele>
        <time>2019-10-25T12:49:45.000Z</time>
      </trkpt>
      <trkpt lat="38.08546238578855991363525390625" lon="-0.94902866519987583160400390625">
        <ele>34</ele>
        <time>2019-10-25T12:49:52.000Z</time>
      </trkpt>
      <trkpt lat="38.08543573133647441864013671875" lon="-0.949061103165149688720703125">
        <ele>34</ele>
        <time>2019-10-25T12:49:56.000Z</time>
      </trkpt>
      <trkpt lat="38.08543640188872814178466796875" lon="-0.949063114821910858154296875">
        <ele>34</ele>
        <time>2019-10-25T12:49:57.000Z</time>
      </trkpt>
      <trkpt lat="38.085250072181224822998046875" lon="-0.949005782604217529296875">
        <ele>33.200000762939453125</ele>
        <time>2019-10-25T12:50:11.000Z</time>
      </trkpt>
      <trkpt lat="38.08521612547338008880615234375" lon="-0.9490036033093929290771484375">
        <ele>33.200000762939453125</ele>
        <time>2019-10-25T12:50:14.000Z</time>
      </trkpt>
      <trkpt lat="38.08522651903331279754638671875" lon="-0.94899346120655536651611328125">
        <ele>33.200000762939453125</ele>
        <time>2019-10-25T12:50:34.000Z</time>
      </trkpt>
      <trkpt lat="38.085313774645328521728515625" lon="-0.948952473700046539306640625">
        <ele>33.40000152587890625</ele>
        <time>2019-10-25T12:50:49.000Z</time>
      </trkpt>
      <trkpt lat="38.08538518846035003662109375" lon="-0.94914165325462818145751953125">
        <ele>34</ele>
        <time>2019-10-25T12:51:07.000Z</time>
      </trkpt>
      <trkpt lat="38.08545283041894435882568359375" lon="-0.94935354776680469512939453125">
        <ele>34.200000762939453125</ele>
        <time>2019-10-25T12:51:15.000Z</time>
      </trkpt>
      <trkpt lat="38.0855251662433147430419921875" lon="-0.94957147724926471710205078125">
        <ele>34.59999847412109375</ele>
        <time>2019-10-25T12:51:22.000Z</time>
      </trkpt>
      <trkpt lat="38.08555693365633487701416015625" lon="-0.94979896210134029388427734375">
        <ele>34</ele>
        <time>2019-10-25T12:51:30.000Z</time>
      </trkpt>
      <trkpt lat="38.08556917123496532440185546875" lon="-0.949800051748752593994140625">
        <ele>34</ele>
        <time>2019-10-25T12:51:31.000Z</time>
      </trkpt>
      <trkpt lat="38.085379488766193389892578125" lon="-0.94978136010468006134033203125">
        <ele>34.200000762939453125</ele>
        <time>2019-10-25T12:51:41.000Z</time>
      </trkpt>
      <trkpt lat="38.08536968193948268890380859375" lon="-0.9497874788939952850341796875">
        <ele>34.200000762939453125</ele>
        <time>2019-10-25T12:51:42.000Z</time>
      </trkpt>
      <trkpt lat="38.08535006828606128692626953125" lon="-0.94993290491402149200439453125">
        <ele>33.59999847412109375</ele>
        <time>2019-10-25T12:51:55.000Z</time>
      </trkpt>
      <trkpt lat="38.085324503481388092041015625" lon="-0.9501814283430576324462890625">
        <ele>33.200000762939453125</ele>
        <time>2019-10-25T12:52:00.000Z</time>
      </trkpt>
      <trkpt lat="38.0852877907454967498779296875" lon="-0.9504100866615772247314453125">
        <ele>31</ele>
        <time>2019-10-25T12:52:05.000Z</time>
      </trkpt>
      <trkpt lat="38.08527924120426177978515625" lon="-0.95064402557909488677978515625">
        <ele>29.200000762939453125</ele>
        <time>2019-10-25T12:52:11.000Z</time>
      </trkpt>
      <trkpt lat="38.085238672792911529541015625" lon="-0.95087251625955104827880859375">
        <ele>28.3999996185302734375</ele>
        <time>2019-10-25T12:52:18.000Z</time>
      </trkpt>
      <trkpt lat="38.0853082425892353057861328125" lon="-0.9509116597473621368408203125">
        <ele>27.799999237060546875</ele>
        <time>2019-10-25T12:52:22.000Z</time>
      </trkpt>
      <trkpt lat="38.08541527949273586273193359375" lon="-0.950933955609798431396484375">
        <ele>27.200000762939453125</ele>
        <time>2019-10-25T12:52:27.000Z</time>
      </trkpt>
      <trkpt lat="38.0854208953678607940673828125" lon="-0.95110821537673473358154296875">
        <ele>26.6000003814697265625</ele>
        <time>2019-10-25T12:52:32.000Z</time>
      </trkpt>
      <trkpt lat="38.08540538884699344635009765625" lon="-0.95135715790092945098876953125">
        <ele>25.3999996185302734375</ele>
        <time>2019-10-25T12:52:38.000Z</time>
      </trkpt>
      <trkpt lat="38.0854162015020847320556640625" lon="-0.9516026638448238372802734375">
        <ele>23.799999237060546875</ele>
        <time>2019-10-25T12:52:43.000Z</time>
      </trkpt>
      <trkpt lat="38.08541729114949703216552734375" lon="-0.95185319893062114715576171875">
        <ele>23</ele>
        <time>2019-10-25T12:52:48.000Z</time>
      </trkpt>
      <trkpt lat="38.08548216708004474639892578125" lon="-0.952069200575351715087890625">
        <ele>23</ele>
        <time>2019-10-25T12:52:55.000Z</time>
      </trkpt>
      <trkpt lat="38.0854004435241222381591796875" lon="-0.9522530995309352874755859375">
        <ele>23.3999996185302734375</ele>
        <time>2019-10-25T12:53:02.000Z</time>
      </trkpt>
      <trkpt lat="38.0852039717137813568115234375" lon="-0.95225620083510875701904296875">
        <ele>22.3999996185302734375</ele>
        <time>2019-10-25T12:53:08.000Z</time>
      </trkpt>
      <trkpt lat="38.0851726233959197998046875" lon="-0.9521292150020599365234375">
        <ele>22.799999237060546875</ele>
        <time>2019-10-25T12:54:46.000Z</time>
      </trkpt>
      <trkpt lat="38.08500037528574466705322265625" lon="-0.9520334936678409576416015625">
        <ele>22.6000003814697265625</ele>
        <time>2019-10-25T12:54:52.000Z</time>
      </trkpt>
      <trkpt lat="38.0848123691976070404052734375" lon="-0.952051095664501190185546875">
        <ele>22.799999237060546875</ele>
        <time>2019-10-25T12:54:58.000Z</time>
      </trkpt>
      <trkpt lat="38.08460064232349395751953125" lon="-0.95208135433495044708251953125">
        <ele>24</ele>
        <time>2019-10-25T12:55:04.000Z</time>
      </trkpt>
      <trkpt lat="38.0844093672931194305419921875" lon="-0.9521096013486385345458984375">
        <ele>24.200000762939453125</ele>
        <time>2019-10-25T12:55:10.000Z</time>
      </trkpt>
      <trkpt lat="38.084213733673095703125" lon="-0.9521199949085712432861328125">
        <ele>24.6000003814697265625</ele>
        <time>2019-10-25T12:55:19.000Z</time>
      </trkpt>
      <trkpt lat="38.08418833650648593902587890625" lon="-0.9521347470581531524658203125">
        <ele>24.799999237060546875</ele>
        <time>2019-10-25T12:55:21.000Z</time>
      </trkpt>
      <trkpt lat="38.08423720300197601318359375" lon="-0.952249579131603240966796875">
        <ele>25</ele>
        <time>2019-10-25T12:55:26.000Z</time>
      </trkpt>
      <trkpt lat="38.08440157212316989898681640625" lon="-0.95241746865212917327880859375">
        <ele>24.799999237060546875</ele>
        <time>2019-10-25T12:55:33.000Z</time>
      </trkpt>
      <trkpt lat="38.08457407169044017791748046875" lon="-0.95253749750554561614990234375">
        <ele>24.6000003814697265625</ele>
        <time>2019-10-25T12:55:39.000Z</time>
      </trkpt>
      <trkpt lat="38.0847650952637195587158203125" lon="-0.9526601247489452362060546875">
        <ele>23</ele>
        <time>2019-10-25T12:55:45.000Z</time>
      </trkpt>
      <trkpt lat="38.08491647243499755859375" lon="-0.952861122786998748779296875">
        <ele>21.200000762939453125</ele>
        <time>2019-10-25T12:55:50.000Z</time>
      </trkpt>
      <trkpt lat="38.0850628204643726348876953125" lon="-0.95305516384541988372802734375">
        <ele>21.799999237060546875</ele>
        <time>2019-10-25T12:55:56.000Z</time>
      </trkpt>
      <trkpt lat="38.08512442745268344879150390625" lon="-0.95315306447446346282958984375">
        <ele>22.6000003814697265625</ele>
        <time>2019-10-25T12:55:59.000Z</time>
      </trkpt>
      <trkpt lat="38.08525015600025653839111328125" lon="-0.953326486051082611083984375">
        <ele>24.200000762939453125</ele>
        <time>2019-10-25T12:56:04.000Z</time>
      </trkpt>
      <trkpt lat="38.08536699973046779632568359375" lon="-0.95350510440766811370849609375">
        <ele>25.799999237060546875</ele>
        <time>2019-10-25T12:56:10.000Z</time>
      </trkpt>
      <trkpt lat="38.08547914959490299224853515625" lon="-0.9536853991448879241943359375">
        <ele>24.3999996185302734375</ele>
        <time>2019-10-25T12:56:16.000Z</time>
      </trkpt>
      <trkpt lat="38.08558861725032329559326171875" lon="-0.95389603637158870697021484375">
        <ele>23.200000762939453125</ele>
        <time>2019-10-25T12:56:22.000Z</time>
      </trkpt>
      <trkpt lat="38.085695318877696990966796875" lon="-0.95412134192883968353271484375">
        <ele>21.200000762939453125</ele>
        <time>2019-10-25T12:56:28.000Z</time>
      </trkpt>
      <trkpt lat="38.08580470271408557891845703125" lon="-0.954358465969562530517578125">
        <ele>20.6000003814697265625</ele>
        <time>2019-10-25T12:56:34.000Z</time>
      </trkpt>
      <trkpt lat="38.0858983285725116729736328125" lon="-0.95455854199826717376708984375">
        <ele>20.3999996185302734375</ele>
        <time>2019-10-25T12:56:39.000Z</time>
      </trkpt>
      <trkpt lat="38.0860123224556446075439453125" lon="-0.95476993359625339508056640625">
        <ele>20</ele>
        <time>2019-10-25T12:56:45.000Z</time>
      </trkpt>
      <trkpt lat="38.08613729663193225860595703125" lon="-0.95499104820191860198974609375">
        <ele>20.6000003814697265625</ele>
        <time>2019-10-25T12:56:51.000Z</time>
      </trkpt>
      <trkpt lat="38.0862463451921939849853515625" lon="-0.9551753662526607513427734375">
        <ele>21.200000762939453125</ele>
        <time>2019-10-25T12:56:56.000Z</time>
      </trkpt>
      <trkpt lat="38.08637249283492565155029296875" lon="-0.9553922899067401885986328125">
        <ele>21.6000003814697265625</ele>
        <time>2019-10-25T12:57:02.000Z</time>
      </trkpt>
      <trkpt lat="38.08648011647164821624755859375" lon="-0.95562354661524295806884765625">
        <ele>21.799999237060546875</ele>
        <time>2019-10-25T12:57:08.000Z</time>
      </trkpt>
      <trkpt lat="38.0865735746920108795166015625" lon="-0.95584608614444732666015625">
        <ele>23.6000003814697265625</ele>
        <time>2019-10-25T12:57:13.000Z</time>
      </trkpt>
      <trkpt lat="38.08665630407631397247314453125" lon="-0.95607683993875980377197265625">
        <ele>25.200000762939453125</ele>
        <time>2019-10-25T12:57:18.000Z</time>
      </trkpt>
      <trkpt lat="38.08672134764492511749267578125" lon="-0.95630315132439136505126953125">
        <ele>24.6000003814697265625</ele>
        <time>2019-10-25T12:57:23.000Z</time>
      </trkpt>
      <trkpt lat="38.0867552943527698516845703125" lon="-0.9565426222980022430419921875">
        <ele>23</ele>
        <time>2019-10-25T12:57:28.000Z</time>
      </trkpt>
      <trkpt lat="38.08680835179984569549560546875" lon="-0.95680522732436656951904296875">
        <ele>21</ele>
        <time>2019-10-25T12:57:34.000Z</time>
      </trkpt>
      <trkpt lat="38.0868263728916645050048828125" lon="-0.95708124339580535888671875">
        <ele>20</ele>
        <time>2019-10-25T12:57:40.000Z</time>
      </trkpt>
      <trkpt lat="38.086817152798175811767578125" lon="-0.95733563415706157684326171875">
        <ele>20.200000762939453125</ele>
        <time>2019-10-25T12:57:45.000Z</time>
      </trkpt>
      <trkpt lat="38.08679200708866119384765625" lon="-0.957583151757717132568359375">
        <ele>21.799999237060546875</ele>
        <time>2019-10-25T12:57:50.000Z</time>
      </trkpt>
      <trkpt lat="38.0867445655167102813720703125" lon="-0.9578096307814121246337890625">
        <ele>23</ele>
        <time>2019-10-25T12:57:55.000Z</time>
      </trkpt>
      <trkpt lat="38.08669016696512699127197265625" lon="-0.95803921110928058624267578125">
        <ele>23.6000003814697265625</ele>
        <time>2019-10-25T12:58:00.000Z</time>
      </trkpt>
      <trkpt lat="38.08661389164626598358154296875" lon="-0.95828563906252384185791015625">
        <ele>23.3999996185302734375</ele>
        <time>2019-10-25T12:58:05.000Z</time>
      </trkpt>
      <trkpt lat="38.086532168090343475341796875" lon="-0.95852049998939037322998046875">
        <ele>22.799999237060546875</ele>
        <time>2019-10-25T12:58:10.000Z</time>
      </trkpt>
      <trkpt lat="38.0864585749804973602294921875" lon="-0.95872946083545684814453125">
        <ele>22.3999996185302734375</ele>
        <time>2019-10-25T12:58:15.000Z</time>
      </trkpt>
      <trkpt lat="38.086340390145778656005859375" lon="-0.958917550742626190185546875">
        <ele>22.799999237060546875</ele>
        <time>2019-10-25T12:58:20.000Z</time>
      </trkpt>
      <trkpt lat="38.08624408207833766937255859375" lon="-0.95911544747650623321533203125">
        <ele>23.200000762939453125</ele>
        <time>2019-10-25T12:58:25.000Z</time>
      </trkpt>
      <trkpt lat="38.086115755140781402587890625" lon="-0.95930689014494419097900390625">
        <ele>23.6000003814697265625</ele>
        <time>2019-10-25T12:58:30.000Z</time>
      </trkpt>
      <trkpt lat="38.0859724245965480804443359375" lon="-0.959492214024066925048828125">
        <ele>23.6000003814697265625</ele>
        <time>2019-10-25T12:58:35.000Z</time>
      </trkpt>
      <trkpt lat="38.08582632802426815032958984375" lon="-0.95963546074926853179931640625">
        <ele>24.3999996185302734375</ele>
        <time>2019-10-25T12:58:40.000Z</time>
      </trkpt>
      <trkpt lat="38.08567360974848270416259765625" lon="-0.95976789481937885284423828125">
        <ele>25</ele>
        <time>2019-10-25T12:58:45.000Z</time>
      </trkpt>
      <trkpt lat="38.08550278656184673309326171875" lon="-0.95991340465843677520751953125">
        <ele>25</ele>
        <time>2019-10-25T12:58:51.000Z</time>
      </trkpt>
      <trkpt lat="38.085326515138149261474609375" lon="-0.9600170888006687164306640625">
        <ele>25.200000762939453125</ele>
        <time>2019-10-25T12:58:56.000Z</time>
      </trkpt>
      <trkpt lat="38.08513197116553783416748046875" lon="-0.96014038659632205963134765625">
        <ele>25</ele>
        <time>2019-10-25T12:59:01.000Z</time>
      </trkpt>
      <trkpt lat="38.0849558673799037933349609375" lon="-0.9602266363799571990966796875">
        <ele>25.3999996185302734375</ele>
        <time>2019-10-25T12:59:05.000Z</time>
      </trkpt>
      <trkpt lat="38.08475964702665805816650390625" lon="-0.960346162319183349609375">
        <ele>25.799999237060546875</ele>
        <time>2019-10-25T12:59:10.000Z</time>
      </trkpt>
      <trkpt lat="38.08457960374653339385986328125" lon="-0.96047650091350078582763671875">
        <ele>26</ele>
        <time>2019-10-25T12:59:15.000Z</time>
      </trkpt>
      <trkpt lat="38.08440257795155048370361328125" lon="-0.96063039265573024749755859375">
        <ele>25.3999996185302734375</ele>
        <time>2019-10-25T12:59:20.000Z</time>
      </trkpt>
      <trkpt lat="38.08424851857125759124755859375" lon="-0.96077573485672473907470703125">
        <ele>25.6000003814697265625</ele>
        <time>2019-10-25T12:59:25.000Z</time>
      </trkpt>
      <trkpt lat="38.084216415882110595703125" lon="-0.9608066640794277191162109375">
        <ele>25.799999237060546875</ele>
        <time>2019-10-25T12:59:26.000Z</time>
      </trkpt>
      <trkpt lat="38.08406311087310314178466796875" lon="-0.9609692730009555816650390625">
        <ele>27</ele>
        <time>2019-10-25T12:59:31.000Z</time>
      </trkpt>
      <trkpt lat="38.0839329399168491363525390625" lon="-0.96114210784435272216796875">
        <ele>27.200000762939453125</ele>
        <time>2019-10-25T12:59:36.000Z</time>
      </trkpt>
      <trkpt lat="38.0838149227201938629150390625" lon="-0.9613213129341602325439453125">
        <ele>27.3999996185302734375</ele>
        <time>2019-10-25T12:59:41.000Z</time>
      </trkpt>
      <trkpt lat="38.083685673773288726806640625" lon="-0.961528681218624114990234375">
        <ele>26.799999237060546875</ele>
        <time>2019-10-25T12:59:47.000Z</time>
      </trkpt>
      <trkpt lat="38.0835832469165325164794921875" lon="-0.961720459163188934326171875">
        <ele>24.799999237060546875</ele>
        <time>2019-10-25T12:59:52.000Z</time>
      </trkpt>
      <trkpt lat="38.0834855139255523681640625" lon="-0.9619385562837123870849609375">
        <ele>22.3999996185302734375</ele>
        <time>2019-10-25T12:59:57.000Z</time>
      </trkpt>
      <trkpt lat="38.08346900157630443572998046875" lon="-0.961984656751155853271484375">
        <ele>22</ele>
        <time>2019-10-25T12:59:58.000Z</time>
      </trkpt>
      <trkpt lat="38.0833881162106990814208984375" lon="-0.9622278995811939239501953125">
        <ele>21</ele>
        <time>2019-10-25T13:00:03.000Z</time>
      </trkpt>
      <trkpt lat="38.08331242762506008148193359375" lon="-0.96246301196515560150146484375">
        <ele>21</ele>
        <time>2019-10-25T13:00:08.000Z</time>
      </trkpt>
      <trkpt lat="38.0832412652671337127685546875" lon="-0.962684042751789093017578125">
        <ele>21.799999237060546875</ele>
        <time>2019-10-25T13:00:13.000Z</time>
      </trkpt>
      <trkpt lat="38.08318183757364749908447265625" lon="-0.96290289424359798431396484375">
        <ele>22.200000762939453125</ele>
        <time>2019-10-25T13:00:18.000Z</time>
      </trkpt>
      <trkpt lat="38.08310841210186481475830078125" lon="-0.9631227515637874603271484375">
        <ele>22.799999237060546875</ele>
        <time>2019-10-25T13:00:23.000Z</time>
      </trkpt>
      <trkpt lat="38.0830340646207332611083984375" lon="-0.96336155198514461517333984375">
        <ele>22.6000003814697265625</ele>
        <time>2019-10-25T13:00:28.000Z</time>
      </trkpt>
      <trkpt lat="38.08295913040637969970703125" lon="-0.9635902941226959228515625">
        <ele>23</ele>
        <time>2019-10-25T13:00:33.000Z</time>
      </trkpt>
      <trkpt lat="38.08288377709686756134033203125" lon="-0.96382121555507183074951171875">
        <ele>23.6000003814697265625</ele>
        <time>2019-10-25T13:00:38.000Z</time>
      </trkpt>
      <trkpt lat="38.082793168723583221435546875" lon="-0.9640363790094852447509765625">
        <ele>24.6000003814697265625</ele>
        <time>2019-10-25T13:00:43.000Z</time>
      </trkpt>
      <trkpt lat="38.08269551955163478851318359375" lon="-0.96423947252333164215087890625">
        <ele>24.799999237060546875</ele>
        <time>2019-10-25T13:00:48.000Z</time>
      </trkpt>
      <trkpt lat="38.08258362114429473876953125" lon="-0.9644504450261592864990234375">
        <ele>24.3999996185302734375</ele>
        <time>2019-10-25T13:00:53.000Z</time>
      </trkpt>
      <trkpt lat="38.0824640952050685882568359375" lon="-0.96463124267756938934326171875">
        <ele>24.200000762939453125</ele>
        <time>2019-10-25T13:00:58.000Z</time>
      </trkpt>
      <trkpt lat="38.08234088122844696044921875" lon="-0.9648152254521846771240234375">
        <ele>24.200000762939453125</ele>
        <time>2019-10-25T13:01:03.000Z</time>
      </trkpt>
      <trkpt lat="38.08220232836902141571044921875" lon="-0.965025611221790313720703125">
        <ele>22.799999237060546875</ele>
        <time>2019-10-25T13:01:08.000Z</time>
      </trkpt>
      <trkpt lat="38.082056231796741485595703125" lon="-0.96521898172795772552490234375">
        <ele>21.799999237060546875</ele>
        <time>2019-10-25T13:01:13.000Z</time>
      </trkpt>
      <trkpt lat="38.08190678246319293975830078125" lon="-0.96542282961308956146240234375">
        <ele>21.799999237060546875</ele>
        <time>2019-10-25T13:01:18.000Z</time>
      </trkpt>
      <trkpt lat="38.08174610137939453125" lon="-0.9655965864658355712890625">
        <ele>22</ele>
        <time>2019-10-25T13:01:23.000Z</time>
      </trkpt>
      <trkpt lat="38.08157779276371002197265625" lon="-0.96575106494128704071044921875">
        <ele>22</ele>
        <time>2019-10-25T13:01:28.000Z</time>
      </trkpt>
      <trkpt lat="38.08140135370194911956787109375" lon="-0.9658988378942012786865234375">
        <ele>22</ele>
        <time>2019-10-25T13:01:33.000Z</time>
      </trkpt>
      <trkpt lat="38.08122717775404453277587890625" lon="-0.966028757393360137939453125">
        <ele>22.3999996185302734375</ele>
        <time>2019-10-25T13:01:38.000Z</time>
      </trkpt>
      <trkpt lat="38.08115844614803791046142578125" lon="-0.96608349122107028961181640625">
        <ele>22.799999237060546875</ele>
        <time>2019-10-25T13:01:40.000Z</time>
      </trkpt>
      <trkpt lat="38.08101779781281948089599609375" lon="-0.96619446761906147003173828125">
        <ele>23.799999237060546875</ele>
        <time>2019-10-25T13:01:44.000Z</time>
      </trkpt>
      <trkpt lat="38.080829121172428131103515625" lon="-0.9663199447095394134521484375">
        <ele>24</ele>
        <time>2019-10-25T13:01:49.000Z</time>
      </trkpt>
      <trkpt lat="38.0806504189968109130859375" lon="-0.96645288169384002685546875">
        <ele>24</ele>
        <time>2019-10-25T13:01:54.000Z</time>
      </trkpt>
      <trkpt lat="38.08048387058079242706298828125" lon="-0.9665814600884914398193359375">
        <ele>23.799999237060546875</ele>
        <time>2019-10-25T13:01:59.000Z</time>
      </trkpt>
      <trkpt lat="38.08031179010868072509765625" lon="-0.96670425496995449066162109375">
        <ele>23.3999996185302734375</ele>
        <time>2019-10-25T13:02:04.000Z</time>
      </trkpt>
      <trkpt lat="38.08027834631502628326416015625" lon="-0.9667299874126911163330078125">
        <ele>23.200000762939453125</ele>
        <time>2019-10-25T13:02:05.000Z</time>
      </trkpt>
      <trkpt lat="38.08011137880384922027587890625" lon="-0.9668664447963237762451171875">
        <ele>22.799999237060546875</ele>
        <time>2019-10-25T13:02:10.000Z</time>
      </trkpt>
      <trkpt lat="38.07993267662823200225830078125" lon="-0.96699242480099201202392578125">
        <ele>22.200000762939453125</ele>
        <time>2019-10-25T13:02:15.000Z</time>
      </trkpt>
      <trkpt lat="38.0798697285354137420654296875" lon="-0.967036597430706024169921875">
        <ele>22.200000762939453125</ele>
        <time>2019-10-25T13:02:17.000Z</time>
      </trkpt>
      <trkpt lat="38.079698570072650909423828125" lon="-0.96715955995023250579833984375">
        <ele>21.3999996185302734375</ele>
        <time>2019-10-25T13:02:22.000Z</time>
      </trkpt>
      <trkpt lat="38.0795592628419399261474609375" lon="-0.96724555827677249908447265625">
        <ele>21</ele>
        <time>2019-10-25T13:02:26.000Z</time>
      </trkpt>
      <trkpt lat="38.07939271442592144012451171875" lon="-0.967353098094463348388671875">
        <ele>21.6000003814697265625</ele>
        <time>2019-10-25T13:02:31.000Z</time>
      </trkpt>
      <trkpt lat="38.07922624982893466949462890625" lon="-0.967473797500133514404296875">
        <ele>22.6000003814697265625</ele>
        <time>2019-10-25T13:02:36.000Z</time>
      </trkpt>
      <trkpt lat="38.07905375026166439056396484375" lon="-0.967582426965236663818359375">
        <ele>23.799999237060546875</ele>
        <time>2019-10-25T13:02:41.000Z</time>
      </trkpt>
      <trkpt lat="38.07886473834514617919921875" lon="-0.9676992706954479217529296875">
        <ele>25</ele>
        <time>2019-10-25T13:02:46.000Z</time>
      </trkpt>
      <trkpt lat="38.07867237366735935211181640625" lon="-0.96783916465938091278076171875">
        <ele>26.200000762939453125</ele>
        <time>2019-10-25T13:02:51.000Z</time>
      </trkpt>
      <trkpt lat="38.07848746888339519500732421875" lon="-0.96797746606171131134033203125">
        <ele>27.200000762939453125</ele>
        <time>2019-10-25T13:02:56.000Z</time>
      </trkpt>
      <trkpt lat="38.07834413833916187286376953125" lon="-0.96810218878090381622314453125">
        <ele>27.6000003814697265625</ele>
        <time>2019-10-25T13:03:00.000Z</time>
      </trkpt>
      <trkpt lat="38.078167028725147247314453125" lon="-0.9682682342827320098876953125">
        <ele>27</ele>
        <time>2019-10-25T13:03:05.000Z</time>
      </trkpt>
      <trkpt lat="38.07799863629043102264404296875" lon="-0.9684276580810546875">
        <ele>24</ele>
        <time>2019-10-25T13:03:10.000Z</time>
      </trkpt>
      <trkpt lat="38.07784055359661579132080078125" lon="-0.968586243689060211181640625">
        <ele>21.799999237060546875</ele>
        <time>2019-10-25T13:03:15.000Z</time>
      </trkpt>
      <trkpt lat="38.07777106761932373046875" lon="-0.968650616705417633056640625">
        <ele>21.200000762939453125</ele>
        <time>2019-10-25T13:03:17.000Z</time>
      </trkpt>
      <trkpt lat="38.07759999297559261322021484375" lon="-0.968805849552154541015625">
        <ele>20</ele>
        <time>2019-10-25T13:03:22.000Z</time>
      </trkpt>
      <trkpt lat="38.077421374619007110595703125" lon="-0.9689662791788578033447265625">
        <ele>20.200000762939453125</ele>
        <time>2019-10-25T13:03:27.000Z</time>
      </trkpt>
      <trkpt lat="38.07734451256692409515380859375" lon="-0.96902235411107540130615234375">
        <ele>20.200000762939453125</ele>
        <time>2019-10-25T13:03:29.000Z</time>
      </trkpt>
      <trkpt lat="38.07720235548913478851318359375" lon="-0.9691630862653255462646484375">
        <ele>20.799999237060546875</ele>
        <time>2019-10-25T13:03:33.000Z</time>
      </trkpt>
      <trkpt lat="38.077056594192981719970703125" lon="-0.9693072549998760223388671875">
        <ele>21.200000762939453125</ele>
        <time>2019-10-25T13:03:37.000Z</time>
      </trkpt>
      <trkpt lat="38.0769833363592624664306640625" lon="-0.9693853743374347686767578125">
        <ele>21.3999996185302734375</ele>
        <time>2019-10-25T13:03:39.000Z</time>
      </trkpt>
      <trkpt lat="38.07683640159666538238525390625" lon="-0.96953432075679302215576171875">
        <ele>22</ele>
        <time>2019-10-25T13:03:43.000Z</time>
      </trkpt>
      <trkpt lat="38.0766839347779750823974609375" lon="-0.969674549996852874755859375">
        <ele>23.3999996185302734375</ele>
        <time>2019-10-25T13:03:47.000Z</time>
      </trkpt>
      <trkpt lat="38.0765749700367450714111328125" lon="-0.96977504901587963104248046875">
        <ele>24.6000003814697265625</ele>
        <time>2019-10-25T13:03:50.000Z</time>
      </trkpt>
      <trkpt lat="38.07643339969217777252197265625" lon="-0.96992609091103076934814453125">
        <ele>25.6000003814697265625</ele>
        <time>2019-10-25T13:03:54.000Z</time>
      </trkpt>
      <trkpt lat="38.0762695334851741790771484375" lon="-0.97008593380451202392578125">
        <ele>26.799999237060546875</ele>
        <time>2019-10-25T13:03:59.000Z</time>
      </trkpt>
      <trkpt lat="38.07609259150922298431396484375" lon="-0.970088280737400054931640625">
        <ele>28.200000762939453125</ele>
        <time>2019-10-25T13:04:04.000Z</time>
      </trkpt>
      <trkpt lat="38.07595764286816120147705078125" lon="-0.96994302235543727874755859375">
        <ele>28.3999996185302734375</ele>
        <time>2019-10-25T13:04:08.000Z</time>
      </trkpt>
      <trkpt lat="38.07584230788052082061767578125" lon="-0.96976398490369319915771484375">
        <ele>28.3999996185302734375</ele>
        <time>2019-10-25T13:04:12.000Z</time>
      </trkpt>
      <trkpt lat="38.07581716217100620269775390625" lon="-0.969722159206867218017578125">
        <ele>28.3999996185302734375</ele>
        <time>2019-10-25T13:04:13.000Z</time>
      </trkpt>
      <trkpt lat="38.07577659375965595245361328125" lon="-0.9696546010673046112060546875">
        <ele>28.200000762939453125</ele>
        <time>2019-10-25T13:04:15.000Z</time>
      </trkpt>
      <trkpt lat="38.0757119692862033843994140625" lon="-0.96952744759619235992431640625">
        <ele>27.3999996185302734375</ele>
        <time>2019-10-25T13:04:19.000Z</time>
      </trkpt>
      <trkpt lat="38.0756784416735172271728515625" lon="-0.9694698639214038848876953125">
        <ele>26.799999237060546875</ele>
        <time>2019-10-25T13:04:21.000Z</time>
      </trkpt>
      <trkpt lat="38.07564030401408672332763671875" lon="-0.96938394941389560699462890625">
        <ele>26</ele>
        <time>2019-10-25T13:04:24.000Z</time>
      </trkpt>
      <trkpt lat="38.07562454603612422943115234375" lon="-0.9693474881350994110107421875">
        <ele>25.6000003814697265625</ele>
        <time>2019-10-25T13:04:26.000Z</time>
      </trkpt>
      <trkpt lat="38.0756258033215999603271484375" lon="-0.96934321336448192596435546875">
        <ele>25.6000003814697265625</ele>
        <time>2019-10-25T13:06:41.000Z</time>
      </trkpt>
      <trkpt lat="38.07568053714931011199951171875" lon="-0.9694349952042102813720703125">
        <ele>26.3999996185302734375</ele>
        <time>2019-10-25T13:07:35.000Z</time>
      </trkpt>
      <trkpt lat="38.0757602490484714508056640625" lon="-0.96965552307665348052978515625">
        <ele>28.200000762939453125</ele>
        <time>2019-10-25T13:07:42.000Z</time>
      </trkpt>
      <trkpt lat="38.07588337920606136322021484375" lon="-0.969862639904022216796875">
        <ele>28.799999237060546875</ele>
        <time>2019-10-25T13:07:48.000Z</time>
      </trkpt>
      <trkpt lat="38.07603274472057819366455078125" lon="-0.9700565971434116363525390625">
        <ele>28.3999996185302734375</ele>
        <time>2019-10-25T13:07:54.000Z</time>
      </trkpt>
      <trkpt lat="38.07616685517132282257080078125" lon="-0.97023253329098224639892578125">
        <ele>27.799999237060546875</ele>
        <time>2019-10-25T13:08:01.000Z</time>
      </trkpt>
      <trkpt lat="38.07622184045612812042236328125" lon="-0.97030528821051120758056640625">
        <ele>27.799999237060546875</ele>
        <time>2019-10-25T13:08:06.000Z</time>
      </trkpt>
      <trkpt lat="38.0761055834591388702392578125" lon="-0.970518104732036590576171875">
        <ele>28.6000003814697265625</ele>
        <time>2019-10-25T13:08:17.000Z</time>
      </trkpt>
      <trkpt lat="38.07607113383710384368896484375" lon="-0.970527827739715576171875">
        <ele>28.799999237060546875</ele>
        <time>2019-10-25T13:08:18.000Z</time>
      </trkpt>
      <trkpt lat="38.075877763330936431884765625" lon="-0.97057719714939594268798828125">
        <ele>28.200000762939453125</ele>
        <time>2019-10-25T13:08:27.000Z</time>
      </trkpt>
      <trkpt lat="38.07585756294429302215576171875" lon="-0.97059949301183223724365234375">
        <ele>28</ele>
        <time>2019-10-25T13:08:29.000Z</time>
      </trkpt>
      <trkpt lat="38.07571708224713802337646484375" lon="-0.97070979885756969451904296875">
        <ele>27</ele>
        <time>2019-10-25T13:08:55.000Z</time>
      </trkpt>
      <trkpt lat="38.07557257823646068572998046875" lon="-0.970867462456226348876953125">
        <ele>26</ele>
        <time>2019-10-25T13:09:02.000Z</time>
      </trkpt>
      <trkpt lat="38.075431175529956817626953125" lon="-0.97103920765221118927001953125">
        <ele>24.799999237060546875</ele>
        <time>2019-10-25T13:09:08.000Z</time>
      </trkpt>
      <trkpt lat="38.07530737482011318206787109375" lon="-0.97121824510395526885986328125">
        <ele>23.6000003814697265625</ele>
        <time>2019-10-25T13:09:14.000Z</time>
      </trkpt>
      <trkpt lat="38.07520687580108642578125" lon="-0.971422679722309112548828125">
        <ele>23.799999237060546875</ele>
        <time>2019-10-25T13:09:21.000Z</time>
      </trkpt>
      <trkpt lat="38.0751386471092700958251953125" lon="-0.97157347016036510467529296875">
        <ele>24.200000762939453125</ele>
        <time>2019-10-25T13:09:30.000Z</time>
      </trkpt>
      <trkpt lat="38.07508408091962337493896484375" lon="-0.971654020249843597412109375">
        <ele>24.3999996185302734375</ele>
        <time>2019-10-25T13:09:54.000Z</time>
      </trkpt>
      <trkpt lat="38.07504233904182910919189453125" lon="-0.97174848429858684539794921875">
        <ele>24.799999237060546875</ele>
        <time>2019-10-25T13:09:58.000Z</time>
      </trkpt>
      <trkpt lat="38.07494745589792728424072265625" lon="-0.97195954062044620513916015625">
        <ele>25</ele>
        <time>2019-10-25T13:10:05.000Z</time>
      </trkpt>
      <trkpt lat="38.07487084530293941497802734375" lon="-0.97217696718871593475341796875">
        <ele>24.3999996185302734375</ele>
        <time>2019-10-25T13:10:10.000Z</time>
      </trkpt>
      <trkpt lat="38.07479918003082275390625" lon="-0.97243680618703365325927734375">
        <ele>23.200000762939453125</ele>
        <time>2019-10-25T13:10:15.000Z</time>
      </trkpt>
      <trkpt lat="38.07478501461446285247802734375" lon="-0.972494222223758697509765625">
        <ele>23</ele>
        <time>2019-10-25T13:10:16.000Z</time>
      </trkpt>
      <trkpt lat="38.07473455555737018585205078125" lon="-0.97272128798067569732666015625">
        <ele>22.6000003814697265625</ele>
        <time>2019-10-25T13:10:20.000Z</time>
      </trkpt>
      <trkpt lat="38.074702955782413482666015625" lon="-0.972948856651782989501953125">
        <ele>22.200000762939453125</ele>
        <time>2019-10-25T13:10:24.000Z</time>
      </trkpt>
      <trkpt lat="38.07468409650027751922607421875" lon="-0.9731853939592838287353515625">
        <ele>22.799999237060546875</ele>
        <time>2019-10-25T13:10:29.000Z</time>
      </trkpt>
      <trkpt lat="38.07465995661914348602294921875" lon="-0.973429977893829345703125">
        <ele>24.200000762939453125</ele>
        <time>2019-10-25T13:10:36.000Z</time>
      </trkpt>
      <trkpt lat="38.07464025914669036865234375" lon="-0.97368302755057811737060546875">
        <ele>25.6000003814697265625</ele>
        <time>2019-10-25T13:10:43.000Z</time>
      </trkpt>
      <trkpt lat="38.074629195034503936767578125" lon="-0.97392409108579158782958984375">
        <ele>27.200000762939453125</ele>
        <time>2019-10-25T13:10:49.000Z</time>
      </trkpt>
      <trkpt lat="38.07460698299109935760498046875" lon="-0.9741754643619060516357421875">
        <ele>28.6000003814697265625</ele>
        <time>2019-10-25T13:10:55.000Z</time>
      </trkpt>
      <trkpt lat="38.07458116672933101654052734375" lon="-0.97443245351314544677734375">
        <ele>27.799999237060546875</ele>
        <time>2019-10-25T13:11:01.000Z</time>
      </trkpt>
      <trkpt lat="38.0745470523834228515625" lon="-0.97466656006872653961181640625">
        <ele>26.200000762939453125</ele>
        <time>2019-10-25T13:11:06.000Z</time>
      </trkpt>
      <trkpt lat="38.07448946870863437652587890625" lon="-0.97491131164133548736572265625">
        <ele>24.799999237060546875</ele>
        <time>2019-10-25T13:11:11.000Z</time>
      </trkpt>
      <trkpt lat="38.07442643679678440093994140625" lon="-0.97513385117053985595703125">
        <ele>25</ele>
        <time>2019-10-25T13:11:15.000Z</time>
      </trkpt>
      <trkpt lat="38.074346892535686492919921875" lon="-0.97537365742027759552001953125">
        <ele>25</ele>
        <time>2019-10-25T13:11:19.000Z</time>
      </trkpt>
      <trkpt lat="38.074251674115657806396484375" lon="-0.97560248337686061859130859375">
        <ele>24.3999996185302734375</ele>
        <time>2019-10-25T13:11:23.000Z</time>
      </trkpt>
      <trkpt lat="38.0741487443447113037109375" lon="-0.97579308785498142242431640625">
        <ele>24.6000003814697265625</ele>
        <time>2019-10-25T13:11:27.000Z</time>
      </trkpt>
      <trkpt lat="38.07410021312534809112548828125" lon="-0.97587414085865020751953125">
        <ele>24.799999237060546875</ele>
        <time>2019-10-25T13:11:29.000Z</time>
      </trkpt>
      <trkpt lat="38.07396191172301769256591796875" lon="-0.97606348805129528045654296875">
        <ele>25.3999996185302734375</ele>
        <time>2019-10-25T13:11:34.000Z</time>
      </trkpt>
      <trkpt lat="38.07393483817577362060546875" lon="-0.97610372118651866912841796875">
        <ele>25.3999996185302734375</ele>
        <time>2019-10-25T13:11:35.000Z</time>
      </trkpt>
      <trkpt lat="38.0738401226699352264404296875" lon="-0.9762699343264102935791015625">
        <ele>25.6000003814697265625</ele>
        <time>2019-10-25T13:11:39.000Z</time>
      </trkpt>
      <trkpt lat="38.0737046711146831512451171875" lon="-0.9764595329761505126953125">
        <ele>25.200000762939453125</ele>
        <time>2019-10-25T13:11:44.000Z</time>
      </trkpt>
      <trkpt lat="38.073640130460262298583984375" lon="-0.9765800647437572479248046875">
        <ele>25.3999996185302734375</ele>
        <time>2019-10-25T13:11:47.000Z</time>
      </trkpt>
      <trkpt lat="38.07353996671736240386962890625" lon="-0.97677242942154407501220703125">
        <ele>26.799999237060546875</ele>
        <time>2019-10-25T13:11:52.000Z</time>
      </trkpt>
      <trkpt lat="38.07347978465259075164794921875" lon="-0.9768774546682834625244140625">
        <ele>27.200000762939453125</ele>
        <time>2019-10-25T13:11:55.000Z</time>
      </trkpt>
      <trkpt lat="38.07336394675076007843017578125" lon="-0.97709320485591888427734375">
        <ele>28.200000762939453125</ele>
        <time>2019-10-25T13:12:02.000Z</time>
      </trkpt>
      <trkpt lat="38.0733549781143665313720703125" lon="-0.97716922871768474578857421875">
        <ele>27.799999237060546875</ele>
        <time>2019-10-25T13:12:04.000Z</time>
      </trkpt>
      <trkpt lat="38.0734996497631072998046875" lon="-0.97731046378612518310546875">
        <ele>27</ele>
        <time>2019-10-25T13:12:11.000Z</time>
      </trkpt>
      <trkpt lat="38.073656894266605377197265625" lon="-0.9774263016879558563232421875">
        <ele>26.200000762939453125</ele>
        <time>2019-10-25T13:12:16.000Z</time>
      </trkpt>
      <trkpt lat="38.07382947765290737152099609375" lon="-0.97753803245723247528076171875">
        <ele>25.799999237060546875</ele>
        <time>2019-10-25T13:12:21.000Z</time>
      </trkpt>
      <trkpt lat="38.073874153196811676025390625" lon="-0.97761011682450771331787109375">
        <ele>26</ele>
        <time>2019-10-25T13:12:23.000Z</time>
      </trkpt>
      <trkpt lat="38.07378597557544708251953125" lon="-0.9778054989874362945556640625">
        <ele>26</ele>
        <time>2019-10-25T13:12:28.000Z</time>
      </trkpt>
      <trkpt lat="38.07373903691768646240234375" lon="-0.977904908359050750732421875">
        <ele>25.799999237060546875</ele>
        <time>2019-10-25T13:12:30.000Z</time>
      </trkpt>
      <trkpt lat="38.07363669387996196746826171875" lon="-0.9781144559383392333984375">
        <ele>25.6000003814697265625</ele>
        <time>2019-10-25T13:12:34.000Z</time>
      </trkpt>
      <trkpt lat="38.07352957315742969512939453125" lon="-0.97830648533999919891357421875">
        <ele>25.6000003814697265625</ele>
        <time>2019-10-25T13:12:38.000Z</time>
      </trkpt>
      <trkpt lat="38.07341557927429676055908203125" lon="-0.978537909686565399169921875">
        <ele>26.6000003814697265625</ele>
        <time>2019-10-25T13:12:43.000Z</time>
      </trkpt>
      <trkpt lat="38.0732958018779754638671875" lon="-0.9787600301206111907958984375">
        <ele>28</ele>
        <time>2019-10-25T13:12:48.000Z</time>
      </trkpt>
      <trkpt lat="38.07317518629133701324462890625" lon="-0.97897770814597606658935546875">
        <ele>26.799999237060546875</ele>
        <time>2019-10-25T13:12:53.000Z</time>
      </trkpt>
      <trkpt lat="38.07303495705127716064453125" lon="-0.97918926738202571868896484375">
        <ele>25.799999237060546875</ele>
        <time>2019-10-25T13:12:58.000Z</time>
      </trkpt>
      <trkpt lat="38.07289288379251956939697265625" lon="-0.97939982078969478607177734375">
        <ele>26</ele>
        <time>2019-10-25T13:13:03.000Z</time>
      </trkpt>
      <trkpt lat="38.07273496873676776885986328125" lon="-0.97958589904010295867919921875">
        <ele>28</ele>
        <time>2019-10-25T13:13:08.000Z</time>
      </trkpt>
      <trkpt lat="38.07256598956882953643798828125" lon="-0.9797680377960205078125">
        <ele>28.3999996185302734375</ele>
        <time>2019-10-25T13:13:13.000Z</time>
      </trkpt>
      <trkpt lat="38.0723960883915424346923828125" lon="-0.97993525676429271697998046875">
        <ele>27.3999996185302734375</ele>
        <time>2019-10-25T13:13:18.000Z</time>
      </trkpt>
      <trkpt lat="38.07221864350140094757080078125" lon="-0.98010926507413387298583984375">
        <ele>25.6000003814697265625</ele>
        <time>2019-10-25T13:13:23.000Z</time>
      </trkpt>
      <trkpt lat="38.07207061909139156341552734375" lon="-0.98026097752153873443603515625">
        <ele>24.200000762939453125</ele>
        <time>2019-10-25T13:13:27.000Z</time>
      </trkpt>
      <trkpt lat="38.0719250254333019256591796875" lon="-0.98041151650249958038330078125">
        <ele>23.799999237060546875</ele>
        <time>2019-10-25T13:13:31.000Z</time>
      </trkpt>
      <trkpt lat="38.0717895738780498504638671875" lon="-0.98058016039431095123291015625">
        <ele>22.6000003814697265625</ele>
        <time>2019-10-25T13:13:35.000Z</time>
      </trkpt>
      <trkpt lat="38.07166225276887416839599609375" lon="-0.9807763807475566864013671875">
        <ele>23</ele>
        <time>2019-10-25T13:13:39.000Z</time>
      </trkpt>
      <trkpt lat="38.0715411342680454254150390625" lon="-0.9809772111475467681884765625">
        <ele>24</ele>
        <time>2019-10-25T13:13:43.000Z</time>
      </trkpt>
      <trkpt lat="38.07144029997289180755615234375" lon="-0.9811964817345142364501953125">
        <ele>25.200000762939453125</ele>
        <time>2019-10-25T13:13:47.000Z</time>
      </trkpt>
      <trkpt lat="38.07134541682898998260498046875" lon="-0.981430672109127044677734375">
        <ele>25.799999237060546875</ele>
        <time>2019-10-25T13:13:51.000Z</time>
      </trkpt>
      <trkpt lat="38.07126092724502086639404296875" lon="-0.9816866554319858551025390625">
        <ele>25.3999996185302734375</ele>
        <time>2019-10-25T13:13:55.000Z</time>
      </trkpt>
      <trkpt lat="38.07120007462799549102783203125" lon="-0.98195797763764858245849609375">
        <ele>25.799999237060546875</ele>
        <time>2019-10-25T13:13:59.000Z</time>
      </trkpt>
      <trkpt lat="38.0711666308343410491943359375" lon="-0.98223776556551456451416015625">
        <ele>27.799999237060546875</ele>
        <time>2019-10-25T13:14:03.000Z</time>
      </trkpt>
      <trkpt lat="38.07114911265671253204345703125" lon="-0.9825347363948822021484375">
        <ele>29.3999996185302734375</ele>
        <time>2019-10-25T13:14:07.000Z</time>
      </trkpt>
      <trkpt lat="38.07114458642899990081787109375" lon="-0.98283371888101100921630859375">
        <ele>30.6000003814697265625</ele>
        <time>2019-10-25T13:14:11.000Z</time>
      </trkpt>
      <trkpt lat="38.071142993867397308349609375" lon="-0.983128510415554046630859375">
        <ele>30</ele>
        <time>2019-10-25T13:14:15.000Z</time>
      </trkpt>
      <trkpt lat="38.0711419880390167236328125" lon="-0.9834240563213825225830078125">
        <ele>30</ele>
        <time>2019-10-25T13:14:19.000Z</time>
      </trkpt>
      <trkpt lat="38.07113385759294033050537109375" lon="-0.9837117232382297515869140625">
        <ele>27.799999237060546875</ele>
        <time>2019-10-25T13:14:23.000Z</time>
      </trkpt>
      <trkpt lat="38.071137964725494384765625" lon="-0.98401657305657863616943359375">
        <ele>26</ele>
        <time>2019-10-25T13:14:27.000Z</time>
      </trkpt>
      <trkpt lat="38.071131594479084014892578125" lon="-0.9842513501644134521484375">
        <ele>25.6000003814697265625</ele>
        <time>2019-10-25T13:14:30.000Z</time>
      </trkpt>
      <trkpt lat="38.071117512881755828857421875" lon="-0.9844888933002948760986328125">
        <ele>24.200000762939453125</ele>
        <time>2019-10-25T13:14:33.000Z</time>
      </trkpt>
      <trkpt lat="38.07109178043901920318603515625" lon="-0.98478552885353565216064453125">
        <ele>23.200000762939453125</ele>
        <time>2019-10-25T13:14:37.000Z</time>
      </trkpt>
      <trkpt lat="38.0710633657872676849365234375" lon="-0.9850467927753925323486328125">
        <ele>21.6000003814697265625</ele>
        <time>2019-10-25T13:14:41.000Z</time>
      </trkpt>
      <trkpt lat="38.07100184261798858642578125" lon="-0.9852947294712066650390625">
        <ele>23.3999996185302734375</ele>
        <time>2019-10-25T13:14:45.000Z</time>
      </trkpt>
      <trkpt lat="38.07093051262199878692626953125" lon="-0.9855446778237819671630859375">
        <ele>26</ele>
        <time>2019-10-25T13:14:49.000Z</time>
      </trkpt>
      <trkpt lat="38.07085172273218631744384765625" lon="-0.98580636084079742431640625">
        <ele>27.3999996185302734375</ele>
        <time>2019-10-25T13:14:53.000Z</time>
      </trkpt>
      <trkpt lat="38.07075751014053821563720703125" lon="-0.98605806939303874969482421875">
        <ele>27.3999996185302734375</ele>
        <time>2019-10-25T13:14:57.000Z</time>
      </trkpt>
      <trkpt lat="38.07073018513619899749755859375" lon="-0.9861195087432861328125">
        <ele>27.200000762939453125</ele>
        <time>2019-10-25T13:14:58.000Z</time>
      </trkpt>
      <trkpt lat="38.07062088511884212493896484375" lon="-0.9863614104688167572021484375">
        <ele>25.6000003814697265625</ele>
        <time>2019-10-25T13:15:02.000Z</time>
      </trkpt>
      <trkpt lat="38.07048275135457515716552734375" lon="-0.9865729697048664093017578125">
        <ele>23.6000003814697265625</ele>
        <time>2019-10-25T13:15:06.000Z</time>
      </trkpt>
      <trkpt lat="38.07033975608646869659423828125" lon="-0.9867768175899982452392578125">
        <ele>23.200000762939453125</ele>
        <time>2019-10-25T13:15:10.000Z</time>
      </trkpt>
      <trkpt lat="38.070187456905841827392578125" lon="-0.986975133419036865234375">
        <ele>22.799999237060546875</ele>
        <time>2019-10-25T13:15:14.000Z</time>
      </trkpt>
      <trkpt lat="38.07002711109817028045654296875" lon="-0.9871613793075084686279296875">
        <ele>23.799999237060546875</ele>
        <time>2019-10-25T13:15:18.000Z</time>
      </trkpt>
      <trkpt lat="38.069854862987995147705078125" lon="-0.98733429796993732452392578125">
        <ele>24.799999237060546875</ele>
        <time>2019-10-25T13:15:22.000Z</time>
      </trkpt>
      <trkpt lat="38.0696833692491054534912109375" lon="-0.987503863871097564697265625">
        <ele>24.200000762939453125</ele>
        <time>2019-10-25T13:15:26.000Z</time>
      </trkpt>
      <trkpt lat="38.0695083551108837127685546875" lon="-0.987679548561573028564453125">
        <ele>24</ele>
        <time>2019-10-25T13:15:30.000Z</time>
      </trkpt>
      <trkpt lat="38.06933459825813770294189453125" lon="-0.9878584183752536773681640625">
        <ele>25.200000762939453125</ele>
        <time>2019-10-25T13:15:34.000Z</time>
      </trkpt>
      <trkpt lat="38.06916343979537487030029296875" lon="-0.988019518554210662841796875">
        <ele>26.200000762939453125</ele>
        <time>2019-10-25T13:15:38.000Z</time>
      </trkpt>
      <trkpt lat="38.06900669820606708526611328125" lon="-0.9882040880620479583740234375">
        <ele>26.6000003814697265625</ele>
        <time>2019-10-25T13:15:42.000Z</time>
      </trkpt>
      <trkpt lat="38.06885741651058197021484375" lon="-0.98841086961328983306884765625">
        <ele>25</ele>
        <time>2019-10-25T13:15:46.000Z</time>
      </trkpt>
      <trkpt lat="38.068718947470188140869140625" lon="-0.9886322356760501861572265625">
        <ele>24</ele>
        <time>2019-10-25T13:15:50.000Z</time>
      </trkpt>
      <trkpt lat="38.06859950534999370574951171875" lon="-0.98887237720191478729248046875">
        <ele>24</ele>
        <time>2019-10-25T13:15:54.000Z</time>
      </trkpt>
      <trkpt lat="38.06848752312362194061279296875" lon="-0.9891177155077457427978515625">
        <ele>24</ele>
        <time>2019-10-25T13:15:58.000Z</time>
      </trkpt>
      <trkpt lat="38.06837260723114013671875" lon="-0.98935383372008800506591796875">
        <ele>24.200000762939453125</ele>
        <time>2019-10-25T13:16:02.000Z</time>
      </trkpt>
      <trkpt lat="38.06826791726052761077880859375" lon="-0.98958970047533512115478515625">
        <ele>24.799999237060546875</ele>
        <time>2019-10-25T13:16:06.000Z</time>
      </trkpt>
      <trkpt lat="38.0681809969246387481689453125" lon="-0.989801175892353057861328125">
        <ele>25.799999237060546875</ele>
        <time>2019-10-25T13:16:10.000Z</time>
      </trkpt>
      <trkpt lat="38.06809189729392528533935546875" lon="-0.9900068677961826324462890625">
        <ele>26</ele>
        <time>2019-10-25T13:16:14.000Z</time>
      </trkpt>
      <trkpt lat="38.0679858662188053131103515625" lon="-0.99023829214274883270263671875">
        <ele>27.200000762939453125</ele>
        <time>2019-10-25T13:16:19.000Z</time>
      </trkpt>
      <trkpt lat="38.06795191951096057891845703125" lon="-0.990306772291660308837890625">
        <ele>28</ele>
        <time>2019-10-25T13:16:21.000Z</time>
      </trkpt>
      <trkpt lat="38.06785938329994678497314453125" lon="-0.99053417332470417022705078125">
        <ele>29.200000762939453125</ele>
        <time>2019-10-25T13:16:27.000Z</time>
      </trkpt>
      <trkpt lat="38.06776097975671291351318359375" lon="-0.99076501093804836273193359375">
        <ele>29.799999237060546875</ele>
        <time>2019-10-25T13:16:32.000Z</time>
      </trkpt>
      <trkpt lat="38.06767816655337810516357421875" lon="-0.9909972734749317169189453125">
        <ele>31</ele>
        <time>2019-10-25T13:16:36.000Z</time>
      </trkpt>
      <trkpt lat="38.067653439939022064208984375" lon="-0.99104681052267551422119140625">
        <ele>31</ele>
        <time>2019-10-25T13:16:37.000Z</time>
      </trkpt>
      <trkpt lat="38.06760792620480060577392578125" lon="-0.99112249910831451416015625">
        <ele>31.200000762939453125</ele>
        <time>2019-10-25T13:16:39.000Z</time>
      </trkpt>
      <trkpt lat="38.0674807727336883544921875" lon="-0.9913270175457000732421875">
        <ele>31</ele>
        <time>2019-10-25T13:16:46.000Z</time>
      </trkpt>
      <trkpt lat="38.06738077662885189056396484375" lon="-0.9915471263229846954345703125">
        <ele>29.799999237060546875</ele>
        <time>2019-10-25T13:16:52.000Z</time>
      </trkpt>
      <trkpt lat="38.06728295981884002685546875" lon="-0.99174452014267444610595703125">
        <ele>26.6000003814697265625</ele>
        <time>2019-10-25T13:16:58.000Z</time>
      </trkpt>
      <trkpt lat="38.06725479662418365478515625" lon="-0.99181476049125194549560546875">
        <ele>25.6000003814697265625</ele>
        <time>2019-10-25T13:17:00.000Z</time>
      </trkpt>
      <trkpt lat="38.06718774139881134033203125" lon="-0.991975776851177215576171875">
        <ele>25</ele>
        <time>2019-10-25T13:17:05.000Z</time>
      </trkpt>
      <trkpt lat="38.06714809499680995941162109375" lon="-0.992057584226131439208984375">
        <ele>24.3999996185302734375</ele>
        <time>2019-10-25T13:17:09.000Z</time>
      </trkpt>
      <trkpt lat="38.067060671746730804443359375" lon="-0.99228389561176300048828125">
        <ele>25.3999996185302734375</ele>
        <time>2019-10-25T13:17:15.000Z</time>
      </trkpt>
      <trkpt lat="38.06695966981351375579833984375" lon="-0.99250341765582561492919921875">
        <ele>27</ele>
        <time>2019-10-25T13:17:20.000Z</time>
      </trkpt>
      <trkpt lat="38.06685422547161579132080078125" lon="-0.9927383624017238616943359375">
        <ele>28.799999237060546875</ele>
        <time>2019-10-25T13:17:25.000Z</time>
      </trkpt>
      <trkpt lat="38.066750876605510711669921875" lon="-0.99294648505747318267822265625">
        <ele>30.200000762939453125</ele>
        <time>2019-10-25T13:17:30.000Z</time>
      </trkpt>
      <trkpt lat="38.06665398180484771728515625" lon="-0.993159301578998565673828125">
        <ele>30</ele>
        <time>2019-10-25T13:17:35.000Z</time>
      </trkpt>
      <trkpt lat="38.0665492080152034759521484375" lon="-0.9933869540691375732421875">
        <ele>30</ele>
        <time>2019-10-25T13:17:40.000Z</time>
      </trkpt>
      <trkpt lat="38.06643865071237087249755859375" lon="-0.99363296292722225189208984375">
        <ele>28</ele>
        <time>2019-10-25T13:17:45.000Z</time>
      </trkpt>
      <trkpt lat="38.06634686887264251708984375" lon="-0.99383194930851459503173828125">
        <ele>26</ele>
        <time>2019-10-25T13:17:49.000Z</time>
      </trkpt>
      <trkpt lat="38.06623782031238079071044921875" lon="-0.9940784610807895660400390625">
        <ele>24.200000762939453125</ele>
        <time>2019-10-25T13:17:54.000Z</time>
      </trkpt>
      <trkpt lat="38.06614033877849578857421875" lon="-0.99429287016391754150390625">
        <ele>25</ele>
        <time>2019-10-25T13:17:59.000Z</time>
      </trkpt>
      <trkpt lat="38.06605677120387554168701171875" lon="-0.9945072792470455169677734375">
        <ele>25.6000003814697265625</ele>
        <time>2019-10-25T13:18:07.000Z</time>
      </trkpt>
      <trkpt lat="38.06604512035846710205078125" lon="-0.9945161640644073486328125">
        <ele>25.6000003814697265625</ele>
        <time>2019-10-25T13:18:08.000Z</time>
      </trkpt>
      <trkpt lat="38.065967671573162078857421875" lon="-0.99463996477425098419189453125">
        <ele>26</ele>
        <time>2019-10-25T13:19:04.000Z</time>
      </trkpt>
      <trkpt lat="38.06586298160254955291748046875" lon="-0.99485839717090129852294921875">
        <ele>26.3999996185302734375</ele>
        <time>2019-10-25T13:19:12.000Z</time>
      </trkpt>
      <trkpt lat="38.06576994247734546661376953125" lon="-0.99506744183599948883056640625">
        <ele>27.6000003814697265625</ele>
        <time>2019-10-25T13:19:18.000Z</time>
      </trkpt>
      <trkpt lat="38.065651170909404754638671875" lon="-0.99527916871011257171630859375">
        <ele>27.799999237060546875</ele>
        <time>2019-10-25T13:19:24.000Z</time>
      </trkpt>
      <trkpt lat="38.06551940739154815673828125" lon="-0.99548377096652984619140625">
        <ele>27.3999996185302734375</ele>
        <time>2019-10-25T13:19:30.000Z</time>
      </trkpt>
      <trkpt lat="38.0654042400419712066650390625" lon="-0.995669849216938018798828125">
        <ele>27.200000762939453125</ele>
        <time>2019-10-25T13:19:35.000Z</time>
      </trkpt>
      <trkpt lat="38.06527406908571720123291015625" lon="-0.99584050476551055908203125">
        <ele>27.6000003814697265625</ele>
        <time>2019-10-25T13:19:40.000Z</time>
      </trkpt>
      <trkpt lat="38.06512436829507350921630859375" lon="-0.99600269459187984466552734375">
        <ele>28.200000762939453125</ele>
        <time>2019-10-25T13:19:45.000Z</time>
      </trkpt>
      <trkpt lat="38.064968548715114593505859375" lon="-0.996155329048633575439453125">
        <ele>28.6000003814697265625</ele>
        <time>2019-10-25T13:19:50.000Z</time>
      </trkpt>
      <trkpt lat="38.0647990666329860687255859375" lon="-0.99630494602024555206298828125">
        <ele>29</ele>
        <time>2019-10-25T13:19:55.000Z</time>
      </trkpt>
      <trkpt lat="38.064616508781909942626953125" lon="-0.99643838591873645782470703125">
        <ele>29</ele>
        <time>2019-10-25T13:20:00.000Z</time>
      </trkpt>
      <trkpt lat="38.06442506611347198486328125" lon="-0.9965507872402667999267578125">
        <ele>27.200000762939453125</ele>
        <time>2019-10-25T13:20:05.000Z</time>
      </trkpt>
      <trkpt lat="38.0642143450677394866943359375" lon="-0.9966493584215641021728515625">
        <ele>26</ele>
        <time>2019-10-25T13:20:10.000Z</time>
      </trkpt>
      <trkpt lat="38.06403924711048603057861328125" lon="-0.9967194311320781707763671875">
        <ele>25.6000003814697265625</ele>
        <time>2019-10-25T13:20:14.000Z</time>
      </trkpt>
      <trkpt lat="38.063821904361248016357421875" lon="-0.99678439088165760040283203125">
        <ele>26</ele>
        <time>2019-10-25T13:20:19.000Z</time>
      </trkpt>
      <trkpt lat="38.063601963222026824951171875" lon="-0.9968253783881664276123046875">
        <ele>25.6000003814697265625</ele>
        <time>2019-10-25T13:20:24.000Z</time>
      </trkpt>
      <trkpt lat="38.0633831955492496490478515625" lon="-0.99683401174843311309814453125">
        <ele>25.200000762939453125</ele>
        <time>2019-10-25T13:20:29.000Z</time>
      </trkpt>
      <trkpt lat="38.0631682835519313812255859375" lon="-0.99683434702455997467041015625">
        <ele>26.200000762939453125</ele>
        <time>2019-10-25T13:20:34.000Z</time>
      </trkpt>
      <trkpt lat="38.06295211426913738250732421875" lon="-0.996823869645595550537109375">
        <ele>26</ele>
        <time>2019-10-25T13:20:39.000Z</time>
      </trkpt>
      <trkpt lat="38.0627719871699810028076171875" lon="-0.996793694794178009033203125">
        <ele>26</ele>
        <time>2019-10-25T13:20:43.000Z</time>
      </trkpt>
      <trkpt lat="38.06268406100571155548095703125" lon="-0.99678925238549709320068359375">
        <ele>26</ele>
        <time>2019-10-25T13:20:45.000Z</time>
      </trkpt>
      <trkpt lat="38.0624957196414470672607421875" lon="-0.9967827983200550079345703125">
        <ele>25.3999996185302734375</ele>
        <time>2019-10-25T13:20:49.000Z</time>
      </trkpt>
      <trkpt lat="38.06229815818369388580322265625" lon="-0.99677785299718379974365234375">
        <ele>25.6000003814697265625</ele>
        <time>2019-10-25T13:20:53.000Z</time>
      </trkpt>
      <trkpt lat="38.0621047876775264739990234375" lon="-0.99676980637013912200927734375">
        <ele>26.799999237060546875</ele>
        <time>2019-10-25T13:20:57.000Z</time>
      </trkpt>
      <trkpt lat="38.06196279823780059814453125" lon="-0.99677148275077342987060546875">
        <ele>28.3999996185302734375</ele>
        <time>2019-10-25T13:21:00.000Z</time>
      </trkpt>
      <trkpt lat="38.061775378882884979248046875" lon="-0.996805094182491302490234375">
        <ele>30.200000762939453125</ele>
        <time>2019-10-25T13:21:04.000Z</time>
      </trkpt>
      <trkpt lat="38.06157966144382953643798828125" lon="-0.996860750019550323486328125">
        <ele>30.799999237060546875</ele>
        <time>2019-10-25T13:21:08.000Z</time>
      </trkpt>
      <trkpt lat="38.06139090098440647125244140625" lon="-0.9969355165958404541015625">
        <ele>31</ele>
        <time>2019-10-25T13:21:12.000Z</time>
      </trkpt>
      <trkpt lat="38.06121236644685268402099609375" lon="-0.9970205090939998626708984375">
        <ele>30.200000762939453125</ele>
        <time>2019-10-25T13:21:16.000Z</time>
      </trkpt>
      <trkpt lat="38.06103416718542575836181640625" lon="-0.99712268449366092681884765625">
        <ele>28.6000003814697265625</ele>
        <time>2019-10-25T13:21:20.000Z</time>
      </trkpt>
      <trkpt lat="38.06085999123752117156982421875" lon="-0.9972511790692806243896484375">
        <ele>26.799999237060546875</ele>
        <time>2019-10-25T13:21:24.000Z</time>
      </trkpt>
      <trkpt lat="38.06069738231599330902099609375" lon="-0.997398532927036285400390625">
        <ele>25</ele>
        <time>2019-10-25T13:21:28.000Z</time>
      </trkpt>
      <trkpt lat="38.06054466404020786285400390625" lon="-0.99755577743053436279296875">
        <ele>25.200000762939453125</ele>
        <time>2019-10-25T13:21:32.000Z</time>
      </trkpt>
      <trkpt lat="38.0604005791246891021728515625" lon="-0.99770740605890750885009765625">
        <ele>25.3999996185302734375</ele>
        <time>2019-10-25T13:21:36.000Z</time>
      </trkpt>
      <trkpt lat="38.06030846200883388519287109375" lon="-0.9978251717984676361083984375">
        <ele>25.799999237060546875</ele>
        <time>2019-10-25T13:21:39.000Z</time>
      </trkpt>
      <trkpt lat="38.06017166934907436370849609375" lon="-0.99804989062249660491943359375">
        <ele>27</ele>
        <time>2019-10-25T13:21:44.000Z</time>
      </trkpt>
      <trkpt lat="38.060065805912017822265625" lon="-0.99824217148125171661376953125">
        <ele>27.799999237060546875</ele>
        <time>2019-10-25T13:21:48.000Z</time>
      </trkpt>
      <trkpt lat="38.05996748618781566619873046875" lon="-0.99843713454902172088623046875">
        <ele>28.3999996185302734375</ele>
        <time>2019-10-25T13:21:52.000Z</time>
      </trkpt>
      <trkpt lat="38.0598611198365688323974609375" lon="-0.9986794553697109222412109375">
        <ele>28.6000003814697265625</ele>
        <time>2019-10-25T13:21:57.000Z</time>
      </trkpt>
      <trkpt lat="38.0598393268883228302001953125" lon="-0.99873301573097705841064453125">
        <ele>28.6000003814697265625</ele>
        <time>2019-10-25T13:21:58.000Z</time>
      </trkpt>
      <trkpt lat="38.0597484670579433441162109375" lon="-0.9989391267299652099609375">
        <ele>29.200000762939453125</ele>
        <time>2019-10-25T13:22:02.000Z</time>
      </trkpt>
      <trkpt lat="38.05965551175177097320556640625" lon="-0.9991495124995708465576171875">
        <ele>30</ele>
        <time>2019-10-25T13:22:06.000Z</time>
      </trkpt>
      <trkpt lat="38.05955476127564907073974609375" lon="-0.99936601705849170684814453125">
        <ele>30.799999237060546875</ele>
        <time>2019-10-25T13:22:10.000Z</time>
      </trkpt>
      <trkpt lat="38.0594529211521148681640625" lon="-0.999585874378681182861328125">
        <ele>31</ele>
        <time>2019-10-25T13:22:14.000Z</time>
      </trkpt>
      <trkpt lat="38.05935032665729522705078125" lon="-0.9998066537082195281982421875">
        <ele>30.200000762939453125</ele>
        <time>2019-10-25T13:22:18.000Z</time>
      </trkpt>
      <trkpt lat="38.05928486399352550506591796875" lon="-0.999972783029079437255859375">
        <ele>29.6000003814697265625</ele>
        <time>2019-10-25T13:22:21.000Z</time>
      </trkpt>
      <trkpt lat="38.05924194864928722381591796875" lon="-1.0000842623412609100341796875">
        <ele>29.200000762939453125</ele>
        <time>2019-10-25T13:22:23.000Z</time>
      </trkpt>
      <trkpt lat="38.05913533084094524383544921875" lon="-1.00029992870986461639404296875">
        <ele>29.6000003814697265625</ele>
        <time>2019-10-25T13:22:27.000Z</time>
      </trkpt>
      <trkpt lat="38.0590299703180789947509765625" lon="-1.00050277076661586761474609375">
        <ele>28.799999237060546875</ele>
        <time>2019-10-25T13:22:31.000Z</time>
      </trkpt>
      <trkpt lat="38.05892880074679851531982421875" lon="-1.000700332224369049072265625">
        <ele>28.200000762939453125</ele>
        <time>2019-10-25T13:22:35.000Z</time>
      </trkpt>
      <trkpt lat="38.058819584548473358154296875" lon="-1.0008949600160121917724609375">
        <ele>27.3999996185302734375</ele>
        <time>2019-10-25T13:22:39.000Z</time>
      </trkpt>
      <trkpt lat="38.058704249560832977294921875" lon="-1.0010848939418792724609375">
        <ele>26.6000003814697265625</ele>
        <time>2019-10-25T13:22:43.000Z</time>
      </trkpt>
      <trkpt lat="38.0585847236216068267822265625" lon="-1.001276336610317230224609375">
        <ele>26.200000762939453125</ele>
        <time>2019-10-25T13:22:47.000Z</time>
      </trkpt>
      <trkpt lat="38.05845790542662143707275390625" lon="-1.0014612413942813873291015625">
        <ele>27.3999996185302734375</ele>
        <time>2019-10-25T13:22:51.000Z</time>
      </trkpt>
      <trkpt lat="38.05832614190876483917236328125" lon="-1.001639105379581451416015625">
        <ele>28.200000762939453125</ele>
        <time>2019-10-25T13:22:55.000Z</time>
      </trkpt>
      <trkpt lat="38.05819102562963962554931640625" lon="-1.0017988644540309906005859375">
        <ele>28.799999237060546875</ele>
        <time>2019-10-25T13:22:59.000Z</time>
      </trkpt>
      <trkpt lat="38.05804953910410404205322265625" lon="-1.0019524209201335906982421875">
        <ele>29</ele>
        <time>2019-10-25T13:23:03.000Z</time>
      </trkpt>
      <trkpt lat="38.05794141255319118499755859375" lon="-1.0020687617361545562744140625">
        <ele>29</ele>
        <time>2019-10-25T13:23:06.000Z</time>
      </trkpt>
      <trkpt lat="38.0577867664396762847900390625" lon="-1.00220806896686553955078125">
        <ele>29</ele>
        <time>2019-10-25T13:23:10.000Z</time>
      </trkpt>
      <trkpt lat="38.0576301924884319305419921875" lon="-1.0023456998169422149658203125">
        <ele>29</ele>
        <time>2019-10-25T13:23:14.000Z</time>
      </trkpt>
      <trkpt lat="38.05746481753885746002197265625" lon="-1.00247670896351337432861328125">
        <ele>28.200000762939453125</ele>
        <time>2019-10-25T13:23:18.000Z</time>
      </trkpt>
      <trkpt lat="38.057294748723506927490234375" lon="-1.00260595791041851043701171875">
        <ele>27.6000003814697265625</ele>
        <time>2019-10-25T13:23:22.000Z</time>
      </trkpt>
      <trkpt lat="38.05720464326441287994384765625" lon="-1.0026658885180950164794921875">
        <ele>27.6000003814697265625</ele>
        <time>2019-10-25T13:23:24.000Z</time>
      </trkpt>
      <trkpt lat="38.05702057667076587677001953125" lon="-1.0027758590877056121826171875">
        <ele>28.6000003814697265625</ele>
        <time>2019-10-25T13:23:28.000Z</time>
      </trkpt>
      <trkpt lat="38.0569732189178466796875" lon="-1.00280175916850566864013671875">
        <ele>29</ele>
        <time>2019-10-25T13:23:29.000Z</time>
      </trkpt>
      <trkpt lat="38.056787140667438507080078125" lon="-1.0028965584933757781982421875">
        <ele>30.200000762939453125</ele>
        <time>2019-10-25T13:23:33.000Z</time>
      </trkpt>
      <trkpt lat="38.056606762111186981201171875" lon="-1.002976857125759124755859375">
        <ele>32.200000762939453125</ele>
        <time>2019-10-25T13:23:37.000Z</time>
      </trkpt>
      <trkpt lat="38.05642244406044483184814453125" lon="-1.00307316519320011138916015625">
        <ele>33.59999847412109375</ele>
        <time>2019-10-25T13:23:42.000Z</time>
      </trkpt>
      <trkpt lat="38.05641104467213153839111328125" lon="-1.00311574526131153106689453125">
        <ele>34.200000762939453125</ele>
        <time>2019-10-25T13:23:46.000Z</time>
      </trkpt>
      <trkpt lat="38.0563199333846569061279296875" lon="-1.00312002003192901611328125">
        <ele>34.200000762939453125</ele>
        <time>2019-10-25T13:24:03.000Z</time>
      </trkpt>
      <trkpt lat="38.0562656186521053314208984375" lon="-1.003132760524749755859375">
        <ele>34.40000152587890625</ele>
        <time>2019-10-25T13:24:07.000Z</time>
      </trkpt>
      <trkpt lat="38.05607803165912628173828125" lon="-1.0031890869140625">
        <ele>33.59999847412109375</ele>
        <time>2019-10-25T13:24:15.000Z</time>
      </trkpt>
      <trkpt lat="38.05587745271623134613037109375" lon="-1.00324206054210662841796875">
        <ele>31.799999237060546875</ele>
        <time>2019-10-25T13:24:21.000Z</time>
      </trkpt>
      <trkpt lat="38.05568584240972995758056640625" lon="-1.00328925065696239471435546875">
        <ele>29.799999237060546875</ele>
        <time>2019-10-25T13:24:27.000Z</time>
      </trkpt>
      <trkpt lat="38.055479563772678375244140625" lon="-1.00330802612006664276123046875">
        <ele>27</ele>
        <time>2019-10-25T13:24:34.000Z</time>
      </trkpt>
      <trkpt lat="38.0552926473319530487060546875" lon="-1.0033325850963592529296875">
        <ele>26.3999996185302734375</ele>
        <time>2019-10-25T13:24:40.000Z</time>
      </trkpt>
      <trkpt lat="38.05511067621409893035888671875" lon="-1.00339628756046295166015625">
        <ele>27.3999996185302734375</ele>
        <time>2019-10-25T13:24:47.000Z</time>
      </trkpt>
      <trkpt lat="38.05502501316368579864501953125" lon="-1.003620922565460205078125">
        <ele>29.3999996185302734375</ele>
        <time>2019-10-25T13:24:52.000Z</time>
      </trkpt>
      <trkpt lat="38.054996766149997711181640625" lon="-1.003854610025882720947265625">
        <ele>29.799999237060546875</ele>
        <time>2019-10-25T13:24:57.000Z</time>
      </trkpt>
      <trkpt lat="38.0550460517406463623046875" lon="-1.00410304963588714599609375">
        <ele>29.200000762939453125</ele>
        <time>2019-10-25T13:25:02.000Z</time>
      </trkpt>
      <trkpt lat="38.0550606362521648406982421875" lon="-1.00435676984488964080810546875">
        <ele>28.3999996185302734375</ele>
        <time>2019-10-25T13:25:07.000Z</time>
      </trkpt>
      <trkpt lat="38.055041022598743438720703125" lon="-1.00461761467158794403076171875">
        <ele>28.200000762939453125</ele>
        <time>2019-10-25T13:25:12.000Z</time>
      </trkpt>
      <trkpt lat="38.05503808893263339996337890625" lon="-1.00484878756105899810791015625">
        <ele>28</ele>
        <time>2019-10-25T13:25:16.000Z</time>
      </trkpt>
      <trkpt lat="38.05499752052128314971923828125" lon="-1.00507711060345172882080078125">
        <ele>27.3999996185302734375</ele>
        <time>2019-10-25T13:25:20.000Z</time>
      </trkpt>
      <trkpt lat="38.0549258552491664886474609375" lon="-1.00530912168323993682861328125">
        <ele>27.200000762939453125</ele>
        <time>2019-10-25T13:25:24.000Z</time>
      </trkpt>
      <trkpt lat="38.054855950176715850830078125" lon="-1.0055172443389892578125">
        <ele>27.6000003814697265625</ele>
        <time>2019-10-25T13:25:28.000Z</time>
      </trkpt>
      <trkpt lat="38.05492401123046875" lon="-1.0057420469820499420166015625">
        <ele>28.3999996185302734375</ele>
        <time>2019-10-25T13:25:33.000Z</time>
      </trkpt>
      <trkpt lat="38.054943792521953582763671875" lon="-1.00577540695667266845703125">
        <ele>28.6000003814697265625</ele>
        <time>2019-10-25T13:25:35.000Z</time>
      </trkpt>
      <trkpt lat="38.05495108477771282196044921875" lon="-1.0057779215276241302490234375">
        <ele>28.6000003814697265625</ele>
        <time>2019-10-25T13:25:37.000Z</time>
      </trkpt>
      <trkpt lat="38.0548904836177825927734375" lon="-1.00565068423748016357421875">
        <ele>27.799999237060546875</ele>
        <time>2019-10-25T13:26:11.000Z</time>
      </trkpt>
      <trkpt lat="38.0548609793186187744140625" lon="-1.00555923767387866973876953125">
        <ele>27.6000003814697265625</ele>
        <time>2019-10-25T13:26:17.000Z</time>
      </trkpt>
      <trkpt lat="38.05481814779341220855712890625" lon="-1.0055328346788883209228515625">
        <ele>28</ele>
        <time>2019-10-25T13:26:22.000Z</time>
      </trkpt>
      <trkpt lat="38.05466643534600734710693359375" lon="-1.00561070255935192108154296875">
        <ele>29.799999237060546875</ele>
        <time>2019-10-25T13:26:34.000Z</time>
      </trkpt>
      <trkpt lat="38.05447767488658428192138671875" lon="-1.00564691238105297088623046875">
        <ele>30.6000003814697265625</ele>
        <time>2019-10-25T13:26:43.000Z</time>
      </trkpt>
      <trkpt lat="38.05428237654268741607666015625" lon="-1.00563853047788143157958984375">
        <ele>30.799999237060546875</ele>
        <time>2019-10-25T13:26:50.000Z</time>
      </trkpt>
      <trkpt lat="38.05409126915037631988525390625" lon="-1.00565345026552677154541015625">
        <ele>30.200000762939453125</ele>
        <time>2019-10-25T13:26:58.000Z</time>
      </trkpt>
      <trkpt lat="38.05390988476574420928955078125" lon="-1.00568664260208606719970703125">
        <ele>29.6000003814697265625</ele>
        <time>2019-10-25T13:27:04.000Z</time>
      </trkpt>
      <trkpt lat="38.05373302660882472991943359375" lon="-1.0057447291910648345947265625">
        <ele>29</ele>
        <time>2019-10-25T13:27:10.000Z</time>
      </trkpt>
      <trkpt lat="38.05361551232635974884033203125" lon="-1.0059344954788684844970703125">
        <ele>29</ele>
        <time>2019-10-25T13:27:19.000Z</time>
      </trkpt>
      <trkpt lat="38.0535552464425563812255859375" lon="-1.006156615912914276123046875">
        <ele>29.6000003814697265625</ele>
        <time>2019-10-25T13:27:26.000Z</time>
      </trkpt>
      <trkpt lat="38.0535547435283660888671875" lon="-1.0062486492097377777099609375">
        <ele>29.799999237060546875</ele>
        <time>2019-10-25T13:27:30.000Z</time>
      </trkpt>
      <trkpt lat="38.05359975434839725494384765625" lon="-1.006346046924591064453125">
        <ele>30</ele>
        <time>2019-10-25T13:27:44.000Z</time>
      </trkpt>
      <trkpt lat="38.05360394529998302459716796875" lon="-1.00636255927383899688720703125">
        <ele>30</ele>
        <time>2019-10-25T13:27:46.000Z</time>
      </trkpt>
      <trkpt lat="38.05366060696542263031005859375" lon="-1.00654293783009052276611328125">
        <ele>30.3999996185302734375</ele>
        <time>2019-10-25T13:28:35.000Z</time>
      </trkpt>
      <trkpt lat="38.05369111709296703338623046875" lon="-1.0067736916244029998779296875">
        <ele>30.799999237060546875</ele>
        <time>2019-10-25T13:28:41.000Z</time>
      </trkpt>
      <trkpt lat="38.05378876626491546630859375" lon="-1.00699187256395816802978515625">
        <ele>31</ele>
        <time>2019-10-25T13:28:47.000Z</time>
      </trkpt>
      <trkpt lat="38.053890354931354522705078125" lon="-1.00717962719500064849853515625">
        <ele>30.6000003814697265625</ele>
        <time>2019-10-25T13:28:52.000Z</time>
      </trkpt>
      <trkpt lat="38.053963445127010345458984375" lon="-1.00740359164774417877197265625">
        <ele>30.200000762939453125</ele>
        <time>2019-10-25T13:28:57.000Z</time>
      </trkpt>
      <trkpt lat="38.0539626069366931915283203125" lon="-1.0075019113719463348388671875">
        <ele>30.200000762939453125</ele>
        <time>2019-10-25T13:28:59.000Z</time>
      </trkpt>
      <trkpt lat="38.05387468077242374420166015625" lon="-1.0077339224517345428466796875">
        <ele>30.6000003814697265625</ele>
        <time>2019-10-25T13:29:04.000Z</time>
      </trkpt>
      <trkpt lat="38.05376864969730377197265625" lon="-1.0079773329198360443115234375">
        <ele>30.799999237060546875</ele>
        <time>2019-10-25T13:29:09.000Z</time>
      </trkpt>
      <trkpt lat="38.0536843277513980865478515625" lon="-1.0081848688423633575439453125">
        <ele>30.3999996185302734375</ele>
        <time>2019-10-25T13:29:13.000Z</time>
      </trkpt>
      <trkpt lat="38.053590953350067138671875" lon="-1.00843012332916259765625">
        <ele>29.799999237060546875</ele>
        <time>2019-10-25T13:29:18.000Z</time>
      </trkpt>
      <trkpt lat="38.053504116833209991455078125" lon="-1.00864394567906856536865234375">
        <ele>30</ele>
        <time>2019-10-25T13:29:23.000Z</time>
      </trkpt>
      <trkpt lat="38.0534224770963191986083984375" lon="-1.00886120460927486419677734375">
        <ele>29.799999237060546875</ele>
        <time>2019-10-25T13:29:28.000Z</time>
      </trkpt>
      <trkpt lat="38.05334393866360187530517578125" lon="-1.0090948082506656646728515625">
        <ele>29.3999996185302734375</ele>
        <time>2019-10-25T13:29:33.000Z</time>
      </trkpt>
      <trkpt lat="38.05323329754173755645751953125" lon="-1.00932120345532894134521484375">
        <ele>29.200000762939453125</ele>
        <time>2019-10-25T13:29:38.000Z</time>
      </trkpt>
      <trkpt lat="38.05310572497546672821044921875" lon="-1.009530164301395416259765625">
        <ele>30.200000762939453125</ele>
        <time>2019-10-25T13:29:43.000Z</time>
      </trkpt>
      <trkpt lat="38.05299206636846065521240234375" lon="-1.00976041518151760101318359375">
        <ele>30.799999237060546875</ele>
        <time>2019-10-25T13:29:48.000Z</time>
      </trkpt>
      <trkpt lat="38.05288008414208889007568359375" lon="-1.00995353423058986663818359375">
        <ele>31.200000762939453125</ele>
        <time>2019-10-25T13:29:53.000Z</time>
      </trkpt>
      <trkpt lat="38.05275787599384784698486328125" lon="-1.01017481647431850433349609375">
        <ele>31.6000003814697265625</ele>
        <time>2019-10-25T13:29:59.000Z</time>
      </trkpt>
      <trkpt lat="38.05271990597248077392578125" lon="-1.0102947615087032318115234375">
        <ele>31.200000762939453125</ele>
        <time>2019-10-25T13:30:05.000Z</time>
      </trkpt>
      <trkpt lat="38.05272937752306461334228515625" lon="-1.0103829391300678253173828125">
        <ele>31</ele>
        <time>2019-10-25T13:31:03.000Z</time>
      </trkpt>
      <trkpt lat="38.05255838669836521148681640625" lon="-1.01046298630535602569580078125">
        <ele>31.200000762939453125</ele>
        <time>2019-10-25T13:31:09.000Z</time>
      </trkpt>
      <trkpt lat="38.0524045787751674652099609375" lon="-1.01058251224458217620849609375">
        <ele>31.3999996185302734375</ele>
        <time>2019-10-25T13:31:14.000Z</time>
      </trkpt>
      <trkpt lat="38.052217662334442138671875" lon="-1.010713689029216766357421875">
        <ele>31</ele>
        <time>2019-10-25T13:31:19.000Z</time>
      </trkpt>
      <trkpt lat="38.05202982388436794281005859375" lon="-1.010839082300662994384765625">
        <ele>31</ele>
        <time>2019-10-25T13:31:24.000Z</time>
      </trkpt>
      <trkpt lat="38.05184818804264068603515625" lon="-1.0109773837029933929443359375">
        <ele>31</ele>
        <time>2019-10-25T13:31:29.000Z</time>
      </trkpt>
      <trkpt lat="38.0516723357141017913818359375" lon="-1.011104620993137359619140625">
        <ele>30.6000003814697265625</ele>
        <time>2019-10-25T13:31:34.000Z</time>
      </trkpt>
      <trkpt lat="38.0514706671237945556640625" lon="-1.0112311877310276031494140625">
        <ele>30.6000003814697265625</ele>
        <time>2019-10-25T13:31:39.000Z</time>
      </trkpt>
      <trkpt lat="38.05128349922597408294677734375" lon="-1.01135465316474437713623046875">
        <ele>31.3999996185302734375</ele>
        <time>2019-10-25T13:31:43.000Z</time>
      </trkpt>
      <trkpt lat="38.0510966666042804718017578125" lon="-1.0114688985049724578857421875">
        <ele>31.200000762939453125</ele>
        <time>2019-10-25T13:31:47.000Z</time>
      </trkpt>
      <trkpt lat="38.05090539157390594482421875" lon="-1.01156436838209629058837890625">
        <ele>30.3999996185302734375</ele>
        <time>2019-10-25T13:31:51.000Z</time>
      </trkpt>
      <trkpt lat="38.05072593502700328826904296875" lon="-1.011640727519989013671875">
        <ele>29.200000762939453125</ele>
        <time>2019-10-25T13:31:55.000Z</time>
      </trkpt>
      <trkpt lat="38.0505421198904514312744140625" lon="-1.01170619018375873565673828125">
        <ele>29</ele>
        <time>2019-10-25T13:31:59.000Z</time>
      </trkpt>
      <trkpt lat="38.050497360527515411376953125" lon="-1.0117206908762454986572265625">
        <ele>29</ele>
        <time>2019-10-25T13:32:00.000Z</time>
      </trkpt>
      <trkpt lat="38.050280772149562835693359375" lon="-1.01179503835737705230712890625">
        <ele>29</ele>
        <time>2019-10-25T13:32:05.000Z</time>
      </trkpt>
      <trkpt lat="38.05009243078529834747314453125" lon="-1.01187131367623805999755859375">
        <ele>29</ele>
        <time>2019-10-25T13:32:09.000Z</time>
      </trkpt>
      <trkpt lat="38.04990115575492382049560546875" lon="-1.01194222457706928253173828125">
        <ele>29</ele>
        <time>2019-10-25T13:32:13.000Z</time>
      </trkpt>
      <trkpt lat="38.04972446523606777191162109375" lon="-1.01202436722815036773681640625">
        <ele>29.6000003814697265625</ele>
        <time>2019-10-25T13:32:17.000Z</time>
      </trkpt>
      <trkpt lat="38.0495973117649555206298828125" lon="-1.01211053319275379180908203125">
        <ele>30</ele>
        <time>2019-10-25T13:32:20.000Z</time>
      </trkpt>
      <trkpt lat="38.04946144111454486846923828125" lon="-1.0122809372842311859130859375">
        <ele>31.200000762939453125</ele>
        <time>2019-10-25T13:32:24.000Z</time>
      </trkpt>
      <trkpt lat="38.04932364262640476226806640625" lon="-1.0124683566391468048095703125">
        <ele>32.40000152587890625</ele>
        <time>2019-10-25T13:32:28.000Z</time>
      </trkpt>
      <trkpt lat="38.0491825751960277557373046875" lon="-1.01265753619372844696044921875">
        <ele>32.59999847412109375</ele>
        <time>2019-10-25T13:32:32.000Z</time>
      </trkpt>
      <trkpt lat="38.0490367300808429718017578125" lon="-1.012853421270847320556640625">
        <ele>32</ele>
        <time>2019-10-25T13:32:36.000Z</time>
      </trkpt>
      <trkpt lat="38.048898093402385711669921875" lon="-1.0130557604134082794189453125">
        <ele>31</ele>
        <time>2019-10-25T13:32:40.000Z</time>
      </trkpt>
      <trkpt lat="38.04874864406883716583251953125" lon="-1.01325533352792263031005859375">
        <ele>30.200000762939453125</ele>
        <time>2019-10-25T13:32:44.000Z</time>
      </trkpt>
      <trkpt lat="38.04859240539371967315673828125" lon="-1.013460271060466766357421875">
        <ele>31</ele>
        <time>2019-10-25T13:32:48.000Z</time>
      </trkpt>
      <trkpt lat="38.04843264631927013397216796875" lon="-1.01367124356329441070556640625">
        <ele>31.799999237060546875</ele>
        <time>2019-10-25T13:32:52.000Z</time>
      </trkpt>
      <trkpt lat="38.04826500825583934783935546875" lon="-1.01387576200067996978759765625">
        <ele>32.40000152587890625</ele>
        <time>2019-10-25T13:32:56.000Z</time>
      </trkpt>
      <trkpt lat="38.04809317924082279205322265625" lon="-1.01408547721803188323974609375">
        <ele>32.59999847412109375</ele>
        <time>2019-10-25T13:33:00.000Z</time>
      </trkpt>
      <trkpt lat="38.0479078553617000579833984375" lon="-1.01428228430449962615966796875">
        <ele>32</ele>
        <time>2019-10-25T13:33:04.000Z</time>
      </trkpt>
      <trkpt lat="38.0477713979780673980712890625" lon="-1.0144310630857944488525390625">
        <ele>31.799999237060546875</ele>
        <time>2019-10-25T13:33:07.000Z</time>
      </trkpt>
      <trkpt lat="38.04772697389125823974609375" lon="-1.01448177359998226165771484375">
        <ele>31.799999237060546875</ele>
        <time>2019-10-25T13:33:08.000Z</time>
      </trkpt>
      <trkpt lat="38.04759085178375244140625" lon="-1.01463449187576770782470703125">
        <ele>32</ele>
        <time>2019-10-25T13:33:11.000Z</time>
      </trkpt>
      <trkpt lat="38.04745875298976898193359375" lon="-1.014797687530517578125">
        <ele>32</ele>
        <time>2019-10-25T13:33:14.000Z</time>
      </trkpt>
      <trkpt lat="38.04731190204620361328125" lon="-1.0150350630283355712890625">
        <ele>32</ele>
        <time>2019-10-25T13:33:18.000Z</time>
      </trkpt>
      <trkpt lat="38.04721039719879627227783203125" lon="-1.01522541604936122894287109375">
        <ele>32</ele>
        <time>2019-10-25T13:33:21.000Z</time>
      </trkpt>
      <trkpt lat="38.04710478521883487701416015625" lon="-1.01542037911713123321533203125">
        <ele>32</ele>
        <time>2019-10-25T13:33:24.000Z</time>
      </trkpt>
      <trkpt lat="38.04700520820915699005126953125" lon="-1.0156179405748844146728515625">
        <ele>31.6000003814697265625</ele>
        <time>2019-10-25T13:33:27.000Z</time>
      </trkpt>
      <trkpt lat="38.046900518238544464111328125" lon="-1.01582539267838001251220703125">
        <ele>31.799999237060546875</ele>
        <time>2019-10-25T13:33:30.000Z</time>
      </trkpt>
      <trkpt lat="38.04679348133504390716552734375" lon="-1.01602739654481410980224609375">
        <ele>32</ele>
        <time>2019-10-25T13:33:33.000Z</time>
      </trkpt>
      <trkpt lat="38.04668468423187732696533203125" lon="-1.01623090915381908416748046875">
        <ele>32</ele>
        <time>2019-10-25T13:33:36.000Z</time>
      </trkpt>
      <trkpt lat="38.04657094180583953857421875" lon="-1.01644045673310756683349609375">
        <ele>32</ele>
        <time>2019-10-25T13:33:39.000Z</time>
      </trkpt>
      <trkpt lat="38.0464597977697849273681640625" lon="-1.016656793653964996337890625">
        <ele>31.6000003814697265625</ele>
        <time>2019-10-25T13:33:42.000Z</time>
      </trkpt>
      <trkpt lat="38.04634773172438144683837890625" lon="-1.016871370375156402587890625">
        <ele>30.6000003814697265625</ele>
        <time>2019-10-25T13:33:45.000Z</time>
      </trkpt>
      <trkpt lat="38.04623834788799285888671875" lon="-1.01708385162055492401123046875">
        <ele>29.200000762939453125</ele>
        <time>2019-10-25T13:33:48.000Z</time>
      </trkpt>
      <trkpt lat="38.04613298736512660980224609375" lon="-1.01728870533406734466552734375">
        <ele>28.799999237060546875</ele>
        <time>2019-10-25T13:33:51.000Z</time>
      </trkpt>
      <trkpt lat="38.04602243006229400634765625" lon="-1.0174854286015033721923828125">
        <ele>29.200000762939453125</ele>
        <time>2019-10-25T13:33:54.000Z</time>
      </trkpt>
      <trkpt lat="38.04590516723692417144775390625" lon="-1.0176738537847995758056640625">
        <ele>30.200000762939453125</ele>
        <time>2019-10-25T13:33:57.000Z</time>
      </trkpt>
      <trkpt lat="38.0457682907581329345703125" lon="-1.0179162584245204925537109375">
        <ele>31</ele>
        <time>2019-10-25T13:34:01.000Z</time>
      </trkpt>
      <trkpt lat="38.04571221582591533660888671875" lon="-1.01803737692534923553466796875">
        <ele>31</ele>
        <time>2019-10-25T13:34:03.000Z</time>
      </trkpt>
      <trkpt lat="38.04559587500989437103271484375" lon="-1.01826201193034648895263671875">
        <ele>30.3999996185302734375</ele>
        <time>2019-10-25T13:34:07.000Z</time>
      </trkpt>
      <trkpt lat="38.045475594699382781982421875" lon="-1.01848765276372432708740234375">
        <ele>29</ele>
        <time>2019-10-25T13:34:11.000Z</time>
      </trkpt>
      <trkpt lat="38.04536922834813594818115234375" lon="-1.01869317702949047088623046875">
        <ele>29.200000762939453125</ele>
        <time>2019-10-25T13:34:15.000Z</time>
      </trkpt>
      <trkpt lat="38.0453349463641643524169921875" lon="-1.018773056566715240478515625">
        <ele>29.3999996185302734375</ele>
        <time>2019-10-25T13:34:17.000Z</time>
      </trkpt>
      <trkpt lat="38.0453141592442989349365234375" lon="-1.01881169714033603668212890625">
        <ele>29.799999237060546875</ele>
        <time>2019-10-25T13:34:20.000Z</time>
      </trkpt>
      <trkpt lat="38.04526043124496936798095703125" lon="-1.01882259361445903778076171875">
        <ele>30</ele>
        <time>2019-10-25T13:36:41.000Z</time>
      </trkpt>
      <trkpt lat="38.045137636363506317138671875" lon="-1.01902510039508342742919921875">
        <ele>32</ele>
        <time>2019-10-25T13:36:48.000Z</time>
      </trkpt>
      <trkpt lat="38.04502171464264392852783203125" lon="-1.01923397742211818695068359375">
        <ele>33.200000762939453125</ele>
        <time>2019-10-25T13:36:53.000Z</time>
      </trkpt>
      <trkpt lat="38.0448925495147705078125" lon="-1.01946984417736530303955078125">
        <ele>33.40000152587890625</ele>
        <time>2019-10-25T13:36:58.000Z</time>
      </trkpt>
      <trkpt lat="38.04478031583130359649658203125" lon="-1.01968090049922466278076171875">
        <ele>32.59999847412109375</ele>
        <time>2019-10-25T13:37:02.000Z</time>
      </trkpt>
      <trkpt lat="38.044660873711109161376953125" lon="-1.019888855516910552978515625">
        <ele>31.6000003814697265625</ele>
        <time>2019-10-25T13:37:06.000Z</time>
      </trkpt>
      <trkpt lat="38.04454796947538852691650390625" lon="-1.02009630762040615081787109375">
        <ele>30.6000003814697265625</ele>
        <time>2019-10-25T13:37:10.000Z</time>
      </trkpt>
      <trkpt lat="38.04442911408841609954833984375" lon="-1.020323373377323150634765625">
        <ele>30.6000003814697265625</ele>
        <time>2019-10-25T13:37:14.000Z</time>
      </trkpt>
      <trkpt lat="38.0443039722740650177001953125" lon="-1.0205495171248912811279296875">
        <ele>31.200000762939453125</ele>
        <time>2019-10-25T13:37:18.000Z</time>
      </trkpt>
      <trkpt lat="38.04418168030679225921630859375" lon="-1.02077641524374485015869140625">
        <ele>32</ele>
        <time>2019-10-25T13:37:22.000Z</time>
      </trkpt>
      <trkpt lat="38.04406433366239070892333984375" lon="-1.02101177908480167388916015625">
        <ele>32.799999237060546875</ele>
        <time>2019-10-25T13:37:26.000Z</time>
      </trkpt>
      <trkpt lat="38.04393692873418331146240234375" lon="-1.02124496363103389739990234375">
        <ele>33.40000152587890625</ele>
        <time>2019-10-25T13:37:30.000Z</time>
      </trkpt>
      <trkpt lat="38.04380826652050018310546875" lon="-1.02147093974053859710693359375">
        <ele>33.799999237060546875</ele>
        <time>2019-10-25T13:37:34.000Z</time>
      </trkpt>
      <trkpt lat="38.04368488490581512451171875" lon="-1.02170177735388278961181640625">
        <ele>33.40000152587890625</ele>
        <time>2019-10-25T13:37:38.000Z</time>
      </trkpt>
      <trkpt lat="38.04355622269213199615478515625" lon="-1.02193965576589107513427734375">
        <ele>33.40000152587890625</ele>
        <time>2019-10-25T13:37:42.000Z</time>
      </trkpt>
      <trkpt lat="38.04342362098395824432373046875" lon="-1.0221796296536922454833984375">
        <ele>33.799999237060546875</ele>
        <time>2019-10-25T13:37:46.000Z</time>
      </trkpt>
      <trkpt lat="38.0432900972664356231689453125" lon="-1.02241876535117626190185546875">
        <ele>33.59999847412109375</ele>
        <time>2019-10-25T13:37:50.000Z</time>
      </trkpt>
      <trkpt lat="38.04315204732120037078857421875" lon="-1.02265848778188228607177734375">
        <ele>33</ele>
        <time>2019-10-25T13:37:54.000Z</time>
      </trkpt>
      <trkpt lat="38.04301793687045574188232421875" lon="-1.022900976240634918212890625">
        <ele>32.799999237060546875</ele>
        <time>2019-10-25T13:37:58.000Z</time>
      </trkpt>
      <trkpt lat="38.04287812672555446624755859375" lon="-1.02313910610973834991455078125">
        <ele>31.6000003814697265625</ele>
        <time>2019-10-25T13:38:02.000Z</time>
      </trkpt>
      <trkpt lat="38.04273429326713085174560546875" lon="-1.02337740361690521240234375">
        <ele>30.3999996185302734375</ele>
        <time>2019-10-25T13:38:06.000Z</time>
      </trkpt>
      <trkpt lat="38.0426651425659656524658203125" lon="-1.02350204251706600189208984375">
        <ele>30</ele>
        <time>2019-10-25T13:38:08.000Z</time>
      </trkpt>
      <trkpt lat="38.04263320751488208770751953125" lon="-1.02356172166764736175537109375">
        <ele>29.799999237060546875</ele>
        <time>2019-10-25T13:38:09.000Z</time>
      </trkpt>
      <trkpt lat="38.04249800741672515869140625" lon="-1.02380345575511455535888671875">
        <ele>30</ele>
        <time>2019-10-25T13:38:13.000Z</time>
      </trkpt>
      <trkpt lat="38.04237135685980319976806640625" lon="-1.02404393255710601806640625">
        <ele>31</ele>
        <time>2019-10-25T13:38:17.000Z</time>
      </trkpt>
      <trkpt lat="38.042250573635101318359375" lon="-1.02427837438881397247314453125">
        <ele>31.799999237060546875</ele>
        <time>2019-10-25T13:38:21.000Z</time>
      </trkpt>
      <trkpt lat="38.0421263538300991058349609375" lon="-1.02450803853571414947509765625">
        <ele>32.799999237060546875</ele>
        <time>2019-10-25T13:38:25.000Z</time>
      </trkpt>
      <trkpt lat="38.04200582206249237060546875" lon="-1.02474658749997615814208984375">
        <ele>33</ele>
        <time>2019-10-25T13:38:29.000Z</time>
      </trkpt>
      <trkpt lat="38.04188151843845844268798828125" lon="-1.0249872319400310516357421875">
        <ele>32.59999847412109375</ele>
        <time>2019-10-25T13:38:33.000Z</time>
      </trkpt>
      <trkpt lat="38.0417545326054096221923828125" lon="-1.02521882392466068267822265625">
        <ele>32</ele>
        <time>2019-10-25T13:38:37.000Z</time>
      </trkpt>
      <trkpt lat="38.04161614738404750823974609375" lon="-1.0254562832415103912353515625">
        <ele>31.799999237060546875</ele>
        <time>2019-10-25T13:38:41.000Z</time>
      </trkpt>
      <trkpt lat="38.0415902473032474517822265625" lon="-1.0255226679146289825439453125">
        <ele>31.799999237060546875</ele>
        <time>2019-10-25T13:38:42.000Z</time>
      </trkpt>
      <trkpt lat="38.04146661423146724700927734375" lon="-1.02576431818306446075439453125">
        <ele>32.200000762939453125</ele>
        <time>2019-10-25T13:38:46.000Z</time>
      </trkpt>
      <trkpt lat="38.04132697172462940216064453125" lon="-1.02599498815834522247314453125">
        <ele>32.59999847412109375</ele>
        <time>2019-10-25T13:38:50.000Z</time>
      </trkpt>
      <trkpt lat="38.04129009135067462921142578125" lon="-1.0260522365570068359375">
        <ele>32.799999237060546875</ele>
        <time>2019-10-25T13:38:51.000Z</time>
      </trkpt>
      <trkpt lat="38.0411450006067752838134765625" lon="-1.02629791013896465301513671875">
        <ele>33.200000762939453125</ele>
        <time>2019-10-25T13:38:55.000Z</time>
      </trkpt>
      <trkpt lat="38.04103846661746501922607421875" lon="-1.02648683823645114898681640625">
        <ele>33</ele>
        <time>2019-10-25T13:38:58.000Z</time>
      </trkpt>
      <trkpt lat="38.04093025624752044677734375" lon="-1.0266758501529693603515625">
        <ele>33.59999847412109375</ele>
        <time>2019-10-25T13:39:01.000Z</time>
      </trkpt>
      <trkpt lat="38.0408214591443538665771484375" lon="-1.026864610612392425537109375">
        <ele>34</ele>
        <time>2019-10-25T13:39:04.000Z</time>
      </trkpt>
      <trkpt lat="38.0406846664845943450927734375" lon="-1.0271105356514453887939453125">
        <ele>34</ele>
        <time>2019-10-25T13:39:08.000Z</time>
      </trkpt>
      <trkpt lat="38.04055273532867431640625" lon="-1.0273542813956737518310546875">
        <ele>33.59999847412109375</ele>
        <time>2019-10-25T13:39:12.000Z</time>
      </trkpt>
      <trkpt lat="38.0404144339263439178466796875" lon="-1.027588807046413421630859375">
        <ele>34</ele>
        <time>2019-10-25T13:39:16.000Z</time>
      </trkpt>
      <trkpt lat="38.040276132524013519287109375" lon="-1.027814112603664398193359375">
        <ele>34</ele>
        <time>2019-10-25T13:39:20.000Z</time>
      </trkpt>
      <trkpt lat="38.04014210589230060577392578125" lon="-1.02804771624505519866943359375">
        <ele>34</ele>
        <time>2019-10-25T13:39:24.000Z</time>
      </trkpt>
      <trkpt lat="38.04001101292669773101806640625" lon="-1.02829732932150363922119140625">
        <ele>34</ele>
        <time>2019-10-25T13:39:28.000Z</time>
      </trkpt>
      <trkpt lat="38.03987681865692138671875" lon="-1.02853001095354557037353515625">
        <ele>33.799999237060546875</ele>
        <time>2019-10-25T13:39:32.000Z</time>
      </trkpt>
      <trkpt lat="38.03974966518580913543701171875" lon="-1.02875699289143085479736328125">
        <ele>33</ele>
        <time>2019-10-25T13:39:36.000Z</time>
      </trkpt>
      <trkpt lat="38.03962041623890399932861328125" lon="-1.02898632176220417022705078125">
        <ele>33</ele>
        <time>2019-10-25T13:39:40.000Z</time>
      </trkpt>
      <trkpt lat="38.03948412649333477020263671875" lon="-1.029222942888736724853515625">
        <ele>33.40000152587890625</ele>
        <time>2019-10-25T13:39:44.000Z</time>
      </trkpt>
      <trkpt lat="38.039352782070636749267578125" lon="-1.02946727536618709564208984375">
        <ele>34.40000152587890625</ele>
        <time>2019-10-25T13:39:48.000Z</time>
      </trkpt>
      <trkpt lat="38.0392185039818286895751953125" lon="-1.02971470914781093597412109375">
        <ele>35.59999847412109375</ele>
        <time>2019-10-25T13:39:52.000Z</time>
      </trkpt>
      <trkpt lat="38.03908548317849636077880859375" lon="-1.02994822897017002105712890625">
        <ele>36.200000762939453125</ele>
        <time>2019-10-25T13:39:56.000Z</time>
      </trkpt>
      <trkpt lat="38.03894969634711742401123046875" lon="-1.0301949083805084228515625">
        <ele>35.40000152587890625</ele>
        <time>2019-10-25T13:40:00.000Z</time>
      </trkpt>
      <trkpt lat="38.03881340660154819488525390625" lon="-1.0304374806582927703857421875">
        <ele>34.40000152587890625</ele>
        <time>2019-10-25T13:40:04.000Z</time>
      </trkpt>
      <trkpt lat="38.03867912851274013519287109375" lon="-1.03068700991570949554443359375">
        <ele>33.799999237060546875</ele>
        <time>2019-10-25T13:40:08.000Z</time>
      </trkpt>
      <trkpt lat="38.03857468999922275543212890625" lon="-1.0308803804218769073486328125">
        <ele>34</ele>
        <time>2019-10-25T13:40:11.000Z</time>
      </trkpt>
      <trkpt lat="38.03847343660891056060791015625" lon="-1.0310765169560909271240234375">
        <ele>34</ele>
        <time>2019-10-25T13:40:14.000Z</time>
      </trkpt>
      <trkpt lat="38.03836380131542682647705078125" lon="-1.0312669537961483001708984375">
        <ele>34</ele>
        <time>2019-10-25T13:40:17.000Z</time>
      </trkpt>
      <trkpt lat="38.0382371507585048675537109375" lon="-1.03150994516909122467041015625">
        <ele>34</ele>
        <time>2019-10-25T13:40:21.000Z</time>
      </trkpt>
      <trkpt lat="38.03812407888472080230712890625" lon="-1.03170842863619327545166015625">
        <ele>33.799999237060546875</ele>
        <time>2019-10-25T13:40:25.000Z</time>
      </trkpt>
      <trkpt lat="38.0380101688206195831298828125" lon="-1.03193138726055622100830078125">
        <ele>32.799999237060546875</ele>
        <time>2019-10-25T13:40:30.000Z</time>
      </trkpt>
      <trkpt lat="38.0378825962543487548828125" lon="-1.03216390125453472137451171875">
        <ele>32.200000762939453125</ele>
        <time>2019-10-25T13:40:35.000Z</time>
      </trkpt>
      <trkpt lat="38.03776700980961322784423828125" lon="-1.03237093426287174224853515625">
        <ele>33</ele>
        <time>2019-10-25T13:40:39.000Z</time>
      </trkpt>
      <trkpt lat="38.03764714859426021575927734375" lon="-1.0325859300792217254638671875">
        <ele>33.799999237060546875</ele>
        <time>2019-10-25T13:40:43.000Z</time>
      </trkpt>
      <trkpt lat="38.03752024658024311065673828125" lon="-1.03281165473163127899169921875">
        <ele>34.59999847412109375</ele>
        <time>2019-10-25T13:40:47.000Z</time>
      </trkpt>
      <trkpt lat="38.03746123798191547393798828125" lon="-1.03293201886117458343505859375">
        <ele>35</ele>
        <time>2019-10-25T13:40:49.000Z</time>
      </trkpt>
      <trkpt lat="38.0373319052159786224365234375" lon="-1.03317291475832462310791015625">
        <ele>34</ele>
        <time>2019-10-25T13:40:53.000Z</time>
      </trkpt>
      <trkpt lat="38.03720190189778804779052734375" lon="-1.03341079317033290863037109375">
        <ele>33.200000762939453125</ele>
        <time>2019-10-25T13:40:57.000Z</time>
      </trkpt>
      <trkpt lat="38.03709737956523895263671875" lon="-1.03359687142074108123779296875">
        <ele>31.799999237060546875</ele>
        <time>2019-10-25T13:41:00.000Z</time>
      </trkpt>
      <trkpt lat="38.03699671290814876556396484375" lon="-1.03378772735595703125">
        <ele>29.799999237060546875</ele>
        <time>2019-10-25T13:41:03.000Z</time>
      </trkpt>
      <trkpt lat="38.036864697933197021484375" lon="-1.0340276174247264862060546875">
        <ele>28.799999237060546875</ele>
        <time>2019-10-25T13:41:07.000Z</time>
      </trkpt>
      <trkpt lat="38.0367257259786128997802734375" lon="-1.0342616401612758636474609375">
        <ele>31</ele>
        <time>2019-10-25T13:41:11.000Z</time>
      </trkpt>
      <trkpt lat="38.03660192526876926422119140625" lon="-1.0345157794654369354248046875">
        <ele>33.200000762939453125</ele>
        <time>2019-10-25T13:41:15.000Z</time>
      </trkpt>
      <trkpt lat="38.03647644817829132080078125" lon="-1.03477100841701030731201171875">
        <ele>34.40000152587890625</ele>
        <time>2019-10-25T13:41:19.000Z</time>
      </trkpt>
      <trkpt lat="38.03633554838597774505615234375" lon="-1.0350156761705875396728515625">
        <ele>34.200000762939453125</ele>
        <time>2019-10-25T13:41:23.000Z</time>
      </trkpt>
      <trkpt lat="38.03619523532688617706298828125" lon="-1.035261265933513641357421875">
        <ele>33.40000152587890625</ele>
        <time>2019-10-25T13:41:27.000Z</time>
      </trkpt>
      <trkpt lat="38.03608325310051441192626953125" lon="-1.0354451648890972137451171875">
        <ele>32.40000152587890625</ele>
        <time>2019-10-25T13:41:30.000Z</time>
      </trkpt>
      <trkpt lat="38.0359740369021892547607421875" lon="-1.035631410777568817138671875">
        <ele>32.799999237060546875</ele>
        <time>2019-10-25T13:41:33.000Z</time>
      </trkpt>
      <trkpt lat="38.03586549125611782073974609375" lon="-1.0358183272182941436767578125">
        <ele>33</ele>
        <time>2019-10-25T13:41:36.000Z</time>
      </trkpt>
      <trkpt lat="38.03576163947582244873046875" lon="-1.036011613905429840087890625">
        <ele>33</ele>
        <time>2019-10-25T13:41:39.000Z</time>
      </trkpt>
      <trkpt lat="38.035652339458465576171875" lon="-1.03619308210909366607666015625">
        <ele>32.799999237060546875</ele>
        <time>2019-10-25T13:41:42.000Z</time>
      </trkpt>
      <trkpt lat="38.03555133752524852752685546875" lon="-1.03638536296784877777099609375">
        <ele>32.40000152587890625</ele>
        <time>2019-10-25T13:41:45.000Z</time>
      </trkpt>
      <trkpt lat="38.03544421680271625518798828125" lon="-1.03658183477818965911865234375">
        <ele>32</ele>
        <time>2019-10-25T13:41:48.000Z</time>
      </trkpt>
      <trkpt lat="38.03533189930021762847900390625" lon="-1.036772690713405609130859375">
        <ele>32</ele>
        <time>2019-10-25T13:41:51.000Z</time>
      </trkpt>
      <trkpt lat="38.03522746078670024871826171875" lon="-1.03696673177182674407958984375">
        <ele>32</ele>
        <time>2019-10-25T13:41:54.000Z</time>
      </trkpt>
      <trkpt lat="38.0350922606885433197021484375" lon="-1.0372154228389263153076171875">
        <ele>32.200000762939453125</ele>
        <time>2019-10-25T13:41:58.000Z</time>
      </trkpt>
      <trkpt lat="38.03495387546718120574951171875" lon="-1.03745724074542522430419921875">
        <ele>32.799999237060546875</ele>
        <time>2019-10-25T13:42:02.000Z</time>
      </trkpt>
      <trkpt lat="38.03481758572161197662353515625" lon="-1.0377002321183681488037109375">
        <ele>32.799999237060546875</ele>
        <time>2019-10-25T13:42:06.000Z</time>
      </trkpt>
      <trkpt lat="38.03468481637537479400634765625" lon="-1.03795143775641918182373046875">
        <ele>31.6000003814697265625</ele>
        <time>2019-10-25T13:42:10.000Z</time>
      </trkpt>
      <trkpt lat="38.03455590270459651947021484375" lon="-1.0381974466145038604736328125">
        <ele>31.200000762939453125</ele>
        <time>2019-10-25T13:42:14.000Z</time>
      </trkpt>
      <trkpt lat="38.03442346863448619842529296875" lon="-1.03844605386257171630859375">
        <ele>32.200000762939453125</ele>
        <time>2019-10-25T13:42:18.000Z</time>
      </trkpt>
      <trkpt lat="38.0342938005924224853515625" lon="-1.03868468664586544036865234375">
        <ele>33</ele>
        <time>2019-10-25T13:42:22.000Z</time>
      </trkpt>
      <trkpt lat="38.03416396491229534149169921875" lon="-1.038923822343349456787109375">
        <ele>33.59999847412109375</ele>
        <time>2019-10-25T13:42:26.000Z</time>
      </trkpt>
      <trkpt lat="38.03402884863317012786865234375" lon="-1.03916413150727748870849609375">
        <ele>34</ele>
        <time>2019-10-25T13:42:30.000Z</time>
      </trkpt>
      <trkpt lat="38.03389138542115688323974609375" lon="-1.03940787725150585174560546875">
        <ele>34.40000152587890625</ele>
        <time>2019-10-25T13:42:34.000Z</time>
      </trkpt>
      <trkpt lat="38.03375425748527050018310546875" lon="-1.039656065404415130615234375">
        <ele>34.799999237060546875</ele>
        <time>2019-10-25T13:42:38.000Z</time>
      </trkpt>
      <trkpt lat="38.03362450562417507171630859375" lon="-1.03990592993795871734619140625">
        <ele>33.799999237060546875</ele>
        <time>2019-10-25T13:42:42.000Z</time>
      </trkpt>
      <trkpt lat="38.03349492140114307403564453125" lon="-1.04015386663377285003662109375">
        <ele>33</ele>
        <time>2019-10-25T13:42:46.000Z</time>
      </trkpt>
      <trkpt lat="38.033360727131366729736328125" lon="-1.0403975285589694976806640625">
        <ele>33.40000152587890625</ele>
        <time>2019-10-25T13:42:50.000Z</time>
      </trkpt>
      <trkpt lat="38.03322703577578067779541015625" lon="-1.04063205420970916748046875">
        <ele>34</ele>
        <time>2019-10-25T13:42:54.000Z</time>
      </trkpt>
      <trkpt lat="38.0331067554652690887451171875" lon="-1.04085467755794525146484375">
        <ele>34.40000152587890625</ele>
        <time>2019-10-25T13:42:58.000Z</time>
      </trkpt>
      <trkpt lat="38.03298748098313808441162109375" lon="-1.04109113104641437530517578125">
        <ele>34.40000152587890625</ele>
        <time>2019-10-25T13:43:02.000Z</time>
      </trkpt>
      <trkpt lat="38.032855130732059478759765625" lon="-1.0413192026317119598388671875">
        <ele>34</ele>
        <time>2019-10-25T13:43:06.000Z</time>
      </trkpt>
      <trkpt lat="38.03271867334842681884765625" lon="-1.041547358036041259765625">
        <ele>33.799999237060546875</ele>
        <time>2019-10-25T13:43:10.000Z</time>
      </trkpt>
      <trkpt lat="38.03260861895978450775146484375" lon="-1.04176218621432781219482421875">
        <ele>34</ele>
        <time>2019-10-25T13:43:14.000Z</time>
      </trkpt>
      <trkpt lat="38.03258053958415985107421875" lon="-1.0418040119111537933349609375">
        <ele>34</ele>
        <time>2019-10-25T13:43:15.000Z</time>
      </trkpt>
      <trkpt lat="38.0324583314359188079833984375" lon="-1.04201951064169406890869140625">
        <ele>34</ele>
        <time>2019-10-25T13:43:20.000Z</time>
      </trkpt>
      <trkpt lat="38.03241499699652194976806640625" lon="-1.04219377040863037109375">
        <ele>33.200000762939453125</ele>
        <time>2019-10-25T13:44:10.000Z</time>
      </trkpt>
      <trkpt lat="38.03240141831338405609130859375" lon="-1.04222260415554046630859375">
        <ele>33</ele>
        <time>2019-10-25T13:44:11.000Z</time>
      </trkpt>
      <trkpt lat="38.03223797120153903961181640625" lon="-1.04240273125469684600830078125">
        <ele>33</ele>
        <time>2019-10-25T13:44:17.000Z</time>
      </trkpt>
      <trkpt lat="38.032110147178173065185546875" lon="-1.04262317530810832977294921875">
        <ele>33.799999237060546875</ele>
        <time>2019-10-25T13:44:22.000Z</time>
      </trkpt>
      <trkpt lat="38.03199741058051586151123046875" lon="-1.0428125225007534027099609375">
        <ele>34.59999847412109375</ele>
        <time>2019-10-25T13:44:26.000Z</time>
      </trkpt>
      <trkpt lat="38.03188643418252468109130859375" lon="-1.04300220496952533721923828125">
        <ele>35</ele>
        <time>2019-10-25T13:44:30.000Z</time>
      </trkpt>
      <trkpt lat="38.03177579306066036224365234375" lon="-1.043203286826610565185546875">
        <ele>35.200000762939453125</ele>
        <time>2019-10-25T13:44:34.000Z</time>
      </trkpt>
      <trkpt lat="38.03166079334914684295654296875" lon="-1.04341945610940456390380859375">
        <ele>35</ele>
        <time>2019-10-25T13:44:39.000Z</time>
      </trkpt>
      <trkpt lat="38.03154679946601390838623046875" lon="-1.04363906197249889373779296875">
        <ele>33.799999237060546875</ele>
        <time>2019-10-25T13:44:45.000Z</time>
      </trkpt>
      <trkpt lat="38.03143682889640331268310546875" lon="-1.04383117519319057464599609375">
        <ele>33.200000762939453125</ele>
        <time>2019-10-25T13:44:50.000Z</time>
      </trkpt>
      <trkpt lat="38.03131059743463993072509765625" lon="-1.0440366156399250030517578125">
        <ele>33</ele>
        <time>2019-10-25T13:44:55.000Z</time>
      </trkpt>
      <trkpt lat="38.0312067456543445587158203125" lon="-1.04418874718248844146728515625">
        <ele>33</ele>
        <time>2019-10-25T13:45:02.000Z</time>
      </trkpt>
      <trkpt lat="38.03115687333047389984130859375" lon="-1.04427239857614040374755859375">
        <ele>33</ele>
        <time>2019-10-25T13:45:15.000Z</time>
      </trkpt>
      <trkpt lat="38.0310401134192943572998046875" lon="-1.04438471607863903045654296875">
        <ele>32.799999237060546875</ele>
        <time>2019-10-25T13:45:20.000Z</time>
      </trkpt>
      <trkpt lat="38.03086753003299236297607421875" lon="-1.04449870996177196502685546875">
        <ele>32.40000152587890625</ele>
        <time>2019-10-25T13:45:25.000Z</time>
      </trkpt>
      <trkpt lat="38.03074599243700504302978515625" lon="-1.04456157423555850982666015625">
        <ele>32.200000762939453125</ele>
        <time>2019-10-25T13:45:28.000Z</time>
      </trkpt>
      <trkpt lat="38.03057692945003509521484375" lon="-1.044655703008174896240234375">
        <ele>32.40000152587890625</ele>
        <time>2019-10-25T13:45:32.000Z</time>
      </trkpt>
      <trkpt lat="38.0303772725164890289306640625" lon="-1.0447755642235279083251953125">
        <ele>33.200000762939453125</ele>
        <time>2019-10-25T13:45:37.000Z</time>
      </trkpt>
      <trkpt lat="38.03019915707409381866455078125" lon="-1.04487690143287181854248046875">
        <ele>33.799999237060546875</ele>
        <time>2019-10-25T13:45:41.000Z</time>
      </trkpt>
      <trkpt lat="38.03002397529780864715576171875" lon="-1.044991649687290191650390625">
        <ele>34</ele>
        <time>2019-10-25T13:45:45.000Z</time>
      </trkpt>
      <trkpt lat="38.02985533140599727630615234375" lon="-1.04510866105556488037109375">
        <ele>34.200000762939453125</ele>
        <time>2019-10-25T13:45:49.000Z</time>
      </trkpt>
      <trkpt lat="38.0296617932617664337158203125" lon="-1.0452171228826045989990234375">
        <ele>34.200000762939453125</ele>
        <time>2019-10-25T13:45:53.000Z</time>
      </trkpt>
      <trkpt lat="38.02947194315493106842041015625" lon="-1.0453177057206630706787109375">
        <ele>34.59999847412109375</ele>
        <time>2019-10-25T13:45:57.000Z</time>
      </trkpt>
      <trkpt lat="38.02942701615393161773681640625" lon="-1.04534209705889225006103515625">
        <ele>34.59999847412109375</ele>
        <time>2019-10-25T13:45:58.000Z</time>
      </trkpt>
      <trkpt lat="38.02923691459000110626220703125" lon="-1.04546246118843555450439453125">
        <ele>34.59999847412109375</ele>
        <time>2019-10-25T13:46:02.000Z</time>
      </trkpt>
      <trkpt lat="38.02904832176864147186279296875" lon="-1.0455775447189807891845703125">
        <ele>33.59999847412109375</ele>
        <time>2019-10-25T13:46:06.000Z</time>
      </trkpt>
      <trkpt lat="38.02885117940604686737060546875" lon="-1.04570017196238040924072265625">
        <ele>32.40000152587890625</ele>
        <time>2019-10-25T13:46:10.000Z</time>
      </trkpt>
      <trkpt lat="38.0286556296050548553466796875" lon="-1.04582204483449459075927734375">
        <ele>31.6000003814697265625</ele>
        <time>2019-10-25T13:46:14.000Z</time>
      </trkpt>
      <trkpt lat="38.0284682102501392364501953125" lon="-1.0459289140999317169189453125">
        <ele>31</ele>
        <time>2019-10-25T13:46:18.000Z</time>
      </trkpt>
      <trkpt lat="38.02828942425549030303955078125" lon="-1.04603712446987628936767578125">
        <ele>31.6000003814697265625</ele>
        <time>2019-10-25T13:46:22.000Z</time>
      </trkpt>
      <trkpt lat="38.02809856832027435302734375" lon="-1.04615271091461181640625">
        <ele>32</ele>
        <time>2019-10-25T13:46:26.000Z</time>
      </trkpt>
      <trkpt lat="38.0279119871556758880615234375" lon="-1.04627466760575771331787109375">
        <ele>32</ele>
        <time>2019-10-25T13:46:30.000Z</time>
      </trkpt>
      <trkpt lat="38.02772666327655315399169921875" lon="-1.04638111777603626251220703125">
        <ele>31.6000003814697265625</ele>
        <time>2019-10-25T13:46:34.000Z</time>
      </trkpt>
      <trkpt lat="38.02759640850126743316650390625" lon="-1.04647382162511348724365234375">
        <ele>31.6000003814697265625</ele>
        <time>2019-10-25T13:46:37.000Z</time>
      </trkpt>
      <trkpt lat="38.02740999497473239898681640625" lon="-1.04659133590757846832275390625">
        <ele>32.59999847412109375</ele>
        <time>2019-10-25T13:46:41.000Z</time>
      </trkpt>
      <trkpt lat="38.02722458727657794952392578125" lon="-1.0467121191322803497314453125">
        <ele>33</ele>
        <time>2019-10-25T13:46:45.000Z</time>
      </trkpt>
      <trkpt lat="38.02702945657074451446533203125" lon="-1.04682485572993755340576171875">
        <ele>33</ele>
        <time>2019-10-25T13:46:49.000Z</time>
      </trkpt>
      <trkpt lat="38.02683231420814990997314453125" lon="-1.04690750129520893096923828125">
        <ele>33.40000152587890625</ele>
        <time>2019-10-25T13:46:53.000Z</time>
      </trkpt>
      <trkpt lat="38.02662603557109832763671875" lon="-1.0468867979943752288818359375">
        <ele>33.59999847412109375</ele>
        <time>2019-10-25T13:46:57.000Z</time>
      </trkpt>
      <trkpt lat="38.02647222764790058135986328125" lon="-1.04680071584880352020263671875">
        <ele>34</ele>
        <time>2019-10-25T13:47:00.000Z</time>
      </trkpt>
      <trkpt lat="38.0262766778469085693359375" lon="-1.0466722212731838226318359375">
        <ele>34.40000152587890625</ele>
        <time>2019-10-25T13:47:04.000Z</time>
      </trkpt>
      <trkpt lat="38.02608800120651721954345703125" lon="-1.0465428046882152557373046875">
        <ele>34.40000152587890625</ele>
        <time>2019-10-25T13:47:08.000Z</time>
      </trkpt>
      <trkpt lat="38.02589655853807926177978515625" lon="-1.046413891017436981201171875">
        <ele>34.799999237060546875</ele>
        <time>2019-10-25T13:47:12.000Z</time>
      </trkpt>
      <trkpt lat="38.02571131847798824310302734375" lon="-1.04628522880375385284423828125">
        <ele>35</ele>
        <time>2019-10-25T13:47:16.000Z</time>
      </trkpt>
      <trkpt lat="38.02551518194377422332763671875" lon="-1.0461498610675334930419921875">
        <ele>35</ele>
        <time>2019-10-25T13:47:20.000Z</time>
      </trkpt>
      <trkpt lat="38.02532340399920940399169921875" lon="-1.04602463543415069580078125">
        <ele>35</ele>
        <time>2019-10-25T13:47:24.000Z</time>
      </trkpt>
      <trkpt lat="38.025122322142124176025390625" lon="-1.04590100236237049102783203125">
        <ele>35</ele>
        <time>2019-10-25T13:47:28.000Z</time>
      </trkpt>
      <trkpt lat="38.024917133152484893798828125" lon="-1.0457800514996051788330078125">
        <ele>35.200000762939453125</ele>
        <time>2019-10-25T13:47:32.000Z</time>
      </trkpt>
      <trkpt lat="38.02471118979156017303466796875" lon="-1.04566295631229877471923828125">
        <ele>35.40000152587890625</ele>
        <time>2019-10-25T13:47:36.000Z</time>
      </trkpt>
      <trkpt lat="38.02451471798121929168701171875" lon="-1.04555851779878139495849609375">
        <ele>35.799999237060546875</ele>
        <time>2019-10-25T13:47:40.000Z</time>
      </trkpt>
      <trkpt lat="38.02432629279792308807373046875" lon="-1.045435555279254913330078125">
        <ele>36</ele>
        <time>2019-10-25T13:47:44.000Z</time>
      </trkpt>
      <trkpt lat="38.0241568945348262786865234375" lon="-1.0453212261199951171875">
        <ele>36</ele>
        <time>2019-10-25T13:47:48.000Z</time>
      </trkpt>
      <trkpt lat="38.0239657871425151824951171875" lon="-1.04519859887659549713134765625">
        <ele>36</ele>
        <time>2019-10-25T13:47:53.000Z</time>
      </trkpt>
      <trkpt lat="38.02381197921931743621826171875" lon="-1.04511863552033901214599609375">
        <ele>37</ele>
        <time>2019-10-25T13:47:58.000Z</time>
      </trkpt>
      <trkpt lat="38.02372011356055736541748046875" lon="-1.04516976512968540191650390625">
        <ele>37</ele>
        <time>2019-10-25T13:48:03.000Z</time>
      </trkpt>
      <trkpt lat="38.02366361953318119049072265625" lon="-1.04525081813335418701171875">
        <ele>37</ele>
        <time>2019-10-25T13:48:09.000Z</time>
      </trkpt>
      <trkpt lat="38.0236751027405261993408203125" lon="-1.04530722834169864654541015625">
        <ele>36.799999237060546875</ele>
        <time>2019-10-25T13:49:49.000Z</time>
      </trkpt>
      <trkpt lat="38.02366814576089382171630859375" lon="-1.04531292803585529327392578125">
        <ele>36.799999237060546875</ele>
        <time>2019-10-25T13:51:29.000Z</time>
      </trkpt>
      <trkpt lat="38.02367099560797214508056640625" lon="-1.0452989302575588226318359375">
        <ele>36.799999237060546875</ele>
        <time>2019-10-25T13:53:20.000Z</time>
      </trkpt>
      <trkpt lat="38.0234699137508869171142578125" lon="-1.04532130993902683258056640625">
        <ele>37.40000152587890625</ele>
        <time>2019-10-25T13:53:32.000Z</time>
      </trkpt>
      <trkpt lat="38.0232643894851207733154296875" lon="-1.04532684199512004852294921875">
        <ele>36</ele>
        <time>2019-10-25T13:53:39.000Z</time>
      </trkpt>
      <trkpt lat="38.0231007747352123260498046875" lon="-1.0454271733760833740234375">
        <ele>34.200000762939453125</ele>
        <time>2019-10-25T13:53:44.000Z</time>
      </trkpt>
      <trkpt lat="38.02292249165475368499755859375" lon="-1.0455183684825897216796875">
        <ele>32.59999847412109375</ele>
        <time>2019-10-25T13:53:49.000Z</time>
      </trkpt>
      <trkpt lat="38.02274890244007110595703125" lon="-1.0456211306154727935791015625">
        <ele>31.6000003814697265625</ele>
        <time>2019-10-25T13:53:54.000Z</time>
      </trkpt>
      <trkpt lat="38.02257162518799304962158203125" lon="-1.04575482197105884552001953125">
        <ele>31.799999237060546875</ele>
        <time>2019-10-25T13:53:59.000Z</time>
      </trkpt>
      <trkpt lat="38.0223755724728107452392578125" lon="-1.0458491183817386627197265625">
        <ele>33.40000152587890625</ele>
        <time>2019-10-25T13:54:04.000Z</time>
      </trkpt>
      <trkpt lat="38.022192679345607757568359375" lon="-1.045945174992084503173828125">
        <ele>35.200000762939453125</ele>
        <time>2019-10-25T13:54:09.000Z</time>
      </trkpt>
      <trkpt lat="38.02197852171957492828369140625" lon="-1.0460288263857364654541015625">
        <ele>35.59999847412109375</ele>
        <time>2019-10-25T13:54:14.000Z</time>
      </trkpt>
      <trkpt lat="38.02179395221173763275146484375" lon="-1.04608221910893917083740234375">
        <ele>34.799999237060546875</ele>
        <time>2019-10-25T13:54:18.000Z</time>
      </trkpt>
      <trkpt lat="38.02161164581775665283203125" lon="-1.04613049887120723724365234375">
        <ele>34</ele>
        <time>2019-10-25T13:54:22.000Z</time>
      </trkpt>
      <trkpt lat="38.0214146710932254791259765625" lon="-1.0461961291730403900146484375">
        <ele>33.40000152587890625</ele>
        <time>2019-10-25T13:54:26.000Z</time>
      </trkpt>
      <trkpt lat="38.0212368071079254150390625" lon="-1.04625673033297061920166015625">
        <ele>33.200000762939453125</ele>
        <time>2019-10-25T13:54:30.000Z</time>
      </trkpt>
      <trkpt lat="38.02106891758739948272705078125" lon="-1.04634608142077922821044921875">
        <ele>33.40000152587890625</ele>
        <time>2019-10-25T13:54:34.000Z</time>
      </trkpt>
      <trkpt lat="38.02102700807154178619384765625" lon="-1.04638162069022655487060546875">
        <ele>33.40000152587890625</ele>
        <time>2019-10-25T13:54:35.000Z</time>
      </trkpt>
      <trkpt lat="38.0208634771406650543212890625" lon="-1.04656468145549297332763671875">
        <ele>33.40000152587890625</ele>
        <time>2019-10-25T13:54:39.000Z</time>
      </trkpt>
      <trkpt lat="38.0207297019660472869873046875" lon="-1.04671756736934185028076171875">
        <ele>33.799999237060546875</ele>
        <time>2019-10-25T13:54:42.000Z</time>
      </trkpt>
      <trkpt lat="38.0206844396889209747314453125" lon="-1.04677037335932254791259765625">
        <ele>34</ele>
        <time>2019-10-25T13:54:43.000Z</time>
      </trkpt>
      <trkpt lat="38.020549826323986053466796875" lon="-1.04693013243377208709716796875">
        <ele>34</ele>
        <time>2019-10-25T13:54:46.000Z</time>
      </trkpt>
      <trkpt lat="38.02041395567357540130615234375" lon="-1.04708871804177761077880859375">
        <ele>34</ele>
        <time>2019-10-25T13:54:49.000Z</time>
      </trkpt>
      <trkpt lat="38.0202757380902767181396484375" lon="-1.04724772274494171142578125">
        <ele>33.40000152587890625</ele>
        <time>2019-10-25T13:54:52.000Z</time>
      </trkpt>
      <trkpt lat="38.020103909075260162353515625" lon="-1.0474571026861667633056640625">
        <ele>33.200000762939453125</ele>
        <time>2019-10-25T13:54:56.000Z</time>
      </trkpt>
      <trkpt lat="38.01994138397276401519775390625" lon="-1.047675199806690216064453125">
        <ele>33.59999847412109375</ele>
        <time>2019-10-25T13:55:00.000Z</time>
      </trkpt>
      <trkpt lat="38.01981330849230289459228515625" lon="-1.04790058918297290802001953125">
        <ele>33.40000152587890625</ele>
        <time>2019-10-25T13:55:04.000Z</time>
      </trkpt>
      <trkpt lat="38.01969160325825214385986328125" lon="-1.0481216199696063995361328125">
        <ele>33.59999847412109375</ele>
        <time>2019-10-25T13:55:08.000Z</time>
      </trkpt>
      <trkpt lat="38.0195724964141845703125" lon="-1.04833996854722499847412109375">
        <ele>34.200000762939453125</ele>
        <time>2019-10-25T13:55:12.000Z</time>
      </trkpt>
      <trkpt lat="38.01943880505859851837158203125" lon="-1.04854482226073741912841796875">
        <ele>35.40000152587890625</ele>
        <time>2019-10-25T13:55:16.000Z</time>
      </trkpt>
      <trkpt lat="38.019302599132061004638671875" lon="-1.0487435571849346160888671875">
        <ele>36</ele>
        <time>2019-10-25T13:55:20.000Z</time>
      </trkpt>
      <trkpt lat="38.019177205860614776611328125" lon="-1.04894564487040042877197265625">
        <ele>35.200000762939453125</ele>
        <time>2019-10-25T13:55:24.000Z</time>
      </trkpt>
      <trkpt lat="38.019144348800182342529296875" lon="-1.0489980317652225494384765625">
        <ele>35</ele>
        <time>2019-10-25T13:55:25.000Z</time>
      </trkpt>
      <trkpt lat="38.01904116757214069366455078125" lon="-1.049221493303775787353515625">
        <ele>34.40000152587890625</ele>
        <time>2019-10-25T13:55:29.000Z</time>
      </trkpt>
      <trkpt lat="38.0189354717731475830078125" lon="-1.04944738559424877166748046875">
        <ele>34.40000152587890625</ele>
        <time>2019-10-25T13:55:33.000Z</time>
      </trkpt>
      <trkpt lat="38.01890202797949314117431640625" lon="-1.04949474334716796875">
        <ele>34.40000152587890625</ele>
        <time>2019-10-25T13:55:34.000Z</time>
      </trkpt>
      <trkpt lat="38.01876171492040157318115234375" lon="-1.0497078113257884979248046875">
        <ele>35.40000152587890625</ele>
        <time>2019-10-25T13:55:38.000Z</time>
      </trkpt>
      <trkpt lat="38.018621318042278289794921875" lon="-1.0499227233231067657470703125">
        <ele>35.799999237060546875</ele>
        <time>2019-10-25T13:55:42.000Z</time>
      </trkpt>
      <trkpt lat="38.018493242561817169189453125" lon="-1.05013268999755382537841796875">
        <ele>35</ele>
        <time>2019-10-25T13:55:46.000Z</time>
      </trkpt>
      <trkpt lat="38.01836374215781688690185546875" lon="-1.05035631917417049407958984375">
        <ele>35</ele>
        <time>2019-10-25T13:55:50.000Z</time>
      </trkpt>
      <trkpt lat="38.0183297954499721527099609375" lon="-1.05040677823126316070556640625">
        <ele>35</ele>
        <time>2019-10-25T13:55:51.000Z</time>
      </trkpt>
      <trkpt lat="38.01829081960022449493408203125" lon="-1.05045296251773834228515625">
        <ele>35</ele>
        <time>2019-10-25T13:55:52.000Z</time>
      </trkpt>
      <trkpt lat="38.01817799918353557586669921875" lon="-1.0505791939795017242431640625">
        <ele>35.59999847412109375</ele>
        <time>2019-10-25T13:55:55.000Z</time>
      </trkpt>
      <trkpt lat="38.0180235207080841064453125" lon="-1.050743646919727325439453125">
        <ele>36.59999847412109375</ele>
        <time>2019-10-25T13:55:59.000Z</time>
      </trkpt>
      <trkpt lat="38.01786384545266628265380859375" lon="-1.05090835131704807281494140625">
        <ele>36.40000152587890625</ele>
        <time>2019-10-25T13:56:03.000Z</time>
      </trkpt>
      <trkpt lat="38.0177065171301364898681640625" lon="-1.051072217524051666259765625">
        <ele>36.40000152587890625</ele>
        <time>2019-10-25T13:56:07.000Z</time>
      </trkpt>
      <trkpt lat="38.017537705600261688232421875" lon="-1.05125670321285724639892578125">
        <ele>36.40000152587890625</ele>
        <time>2019-10-25T13:56:11.000Z</time>
      </trkpt>
      <trkpt lat="38.01737450994551181793212890625" lon="-1.05144202709197998046875">
        <ele>36.40000152587890625</ele>
        <time>2019-10-25T13:56:15.000Z</time>
      </trkpt>
      <trkpt lat="38.01729488186538219451904296875" lon="-1.05153699405491352081298828125">
        <ele>35.799999237060546875</ele>
        <time>2019-10-25T13:56:17.000Z</time>
      </trkpt>
      <trkpt lat="38.01713059656322002410888671875" lon="-1.05172634124755859375">
        <ele>34.40000152587890625</ele>
        <time>2019-10-25T13:56:21.000Z</time>
      </trkpt>
      <trkpt lat="38.01696605980396270751953125" lon="-1.0518958233296871185302734375">
        <ele>33.200000762939453125</ele>
        <time>2019-10-25T13:56:25.000Z</time>
      </trkpt>
      <trkpt lat="38.016804791986942291259765625" lon="-1.05206538923084735870361328125">
        <ele>32.200000762939453125</ele>
        <time>2019-10-25T13:56:29.000Z</time>
      </trkpt>
      <trkpt lat="38.0166557617485523223876953125" lon="-1.05224601924419403076171875">
        <ele>32</ele>
        <time>2019-10-25T13:56:33.000Z</time>
      </trkpt>
      <trkpt lat="38.01651067100465297698974609375" lon="-1.05241977609694004058837890625">
        <ele>32.40000152587890625</ele>
        <time>2019-10-25T13:56:37.000Z</time>
      </trkpt>
      <trkpt lat="38.01636197604238986968994140625" lon="-1.0525871627032756805419921875">
        <ele>34</ele>
        <time>2019-10-25T13:56:41.000Z</time>
      </trkpt>
      <trkpt lat="38.0162130296230316162109375" lon="-1.052749268710613250732421875">
        <ele>35</ele>
        <time>2019-10-25T13:56:45.000Z</time>
      </trkpt>
      <trkpt lat="38.01617941819131374359130859375" lon="-1.0527799464762210845947265625">
        <ele>35</ele>
        <time>2019-10-25T13:56:46.000Z</time>
      </trkpt>
      <trkpt lat="38.0160200782120227813720703125" lon="-1.05290559120476245880126953125">
        <ele>35</ele>
        <time>2019-10-25T13:56:51.000Z</time>
      </trkpt>
      <trkpt lat="38.01592377014458179473876953125" lon="-1.052959151566028594970703125">
        <ele>35</ele>
        <time>2019-10-25T13:56:54.000Z</time>
      </trkpt>
      <trkpt lat="38.0157597362995147705078125" lon="-1.0530404560267925262451171875">
        <ele>35.40000152587890625</ele>
        <time>2019-10-25T13:56:59.000Z</time>
      </trkpt>
      <trkpt lat="38.0155503563582897186279296875" lon="-1.053166687488555908203125">
        <ele>35.59999847412109375</ele>
        <time>2019-10-25T13:57:04.000Z</time>
      </trkpt>
      <trkpt lat="38.01536352373659610748291015625" lon="-1.05329736135900020599365234375">
        <ele>36</ele>
        <time>2019-10-25T13:57:08.000Z</time>
      </trkpt>
      <trkpt lat="38.015202172100543975830078125" lon="-1.053455360233783721923828125">
        <ele>36</ele>
        <time>2019-10-25T13:57:12.000Z</time>
      </trkpt>
      <trkpt lat="38.01505054347217082977294921875" lon="-1.05364504270255565643310546875">
        <ele>36</ele>
        <time>2019-10-25T13:57:16.000Z</time>
      </trkpt>
      <trkpt lat="38.01485759206116199493408203125" lon="-1.0537894628942012786865234375">
        <ele>36.799999237060546875</ele>
        <time>2019-10-25T13:57:20.000Z</time>
      </trkpt>
      <trkpt lat="38.01464586518704891204833984375" lon="-1.05390756390988826751708984375">
        <ele>37.200000762939453125</ele>
        <time>2019-10-25T13:57:24.000Z</time>
      </trkpt>
      <trkpt lat="38.01443832926452159881591796875" lon="-1.05402474291622638702392578125">
        <ele>37</ele>
        <time>2019-10-25T13:57:28.000Z</time>
      </trkpt>
      <trkpt lat="38.01428544335067272186279296875" lon="-1.05411761440336704254150390625">
        <ele>36.59999847412109375</ele>
        <time>2019-10-25T13:57:31.000Z</time>
      </trkpt>
      <trkpt lat="38.01410707645118236541748046875" lon="-1.0542541556060314178466796875">
        <ele>35.59999847412109375</ele>
        <time>2019-10-25T13:57:35.000Z</time>
      </trkpt>
      <trkpt lat="38.01392971538007259368896484375" lon="-1.05443193577229976654052734375">
        <ele>34.59999847412109375</ele>
        <time>2019-10-25T13:57:39.000Z</time>
      </trkpt>
      <trkpt lat="38.01375956274569034576416015625" lon="-1.0546192713081836700439453125">
        <ele>34</ele>
        <time>2019-10-25T13:57:43.000Z</time>
      </trkpt>
      <trkpt lat="38.01371564157307147979736328125" lon="-1.05466193519532680511474609375">
        <ele>34.40000152587890625</ele>
        <time>2019-10-25T13:57:44.000Z</time>
      </trkpt>
      <trkpt lat="38.013532496988773345947265625" lon="-1.054840385913848876953125">
        <ele>35.59999847412109375</ele>
        <time>2019-10-25T13:57:48.000Z</time>
      </trkpt>
      <trkpt lat="38.01333862356841564178466796875" lon="-1.05499084107577800750732421875">
        <ele>36</ele>
        <time>2019-10-25T13:57:52.000Z</time>
      </trkpt>
      <trkpt lat="38.01315195858478546142578125" lon="-1.0551367700099945068359375">
        <ele>36</ele>
        <time>2019-10-25T13:57:56.000Z</time>
      </trkpt>
      <trkpt lat="38.01297719590365886688232421875" lon="-1.05530231259763240814208984375">
        <ele>35.40000152587890625</ele>
        <time>2019-10-25T13:58:00.000Z</time>
      </trkpt>
      <trkpt lat="38.0128044448792934417724609375" lon="-1.05547967366874217987060546875">
        <ele>34.59999847412109375</ele>
        <time>2019-10-25T13:58:04.000Z</time>
      </trkpt>
      <trkpt lat="38.0126532353460788726806640625" lon="-1.05561294592916965484619140625">
        <ele>34</ele>
        <time>2019-10-25T13:58:08.000Z</time>
      </trkpt>
      <trkpt lat="38.0124973319470882415771484375" lon="-1.055760048329830169677734375">
        <ele>34.200000762939453125</ele>
        <time>2019-10-25T13:58:13.000Z</time>
      </trkpt>
      <trkpt lat="38.012300021946430206298828125" lon="-1.05581830255687236785888671875">
        <ele>34.40000152587890625</ele>
        <time>2019-10-25T13:58:18.000Z</time>
      </trkpt>
      <trkpt lat="38.012097179889678955078125" lon="-1.05570137500762939453125">
        <ele>36</ele>
        <time>2019-10-25T13:58:23.000Z</time>
      </trkpt>
      <trkpt lat="38.01192342303693294525146484375" lon="-1.05562468059360980987548828125">
        <ele>36</ele>
        <time>2019-10-25T13:58:27.000Z</time>
      </trkpt>
      <trkpt lat="38.01178981550037860870361328125" lon="-1.05557388626039028167724609375">
        <ele>36</ele>
        <time>2019-10-25T13:58:30.000Z</time>
      </trkpt>
      <trkpt lat="38.0116101913154125213623046875" lon="-1.055497191846370697021484375">
        <ele>36</ele>
        <time>2019-10-25T13:58:34.000Z</time>
      </trkpt>
      <trkpt lat="38.01142604090273380279541015625" lon="-1.05542804114520549774169921875">
        <ele>36.40000152587890625</ele>
        <time>2019-10-25T13:58:38.000Z</time>
      </trkpt>
      <trkpt lat="38.011237867176532745361328125" lon="-1.055373810231685638427734375">
        <ele>36.799999237060546875</ele>
        <time>2019-10-25T13:58:42.000Z</time>
      </trkpt>
      <trkpt lat="38.011190928518772125244140625" lon="-1.055363751947879791259765625">
        <ele>36.59999847412109375</ele>
        <time>2019-10-25T13:58:43.000Z</time>
      </trkpt>
      <trkpt lat="38.01099420525133609771728515625" lon="-1.0553082637488842010498046875">
        <ele>35.59999847412109375</ele>
        <time>2019-10-25T13:58:47.000Z</time>
      </trkpt>
      <trkpt lat="38.0107949674129486083984375" lon="-1.05525805614888668060302734375">
        <ele>35.59999847412109375</ele>
        <time>2019-10-25T13:58:51.000Z</time>
      </trkpt>
      <trkpt lat="38.010743670165538787841796875" lon="-1.0552413761615753173828125">
        <ele>35.799999237060546875</ele>
        <time>2019-10-25T13:58:52.000Z</time>
      </trkpt>
      <trkpt lat="38.01053739152848720550537109375" lon="-1.0551835410296916961669921875">
        <ele>36.40000152587890625</ele>
        <time>2019-10-25T13:58:56.000Z</time>
      </trkpt>
      <trkpt lat="38.010337315499782562255859375" lon="-1.05512746609747409820556640625">
        <ele>36.40000152587890625</ele>
        <time>2019-10-25T13:59:00.000Z</time>
      </trkpt>
      <trkpt lat="38.010136820375919342041015625" lon="-1.0550655238330364227294921875">
        <ele>35.59999847412109375</ele>
        <time>2019-10-25T13:59:04.000Z</time>
      </trkpt>
      <trkpt lat="38.0099398456513881683349609375" lon="-1.05500006116926670074462890625">
        <ele>36</ele>
        <time>2019-10-25T13:59:08.000Z</time>
      </trkpt>
      <trkpt lat="38.00978419370949268341064453125" lon="-1.05492529459297657012939453125">
        <ele>35.200000762939453125</ele>
        <time>2019-10-25T13:59:12.000Z</time>
      </trkpt>
      <trkpt lat="38.00963432528078556060791015625" lon="-1.05499620549380779266357421875">
        <ele>35.40000152587890625</ele>
        <time>2019-10-25T13:59:17.000Z</time>
      </trkpt>
      <trkpt lat="38.0094818584620952606201171875" lon="-1.0551770031452178955078125">
        <ele>36.799999237060546875</ele>
        <time>2019-10-25T13:59:22.000Z</time>
      </trkpt>
      <trkpt lat="38.0094496719539165496826171875" lon="-1.055210866034030914306640625">
        <ele>37</ele>
        <time>2019-10-25T13:59:23.000Z</time>
      </trkpt>
      <trkpt lat="38.009281195700168609619140625" lon="-1.05531220324337482452392578125">
        <ele>38</ele>
        <time>2019-10-25T13:59:27.000Z</time>
      </trkpt>
      <trkpt lat="38.00907977856695652008056640625" lon="-1.055359058082103729248046875">
        <ele>37.200000762939453125</ele>
        <time>2019-10-25T13:59:31.000Z</time>
      </trkpt>
      <trkpt lat="38.00886981189250946044921875" lon="-1.0553870536386966705322265625">
        <ele>36.40000152587890625</ele>
        <time>2019-10-25T13:59:35.000Z</time>
      </trkpt>
      <trkpt lat="38.00865464843809604644775390625" lon="-1.05530817992985248565673828125">
        <ele>36</ele>
        <time>2019-10-25T13:59:39.000Z</time>
      </trkpt>
      <trkpt lat="38.00851651467382907867431640625" lon="-1.0551828704774379730224609375">
        <ele>36</ele>
        <time>2019-10-25T13:59:42.000Z</time>
      </trkpt>
      <trkpt lat="38.00843219272792339324951171875" lon="-1.05509293265640735626220703125">
        <ele>36.200000762939453125</ele>
        <time>2019-10-25T13:59:44.000Z</time>
      </trkpt>
      <trkpt lat="38.00826824270188808441162109375" lon="-1.05491213500499725341796875">
        <ele>36.799999237060546875</ele>
        <time>2019-10-25T13:59:48.000Z</time>
      </trkpt>
      <trkpt lat="38.00822147168219089508056640625" lon="-1.05487215332686901092529296875">
        <ele>37</ele>
        <time>2019-10-25T13:59:49.000Z</time>
      </trkpt>
      <trkpt lat="38.0080177076160907745361328125" lon="-1.05474810115993022918701171875">
        <ele>38.40000152587890625</ele>
        <time>2019-10-25T13:59:53.000Z</time>
      </trkpt>
      <trkpt lat="38.00780765712261199951171875" lon="-1.05463008396327495574951171875">
        <ele>38.799999237060546875</ele>
        <time>2019-10-25T13:59:57.000Z</time>
      </trkpt>
      <trkpt lat="38.00759115256369113922119140625" lon="-1.05450251139700412750244140625">
        <ele>38.799999237060546875</ele>
        <time>2019-10-25T14:00:01.000Z</time>
      </trkpt>
      <trkpt lat="38.00738244317471981048583984375" lon="-1.05438969098031520843505859375">
        <ele>38</ele>
        <time>2019-10-25T14:00:05.000Z</time>
      </trkpt>
      <trkpt lat="38.00717532634735107421875" lon="-1.054278798401355743408203125">
        <ele>38</ele>
        <time>2019-10-25T14:00:09.000Z</time>
      </trkpt>
      <trkpt lat="38.00697240047156810760498046875" lon="-1.05416036210954189300537109375">
        <ele>37</ele>
        <time>2019-10-25T14:00:13.000Z</time>
      </trkpt>
      <trkpt lat="38.00677022896707057952880859375" lon="-1.05405651032924652099609375">
        <ele>37</ele>
        <time>2019-10-25T14:00:17.000Z</time>
      </trkpt>
      <trkpt lat="38.0065857432782649993896484375" lon="-1.0539607889950275421142578125">
        <ele>37</ele>
        <time>2019-10-25T14:00:21.000Z</time>
      </trkpt>
      <trkpt lat="38.00641701556742191314697265625" lon="-1.05386548675596714019775390625">
        <ele>38</ele>
        <time>2019-10-25T14:00:25.000Z</time>
      </trkpt>
      <trkpt lat="38.00621937029063701629638671875" lon="-1.053751744329929351806640625">
        <ele>38.200000762939453125</ele>
        <time>2019-10-25T14:00:30.000Z</time>
      </trkpt>
      <trkpt lat="38.0061522312462329864501953125" lon="-1.05369734577834606170654296875">
        <ele>38.59999847412109375</ele>
        <time>2019-10-25T14:00:32.000Z</time>
      </trkpt>
      <trkpt lat="38.00599046051502227783203125" lon="-1.05375367216765880584716796875">
        <ele>39</ele>
        <time>2019-10-25T14:00:38.000Z</time>
      </trkpt>
      <trkpt lat="38.00596372224390506744384765625" lon="-1.05380346067249774932861328125">
        <ele>39</ele>
        <time>2019-10-25T14:00:39.000Z</time>
      </trkpt>
      <trkpt lat="38.00590605475008487701416015625" lon="-1.0539024509489536285400390625">
        <ele>39.200000762939453125</ele>
        <time>2019-10-25T14:00:41.000Z</time>
      </trkpt>
      <trkpt lat="38.0057539232075214385986328125" lon="-1.05408391915261745452880859375">
        <ele>39.59999847412109375</ele>
        <time>2019-10-25T14:00:45.000Z</time>
      </trkpt>
      <trkpt lat="38.00565862096846103668212890625" lon="-1.05414577759802341461181640625">
        <ele>39.40000152587890625</ele>
        <time>2019-10-25T14:00:47.000Z</time>
      </trkpt>
      <trkpt lat="38.00555787049233913421630859375" lon="-1.0543889366090297698974609375">
        <ele>38</ele>
        <time>2019-10-25T14:00:51.000Z</time>
      </trkpt>
      <trkpt lat="38.00554521381855010986328125" lon="-1.0544643737375736236572265625">
        <ele>37.40000152587890625</ele>
        <time>2019-10-25T14:00:52.000Z</time>
      </trkpt>
      <trkpt lat="38.0055172182619571685791015625" lon="-1.0546088777482509613037109375">
        <ele>36</ele>
        <time>2019-10-25T14:00:54.000Z</time>
      </trkpt>
      <trkpt lat="38.00548008643090724945068359375" lon="-1.05474692769348621368408203125">
        <ele>35.40000152587890625</ele>
        <time>2019-10-25T14:00:56.000Z</time>
      </trkpt>
      <trkpt lat="38.00539995543658733367919921875" lon="-1.05500291101634502410888671875">
        <ele>35.200000762939453125</ele>
        <time>2019-10-25T14:01:00.000Z</time>
      </trkpt>
      <trkpt lat="38.00528780557215213775634765625" lon="-1.05524648912250995635986328125">
        <ele>36</ele>
        <time>2019-10-25T14:01:04.000Z</time>
      </trkpt>
      <trkpt lat="38.00521018914878368377685546875" lon="-1.05535679496824741363525390625">
        <ele>36.40000152587890625</ele>
        <time>2019-10-25T14:01:06.000Z</time>
      </trkpt>
      <trkpt lat="38.00501589663326740264892578125" lon="-1.05550431646406650543212890625">
        <ele>37.40000152587890625</ele>
        <time>2019-10-25T14:01:10.000Z</time>
      </trkpt>
      <trkpt lat="38.00496309064328670501708984375" lon="-1.05553030036389827728271484375">
        <ele>37.59999847412109375</ele>
        <time>2019-10-25T14:01:11.000Z</time>
      </trkpt>
      <trkpt lat="38.0047554709017276763916015625" lon="-1.05562451295554637908935546875">
        <ele>37.200000762939453125</ele>
        <time>2019-10-25T14:01:15.000Z</time>
      </trkpt>
      <trkpt lat="38.004547767341136932373046875" lon="-1.0557038895785808563232421875">
        <ele>36</ele>
        <time>2019-10-25T14:01:19.000Z</time>
      </trkpt>
      <trkpt lat="38.0043397285044193267822265625" lon="-1.05578846298158168792724609375">
        <ele>35.40000152587890625</ele>
        <time>2019-10-25T14:01:23.000Z</time>
      </trkpt>
      <trkpt lat="38.00411853007972240447998046875" lon="-1.05585627257823944091796875">
        <ele>35.40000152587890625</ele>
        <time>2019-10-25T14:01:27.000Z</time>
      </trkpt>
      <trkpt lat="38.00389540381729602813720703125" lon="-1.055908240377902984619140625">
        <ele>36.200000762939453125</ele>
        <time>2019-10-25T14:01:31.000Z</time>
      </trkpt>
      <trkpt lat="38.00367663614451885223388671875" lon="-1.05596599169075489044189453125">
        <ele>37.200000762939453125</ele>
        <time>2019-10-25T14:01:35.000Z</time>
      </trkpt>
      <trkpt lat="38.00346692092716693878173828125" lon="-1.0560500621795654296875">
        <ele>38</ele>
        <time>2019-10-25T14:01:39.000Z</time>
      </trkpt>
      <trkpt lat="38.00325192511081695556640625" lon="-1.05613949708640575408935546875">
        <ele>36.40000152587890625</ele>
        <time>2019-10-25T14:01:43.000Z</time>
      </trkpt>
      <trkpt lat="38.0031478218734264373779296875" lon="-1.05618258006870746612548828125">
        <ele>35.799999237060546875</ele>
        <time>2019-10-25T14:01:45.000Z</time>
      </trkpt>
      <trkpt lat="38.00295143388211727142333984375" lon="-1.05627209879457950592041015625">
        <ele>35.200000762939453125</ele>
        <time>2019-10-25T14:01:49.000Z</time>
      </trkpt>
      <trkpt lat="38.0029040761291980743408203125" lon="-1.05629338882863521575927734375">
        <ele>35</ele>
        <time>2019-10-25T14:01:50.000Z</time>
      </trkpt>
      <trkpt lat="38.00271573476493358612060546875" lon="-1.05637720786035060882568359375">
        <ele>35.40000152587890625</ele>
        <time>2019-10-25T14:01:54.000Z</time>
      </trkpt>
      <trkpt lat="38.002540804445743560791015625" lon="-1.05650662444531917572021484375">
        <ele>35.200000762939453125</ele>
        <time>2019-10-25T14:01:58.000Z</time>
      </trkpt>
      <trkpt lat="38.0023867450654506683349609375" lon="-1.0566959716379642486572265625">
        <ele>35.59999847412109375</ele>
        <time>2019-10-25T14:02:02.000Z</time>
      </trkpt>
      <trkpt lat="38.0022231303155422210693359375" lon="-1.0568877495825290679931640625">
        <ele>36.799999237060546875</ele>
        <time>2019-10-25T14:02:06.000Z</time>
      </trkpt>
      <trkpt lat="38.002061359584331512451171875" lon="-1.0570875741541385650634765625">
        <ele>38</ele>
        <time>2019-10-25T14:02:10.000Z</time>
      </trkpt>
      <trkpt lat="38.00189749337732791900634765625" lon="-1.05728899128735065460205078125">
        <ele>38.59999847412109375</ele>
        <time>2019-10-25T14:02:14.000Z</time>
      </trkpt>
      <trkpt lat="38.0017691664397716522216796875" lon="-1.05745763517916202545166015625">
        <ele>38.799999237060546875</ele>
        <time>2019-10-25T14:02:17.000Z</time>
      </trkpt>
      <trkpt lat="38.00163161940872669219970703125" lon="-1.057607419788837432861328125">
        <ele>38.200000762939453125</ele>
        <time>2019-10-25T14:02:20.000Z</time>
      </trkpt>
      <trkpt lat="38.001581244170665740966796875" lon="-1.0576499998569488525390625">
        <ele>38</ele>
        <time>2019-10-25T14:02:21.000Z</time>
      </trkpt>
      <trkpt lat="38.00142609514296054840087890625" lon="-1.05775234289467334747314453125">
        <ele>37.59999847412109375</ele>
        <time>2019-10-25T14:02:24.000Z</time>
      </trkpt>
      <trkpt lat="38.0013115145266056060791015625" lon="-1.0578055679798126220703125">
        <ele>37.200000762939453125</ele>
        <time>2019-10-25T14:02:26.000Z</time>
      </trkpt>
      <trkpt lat="38.00108981318771839141845703125" lon="-1.05786398984491825103759765625">
        <ele>37</ele>
        <time>2019-10-25T14:02:30.000Z</time>
      </trkpt>
      <trkpt lat="38.00087020732462406158447265625" lon="-1.0578805021941661834716796875">
        <ele>37</ele>
        <time>2019-10-25T14:02:34.000Z</time>
      </trkpt>
      <trkpt lat="38.00071095116436481475830078125" lon="-1.05790321715176105499267578125">
        <ele>37</ele>
        <time>2019-10-25T14:02:37.000Z</time>
      </trkpt>
      <trkpt lat="38.0005625076591968536376953125" lon="-1.0580555163323879241943359375">
        <ele>37.40000152587890625</ele>
        <time>2019-10-25T14:02:41.000Z</time>
      </trkpt>
      <trkpt lat="38.0004952847957611083984375" lon="-1.05813489295542240142822265625">
        <ele>37.799999237060546875</ele>
        <time>2019-10-25T14:02:44.000Z</time>
      </trkpt>
      <trkpt lat="38.00038866698741912841796875" lon="-1.05809055268764495849609375">
        <ele>38</ele>
        <time>2019-10-25T14:02:48.000Z</time>
      </trkpt>
      <trkpt lat="38.00024240277707576751708984375" lon="-1.0579455457627773284912109375">
        <ele>38</ele>
        <time>2019-10-25T14:02:53.000Z</time>
      </trkpt>
      <trkpt lat="38.00021440722048282623291015625" lon="-1.0579227469861507415771484375">
        <ele>38</ele>
        <time>2019-10-25T14:02:54.000Z</time>
      </trkpt>
      <trkpt lat="38.0000800453126430511474609375" lon="-1.05799642391502857208251953125">
        <ele>38</ele>
        <time>2019-10-25T14:03:01.000Z</time>
      </trkpt>
      <trkpt lat="38.000008799135684967041015625" lon="-1.05807957239449024200439453125">
        <ele>38</ele>
        <time>2019-10-25T14:03:04.000Z</time>
      </trkpt>
      <trkpt lat="37.99996747635304927825927734375" lon="-1.05811469256877899169921875">
        <ele>38</ele>
        <time>2019-10-25T14:03:06.000Z</time>
      </trkpt>
      <trkpt lat="37.999794222414493560791015625" lon="-1.05821435339748859405517578125">
        <ele>36</ele>
        <time>2019-10-25T14:03:14.000Z</time>
      </trkpt>
      <trkpt lat="37.999707721173763275146484375" lon="-1.058278642594814300537109375">
        <ele>36.200000762939453125</ele>
        <time>2019-10-25T14:03:17.000Z</time>
      </trkpt>
      <trkpt lat="37.99954955466091632843017578125" lon="-1.0583998449146747589111328125">
        <ele>36.59999847412109375</ele>
        <time>2019-10-25T14:03:22.000Z</time>
      </trkpt>
      <trkpt lat="37.99937747418880462646484375" lon="-1.05853253044188022613525390625">
        <ele>36.40000152587890625</ele>
        <time>2019-10-25T14:03:28.000Z</time>
      </trkpt>
      <trkpt lat="37.9992173798382282257080078125" lon="-1.05868139304220676422119140625">
        <ele>36</ele>
        <time>2019-10-25T14:03:33.000Z</time>
      </trkpt>
      <trkpt lat="37.9990691877901554107666015625" lon="-1.05884416960179805755615234375">
        <ele>35</ele>
        <time>2019-10-25T14:03:38.000Z</time>
      </trkpt>
      <trkpt lat="37.9989235103130340576171875" lon="-1.0590123943984508514404296875">
        <ele>33.799999237060546875</ele>
        <time>2019-10-25T14:03:43.000Z</time>
      </trkpt>
      <trkpt lat="37.99881680868566036224365234375" lon="-1.05919671244919300079345703125">
        <ele>32.59999847412109375</ele>
        <time>2019-10-25T14:03:47.000Z</time>
      </trkpt>
      <trkpt lat="37.99872829578816890716552734375" lon="-1.05942654423415660858154296875">
        <ele>32.59999847412109375</ele>
        <time>2019-10-25T14:03:51.000Z</time>
      </trkpt>
      <trkpt lat="37.998658306896686553955078125" lon="-1.0596812702715396881103515625">
        <ele>34.200000762939453125</ele>
        <time>2019-10-25T14:03:55.000Z</time>
      </trkpt>
      <trkpt lat="37.9986249469220638275146484375" lon="-1.0599541850388050079345703125">
        <ele>35.799999237060546875</ele>
        <time>2019-10-25T14:03:59.000Z</time>
      </trkpt>
      <trkpt lat="37.99862771295011043548583984375" lon="-1.06024830602109432220458984375">
        <ele>36</ele>
        <time>2019-10-25T14:04:03.000Z</time>
      </trkpt>
      <trkpt lat="37.9986467398703098297119140625" lon="-1.0605422593653202056884765625">
        <ele>35.59999847412109375</ele>
        <time>2019-10-25T14:04:07.000Z</time>
      </trkpt>
      <trkpt lat="37.9986561276018619537353515625" lon="-1.0608480311930179595947265625">
        <ele>34.799999237060546875</ele>
        <time>2019-10-25T14:04:11.000Z</time>
      </trkpt>
      <trkpt lat="37.99865503795444965362548828125" lon="-1.06108146719634532928466796875">
        <ele>36.40000152587890625</ele>
        <time>2019-10-25T14:04:14.000Z</time>
      </trkpt>
      <trkpt lat="37.99865067936480045318603515625" lon="-1.06131180189549922943115234375">
        <ele>37.200000762939453125</ele>
        <time>2019-10-25T14:04:17.000Z</time>
      </trkpt>
      <trkpt lat="37.99863710068166255950927734375" lon="-1.061550937592983245849609375">
        <ele>37.40000152587890625</ele>
        <time>2019-10-25T14:04:20.000Z</time>
      </trkpt>
      <trkpt lat="37.99862737767398357391357421875" lon="-1.0617904923856258392333984375">
        <ele>36.59999847412109375</ele>
        <time>2019-10-25T14:04:23.000Z</time>
      </trkpt>
      <trkpt lat="37.99862469546496868133544921875" lon="-1.062025688588619232177734375">
        <ele>36.200000762939453125</ele>
        <time>2019-10-25T14:04:26.000Z</time>
      </trkpt>
      <trkpt lat="37.99861262552440166473388671875" lon="-1.0622736252844333648681640625">
        <ele>36</ele>
        <time>2019-10-25T14:04:29.000Z</time>
      </trkpt>
      <trkpt lat="37.9985914193093776702880859375" lon="-1.0625284351408481597900390625">
        <ele>35.799999237060546875</ele>
        <time>2019-10-25T14:04:32.000Z</time>
      </trkpt>
      <trkpt lat="37.99856032244861125946044921875" lon="-1.0627825744450092315673828125">
        <ele>36</ele>
        <time>2019-10-25T14:04:35.000Z</time>
      </trkpt>
      <trkpt lat="37.9985223524272441864013671875" lon="-1.063008718192577362060546875">
        <ele>36.200000762939453125</ele>
        <time>2019-10-25T14:04:38.000Z</time>
      </trkpt>
      <trkpt lat="37.9984579794108867645263671875" lon="-1.06322337873280048370361328125">
        <ele>36</ele>
        <time>2019-10-25T14:04:41.000Z</time>
      </trkpt>
      <trkpt lat="37.998353205621242523193359375" lon="-1.063420437276363372802734375">
        <ele>36.59999847412109375</ele>
        <time>2019-10-25T14:04:44.000Z</time>
      </trkpt>
      <trkpt lat="37.99823761917650699615478515625" lon="-1.06361246667802333831787109375">
        <ele>37.200000762939453125</ele>
        <time>2019-10-25T14:04:47.000Z</time>
      </trkpt>
      <trkpt lat="37.99816503189504146575927734375" lon="-1.06373350135982036590576171875">
        <ele>37.40000152587890625</ele>
        <time>2019-10-25T14:04:49.000Z</time>
      </trkpt>
      <trkpt lat="37.99801818095147609710693359375" lon="-1.06397087685763835906982421875">
        <ele>37.40000152587890625</ele>
        <time>2019-10-25T14:04:53.000Z</time>
      </trkpt>
      <trkpt lat="37.99790636636316776275634765625" lon="-1.0641595534980297088623046875">
        <ele>37.799999237060546875</ele>
        <time>2019-10-25T14:04:56.000Z</time>
      </trkpt>
      <trkpt lat="37.9977941326797008514404296875" lon="-1.06434856541454792022705078125">
        <ele>37.799999237060546875</ele>
        <time>2019-10-25T14:04:59.000Z</time>
      </trkpt>
      <trkpt lat="37.99768324010074138641357421875" lon="-1.064540259540081024169921875">
        <ele>38</ele>
        <time>2019-10-25T14:05:02.000Z</time>
      </trkpt>
      <trkpt lat="37.9975609481334686279296875" lon="-1.06473145075142383575439453125">
        <ele>38.200000762939453125</ele>
        <time>2019-10-25T14:05:05.000Z</time>
      </trkpt>
      <trkpt lat="37.99741384573280811309814453125" lon="-1.06489263474941253662109375">
        <ele>38.200000762939453125</ele>
        <time>2019-10-25T14:05:08.000Z</time>
      </trkpt>
      <trkpt lat="37.99730471335351467132568359375" lon="-1.06498760171234607696533203125">
        <ele>38</ele>
        <time>2019-10-25T14:05:10.000Z</time>
      </trkpt>
      <trkpt lat="37.99714042805135250091552734375" lon="-1.065093465149402618408203125">
        <ele>37.200000762939453125</ele>
        <time>2019-10-25T14:05:13.000Z</time>
      </trkpt>
      <trkpt lat="37.99697530455887317657470703125" lon="-1.06518826447427272796630859375">
        <ele>36.799999237060546875</ele>
        <time>2019-10-25T14:05:16.000Z</time>
      </trkpt>
      <trkpt lat="37.9967976920306682586669921875" lon="-1.06526738964021205902099609375">
        <ele>36.799999237060546875</ele>
        <time>2019-10-25T14:05:19.000Z</time>
      </trkpt>
      <trkpt lat="37.99661890603601932525634765625" lon="-1.06534500606358051300048828125">
        <ele>36.59999847412109375</ele>
        <time>2019-10-25T14:05:22.000Z</time>
      </trkpt>
      <trkpt lat="37.99643400125205516815185546875" lon="-1.065430752933025360107421875">
        <ele>36.59999847412109375</ele>
        <time>2019-10-25T14:05:25.000Z</time>
      </trkpt>
      <trkpt lat="37.9962572269141674041748046875" lon="-1.065521948039531707763671875">
        <ele>37</ele>
        <time>2019-10-25T14:05:28.000Z</time>
      </trkpt>
      <trkpt lat="37.99607508815824985504150390625" lon="-1.0656233690679073333740234375">
        <ele>36.799999237060546875</ele>
        <time>2019-10-25T14:05:31.000Z</time>
      </trkpt>
      <trkpt lat="37.9959025047719478607177734375" lon="-1.0657447390258312225341796875">
        <ele>36.200000762939453125</ele>
        <time>2019-10-25T14:05:34.000Z</time>
      </trkpt>
      <trkpt lat="37.99580477178096771240234375" lon="-1.0658620856702327728271484375">
        <ele>35.200000762939453125</ele>
        <time>2019-10-25T14:05:36.000Z</time>
      </trkpt>
      <trkpt lat="37.995701171457767486572265625" lon="-1.06606702320277690887451171875">
        <ele>33.799999237060546875</ele>
        <time>2019-10-25T14:05:39.000Z</time>
      </trkpt>
      <trkpt lat="37.9956446774303913116455078125" lon="-1.0663073323667049407958984375">
        <ele>33</ele>
        <time>2019-10-25T14:05:42.000Z</time>
      </trkpt>
      <trkpt lat="37.99559983424842357635498046875" lon="-1.066555269062519073486328125">
        <ele>33</ele>
        <time>2019-10-25T14:05:45.000Z</time>
      </trkpt>
      <trkpt lat="37.99556605517864227294921875" lon="-1.0668072290718555450439453125">
        <ele>34.40000152587890625</ele>
        <time>2019-10-25T14:05:48.000Z</time>
      </trkpt>
      <trkpt lat="37.99551886506378650665283203125" lon="-1.0670570097863674163818359375">
        <ele>36.200000762939453125</ele>
        <time>2019-10-25T14:05:51.000Z</time>
      </trkpt>
      <trkpt lat="37.9954683221876621246337890625" lon="-1.0672990791499614715576171875">
        <ele>38.59999847412109375</ele>
        <time>2019-10-25T14:05:54.000Z</time>
      </trkpt>
      <trkpt lat="37.99541275016963481903076171875" lon="-1.067508123815059661865234375">
        <ele>40</ele>
        <time>2019-10-25T14:05:57.000Z</time>
      </trkpt>
      <trkpt lat="37.9953405819833278656005859375" lon="-1.0677216947078704833984375">
        <ele>40.40000152587890625</ele>
        <time>2019-10-25T14:06:00.000Z</time>
      </trkpt>
      <trkpt lat="37.9953094013035297393798828125" lon="-1.06778816320002079010009765625">
        <ele>40.200000762939453125</ele>
        <time>2019-10-25T14:06:01.000Z</time>
      </trkpt>
      <trkpt lat="37.99519867636263370513916015625" lon="-1.0679713077843189239501953125">
        <ele>39.200000762939453125</ele>
        <time>2019-10-25T14:06:04.000Z</time>
      </trkpt>
      <trkpt lat="37.99508401192724704742431640625" lon="-1.06815897859632968902587890625">
        <ele>38.40000152587890625</ele>
        <time>2019-10-25T14:06:07.000Z</time>
      </trkpt>
      <trkpt lat="37.99496926367282867431640625" lon="-1.06835662387311458587646484375">
        <ele>37.59999847412109375</ele>
        <time>2019-10-25T14:06:10.000Z</time>
      </trkpt>
      <trkpt lat="37.9948554374277591705322265625" lon="-1.068557538092136383056640625">
        <ele>37</ele>
        <time>2019-10-25T14:06:13.000Z</time>
      </trkpt>
      <trkpt lat="37.99474127590656280517578125" lon="-1.06874939985573291778564453125">
        <ele>35.200000762939453125</ele>
        <time>2019-10-25T14:06:16.000Z</time>
      </trkpt>
      <trkpt lat="37.99470967613160610198974609375" lon="-1.06881494633853435516357421875">
        <ele>35</ele>
        <time>2019-10-25T14:06:17.000Z</time>
      </trkpt>
      <trkpt lat="37.99462216906249523162841796875" lon="-1.06902399100363254547119140625">
        <ele>34.40000152587890625</ele>
        <time>2019-10-25T14:06:20.000Z</time>
      </trkpt>
      <trkpt lat="37.99453700892627239227294921875" lon="-1.06923420913517475128173828125">
        <ele>34.200000762939453125</ele>
        <time>2019-10-25T14:06:23.000Z</time>
      </trkpt>
      <trkpt lat="37.99445520155131816864013671875" lon="-1.06944057159125804901123046875">
        <ele>33.59999847412109375</ele>
        <time>2019-10-25T14:06:26.000Z</time>
      </trkpt>
      <trkpt lat="37.99438680522143840789794921875" lon="-1.0696636140346527099609375">
        <ele>34</ele>
        <time>2019-10-25T14:06:29.000Z</time>
      </trkpt>
      <trkpt lat="37.9943189956247806549072265625" lon="-1.06990660540759563446044921875">
        <ele>34.59999847412109375</ele>
        <time>2019-10-25T14:06:32.000Z</time>
      </trkpt>
      <trkpt lat="37.99424146302044391632080078125" lon="-1.07015873305499553680419921875">
        <ele>36.40000152587890625</ele>
        <time>2019-10-25T14:06:35.000Z</time>
      </trkpt>
      <trkpt lat="37.99416535533964633941650390625" lon="-1.0704034008085727691650390625">
        <ele>36.799999237060546875</ele>
        <time>2019-10-25T14:06:38.000Z</time>
      </trkpt>
      <trkpt lat="37.99408824183046817779541015625" lon="-1.070633232593536376953125">
        <ele>37.200000762939453125</ele>
        <time>2019-10-25T14:06:41.000Z</time>
      </trkpt>
      <trkpt lat="37.99402420409023761749267578125" lon="-1.070777736604213714599609375">
        <ele>37.40000152587890625</ele>
        <time>2019-10-25T14:06:43.000Z</time>
      </trkpt>
      <trkpt lat="37.99391825683414936065673828125" lon="-1.070984937250614166259765625">
        <ele>39</ele>
        <time>2019-10-25T14:06:46.000Z</time>
      </trkpt>
      <trkpt lat="37.99380786716938018798828125" lon="-1.07118987478315830230712890625">
        <ele>41.200000762939453125</ele>
        <time>2019-10-25T14:06:49.000Z</time>
      </trkpt>
      <trkpt lat="37.99368716776371002197265625" lon="-1.07138148508965969085693359375">
        <ele>42.59999847412109375</ele>
        <time>2019-10-25T14:06:52.000Z</time>
      </trkpt>
      <trkpt lat="37.9935458488762378692626953125" lon="-1.07156856916844844818115234375">
        <ele>43.200000762939453125</ele>
        <time>2019-10-25T14:06:55.000Z</time>
      </trkpt>
      <trkpt lat="37.99339489080011844635009765625" lon="-1.07174836099147796630859375">
        <ele>41</ele>
        <time>2019-10-25T14:06:58.000Z</time>
      </trkpt>
      <trkpt lat="37.993236891925334930419921875" lon="-1.0719084553420543670654296875">
        <ele>39</ele>
        <time>2019-10-25T14:07:01.000Z</time>
      </trkpt>
      <trkpt lat="37.99307302571833133697509765625" lon="-1.0720603354275226593017578125">
        <ele>37.799999237060546875</ele>
        <time>2019-10-25T14:07:04.000Z</time>
      </trkpt>
      <trkpt lat="37.9929115064442157745361328125" lon="-1.0722008161246776580810546875">
        <ele>37</ele>
        <time>2019-10-25T14:07:07.000Z</time>
      </trkpt>
      <trkpt lat="37.9928048886358737945556640625" lon="-1.072295866906642913818359375">
        <ele>36.59999847412109375</ele>
        <time>2019-10-25T14:07:09.000Z</time>
      </trkpt>
      <trkpt lat="37.99263917841017246246337890625" lon="-1.07243500649929046630859375">
        <ele>36.40000152587890625</ele>
        <time>2019-10-25T14:07:12.000Z</time>
      </trkpt>
      <trkpt lat="37.992475144565105438232421875" lon="-1.072570122778415679931640625">
        <ele>37.40000152587890625</ele>
        <time>2019-10-25T14:07:15.000Z</time>
      </trkpt>
      <trkpt lat="37.9923160560429096221923828125" lon="-1.07271739281713962554931640625">
        <ele>37.59999847412109375</ele>
        <time>2019-10-25T14:07:18.000Z</time>
      </trkpt>
      <trkpt lat="37.9921460710465908050537109375" lon="-1.0728733800351619720458984375">
        <ele>36.40000152587890625</ele>
        <time>2019-10-25T14:07:21.000Z</time>
      </trkpt>
      <trkpt lat="37.99198740161955356597900390625" lon="-1.07303121127188205718994140625">
        <ele>36</ele>
        <time>2019-10-25T14:07:24.000Z</time>
      </trkpt>
      <trkpt lat="37.99182839691638946533203125" lon="-1.07321016490459442138671875">
        <ele>36</ele>
        <time>2019-10-25T14:07:27.000Z</time>
      </trkpt>
      <trkpt lat="37.99167509190738201141357421875" lon="-1.073402278125286102294921875">
        <ele>36.799999237060546875</ele>
        <time>2019-10-25T14:07:30.000Z</time>
      </trkpt>
      <trkpt lat="37.9915412329137325286865234375" lon="-1.0736093111336231231689453125">
        <ele>37.40000152587890625</ele>
        <time>2019-10-25T14:07:33.000Z</time>
      </trkpt>
      <trkpt lat="37.9914131574332714080810546875" lon="-1.07382514514029026031494140625">
        <ele>37</ele>
        <time>2019-10-25T14:07:36.000Z</time>
      </trkpt>
      <trkpt lat="37.991298995912075042724609375" lon="-1.0740538872778415679931640625">
        <ele>36.40000152587890625</ele>
        <time>2019-10-25T14:07:39.000Z</time>
      </trkpt>
      <trkpt lat="37.99119899980723857879638671875" lon="-1.07429034076631069183349609375">
        <ele>34.799999237060546875</ele>
        <time>2019-10-25T14:07:42.000Z</time>
      </trkpt>
      <trkpt lat="37.99111115746200084686279296875" lon="-1.07453609816730022430419921875">
        <ele>34</ele>
        <time>2019-10-25T14:07:45.000Z</time>
      </trkpt>
      <trkpt lat="37.99102616496384143829345703125" lon="-1.07479895465075969696044921875">
        <ele>33.40000152587890625</ele>
        <time>2019-10-25T14:07:48.000Z</time>
      </trkpt>
      <trkpt lat="37.99095693044364452362060546875" lon="-1.07507430016994476318359375">
        <ele>35</ele>
        <time>2019-10-25T14:07:51.000Z</time>
      </trkpt>
      <trkpt lat="37.990900687873363494873046875" lon="-1.07534361071884632110595703125">
        <ele>36.200000762939453125</ele>
        <time>2019-10-25T14:07:54.000Z</time>
      </trkpt>
      <trkpt lat="37.990883253514766693115234375" lon="-1.0755361430346965789794921875">
        <ele>36.40000152587890625</ele>
        <time>2019-10-25T14:07:56.000Z</time>
      </trkpt>
      <trkpt lat="37.9908904619514942169189453125" lon="-1.07583981938660144805908203125">
        <ele>36.40000152587890625</ele>
        <time>2019-10-25T14:07:59.000Z</time>
      </trkpt>
      <trkpt lat="37.990936897695064544677734375" lon="-1.07612480409443378448486328125">
        <ele>38.40000152587890625</ele>
        <time>2019-10-25T14:08:02.000Z</time>
      </trkpt>
      <trkpt lat="37.99096464179456233978271484375" lon="-1.07621449045836925506591796875">
        <ele>39.40000152587890625</ele>
        <time>2019-10-25T14:08:03.000Z</time>
      </trkpt>
      <trkpt lat="37.991087771952152252197265625" lon="-1.07646276243031024932861328125">
        <ele>40.799999237060546875</ele>
        <time>2019-10-25T14:08:06.000Z</time>
      </trkpt>
      <trkpt lat="37.99124912358820438385009765625" lon="-1.0766462422907352447509765625">
        <ele>39.59999847412109375</ele>
        <time>2019-10-25T14:08:09.000Z</time>
      </trkpt>
      <trkpt lat="37.99142564646899700164794921875" lon="-1.0768014751374721527099609375">
        <ele>37.799999237060546875</ele>
        <time>2019-10-25T14:08:12.000Z</time>
      </trkpt>
      <trkpt lat="37.99159697256982326507568359375" lon="-1.076953522861003875732421875">
        <ele>38</ele>
        <time>2019-10-25T14:08:15.000Z</time>
      </trkpt>
      <trkpt lat="37.99176511354744434356689453125" lon="-1.07711303047835826873779296875">
        <ele>38</ele>
        <time>2019-10-25T14:08:18.000Z</time>
      </trkpt>
      <trkpt lat="37.9919358529150485992431640625" lon="-1.07727915979921817779541015625">
        <ele>37.799999237060546875</ele>
        <time>2019-10-25T14:08:21.000Z</time>
      </trkpt>
      <trkpt lat="37.99209435470402240753173828125" lon="-1.07744595967233180999755859375">
        <ele>36.799999237060546875</ele>
        <time>2019-10-25T14:08:24.000Z</time>
      </trkpt>
      <trkpt lat="37.99225511960685253143310546875" lon="-1.07763354666531085968017578125">
        <ele>34.59999847412109375</ele>
        <time>2019-10-25T14:08:28.000Z</time>
      </trkpt>
      <trkpt lat="37.99236425198614597320556640625" lon="-1.07787184417247772216796875">
        <ele>31.6000003814697265625</ele>
        <time>2019-10-25T14:08:32.000Z</time>
      </trkpt>
      <trkpt lat="37.9924541898071765899658203125" lon="-1.07813679613173007965087890625">
        <ele>32.40000152587890625</ele>
        <time>2019-10-25T14:08:36.000Z</time>
      </trkpt>
      <trkpt lat="37.992540188133716583251953125" lon="-1.0784081183373928070068359375">
        <ele>35</ele>
        <time>2019-10-25T14:08:40.000Z</time>
      </trkpt>
      <trkpt lat="37.99257312901318073272705078125" lon="-1.07853476889431476593017578125">
        <ele>36.40000152587890625</ele>
        <time>2019-10-25T14:08:42.000Z</time>
      </trkpt>
      <trkpt lat="37.99262258224189281463623046875" lon="-1.07877851463854312896728515625">
        <ele>38</ele>
        <time>2019-10-25T14:08:47.000Z</time>
      </trkpt>
      <trkpt lat="37.99263431690633296966552734375" lon="-1.07888412661850452423095703125">
        <ele>38</ele>
        <time>2019-10-25T14:08:51.000Z</time>
      </trkpt>
      <trkpt lat="37.9926449619233608245849609375" lon="-1.0789321549236774444580078125">
        <ele>38</ele>
        <time>2019-10-25T14:08:54.000Z</time>
      </trkpt>
      <trkpt lat="37.9926536791026592254638671875" lon="-1.0789807699620723724365234375">
        <ele>38</ele>
        <time>2019-10-25T14:08:56.000Z</time>
      </trkpt>
      <trkpt lat="37.99266348592936992645263671875" lon="-1.07907121069729328155517578125">
        <ele>37.799999237060546875</ele>
        <time>2019-10-25T14:08:59.000Z</time>
      </trkpt>
      <trkpt lat="37.99274244345724582672119140625" lon="-1.07928260229527950286865234375">
        <ele>37</ele>
        <time>2019-10-25T14:09:04.000Z</time>
      </trkpt>
      <trkpt lat="37.9928320460021495819091796875" lon="-1.07948326505720615386962890625">
        <ele>35.799999237060546875</ele>
        <time>2019-10-25T14:09:08.000Z</time>
      </trkpt>
      <trkpt lat="37.99288962967693805694580078125" lon="-1.07958636246621608734130859375">
        <ele>35.200000762939453125</ele>
        <time>2019-10-25T14:09:10.000Z</time>
      </trkpt>
      <trkpt lat="37.99300898797810077667236328125" lon="-1.0797314532101154327392578125">
        <ele>35.40000152587890625</ele>
        <time>2019-10-25T14:09:13.000Z</time>
      </trkpt>
      <trkpt lat="37.99321250058710575103759765625" lon="-1.0798776336014270782470703125">
        <ele>34.200000762939453125</ele>
        <time>2019-10-25T14:09:17.000Z</time>
      </trkpt>
      <trkpt lat="37.9934191145002841949462890625" lon="-1.0799983330070972442626953125">
        <ele>35.200000762939453125</ele>
        <time>2019-10-25T14:09:21.000Z</time>
      </trkpt>
      <trkpt lat="37.99361449666321277618408203125" lon="-1.08010536991059780120849609375">
        <ele>35.200000762939453125</ele>
        <time>2019-10-25T14:09:25.000Z</time>
      </trkpt>
      <trkpt lat="37.99382471479475498199462890625" lon="-1.08022841624915599822998046875">
        <ele>35.59999847412109375</ele>
        <time>2019-10-25T14:09:29.000Z</time>
      </trkpt>
      <trkpt lat="37.99398221075534820556640625" lon="-1.08034794218838214874267578125">
        <ele>36.59999847412109375</ele>
        <time>2019-10-25T14:09:32.000Z</time>
      </trkpt>
      <trkpt lat="37.99417725764214992523193359375" lon="-1.08051717281341552734375">
        <ele>38</ele>
        <time>2019-10-25T14:09:36.000Z</time>
      </trkpt>
      <trkpt lat="37.99429862760007381439208984375" lon="-1.08066729269921779632568359375">
        <ele>37.40000152587890625</ele>
        <time>2019-10-25T14:09:39.000Z</time>
      </trkpt>
      <trkpt lat="37.994333244860172271728515625" lon="-1.0807215236127376556396484375">
        <ele>36.799999237060546875</ele>
        <time>2019-10-25T14:09:40.000Z</time>
      </trkpt>
      <trkpt lat="37.9944551177322864532470703125" lon="-1.080948002636432647705078125">
        <ele>35.59999847412109375</ele>
        <time>2019-10-25T14:09:44.000Z</time>
      </trkpt>
      <trkpt lat="37.99448772333562374114990234375" lon="-1.081001646816730499267578125">
        <ele>35.40000152587890625</ele>
        <time>2019-10-25T14:09:45.000Z</time>
      </trkpt>
      <trkpt lat="37.9946465604007244110107421875" lon="-1.08119099400937557220458984375">
        <ele>35.40000152587890625</ele>
        <time>2019-10-25T14:09:49.000Z</time>
      </trkpt>
      <trkpt lat="37.99468738026916980743408203125" lon="-1.08124329708516597747802734375">
        <ele>35.200000762939453125</ele>
        <time>2019-10-25T14:09:50.000Z</time>
      </trkpt>
      <trkpt lat="37.99483381211757659912109375" lon="-1.081478409469127655029296875">
        <ele>34.200000762939453125</ele>
        <time>2019-10-25T14:09:54.000Z</time>
      </trkpt>
      <trkpt lat="37.99495509825646877288818359375" lon="-1.08173028565943241119384765625">
        <ele>33.59999847412109375</ele>
        <time>2019-10-25T14:09:58.000Z</time>
      </trkpt>
      <trkpt lat="37.99503372050821781158447265625" lon="-1.08193849213421344757080078125">
        <ele>34.40000152587890625</ele>
        <time>2019-10-25T14:10:01.000Z</time>
      </trkpt>
      <trkpt lat="37.99510538578033447265625" lon="-1.0821618698537349700927734375">
        <ele>35</ele>
        <time>2019-10-25T14:10:04.000Z</time>
      </trkpt>
      <trkpt lat="37.99516095779836177825927734375" lon="-1.0823888517916202545166015625">
        <ele>36</ele>
        <time>2019-10-25T14:10:07.000Z</time>
      </trkpt>
      <trkpt lat="37.995209991931915283203125" lon="-1.08260854147374629974365234375">
        <ele>33.200000762939453125</ele>
        <time>2019-10-25T14:10:10.000Z</time>
      </trkpt>
      <trkpt lat="37.99523572437465190887451171875" lon="-1.0829031653702259063720703125">
        <ele>34.40000152587890625</ele>
        <time>2019-10-25T14:10:14.000Z</time>
      </trkpt>
      <trkpt lat="37.99524092115461826324462890625" lon="-1.0831371881067752838134765625">
        <ele>34.59999847412109375</ele>
        <time>2019-10-25T14:10:17.000Z</time>
      </trkpt>
      <trkpt lat="37.99522876739501953125" lon="-1.08343365602195262908935546875">
        <ele>36</ele>
        <time>2019-10-25T14:10:21.000Z</time>
      </trkpt>
      <trkpt lat="37.99520487897098064422607421875" lon="-1.08371646143496036529541015625">
        <ele>36.59999847412109375</ele>
        <time>2019-10-25T14:10:25.000Z</time>
      </trkpt>
      <trkpt lat="37.9951595328748226165771484375" lon="-1.08399641700088977813720703125">
        <ele>37.799999237060546875</ele>
        <time>2019-10-25T14:10:29.000Z</time>
      </trkpt>
      <trkpt lat="37.99509256146848201751708984375" lon="-1.0842855088412761688232421875">
        <ele>38.59999847412109375</ele>
        <time>2019-10-25T14:10:33.000Z</time>
      </trkpt>
      <trkpt lat="37.99501377157866954803466796875" lon="-1.0845713317394256591796875">
        <ele>37.59999847412109375</ele>
        <time>2019-10-25T14:10:37.000Z</time>
      </trkpt>
      <trkpt lat="37.99494084902107715606689453125" lon="-1.0847807116806507110595703125">
        <ele>37.59999847412109375</ele>
        <time>2019-10-25T14:10:40.000Z</time>
      </trkpt>
      <trkpt lat="37.99485283903777599334716796875" lon="-1.08498883433640003204345703125">
        <ele>38</ele>
        <time>2019-10-25T14:10:43.000Z</time>
      </trkpt>
      <trkpt lat="37.994752340018749237060546875" lon="-1.08518295921385288238525390625">
        <ele>39</ele>
        <time>2019-10-25T14:10:46.000Z</time>
      </trkpt>
      <trkpt lat="37.99463675357401371002197265625" lon="-1.085358895361423492431640625">
        <ele>39.799999237060546875</ele>
        <time>2019-10-25T14:10:49.000Z</time>
      </trkpt>
      <trkpt lat="37.99445855431258678436279296875" lon="-1.08554966747760772705078125">
        <ele>39</ele>
        <time>2019-10-25T14:10:53.000Z</time>
      </trkpt>
      <trkpt lat="37.99425135366618633270263671875" lon="-1.08570029027760028839111328125">
        <ele>37.799999237060546875</ele>
        <time>2019-10-25T14:10:57.000Z</time>
      </trkpt>
      <trkpt lat="37.9940836317837238311767578125" lon="-1.08578595332801342010498046875">
        <ele>37.200000762939453125</ele>
        <time>2019-10-25T14:11:00.000Z</time>
      </trkpt>
      <trkpt lat="37.99386008642613887786865234375" lon="-1.08589257113635540008544921875">
        <ele>37.59999847412109375</ele>
        <time>2019-10-25T14:11:04.000Z</time>
      </trkpt>
      <trkpt lat="37.99368155188858509063720703125" lon="-1.08598074875771999359130859375">
        <ele>38.40000152587890625</ele>
        <time>2019-10-25T14:11:07.000Z</time>
      </trkpt>
      <trkpt lat="37.99351072870194911956787109375" lon="-1.0860550962388515472412109375">
        <ele>40.200000762939453125</ele>
        <time>2019-10-25T14:11:10.000Z</time>
      </trkpt>
      <trkpt lat="37.993337810039520263671875" lon="-1.08613145537674427032470703125">
        <ele>40</ele>
        <time>2019-10-25T14:11:13.000Z</time>
      </trkpt>
      <trkpt lat="37.99316891469061374664306640625" lon="-1.08621762134134769439697265625">
        <ele>39.59999847412109375</ele>
        <time>2019-10-25T14:11:16.000Z</time>
      </trkpt>
      <trkpt lat="37.99295031465590000152587890625" lon="-1.08633781783282756805419921875">
        <ele>38.40000152587890625</ele>
        <time>2019-10-25T14:11:20.000Z</time>
      </trkpt>
      <trkpt lat="37.99273498356342315673828125" lon="-1.086466647684574127197265625">
        <ele>38</ele>
        <time>2019-10-25T14:11:24.000Z</time>
      </trkpt>
      <trkpt lat="37.99252635799348354339599609375" lon="-1.0866071283817291259765625">
        <ele>38.59999847412109375</ele>
        <time>2019-10-25T14:11:28.000Z</time>
      </trkpt>
      <trkpt lat="37.99231580458581447601318359375" lon="-1.0867534764111042022705078125">
        <ele>40</ele>
        <time>2019-10-25T14:11:32.000Z</time>
      </trkpt>
      <trkpt lat="37.9921635054051876068115234375" lon="-1.086885072290897369384765625">
        <ele>41.40000152587890625</ele>
        <time>2019-10-25T14:11:35.000Z</time>
      </trkpt>
      <trkpt lat="37.9920136369764804840087890625" lon="-1.0870257206261157989501953125">
        <ele>41.799999237060546875</ele>
        <time>2019-10-25T14:11:38.000Z</time>
      </trkpt>
      <trkpt lat="37.9918724857270717620849609375" lon="-1.08718313276767730712890625">
        <ele>41</ele>
        <time>2019-10-25T14:11:41.000Z</time>
      </trkpt>
      <trkpt lat="37.99173544161021709442138671875" lon="-1.0873445682227611541748046875">
        <ele>38.59999847412109375</ele>
        <time>2019-10-25T14:11:44.000Z</time>
      </trkpt>
      <trkpt lat="37.99159370362758636474609375" lon="-1.0875112004578113555908203125">
        <ele>37.200000762939453125</ele>
        <time>2019-10-25T14:11:47.000Z</time>
      </trkpt>
      <trkpt lat="37.99146336503326892852783203125" lon="-1.08767397701740264892578125">
        <ele>37.799999237060546875</ele>
        <time>2019-10-25T14:11:50.000Z</time>
      </trkpt>
      <trkpt lat="37.99133528955280780792236328125" lon="-1.08785326592624187469482421875">
        <ele>40</ele>
        <time>2019-10-25T14:11:53.000Z</time>
      </trkpt>
      <trkpt lat="37.99121375195682048797607421875" lon="-1.0880315490067005157470703125">
        <ele>41</ele>
        <time>2019-10-25T14:11:56.000Z</time>
      </trkpt>
      <trkpt lat="37.991089783608913421630859375" lon="-1.08820907771587371826171875">
        <ele>40.799999237060546875</ele>
        <time>2019-10-25T14:11:59.000Z</time>
      </trkpt>
      <trkpt lat="37.99092927016317844390869140625" lon="-1.08842826448380947113037109375">
        <ele>39.799999237060546875</ele>
        <time>2019-10-25T14:12:03.000Z</time>
      </trkpt>
      <trkpt lat="37.99077956937253475189208984375" lon="-1.088649295270442962646484375">
        <ele>38.799999237060546875</ele>
        <time>2019-10-25T14:12:07.000Z</time>
      </trkpt>
      <trkpt lat="37.99066641367971897125244140625" lon="-1.08881617896258831024169921875">
        <ele>38.200000762939453125</ele>
        <time>2019-10-25T14:12:10.000Z</time>
      </trkpt>
      <trkpt lat="37.99052090384066104888916015625" lon="-1.08903712593019008636474609375">
        <ele>39.200000762939453125</ele>
        <time>2019-10-25T14:12:14.000Z</time>
      </trkpt>
      <trkpt lat="37.990350164473056793212890625" lon="-1.0892398841679096221923828125">
        <ele>39.59999847412109375</ele>
        <time>2019-10-25T14:12:18.000Z</time>
      </trkpt>
      <trkpt lat="37.99021345563232898712158203125" lon="-1.08939017169177532196044921875">
        <ele>39.40000152587890625</ele>
        <time>2019-10-25T14:12:21.000Z</time>
      </trkpt>
      <trkpt lat="37.99004078842699527740478515625" lon="-1.08958345837891101837158203125">
        <ele>40</ele>
        <time>2019-10-25T14:12:25.000Z</time>
      </trkpt>
      <trkpt lat="37.9898531176149845123291015625" lon="-1.08977138064801692962646484375">
        <ele>40.799999237060546875</ele>
        <time>2019-10-25T14:12:29.000Z</time>
      </trkpt>
      <trkpt lat="37.9896606691181659698486328125" lon="-1.08994178473949432373046875">
        <ele>43</ele>
        <time>2019-10-25T14:12:33.000Z</time>
      </trkpt>
      <trkpt lat="37.98946696333587169647216796875" lon="-1.0901047289371490478515625">
        <ele>43</ele>
        <time>2019-10-25T14:12:37.000Z</time>
      </trkpt>
      <trkpt lat="37.98928189091384410858154296875" lon="-1.09026490710675716400146484375">
        <ele>41.799999237060546875</ele>
        <time>2019-10-25T14:12:41.000Z</time>
      </trkpt>
      <trkpt lat="37.989087514579296112060546875" lon="-1.0904301144182682037353515625">
        <ele>39.59999847412109375</ele>
        <time>2019-10-25T14:12:45.000Z</time>
      </trkpt>
      <trkpt lat="37.98889196477830410003662109375" lon="-1.09059565700590610504150390625">
        <ele>39</ele>
        <time>2019-10-25T14:12:49.000Z</time>
      </trkpt>
      <trkpt lat="37.9886960797011852264404296875" lon="-1.09076111577451229095458984375">
        <ele>39.200000762939453125</ele>
        <time>2019-10-25T14:12:53.000Z</time>
      </trkpt>
      <trkpt lat="37.9885165393352508544921875" lon="-1.09094216488301753997802734375">
        <ele>40.59999847412109375</ele>
        <time>2019-10-25T14:12:57.000Z</time>
      </trkpt>
      <trkpt lat="37.9883611388504505157470703125" lon="-1.09114668332040309906005859375">
        <ele>41</ele>
        <time>2019-10-25T14:13:01.000Z</time>
      </trkpt>
      <trkpt lat="37.98820230178534984588623046875" lon="-1.091361343860626220703125">
        <ele>40.200000762939453125</ele>
        <time>2019-10-25T14:13:05.000Z</time>
      </trkpt>
      <trkpt lat="37.988053523004055023193359375" lon="-1.09158866107463836669921875">
        <ele>38.200000762939453125</ele>
        <time>2019-10-25T14:13:09.000Z</time>
      </trkpt>
      <trkpt lat="37.9879336617887020111083984375" lon="-1.09183316119015216827392578125">
        <ele>37.200000762939453125</ele>
        <time>2019-10-25T14:13:13.000Z</time>
      </trkpt>
      <trkpt lat="37.98786099068820476531982421875" lon="-1.09204354695975780487060546875">
        <ele>38.59999847412109375</ele>
        <time>2019-10-25T14:13:16.000Z</time>
      </trkpt>
      <trkpt lat="37.98779946751892566680908203125" lon="-1.09226047061383724212646484375">
        <ele>40.200000762939453125</ele>
        <time>2019-10-25T14:13:19.000Z</time>
      </trkpt>
      <trkpt lat="37.98771397210657596588134765625" lon="-1.092533133924007415771484375">
        <ele>42.40000152587890625</ele>
        <time>2019-10-25T14:13:23.000Z</time>
      </trkpt>
      <trkpt lat="37.98763283528387546539306640625" lon="-1.0928038693964481353759765625">
        <ele>43.40000152587890625</ele>
        <time>2019-10-25T14:13:27.000Z</time>
      </trkpt>
      <trkpt lat="37.98756728880107402801513671875" lon="-1.093019954860210418701171875">
        <ele>43.59999847412109375</ele>
        <time>2019-10-25T14:13:30.000Z</time>
      </trkpt>
      <trkpt lat="37.9875299893319606781005859375" lon="-1.093162782490253448486328125">
        <ele>43.200000762939453125</ele>
        <time>2019-10-25T14:13:32.000Z</time>
      </trkpt>
      <trkpt lat="37.9874914325773715972900390625" lon="-1.093398146331310272216796875">
        <ele>42.40000152587890625</ele>
        <time>2019-10-25T14:13:35.000Z</time>
      </trkpt>
      <trkpt lat="37.9874505288898944854736328125" lon="-1.09362755902111530303955078125">
        <ele>41.59999847412109375</ele>
        <time>2019-10-25T14:13:38.000Z</time>
      </trkpt>
      <trkpt lat="37.9874015785753726959228515625" lon="-1.0938482545316219329833984375">
        <ele>40.40000152587890625</ele>
        <time>2019-10-25T14:13:41.000Z</time>
      </trkpt>
      <trkpt lat="37.98732304014265537261962890625" lon="-1.0941251926124095916748046875">
        <ele>39.40000152587890625</ele>
        <time>2019-10-25T14:13:45.000Z</time>
      </trkpt>
      <trkpt lat="37.987240813672542572021484375" lon="-1.09440322034060955047607421875">
        <ele>38</ele>
        <time>2019-10-25T14:13:49.000Z</time>
      </trkpt>
      <trkpt lat="37.9871754348278045654296875" lon="-1.0946820862591266632080078125">
        <ele>37.200000762939453125</ele>
        <time>2019-10-25T14:13:53.000Z</time>
      </trkpt>
      <trkpt lat="37.98710494302213191986083984375" lon="-1.09496531076729297637939453125">
        <ele>38.59999847412109375</ele>
        <time>2019-10-25T14:13:57.000Z</time>
      </trkpt>
      <trkpt lat="37.98703369684517383575439453125" lon="-1.0952416621148586273193359375">
        <ele>40.200000762939453125</ele>
        <time>2019-10-25T14:14:01.000Z</time>
      </trkpt>
      <trkpt lat="37.98696395941078662872314453125" lon="-1.095487587153911590576171875">
        <ele>41</ele>
        <time>2019-10-25T14:14:05.000Z</time>
      </trkpt>
      <trkpt lat="37.98690386116504669189453125" lon="-1.09571716748178005218505859375">
        <ele>42</ele>
        <time>2019-10-25T14:14:09.000Z</time>
      </trkpt>
      <trkpt lat="37.98683756031095981597900390625" lon="-1.0959675349295139312744140625">
        <ele>41.200000762939453125</ele>
        <time>2019-10-25T14:14:13.000Z</time>
      </trkpt>
      <trkpt lat="37.9867850057780742645263671875" lon="-1.096237599849700927734375">
        <ele>41</ele>
        <time>2019-10-25T14:14:17.000Z</time>
      </trkpt>
      <trkpt lat="37.9867280088365077972412109375" lon="-1.09650515019893646240234375">
        <ele>40.799999237060546875</ele>
        <time>2019-10-25T14:14:21.000Z</time>
      </trkpt>
      <trkpt lat="37.9866470396518707275390625" lon="-1.09676607884466648101806640625">
        <ele>41</ele>
        <time>2019-10-25T14:14:25.000Z</time>
      </trkpt>
      <trkpt lat="37.9865620471537113189697265625" lon="-1.09704033471643924713134765625">
        <ele>40.200000762939453125</ele>
        <time>2019-10-25T14:14:29.000Z</time>
      </trkpt>
      <trkpt lat="37.98650530166923999786376953125" lon="-1.09731710515916347503662109375">
        <ele>39.200000762939453125</ele>
        <time>2019-10-25T14:14:33.000Z</time>
      </trkpt>
      <trkpt lat="37.98646775074303150177001953125" lon="-1.09760108403861522674560546875">
        <ele>39.40000152587890625</ele>
        <time>2019-10-25T14:14:37.000Z</time>
      </trkpt>
      <trkpt lat="37.986433804035186767578125" lon="-1.09785966575145721435546875">
        <ele>40</ele>
        <time>2019-10-25T14:14:41.000Z</time>
      </trkpt>
      <trkpt lat="37.9864265955984592437744140625" lon="-1.097995452582836151123046875">
        <ele>40.200000762939453125</ele>
        <time>2019-10-25T14:14:43.000Z</time>
      </trkpt>
      <trkpt lat="37.98645098693668842315673828125" lon="-1.09829024411737918853759765625">
        <ele>39.799999237060546875</ele>
        <time>2019-10-25T14:14:47.000Z</time>
      </trkpt>
      <trkpt lat="37.98646666109561920166015625" lon="-1.09859190881252288818359375">
        <ele>40.799999237060546875</ele>
        <time>2019-10-25T14:14:51.000Z</time>
      </trkpt>
      <trkpt lat="37.98647479154169559478759765625" lon="-1.0988841019570827484130859375">
        <ele>41.40000152587890625</ele>
        <time>2019-10-25T14:14:55.000Z</time>
      </trkpt>
      <trkpt lat="37.986478395760059356689453125" lon="-1.09915525652468204498291015625">
        <ele>41.200000762939453125</ele>
        <time>2019-10-25T14:14:59.000Z</time>
      </trkpt>
      <trkpt lat="37.9864847660064697265625" lon="-1.09938793815672397613525390625">
        <ele>39.59999847412109375</ele>
        <time>2019-10-25T14:15:03.000Z</time>
      </trkpt>
      <trkpt lat="37.98651150427758693695068359375" lon="-1.09965448267757892608642578125">
        <ele>38</ele>
        <time>2019-10-25T14:15:07.000Z</time>
      </trkpt>
      <trkpt lat="37.9865496419370174407958984375" lon="-1.09992437995970249176025390625">
        <ele>38.40000152587890625</ele>
        <time>2019-10-25T14:15:11.000Z</time>
      </trkpt>
      <trkpt lat="37.986580319702625274658203125" lon="-1.10019260086119174957275390625">
        <ele>39.200000762939453125</ele>
        <time>2019-10-25T14:15:15.000Z</time>
      </trkpt>
      <trkpt lat="37.98658023588359355926513671875" lon="-1.1004674434661865234375">
        <ele>40.200000762939453125</ele>
        <time>2019-10-25T14:15:19.000Z</time>
      </trkpt>
      <trkpt lat="37.9865721054375171661376953125" lon="-1.10072971321642398834228515625">
        <ele>41.200000762939453125</ele>
        <time>2019-10-25T14:15:23.000Z</time>
      </trkpt>
      <trkpt lat="37.98655324615538120269775390625" lon="-1.10101536847651004791259765625">
        <ele>42</ele>
        <time>2019-10-25T14:15:27.000Z</time>
      </trkpt>
      <trkpt lat="37.9865043796598911285400390625" lon="-1.10129968263208866119384765625">
        <ele>42</ele>
        <time>2019-10-25T14:15:31.000Z</time>
      </trkpt>
      <trkpt lat="37.98644478432834148406982421875" lon="-1.10158684663474559783935546875">
        <ele>42.200000762939453125</ele>
        <time>2019-10-25T14:15:35.000Z</time>
      </trkpt>
      <trkpt lat="37.98642030917108058929443359375" lon="-1.1016561649739742279052734375">
        <ele>42.40000152587890625</ele>
        <time>2019-10-25T14:15:36.000Z</time>
      </trkpt>
      <trkpt lat="37.98633146099746227264404296875" lon="-1.10185657627880573272705078125">
        <ele>42.59999847412109375</ele>
        <time>2019-10-25T14:15:39.000Z</time>
      </trkpt>
      <trkpt lat="37.986235655844211578369140625" lon="-1.1020534671843051910400390625">
        <ele>42.200000762939453125</ele>
        <time>2019-10-25T14:15:42.000Z</time>
      </trkpt>
      <trkpt lat="37.9861268587410449981689453125" lon="-1.10224432311952114105224609375">
        <ele>43</ele>
        <time>2019-10-25T14:15:45.000Z</time>
      </trkpt>
      <trkpt lat="37.9860075004398822784423828125" lon="-1.10242537222802639007568359375">
        <ele>43.799999237060546875</ele>
        <time>2019-10-25T14:15:48.000Z</time>
      </trkpt>
      <trkpt lat="37.9858772456645965576171875" lon="-1.1025904119014739990234375">
        <ele>43.59999847412109375</ele>
        <time>2019-10-25T14:15:51.000Z</time>
      </trkpt>
      <trkpt lat="37.9857476614415645599365234375" lon="-1.102751679718494415283203125">
        <ele>43</ele>
        <time>2019-10-25T14:15:54.000Z</time>
      </trkpt>
      <trkpt lat="37.9856155626475811004638671875" lon="-1.10291018150746822357177734375">
        <ele>41</ele>
        <time>2019-10-25T14:15:57.000Z</time>
      </trkpt>
      <trkpt lat="37.98548136837780475616455078125" lon="-1.10307463444769382476806640625">
        <ele>40</ele>
        <time>2019-10-25T14:16:00.000Z</time>
      </trkpt>
      <trkpt lat="37.9853436537086963653564453125" lon="-1.10324327833950519561767578125">
        <ele>40.40000152587890625</ele>
        <time>2019-10-25T14:16:03.000Z</time>
      </trkpt>
      <trkpt lat="37.98519101925194263458251953125" lon="-1.103423573076725006103515625">
        <ele>41.59999847412109375</ele>
        <time>2019-10-25T14:16:06.000Z</time>
      </trkpt>
      <trkpt lat="37.98503763042390346527099609375" lon="-1.1036284267902374267578125">
        <ele>42.40000152587890625</ele>
        <time>2019-10-25T14:16:09.000Z</time>
      </trkpt>
      <trkpt lat="37.98488591797649860382080078125" lon="-1.10384711064398288726806640625">
        <ele>42.59999847412109375</ele>
        <time>2019-10-25T14:16:12.000Z</time>
      </trkpt>
      <trkpt lat="37.9847606085240840911865234375" lon="-1.1040852405130863189697265625">
        <ele>40.799999237060546875</ele>
        <time>2019-10-25T14:16:15.000Z</time>
      </trkpt>
      <trkpt lat="37.98465608619153499603271484375" lon="-1.10434398986399173736572265625">
        <ele>39.200000762939453125</ele>
        <time>2019-10-25T14:16:18.000Z</time>
      </trkpt>
      <trkpt lat="37.98455131240189075469970703125" lon="-1.10460600815713405609130859375">
        <ele>38</ele>
        <time>2019-10-25T14:16:21.000Z</time>
      </trkpt>
      <trkpt lat="37.98445525579154491424560546875" lon="-1.10486886464059352874755859375">
        <ele>38</ele>
        <time>2019-10-25T14:16:24.000Z</time>
      </trkpt>
      <trkpt lat="37.98437043093144893646240234375" lon="-1.1051304638385772705078125">
        <ele>39.40000152587890625</ele>
        <time>2019-10-25T14:16:27.000Z</time>
      </trkpt>
      <trkpt lat="37.9842920601367950439453125" lon="-1.10539038665592670440673828125">
        <ele>40.59999847412109375</ele>
        <time>2019-10-25T14:16:30.000Z</time>
      </trkpt>
      <trkpt lat="37.984223999083042144775390625" lon="-1.10564787872135639190673828125">
        <ele>41.200000762939453125</ele>
        <time>2019-10-25T14:16:33.000Z</time>
      </trkpt>
      <trkpt lat="37.984162978827953338623046875" lon="-1.1058930493891239166259765625">
        <ele>41</ele>
        <time>2019-10-25T14:16:36.000Z</time>
      </trkpt>
      <trkpt lat="37.98410623334348201751708984375" lon="-1.106119193136692047119140625">
        <ele>41.40000152587890625</ele>
        <time>2019-10-25T14:16:39.000Z</time>
      </trkpt>
      <trkpt lat="37.98402811400592327117919921875" lon="-1.1063949577510356903076171875">
        <ele>42</ele>
        <time>2019-10-25T14:16:43.000Z</time>
      </trkpt>
      <trkpt lat="37.98396022059023380279541015625" lon="-1.10656754113733768463134765625">
        <ele>41</ele>
        <time>2019-10-25T14:16:46.000Z</time>
      </trkpt>
      <trkpt lat="37.9839120246469974517822265625" lon="-1.10667332075536251068115234375">
        <ele>40.40000152587890625</ele>
        <time>2019-10-25T14:16:48.000Z</time>
      </trkpt>
      <trkpt lat="37.98383633606135845184326171875" lon="-1.10690549947321414947509765625">
        <ele>39.40000152587890625</ele>
        <time>2019-10-25T14:16:52.000Z</time>
      </trkpt>
      <trkpt lat="37.98382158391177654266357421875" lon="-1.1069676093757152557373046875">
        <ele>39</ele>
        <time>2019-10-25T14:16:53.000Z</time>
      </trkpt>
      <trkpt lat="37.9838057421147823333740234375" lon="-1.1072509177029132843017578125">
        <ele>40.200000762939453125</ele>
        <time>2019-10-25T14:16:57.000Z</time>
      </trkpt>
      <trkpt lat="37.98376592807471752166748046875" lon="-1.10748871229588985443115234375">
        <ele>42.40000152587890625</ele>
        <time>2019-10-25T14:17:00.000Z</time>
      </trkpt>
      <trkpt lat="37.9837011359632015228271484375" lon="-1.107721813023090362548828125">
        <ele>44.59999847412109375</ele>
        <time>2019-10-25T14:17:03.000Z</time>
      </trkpt>
      <trkpt lat="37.9836525209248065948486328125" lon="-1.10786832869052886962890625">
        <ele>44.40000152587890625</ele>
        <time>2019-10-25T14:17:05.000Z</time>
      </trkpt>
      <trkpt lat="37.9836002178490161895751953125" lon="-1.107976622879505157470703125">
        <ele>43.799999237060546875</ele>
        <time>2019-10-25T14:17:07.000Z</time>
      </trkpt>
      <trkpt lat="37.9834956116974353790283203125" lon="-1.108143590390682220458984375">
        <ele>41.59999847412109375</ele>
        <time>2019-10-25T14:17:11.000Z</time>
      </trkpt>
      <trkpt lat="37.98342059366405010223388671875" lon="-1.10834634862840175628662109375">
        <ele>40.40000152587890625</ele>
        <time>2019-10-25T14:17:18.000Z</time>
      </trkpt>
      <trkpt lat="37.9833747446537017822265625" lon="-1.10839161090552806854248046875">
        <ele>39.59999847412109375</ele>
        <time>2019-10-25T14:17:42.000Z</time>
      </trkpt>
      <trkpt lat="37.98332990147173404693603515625" lon="-1.10863485373556613922119140625">
        <ele>38</ele>
        <time>2019-10-25T14:17:52.000Z</time>
      </trkpt>
      <trkpt lat="37.983306348323822021484375" lon="-1.108764521777629852294921875">
        <ele>37.59999847412109375</ele>
        <time>2019-10-25T14:17:57.000Z</time>
      </trkpt>
      <trkpt lat="37.98330928198993206024169921875" lon="-1.10869905911386013031005859375">
        <ele>37.59999847412109375</ele>
        <time>2019-10-25T14:18:04.000Z</time>
      </trkpt>
      <trkpt lat="37.98334591090679168701171875" lon="-1.10847459174692630767822265625">
        <ele>39.200000762939453125</ele>
        <time>2019-10-25T14:18:09.000Z</time>
      </trkpt>
      <trkpt lat="37.98341774381697177886962890625" lon="-1.10825180076062679290771484375">
        <ele>40.59999847412109375</ele>
        <time>2019-10-25T14:18:15.000Z</time>
      </trkpt>
      <trkpt lat="37.98348002135753631591796875" lon="-1.10826353542506694793701171875">
        <ele>41.200000762939453125</ele>
        <time>2019-10-25T14:18:19.000Z</time>
      </trkpt>
      <trkpt lat="37.98354146070778369903564453125" lon="-1.108264625072479248046875">
        <ele>42</ele>
        <time>2019-10-25T14:18:22.000Z</time>
      </trkpt>
      <trkpt lat="37.98358689062297344207763671875" lon="-1.10812825150787830352783203125">
        <ele>43</ele>
        <time>2019-10-25T14:18:27.000Z</time>
      </trkpt>
      <trkpt lat="37.9836525209248065948486328125" lon="-1.107900850474834442138671875">
        <ele>44.40000152587890625</ele>
        <time>2019-10-25T14:18:35.000Z</time>
      </trkpt>
      <trkpt lat="37.9836682789027690887451171875" lon="-1.1077860184013843536376953125">
        <ele>44.40000152587890625</ele>
        <time>2019-10-25T14:18:39.000Z</time>
      </trkpt>
      <trkpt lat="37.9834952764213085174560546875" lon="-1.107699014246463775634765625">
        <ele>41.59999847412109375</ele>
        <time>2019-10-25T14:18:45.000Z</time>
      </trkpt>
      <trkpt lat="37.98330224119126796722412109375" lon="-1.10759734176099300384521484375">
        <ele>40.40000152587890625</ele>
        <time>2019-10-25T14:18:51.000Z</time>
      </trkpt>
      <trkpt lat="37.9831046797335147857666015625" lon="-1.10751570202410221099853515625">
        <ele>41</ele>
        <time>2019-10-25T14:18:56.000Z</time>
      </trkpt>
      <trkpt lat="37.98289890401065349578857421875" lon="-1.10743121244013309478759765625">
        <ele>44</ele>
        <time>2019-10-25T14:19:01.000Z</time>
      </trkpt>
      <trkpt lat="37.98282128758728504180908203125" lon="-1.1074359901249408721923828125">
        <ele>44</ele>
        <time>2019-10-25T14:19:03.000Z</time>
      </trkpt>
      <trkpt lat="37.98262632451951503753662109375" lon="-1.10755794681608676910400390625">
        <ele>44</ele>
        <time>2019-10-25T14:19:08.000Z</time>
      </trkpt>
      <trkpt lat="37.98252088017761707305908203125" lon="-1.1076904647052288055419921875">
        <ele>44</ele>
        <time>2019-10-25T14:19:14.000Z</time>
      </trkpt>
      <trkpt lat="37.9825394041836261749267578125" lon="-1.107819378376007080078125">
        <ele>44</ele>
        <time>2019-10-25T14:19:34.000Z</time>
      </trkpt>
      <trkpt lat="37.982587516307830810546875" lon="-1.10792323015630245208740234375">
        <ele>44</ele>
        <time>2019-10-25T14:19:40.000Z</time>
      </trkpt>
      <trkpt lat="37.9826557449996471405029296875" lon="-1.10800453461706638336181640625">
        <ele>43.799999237060546875</ele>
        <time>2019-10-25T14:19:44.000Z</time>
      </trkpt>
      <trkpt lat="37.9827797971665859222412109375" lon="-1.10821844078600406646728515625">
        <ele>42</ele>
        <time>2019-10-25T14:19:50.000Z</time>
      </trkpt>
      <trkpt lat="37.98280636779963970184326171875" lon="-1.10831751488149166107177734375">
        <ele>41</ele>
        <time>2019-10-25T14:19:52.000Z</time>
      </trkpt>
      <trkpt lat="37.9827653802931308746337890625" lon="-1.10856461338698863983154296875">
        <ele>39.40000152587890625</ele>
        <time>2019-10-25T14:19:58.000Z</time>
      </trkpt>
      <trkpt lat="37.98272891901433467864990234375" lon="-1.1088159866631031036376953125">
        <ele>38.799999237060546875</ele>
        <time>2019-10-25T14:20:04.000Z</time>
      </trkpt>
      <trkpt lat="37.98270578496158123016357421875" lon="-1.10908295027911663055419921875">
        <ele>40.40000152587890625</ele>
        <time>2019-10-25T14:20:10.000Z</time>
      </trkpt>
      <trkpt lat="37.9826872609555721282958984375" lon="-1.1093101836740970611572265625">
        <ele>42.200000762939453125</ele>
        <time>2019-10-25T14:20:15.000Z</time>
      </trkpt>
      <trkpt lat="37.9826639592647552490234375" lon="-1.10953724943101406097412109375">
        <ele>44.200000762939453125</ele>
        <time>2019-10-25T14:20:20.000Z</time>
      </trkpt>
      <trkpt lat="37.98264920711517333984375" lon="-1.10977093689143657684326171875">
        <ele>44.799999237060546875</ele>
        <time>2019-10-25T14:20:25.000Z</time>
      </trkpt>
      <trkpt lat="37.98263889737427234649658203125" lon="-1.11002038232982158660888671875">
        <ele>44</ele>
        <time>2019-10-25T14:20:30.000Z</time>
      </trkpt>
      <trkpt lat="37.98262347467243671417236328125" lon="-1.11028365790843963623046875">
        <ele>41.799999237060546875</ele>
        <time>2019-10-25T14:20:35.000Z</time>
      </trkpt>
      <trkpt lat="37.98259866423904895782470703125" lon="-1.11055456101894378662109375">
        <ele>40.200000762939453125</ele>
        <time>2019-10-25T14:20:40.000Z</time>
      </trkpt>
      <trkpt lat="37.9825749434530735015869140625" lon="-1.11083191819489002227783203125">
        <ele>41.200000762939453125</ele>
        <time>2019-10-25T14:20:45.000Z</time>
      </trkpt>
      <trkpt lat="37.9825628735125064849853515625" lon="-1.111094020307064056396484375">
        <ele>42</ele>
        <time>2019-10-25T14:20:50.000Z</time>
      </trkpt>
      <trkpt lat="37.9825447686016559600830078125" lon="-1.11135696060955524444580078125">
        <ele>39.200000762939453125</ele>
        <time>2019-10-25T14:20:56.000Z</time>
      </trkpt>
      <trkpt lat="37.98251568339765071868896484375" lon="-1.111606322228908538818359375">
        <ele>37</ele>
        <time>2019-10-25T14:21:03.000Z</time>
      </trkpt>
      <trkpt lat="37.982420213520526885986328125" lon="-1.11183590255677700042724609375">
        <ele>36.59999847412109375</ele>
        <time>2019-10-25T14:21:11.000Z</time>
      </trkpt>
      <trkpt lat="37.98236824572086334228515625" lon="-1.11202575266361236572265625">
        <ele>37</ele>
        <time>2019-10-25T14:21:17.000Z</time>
      </trkpt>
      <trkpt lat="37.982253916561603546142578125" lon="-1.11223856918513774871826171875">
        <ele>39.59999847412109375</ele>
        <time>2019-10-25T14:21:23.000Z</time>
      </trkpt>
      <trkpt lat="37.9822460375726222991943359375" lon="-1.112473011016845703125">
        <ele>40</ele>
        <time>2019-10-25T14:21:28.000Z</time>
      </trkpt>
      <trkpt lat="37.98221041448414325714111328125" lon="-1.1127018369734287261962890625">
        <ele>41.59999847412109375</ele>
        <time>2019-10-25T14:21:34.000Z</time>
      </trkpt>
      <trkpt lat="37.9821900464594364166259765625" lon="-1.11271751113235950469970703125">
        <ele>42</ele>
        <time>2019-10-25T14:21:36.000Z</time>
      </trkpt>
      <trkpt lat="37.982203960418701171875" lon="-1.11281340010464191436767578125">
        <ele>42.200000762939453125</ele>
        <time>2019-10-25T14:21:40.000Z</time>
      </trkpt>
      <trkpt lat="37.98220873810350894927978515625" lon="-1.11306116916239261627197265625">
        <ele>43</ele>
        <time>2019-10-25T14:21:46.000Z</time>
      </trkpt>
      <trkpt lat="37.98218711279332637786865234375" lon="-1.1132979579269886016845703125">
        <ele>43.200000762939453125</ele>
        <time>2019-10-25T14:21:51.000Z</time>
      </trkpt>
      <trkpt lat="37.98219348303973674774169921875" lon="-1.113549582660198211669921875">
        <ele>43.799999237060546875</ele>
        <time>2019-10-25T14:21:57.000Z</time>
      </trkpt>
      <trkpt lat="37.98218560405075550079345703125" lon="-1.11371998675167560577392578125">
        <ele>44.200000762939453125</ele>
        <time>2019-10-25T14:22:03.000Z</time>
      </trkpt>
      <trkpt lat="37.9821669124066829681396484375" lon="-1.1139683425426483154296875">
        <ele>44.40000152587890625</ele>
        <time>2019-10-25T14:22:11.000Z</time>
      </trkpt>
      <trkpt lat="37.98212709836661815643310546875" lon="-1.11416657455265522003173828125">
        <ele>45.59999847412109375</ele>
        <time>2019-10-25T14:22:15.000Z</time>
      </trkpt>
      <trkpt lat="37.9820411838591098785400390625" lon="-1.1144003458321094512939453125">
        <ele>47.40000152587890625</ele>
        <time>2019-10-25T14:22:19.000Z</time>
      </trkpt>
      <trkpt lat="37.98192040063440799713134765625" lon="-1.1145825684070587158203125">
        <ele>48.40000152587890625</ele>
        <time>2019-10-25T14:22:47.000Z</time>
      </trkpt>
      <trkpt lat="37.9817531816661357879638671875" lon="-1.11449933610856533050537109375">
        <ele>48.200000762939453125</ele>
        <time>2019-10-25T14:22:53.000Z</time>
      </trkpt>
      <trkpt lat="37.981602810323238372802734375" lon="-1.11437327228486537933349609375">
        <ele>46.799999237060546875</ele>
        <time>2019-10-25T14:22:59.000Z</time>
      </trkpt>
      <trkpt lat="37.981431819498538970947265625" lon="-1.11427721567451953887939453125">
        <ele>45.799999237060546875</ele>
        <time>2019-10-25T14:23:07.000Z</time>
      </trkpt>
      <trkpt lat="37.98130768351256847381591796875" lon="-1.11423966474831104278564453125">
        <ele>45.799999237060546875</ele>
        <time>2019-10-25T14:23:14.000Z</time>
      </trkpt>
      <trkpt lat="37.98111489973962306976318359375" lon="-1.11422072164714336395263671875">
        <ele>47</ele>
        <time>2019-10-25T14:23:23.000Z</time>
      </trkpt>
      <trkpt lat="37.9809232056140899658203125" lon="-1.114244274795055389404296875">
        <ele>48.200000762939453125</ele>
        <time>2019-10-25T14:23:32.000Z</time>
      </trkpt>
      <trkpt lat="37.9807617701590061187744140625" lon="-1.11438869498670101165771484375">
        <ele>48.59999847412109375</ele>
        <time>2019-10-25T14:23:39.000Z</time>
      </trkpt>
      <trkpt lat="37.9807098023593425750732421875" lon="-1.11464224755764007568359375">
        <ele>48</ele>
        <time>2019-10-25T14:23:46.000Z</time>
      </trkpt>
      <trkpt lat="37.98071675933897495269775390625" lon="-1.11488708294928073883056640625">
        <ele>48</ele>
        <time>2019-10-25T14:23:51.000Z</time>
      </trkpt>
      <trkpt lat="37.98071466386318206787109375" lon="-1.11488942988216876983642578125">
        <ele>48</ele>
        <time>2019-10-25T14:23:52.000Z</time>
      </trkpt>
      <trkpt lat="37.9806581698358058929443359375" lon="-1.1151208542287349700927734375">
        <ele>48.59999847412109375</ele>
        <time>2019-10-25T14:23:57.000Z</time>
      </trkpt>
      <trkpt lat="37.98063713125884532928466796875" lon="-1.1153568886220455169677734375">
        <ele>49.200000762939453125</ele>
        <time>2019-10-25T14:24:02.000Z</time>
      </trkpt>
      <trkpt lat="37.980620451271533966064453125" lon="-1.11559619195759296417236328125">
        <ele>48.799999237060546875</ele>
        <time>2019-10-25T14:24:07.000Z</time>
      </trkpt>
      <trkpt lat="37.98068256117403507232666015625" lon="-1.1158413626253604888916015625">
        <ele>48.200000762939453125</ele>
        <time>2019-10-25T14:24:12.000Z</time>
      </trkpt>
      <trkpt lat="37.98070686869323253631591796875" lon="-1.1159344017505645751953125">
        <ele>47.59999847412109375</ele>
        <time>2019-10-25T14:24:14.000Z</time>
      </trkpt>
      <trkpt lat="37.98061139881610870361328125" lon="-1.1161585338413715362548828125">
        <ele>47</ele>
        <time>2019-10-25T14:24:19.000Z</time>
      </trkpt>
      <trkpt lat="37.9806732572615146636962890625" lon="-1.11643396317958831787109375">
        <ele>47</ele>
        <time>2019-10-25T14:24:22.000Z</time>
      </trkpt>
      <trkpt lat="37.98066747374832630157470703125" lon="-1.11666723154485225677490234375">
        <ele>47.40000152587890625</ele>
        <time>2019-10-25T14:24:26.000Z</time>
      </trkpt>
      <trkpt lat="37.98059798777103424072265625" lon="-1.11694266088306903839111328125">
        <ele>47.200000762939453125</ele>
        <time>2019-10-25T14:24:30.000Z</time>
      </trkpt>
      <trkpt lat="37.980642579495906829833984375" lon="-1.1171348579227924346923828125">
        <ele>46.799999237060546875</ele>
        <time>2019-10-25T14:24:35.000Z</time>
      </trkpt>
      <trkpt lat="37.9805200360715389251708984375" lon="-1.11732445657253265380859375">
        <ele>46.59999847412109375</ele>
        <time>2019-10-25T14:24:41.000Z</time>
      </trkpt>
      <trkpt lat="37.980486340820789337158203125" lon="-1.11755973659455776214599609375">
        <ele>48.40000152587890625</ele>
        <time>2019-10-25T14:24:46.000Z</time>
      </trkpt>
      <trkpt lat="37.980476953089237213134765625" lon="-1.11785293556749820709228515625">
        <ele>51</ele>
        <time>2019-10-25T14:24:51.000Z</time>
      </trkpt>
      <trkpt lat="37.9804774560034275054931640625" lon="-1.11810422502458095550537109375">
        <ele>51.200000762939453125</ele>
        <time>2019-10-25T14:24:55.000Z</time>
      </trkpt>
      <trkpt lat="37.9804741032421588897705078125" lon="-1.11837378703057765960693359375">
        <ele>49.200000762939453125</ele>
        <time>2019-10-25T14:25:00.000Z</time>
      </trkpt>
      <trkpt lat="37.98045038245618343353271484375" lon="-1.1186273396015167236328125">
        <ele>47.200000762939453125</ele>
        <time>2019-10-25T14:25:05.000Z</time>
      </trkpt>
      <trkpt lat="37.98042389564216136932373046875" lon="-1.118896566331386566162109375">
        <ele>45.799999237060546875</ele>
        <time>2019-10-25T14:25:10.000Z</time>
      </trkpt>
      <trkpt lat="37.9804264940321445465087890625" lon="-1.1190476082265377044677734375">
        <ele>45.200000762939453125</ele>
        <time>2019-10-25T14:25:13.000Z</time>
      </trkpt>
      <trkpt lat="37.98039003275334835052490234375" lon="-1.119306273758411407470703125">
        <ele>46.59999847412109375</ele>
        <time>2019-10-25T14:25:19.000Z</time>
      </trkpt>
      <trkpt lat="37.98034242354333400726318359375" lon="-1.119524203240871429443359375">
        <ele>46.799999237060546875</ele>
        <time>2019-10-25T14:25:24.000Z</time>
      </trkpt>
      <trkpt lat="37.98029196448624134063720703125" lon="-1.119763590395450592041015625">
        <ele>47.200000762939453125</ele>
        <time>2019-10-25T14:25:30.000Z</time>
      </trkpt>
      <trkpt lat="37.98026271164417266845703125" lon="-1.120023764669895172119140625">
        <ele>48.799999237060546875</ele>
        <time>2019-10-25T14:25:36.000Z</time>
      </trkpt>
      <trkpt lat="37.9802575148642063140869140625" lon="-1.12025317735970020294189453125">
        <ele>50.799999237060546875</ele>
        <time>2019-10-25T14:25:40.000Z</time>
      </trkpt>
      <trkpt lat="37.98023764975368976593017578125" lon="-1.12053212709724903106689453125">
        <ele>50.59999847412109375</ele>
        <time>2019-10-25T14:25:45.000Z</time>
      </trkpt>
      <trkpt lat="37.980219461023807525634765625" lon="-1.1207762919366359710693359375">
        <ele>49</ele>
        <time>2019-10-25T14:25:49.000Z</time>
      </trkpt>
      <trkpt lat="37.9802122525870800018310546875" lon="-1.12101073376834392547607421875">
        <ele>47.200000762939453125</ele>
        <time>2019-10-25T14:25:53.000Z</time>
      </trkpt>
      <trkpt lat="37.9801733605563640594482421875" lon="-1.121252886950969696044921875">
        <ele>47.200000762939453125</ele>
        <time>2019-10-25T14:26:01.000Z</time>
      </trkpt>
      <trkpt lat="37.9800985939800739288330078125" lon="-1.12145774066448211669921875">
        <ele>48.59999847412109375</ele>
        <time>2019-10-25T14:26:05.000Z</time>
      </trkpt>
      <trkpt lat="37.980007566511631011962890625" lon="-1.1217023245990276336669921875">
        <ele>50.59999847412109375</ele>
        <time>2019-10-25T14:26:10.000Z</time>
      </trkpt>
      <trkpt lat="37.97994378022849559783935546875" lon="-1.1219232715666294097900390625">
        <ele>52.59999847412109375</ele>
        <time>2019-10-25T14:26:15.000Z</time>
      </trkpt>
      <trkpt lat="37.9798798263072967529296875" lon="-1.12214966677129268646240234375">
        <ele>52.40000152587890625</ele>
        <time>2019-10-25T14:26:21.000Z</time>
      </trkpt>
      <trkpt lat="37.97982123680412769317626953125" lon="-1.122371368110179901123046875">
        <ele>52.59999847412109375</ele>
        <time>2019-10-25T14:26:27.000Z</time>
      </trkpt>
      <trkpt lat="37.979736663401126861572265625" lon="-1.1225965060293674468994140625">
        <ele>52.799999237060546875</ele>
        <time>2019-10-25T14:26:34.000Z</time>
      </trkpt>
      <trkpt lat="37.9796563647687435150146484375" lon="-1.1227805726230144500732421875">
        <ele>53</ele>
        <time>2019-10-25T14:26:44.000Z</time>
      </trkpt>
      <trkpt lat="37.97959257848560810089111328125" lon="-1.12290252931416034698486328125">
        <ele>52.799999237060546875</ele>
        <time>2019-10-25T14:27:42.000Z</time>
      </trkpt>
      <trkpt lat="37.97953985631465911865234375" lon="-1.123147197067737579345703125">
        <ele>52.59999847412109375</ele>
        <time>2019-10-25T14:27:49.000Z</time>
      </trkpt>
      <trkpt lat="37.97949819825589656829833984375" lon="-1.123398654162883758544921875">
        <ele>51.59999847412109375</ele>
        <time>2019-10-25T14:27:55.000Z</time>
      </trkpt>
      <trkpt lat="37.979449331760406494140625" lon="-1.123622618615627288818359375">
        <ele>50.59999847412109375</ele>
        <time>2019-10-25T14:28:00.000Z</time>
      </trkpt>
      <trkpt lat="37.97938764095306396484375" lon="-1.12385203130543231964111328125">
        <ele>49.40000152587890625</ele>
        <time>2019-10-25T14:28:06.000Z</time>
      </trkpt>
      <trkpt lat="37.9793016426265239715576171875" lon="-1.124100722372531890869140625">
        <ele>48.200000762939453125</ele>
        <time>2019-10-25T14:28:12.000Z</time>
      </trkpt>
      <trkpt lat="37.97928160987794399261474609375" lon="-1.1243386007845401763916015625">
        <ele>48.799999237060546875</ele>
        <time>2019-10-25T14:28:16.000Z</time>
      </trkpt>
      <trkpt lat="37.97923936508595943450927734375" lon="-1.12447564490139484405517578125">
        <ele>48.200000762939453125</ele>
        <time>2019-10-25T14:28:19.000Z</time>
      </trkpt>
      <trkpt lat="37.97916837036609649658203125" lon="-1.12474403344094753265380859375">
        <ele>48</ele>
        <time>2019-10-25T14:28:24.000Z</time>
      </trkpt>
      <trkpt lat="37.97908312641084194183349609375" lon="-1.12498694099485874176025390625">
        <ele>48.59999847412109375</ele>
        <time>2019-10-25T14:28:29.000Z</time>
      </trkpt>
      <trkpt lat="37.97902227379381656646728515625" lon="-1.1252069659531116485595703125">
        <ele>50</ele>
        <time>2019-10-25T14:28:33.000Z</time>
      </trkpt>
      <trkpt lat="37.978978939354419708251953125" lon="-1.12547728233039379119873046875">
        <ele>49.799999237060546875</ele>
        <time>2019-10-25T14:28:38.000Z</time>
      </trkpt>
      <trkpt lat="37.97892873175442218780517578125" lon="-1.1257159151136875152587890625">
        <ele>48.799999237060546875</ele>
        <time>2019-10-25T14:28:43.000Z</time>
      </trkpt>
      <trkpt lat="37.97892185859382152557373046875" lon="-1.1257512867450714111328125">
        <ele>48.59999847412109375</ele>
        <time>2019-10-25T14:28:44.000Z</time>
      </trkpt>
      <trkpt lat="37.9789016582071781158447265625" lon="-1.1258332617580890655517578125">
        <ele>48.59999847412109375</ele>
        <time>2019-10-25T14:28:47.000Z</time>
      </trkpt>
      <trkpt lat="37.9788852296769618988037109375" lon="-1.1258905939757823944091796875">
        <ele>48.59999847412109375</ele>
        <time>2019-10-25T14:28:51.000Z</time>
      </trkpt>
      <trkpt lat="37.9788409732282161712646484375" lon="-1.12613283097743988037109375">
        <ele>48.40000152587890625</ele>
        <time>2019-10-25T14:29:15.000Z</time>
      </trkpt>
      <trkpt lat="37.97877651639282703399658203125" lon="-1.1263495869934558868408203125">
        <ele>47.799999237060546875</ele>
        <time>2019-10-25T14:29:20.000Z</time>
      </trkpt>
      <trkpt lat="37.9786823876202106475830078125" lon="-1.12657447345554828643798828125">
        <ele>47.200000762939453125</ele>
        <time>2019-10-25T14:29:25.000Z</time>
      </trkpt>
      <trkpt lat="37.9785905219614505767822265625" lon="-1.126772873103618621826171875">
        <ele>46.200000762939453125</ele>
        <time>2019-10-25T14:29:30.000Z</time>
      </trkpt>
      <trkpt lat="37.978532016277313232421875" lon="-1.12700547091662883758544921875">
        <ele>46</ele>
        <time>2019-10-25T14:29:35.000Z</time>
      </trkpt>
      <trkpt lat="37.97848180867731571197509765625" lon="-1.12723295576870441436767578125">
        <ele>46.40000152587890625</ele>
        <time>2019-10-25T14:29:41.000Z</time>
      </trkpt>
      <trkpt lat="37.97847124747931957244873046875" lon="-1.12729816697537899017333984375">
        <ele>46.59999847412109375</ele>
        <time>2019-10-25T14:29:45.000Z</time>
      </trkpt>
      <trkpt lat="37.97843302600085735321044921875" lon="-1.127501092851161956787109375">
        <ele>47.799999237060546875</ele>
        <time>2019-10-25T14:30:25.000Z</time>
      </trkpt>
      <trkpt lat="37.97831266187131404876708984375" lon="-1.12771877087652683258056640625">
        <ele>49.59999847412109375</ele>
        <time>2019-10-25T14:30:32.000Z</time>
      </trkpt>
      <trkpt lat="37.97824057750403881072998046875" lon="-1.12794089131057262420654296875">
        <ele>50.40000152587890625</ele>
        <time>2019-10-25T14:30:37.000Z</time>
      </trkpt>
      <trkpt lat="37.97816916368901729583740234375" lon="-1.12819419242441654205322265625">
        <ele>50.799999237060546875</ele>
        <time>2019-10-25T14:30:42.000Z</time>
      </trkpt>
      <trkpt lat="37.9780825786292552947998046875" lon="-1.12843743525445461273193359375">
        <ele>51.40000152587890625</ele>
        <time>2019-10-25T14:30:47.000Z</time>
      </trkpt>
      <trkpt lat="37.9780125059187412261962890625" lon="-1.128656454384326934814453125">
        <ele>52.200000762939453125</ele>
        <time>2019-10-25T14:30:51.000Z</time>
      </trkpt>
      <trkpt lat="37.977965064346790313720703125" lon="-1.128921322524547576904296875">
        <ele>52.59999847412109375</ele>
        <time>2019-10-25T14:30:55.000Z</time>
      </trkpt>
      <trkpt lat="37.9779206402599811553955078125" lon="-1.1291628889739513397216796875">
        <ele>52.799999237060546875</ele>
        <time>2019-10-25T14:30:59.000Z</time>
      </trkpt>
      <trkpt lat="37.97786884009838104248046875" lon="-1.129405461251735687255859375">
        <ele>53.59999847412109375</ele>
        <time>2019-10-25T14:31:04.000Z</time>
      </trkpt>
      <trkpt lat="37.97783288173377513885498046875" lon="-1.1295296810567378997802734375">
        <ele>54.200000762939453125</ele>
        <time>2019-10-25T14:31:07.000Z</time>
      </trkpt>
      <trkpt lat="37.97777001745998859405517578125" lon="-1.12962909042835235595703125">
        <ele>55</ele>
        <time>2019-10-25T14:31:11.000Z</time>
      </trkpt>
      <trkpt lat="37.977801449596881866455078125" lon="-1.129667647182941436767578125">
        <ele>54.59999847412109375</ele>
        <time>2019-10-25T14:31:25.000Z</time>
      </trkpt>
      <trkpt lat="37.9777462966740131378173828125" lon="-1.12985632382333278656005859375">
        <ele>55.200000762939453125</ele>
        <time>2019-10-25T14:31:56.000Z</time>
      </trkpt>
      <trkpt lat="37.977598942816257476806640625" lon="-1.12989018671214580535888671875">
        <ele>55.200000762939453125</ele>
        <time>2019-10-25T14:32:00.000Z</time>
      </trkpt>
      <trkpt lat="37.9773976095020771026611328125" lon="-1.12987074069678783416748046875">
        <ele>56</ele>
        <time>2019-10-25T14:32:05.000Z</time>
      </trkpt>
      <trkpt lat="37.97718764282763004302978515625" lon="-1.12981407903134822845458984375">
        <ele>55.40000152587890625</ele>
        <time>2019-10-25T14:32:10.000Z</time>
      </trkpt>
      <trkpt lat="37.97697055153548717498779296875" lon="-1.12973260693252086639404296875">
        <ele>53</ele>
        <time>2019-10-25T14:32:17.000Z</time>
      </trkpt>
      <trkpt lat="37.976762764155864715576171875" lon="-1.12969103269279003143310546875">
        <ele>50.59999847412109375</ele>
        <time>2019-10-25T14:32:22.000Z</time>
      </trkpt>
      <trkpt lat="37.976572327315807342529296875" lon="-1.12963789142668247222900390625">
        <ele>48.59999847412109375</ele>
        <time>2019-10-25T14:32:26.000Z</time>
      </trkpt>
      <trkpt lat="37.97639186494052410125732421875" lon="-1.129597909748554229736328125">
        <ele>48.59999847412109375</ele>
        <time>2019-10-25T14:32:30.000Z</time>
      </trkpt>
      <trkpt lat="37.9761912859976291656494140625" lon="-1.1295226402580738067626953125">
        <ele>48.799999237060546875</ele>
        <time>2019-10-25T14:32:34.000Z</time>
      </trkpt>
      <trkpt lat="37.976080477237701416015625" lon="-1.12945063970983028411865234375">
        <ele>49.200000762939453125</ele>
        <time>2019-10-25T14:32:36.000Z</time>
      </trkpt>
      <trkpt lat="37.975951731204986572265625" lon="-1.12941912375390529632568359375">
        <ele>50</ele>
        <time>2019-10-25T14:32:39.000Z</time>
      </trkpt>
      <trkpt lat="37.97586380504071712493896484375" lon="-1.12959246151149272918701171875">
        <ele>50.799999237060546875</ele>
        <time>2019-10-25T14:32:45.000Z</time>
      </trkpt>
      <trkpt lat="37.97580328769981861114501953125" lon="-1.129734031856060028076171875">
        <ele>51.59999847412109375</ele>
        <time>2019-10-25T14:32:49.000Z</time>
      </trkpt>
      <trkpt lat="37.97572265379130840301513671875" lon="-1.12999856472015380859375">
        <ele>52.799999237060546875</ele>
        <time>2019-10-25T14:32:54.000Z</time>
      </trkpt>
      <trkpt lat="37.97573371790349483489990234375" lon="-1.13024323247373104095458984375">
        <ele>52.59999847412109375</ele>
        <time>2019-10-25T14:32:57.000Z</time>
      </trkpt>
      <trkpt lat="37.975700609385967254638671875" lon="-1.1305190809071063995361328125">
        <ele>51.200000762939453125</ele>
        <time>2019-10-25T14:33:02.000Z</time>
      </trkpt>
      <trkpt lat="37.97563564963638782501220703125" lon="-1.13070507533848285675048828125">
        <ele>50.200000762939453125</ele>
        <time>2019-10-25T14:33:06.000Z</time>
      </trkpt>
      <trkpt lat="37.97559726051986217498779296875" lon="-1.1309411935508251190185546875">
        <ele>50.799999237060546875</ele>
        <time>2019-10-25T14:33:11.000Z</time>
      </trkpt>
      <trkpt lat="37.97558502294123172760009765625" lon="-1.13110832870006561279296875">
        <ele>51.200000762939453125</ele>
        <time>2019-10-25T14:33:15.000Z</time>
      </trkpt>
      <trkpt lat="37.97555417753756046295166015625" lon="-1.1313076503574848175048828125">
        <ele>52.200000762939453125</ele>
        <time>2019-10-25T14:33:20.000Z</time>
      </trkpt>
      <trkpt lat="37.97543800435960292816162109375" lon="-1.1313854344189167022705078125">
        <ele>50.799999237060546875</ele>
        <time>2019-10-25T14:33:27.000Z</time>
      </trkpt>
      <trkpt lat="37.97534982673823833465576171875" lon="-1.13148207776248455047607421875">
        <ele>49.799999237060546875</ele>
        <time>2019-10-25T14:33:33.000Z</time>
      </trkpt>
      <trkpt lat="37.975294254720211029052734375" lon="-1.13136707805097103118896484375">
        <ele>48.59999847412109375</ele>
        <time>2019-10-25T14:33:46.000Z</time>
      </trkpt>
      <trkpt lat="37.975259721279144287109375" lon="-1.13137244246900081634521484375">
        <ele>48.200000762939453125</ele>
        <time>2019-10-25T14:33:51.000Z</time>
      </trkpt>
      <trkpt lat="37.9751016385853290557861328125" lon="-1.131515689194202423095703125">
        <ele>46.799999237060546875</ele>
        <time>2019-10-25T14:34:04.000Z</time>
      </trkpt>
      <trkpt lat="37.97506366856396198272705078125" lon="-1.1315421760082244873046875">
        <ele>46.59999847412109375</ele>
        <time>2019-10-25T14:34:07.000Z</time>
      </trkpt>
      <trkpt lat="37.9750580526888370513916015625" lon="-1.13146430812776088714599609375">
        <ele>46.40000152587890625</ele>
        <time>2019-10-25T14:34:11.000Z</time>
      </trkpt>
      <trkpt lat="37.97503567300736904144287109375" lon="-1.13124453462660312652587890625">
        <ele>45.59999847412109375</ele>
        <time>2019-10-25T14:34:20.000Z</time>
      </trkpt>
      <trkpt lat="37.97500667162239551544189453125" lon="-1.13124512135982513427734375">
        <ele>45.59999847412109375</ele>
        <time>2019-10-25T14:34:24.000Z</time>
      </trkpt>
      <trkpt lat="37.97492184676229953765869140625" lon="-1.13119005225598812103271484375">
        <ele>45.200000762939453125</ele>
        <time>2019-10-25T14:34:33.000Z</time>
      </trkpt>
      <trkpt lat="37.97482721507549285888671875" lon="-1.131111346185207366943359375">
        <ele>45</ele>
        <time>2019-10-25T14:35:34.000Z</time>
      </trkpt>
      <trkpt lat="37.97483501024544239044189453125" lon="-1.1311038024723529815673828125">
        <ele>45</ele>
        <time>2019-10-25T14:35:46.000Z</time>
      </trkpt>
      <trkpt lat="37.97496132552623748779296875" lon="-1.13098092377185821533203125">
        <ele>45.40000152587890625</ele>
        <time>2019-10-25T14:49:33.000Z</time>
      </trkpt>
      <trkpt lat="37.9749956913292407989501953125" lon="-1.13099106587469577789306640625">
        <ele>45.59999847412109375</ele>
        <time>2019-10-25T14:49:38.000Z</time>
      </trkpt>
      <trkpt lat="37.97510608099400997161865234375" lon="-1.131089217960834503173828125">
        <ele>46</ele>
        <time>2019-10-25T14:49:47.000Z</time>
      </trkpt>
      <trkpt lat="37.97510691918432712554931640625" lon="-1.1310545168817043304443359375">
        <ele>46</ele>
        <time>2019-10-25T14:50:15.000Z</time>
      </trkpt>
      <trkpt lat="37.97515578567981719970703125" lon="-1.13107773475348949432373046875">
        <ele>46.200000762939453125</ele>
        <time>2019-10-25T14:50:21.000Z</time>
      </trkpt>
      <trkpt lat="37.97517615370452404022216796875" lon="-1.1312181316316127777099609375">
        <ele>46.40000152587890625</ele>
        <time>2019-10-25T14:50:28.000Z</time>
      </trkpt>
      <trkpt lat="37.9752112738788127899169921875" lon="-1.13145391456782817840576171875">
        <ele>47.799999237060546875</ele>
        <time>2019-10-25T14:50:36.000Z</time>
      </trkpt>
      <trkpt lat="37.97530070878565311431884765625" lon="-1.13167754374444484710693359375">
        <ele>49.40000152587890625</ele>
        <time>2019-10-25T14:50:44.000Z</time>
      </trkpt>
      <trkpt lat="37.9753200709819793701171875" lon="-1.13169883377850055694580078125">
        <ele>49.59999847412109375</ele>
        <time>2019-10-25T14:50:46.000Z</time>
      </trkpt>
      <trkpt lat="37.97543163411319255828857421875" lon="-1.1318980716168880462646484375">
        <ele>50</ele>
        <time>2019-10-25T14:50:56.000Z</time>
      </trkpt>
      <trkpt lat="37.97549776732921600341796875" lon="-1.13200058229267597198486328125">
        <ele>50.40000152587890625</ele>
        <time>2019-10-25T14:51:01.000Z</time>
      </trkpt>
      <trkpt lat="37.97557177953422069549560546875" lon="-1.132097728550434112548828125">
        <ele>51.40000152587890625</ele>
        <time>2019-10-25T14:51:07.000Z</time>
      </trkpt>
      <trkpt lat="37.97561218030750751495361328125" lon="-1.13216377794742584228515625">
        <ele>52</ele>
        <time>2019-10-25T14:51:11.000Z</time>
      </trkpt>
      <trkpt lat="37.9757175408303737640380859375" lon="-1.13230920396745204925537109375">
        <ele>52.59999847412109375</ele>
        <time>2019-10-25T14:51:28.000Z</time>
      </trkpt>
      <trkpt lat="37.9758523218333721160888671875" lon="-1.13240391947329044342041015625">
        <ele>53.799999237060546875</ele>
        <time>2019-10-25T14:51:38.000Z</time>
      </trkpt>
      <trkpt lat="37.97595751471817493438720703125" lon="-1.1325672827661037445068359375">
        <ele>53.799999237060546875</ele>
        <time>2019-10-25T14:51:44.000Z</time>
      </trkpt>
      <trkpt lat="37.97609196044504642486572265625" lon="-1.132747828960418701171875">
        <ele>53.200000762939453125</ele>
        <time>2019-10-25T14:51:52.000Z</time>
      </trkpt>
      <trkpt lat="37.9761778749525547027587890625" lon="-1.1329878866672515869140625">
        <ele>51.799999237060546875</ele>
        <time>2019-10-25T14:52:02.000Z</time>
      </trkpt>
      <trkpt lat="37.976139485836029052734375" lon="-1.13313205540180206298828125">
        <ele>50.799999237060546875</ele>
        <time>2019-10-25T14:52:08.000Z</time>
      </trkpt>
      <trkpt lat="37.976252473890781402587890625" lon="-1.13324160687625408172607421875">
        <ele>49</ele>
        <time>2019-10-25T14:52:25.000Z</time>
      </trkpt>
      <trkpt lat="37.97641642391681671142578125" lon="-1.1331380903720855712890625">
        <ele>50.200000762939453125</ele>
        <time>2019-10-25T14:52:57.000Z</time>
      </trkpt>
      <trkpt lat="37.97646604478359222412109375" lon="-1.13313741981983184814453125">
        <ele>50.40000152587890625</ele>
        <time>2019-10-25T14:53:32.000Z</time>
      </trkpt>
      <trkpt lat="37.976562939584255218505859375" lon="-1.13333590328693389892578125">
        <ele>49.200000762939453125</ele>
        <time>2019-10-25T14:53:37.000Z</time>
      </trkpt>
      <trkpt lat="37.97663234174251556396484375" lon="-1.1333880387246608734130859375">
        <ele>48.799999237060546875</ele>
        <time>2019-10-25T14:53:39.000Z</time>
      </trkpt>
      <trkpt lat="37.97681096009910106658935546875" lon="-1.1335372366011142730712890625">
        <ele>48.200000762939453125</ele>
        <time>2019-10-25T14:53:45.000Z</time>
      </trkpt>
      <trkpt lat="37.97701195813715457916259765625" lon="-1.133647374808788299560546875">
        <ele>50.799999237060546875</ele>
        <time>2019-10-25T14:53:51.000Z</time>
      </trkpt>
      <trkpt lat="37.97722888179123401641845703125" lon="-1.13354050554335117340087890625">
        <ele>54</ele>
        <time>2019-10-25T14:53:57.000Z</time>
      </trkpt>
      <trkpt lat="37.97739266417920589447021484375" lon="-1.13364846445620059967041015625">
        <ele>56.200000762939453125</ele>
        <time>2019-10-25T14:54:03.000Z</time>
      </trkpt>
      <trkpt lat="37.97758896835148334503173828125" lon="-1.13377687521278858184814453125">
        <ele>56.799999237060546875</ele>
        <time>2019-10-25T14:54:08.000Z</time>
      </trkpt>
      <trkpt lat="37.9777426086366176605224609375" lon="-1.1339025199413299560546875">
        <ele>55.799999237060546875</ele>
        <time>2019-10-25T14:54:12.000Z</time>
      </trkpt>
      <trkpt lat="37.977841012179851531982421875" lon="-1.13397284410893917083740234375">
        <ele>54.799999237060546875</ele>
        <time>2019-10-25T14:54:15.000Z</time>
      </trkpt>
      <trkpt lat="37.97792692668735980987548828125" lon="-1.13415154628455638885498046875">
        <ele>54.200000762939453125</ele>
        <time>2019-10-25T14:54:24.000Z</time>
      </trkpt>
      <trkpt lat="37.9778680019080638885498046875" lon="-1.1341975629329681396484375">
        <ele>54.799999237060546875</ele>
        <time>2019-10-25T14:54:27.000Z</time>
      </trkpt>
      <trkpt lat="37.97772509045898914337158203125" lon="-1.13435958512127399444580078125">
        <ele>56.200000762939453125</ele>
        <time>2019-10-25T14:54:33.000Z</time>
      </trkpt>
      <trkpt lat="37.97770229168236255645751953125" lon="-1.13448179326951503753662109375">
        <ele>56</ele>
        <time>2019-10-25T14:54:36.000Z</time>
      </trkpt>
      <trkpt lat="37.97779717482626438140869140625" lon="-1.134717576205730438232421875">
        <ele>54.40000152587890625</ele>
        <time>2019-10-25T14:54:43.000Z</time>
      </trkpt>
      <trkpt lat="37.97789339907467365264892578125" lon="-1.13492318429052829742431640625">
        <ele>51.799999237060546875</ele>
        <time>2019-10-25T14:54:49.000Z</time>
      </trkpt>
      <trkpt lat="37.97802164219319820404052734375" lon="-1.1350932531058788299560546875">
        <ele>50.200000762939453125</ele>
        <time>2019-10-25T14:54:55.000Z</time>
      </trkpt>
      <trkpt lat="37.9781739413738250732421875" lon="-1.1352709494531154632568359375">
        <ele>50</ele>
        <time>2019-10-25T14:55:02.000Z</time>
      </trkpt>
      <trkpt lat="37.97835029661655426025390625" lon="-1.1353965103626251220703125">
        <ele>49.59999847412109375</ele>
        <time>2019-10-25T14:55:08.000Z</time>
      </trkpt>
      <trkpt lat="37.978541068732738494873046875" lon="-1.13548845984041690826416015625">
        <ele>48.40000152587890625</ele>
        <time>2019-10-25T14:55:14.000Z</time>
      </trkpt>
      <trkpt lat="37.9787256382405757904052734375" lon="-1.1355145275592803955078125">
        <ele>47</ele>
        <time>2019-10-25T14:55:20.000Z</time>
      </trkpt>
      <trkpt lat="37.97891129739582538604736328125" lon="-1.13552450202405452728271484375">
        <ele>45.200000762939453125</ele>
        <time>2019-10-25T14:55:27.000Z</time>
      </trkpt>
      <trkpt lat="37.97905529849231243133544921875" lon="-1.13568208180367946624755859375">
        <ele>43.799999237060546875</ele>
        <time>2019-10-25T14:55:34.000Z</time>
      </trkpt>
      <trkpt lat="37.9790843836963176727294921875" lon="-1.135701946914196014404296875">
        <ele>43.59999847412109375</ele>
        <time>2019-10-25T14:55:36.000Z</time>
      </trkpt>
      <trkpt lat="37.979118414223194122314453125" lon="-1.13589833490550518035888671875">
        <ele>44.799999237060546875</ele>
        <time>2019-10-25T14:55:51.000Z</time>
      </trkpt>
      <trkpt lat="37.97910827212035655975341796875" lon="-1.1361314356327056884765625">
        <ele>45.799999237060546875</ele>
        <time>2019-10-25T14:55:58.000Z</time>
      </trkpt>
      <trkpt lat="37.9790696315467357635498046875" lon="-1.1363579146564006805419921875">
        <ele>46.40000152587890625</ele>
        <time>2019-10-25T14:56:04.000Z</time>
      </trkpt>
      <trkpt lat="37.9789767600595951080322265625" lon="-1.1365734972059726715087890625">
        <ele>47.799999237060546875</ele>
        <time>2019-10-25T14:56:09.000Z</time>
      </trkpt>
      <trkpt lat="37.978950105607509613037109375" lon="-1.13671892322599887847900390625">
        <ele>47.40000152587890625</ele>
        <time>2019-10-25T14:56:13.000Z</time>
      </trkpt>
      <trkpt lat="37.97905580140650272369384765625" lon="-1.13693232648074626922607421875">
        <ele>45.200000762939453125</ele>
        <time>2019-10-25T14:56:23.000Z</time>
      </trkpt>
      <trkpt lat="37.9789935238659381866455078125" lon="-1.13709812052547931671142578125">
        <ele>45.200000762939453125</ele>
        <time>2019-10-25T14:56:27.000Z</time>
      </trkpt>
      <trkpt lat="37.97891280613839626312255859375" lon="-1.13725217990577220916748046875">
        <ele>43.59999847412109375</ele>
        <time>2019-10-25T14:56:30.000Z</time>
      </trkpt>
      <trkpt lat="37.97885916195809841156005859375" lon="-1.13749341107904911041259765625">
        <ele>42</ele>
        <time>2019-10-25T14:56:34.000Z</time>
      </trkpt>
      <trkpt lat="37.97877836041152477264404296875" lon="-1.137740425765514373779296875">
        <ele>41.200000762939453125</ele>
        <time>2019-10-25T14:56:39.000Z</time>
      </trkpt>
      <trkpt lat="37.978703342378139495849609375" lon="-1.13797344267368316650390625">
        <ele>41.200000762939453125</ele>
        <time>2019-10-25T14:56:44.000Z</time>
      </trkpt>
      <trkpt lat="37.9786170087754726409912109375" lon="-1.138215847313404083251953125">
        <ele>42</ele>
        <time>2019-10-25T14:56:49.000Z</time>
      </trkpt>
      <trkpt lat="37.978534363210201263427734375" lon="-1.13847375847399234771728515625">
        <ele>41.799999237060546875</ele>
        <time>2019-10-25T14:56:54.000Z</time>
      </trkpt>
      <trkpt lat="37.97847501933574676513671875" lon="-1.1387304961681365966796875">
        <ele>42</ele>
        <time>2019-10-25T14:56:59.000Z</time>
      </trkpt>
      <trkpt lat="37.97842497937381267547607421875" lon="-1.13898522220551967620849609375">
        <ele>42.200000762939453125</ele>
        <time>2019-10-25T14:57:04.000Z</time>
      </trkpt>
      <trkpt lat="37.978389523923397064208984375" lon="-1.1391920037567615509033203125">
        <ele>41.59999847412109375</ele>
        <time>2019-10-25T14:57:08.000Z</time>
      </trkpt>
      <trkpt lat="37.97837049700319766998291015625" lon="-1.13945662043988704681396484375">
        <ele>40.799999237060546875</ele>
        <time>2019-10-25T14:57:13.000Z</time>
      </trkpt>
      <trkpt lat="37.978376783430576324462890625" lon="-1.1397247575223445892333984375">
        <ele>42</ele>
        <time>2019-10-25T14:57:18.000Z</time>
      </trkpt>
      <trkpt lat="37.97838826663792133331298828125" lon="-1.13983682356774806976318359375">
        <ele>43</ele>
        <time>2019-10-25T14:57:20.000Z</time>
      </trkpt>
      <trkpt lat="37.97843436710536479949951171875" lon="-1.14010236226022243499755859375">
        <ele>42.59999847412109375</ele>
        <time>2019-10-25T14:57:25.000Z</time>
      </trkpt>
      <trkpt lat="37.97849421389400959014892578125" lon="-1.14036404527723789215087890625">
        <ele>39</ele>
        <time>2019-10-25T14:57:30.000Z</time>
      </trkpt>
      <trkpt lat="37.9785771109163761138916015625" lon="-1.140619777143001556396484375">
        <ele>35.59999847412109375</ele>
        <time>2019-10-25T14:57:35.000Z</time>
      </trkpt>
      <trkpt lat="37.97868850640952587127685546875" lon="-1.1408546380698680877685546875">
        <ele>36.40000152587890625</ele>
        <time>2019-10-25T14:57:40.000Z</time>
      </trkpt>
      <trkpt lat="37.97879143618047237396240234375" lon="-1.14102604798972606658935546875">
        <ele>38.200000762939453125</ele>
        <time>2019-10-25T14:57:44.000Z</time>
      </trkpt>
      <trkpt lat="37.97892873175442218780517578125" lon="-1.14122738130390644073486328125">
        <ele>42.40000152587890625</ele>
        <time>2019-10-25T14:57:49.000Z</time>
      </trkpt>
      <trkpt lat="37.97906971536576747894287109375" lon="-1.1414299719035625457763671875">
        <ele>46.200000762939453125</ele>
        <time>2019-10-25T14:57:54.000Z</time>
      </trkpt>
      <trkpt lat="37.97922930680215358734130859375" lon="-1.14161211065948009490966796875">
        <ele>48</ele>
        <time>2019-10-25T14:57:59.000Z</time>
      </trkpt>
      <trkpt lat="37.9793992079794406890869140625" lon="-1.1417828500270843505859375">
        <ele>47.40000152587890625</ele>
        <time>2019-10-25T14:58:04.000Z</time>
      </trkpt>
      <trkpt lat="37.979546897113323211669921875" lon="-1.14191654138267040252685546875">
        <ele>45.59999847412109375</ele>
        <time>2019-10-25T14:58:08.000Z</time>
      </trkpt>
      <trkpt lat="37.97972115688025951385498046875" lon="-1.14208736456930637359619140625">
        <ele>45.200000762939453125</ele>
        <time>2019-10-25T14:58:13.000Z</time>
      </trkpt>
      <trkpt lat="37.97988862730562686920166015625" lon="-1.14226707257330417633056640625">
        <ele>44.40000152587890625</ele>
        <time>2019-10-25T14:58:18.000Z</time>
      </trkpt>
      <trkpt lat="37.98004168085753917694091796875" lon="-1.14245147444307804107666015625">
        <ele>43.799999237060546875</ele>
        <time>2019-10-25T14:58:23.000Z</time>
      </trkpt>
      <trkpt lat="37.98017151653766632080078125" lon="-1.14262640476226806640625">
        <ele>42.200000762939453125</ele>
        <time>2019-10-25T14:58:27.000Z</time>
      </trkpt>
      <trkpt lat="37.98029162921011447906494140625" lon="-1.142804436385631561279296875">
        <ele>43.799999237060546875</ele>
        <time>2019-10-25T14:58:31.000Z</time>
      </trkpt>
      <trkpt lat="37.9804127477109432220458984375" lon="-1.1429853178560733795166015625">
        <ele>43.200000762939453125</ele>
        <time>2019-10-25T14:58:35.000Z</time>
      </trkpt>
      <trkpt lat="37.98053621314465999603271484375" lon="-1.14315706305205821990966796875">
        <ele>43.59999847412109375</ele>
        <time>2019-10-25T14:58:39.000Z</time>
      </trkpt>
      <trkpt lat="37.980653978884220123291015625" lon="-1.14334129728376865386962890625">
        <ele>42.200000762939453125</ele>
        <time>2019-10-25T14:58:43.000Z</time>
      </trkpt>
      <trkpt lat="37.98076369799673557281494140625" lon="-1.14352888427674770355224609375">
        <ele>40.59999847412109375</ele>
        <time>2019-10-25T14:58:47.000Z</time>
      </trkpt>
      <trkpt lat="37.9808740876615047454833984375" lon="-1.143711023032665252685546875">
        <ele>39.200000762939453125</ele>
        <time>2019-10-25T14:58:51.000Z</time>
      </trkpt>
      <trkpt lat="37.98099906183779239654541015625" lon="-1.14389668218791484832763671875">
        <ele>39.59999847412109375</ele>
        <time>2019-10-25T14:58:55.000Z</time>
      </trkpt>
      <trkpt lat="37.9811225272715091705322265625" lon="-1.14407035522162914276123046875">
        <ele>40</ele>
        <time>2019-10-25T14:58:59.000Z</time>
      </trkpt>
      <trkpt lat="37.9812343418598175048828125" lon="-1.1442516557872295379638671875">
        <ele>40.59999847412109375</ele>
        <time>2019-10-25T14:59:03.000Z</time>
      </trkpt>
      <trkpt lat="37.9813394509255886077880859375" lon="-1.144424490630626678466796875">
        <ele>41.59999847412109375</ele>
        <time>2019-10-25T14:59:07.000Z</time>
      </trkpt>
      <trkpt lat="37.98146140761673450469970703125" lon="-1.144666559994220733642578125">
        <ele>42</ele>
        <time>2019-10-25T14:59:12.000Z</time>
      </trkpt>
      <trkpt lat="37.98158931545913219451904296875" lon="-1.14487878978252410888671875">
        <ele>40.59999847412109375</ele>
        <time>2019-10-25T14:59:16.000Z</time>
      </trkpt>
      <trkpt lat="37.98163675703108310699462890625" lon="-1.14510065875947475433349609375">
        <ele>40.200000762939453125</ele>
        <time>2019-10-25T14:59:20.000Z</time>
      </trkpt>
      <trkpt lat="37.98166391439735889434814453125" lon="-1.1453139781951904296875">
        <ele>41</ele>
        <time>2019-10-25T14:59:24.000Z</time>
      </trkpt>
      <trkpt lat="37.981661818921566009521484375" lon="-1.145587228238582611083984375">
        <ele>42</ele>
        <time>2019-10-25T14:59:29.000Z</time>
      </trkpt>
      <trkpt lat="37.9816224239766597747802734375" lon="-1.14581764675676822662353515625">
        <ele>43.799999237060546875</ele>
        <time>2019-10-25T14:59:33.000Z</time>
      </trkpt>
      <trkpt lat="37.9815580509603023529052734375" lon="-1.146033145487308502197265625">
        <ele>45.200000762939453125</ele>
        <time>2019-10-25T14:59:37.000Z</time>
      </trkpt>
      <trkpt lat="37.9814769141376018524169921875" lon="-1.14624311216175556182861328125">
        <ele>44</ele>
        <time>2019-10-25T14:59:41.000Z</time>
      </trkpt>
      <trkpt lat="37.98136912286281585693359375" lon="-1.14643723703920841217041015625">
        <ele>42.59999847412109375</ele>
        <time>2019-10-25T14:59:45.000Z</time>
      </trkpt>
      <trkpt lat="37.98133601434528827667236328125" lon="-1.1464812420308589935302734375">
        <ele>42.200000762939453125</ele>
        <time>2019-10-25T14:59:46.000Z</time>
      </trkpt>
      <trkpt lat="37.981194444000720977783203125" lon="-1.14665013737976551055908203125">
        <ele>42.59999847412109375</ele>
        <time>2019-10-25T14:59:50.000Z</time>
      </trkpt>
      <trkpt lat="37.98103711567819118499755859375" lon="-1.14679916761815547943115234375">
        <ele>44.200000762939453125</ele>
        <time>2019-10-25T14:59:54.000Z</time>
      </trkpt>
      <trkpt lat="37.98087685368955135345458984375" lon="-1.14694467745721340179443359375">
        <ele>43.59999847412109375</ele>
        <time>2019-10-25T14:59:58.000Z</time>
      </trkpt>
      <trkpt lat="37.98072136938571929931640625" lon="-1.1470823921263217926025390625">
        <ele>41.40000152587890625</ele>
        <time>2019-10-25T15:00:02.000Z</time>
      </trkpt>
      <trkpt lat="37.98060963861644268035888671875" lon="-1.147169731557369232177734375">
        <ele>40.59999847412109375</ele>
        <time>2019-10-25T15:00:05.000Z</time>
      </trkpt>
      <trkpt lat="37.9804321937263011932373046875" lon="-1.1473164148628711700439453125">
        <ele>39.59999847412109375</ele>
        <time>2019-10-25T15:00:10.000Z</time>
      </trkpt>
      <trkpt lat="37.98028073273599147796630859375" lon="-1.14744700491428375244140625">
        <ele>40.799999237060546875</ele>
        <time>2019-10-25T15:00:14.000Z</time>
      </trkpt>
      <trkpt lat="37.98012717626988887786865234375" lon="-1.1475836299359798431396484375">
        <ele>41.40000152587890625</ele>
        <time>2019-10-25T15:00:18.000Z</time>
      </trkpt>
      <trkpt lat="37.97997144050896167755126953125" lon="-1.14772000350058078765869140625">
        <ele>39.799999237060546875</ele>
        <time>2019-10-25T15:00:22.000Z</time>
      </trkpt>
      <trkpt lat="37.97981838695704936981201171875" lon="-1.1478607356548309326171875">
        <ele>38.799999237060546875</ele>
        <time>2019-10-25T15:00:26.000Z</time>
      </trkpt>
      <trkpt lat="37.979664243757724761962890625" lon="-1.14799878560006618499755859375">
        <ele>38.799999237060546875</ele>
        <time>2019-10-25T15:00:30.000Z</time>
      </trkpt>
      <trkpt lat="37.97951848246157169342041015625" lon="-1.14814161323010921478271484375">
        <ele>40.40000152587890625</ele>
        <time>2019-10-25T15:00:34.000Z</time>
      </trkpt>
      <trkpt lat="37.9793743975460529327392578125" lon="-1.1482952535152435302734375">
        <ele>42.200000762939453125</ele>
        <time>2019-10-25T15:00:38.000Z</time>
      </trkpt>
      <trkpt lat="37.979238443076610565185546875" lon="-1.14845911972224712371826171875">
        <ele>43.40000152587890625</ele>
        <time>2019-10-25T15:00:42.000Z</time>
      </trkpt>
      <trkpt lat="37.97910508699715137481689453125" lon="-1.14862541668117046356201171875">
        <ele>43.59999847412109375</ele>
        <time>2019-10-25T15:00:46.000Z</time>
      </trkpt>
      <trkpt lat="37.9789750836789608001708984375" lon="-1.14878986962139606475830078125">
        <ele>43.200000762939453125</ele>
        <time>2019-10-25T15:00:50.000Z</time>
      </trkpt>
      <trkpt lat="37.978846170008182525634765625" lon="-1.14895566366612911224365234375">
        <ele>43</ele>
        <time>2019-10-25T15:00:54.000Z</time>
      </trkpt>
      <trkpt lat="37.9787222854793071746826171875" lon="-1.149136461317539215087890625">
        <ele>42.799999237060546875</ele>
        <time>2019-10-25T15:00:58.000Z</time>
      </trkpt>
      <trkpt lat="37.97860669903457164764404296875" lon="-1.14932295866310596466064453125">
        <ele>42.59999847412109375</ele>
        <time>2019-10-25T15:01:02.000Z</time>
      </trkpt>
      <trkpt lat="37.9784869216382503509521484375" lon="-1.14950601942837238311767578125">
        <ele>43</ele>
        <time>2019-10-25T15:01:06.000Z</time>
      </trkpt>
      <trkpt lat="37.97836177982389926910400390625" lon="-1.14968874491751194000244140625">
        <ele>43.59999847412109375</ele>
        <time>2019-10-25T15:01:10.000Z</time>
      </trkpt>
      <trkpt lat="37.9782277531921863555908203125" lon="-1.14985638298094272613525390625">
        <ele>44.59999847412109375</ele>
        <time>2019-10-25T15:01:14.000Z</time>
      </trkpt>
      <trkpt lat="37.9781898669898509979248046875" lon="-1.1498943530023097991943359375">
        <ele>45</ele>
        <time>2019-10-25T15:01:15.000Z</time>
      </trkpt>
      <trkpt lat="37.97804025001823902130126953125" lon="-1.15004296414554119110107421875">
        <ele>45</ele>
        <time>2019-10-25T15:01:19.000Z</time>
      </trkpt>
      <trkpt lat="37.97788736410439014434814453125" lon="-1.15017288364470005035400390625">
        <ele>45</ele>
        <time>2019-10-25T15:01:23.000Z</time>
      </trkpt>
      <trkpt lat="37.97772559337317943572998046875" lon="-1.1503010429441928863525390625">
        <ele>44.59999847412109375</ele>
        <time>2019-10-25T15:01:27.000Z</time>
      </trkpt>
      <trkpt lat="37.97757153399288654327392578125" lon="-1.1504383385181427001953125">
        <ele>44</ele>
        <time>2019-10-25T15:01:31.000Z</time>
      </trkpt>
      <trkpt lat="37.97742501832544803619384765625" lon="-1.15058963187038898468017578125">
        <ele>43</ele>
        <time>2019-10-25T15:01:35.000Z</time>
      </trkpt>
      <trkpt lat="37.97727213241159915924072265625" lon="-1.15074612200260162353515625">
        <ele>42</ele>
        <time>2019-10-25T15:01:39.000Z</time>
      </trkpt>
      <trkpt lat="37.97712855041027069091796875" lon="-1.150912754237651824951171875">
        <ele>41.40000152587890625</ele>
        <time>2019-10-25T15:01:43.000Z</time>
      </trkpt>
      <trkpt lat="37.9769936017692089080810546875" lon="-1.15109480917453765869140625">
        <ele>41.799999237060546875</ele>
        <time>2019-10-25T15:01:47.000Z</time>
      </trkpt>
      <trkpt lat="37.97686879523098468780517578125" lon="-1.15129304118454456329345703125">
        <ele>42.799999237060546875</ele>
        <time>2019-10-25T15:01:51.000Z</time>
      </trkpt>
      <trkpt lat="37.976839207112789154052734375" lon="-1.151343919336795806884765625">
        <ele>43</ele>
        <time>2019-10-25T15:01:52.000Z</time>
      </trkpt>
      <trkpt lat="37.97673284076154232025146484375" lon="-1.1515514552593231201171875">
        <ele>44.200000762939453125</ele>
        <time>2019-10-25T15:01:56.000Z</time>
      </trkpt>
      <trkpt lat="37.9766190983355045318603515625" lon="-1.15174381993710994720458984375">
        <ele>45</ele>
        <time>2019-10-25T15:02:00.000Z</time>
      </trkpt>
      <trkpt lat="37.9765051044523715972900390625" lon="-1.15195236168801784515380859375">
        <ele>45.59999847412109375</ele>
        <time>2019-10-25T15:02:04.000Z</time>
      </trkpt>
      <trkpt lat="37.9763827286660671234130859375" lon="-1.15215302444994449615478515625">
        <ele>45.40000152587890625</ele>
        <time>2019-10-25T15:02:08.000Z</time>
      </trkpt>
      <trkpt lat="37.97627753578126430511474609375" lon="-1.15236156620085239410400390625">
        <ele>45.799999237060546875</ele>
        <time>2019-10-25T15:02:12.000Z</time>
      </trkpt>
      <trkpt lat="37.97617242671549320220947265625" lon="-1.15256994031369686126708984375">
        <ele>45.40000152587890625</ele>
        <time>2019-10-25T15:02:16.000Z</time>
      </trkpt>
      <trkpt lat="37.97608785331249237060546875" lon="-1.15279440768063068389892578125">
        <ele>44.799999237060546875</ele>
        <time>2019-10-25T15:02:20.000Z</time>
      </trkpt>
      <trkpt lat="37.97606396488845348358154296875" lon="-1.15284872241318225860595703125">
        <ele>44.799999237060546875</ele>
        <time>2019-10-25T15:02:21.000Z</time>
      </trkpt>
      <trkpt lat="37.97597545199096202850341796875" lon="-1.15306229330599308013916015625">
        <ele>43.59999847412109375</ele>
        <time>2019-10-25T15:02:25.000Z</time>
      </trkpt>
      <trkpt lat="37.9758835025131702423095703125" lon="-1.15327536128461360931396484375">
        <ele>43.200000762939453125</ele>
        <time>2019-10-25T15:02:29.000Z</time>
      </trkpt>
      <trkpt lat="37.97580094076693058013916015625" lon="-1.1534960567951202392578125">
        <ele>43.200000762939453125</ele>
        <time>2019-10-25T15:02:33.000Z</time>
      </trkpt>
      <trkpt lat="37.97572181560099124908447265625" lon="-1.1537240445613861083984375">
        <ele>43</ele>
        <time>2019-10-25T15:02:37.000Z</time>
      </trkpt>
      <trkpt lat="37.9756431095302104949951171875" lon="-1.15394658409059047698974609375">
        <ele>43</ele>
        <time>2019-10-25T15:02:41.000Z</time>
      </trkpt>
      <trkpt lat="37.97557286918163299560546875" lon="-1.15417440421879291534423828125">
        <ele>43.200000762939453125</ele>
        <time>2019-10-25T15:02:45.000Z</time>
      </trkpt>
      <trkpt lat="37.97551981173455715179443359375" lon="-1.15440356545150279998779296875">
        <ele>43.799999237060546875</ele>
        <time>2019-10-25T15:02:49.000Z</time>
      </trkpt>
      <trkpt lat="37.975490391254425048828125" lon="-1.1545774899423122406005859375">
        <ele>44.200000762939453125</ele>
        <time>2019-10-25T15:02:53.000Z</time>
      </trkpt>
      <trkpt lat="37.9754543490707874298095703125" lon="-1.1546654999256134033203125">
        <ele>44.59999847412109375</ele>
        <time>2019-10-25T15:02:56.000Z</time>
      </trkpt>
      <trkpt lat="37.975404560565948486328125" lon="-1.15487479604780673980712890625">
        <ele>46</ele>
        <time>2019-10-25T15:03:01.000Z</time>
      </trkpt>
      <trkpt lat="37.975380085408687591552734375" lon="-1.1549632251262664794921875">
        <ele>46.40000152587890625</ele>
        <time>2019-10-25T15:03:03.000Z</time>
      </trkpt>
      <trkpt lat="37.975209765136241912841796875" lon="-1.15500236861407756805419921875">
        <ele>47.799999237060546875</ele>
        <time>2019-10-25T15:03:10.000Z</time>
      </trkpt>
      <trkpt lat="37.9750875569880008697509765625" lon="-1.15493036806583404541015625">
        <ele>48.200000762939453125</ele>
        <time>2019-10-25T15:03:13.000Z</time>
      </trkpt>
      <trkpt lat="37.97493827529251575469970703125" lon="-1.15490019321441650390625">
        <ele>48.59999847412109375</ele>
        <time>2019-10-25T15:03:16.000Z</time>
      </trkpt>
      <trkpt lat="37.97475940547883510589599609375" lon="-1.154973618686199188232421875">
        <ele>49</ele>
        <time>2019-10-25T15:03:20.000Z</time>
      </trkpt>
      <trkpt lat="37.9747157357633113861083984375" lon="-1.15499868057668209075927734375">
        <ele>49</ele>
        <time>2019-10-25T15:03:21.000Z</time>
      </trkpt>
      <trkpt lat="37.97454784624278545379638671875" lon="-1.1550981737673282623291015625">
        <ele>49.200000762939453125</ele>
        <time>2019-10-25T15:03:26.000Z</time>
      </trkpt>
      <trkpt lat="37.97452789731323719024658203125" lon="-1.15510932169854640960693359375">
        <ele>49.200000762939453125</ele>
        <time>2019-10-25T15:03:27.000Z</time>
      </trkpt>
      <trkpt lat="37.97440116293728351593017578125" lon="-1.1552262492477893829345703125">
        <ele>49.59999847412109375</ele>
        <time>2019-10-25T15:03:32.000Z</time>
      </trkpt>
      <trkpt lat="37.9743737541139125823974609375" lon="-1.15525566972792148590087890625">
        <ele>49.799999237060546875</ele>
        <time>2019-10-25T15:03:33.000Z</time>
      </trkpt>
      <trkpt lat="37.9742758534848690032958984375" lon="-1.15543034859001636505126953125">
        <ele>50</ele>
        <time>2019-10-25T15:03:37.000Z</time>
      </trkpt>
      <trkpt lat="37.9742091335356235504150390625" lon="-1.1555192805826663970947265625">
        <ele>49.59999847412109375</ele>
        <time>2019-10-25T15:03:43.000Z</time>
      </trkpt>
      <trkpt lat="37.97418490983545780181884765625" lon="-1.155815832316875457763671875">
        <ele>49</ele>
        <time>2019-10-25T15:04:40.000Z</time>
      </trkpt>
      <trkpt lat="37.9741477780044078826904296875" lon="-1.15609218366444110870361328125">
        <ele>49</ele>
        <time>2019-10-25T15:04:45.000Z</time>
      </trkpt>
      <trkpt lat="37.9741243086755275726318359375" lon="-1.1563269607722759246826171875">
        <ele>49.200000762939453125</ele>
        <time>2019-10-25T15:04:49.000Z</time>
      </trkpt>
      <trkpt lat="37.97410360537469387054443359375" lon="-1.1565671861171722412109375">
        <ele>49.40000152587890625</ele>
        <time>2019-10-25T15:04:53.000Z</time>
      </trkpt>
      <trkpt lat="37.97409539110958576202392578125" lon="-1.1566293798387050628662109375">
        <ele>49</ele>
        <time>2019-10-25T15:04:54.000Z</time>
      </trkpt>
      <trkpt lat="37.97405633144080638885498046875" lon="-1.15687740035355091094970703125">
        <ele>47.799999237060546875</ele>
        <time>2019-10-25T15:04:58.000Z</time>
      </trkpt>
      <trkpt lat="37.97403135336935520172119140625" lon="-1.1571389995515346527099609375">
        <ele>48</ele>
        <time>2019-10-25T15:05:02.000Z</time>
      </trkpt>
      <trkpt lat="37.9739923775196075439453125" lon="-1.15739942528307437896728515625">
        <ele>48</ele>
        <time>2019-10-25T15:05:06.000Z</time>
      </trkpt>
      <trkpt lat="37.9739660583436489105224609375" lon="-1.1576871760189533233642578125">
        <ele>47.799999237060546875</ele>
        <time>2019-10-25T15:05:10.000Z</time>
      </trkpt>
      <trkpt lat="37.9739435948431491851806640625" lon="-1.15797090344130992889404296875">
        <ele>48</ele>
        <time>2019-10-25T15:05:14.000Z</time>
      </trkpt>
      <trkpt lat="37.97391953878104686737060546875" lon="-1.15825898945331573486328125">
        <ele>49</ele>
        <time>2019-10-25T15:05:18.000Z</time>
      </trkpt>
      <trkpt lat="37.9738966561853885650634765625" lon="-1.1585565470159053802490234375">
        <ele>49</ele>
        <time>2019-10-25T15:05:22.000Z</time>
      </trkpt>
      <trkpt lat="37.97386840917170047760009765625" lon="-1.15878562442958354949951171875">
        <ele>49</ele>
        <time>2019-10-25T15:05:25.000Z</time>
      </trkpt>
      <trkpt lat="37.97386555932462215423583984375" lon="-1.1588613130152225494384765625">
        <ele>49</ele>
        <time>2019-10-25T15:05:26.000Z</time>
      </trkpt>
      <trkpt lat="37.9738529026508331298828125" lon="-1.159092821180820465087890625">
        <ele>49</ele>
        <time>2019-10-25T15:05:29.000Z</time>
      </trkpt>
      <trkpt lat="37.9738279245793819427490234375" lon="-1.15938761271536350250244140625">
        <ele>48.200000762939453125</ele>
        <time>2019-10-25T15:05:33.000Z</time>
      </trkpt>
      <trkpt lat="37.97382247634232044219970703125" lon="-1.1594612896442413330078125">
        <ele>48.40000152587890625</ele>
        <time>2019-10-25T15:05:34.000Z</time>
      </trkpt>
      <trkpt lat="37.9738104902207851409912109375" lon="-1.15974233485758304595947265625">
        <ele>48.59999847412109375</ele>
        <time>2019-10-25T15:05:38.000Z</time>
      </trkpt>
      <trkpt lat="37.97379900701344013214111328125" lon="-1.15993998013436794281005859375">
        <ele>48.200000762939453125</ele>
        <time>2019-10-25T15:05:41.000Z</time>
      </trkpt>
      <trkpt lat="37.97376866452395915985107421875" lon="-1.16016813553869724273681640625">
        <ele>48</ele>
        <time>2019-10-25T15:05:45.000Z</time>
      </trkpt>
      <trkpt lat="37.97373882494866847991943359375" lon="-1.1603948660194873809814453125">
        <ele>47.200000762939453125</ele>
        <time>2019-10-25T15:05:50.000Z</time>
      </trkpt>
      <trkpt lat="37.9737296886742115020751953125" lon="-1.1604468338191509246826171875">
        <ele>47</ele>
        <time>2019-10-25T15:05:52.000Z</time>
      </trkpt>
      <trkpt lat="37.9737105779349803924560546875" lon="-1.1606573872268199920654296875">
        <ele>47</ele>
        <time>2019-10-25T15:05:58.000Z</time>
      </trkpt>
      <trkpt lat="37.97369171865284442901611328125" lon="-1.160819828510284423828125">
        <ele>46.799999237060546875</ele>
        <time>2019-10-25T15:06:01.000Z</time>
      </trkpt>
      <trkpt lat="37.97367244027554988861083984375" lon="-1.16107556037604808807373046875">
        <ele>46.799999237060546875</ele>
        <time>2019-10-25T15:06:05.000Z</time>
      </trkpt>
      <trkpt lat="37.973639331758022308349609375" lon="-1.1613436974585056304931640625">
        <ele>47.40000152587890625</ele>
        <time>2019-10-25T15:06:09.000Z</time>
      </trkpt>
      <trkpt lat="37.9736042954027652740478515625" lon="-1.161626167595386505126953125">
        <ele>48</ele>
        <time>2019-10-25T15:06:13.000Z</time>
      </trkpt>
      <trkpt lat="37.97356900759041309356689453125" lon="-1.16192414425313472747802734375">
        <ele>47.59999847412109375</ele>
        <time>2019-10-25T15:06:17.000Z</time>
      </trkpt>
      <trkpt lat="37.9735456220805644989013671875" lon="-1.1621500365436077117919921875">
        <ele>48</ele>
        <time>2019-10-25T15:06:20.000Z</time>
      </trkpt>
      <trkpt lat="37.97351603396236896514892578125" lon="-1.16244683973491191864013671875">
        <ele>49</ele>
        <time>2019-10-25T15:06:24.000Z</time>
      </trkpt>
      <trkpt lat="37.97349072061479091644287109375" lon="-1.16267633624374866485595703125">
        <ele>49</ele>
        <time>2019-10-25T15:06:27.000Z</time>
      </trkpt>
      <trkpt lat="37.9734624736011028289794921875" lon="-1.16289510391652584075927734375">
        <ele>48.200000762939453125</ele>
        <time>2019-10-25T15:06:30.000Z</time>
      </trkpt>
      <trkpt lat="37.97343925572931766510009765625" lon="-1.16313365288078784942626953125">
        <ele>48</ele>
        <time>2019-10-25T15:06:33.000Z</time>
      </trkpt>
      <trkpt lat="37.9734168760478496551513671875" lon="-1.163376308977603912353515625">
        <ele>48</ele>
        <time>2019-10-25T15:06:36.000Z</time>
      </trkpt>
      <trkpt lat="37.97339801676571369171142578125" lon="-1.16361628286540508270263671875">
        <ele>48.40000152587890625</ele>
        <time>2019-10-25T15:06:39.000Z</time>
      </trkpt>
      <trkpt lat="37.9733706079423427581787109375" lon="-1.1638542450964450836181640625">
        <ele>49.200000762939453125</ele>
        <time>2019-10-25T15:06:42.000Z</time>
      </trkpt>
      <trkpt lat="37.973346970975399017333984375" lon="-1.1640932969748973846435546875">
        <ele>50</ele>
        <time>2019-10-25T15:06:45.000Z</time>
      </trkpt>
      <trkpt lat="37.97332559712231159210205078125" lon="-1.164331845939159393310546875">
        <ele>50.59999847412109375</ele>
        <time>2019-10-25T15:06:48.000Z</time>
      </trkpt>
      <trkpt lat="37.9733025468885898590087890625" lon="-1.164569221436977386474609375">
        <ele>49.200000762939453125</ele>
        <time>2019-10-25T15:06:51.000Z</time>
      </trkpt>
      <trkpt lat="37.9732737131416797637939453125" lon="-1.16479729302227497100830078125">
        <ele>49</ele>
        <time>2019-10-25T15:06:54.000Z</time>
      </trkpt>
      <trkpt lat="37.97324513085186481475830078125" lon="-1.16503248922526836395263671875">
        <ele>48.799999237060546875</ele>
        <time>2019-10-25T15:06:57.000Z</time>
      </trkpt>
      <trkpt lat="37.97321680001914501190185546875" lon="-1.16526382975280284881591796875">
        <ele>49.200000762939453125</ele>
        <time>2019-10-25T15:07:00.000Z</time>
      </trkpt>
      <trkpt lat="37.97319752164185047149658203125" lon="-1.1654907278716564178466796875">
        <ele>50.200000762939453125</ele>
        <time>2019-10-25T15:07:03.000Z</time>
      </trkpt>
      <trkpt lat="37.97318008728325366973876953125" lon="-1.165726594626903533935546875">
        <ele>51</ele>
        <time>2019-10-25T15:07:06.000Z</time>
      </trkpt>
      <trkpt lat="37.97316533513367176055908203125" lon="-1.16595533676445484161376953125">
        <ele>50.799999237060546875</ele>
        <time>2019-10-25T15:07:09.000Z</time>
      </trkpt>
      <trkpt lat="37.97316156327724456787109375" lon="-1.16602909751236438751220703125">
        <ele>50.799999237060546875</ele>
        <time>2019-10-25T15:07:10.000Z</time>
      </trkpt>
      <trkpt lat="37.973151169717311859130859375" lon="-1.1662598513066768646240234375">
        <ele>51.59999847412109375</ele>
        <time>2019-10-25T15:07:13.000Z</time>
      </trkpt>
      <trkpt lat="37.9731332324445247650146484375" lon="-1.16650418378412723541259765625">
        <ele>51</ele>
        <time>2019-10-25T15:07:16.000Z</time>
      </trkpt>
      <trkpt lat="37.97313080169260501861572265625" lon="-1.16658196784555912017822265625">
        <ele>50.799999237060546875</ele>
        <time>2019-10-25T15:07:17.000Z</time>
      </trkpt>
      <trkpt lat="37.97311487607657909393310546875" lon="-1.16681464947760105133056640625">
        <ele>50.40000152587890625</ele>
        <time>2019-10-25T15:07:20.000Z</time>
      </trkpt>
      <trkpt lat="37.97308922745287418365478515625" lon="-1.167113967239856719970703125">
        <ele>51.200000762939453125</ele>
        <time>2019-10-25T15:07:24.000Z</time>
      </trkpt>
      <trkpt lat="37.97305469401180744171142578125" lon="-1.1674105189740657806396484375">
        <ele>52.40000152587890625</ele>
        <time>2019-10-25T15:07:28.000Z</time>
      </trkpt>
      <trkpt lat="37.97302820719778537750244140625" lon="-1.1676435358822345733642578125">
        <ele>51.40000152587890625</ele>
        <time>2019-10-25T15:07:31.000Z</time>
      </trkpt>
      <trkpt lat="37.9729974456131458282470703125" lon="-1.16794385947287082672119140625">
        <ele>50.200000762939453125</ele>
        <time>2019-10-25T15:07:35.000Z</time>
      </trkpt>
      <trkpt lat="37.97298361547291278839111328125" lon="-1.168174110352993011474609375">
        <ele>49.200000762939453125</ele>
        <time>2019-10-25T15:07:38.000Z</time>
      </trkpt>
      <trkpt lat="37.97295930795371532440185546875" lon="-1.16840084083378314971923828125">
        <ele>49</ele>
        <time>2019-10-25T15:07:41.000Z</time>
      </trkpt>
      <trkpt lat="37.97292913310229778289794921875" lon="-1.16869747638702392578125">
        <ele>49</ele>
        <time>2019-10-25T15:07:45.000Z</time>
      </trkpt>
      <trkpt lat="37.9729008860886096954345703125" lon="-1.16892638616263866424560546875">
        <ele>49</ele>
        <time>2019-10-25T15:07:48.000Z</time>
      </trkpt>
      <trkpt lat="37.9728737287223339080810546875" lon="-1.1691579781472682952880859375">
        <ele>49.40000152587890625</ele>
        <time>2019-10-25T15:07:51.000Z</time>
      </trkpt>
      <trkpt lat="37.9728417098522186279296875" lon="-1.16938856430351734161376953125">
        <ele>50.200000762939453125</ele>
        <time>2019-10-25T15:07:54.000Z</time>
      </trkpt>
      <trkpt lat="37.972811870276927947998046875" lon="-1.16968922317028045654296875">
        <ele>50.799999237060546875</ele>
        <time>2019-10-25T15:07:58.000Z</time>
      </trkpt>
      <trkpt lat="37.9727862216532230377197265625" lon="-1.16998401470482349395751953125">
        <ele>52.200000762939453125</ele>
        <time>2019-10-25T15:08:02.000Z</time>
      </trkpt>
      <trkpt lat="37.97276585362851619720458984375" lon="-1.17027570493519306182861328125">
        <ele>53.799999237060546875</ele>
        <time>2019-10-25T15:08:06.000Z</time>
      </trkpt>
      <trkpt lat="37.97273869626224040985107421875" lon="-1.1705376394093036651611328125">
        <ele>54</ele>
        <time>2019-10-25T15:08:10.000Z</time>
      </trkpt>
      <trkpt lat="37.9727178253233432769775390625" lon="-1.170777194201946258544921875">
        <ele>53.200000762939453125</ele>
        <time>2019-10-25T15:08:14.000Z</time>
      </trkpt>
      <trkpt lat="37.97269678674638271331787109375" lon="-1.1709838919341564178466796875">
        <ele>51.799999237060546875</ele>
        <time>2019-10-25T15:08:18.000Z</time>
      </trkpt>
      <trkpt lat="37.97268153168261051177978515625" lon="-1.171131916344165802001953125">
        <ele>51.59999847412109375</ele>
        <time>2019-10-25T15:08:22.000Z</time>
      </trkpt>
      <trkpt lat="37.97267097048461437225341796875" lon="-1.1711691319942474365234375">
        <ele>51.799999237060546875</ele>
        <time>2019-10-25T15:08:24.000Z</time>
      </trkpt>
      <trkpt lat="37.97263450920581817626953125" lon="-1.17141413502395153045654296875">
        <ele>52.40000152587890625</ele>
        <time>2019-10-25T15:08:36.000Z</time>
      </trkpt>
      <trkpt lat="37.97261799685657024383544921875" lon="-1.1716933362185955047607421875">
        <ele>53.799999237060546875</ele>
        <time>2019-10-25T15:08:41.000Z</time>
      </trkpt>
      <trkpt lat="37.9725904203951358795166015625" lon="-1.17193423211574554443359375">
        <ele>54.799999237060546875</ele>
        <time>2019-10-25T15:08:45.000Z</time>
      </trkpt>
      <trkpt lat="37.972586564719676971435546875" lon="-1.17220035754144191741943359375">
        <ele>54.799999237060546875</ele>
        <time>2019-10-25T15:08:49.000Z</time>
      </trkpt>
      <trkpt lat="37.97260098159313201904296875" lon="-1.1724731884896755218505859375">
        <ele>54.59999847412109375</ele>
        <time>2019-10-25T15:08:53.000Z</time>
      </trkpt>
      <trkpt lat="37.9726159013807773590087890625" lon="-1.17274752818048000335693359375">
        <ele>53.799999237060546875</ele>
        <time>2019-10-25T15:08:57.000Z</time>
      </trkpt>
      <trkpt lat="37.97261573374271392822265625" lon="-1.1728859134018421173095703125">
        <ele>53.200000762939453125</ele>
        <time>2019-10-25T15:08:59.000Z</time>
      </trkpt>
      <trkpt lat="37.9726190865039825439453125" lon="-1.17317567579448223114013671875">
        <ele>52.200000762939453125</ele>
        <time>2019-10-25T15:09:03.000Z</time>
      </trkpt>
      <trkpt lat="37.97261497937142848968505859375" lon="-1.17346116341650485992431640625">
        <ele>52</ele>
        <time>2019-10-25T15:09:07.000Z</time>
      </trkpt>
      <trkpt lat="37.97262939624488353729248046875" lon="-1.173748075962066650390625">
        <ele>52.799999237060546875</ele>
        <time>2019-10-25T15:09:11.000Z</time>
      </trkpt>
      <trkpt lat="37.97262243926525115966796875" lon="-1.1738164722919464111328125">
        <ele>53</ele>
        <time>2019-10-25T15:09:12.000Z</time>
      </trkpt>
      <trkpt lat="37.97261011786758899688720703125" lon="-1.1741059832274913787841796875">
        <ele>54</ele>
        <time>2019-10-25T15:09:16.000Z</time>
      </trkpt>
      <trkpt lat="37.9726118780672550201416015625" lon="-1.17418183945119380950927734375">
        <ele>54</ele>
        <time>2019-10-25T15:09:17.000Z</time>
      </trkpt>
      <trkpt lat="37.97261766158044338226318359375" lon="-1.1744801513850688934326171875">
        <ele>53.59999847412109375</ele>
        <time>2019-10-25T15:09:21.000Z</time>
      </trkpt>
      <trkpt lat="37.97262453474104404449462890625" lon="-1.17477603256702423095703125">
        <ele>52.59999847412109375</ele>
        <time>2019-10-25T15:09:25.000Z</time>
      </trkpt>
      <trkpt lat="37.97263409011065959930419921875" lon="-1.175070740282535552978515625">
        <ele>52</ele>
        <time>2019-10-25T15:09:29.000Z</time>
      </trkpt>
      <trkpt lat="37.97265194356441497802734375" lon="-1.175357736647129058837890625">
        <ele>52</ele>
        <time>2019-10-25T15:09:33.000Z</time>
      </trkpt>
      <trkpt lat="37.97265822999179363250732421875" lon="-1.17563392035663127899169921875">
        <ele>51.40000152587890625</ele>
        <time>2019-10-25T15:09:37.000Z</time>
      </trkpt>
      <trkpt lat="37.97266040928661823272705078125" lon="-1.175922341644763946533203125">
        <ele>51.200000762939453125</ele>
        <time>2019-10-25T15:09:41.000Z</time>
      </trkpt>
      <trkpt lat="37.97266543842852115631103515625" lon="-1.17621503770351409912109375">
        <ele>51.799999237060546875</ele>
        <time>2019-10-25T15:09:45.000Z</time>
      </trkpt>
      <trkpt lat="37.9726759158074855804443359375" lon="-1.1765085719525814056396484375">
        <ele>53</ele>
        <time>2019-10-25T15:09:49.000Z</time>
      </trkpt>
      <trkpt lat="37.97267264686524868011474609375" lon="-1.17681006900966167449951171875">
        <ele>53.200000762939453125</ele>
        <time>2019-10-25T15:09:53.000Z</time>
      </trkpt>
      <trkpt lat="37.972675077617168426513671875" lon="-1.17711299099028110504150390625">
        <ele>53.200000762939453125</ele>
        <time>2019-10-25T15:09:57.000Z</time>
      </trkpt>
      <trkpt lat="37.9726853035390377044677734375" lon="-1.17734215222299098968505859375">
        <ele>52.200000762939453125</ele>
        <time>2019-10-25T15:10:00.000Z</time>
      </trkpt>
      <trkpt lat="37.97269946895539760589599609375" lon="-1.17763769812881946563720703125">
        <ele>52</ele>
        <time>2019-10-25T15:10:04.000Z</time>
      </trkpt>
      <trkpt lat="37.97270718030631542205810546875" lon="-1.1779361777007579803466796875">
        <ele>52</ele>
        <time>2019-10-25T15:10:08.000Z</time>
      </trkpt>
      <trkpt lat="37.97270617447793483734130859375" lon="-1.17822057567536830902099609375">
        <ele>52</ele>
        <time>2019-10-25T15:10:12.000Z</time>
      </trkpt>
      <trkpt lat="37.9727210104465484619140625" lon="-1.17851561866700649261474609375">
        <ele>52</ele>
        <time>2019-10-25T15:10:16.000Z</time>
      </trkpt>
      <trkpt lat="37.97273576259613037109375" lon="-1.1788089014589786529541015625">
        <ele>52</ele>
        <time>2019-10-25T15:10:20.000Z</time>
      </trkpt>
      <trkpt lat="37.972749508917331695556640625" lon="-1.179107129573822021484375">
        <ele>52</ele>
        <time>2019-10-25T15:10:24.000Z</time>
      </trkpt>
      <trkpt lat="37.97275478951632976531982421875" lon="-1.179330758750438690185546875">
        <ele>51.59999847412109375</ele>
        <time>2019-10-25T15:10:27.000Z</time>
      </trkpt>
      <trkpt lat="37.97275445424020290374755859375" lon="-1.17962152697145938873291015625">
        <ele>52.59999847412109375</ele>
        <time>2019-10-25T15:10:31.000Z</time>
      </trkpt>
      <trkpt lat="37.9727687872946262359619140625" lon="-1.1799082718789577484130859375">
        <ele>53.59999847412109375</ele>
        <time>2019-10-25T15:10:35.000Z</time>
      </trkpt>
      <trkpt lat="37.97277775593101978302001953125" lon="-1.18018805980682373046875">
        <ele>54.40000152587890625</ele>
        <time>2019-10-25T15:10:39.000Z</time>
      </trkpt>
      <trkpt lat="37.972778342664241790771484375" lon="-1.1804772354662418365478515625">
        <ele>53.40000152587890625</ele>
        <time>2019-10-25T15:10:43.000Z</time>
      </trkpt>
      <trkpt lat="37.97277540899813175201416015625" lon="-1.18076884187757968902587890625">
        <ele>51.799999237060546875</ele>
        <time>2019-10-25T15:10:47.000Z</time>
      </trkpt>
      <trkpt lat="37.97277356497943401336669921875" lon="-1.18105734698474407196044921875">
        <ele>52.799999237060546875</ele>
        <time>2019-10-25T15:10:51.000Z</time>
      </trkpt>
      <trkpt lat="37.972783036530017852783203125" lon="-1.18134032003581523895263671875">
        <ele>54</ele>
        <time>2019-10-25T15:10:55.000Z</time>
      </trkpt>
      <trkpt lat="37.97279049642384052276611328125" lon="-1.18162505328655242919921875">
        <ele>53.799999237060546875</ele>
        <time>2019-10-25T15:10:59.000Z</time>
      </trkpt>
      <trkpt lat="37.97280843369662761688232421875" lon="-1.18191129527986049652099609375">
        <ele>53</ele>
        <time>2019-10-25T15:11:03.000Z</time>
      </trkpt>
      <trkpt lat="37.97282720915973186492919921875" lon="-1.18221371434628963470458984375">
        <ele>54.200000762939453125</ele>
        <time>2019-10-25T15:11:07.000Z</time>
      </trkpt>
      <trkpt lat="37.97283693216741085052490234375" lon="-1.1825150437653064727783203125">
        <ele>55.200000762939453125</ele>
        <time>2019-10-25T15:11:11.000Z</time>
      </trkpt>
      <trkpt lat="37.97283860854804515838623046875" lon="-1.1828161217272281646728515625">
        <ele>56</ele>
        <time>2019-10-25T15:11:15.000Z</time>
      </trkpt>
      <trkpt lat="37.9728489182889461517333984375" lon="-1.1831178702414035797119140625">
        <ele>56.40000152587890625</ele>
        <time>2019-10-25T15:11:19.000Z</time>
      </trkpt>
      <trkpt lat="37.97285419888794422149658203125" lon="-1.18334409780800342559814453125">
        <ele>57</ele>
        <time>2019-10-25T15:11:22.000Z</time>
      </trkpt>
      <trkpt lat="37.97285788692533969879150390625" lon="-1.18364433757960796356201171875">
        <ele>56.40000152587890625</ele>
        <time>2019-10-25T15:11:26.000Z</time>
      </trkpt>
      <trkpt lat="37.97286123968660831451416015625" lon="-1.18387349881231784820556640625">
        <ele>54.799999237060546875</ele>
        <time>2019-10-25T15:11:29.000Z</time>
      </trkpt>
      <trkpt lat="37.972856126725673675537109375" lon="-1.184171140193939208984375">
        <ele>53.799999237060546875</ele>
        <time>2019-10-25T15:11:33.000Z</time>
      </trkpt>
      <trkpt lat="37.972859479486942291259765625" lon="-1.18440792895853519439697265625">
        <ele>54</ele>
        <time>2019-10-25T15:11:37.000Z</time>
      </trkpt>
      <trkpt lat="37.9728633351624011993408203125" lon="-1.18451236747205257415771484375">
        <ele>54</ele>
        <time>2019-10-25T15:11:39.000Z</time>
      </trkpt>
      <trkpt lat="37.972877919673919677734375" lon="-1.1846068315207958221435546875">
        <ele>54</ele>
        <time>2019-10-25T15:11:41.000Z</time>
      </trkpt>
      <trkpt lat="37.97289744950830936431884765625" lon="-1.18485887534916400909423828125">
        <ele>54.799999237060546875</ele>
        <time>2019-10-25T15:11:47.000Z</time>
      </trkpt>
      <trkpt lat="37.97289040870964527130126953125" lon="-1.18509273044764995574951171875">
        <ele>55.59999847412109375</ele>
        <time>2019-10-25T15:11:52.000Z</time>
      </trkpt>
      <trkpt lat="37.9729007184505462646484375" lon="-1.18537737987935543060302734375">
        <ele>56.59999847412109375</ele>
        <time>2019-10-25T15:11:57.000Z</time>
      </trkpt>
      <trkpt lat="37.97290499322116374969482421875" lon="-1.1856243945658206939697265625">
        <ele>57.59999847412109375</ele>
        <time>2019-10-25T15:12:01.000Z</time>
      </trkpt>
      <trkpt lat="37.97290809452533721923828125" lon="-1.18575389496982097625732421875">
        <ele>58</ele>
        <time>2019-10-25T15:12:03.000Z</time>
      </trkpt>
      <trkpt lat="37.97290247865021228790283203125" lon="-1.18601457215845584869384765625">
        <ele>59</ele>
        <time>2019-10-25T15:12:07.000Z</time>
      </trkpt>
      <trkpt lat="37.97290675342082977294921875" lon="-1.18627927266061305999755859375">
        <ele>58</ele>
        <time>2019-10-25T15:12:11.000Z</time>
      </trkpt>
      <trkpt lat="37.9729065857827663421630859375" lon="-1.1865487508475780487060546875">
        <ele>57.200000762939453125</ele>
        <time>2019-10-25T15:12:15.000Z</time>
      </trkpt>
      <trkpt lat="37.9729136265814304351806640625" lon="-1.18682862259447574615478515625">
        <ele>56</ele>
        <time>2019-10-25T15:12:19.000Z</time>
      </trkpt>
      <trkpt lat="37.9729233495891094207763671875" lon="-1.187107823789119720458984375">
        <ele>55.799999237060546875</ele>
        <time>2019-10-25T15:12:23.000Z</time>
      </trkpt>
      <trkpt lat="37.97292443923652172088623046875" lon="-1.18739741854369640350341796875">
        <ele>56</ele>
        <time>2019-10-25T15:12:27.000Z</time>
      </trkpt>
      <trkpt lat="37.97294405288994312286376953125" lon="-1.18769162334501743316650390625">
        <ele>56.799999237060546875</ele>
        <time>2019-10-25T15:12:31.000Z</time>
      </trkpt>
      <trkpt lat="37.97295193187892436981201171875" lon="-1.18792028166353702545166015625">
        <ele>57.59999847412109375</ele>
        <time>2019-10-25T15:12:34.000Z</time>
      </trkpt>
      <trkpt lat="37.97295369207859039306640625" lon="-1.188218928873538970947265625">
        <ele>57.799999237060546875</ele>
        <time>2019-10-25T15:12:38.000Z</time>
      </trkpt>
      <trkpt lat="37.97296768985688686370849609375" lon="-1.1885184980928897857666015625">
        <ele>57</ele>
        <time>2019-10-25T15:12:42.000Z</time>
      </trkpt>
      <trkpt lat="37.97297556884586811065673828125" lon="-1.1886680312454700469970703125">
        <ele>56.40000152587890625</ele>
        <time>2019-10-25T15:12:44.000Z</time>
      </trkpt>
      <trkpt lat="37.97299115918576717376708984375" lon="-1.18896198458969593048095703125">
        <ele>56.59999847412109375</ele>
        <time>2019-10-25T15:12:48.000Z</time>
      </trkpt>
      <trkpt lat="37.972994260489940643310546875" lon="-1.18910573422908782958984375">
        <ele>56.40000152587890625</ele>
        <time>2019-10-25T15:12:50.000Z</time>
      </trkpt>
      <trkpt lat="37.9730026423931121826171875" lon="-1.189256943762302398681640625">
        <ele>56.40000152587890625</ele>
        <time>2019-10-25T15:12:52.000Z</time>
      </trkpt>
      <trkpt lat="37.97301747836172580718994140625" lon="-1.1894844286143779754638671875">
        <ele>56</ele>
        <time>2019-10-25T15:12:55.000Z</time>
      </trkpt>
      <trkpt lat="37.9730182327330112457275390625" lon="-1.18971459567546844482421875">
        <ele>56</ele>
        <time>2019-10-25T15:12:58.000Z</time>
      </trkpt>
      <trkpt lat="37.9730326496064662933349609375" lon="-1.19000234641134738922119140625">
        <ele>56</ele>
        <time>2019-10-25T15:13:02.000Z</time>
      </trkpt>
      <trkpt lat="37.97303508035838603973388671875" lon="-1.1902528814971446990966796875">
        <ele>56.200000762939453125</ele>
        <time>2019-10-25T15:13:06.000Z</time>
      </trkpt>
      <trkpt lat="37.97303927130997180938720703125" lon="-1.19036427699029445648193359375">
        <ele>56.59999847412109375</ele>
        <time>2019-10-25T15:13:08.000Z</time>
      </trkpt>
      <trkpt lat="37.973052598536014556884765625" lon="-1.19047391228377819061279296875">
        <ele>57</ele>
        <time>2019-10-25T15:13:10.000Z</time>
      </trkpt>
      <trkpt lat="37.97305117361247539520263671875" lon="-1.19072637520730495452880859375">
        <ele>57.40000152587890625</ele>
        <time>2019-10-25T15:13:15.000Z</time>
      </trkpt>
      <trkpt lat="37.97305201180279254913330078125" lon="-1.190774738788604736328125">
        <ele>57.59999847412109375</ele>
        <time>2019-10-25T15:13:16.000Z</time>
      </trkpt>
      <trkpt lat="37.9730437137186527252197265625" lon="-1.19103248231112957000732421875">
        <ele>57.40000152587890625</ele>
        <time>2019-10-25T15:13:21.000Z</time>
      </trkpt>
      <trkpt lat="37.97304891049861907958984375" lon="-1.191273964941501617431640625">
        <ele>57.200000762939453125</ele>
        <time>2019-10-25T15:13:25.000Z</time>
      </trkpt>
      <trkpt lat="37.9730534367263317108154296875" lon="-1.1915413476526737213134765625">
        <ele>56.59999847412109375</ele>
        <time>2019-10-25T15:13:29.000Z</time>
      </trkpt>
      <trkpt lat="37.9730616509914398193359375" lon="-1.19182256050407886505126953125">
        <ele>55.59999847412109375</ele>
        <time>2019-10-25T15:13:33.000Z</time>
      </trkpt>
      <trkpt lat="37.97307481057941913604736328125" lon="-1.1921166814863681793212890625">
        <ele>56.59999847412109375</ele>
        <time>2019-10-25T15:13:37.000Z</time>
      </trkpt>
      <trkpt lat="37.9730745591223239898681640625" lon="-1.1924120597541332244873046875">
        <ele>58</ele>
        <time>2019-10-25T15:13:41.000Z</time>
      </trkpt>
      <trkpt lat="37.973082102835178375244140625" lon="-1.19271003641188144683837890625">
        <ele>58.40000152587890625</ele>
        <time>2019-10-25T15:13:45.000Z</time>
      </trkpt>
      <trkpt lat="37.973082102835178375244140625" lon="-1.19300709106028079986572265625">
        <ele>58.200000762939453125</ele>
        <time>2019-10-25T15:13:49.000Z</time>
      </trkpt>
      <trkpt lat="37.97308620996773242950439453125" lon="-1.19330515153706073760986328125">
        <ele>58</ele>
        <time>2019-10-25T15:13:53.000Z</time>
      </trkpt>
      <trkpt lat="37.97309023328125476837158203125" lon="-1.19360304437577724456787109375">
        <ele>58</ele>
        <time>2019-10-25T15:13:57.000Z</time>
      </trkpt>
      <trkpt lat="37.97309626825153827667236328125" lon="-1.1938349716365337371826171875">
        <ele>58.59999847412109375</ele>
        <time>2019-10-25T15:14:00.000Z</time>
      </trkpt>
      <trkpt lat="37.9731027223169803619384765625" lon="-1.19412221945822238922119140625">
        <ele>58.59999847412109375</ele>
        <time>2019-10-25T15:14:04.000Z</time>
      </trkpt>
      <trkpt lat="37.97309744171798229217529296875" lon="-1.19418994523584842681884765625">
        <ele>58.59999847412109375</ele>
        <time>2019-10-25T15:14:05.000Z</time>
      </trkpt>
      <trkpt lat="37.973113618791103363037109375" lon="-1.194445677101612091064453125">
        <ele>58.799999237060546875</ele>
        <time>2019-10-25T15:14:09.000Z</time>
      </trkpt>
      <trkpt lat="37.97312225215137004852294921875" lon="-1.194542236626148223876953125">
        <ele>58.799999237060546875</ele>
        <time>2019-10-25T15:14:11.000Z</time>
      </trkpt>
      <trkpt lat="37.97312493436038494110107421875" lon="-1.19468749500811100006103515625">
        <ele>58.799999237060546875</ele>
        <time>2019-10-25T15:14:15.000Z</time>
      </trkpt>
      <trkpt lat="37.97312409617006778717041015625" lon="-1.1947296559810638427734375">
        <ele>58.799999237060546875</ele>
        <time>2019-10-25T15:14:17.000Z</time>
      </trkpt>
      <trkpt lat="37.97313331626355648040771484375" lon="-1.19475924409925937652587890625">
        <ele>58.799999237060546875</ele>
        <time>2019-10-25T15:14:19.000Z</time>
      </trkpt>
      <trkpt lat="37.97314471565186977386474609375" lon="-1.1948599107563495635986328125">
        <ele>58.799999237060546875</ele>
        <time>2019-10-25T15:14:24.000Z</time>
      </trkpt>
      <trkpt lat="37.9731630720198154449462890625" lon="-1.19501874782145023345947265625">
        <ele>59</ele>
        <time>2019-10-25T15:14:28.000Z</time>
      </trkpt>
      <trkpt lat="37.97315041534602642059326171875" lon="-1.19528981857001781463623046875">
        <ele>58.59999847412109375</ele>
        <time>2019-10-25T15:14:33.000Z</time>
      </trkpt>
      <trkpt lat="37.97314404509961605072021484375" lon="-1.1953494139015674591064453125">
        <ele>58.200000762939453125</ele>
        <time>2019-10-25T15:14:34.000Z</time>
      </trkpt>
      <trkpt lat="37.973152510821819305419921875" lon="-1.1956147849559783935546875">
        <ele>58</ele>
        <time>2019-10-25T15:14:38.000Z</time>
      </trkpt>
      <trkpt lat="37.9731600545346736907958984375" lon="-1.195900440216064453125">
        <ele>58</ele>
        <time>2019-10-25T15:14:42.000Z</time>
      </trkpt>
      <trkpt lat="37.97316826879978179931640625" lon="-1.196187436580657958984375">
        <ele>58</ele>
        <time>2019-10-25T15:14:46.000Z</time>
      </trkpt>
      <trkpt lat="37.97317120246589183807373046875" lon="-1.19648759253323078155517578125">
        <ele>58.59999847412109375</ele>
        <time>2019-10-25T15:14:50.000Z</time>
      </trkpt>
      <trkpt lat="37.973174639046192169189453125" lon="-1.19678531773388385772705078125">
        <ele>59</ele>
        <time>2019-10-25T15:14:54.000Z</time>
      </trkpt>
      <trkpt lat="37.973175309598445892333984375" lon="-1.19708404876291751861572265625">
        <ele>59.799999237060546875</ele>
        <time>2019-10-25T15:14:58.000Z</time>
      </trkpt>
      <trkpt lat="37.97317841090261936187744140625" lon="-1.19738898240029811859130859375">
        <ele>60</ele>
        <time>2019-10-25T15:15:02.000Z</time>
      </trkpt>
      <trkpt lat="37.97318042255938053131103515625" lon="-1.1975468136370182037353515625">
        <ele>59.59999847412109375</ele>
        <time>2019-10-25T15:15:04.000Z</time>
      </trkpt>
      <trkpt lat="37.97319182194769382476806640625" lon="-1.19778779335319995880126953125">
        <ele>58.59999847412109375</ele>
        <time>2019-10-25T15:15:07.000Z</time>
      </trkpt>
      <trkpt lat="37.973201461136341094970703125" lon="-1.19803204201161861419677734375">
        <ele>58</ele>
        <time>2019-10-25T15:15:10.000Z</time>
      </trkpt>
      <trkpt lat="37.97320640645921230316162109375" lon="-1.19827075861394405364990234375">
        <ele>58</ele>
        <time>2019-10-25T15:15:13.000Z</time>
      </trkpt>
      <trkpt lat="37.97320808283984661102294921875" lon="-1.19850427843630313873291015625">
        <ele>58</ele>
        <time>2019-10-25T15:15:16.000Z</time>
      </trkpt>
      <trkpt lat="37.9732204042375087738037109375" lon="-1.1988079547882080078125">
        <ele>56</ele>
        <time>2019-10-25T15:15:20.000Z</time>
      </trkpt>
      <trkpt lat="37.9732237569987773895263671875" lon="-1.19903770275413990020751953125">
        <ele>55.200000762939453125</ele>
        <time>2019-10-25T15:15:23.000Z</time>
      </trkpt>
      <trkpt lat="37.97322233207523822784423828125" lon="-1.19933509267866611480712890625">
        <ele>55</ele>
        <time>2019-10-25T15:15:27.000Z</time>
      </trkpt>
      <trkpt lat="37.97322803176939487457275390625" lon="-1.1995685286819934844970703125">
        <ele>56.40000152587890625</ele>
        <time>2019-10-25T15:15:30.000Z</time>
      </trkpt>
      <trkpt lat="37.9732304625213146209716796875" lon="-1.1998043954372406005859375">
        <ele>57.40000152587890625</ele>
        <time>2019-10-25T15:15:33.000Z</time>
      </trkpt>
      <trkpt lat="37.97323088161647319793701171875" lon="-1.20004051364958286285400390625">
        <ele>59</ele>
        <time>2019-10-25T15:15:36.000Z</time>
      </trkpt>
      <trkpt lat="37.97323725186288356781005859375" lon="-1.2002796493470668792724609375">
        <ele>60.40000152587890625</ele>
        <time>2019-10-25T15:15:39.000Z</time>
      </trkpt>
      <trkpt lat="37.97324446029961109161376953125" lon="-1.20051576755940914154052734375">
        <ele>61.200000762939453125</ele>
        <time>2019-10-25T15:15:42.000Z</time>
      </trkpt>
      <trkpt lat="37.97325317747890949249267578125" lon="-1.200749538838863372802734375">
        <ele>61.200000762939453125</ele>
        <time>2019-10-25T15:15:45.000Z</time>
      </trkpt>
      <trkpt lat="37.97325988300144672393798828125" lon="-1.2010527960956096649169921875">
        <ele>59.59999847412109375</ele>
        <time>2019-10-25T15:15:49.000Z</time>
      </trkpt>
      <trkpt lat="37.97326558269560337066650390625" lon="-1.20128287933766841888427734375">
        <ele>58.40000152587890625</ele>
        <time>2019-10-25T15:15:52.000Z</time>
      </trkpt>
      <trkpt lat="37.97327220439910888671875" lon="-1.2015795148909091949462890625">
        <ele>56.40000152587890625</ele>
        <time>2019-10-25T15:15:56.000Z</time>
      </trkpt>
      <trkpt lat="37.97327823936939239501953125" lon="-1.2017847038805484771728515625">
        <ele>57</ele>
        <time>2019-10-25T15:15:59.000Z</time>
      </trkpt>
      <trkpt lat="37.9732911475002765655517578125" lon="-1.2020494043827056884765625">
        <ele>57</ele>
        <time>2019-10-25T15:16:03.000Z</time>
      </trkpt>
      <trkpt lat="37.973289303481578826904296875" lon="-1.20231905020773410797119140625">
        <ele>58</ele>
        <time>2019-10-25T15:16:07.000Z</time>
      </trkpt>
      <trkpt lat="37.97328469343483448028564453125" lon="-1.20259649120271205902099609375">
        <ele>58.59999847412109375</ele>
        <time>2019-10-25T15:16:11.000Z</time>
      </trkpt>
      <trkpt lat="37.973286621272563934326171875" lon="-1.202883906662464141845703125">
        <ele>59.40000152587890625</ele>
        <time>2019-10-25T15:16:15.000Z</time>
      </trkpt>
      <trkpt lat="37.97328536398708820343017578125" lon="-1.20309990830719470977783203125">
        <ele>59.799999237060546875</ele>
        <time>2019-10-25T15:16:18.000Z</time>
      </trkpt>
      <trkpt lat="37.9732820950448513031005859375" lon="-1.20323871262371540069580078125">
        <ele>59.40000152587890625</ele>
        <time>2019-10-25T15:16:20.000Z</time>
      </trkpt>
      <trkpt lat="37.97329005785286426544189453125" lon="-1.203474663197994232177734375">
        <ele>58.59999847412109375</ele>
        <time>2019-10-25T15:16:24.000Z</time>
      </trkpt>
      <trkpt lat="37.97329558990895748138427734375" lon="-1.2035187520086765289306640625">
        <ele>58.40000152587890625</ele>
        <time>2019-10-25T15:16:25.000Z</time>
      </trkpt>
      <trkpt lat="37.97330665402114391326904296875" lon="-1.2036263756453990936279296875">
        <ele>58.40000152587890625</ele>
        <time>2019-10-25T15:16:29.000Z</time>
      </trkpt>
      <trkpt lat="37.97335627488791942596435546875" lon="-1.20382511056959629058837890625">
        <ele>57.40000152587890625</ele>
        <time>2019-10-25T15:16:34.000Z</time>
      </trkpt>
      <trkpt lat="37.9733930714428424835205078125" lon="-1.2039395235478878021240234375">
        <ele>57.200000762939453125</ele>
        <time>2019-10-25T15:16:36.000Z</time>
      </trkpt>
      <trkpt lat="37.97338980250060558319091796875" lon="-1.20418972335755825042724609375">
        <ele>56.799999237060546875</ele>
        <time>2019-10-25T15:16:40.000Z</time>
      </trkpt>
      <trkpt lat="37.97333666123449802398681640625" lon="-1.2044565193355083465576171875">
        <ele>56.40000152587890625</ele>
        <time>2019-10-25T15:16:44.000Z</time>
      </trkpt>
      <trkpt lat="37.97336004674434661865234375" lon="-1.204749047756195068359375">
        <ele>57.40000152587890625</ele>
        <time>2019-10-25T15:16:48.000Z</time>
      </trkpt>
      <trkpt lat="37.97338879667222499847412109375" lon="-1.20502808131277561187744140625">
        <ele>58.200000762939453125</ele>
        <time>2019-10-25T15:16:52.000Z</time>
      </trkpt>
      <trkpt lat="37.973406314849853515625" lon="-1.20509077794849872589111328125">
        <ele>58.40000152587890625</ele>
        <time>2019-10-25T15:16:53.000Z</time>
      </trkpt>
      <trkpt lat="37.97356112860143184661865234375" lon="-1.20531876571476459503173828125">
        <ele>59</ele>
        <time>2019-10-25T15:16:57.000Z</time>
      </trkpt>
      <trkpt lat="37.97356347553431987762451171875" lon="-1.2055820412933826446533203125">
        <ele>59.799999237060546875</ele>
        <time>2019-10-25T15:17:01.000Z</time>
      </trkpt>
      <trkpt lat="37.9734319634735584259033203125" lon="-1.20567734353244304656982421875">
        <ele>60.40000152587890625</ele>
        <time>2019-10-25T15:17:04.000Z</time>
      </trkpt>
      <trkpt lat="37.97339625656604766845703125" lon="-1.20570668019354343414306640625">
        <ele>60.59999847412109375</ele>
        <time>2019-10-25T15:17:05.000Z</time>
      </trkpt>
      <trkpt lat="37.9733592085540294647216796875" lon="-1.20597842149436473846435546875">
        <ele>62.59999847412109375</ele>
        <time>2019-10-25T15:17:10.000Z</time>
      </trkpt>
      <trkpt lat="37.97337890602648258209228515625" lon="-1.20626793242990970611572265625">
        <ele>63.59999847412109375</ele>
        <time>2019-10-25T15:17:14.000Z</time>
      </trkpt>
      <trkpt lat="37.97337773256003856658935546875" lon="-1.20634202845394611358642578125">
        <ele>63.59999847412109375</ele>
        <time>2019-10-25T15:17:15.000Z</time>
      </trkpt>
      <trkpt lat="37.973377816379070281982421875" lon="-1.2066244147717952728271484375">
        <ele>63.200000762939453125</ele>
        <time>2019-10-25T15:17:19.000Z</time>
      </trkpt>
      <trkpt lat="37.97338158823549747467041015625" lon="-1.206912584602832794189453125">
        <ele>60.799999237060546875</ele>
        <time>2019-10-25T15:17:23.000Z</time>
      </trkpt>
      <trkpt lat="37.973385192453861236572265625" lon="-1.20719899423420429229736328125">
        <ele>60.40000152587890625</ele>
        <time>2019-10-25T15:17:27.000Z</time>
      </trkpt>
      <trkpt lat="37.9733934067189693450927734375" lon="-1.20727795176208019256591796875">
        <ele>60.59999847412109375</ele>
        <time>2019-10-25T15:17:28.000Z</time>
      </trkpt>
      <trkpt lat="37.97339986078441143035888671875" lon="-1.2075745873153209686279296875">
        <ele>61.59999847412109375</ele>
        <time>2019-10-25T15:17:32.000Z</time>
      </trkpt>
      <trkpt lat="37.9733934067189693450927734375" lon="-1.20764524675905704498291015625">
        <ele>62.200000762939453125</ele>
        <time>2019-10-25T15:17:33.000Z</time>
      </trkpt>
      <trkpt lat="37.973366416990756988525390625" lon="-1.20777432806789875030517578125">
        <ele>63</ele>
        <time>2019-10-25T15:17:35.000Z</time>
      </trkpt>
      <trkpt lat="37.97326348721981048583984375" lon="-1.2080226838588714599609375">
        <ele>65</ele>
        <time>2019-10-25T15:17:39.000Z</time>
      </trkpt>
      <trkpt lat="37.9731260240077972412109375" lon="-1.20823985897004604339599609375">
        <ele>67</ele>
        <time>2019-10-25T15:17:43.000Z</time>
      </trkpt>
      <trkpt lat="37.97300708480179309844970703125" lon="-1.20846147648990154266357421875">
        <ele>67.8000030517578125</ele>
        <time>2019-10-25T15:17:47.000Z</time>
      </trkpt>
      <trkpt lat="37.9728968627750873565673828125" lon="-1.20870773680508136749267578125">
        <ele>68</ele>
        <time>2019-10-25T15:17:51.000Z</time>
      </trkpt>
      <trkpt lat="37.97274976037442684173583984375" lon="-1.20886556804180145263671875">
        <ele>69</ele>
        <time>2019-10-25T15:17:55.000Z</time>
      </trkpt>
      <trkpt lat="37.97262084670364856719970703125" lon="-1.2090776301920413970947265625">
        <ele>69</ele>
        <time>2019-10-25T15:17:59.000Z</time>
      </trkpt>
      <trkpt lat="37.97246695496141910552978515625" lon="-1.20927393436431884765625">
        <ele>70.1999969482421875</ele>
        <time>2019-10-25T15:18:03.000Z</time>
      </trkpt>
      <trkpt lat="37.972325049340724945068359375" lon="-1.209469400346279144287109375">
        <ele>71.40000152587890625</ele>
        <time>2019-10-25T15:18:07.000Z</time>
      </trkpt>
      <trkpt lat="37.97226193360984325408935546875" lon="-1.2095520459115505218505859375">
        <ele>71.59999847412109375</ele>
        <time>2019-10-25T15:18:09.000Z</time>
      </trkpt>
      <trkpt lat="37.972197644412517547607421875" lon="-1.20962454937398433685302734375">
        <ele>72</ele>
        <time>2019-10-25T15:18:11.000Z</time>
      </trkpt>
      <trkpt lat="37.9720516316592693328857421875" lon="-1.20983007363975048065185546875">
        <ele>72.59999847412109375</ele>
        <time>2019-10-25T15:18:16.000Z</time>
      </trkpt>
      <trkpt lat="37.9719416610896587371826171875" lon="-1.210000477731227874755859375">
        <ele>72.40000152587890625</ele>
        <time>2019-10-25T15:18:20.000Z</time>
      </trkpt>
      <trkpt lat="37.97184451483190059661865234375" lon="-1.21021698229014873504638671875">
        <ele>72</ele>
        <time>2019-10-25T15:18:25.000Z</time>
      </trkpt>
      <trkpt lat="37.97171979211270809173583984375" lon="-1.2103922478854656219482421875">
        <ele>72</ele>
        <time>2019-10-25T15:18:30.000Z</time>
      </trkpt>
      <trkpt lat="37.97167696058750152587890625" lon="-1.21046927757561206817626953125">
        <ele>72</ele>
        <time>2019-10-25T15:18:32.000Z</time>
      </trkpt>
      <trkpt lat="37.97158316709101200103759765625" lon="-1.21060607023537158966064453125">
        <ele>72.40000152587890625</ele>
        <time>2019-10-25T15:18:37.000Z</time>
      </trkpt>
      <trkpt lat="37.97149549238383769989013671875" lon="-1.2107131071388721466064453125">
        <ele>72.8000030517578125</ele>
        <time>2019-10-25T15:18:42.000Z</time>
      </trkpt>
      <trkpt lat="37.97138191759586334228515625" lon="-1.21075174771249294281005859375">
        <ele>73</ele>
        <time>2019-10-25T15:18:46.000Z</time>
      </trkpt>
      <trkpt lat="37.9712734557688236236572265625" lon="-1.2108435295522212982177734375">
        <ele>73.40000152587890625</ele>
        <time>2019-10-25T15:18:50.000Z</time>
      </trkpt>
      <trkpt lat="37.97118955291807651519775390625" lon="-1.21109104715287685394287109375">
        <ele>74</ele>
        <time>2019-10-25T15:18:55.000Z</time>
      </trkpt>
      <trkpt lat="37.971054352819919586181640625" lon="-1.211318112909793853759765625">
        <ele>74</ele>
        <time>2019-10-25T15:19:00.000Z</time>
      </trkpt>
      <trkpt lat="37.9709480702877044677734375" lon="-1.211530007421970367431640625">
        <ele>74</ele>
        <time>2019-10-25T15:19:04.000Z</time>
      </trkpt>
      <trkpt lat="37.970867268741130828857421875" lon="-1.21173813007771968841552734375">
        <ele>74</ele>
        <time>2019-10-25T15:19:08.000Z</time>
      </trkpt>
      <trkpt lat="37.97078990377485752105712890625" lon="-1.2119599990546703338623046875">
        <ele>73.59999847412109375</ele>
        <time>2019-10-25T15:19:12.000Z</time>
      </trkpt>
      <trkpt lat="37.97070289961993694305419921875" lon="-1.21217365376651287078857421875">
        <ele>73</ele>
        <time>2019-10-25T15:19:16.000Z</time>
      </trkpt>
      <trkpt lat="37.97067238949239253997802734375" lon="-1.21221925131976604461669921875">
        <ele>73</ele>
        <time>2019-10-25T15:19:17.000Z</time>
      </trkpt>
      <trkpt lat="37.9705452360212802886962890625" lon="-1.2124414555728435516357421875">
        <ele>72.40000152587890625</ele>
        <time>2019-10-25T15:19:22.000Z</time>
      </trkpt>
      <trkpt lat="37.9704644344747066497802734375" lon="-1.2125755660235881805419921875">
        <ele>71.59999847412109375</ele>
        <time>2019-10-25T15:19:26.000Z</time>
      </trkpt>
      <trkpt lat="37.9704218544065952301025390625" lon="-1.2126771546900272369384765625">
        <ele>71.1999969482421875</ele>
        <time>2019-10-25T15:19:29.000Z</time>
      </trkpt>
      <trkpt lat="37.97030542977154254913330078125" lon="-1.21287186630070209503173828125">
        <ele>71</ele>
        <time>2019-10-25T15:19:34.000Z</time>
      </trkpt>
      <trkpt lat="37.9702300764620304107666015625" lon="-1.21306230314075946807861328125">
        <ele>71</ele>
        <time>2019-10-25T15:19:38.000Z</time>
      </trkpt>
      <trkpt lat="37.97014634124934673309326171875" lon="-1.2132447771728038787841796875">
        <ele>71</ele>
        <time>2019-10-25T15:19:42.000Z</time>
      </trkpt>
      <trkpt lat="37.97008163295686244964599609375" lon="-1.21337913908064365386962890625">
        <ele>71.1999969482421875</ele>
        <time>2019-10-25T15:19:45.000Z</time>
      </trkpt>
      <trkpt lat="37.970025725662708282470703125" lon="-1.2134798057377338409423828125">
        <ele>71.40000152587890625</ele>
        <time>2019-10-25T15:19:49.000Z</time>
      </trkpt>
      <trkpt lat="37.96989823691546916961669921875" lon="-1.2136930413544178009033203125">
        <ele>73</ele>
        <time>2019-10-25T15:19:55.000Z</time>
      </trkpt>
      <trkpt lat="37.96977996826171875" lon="-1.2139310874044895172119140625">
        <ele>74</ele>
        <time>2019-10-25T15:20:00.000Z</time>
      </trkpt>
      <trkpt lat="37.96970813535153865814208984375" lon="-1.21417424641549587249755859375">
        <ele>74</ele>
        <time>2019-10-25T15:20:04.000Z</time>
      </trkpt>
      <trkpt lat="37.96959548257291316986083984375" lon="-1.21439552865922451019287109375">
        <ele>73.8000030517578125</ele>
        <time>2019-10-25T15:20:08.000Z</time>
      </trkpt>
      <trkpt lat="37.96946791000664234161376953125" lon="-1.21458529494702816009521484375">
        <ele>72.40000152587890625</ele>
        <time>2019-10-25T15:20:12.000Z</time>
      </trkpt>
      <trkpt lat="37.96945919282734394073486328125" lon="-1.21468654833734035491943359375">
        <ele>72</ele>
        <time>2019-10-25T15:20:13.000Z</time>
      </trkpt>
      <trkpt lat="37.96942926943302154541015625" lon="-1.21487514115869998931884765625">
        <ele>71</ele>
        <time>2019-10-25T15:20:17.000Z</time>
      </trkpt>
      <trkpt lat="37.969332039356231689453125" lon="-1.215069182217121124267578125">
        <ele>71.59999847412109375</ele>
        <time>2019-10-25T15:20:25.000Z</time>
      </trkpt>
      <trkpt lat="37.96930345706641674041748046875" lon="-1.21513380669057369232177734375">
        <ele>72</ele>
        <time>2019-10-25T15:20:27.000Z</time>
      </trkpt>
      <trkpt lat="37.9692742042243480682373046875" lon="-1.21539096347987651824951171875">
        <ele>74</ele>
        <time>2019-10-25T15:20:33.000Z</time>
      </trkpt>
      <trkpt lat="37.96938501298427581787109375" lon="-1.2155960686504840850830078125">
        <ele>75.1999969482421875</ele>
        <time>2019-10-25T15:20:38.000Z</time>
      </trkpt>
      <trkpt lat="37.96952390111982822418212890625" lon="-1.2157965637743473052978515625">
        <ele>76.40000152587890625</ele>
        <time>2019-10-25T15:20:43.000Z</time>
      </trkpt>
      <trkpt lat="37.96963504515588283538818359375" lon="-1.2160222046077251434326171875">
        <ele>76.8000030517578125</ele>
        <time>2019-10-25T15:20:48.000Z</time>
      </trkpt>
      <trkpt lat="37.9697196185588836669921875" lon="-1.2162294052541255950927734375">
        <ele>77</ele>
        <time>2019-10-25T15:20:53.000Z</time>
      </trkpt>
      <trkpt lat="37.969774939119815826416015625" lon="-1.21646150015294551849365234375">
        <ele>77</ele>
        <time>2019-10-25T15:21:04.000Z</time>
      </trkpt>
      <trkpt lat="37.96977720223367214202880859375" lon="-1.21652017347514629364013671875">
        <ele>77</ele>
        <time>2019-10-25T15:21:10.000Z</time>
      </trkpt>
      <trkpt lat="37.96990158967673778533935546875" lon="-1.216711699962615966796875">
        <ele>76.59999847412109375</ele>
        <time>2019-10-25T15:21:16.000Z</time>
      </trkpt>
      <trkpt lat="37.96995037235319614410400390625" lon="-1.21678638271987438201904296875">
        <ele>76.1999969482421875</ele>
        <time>2019-10-25T15:21:19.000Z</time>
      </trkpt>
      <trkpt lat="37.97000594437122344970703125" lon="-1.21681203134357929229736328125">
        <ele>75.59999847412109375</ele>
        <time>2019-10-25T15:21:25.000Z</time>
      </trkpt>
      <trkpt lat="37.9700711555778980255126953125" lon="-1.21706734411418437957763671875">
        <ele>75.1999969482421875</ele>
        <time>2019-10-25T15:21:51.000Z</time>
      </trkpt>
      <trkpt lat="37.9700225405395030975341796875" lon="-1.2173056416213512420654296875">
        <ele>76.59999847412109375</ele>
        <time>2019-10-25T15:21:57.000Z</time>
      </trkpt>
      <trkpt lat="37.96999764628708362579345703125" lon="-1.21753505431115627288818359375">
        <ele>76.59999847412109375</ele>
        <time>2019-10-25T15:22:02.000Z</time>
      </trkpt>
      <trkpt lat="37.96995925717055797576904296875" lon="-1.2177730165421962738037109375">
        <ele>75.8000030517578125</ele>
        <time>2019-10-25T15:22:07.000Z</time>
      </trkpt>
      <trkpt lat="37.9699243046343326568603515625" lon="-1.217999160289764404296875">
        <ele>74.59999847412109375</ele>
        <time>2019-10-25T15:22:12.000Z</time>
      </trkpt>
      <trkpt lat="37.969903685152530670166015625" lon="-1.2182554788887500762939453125">
        <ele>74</ele>
        <time>2019-10-25T15:22:20.000Z</time>
      </trkpt>
      <trkpt lat="37.9698518849909305572509765625" lon="-1.218486987054347991943359375">
        <ele>74</ele>
        <time>2019-10-25T15:22:26.000Z</time>
      </trkpt>
      <trkpt lat="37.96974484808743000030517578125" lon="-1.2186923436820507049560546875">
        <ele>75.40000152587890625</ele>
        <time>2019-10-25T15:22:32.000Z</time>
      </trkpt>
      <trkpt lat="37.969640828669071197509765625" lon="-1.21866610832512378692626953125">
        <ele>76</ele>
        <time>2019-10-25T15:22:36.000Z</time>
      </trkpt>
      <trkpt lat="37.96945751644670963287353515625" lon="-1.21859821490943431854248046875">
        <ele>75.8000030517578125</ele>
        <time>2019-10-25T15:22:42.000Z</time>
      </trkpt>
      <trkpt lat="37.96925651840865612030029296875" lon="-1.2186873145401477813720703125">
        <ele>75</ele>
        <time>2019-10-25T15:22:50.000Z</time>
      </trkpt>
      <trkpt lat="37.96919298358261585235595703125" lon="-1.218905746936798095703125">
        <ele>73.8000030517578125</ele>
        <time>2019-10-25T15:22:55.000Z</time>
      </trkpt>
      <trkpt lat="37.96918443404138088226318359375" lon="-1.21894740499556064605712890625">
        <ele>73.59999847412109375</ele>
        <time>2019-10-25T15:22:56.000Z</time>
      </trkpt>
      <trkpt lat="37.9691684246063232421875" lon="-1.21919500641524791717529296875">
        <ele>73.8000030517578125</ele>
        <time>2019-10-25T15:23:02.000Z</time>
      </trkpt>
      <trkpt lat="37.96910463832318782806396484375" lon="-1.21943657286465167999267578125">
        <ele>75</ele>
        <time>2019-10-25T15:23:08.000Z</time>
      </trkpt>
      <trkpt lat="37.969080246984958648681640625" lon="-1.2196894548833370208740234375">
        <ele>77.40000152587890625</ele>
        <time>2019-10-25T15:23:14.000Z</time>
      </trkpt>
      <trkpt lat="37.969074547290802001953125" lon="-1.21972826309502124786376953125">
        <ele>78</ele>
        <time>2019-10-25T15:23:15.000Z</time>
      </trkpt>
      <trkpt lat="37.9690143652260303497314453125" lon="-1.21998064219951629638671875">
        <ele>80.1999969482421875</ele>
        <time>2019-10-25T15:23:22.000Z</time>
      </trkpt>
      <trkpt lat="37.9689873754978179931640625" lon="-1.220220364630222320556640625">
        <ele>81</ele>
        <time>2019-10-25T15:23:28.000Z</time>
      </trkpt>
      <trkpt lat="37.96895879320800304412841796875" lon="-1.2204766832292079925537109375">
        <ele>80.1999969482421875</ele>
        <time>2019-10-25T15:23:34.000Z</time>
      </trkpt>
      <trkpt lat="37.96895317733287811279296875" lon="-1.22073325328528881072998046875">
        <ele>80.1999969482421875</ele>
        <time>2019-10-25T15:23:40.000Z</time>
      </trkpt>
      <trkpt lat="37.96896968968212604522705078125" lon="-1.22096660546958446502685546875">
        <ele>81.1999969482421875</ele>
        <time>2019-10-25T15:23:47.000Z</time>
      </trkpt>
      <trkpt lat="37.96897337771952152252197265625" lon="-1.2212095968425273895263671875">
        <ele>82.59999847412109375</ele>
        <time>2019-10-25T15:23:54.000Z</time>
      </trkpt>
      <trkpt lat="37.968953512609004974365234375" lon="-1.22147521935403347015380859375">
        <ele>84.59999847412109375</ele>
        <time>2019-10-25T15:24:01.000Z</time>
      </trkpt>
      <trkpt lat="37.9689295403659343719482421875" lon="-1.22172868810594081878662109375">
        <ele>85.8000030517578125</ele>
        <time>2019-10-25T15:24:07.000Z</time>
      </trkpt>
      <trkpt lat="37.96890263445675373077392578125" lon="-1.22197276912629604339599609375">
        <ele>86.40000152587890625</ele>
        <time>2019-10-25T15:24:13.000Z</time>
      </trkpt>
      <trkpt lat="37.96887748874723911285400390625" lon="-1.22223109938204288482666015625">
        <ele>85.40000152587890625</ele>
        <time>2019-10-25T15:24:19.000Z</time>
      </trkpt>
      <trkpt lat="37.96886273659765720367431640625" lon="-1.22248875908553600311279296875">
        <ele>84.40000152587890625</ele>
        <time>2019-10-25T15:24:25.000Z</time>
      </trkpt>
      <trkpt lat="37.96883490867912769317626953125" lon="-1.22271238826215267181396484375">
        <ele>83.59999847412109375</ele>
        <time>2019-10-25T15:24:30.000Z</time>
      </trkpt>
      <trkpt lat="37.9688239283859729766845703125" lon="-1.22296485118567943572998046875">
        <ele>82.59999847412109375</ele>
        <time>2019-10-25T15:24:35.000Z</time>
      </trkpt>
      <trkpt lat="37.96880389563739299774169921875" lon="-1.2231957726180553436279296875">
        <ele>83.40000152587890625</ele>
        <time>2019-10-25T15:24:40.000Z</time>
      </trkpt>
      <trkpt lat="37.96879132278263568878173828125" lon="-1.22342334128916263580322265625">
        <ele>84</ele>
        <time>2019-10-25T15:24:46.000Z</time>
      </trkpt>
      <trkpt lat="37.96877237968146800994873046875" lon="-1.22368234209716320037841796875">
        <ele>84.59999847412109375</ele>
        <time>2019-10-25T15:24:51.000Z</time>
      </trkpt>
      <trkpt lat="37.96876139938831329345703125" lon="-1.22394285164773464202880859375">
        <ele>84.40000152587890625</ele>
        <time>2019-10-25T15:24:56.000Z</time>
      </trkpt>
      <trkpt lat="37.96879836358129978179931640625" lon="-1.22407662682235240936279296875">
        <ele>83.8000030517578125</ele>
        <time>2019-10-25T15:24:59.000Z</time>
      </trkpt>
      <trkpt lat="37.96891788952052593231201171875" lon="-1.2242599390447139739990234375">
        <ele>82.8000030517578125</ele>
        <time>2019-10-25T15:25:03.000Z</time>
      </trkpt>
      <trkpt lat="37.96884831972420215606689453125" lon="-1.2244845740497112274169921875">
        <ele>82.1999969482421875</ele>
        <time>2019-10-25T15:25:07.000Z</time>
      </trkpt>
      <trkpt lat="37.968812026083469390869140625" lon="-1.2245288304984569549560546875">
        <ele>82.1999969482421875</ele>
        <time>2019-10-25T15:25:08.000Z</time>
      </trkpt>
      <trkpt lat="37.96868185512721538543701171875" lon="-1.224734522402286529541015625">
        <ele>82.1999969482421875</ele>
        <time>2019-10-25T15:25:13.000Z</time>
      </trkpt>
      <trkpt lat="37.96861111186444759368896484375" lon="-1.224947758018970489501953125">
        <ele>81.8000030517578125</ele>
        <time>2019-10-25T15:25:17.000Z</time>
      </trkpt>
      <trkpt lat="37.96850734390318393707275390625" lon="-1.22518789954483509063720703125">
        <ele>81</ele>
        <time>2019-10-25T15:25:22.000Z</time>
      </trkpt>
      <trkpt lat="37.9684105329215526580810546875" lon="-1.22539526782929897308349609375">
        <ele>81</ele>
        <time>2019-10-25T15:25:26.000Z</time>
      </trkpt>
      <trkpt lat="37.96831078827381134033203125" lon="-1.2256099283695220947265625">
        <ele>81.40000152587890625</ele>
        <time>2019-10-25T15:25:30.000Z</time>
      </trkpt>
      <trkpt lat="37.96821900643408298492431640625" lon="-1.22581821866333484649658203125">
        <ele>82</ele>
        <time>2019-10-25T15:25:34.000Z</time>
      </trkpt>
      <trkpt lat="37.96812529675662517547607421875" lon="-1.2260162830352783203125">
        <ele>83.1999969482421875</ele>
        <time>2019-10-25T15:25:38.000Z</time>
      </trkpt>
      <trkpt lat="37.968046925961971282958984375" lon="-1.22615215368568897247314453125">
        <ele>84</ele>
        <time>2019-10-25T15:25:41.000Z</time>
      </trkpt>
      <trkpt lat="37.967936284840106964111328125" lon="-1.2263805605471134185791015625">
        <ele>84.1999969482421875</ele>
        <time>2019-10-25T15:25:46.000Z</time>
      </trkpt>
      <trkpt lat="37.96789010055363178253173828125" lon="-1.22647351585328578948974609375">
        <ele>84</ele>
        <time>2019-10-25T15:25:48.000Z</time>
      </trkpt>
      <trkpt lat="37.96782170422375202178955078125" lon="-1.226619444787502288818359375">
        <ele>84.1999969482421875</ele>
        <time>2019-10-25T15:25:51.000Z</time>
      </trkpt>
      <trkpt lat="37.967753894627094268798828125" lon="-1.22675724327564239501953125">
        <ele>84.59999847412109375</ele>
        <time>2019-10-25T15:25:54.000Z</time>
      </trkpt>
      <trkpt lat="37.9676611907780170440673828125" lon="-1.22696335427463054656982421875">
        <ele>85.59999847412109375</ele>
        <time>2019-10-25T15:25:58.000Z</time>
      </trkpt>
      <trkpt lat="37.96763646416366100311279296875" lon="-1.2270011566579341888427734375">
        <ele>86</ele>
        <time>2019-10-25T15:25:59.000Z</time>
      </trkpt>
      <trkpt lat="37.96750545501708984375" lon="-1.22712462209165096282958984375">
        <ele>87.8000030517578125</ele>
        <time>2019-10-25T15:26:05.000Z</time>
      </trkpt>
      <trkpt lat="37.96746295876801013946533203125" lon="-1.2271600775420665740966796875">
        <ele>88.1999969482421875</ele>
        <time>2019-10-25T15:26:07.000Z</time>
      </trkpt>
      <trkpt lat="37.96736991964280605316162109375" lon="-1.22723023407161235809326171875">
        <ele>88.8000030517578125</ele>
        <time>2019-10-25T15:26:11.000Z</time>
      </trkpt>
      <trkpt lat="37.9672082327306270599365234375" lon="-1.22736266814172267913818359375">
        <ele>88.1999969482421875</ele>
        <time>2019-10-25T15:26:17.000Z</time>
      </trkpt>
      <trkpt lat="37.9670449532568454742431640625" lon="-1.2274953536689281463623046875">
        <ele>87.1999969482421875</ele>
        <time>2019-10-25T15:26:22.000Z</time>
      </trkpt>
      <trkpt lat="37.96694931574165821075439453125" lon="-1.22773063369095325469970703125">
        <ele>84.8000030517578125</ele>
        <time>2019-10-25T15:26:27.000Z</time>
      </trkpt>
      <trkpt lat="37.9669550992548465728759765625" lon="-1.2280105054378509521484375">
        <ele>84.8000030517578125</ele>
        <time>2019-10-25T15:26:32.000Z</time>
      </trkpt>
      <trkpt lat="37.96694830991327762603759765625" lon="-1.22825467027723789215087890625">
        <ele>85</ele>
        <time>2019-10-25T15:26:36.000Z</time>
      </trkpt>
      <trkpt lat="37.9668696038424968719482421875" lon="-1.2284798920154571533203125">
        <ele>84.40000152587890625</ele>
        <time>2019-10-25T15:26:40.000Z</time>
      </trkpt>
      <trkpt lat="37.96674697659909725189208984375" lon="-1.228713579475879669189453125">
        <ele>83.1999969482421875</ele>
        <time>2019-10-25T15:26:45.000Z</time>
      </trkpt>
      <trkpt lat="37.96664807014167308807373046875" lon="-1.22887979261577129364013671875">
        <ele>83.59999847412109375</ele>
        <time>2019-10-25T15:26:49.000Z</time>
      </trkpt>
      <trkpt lat="37.96653826721012592315673828125" lon="-1.2291103787720203399658203125">
        <ele>84.8000030517578125</ele>
        <time>2019-10-25T15:26:54.000Z</time>
      </trkpt>
      <trkpt lat="37.966432906687259674072265625" lon="-1.22933744452893733978271484375">
        <ele>86.1999969482421875</ele>
        <time>2019-10-25T15:26:59.000Z</time>
      </trkpt>
      <trkpt lat="37.9663683660328388214111328125" lon="-1.22952721081674098968505859375">
        <ele>87.1999969482421875</ele>
        <time>2019-10-25T15:27:03.000Z</time>
      </trkpt>
      <trkpt lat="37.96630918979644775390625" lon="-1.22971714474260807037353515625">
        <ele>88.59999847412109375</ele>
        <time>2019-10-25T15:27:07.000Z</time>
      </trkpt>
      <trkpt lat="37.966266609728336334228515625" lon="-1.22986868955194950103759765625">
        <ele>90.1999969482421875</ele>
        <time>2019-10-25T15:27:10.000Z</time>
      </trkpt>
      <trkpt lat="37.9661997221410274505615234375" lon="-1.23012618161737918853759765625">
        <ele>91.1999969482421875</ele>
        <time>2019-10-25T15:27:15.000Z</time>
      </trkpt>
      <trkpt lat="37.9661779291927814483642578125" lon="-1.23023481108248233795166015625">
        <ele>91.40000152587890625</ele>
        <time>2019-10-25T15:27:17.000Z</time>
      </trkpt>
      <trkpt lat="37.96616024337708950042724609375" lon="-1.23034293763339519500732421875">
        <ele>91.1999969482421875</ele>
        <time>2019-10-25T15:27:19.000Z</time>
      </trkpt>
      <trkpt lat="37.9661088623106479644775390625" lon="-1.23056187294423580169677734375">
        <ele>91.1999969482421875</ele>
        <time>2019-10-25T15:27:23.000Z</time>
      </trkpt>
      <trkpt lat="37.96605312265455722808837890625" lon="-1.2307785451412200927734375">
        <ele>90.1999969482421875</ele>
        <time>2019-10-25T15:27:27.000Z</time>
      </trkpt>
      <trkpt lat="37.9660327546298503875732421875" lon="-1.230830512940883636474609375">
        <ele>90.1999969482421875</ele>
        <time>2019-10-25T15:27:28.000Z</time>
      </trkpt>
      <trkpt lat="37.9659439064562320709228515625" lon="-1.231035701930522918701171875">
        <ele>90</ele>
        <time>2019-10-25T15:27:32.000Z</time>
      </trkpt>
      <trkpt lat="37.96588934026658535003662109375" lon="-1.231143660843372344970703125">
        <ele>89.40000152587890625</ele>
        <time>2019-10-25T15:27:34.000Z</time>
      </trkpt>
      <trkpt lat="37.96575170941650867462158203125" lon="-1.23134910129010677337646484375">
        <ele>88.59999847412109375</ele>
        <time>2019-10-25T15:27:38.000Z</time>
      </trkpt>
      <trkpt lat="37.965604104101657867431640625" lon="-1.23155965469777584075927734375">
        <ele>88.59999847412109375</ele>
        <time>2019-10-25T15:27:42.000Z</time>
      </trkpt>
      <trkpt lat="37.96546286903321743011474609375" lon="-1.2317697890102863311767578125">
        <ele>89</ele>
        <time>2019-10-25T15:27:46.000Z</time>
      </trkpt>
      <trkpt lat="37.9653326980769634246826171875" lon="-1.23198629356920719146728515625">
        <ele>89.1999969482421875</ele>
        <time>2019-10-25T15:27:50.000Z</time>
      </trkpt>
      <trkpt lat="37.96521744690835475921630859375" lon="-1.23219919390976428985595703125">
        <ele>89.59999847412109375</ele>
        <time>2019-10-25T15:27:54.000Z</time>
      </trkpt>
      <trkpt lat="37.96511300839483737945556640625" lon="-1.232411004602909088134765625">
        <ele>90</ele>
        <time>2019-10-25T15:27:58.000Z</time>
      </trkpt>
      <trkpt lat="37.96506221406161785125732421875" lon="-1.232510246336460113525390625">
        <ele>90.1999969482421875</ele>
        <time>2019-10-25T15:28:00.000Z</time>
      </trkpt>
      <trkpt lat="37.96496741473674774169921875" lon="-1.23272758908569812774658203125">
        <ele>90</ele>
        <time>2019-10-25T15:28:04.000Z</time>
      </trkpt>
      <trkpt lat="37.96488602645695209503173828125" lon="-1.23294367454946041107177734375">
        <ele>89.8000030517578125</ele>
        <time>2019-10-25T15:28:08.000Z</time>
      </trkpt>
      <trkpt lat="37.96479365788400173187255859375" lon="-1.23314601369202136993408203125">
        <ele>89.8000030517578125</ele>
        <time>2019-10-25T15:28:12.000Z</time>
      </trkpt>
      <trkpt lat="37.9646899737417697906494140625" lon="-1.233343072235584259033203125">
        <ele>89.8000030517578125</ele>
        <time>2019-10-25T15:28:16.000Z</time>
      </trkpt>
      <trkpt lat="37.96455209143459796905517578125" lon="-1.23355924151837825775146484375">
        <ele>90.1999969482421875</ele>
        <time>2019-10-25T15:28:21.000Z</time>
      </trkpt>
      <trkpt lat="37.96447229571640491485595703125" lon="-1.2336751632392406463623046875">
        <ele>90.8000030517578125</ele>
        <time>2019-10-25T15:28:24.000Z</time>
      </trkpt>
      <trkpt lat="37.96432661823928356170654296875" lon="-1.23387993313372135162353515625">
        <ele>91.8000030517578125</ele>
        <time>2019-10-25T15:28:29.000Z</time>
      </trkpt>
      <trkpt lat="37.96426425687968730926513671875" lon="-1.2339661829173564910888671875">
        <ele>92</ele>
        <time>2019-10-25T15:28:31.000Z</time>
      </trkpt>
      <trkpt lat="37.9641394503414630889892578125" lon="-1.2341214157640933990478515625">
        <ele>91.8000030517578125</ele>
        <time>2019-10-25T15:28:35.000Z</time>
      </trkpt>
      <trkpt lat="37.96407281421124935150146484375" lon="-1.2341903150081634521484375">
        <ele>91.1999969482421875</ele>
        <time>2019-10-25T15:28:37.000Z</time>
      </trkpt>
      <trkpt lat="37.9639349319040775299072265625" lon="-1.234337501227855682373046875">
        <ele>90.59999847412109375</ele>
        <time>2019-10-25T15:28:41.000Z</time>
      </trkpt>
      <trkpt lat="37.9637860693037509918212890625" lon="-1.2345321290194988250732421875">
        <ele>90.8000030517578125</ele>
        <time>2019-10-25T15:28:46.000Z</time>
      </trkpt>
      <trkpt lat="37.963660843670368194580078125" lon="-1.234755255281925201416015625">
        <ele>91.8000030517578125</ele>
        <time>2019-10-25T15:28:51.000Z</time>
      </trkpt>
      <trkpt lat="37.963543497025966644287109375" lon="-1.23498517088592052459716796875">
        <ele>93.1999969482421875</ele>
        <time>2019-10-25T15:28:56.000Z</time>
      </trkpt>
      <trkpt lat="37.96342237852513790130615234375" lon="-1.2352083809673786163330078125">
        <ele>93.8000030517578125</ele>
        <time>2019-10-25T15:29:01.000Z</time>
      </trkpt>
      <trkpt lat="37.96329732052981853485107421875" lon="-1.2354239635169506072998046875">
        <ele>92.59999847412109375</ele>
        <time>2019-10-25T15:29:06.000Z</time>
      </trkpt>
      <trkpt lat="37.96317863278090953826904296875" lon="-1.23559554107487201690673828125">
        <ele>92.40000152587890625</ele>
        <time>2019-10-25T15:29:10.000Z</time>
      </trkpt>
      <trkpt lat="37.963021136820316314697265625" lon="-1.2357931025326251983642578125">
        <ele>93.59999847412109375</ele>
        <time>2019-10-25T15:29:15.000Z</time>
      </trkpt>
      <trkpt lat="37.96285676769912242889404296875" lon="-1.235983371734619140625">
        <ele>94.40000152587890625</ele>
        <time>2019-10-25T15:29:20.000Z</time>
      </trkpt>
      <trkpt lat="37.96272885985672473907470703125" lon="-1.2361505068838596343994140625">
        <ele>94.40000152587890625</ele>
        <time>2019-10-25T15:29:24.000Z</time>
      </trkpt>
      <trkpt lat="37.96260212548077106475830078125" lon="-1.2363144569098949432373046875">
        <ele>94</ele>
        <time>2019-10-25T15:29:28.000Z</time>
      </trkpt>
      <trkpt lat="37.96247673220932483673095703125" lon="-1.23649072833359241485595703125">
        <ele>92.1999969482421875</ele>
        <time>2019-10-25T15:29:32.000Z</time>
      </trkpt>
      <trkpt lat="37.96235226094722747802734375" lon="-1.2366681732237339019775390625">
        <ele>90.1999969482421875</ele>
        <time>2019-10-25T15:29:36.000Z</time>
      </trkpt>
      <trkpt lat="37.96222996897995471954345703125" lon="-1.236849389970302581787109375">
        <ele>89.59999847412109375</ele>
        <time>2019-10-25T15:29:40.000Z</time>
      </trkpt>
      <trkpt lat="37.96211094595491886138916015625" lon="-1.23702817596495151519775390625">
        <ele>90.59999847412109375</ele>
        <time>2019-10-25T15:29:44.000Z</time>
      </trkpt>
      <trkpt lat="37.96199259348213672637939453125" lon="-1.23720520175993442535400390625">
        <ele>92.8000030517578125</ele>
        <time>2019-10-25T15:29:48.000Z</time>
      </trkpt>
      <trkpt lat="37.96187818050384521484375" lon="-1.2373870052397251129150390625">
        <ele>96.59999847412109375</ele>
        <time>2019-10-25T15:29:52.000Z</time>
      </trkpt>
      <trkpt lat="37.96178287826478481292724609375" lon="-1.23759110458195209503173828125">
        <ele>97.40000152587890625</ele>
        <time>2019-10-25T15:29:56.000Z</time>
      </trkpt>
      <trkpt lat="37.9616832174360752105712890625" lon="-1.2377943657338619232177734375">
        <ele>97.40000152587890625</ele>
        <time>2019-10-25T15:30:00.000Z</time>
      </trkpt>
      <trkpt lat="37.96159126795828342437744140625" lon="-1.2379962019622325897216796875">
        <ele>97.40000152587890625</ele>
        <time>2019-10-25T15:30:04.000Z</time>
      </trkpt>
      <trkpt lat="37.96148867346346378326416015625" lon="-1.23818722553551197052001953125">
        <ele>97.59999847412109375</ele>
        <time>2019-10-25T15:30:08.000Z</time>
      </trkpt>
      <trkpt lat="37.96135758049786090850830078125" lon="-1.2384119443595409393310546875">
        <ele>97.59999847412109375</ele>
        <time>2019-10-25T15:30:13.000Z</time>
      </trkpt>
      <trkpt lat="37.96123788692057132720947265625" lon="-1.2386372499167919158935546875">
        <ele>97.59999847412109375</ele>
        <time>2019-10-25T15:30:18.000Z</time>
      </trkpt>
      <trkpt lat="37.96115641482174396514892578125" lon="-1.23877161182463169097900390625">
        <ele>97.8000030517578125</ele>
        <time>2019-10-25T15:30:21.000Z</time>
      </trkpt>
      <trkpt lat="37.96101652085781097412109375" lon="-1.23897646553814411163330078125">
        <ele>98.59999847412109375</ele>
        <time>2019-10-25T15:30:26.000Z</time>
      </trkpt>
      <trkpt lat="37.9609268344938755035400390625" lon="-1.23910185880959033966064453125">
        <ele>98.8000030517578125</ele>
        <time>2019-10-25T15:30:29.000Z</time>
      </trkpt>
      <trkpt lat="37.96083522029221057891845703125" lon="-1.2392296828329563140869140625">
        <ele>98.59999847412109375</ele>
        <time>2019-10-25T15:30:32.000Z</time>
      </trkpt>
      <trkpt lat="37.9607122577726840972900390625" lon="-1.23940176330506801605224609375">
        <ele>98.40000152587890625</ele>
        <time>2019-10-25T15:30:36.000Z</time>
      </trkpt>
      <trkpt lat="37.96056096442043781280517578125" lon="-1.23961097560822963714599609375">
        <ele>97.59999847412109375</ele>
        <time>2019-10-25T15:30:41.000Z</time>
      </trkpt>
      <trkpt lat="37.96044060029089450836181640625" lon="-1.23978984542191028594970703125">
        <ele>96.40000152587890625</ele>
        <time>2019-10-25T15:30:45.000Z</time>
      </trkpt>
      <trkpt lat="37.96032476238906383514404296875" lon="-1.2399739958345890045166015625">
        <ele>96.1999969482421875</ele>
        <time>2019-10-25T15:30:49.000Z</time>
      </trkpt>
      <trkpt lat="37.96017606742680072784423828125" lon="-1.2401892431080341339111328125">
        <ele>96.8000030517578125</ele>
        <time>2019-10-25T15:30:54.000Z</time>
      </trkpt>
      <trkpt lat="37.96006492339074611663818359375" lon="-1.2403712980449199676513671875">
        <ele>97</ele>
        <time>2019-10-25T15:30:58.000Z</time>
      </trkpt>
      <trkpt lat="37.95994942076504230499267578125" lon="-1.24055729247629642486572265625">
        <ele>97.59999847412109375</ele>
        <time>2019-10-25T15:31:02.000Z</time>
      </trkpt>
      <trkpt lat="37.959838025271892547607421875" lon="-1.24075292609632015228271484375">
        <ele>98.1999969482421875</ele>
        <time>2019-10-25T15:31:06.000Z</time>
      </trkpt>
      <trkpt lat="37.9598150588572025299072265625" lon="-1.24080707319080829620361328125">
        <ele>98.1999969482421875</ele>
        <time>2019-10-25T15:31:07.000Z</time>
      </trkpt>
      <trkpt lat="37.95974641107022762298583984375" lon="-1.241051070392131805419921875">
        <ele>98</ele>
        <time>2019-10-25T15:31:11.000Z</time>
      </trkpt>
      <trkpt lat="37.9597198404371738433837890625" lon="-1.24131484888494014739990234375">
        <ele>97</ele>
        <time>2019-10-25T15:31:15.000Z</time>
      </trkpt>
      <trkpt lat="37.9596970416605472564697265625" lon="-1.24158038757741451263427734375">
        <ele>95.59999847412109375</ele>
        <time>2019-10-25T15:31:19.000Z</time>
      </trkpt>
      <trkpt lat="37.9596666991710662841796875" lon="-1.2418428249657154083251953125">
        <ele>95.59999847412109375</ele>
        <time>2019-10-25T15:31:23.000Z</time>
      </trkpt>
      <trkpt lat="37.959634177386760711669921875" lon="-1.24211314134299755096435546875">
        <ele>96.8000030517578125</ele>
        <time>2019-10-25T15:31:27.000Z</time>
      </trkpt>
      <trkpt lat="37.95959050767123699188232421875" lon="-1.24237532727420330047607421875">
        <ele>98.59999847412109375</ele>
        <time>2019-10-25T15:31:31.000Z</time>
      </trkpt>
      <trkpt lat="37.9595659486949443817138671875" lon="-1.24250876717269420623779296875">
        <ele>99</ele>
        <time>2019-10-25T15:31:33.000Z</time>
      </trkpt>
      <trkpt lat="37.95953015796840190887451171875" lon="-1.2427618168294429779052734375">
        <ele>98.8000030517578125</ele>
        <time>2019-10-25T15:31:37.000Z</time>
      </trkpt>
      <trkpt lat="37.9594834707677364349365234375" lon="-1.24301888979971408843994140625">
        <ele>97.8000030517578125</ele>
        <time>2019-10-25T15:31:41.000Z</time>
      </trkpt>
      <trkpt lat="37.95945472083985805511474609375" lon="-1.2432127632200717926025390625">
        <ele>97.1999969482421875</ele>
        <time>2019-10-25T15:31:44.000Z</time>
      </trkpt>
      <trkpt lat="37.95939336530864238739013671875" lon="-1.24346916563808917999267578125">
        <ele>96.8000030517578125</ele>
        <time>2019-10-25T15:31:48.000Z</time>
      </trkpt>
      <trkpt lat="37.95929647050797939300537109375" lon="-1.2437200360000133514404296875">
        <ele>95.59999847412109375</ele>
        <time>2019-10-25T15:31:52.000Z</time>
      </trkpt>
      <trkpt lat="37.95915833674371242523193359375" lon="-1.24395716004073619842529296875">
        <ele>94</ele>
        <time>2019-10-25T15:31:56.000Z</time>
      </trkpt>
      <trkpt lat="37.959038726985454559326171875" lon="-1.24413452111184597015380859375">
        <ele>93.40000152587890625</ele>
        <time>2019-10-25T15:31:59.000Z</time>
      </trkpt>
      <trkpt lat="37.95891408808529376983642578125" lon="-1.24430936761200428009033203125">
        <ele>94.1999969482421875</ele>
        <time>2019-10-25T15:32:02.000Z</time>
      </trkpt>
      <trkpt lat="37.95880830846726894378662109375" lon="-1.24452260322868824005126953125">
        <ele>94.8000030517578125</ele>
        <time>2019-10-25T15:32:05.000Z</time>
      </trkpt>
      <trkpt lat="37.95870906673371791839599609375" lon="-1.24475109390914440155029296875">
        <ele>95</ele>
        <time>2019-10-25T15:32:08.000Z</time>
      </trkpt>
      <trkpt lat="37.9586063884198665618896484375" lon="-1.244976818561553955078125">
        <ele>95.1999969482421875</ele>
        <time>2019-10-25T15:32:11.000Z</time>
      </trkpt>
      <trkpt lat="37.9585079848766326904296875" lon="-1.2451945804059505462646484375">
        <ele>96</ele>
        <time>2019-10-25T15:32:14.000Z</time>
      </trkpt>
      <trkpt lat="37.9584799893200397491455078125" lon="-1.24526859261095523834228515625">
        <ele>96.1999969482421875</ele>
        <time>2019-10-25T15:32:15.000Z</time>
      </trkpt>
      <trkpt lat="37.9584065638482570648193359375" lon="-1.2454943172633647918701171875">
        <ele>96.8000030517578125</ele>
        <time>2019-10-25T15:32:18.000Z</time>
      </trkpt>
      <trkpt lat="37.95832316391170024871826171875" lon="-1.2457078881561756134033203125">
        <ele>96.59999847412109375</ele>
        <time>2019-10-25T15:32:21.000Z</time>
      </trkpt>
      <trkpt lat="37.95823364518582820892333984375" lon="-1.24591668136417865753173828125">
        <ele>95.59999847412109375</ele>
        <time>2019-10-25T15:32:24.000Z</time>
      </trkpt>
      <trkpt lat="37.9581405222415924072265625" lon="-1.246123798191547393798828125">
        <ele>94.8000030517578125</ele>
        <time>2019-10-25T15:32:27.000Z</time>
      </trkpt>
      <trkpt lat="37.95803968794643878936767578125" lon="-1.2463157437741756439208984375">
        <ele>94</ele>
        <time>2019-10-25T15:32:30.000Z</time>
      </trkpt>
      <trkpt lat="37.957905493676662445068359375" lon="-1.2465601600706577301025390625">
        <ele>94</ele>
        <time>2019-10-25T15:32:34.000Z</time>
      </trkpt>
      <trkpt lat="37.95776928775012493133544921875" lon="-1.2468035705387592315673828125">
        <ele>95.40000152587890625</ele>
        <time>2019-10-25T15:32:38.000Z</time>
      </trkpt>
      <trkpt lat="37.95773676596581935882568359375" lon="-1.2468639202415943145751953125">
        <ele>96</ele>
        <time>2019-10-25T15:32:39.000Z</time>
      </trkpt>
      <trkpt lat="37.9576200060546398162841796875" lon="-1.2471140362322330474853515625">
        <ele>96.8000030517578125</ele>
        <time>2019-10-25T15:32:43.000Z</time>
      </trkpt>
      <trkpt lat="37.95749746263027191162109375" lon="-1.24736021272838115692138671875">
        <ele>98.1999969482421875</ele>
        <time>2019-10-25T15:32:47.000Z</time>
      </trkpt>
      <trkpt lat="37.9573943652212619781494140625" lon="-1.24754880554974079132080078125">
        <ele>99.1999969482421875</ele>
        <time>2019-10-25T15:32:50.000Z</time>
      </trkpt>
      <trkpt lat="37.9572800360620021820068359375" lon="-1.2477354705333709716796875">
        <ele>100</ele>
        <time>2019-10-25T15:32:53.000Z</time>
      </trkpt>
      <trkpt lat="37.957162521779537200927734375" lon="-1.24791920185089111328125">
        <ele>100</ele>
        <time>2019-10-25T15:32:56.000Z</time>
      </trkpt>
      <trkpt lat="37.95705397613346576690673828125" lon="-1.2481031008064746856689453125">
        <ele>99.40000152587890625</ele>
        <time>2019-10-25T15:32:59.000Z</time>
      </trkpt>
      <trkpt lat="37.95692288316786289215087890625" lon="-1.2483488582074642181396484375">
        <ele>97.59999847412109375</ele>
        <time>2019-10-25T15:33:03.000Z</time>
      </trkpt>
      <trkpt lat="37.95680436305701732635498046875" lon="-1.24859754927456378936767578125">
        <ele>96</ele>
        <time>2019-10-25T15:33:07.000Z</time>
      </trkpt>
      <trkpt lat="37.956729345023632049560546875" lon="-1.2487863935530185699462890625">
        <ele>96.1999969482421875</ele>
        <time>2019-10-25T15:33:10.000Z</time>
      </trkpt>
      <trkpt lat="37.95664326287806034088134765625" lon="-1.24904195778071880340576171875">
        <ele>97.40000152587890625</ele>
        <time>2019-10-25T15:33:14.000Z</time>
      </trkpt>
      <trkpt lat="37.95656480826437473297119140625" lon="-1.249272711575031280517578125">
        <ele>97.1999969482421875</ele>
        <time>2019-10-25T15:33:18.000Z</time>
      </trkpt>
      <trkpt lat="37.9565125890076160430908203125" lon="-1.24942081980407238006591796875">
        <ele>97</ele>
        <time>2019-10-25T15:33:21.000Z</time>
      </trkpt>
      <trkpt lat="37.95640689320862293243408203125" lon="-1.24965392053127288818359375">
        <ele>97.40000152587890625</ele>
        <time>2019-10-25T15:33:26.000Z</time>
      </trkpt>
      <trkpt lat="37.95628845691680908203125" lon="-1.249897666275501251220703125">
        <ele>99.59999847412109375</ele>
        <time>2019-10-25T15:33:31.000Z</time>
      </trkpt>
      <trkpt lat="37.956170774996280670166015625" lon="-1.25013797543942928314208984375">
        <ele>102.1999969482421875</ele>
        <time>2019-10-25T15:33:36.000Z</time>
      </trkpt>
      <trkpt lat="37.95604630373418331146240234375" lon="-1.25037199817597866058349609375">
        <ele>103</ele>
        <time>2019-10-25T15:33:41.000Z</time>
      </trkpt>
      <trkpt lat="37.9559469781816005706787109375" lon="-1.2506066076457500457763671875">
        <ele>102.40000152587890625</ele>
        <time>2019-10-25T15:33:46.000Z</time>
      </trkpt>
      <trkpt lat="37.955896519124507904052734375" lon="-1.25079394318163394927978515625">
        <ele>101.40000152587890625</ele>
        <time>2019-10-25T15:33:50.000Z</time>
      </trkpt>
      <trkpt lat="37.95582032762467861175537109375" lon="-1.25105269253253936767578125">
        <ele>100.59999847412109375</ele>
        <time>2019-10-25T15:33:55.000Z</time>
      </trkpt>
      <trkpt lat="37.955738939344882965087890625" lon="-1.25131378881633281707763671875">
        <ele>100.40000152587890625</ele>
        <time>2019-10-25T15:34:00.000Z</time>
      </trkpt>
      <trkpt lat="37.95565738342702388763427734375" lon="-1.251544542610645294189453125">
        <ele>100.8000030517578125</ele>
        <time>2019-10-25T15:34:05.000Z</time>
      </trkpt>
      <trkpt lat="37.95562955550849437713623046875" lon="-1.25162693671882152557373046875">
        <ele>101</ele>
        <time>2019-10-25T15:34:07.000Z</time>
      </trkpt>
      <trkpt lat="37.955566942691802978515625" lon="-1.251763813197612762451171875">
        <ele>101.1999969482421875</ele>
        <time>2019-10-25T15:34:11.000Z</time>
      </trkpt>
      <trkpt lat="37.95552092604339122772216796875" lon="-1.25190219841897487640380859375">
        <ele>101.40000152587890625</ele>
        <time>2019-10-25T15:34:15.000Z</time>
      </trkpt>
      <trkpt lat="37.95549385249614715576171875" lon="-1.2520010210573673248291015625">
        <ele>101.40000152587890625</ele>
        <time>2019-10-25T15:34:17.000Z</time>
      </trkpt>
      <trkpt lat="37.95541749335825443267822265625" lon="-1.2522494606673717498779296875">
        <ele>101</ele>
        <time>2019-10-25T15:34:22.000Z</time>
      </trkpt>
      <trkpt lat="37.95533149503171443939208984375" lon="-1.25249530188739299774169921875">
        <ele>101.1999969482421875</ele>
        <time>2019-10-25T15:34:27.000Z</time>
      </trkpt>
      <trkpt lat="37.95524750836193561553955078125" lon="-1.2527547217905521392822265625">
        <ele>102.1999969482421875</ele>
        <time>2019-10-25T15:34:32.000Z</time>
      </trkpt>
      <trkpt lat="37.955188415944576263427734375" lon="-1.25297491438686847686767578125">
        <ele>103.1999969482421875</ele>
        <time>2019-10-25T15:34:36.000Z</time>
      </trkpt>
      <trkpt lat="37.95518045313656330108642578125" lon="-1.2530323304235935211181640625">
        <ele>103.40000152587890625</ele>
        <time>2019-10-25T15:34:37.000Z</time>
      </trkpt>
      <trkpt lat="37.9551523737609386444091796875" lon="-1.25325973145663738250732421875">
        <ele>104</ele>
        <time>2019-10-25T15:34:41.000Z</time>
      </trkpt>
      <trkpt lat="37.955122031271457672119140625" lon="-1.25348436646163463592529296875">
        <ele>104</ele>
        <time>2019-10-25T15:34:45.000Z</time>
      </trkpt>
      <trkpt lat="37.95509244315326213836669921875" lon="-1.25376532785594463348388671875">
        <ele>103.8000030517578125</ele>
        <time>2019-10-25T15:34:50.000Z</time>
      </trkpt>
      <trkpt lat="37.955067045986652374267578125" lon="-1.25399080105125904083251953125">
        <ele>104.8000030517578125</ele>
        <time>2019-10-25T15:34:54.000Z</time>
      </trkpt>
      <trkpt lat="37.9550380446016788482666015625" lon="-1.2542705051600933074951171875">
        <ele>106.59999847412109375</ele>
        <time>2019-10-25T15:34:59.000Z</time>
      </trkpt>
      <trkpt lat="37.9550028406083583831787109375" lon="-1.25453596003353595733642578125">
        <ele>108.8000030517578125</ele>
        <time>2019-10-25T15:35:04.000Z</time>
      </trkpt>
      <trkpt lat="37.9549728333950042724609375" lon="-1.2547479383647441864013671875">
        <ele>110</ele>
        <time>2019-10-25T15:35:08.000Z</time>
      </trkpt>
      <trkpt lat="37.9548378847539424896240234375" lon="-1.25493493862450122833251953125">
        <ele>110</ele>
        <time>2019-10-25T15:35:13.000Z</time>
      </trkpt>
      <trkpt lat="37.95480159111320972442626953125" lon="-1.2549651972949504852294921875">
        <ele>109.59999847412109375</ele>
        <time>2019-10-25T15:35:14.000Z</time>
      </trkpt>
      <trkpt lat="37.95464434660971164703369140625" lon="-1.25509369187057018280029296875">
        <ele>108</ele>
        <time>2019-10-25T15:35:18.000Z</time>
      </trkpt>
      <trkpt lat="37.9544694162905216217041015625" lon="-1.2552072666585445404052734375">
        <ele>106.59999847412109375</ele>
        <time>2019-10-25T15:35:22.000Z</time>
      </trkpt>
      <trkpt lat="37.95429498888552188873291015625" lon="-1.255330480635166168212890625">
        <ele>106</ele>
        <time>2019-10-25T15:35:26.000Z</time>
      </trkpt>
      <trkpt lat="37.95411712490022182464599609375" lon="-1.25545914284884929656982421875">
        <ele>106.59999847412109375</ele>
        <time>2019-10-25T15:35:30.000Z</time>
      </trkpt>
      <trkpt lat="37.95394328422844409942626953125" lon="-1.2555874697864055633544921875">
        <ele>107.1999969482421875</ele>
        <time>2019-10-25T15:35:34.000Z</time>
      </trkpt>
      <trkpt lat="37.95375871472060680389404296875" lon="-1.25572753138840198516845703125">
        <ele>108</ele>
        <time>2019-10-25T15:35:38.000Z</time>
      </trkpt>
      <trkpt lat="37.95357984490692615509033203125" lon="-1.2558546848595142364501953125">
        <ele>108.8000030517578125</ele>
        <time>2019-10-25T15:35:42.000Z</time>
      </trkpt>
      <trkpt lat="37.953538857400417327880859375" lon="-1.25587723217904567718505859375">
        <ele>109</ele>
        <time>2019-10-25T15:35:43.000Z</time>
      </trkpt>
      <trkpt lat="37.95334699563682079315185546875" lon="-1.25597731210291385650634765625">
        <ele>109.59999847412109375</ele>
        <time>2019-10-25T15:35:48.000Z</time>
      </trkpt>
      <trkpt lat="37.9531651921570301055908203125" lon="-1.2560816667973995208740234375">
        <ele>109.8000030517578125</ele>
        <time>2019-10-25T15:35:53.000Z</time>
      </trkpt>
      <trkpt lat="37.95299981720745563507080078125" lon="-1.25618375837802886962890625">
        <ele>109.40000152587890625</ele>
        <time>2019-10-25T15:35:57.000Z</time>
      </trkpt>
      <trkpt lat="37.9528195224702358245849609375" lon="-1.256269924342632293701171875">
        <ele>108.8000030517578125</ele>
        <time>2019-10-25T15:36:01.000Z</time>
      </trkpt>
      <trkpt lat="37.95264107175171375274658203125" lon="-1.25635701231658458709716796875">
        <ele>108</ele>
        <time>2019-10-25T15:36:05.000Z</time>
      </trkpt>
      <trkpt lat="37.95246689580380916595458984375" lon="-1.25642892904579639434814453125">
        <ele>108.40000152587890625</ele>
        <time>2019-10-25T15:36:09.000Z</time>
      </trkpt>
      <trkpt lat="37.952385842800140380859375" lon="-1.25646404922008514404296875">
        <ele>108.59999847412109375</ele>
        <time>2019-10-25T15:36:11.000Z</time>
      </trkpt>
      <trkpt lat="37.9521860182285308837890625" lon="-1.25655130483210086822509765625">
        <ele>108.8000030517578125</ele>
        <time>2019-10-25T15:36:16.000Z</time>
      </trkpt>
      <trkpt lat="37.95198225416243076324462890625" lon="-1.256652139127254486083984375">
        <ele>108.59999847412109375</ele>
        <time>2019-10-25T15:36:21.000Z</time>
      </trkpt>
      <trkpt lat="37.951841689646244049072265625" lon="-1.256765462458133697509765625">
        <ele>108.1999969482421875</ele>
        <time>2019-10-25T15:36:25.000Z</time>
      </trkpt>
      <trkpt lat="37.95166592113673686981201171875" lon="-1.256880797445774078369140625">
        <ele>108</ele>
        <time>2019-10-25T15:36:30.000Z</time>
      </trkpt>
      <trkpt lat="37.95158947817981243133544921875" lon="-1.25692446716129779815673828125">
        <ele>108</ele>
        <time>2019-10-25T15:36:32.000Z</time>
      </trkpt>
      <trkpt lat="37.95154740102589130401611328125" lon="-1.25694508664309978485107421875">
        <ele>108</ele>
        <time>2019-10-25T15:36:33.000Z</time>
      </trkpt>
      <trkpt lat="37.951366603374481201171875" lon="-1.25710685737431049346923828125">
        <ele>107.40000152587890625</ele>
        <time>2019-10-25T15:36:37.000Z</time>
      </trkpt>
      <trkpt lat="37.9512879811227321624755859375" lon="-1.25716888345777988433837890625">
        <ele>107.40000152587890625</ele>
        <time>2019-10-25T15:36:39.000Z</time>
      </trkpt>
      <trkpt lat="37.95117055065929889678955078125" lon="-1.25725270248949527740478515625">
        <ele>107.59999847412109375</ele>
        <time>2019-10-25T15:36:42.000Z</time>
      </trkpt>
      <trkpt lat="37.95109796337783336639404296875" lon="-1.25731590203940868377685546875">
        <ele>107.8000030517578125</ele>
        <time>2019-10-25T15:36:44.000Z</time>
      </trkpt>
      <trkpt lat="37.9509226977825164794921875" lon="-1.25735127367079257965087890625">
        <ele>107.1999969482421875</ele>
        <time>2019-10-25T15:36:48.000Z</time>
      </trkpt>
      <trkpt lat="37.95075011439621448516845703125" lon="-1.257221437990665435791015625">
        <ele>107.40000152587890625</ele>
        <time>2019-10-25T15:36:52.000Z</time>
      </trkpt>
      <trkpt lat="37.950569652020931243896484375" lon="-1.25706545077264308929443359375">
        <ele>108.40000152587890625</ele>
        <time>2019-10-25T15:36:56.000Z</time>
      </trkpt>
      <trkpt lat="37.95038156211376190185546875" lon="-1.2569037638604640960693359375">
        <ele>109</ele>
        <time>2019-10-25T15:37:00.000Z</time>
      </trkpt>
      <trkpt lat="37.95019338838756084442138671875" lon="-1.256731264293193817138671875">
        <ele>107.8000030517578125</ele>
        <time>2019-10-25T15:37:04.000Z</time>
      </trkpt>
      <trkpt lat="37.94999800622463226318359375" lon="-1.256558932363986968994140625">
        <ele>106.40000152587890625</ele>
        <time>2019-10-25T15:37:08.000Z</time>
      </trkpt>
      <trkpt lat="37.94979977421462535858154296875" lon="-1.25639070756733417510986328125">
        <ele>105.1999969482421875</ele>
        <time>2019-10-25T15:37:12.000Z</time>
      </trkpt>
      <trkpt lat="37.949643619358539581298828125" lon="-1.25626632012426853179931640625">
        <ele>105.59999847412109375</ele>
        <time>2019-10-25T15:37:15.000Z</time>
      </trkpt>
      <trkpt lat="37.949488721787929534912109375" lon="-1.256127096712589263916015625">
        <ele>103.59999847412109375</ele>
        <time>2019-10-25T15:37:18.000Z</time>
      </trkpt>
      <trkpt lat="37.94932820834219455718994140625" lon="-1.255988292396068572998046875">
        <ele>102.59999847412109375</ele>
        <time>2019-10-25T15:37:21.000Z</time>
      </trkpt>
      <trkpt lat="37.94916476123034954071044921875" lon="-1.2558491528034210205078125">
        <ele>100.40000152587890625</ele>
        <time>2019-10-25T15:37:24.000Z</time>
      </trkpt>
      <trkpt lat="37.94899846427142620086669921875" lon="-1.2557145394384860992431640625">
        <ele>100</ele>
        <time>2019-10-25T15:37:27.000Z</time>
      </trkpt>
      <trkpt lat="37.94883686117827892303466796875" lon="-1.25556710176169872283935546875">
        <ele>100.59999847412109375</ele>
        <time>2019-10-25T15:37:30.000Z</time>
      </trkpt>
      <trkpt lat="37.948696129024028778076171875" lon="-1.25545646063983440399169921875">
        <ele>101</ele>
        <time>2019-10-25T15:37:33.000Z</time>
      </trkpt>
      <trkpt lat="37.94863737188279628753662109375" lon="-1.25540197826921939849853515625">
        <ele>101</ele>
        <time>2019-10-25T15:37:35.000Z</time>
      </trkpt>
      <trkpt lat="37.94856838881969451904296875" lon="-1.2553403712809085845947265625">
        <ele>100.8000030517578125</ele>
        <time>2019-10-25T15:37:38.000Z</time>
      </trkpt>
      <trkpt lat="37.94850644655525684356689453125" lon="-1.2553118728101253509521484375">
        <ele>100.59999847412109375</ele>
        <time>2019-10-25T15:37:43.000Z</time>
      </trkpt>
      <trkpt lat="37.9484872519969940185546875" lon="-1.25531069934368133544921875">
        <ele>100.40000152587890625</ele>
        <time>2019-10-25T15:37:45.000Z</time>
      </trkpt>
      <trkpt lat="37.9486004076898097991943359375" lon="-1.255447827279567718505859375">
        <ele>101</ele>
        <time>2019-10-25T15:37:54.000Z</time>
      </trkpt>
      <trkpt lat="37.948625385761260986328125" lon="-1.25547037459909915924072265625">
        <ele>101</ele>
        <time>2019-10-25T15:37:55.000Z</time>
      </trkpt>
      <trkpt lat="37.94877818785607814788818359375" lon="-1.25560247339308261871337890625">
        <ele>100.8000030517578125</ele>
        <time>2019-10-25T15:38:01.000Z</time>
      </trkpt>
      <trkpt lat="37.9489289782941341400146484375" lon="-1.25575318001210689544677734375">
        <ele>100.40000152587890625</ele>
        <time>2019-10-25T15:38:07.000Z</time>
      </trkpt>
      <trkpt lat="37.94907624833285808563232421875" lon="-1.255887039005756378173828125">
        <ele>100.40000152587890625</ele>
        <time>2019-10-25T15:38:13.000Z</time>
      </trkpt>
      <trkpt lat="37.94923986308276653289794921875" lon="-1.25603531487286090850830078125">
        <ele>102.59999847412109375</ele>
        <time>2019-10-25T15:38:20.000Z</time>
      </trkpt>
      <trkpt lat="37.94940800406038761138916015625" lon="-1.256188116967678070068359375">
        <ele>104</ele>
        <time>2019-10-25T15:38:27.000Z</time>
      </trkpt>
      <trkpt lat="37.94958016835153102874755859375" lon="-1.256341673433780670166015625">
        <ele>106</ele>
        <time>2019-10-25T15:38:34.000Z</time>
      </trkpt>
      <trkpt lat="37.94972710311412811279296875" lon="-1.25647888518869876861572265625">
        <ele>105.59999847412109375</ele>
        <time>2019-10-25T15:38:40.000Z</time>
      </trkpt>
      <trkpt lat="37.9498900473117828369140625" lon="-1.25663646496832370758056640625">
        <ele>106.1999969482421875</ele>
        <time>2019-10-25T15:38:47.000Z</time>
      </trkpt>
      <trkpt lat="37.9500536620616912841796875" lon="-1.25679337419569492340087890625">
        <ele>107.1999969482421875</ele>
        <time>2019-10-25T15:38:54.000Z</time>
      </trkpt>
      <trkpt lat="37.950200177729129791259765625" lon="-1.25692882575094699859619140625">
        <ele>108.1999969482421875</ele>
        <time>2019-10-25T15:39:00.000Z</time>
      </trkpt>
      <trkpt lat="37.950349710881710052490234375" lon="-1.25706478022038936614990234375">
        <ele>109.1999969482421875</ele>
        <time>2019-10-25T15:39:06.000Z</time>
      </trkpt>
      <trkpt lat="37.9504987411201000213623046875" lon="-1.2571964599192142486572265625">
        <ele>109.1999969482421875</ele>
        <time>2019-10-25T15:39:12.000Z</time>
      </trkpt>
      <trkpt lat="37.95064584352076053619384765625" lon="-1.2573288939893245697021484375">
        <ele>108.59999847412109375</ele>
        <time>2019-10-25T15:39:18.000Z</time>
      </trkpt>
      <trkpt lat="37.95081230811774730682373046875" lon="-1.2574874795973300933837890625">
        <ele>108.59999847412109375</ele>
        <time>2019-10-25T15:39:25.000Z</time>
      </trkpt>
      <trkpt lat="37.95097391121089458465576171875" lon="-1.2576343305408954620361328125">
        <ele>109.59999847412109375</ele>
        <time>2019-10-25T15:39:31.000Z</time>
      </trkpt>
      <trkpt lat="37.9511453211307525634765625" lon="-1.25778730027377605438232421875">
        <ele>111.8000030517578125</ele>
        <time>2019-10-25T15:39:37.000Z</time>
      </trkpt>
      <trkpt lat="37.95130466111004352569580078125" lon="-1.25794353894889354705810546875">
        <ele>113.40000152587890625</ele>
        <time>2019-10-25T15:39:43.000Z</time>
      </trkpt>
      <trkpt lat="37.95145436190068721771240234375" lon="-1.258086450397968292236328125">
        <ele>115.1999969482421875</ele>
        <time>2019-10-25T15:39:49.000Z</time>
      </trkpt>
      <trkpt lat="37.95161194168031215667724609375" lon="-1.258229278028011322021484375">
        <ele>116.40000152587890625</ele>
        <time>2019-10-25T15:39:55.000Z</time>
      </trkpt>
      <trkpt lat="37.95176826417446136474609375" lon="-1.25836908817291259765625">
        <ele>117.8000030517578125</ele>
        <time>2019-10-25T15:40:01.000Z</time>
      </trkpt>
      <trkpt lat="37.95192911289632320404052734375" lon="-1.2585167773067951202392578125">
        <ele>117.40000152587890625</ele>
        <time>2019-10-25T15:40:07.000Z</time>
      </trkpt>
      <trkpt lat="37.952087111771106719970703125" lon="-1.2586337886750698089599609375">
        <ele>116.59999847412109375</ele>
        <time>2019-10-25T15:40:13.000Z</time>
      </trkpt>
      <trkpt lat="37.952237315475940704345703125" lon="-1.25878910534083843231201171875">
        <ele>115.59999847412109375</ele>
        <time>2019-10-25T15:40:19.000Z</time>
      </trkpt>
      <trkpt lat="37.95238425023853778839111328125" lon="-1.2589506246149539947509765625">
        <ele>114.1999969482421875</ele>
        <time>2019-10-25T15:40:25.000Z</time>
      </trkpt>
      <trkpt lat="37.95255239121615886688232421875" lon="-1.25908565707504749298095703125">
        <ele>114.59999847412109375</ele>
        <time>2019-10-25T15:40:30.000Z</time>
      </trkpt>
      <trkpt lat="37.95273595489561557769775390625" lon="-1.25925228931009769439697265625">
        <ele>115</ele>
        <time>2019-10-25T15:40:35.000Z</time>
      </trkpt>
      <trkpt lat="37.9527742601931095123291015625" lon="-1.25929201953113079071044921875">
        <ele>115.1999969482421875</ele>
        <time>2019-10-25T15:40:36.000Z</time>
      </trkpt>
      <trkpt lat="37.95293594710528850555419921875" lon="-1.25945060513913631439208984375">
        <ele>116</ele>
        <time>2019-10-25T15:40:40.000Z</time>
      </trkpt>
      <trkpt lat="37.95311900787055492401123046875" lon="-1.2596122920513153076171875">
        <ele>117.40000152587890625</ele>
        <time>2019-10-25T15:40:44.000Z</time>
      </trkpt>
      <trkpt lat="37.9532979615032672882080078125" lon="-1.25976861454546451568603515625">
        <ele>118.8000030517578125</ele>
        <time>2019-10-25T15:40:48.000Z</time>
      </trkpt>
      <trkpt lat="37.95344959013164043426513671875" lon="-1.25990205444395542144775390625">
        <ele>120.8000030517578125</ele>
        <time>2019-10-25T15:40:52.000Z</time>
      </trkpt>
      <trkpt lat="37.95358738861978054046630859375" lon="-1.2600950896739959716796875">
        <ele>119.8000030517578125</ele>
        <time>2019-10-25T15:40:58.000Z</time>
      </trkpt>
      <trkpt lat="37.9537328146398067474365234375" lon="-1.260257698595523834228515625">
        <ele>118.8000030517578125</ele>
        <time>2019-10-25T15:41:07.000Z</time>
      </trkpt>
      <trkpt lat="37.9538892209529876708984375" lon="-1.26037043519318103790283203125">
        <ele>118.1999969482421875</ele>
        <time>2019-10-25T15:41:14.000Z</time>
      </trkpt>
      <trkpt lat="37.9540563561022281646728515625" lon="-1.26045861281454563140869140625">
        <ele>119</ele>
        <time>2019-10-25T15:41:23.000Z</time>
      </trkpt>
      <trkpt lat="37.9540689289569854736328125" lon="-1.260466910898685455322265625">
        <ele>119.1999969482421875</ele>
        <time>2019-10-25T15:41:25.000Z</time>
      </trkpt>
      <trkpt lat="37.9540662467479705810546875" lon="-1.2604580260813236236572265625">
        <ele>119</ele>
        <time>2019-10-25T15:41:58.000Z</time>
      </trkpt>
      <trkpt lat="37.95419692061841487884521484375" lon="-1.2605525739490985870361328125">
        <ele>119.8000030517578125</ele>
        <time>2019-10-26T07:50:20.000Z</time>
      </trkpt>
      <trkpt lat="37.954079993069171905517578125" lon="-1.260538995265960693359375">
        <ele>119.40000152587890625</ele>
        <time>2019-10-26T07:50:49.000Z</time>
      </trkpt>
      <trkpt lat="37.95400790870189666748046875" lon="-1.26049297861754894256591796875">
        <ele>119</ele>
        <time>2019-10-26T07:50:53.000Z</time>
      </trkpt>
      <trkpt lat="37.9538731276988983154296875" lon="-1.26032835803925991058349609375">
        <ele>118.40000152587890625</ele>
        <time>2019-10-26T07:51:01.000Z</time>
      </trkpt>
      <trkpt lat="37.95368562452495098114013671875" lon="-1.26025074161589145660400390625">
        <ele>118</ele>
        <time>2019-10-26T07:51:09.000Z</time>
      </trkpt>
      <trkpt lat="37.95353114604949951171875" lon="-1.2601281143724918365478515625">
        <ele>118.1999969482421875</ele>
        <time>2019-10-26T07:51:16.000Z</time>
      </trkpt>
      <trkpt lat="37.95337398536503314971923828125" lon="-1.25999207608401775360107421875">
        <ele>118.40000152587890625</ele>
        <time>2019-10-26T07:51:25.000Z</time>
      </trkpt>
      <trkpt lat="37.9532101191580295562744140625" lon="-1.2598322331905364990234375">
        <ele>117.8000030517578125</ele>
        <time>2019-10-26T07:51:32.000Z</time>
      </trkpt>
      <trkpt lat="37.9530558921396732330322265625" lon="-1.2596996314823627471923828125">
        <ele>116.8000030517578125</ele>
        <time>2019-10-26T07:51:40.000Z</time>
      </trkpt>
      <trkpt lat="37.952905185520648956298828125" lon="-1.2595559656620025634765625">
        <ele>116</ele>
        <time>2019-10-26T07:51:49.000Z</time>
      </trkpt>
      <trkpt lat="37.95274618081748485565185546875" lon="-1.25941372476518154144287109375">
        <ele>115.1999969482421875</ele>
        <time>2019-10-26T07:51:57.000Z</time>
      </trkpt>
      <trkpt lat="37.95259111560881137847900390625" lon="-1.25927844084799289703369140625">
        <ele>114.59999847412109375</ele>
        <time>2019-10-26T07:52:05.000Z</time>
      </trkpt>
      <trkpt lat="37.95242900960147380828857421875" lon="-1.25913192518055438995361328125">
        <ele>114.40000152587890625</ele>
        <time>2019-10-26T07:52:14.000Z</time>
      </trkpt>
      <trkpt lat="37.9522844217717647552490234375" lon="-1.25899446196854114532470703125">
        <ele>114.59999847412109375</ele>
        <time>2019-10-26T07:52:22.000Z</time>
      </trkpt>
      <trkpt lat="37.9521318711340427398681640625" lon="-1.25886789523065090179443359375">
        <ele>114.59999847412109375</ele>
        <time>2019-10-26T07:52:31.000Z</time>
      </trkpt>
      <trkpt lat="37.95199365355074405670166015625" lon="-1.25871467404067516326904296875">
        <ele>114.8000030517578125</ele>
        <time>2019-10-26T07:52:39.000Z</time>
      </trkpt>
      <trkpt lat="37.95183598995208740234375" lon="-1.2585489638149738311767578125">
        <ele>115</ele>
        <time>2019-10-26T07:52:46.000Z</time>
      </trkpt>
      <trkpt lat="37.95166659168899059295654296875" lon="-1.25839364714920520782470703125">
        <ele>115</ele>
        <time>2019-10-26T07:52:52.000Z</time>
      </trkpt>
      <trkpt lat="37.95149811543524265289306640625" lon="-1.2582270987331867218017578125">
        <ele>114</ele>
        <time>2019-10-26T07:52:58.000Z</time>
      </trkpt>
      <trkpt lat="37.9513295553624629974365234375" lon="-1.25808619894087314605712890625">
        <ele>112.1999969482421875</ele>
        <time>2019-10-26T07:53:05.000Z</time>
      </trkpt>
      <trkpt lat="37.951182536780834197998046875" lon="-1.25795074738562107086181640625">
        <ele>110.1999969482421875</ele>
        <time>2019-10-26T07:53:12.000Z</time>
      </trkpt>
      <trkpt lat="37.95102797448635101318359375" lon="-1.25782032497227191925048828125">
        <ele>109.1999969482421875</ele>
        <time>2019-10-26T07:53:18.000Z</time>
      </trkpt>
      <trkpt lat="37.95087617821991443634033203125" lon="-1.2576738931238651275634765625">
        <ele>108.8000030517578125</ele>
        <time>2019-10-26T07:53:23.000Z</time>
      </trkpt>
      <trkpt lat="37.95072748325765132904052734375" lon="-1.25754036940634250640869140625">
        <ele>108.40000152587890625</ele>
        <time>2019-10-26T07:53:28.000Z</time>
      </trkpt>
      <trkpt lat="37.95057292096316814422607421875" lon="-1.25739184208214282989501953125">
        <ele>108</ele>
        <time>2019-10-26T07:53:33.000Z</time>
      </trkpt>
      <trkpt lat="37.95041483826935291290283203125" lon="-1.25724616460502147674560546875">
        <ele>107.59999847412109375</ele>
        <time>2019-10-26T07:53:37.000Z</time>
      </trkpt>
      <trkpt lat="37.95022171922028064727783203125" lon="-1.25706511549651622772216796875">
        <ele>106.8000030517578125</ele>
        <time>2019-10-26T07:53:41.000Z</time>
      </trkpt>
      <trkpt lat="37.950058691203594207763671875" lon="-1.25691424123942852020263671875">
        <ele>106.40000152587890625</ele>
        <time>2019-10-26T07:53:44.000Z</time>
      </trkpt>
      <trkpt lat="37.9498801566660404205322265625" lon="-1.2567535601556301116943359375">
        <ele>105.1999969482421875</ele>
        <time>2019-10-26T07:53:47.000Z</time>
      </trkpt>
      <trkpt lat="37.9496893845498561859130859375" lon="-1.25658181495964527130126953125">
        <ele>104.8000030517578125</ele>
        <time>2019-10-26T07:53:50.000Z</time>
      </trkpt>
      <trkpt lat="37.94949240982532501220703125" lon="-1.256397329270839691162109375">
        <ele>104.40000152587890625</ele>
        <time>2019-10-26T07:53:53.000Z</time>
      </trkpt>
      <trkpt lat="37.9492880590260028839111328125" lon="-1.25620429404079914093017578125">
        <ele>103.1999969482421875</ele>
        <time>2019-10-26T07:53:56.000Z</time>
      </trkpt>
      <trkpt lat="37.94909502379596233367919921875" lon="-1.25602014362812042236328125">
        <ele>101.8000030517578125</ele>
        <time>2019-10-26T07:53:59.000Z</time>
      </trkpt>
      <trkpt lat="37.949049174785614013671875" lon="-1.25597563572227954864501953125">
        <ele>101.59999847412109375</ele>
        <time>2019-10-26T07:54:01.000Z</time>
      </trkpt>
      <trkpt lat="37.9491827823221683502197265625" lon="-1.25609532929956912994384765625">
        <ele>102.40000152587890625</ele>
        <time>2019-10-26T07:54:12.000Z</time>
      </trkpt>
      <trkpt lat="37.9491988755762577056884765625" lon="-1.2560999393463134765625">
        <ele>102.59999847412109375</ele>
        <time>2019-10-26T07:54:13.000Z</time>
      </trkpt>
      <trkpt lat="37.94921823777258396148681640625" lon="-1.25610387884080410003662109375">
        <ele>102.59999847412109375</ele>
        <time>2019-10-26T07:54:15.000Z</time>
      </trkpt>
      <trkpt lat="37.949135340750217437744140625" lon="-1.2560773082077503204345703125">
        <ele>102.1999969482421875</ele>
        <time>2019-10-26T07:54:22.000Z</time>
      </trkpt>
      <trkpt lat="37.94900818727910518646240234375" lon="-1.25593255273997783660888671875">
        <ele>101.1999969482421875</ele>
        <time>2019-10-26T07:54:48.000Z</time>
      </trkpt>
      <trkpt lat="37.94884507544338703155517578125" lon="-1.25577379949390888214111328125">
        <ele>101</ele>
        <time>2019-10-26T07:54:54.000Z</time>
      </trkpt>
      <trkpt lat="37.9486902616918087005615234375" lon="-1.255634240806102752685546875">
        <ele>101</ele>
        <time>2019-10-26T07:54:58.000Z</time>
      </trkpt>
      <trkpt lat="37.948507033288478851318359375" lon="-1.255458556115627288818359375">
        <ele>100.8000030517578125</ele>
        <time>2019-10-26T07:55:02.000Z</time>
      </trkpt>
      <trkpt lat="37.9483536444604396820068359375" lon="-1.25532411038875579833984375">
        <ele>100.1999969482421875</ele>
        <time>2019-10-26T07:55:05.000Z</time>
      </trkpt>
      <trkpt lat="37.94819212518632411956787109375" lon="-1.255180947482585906982421875">
        <ele>99.59999847412109375</ele>
        <time>2019-10-26T07:55:08.000Z</time>
      </trkpt>
      <trkpt lat="37.94804058037698268890380859375" lon="-1.25503652729094028472900390625">
        <ele>99.1999969482421875</ele>
        <time>2019-10-26T07:55:11.000Z</time>
      </trkpt>
      <trkpt lat="37.94785617850720882415771484375" lon="-1.25487794168293476104736328125">
        <ele>98.59999847412109375</ele>
        <time>2019-10-26T07:55:15.000Z</time>
      </trkpt>
      <trkpt lat="37.9477712698280811309814453125" lon="-1.25481993891298770904541015625">
        <ele>98.40000152587890625</ele>
        <time>2019-10-26T07:55:17.000Z</time>
      </trkpt>
      <trkpt lat="37.94759382493793964385986328125" lon="-1.25482848845422267913818359375">
        <ele>98.1999969482421875</ele>
        <time>2019-10-26T07:55:21.000Z</time>
      </trkpt>
      <trkpt lat="37.94747966341674327850341796875" lon="-1.254971735179424285888671875">
        <ele>98</ele>
        <time>2019-10-26T07:55:25.000Z</time>
      </trkpt>
      <trkpt lat="37.94735376723110675811767578125" lon="-1.25516720116138458251953125">
        <ele>98.1999969482421875</ele>
        <time>2019-10-26T07:55:30.000Z</time>
      </trkpt>
      <trkpt lat="37.9473030567169189453125" lon="-1.25524230301380157470703125">
        <ele>98.1999969482421875</ele>
        <time>2019-10-26T07:55:32.000Z</time>
      </trkpt>
      <trkpt lat="37.947163917124271392822265625" lon="-1.2554376013576984405517578125">
        <ele>98</ele>
        <time>2019-10-26T07:55:37.000Z</time>
      </trkpt>
      <trkpt lat="37.9470356740057468414306640625" lon="-1.25562611036002635955810546875">
        <ele>98</ele>
        <time>2019-10-26T07:55:42.000Z</time>
      </trkpt>
      <trkpt lat="37.94690751470625400543212890625" lon="-1.255811937153339385986328125">
        <ele>98.1999969482421875</ele>
        <time>2019-10-26T07:55:47.000Z</time>
      </trkpt>
      <trkpt lat="37.946774661540985107421875" lon="-1.2560236640274524688720703125">
        <ele>98.59999847412109375</ele>
        <time>2019-10-26T07:55:52.000Z</time>
      </trkpt>
      <trkpt lat="37.94664097018539905548095703125" lon="-1.25622667372226715087890625">
        <ele>98.59999847412109375</ele>
        <time>2019-10-26T07:55:57.000Z</time>
      </trkpt>
      <trkpt lat="37.94651105068624019622802734375" lon="-1.2564340420067310333251953125">
        <ele>98.59999847412109375</ele>
        <time>2019-10-26T07:56:02.000Z</time>
      </trkpt>
      <trkpt lat="37.946376688778400421142578125" lon="-1.25664937309920787811279296875">
        <ele>98.8000030517578125</ele>
        <time>2019-10-26T07:56:07.000Z</time>
      </trkpt>
      <trkpt lat="37.94623847119510173797607421875" lon="-1.25684953294694423675537109375">
        <ele>98.8000030517578125</ele>
        <time>2019-10-26T07:56:12.000Z</time>
      </trkpt>
      <trkpt lat="37.94610084034502506256103515625" lon="-1.25705304555594921112060546875">
        <ele>99</ele>
        <time>2019-10-26T07:56:17.000Z</time>
      </trkpt>
      <trkpt lat="37.9459658078849315643310546875" lon="-1.25726393423974514007568359375">
        <ele>99</ele>
        <time>2019-10-26T07:56:22.000Z</time>
      </trkpt>
      <trkpt lat="37.94583312235772609710693359375" lon="-1.2574772536754608154296875">
        <ele>99</ele>
        <time>2019-10-26T07:56:27.000Z</time>
      </trkpt>
      <trkpt lat="37.94569666497409343719482421875" lon="-1.2576862983405590057373046875">
        <ele>99</ele>
        <time>2019-10-26T07:56:32.000Z</time>
      </trkpt>
      <trkpt lat="37.94556758366525173187255859375" lon="-1.25788587145507335662841796875">
        <ele>98.8000030517578125</ele>
        <time>2019-10-26T07:56:37.000Z</time>
      </trkpt>
      <trkpt lat="37.9454380832612514495849609375" lon="-1.2580859474837779998779296875">
        <ele>98.8000030517578125</ele>
        <time>2019-10-26T07:56:42.000Z</time>
      </trkpt>
      <trkpt lat="37.94530640356242656707763671875" lon="-1.25829189084470272064208984375">
        <ele>99</ele>
        <time>2019-10-26T07:56:47.000Z</time>
      </trkpt>
      <trkpt lat="37.9451782442629337310791015625" lon="-1.25849992968142032623291015625">
        <ele>99.1999969482421875</ele>
        <time>2019-10-26T07:56:52.000Z</time>
      </trkpt>
      <trkpt lat="37.94504924677312374114990234375" lon="-1.25870159827172756195068359375">
        <ele>99.40000152587890625</ele>
        <time>2019-10-26T07:56:57.000Z</time>
      </trkpt>
      <trkpt lat="37.94492016546428203582763671875" lon="-1.2588963098824024200439453125">
        <ele>99.40000152587890625</ele>
        <time>2019-10-26T07:57:02.000Z</time>
      </trkpt>
      <trkpt lat="37.94478957541286945343017578125" lon="-1.259084902703762054443359375">
        <ele>99.8000030517578125</ele>
        <time>2019-10-26T07:57:07.000Z</time>
      </trkpt>
      <trkpt lat="37.9446662776172161102294921875" lon="-1.25928078778088092803955078125">
        <ele>100.1999969482421875</ele>
        <time>2019-10-26T07:57:12.000Z</time>
      </trkpt>
      <trkpt lat="37.94453728012740612030029296875" lon="-1.2594743259251117706298828125">
        <ele>100.59999847412109375</ele>
        <time>2019-10-26T07:57:17.000Z</time>
      </trkpt>
      <trkpt lat="37.94441096484661102294921875" lon="-1.259676329791545867919921875">
        <ele>101</ele>
        <time>2019-10-26T07:57:22.000Z</time>
      </trkpt>
      <trkpt lat="37.9442790336906909942626953125" lon="-1.2598790042102336883544921875">
        <ele>101.1999969482421875</ele>
        <time>2019-10-26T07:57:27.000Z</time>
      </trkpt>
      <trkpt lat="37.94416294433176517486572265625" lon="-1.26009483821690082550048828125">
        <ele>101.59999847412109375</ele>
        <time>2019-10-26T07:57:32.000Z</time>
      </trkpt>
      <trkpt lat="37.94404408894479274749755859375" lon="-1.2603175453841686248779296875">
        <ele>102</ele>
        <time>2019-10-26T07:57:37.000Z</time>
      </trkpt>
      <trkpt lat="37.94402263127267360687255859375" lon="-1.2603651545941829681396484375">
        <ele>102.1999969482421875</ele>
        <time>2019-10-26T07:57:38.000Z</time>
      </trkpt>
      <trkpt lat="37.94390779919922351837158203125" lon="-1.2606065534055233001708984375">
        <ele>102.59999847412109375</ele>
        <time>2019-10-26T07:57:43.000Z</time>
      </trkpt>
      <trkpt lat="37.94381090439856052398681640625" lon="-1.26081266440451145172119140625">
        <ele>102.1999969482421875</ele>
        <time>2019-10-26T07:57:47.000Z</time>
      </trkpt>
      <trkpt lat="37.9437167756259441375732421875" lon="-1.2610152550041675567626953125">
        <ele>102</ele>
        <time>2019-10-26T07:57:51.000Z</time>
      </trkpt>
      <trkpt lat="37.943622730672359466552734375" lon="-1.261209547519683837890625">
        <ele>101.59999847412109375</ele>
        <time>2019-10-26T07:57:55.000Z</time>
      </trkpt>
      <trkpt lat="37.9435062222182750701904296875" lon="-1.26144357025623321533203125">
        <ele>101.40000152587890625</ele>
        <time>2019-10-26T07:58:00.000Z</time>
      </trkpt>
      <trkpt lat="37.9434022866189479827880859375" lon="-1.2616851367056369781494140625">
        <ele>101.59999847412109375</ele>
        <time>2019-10-26T07:58:05.000Z</time>
      </trkpt>
      <trkpt lat="37.94329977594316005706787109375" lon="-1.26190164126455783843994140625">
        <ele>102.40000152587890625</ele>
        <time>2019-10-26T07:58:10.000Z</time>
      </trkpt>
      <trkpt lat="37.94319969601929187774658203125" lon="-1.26211051829159259796142578125">
        <ele>103</ele>
        <time>2019-10-26T07:58:15.000Z</time>
      </trkpt>
      <trkpt lat="37.94308838434517383575439453125" lon="-1.26234236173331737518310546875">
        <ele>103.59999847412109375</ele>
        <time>2019-10-26T07:58:21.000Z</time>
      </trkpt>
      <trkpt lat="37.94299148954451084136962890625" lon="-1.26253631897270679473876953125">
        <ele>103.40000152587890625</ele>
        <time>2019-10-26T07:58:26.000Z</time>
      </trkpt>
      <trkpt lat="37.942885793745517730712890625" lon="-1.26274083741009235382080078125">
        <ele>103.1999969482421875</ele>
        <time>2019-10-26T07:58:31.000Z</time>
      </trkpt>
      <trkpt lat="37.94276517815887928009033203125" lon="-1.26295105554163455963134765625">
        <ele>103</ele>
        <time>2019-10-26T07:58:36.000Z</time>
      </trkpt>
      <trkpt lat="37.9426348395645618438720703125" lon="-1.263161189854145050048828125">
        <ele>103.1999969482421875</ele>
        <time>2019-10-26T07:58:41.000Z</time>
      </trkpt>
      <trkpt lat="37.9424967058002948760986328125" lon="-1.26336746849119663238525390625">
        <ele>103.8000030517578125</ele>
        <time>2019-10-26T07:58:46.000Z</time>
      </trkpt>
      <trkpt lat="37.94237994588911533355712890625" lon="-1.26355086453258991241455078125">
        <ele>104.1999969482421875</ele>
        <time>2019-10-26T07:58:54.000Z</time>
      </trkpt>
      <trkpt lat="37.94224281795322895050048828125" lon="-1.263755299150943756103515625">
        <ele>104.8000030517578125</ele>
        <time>2019-10-26T07:59:11.000Z</time>
      </trkpt>
      <trkpt lat="37.94210468418896198272705078125" lon="-1.2639479152858257293701171875">
        <ele>105.40000152587890625</ele>
        <time>2019-10-26T07:59:16.000Z</time>
      </trkpt>
      <trkpt lat="37.9419575817883014678955078125" lon="-1.264161653816699981689453125">
        <ele>106.1999969482421875</ele>
        <time>2019-10-26T07:59:21.000Z</time>
      </trkpt>
      <trkpt lat="37.94188893400132656097412109375" lon="-1.26425326801836490631103515625">
        <ele>106.59999847412109375</ele>
        <time>2019-10-26T07:59:23.000Z</time>
      </trkpt>
      <trkpt lat="37.9417450167238712310791015625" lon="-1.2644518353044986724853515625">
        <ele>107.40000152587890625</ele>
        <time>2019-10-26T07:59:27.000Z</time>
      </trkpt>
      <trkpt lat="37.94158970005810260772705078125" lon="-1.26467839814722537994384765625">
        <ele>108.1999969482421875</ele>
        <time>2019-10-26T07:59:31.000Z</time>
      </trkpt>
      <trkpt lat="37.9414544999599456787109375" lon="-1.264865733683109283447265625">
        <ele>108.8000030517578125</ele>
        <time>2019-10-26T07:59:34.000Z</time>
      </trkpt>
      <trkpt lat="37.941318713128566741943359375" lon="-1.2650650553405284881591796875">
        <ele>108.8000030517578125</ele>
        <time>2019-10-26T07:59:37.000Z</time>
      </trkpt>
      <trkpt lat="37.94117529876530170440673828125" lon="-1.26526613719761371612548828125">
        <ele>108.8000030517578125</ele>
        <time>2019-10-26T07:59:40.000Z</time>
      </trkpt>
      <trkpt lat="37.94103280641138553619384765625" lon="-1.2654740922152996063232421875">
        <ele>109</ele>
        <time>2019-10-26T07:59:43.000Z</time>
      </trkpt>
      <trkpt lat="37.94088377617299556732177734375" lon="-1.26568992622196674346923828125">
        <ele>109</ele>
        <time>2019-10-26T07:59:46.000Z</time>
      </trkpt>
      <trkpt lat="37.9407462291419506072998046875" lon="-1.26589578576385974884033203125">
        <ele>108.59999847412109375</ele>
        <time>2019-10-26T07:59:49.000Z</time>
      </trkpt>
      <trkpt lat="37.94060667045414447784423828125" lon="-1.2660910002887248992919921875">
        <ele>108.1999969482421875</ele>
        <time>2019-10-26T07:59:52.000Z</time>
      </trkpt>
      <trkpt lat="37.94047256000339984893798828125" lon="-1.26628655008971691131591796875">
        <ele>108</ele>
        <time>2019-10-26T07:59:55.000Z</time>
      </trkpt>
      <trkpt lat="37.94033744372427463531494140625" lon="-1.26647748984396457672119140625">
        <ele>107.59999847412109375</ele>
        <time>2019-10-26T07:59:58.000Z</time>
      </trkpt>
      <trkpt lat="37.94020148925483226776123046875" lon="-1.26667731441557407379150390625">
        <ele>107</ele>
        <time>2019-10-26T08:00:01.000Z</time>
      </trkpt>
      <trkpt lat="37.94006234966218471527099609375" lon="-1.26688334159553050994873046875">
        <ele>106.59999847412109375</ele>
        <time>2019-10-26T08:00:04.000Z</time>
      </trkpt>
      <trkpt lat="37.93992170132696628570556640625" lon="-1.267083585262298583984375">
        <ele>106.8000030517578125</ele>
        <time>2019-10-26T08:00:07.000Z</time>
      </trkpt>
      <trkpt lat="37.939789183437824249267578125" lon="-1.2672765366733074188232421875">
        <ele>107</ele>
        <time>2019-10-26T08:00:10.000Z</time>
      </trkpt>
      <trkpt lat="37.93966068886220455169677734375" lon="-1.267465464770793914794921875">
        <ele>107.1999969482421875</ele>
        <time>2019-10-26T08:00:13.000Z</time>
      </trkpt>
      <trkpt lat="37.939531691372394561767578125" lon="-1.26765497960150241851806640625">
        <ele>107.59999847412109375</ele>
        <time>2019-10-26T08:00:16.000Z</time>
      </trkpt>
      <trkpt lat="37.93940730392932891845703125" lon="-1.26783661544322967529296875">
        <ele>107.8000030517578125</ele>
        <time>2019-10-26T08:00:19.000Z</time>
      </trkpt>
      <trkpt lat="37.93928115628659725189208984375" lon="-1.26802914775907993316650390625">
        <ele>108</ele>
        <time>2019-10-26T08:00:22.000Z</time>
      </trkpt>
      <trkpt lat="37.9391432739794254302978515625" lon="-1.26823090016841888427734375">
        <ele>108</ele>
        <time>2019-10-26T08:00:25.000Z</time>
      </trkpt>
      <trkpt lat="37.93899348936975002288818359375" lon="-1.26844681799411773681640625">
        <ele>108.1999969482421875</ele>
        <time>2019-10-26T08:00:28.000Z</time>
      </trkpt>
      <trkpt lat="37.93884764425456523895263671875" lon="-1.268656365573406219482421875">
        <ele>108.40000152587890625</ele>
        <time>2019-10-26T08:00:31.000Z</time>
      </trkpt>
      <trkpt lat="37.9387141205370426177978515625" lon="-1.26884621568024158477783203125">
        <ele>108.40000152587890625</ele>
        <time>2019-10-26T08:00:34.000Z</time>
      </trkpt>
      <trkpt lat="37.938594929873943328857421875" lon="-1.26901888288557529449462890625">
        <ele>108.59999847412109375</ele>
        <time>2019-10-26T08:00:37.000Z</time>
      </trkpt>
      <trkpt lat="37.93844045139849185943603515625" lon="-1.26923739910125732421875">
        <ele>109</ele>
        <time>2019-10-26T08:00:41.000Z</time>
      </trkpt>
      <trkpt lat="37.938294522464275360107421875" lon="-1.26944728195667266845703125">
        <ele>110.1999969482421875</ele>
        <time>2019-10-26T08:00:45.000Z</time>
      </trkpt>
      <trkpt lat="37.93814532458782196044921875" lon="-1.269649453461170196533203125">
        <ele>111.40000152587890625</ele>
        <time>2019-10-26T08:00:49.000Z</time>
      </trkpt>
      <trkpt lat="37.93800526298582553863525390625" lon="-1.26985841430723667144775390625">
        <ele>112.40000152587890625</ele>
        <time>2019-10-26T08:00:53.000Z</time>
      </trkpt>
      <trkpt lat="37.93786578811705112457275390625" lon="-1.270062513649463653564453125">
        <ele>112.59999847412109375</ele>
        <time>2019-10-26T08:00:57.000Z</time>
      </trkpt>
      <trkpt lat="37.93770871125161647796630859375" lon="-1.27029008232057094573974609375">
        <ele>113</ele>
        <time>2019-10-26T08:01:01.000Z</time>
      </trkpt>
      <trkpt lat="37.93758885003626346588134765625" lon="-1.27047414891421794891357421875">
        <ele>113.1999969482421875</ele>
        <time>2019-10-26T08:01:04.000Z</time>
      </trkpt>
      <trkpt lat="37.93744384311139583587646484375" lon="-1.27068453468382358551025390625">
        <ele>112.8000030517578125</ele>
        <time>2019-10-26T08:01:08.000Z</time>
      </trkpt>
      <trkpt lat="37.93731107376515865325927734375" lon="-1.270865499973297119140625">
        <ele>112.1999969482421875</ele>
        <time>2019-10-26T08:01:12.000Z</time>
      </trkpt>
      <trkpt lat="37.937181405723094940185546875" lon="-1.271056272089481353759765625">
        <ele>111.59999847412109375</ele>
        <time>2019-10-26T08:01:16.000Z</time>
      </trkpt>
      <trkpt lat="37.93704771436750888824462890625" lon="-1.27124494872987270355224609375">
        <ele>111.1999969482421875</ele>
        <time>2019-10-26T08:01:20.000Z</time>
      </trkpt>
      <trkpt lat="37.936909161508083343505859375" lon="-1.271432451903820037841796875">
        <ele>110.8000030517578125</ele>
        <time>2019-10-26T08:01:24.000Z</time>
      </trkpt>
      <trkpt lat="37.9367792420089244842529296875" lon="-1.2716066278517246246337890625">
        <ele>110.59999847412109375</ele>
        <time>2019-10-26T08:01:28.000Z</time>
      </trkpt>
      <trkpt lat="37.93663063086569309234619140625" lon="-1.2718201987445354461669921875">
        <ele>110.8000030517578125</ele>
        <time>2019-10-26T08:01:33.000Z</time>
      </trkpt>
      <trkpt lat="37.93650574050843715667724609375" lon="-1.2720069475471973419189453125">
        <ele>111.40000152587890625</ele>
        <time>2019-10-26T08:01:37.000Z</time>
      </trkpt>
      <trkpt lat="37.93637012131512165069580078125" lon="-1.27220861613750457763671875">
        <ele>111.8000030517578125</ele>
        <time>2019-10-26T08:01:41.000Z</time>
      </trkpt>
      <trkpt lat="37.9362381063401699066162109375" lon="-1.272394359111785888671875">
        <ele>112.1999969482421875</ele>
        <time>2019-10-26T08:01:45.000Z</time>
      </trkpt>
      <trkpt lat="37.93609452433884143829345703125" lon="-1.2725802697241306304931640625">
        <ele>112.40000152587890625</ele>
        <time>2019-10-26T08:01:50.000Z</time>
      </trkpt>
      <trkpt lat="37.93597332201898097991943359375" lon="-1.2727321498095989227294921875">
        <ele>112.59999847412109375</ele>
        <time>2019-10-26T08:01:54.000Z</time>
      </trkpt>
      <trkpt lat="37.93591548688709735870361328125" lon="-1.2728109396994113922119140625">
        <ele>112.59999847412109375</ele>
        <time>2019-10-26T08:01:56.000Z</time>
      </trkpt>
      <trkpt lat="37.93585463427007198333740234375" lon="-1.272874809801578521728515625">
        <ele>112.8000030517578125</ele>
        <time>2019-10-26T08:01:58.000Z</time>
      </trkpt>
      <trkpt lat="37.9357244633138179779052734375" lon="-1.2729547731578350067138671875">
        <ele>113.40000152587890625</ele>
        <time>2019-10-26T08:02:02.000Z</time>
      </trkpt>
      <trkpt lat="37.93557518161833286285400390625" lon="-1.27303431741893291473388671875">
        <ele>114</ele>
        <time>2019-10-26T08:02:07.000Z</time>
      </trkpt>
      <trkpt lat="37.9354780353605747222900390625" lon="-1.27313800156116485595703125">
        <ele>114.59999847412109375</ele>
        <time>2019-10-26T08:02:11.000Z</time>
      </trkpt>
      <trkpt lat="37.93545481748878955841064453125" lon="-1.2731663323938846588134765625">
        <ele>114.40000152587890625</ele>
        <time>2019-10-26T08:02:12.000Z</time>
      </trkpt>
      <trkpt lat="37.9353311844170093536376953125" lon="-1.27333589829504489898681640625">
        <ele>114.40000152587890625</ele>
        <time>2019-10-26T08:02:18.000Z</time>
      </trkpt>
      <trkpt lat="37.93520336039364337921142578125" lon="-1.27353739924728870391845703125">
        <ele>114</ele>
        <time>2019-10-26T08:02:24.000Z</time>
      </trkpt>
      <trkpt lat="37.9350643046200275421142578125" lon="-1.27372632734477519989013671875">
        <ele>113.8000030517578125</ele>
        <time>2019-10-26T08:02:29.000Z</time>
      </trkpt>
      <trkpt lat="37.9349286854267120361328125" lon="-1.27391441725194454193115234375">
        <ele>112.8000030517578125</ele>
        <time>2019-10-26T08:02:34.000Z</time>
      </trkpt>
      <trkpt lat="37.93478124774992465972900390625" lon="-1.2741042673587799072265625">
        <ele>112.40000152587890625</ele>
        <time>2019-10-26T08:02:40.000Z</time>
      </trkpt>
      <trkpt lat="37.9346445389091968536376953125" lon="-1.27428992651402950286865234375">
        <ele>112</ele>
        <time>2019-10-26T08:02:45.000Z</time>
      </trkpt>
      <trkpt lat="37.9345043934881687164306640625" lon="-1.27449813298881053924560546875">
        <ele>111.59999847412109375</ele>
        <time>2019-10-26T08:02:50.000Z</time>
      </trkpt>
      <trkpt lat="37.934359721839427947998046875" lon="-1.27469460479915142059326171875">
        <ele>111.1999969482421875</ele>
        <time>2019-10-26T08:02:55.000Z</time>
      </trkpt>
      <trkpt lat="37.934216558933258056640625" lon="-1.2749007157981395721435546875">
        <ele>111.40000152587890625</ele>
        <time>2019-10-26T08:03:00.000Z</time>
      </trkpt>
      <trkpt lat="37.9340930096805095672607421875" lon="-1.275072209537029266357421875">
        <ele>112</ele>
        <time>2019-10-26T08:03:05.000Z</time>
      </trkpt>
      <trkpt lat="37.93401329778134822845458984375" lon="-1.27518779598176479339599609375">
        <ele>112.40000152587890625</ele>
        <time>2019-10-26T08:03:09.000Z</time>
      </trkpt>
      <trkpt lat="37.93388086371123790740966796875" lon="-1.27537974156439304351806640625">
        <ele>113</ele>
        <time>2019-10-26T08:03:15.000Z</time>
      </trkpt>
      <trkpt lat="37.9337527044117450714111328125" lon="-1.27557956613600254058837890625">
        <ele>113.59999847412109375</ele>
        <time>2019-10-26T08:03:21.000Z</time>
      </trkpt>
      <trkpt lat="37.93361498974263668060302734375" lon="-1.27577536739408969879150390625">
        <ele>114</ele>
        <time>2019-10-26T08:03:27.000Z</time>
      </trkpt>
      <trkpt lat="37.93348037637770175933837890625" lon="-1.275986172258853912353515625">
        <ele>114.40000152587890625</ele>
        <time>2019-10-26T08:03:33.000Z</time>
      </trkpt>
      <trkpt lat="37.93334056623280048370361328125" lon="-1.27618809230625629425048828125">
        <ele>115</ele>
        <time>2019-10-26T08:03:39.000Z</time>
      </trkpt>
      <trkpt lat="37.933216430246829986572265625" lon="-1.27637903206050395965576171875">
        <ele>115.40000152587890625</ele>
        <time>2019-10-26T08:03:45.000Z</time>
      </trkpt>
      <trkpt lat="37.9330935515463352203369140625" lon="-1.2765677087008953094482421875">
        <ele>115.8000030517578125</ele>
        <time>2019-10-26T08:03:51.000Z</time>
      </trkpt>
      <trkpt lat="37.93296706862747669219970703125" lon="-1.2767782621085643768310546875">
        <ele>115.8000030517578125</ele>
        <time>2019-10-26T08:03:57.000Z</time>
      </trkpt>
      <trkpt lat="37.93291443027555942535400390625" lon="-1.2768268771469593048095703125">
        <ele>115.8000030517578125</ele>
        <time>2019-10-26T08:03:59.000Z</time>
      </trkpt>
      <trkpt lat="37.93276523239910602569580078125" lon="-1.27671045251190662384033203125">
        <ele>115.59999847412109375</ele>
        <time>2019-10-26T08:04:04.000Z</time>
      </trkpt>
      <trkpt lat="37.932692058384418487548828125" lon="-1.276600062847137451171875">
        <ele>115.40000152587890625</ele>
        <time>2019-10-26T08:04:07.000Z</time>
      </trkpt>
      <trkpt lat="37.9325507394969463348388671875" lon="-1.276411302387714385986328125">
        <ele>114.8000030517578125</ele>
        <time>2019-10-26T08:04:13.000Z</time>
      </trkpt>
      <trkpt lat="37.93252618052065372467041015625" lon="-1.2761628627777099609375">
        <ele>113.8000030517578125</ele>
        <time>2019-10-26T08:04:19.000Z</time>
      </trkpt>
      <trkpt lat="37.9326845146715641021728515625" lon="-1.2760433368384838104248046875">
        <ele>113.59999847412109375</ele>
        <time>2019-10-26T08:04:27.000Z</time>
      </trkpt>
      <trkpt lat="37.93287285603582859039306640625" lon="-1.27617828547954559326171875">
        <ele>114.40000152587890625</ele>
        <time>2019-10-26T08:04:32.000Z</time>
      </trkpt>
      <trkpt lat="37.9330714233219623565673828125" lon="-1.27632656134665012359619140625">
        <ele>115.1999969482421875</ele>
        <time>2019-10-26T08:04:36.000Z</time>
      </trkpt>
      <trkpt lat="37.933291532099246978759765625" lon="-1.27627828158438205718994140625">
        <ele>115.1999969482421875</ele>
        <time>2019-10-26T08:04:40.000Z</time>
      </trkpt>
      <trkpt lat="37.93337208218872547149658203125" lon="-1.276164539158344268798828125">
        <ele>114.8000030517578125</ele>
        <time>2019-10-26T08:04:42.000Z</time>
      </trkpt>
      <trkpt lat="37.93349160812795162200927734375" lon="-1.27598424442112445831298828125">
        <ele>114.40000152587890625</ele>
        <time>2019-10-26T08:04:45.000Z</time>
      </trkpt>
      <trkpt lat="37.93360979296267032623291015625" lon="-1.2757994234561920166015625">
        <ele>114.1999969482421875</ele>
        <time>2019-10-26T08:04:48.000Z</time>
      </trkpt>
      <trkpt lat="37.93372713960707187652587890625" lon="-1.27561560831964015960693359375">
        <ele>113.8000030517578125</ele>
        <time>2019-10-26T08:04:51.000Z</time>
      </trkpt>
      <trkpt lat="37.93384985066950321197509765625" lon="-1.27543087117373943328857421875">
        <ele>113.1999969482421875</ele>
        <time>2019-10-26T08:04:54.000Z</time>
      </trkpt>
      <trkpt lat="37.93397675268352031707763671875" lon="-1.27524227835237979888916015625">
        <ele>112.59999847412109375</ele>
        <time>2019-10-26T08:04:57.000Z</time>
      </trkpt>
      <trkpt lat="37.9341050796210765838623046875" lon="-1.27505519427359104156494140625">
        <ele>112</ele>
        <time>2019-10-26T08:05:00.000Z</time>
      </trkpt>
      <trkpt lat="37.9342341609299182891845703125" lon="-1.274869032204151153564453125">
        <ele>111.40000152587890625</ele>
        <time>2019-10-26T08:05:03.000Z</time>
      </trkpt>
      <trkpt lat="37.934361733496189117431640625" lon="-1.274684630334377288818359375">
        <ele>111.1999969482421875</ele>
        <time>2019-10-26T08:05:06.000Z</time>
      </trkpt>
      <trkpt lat="37.934487797319889068603515625" lon="-1.27450735308229923248291015625">
        <ele>111.59999847412109375</ele>
        <time>2019-10-26T08:05:09.000Z</time>
      </trkpt>
      <trkpt lat="37.93461377732455730438232421875" lon="-1.274333260953426361083984375">
        <ele>111.8000030517578125</ele>
        <time>2019-10-26T08:05:12.000Z</time>
      </trkpt>
      <trkpt lat="37.934739589691162109375" lon="-1.27416201867163181304931640625">
        <ele>112.1999969482421875</ele>
        <time>2019-10-26T08:05:15.000Z</time>
      </trkpt>
      <trkpt lat="37.9349030368030071258544921875" lon="-1.27394375391304492950439453125">
        <ele>112.59999847412109375</ele>
        <time>2019-10-26T08:05:19.000Z</time>
      </trkpt>
      <trkpt lat="37.9350244067609310150146484375" lon="-1.273775361478328704833984375">
        <ele>113.59999847412109375</ele>
        <time>2019-10-26T08:05:22.000Z</time>
      </trkpt>
      <trkpt lat="37.93518542312085628509521484375" lon="-1.27355642616748809814453125">
        <ele>114</ele>
        <time>2019-10-26T08:05:26.000Z</time>
      </trkpt>
      <trkpt lat="37.9352664761245250701904296875" lon="-1.27345693297684192657470703125">
        <ele>114.1999969482421875</ele>
        <time>2019-10-26T08:05:28.000Z</time>
      </trkpt>
      <trkpt lat="37.93542422354221343994140625" lon="-1.2732451222836971282958984375">
        <ele>114.40000152587890625</ele>
        <time>2019-10-26T08:05:32.000Z</time>
      </trkpt>
      <trkpt lat="37.935592867434024810791015625" lon="-1.27303180284798145294189453125">
        <ele>114</ele>
        <time>2019-10-26T08:05:36.000Z</time>
      </trkpt>
      <trkpt lat="37.93572194874286651611328125" lon="-1.27286936156451702117919921875">
        <ele>113.40000152587890625</ele>
        <time>2019-10-26T08:05:39.000Z</time>
      </trkpt>
      <trkpt lat="37.93585077859461307525634765625" lon="-1.27270205877721309661865234375">
        <ele>112.59999847412109375</ele>
        <time>2019-10-26T08:05:42.000Z</time>
      </trkpt>
      <trkpt lat="37.935983128845691680908203125" lon="-1.2725350074470043182373046875">
        <ele>112.1999969482421875</ele>
        <time>2019-10-26T08:05:45.000Z</time>
      </trkpt>
      <trkpt lat="37.936112880706787109375" lon="-1.27236527390778064727783203125">
        <ele>112</ele>
        <time>2019-10-26T08:05:48.000Z</time>
      </trkpt>
      <trkpt lat="37.93624489568173885345458984375" lon="-1.27219864167273044586181640625">
        <ele>111.8000030517578125</ele>
        <time>2019-10-26T08:05:51.000Z</time>
      </trkpt>
      <trkpt lat="37.9363816045224666595458984375" lon="-1.27203200943768024444580078125">
        <ele>111.40000152587890625</ele>
        <time>2019-10-26T08:05:54.000Z</time>
      </trkpt>
      <trkpt lat="37.93651345185935497283935546875" lon="-1.27185867168009281158447265625">
        <ele>111</ele>
        <time>2019-10-26T08:05:57.000Z</time>
      </trkpt>
      <trkpt lat="37.9366417787969112396240234375" lon="-1.2716803885996341705322265625">
        <ele>110.59999847412109375</ele>
        <time>2019-10-26T08:06:00.000Z</time>
      </trkpt>
      <trkpt lat="37.93676801025867462158203125" lon="-1.2714983336627483367919921875">
        <ele>110.1999969482421875</ele>
        <time>2019-10-26T08:06:03.000Z</time>
      </trkpt>
      <trkpt lat="37.93689549900591373443603515625" lon="-1.27131418325006961822509765625">
        <ele>110.59999847412109375</ele>
        <time>2019-10-26T08:06:06.000Z</time>
      </trkpt>
      <trkpt lat="37.93702290393412113189697265625" lon="-1.27112642861902713775634765625">
        <ele>111.1999969482421875</ele>
        <time>2019-10-26T08:06:09.000Z</time>
      </trkpt>
      <trkpt lat="37.9371483810245990753173828125" lon="-1.270941607654094696044921875">
        <ele>111.8000030517578125</ele>
        <time>2019-10-26T08:06:12.000Z</time>
      </trkpt>
      <trkpt lat="37.93726849369704723358154296875" lon="-1.2707674317061901092529296875">
        <ele>112.40000152587890625</ele>
        <time>2019-10-26T08:06:15.000Z</time>
      </trkpt>
      <trkpt lat="37.9374196194112300872802734375" lon="-1.2705444730818271636962890625">
        <ele>113.1999969482421875</ele>
        <time>2019-10-26T08:06:19.000Z</time>
      </trkpt>
      <trkpt lat="37.9375376366078853607177734375" lon="-1.27037222497165203094482421875">
        <ele>113.40000152587890625</ele>
        <time>2019-10-26T08:06:22.000Z</time>
      </trkpt>
      <trkpt lat="37.93765808455646038055419921875" lon="-1.2701957859098911285400390625">
        <ele>113.1999969482421875</ele>
        <time>2019-10-26T08:06:25.000Z</time>
      </trkpt>
      <trkpt lat="37.93778096325695514678955078125" lon="-1.2700180895626544952392578125">
        <ele>113</ele>
        <time>2019-10-26T08:06:28.000Z</time>
      </trkpt>
      <trkpt lat="37.93793401680886745452880859375" lon="-1.2698041833937168121337890625">
        <ele>112.59999847412109375</ele>
        <time>2019-10-26T08:06:32.000Z</time>
      </trkpt>
      <trkpt lat="37.93807432986795902252197265625" lon="-1.2695986591279506683349609375">
        <ele>111.40000152587890625</ele>
        <time>2019-10-26T08:06:36.000Z</time>
      </trkpt>
      <trkpt lat="37.9382264614105224609375" lon="-1.2693770416080951690673828125">
        <ele>110.1999969482421875</ele>
        <time>2019-10-26T08:06:40.000Z</time>
      </trkpt>
      <trkpt lat="37.938376329839229583740234375" lon="-1.26915802247822284698486328125">
        <ele>108.8000030517578125</ele>
        <time>2019-10-26T08:06:44.000Z</time>
      </trkpt>
      <trkpt lat="37.93851119466125965118408203125" lon="-1.2689576111733913421630859375">
        <ele>108.1999969482421875</ele>
        <time>2019-10-26T08:06:48.000Z</time>
      </trkpt>
      <trkpt lat="37.938649244606494903564453125" lon="-1.26874429173767566680908203125">
        <ele>108</ele>
        <time>2019-10-26T08:06:52.000Z</time>
      </trkpt>
      <trkpt lat="37.93879819102585315704345703125" lon="-1.26852862536907196044921875">
        <ele>108</ele>
        <time>2019-10-26T08:06:56.000Z</time>
      </trkpt>
      <trkpt lat="37.93895711190998554229736328125" lon="-1.26831538975238800048828125">
        <ele>107.8000030517578125</ele>
        <time>2019-10-26T08:07:00.000Z</time>
      </trkpt>
      <trkpt lat="37.939109914004802703857421875" lon="-1.26808849163353443145751953125">
        <ele>107.8000030517578125</ele>
        <time>2019-10-26T08:07:04.000Z</time>
      </trkpt>
      <trkpt lat="37.93922667391598224639892578125" lon="-1.26791465096175670623779296875">
        <ele>108.1999969482421875</ele>
        <time>2019-10-26T08:07:07.000Z</time>
      </trkpt>
      <trkpt lat="37.93934502638876438140869140625" lon="-1.26773494295775890350341796875">
        <ele>108</ele>
        <time>2019-10-26T08:07:10.000Z</time>
      </trkpt>
      <trkpt lat="37.9394701682031154632568359375" lon="-1.26755808480083942413330078125">
        <ele>107.8000030517578125</ele>
        <time>2019-10-26T08:07:13.000Z</time>
      </trkpt>
      <trkpt lat="37.93959438800811767578125" lon="-1.267378292977809906005859375">
        <ele>107.59999847412109375</ele>
        <time>2019-10-26T08:07:16.000Z</time>
      </trkpt>
      <trkpt lat="37.93971835635602474212646484375" lon="-1.2671990878880023956298828125">
        <ele>107.40000152587890625</ele>
        <time>2019-10-26T08:07:19.000Z</time>
      </trkpt>
      <trkpt lat="37.93983737938106060028076171875" lon="-1.2670193798840045928955078125">
        <ele>107.1999969482421875</ele>
        <time>2019-10-26T08:07:22.000Z</time>
      </trkpt>
      <trkpt lat="37.93996562249958515167236328125" lon="-1.26683807931840419769287109375">
        <ele>107</ele>
        <time>2019-10-26T08:07:25.000Z</time>
      </trkpt>
      <trkpt lat="37.94009235687553882598876953125" lon="-1.2666539289057254791259765625">
        <ele>106.8000030517578125</ele>
        <time>2019-10-26T08:07:28.000Z</time>
      </trkpt>
      <trkpt lat="37.94022395275533199310302734375" lon="-1.2664802558720111846923828125">
        <ele>107.40000152587890625</ele>
        <time>2019-10-26T08:07:31.000Z</time>
      </trkpt>
      <trkpt lat="37.9403507709503173828125" lon="-1.2663035653531551361083984375">
        <ele>107.59999847412109375</ele>
        <time>2019-10-26T08:07:34.000Z</time>
      </trkpt>
      <trkpt lat="37.9404756613075733184814453125" lon="-1.2661275453865528106689453125">
        <ele>108</ele>
        <time>2019-10-26T08:07:37.000Z</time>
      </trkpt>
      <trkpt lat="37.94059954583644866943359375" lon="-1.265954039990901947021484375">
        <ele>108.1999969482421875</ele>
        <time>2019-10-26T08:07:40.000Z</time>
      </trkpt>
      <trkpt lat="37.940727286040782928466796875" lon="-1.2657795287668704986572265625">
        <ele>108.40000152587890625</ele>
        <time>2019-10-26T08:07:43.000Z</time>
      </trkpt>
      <trkpt lat="37.9408551938831806182861328125" lon="-1.265603005886077880859375">
        <ele>108.59999847412109375</ele>
        <time>2019-10-26T08:07:46.000Z</time>
      </trkpt>
      <trkpt lat="37.94100590050220489501953125" lon="-1.26537024043500423431396484375">
        <ele>108.8000030517578125</ele>
        <time>2019-10-26T08:07:50.000Z</time>
      </trkpt>
      <trkpt lat="37.941157110035419464111328125" lon="-1.265150718390941619873046875">
        <ele>108.8000030517578125</ele>
        <time>2019-10-26T08:07:54.000Z</time>
      </trkpt>
      <trkpt lat="37.9412052221596240997314453125" lon="-1.26507989130914211273193359375">
        <ele>108.8000030517578125</ele>
        <time>2019-10-26T08:07:56.000Z</time>
      </trkpt>
      <trkpt lat="37.94127839617431163787841796875" lon="-1.26497562043368816375732421875">
        <ele>108.59999847412109375</ele>
        <time>2019-10-26T08:07:59.000Z</time>
      </trkpt>
      <trkpt lat="37.94142424128949642181396484375" lon="-1.2647747062146663665771484375">
        <ele>108.59999847412109375</ele>
        <time>2019-10-26T08:08:03.000Z</time>
      </trkpt>
      <trkpt lat="37.941550724208354949951171875" lon="-1.26458569429814815521240234375">
        <ele>107.8000030517578125</ele>
        <time>2019-10-26T08:08:06.000Z</time>
      </trkpt>
      <trkpt lat="37.94167771004140377044677734375" lon="-1.2643928267061710357666015625">
        <ele>107</ele>
        <time>2019-10-26T08:08:09.000Z</time>
      </trkpt>
      <trkpt lat="37.94180142693221569061279296875" lon="-1.264217980206012725830078125">
        <ele>106.40000152587890625</ele>
        <time>2019-10-26T08:08:12.000Z</time>
      </trkpt>
      <trkpt lat="37.94195615686476230621337890625" lon="-1.26400281675159931182861328125">
        <ele>105.40000152587890625</ele>
        <time>2019-10-26T08:08:16.000Z</time>
      </trkpt>
      <trkpt lat="37.9421094618737697601318359375" lon="-1.26378245651721954345703125">
        <ele>104.8000030517578125</ele>
        <time>2019-10-26T08:08:20.000Z</time>
      </trkpt>
      <trkpt lat="37.94225740246474742889404296875" lon="-1.263562180101871490478515625">
        <ele>104.1999969482421875</ele>
        <time>2019-10-26T08:08:24.000Z</time>
      </trkpt>
      <trkpt lat="37.9423240385949611663818359375" lon="-1.2634523771703243255615234375">
        <ele>103.8000030517578125</ele>
        <time>2019-10-26T08:08:27.000Z</time>
      </trkpt>
      <trkpt lat="37.9422268085181713104248046875" lon="-1.2633326835930347442626953125">
        <ele>103.40000152587890625</ele>
        <time>2019-10-26T08:08:31.000Z</time>
      </trkpt>
      <trkpt lat="37.942049615085124969482421875" lon="-1.26319027505815029144287109375">
        <ele>103.1999969482421875</ele>
        <time>2019-10-26T08:08:35.000Z</time>
      </trkpt>
      <trkpt lat="37.94185616075992584228515625" lon="-1.263022385537624359130859375">
        <ele>103.1999969482421875</ele>
        <time>2019-10-26T08:08:39.000Z</time>
      </trkpt>
      <trkpt lat="37.94171291403472423553466796875" lon="-1.26288299448788166046142578125">
        <ele>103.1999969482421875</ele>
        <time>2019-10-26T08:08:42.000Z</time>
      </trkpt>
      <trkpt lat="37.9415478743612766265869140625" lon="-1.26272298395633697509765625">
        <ele>103.1999969482421875</ele>
        <time>2019-10-26T08:08:46.000Z</time>
      </trkpt>
      <trkpt lat="37.94139725156128406524658203125" lon="-1.26256766729056835174560546875">
        <ele>103.1999969482421875</ele>
        <time>2019-10-26T08:08:51.000Z</time>
      </trkpt>
      <trkpt lat="37.94125928543508052825927734375" lon="-1.2624210678040981292724609375">
        <ele>102.8000030517578125</ele>
        <time>2019-10-26T08:08:56.000Z</time>
      </trkpt>
      <trkpt lat="37.9411019571125507354736328125" lon="-1.2622542679309844970703125">
        <ele>102.40000152587890625</ele>
        <time>2019-10-26T08:09:01.000Z</time>
      </trkpt>
      <trkpt lat="37.94096700847148895263671875" lon="-1.262097023427486419677734375">
        <ele>101.8000030517578125</ele>
        <time>2019-10-26T08:09:05.000Z</time>
      </trkpt>
      <trkpt lat="37.940821163356304168701171875" lon="-1.2618883140385150909423828125">
        <ele>101</ele>
        <time>2019-10-26T08:09:09.000Z</time>
      </trkpt>
      <trkpt lat="37.94071018695831298828125" lon="-1.261669211089611053466796875">
        <ele>100.1999969482421875</ele>
        <time>2019-10-26T08:09:12.000Z</time>
      </trkpt>
      <trkpt lat="37.9406178183853626251220703125" lon="-1.2614201009273529052734375">
        <ele>100</ele>
        <time>2019-10-26T08:09:15.000Z</time>
      </trkpt>
      <trkpt lat="37.94052989222109317779541015625" lon="-1.26123678870499134063720703125">
        <ele>99.40000152587890625</ele>
        <time>2019-10-26T08:09:17.000Z</time>
      </trkpt>
      <trkpt lat="37.9404132999479770660400390625" lon="-1.26106110401451587677001953125">
        <ele>99.1999969482421875</ele>
        <time>2019-10-26T08:09:19.000Z</time>
      </trkpt>
      <trkpt lat="37.94022160582244396209716796875" lon="-1.26082599163055419921875">
        <ele>99</ele>
        <time>2019-10-26T08:09:22.000Z</time>
      </trkpt>
      <trkpt lat="37.94002831913530826568603515625" lon="-1.26061351038515567779541015625">
        <ele>99</ele>
        <time>2019-10-26T08:09:25.000Z</time>
      </trkpt>
      <trkpt lat="37.9398339428007602691650390625" lon="-1.26040999777615070343017578125">
        <ele>98.8000030517578125</ele>
        <time>2019-10-26T08:09:28.000Z</time>
      </trkpt>
      <trkpt lat="37.93964258395135402679443359375" lon="-1.26020983792841434478759765625">
        <ele>98.40000152587890625</ele>
        <time>2019-10-26T08:09:31.000Z</time>
      </trkpt>
      <trkpt lat="37.93946220539510250091552734375" lon="-1.26002208329737186431884765625">
        <ele>96.8000030517578125</ele>
        <time>2019-10-26T08:09:34.000Z</time>
      </trkpt>
      <trkpt lat="37.9392864368855953216552734375" lon="-1.259833909571170806884765625">
        <ele>95.40000152587890625</ele>
        <time>2019-10-26T08:09:37.000Z</time>
      </trkpt>
      <trkpt lat="37.93911653570830821990966796875" lon="-1.2596547044813632965087890625">
        <ele>94.40000152587890625</ele>
        <time>2019-10-26T08:09:40.000Z</time>
      </trkpt>
      <trkpt lat="37.9389519989490509033203125" lon="-1.25948413275182247161865234375">
        <ele>93.59999847412109375</ele>
        <time>2019-10-26T08:09:43.000Z</time>
      </trkpt>
      <trkpt lat="37.93879919685423374176025390625" lon="-1.25931062735617160797119140625">
        <ele>93</ele>
        <time>2019-10-26T08:09:46.000Z</time>
      </trkpt>
      <trkpt lat="37.93864346109330654144287109375" lon="-1.2591494433581829071044921875">
        <ele>93</ele>
        <time>2019-10-26T08:09:49.000Z</time>
      </trkpt>
      <trkpt lat="37.938488982617855072021484375" lon="-1.25899395905435085296630859375">
        <ele>93</ele>
        <time>2019-10-26T08:09:52.000Z</time>
      </trkpt>
      <trkpt lat="37.9383329115808010101318359375" lon="-1.25884207896888256072998046875">
        <ele>93</ele>
        <time>2019-10-26T08:09:55.000Z</time>
      </trkpt>
      <trkpt lat="37.938177846372127532958984375" lon="-1.25868936069309711456298828125">
        <ele>93</ele>
        <time>2019-10-26T08:09:58.000Z</time>
      </trkpt>
      <trkpt lat="37.9380264692008495330810546875" lon="-1.258538067340850830078125">
        <ele>93</ele>
        <time>2019-10-26T08:10:01.000Z</time>
      </trkpt>
      <trkpt lat="37.93788037262856960296630859375" lon="-1.2583830021321773529052734375">
        <ele>92.59999847412109375</ele>
        <time>2019-10-26T08:10:04.000Z</time>
      </trkpt>
      <trkpt lat="37.9377361200749874114990234375" lon="-1.25823707319796085357666015625">
        <ele>92.40000152587890625</ele>
        <time>2019-10-26T08:10:07.000Z</time>
      </trkpt>
      <trkpt lat="37.9375550709664821624755859375" lon="-1.2580577842891216278076171875">
        <ele>91.59999847412109375</ele>
        <time>2019-10-26T08:10:11.000Z</time>
      </trkpt>
      <trkpt lat="37.937371172010898590087890625" lon="-1.2578639946877956390380859375">
        <ele>90.59999847412109375</ele>
        <time>2019-10-26T08:10:15.000Z</time>
      </trkpt>
      <trkpt lat="37.937223650515079498291015625" lon="-1.257706917822360992431640625">
        <ele>89.59999847412109375</ele>
        <time>2019-10-26T08:10:18.000Z</time>
      </trkpt>
      <trkpt lat="37.937081158161163330078125" lon="-1.2575555406510829925537109375">
        <ele>89.40000152587890625</ele>
        <time>2019-10-26T08:10:21.000Z</time>
      </trkpt>
      <trkpt lat="37.93694042600691318511962890625" lon="-1.2573996372520923614501953125">
        <ele>89.59999847412109375</ele>
        <time>2019-10-26T08:10:24.000Z</time>
      </trkpt>
      <trkpt lat="37.93680396862328052520751953125" lon="-1.2572427280247211456298828125">
        <ele>89.8000030517578125</ele>
        <time>2019-10-26T08:10:27.000Z</time>
      </trkpt>
      <trkpt lat="37.93663096614181995391845703125" lon="-1.2570492736995220184326171875">
        <ele>88.8000030517578125</ele>
        <time>2019-10-26T08:10:31.000Z</time>
      </trkpt>
      <trkpt lat="37.936474643647670745849609375" lon="-1.2568705715239048004150390625">
        <ele>87.8000030517578125</ele>
        <time>2019-10-26T08:10:35.000Z</time>
      </trkpt>
      <trkpt lat="37.93631547130644321441650390625" lon="-1.256695725023746490478515625">
        <ele>87.8000030517578125</ele>
        <time>2019-10-26T08:10:39.000Z</time>
      </trkpt>
      <trkpt lat="37.9361623339354991912841796875" lon="-1.25653018243610858917236328125">
        <ele>88.1999969482421875</ele>
        <time>2019-10-26T08:10:43.000Z</time>
      </trkpt>
      <trkpt lat="37.93601824901998043060302734375" lon="-1.256371848285198211669921875">
        <ele>88.59999847412109375</ele>
        <time>2019-10-26T08:10:47.000Z</time>
      </trkpt>
      <trkpt lat="37.93586905114352703094482421875" lon="-1.2562161125242710113525390625">
        <ele>88</ele>
        <time>2019-10-26T08:10:52.000Z</time>
      </trkpt>
      <trkpt lat="37.9357050172984600067138671875" lon="-1.25606582500040531158447265625">
        <ele>86.8000030517578125</ele>
        <time>2019-10-26T08:10:58.000Z</time>
      </trkpt>
      <trkpt lat="37.9355269856750965118408203125" lon="-1.25589785166084766387939453125">
        <ele>86</ele>
        <time>2019-10-26T08:11:03.000Z</time>
      </trkpt>
      <trkpt lat="37.93536663986742496490478515625" lon="-1.25573088414967060089111328125">
        <ele>86</ele>
        <time>2019-10-26T08:11:07.000Z</time>
      </trkpt>
      <trkpt lat="37.935193888843059539794921875" lon="-1.2555609829723834991455078125">
        <ele>86</ele>
        <time>2019-10-26T08:11:11.000Z</time>
      </trkpt>
      <trkpt lat="37.93501392938196659088134765625" lon="-1.25539024360477924346923828125">
        <ele>85.59999847412109375</ele>
        <time>2019-10-26T08:11:15.000Z</time>
      </trkpt>
      <trkpt lat="37.93486339040100574493408203125" lon="-1.2552642636001110076904296875">
        <ele>85.40000152587890625</ele>
        <time>2019-10-26T08:11:19.000Z</time>
      </trkpt>
      <trkpt lat="37.93478527106344699859619140625" lon="-1.25521455891430377960205078125">
        <ele>85.1999969482421875</ele>
        <time>2019-10-26T08:11:22.000Z</time>
      </trkpt>
      <trkpt lat="37.93463272042572498321533203125" lon="-1.25533877871930599212646484375">
        <ele>85.1999969482421875</ele>
        <time>2019-10-26T08:11:28.000Z</time>
      </trkpt>
      <trkpt lat="37.93461478315293788909912109375" lon="-1.2553745694458484649658203125">
        <ele>85.1999969482421875</ele>
        <time>2019-10-26T08:11:29.000Z</time>
      </trkpt>
      <trkpt lat="37.9344995319843292236328125" lon="-1.2555901519954204559326171875">
        <ele>85.1999969482421875</ele>
        <time>2019-10-26T08:11:34.000Z</time>
      </trkpt>
      <trkpt lat="37.93436667881906032562255859375" lon="-1.255799867212772369384765625">
        <ele>85.1999969482421875</ele>
        <time>2019-10-26T08:11:39.000Z</time>
      </trkpt>
      <trkpt lat="37.93423005379736423492431640625" lon="-1.2560193054378032684326171875">
        <ele>85</ele>
        <time>2019-10-26T08:11:44.000Z</time>
      </trkpt>
      <trkpt lat="37.93411505408585071563720703125" lon="-1.25621066428720951080322265625">
        <ele>84.8000030517578125</ele>
        <time>2019-10-26T08:11:48.000Z</time>
      </trkpt>
      <trkpt lat="37.933998294174671173095703125" lon="-1.256404705345630645751953125">
        <ele>84.8000030517578125</ele>
        <time>2019-10-26T08:11:52.000Z</time>
      </trkpt>
      <trkpt lat="37.93397205881774425506591796875" lon="-1.25645441003143787384033203125">
        <ele>84.59999847412109375</ele>
        <time>2019-10-26T08:11:53.000Z</time>
      </trkpt>
      <trkpt lat="37.9338308237493038177490234375" lon="-1.25667460262775421142578125">
        <ele>85</ele>
        <time>2019-10-26T08:11:58.000Z</time>
      </trkpt>
      <trkpt lat="37.93369143269956111907958984375" lon="-1.2568910233676433563232421875">
        <ele>85.40000152587890625</ele>
        <time>2019-10-26T08:12:03.000Z</time>
      </trkpt>
      <trkpt lat="37.933573834598064422607421875" lon="-1.2570695579051971435546875">
        <ele>85.59999847412109375</ele>
        <time>2019-10-26T08:12:07.000Z</time>
      </trkpt>
      <trkpt lat="37.9334331862628459930419921875" lon="-1.25728203915059566497802734375">
        <ele>86</ele>
        <time>2019-10-26T08:12:12.000Z</time>
      </trkpt>
      <trkpt lat="37.9333228804171085357666015625" lon="-1.25747331418097019195556640625">
        <ele>86</ele>
        <time>2019-10-26T08:12:16.000Z</time>
      </trkpt>
      <trkpt lat="37.9332088865339756011962890625" lon="-1.25768386758863925933837890625">
        <ele>86.1999969482421875</ele>
        <time>2019-10-26T08:12:20.000Z</time>
      </trkpt>
      <trkpt lat="37.93309472501277923583984375" lon="-1.2578834407031536102294921875">
        <ele>86.40000152587890625</ele>
        <time>2019-10-26T08:12:24.000Z</time>
      </trkpt>
      <trkpt lat="37.93298450298607349395751953125" lon="-1.25808636657893657684326171875">
        <ele>86.59999847412109375</ele>
        <time>2019-10-26T08:12:28.000Z</time>
      </trkpt>
      <trkpt lat="37.9328692518174648284912109375" lon="-1.25827780924737453460693359375">
        <ele>86.59999847412109375</ele>
        <time>2019-10-26T08:12:32.000Z</time>
      </trkpt>
      <trkpt lat="37.9327626340091228485107421875" lon="-1.2584758736193180084228515625">
        <ele>86.8000030517578125</ele>
        <time>2019-10-26T08:12:36.000Z</time>
      </trkpt>
      <trkpt lat="37.93267630040645599365234375" lon="-1.25861786305904388427734375">
        <ele>86.8000030517578125</ele>
        <time>2019-10-26T08:12:39.000Z</time>
      </trkpt>
      <trkpt lat="37.93256708420813083648681640625" lon="-1.2588094733655452728271484375">
        <ele>87</ele>
        <time>2019-10-26T08:12:43.000Z</time>
      </trkpt>
      <trkpt lat="37.9325158707797527313232421875" lon="-1.2588899396359920501708984375">
        <ele>87</ele>
        <time>2019-10-26T08:12:45.000Z</time>
      </trkpt>
      <trkpt lat="37.9323913156986236572265625" lon="-1.2591155804693698883056640625">
        <ele>87.1999969482421875</ele>
        <time>2019-10-26T08:12:50.000Z</time>
      </trkpt>
      <trkpt lat="37.9322620667517185211181640625" lon="-1.2593405507504940032958984375">
        <ele>87.59999847412109375</ele>
        <time>2019-10-26T08:12:55.000Z</time>
      </trkpt>
      <trkpt lat="37.93213223107159137725830078125" lon="-1.25954984687268733978271484375">
        <ele>87.8000030517578125</ele>
        <time>2019-10-26T08:13:00.000Z</time>
      </trkpt>
      <trkpt lat="37.93203081004321575164794921875" lon="-1.25971077941358089447021484375">
        <ele>88.1999969482421875</ele>
        <time>2019-10-26T08:13:04.000Z</time>
      </trkpt>
      <trkpt lat="37.93189971707761287689208984375" lon="-1.2599219195544719696044921875">
        <ele>88.1999969482421875</ele>
        <time>2019-10-26T08:13:09.000Z</time>
      </trkpt>
      <trkpt lat="37.93180298991501331329345703125" lon="-1.2601004540920257568359375">
        <ele>88</ele>
        <time>2019-10-26T08:13:13.000Z</time>
      </trkpt>
      <trkpt lat="37.9316699691116809844970703125" lon="-1.26029499806463718414306640625">
        <ele>87.8000030517578125</ele>
        <time>2019-10-26T08:13:18.000Z</time>
      </trkpt>
      <trkpt lat="37.9315422289073467254638671875" lon="-1.2605046294629573822021484375">
        <ele>87.59999847412109375</ele>
        <time>2019-10-26T08:13:23.000Z</time>
      </trkpt>
      <trkpt lat="37.93149285949766635894775390625" lon="-1.2605901248753070831298828125">
        <ele>87.40000152587890625</ele>
        <time>2019-10-26T08:13:25.000Z</time>
      </trkpt>
      <trkpt lat="37.93139244429767131805419921875" lon="-1.26077310182154178619384765625">
        <ele>87.59999847412109375</ele>
        <time>2019-10-26T08:13:29.000Z</time>
      </trkpt>
      <trkpt lat="37.931255064904689788818359375" lon="-1.26099455170333385467529296875">
        <ele>87.8000030517578125</ele>
        <time>2019-10-26T08:13:34.000Z</time>
      </trkpt>
      <trkpt lat="37.93113646097481250762939453125" lon="-1.26118850894272327423095703125">
        <ele>88</ele>
        <time>2019-10-26T08:13:38.000Z</time>
      </trkpt>
      <trkpt lat="37.93105088174343109130859375" lon="-1.26132446341216564178466796875">
        <ele>88</ele>
        <time>2019-10-26T08:13:41.000Z</time>
      </trkpt>
      <trkpt lat="37.9309367202222347259521484375" lon="-1.2615208514034748077392578125">
        <ele>88.40000152587890625</ele>
        <time>2019-10-26T08:13:45.000Z</time>
      </trkpt>
      <trkpt lat="37.93090738356113433837890625" lon="-1.2615691311657428741455078125">
        <ele>88.40000152587890625</ele>
        <time>2019-10-26T08:13:46.000Z</time>
      </trkpt>
      <trkpt lat="37.930797077715396881103515625" lon="-1.261767111718654632568359375">
        <ele>89.40000152587890625</ele>
        <time>2019-10-26T08:13:50.000Z</time>
      </trkpt>
      <trkpt lat="37.93068702332675457000732421875" lon="-1.2619560398161411285400390625">
        <ele>90.40000152587890625</ele>
        <time>2019-10-26T08:13:54.000Z</time>
      </trkpt>
      <trkpt lat="37.93057076632976531982421875" lon="-1.2621417827904224395751953125">
        <ele>91.1999969482421875</ele>
        <time>2019-10-26T08:13:58.000Z</time>
      </trkpt>
      <trkpt lat="37.93046054430305957794189453125" lon="-1.26233314163982868194580078125">
        <ele>92</ele>
        <time>2019-10-26T08:14:02.000Z</time>
      </trkpt>
      <trkpt lat="37.9303474724292755126953125" lon="-1.262520141899585723876953125">
        <ele>92.40000152587890625</ele>
        <time>2019-10-26T08:14:06.000Z</time>
      </trkpt>
      <trkpt lat="37.93023674748837947845458984375" lon="-1.2627129256725311279296875">
        <ele>92.59999847412109375</ele>
        <time>2019-10-26T08:14:10.000Z</time>
      </trkpt>
      <trkpt lat="37.93012677691876888275146484375" lon="-1.26290411688387393951416015625">
        <ele>92.8000030517578125</ele>
        <time>2019-10-26T08:14:14.000Z</time>
      </trkpt>
      <trkpt lat="37.930005826056003570556640625" lon="-1.2631026841700077056884765625">
        <ele>92.8000030517578125</ele>
        <time>2019-10-26T08:14:18.000Z</time>
      </trkpt>
      <trkpt lat="37.9298919998109340667724609375" lon="-1.263289265334606170654296875">
        <ele>92.59999847412109375</ele>
        <time>2019-10-26T08:14:22.000Z</time>
      </trkpt>
      <trkpt lat="37.92978378944098949432373046875" lon="-1.26347660087049007415771484375">
        <ele>92.40000152587890625</ele>
        <time>2019-10-26T08:14:26.000Z</time>
      </trkpt>
      <trkpt lat="37.9296673648059368133544921875" lon="-1.26367642544209957122802734375">
        <ele>92</ele>
        <time>2019-10-26T08:14:30.000Z</time>
      </trkpt>
      <trkpt lat="37.92955546639859676361083984375" lon="-1.263869293034076690673828125">
        <ele>91.8000030517578125</ele>
        <time>2019-10-26T08:14:34.000Z</time>
      </trkpt>
      <trkpt lat="37.9294333420693874359130859375" lon="-1.26407071016728878021240234375">
        <ele>91.59999847412109375</ele>
        <time>2019-10-26T08:14:38.000Z</time>
      </trkpt>
      <trkpt lat="37.9293126426637172698974609375" lon="-1.2642707861959934234619140625">
        <ele>91.59999847412109375</ele>
        <time>2019-10-26T08:14:42.000Z</time>
      </trkpt>
      <trkpt lat="37.92919789440929889678955078125" lon="-1.26446113921701908111572265625">
        <ele>91.59999847412109375</ele>
        <time>2019-10-26T08:14:46.000Z</time>
      </trkpt>
      <trkpt lat="37.929169647395610809326171875" lon="-1.26450858078896999359130859375">
        <ele>91.8000030517578125</ele>
        <time>2019-10-26T08:14:47.000Z</time>
      </trkpt>
      <trkpt lat="37.92905858717858791351318359375" lon="-1.26469583250582218170166015625">
        <ele>92</ele>
        <time>2019-10-26T08:14:51.000Z</time>
      </trkpt>
      <trkpt lat="37.92895062826573848724365234375" lon="-1.26487906090915203094482421875">
        <ele>92.40000152587890625</ele>
        <time>2019-10-26T08:14:55.000Z</time>
      </trkpt>
      <trkpt lat="37.92881215922534465789794921875" lon="-1.2651002593338489532470703125">
        <ele>92.8000030517578125</ele>
        <time>2019-10-26T08:15:00.000Z</time>
      </trkpt>
      <trkpt lat="37.9286826588213443756103515625" lon="-1.26532112248241901397705078125">
        <ele>93.1999969482421875</ele>
        <time>2019-10-26T08:15:05.000Z</time>
      </trkpt>
      <trkpt lat="37.9285498894751071929931640625" lon="-1.2655361182987689971923828125">
        <ele>93.8000030517578125</ele>
        <time>2019-10-26T08:15:10.000Z</time>
      </trkpt>
      <trkpt lat="37.92844134382903575897216796875" lon="-1.2657188437879085540771484375">
        <ele>94</ele>
        <time>2019-10-26T08:15:14.000Z</time>
      </trkpt>
      <trkpt lat="37.9283011145889759063720703125" lon="-1.26594029366970062255859375">
        <ele>94.1999969482421875</ele>
        <time>2019-10-26T08:15:19.000Z</time>
      </trkpt>
      <trkpt lat="37.92815811932086944580078125" lon="-1.266151182353496551513671875">
        <ele>94.1999969482421875</ele>
        <time>2019-10-26T08:15:24.000Z</time>
      </trkpt>
      <trkpt lat="37.92807497084140777587890625" lon="-1.266279928386211395263671875">
        <ele>94.40000152587890625</ele>
        <time>2019-10-26T08:15:27.000Z</time>
      </trkpt>
      <trkpt lat="37.9279737174510955810546875" lon="-1.26647095195949077606201171875">
        <ele>94.59999847412109375</ele>
        <time>2019-10-26T08:15:31.000Z</time>
      </trkpt>
      <trkpt lat="37.92783784680068492889404296875" lon="-1.26669307239353656768798828125">
        <ele>94.59999847412109375</ele>
        <time>2019-10-26T08:15:36.000Z</time>
      </trkpt>
      <trkpt lat="37.9277257807552814483642578125" lon="-1.26687797717750072479248046875">
        <ele>94.8000030517578125</ele>
        <time>2019-10-26T08:15:40.000Z</time>
      </trkpt>
      <trkpt lat="37.92761086486279964447021484375" lon="-1.26707159914076328277587890625">
        <ele>95</ele>
        <time>2019-10-26T08:15:44.000Z</time>
      </trkpt>
      <trkpt lat="37.92750391177833080291748046875" lon="-1.2672597728669643402099609375">
        <ele>95</ele>
        <time>2019-10-26T08:15:48.000Z</time>
      </trkpt>
      <trkpt lat="37.92736343108117580413818359375" lon="-1.26747577451169490814208984375">
        <ele>95.59999847412109375</ele>
        <time>2019-10-26T08:15:53.000Z</time>
      </trkpt>
      <trkpt lat="37.92725421488285064697265625" lon="-1.2676678039133548736572265625">
        <ele>96.1999969482421875</ele>
        <time>2019-10-26T08:15:57.000Z</time>
      </trkpt>
      <trkpt lat="37.92713695205748081207275390625" lon="-1.267850697040557861328125">
        <ele>96.8000030517578125</ele>
        <time>2019-10-26T08:16:01.000Z</time>
      </trkpt>
      <trkpt lat="37.92702396400272846221923828125" lon="-1.268048845231533050537109375">
        <ele>97.40000152587890625</ele>
        <time>2019-10-26T08:16:05.000Z</time>
      </trkpt>
      <trkpt lat="37.9269056953489780426025390625" lon="-1.26824556849896907806396484375">
        <ele>97.59999847412109375</ele>
        <time>2019-10-26T08:16:09.000Z</time>
      </trkpt>
      <trkpt lat="37.92679061181843280792236328125" lon="-1.2684394419193267822265625">
        <ele>97.59999847412109375</ele>
        <time>2019-10-26T08:16:13.000Z</time>
      </trkpt>
      <trkpt lat="37.92667561210691928863525390625" lon="-1.26864220015704631805419921875">
        <ele>97.40000152587890625</ele>
        <time>2019-10-26T08:16:17.000Z</time>
      </trkpt>
      <trkpt lat="37.92655818164348602294921875" lon="-1.2688399292528629302978515625">
        <ele>97</ele>
        <time>2019-10-26T08:16:21.000Z</time>
      </trkpt>
      <trkpt lat="37.9264373145997524261474609375" lon="-1.2690330483019351959228515625">
        <ele>96.59999847412109375</ele>
        <time>2019-10-26T08:16:25.000Z</time>
      </trkpt>
      <trkpt lat="37.926319129765033721923828125" lon="-1.2692295201122760772705078125">
        <ele>96.1999969482421875</ele>
        <time>2019-10-26T08:16:29.000Z</time>
      </trkpt>
      <trkpt lat="37.92620119638741016387939453125" lon="-1.269432865083217620849609375">
        <ele>95.8000030517578125</ele>
        <time>2019-10-26T08:16:33.000Z</time>
      </trkpt>
      <trkpt lat="37.92608301155269145965576171875" lon="-1.269631348550319671630859375">
        <ele>95.40000152587890625</ele>
        <time>2019-10-26T08:16:37.000Z</time>
      </trkpt>
      <trkpt lat="37.9259615577757358551025390625" lon="-1.26983025111258029937744140625">
        <ele>95.1999969482421875</ele>
        <time>2019-10-26T08:16:41.000Z</time>
      </trkpt>
      <trkpt lat="37.92584530077874660491943359375" lon="-1.27002856694161891937255859375">
        <ele>95.40000152587890625</ele>
        <time>2019-10-26T08:16:45.000Z</time>
      </trkpt>
      <trkpt lat="37.9257365874946117401123046875" lon="-1.27022512257099151611328125">
        <ele>95.8000030517578125</ele>
        <time>2019-10-26T08:16:49.000Z</time>
      </trkpt>
      <trkpt lat="37.92562485672533512115478515625" lon="-1.27041363157331943511962890625">
        <ele>96</ele>
        <time>2019-10-26T08:16:53.000Z</time>
      </trkpt>
      <trkpt lat="37.9255136288702487945556640625" lon="-1.27060289494693279266357421875">
        <ele>96.40000152587890625</ele>
        <time>2019-10-26T08:16:57.000Z</time>
      </trkpt>
      <trkpt lat="37.9254854656755924224853515625" lon="-1.27064866013824939727783203125">
        <ele>96.59999847412109375</ele>
        <time>2019-10-26T08:16:58.000Z</time>
      </trkpt>
      <trkpt lat="37.92536585591733455657958984375" lon="-1.27082367427647113800048828125">
        <ele>96.59999847412109375</ele>
        <time>2019-10-26T08:17:02.000Z</time>
      </trkpt>
      <trkpt lat="37.92525353841483592987060546875" lon="-1.2710061483085155487060546875">
        <ele>96.8000030517578125</ele>
        <time>2019-10-26T08:17:06.000Z</time>
      </trkpt>
      <trkpt lat="37.92513820342719554901123046875" lon="-1.27119029872119426727294921875">
        <ele>97</ele>
        <time>2019-10-26T08:17:10.000Z</time>
      </trkpt>
      <trkpt lat="37.92502689175307750701904296875" lon="-1.27137604169547557830810546875">
        <ele>97</ele>
        <time>2019-10-26T08:17:14.000Z</time>
      </trkpt>
      <trkpt lat="37.92493938468396663665771484375" lon="-1.2715177796781063079833984375">
        <ele>97.1999969482421875</ele>
        <time>2019-10-26T08:17:17.000Z</time>
      </trkpt>
      <trkpt lat="37.92487551458179950714111328125" lon="-1.27161291427910327911376953125">
        <ele>97.8000030517578125</ele>
        <time>2019-10-26T08:17:19.000Z</time>
      </trkpt>
      <trkpt lat="37.9247907735407352447509765625" lon="-1.27176362089812755584716796875">
        <ele>98.40000152587890625</ele>
        <time>2019-10-26T08:17:22.000Z</time>
      </trkpt>
      <trkpt lat="37.92467116378247737884521484375" lon="-1.2719492800533771514892578125">
        <ele>99.40000152587890625</ele>
        <time>2019-10-26T08:17:26.000Z</time>
      </trkpt>
      <trkpt lat="37.9245567508041858673095703125" lon="-1.27213410101830959320068359375">
        <ele>100.1999969482421875</ele>
        <time>2019-10-26T08:17:30.000Z</time>
      </trkpt>
      <trkpt lat="37.9244451038539409637451171875" lon="-1.27232470549643039703369140625">
        <ele>101</ele>
        <time>2019-10-26T08:17:34.000Z</time>
      </trkpt>
      <trkpt lat="37.92433219961822032928466796875" lon="-1.27251715399324893951416015625">
        <ele>100.8000030517578125</ele>
        <time>2019-10-26T08:17:38.000Z</time>
      </trkpt>
      <trkpt lat="37.92421652935445308685302734375" lon="-1.27272091805934906005859375">
        <ele>100.40000152587890625</ele>
        <time>2019-10-26T08:17:42.000Z</time>
      </trkpt>
      <trkpt lat="37.92409884743392467498779296875" lon="-1.2729165516793727874755859375">
        <ele>100</ele>
        <time>2019-10-26T08:17:46.000Z</time>
      </trkpt>
      <trkpt lat="37.9239827580749988555908203125" lon="-1.27311629243195056915283203125">
        <ele>99.8000030517578125</ele>
        <time>2019-10-26T08:17:50.000Z</time>
      </trkpt>
      <trkpt lat="37.92385895736515522003173828125" lon="-1.273309327661991119384765625">
        <ele>100.1999969482421875</ele>
        <time>2019-10-26T08:17:54.000Z</time>
      </trkpt>
      <trkpt lat="37.92374814860522747039794921875" lon="-1.2734980881214141845703125">
        <ele>100.8000030517578125</ele>
        <time>2019-10-26T08:17:58.000Z</time>
      </trkpt>
      <trkpt lat="37.92363063432276248931884765625" lon="-1.27367787994444370269775390625">
        <ele>101.1999969482421875</ele>
        <time>2019-10-26T08:18:02.000Z</time>
      </trkpt>
      <trkpt lat="37.923514209687709808349609375" lon="-1.273859851062297821044921875">
        <ele>101.8000030517578125</ele>
        <time>2019-10-26T08:18:06.000Z</time>
      </trkpt>
      <trkpt lat="37.9234007187187671661376953125" lon="-1.27404056489467620849609375">
        <ele>102.1999969482421875</ele>
        <time>2019-10-26T08:18:10.000Z</time>
      </trkpt>
      <trkpt lat="37.92329217307269573211669921875" lon="-1.27422563731670379638671875">
        <ele>102.40000152587890625</ele>
        <time>2019-10-26T08:18:14.000Z</time>
      </trkpt>
      <trkpt lat="37.9231861419975757598876953125" lon="-1.27442269586026668548583984375">
        <ele>102.8000030517578125</ele>
        <time>2019-10-26T08:18:18.000Z</time>
      </trkpt>
      <trkpt lat="37.923156805336475372314453125" lon="-1.27447265200316905975341796875">
        <ele>103</ele>
        <time>2019-10-26T08:18:19.000Z</time>
      </trkpt>
      <trkpt lat="37.92303535155951976776123046875" lon="-1.2746723927557468414306640625">
        <ele>103.1999969482421875</ele>
        <time>2019-10-26T08:18:23.000Z</time>
      </trkpt>
      <trkpt lat="37.92291708290576934814453125" lon="-1.27488336525857448577880859375">
        <ele>103.59999847412109375</ele>
        <time>2019-10-26T08:18:27.000Z</time>
      </trkpt>
      <trkpt lat="37.92279395274817943572998046875" lon="-1.27508687786757946014404296875">
        <ele>103.59999847412109375</ele>
        <time>2019-10-26T08:18:31.000Z</time>
      </trkpt>
      <trkpt lat="37.9226755164563655853271484375" lon="-1.2752913124859333038330078125">
        <ele>103.8000030517578125</ele>
        <time>2019-10-26T08:18:35.000Z</time>
      </trkpt>
      <trkpt lat="37.922558002173900604248046875" lon="-1.2754924781620502471923828125">
        <ele>103.8000030517578125</ele>
        <time>2019-10-26T08:18:39.000Z</time>
      </trkpt>
      <trkpt lat="37.9224441759288311004638671875" lon="-1.27568819560110569000244140625">
        <ele>103.59999847412109375</ele>
        <time>2019-10-26T08:18:43.000Z</time>
      </trkpt>
      <trkpt lat="37.9223308525979518890380859375" lon="-1.275876201689243316650390625">
        <ele>103.8000030517578125</ele>
        <time>2019-10-26T08:18:47.000Z</time>
      </trkpt>
      <trkpt lat="37.92221610434353351593017578125" lon="-1.276071332395076751708984375">
        <ele>103.59999847412109375</ele>
        <time>2019-10-26T08:18:51.000Z</time>
      </trkpt>
      <trkpt lat="37.92209842242300510406494140625" lon="-1.2762639485299587249755859375">
        <ele>103.59999847412109375</ele>
        <time>2019-10-26T08:18:55.000Z</time>
      </trkpt>
      <trkpt lat="37.92198392562568187713623046875" lon="-1.27646067179739475250244140625">
        <ele>103.59999847412109375</ele>
        <time>2019-10-26T08:18:59.000Z</time>
      </trkpt>
      <trkpt lat="37.92186523787677288055419921875" lon="-1.27666317857801914215087890625">
        <ele>103.8000030517578125</ele>
        <time>2019-10-26T08:19:03.000Z</time>
      </trkpt>
      <trkpt lat="37.92174353264272212982177734375" lon="-1.27685227431356906890869140625">
        <ele>104</ele>
        <time>2019-10-26T08:19:07.000Z</time>
      </trkpt>
      <trkpt lat="37.9216249287128448486328125" lon="-1.27705662511289119720458984375">
        <ele>104.1999969482421875</ele>
        <time>2019-10-26T08:19:11.000Z</time>
      </trkpt>
      <trkpt lat="37.921498529613018035888671875" lon="-1.27725276164710521697998046875">
        <ele>104.59999847412109375</ele>
        <time>2019-10-26T08:19:15.000Z</time>
      </trkpt>
      <trkpt lat="37.92137456126511096954345703125" lon="-1.27745375968515872955322265625">
        <ele>104.8000030517578125</ele>
        <time>2019-10-26T08:19:19.000Z</time>
      </trkpt>
      <trkpt lat="37.9212640039622783660888671875" lon="-1.27765190787613391876220703125">
        <ele>104.8000030517578125</ele>
        <time>2019-10-26T08:19:23.000Z</time>
      </trkpt>
      <trkpt lat="37.921150512993335723876953125" lon="-1.27784938551485538482666015625">
        <ele>105</ele>
        <time>2019-10-26T08:19:27.000Z</time>
      </trkpt>
      <trkpt lat="37.9210326634347438812255859375" lon="-1.2780409120023250579833984375">
        <ele>105</ele>
        <time>2019-10-26T08:19:31.000Z</time>
      </trkpt>
      <trkpt lat="37.92091808281838893890380859375" lon="-1.27822087146341800689697265625">
        <ele>105.1999969482421875</ele>
        <time>2019-10-26T08:19:35.000Z</time>
      </trkpt>
      <trkpt lat="37.9208086989820003509521484375" lon="-1.2784077040851116180419921875">
        <ele>105.1999969482421875</ele>
        <time>2019-10-26T08:19:39.000Z</time>
      </trkpt>
      <trkpt lat="37.92069629766047000885009765625" lon="-1.278591938316822052001953125">
        <ele>105.40000152587890625</ele>
        <time>2019-10-26T08:19:43.000Z</time>
      </trkpt>
      <trkpt lat="37.92058624327182769775390625" lon="-1.27878061495721340179443359375">
        <ele>105.40000152587890625</ele>
        <time>2019-10-26T08:19:47.000Z</time>
      </trkpt>
      <trkpt lat="37.92046663351356983184814453125" lon="-1.2789662741124629974365234375">
        <ele>105.40000152587890625</ele>
        <time>2019-10-26T08:19:51.000Z</time>
      </trkpt>
      <trkpt lat="37.92035414837300777435302734375" lon="-1.27915344201028347015380859375">
        <ele>105.59999847412109375</ele>
        <time>2019-10-26T08:19:55.000Z</time>
      </trkpt>
      <trkpt lat="37.92024032212793827056884765625" lon="-1.2793345749378204345703125">
        <ele>105.59999847412109375</ele>
        <time>2019-10-26T08:19:59.000Z</time>
      </trkpt>
      <trkpt lat="37.92012264020740985870361328125" lon="-1.27952559851109981536865234375">
        <ele>105.8000030517578125</ele>
        <time>2019-10-26T08:20:03.000Z</time>
      </trkpt>
      <trkpt lat="37.92000596411526203155517578125" lon="-1.2797162868082523345947265625">
        <ele>106</ele>
        <time>2019-10-26T08:20:07.000Z</time>
      </trkpt>
      <trkpt lat="37.91989691555500030517578125" lon="-1.279898174107074737548828125">
        <ele>106.1999969482421875</ele>
        <time>2019-10-26T08:20:11.000Z</time>
      </trkpt>
      <trkpt lat="37.91978484950959682464599609375" lon="-1.2800891138613224029541015625">
        <ele>106.40000152587890625</ele>
        <time>2019-10-26T08:20:16.000Z</time>
      </trkpt>
      <trkpt lat="37.9197307862341403961181640625" lon="-1.280181147158145904541015625">
        <ele>106.40000152587890625</ele>
        <time>2019-10-26T08:20:19.000Z</time>
      </trkpt>
      <trkpt lat="37.91963179595768451690673828125" lon="-1.2803358770906925201416015625">
        <ele>106.59999847412109375</ele>
        <time>2019-10-26T08:20:26.000Z</time>
      </trkpt>
      <trkpt lat="37.91953909210860729217529296875" lon="-1.28048163838684558868408203125">
        <ele>106.59999847412109375</ele>
        <time>2019-10-26T08:20:32.000Z</time>
      </trkpt>
      <trkpt lat="37.91952115483582019805908203125" lon="-1.28051675856113433837890625">
        <ele>106.59999847412109375</ele>
        <time>2019-10-26T08:20:33.000Z</time>
      </trkpt>
      <trkpt lat="37.91939475573599338531494140625" lon="-1.280737705528736114501953125">
        <ele>107.1999969482421875</ele>
        <time>2019-10-26T08:20:39.000Z</time>
      </trkpt>
      <trkpt lat="37.91927958838641643524169921875" lon="-1.28093719482421875">
        <ele>108</ele>
        <time>2019-10-26T08:20:44.000Z</time>
      </trkpt>
      <trkpt lat="37.91916358284652233123779296875" lon="-1.28113768994808197021484375">
        <ele>109</ele>
        <time>2019-10-26T08:20:49.000Z</time>
      </trkpt>
      <trkpt lat="37.9190317355096340179443359375" lon="-1.2813380174338817596435546875">
        <ele>109.8000030517578125</ele>
        <time>2019-10-26T08:20:54.000Z</time>
      </trkpt>
      <trkpt lat="37.91889737360179424285888671875" lon="-1.2815465591847896575927734375">
        <ele>110.40000152587890625</ele>
        <time>2019-10-26T08:20:59.000Z</time>
      </trkpt>
      <trkpt lat="37.91877181269228458404541015625" lon="-1.28175116144120693206787109375">
        <ele>110.59999847412109375</ele>
        <time>2019-10-26T08:21:04.000Z</time>
      </trkpt>
      <trkpt lat="37.91864440776407718658447265625" lon="-1.28196573816239833831787109375">
        <ele>110.8000030517578125</ele>
        <time>2019-10-26T08:21:09.000Z</time>
      </trkpt>
      <trkpt lat="37.91851733811199665069580078125" lon="-1.282186768949031829833984375">
        <ele>110.8000030517578125</ele>
        <time>2019-10-26T08:21:14.000Z</time>
      </trkpt>
      <trkpt lat="37.91838725097477436065673828125" lon="-1.28238567151129245758056640625">
        <ele>111</ele>
        <time>2019-10-26T08:21:19.000Z</time>
      </trkpt>
      <trkpt lat="37.9182609356939792633056640625" lon="-1.28259622491896152496337890625">
        <ele>110.8000030517578125</ele>
        <time>2019-10-26T08:21:24.000Z</time>
      </trkpt>
      <trkpt lat="37.91811995208263397216796875" lon="-1.28277895040810108184814453125">
        <ele>110.59999847412109375</ele>
        <time>2019-10-26T08:21:31.000Z</time>
      </trkpt>
      <trkpt lat="37.917973436415195465087890625" lon="-1.28293904475867748260498046875">
        <ele>110.40000152587890625</ele>
        <time>2019-10-26T08:21:37.000Z</time>
      </trkpt>
      <trkpt lat="37.9177952371537685394287109375" lon="-1.28307768143713474273681640625">
        <ele>110.1999969482421875</ele>
        <time>2019-10-26T08:21:44.000Z</time>
      </trkpt>
      <trkpt lat="37.91762935929000377655029296875" lon="-1.28322302363812923431396484375">
        <ele>110</ele>
        <time>2019-10-26T08:21:50.000Z</time>
      </trkpt>
      <trkpt lat="37.91747110895812511444091796875" lon="-1.28336166031658649444580078125">
        <ele>109.40000152587890625</ele>
        <time>2019-10-26T08:21:55.000Z</time>
      </trkpt>
      <trkpt lat="37.91727983392775058746337890625" lon="-1.28351622261106967926025390625">
        <ele>108.40000152587890625</ele>
        <time>2019-10-26T08:22:00.000Z</time>
      </trkpt>
      <trkpt lat="37.91710917837917804718017578125" lon="-1.28365762531757354736328125">
        <ele>107.8000030517578125</ele>
        <time>2019-10-26T08:22:04.000Z</time>
      </trkpt>
      <trkpt lat="37.91693651117384433746337890625" lon="-1.2837875448167324066162109375">
        <ele>107</ele>
        <time>2019-10-26T08:22:08.000Z</time>
      </trkpt>
      <trkpt lat="37.91675562970340251922607421875" lon="-1.2839305400848388671875">
        <ele>106.1999969482421875</ele>
        <time>2019-10-26T08:22:12.000Z</time>
      </trkpt>
      <trkpt lat="37.91657944209873676300048828125" lon="-1.28407613374292850494384765625">
        <ele>106.1999969482421875</ele>
        <time>2019-10-26T08:22:16.000Z</time>
      </trkpt>
      <trkpt lat="37.916407696902751922607421875" lon="-1.28421150147914886474609375">
        <ele>106.1999969482421875</ele>
        <time>2019-10-26T08:22:20.000Z</time>
      </trkpt>
      <trkpt lat="37.9162402264773845672607421875" lon="-1.284341923892498016357421875">
        <ele>106.40000152587890625</ele>
        <time>2019-10-26T08:22:24.000Z</time>
      </trkpt>
      <trkpt lat="37.91608750820159912109375" lon="-1.28446605987846851348876953125">
        <ele>106.59999847412109375</ele>
        <time>2019-10-26T08:22:28.000Z</time>
      </trkpt>
      <trkpt lat="37.91590788401663303375244140625" lon="-1.2846099771559238433837890625">
        <ele>106.8000030517578125</ele>
        <time>2019-10-26T08:22:33.000Z</time>
      </trkpt>
      <trkpt lat="37.915731780230998992919921875" lon="-1.28475925885140895843505859375">
        <ele>106.59999847412109375</ele>
        <time>2019-10-26T08:22:38.000Z</time>
      </trkpt>
      <trkpt lat="37.91569397784769535064697265625" lon="-1.28478507511317729949951171875">
        <ele>106.40000152587890625</ele>
        <time>2019-10-26T08:22:39.000Z</time>
      </trkpt>
      <trkpt lat="37.9154831729829311370849609375" lon="-1.284727156162261962890625">
        <ele>106</ele>
        <time>2019-10-26T08:22:44.000Z</time>
      </trkpt>
      <trkpt lat="37.915316037833690643310546875" lon="-1.28456613980233669281005859375">
        <ele>105.40000152587890625</ele>
        <time>2019-10-26T08:22:48.000Z</time>
      </trkpt>
      <trkpt lat="37.91512233205139636993408203125" lon="-1.2844242341816425323486328125">
        <ele>104.1999969482421875</ele>
        <time>2019-10-26T08:22:52.000Z</time>
      </trkpt>
      <trkpt lat="37.91496341116726398468017578125" lon="-1.284313090145587921142578125">
        <ele>103.59999847412109375</ele>
        <time>2019-10-26T08:22:55.000Z</time>
      </trkpt>
      <trkpt lat="37.91480876505374908447265625" lon="-1.28418442793190479278564453125">
        <ele>103</ele>
        <time>2019-10-26T08:22:58.000Z</time>
      </trkpt>
      <trkpt lat="37.914662919938564300537109375" lon="-1.28408275544643402099609375">
        <ele>102.40000152587890625</ele>
        <time>2019-10-26T08:23:01.000Z</time>
      </trkpt>
      <trkpt lat="37.9144703038036823272705078125" lon="-1.2841868586838245391845703125">
        <ele>102</ele>
        <time>2019-10-26T08:23:06.000Z</time>
      </trkpt>
      <trkpt lat="37.914440296590328216552734375" lon="-1.28422801382839679718017578125">
        <ele>102.1999969482421875</ele>
        <time>2019-10-26T08:23:07.000Z</time>
      </trkpt>
      <trkpt lat="37.9143147356808185577392578125" lon="-1.28440168686211109161376953125">
        <ele>102.1999969482421875</ele>
        <time>2019-10-26T08:23:11.000Z</time>
      </trkpt>
      <trkpt lat="37.91417148895561695098876953125" lon="-1.28457033075392246246337890625">
        <ele>102.40000152587890625</ele>
        <time>2019-10-26T08:23:15.000Z</time>
      </trkpt>
      <trkpt lat="37.91402581147849559783935546875" lon="-1.28472154028713703155517578125">
        <ele>102.8000030517578125</ele>
        <time>2019-10-26T08:23:19.000Z</time>
      </trkpt>
      <trkpt lat="37.91388449259102344512939453125" lon="-1.2848771922290325164794921875">
        <ele>103.1999969482421875</ele>
        <time>2019-10-26T08:23:23.000Z</time>
      </trkpt>
      <trkpt lat="37.913756668567657470703125" lon="-1.28505715169012546539306640625">
        <ele>103.59999847412109375</ele>
        <time>2019-10-26T08:23:27.000Z</time>
      </trkpt>
      <trkpt lat="37.91364602744579315185546875" lon="-1.2852476723492145538330078125">
        <ele>104</ele>
        <time>2019-10-26T08:23:31.000Z</time>
      </trkpt>
      <trkpt lat="37.91354167275130748748779296875" lon="-1.2854391150176525115966796875">
        <ele>104.59999847412109375</ele>
        <time>2019-10-26T08:23:35.000Z</time>
      </trkpt>
      <trkpt lat="37.9134208895266056060791015625" lon="-1.28565511666238307952880859375">
        <ele>105</ele>
        <time>2019-10-26T08:23:40.000Z</time>
      </trkpt>
      <trkpt lat="37.91334603913128376007080078125" lon="-1.28577413968741893768310546875">
        <ele>105.1999969482421875</ele>
        <time>2019-10-26T08:23:43.000Z</time>
      </trkpt>
      <trkpt lat="37.913257442414760589599609375" lon="-1.2859483994543552398681640625">
        <ele>105.59999847412109375</ele>
        <time>2019-10-26T08:23:47.000Z</time>
      </trkpt>
      <trkpt lat="37.91319273412227630615234375" lon="-1.28615082241594791412353515625">
        <ele>106</ele>
        <time>2019-10-26T08:23:51.000Z</time>
      </trkpt>
      <trkpt lat="37.9131426103413105010986328125" lon="-1.28637470304965972900390625">
        <ele>106.40000152587890625</ele>
        <time>2019-10-26T08:23:55.000Z</time>
      </trkpt>
      <trkpt lat="37.9131017066538333892822265625" lon="-1.2865277566015720367431640625">
        <ele>106.8000030517578125</ele>
        <time>2019-10-26T08:23:58.000Z</time>
      </trkpt>
      <trkpt lat="37.91305803693830966949462890625" lon="-1.286797821521759033203125">
        <ele>107.8000030517578125</ele>
        <time>2019-10-26T08:24:03.000Z</time>
      </trkpt>
      <trkpt lat="37.91300640441477298736572265625" lon="-1.28706160001456737518310546875">
        <ele>108.1999969482421875</ele>
        <time>2019-10-26T08:24:08.000Z</time>
      </trkpt>
      <trkpt lat="37.9129826836287975311279296875" lon="-1.2871624343097209930419921875">
        <ele>108.40000152587890625</ele>
        <time>2019-10-26T08:24:10.000Z</time>
      </trkpt>
      <trkpt lat="37.9129038937389850616455078125" lon="-1.287353038787841796875">
        <ele>108.59999847412109375</ele>
        <time>2019-10-26T08:24:14.000Z</time>
      </trkpt>
      <trkpt lat="37.91277229785919189453125" lon="-1.28757230937480926513671875">
        <ele>108.8000030517578125</ele>
        <time>2019-10-26T08:24:19.000Z</time>
      </trkpt>
      <trkpt lat="37.91266039945185184478759765625" lon="-1.28775713033974170684814453125">
        <ele>108.8000030517578125</ele>
        <time>2019-10-26T08:24:23.000Z</time>
      </trkpt>
      <trkpt lat="37.91258965618908405303955078125" lon="-1.287904568016529083251953125">
        <ele>109</ele>
        <time>2019-10-26T08:24:26.000Z</time>
      </trkpt>
      <trkpt lat="37.91249678470194339752197265625" lon="-1.288115791976451873779296875">
        <ele>108.8000030517578125</ele>
        <time>2019-10-26T08:24:30.000Z</time>
      </trkpt>
      <trkpt lat="37.912399806082248687744140625" lon="-1.2883226573467254638671875">
        <ele>108.59999847412109375</ele>
        <time>2019-10-26T08:24:34.000Z</time>
      </trkpt>
      <trkpt lat="37.91230492293834686279296875" lon="-1.28853027708828449249267578125">
        <ele>108.59999847412109375</ele>
        <time>2019-10-26T08:24:38.000Z</time>
      </trkpt>
      <trkpt lat="37.91220610029995441436767578125" lon="-1.28875088877975940704345703125">
        <ele>108.40000152587890625</ele>
        <time>2019-10-26T08:24:42.000Z</time>
      </trkpt>
      <trkpt lat="37.91210887022316455841064453125" lon="-1.288965046405792236328125">
        <ele>108.40000152587890625</ele>
        <time>2019-10-26T08:24:46.000Z</time>
      </trkpt>
      <trkpt lat="37.9120180942118167877197265625" lon="-1.28918322734534740447998046875">
        <ele>108.59999847412109375</ele>
        <time>2019-10-26T08:24:50.000Z</time>
      </trkpt>
      <trkpt lat="37.91193285025656223297119140625" lon="-1.28940417431294918060302734375">
        <ele>108.8000030517578125</ele>
        <time>2019-10-26T08:24:54.000Z</time>
      </trkpt>
      <trkpt lat="37.91185540147125720977783203125" lon="-1.28963551484048366546630859375">
        <ele>109</ele>
        <time>2019-10-26T08:24:58.000Z</time>
      </trkpt>
      <trkpt lat="37.91177845560014247894287109375" lon="-1.28985931165516376495361328125">
        <ele>109.1999969482421875</ele>
        <time>2019-10-26T08:25:02.000Z</time>
      </trkpt>
      <trkpt lat="37.91172212921082973480224609375" lon="-1.29008394666016101837158203125">
        <ele>109.8000030517578125</ele>
        <time>2019-10-26T08:25:06.000Z</time>
      </trkpt>
      <trkpt lat="37.91168533265590667724609375" lon="-1.29031830467283725738525390625">
        <ele>110.40000152587890625</ele>
        <time>2019-10-26T08:25:10.000Z</time>
      </trkpt>
      <trkpt lat="37.91165306232869625091552734375" lon="-1.29055350087583065032958984375">
        <ele>111</ele>
        <time>2019-10-26T08:25:14.000Z</time>
      </trkpt>
      <trkpt lat="37.911614589393138885498046875" lon="-1.2907884456217288970947265625">
        <ele>111</ele>
        <time>2019-10-26T08:25:18.000Z</time>
      </trkpt>
      <trkpt lat="37.91154895909130573272705078125" lon="-1.2910103984177112579345703125">
        <ele>111.1999969482421875</ele>
        <time>2019-10-26T08:25:22.000Z</time>
      </trkpt>
      <trkpt lat="37.91147746145725250244140625" lon="-1.29123645834624767303466796875">
        <ele>111.40000152587890625</ele>
        <time>2019-10-26T08:25:26.000Z</time>
      </trkpt>
      <trkpt lat="37.91139959357678890228271484375" lon="-1.29146260209381580352783203125">
        <ele>111.59999847412109375</ele>
        <time>2019-10-26T08:25:30.000Z</time>
      </trkpt>
      <trkpt lat="37.9113143496215343475341796875" lon="-1.29168388433754444122314453125">
        <ele>111.8000030517578125</ele>
        <time>2019-10-26T08:25:34.000Z</time>
      </trkpt>
      <trkpt lat="37.9112231545150279998779296875" lon="-1.29188806749880313873291015625">
        <ele>111.8000030517578125</ele>
        <time>2019-10-26T08:25:38.000Z</time>
      </trkpt>
      <trkpt lat="37.91112265549600124359130859375" lon="-1.29209208302199840545654296875">
        <ele>112</ele>
        <time>2019-10-26T08:25:42.000Z</time>
      </trkpt>
      <trkpt lat="37.9111011140048503875732421875" lon="-1.29214405082166194915771484375">
        <ele>112</ele>
        <time>2019-10-26T08:25:43.000Z</time>
      </trkpt>
      <trkpt lat="37.91104721836745738983154296875" lon="-1.29231085069477558135986328125">
        <ele>112</ele>
        <time>2019-10-26T08:25:46.000Z</time>
      </trkpt>
      <trkpt lat="37.910953424870967864990234375" lon="-1.29251972772181034088134765625">
        <ele>112.1999969482421875</ele>
        <time>2019-10-26T08:25:50.000Z</time>
      </trkpt>
      <trkpt lat="37.910858877003192901611328125" lon="-1.29273681901395320892333984375">
        <ele>112.59999847412109375</ele>
        <time>2019-10-26T08:25:54.000Z</time>
      </trkpt>
      <trkpt lat="37.91076743043959140777587890625" lon="-1.29296229220926761627197265625">
        <ele>113</ele>
        <time>2019-10-26T08:25:58.000Z</time>
      </trkpt>
      <trkpt lat="37.910681851208209991455078125" lon="-1.29318139515817165374755859375">
        <ele>113.40000152587890625</ele>
        <time>2019-10-26T08:26:02.000Z</time>
      </trkpt>
      <trkpt lat="37.91059174574911594390869140625" lon="-1.2933989055454730987548828125">
        <ele>113.59999847412109375</ele>
        <time>2019-10-26T08:26:06.000Z</time>
      </trkpt>
      <trkpt lat="37.9105009697377681732177734375" lon="-1.2936074472963809967041015625">
        <ele>113.8000030517578125</ele>
        <time>2019-10-26T08:26:10.000Z</time>
      </trkpt>
      <trkpt lat="37.91045998223125934600830078125" lon="-1.293712556362152099609375">
        <ele>113.8000030517578125</ele>
        <time>2019-10-26T08:26:12.000Z</time>
      </trkpt>
      <trkpt lat="37.91037683375179767608642578125" lon="-1.293916404247283935546875">
        <ele>114</ele>
        <time>2019-10-26T08:26:16.000Z</time>
      </trkpt>
      <trkpt lat="37.91027574799954891204833984375" lon="-1.2941395305097103118896484375">
        <ele>114.40000152587890625</ele>
        <time>2019-10-26T08:26:21.000Z</time>
      </trkpt>
      <trkpt lat="37.9101734049618244171142578125" lon="-1.2943470664322376251220703125">
        <ele>115</ele>
        <time>2019-10-26T08:26:26.000Z</time>
      </trkpt>
      <trkpt lat="37.910070307552814483642578125" lon="-1.294565834105014801025390625">
        <ele>115.8000030517578125</ele>
        <time>2019-10-26T08:26:31.000Z</time>
      </trkpt>
      <trkpt lat="37.9099802859127521514892578125" lon="-1.29475451074540615081787109375">
        <ele>115.59999847412109375</ele>
        <time>2019-10-26T08:26:35.000Z</time>
      </trkpt>
      <trkpt lat="37.9098659567534923553466796875" lon="-1.29498233087360858917236328125">
        <ele>115.1999969482421875</ele>
        <time>2019-10-26T08:26:40.000Z</time>
      </trkpt>
      <trkpt lat="37.90976964868605136871337890625" lon="-1.295183412730693817138671875">
        <ele>115</ele>
        <time>2019-10-26T08:26:44.000Z</time>
      </trkpt>
      <trkpt lat="37.9096681438386440277099609375" lon="-1.2953875958919525146484375">
        <ele>114.59999847412109375</ele>
        <time>2019-10-26T08:26:48.000Z</time>
      </trkpt>
      <trkpt lat="37.90956010110676288604736328125" lon="-1.29559152759611606597900390625">
        <ele>114.1999969482421875</ele>
        <time>2019-10-26T08:26:52.000Z</time>
      </trkpt>
      <trkpt lat="37.90945281274616718292236328125" lon="-1.29579738713800907135009765625">
        <ele>114.40000152587890625</ele>
        <time>2019-10-26T08:26:56.000Z</time>
      </trkpt>
      <trkpt lat="37.909338735044002532958984375" lon="-1.2959979660809040069580078125">
        <ele>114.59999847412109375</ele>
        <time>2019-10-26T08:27:00.000Z</time>
      </trkpt>
      <trkpt lat="37.90922842919826507568359375" lon="-1.2961927615106105804443359375">
        <ele>115</ele>
        <time>2019-10-26T08:27:04.000Z</time>
      </trkpt>
      <trkpt lat="37.90911636315286159515380859375" lon="-1.29639568738639354705810546875">
        <ele>115.8000030517578125</ele>
        <time>2019-10-26T08:27:08.000Z</time>
      </trkpt>
      <trkpt lat="37.90900052525103092193603515625" lon="-1.29659316502511501312255859375">
        <ele>116</ele>
        <time>2019-10-26T08:27:12.000Z</time>
      </trkpt>
      <trkpt lat="37.90887680836021900177001953125" lon="-1.29679382778704166412353515625">
        <ele>116</ele>
        <time>2019-10-26T08:27:16.000Z</time>
      </trkpt>
      <trkpt lat="37.9087476432323455810546875" lon="-1.29698686301708221435546875">
        <ele>116</ele>
        <time>2019-10-26T08:27:20.000Z</time>
      </trkpt>
      <trkpt lat="37.90861914865672588348388671875" lon="-1.2971848435699939727783203125">
        <ele>116.1999969482421875</ele>
        <time>2019-10-26T08:27:24.000Z</time>
      </trkpt>
      <trkpt lat="37.908487804234027862548828125" lon="-1.29736798815429210662841796875">
        <ele>116.1999969482421875</ele>
        <time>2019-10-26T08:27:28.000Z</time>
      </trkpt>
      <trkpt lat="37.90836417116224765777587890625" lon="-1.29756077192723751068115234375">
        <ele>116.40000152587890625</ele>
        <time>2019-10-26T08:27:32.000Z</time>
      </trkpt>
      <trkpt lat="37.90823743678629398345947265625" lon="-1.2977407313883304595947265625">
        <ele>116.59999847412109375</ele>
        <time>2019-10-26T08:27:36.000Z</time>
      </trkpt>
      <trkpt lat="37.90813970379531383514404296875" lon="-1.29795824177563190460205078125">
        <ele>116.8000030517578125</ele>
        <time>2019-10-26T08:27:40.000Z</time>
      </trkpt>
      <trkpt lat="37.90804825723171234130859375" lon="-1.2981745786964893341064453125">
        <ele>117.1999969482421875</ele>
        <time>2019-10-26T08:27:44.000Z</time>
      </trkpt>
      <trkpt lat="37.907956726849079132080078125" lon="-1.2983921729028224945068359375">
        <ele>117.59999847412109375</ele>
        <time>2019-10-26T08:27:48.000Z</time>
      </trkpt>
      <trkpt lat="37.9078656993806362152099609375" lon="-1.29861001856625080108642578125">
        <ele>118.1999969482421875</ele>
        <time>2019-10-26T08:27:52.000Z</time>
      </trkpt>
      <trkpt lat="37.907777018845081329345703125" lon="-1.2988082505762577056884765625">
        <ele>118.59999847412109375</ele>
        <time>2019-10-26T08:27:56.000Z</time>
      </trkpt>
      <trkpt lat="37.907687164843082427978515625" lon="-1.29900983534753322601318359375">
        <ele>119</ele>
        <time>2019-10-26T08:28:00.000Z</time>
      </trkpt>
      <trkpt lat="37.9075974784791469573974609375" lon="-1.2992142699658870697021484375">
        <ele>119.59999847412109375</ele>
        <time>2019-10-26T08:28:04.000Z</time>
      </trkpt>
      <trkpt lat="37.90748775936663150787353515625" lon="-1.29946120083332061767578125">
        <ele>120.1999969482421875</ele>
        <time>2019-10-26T08:28:09.000Z</time>
      </trkpt>
      <trkpt lat="37.907398827373981475830078125" lon="-1.2996601872146129608154296875">
        <ele>120.8000030517578125</ele>
        <time>2019-10-26T08:28:13.000Z</time>
      </trkpt>
      <trkpt lat="37.9073077999055385589599609375" lon="-1.29986043088138103485107421875">
        <ele>121.40000152587890625</ele>
        <time>2019-10-26T08:28:17.000Z</time>
      </trkpt>
      <trkpt lat="37.907201014459133148193359375" lon="-1.30009864456951618194580078125">
        <ele>121.8000030517578125</ele>
        <time>2019-10-26T08:28:22.000Z</time>
      </trkpt>
      <trkpt lat="37.9070954024791717529296875" lon="-1.30033099092543125152587890625">
        <ele>122.40000152587890625</ele>
        <time>2019-10-26T08:28:27.000Z</time>
      </trkpt>
      <trkpt lat="37.9069872759282588958740234375" lon="-1.30056769587099552154541015625">
        <ele>123.1999969482421875</ele>
        <time>2019-10-26T08:28:32.000Z</time>
      </trkpt>
      <trkpt lat="37.906872443854808807373046875" lon="-1.30080632865428924560546875">
        <ele>123.59999847412109375</ele>
        <time>2019-10-26T08:28:37.000Z</time>
      </trkpt>
      <trkpt lat="37.90682877413928508758544921875" lon="-1.30090096034109592437744140625">
        <ele>123.59999847412109375</ele>
        <time>2019-10-26T08:28:39.000Z</time>
      </trkpt>
      <trkpt lat="37.9067217372357845306396484375" lon="-1.3011394254863262176513671875">
        <ele>123.59999847412109375</ele>
        <time>2019-10-26T08:28:44.000Z</time>
      </trkpt>
      <trkpt lat="37.9066711105406284332275390625" lon="-1.3012249208986759185791015625">
        <ele>123.59999847412109375</ele>
        <time>2019-10-26T08:28:46.000Z</time>
      </trkpt>
      <trkpt lat="37.9066084139049053192138671875" lon="-1.30129851400852203369140625">
        <ele>123.59999847412109375</ele>
        <time>2019-10-26T08:28:48.000Z</time>
      </trkpt>
      <trkpt lat="37.90641923435032367706298828125" lon="-1.30143924616277217864990234375">
        <ele>123.59999847412109375</ele>
        <time>2019-10-26T08:28:53.000Z</time>
      </trkpt>
      <trkpt lat="37.90622594766318798065185546875" lon="-1.30157050676643848419189453125">
        <ele>123.59999847412109375</ele>
        <time>2019-10-26T08:28:58.000Z</time>
      </trkpt>
      <trkpt lat="37.90610977448523044586181640625" lon="-1.30167008377611637115478515625">
        <ele>123.40000152587890625</ele>
        <time>2019-10-26T08:29:01.000Z</time>
      </trkpt>
      <trkpt lat="37.90596627630293369293212890625" lon="-1.30185767076909542083740234375">
        <ele>123.59999847412109375</ele>
        <time>2019-10-26T08:29:05.000Z</time>
      </trkpt>
      <trkpt lat="37.90583275258541107177734375" lon="-1.3020517118275165557861328125">
        <ele>123.8000030517578125</ele>
        <time>2019-10-26T08:29:09.000Z</time>
      </trkpt>
      <trkpt lat="37.90571314282715320587158203125" lon="-1.30224726162850856781005859375">
        <ele>124.1999969482421875</ele>
        <time>2019-10-26T08:29:13.000Z</time>
      </trkpt>
      <trkpt lat="37.90559596382081508636474609375" lon="-1.3024335913360118865966796875">
        <ele>124.40000152587890625</ele>
        <time>2019-10-26T08:29:17.000Z</time>
      </trkpt>
      <trkpt lat="37.9054738394916057586669921875" lon="-1.30266417749226093292236328125">
        <ele>124.59999847412109375</ele>
        <time>2019-10-26T08:29:22.000Z</time>
      </trkpt>
      <trkpt lat="37.9053722508251667022705078125" lon="-1.30286316387355327606201171875">
        <ele>124.8000030517578125</ele>
        <time>2019-10-26T08:29:26.000Z</time>
      </trkpt>
      <trkpt lat="37.90527326054871082305908203125" lon="-1.30307338200509548187255859375">
        <ele>125.1999969482421875</ele>
        <time>2019-10-26T08:29:30.000Z</time>
      </trkpt>
      <trkpt lat="37.9051714204251766204833984375" lon="-1.30328309722244739532470703125">
        <ele>125.40000152587890625</ele>
        <time>2019-10-26T08:29:34.000Z</time>
      </trkpt>
      <trkpt lat="37.905077040195465087890625" lon="-1.30349163897335529327392578125">
        <ele>125.8000030517578125</ele>
        <time>2019-10-26T08:29:38.000Z</time>
      </trkpt>
      <trkpt lat="37.9050031118094921112060546875" lon="-1.303702779114246368408203125">
        <ele>126.40000152587890625</ele>
        <time>2019-10-26T08:29:42.000Z</time>
      </trkpt>
      <trkpt lat="37.9049276746809482574462890625" lon="-1.30392037332057952880859375">
        <ele>126.8000030517578125</ele>
        <time>2019-10-26T08:29:46.000Z</time>
      </trkpt>
      <trkpt lat="37.90490495972335338592529296875" lon="-1.30397326312959194183349609375">
        <ele>127</ele>
        <time>2019-10-26T08:29:47.000Z</time>
      </trkpt>
      <trkpt lat="37.90480974130332469940185546875" lon="-1.30417325533926486968994140625">
        <ele>127.40000152587890625</ele>
        <time>2019-10-26T08:29:51.000Z</time>
      </trkpt>
      <trkpt lat="37.9046849347651004791259765625" lon="-1.30439403466880321502685546875">
        <ele>128</ele>
        <time>2019-10-26T08:29:56.000Z</time>
      </trkpt>
      <trkpt lat="37.90461762808263301849365234375" lon="-1.30452395416796207427978515625">
        <ele>128.399993896484375</ele>
        <time>2019-10-26T08:29:59.000Z</time>
      </trkpt>
      <trkpt lat="37.90454328060150146484375" lon="-1.3046551309525966644287109375">
        <ele>128.8000030517578125</ele>
        <time>2019-10-26T08:30:02.000Z</time>
      </trkpt>
      <trkpt lat="37.90441260673105716705322265625" lon="-1.304874904453754425048828125">
        <ele>129.1999969482421875</ele>
        <time>2019-10-26T08:30:07.000Z</time>
      </trkpt>
      <trkpt lat="37.904342114925384521484375" lon="-1.305003650486469268798828125">
        <ele>129.1999969482421875</ele>
        <time>2019-10-26T08:30:10.000Z</time>
      </trkpt>
      <trkpt lat="37.90423256345093250274658203125" lon="-1.3052286207675933837890625">
        <ele>129</ele>
        <time>2019-10-26T08:30:15.000Z</time>
      </trkpt>
      <trkpt lat="37.9041240178048610687255859375" lon="-1.3054678402841091156005859375">
        <ele>128.8000030517578125</ele>
        <time>2019-10-26T08:30:20.000Z</time>
      </trkpt>
      <trkpt lat="37.9040398634970188140869140625" lon="-1.3057229854166507720947265625">
        <ele>128.8000030517578125</ele>
        <time>2019-10-26T08:30:25.000Z</time>
      </trkpt>
      <trkpt lat="37.90399485267698764801025390625" lon="-1.305979304015636444091796875">
        <ele>129.1999969482421875</ele>
        <time>2019-10-26T08:30:30.000Z</time>
      </trkpt>
      <trkpt lat="37.903948165476322174072265625" lon="-1.306233443319797515869140625">
        <ele>129.8000030517578125</ele>
        <time>2019-10-26T08:30:36.000Z</time>
      </trkpt>
      <trkpt lat="37.90393115021288394927978515625" lon="-1.30631558597087860107421875">
        <ele>130</ele>
        <time>2019-10-26T08:30:38.000Z</time>
      </trkpt>
      <trkpt lat="37.90388857014477252960205078125" lon="-1.3065524585545063018798828125">
        <ele>130.1999969482421875</ele>
        <time>2019-10-26T08:30:43.000Z</time>
      </trkpt>
      <trkpt lat="37.90383358485996723175048828125" lon="-1.30679461173713207244873046875">
        <ele>130.399993896484375</ele>
        <time>2019-10-26T08:30:48.000Z</time>
      </trkpt>
      <trkpt lat="37.90377927012741565704345703125" lon="-1.3070560432970523834228515625">
        <ele>130.600006103515625</ele>
        <time>2019-10-26T08:30:53.000Z</time>
      </trkpt>
      <trkpt lat="37.90371875278651714324951171875" lon="-1.30732485093176364898681640625">
        <ele>130.8000030517578125</ele>
        <time>2019-10-26T08:30:58.000Z</time>
      </trkpt>
      <trkpt lat="37.90365136228501796722412109375" lon="-1.3075743801891803741455078125">
        <ele>131</ele>
        <time>2019-10-26T08:31:03.000Z</time>
      </trkpt>
      <trkpt lat="37.90359553880989551544189453125" lon="-1.30779759027063846588134765625">
        <ele>131</ele>
        <time>2019-10-26T08:31:08.000Z</time>
      </trkpt>
      <trkpt lat="37.90358330123126506805419921875" lon="-1.307841427624225616455078125">
        <ele>131</ele>
        <time>2019-10-26T08:31:09.000Z</time>
      </trkpt>
      <trkpt lat="37.90350283496081829071044921875" lon="-1.30807243287563323974609375">
        <ele>131.1999969482421875</ele>
        <time>2019-10-26T08:31:14.000Z</time>
      </trkpt>
      <trkpt lat="37.90342873893678188323974609375" lon="-1.3083163462579250335693359375">
        <ele>131.399993896484375</ele>
        <time>2019-10-26T08:31:19.000Z</time>
      </trkpt>
      <trkpt lat="37.9034128971397876739501953125" lon="-1.30836538039147853851318359375">
        <ele>131.600006103515625</ele>
        <time>2019-10-26T08:31:20.000Z</time>
      </trkpt>
      <trkpt lat="37.9033750109374523162841796875" lon="-1.30846202373504638671875">
        <ele>131.600006103515625</ele>
        <time>2019-10-26T08:31:22.000Z</time>
      </trkpt>
      <trkpt lat="37.90329697541892528533935546875" lon="-1.30872680805623531341552734375">
        <ele>132</ele>
        <time>2019-10-26T08:31:27.000Z</time>
      </trkpt>
      <trkpt lat="37.903207875788211822509765625" lon="-1.308982707560062408447265625">
        <ele>132</ele>
        <time>2019-10-26T08:31:32.000Z</time>
      </trkpt>
      <trkpt lat="37.9031191952526569366455078125" lon="-1.30924212746322154998779296875">
        <ele>132</ele>
        <time>2019-10-26T08:31:37.000Z</time>
      </trkpt>
      <trkpt lat="37.90303378365933895111083984375" lon="-1.30950615741312503814697265625">
        <ele>131.600006103515625</ele>
        <time>2019-10-26T08:31:42.000Z</time>
      </trkpt>
      <trkpt lat="37.902964465320110321044921875" lon="-1.309724338352680206298828125">
        <ele>131.399993896484375</ele>
        <time>2019-10-26T08:31:46.000Z</time>
      </trkpt>
      <trkpt lat="37.90288458578288555145263671875" lon="-1.30994168110191822052001953125">
        <ele>131.1999969482421875</ele>
        <time>2019-10-26T08:31:50.000Z</time>
      </trkpt>
      <trkpt lat="37.9027876071631908416748046875" lon="-1.310170255601406097412109375">
        <ele>130.8000030517578125</ele>
        <time>2019-10-26T08:31:54.000Z</time>
      </trkpt>
      <trkpt lat="37.9026890359818935394287109375" lon="-1.31041022948920726776123046875">
        <ele>130.399993896484375</ele>
        <time>2019-10-26T08:31:58.000Z</time>
      </trkpt>
      <trkpt lat="37.90258535183966159820556640625" lon="-1.31066537462174892425537109375">
        <ele>130.1999969482421875</ele>
        <time>2019-10-26T08:32:02.000Z</time>
      </trkpt>
      <trkpt lat="37.902478985488414764404296875" lon="-1.31091934628784656524658203125">
        <ele>130.399993896484375</ele>
        <time>2019-10-26T08:32:06.000Z</time>
      </trkpt>
      <trkpt lat="37.90238318033516407012939453125" lon="-1.31116325967013835906982421875">
        <ele>130.8000030517578125</ele>
        <time>2019-10-26T08:32:10.000Z</time>
      </trkpt>
      <trkpt lat="37.90229248814284801483154296875" lon="-1.31138253025710582733154296875">
        <ele>131.1999969482421875</ele>
        <time>2019-10-26T08:32:14.000Z</time>
      </trkpt>
      <trkpt lat="37.902213446795940399169921875" lon="-1.311597861349582672119140625">
        <ele>131.399993896484375</ele>
        <time>2019-10-26T08:32:18.000Z</time>
      </trkpt>
      <trkpt lat="37.902133651077747344970703125" lon="-1.31181268952786922454833984375">
        <ele>131.8000030517578125</ele>
        <time>2019-10-26T08:32:22.000Z</time>
      </trkpt>
      <trkpt lat="37.9020634107291698455810546875" lon="-1.3120241649448871612548828125">
        <ele>132</ele>
        <time>2019-10-26T08:32:26.000Z</time>
      </trkpt>
      <trkpt lat="37.901996187865734100341796875" lon="-1.31226983852684497833251953125">
        <ele>131.8000030517578125</ele>
        <time>2019-10-26T08:32:31.000Z</time>
      </trkpt>
      <trkpt lat="37.90195100940763950347900390625" lon="-1.3124613650143146514892578125">
        <ele>132.399993896484375</ele>
        <time>2019-10-26T08:32:35.000Z</time>
      </trkpt>
      <trkpt lat="37.901904322206974029541015625" lon="-1.3127017579972743988037109375">
        <ele>133.1999969482421875</ele>
        <time>2019-10-26T08:32:40.000Z</time>
      </trkpt>
      <trkpt lat="37.9018749855458736419677734375" lon="-1.3129408098757266998291015625">
        <ele>134.1999969482421875</ele>
        <time>2019-10-26T08:32:45.000Z</time>
      </trkpt>
      <trkpt lat="37.9018733091652393341064453125" lon="-1.31298548541963100433349609375">
        <ele>134.1999969482421875</ele>
        <time>2019-10-26T08:32:46.000Z</time>
      </trkpt>
      <trkpt lat="37.90189015679061412811279296875" lon="-1.31325085647404193878173828125">
        <ele>135.1999969482421875</ele>
        <time>2019-10-26T08:32:52.000Z</time>
      </trkpt>
      <trkpt lat="37.901890575885772705078125" lon="-1.313292346894741058349609375">
        <ele>135.1999969482421875</ele>
        <time>2019-10-26T08:32:53.000Z</time>
      </trkpt>
      <trkpt lat="37.90184271521866321563720703125" lon="-1.31355780176818370819091796875">
        <ele>135.600006103515625</ele>
        <time>2019-10-26T08:32:59.000Z</time>
      </trkpt>
      <trkpt lat="37.90180348791182041168212890625" lon="-1.31369434297084808349609375">
        <ele>135.600006103515625</ele>
        <time>2019-10-26T08:33:02.000Z</time>
      </trkpt>
      <trkpt lat="37.90176459588110446929931640625" lon="-1.31390229798853397369384765625">
        <ele>136</ele>
        <time>2019-10-26T08:33:06.000Z</time>
      </trkpt>
      <trkpt lat="37.90170843712985515594482421875" lon="-1.3141216523945331573486328125">
        <ele>135.8000030517578125</ele>
        <time>2019-10-26T08:33:10.000Z</time>
      </trkpt>
      <trkpt lat="37.90165160782635211944580078125" lon="-1.314355172216892242431640625">
        <ele>135.600006103515625</ele>
        <time>2019-10-26T08:33:14.000Z</time>
      </trkpt>
      <trkpt lat="37.9015655256807804107666015625" lon="-1.3145853392779827117919921875">
        <ele>135.1999969482421875</ele>
        <time>2019-10-26T08:33:18.000Z</time>
      </trkpt>
      <trkpt lat="37.90151900611817836761474609375" lon="-1.3146946392953395843505859375">
        <ele>135.1999969482421875</ele>
        <time>2019-10-26T08:33:20.000Z</time>
      </trkpt>
      <trkpt lat="37.90141825564205646514892578125" lon="-1.31490896455943584442138671875">
        <ele>135.1999969482421875</ele>
        <time>2019-10-26T08:33:24.000Z</time>
      </trkpt>
      <trkpt lat="37.90131968446075916290283203125" lon="-1.315129660069942474365234375">
        <ele>135.399993896484375</ele>
        <time>2019-10-26T08:33:28.000Z</time>
      </trkpt>
      <trkpt lat="37.9012198559939861297607421875" lon="-1.3153470866382122039794921875">
        <ele>135.600006103515625</ele>
        <time>2019-10-26T08:33:32.000Z</time>
      </trkpt>
      <trkpt lat="37.90112421847879886627197265625" lon="-1.31554984487593173980712890625">
        <ele>136</ele>
        <time>2019-10-26T08:33:36.000Z</time>
      </trkpt>
      <trkpt lat="37.90101458318531513214111328125" lon="-1.31574313156306743621826171875">
        <ele>135.8000030517578125</ele>
        <time>2019-10-26T08:33:40.000Z</time>
      </trkpt>
      <trkpt lat="37.90090109221637248992919921875" lon="-1.3159308023750782012939453125">
        <ele>135</ele>
        <time>2019-10-26T08:33:44.000Z</time>
      </trkpt>
      <trkpt lat="37.90079422295093536376953125" lon="-1.31611964665353298187255859375">
        <ele>134.8000030517578125</ele>
        <time>2019-10-26T08:33:48.000Z</time>
      </trkpt>
      <trkpt lat="37.90076513774693012237548828125" lon="-1.31616507656872272491455078125">
        <ele>134.8000030517578125</ele>
        <time>2019-10-26T08:33:49.000Z</time>
      </trkpt>
      <trkpt lat="37.90065349079668521881103515625" lon="-1.31636356003582477569580078125">
        <ele>134.600006103515625</ele>
        <time>2019-10-26T08:33:53.000Z</time>
      </trkpt>
      <trkpt lat="37.90054586715996265411376953125" lon="-1.3165708445012569427490234375">
        <ele>134.8000030517578125</ele>
        <time>2019-10-26T08:33:57.000Z</time>
      </trkpt>
      <trkpt lat="37.9004594497382640838623046875" lon="-1.31672322750091552734375">
        <ele>135.399993896484375</ele>
        <time>2019-10-26T08:34:00.000Z</time>
      </trkpt>
      <trkpt lat="37.90034587495028972625732421875" lon="-1.3169295899569988250732421875">
        <ele>136.1999969482421875</ele>
        <time>2019-10-26T08:34:04.000Z</time>
      </trkpt>
      <trkpt lat="37.9002358205616474151611328125" lon="-1.31713184528052806854248046875">
        <ele>137</ele>
        <time>2019-10-26T08:34:08.000Z</time>
      </trkpt>
      <trkpt lat="37.90012844838201999664306640625" lon="-1.317332088947296142578125">
        <ele>137.8000030517578125</ele>
        <time>2019-10-26T08:34:12.000Z</time>
      </trkpt>
      <trkpt lat="37.90003356523811817169189453125" lon="-1.31752864457666873931884765625">
        <ele>138</ele>
        <time>2019-10-26T08:34:16.000Z</time>
      </trkpt>
      <trkpt lat="37.8999317251145839691162109375" lon="-1.317768283188343048095703125">
        <ele>138</ele>
        <time>2019-10-26T08:34:21.000Z</time>
      </trkpt>
      <trkpt lat="37.89982686750590801239013671875" lon="-1.3180155493319034576416015625">
        <ele>138</ele>
        <time>2019-10-26T08:34:26.000Z</time>
      </trkpt>
      <trkpt lat="37.89974086917936801910400390625" lon="-1.31821981631219387054443359375">
        <ele>138.1999969482421875</ele>
        <time>2019-10-26T08:34:30.000Z</time>
      </trkpt>
      <trkpt lat="37.89966241456568241119384765625" lon="-1.318426094949245452880859375">
        <ele>138.600006103515625</ele>
        <time>2019-10-26T08:34:34.000Z</time>
      </trkpt>
      <trkpt lat="37.8995746560394763946533203125" lon="-1.31863170303404331207275390625">
        <ele>139.1999969482421875</ele>
        <time>2019-10-26T08:34:38.000Z</time>
      </trkpt>
      <trkpt lat="37.8994806110858917236328125" lon="-1.318838484585285186767578125">
        <ele>139.600006103515625</ele>
        <time>2019-10-26T08:34:42.000Z</time>
      </trkpt>
      <trkpt lat="37.8993889130651950836181640625" lon="-1.31904845125973224639892578125">
        <ele>140</ele>
        <time>2019-10-26T08:34:46.000Z</time>
      </trkpt>
      <trkpt lat="37.89936460554599761962890625" lon="-1.3190988264977931976318359375">
        <ele>140</ele>
        <time>2019-10-26T08:34:47.000Z</time>
      </trkpt>
      <trkpt lat="37.8992574848234653472900390625" lon="-1.31930359639227390289306640625">
        <ele>140</ele>
        <time>2019-10-26T08:34:51.000Z</time>
      </trkpt>
      <trkpt lat="37.89915212430059909820556640625" lon="-1.31949990056455135345458984375">
        <ele>140</ele>
        <time>2019-10-26T08:34:55.000Z</time>
      </trkpt>
      <trkpt lat="37.89905321784317493438720703125" lon="-1.3196936063468456268310546875">
        <ele>140</ele>
        <time>2019-10-26T08:34:59.000Z</time>
      </trkpt>
      <trkpt lat="37.898947186768054962158203125" lon="-1.3198857195675373077392578125">
        <ele>140</ele>
        <time>2019-10-26T08:35:03.000Z</time>
      </trkpt>
      <trkpt lat="37.89884819649159908294677734375" lon="-1.32008898071944713592529296875">
        <ele>140.399993896484375</ele>
        <time>2019-10-26T08:35:07.000Z</time>
      </trkpt>
      <trkpt lat="37.89874660782516002655029296875" lon="-1.320278830826282501220703125">
        <ele>140.600006103515625</ele>
        <time>2019-10-26T08:35:11.000Z</time>
      </trkpt>
      <trkpt lat="37.89863714016973972320556640625" lon="-1.32047521881759166717529296875">
        <ele>141</ele>
        <time>2019-10-26T08:35:15.000Z</time>
      </trkpt>
      <trkpt lat="37.8985604457557201385498046875" lon="-1.3206920586526393890380859375">
        <ele>141.8000030517578125</ele>
        <time>2019-10-26T08:35:19.000Z</time>
      </trkpt>
      <trkpt lat="37.89850571192800998687744140625" lon="-1.32093639113008975982666015625">
        <ele>142.1999969482421875</ele>
        <time>2019-10-26T08:35:23.000Z</time>
      </trkpt>
      <trkpt lat="37.8984667360782623291015625" lon="-1.3211835734546184539794921875">
        <ele>142.600006103515625</ele>
        <time>2019-10-26T08:35:27.000Z</time>
      </trkpt>
      <trkpt lat="37.89843027479946613311767578125" lon="-1.32143117487430572509765625">
        <ele>143</ele>
        <time>2019-10-26T08:35:31.000Z</time>
      </trkpt>
      <trkpt lat="37.8983854316174983978271484375" lon="-1.32168070413172245025634765625">
        <ele>142.8000030517578125</ele>
        <time>2019-10-26T08:35:35.000Z</time>
      </trkpt>
      <trkpt lat="37.89832566864788532257080078125" lon="-1.32192964665591716766357421875">
        <ele>142.1999969482421875</ele>
        <time>2019-10-26T08:35:39.000Z</time>
      </trkpt>
      <trkpt lat="37.89824880659580230712890625" lon="-1.32217020727694034576416015625">
        <ele>141.8000030517578125</ele>
        <time>2019-10-26T08:35:43.000Z</time>
      </trkpt>
      <trkpt lat="37.89815534837543964385986328125" lon="-1.32239350117743015289306640625">
        <ele>141.8000030517578125</ele>
        <time>2019-10-26T08:35:47.000Z</time>
      </trkpt>
      <trkpt lat="37.89805962704122066497802734375" lon="-1.3226175494492053985595703125">
        <ele>142.600006103515625</ele>
        <time>2019-10-26T08:35:51.000Z</time>
      </trkpt>
      <trkpt lat="37.89795183576643466949462890625" lon="-1.322824917733669281005859375">
        <ele>143.399993896484375</ele>
        <time>2019-10-26T08:35:55.000Z</time>
      </trkpt>
      <trkpt lat="37.8978409431874752044677734375" lon="-1.32301962934434413909912109375">
        <ele>144</ele>
        <time>2019-10-26T08:35:59.000Z</time>
      </trkpt>
      <trkpt lat="37.89773139171302318572998046875" lon="-1.32321040146052837371826171875">
        <ele>144.1999969482421875</ele>
        <time>2019-10-26T08:36:03.000Z</time>
      </trkpt>
      <trkpt lat="37.8976270370185375213623046875" lon="-1.32339631207287311553955078125">
        <ele>143.8000030517578125</ele>
        <time>2019-10-26T08:36:07.000Z</time>
      </trkpt>
      <trkpt lat="37.89756543003022670745849609375" lon="-1.3235241360962390899658203125">
        <ele>143.600006103515625</ele>
        <time>2019-10-26T08:36:10.000Z</time>
      </trkpt>
      <trkpt lat="37.8974426351487636566162109375" lon="-1.32364307530224323272705078125">
        <ele>143</ele>
        <time>2019-10-26T08:36:14.000Z</time>
      </trkpt>
      <trkpt lat="37.89727524854242801666259765625" lon="-1.32376134395599365234375">
        <ele>142.1999969482421875</ele>
        <time>2019-10-26T08:36:18.000Z</time>
      </trkpt>
      <trkpt lat="37.8970805369317531585693359375" lon="-1.3238962925970554351806640625">
        <ele>141.399993896484375</ele>
        <time>2019-10-26T08:36:22.000Z</time>
      </trkpt>
      <trkpt lat="37.89691700600087642669677734375" lon="-1.3240035809576511383056640625">
        <ele>140.8000030517578125</ele>
        <time>2019-10-26T08:36:25.000Z</time>
      </trkpt>
      <trkpt lat="37.896747775375843048095703125" lon="-1.32413224317133426666259765625">
        <ele>140.1999969482421875</ele>
        <time>2019-10-26T08:36:28.000Z</time>
      </trkpt>
      <trkpt lat="37.8965689055621623992919921875" lon="-1.32427657954394817352294921875">
        <ele>140.399993896484375</ele>
        <time>2019-10-26T08:36:31.000Z</time>
      </trkpt>
      <trkpt lat="37.89639347232878208160400390625" lon="-1.32443818263709545135498046875">
        <ele>140.600006103515625</ele>
        <time>2019-10-26T08:36:34.000Z</time>
      </trkpt>
      <trkpt lat="37.8962286002933979034423828125" lon="-1.32458117790520191192626953125">
        <ele>140.8000030517578125</ele>
        <time>2019-10-26T08:36:37.000Z</time>
      </trkpt>
      <trkpt lat="37.89617436937987804412841796875" lon="-1.324618645012378692626953125">
        <ele>140.8000030517578125</ele>
        <time>2019-10-26T08:36:38.000Z</time>
      </trkpt>
      <trkpt lat="37.896118797361850738525390625" lon="-1.324649490416049957275390625">
        <ele>140.8000030517578125</ele>
        <time>2019-10-26T08:36:39.000Z</time>
      </trkpt>
      <trkpt lat="37.895952500402927398681640625" lon="-1.32471092976629734039306640625">
        <ele>140.8000030517578125</ele>
        <time>2019-10-26T08:36:42.000Z</time>
      </trkpt>
      <trkpt lat="37.8957243449985980987548828125" lon="-1.32468461059033870697021484375">
        <ele>140.1999969482421875</ele>
        <time>2019-10-26T08:36:46.000Z</time>
      </trkpt>
      <trkpt lat="37.8956707008183002471923828125" lon="-1.32466298528015613555908203125">
        <ele>140</ele>
        <time>2019-10-26T08:36:47.000Z</time>
      </trkpt>
      <trkpt lat="37.8954733908176422119140625" lon="-1.3245836086571216583251953125">
        <ele>139.1999969482421875</ele>
        <time>2019-10-26T08:36:51.000Z</time>
      </trkpt>
      <trkpt lat="37.89528806693851947784423828125" lon="-1.32453583180904388427734375">
        <ele>138.8000030517578125</ele>
        <time>2019-10-26T08:36:55.000Z</time>
      </trkpt>
      <trkpt lat="37.89510232396423816680908203125" lon="-1.32450322620570659637451171875">
        <ele>139</ele>
        <time>2019-10-26T08:36:59.000Z</time>
      </trkpt>
      <trkpt lat="37.8949022479355335235595703125" lon="-1.3244934193789958953857421875">
        <ele>139.1999969482421875</ele>
        <time>2019-10-26T08:37:03.000Z</time>
      </trkpt>
      <trkpt lat="37.8947460092604160308837890625" lon="-1.32451395504176616668701171875">
        <ele>139.399993896484375</ele>
        <time>2019-10-26T08:37:06.000Z</time>
      </trkpt>
      <trkpt lat="37.89456219412386417388916015625" lon="-1.32462929002940654754638671875">
        <ele>139.600006103515625</ele>
        <time>2019-10-26T08:37:10.000Z</time>
      </trkpt>
      <trkpt lat="37.89448994211852550506591796875" lon="-1.32472358644008636474609375">
        <ele>139.600006103515625</ele>
        <time>2019-10-26T08:37:12.000Z</time>
      </trkpt>
      <trkpt lat="37.89435348473489284515380859375" lon="-1.32493405602872371673583984375">
        <ele>139.8000030517578125</ele>
        <time>2019-10-26T08:37:16.000Z</time>
      </trkpt>
      <trkpt lat="37.89422775618731975555419921875" lon="-1.32514871656894683837890625">
        <ele>140</ele>
        <time>2019-10-26T08:37:20.000Z</time>
      </trkpt>
      <trkpt lat="37.89415298961102962493896484375" lon="-1.32531979121267795562744140625">
        <ele>140.1999969482421875</ele>
        <time>2019-10-26T08:37:23.000Z</time>
      </trkpt>
      <trkpt lat="37.89409096352756023406982421875" lon="-1.3255649618804454803466796875">
        <ele>140.600006103515625</ele>
        <time>2019-10-26T08:37:27.000Z</time>
      </trkpt>
      <trkpt lat="37.8940613754093647003173828125" lon="-1.3258120603859424591064453125">
        <ele>140.8000030517578125</ele>
        <time>2019-10-26T08:37:31.000Z</time>
      </trkpt>
      <trkpt lat="37.8940335474908351898193359375" lon="-1.32605069316923618316650390625">
        <ele>141</ele>
        <time>2019-10-26T08:37:35.000Z</time>
      </trkpt>
      <trkpt lat="37.8940208069980144500732421875" lon="-1.326106600463390350341796875">
        <ele>141</ele>
        <time>2019-10-26T08:37:36.000Z</time>
      </trkpt>
      <trkpt lat="37.8939235769212245941162109375" lon="-1.32631807588040828704833984375">
        <ele>141.399993896484375</ele>
        <time>2019-10-26T08:37:40.000Z</time>
      </trkpt>
      <trkpt lat="37.89380614645779132843017578125" lon="-1.3265007175505161285400390625">
        <ele>142</ele>
        <time>2019-10-26T08:37:44.000Z</time>
      </trkpt>
      <trkpt lat="37.89367564022541046142578125" lon="-1.32668201811611652374267578125">
        <ele>143</ele>
        <time>2019-10-26T08:37:48.000Z</time>
      </trkpt>
      <trkpt lat="37.89354664273560047149658203125" lon="-1.3268665038049221038818359375">
        <ele>143.8000030517578125</ele>
        <time>2019-10-26T08:37:52.000Z</time>
      </trkpt>
      <trkpt lat="37.8934085927903652191162109375" lon="-1.327040679752826690673828125">
        <ele>144.600006103515625</ele>
        <time>2019-10-26T08:37:56.000Z</time>
      </trkpt>
      <trkpt lat="37.8932637535035610198974609375" lon="-1.327210329473018646240234375">
        <ele>145.399993896484375</ele>
        <time>2019-10-26T08:38:00.000Z</time>
      </trkpt>
      <trkpt lat="37.893110699951648712158203125" lon="-1.32737503387033939361572265625">
        <ele>146.1999969482421875</ele>
        <time>2019-10-26T08:38:04.000Z</time>
      </trkpt>
      <trkpt lat="37.8929516114294528961181640625" lon="-1.327520124614238739013671875">
        <ele>147.1999969482421875</ele>
        <time>2019-10-26T08:38:08.000Z</time>
      </trkpt>
      <trkpt lat="37.89277483709156513214111328125" lon="-1.32762833498418331146240234375">
        <ele>148</ele>
        <time>2019-10-26T08:38:12.000Z</time>
      </trkpt>
      <trkpt lat="37.8925992362201213836669921875" lon="-1.3277350366115570068359375">
        <ele>149</ele>
        <time>2019-10-26T08:38:16.000Z</time>
      </trkpt>
      <trkpt lat="37.89242531172931194305419921875" lon="-1.32786738686263561248779296875">
        <ele>148.8000030517578125</ele>
        <time>2019-10-26T08:38:20.000Z</time>
      </trkpt>
      <trkpt lat="37.89227418601512908935546875" lon="-1.3280228711664676666259765625">
        <ele>148.600006103515625</ele>
        <time>2019-10-26T08:38:24.000Z</time>
      </trkpt>
      <trkpt lat="37.892128340899944305419921875" lon="-1.3281965442001819610595703125">
        <ele>148.600006103515625</ele>
        <time>2019-10-26T08:38:28.000Z</time>
      </trkpt>
      <trkpt lat="37.89198450744152069091796875" lon="-1.32837331853806972503662109375">
        <ele>148.399993896484375</ele>
        <time>2019-10-26T08:38:32.000Z</time>
      </trkpt>
      <trkpt lat="37.891840673983097076416015625" lon="-1.32855151779949665069580078125">
        <ele>148.399993896484375</ele>
        <time>2019-10-26T08:38:36.000Z</time>
      </trkpt>
      <trkpt lat="37.89169407449662685394287109375" lon="-1.3287229277193546295166015625">
        <ele>148.399993896484375</ele>
        <time>2019-10-26T08:38:40.000Z</time>
      </trkpt>
      <trkpt lat="37.891557700932025909423828125" lon="-1.32888293825089931488037109375">
        <ele>148.399993896484375</ele>
        <time>2019-10-26T08:38:44.000Z</time>
      </trkpt>
      <trkpt lat="37.8915283642709255218505859375" lon="-1.32911746390163898468017578125">
        <ele>148.600006103515625</ele>
        <time>2019-10-26T08:38:48.000Z</time>
      </trkpt>
      <trkpt lat="37.89153398014605045318603515625" lon="-1.3291780650615692138671875">
        <ele>148.8000030517578125</ele>
        <time>2019-10-26T08:38:49.000Z</time>
      </trkpt>
      <trkpt lat="37.891548983752727508544921875" lon="-1.32940848357975482940673828125">
        <ele>149</ele>
        <time>2019-10-26T08:38:53.000Z</time>
      </trkpt>
      <trkpt lat="37.8915635682642459869384765625" lon="-1.32968659512698650360107421875">
        <ele>149.399993896484375</ele>
        <time>2019-10-26T08:38:58.000Z</time>
      </trkpt>
      <trkpt lat="37.8915680944919586181640625" lon="-1.32984870113432407379150390625">
        <ele>149.8000030517578125</ele>
        <time>2019-10-26T08:39:01.000Z</time>
      </trkpt>
      <trkpt lat="37.89159650914371013641357421875" lon="-1.3301289081573486328125">
        <ele>149.8000030517578125</ele>
        <time>2019-10-26T08:39:06.000Z</time>
      </trkpt>
      <trkpt lat="37.89162936620414257049560546875" lon="-1.33039285428822040557861328125">
        <ele>149.399993896484375</ele>
        <time>2019-10-26T08:39:11.000Z</time>
      </trkpt>
      <trkpt lat="37.89164260961115360260009765625" lon="-1.33062067441642284393310546875">
        <ele>149.1999969482421875</ele>
        <time>2019-10-26T08:39:16.000Z</time>
      </trkpt>
      <trkpt lat="37.89167194627225399017333984375" lon="-1.33088202215731143951416015625">
        <ele>149.1999969482421875</ele>
        <time>2019-10-26T08:39:21.000Z</time>
      </trkpt>
      <trkpt lat="37.89168954826891422271728515625" lon="-1.33115820586681365966796875">
        <ele>149.600006103515625</ele>
        <time>2019-10-26T08:39:25.000Z</time>
      </trkpt>
      <trkpt lat="37.8917067311704158782958984375" lon="-1.3314205594360828399658203125">
        <ele>149.8000030517578125</ele>
        <time>2019-10-26T08:39:29.000Z</time>
      </trkpt>
      <trkpt lat="37.89171033538877964019775390625" lon="-1.33167964406311511993408203125">
        <ele>149.600006103515625</ele>
        <time>2019-10-26T08:39:33.000Z</time>
      </trkpt>
      <trkpt lat="37.89170932956039905548095703125" lon="-1.33193529210984706878662109375">
        <ele>149.399993896484375</ele>
        <time>2019-10-26T08:39:37.000Z</time>
      </trkpt>
      <trkpt lat="37.89170027710497379302978515625" lon="-1.3320592604577541351318359375">
        <ele>149.1999969482421875</ele>
        <time>2019-10-26T08:39:39.000Z</time>
      </trkpt>
      <trkpt lat="37.89168133400380611419677734375" lon="-1.33229806087911128997802734375">
        <ele>148.8000030517578125</ele>
        <time>2019-10-26T08:39:43.000Z</time>
      </trkpt>
      <trkpt lat="37.89165635593235492706298828125" lon="-1.332530491054058074951171875">
        <ele>149.1999969482421875</ele>
        <time>2019-10-26T08:39:47.000Z</time>
      </trkpt>
      <trkpt lat="37.8916336409747600555419921875" lon="-1.332769878208637237548828125">
        <ele>149.399993896484375</ele>
        <time>2019-10-26T08:39:51.000Z</time>
      </trkpt>
      <trkpt lat="37.89160774089395999908447265625" lon="-1.33300666697323322296142578125">
        <ele>149.600006103515625</ele>
        <time>2019-10-26T08:39:55.000Z</time>
      </trkpt>
      <trkpt lat="37.89157404564321041107177734375" lon="-1.3332407735288143157958984375">
        <ele>150</ele>
        <time>2019-10-26T08:39:59.000Z</time>
      </trkpt>
      <trkpt lat="37.89153993129730224609375" lon="-1.3334784843027591705322265625">
        <ele>150.600006103515625</ele>
        <time>2019-10-26T08:40:03.000Z</time>
      </trkpt>
      <trkpt lat="37.891508750617504119873046875" lon="-1.333717368543148040771484375">
        <ele>151.1999969482421875</ele>
        <time>2019-10-26T08:40:07.000Z</time>
      </trkpt>
      <trkpt lat="37.89149022661149501800537109375" lon="-1.33395440876483917236328125">
        <ele>151.600006103515625</ele>
        <time>2019-10-26T08:40:11.000Z</time>
      </trkpt>
      <trkpt lat="37.89148787967860698699951171875" lon="-1.33418231271207332611083984375">
        <ele>152.1999969482421875</ele>
        <time>2019-10-26T08:40:15.000Z</time>
      </trkpt>
      <trkpt lat="37.89150883443653583526611328125" lon="-1.33445220999419689178466796875">
        <ele>152.600006103515625</ele>
        <time>2019-10-26T08:40:20.000Z</time>
      </trkpt>
      <trkpt lat="37.89155401289463043212890625" lon="-1.33467298932373523712158203125">
        <ele>152.8000030517578125</ele>
        <time>2019-10-26T08:40:24.000Z</time>
      </trkpt>
      <trkpt lat="37.89159692823886871337890625" lon="-1.33489527739584445953369140625">
        <ele>153</ele>
        <time>2019-10-26T08:40:28.000Z</time>
      </trkpt>
      <trkpt lat="37.891647554934024810791015625" lon="-1.33512745611369609832763671875">
        <ele>152.8000030517578125</ele>
        <time>2019-10-26T08:40:32.000Z</time>
      </trkpt>
      <trkpt lat="37.8916949965059757232666015625" lon="-1.335351504385471343994140625">
        <ele>152.399993896484375</ele>
        <time>2019-10-26T08:40:36.000Z</time>
      </trkpt>
      <trkpt lat="37.89170932956039905548095703125" lon="-1.3354026339948177337646484375">
        <ele>152.399993896484375</ele>
        <time>2019-10-26T08:40:37.000Z</time>
      </trkpt>
      <trkpt lat="37.89179675281047821044921875" lon="-1.33566188625991344451904296875">
        <ele>152.600006103515625</ele>
        <time>2019-10-26T08:40:42.000Z</time>
      </trkpt>
      <trkpt lat="37.89186473004519939422607421875" lon="-1.33587428368628025054931640625">
        <ele>153.8000030517578125</ele>
        <time>2019-10-26T08:40:46.000Z</time>
      </trkpt>
      <trkpt lat="37.89194184355437755584716796875" lon="-1.33613764308393001556396484375">
        <ele>155.399993896484375</ele>
        <time>2019-10-26T08:40:51.000Z</time>
      </trkpt>
      <trkpt lat="37.89201761595904827117919921875" lon="-1.33640167303383350372314453125">
        <ele>156</ele>
        <time>2019-10-26T08:40:56.000Z</time>
      </trkpt>
      <trkpt lat="37.89208240807056427001953125" lon="-1.336645670235157012939453125">
        <ele>156.600006103515625</ele>
        <time>2019-10-26T08:41:01.000Z</time>
      </trkpt>
      <trkpt lat="37.89211736060678958892822265625" lon="-1.3368237018585205078125">
        <ele>157.1999969482421875</ele>
        <time>2019-10-26T08:41:05.000Z</time>
      </trkpt>
      <trkpt lat="37.89219799451529979705810546875" lon="-1.3370317406952381134033203125">
        <ele>158.1999969482421875</ele>
        <time>2019-10-26T08:41:11.000Z</time>
      </trkpt>
      <trkpt lat="37.89225867949426174163818359375" lon="-1.33715319447219371795654296875">
        <ele>159</ele>
        <time>2019-10-26T08:41:16.000Z</time>
      </trkpt>
      <trkpt lat="37.89229991845786571502685546875" lon="-1.33722561411559581756591796875">
        <ele>159.399993896484375</ele>
        <time>2019-10-26T08:41:19.000Z</time>
      </trkpt>
      <trkpt lat="37.89241491816937923431396484375" lon="-1.33742661215364933013916015625">
        <ele>160.1999969482421875</ele>
        <time>2019-10-26T08:41:28.000Z</time>
      </trkpt>
      <trkpt lat="37.89253260008990764617919921875" lon="-1.33760045282542705535888671875">
        <ele>160.8000030517578125</ele>
        <time>2019-10-26T08:41:36.000Z</time>
      </trkpt>
      <trkpt lat="37.8926391340792179107666015625" lon="-1.3377877883613109588623046875">
        <ele>161</ele>
        <time>2019-10-26T08:41:44.000Z</time>
      </trkpt>
      <trkpt lat="37.892771400511264801025390625" lon="-1.33798333816230297088623046875">
        <ele>161.1999969482421875</ele>
        <time>2019-10-26T08:41:52.000Z</time>
      </trkpt>
      <trkpt lat="37.89289067499339580535888671875" lon="-1.33815734647214412689208984375">
        <ele>161.8000030517578125</ele>
        <time>2019-10-26T08:41:58.000Z</time>
      </trkpt>
      <trkpt lat="37.89299410767853260040283203125" lon="-1.33836991153657436370849609375">
        <ele>162.600006103515625</ele>
        <time>2019-10-26T08:42:03.000Z</time>
      </trkpt>
      <trkpt lat="37.8930357657372951507568359375" lon="-1.33848692290484905242919921875">
        <ele>163</ele>
        <time>2019-10-26T08:42:05.000Z</time>
      </trkpt>
      <trkpt lat="37.8930639289319515228271484375" lon="-1.33862187154591083526611328125">
        <ele>162.8000030517578125</ele>
        <time>2019-10-26T08:42:07.000Z</time>
      </trkpt>
      <trkpt lat="37.8930803574621677398681640625" lon="-1.33876168169081211090087890625">
        <ele>162.600006103515625</ele>
        <time>2019-10-26T08:42:09.000Z</time>
      </trkpt>
      <trkpt lat="37.8930780105292797088623046875" lon="-1.3390539586544036865234375">
        <ele>162.600006103515625</ele>
        <time>2019-10-26T08:42:13.000Z</time>
      </trkpt>
      <trkpt lat="37.89312670938670635223388671875" lon="-1.33930097334086894989013671875">
        <ele>163</ele>
        <time>2019-10-26T08:42:18.000Z</time>
      </trkpt>
      <trkpt lat="37.8931827843189239501953125" lon="-1.3394014723598957061767578125">
        <ele>163</ele>
        <time>2019-10-26T08:42:22.000Z</time>
      </trkpt>
      <trkpt lat="37.89313794113695621490478515625" lon="-1.339549832046031951904296875">
        <ele>163.399993896484375</ele>
        <time>2019-10-26T08:42:27.000Z</time>
      </trkpt>
      <trkpt lat="37.89303517900407314300537109375" lon="-1.33974538184702396392822265625">
        <ele>163.8000030517578125</ele>
        <time>2019-10-26T08:42:33.000Z</time>
      </trkpt>
      <trkpt lat="37.8929268009960651397705078125" lon="-1.339945457875728607177734375">
        <ele>164</ele>
        <time>2019-10-26T08:42:39.000Z</time>
      </trkpt>
      <trkpt lat="37.89280232973396778106689453125" lon="-1.34013815782964229583740234375">
        <ele>164</ele>
        <time>2019-10-26T08:42:45.000Z</time>
      </trkpt>
      <trkpt lat="37.89266310632228851318359375" lon="-1.3403306901454925537109375">
        <ele>164.1999969482421875</ele>
        <time>2019-10-26T08:42:51.000Z</time>
      </trkpt>
      <trkpt lat="37.89252187125384807586669921875" lon="-1.3404927961528301239013671875">
        <ele>164</ele>
        <time>2019-10-26T08:42:56.000Z</time>
      </trkpt>
      <trkpt lat="37.8923722542822360992431640625" lon="-1.34064517915248870849609375">
        <ele>163.600006103515625</ele>
        <time>2019-10-26T08:43:01.000Z</time>
      </trkpt>
      <trkpt lat="37.89220470003783702850341796875" lon="-1.3408056087791919708251953125">
        <ele>163.8000030517578125</ele>
        <time>2019-10-26T08:43:06.000Z</time>
      </trkpt>
      <trkpt lat="37.89204083383083343505859375" lon="-1.34096628986299037933349609375">
        <ele>164</ele>
        <time>2019-10-26T08:43:11.000Z</time>
      </trkpt>
      <trkpt lat="37.89191602729260921478271484375" lon="-1.34113761596381664276123046875">
        <ele>164.1999969482421875</ele>
        <time>2019-10-26T08:43:16.000Z</time>
      </trkpt>
      <trkpt lat="37.89179080165922641754150390625" lon="-1.34137214161455631256103515625">
        <ele>164.8000030517578125</ele>
        <time>2019-10-26T08:43:21.000Z</time>
      </trkpt>
      <trkpt lat="37.891717962920665740966796875" lon="-1.34159258566796779632568359375">
        <ele>165.1999969482421875</ele>
        <time>2019-10-26T08:43:25.000Z</time>
      </trkpt>
      <trkpt lat="37.891664318740367889404296875" lon="-1.34182694368064403533935546875">
        <ele>165.600006103515625</ele>
        <time>2019-10-26T08:43:29.000Z</time>
      </trkpt>
      <trkpt lat="37.8915823437273502349853515625" lon="-1.3420494832098484039306640625">
        <ele>166</ele>
        <time>2019-10-26T08:43:33.000Z</time>
      </trkpt>
      <trkpt lat="37.8915082477033138275146484375" lon="-1.34226347319781780242919921875">
        <ele>166.399993896484375</ele>
        <time>2019-10-26T08:43:37.000Z</time>
      </trkpt>
      <trkpt lat="37.89149190299212932586669921875" lon="-1.34230689145624637603759765625">
        <ele>166.399993896484375</ele>
        <time>2019-10-26T08:43:38.000Z</time>
      </trkpt>
      <trkpt lat="37.89141613058745861053466796875" lon="-1.342508979141712188720703125">
        <ele>166.8000030517578125</ele>
        <time>2019-10-26T08:43:43.000Z</time>
      </trkpt>
      <trkpt lat="37.89131957106292247772216796875" lon="-1.34272548370063304901123046875">
        <ele>167</ele>
        <time>2019-10-26T08:43:49.000Z</time>
      </trkpt>
      <trkpt lat="37.89125452749431133270263671875" lon="-1.34293687529861927032470703125">
        <ele>167.399993896484375</ele>
        <time>2019-10-26T08:43:55.000Z</time>
      </trkpt>
      <trkpt lat="37.89124363102018833160400390625" lon="-1.3430650345981121063232421875">
        <ele>167.600006103515625</ele>
        <time>2019-10-26T08:43:58.000Z</time>
      </trkpt>
      <trkpt lat="37.89111505262553691864013671875" lon="-1.34329696185886859893798828125">
        <ele>167.8000030517578125</ele>
        <time>2019-10-26T08:44:03.000Z</time>
      </trkpt>
      <trkpt lat="37.89100684225559234619140625" lon="-1.343486309051513671875">
        <ele>168</ele>
        <time>2019-10-26T08:44:07.000Z</time>
      </trkpt>
      <trkpt lat="37.89090215228497982025146484375" lon="-1.3436829484999179840087890625">
        <ele>168.399993896484375</ele>
        <time>2019-10-26T08:44:11.000Z</time>
      </trkpt>
      <trkpt lat="37.89079419337213039398193359375" lon="-1.34387866593897342681884765625">
        <ele>168.600006103515625</ele>
        <time>2019-10-26T08:44:15.000Z</time>
      </trkpt>
      <trkpt lat="37.89068087004125118255615234375" lon="-1.34407161734998226165771484375">
        <ele>168.8000030517578125</ele>
        <time>2019-10-26T08:44:19.000Z</time>
      </trkpt>
      <trkpt lat="37.8905681334435939788818359375" lon="-1.344270519912242889404296875">
        <ele>169</ele>
        <time>2019-10-26T08:44:23.000Z</time>
      </trkpt>
      <trkpt lat="37.89046109654009342193603515625" lon="-1.3444597832858562469482421875">
        <ele>169</ele>
        <time>2019-10-26T08:44:27.000Z</time>
      </trkpt>
      <trkpt lat="37.8904380463063716888427734375" lon="-1.344508565962314605712890625">
        <ele>169</ele>
        <time>2019-10-26T08:44:28.000Z</time>
      </trkpt>
      <trkpt lat="37.890330255031585693359375" lon="-1.3447098992764949798583984375">
        <ele>169.1999969482421875</ele>
        <time>2019-10-26T08:44:32.000Z</time>
      </trkpt>
      <trkpt lat="37.89021424949169158935546875" lon="-1.34490779601037502288818359375">
        <ele>169</ele>
        <time>2019-10-26T08:44:36.000Z</time>
      </trkpt>
      <trkpt lat="37.89009178988635540008544921875" lon="-1.3451202772557735443115234375">
        <ele>168.600006103515625</ele>
        <time>2019-10-26T08:44:40.000Z</time>
      </trkpt>
      <trkpt lat="37.88997092284262180328369140625" lon="-1.34533242322504520416259765625">
        <ele>168</ele>
        <time>2019-10-26T08:44:44.000Z</time>
      </trkpt>
      <trkpt lat="37.8898757882416248321533203125" lon="-1.34549201466143131256103515625">
        <ele>167.399993896484375</ele>
        <time>2019-10-26T08:44:47.000Z</time>
      </trkpt>
      <trkpt lat="37.8897530771791934967041015625" lon="-1.34571916423738002777099609375">
        <ele>167.1999969482421875</ele>
        <time>2019-10-26T08:44:51.000Z</time>
      </trkpt>
      <trkpt lat="37.88961988873779773712158203125" lon="-1.34596743620932102203369140625">
        <ele>167.600006103515625</ele>
        <time>2019-10-26T08:44:55.000Z</time>
      </trkpt>
      <trkpt lat="37.88951578550040721893310546875" lon="-1.346155442297458648681640625">
        <ele>167.8000030517578125</ele>
        <time>2019-10-26T08:44:58.000Z</time>
      </trkpt>
      <trkpt lat="37.88938066922128200531005859375" lon="-1.3464040495455265045166015625">
        <ele>168.1999969482421875</ele>
        <time>2019-10-26T08:45:02.000Z</time>
      </trkpt>
      <trkpt lat="37.889245636761188507080078125" lon="-1.34665207006037235260009765625">
        <ele>168.600006103515625</ele>
        <time>2019-10-26T08:45:06.000Z</time>
      </trkpt>
      <trkpt lat="37.88910322822630405426025390625" lon="-1.3468935526907444000244140625">
        <ele>169.600006103515625</ele>
        <time>2019-10-26T08:45:10.000Z</time>
      </trkpt>
      <trkpt lat="37.888963334262371063232421875" lon="-1.3471265695989131927490234375">
        <ele>170.399993896484375</ele>
        <time>2019-10-26T08:45:14.000Z</time>
      </trkpt>
      <trkpt lat="37.88882126100361347198486328125" lon="-1.3473636098206043243408203125">
        <ele>171.1999969482421875</ele>
        <time>2019-10-26T08:45:18.000Z</time>
      </trkpt>
      <trkpt lat="37.88868396542966365814208984375" lon="-1.3476036675274372100830078125">
        <ele>171.8000030517578125</ele>
        <time>2019-10-26T08:45:22.000Z</time>
      </trkpt>
      <trkpt lat="37.8885524533689022064208984375" lon="-1.34782888926565647125244140625">
        <ele>172.1999969482421875</ele>
        <time>2019-10-26T08:45:26.000Z</time>
      </trkpt>
      <trkpt lat="37.8884176723659038543701171875" lon="-1.348059810698032379150390625">
        <ele>172.8000030517578125</ele>
        <time>2019-10-26T08:45:30.000Z</time>
      </trkpt>
      <trkpt lat="37.8882902674376964569091796875" lon="-1.34828436188399791717529296875">
        <ele>173</ele>
        <time>2019-10-26T08:45:34.000Z</time>
      </trkpt>
      <trkpt lat="37.888163365423679351806640625" lon="-1.3485181331634521484375">
        <ele>172.8000030517578125</ele>
        <time>2019-10-26T08:45:38.000Z</time>
      </trkpt>
      <trkpt lat="37.8880364634096622467041015625" lon="-1.34874905459582805633544921875">
        <ele>172.8000030517578125</ele>
        <time>2019-10-26T08:45:42.000Z</time>
      </trkpt>
      <trkpt lat="37.8879067115485668182373046875" lon="-1.34899933822453022003173828125">
        <ele>172.8000030517578125</ele>
        <time>2019-10-26T08:45:46.000Z</time>
      </trkpt>
      <trkpt lat="37.887797914445400238037109375" lon="-1.3491848297417163848876953125">
        <ele>172.600006103515625</ele>
        <time>2019-10-26T08:45:49.000Z</time>
      </trkpt>
      <trkpt lat="37.8877647221088409423828125" lon="-1.3492515496909618377685546875">
        <ele>172.399993896484375</ele>
        <time>2019-10-26T08:45:50.000Z</time>
      </trkpt>
      <trkpt lat="37.8876654803752899169921875" lon="-1.3494604267179965972900390625">
        <ele>172.1999969482421875</ele>
        <time>2019-10-26T08:45:53.000Z</time>
      </trkpt>
      <trkpt lat="37.88762616924941539764404296875" lon="-1.34952706284821033477783203125">
        <ele>172.1999969482421875</ele>
        <time>2019-10-26T08:45:54.000Z</time>
      </trkpt>
      <trkpt lat="37.88751586340367794036865234375" lon="-1.3497309945523738861083984375">
        <ele>172</ele>
        <time>2019-10-26T08:45:57.000Z</time>
      </trkpt>
      <trkpt lat="37.88739667274057865142822265625" lon="-1.3499222695827484130859375">
        <ele>171.399993896484375</ele>
        <time>2019-10-26T08:46:00.000Z</time>
      </trkpt>
      <trkpt lat="37.8872770629823207855224609375" lon="-1.3500954397022724151611328125">
        <ele>170.600006103515625</ele>
        <time>2019-10-26T08:46:03.000Z</time>
      </trkpt>
      <trkpt lat="37.8871261887252330780029296875" lon="-1.35031596757471561431884765625">
        <ele>169.600006103515625</ele>
        <time>2019-10-26T08:46:07.000Z</time>
      </trkpt>
      <trkpt lat="37.88704731501638889312744140625" lon="-1.35045041330158710479736328125">
        <ele>169</ele>
        <time>2019-10-26T08:46:10.000Z</time>
      </trkpt>
      <trkpt lat="37.88715980015695095062255859375" lon="-1.35063615627586841583251953125">
        <ele>168</ele>
        <time>2019-10-26T08:46:48.000Z</time>
      </trkpt>
      <trkpt lat="37.88729407824575901031494140625" lon="-1.35084159672260284423828125">
        <ele>166.600006103515625</ele>
        <time>2019-10-26T08:46:52.000Z</time>
      </trkpt>
      <trkpt lat="37.88739633746445178985595703125" lon="-1.35102708823978900909423828125">
        <ele>166.600006103515625</ele>
        <time>2019-10-26T08:46:55.000Z</time>
      </trkpt>
      <trkpt lat="37.8874068148434162139892578125" lon="-1.35132816620171070098876953125">
        <ele>166.1999969482421875</ele>
        <time>2019-10-26T08:46:59.000Z</time>
      </trkpt>
      <trkpt lat="37.88739214651286602020263671875" lon="-1.3514187745749950408935546875">
        <ele>166</ele>
        <time>2019-10-26T08:47:00.000Z</time>
      </trkpt>
      <trkpt lat="37.887320816516876220703125" lon="-1.35165472514927387237548828125">
        <ele>167.1999969482421875</ele>
        <time>2019-10-26T08:47:03.000Z</time>
      </trkpt>
      <trkpt lat="37.887290306389331817626953125" lon="-1.35172379203140735626220703125">
        <ele>167.8000030517578125</ele>
        <time>2019-10-26T08:47:04.000Z</time>
      </trkpt>
      <trkpt lat="37.8871612250804901123046875" lon="-1.35196586139500141143798828125">
        <ele>169.1999969482421875</ele>
        <time>2019-10-26T08:47:08.000Z</time>
      </trkpt>
      <trkpt lat="37.88704060949385166168212890625" lon="-1.35220005176961421966552734375">
        <ele>170.600006103515625</ele>
        <time>2019-10-26T08:47:12.000Z</time>
      </trkpt>
      <trkpt lat="37.88692183792591094970703125" lon="-1.352423094213008880615234375">
        <ele>171.399993896484375</ele>
        <time>2019-10-26T08:47:16.000Z</time>
      </trkpt>
      <trkpt lat="37.8868281282484531402587890625" lon="-1.3525811769068241119384765625">
        <ele>171.8000030517578125</ele>
        <time>2019-10-26T08:47:19.000Z</time>
      </trkpt>
      <trkpt lat="37.8866967000067234039306640625" lon="-1.35280053131282329559326171875">
        <ele>172.1999969482421875</ele>
        <time>2019-10-26T08:47:23.000Z</time>
      </trkpt>
      <trkpt lat="37.88662922568619251251220703125" lon="-1.3529120944440364837646484375">
        <ele>172.600006103515625</ele>
        <time>2019-10-26T08:47:25.000Z</time>
      </trkpt>
      <trkpt lat="37.88650483824312686920166015625" lon="-1.353141926229000091552734375">
        <ele>173.399993896484375</ele>
        <time>2019-10-26T08:47:29.000Z</time>
      </trkpt>
      <trkpt lat="37.88636838085949420928955078125" lon="-1.35339095257222652435302734375">
        <ele>173.1999969482421875</ele>
        <time>2019-10-26T08:47:33.000Z</time>
      </trkpt>
      <trkpt lat="37.8862628526985645294189453125" lon="-1.35359144769608974456787109375">
        <ele>172.8000030517578125</ele>
        <time>2019-10-26T08:47:36.000Z</time>
      </trkpt>
      <trkpt lat="37.886164449155330657958984375" lon="-1.35378456674516201019287109375">
        <ele>172.8000030517578125</ele>
        <time>2019-10-26T08:47:39.000Z</time>
      </trkpt>
      <trkpt lat="37.8861059434711933135986328125" lon="-1.35388632304966449737548828125">
        <ele>172.600006103515625</ele>
        <time>2019-10-26T08:47:41.000Z</time>
      </trkpt>
      <trkpt lat="37.8860616870224475860595703125" lon="-1.35398036800324916839599609375">
        <ele>172.600006103515625</ele>
        <time>2019-10-26T08:47:46.000Z</time>
      </trkpt>
      <trkpt lat="37.885979376733303070068359375" lon="-1.35413560084998607635498046875">
        <ele>172.399993896484375</ele>
        <time>2019-10-26T08:48:36.000Z</time>
      </trkpt>
      <trkpt lat="37.88584065623581409454345703125" lon="-1.35431078262627124786376953125">
        <ele>172.1999969482421875</ele>
        <time>2019-10-26T08:48:43.000Z</time>
      </trkpt>
      <trkpt lat="37.885725907981395721435546875" lon="-1.35452502407133579254150390625">
        <ele>172</ele>
        <time>2019-10-26T08:48:48.000Z</time>
      </trkpt>
      <trkpt lat="37.88560361601412296295166015625" lon="-1.354721747338771820068359375">
        <ele>171.8000030517578125</ele>
        <time>2019-10-26T08:48:52.000Z</time>
      </trkpt>
      <trkpt lat="37.88557310588657855987548828125" lon="-1.35477631352841854095458984375">
        <ele>171.8000030517578125</ele>
        <time>2019-10-26T08:48:53.000Z</time>
      </trkpt>
      <trkpt lat="37.88545039482414722442626953125" lon="-1.35502324439585208892822265625">
        <ele>171.600006103515625</ele>
        <time>2019-10-26T08:48:57.000Z</time>
      </trkpt>
      <trkpt lat="37.88534126244485378265380859375" lon="-1.3552107475697994232177734375">
        <ele>171.399993896484375</ele>
        <time>2019-10-26T08:49:00.000Z</time>
      </trkpt>
      <trkpt lat="37.88523665629327297210693359375" lon="-1.3554035313427448272705078125">
        <ele>171.399993896484375</ele>
        <time>2019-10-26T08:49:03.000Z</time>
      </trkpt>
      <trkpt lat="37.88512920029461383819580078125" lon="-1.3556165993213653564453125">
        <ele>171.1999969482421875</ele>
        <time>2019-10-26T08:49:06.000Z</time>
      </trkpt>
      <trkpt lat="37.8850159607827663421630859375" lon="-1.3558293320238590240478515625">
        <ele>170.600006103515625</ele>
        <time>2019-10-26T08:49:09.000Z</time>
      </trkpt>
      <trkpt lat="37.88490322418510913848876953125" lon="-1.35603460483253002166748046875">
        <ele>170.8000030517578125</ele>
        <time>2019-10-26T08:49:12.000Z</time>
      </trkpt>
      <trkpt lat="37.8847933374345302581787109375" lon="-1.35624381713569164276123046875">
        <ele>170.8000030517578125</ele>
        <time>2019-10-26T08:49:15.000Z</time>
      </trkpt>
      <trkpt lat="37.88468881510198116302490234375" lon="-1.356455124914646148681640625">
        <ele>170.8000030517578125</ele>
        <time>2019-10-26T08:49:18.000Z</time>
      </trkpt>
      <trkpt lat="37.88458337076008319854736328125" lon="-1.3566520996391773223876953125">
        <ele>171.1999969482421875</ele>
        <time>2019-10-26T08:49:21.000Z</time>
      </trkpt>
      <trkpt lat="37.88447725586593151092529296875" lon="-1.35684194974601268768310546875">
        <ele>171.8000030517578125</ele>
        <time>2019-10-26T08:49:24.000Z</time>
      </trkpt>
      <trkpt lat="37.88437834940850734710693359375" lon="-1.35703775100409984588623046875">
        <ele>172.1999969482421875</ele>
        <time>2019-10-26T08:49:27.000Z</time>
      </trkpt>
      <trkpt lat="37.8842724859714508056640625" lon="-1.35724109597504138946533203125">
        <ele>172.8000030517578125</ele>
        <time>2019-10-26T08:49:30.000Z</time>
      </trkpt>
      <trkpt lat="37.88416997529566287994384765625" lon="-1.35743170045316219329833984375">
        <ele>173</ele>
        <time>2019-10-26T08:49:33.000Z</time>
      </trkpt>
      <trkpt lat="37.8840686380863189697265625" lon="-1.3576284237205982208251953125">
        <ele>173.1999969482421875</ele>
        <time>2019-10-26T08:49:36.000Z</time>
      </trkpt>
      <trkpt lat="37.88396528922021389007568359375" lon="-1.35782539844512939453125">
        <ele>173.399993896484375</ele>
        <time>2019-10-26T08:49:39.000Z</time>
      </trkpt>
      <trkpt lat="37.88386319763958454132080078125" lon="-1.3580284081399440765380859375">
        <ele>173.399993896484375</ele>
        <time>2019-10-26T08:49:42.000Z</time>
      </trkpt>
      <trkpt lat="37.883753813803195953369140625" lon="-1.35822303593158721923828125">
        <ele>173.600006103515625</ele>
        <time>2019-10-26T08:49:45.000Z</time>
      </trkpt>
      <trkpt lat="37.88364686071872711181640625" lon="-1.35842780582606792449951171875">
        <ele>173.8000030517578125</ele>
        <time>2019-10-26T08:49:48.000Z</time>
      </trkpt>
      <trkpt lat="37.88354015909135341644287109375" lon="-1.358628384768962860107421875">
        <ele>173.8000030517578125</ele>
        <time>2019-10-26T08:49:51.000Z</time>
      </trkpt>
      <trkpt lat="37.88344033062458038330078125" lon="-1.35881974361836910247802734375">
        <ele>174</ele>
        <time>2019-10-26T08:49:54.000Z</time>
      </trkpt>
      <trkpt lat="37.8833251632750034332275390625" lon="-1.3590597175061702728271484375">
        <ele>174.1999969482421875</ele>
        <time>2019-10-26T08:49:58.000Z</time>
      </trkpt>
      <trkpt lat="37.883194573223590850830078125" lon="-1.3592967577278614044189453125">
        <ele>175</ele>
        <time>2019-10-26T08:50:02.000Z</time>
      </trkpt>
      <trkpt lat="37.88305132649838924407958984375" lon="-1.359538994729518890380859375">
        <ele>175.600006103515625</ele>
        <time>2019-10-26T08:50:06.000Z</time>
      </trkpt>
      <trkpt lat="37.88289357908070087432861328125" lon="-1.35976337827742099761962890625">
        <ele>176.1999969482421875</ele>
        <time>2019-10-26T08:50:10.000Z</time>
      </trkpt>
      <trkpt lat="37.88274136371910572052001953125" lon="-1.35995951481163501739501953125">
        <ele>176.399993896484375</ele>
        <time>2019-10-26T08:50:14.000Z</time>
      </trkpt>
      <trkpt lat="37.88260423578321933746337890625" lon="-1.36013201437890529632568359375">
        <ele>176.399993896484375</ele>
        <time>2019-10-26T08:50:18.000Z</time>
      </trkpt>
      <trkpt lat="37.88243927992880344390869140625" lon="-1.36030845344066619873046875">
        <ele>176.399993896484375</ele>
        <time>2019-10-26T08:50:23.000Z</time>
      </trkpt>
      <trkpt lat="37.88226108066737651824951171875" lon="-1.36045756749808788299560546875">
        <ele>176.399993896484375</ele>
        <time>2019-10-26T08:50:28.000Z</time>
      </trkpt>
      <trkpt lat="37.882097549736499786376953125" lon="-1.36060349643230438232421875">
        <ele>176.399993896484375</ele>
        <time>2019-10-26T08:50:33.000Z</time>
      </trkpt>
      <trkpt lat="37.8819657862186431884765625" lon="-1.360709108412265777587890625">
        <ele>176.399993896484375</ele>
        <time>2019-10-26T08:50:37.000Z</time>
      </trkpt>
      <trkpt lat="37.8819364495575428009033203125" lon="-1.3607404567301273345947265625">
        <ele>176.399993896484375</ele>
        <time>2019-10-26T08:50:38.000Z</time>
      </trkpt>
      <trkpt lat="37.88181348703801631927490234375" lon="-1.36091052554547786712646484375">
        <ele>176.8000030517578125</ele>
        <time>2019-10-26T08:50:43.000Z</time>
      </trkpt>
      <trkpt lat="37.8817144967615604400634765625" lon="-1.361121833324432373046875">
        <ele>177.1999969482421875</ele>
        <time>2019-10-26T08:50:48.000Z</time>
      </trkpt>
      <trkpt lat="37.88170116953551769256591796875" lon="-1.36116684414446353912353515625">
        <ele>177.1999969482421875</ele>
        <time>2019-10-26T08:50:49.000Z</time>
      </trkpt>
      <trkpt lat="37.88164861500263214111328125" lon="-1.36139902286231517791748046875">
        <ele>177.8000030517578125</ele>
        <time>2019-10-26T08:50:54.000Z</time>
      </trkpt>
      <trkpt lat="37.88163193501532077789306640625" lon="-1.361592896282672882080078125">
        <ele>178</ele>
        <time>2019-10-26T08:50:58.000Z</time>
      </trkpt>
      <trkpt lat="37.88163109682500362396240234375" lon="-1.36169456876814365386962890625">
        <ele>178</ele>
        <time>2019-10-26T08:51:00.000Z</time>
      </trkpt>
      <trkpt lat="37.88164081983268260955810546875" lon="-1.36180051602423191070556640625">
        <ele>178.1999969482421875</ele>
        <time>2019-10-26T08:51:02.000Z</time>
      </trkpt>
      <trkpt lat="37.88171122781932353973388671875" lon="-1.3620567508041858673095703125">
        <ele>178.600006103515625</ele>
        <time>2019-10-26T08:51:07.000Z</time>
      </trkpt>
      <trkpt lat="37.8818315081298351287841796875" lon="-1.3622947968542575836181640625">
        <ele>179</ele>
        <time>2019-10-26T08:51:12.000Z</time>
      </trkpt>
      <trkpt lat="37.88198514841496944427490234375" lon="-1.3624741695821285247802734375">
        <ele>179.600006103515625</ele>
        <time>2019-10-26T08:51:16.000Z</time>
      </trkpt>
      <trkpt lat="37.882078103721141815185546875" lon="-1.3625499419867992401123046875">
        <ele>179.8000030517578125</ele>
        <time>2019-10-26T08:51:18.000Z</time>
      </trkpt>
      <trkpt lat="37.8823042474687099456787109375" lon="-1.36265831999480724334716796875">
        <ele>180.1999969482421875</ele>
        <time>2019-10-26T08:51:22.000Z</time>
      </trkpt>
      <trkpt lat="37.88249409757554531097412109375" lon="-1.3626895844936370849609375">
        <ele>180.399993896484375</ele>
        <time>2019-10-26T08:51:25.000Z</time>
      </trkpt>
      <trkpt lat="37.88269576616585254669189453125" lon="-1.3626689650118350982666015625">
        <ele>180.399993896484375</ele>
        <time>2019-10-26T08:51:29.000Z</time>
      </trkpt>
      <trkpt lat="37.88280741311609745025634765625" lon="-1.36263124644756317138671875">
        <ele>180.399993896484375</ele>
        <time>2019-10-26T08:51:32.000Z</time>
      </trkpt>
      <trkpt lat="37.882857285439968109130859375" lon="-1.36278740130364894866943359375">
        <ele>181</ele>
        <time>2019-10-26T08:51:38.000Z</time>
      </trkpt>
      <trkpt lat="37.882745973765850067138671875" lon="-1.3628298975527286529541015625">
        <ele>181</ele>
        <time>2019-10-26T08:51:41.000Z</time>
      </trkpt>
      <trkpt lat="37.8826693631708621978759765625" lon="-1.3628500141203403472900390625">
        <ele>181</ele>
        <time>2019-10-26T08:51:43.000Z</time>
      </trkpt>
      <trkpt lat="37.88245327770709991455078125" lon="-1.362869627773761749267578125">
        <ele>181</ele>
        <time>2019-10-26T08:51:48.000Z</time>
      </trkpt>
      <trkpt lat="37.88240374065935611724853515625" lon="-1.3628654368221759796142578125">
        <ele>181</ele>
        <time>2019-10-26T08:51:49.000Z</time>
      </trkpt>
      <trkpt lat="37.8822056762874126434326171875" lon="-1.36282570660114288330078125">
        <ele>180.8000030517578125</ele>
        <time>2019-10-26T08:51:53.000Z</time>
      </trkpt>
      <trkpt lat="37.88210651837289333343505859375" lon="-1.36279284954071044921875">
        <ele>180.8000030517578125</ele>
        <time>2019-10-26T08:51:55.000Z</time>
      </trkpt>
      <trkpt lat="37.8819086216390132904052734375" lon="-1.3626895844936370849609375">
        <ele>180.399993896484375</ele>
        <time>2019-10-26T08:51:59.000Z</time>
      </trkpt>
      <trkpt lat="37.88174115121364593505859375" lon="-1.362608782947063446044921875">
        <ele>180</ele>
        <time>2019-10-26T08:52:02.000Z</time>
      </trkpt>
      <trkpt lat="37.8815572522580623626708984375" lon="-1.3626136444509029388427734375">
        <ele>178.8000030517578125</ele>
        <time>2019-10-26T08:52:05.000Z</time>
      </trkpt>
      <trkpt lat="37.8814519755542278289794921875" lon="-1.3626579008996486663818359375">
        <ele>178.1999969482421875</ele>
        <time>2019-10-26T08:52:07.000Z</time>
      </trkpt>
      <trkpt lat="37.881280146539211273193359375" lon="-1.36276493780314922332763671875">
        <ele>177.399993896484375</ele>
        <time>2019-10-26T08:52:12.000Z</time>
      </trkpt>
      <trkpt lat="37.88128660060465335845947265625" lon="-1.36273006908595561981201171875">
        <ele>177.399993896484375</ele>
        <time>2019-10-26T08:52:18.000Z</time>
      </trkpt>
      <trkpt lat="37.8813128359615802764892578125" lon="-1.362712718546390533447265625">
        <ele>177.600006103515625</ele>
        <time>2019-10-26T08:52:19.000Z</time>
      </trkpt>
      <trkpt lat="37.88148500025272369384765625" lon="-1.36261221952736377716064453125">
        <ele>178.399993896484375</ele>
        <time>2019-10-26T08:52:24.000Z</time>
      </trkpt>
      <trkpt lat="37.881595306098461151123046875" lon="-1.36257215403020381927490234375">
        <ele>179</ele>
        <time>2019-10-26T08:52:27.000Z</time>
      </trkpt>
      <trkpt lat="37.8817212022840976715087890625" lon="-1.36256243102252483367919921875">
        <ele>179.8000030517578125</ele>
        <time>2019-10-26T08:52:30.000Z</time>
      </trkpt>
      <trkpt lat="37.8819203563034534454345703125" lon="-1.36263451538980007171630859375">
        <ele>180.1999969482421875</ele>
        <time>2019-10-26T08:52:35.000Z</time>
      </trkpt>
      <trkpt lat="37.88210232742130756378173828125" lon="-1.362742893397808074951171875">
        <ele>180.600006103515625</ele>
        <time>2019-10-26T08:52:40.000Z</time>
      </trkpt>
      <trkpt lat="37.882215566933155059814453125" lon="-1.3627977110445499420166015625">
        <ele>180.8000030517578125</ele>
        <time>2019-10-26T08:52:43.000Z</time>
      </trkpt>
      <trkpt lat="37.88243022747337818145751953125" lon="-1.362843811511993408203125">
        <ele>181</ele>
        <time>2019-10-26T08:52:48.000Z</time>
      </trkpt>
      <trkpt lat="37.882597446441650390625" lon="-1.36284272186458110809326171875">
        <ele>181</ele>
        <time>2019-10-26T08:52:52.000Z</time>
      </trkpt>
      <trkpt lat="37.8827018849551677703857421875" lon="-1.362806595861911773681640625">
        <ele>181</ele>
        <time>2019-10-26T08:52:55.000Z</time>
      </trkpt>
      <trkpt lat="37.88290388882160186767578125" lon="-1.362698972225189208984375">
        <ele>180.8000030517578125</ele>
        <time>2019-10-26T08:53:00.000Z</time>
      </trkpt>
      <trkpt lat="37.88308820687234401702880859375" lon="-1.3626025803387165069580078125">
        <ele>180.600006103515625</ele>
        <time>2019-10-26T08:53:05.000Z</time>
      </trkpt>
      <trkpt lat="37.88311921991407871246337890625" lon="-1.36257885955274105072021484375">
        <ele>180.600006103515625</ele>
        <time>2019-10-26T08:53:06.000Z</time>
      </trkpt>
      <trkpt lat="37.88321024738252162933349609375" lon="-1.3624818809330463409423828125">
        <ele>180.399993896484375</ele>
        <time>2019-10-26T08:53:10.000Z</time>
      </trkpt>
      <trkpt lat="37.88313296623528003692626953125" lon="-1.36258791200816631317138671875">
        <ele>180.600006103515625</ele>
        <time>2019-10-26T08:53:16.000Z</time>
      </trkpt>
      <trkpt lat="37.882958538830280303955078125" lon="-1.36265161447227001190185546875">
        <ele>180.8000030517578125</ele>
        <time>2019-10-26T08:53:21.000Z</time>
      </trkpt>
      <trkpt lat="37.8830224089324474334716796875" lon="-1.36245799250900745391845703125">
        <ele>180</ele>
        <time>2019-10-26T08:53:26.000Z</time>
      </trkpt>
      <trkpt lat="37.883142940700054168701171875" lon="-1.36226085014641284942626953125">
        <ele>179.399993896484375</ele>
        <time>2019-10-26T08:53:30.000Z</time>
      </trkpt>
      <trkpt lat="37.8831592015922069549560546875" lon="-1.362012326717376708984375">
        <ele>178.1999969482421875</ele>
        <time>2019-10-26T08:53:34.000Z</time>
      </trkpt>
      <trkpt lat="37.88305149413645267486572265625" lon="-1.361790038645267486572265625">
        <ele>177.1999969482421875</ele>
        <time>2019-10-26T08:53:38.000Z</time>
      </trkpt>
      <trkpt lat="37.88291352801024913787841796875" lon="-1.3617030344903469085693359375">
        <ele>177.1999969482421875</ele>
        <time>2019-10-26T08:53:41.000Z</time>
      </trkpt>
      <trkpt lat="37.8827283717691898345947265625" lon="-1.3617278449237346649169921875">
        <ele>177.399993896484375</ele>
        <time>2019-10-26T08:53:45.000Z</time>
      </trkpt>
      <trkpt lat="37.8825399465858936309814453125" lon="-1.36183840222656726837158203125">
        <ele>177.8000030517578125</ele>
        <time>2019-10-26T08:53:49.000Z</time>
      </trkpt>
      <trkpt lat="37.88234062492847442626953125" lon="-1.3619581796228885650634765625">
        <ele>178.1999969482421875</ele>
        <time>2019-10-26T08:53:53.000Z</time>
      </trkpt>
      <trkpt lat="37.8821413032710552215576171875" lon="-1.3620849139988422393798828125">
        <ele>178.399993896484375</ele>
        <time>2019-10-26T08:53:57.000Z</time>
      </trkpt>
      <trkpt lat="37.88193418644368648529052734375" lon="-1.3622173480689525604248046875">
        <ele>178.8000030517578125</ele>
        <time>2019-10-26T08:54:01.000Z</time>
      </trkpt>
      <trkpt lat="37.88177811540663242340087890625" lon="-1.36231382377445697784423828125">
        <ele>179</ele>
        <time>2019-10-26T08:54:04.000Z</time>
      </trkpt>
      <trkpt lat="37.881564795970916748046875" lon="-1.36244005523622035980224609375">
        <ele>178.399993896484375</ele>
        <time>2019-10-26T08:54:08.000Z</time>
      </trkpt>
      <trkpt lat="37.88135583512485027313232421875" lon="-1.36258707381784915924072265625">
        <ele>177.8000030517578125</ele>
        <time>2019-10-26T08:54:12.000Z</time>
      </trkpt>
      <trkpt lat="37.88115014322102069854736328125" lon="-1.36273442767560482025146484375">
        <ele>177</ele>
        <time>2019-10-26T08:54:16.000Z</time>
      </trkpt>
      <trkpt lat="37.8809457086026668548583984375" lon="-1.36287356726825237274169921875">
        <ele>176.399993896484375</ele>
        <time>2019-10-26T08:54:20.000Z</time>
      </trkpt>
      <trkpt lat="37.8807482309639453887939453125" lon="-1.363004744052886962890625">
        <ele>176</ele>
        <time>2019-10-26T08:54:24.000Z</time>
      </trkpt>
      <trkpt lat="37.88058914244174957275390625" lon="-1.36311664246022701263427734375">
        <ele>175.600006103515625</ele>
        <time>2019-10-26T08:54:27.000Z</time>
      </trkpt>
      <trkpt lat="37.88043131120502948760986328125" lon="-1.3632285408675670623779296875">
        <ele>175.8000030517578125</ele>
        <time>2019-10-26T08:54:30.000Z</time>
      </trkpt>
      <trkpt lat="37.8802694566547870635986328125" lon="-1.36334446258842945098876953125">
        <ele>176.1999969482421875</ele>
        <time>2019-10-26T08:54:33.000Z</time>
      </trkpt>
      <trkpt lat="37.880061753094196319580078125" lon="-1.363495253026485443115234375">
        <ele>176.600006103515625</ele>
        <time>2019-10-26T08:54:37.000Z</time>
      </trkpt>
      <trkpt lat="37.879857234656810760498046875" lon="-1.36365543119609355926513671875">
        <ele>177</ele>
        <time>2019-10-26T08:54:41.000Z</time>
      </trkpt>
      <trkpt lat="37.8797046840190887451171875" lon="-1.36378719471395015716552734375">
        <ele>177.1999969482421875</ele>
        <time>2019-10-26T08:54:44.000Z</time>
      </trkpt>
      <trkpt lat="37.8795070387423038482666015625" lon="-1.36396028101444244384765625">
        <ele>177.600006103515625</ele>
        <time>2019-10-26T08:54:48.000Z</time>
      </trkpt>
      <trkpt lat="37.87936069071292877197265625" lon="-1.36409849859774112701416015625">
        <ele>177.8000030517578125</ele>
        <time>2019-10-26T08:54:51.000Z</time>
      </trkpt>
      <trkpt lat="37.87921878509223461151123046875" lon="-1.36424132622778415679931640625">
        <ele>178</ele>
        <time>2019-10-26T08:54:54.000Z</time>
      </trkpt>
      <trkpt lat="37.87907226942479610443115234375" lon="-1.364381723105907440185546875">
        <ele>177.8000030517578125</ele>
        <time>2019-10-26T08:54:57.000Z</time>
      </trkpt>
      <trkpt lat="37.87893229164183139801025390625" lon="-1.36453385464847087860107421875">
        <ele>178</ele>
        <time>2019-10-26T08:55:00.000Z</time>
      </trkpt>
      <trkpt lat="37.8787986002862453460693359375" lon="-1.36469109915196895599365234375">
        <ele>178</ele>
        <time>2019-10-26T08:55:03.000Z</time>
      </trkpt>
      <trkpt lat="37.8786232508718967437744140625" lon="-1.3648911751806735992431640625">
        <ele>178</ele>
        <time>2019-10-26T08:55:07.000Z</time>
      </trkpt>
      <trkpt lat="37.87849911488592624664306640625" lon="-1.3650564663112163543701171875">
        <ele>178</ele>
        <time>2019-10-26T08:55:10.000Z</time>
      </trkpt>
      <trkpt lat="37.878375314176082611083984375" lon="-1.3652244396507740020751953125">
        <ele>178</ele>
        <time>2019-10-26T08:55:13.000Z</time>
      </trkpt>
      <trkpt lat="37.878252603113651275634765625" lon="-1.36539685539901256561279296875">
        <ele>177.8000030517578125</ele>
        <time>2019-10-26T08:55:16.000Z</time>
      </trkpt>
      <trkpt lat="37.8781300596892833709716796875" lon="-1.36557639576494693756103515625">
        <ele>177.8000030517578125</ele>
        <time>2019-10-26T08:55:19.000Z</time>
      </trkpt>
      <trkpt lat="37.877988405525684356689453125" lon="-1.3658081553876399993896484375">
        <ele>178</ele>
        <time>2019-10-26T08:55:23.000Z</time>
      </trkpt>
      <trkpt lat="37.87793182767927646636962890625" lon="-1.3659375719726085662841796875">
        <ele>178</ele>
        <time>2019-10-26T08:55:25.000Z</time>
      </trkpt>
      <trkpt lat="37.87784918211400508880615234375" lon="-1.36621291749179363250732421875">
        <ele>178.399993896484375</ele>
        <time>2019-10-26T08:55:29.000Z</time>
      </trkpt>
      <trkpt lat="37.87772512994706630706787109375" lon="-1.3664642907679080963134765625">
        <ele>178.8000030517578125</ele>
        <time>2019-10-26T08:55:33.000Z</time>
      </trkpt>
      <trkpt lat="37.87758565507829189300537109375" lon="-1.3666993193328380584716796875">
        <ele>177.8000030517578125</ele>
        <time>2019-10-26T08:55:37.000Z</time>
      </trkpt>
      <trkpt lat="37.87744500674307346343994140625" lon="-1.36692948639392852783203125">
        <ele>177.8000030517578125</ele>
        <time>2019-10-26T08:55:41.000Z</time>
      </trkpt>
      <trkpt lat="37.87733285687863826751708984375" lon="-1.36710927821695804595947265625">
        <ele>177.8000030517578125</ele>
        <time>2019-10-26T08:55:44.000Z</time>
      </trkpt>
      <trkpt lat="37.8771886043250560760498046875" lon="-1.3673484139144420623779296875">
        <ele>178</ele>
        <time>2019-10-26T08:55:48.000Z</time>
      </trkpt>
      <trkpt lat="37.87705457769334316253662109375" lon="-1.3675908185541629791259765625">
        <ele>178.600006103515625</ele>
        <time>2019-10-26T08:55:52.000Z</time>
      </trkpt>
      <trkpt lat="37.87695248611271381378173828125" lon="-1.36778469197452068328857421875">
        <ele>179</ele>
        <time>2019-10-26T08:55:55.000Z</time>
      </trkpt>
      <trkpt lat="37.876854836940765380859375" lon="-1.36797747574746608734130859375">
        <ele>179.399993896484375</ele>
        <time>2019-10-26T08:55:58.000Z</time>
      </trkpt>
      <trkpt lat="37.87675702013075351715087890625" lon="-1.36817294172942638397216796875">
        <ele>180</ele>
        <time>2019-10-26T08:56:01.000Z</time>
      </trkpt>
      <trkpt lat="37.8766538389027118682861328125" lon="-1.3683646358549594879150390625">
        <ele>179.8000030517578125</ele>
        <time>2019-10-26T08:56:04.000Z</time>
      </trkpt>
      <trkpt lat="37.87655333988368511199951171875" lon="-1.3685567490756511688232421875">
        <ele>179.399993896484375</ele>
        <time>2019-10-26T08:56:07.000Z</time>
      </trkpt>
      <trkpt lat="37.87645342759788036346435546875" lon="-1.36875338852405548095703125">
        <ele>179</ele>
        <time>2019-10-26T08:56:10.000Z</time>
      </trkpt>
      <trkpt lat="37.8763812594115734100341796875" lon="-1.3688826374709606170654296875">
        <ele>178.8000030517578125</ele>
        <time>2019-10-26T08:56:12.000Z</time>
      </trkpt>
      <trkpt lat="37.87627673707902431488037109375" lon="-1.36907533742487430572509765625">
        <ele>178.399993896484375</ele>
        <time>2019-10-26T08:56:15.000Z</time>
      </trkpt>
      <trkpt lat="37.87617129273712635040283203125" lon="-1.3692671991884708404541015625">
        <ele>178.399993896484375</ele>
        <time>2019-10-26T08:56:18.000Z</time>
      </trkpt>
      <trkpt lat="37.87606266327202320098876953125" lon="-1.3694675266742706298828125">
        <ele>178.1999969482421875</ele>
        <time>2019-10-26T08:56:21.000Z</time>
      </trkpt>
      <trkpt lat="37.8759601525962352752685546875" lon="-1.3696671836078166961669921875">
        <ele>178</ele>
        <time>2019-10-26T08:56:24.000Z</time>
      </trkpt>
      <trkpt lat="37.8758538700640201568603515625" lon="-1.36986918747425079345703125">
        <ele>178</ele>
        <time>2019-10-26T08:56:27.000Z</time>
      </trkpt>
      <trkpt lat="37.875751443207263946533203125" lon="-1.370078735053539276123046875">
        <ele>178.399993896484375</ele>
        <time>2019-10-26T08:56:30.000Z</time>
      </trkpt>
      <trkpt lat="37.8756604157388210296630859375" lon="-1.370280571281909942626953125">
        <ele>178.8000030517578125</ele>
        <time>2019-10-26T08:56:34.000Z</time>
      </trkpt>
      <trkpt lat="37.87565530277788639068603515625" lon="-1.3702944852411746978759765625">
        <ele>178.8000030517578125</ele>
        <time>2019-10-26T08:56:35.000Z</time>
      </trkpt>
      <trkpt lat="37.87563183344900608062744140625" lon="-1.37017889879643917083740234375">
        <ele>178.399993896484375</ele>
        <time>2019-10-26T08:57:08.000Z</time>
      </trkpt>
      <trkpt lat="37.875760160386562347412109375" lon="-1.3699732907116413116455078125">
        <ele>178</ele>
        <time>2019-10-26T08:57:14.000Z</time>
      </trkpt>
      <trkpt lat="37.87591698579490184783935546875" lon="-1.37010999955236911773681640625">
        <ele>179.1999969482421875</ele>
        <time>2019-10-26T08:57:21.000Z</time>
      </trkpt>
      <trkpt lat="37.8760756552219390869140625" lon="-1.37026255019009113311767578125">
        <ele>180</ele>
        <time>2019-10-26T08:57:28.000Z</time>
      </trkpt>
      <trkpt lat="37.87620917893946170806884765625" lon="-1.3704411685466766357421875">
        <ele>181</ele>
        <time>2019-10-26T08:57:35.000Z</time>
      </trkpt>
      <trkpt lat="37.87622116506099700927734375" lon="-1.37054434977471828460693359375">
        <ele>181.399993896484375</ele>
        <time>2019-10-26T08:57:38.000Z</time>
      </trkpt>
      <trkpt lat="37.87605218589305877685546875" lon="-1.370566226541996002197265625">
        <ele>181</ele>
        <time>2019-10-26T08:57:44.000Z</time>
      </trkpt>
      <trkpt lat="37.87602393887937068939208984375" lon="-1.37054451741278171539306640625">
        <ele>181</ele>
        <time>2019-10-26T08:57:45.000Z</time>
      </trkpt>
      <trkpt lat="37.87585982121527194976806640625" lon="-1.37040420435369014739990234375">
        <ele>180</ele>
        <time>2019-10-26T08:57:51.000Z</time>
      </trkpt>
      <trkpt lat="37.8757006488740444183349609375" lon="-1.37026489712297916412353515625">
        <ele>179</ele>
        <time>2019-10-26T08:57:57.000Z</time>
      </trkpt>
      <trkpt lat="37.87552555091679096221923828125" lon="-1.370123662054538726806640625">
        <ele>178</ele>
        <time>2019-10-26T08:58:03.000Z</time>
      </trkpt>
      <trkpt lat="37.87536545656621456146240234375" lon="-1.3699880428612232208251953125">
        <ele>177.600006103515625</ele>
        <time>2019-10-26T08:58:08.000Z</time>
      </trkpt>
      <trkpt lat="37.875190190970897674560546875" lon="-1.3698529265820980072021484375">
        <ele>177.1999969482421875</ele>
        <time>2019-10-26T08:58:12.000Z</time>
      </trkpt>
      <trkpt lat="37.8750287555158138275146484375" lon="-1.369722001254558563232421875">
        <ele>176.8000030517578125</ele>
        <time>2019-10-26T08:58:15.000Z</time>
      </trkpt>
      <trkpt lat="37.8748778812587261199951171875" lon="-1.36959635652601718902587890625">
        <ele>176.600006103515625</ele>
        <time>2019-10-26T08:58:18.000Z</time>
      </trkpt>
      <trkpt lat="37.874798588454723358154296875" lon="-1.3695377670228481292724609375">
        <ele>176.399993896484375</ele>
        <time>2019-10-26T08:58:20.000Z</time>
      </trkpt>
      <trkpt lat="37.8747853450477123260498046875" lon="-1.36967414058744907379150390625">
        <ele>176.600006103515625</ele>
        <time>2019-10-26T08:58:26.000Z</time>
      </trkpt>
      <trkpt lat="37.8749410808086395263671875" lon="-1.3698582910001277923583984375">
        <ele>177</ele>
        <time>2019-10-26T08:58:32.000Z</time>
      </trkpt>
      <trkpt lat="37.8750751912593841552734375" lon="-1.370014362037181854248046875">
        <ele>177.1999969482421875</ele>
        <time>2019-10-26T08:58:37.000Z</time>
      </trkpt>
      <trkpt lat="37.87515498697757720947265625" lon="-1.37024411000311374664306640625">
        <ele>177.600006103515625</ele>
        <time>2019-10-26T08:58:44.000Z</time>
      </trkpt>
      <trkpt lat="37.8751514665782451629638671875" lon="-1.3702931441366672515869140625">
        <ele>177.600006103515625</ele>
        <time>2019-10-26T08:58:46.000Z</time>
      </trkpt>
      <trkpt lat="37.87513931281864643096923828125" lon="-1.3703192956745624542236328125">
        <ele>177.8000030517578125</ele>
        <time>2019-10-26T08:58:48.000Z</time>
      </trkpt>
      <trkpt lat="37.87514836527407169342041015625" lon="-1.37030580081045627593994140625">
        <ele>177.600006103515625</ele>
        <time>2019-10-26T09:00:05.000Z</time>
      </trkpt>
      <trkpt lat="37.87514970637857913970947265625" lon="-1.3703323714435100555419921875">
        <ele>177.8000030517578125</ele>
        <time>2019-10-26T09:02:49.000Z</time>
      </trkpt>
      <trkpt lat="37.8751424141228199005126953125" lon="-1.37035600841045379638671875">
        <ele>177.8000030517578125</ele>
        <time>2019-10-26T09:05:14.000Z</time>
      </trkpt>
      <trkpt lat="37.875022552907466888427734375" lon="-1.37056790292263031005859375">
        <ele>177.8000030517578125</ele>
        <time>2019-10-26T09:05:25.000Z</time>
      </trkpt>
      <trkpt lat="37.87490646354854106903076171875" lon="-1.3707930408418178558349609375">
        <ele>178</ele>
        <time>2019-10-26T09:05:31.000Z</time>
      </trkpt>
      <trkpt lat="37.874796576797962188720703125" lon="-1.37100971303880214691162109375">
        <ele>178.1999969482421875</ele>
        <time>2019-10-26T09:05:36.000Z</time>
      </trkpt>
      <trkpt lat="37.874675877392292022705078125" lon="-1.37124759145081043243408203125">
        <ele>178.1999969482421875</ele>
        <time>2019-10-26T09:05:41.000Z</time>
      </trkpt>
      <trkpt lat="37.874576635658740997314453125" lon="-1.371448673307895660400390625">
        <ele>178.399993896484375</ele>
        <time>2019-10-26T09:05:45.000Z</time>
      </trkpt>
      <trkpt lat="37.8744758851826190948486328125" lon="-1.3716520182788372039794921875">
        <ele>178.600006103515625</ele>
        <time>2019-10-26T09:05:49.000Z</time>
      </trkpt>
      <trkpt lat="37.874371111392974853515625" lon="-1.3718535192310810089111328125">
        <ele>178.600006103515625</ele>
        <time>2019-10-26T09:05:53.000Z</time>
      </trkpt>
      <trkpt lat="37.87425912916660308837890625" lon="-1.37206851504743099212646484375">
        <ele>178.8000030517578125</ele>
        <time>2019-10-26T09:05:57.000Z</time>
      </trkpt>
      <trkpt lat="37.874143458902835845947265625" lon="-1.37229097075760364532470703125">
        <ele>178.600006103515625</ele>
        <time>2019-10-26T09:06:01.000Z</time>
      </trkpt>
      <trkpt lat="37.87402150221168994903564453125" lon="-1.37252331711351871490478515625">
        <ele>178</ele>
        <time>2019-10-26T09:06:05.000Z</time>
      </trkpt>
      <trkpt lat="37.873890660703182220458984375" lon="-1.37276337482035160064697265625">
        <ele>177.1999969482421875</ele>
        <time>2019-10-26T09:06:09.000Z</time>
      </trkpt>
      <trkpt lat="37.8737694583833217620849609375" lon="-1.3730045221745967864990234375">
        <ele>176.1999969482421875</ele>
        <time>2019-10-26T09:06:13.000Z</time>
      </trkpt>
      <trkpt lat="37.873643226921558380126953125" lon="-1.373243741691112518310546875">
        <ele>175.399993896484375</ele>
        <time>2019-10-26T09:06:17.000Z</time>
      </trkpt>
      <trkpt lat="37.87353702820837497711181640625" lon="-1.37344365008175373077392578125">
        <ele>175</ele>
        <time>2019-10-26T09:06:20.000Z</time>
      </trkpt>
      <trkpt lat="37.87342957220971584320068359375" lon="-1.37365772388875484466552734375">
        <ele>174.399993896484375</ele>
        <time>2019-10-26T09:06:23.000Z</time>
      </trkpt>
      <trkpt lat="37.87332236766815185546875" lon="-1.3738691993057727813720703125">
        <ele>174</ele>
        <time>2019-10-26T09:06:26.000Z</time>
      </trkpt>
      <trkpt lat="37.87322111427783966064453125" lon="-1.37407598085701465606689453125">
        <ele>173.600006103515625</ele>
        <time>2019-10-26T09:06:29.000Z</time>
      </trkpt>
      <trkpt lat="37.87311860360205173492431640625" lon="-1.37427471578121185302734375">
        <ele>173.399993896484375</ele>
        <time>2019-10-26T09:06:32.000Z</time>
      </trkpt>
      <trkpt lat="37.87302288226783275604248046875" lon="-1.37446925975382328033447265625">
        <ele>173</ele>
        <time>2019-10-26T09:06:35.000Z</time>
      </trkpt>
      <trkpt lat="37.8728980757296085357666015625" lon="-1.374717615544795989990234375">
        <ele>172.600006103515625</ele>
        <time>2019-10-26T09:06:39.000Z</time>
      </trkpt>
      <trkpt lat="37.87277276627719402313232421875" lon="-1.3749541528522968292236328125">
        <ele>172.399993896484375</ele>
        <time>2019-10-26T09:06:43.000Z</time>
      </trkpt>
      <trkpt lat="37.87264309823513031005859375" lon="-1.37521072290837764739990234375">
        <ele>172.600006103515625</ele>
        <time>2019-10-26T09:06:47.000Z</time>
      </trkpt>
      <trkpt lat="37.87253555841743946075439453125" lon="-1.37540970928966999053955078125">
        <ele>172.600006103515625</ele>
        <time>2019-10-26T09:06:50.000Z</time>
      </trkpt>
      <trkpt lat="37.87250337190926074981689453125" lon="-1.375478021800518035888671875">
        <ele>172.399993896484375</ele>
        <time>2019-10-26T09:06:51.000Z</time>
      </trkpt>
      <trkpt lat="37.8724716044962406158447265625" lon="-1.37554935179650783538818359375">
        <ele>172.399993896484375</ele>
        <time>2019-10-26T09:06:52.000Z</time>
      </trkpt>
      <trkpt lat="37.8723634779453277587890625" lon="-1.37576459906995296478271484375">
        <ele>172</ele>
        <time>2019-10-26T09:06:55.000Z</time>
      </trkpt>
      <trkpt lat="37.87225090898573398590087890625" lon="-1.37597783468663692474365234375">
        <ele>171.600006103515625</ele>
        <time>2019-10-26T09:06:58.000Z</time>
      </trkpt>
      <trkpt lat="37.872141860425472259521484375" lon="-1.37619249522686004638671875">
        <ele>171</ele>
        <time>2019-10-26T09:07:01.000Z</time>
      </trkpt>
      <trkpt lat="37.87203490734100341796875" lon="-1.37640665285289287567138671875">
        <ele>170.399993896484375</ele>
        <time>2019-10-26T09:07:04.000Z</time>
      </trkpt>
      <trkpt lat="37.871931307017803192138671875" lon="-1.37661385349929332733154296875">
        <ele>170.1999969482421875</ele>
        <time>2019-10-26T09:07:07.000Z</time>
      </trkpt>
      <trkpt lat="37.871823348104953765869140625" lon="-1.37681552208960056304931640625">
        <ele>169.8000030517578125</ele>
        <time>2019-10-26T09:07:10.000Z</time>
      </trkpt>
      <trkpt lat="37.87172167561948299407958984375" lon="-1.37701115570962429046630859375">
        <ele>169.600006103515625</ele>
        <time>2019-10-26T09:07:13.000Z</time>
      </trkpt>
      <trkpt lat="37.871594689786434173583984375" lon="-1.37726403772830963134765625">
        <ele>169.1999969482421875</ele>
        <time>2019-10-26T09:07:17.000Z</time>
      </trkpt>
      <trkpt lat="37.87147700786590576171875" lon="-1.3774968869984149932861328125">
        <ele>169.1999969482421875</ele>
        <time>2019-10-26T09:07:21.000Z</time>
      </trkpt>
      <trkpt lat="37.871360667049884796142578125" lon="-1.377725712954998016357421875">
        <ele>169.1999969482421875</ele>
        <time>2019-10-26T09:07:25.000Z</time>
      </trkpt>
      <trkpt lat="37.87123762071132659912109375" lon="-1.37795814312994480133056640625">
        <ele>168.8000030517578125</ele>
        <time>2019-10-26T09:07:29.000Z</time>
      </trkpt>
      <trkpt lat="37.87110543809831142425537109375" lon="-1.37819820083677768707275390625">
        <ele>168.600006103515625</ele>
        <time>2019-10-26T09:07:33.000Z</time>
      </trkpt>
      <trkpt lat="37.8709813021123409271240234375" lon="-1.3784302957355976104736328125">
        <ele>168.1999969482421875</ele>
        <time>2019-10-26T09:07:37.000Z</time>
      </trkpt>
      <trkpt lat="37.870854400098323822021484375" lon="-1.378658115863800048828125">
        <ele>168</ele>
        <time>2019-10-26T09:07:41.000Z</time>
      </trkpt>
      <trkpt lat="37.87072406150400638580322265625" lon="-1.37889456935226917266845703125">
        <ele>167.600006103515625</ele>
        <time>2019-10-26T09:07:45.000Z</time>
      </trkpt>
      <trkpt lat="37.87059699185192584991455078125" lon="-1.379131190478801727294921875">
        <ele>167.399993896484375</ele>
        <time>2019-10-26T09:07:49.000Z</time>
      </trkpt>
      <trkpt lat="37.87047310732305049896240234375" lon="-1.37937066145241260528564453125">
        <ele>167.399993896484375</ele>
        <time>2019-10-26T09:07:53.000Z</time>
      </trkpt>
      <trkpt lat="37.870344109833240509033203125" lon="-1.37961231172084808349609375">
        <ele>167.399993896484375</ele>
        <time>2019-10-26T09:07:57.000Z</time>
      </trkpt>
      <trkpt lat="37.87020756863057613372802734375" lon="-1.37985312379896640777587890625">
        <ele>167.600006103515625</ele>
        <time>2019-10-26T09:08:01.000Z</time>
      </trkpt>
      <trkpt lat="37.87006951868534088134765625" lon="-1.3800868950784206390380859375">
        <ele>168.399993896484375</ele>
        <time>2019-10-26T09:08:05.000Z</time>
      </trkpt>
      <trkpt lat="37.869943119585514068603515625" lon="-1.38031362555921077728271484375">
        <ele>168.600006103515625</ele>
        <time>2019-10-26T09:08:09.000Z</time>
      </trkpt>
      <trkpt lat="37.86982166580855846405029296875" lon="-1.380521245300769805908203125">
        <ele>169</ele>
        <time>2019-10-26T09:08:13.000Z</time>
      </trkpt>
      <trkpt lat="37.86970742046833038330078125" lon="-1.38071025721728801727294921875">
        <ele>169.1999969482421875</ele>
        <time>2019-10-26T09:08:17.000Z</time>
      </trkpt>
      <trkpt lat="37.86958227865397930145263671875" lon="-1.38091720640659332275390625">
        <ele>169.399993896484375</ele>
        <time>2019-10-26T09:08:22.000Z</time>
      </trkpt>
      <trkpt lat="37.86946845240890979766845703125" lon="-1.38110973872244358062744140625">
        <ele>169.600006103515625</ele>
        <time>2019-10-26T09:08:27.000Z</time>
      </trkpt>
      <trkpt lat="37.86935311742126941680908203125" lon="-1.38129598461091518402099609375">
        <ele>169.8000030517578125</ele>
        <time>2019-10-26T09:08:32.000Z</time>
      </trkpt>
      <trkpt lat="37.869216911494731903076171875" lon="-1.38150737620890140533447265625">
        <ele>170</ele>
        <time>2019-10-26T09:08:38.000Z</time>
      </trkpt>
      <trkpt lat="37.86909277550876140594482421875" lon="-1.38170711696147918701171875">
        <ele>169.8000030517578125</ele>
        <time>2019-10-26T09:08:44.000Z</time>
      </trkpt>
      <trkpt lat="37.86902940832078456878662109375" lon="-1.38181650079786777496337890625">
        <ele>169.8000030517578125</ele>
        <time>2019-10-26T09:08:49.000Z</time>
      </trkpt>
      <trkpt lat="37.869007699191570281982421875" lon="-1.38203074224293231964111328125">
        <ele>170.399993896484375</ele>
        <time>2019-10-26T09:08:56.000Z</time>
      </trkpt>
      <trkpt lat="37.86887333728373050689697265625" lon="-1.3819178380072116851806640625">
        <ele>169</ele>
        <time>2019-10-26T09:09:03.000Z</time>
      </trkpt>
      <trkpt lat="37.86872581578791141510009765625" lon="-1.38175816275179386138916015625">
        <ele>167.600006103515625</ele>
        <time>2019-10-26T09:09:08.000Z</time>
      </trkpt>
      <trkpt lat="37.8685274161398410797119140625" lon="-1.3816465996205806732177734375">
        <ele>166.1999969482421875</ele>
        <time>2019-10-26T09:09:12.000Z</time>
      </trkpt>
      <trkpt lat="37.86832381971180438995361328125" lon="-1.38160427100956439971923828125">
        <ele>165</ele>
        <time>2019-10-26T09:09:15.000Z</time>
      </trkpt>
      <trkpt lat="37.86808493547141551971435546875" lon="-1.38166512362658977508544921875">
        <ele>164.399993896484375</ele>
        <time>2019-10-26T09:09:18.000Z</time>
      </trkpt>
      <trkpt lat="37.8679255954921245574951171875" lon="-1.3817786984145641326904296875">
        <ele>164.1999969482421875</ele>
        <time>2019-10-26T09:09:20.000Z</time>
      </trkpt>
      <trkpt lat="37.86775971762835979461669921875" lon="-1.38194222934544086456298828125">
        <ele>164</ele>
        <time>2019-10-26T09:09:22.000Z</time>
      </trkpt>
      <trkpt lat="37.8675909899175167083740234375" lon="-1.38211975805461406707763671875">
        <ele>163.8000030517578125</ele>
        <time>2019-10-26T09:09:24.000Z</time>
      </trkpt>
      <trkpt lat="37.8674270398914813995361328125" lon="-1.3822910003364086151123046875">
        <ele>163.399993896484375</ele>
        <time>2019-10-26T09:09:26.000Z</time>
      </trkpt>
      <trkpt lat="37.86727331578731536865234375" lon="-1.38245134614408016204833984375">
        <ele>162.8000030517578125</ele>
        <time>2019-10-26T09:09:28.000Z</time>
      </trkpt>
      <trkpt lat="37.86712956614792346954345703125" lon="-1.3826058246195316314697265625">
        <ele>162</ele>
        <time>2019-10-26T09:09:30.000Z</time>
      </trkpt>
      <trkpt lat="37.8669341839849948883056640625" lon="-1.3828277774155139923095703125">
        <ele>161.1999969482421875</ele>
        <time>2019-10-26T09:09:33.000Z</time>
      </trkpt>
      <trkpt lat="37.86686587147414684295654296875" lon="-1.3828891329467296600341796875">
        <ele>160.8000030517578125</ele>
        <time>2019-10-26T09:09:34.000Z</time>
      </trkpt>
      <trkpt lat="37.8667125664651393890380859375" lon="-1.38298518955707550048828125">
        <ele>160.1999969482421875</ele>
        <time>2019-10-26T09:09:36.000Z</time>
      </trkpt>
      <trkpt lat="37.86649304442107677459716796875" lon="-1.383096836507320404052734375">
        <ele>160</ele>
        <time>2019-10-26T09:09:39.000Z</time>
      </trkpt>
      <trkpt lat="37.86629221402108669281005859375" lon="-1.38319901190698146820068359375">
        <ele>159.8000030517578125</ele>
        <time>2019-10-26T09:09:42.000Z</time>
      </trkpt>
      <trkpt lat="37.86610521376132965087890625" lon="-1.38331552036106586456298828125">
        <ele>159.600006103515625</ele>
        <time>2019-10-26T09:09:45.000Z</time>
      </trkpt>
      <trkpt lat="37.86592659540474414825439453125" lon="-1.38345281593501567840576171875">
        <ele>159.1999969482421875</ele>
        <time>2019-10-26T09:09:48.000Z</time>
      </trkpt>
      <trkpt lat="37.8657633997499942779541015625" lon="-1.38359815813601016998291015625">
        <ele>159</ele>
        <time>2019-10-26T09:09:51.000Z</time>
      </trkpt>
      <trkpt lat="37.865619398653507232666015625" lon="-1.38374400325119495391845703125">
        <ele>158.600006103515625</ele>
        <time>2019-10-26T09:09:54.000Z</time>
      </trkpt>
      <trkpt lat="37.8654395230114459991455078125" lon="-1.3839299976825714111328125">
        <ele>158.1999969482421875</ele>
        <time>2019-10-26T09:09:58.000Z</time>
      </trkpt>
      <trkpt lat="37.86527347750961780548095703125" lon="-1.384124793112277984619140625">
        <ele>158.399993896484375</ele>
        <time>2019-10-26T09:10:02.000Z</time>
      </trkpt>
      <trkpt lat="37.865105755627155303955078125" lon="-1.38432788662612438201904296875">
        <ele>158.8000030517578125</ele>
        <time>2019-10-26T09:10:06.000Z</time>
      </trkpt>
      <trkpt lat="37.86494373343884944915771484375" lon="-1.38453911058604717254638671875">
        <ele>159</ele>
        <time>2019-10-26T09:10:10.000Z</time>
      </trkpt>
      <trkpt lat="37.8648031689226627349853515625" lon="-1.3847663439810276031494140625">
        <ele>159.1999969482421875</ele>
        <time>2019-10-26T09:10:14.000Z</time>
      </trkpt>
      <trkpt lat="37.86467065103352069854736328125" lon="-1.3850000314414501190185546875">
        <ele>159.8000030517578125</ele>
        <time>2019-10-26T09:10:18.000Z</time>
      </trkpt>
      <trkpt lat="37.86454173736274242401123046875" lon="-1.3852213136851787567138671875">
        <ele>160.1999969482421875</ele>
        <time>2019-10-26T09:10:22.000Z</time>
      </trkpt>
      <trkpt lat="37.86441751755774021148681640625" lon="-1.3854213058948516845703125">
        <ele>160.600006103515625</ele>
        <time>2019-10-26T09:10:26.000Z</time>
      </trkpt>
      <trkpt lat="37.8643019311130046844482421875" lon="-1.38561869971454143524169921875">
        <ele>161</ele>
        <time>2019-10-26T09:10:30.000Z</time>
      </trkpt>
      <trkpt lat="37.86418802104890346527099609375" lon="-1.3858115673065185546875">
        <ele>161</ele>
        <time>2019-10-26T09:10:34.000Z</time>
      </trkpt>
      <trkpt lat="37.864073775708675384521484375" lon="-1.3859981484711170196533203125">
        <ele>160.8000030517578125</ele>
        <time>2019-10-26T09:10:38.000Z</time>
      </trkpt>
      <trkpt lat="37.863940335810184478759765625" lon="-1.38620945625007152557373046875">
        <ele>160.600006103515625</ele>
        <time>2019-10-26T09:10:42.000Z</time>
      </trkpt>
      <trkpt lat="37.86380656063556671142578125" lon="-1.38643073849380016326904296875">
        <ele>160.399993896484375</ele>
        <time>2019-10-26T09:10:46.000Z</time>
      </trkpt>
      <trkpt lat="37.86367706023156642913818359375" lon="-1.38665503822267055511474609375">
        <ele>160.399993896484375</ele>
        <time>2019-10-26T09:10:50.000Z</time>
      </trkpt>
      <trkpt lat="37.86354839801788330078125" lon="-1.38687011785805225372314453125">
        <ele>160.1999969482421875</ele>
        <time>2019-10-26T09:10:54.000Z</time>
      </trkpt>
      <trkpt lat="37.8634134493768215179443359375" lon="-1.38708871789276599884033203125">
        <ele>160</ele>
        <time>2019-10-26T09:10:58.000Z</time>
      </trkpt>
      <trkpt lat="37.8632826916873455047607421875" lon="-1.38731452636420726776123046875">
        <ele>159.600006103515625</ele>
        <time>2019-10-26T09:11:02.000Z</time>
      </trkpt>
      <trkpt lat="37.8631522692739963531494140625" lon="-1.38754435814917087554931640625">
        <ele>159.399993896484375</ele>
        <time>2019-10-26T09:11:06.000Z</time>
      </trkpt>
      <trkpt lat="37.863026373088359832763671875" lon="-1.38778072781860828399658203125">
        <ele>159.1999969482421875</ele>
        <time>2019-10-26T09:11:10.000Z</time>
      </trkpt>
      <trkpt lat="37.86291229538619518280029296875" lon="-1.388031430542469024658203125">
        <ele>158.8000030517578125</ele>
        <time>2019-10-26T09:11:14.000Z</time>
      </trkpt>
      <trkpt lat="37.8628201782703399658203125" lon="-1.38828531838953495025634765625">
        <ele>159.1999969482421875</ele>
        <time>2019-10-26T09:11:18.000Z</time>
      </trkpt>
      <trkpt lat="37.86273510195314884185791015625" lon="-1.38854138553142547607421875">
        <ele>159.8000030517578125</ele>
        <time>2019-10-26T09:11:22.000Z</time>
      </trkpt>
      <trkpt lat="37.86263636313378810882568359375" lon="-1.38880197890102863311767578125">
        <ele>160.600006103515625</ele>
        <time>2019-10-26T09:11:26.000Z</time>
      </trkpt>
      <trkpt lat="37.862514071166515350341796875" lon="-1.3890622369945049285888671875">
        <ele>160.8000030517578125</ele>
        <time>2019-10-26T09:11:30.000Z</time>
      </trkpt>
      <trkpt lat="37.8624126501381397247314453125" lon="-1.38925728388130664825439453125">
        <ele>160.600006103515625</ele>
        <time>2019-10-26T09:11:33.000Z</time>
      </trkpt>
      <trkpt lat="37.86230108700692653656005859375" lon="-1.38944327831268310546875">
        <ele>160.399993896484375</ele>
        <time>2019-10-26T09:11:36.000Z</time>
      </trkpt>
      <trkpt lat="37.8621839918196201324462890625" lon="-1.389622651040554046630859375">
        <ele>160</ele>
        <time>2019-10-26T09:11:39.000Z</time>
      </trkpt>
      <trkpt lat="37.862059772014617919921875" lon="-1.38979657553136348724365234375">
        <ele>159.8000030517578125</ele>
        <time>2019-10-26T09:11:42.000Z</time>
      </trkpt>
      <trkpt lat="37.86193764768540859222412109375" lon="-1.38996924273669719696044921875">
        <ele>159.600006103515625</ele>
        <time>2019-10-26T09:11:45.000Z</time>
      </trkpt>
      <trkpt lat="37.8617776371538639068603515625" lon="-1.39019236899912357330322265625">
        <ele>159.1999969482421875</ele>
        <time>2019-10-26T09:11:49.000Z</time>
      </trkpt>
      <trkpt lat="37.86161846481263637542724609375" lon="-1.39041314832866191864013671875">
        <ele>159</ele>
        <time>2019-10-26T09:11:53.000Z</time>
      </trkpt>
      <trkpt lat="37.8614530898630619049072265625" lon="-1.39062336646020412445068359375">
        <ele>159</ele>
        <time>2019-10-26T09:11:57.000Z</time>
      </trkpt>
      <trkpt lat="37.861283607780933380126953125" lon="-1.39083107002079486846923828125">
        <ele>159.600006103515625</ele>
        <time>2019-10-26T09:12:01.000Z</time>
      </trkpt>
      <trkpt lat="37.86110834218561649322509765625" lon="-1.3910299725830554962158203125">
        <ele>160.399993896484375</ele>
        <time>2019-10-26T09:12:05.000Z</time>
      </trkpt>
      <trkpt lat="37.8609357587993144989013671875" lon="-1.39122870750725269317626953125">
        <ele>161</ele>
        <time>2019-10-26T09:12:09.000Z</time>
      </trkpt>
      <trkpt lat="37.86085302941501140594482421875" lon="-1.3913283683359622955322265625">
        <ele>161.399993896484375</ele>
        <time>2019-10-26T09:12:11.000Z</time>
      </trkpt>
      <trkpt lat="37.86069729365408420562744140625" lon="-1.39152106828987598419189453125">
        <ele>161.8000030517578125</ele>
        <time>2019-10-26T09:12:15.000Z</time>
      </trkpt>
      <trkpt lat="37.8605590760707855224609375" lon="-1.391702704131603240966796875">
        <ele>161.8000030517578125</ele>
        <time>2019-10-26T09:12:19.000Z</time>
      </trkpt>
      <trkpt lat="37.86041758954524993896484375" lon="-1.39188400469720363616943359375">
        <ele>162</ele>
        <time>2019-10-26T09:12:23.000Z</time>
      </trkpt>
      <trkpt lat="37.860279120504856109619140625" lon="-1.392061449587345123291015625">
        <ele>162</ele>
        <time>2019-10-26T09:12:27.000Z</time>
      </trkpt>
      <trkpt lat="37.86020326428115367889404296875" lon="-1.39214250259101390838623046875">
        <ele>162</ele>
        <time>2019-10-26T09:12:29.000Z</time>
      </trkpt>
      <trkpt lat="37.86004987545311450958251953125" lon="-1.39229740016162395477294921875">
        <ele>162</ele>
        <time>2019-10-26T09:12:33.000Z</time>
      </trkpt>
      <trkpt lat="37.85990537144243717193603515625" lon="-1.39245347119867801666259765625">
        <ele>162</ele>
        <time>2019-10-26T09:12:37.000Z</time>
      </trkpt>
      <trkpt lat="37.85978836007416248321533203125" lon="-1.39263569377362728118896484375">
        <ele>162.1999969482421875</ele>
        <time>2019-10-26T09:12:41.000Z</time>
      </trkpt>
      <trkpt lat="37.859681658446788787841796875" lon="-1.39284230768680572509765625">
        <ele>162.399993896484375</ele>
        <time>2019-10-26T09:12:45.000Z</time>
      </trkpt>
      <trkpt lat="37.85958250053226947784423828125" lon="-1.393049173057079315185546875">
        <ele>162.600006103515625</ele>
        <time>2019-10-26T09:12:49.000Z</time>
      </trkpt>
      <trkpt lat="37.85948208533227443695068359375" lon="-1.39327657409012317657470703125">
        <ele>162.8000030517578125</ele>
        <time>2019-10-26T09:12:53.000Z</time>
      </trkpt>
      <trkpt lat="37.85937714390456676483154296875" lon="-1.3935247622430324554443359375">
        <ele>162.8000030517578125</ele>
        <time>2019-10-26T09:12:57.000Z</time>
      </trkpt>
      <trkpt lat="37.8592761419713497161865234375" lon="-1.3937755487859249114990234375">
        <ele>162.8000030517578125</ele>
        <time>2019-10-26T09:13:01.000Z</time>
      </trkpt>
      <trkpt lat="37.85919182002544403076171875" lon="-1.394038908183574676513671875">
        <ele>163</ele>
        <time>2019-10-26T09:13:05.000Z</time>
      </trkpt>
      <trkpt lat="37.8591178916394710540771484375" lon="-1.394305787980556488037109375">
        <ele>163.1999969482421875</ele>
        <time>2019-10-26T09:13:09.000Z</time>
      </trkpt>
      <trkpt lat="37.8590518422424793243408203125" lon="-1.39456721954047679901123046875">
        <ele>163.1999969482421875</ele>
        <time>2019-10-26T09:13:13.000Z</time>
      </trkpt>
      <trkpt lat="37.858991324901580810546875" lon="-1.394837200641632080078125">
        <ele>163.399993896484375</ele>
        <time>2019-10-26T09:13:17.000Z</time>
      </trkpt>
      <trkpt lat="37.8589227609336376190185546875" lon="-1.39511422254145145416259765625">
        <ele>163.1999969482421875</ele>
        <time>2019-10-26T09:13:21.000Z</time>
      </trkpt>
      <trkpt lat="37.85883533768355846405029296875" lon="-1.39529963023960590362548828125">
        <ele>163.399993896484375</ele>
        <time>2019-10-26T09:13:24.000Z</time>
      </trkpt>
      <trkpt lat="37.85868823528289794921875" lon="-1.39551236294209957122802734375">
        <ele>163.1999969482421875</ele>
        <time>2019-10-26T09:13:28.000Z</time>
      </trkpt>
      <trkpt lat="37.85853333771228790283203125" lon="-1.395709924399852752685546875">
        <ele>163</ele>
        <time>2019-10-26T09:13:32.000Z</time>
      </trkpt>
      <trkpt lat="37.85837642848491668701171875" lon="-1.39591276645660400390625">
        <ele>163</ele>
        <time>2019-10-26T09:13:36.000Z</time>
      </trkpt>
      <trkpt lat="37.85823519341647624969482421875" lon="-1.396108232438564300537109375">
        <ele>163.1999969482421875</ele>
        <time>2019-10-26T09:13:40.000Z</time>
      </trkpt>
      <trkpt lat="37.85811298526823520660400390625" lon="-1.39629967510700225830078125">
        <ele>163.600006103515625</ele>
        <time>2019-10-26T09:13:44.000Z</time>
      </trkpt>
      <trkpt lat="37.8579836525022983551025390625" lon="-1.3965181075036525726318359375">
        <ele>164</ele>
        <time>2019-10-26T09:13:49.000Z</time>
      </trkpt>
      <trkpt lat="37.85788969136774539947509765625" lon="-1.39671097509562969207763671875">
        <ele>163.8000030517578125</ele>
        <time>2019-10-26T09:13:53.000Z</time>
      </trkpt>
      <trkpt lat="37.8578009270131587982177734375" lon="-1.39692421071231365203857421875">
        <ele>163.600006103515625</ele>
        <time>2019-10-26T09:13:57.000Z</time>
      </trkpt>
      <trkpt lat="37.8576837480068206787109375" lon="-1.397130154073238372802734375">
        <ele>163.1999969482421875</ele>
        <time>2019-10-26T09:14:01.000Z</time>
      </trkpt>
      <trkpt lat="37.85754871554672718048095703125" lon="-1.39732017181813716888427734375">
        <ele>163</ele>
        <time>2019-10-26T09:14:05.000Z</time>
      </trkpt>
      <trkpt lat="37.857408486306667327880859375" lon="-1.39750256203114986419677734375">
        <ele>163.1999969482421875</ele>
        <time>2019-10-26T09:14:09.000Z</time>
      </trkpt>
      <trkpt lat="37.8572772257030010223388671875" lon="-1.39768327586352825164794921875">
        <ele>163.399993896484375</ele>
        <time>2019-10-26T09:14:13.000Z</time>
      </trkpt>
      <trkpt lat="37.85714621655642986297607421875" lon="-1.39787144958972930908203125">
        <ele>163.600006103515625</ele>
        <time>2019-10-26T09:14:17.000Z</time>
      </trkpt>
      <trkpt lat="37.85702518187463283538818359375" lon="-1.3980707712471485137939453125">
        <ele>163.8000030517578125</ele>
        <time>2019-10-26T09:14:21.000Z</time>
      </trkpt>
      <trkpt lat="37.8569080866873264312744140625" lon="-1.39827470295131206512451171875">
        <ele>164.1999969482421875</ele>
        <time>2019-10-26T09:14:25.000Z</time>
      </trkpt>
      <trkpt lat="37.8567867167294025421142578125" lon="-1.3984784670174121856689453125">
        <ele>164.8000030517578125</ele>
        <time>2019-10-26T09:14:29.000Z</time>
      </trkpt>
      <trkpt lat="37.85665570758283138275146484375" lon="-1.3986987434327602386474609375">
        <ele>165.1999969482421875</ele>
        <time>2019-10-26T09:14:34.000Z</time>
      </trkpt>
      <trkpt lat="37.85661463625729084014892578125" lon="-1.39876906760036945343017578125">
        <ele>165.399993896484375</ele>
        <time>2019-10-26T09:14:36.000Z</time>
      </trkpt>
      <trkpt lat="37.85657239146530628204345703125" lon="-1.398827992379665374755859375">
        <ele>165.600006103515625</ele>
        <time>2019-10-26T09:14:38.000Z</time>
      </trkpt>
      <trkpt lat="37.8565231896936893463134765625" lon="-1.398891024291515350341796875">
        <ele>165.600006103515625</ele>
        <time>2019-10-26T09:14:41.000Z</time>
      </trkpt>
      <trkpt lat="37.85648672841489315032958984375" lon="-1.398971490561962127685546875">
        <ele>165.8000030517578125</ele>
        <time>2019-10-26T09:14:44.000Z</time>
      </trkpt>
      <trkpt lat="37.8564175777137279510498046875" lon="-1.39904466457664966583251953125">
        <ele>165.600006103515625</ele>
        <time>2019-10-26T09:14:47.000Z</time>
      </trkpt>
      <trkpt lat="37.85624298267066478729248046875" lon="-1.3991966284811496734619140625">
        <ele>165</ele>
        <time>2019-10-26T09:14:53.000Z</time>
      </trkpt>
      <trkpt lat="37.85618280060589313507080078125" lon="-1.39925479888916015625">
        <ele>164.8000030517578125</ele>
        <time>2019-10-26T09:14:55.000Z</time>
      </trkpt>
      <trkpt lat="37.85610652528703212738037109375" lon="-1.399406678974628448486328125">
        <ele>164.600006103515625</ele>
        <time>2019-10-26T09:14:59.000Z</time>
      </trkpt>
      <trkpt lat="37.85608104430139064788818359375" lon="-1.39949024654924869537353515625">
        <ele>164.600006103515625</ele>
        <time>2019-10-26T09:15:01.000Z</time>
      </trkpt>
      <trkpt lat="37.85605371929705142974853515625" lon="-1.399620585143566131591796875">
        <ele>164.600006103515625</ele>
        <time>2019-10-26T09:15:04.000Z</time>
      </trkpt>
      <trkpt lat="37.85605388693511486053466796875" lon="-1.399857960641384124755859375">
        <ele>165</ele>
        <time>2019-10-26T09:15:09.000Z</time>
      </trkpt>
      <trkpt lat="37.85607618279755115509033203125" lon="-1.40009659342467784881591796875">
        <ele>165.8000030517578125</ele>
        <time>2019-10-26T09:15:14.000Z</time>
      </trkpt>
      <trkpt lat="37.8561185114085674285888671875" lon="-1.400264315307140350341796875">
        <ele>166.399993896484375</ele>
        <time>2019-10-26T09:15:19.000Z</time>
      </trkpt>
      <trkpt lat="37.8560755960643291473388671875" lon="-1.40046757645905017852783203125">
        <ele>166.600006103515625</ele>
        <time>2019-10-26T09:16:05.000Z</time>
      </trkpt>
      <trkpt lat="37.85607450641691684722900390625" lon="-1.40050646848976612091064453125">
        <ele>166.600006103515625</ele>
        <time>2019-10-26T09:16:06.000Z</time>
      </trkpt>
      <trkpt lat="37.8560159169137477874755859375" lon="-1.40074350871145725250244140625">
        <ele>166.1999969482421875</ele>
        <time>2019-10-26T09:16:11.000Z</time>
      </trkpt>
      <trkpt lat="37.85590217448770999908447265625" lon="-1.4009316824376583099365234375">
        <ele>166</ele>
        <time>2019-10-26T09:16:15.000Z</time>
      </trkpt>
      <trkpt lat="37.8557230532169342041015625" lon="-1.4010612666606903076171875">
        <ele>165.600006103515625</ele>
        <time>2019-10-26T09:16:19.000Z</time>
      </trkpt>
      <trkpt lat="37.8555755317211151123046875" lon="-1.40113578177988529205322265625">
        <ele>165.1999969482421875</ele>
        <time>2019-10-26T09:16:22.000Z</time>
      </trkpt>
      <trkpt lat="37.85539775155484676361083984375" lon="-1.4012652821838855743408203125">
        <ele>164.8000030517578125</ele>
        <time>2019-10-26T09:16:26.000Z</time>
      </trkpt>
      <trkpt lat="37.855241261422634124755859375" lon="-1.40145362354815006256103515625">
        <ele>164.399993896484375</ele>
        <time>2019-10-26T09:16:30.000Z</time>
      </trkpt>
      <trkpt lat="37.8551160357892513275146484375" lon="-1.401680521667003631591796875">
        <ele>164.399993896484375</ele>
        <time>2019-10-26T09:16:34.000Z</time>
      </trkpt>
      <trkpt lat="37.8550074063241481781005859375" lon="-1.40190892852842807769775390625">
        <ele>164.399993896484375</ele>
        <time>2019-10-26T09:16:38.000Z</time>
      </trkpt>
      <trkpt lat="37.8549001179635524749755859375" lon="-1.4021333120763301849365234375">
        <ele>164.600006103515625</ele>
        <time>2019-10-26T09:16:42.000Z</time>
      </trkpt>
      <trkpt lat="37.85480096004903316497802734375" lon="-1.40235668979585170745849609375">
        <ele>164.8000030517578125</ele>
        <time>2019-10-26T09:16:46.000Z</time>
      </trkpt>
      <trkpt lat="37.85470448434352874755859375" lon="-1.40256523154675960540771484375">
        <ele>165.399993896484375</ele>
        <time>2019-10-26T09:16:50.000Z</time>
      </trkpt>
      <trkpt lat="37.8546059131622314453125" lon="-1.40276782214641571044921875">
        <ele>166</ele>
        <time>2019-10-26T09:16:54.000Z</time>
      </trkpt>
      <trkpt lat="37.8544840402901172637939453125" lon="-1.40299941413104534149169921875">
        <ele>166.600006103515625</ele>
        <time>2019-10-26T09:16:59.000Z</time>
      </trkpt>
      <trkpt lat="37.85436510108411312103271484375" lon="-1.403224468231201171875">
        <ele>167.1999969482421875</ele>
        <time>2019-10-26T09:17:04.000Z</time>
      </trkpt>
      <trkpt lat="37.8542778454720973968505859375" lon="-1.40340811572968959808349609375">
        <ele>167.600006103515625</ele>
        <time>2019-10-26T09:17:08.000Z</time>
      </trkpt>
      <trkpt lat="37.85421221517026424407958984375" lon="-1.40353300608694553375244140625">
        <ele>167.8000030517578125</ele>
        <time>2019-10-26T09:17:11.000Z</time>
      </trkpt>
      <trkpt lat="37.8541041724383831024169921875" lon="-1.40374205075204372406005859375">
        <ele>168</ele>
        <time>2019-10-26T09:17:16.000Z</time>
      </trkpt>
      <trkpt lat="37.85404860042035579681396484375" lon="-1.40386912040412425994873046875">
        <ele>168</ele>
        <time>2019-10-26T09:17:19.000Z</time>
      </trkpt>
      <trkpt lat="37.85397517494857311248779296875" lon="-1.40409761108458042144775390625">
        <ele>168.600006103515625</ele>
        <time>2019-10-26T09:17:24.000Z</time>
      </trkpt>
      <trkpt lat="37.8538696467876434326171875" lon="-1.404300369322299957275390625">
        <ele>169.1999969482421875</ele>
        <time>2019-10-26T09:17:28.000Z</time>
      </trkpt>
      <trkpt lat="37.8537564910948276519775390625" lon="-1.4045239984989166259765625">
        <ele>170</ele>
        <time>2019-10-26T09:17:32.000Z</time>
      </trkpt>
      <trkpt lat="37.8536378033459186553955078125" lon="-1.4047511480748653411865234375">
        <ele>170.8000030517578125</ele>
        <time>2019-10-26T09:17:36.000Z</time>
      </trkpt>
      <trkpt lat="37.85351366735994815826416015625" lon="-1.404982320964336395263671875">
        <ele>170.600006103515625</ele>
        <time>2019-10-26T09:17:40.000Z</time>
      </trkpt>
      <trkpt lat="37.85339556634426116943359375" lon="-1.40519916079938411712646484375">
        <ele>170</ele>
        <time>2019-10-26T09:17:44.000Z</time>
      </trkpt>
      <trkpt lat="37.85327914170920848846435546875" lon="-1.4054280705749988555908203125">
        <ele>170.1999969482421875</ele>
        <time>2019-10-26T09:17:48.000Z</time>
      </trkpt>
      <trkpt lat="37.8531670756638050079345703125" lon="-1.40566469170153141021728515625">
        <ele>170.600006103515625</ele>
        <time>2019-10-26T09:17:52.000Z</time>
      </trkpt>
      <trkpt lat="37.8530443646013736724853515625" lon="-1.405901648104190826416015625">
        <ele>170.600006103515625</ele>
        <time>2019-10-26T09:17:56.000Z</time>
      </trkpt>
      <trkpt lat="37.8529203124344348907470703125" lon="-1.40613022260367870330810546875">
        <ele>170.600006103515625</ele>
        <time>2019-10-26T09:18:00.000Z</time>
      </trkpt>
      <trkpt lat="37.85279734991490840911865234375" lon="-1.40636273659765720367431640625">
        <ele>170.8000030517578125</ele>
        <time>2019-10-26T09:18:04.000Z</time>
      </trkpt>
      <trkpt lat="37.85265971906483173370361328125" lon="-1.4065919816493988037109375">
        <ele>170.8000030517578125</ele>
        <time>2019-10-26T09:18:08.000Z</time>
      </trkpt>
      <trkpt lat="37.85252393223345279693603515625" lon="-1.40682063996791839599609375">
        <ele>170.399993896484375</ele>
        <time>2019-10-26T09:18:12.000Z</time>
      </trkpt>
      <trkpt lat="37.85245805047452449798583984375" lon="-1.40692298300564289093017578125">
        <ele>170</ele>
        <time>2019-10-26T09:18:14.000Z</time>
      </trkpt>
      <trkpt lat="37.85233148373663425445556640625" lon="-1.4071235619485378265380859375">
        <ele>169.1999969482421875</ele>
        <time>2019-10-26T09:18:18.000Z</time>
      </trkpt>
      <trkpt lat="37.85227767191827297210693359375" lon="-1.407217942178249359130859375">
        <ele>168.8000030517578125</ele>
        <time>2019-10-26T09:18:20.000Z</time>
      </trkpt>
      <trkpt lat="37.85216820426285266876220703125" lon="-1.40742681920528411865234375">
        <ele>168.8000030517578125</ele>
        <time>2019-10-26T09:18:24.000Z</time>
      </trkpt>
      <trkpt lat="37.85206929780542850494384765625" lon="-1.40766545198857784271240234375">
        <ele>169.8000030517578125</ele>
        <time>2019-10-26T09:18:28.000Z</time>
      </trkpt>
      <trkpt lat="37.851969301700592041015625" lon="-1.40790425240993499755859375">
        <ele>170.600006103515625</ele>
        <time>2019-10-26T09:18:32.000Z</time>
      </trkpt>
      <trkpt lat="37.8519128076732158660888671875" lon="-1.40802402980625629425048828125">
        <ele>171</ele>
        <time>2019-10-26T09:18:34.000Z</time>
      </trkpt>
      <trkpt lat="37.8517820499837398529052734375" lon="-1.4082487486302852630615234375">
        <ele>171.399993896484375</ele>
        <time>2019-10-26T09:18:38.000Z</time>
      </trkpt>
      <trkpt lat="37.85165355540812015533447265625" lon="-1.40846977941691875457763671875">
        <ele>171.1999969482421875</ele>
        <time>2019-10-26T09:18:42.000Z</time>
      </trkpt>
      <trkpt lat="37.8515463508665561676025390625" lon="-1.4086250960826873779296875">
        <ele>171</ele>
        <time>2019-10-26T09:18:45.000Z</time>
      </trkpt>
      <trkpt lat="37.8513904474675655364990234375" lon="-1.4088063128292560577392578125">
        <ele>170.600006103515625</ele>
        <time>2019-10-26T09:18:49.000Z</time>
      </trkpt>
      <trkpt lat="37.8512566722929477691650390625" lon="-1.40899859368801116943359375">
        <ele>170.399993896484375</ele>
        <time>2019-10-26T09:18:53.000Z</time>
      </trkpt>
      <trkpt lat="37.85114628262817859649658203125" lon="-1.40921090729534626007080078125">
        <ele>170.1999969482421875</ele>
        <time>2019-10-26T09:18:57.000Z</time>
      </trkpt>
      <trkpt lat="37.85104326903820037841796875" lon="-1.409432776272296905517578125">
        <ele>170</ele>
        <time>2019-10-26T09:19:01.000Z</time>
      </trkpt>
      <trkpt lat="37.85096221603453159332275390625" lon="-1.4095962233841419219970703125">
        <ele>170</ele>
        <time>2019-10-26T09:19:04.000Z</time>
      </trkpt>
      <trkpt lat="37.85093522630631923675537109375" lon="-1.409650035202503204345703125">
        <ele>170</ele>
        <time>2019-10-26T09:19:05.000Z</time>
      </trkpt>
      <trkpt lat="37.85082274116575717926025390625" lon="-1.40985832549631595611572265625">
        <ele>170</ele>
        <time>2019-10-26T09:19:09.000Z</time>
      </trkpt>
      <trkpt lat="37.85071109421551227569580078125" lon="-1.4100635983049869537353515625">
        <ele>170.1999969482421875</ele>
        <time>2019-10-26T09:19:13.000Z</time>
      </trkpt>
      <trkpt lat="37.85060263238847255706787109375" lon="-1.41026317141950130462646484375">
        <ele>170.399993896484375</ele>
        <time>2019-10-26T09:19:17.000Z</time>
      </trkpt>
      <trkpt lat="37.85049333237111568450927734375" lon="-1.41045729629695415496826171875">
        <ele>170.600006103515625</ele>
        <time>2019-10-26T09:19:21.000Z</time>
      </trkpt>
      <trkpt lat="37.85038772039115428924560546875" lon="-1.4106603898108005523681640625">
        <ele>170.8000030517578125</ele>
        <time>2019-10-26T09:19:25.000Z</time>
      </trkpt>
      <trkpt lat="37.85028546117246150970458984375" lon="-1.4108625613152980804443359375">
        <ele>170.1999969482421875</ele>
        <time>2019-10-26T09:19:29.000Z</time>
      </trkpt>
      <trkpt lat="37.85025679506361484527587890625" lon="-1.4109210669994354248046875">
        <ele>170.1999969482421875</ele>
        <time>2019-10-26T09:19:30.000Z</time>
      </trkpt>
      <trkpt lat="37.85014338791370391845703125" lon="-1.41112751327455043792724609375">
        <ele>169.600006103515625</ele>
        <time>2019-10-26T09:19:34.000Z</time>
      </trkpt>
      <trkpt lat="37.850047834217548370361328125" lon="-1.411348544061183929443359375">
        <ele>169.1999969482421875</ele>
        <time>2019-10-26T09:19:38.000Z</time>
      </trkpt>
      <trkpt lat="37.8499648533761501312255859375" lon="-1.4115827344357967376708984375">
        <ele>169.1999969482421875</ele>
        <time>2019-10-26T09:19:42.000Z</time>
      </trkpt>
      <trkpt lat="37.84988212399184703826904296875" lon="-1.41181482933461666107177734375">
        <ele>169.600006103515625</ele>
        <time>2019-10-26T09:19:46.000Z</time>
      </trkpt>
      <trkpt lat="37.8498133085668087005615234375" lon="-1.41201046295464038848876953125">
        <ele>170</ele>
        <time>2019-10-26T09:19:50.000Z</time>
      </trkpt>
      <trkpt lat="37.84978330135345458984375" lon="-1.4120886661112308502197265625">
        <ele>170.1999969482421875</ele>
        <time>2019-10-26T09:19:52.000Z</time>
      </trkpt>
      <trkpt lat="37.849773578345775604248046875" lon="-1.4122767560184001922607421875">
        <ele>170.600006103515625</ele>
        <time>2019-10-26T09:19:56.000Z</time>
      </trkpt>
      <trkpt lat="37.849774919450283050537109375" lon="-1.412534415721893310546875">
        <ele>170.399993896484375</ele>
        <time>2019-10-26T09:20:01.000Z</time>
      </trkpt>
      <trkpt lat="37.84975044429302215576171875" lon="-1.41276718117296695709228515625">
        <ele>170.8000030517578125</ele>
        <time>2019-10-26T09:20:05.000Z</time>
      </trkpt>
      <trkpt lat="37.84968682564795017242431640625" lon="-1.4130059815943241119384765625">
        <ele>171.1999969482421875</ele>
        <time>2019-10-26T09:20:09.000Z</time>
      </trkpt>
      <trkpt lat="37.84962446428835391998291015625" lon="-1.41327797435224056243896484375">
        <ele>171.600006103515625</ele>
        <time>2019-10-26T09:20:13.000Z</time>
      </trkpt>
      <trkpt lat="37.8495645336806774139404296875" lon="-1.413523815572261810302734375">
        <ele>172</ele>
        <time>2019-10-26T09:20:17.000Z</time>
      </trkpt>
      <trkpt lat="37.8495179302990436553955078125" lon="-1.41362699680030345916748046875">
        <ele>171.8000030517578125</ele>
        <time>2019-10-26T09:20:19.000Z</time>
      </trkpt>
      <trkpt lat="37.84941089339554309844970703125" lon="-1.41383193433284759521484375">
        <ele>171.600006103515625</ele>
        <time>2019-10-26T09:20:23.000Z</time>
      </trkpt>
      <trkpt lat="37.84929723478853702545166015625" lon="-1.4140386320650577545166015625">
        <ele>171.399993896484375</ele>
        <time>2019-10-26T09:20:27.000Z</time>
      </trkpt>
      <trkpt lat="37.84918894059956073760986328125" lon="-1.4142511971294879913330078125">
        <ele>171.1999969482421875</ele>
        <time>2019-10-26T09:20:31.000Z</time>
      </trkpt>
      <trkpt lat="37.84906170330941677093505859375" lon="-1.41448773443698883056640625">
        <ele>171</ele>
        <time>2019-10-26T09:20:36.000Z</time>
      </trkpt>
      <trkpt lat="37.848959863185882568359375" lon="-1.41470021568238735198974609375">
        <ele>171</ele>
        <time>2019-10-26T09:20:40.000Z</time>
      </trkpt>
      <trkpt lat="37.84884830005466938018798828125" lon="-1.41492686234414577484130859375">
        <ele>171</ele>
        <time>2019-10-26T09:20:44.000Z</time>
      </trkpt>
      <trkpt lat="37.8487545065581798553466796875" lon="-1.41512568108737468719482421875">
        <ele>171.399993896484375</ele>
        <time>2019-10-26T09:20:48.000Z</time>
      </trkpt>
      <trkpt lat="37.8486929833889007568359375" lon="-1.41526984982192516326904296875">
        <ele>171.8000030517578125</ele>
        <time>2019-10-26T09:20:54.000Z</time>
      </trkpt>
      <trkpt lat="37.8486659936606884002685546875" lon="-1.4153324626386165618896484375">
        <ele>171.8000030517578125</ele>
        <time>2019-10-26T09:20:56.000Z</time>
      </trkpt>
      <trkpt lat="37.8486183844506740570068359375" lon="-1.4154360629618167877197265625">
        <ele>172</ele>
        <time>2019-10-26T09:20:59.000Z</time>
      </trkpt>
      <trkpt lat="37.84853766672313213348388671875" lon="-1.41566597856581211090087890625">
        <ele>172.399993896484375</ele>
        <time>2019-10-26T09:21:05.000Z</time>
      </trkpt>
      <trkpt lat="37.84847044385969638824462890625" lon="-1.415816433727741241455078125">
        <ele>172.8000030517578125</ele>
        <time>2019-10-26T09:21:09.000Z</time>
      </trkpt>
      <trkpt lat="37.8484209068119525909423828125" lon="-1.41592414118349552154541015625">
        <ele>173</ele>
        <time>2019-10-26T09:21:12.000Z</time>
      </trkpt>
      <trkpt lat="37.8483147919178009033203125" lon="-1.41613804735243320465087890625">
        <ele>173.600006103515625</ele>
        <time>2019-10-26T09:21:18.000Z</time>
      </trkpt>
      <trkpt lat="37.8482083417475223541259765625" lon="-1.41634239815175533294677734375">
        <ele>174.1999969482421875</ele>
        <time>2019-10-26T09:21:23.000Z</time>
      </trkpt>
      <trkpt lat="37.84809895791113376617431640625" lon="-1.416566781699657440185546875">
        <ele>175</ele>
        <time>2019-10-26T09:21:28.000Z</time>
      </trkpt>
      <trkpt lat="37.84800809808075428009033203125" lon="-1.41678362153470516204833984375">
        <ele>175.600006103515625</ele>
        <time>2019-10-26T09:21:33.000Z</time>
      </trkpt>
      <trkpt lat="37.84791489131748676300048828125" lon="-1.41701638698577880859375">
        <ele>176.1999969482421875</ele>
        <time>2019-10-26T09:21:39.000Z</time>
      </trkpt>
      <trkpt lat="37.84781196154654026031494140625" lon="-1.4172371663153171539306640625">
        <ele>176.600006103515625</ele>
        <time>2019-10-26T09:21:44.000Z</time>
      </trkpt>
      <trkpt lat="37.84767265431582927703857421875" lon="-1.41740740276873111724853515625">
        <ele>177.1999969482421875</ele>
        <time>2019-10-26T09:21:49.000Z</time>
      </trkpt>
      <trkpt lat="37.8474968858063220977783203125" lon="-1.41746741719543933868408203125">
        <ele>177.399993896484375</ele>
        <time>2019-10-26T09:21:53.000Z</time>
      </trkpt>
      <trkpt lat="37.84728591330349445343017578125" lon="-1.41754251904785633087158203125">
        <ele>177.1999969482421875</ele>
        <time>2019-10-26T09:21:58.000Z</time>
      </trkpt>
      <trkpt lat="37.84707535989582538604736328125" lon="-1.4176099933683872222900390625">
        <ele>177.1999969482421875</ele>
        <time>2019-10-26T09:22:03.000Z</time>
      </trkpt>
      <trkpt lat="37.84686782397329807281494140625" lon="-1.41770278103649616241455078125">
        <ele>177</ele>
        <time>2019-10-26T09:22:08.000Z</time>
      </trkpt>
      <trkpt lat="37.8467081487178802490234375" lon="-1.4178088121116161346435546875">
        <ele>177.1999969482421875</ele>
        <time>2019-10-26T09:22:12.000Z</time>
      </trkpt>
      <trkpt lat="37.84655325114727020263671875" lon="-1.4179399050772190093994140625">
        <ele>177</ele>
        <time>2019-10-26T09:22:16.000Z</time>
      </trkpt>
      <trkpt lat="37.8463750518858432769775390625" lon="-1.4180998317897319793701171875">
        <ele>177</ele>
        <time>2019-10-26T09:22:21.000Z</time>
      </trkpt>
      <trkpt lat="37.84623431973159313201904296875" lon="-1.41823209822177886962890625">
        <ele>177</ele>
        <time>2019-10-26T09:22:25.000Z</time>
      </trkpt>
      <trkpt lat="37.8460806794464588165283203125" lon="-1.41836981289088726043701171875">
        <ele>176.8000030517578125</ele>
        <time>2019-10-26T09:22:29.000Z</time>
      </trkpt>
      <trkpt lat="37.84593793563544750213623046875" lon="-1.41851515509188175201416015625">
        <ele>176.600006103515625</ele>
        <time>2019-10-26T09:22:33.000Z</time>
      </trkpt>
      <trkpt lat="37.8458034060895442962646484375" lon="-1.418669633567333221435546875">
        <ele>176.600006103515625</ele>
        <time>2019-10-26T09:22:37.000Z</time>
      </trkpt>
      <trkpt lat="37.84571648575365543365478515625" lon="-1.41883299686014652252197265625">
        <ele>176.8000030517578125</ele>
        <time>2019-10-26T09:22:41.000Z</time>
      </trkpt>
      <trkpt lat="37.845622859895229339599609375" lon="-1.41905545257031917572021484375">
        <ele>177.1999969482421875</ele>
        <time>2019-10-26T09:22:47.000Z</time>
      </trkpt>
      <trkpt lat="37.84560785628855228424072265625" lon="-1.41909979283809661865234375">
        <ele>177.1999969482421875</ele>
        <time>2019-10-26T09:22:48.000Z</time>
      </trkpt>
      <trkpt lat="37.84551649354398250579833984375" lon="-1.4193292893469333648681640625">
        <ele>177.8000030517578125</ele>
        <time>2019-10-26T09:22:53.000Z</time>
      </trkpt>
      <trkpt lat="37.8454567305743694305419921875" lon="-1.4195006154477596282958984375">
        <ele>178.1999969482421875</ele>
        <time>2019-10-26T09:22:57.000Z</time>
      </trkpt>
      <trkpt lat="37.84550207667052745819091796875" lon="-1.41966867260634899139404296875">
        <ele>178.600006103515625</ele>
        <time>2019-10-26T09:23:01.000Z</time>
      </trkpt>
      <trkpt lat="37.84557416103780269622802734375" lon="-1.4197856001555919647216796875">
        <ele>179</ele>
        <time>2019-10-26T09:23:04.000Z</time>
      </trkpt>
      <trkpt lat="37.845744229853153228759765625" lon="-1.419969834387302398681640625">
        <ele>179</ele>
        <time>2019-10-26T09:23:09.000Z</time>
      </trkpt>
      <trkpt lat="37.84588043577969074249267578125" lon="-1.42011978663504123687744140625">
        <ele>179</ele>
        <time>2019-10-26T09:23:13.000Z</time>
      </trkpt>
      <trkpt lat="37.8460391052067279815673828125" lon="-1.42031709663569927215576171875">
        <ele>179.1999969482421875</ele>
        <time>2019-10-26T09:23:18.000Z</time>
      </trkpt>
      <trkpt lat="37.84607372246682643890380859375" lon="-1.42054206691682338714599609375">
        <ele>179.399993896484375</ele>
        <time>2019-10-26T09:23:23.000Z</time>
      </trkpt>
      <trkpt lat="37.8460367582738399505615234375" lon="-1.4206341840326786041259765625">
        <ele>179.600006103515625</ele>
        <time>2019-10-26T09:23:25.000Z</time>
      </trkpt>
      <trkpt lat="37.84594313241541385650634765625" lon="-1.42086845822632312774658203125">
        <ele>180.600006103515625</ele>
        <time>2019-10-26T09:23:30.000Z</time>
      </trkpt>
      <trkpt lat="37.84585797227919101715087890625" lon="-1.42111857421696186065673828125">
        <ele>181.600006103515625</ele>
        <time>2019-10-26T09:23:35.000Z</time>
      </trkpt>
      <trkpt lat="37.845774404704570770263671875" lon="-1.4213613979518413543701171875">
        <ele>182.8000030517578125</ele>
        <time>2019-10-26T09:23:40.000Z</time>
      </trkpt>
      <trkpt lat="37.8456942737102508544921875" lon="-1.421584524214267730712890625">
        <ele>183.600006103515625</ele>
        <time>2019-10-26T09:23:45.000Z</time>
      </trkpt>
      <trkpt lat="37.84564708359539508819580078125" lon="-1.421667672693729400634765625">
        <ele>183.8000030517578125</ele>
        <time>2019-10-26T09:23:47.000Z</time>
      </trkpt>
      <trkpt lat="37.8455982170999050140380859375" lon="-1.4218042977154254913330078125">
        <ele>184</ele>
        <time>2019-10-26T09:23:50.000Z</time>
      </trkpt>
      <trkpt lat="37.845550440251827239990234375" lon="-1.42200755886733531951904296875">
        <ele>184.399993896484375</ele>
        <time>2019-10-26T09:23:54.000Z</time>
      </trkpt>
      <trkpt lat="37.84553409554064273834228515625" lon="-1.42205466516315937042236328125">
        <ele>184.600006103515625</ele>
        <time>2019-10-26T09:23:55.000Z</time>
      </trkpt>
      <trkpt lat="37.845419012010097503662109375" lon="-1.42227821052074432373046875">
        <ele>184.8000030517578125</ele>
        <time>2019-10-26T09:24:00.000Z</time>
      </trkpt>
      <trkpt lat="37.8453229553997516632080078125" lon="-1.4224652945995330810546875">
        <ele>184.8000030517578125</ele>
        <time>2019-10-26T09:24:04.000Z</time>
      </trkpt>
      <trkpt lat="37.845232598483562469482421875" lon="-1.4226639457046985626220703125">
        <ele>184.8000030517578125</ele>
        <time>2019-10-26T09:24:08.000Z</time>
      </trkpt>
      <trkpt lat="37.8451184369623661041259765625" lon="-1.42290182411670684814453125">
        <ele>184.8000030517578125</ele>
        <time>2019-10-26T09:24:13.000Z</time>
      </trkpt>
      <trkpt lat="37.84500754438340663909912109375" lon="-1.42314431257545948028564453125">
        <ele>185</ele>
        <time>2019-10-26T09:24:18.000Z</time>
      </trkpt>
      <trkpt lat="37.8448891080915927886962890625" lon="-1.4233807660639286041259765625">
        <ele>185</ele>
        <time>2019-10-26T09:24:23.000Z</time>
      </trkpt>
      <trkpt lat="37.8447747789323329925537109375" lon="-1.42362107522785663604736328125">
        <ele>185.399993896484375</ele>
        <time>2019-10-26T09:24:28.000Z</time>
      </trkpt>
      <trkpt lat="37.84467880614101886749267578125" lon="-1.423824839293956756591796875">
        <ele>185.600006103515625</ele>
        <time>2019-10-26T09:24:32.000Z</time>
      </trkpt>
      <trkpt lat="37.844579480588436126708984375" lon="-1.4240268431603908538818359375">
        <ele>185.8000030517578125</ele>
        <time>2019-10-26T09:24:36.000Z</time>
      </trkpt>
      <trkpt lat="37.844475544989109039306640625" lon="-1.4242243207991123199462890625">
        <ele>185.1999969482421875</ele>
        <time>2019-10-26T09:24:40.000Z</time>
      </trkpt>
      <trkpt lat="37.8443706035614013671875" lon="-1.4244154281914234161376953125">
        <ele>184.8000030517578125</ele>
        <time>2019-10-26T09:24:44.000Z</time>
      </trkpt>
      <trkpt lat="37.84426440484821796417236328125" lon="-1.42460628412663936614990234375">
        <ele>184.1999969482421875</ele>
        <time>2019-10-26T09:24:48.000Z</time>
      </trkpt>
      <trkpt lat="37.8441528417170047760009765625" lon="-1.42479320056736469268798828125">
        <ele>184</ele>
        <time>2019-10-26T09:24:52.000Z</time>
      </trkpt>
      <trkpt lat="37.844029627740383148193359375" lon="-1.42496989108622074127197265625">
        <ele>184</ele>
        <time>2019-10-26T09:24:56.000Z</time>
      </trkpt>
      <trkpt lat="37.84390591084957122802734375" lon="-1.4251533709466457366943359375">
        <ele>184</ele>
        <time>2019-10-26T09:25:00.000Z</time>
      </trkpt>
      <trkpt lat="37.843872047960758209228515625" lon="-1.4251956157386302947998046875">
        <ele>184</ele>
        <time>2019-10-26T09:25:01.000Z</time>
      </trkpt>
      <trkpt lat="37.84372494556009769439697265625" lon="-1.4253686182200908660888671875">
        <ele>184.1999969482421875</ele>
        <time>2019-10-26T09:25:05.000Z</time>
      </trkpt>
      <trkpt lat="37.8436852991580963134765625" lon="-1.42540859989821910858154296875">
        <ele>184.1999969482421875</ele>
        <time>2019-10-26T09:25:06.000Z</time>
      </trkpt>
      <trkpt lat="37.84349813126027584075927734375" lon="-1.425475068390369415283203125">
        <ele>184</ele>
        <time>2019-10-26T09:25:10.000Z</time>
      </trkpt>
      <trkpt lat="37.84330844879150390625" lon="-1.42553399316966533660888671875">
        <ele>184.1999969482421875</ele>
        <time>2019-10-26T09:25:14.000Z</time>
      </trkpt>
      <trkpt lat="37.843128740787506103515625" lon="-1.42561043612658977508544921875">
        <ele>184.399993896484375</ele>
        <time>2019-10-26T09:25:18.000Z</time>
      </trkpt>
      <trkpt lat="37.843086831271648406982421875" lon="-1.42563792876899242401123046875">
        <ele>184.399993896484375</ele>
        <time>2019-10-26T09:25:19.000Z</time>
      </trkpt>
      <trkpt lat="37.842938639223575592041015625" lon="-1.4257939159870147705078125">
        <ele>184.8000030517578125</ele>
        <time>2019-10-26T09:25:23.000Z</time>
      </trkpt>
      <trkpt lat="37.84280218183994293212890625" lon="-1.42596364952623844146728515625">
        <ele>185.399993896484375</ele>
        <time>2019-10-26T09:25:27.000Z</time>
      </trkpt>
      <trkpt lat="37.8426672331988811492919921875" lon="-1.42613983713090419769287109375">
        <ele>186</ele>
        <time>2019-10-26T09:25:31.000Z</time>
      </trkpt>
      <trkpt lat="37.84253261983394622802734375" lon="-1.42631200142204761505126953125">
        <ele>186.600006103515625</ele>
        <time>2019-10-26T09:25:35.000Z</time>
      </trkpt>
      <trkpt lat="37.84239708445966243743896484375" lon="-1.42648584209382534027099609375">
        <ele>186.8000030517578125</ele>
        <time>2019-10-26T09:25:39.000Z</time>
      </trkpt>
      <trkpt lat="37.84227236174046993255615234375" lon="-1.42665666528046131134033203125">
        <ele>186.8000030517578125</ele>
        <time>2019-10-26T09:25:43.000Z</time>
      </trkpt>
      <trkpt lat="37.8421418555080890655517578125" lon="-1.42681382596492767333984375">
        <ele>186.8000030517578125</ele>
        <time>2019-10-26T09:25:47.000Z</time>
      </trkpt>
      <trkpt lat="37.84204387106001377105712890625" lon="-1.4269204437732696533203125">
        <ele>187</ele>
        <time>2019-10-26T09:25:50.000Z</time>
      </trkpt>
      <trkpt lat="37.84184890799224376678466796875" lon="-1.42704642377793788909912109375">
        <ele>186.8000030517578125</ele>
        <time>2019-10-26T09:25:55.000Z</time>
      </trkpt>
      <trkpt lat="37.8417246043682098388671875" lon="-1.42711096443235874176025390625">
        <ele>186.8000030517578125</ele>
        <time>2019-10-26T09:25:58.000Z</time>
      </trkpt>
      <trkpt lat="37.8415158949792385101318359375" lon="-1.42721079289913177490234375">
        <ele>187.1999969482421875</ele>
        <time>2019-10-26T09:26:03.000Z</time>
      </trkpt>
      <trkpt lat="37.84131414256989955902099609375" lon="-1.427315063774585723876953125">
        <ele>187.399993896484375</ele>
        <time>2019-10-26T09:26:08.000Z</time>
      </trkpt>
      <trkpt lat="37.841144911944866180419921875" lon="-1.427393853664398193359375">
        <ele>187.8000030517578125</ele>
        <time>2019-10-26T09:26:12.000Z</time>
      </trkpt>
      <trkpt lat="37.84093670547008514404296875" lon="-1.42748974263668060302734375">
        <ele>188.1999969482421875</ele>
        <time>2019-10-26T09:26:17.000Z</time>
      </trkpt>
      <trkpt lat="37.84078784286975860595703125" lon="-1.4275459013879299163818359375">
        <ele>188.1999969482421875</ele>
        <time>2019-10-26T09:26:21.000Z</time>
      </trkpt>
      <trkpt lat="37.8407903574407100677490234375" lon="-1.427716054022312164306640625">
        <ele>188.399993896484375</ele>
        <time>2019-10-26T09:26:27.000Z</time>
      </trkpt>
      <trkpt lat="37.84081592224538326263427734375" lon="-1.42773860134184360504150390625">
        <ele>188.399993896484375</ele>
        <time>2019-10-26T09:26:28.000Z</time>
      </trkpt>
      <trkpt lat="37.84096210263669490814208984375" lon="-1.427705995738506317138671875">
        <ele>188.399993896484375</ele>
        <time>2019-10-26T09:26:33.000Z</time>
      </trkpt>
      <trkpt lat="37.84100702963769435882568359375" lon="-1.42769568599760532379150390625">
        <ele>188.399993896484375</ele>
        <time>2019-10-26T09:26:35.000Z</time>
      </trkpt>
      <trkpt lat="37.8412114642560482025146484375" lon="-1.42773776315152645111083984375">
        <ele>188.1999969482421875</ele>
        <time>2019-10-26T09:26:59.000Z</time>
      </trkpt>
      <trkpt lat="37.84142780117690563201904296875" lon="-1.42773860134184360504150390625">
        <ele>187.8000030517578125</ele>
        <time>2019-10-26T09:27:04.000Z</time>
      </trkpt>
      <trkpt lat="37.8415242768824100494384765625" lon="-1.42771714366972446441650390625">
        <ele>187.8000030517578125</ele>
        <time>2019-10-26T09:27:06.000Z</time>
      </trkpt>
      <trkpt lat="37.8417111933231353759765625" lon="-1.42766115255653858184814453125">
        <ele>187.399993896484375</ele>
        <time>2019-10-26T09:27:10.000Z</time>
      </trkpt>
      <trkpt lat="37.8419044800102710723876953125" lon="-1.42759342677891254425048828125">
        <ele>187.600006103515625</ele>
        <time>2019-10-26T09:27:14.000Z</time>
      </trkpt>
      <trkpt lat="37.8420996107161045074462890625" lon="-1.4275318197906017303466796875">
        <ele>187.8000030517578125</ele>
        <time>2019-10-26T09:27:18.000Z</time>
      </trkpt>
      <trkpt lat="37.84230371005833148956298828125" lon="-1.4274721406400203704833984375">
        <ele>187.8000030517578125</ele>
        <time>2019-10-26T09:27:22.000Z</time>
      </trkpt>
      <trkpt lat="37.84235500730574131011962890625" lon="-1.4274597354233264923095703125">
        <ele>188</ele>
        <time>2019-10-26T09:27:23.000Z</time>
      </trkpt>
      <trkpt lat="37.84255600534379482269287109375" lon="-1.42741522751748561859130859375">
        <ele>188</ele>
        <time>2019-10-26T09:27:27.000Z</time>
      </trkpt>
      <trkpt lat="37.8427507169544696807861328125" lon="-1.42735898494720458984375">
        <ele>188.399993896484375</ele>
        <time>2019-10-26T09:27:31.000Z</time>
      </trkpt>
      <trkpt lat="37.84289899282157421112060546875" lon="-1.42730894498527050018310546875">
        <ele>188.8000030517578125</ele>
        <time>2019-10-26T09:27:34.000Z</time>
      </trkpt>
      <trkpt lat="37.84311323426663875579833984375" lon="-1.427239961922168731689453125">
        <ele>189</ele>
        <time>2019-10-26T09:27:38.000Z</time>
      </trkpt>
      <trkpt lat="37.8433337621390819549560546875" lon="-1.42717148177325725555419921875">
        <ele>189.399993896484375</ele>
        <time>2019-10-26T09:27:42.000Z</time>
      </trkpt>
      <trkpt lat="37.84350852482020854949951171875" lon="-1.427113898098468780517578125">
        <ele>189.600006103515625</ele>
        <time>2019-10-26T09:27:45.000Z</time>
      </trkpt>
      <trkpt lat="37.84363224171102046966552734375" lon="-1.42707358114421367645263671875">
        <ele>189.600006103515625</ele>
        <time>2019-10-26T09:27:47.000Z</time>
      </trkpt>
      <trkpt lat="37.84381982870399951934814453125" lon="-1.42701993696391582489013671875">
        <ele>190.1999969482421875</ele>
        <time>2019-10-26T09:27:50.000Z</time>
      </trkpt>
      <trkpt lat="37.844010181725025177001953125" lon="-1.426966376602649688720703125">
        <ele>190.8000030517578125</ele>
        <time>2019-10-26T09:27:53.000Z</time>
      </trkpt>
      <trkpt lat="37.84419952891767024993896484375" lon="-1.42690694890916347503662109375">
        <ele>191.399993896484375</ele>
        <time>2019-10-26T09:27:56.000Z</time>
      </trkpt>
      <trkpt lat="37.844393737614154815673828125" lon="-1.42684777267277240753173828125">
        <ele>191.8000030517578125</ele>
        <time>2019-10-26T09:27:59.000Z</time>
      </trkpt>
      <trkpt lat="37.84458182752132415771484375" lon="-1.4267958886921405792236328125">
        <ele>192.1999969482421875</ele>
        <time>2019-10-26T09:28:02.000Z</time>
      </trkpt>
      <trkpt lat="37.8447684086859226226806640625" lon="-1.42673914320766925811767578125">
        <ele>192.399993896484375</ele>
        <time>2019-10-26T09:28:05.000Z</time>
      </trkpt>
      <trkpt lat="37.84495155327022075653076171875" lon="-1.4266829006373882293701171875">
        <ele>192.399993896484375</ele>
        <time>2019-10-26T09:28:08.000Z</time>
      </trkpt>
      <trkpt lat="37.84507208503782749176025390625" lon="-1.4266441762447357177734375">
        <ele>192.399993896484375</ele>
        <time>2019-10-26T09:28:10.000Z</time>
      </trkpt>
      <trkpt lat="37.84529051743447780609130859375" lon="-1.42652171663939952850341796875">
        <ele>191.8000030517578125</ele>
        <time>2019-10-26T09:28:14.000Z</time>
      </trkpt>
      <trkpt lat="37.84550325013697147369384765625" lon="-1.4263922162353992462158203125">
        <ele>191.399993896484375</ele>
        <time>2019-10-26T09:28:18.000Z</time>
      </trkpt>
      <trkpt lat="37.84569251351058483123779296875" lon="-1.42625450156629085540771484375">
        <ele>191</ele>
        <time>2019-10-26T09:28:22.000Z</time>
      </trkpt>
      <trkpt lat="37.84585663117468357086181640625" lon="-1.4261132664978504180908203125">
        <ele>190.600006103515625</ele>
        <time>2019-10-26T09:28:26.000Z</time>
      </trkpt>
      <trkpt lat="37.84595805220305919647216796875" lon="-1.42599969170987606048583984375">
        <ele>190.600006103515625</ele>
        <time>2019-10-26T09:28:29.000Z</time>
      </trkpt>
      <trkpt lat="37.84609048627316951751708984375" lon="-1.4258078299462795257568359375">
        <ele>190.600006103515625</ele>
        <time>2019-10-26T09:28:33.000Z</time>
      </trkpt>
      <trkpt lat="37.84616122953593730926513671875" lon="-1.42570682801306247711181640625">
        <ele>190.8000030517578125</ele>
        <time>2019-10-26T09:28:35.000Z</time>
      </trkpt>
      <trkpt lat="37.8462818451225757598876953125" lon="-1.42550499178469181060791015625">
        <ele>191</ele>
        <time>2019-10-26T09:28:39.000Z</time>
      </trkpt>
      <trkpt lat="37.84638133831322193145751953125" lon="-1.42529846169054508209228515625">
        <ele>191.1999969482421875</ele>
        <time>2019-10-26T09:28:43.000Z</time>
      </trkpt>
      <trkpt lat="37.84647253341972827911376953125" lon="-1.425072066485881805419921875">
        <ele>191.399993896484375</ele>
        <time>2019-10-26T09:28:47.000Z</time>
      </trkpt>
      <trkpt lat="37.846542857587337493896484375" lon="-1.42489579506218433380126953125">
        <ele>191.600006103515625</ele>
        <time>2019-10-26T09:28:50.000Z</time>
      </trkpt>
      <trkpt lat="37.84658753313124179840087890625" lon="-1.42478096298873424530029296875">
        <ele>191.600006103515625</ele>
        <time>2019-10-26T09:28:52.000Z</time>
      </trkpt>
      <trkpt lat="37.8466732800006866455078125" lon="-1.42455347813665866851806640625">
        <ele>191.1999969482421875</ele>
        <time>2019-10-26T09:28:56.000Z</time>
      </trkpt>
      <trkpt lat="37.84673673100769519805908203125" lon="-1.42437762580811977386474609375">
        <ele>191</ele>
        <time>2019-10-26T09:28:59.000Z</time>
      </trkpt>
      <trkpt lat="37.84681216813623905181884765625" lon="-1.4241388253867626190185546875">
        <ele>190.8000030517578125</ele>
        <time>2019-10-26T09:29:03.000Z</time>
      </trkpt>
      <trkpt lat="37.84688743762671947479248046875" lon="-1.42389046959578990936279296875">
        <ele>190.600006103515625</ele>
        <time>2019-10-26T09:29:08.000Z</time>
      </trkpt>
      <trkpt lat="37.84689481370151042938232421875" lon="-1.42382240854203701019287109375">
        <ele>190.399993896484375</ele>
        <time>2019-10-26T09:29:10.000Z</time>
      </trkpt>
      <trkpt lat="37.84690487198531627655029296875" lon="-1.42363565973937511444091796875">
        <ele>190.399993896484375</ele>
        <time>2019-10-26T09:29:19.000Z</time>
      </trkpt>
      <trkpt lat="37.84691409207880496978759765625" lon="-1.423611603677272796630859375">
        <ele>190.399993896484375</ele>
        <time>2019-10-26T09:29:20.000Z</time>
      </trkpt>
      <trkpt lat="37.847000174224376678466796875" lon="-1.4233995415270328521728515625">
        <ele>190.600006103515625</ele>
        <time>2019-10-26T09:29:26.000Z</time>
      </trkpt>
      <trkpt lat="37.84703068435192108154296875" lon="-1.42335570417344570159912109375">
        <ele>190.8000030517578125</ele>
        <time>2019-10-26T09:29:27.000Z</time>
      </trkpt>
      <trkpt lat="37.8470814786851406097412109375" lon="-1.42326199449598789215087890625">
        <ele>190.8000030517578125</ele>
        <time>2019-10-26T09:29:29.000Z</time>
      </trkpt>
      <trkpt lat="37.847145684063434600830078125" lon="-1.423030234873294830322265625">
        <ele>190.8000030517578125</ele>
        <time>2019-10-26T09:29:33.000Z</time>
      </trkpt>
      <trkpt lat="37.8472367115318775177001953125" lon="-1.4227759279310703277587890625">
        <ele>190.399993896484375</ele>
        <time>2019-10-26T09:29:38.000Z</time>
      </trkpt>
      <trkpt lat="37.84734877757728099822998046875" lon="-1.4225670509040355682373046875">
        <ele>190</ele>
        <time>2019-10-26T09:29:43.000Z</time>
      </trkpt>
      <trkpt lat="37.847379036247730255126953125" lon="-1.42251214943826198577880859375">
        <ele>190</ele>
        <time>2019-10-26T09:29:44.000Z</time>
      </trkpt>
      <trkpt lat="37.847489006817340850830078125" lon="-1.42228231765329837799072265625">
        <ele>189.8000030517578125</ele>
        <time>2019-10-26T09:29:48.000Z</time>
      </trkpt>
      <trkpt lat="37.84751038067042827606201171875" lon="-1.42222465015947818756103515625">
        <ele>189.600006103515625</ele>
        <time>2019-10-26T09:29:49.000Z</time>
      </trkpt>
      <trkpt lat="37.84759755246341228485107421875" lon="-1.4220175333321094512939453125">
        <ele>189</ele>
        <time>2019-10-26T09:29:53.000Z</time>
      </trkpt>
      <trkpt lat="37.847631834447383880615234375" lon="-1.42191971652209758758544921875">
        <ele>188.8000030517578125</ele>
        <time>2019-10-26T09:29:55.000Z</time>
      </trkpt>
      <trkpt lat="37.84773115999996662139892578125" lon="-1.421681083738803863525390625">
        <ele>188.399993896484375</ele>
        <time>2019-10-26T09:30:00.000Z</time>
      </trkpt>
      <trkpt lat="37.8478626720607280731201171875" lon="-1.4214579574763774871826171875">
        <ele>188</ele>
        <time>2019-10-26T09:30:05.000Z</time>
      </trkpt>
      <trkpt lat="37.84792964346706867218017578125" lon="-1.42132543958723545074462890625">
        <ele>187.600006103515625</ele>
        <time>2019-10-26T09:30:08.000Z</time>
      </trkpt>
      <trkpt lat="37.8479733131825923919677734375" lon="-1.421270035207271575927734375">
        <ele>187.399993896484375</ele>
        <time>2019-10-26T09:30:11.000Z</time>
      </trkpt>
      <trkpt lat="37.84797348082065582275390625" lon="-1.42126500606536865234375">
        <ele>187.399993896484375</ele>
        <time>2019-10-26T09:30:13.000Z</time>
      </trkpt>
      <trkpt lat="37.84797121770679950714111328125" lon="-1.4212698675692081451416015625">
        <ele>187.399993896484375</ele>
        <time>2019-10-26T09:30:16.000Z</time>
      </trkpt>
      <trkpt lat="37.84775731153786182403564453125" lon="-1.42165401019155979156494140625">
        <ele>188.399993896484375</ele>
        <time>2019-10-26T09:55:30.000Z</time>
      </trkpt>
      <trkpt lat="37.8477139770984649658203125" lon="-1.42194486223161220550537109375">
        <ele>189.1999969482421875</ele>
        <time>2019-10-26T09:55:36.000Z</time>
      </trkpt>
      <trkpt lat="37.8477247059345245361328125" lon="-1.42179834656417369842529296875">
        <ele>188.8000030517578125</ele>
        <time>2019-10-26T09:55:37.000Z</time>
      </trkpt>
      <trkpt lat="37.8477030806243419647216796875" lon="-1.421975791454315185546875">
        <ele>189.1999969482421875</ele>
        <time>2019-10-26T09:55:44.000Z</time>
      </trkpt>
      <trkpt lat="37.84767131321132183074951171875" lon="-1.42201803624629974365234375">
        <ele>189.399993896484375</ele>
        <time>2019-10-26T09:55:46.000Z</time>
      </trkpt>
      <trkpt lat="37.84756578505039215087890625" lon="-1.4221435971558094024658203125">
        <ele>189.399993896484375</ele>
        <time>2019-10-26T09:55:52.000Z</time>
      </trkpt>
      <trkpt lat="37.8475156612694263458251953125" lon="-1.42227527685463428497314453125">
        <ele>189.8000030517578125</ele>
        <time>2019-10-26T09:55:58.000Z</time>
      </trkpt>
      <trkpt lat="37.84749948419630527496337890625" lon="-1.42231416888535022735595703125">
        <ele>190</ele>
        <time>2019-10-26T09:56:02.000Z</time>
      </trkpt>
      <trkpt lat="37.8475807048380374908447265625" lon="-1.42234283499419689178466796875">
        <ele>190.1999969482421875</ele>
        <time>2019-10-26T09:56:07.000Z</time>
      </trkpt>
      <trkpt lat="37.84773400984704494476318359375" lon="-1.42250225879251956939697265625">
        <ele>191</ele>
        <time>2019-10-26T09:56:13.000Z</time>
      </trkpt>
      <trkpt lat="37.8477292321622371673583984375" lon="-1.42254500649869441986083984375">
        <ele>191.1999969482421875</ele>
        <time>2019-10-26T09:56:14.000Z</time>
      </trkpt>
      <trkpt lat="37.847618758678436279296875" lon="-1.42272907309234142303466796875">
        <ele>191.1999969482421875</ele>
        <time>2019-10-26T09:56:19.000Z</time>
      </trkpt>
      <trkpt lat="37.84758749417960643768310546875" lon="-1.422761343419551849365234375">
        <ele>191.1999969482421875</ele>
        <time>2019-10-26T09:56:20.000Z</time>
      </trkpt>
      <trkpt lat="37.8474806249141693115234375" lon="-1.422955803573131561279296875">
        <ele>191.399993896484375</ele>
        <time>2019-10-26T09:56:25.000Z</time>
      </trkpt>
      <trkpt lat="37.847398482263088226318359375" lon="-1.42318219877779483795166015625">
        <ele>191.600006103515625</ele>
        <time>2019-10-26T09:56:30.000Z</time>
      </trkpt>
      <trkpt lat="37.84734408371150493621826171875" lon="-1.423401720821857452392578125">
        <ele>191.600006103515625</ele>
        <time>2019-10-26T09:56:35.000Z</time>
      </trkpt>
      <trkpt lat="37.84726663492619991302490234375" lon="-1.42362895421683788299560546875">
        <ele>191.8000030517578125</ele>
        <time>2019-10-26T09:56:40.000Z</time>
      </trkpt>
      <trkpt lat="37.8471891023218631744384765625" lon="-1.4238815009593963623046875">
        <ele>192</ele>
        <time>2019-10-26T09:56:45.000Z</time>
      </trkpt>
      <trkpt lat="37.84709447063505649566650390625" lon="-1.4241408370435237884521484375">
        <ele>192.1999969482421875</ele>
        <time>2019-10-26T09:56:50.000Z</time>
      </trkpt>
      <trkpt lat="37.8470154292881488800048828125" lon="-1.42436522059142589569091796875">
        <ele>192.399993896484375</ele>
        <time>2019-10-26T09:56:54.000Z</time>
      </trkpt>
      <trkpt lat="37.8469359688460826873779296875" lon="-1.424591951072216033935546875">
        <ele>192.399993896484375</ele>
        <time>2019-10-26T09:56:58.000Z</time>
      </trkpt>
      <trkpt lat="37.8468504734337329864501953125" lon="-1.42483024857938289642333984375">
        <ele>192.399993896484375</ele>
        <time>2019-10-26T09:57:02.000Z</time>
      </trkpt>
      <trkpt lat="37.84676590003073215484619140625" lon="-1.42506209202110767364501953125">
        <ele>192.1999969482421875</ele>
        <time>2019-10-26T09:57:06.000Z</time>
      </trkpt>
      <trkpt lat="37.84667789004743099212646484375" lon="-1.42528471536934375762939453125">
        <ele>191.8000030517578125</ele>
        <time>2019-10-26T09:57:10.000Z</time>
      </trkpt>
      <trkpt lat="37.84658283926546573638916015625" lon="-1.4254963584244251251220703125">
        <ele>191.600006103515625</ele>
        <time>2019-10-26T09:57:14.000Z</time>
      </trkpt>
      <trkpt lat="37.84649826586246490478515625" lon="-1.4257092587649822235107421875">
        <ele>191.600006103515625</ele>
        <time>2019-10-26T09:57:18.000Z</time>
      </trkpt>
      <trkpt lat="37.84647655673325061798095703125" lon="-1.4259861968457698822021484375">
        <ele>191.8000030517578125</ele>
        <time>2019-10-26T09:57:23.000Z</time>
      </trkpt>
      <trkpt lat="37.84638301469385623931884765625" lon="-1.426189206540584564208984375">
        <ele>191.8000030517578125</ele>
        <time>2019-10-26T09:57:27.000Z</time>
      </trkpt>
      <trkpt lat="37.8461872972548007965087890625" lon="-1.4262668229639530181884765625">
        <ele>191.399993896484375</ele>
        <time>2019-10-26T09:57:31.000Z</time>
      </trkpt>
      <trkpt lat="37.8461329825222492218017578125" lon="-1.426260955631732940673828125">
        <ele>191.399993896484375</ele>
        <time>2019-10-26T09:57:32.000Z</time>
      </trkpt>
      <trkpt lat="37.84602485597133636474609375" lon="-1.42624645493924617767333984375">
        <ele>191</ele>
        <time>2019-10-26T09:57:34.000Z</time>
      </trkpt>
      <trkpt lat="37.84583039581775665283203125" lon="-1.42635692842304706573486328125">
        <ele>191</ele>
        <time>2019-10-26T09:57:38.000Z</time>
      </trkpt>
      <trkpt lat="37.845785133540630340576171875" lon="-1.426390707492828369140625">
        <ele>191</ele>
        <time>2019-10-26T09:57:39.000Z</time>
      </trkpt>
      <trkpt lat="37.84560643136501312255859375" lon="-1.42652205191552639007568359375">
        <ele>191.399993896484375</ele>
        <time>2019-10-26T09:57:43.000Z</time>
      </trkpt>
      <trkpt lat="37.84541440196335315704345703125" lon="-1.426633782684803009033203125">
        <ele>192</ele>
        <time>2019-10-26T09:57:47.000Z</time>
      </trkpt>
      <trkpt lat="37.84520275890827178955078125" lon="-1.42673411406576633453369140625">
        <ele>192.399993896484375</ele>
        <time>2019-10-26T09:57:51.000Z</time>
      </trkpt>
      <trkpt lat="37.84498038701713085174560546875" lon="-1.42681474797427654266357421875">
        <ele>192.8000030517578125</ele>
        <time>2019-10-26T09:57:55.000Z</time>
      </trkpt>
      <trkpt lat="37.8447519801557064056396484375" lon="-1.42688062973320484161376953125">
        <ele>193</ele>
        <time>2019-10-26T09:57:59.000Z</time>
      </trkpt>
      <trkpt lat="37.84453933127224445343017578125" lon="-1.4269340224564075469970703125">
        <ele>192.8000030517578125</ele>
        <time>2019-10-26T09:58:03.000Z</time>
      </trkpt>
      <trkpt lat="37.84435761161148548126220703125" lon="-1.42697383649647235870361328125">
        <ele>192.399993896484375</ele>
        <time>2019-10-26T09:58:06.000Z</time>
      </trkpt>
      <trkpt lat="37.84430153667926788330078125" lon="-1.42699462361633777618408203125">
        <ele>192.399993896484375</ele>
        <time>2019-10-26T09:58:07.000Z</time>
      </trkpt>
      <trkpt lat="37.84412384033203125" lon="-1.42708078958094120025634765625">
        <ele>192</ele>
        <time>2019-10-26T09:58:10.000Z</time>
      </trkpt>
      <trkpt lat="37.8439427912235260009765625" lon="-1.42713141627609729766845703125">
        <ele>191.600006103515625</ele>
        <time>2019-10-26T09:58:13.000Z</time>
      </trkpt>
      <trkpt lat="37.84382368437945842742919921875" lon="-1.42717030830681324005126953125">
        <ele>191.1999969482421875</ele>
        <time>2019-10-26T09:58:15.000Z</time>
      </trkpt>
      <trkpt lat="37.843640707433223724365234375" lon="-1.42720433883368968963623046875">
        <ele>190.600006103515625</ele>
        <time>2019-10-26T09:58:18.000Z</time>
      </trkpt>
      <trkpt lat="37.843584381043910980224609375" lon="-1.42722043208777904510498046875">
        <ele>190.399993896484375</ele>
        <time>2019-10-26T09:58:19.000Z</time>
      </trkpt>
      <trkpt lat="37.8433659486472606658935546875" lon="-1.4272870682179927825927734375">
        <ele>189.8000030517578125</ele>
        <time>2019-10-26T09:58:23.000Z</time>
      </trkpt>
      <trkpt lat="37.84315212629735469818115234375" lon="-1.427340209484100341796875">
        <ele>189.399993896484375</ele>
        <time>2019-10-26T09:58:27.000Z</time>
      </trkpt>
      <trkpt lat="37.84295867197215557098388671875" lon="-1.42738739959895610809326171875">
        <ele>189</ele>
        <time>2019-10-26T09:58:31.000Z</time>
      </trkpt>
      <trkpt lat="37.8429139964282512664794921875" lon="-1.42740651033818721771240234375">
        <ele>188.8000030517578125</ele>
        <time>2019-10-26T09:58:32.000Z</time>
      </trkpt>
      <trkpt lat="37.8427161835134029388427734375" lon="-1.427456550300121307373046875">
        <ele>188.399993896484375</ele>
        <time>2019-10-26T09:58:36.000Z</time>
      </trkpt>
      <trkpt lat="37.8425156883895397186279296875" lon="-1.42749384976923465728759765625">
        <ele>188</ele>
        <time>2019-10-26T09:58:40.000Z</time>
      </trkpt>
      <trkpt lat="37.8423319570720195770263671875" lon="-1.42754799686372280120849609375">
        <ele>188</ele>
        <time>2019-10-26T09:58:44.000Z</time>
      </trkpt>
      <trkpt lat="37.84212081693112850189208984375" lon="-1.4275998808443546295166015625">
        <ele>187.8000030517578125</ele>
        <time>2019-10-26T09:58:48.000Z</time>
      </trkpt>
      <trkpt lat="37.8419044800102710723876953125" lon="-1.4276515133678913116455078125">
        <ele>187.600006103515625</ele>
        <time>2019-10-26T09:58:52.000Z</time>
      </trkpt>
      <trkpt lat="37.84169183112680912017822265625" lon="-1.4277011342346668243408203125">
        <ele>187.399993896484375</ele>
        <time>2019-10-26T09:58:56.000Z</time>
      </trkpt>
      <trkpt lat="37.84148848615586757659912109375" lon="-1.42777145840227603912353515625">
        <ele>187.8000030517578125</ele>
        <time>2019-10-26T09:59:00.000Z</time>
      </trkpt>
      <trkpt lat="37.841304503381252288818359375" lon="-1.42783767543733119964599609375">
        <ele>188.1999969482421875</ele>
        <time>2019-10-26T09:59:04.000Z</time>
      </trkpt>
      <trkpt lat="37.84111616201698780059814453125" lon="-1.427968852221965789794921875">
        <ele>188.600006103515625</ele>
        <time>2019-10-26T09:59:09.000Z</time>
      </trkpt>
      <trkpt lat="37.8410270623862743377685546875" lon="-1.42803498543798923492431640625">
        <ele>188.600006103515625</ele>
        <time>2019-10-26T09:59:16.000Z</time>
      </trkpt>
      <trkpt lat="37.84099713899195194244384765625" lon="-1.42805694602429866790771484375">
        <ele>188.8000030517578125</ele>
        <time>2019-10-26T09:59:21.000Z</time>
      </trkpt>
      <trkpt lat="37.8408366255462169647216796875" lon="-1.42793239094316959381103515625">
        <ele>188.600006103515625</ele>
        <time>2019-10-26T09:59:40.000Z</time>
      </trkpt>
      <trkpt lat="37.840723134577274322509765625" lon="-1.42773591913282871246337890625">
        <ele>188.1999969482421875</ele>
        <time>2019-10-26T09:59:45.000Z</time>
      </trkpt>
      <trkpt lat="37.8406716696918010711669921875" lon="-1.4276156388223171234130859375">
        <ele>188</ele>
        <time>2019-10-26T09:59:49.000Z</time>
      </trkpt>
      <trkpt lat="37.84048533998429775238037109375" lon="-1.427697949111461639404296875">
        <ele>188</ele>
        <time>2019-10-26T09:59:55.000Z</time>
      </trkpt>
      <trkpt lat="37.84029406495392322540283203125" lon="-1.42778168432414531707763671875">
        <ele>187.8000030517578125</ele>
        <time>2019-10-26T10:00:00.000Z</time>
      </trkpt>
      <trkpt lat="37.84008250571787357330322265625" lon="-1.4278828538954257965087890625">
        <ele>187.8000030517578125</ele>
        <time>2019-10-26T10:00:05.000Z</time>
      </trkpt>
      <trkpt lat="37.83991151489317417144775390625" lon="-1.4279633201658725738525390625">
        <ele>187.399993896484375</ele>
        <time>2019-10-26T10:00:09.000Z</time>
      </trkpt>
      <trkpt lat="37.83972971141338348388671875" lon="-1.42805124633014202117919921875">
        <ele>187</ele>
        <time>2019-10-26T10:00:13.000Z</time>
      </trkpt>
      <trkpt lat="37.839540950953960418701171875" lon="-1.42813858576118946075439453125">
        <ele>186.8000030517578125</ele>
        <time>2019-10-26T10:00:17.000Z</time>
      </trkpt>
      <trkpt lat="37.83935411833226680755615234375" lon="-1.42823967151343822479248046875">
        <ele>186.600006103515625</ele>
        <time>2019-10-26T10:00:21.000Z</time>
      </trkpt>
      <trkpt lat="37.83917256630957126617431640625" lon="-1.4283160306513309478759765625">
        <ele>186.1999969482421875</ele>
        <time>2019-10-26T10:00:25.000Z</time>
      </trkpt>
      <trkpt lat="37.83898514695465564727783203125" lon="-1.42839490436017513275146484375">
        <ele>186</ele>
        <time>2019-10-26T10:00:29.000Z</time>
      </trkpt>
      <trkpt lat="37.838792614638805389404296875" lon="-1.42848140560090541839599609375">
        <ele>186.1999969482421875</ele>
        <time>2019-10-26T10:00:33.000Z</time>
      </trkpt>
      <trkpt lat="37.83860393799841403961181640625" lon="-1.42856975086033344268798828125">
        <ele>186.399993896484375</ele>
        <time>2019-10-26T10:00:37.000Z</time>
      </trkpt>
      <trkpt lat="37.83842557109892368316650390625" lon="-1.428639404475688934326171875">
        <ele>186.8000030517578125</ele>
        <time>2019-10-26T10:00:41.000Z</time>
      </trkpt>
      <trkpt lat="37.83824921585619449615478515625" lon="-1.42871014773845672607421875">
        <ele>186.600006103515625</ele>
        <time>2019-10-26T10:00:45.000Z</time>
      </trkpt>
      <trkpt lat="37.8380625508725643157958984375" lon="-1.4287937991321086883544921875">
        <ele>186.399993896484375</ele>
        <time>2019-10-26T10:00:49.000Z</time>
      </trkpt>
      <trkpt lat="37.83796674571931362152099609375" lon="-1.4288370497524738311767578125">
        <ele>186.399993896484375</ele>
        <time>2019-10-26T10:00:51.000Z</time>
      </trkpt>
      <trkpt lat="37.83776893280446529388427734375" lon="-1.4289326034486293792724609375">
        <ele>186.1999969482421875</ele>
        <time>2019-10-26T10:00:55.000Z</time>
      </trkpt>
      <trkpt lat="37.8375698626041412353515625" lon="-1.4290294982492923736572265625">
        <ele>186.1999969482421875</ele>
        <time>2019-10-26T10:00:59.000Z</time>
      </trkpt>
      <trkpt lat="37.83737196587026119232177734375" lon="-1.42911692149937152862548828125">
        <ele>186.399993896484375</ele>
        <time>2019-10-26T10:01:03.000Z</time>
      </trkpt>
      <trkpt lat="37.837177254259586334228515625" lon="-1.4292137324810028076171875">
        <ele>186.600006103515625</ele>
        <time>2019-10-26T10:01:07.000Z</time>
      </trkpt>
      <trkpt lat="37.836986817419528961181640625" lon="-1.429307274520397186279296875">
        <ele>186.8000030517578125</ele>
        <time>2019-10-26T10:01:11.000Z</time>
      </trkpt>
      <trkpt lat="37.8367999009788036346435546875" lon="-1.42939436249434947967529296875">
        <ele>187</ele>
        <time>2019-10-26T10:01:15.000Z</time>
      </trkpt>
      <trkpt lat="37.8366017527878284454345703125" lon="-1.42948254011571407318115234375">
        <ele>187</ele>
        <time>2019-10-26T10:01:19.000Z</time>
      </trkpt>
      <trkpt lat="37.83639564178884029388427734375" lon="-1.4295785129070281982421875">
        <ele>187</ele>
        <time>2019-10-26T10:01:23.000Z</time>
      </trkpt>
      <trkpt lat="37.83618441782891750335693359375" lon="-1.42967163585126399993896484375">
        <ele>187</ele>
        <time>2019-10-26T10:01:27.000Z</time>
      </trkpt>
      <trkpt lat="37.8359798155725002288818359375" lon="-1.4297694526612758636474609375">
        <ele>187</ele>
        <time>2019-10-26T10:01:31.000Z</time>
      </trkpt>
      <trkpt lat="37.8357820026576519012451171875" lon="-1.4298576302826404571533203125">
        <ele>187</ele>
        <time>2019-10-26T10:01:35.000Z</time>
      </trkpt>
      <trkpt lat="37.83560154028236865997314453125" lon="-1.42994237132370471954345703125">
        <ele>186.8000030517578125</ele>
        <time>2019-10-26T10:01:39.000Z</time>
      </trkpt>
      <trkpt lat="37.8354390151798725128173828125" lon="-1.43001973628997802734375">
        <ele>186.8000030517578125</ele>
        <time>2019-10-26T10:01:43.000Z</time>
      </trkpt>
      <trkpt lat="37.83528286032378673553466796875" lon="-1.4300859533250331878662109375">
        <ele>186.8000030517578125</ele>
        <time>2019-10-26T10:01:47.000Z</time>
      </trkpt>
      <trkpt lat="37.83510901965200901031494140625" lon="-1.429931223392486572265625">
        <ele>185.600006103515625</ele>
        <time>2019-10-26T10:01:52.000Z</time>
      </trkpt>
      <trkpt lat="37.8350785933434963226318359375" lon="-1.42987313680350780487060546875">
        <ele>185.399993896484375</ele>
        <time>2019-10-26T10:01:53.000Z</time>
      </trkpt>
      <trkpt lat="37.8349545411765575408935546875" lon="-1.42965118400752544403076171875">
        <ele>185</ele>
        <time>2019-10-26T10:01:57.000Z</time>
      </trkpt>
      <trkpt lat="37.8349156491458415985107421875" lon="-1.4296135492622852325439453125">
        <ele>185</ele>
        <time>2019-10-26T10:01:58.000Z</time>
      </trkpt>
      <trkpt lat="37.834701240062713623046875" lon="-1.429648585617542266845703125">
        <ele>185</ele>
        <time>2019-10-26T10:02:03.000Z</time>
      </trkpt>
      <trkpt lat="37.834519185125827789306640625" lon="-1.4297510124742984771728515625">
        <ele>185</ele>
        <time>2019-10-26T10:02:07.000Z</time>
      </trkpt>
      <trkpt lat="37.834326736629009246826171875" lon="-1.42989099025726318359375">
        <ele>185.1999969482421875</ele>
        <time>2019-10-26T10:02:11.000Z</time>
      </trkpt>
      <trkpt lat="37.8341280855238437652587890625" lon="-1.43001043237745761871337890625">
        <ele>185.399993896484375</ele>
        <time>2019-10-26T10:02:15.000Z</time>
      </trkpt>
      <trkpt lat="37.8339182026684284210205078125" lon="-1.43012233078479766845703125">
        <ele>185.399993896484375</ele>
        <time>2019-10-26T10:02:19.000Z</time>
      </trkpt>
      <trkpt lat="37.83370991237461566925048828125" lon="-1.43022567965090274810791015625">
        <ele>185.399993896484375</ele>
        <time>2019-10-26T10:02:23.000Z</time>
      </trkpt>
      <trkpt lat="37.83350572921335697174072265625" lon="-1.43029960803687572479248046875">
        <ele>185.1999969482421875</ele>
        <time>2019-10-26T10:02:27.000Z</time>
      </trkpt>
      <trkpt lat="37.83328847028315067291259765625" lon="-1.4303330518305301666259765625">
        <ele>184.8000030517578125</ele>
        <time>2019-10-26T10:02:31.000Z</time>
      </trkpt>
      <trkpt lat="37.83307691104710102081298828125" lon="-1.4303685910999774932861328125">
        <ele>184.1999969482421875</ele>
        <time>2019-10-26T10:02:35.000Z</time>
      </trkpt>
      <trkpt lat="37.8328617475926876068115234375" lon="-1.43039457499980926513671875">
        <ele>183.399993896484375</ele>
        <time>2019-10-26T10:02:39.000Z</time>
      </trkpt>
      <trkpt lat="37.83265077508985996246337890625" lon="-1.4304252527654170989990234375">
        <ele>183.1999969482421875</ele>
        <time>2019-10-26T10:02:43.000Z</time>
      </trkpt>
      <trkpt lat="37.83243854530155658721923828125" lon="-1.43044075928628444671630859375">
        <ele>183.600006103515625</ele>
        <time>2019-10-26T10:02:47.000Z</time>
      </trkpt>
      <trkpt lat="37.83223067410290241241455078125" lon="-1.43042550422251224517822265625">
        <ele>184</ele>
        <time>2019-10-26T10:02:51.000Z</time>
      </trkpt>
      <trkpt lat="37.83201827667653560638427734375" lon="-1.4303947426378726959228515625">
        <ele>184.600006103515625</ele>
        <time>2019-10-26T10:02:55.000Z</time>
      </trkpt>
      <trkpt lat="37.8318166919052600860595703125" lon="-1.4303481392562389373779296875">
        <ele>184.600006103515625</ele>
        <time>2019-10-26T10:02:59.000Z</time>
      </trkpt>
      <trkpt lat="37.831594236195087432861328125" lon="-1.43032358027994632720947265625">
        <ele>184.600006103515625</ele>
        <time>2019-10-26T10:03:03.000Z</time>
      </trkpt>
      <trkpt lat="37.8314249217510223388671875" lon="-1.4303045533597469329833984375">
        <ele>184.600006103515625</ele>
        <time>2019-10-26T10:03:06.000Z</time>
      </trkpt>
      <trkpt lat="37.831216044723987579345703125" lon="-1.43024898134171962738037109375">
        <ele>184.600006103515625</ele>
        <time>2019-10-26T10:03:10.000Z</time>
      </trkpt>
      <trkpt lat="37.83100842498242855072021484375" lon="-1.430193074047565460205078125">
        <ele>184.399993896484375</ele>
        <time>2019-10-26T10:03:14.000Z</time>
      </trkpt>
      <trkpt lat="37.8307967819273471832275390625" lon="-1.43014605157077312469482421875">
        <ele>184.600006103515625</ele>
        <time>2019-10-26T10:03:18.000Z</time>
      </trkpt>
      <trkpt lat="37.83058228902518749237060546875" lon="-1.43010397441685199737548828125">
        <ele>184.600006103515625</ele>
        <time>2019-10-26T10:03:22.000Z</time>
      </trkpt>
      <trkpt lat="37.8303565643727779388427734375" lon="-1.4300908148288726806640625">
        <ele>184.600006103515625</ele>
        <time>2019-10-26T10:03:26.000Z</time>
      </trkpt>
      <trkpt lat="37.83011860214173793792724609375" lon="-1.43010430969297885894775390625">
        <ele>184.600006103515625</ele>
        <time>2019-10-26T10:03:30.000Z</time>
      </trkpt>
      <trkpt lat="37.82988198101520538330078125" lon="-1.4301144517958164215087890625">
        <ele>184.399993896484375</ele>
        <time>2019-10-26T10:03:34.000Z</time>
      </trkpt>
      <trkpt lat="37.8296491317451000213623046875" lon="-1.43012593500316143035888671875">
        <ele>184.399993896484375</ele>
        <time>2019-10-26T10:03:38.000Z</time>
      </trkpt>
      <trkpt lat="37.8294214792549610137939453125" lon="-1.4301406033337116241455078125">
        <ele>184.8000030517578125</ele>
        <time>2019-10-26T10:03:42.000Z</time>
      </trkpt>
      <trkpt lat="37.82919307239353656768798828125" lon="-1.430151164531707763671875">
        <ele>185</ele>
        <time>2019-10-26T10:03:46.000Z</time>
      </trkpt>
      <trkpt lat="37.8289638273417949676513671875" lon="-1.43015988171100616455078125">
        <ele>184.399993896484375</ele>
        <time>2019-10-26T10:03:50.000Z</time>
      </trkpt>
      <trkpt lat="37.82873106189072132110595703125" lon="-1.4301550202071666717529296875">
        <ele>184</ele>
        <time>2019-10-26T10:03:54.000Z</time>
      </trkpt>
      <trkpt lat="37.82854833640158176422119140625" lon="-1.430148147046566009521484375">
        <ele>183.8000030517578125</ele>
        <time>2019-10-26T10:03:57.000Z</time>
      </trkpt>
      <trkpt lat="37.82836460508406162261962890625" lon="-1.43015108071267604827880859375">
        <ele>183.600006103515625</ele>
        <time>2019-10-26T10:04:00.000Z</time>
      </trkpt>
      <trkpt lat="37.828178443014621734619140625" lon="-1.43017622642219066619873046875">
        <ele>183.399993896484375</ele>
        <time>2019-10-26T10:04:03.000Z</time>
      </trkpt>
      <trkpt lat="37.8279982320964336395263671875" lon="-1.4302073232829570770263671875">
        <ele>183</ele>
        <time>2019-10-26T10:04:06.000Z</time>
      </trkpt>
      <trkpt lat="37.827785499393939971923828125" lon="-1.43023640848696231842041015625">
        <ele>183.1999969482421875</ele>
        <time>2019-10-26T10:04:10.000Z</time>
      </trkpt>
      <trkpt lat="37.82759808003902435302734375" lon="-1.430264152586460113525390625">
        <ele>183.399993896484375</ele>
        <time>2019-10-26T10:04:14.000Z</time>
      </trkpt>
      <trkpt lat="37.82737813889980316162109375" lon="-1.4302995242178440093994140625">
        <ele>183.1999969482421875</ele>
        <time>2019-10-26T10:04:19.000Z</time>
      </trkpt>
      <trkpt lat="37.8271768055856227874755859375" lon="-1.4303441159427165985107421875">
        <ele>183.1999969482421875</ele>
        <time>2019-10-26T10:04:23.000Z</time>
      </trkpt>
      <trkpt lat="37.82696885056793689727783203125" lon="-1.4303939044475555419921875">
        <ele>182.8000030517578125</ele>
        <time>2019-10-26T10:04:27.000Z</time>
      </trkpt>
      <trkpt lat="37.82681219279766082763671875" lon="-1.430424749851226806640625">
        <ele>182.399993896484375</ele>
        <time>2019-10-26T10:04:30.000Z</time>
      </trkpt>
      <trkpt lat="37.82660842873156070709228515625" lon="-1.4304674975574016571044921875">
        <ele>182.1999969482421875</ele>
        <time>2019-10-26T10:04:34.000Z</time>
      </trkpt>
      <trkpt lat="37.8263932652771472930908203125" lon="-1.43051686696708202362060546875">
        <ele>182.8000030517578125</ele>
        <time>2019-10-26T10:04:38.000Z</time>
      </trkpt>
      <trkpt lat="37.82617961056530475616455078125" lon="-1.43058693967759609222412109375">
        <ele>183.1999969482421875</ele>
        <time>2019-10-26T10:04:42.000Z</time>
      </trkpt>
      <trkpt lat="37.825973667204380035400390625" lon="-1.430693306028842926025390625">
        <ele>183.8000030517578125</ele>
        <time>2019-10-26T10:04:46.000Z</time>
      </trkpt>
      <trkpt lat="37.8257708251476287841796875" lon="-1.4308104850351810455322265625">
        <ele>183.8000030517578125</ele>
        <time>2019-10-26T10:04:50.000Z</time>
      </trkpt>
      <trkpt lat="37.82556622289121150970458984375" lon="-1.4309088885784149169921875">
        <ele>183.600006103515625</ele>
        <time>2019-10-26T10:04:54.000Z</time>
      </trkpt>
      <trkpt lat="37.8253589384257793426513671875" lon="-1.43102623522281646728515625">
        <ele>183.399993896484375</ele>
        <time>2019-10-26T10:04:58.000Z</time>
      </trkpt>
      <trkpt lat="37.825153581798076629638671875" lon="-1.43113645724952220916748046875">
        <ele>183.1999969482421875</ele>
        <time>2019-10-26T10:05:02.000Z</time>
      </trkpt>
      <trkpt lat="37.82495065592229366302490234375" lon="-1.4312550611793994903564453125">
        <ele>183</ele>
        <time>2019-10-26T10:05:06.000Z</time>
      </trkpt>
      <trkpt lat="37.8247561119496822357177734375" lon="-1.4313921891152858734130859375">
        <ele>183</ele>
        <time>2019-10-26T10:05:10.000Z</time>
      </trkpt>
      <trkpt lat="37.82456710003316402435302734375" lon="-1.43152889795601367950439453125">
        <ele>183</ele>
        <time>2019-10-26T10:05:14.000Z</time>
      </trkpt>
      <trkpt lat="37.82436735928058624267578125" lon="-1.43165244720876216888427734375">
        <ele>183</ele>
        <time>2019-10-26T10:05:18.000Z</time>
      </trkpt>
      <trkpt lat="37.8241579793393611907958984375" lon="-1.4317643456161022186279296875">
        <ele>183</ele>
        <time>2019-10-26T10:05:22.000Z</time>
      </trkpt>
      <trkpt lat="37.82394533045589923858642578125" lon="-1.43186819739639759063720703125">
        <ele>182.600006103515625</ele>
        <time>2019-10-26T10:05:26.000Z</time>
      </trkpt>
      <trkpt lat="37.8237224556505680084228515625" lon="-1.43193927593529224395751953125">
        <ele>182.1999969482421875</ele>
        <time>2019-10-26T10:05:30.000Z</time>
      </trkpt>
      <trkpt lat="37.82349572516977787017822265625" lon="-1.4320017211139202117919921875">
        <ele>181.600006103515625</ele>
        <time>2019-10-26T10:05:34.000Z</time>
      </trkpt>
      <trkpt lat="37.82326488755643367767333984375" lon="-1.4320743083953857421875">
        <ele>181.1999969482421875</ele>
        <time>2019-10-26T10:05:38.000Z</time>
      </trkpt>
      <trkpt lat="37.8230358101427555084228515625" lon="-1.4321438781917095184326171875">
        <ele>180.8000030517578125</ele>
        <time>2019-10-26T10:05:42.000Z</time>
      </trkpt>
      <trkpt lat="37.822930701076984405517578125" lon="-1.43220146186649799346923828125">
        <ele>180.600006103515625</ele>
        <time>2019-10-26T10:05:44.000Z</time>
      </trkpt>
      <trkpt lat="37.8227347321808338165283203125" lon="-1.4323554374277591705322265625">
        <ele>180.600006103515625</ele>
        <time>2019-10-26T10:05:48.000Z</time>
      </trkpt>
      <trkpt lat="37.82255611382424831390380859375" lon="-1.4324898831546306610107421875">
        <ele>180.399993896484375</ele>
        <time>2019-10-26T10:05:52.000Z</time>
      </trkpt>
      <trkpt lat="37.8223907388746738433837890625" lon="-1.4326042123138904571533203125">
        <ele>180.1999969482421875</ele>
        <time>2019-10-26T10:05:56.000Z</time>
      </trkpt>
      <trkpt lat="37.82222771085798740386962890625" lon="-1.4327215589582920074462890625">
        <ele>180.1999969482421875</ele>
        <time>2019-10-26T10:06:00.000Z</time>
      </trkpt>
      <trkpt lat="37.82204054296016693115234375" lon="-1.4328208006918430328369140625">
        <ele>180</ele>
        <time>2019-10-26T10:06:04.000Z</time>
      </trkpt>
      <trkpt lat="37.821840383112430572509765625" lon="-1.4329257421195507049560546875">
        <ele>180</ele>
        <time>2019-10-26T10:06:08.000Z</time>
      </trkpt>
      <trkpt lat="37.8216353617608547210693359375" lon="-1.4330326952040195465087890625">
        <ele>179.8000030517578125</ele>
        <time>2019-10-26T10:06:12.000Z</time>
      </trkpt>
      <trkpt lat="37.82148239202797412872314453125" lon="-1.43311207182705402374267578125">
        <ele>179.399993896484375</ele>
        <time>2019-10-26T10:06:15.000Z</time>
      </trkpt>
      <trkpt lat="37.82127016223967075347900390625" lon="-1.43320930190384387969970703125">
        <ele>179</ele>
        <time>2019-10-26T10:06:19.000Z</time>
      </trkpt>
      <trkpt lat="37.8210513107478618621826171875" lon="-1.43331189639866352081298828125">
        <ele>178.600006103515625</ele>
        <time>2019-10-26T10:06:23.000Z</time>
      </trkpt>
      <trkpt lat="37.82083547674119472503662109375" lon="-1.4334055222570896148681640625">
        <ele>178.399993896484375</ele>
        <time>2019-10-26T10:06:27.000Z</time>
      </trkpt>
      <trkpt lat="37.8206255100667476654052734375" lon="-1.43347735516726970672607421875">
        <ele>178.399993896484375</ele>
        <time>2019-10-26T10:06:31.000Z</time>
      </trkpt>
      <trkpt lat="37.8204287029802799224853515625" lon="-1.43351557664573192596435546875">
        <ele>178.399993896484375</ele>
        <time>2019-10-26T10:06:35.000Z</time>
      </trkpt>
      <trkpt lat="37.82022862695157527923583984375" lon="-1.4335634373128414154052734375">
        <ele>178.399993896484375</ele>
        <time>2019-10-26T10:06:39.000Z</time>
      </trkpt>
      <trkpt lat="37.82004154287278652191162109375" lon="-1.43367282114923000335693359375">
        <ele>178.600006103515625</ele>
        <time>2019-10-26T10:06:43.000Z</time>
      </trkpt>
      <trkpt lat="37.819846831262111663818359375" lon="-1.43377826549112796783447265625">
        <ele>178.1999969482421875</ele>
        <time>2019-10-26T10:06:47.000Z</time>
      </trkpt>
      <trkpt lat="37.8196669556200504302978515625" lon="-1.433866359293460845947265625">
        <ele>178</ele>
        <time>2019-10-26T10:06:51.000Z</time>
      </trkpt>
      <trkpt lat="37.81948314048349857330322265625" lon="-1.43395311199128627777099609375">
        <ele>177.600006103515625</ele>
        <time>2019-10-26T10:06:55.000Z</time>
      </trkpt>
      <trkpt lat="37.81928725540637969970703125" lon="-1.43403760157525539398193359375">
        <ele>177.1999969482421875</ele>
        <time>2019-10-26T10:06:59.000Z</time>
      </trkpt>
      <trkpt lat="37.81909472309052944183349609375" lon="-1.434110105037689208984375">
        <ele>177.1999969482421875</ele>
        <time>2019-10-26T10:07:03.000Z</time>
      </trkpt>
      <trkpt lat="37.818889282643795013427734375" lon="-1.43416333012282848358154296875">
        <ele>177.1999969482421875</ele>
        <time>2019-10-26T10:07:07.000Z</time>
      </trkpt>
      <trkpt lat="37.8187362290918827056884765625" lon="-1.43417892046272754669189453125">
        <ele>177.1999969482421875</ele>
        <time>2019-10-26T10:07:10.000Z</time>
      </trkpt>
      <trkpt lat="37.81852710060775279998779296875" lon="-1.43425938673317432403564453125">
        <ele>177.399993896484375</ele>
        <time>2019-10-26T10:07:15.000Z</time>
      </trkpt>
      <trkpt lat="37.81840086914598941802978515625" lon="-1.43435343168675899505615234375">
        <ele>177.399993896484375</ele>
        <time>2019-10-26T10:07:18.000Z</time>
      </trkpt>
      <trkpt lat="37.8182192333042621612548828125" lon="-1.434485614299774169921875">
        <ele>177.1999969482421875</ele>
        <time>2019-10-26T10:07:22.000Z</time>
      </trkpt>
      <trkpt lat="37.8180338256061077117919921875" lon="-1.4346188865602016448974609375">
        <ele>177</ele>
        <time>2019-10-26T10:07:26.000Z</time>
      </trkpt>
      <trkpt lat="37.817853949964046478271484375" lon="-1.434803791344165802001953125">
        <ele>176.8000030517578125</ele>
        <time>2019-10-26T10:07:30.000Z</time>
      </trkpt>
      <trkpt lat="37.81767030246555805206298828125" lon="-1.4349964074790477752685546875">
        <ele>176.1999969482421875</ele>
        <time>2019-10-26T10:07:34.000Z</time>
      </trkpt>
      <trkpt lat="37.8174988925457000732421875" lon="-1.4351606927812099456787109375">
        <ele>176</ele>
        <time>2019-10-26T10:07:38.000Z</time>
      </trkpt>
      <trkpt lat="37.81732010655105113983154296875" lon="-1.43534769304096698760986328125">
        <ele>175.8000030517578125</ele>
        <time>2019-10-26T10:07:42.000Z</time>
      </trkpt>
      <trkpt lat="37.81713469885289669036865234375" lon="-1.43553477711975574493408203125">
        <ele>175.399993896484375</ele>
        <time>2019-10-26T10:07:46.000Z</time>
      </trkpt>
      <trkpt lat="37.81694979406893253326416015625" lon="-1.43571532331407070159912109375">
        <ele>175.399993896484375</ele>
        <time>2019-10-26T10:07:50.000Z</time>
      </trkpt>
      <trkpt lat="37.81680394895374774932861328125" lon="-1.43585010431706905364990234375">
        <ele>175.399993896484375</ele>
        <time>2019-10-26T10:07:53.000Z</time>
      </trkpt>
      <trkpt lat="37.81664268113672733306884765625" lon="-1.435993015766143798828125">
        <ele>175.399993896484375</ele>
        <time>2019-10-26T10:07:56.000Z</time>
      </trkpt>
      <trkpt lat="37.8164662420749664306640625" lon="-1.43613173626363277435302734375">
        <ele>175.8000030517578125</ele>
        <time>2019-10-26T10:07:59.000Z</time>
      </trkpt>
      <trkpt lat="37.81628276221454143524169921875" lon="-1.4362818561494350433349609375">
        <ele>176.1999969482421875</ele>
        <time>2019-10-26T10:08:03.000Z</time>
      </trkpt>
      <trkpt lat="37.81613909639418125152587890625" lon="-1.4364369213581085205078125">
        <ele>176.600006103515625</ele>
        <time>2019-10-26T10:08:07.000Z</time>
      </trkpt>
      <trkpt lat="37.81600347720086574554443359375" lon="-1.4366127736866474151611328125">
        <ele>176.8000030517578125</ele>
        <time>2019-10-26T10:08:11.000Z</time>
      </trkpt>
      <trkpt lat="37.8158639185130596160888671875" lon="-1.43679625354707241058349609375">
        <ele>177</ele>
        <time>2019-10-26T10:08:15.000Z</time>
      </trkpt>
      <trkpt lat="37.81570927239954471588134765625" lon="-1.4369799010455608367919921875">
        <ele>176.8000030517578125</ele>
        <time>2019-10-26T10:08:19.000Z</time>
      </trkpt>
      <trkpt lat="37.815537862479686737060546875" lon="-1.43713764846324920654296875">
        <ele>176.600006103515625</ele>
        <time>2019-10-26T10:08:23.000Z</time>
      </trkpt>
      <trkpt lat="37.8153616748750209808349609375" lon="-1.43727083690464496612548828125">
        <ele>176.399993896484375</ele>
        <time>2019-10-26T10:08:27.000Z</time>
      </trkpt>
      <trkpt lat="37.815191857516765594482421875" lon="-1.43740645609796047210693359375">
        <ele>176.399993896484375</ele>
        <time>2019-10-26T10:08:31.000Z</time>
      </trkpt>
      <trkpt lat="37.8150183521211147308349609375" lon="-1.43754442222416400909423828125">
        <ele>176.8000030517578125</ele>
        <time>2019-10-26T10:08:35.000Z</time>
      </trkpt>
      <trkpt lat="37.8148500435054302215576171875" lon="-1.43767350353300571441650390625">
        <ele>176.8000030517578125</ele>
        <time>2019-10-26T10:08:39.000Z</time>
      </trkpt>
      <trkpt lat="37.81468617729842662811279296875" lon="-1.437825970351696014404296875">
        <ele>177</ele>
        <time>2019-10-26T10:08:43.000Z</time>
      </trkpt>
      <trkpt lat="37.8145311959087848663330078125" lon="-1.4379810355603694915771484375">
        <ele>177.1999969482421875</ele>
        <time>2019-10-26T10:08:47.000Z</time>
      </trkpt>
      <trkpt lat="37.81437319703400135040283203125" lon="-1.43814808689057826995849609375">
        <ele>177.399993896484375</ele>
        <time>2019-10-26T10:08:51.000Z</time>
      </trkpt>
      <trkpt lat="37.8142051398754119873046875" lon="-1.43831455148756504058837890625">
        <ele>177.1999969482421875</ele>
        <time>2019-10-26T10:08:55.000Z</time>
      </trkpt>
      <trkpt lat="37.8140286169946193695068359375" lon="-1.43849258311092853546142578125">
        <ele>176.8000030517578125</ele>
        <time>2019-10-26T10:08:59.000Z</time>
      </trkpt>
      <trkpt lat="37.81385418958961963653564453125" lon="-1.43867187201976776123046875">
        <ele>176.399993896484375</ele>
        <time>2019-10-26T10:09:03.000Z</time>
      </trkpt>
      <trkpt lat="37.813679091632366180419921875" lon="-1.43885384313762187957763671875">
        <ele>175.8000030517578125</ele>
        <time>2019-10-26T10:09:07.000Z</time>
      </trkpt>
      <trkpt lat="37.8135082684457302093505859375" lon="-1.43903153948485851287841796875">
        <ele>175.600006103515625</ele>
        <time>2019-10-26T10:09:11.000Z</time>
      </trkpt>
      <trkpt lat="37.81333702616393566131591796875" lon="-1.43920688889920711517333984375">
        <ele>176</ele>
        <time>2019-10-26T10:09:15.000Z</time>
      </trkpt>
      <trkpt lat="37.8131699748337268829345703125" lon="-1.43937419168651103973388671875">
        <ele>176.8000030517578125</ele>
        <time>2019-10-26T10:09:19.000Z</time>
      </trkpt>
      <trkpt lat="37.81298138201236724853515625" lon="-1.43952372483909130096435546875">
        <ele>177.600006103515625</ele>
        <time>2019-10-26T10:09:23.000Z</time>
      </trkpt>
      <trkpt lat="37.812798321247100830078125" lon="-1.4396782033145427703857421875">
        <ele>178.399993896484375</ele>
        <time>2019-10-26T10:09:27.000Z</time>
      </trkpt>
      <trkpt lat="37.8126187808811664581298828125" lon="-1.43981583416461944580078125">
        <ele>179</ele>
        <time>2019-10-26T10:09:31.000Z</time>
      </trkpt>
      <trkpt lat="37.8124310262501239776611328125" lon="-1.43995388410985469818115234375">
        <ele>179</ele>
        <time>2019-10-26T10:09:35.000Z</time>
      </trkpt>
      <trkpt lat="37.812239415943622589111328125" lon="-1.44007676281034946441650390625">
        <ele>178.8000030517578125</ele>
        <time>2019-10-26T10:09:39.000Z</time>
      </trkpt>
      <trkpt lat="37.8120491467416286468505859375" lon="-1.4401925168931484222412109375">
        <ele>178.600006103515625</ele>
        <time>2019-10-26T10:09:43.000Z</time>
      </trkpt>
      <trkpt lat="37.8118622303009033203125" lon="-1.44030944444239139556884765625">
        <ele>178.1999969482421875</ele>
        <time>2019-10-26T10:09:47.000Z</time>
      </trkpt>
      <trkpt lat="37.811674140393733978271484375" lon="-1.4404253661632537841796875">
        <ele>178.1999969482421875</ele>
        <time>2019-10-26T10:09:51.000Z</time>
      </trkpt>
      <trkpt lat="37.81147641129791736602783203125" lon="-1.44054179079830646514892578125">
        <ele>178.1999969482421875</ele>
        <time>2019-10-26T10:09:55.000Z</time>
      </trkpt>
      <trkpt lat="37.8112689591944217681884765625" lon="-1.44065293483436107635498046875">
        <ele>178.399993896484375</ele>
        <time>2019-10-26T10:09:59.000Z</time>
      </trkpt>
      <trkpt lat="37.81105278991162776947021484375" lon="-1.4407633244991302490234375">
        <ele>178.8000030517578125</ele>
        <time>2019-10-26T10:10:03.000Z</time>
      </trkpt>
      <trkpt lat="37.8108790330588817596435546875" lon="-1.4408399350941181182861328125">
        <ele>178.8000030517578125</ele>
        <time>2019-10-26T10:10:06.000Z</time>
      </trkpt>
      <trkpt lat="37.81065917573869228363037109375" lon="-1.4409183897078037261962890625">
        <ele>179.600006103515625</ele>
        <time>2019-10-26T10:10:10.000Z</time>
      </trkpt>
      <trkpt lat="37.81045096926391124725341796875" lon="-1.4409797452390193939208984375">
        <ele>180</ele>
        <time>2019-10-26T10:10:14.000Z</time>
      </trkpt>
      <trkpt lat="37.8102470375597476959228515625" lon="-1.4410303719341754913330078125">
        <ele>180.600006103515625</ele>
        <time>2019-10-26T10:10:18.000Z</time>
      </trkpt>
      <trkpt lat="37.8100450336933135986328125" lon="-1.44106708467006683349609375">
        <ele>181</ele>
        <time>2019-10-26T10:10:22.000Z</time>
      </trkpt>
      <trkpt lat="37.8098443709313869476318359375" lon="-1.4410525001585483551025390625">
        <ele>181</ele>
        <time>2019-10-26T10:10:26.000Z</time>
      </trkpt>
      <trkpt lat="37.80963532626628875732421875" lon="-1.44096256233751773834228515625">
        <ele>180.600006103515625</ele>
        <time>2019-10-26T10:10:30.000Z</time>
      </trkpt>
      <trkpt lat="37.8094195760786533355712890625" lon="-1.44085116684436798095703125">
        <ele>180.399993896484375</ele>
        <time>2019-10-26T10:10:34.000Z</time>
      </trkpt>
      <trkpt lat="37.809204161167144775390625" lon="-1.44073926843702793121337890625">
        <ele>180.1999969482421875</ele>
        <time>2019-10-26T10:10:38.000Z</time>
      </trkpt>
      <trkpt lat="37.80903794802725315093994140625" lon="-1.4406494982540607452392578125">
        <ele>179.600006103515625</ele>
        <time>2019-10-26T10:10:41.000Z</time>
      </trkpt>
      <trkpt lat="37.808978855609893798828125" lon="-1.44062242470681667327880859375">
        <ele>179.1999969482421875</ele>
        <time>2019-10-26T10:10:42.000Z</time>
      </trkpt>
      <trkpt lat="37.8087969683110713958740234375" lon="-1.44055184908211231231689453125">
        <ele>178.399993896484375</ele>
        <time>2019-10-26T10:10:45.000Z</time>
      </trkpt>
      <trkpt lat="37.80861164443194866180419921875" lon="-1.4405006356537342071533203125">
        <ele>177.600006103515625</ele>
        <time>2019-10-26T10:10:48.000Z</time>
      </trkpt>
      <trkpt lat="37.8084341995418071746826171875" lon="-1.44044355489313602447509765625">
        <ele>177.600006103515625</ele>
        <time>2019-10-26T10:10:51.000Z</time>
      </trkpt>
      <trkpt lat="37.80825893394649028778076171875" lon="-1.4403839595615863800048828125">
        <ele>177.399993896484375</ele>
        <time>2019-10-26T10:10:54.000Z</time>
      </trkpt>
      <trkpt lat="37.80808375217020511627197265625" lon="-1.440326459705829620361328125">
        <ele>176.8000030517578125</ele>
        <time>2019-10-26T10:10:57.000Z</time>
      </trkpt>
      <trkpt lat="37.80785844661295413970947265625" lon="-1.440254710614681243896484375">
        <ele>176.1999969482421875</ele>
        <time>2019-10-26T10:11:01.000Z</time>
      </trkpt>
      <trkpt lat="37.80764286406338214874267578125" lon="-1.4402012340724468231201171875">
        <ele>175.600006103515625</ele>
        <time>2019-10-26T10:11:05.000Z</time>
      </trkpt>
      <trkpt lat="37.80743918381631374359130859375" lon="-1.4401566423475742340087890625">
        <ele>175.399993896484375</ele>
        <time>2019-10-26T10:11:09.000Z</time>
      </trkpt>
      <trkpt lat="37.80720884911715984344482421875" lon="-1.4402000606060028076171875">
        <ele>175.399993896484375</ele>
        <time>2019-10-26T10:11:13.000Z</time>
      </trkpt>
      <trkpt lat="37.80697113834321498870849609375" lon="-1.4402213506400585174560546875">
        <ele>175.399993896484375</ele>
        <time>2019-10-26T10:11:17.000Z</time>
      </trkpt>
      <trkpt lat="37.806736528873443603515625" lon="-1.44019545055925846099853515625">
        <ele>175.399993896484375</ele>
        <time>2019-10-26T10:11:21.000Z</time>
      </trkpt>
      <trkpt lat="37.80650652945041656494140625" lon="-1.4401445724070072174072265625">
        <ele>174.600006103515625</ele>
        <time>2019-10-26T10:11:25.000Z</time>
      </trkpt>
      <trkpt lat="37.80627946369349956512451171875" lon="-1.44009302370250225067138671875">
        <ele>174.1999969482421875</ele>
        <time>2019-10-26T10:11:29.000Z</time>
      </trkpt>
      <trkpt lat="37.806167900562286376953125" lon="-1.44007609225809574127197265625">
        <ele>174</ele>
        <time>2019-10-26T10:11:31.000Z</time>
      </trkpt>
      <trkpt lat="37.8059464506804943084716796875" lon="-1.44005857408046722412109375">
        <ele>173.8000030517578125</ele>
        <time>2019-10-26T10:11:35.000Z</time>
      </trkpt>
      <trkpt lat="37.805729694664478302001953125" lon="-1.44004927016794681549072265625">
        <ele>174.1999969482421875</ele>
        <time>2019-10-26T10:11:39.000Z</time>
      </trkpt>
      <trkpt lat="37.8055203147232532501220703125" lon="-1.44003837369382381439208984375">
        <ele>174.600006103515625</ele>
        <time>2019-10-26T10:11:43.000Z</time>
      </trkpt>
      <trkpt lat="37.80531026422977447509765625" lon="-1.44004977308213710784912109375">
        <ele>175</ele>
        <time>2019-10-26T10:11:47.000Z</time>
      </trkpt>
      <trkpt lat="37.8051017224788665771484375" lon="-1.440064944326877593994140625">
        <ele>175.1999969482421875</ele>
        <time>2019-10-26T10:11:51.000Z</time>
      </trkpt>
      <trkpt lat="37.804892174899578094482421875" lon="-1.4400838874280452728271484375">
        <ele>175.8000030517578125</ele>
        <time>2019-10-26T10:11:55.000Z</time>
      </trkpt>
      <trkpt lat="37.804701067507266998291015625" lon="-1.4401345141232013702392578125">
        <ele>176.399993896484375</ele>
        <time>2019-10-26T10:11:59.000Z</time>
      </trkpt>
      <trkpt lat="37.8045654483139514923095703125" lon="-1.44020416773855686187744140625">
        <ele>176.8000030517578125</ele>
        <time>2019-10-26T10:12:02.000Z</time>
      </trkpt>
      <trkpt lat="37.804382555186748504638671875" lon="-1.44029796123504638671875">
        <ele>177.1999969482421875</ele>
        <time>2019-10-26T10:12:06.000Z</time>
      </trkpt>
      <trkpt lat="37.8043399751186370849609375" lon="-1.44031313247978687286376953125">
        <ele>177.399993896484375</ele>
        <time>2019-10-26T10:12:07.000Z</time>
      </trkpt>
      <trkpt lat="37.8042455948889255523681640625" lon="-1.44032972864806652069091796875">
        <ele>177.399993896484375</ele>
        <time>2019-10-26T10:12:09.000Z</time>
      </trkpt>
      <trkpt lat="37.80403696931898593902587890625" lon="-1.44032050855457782745361328125">
        <ele>176.8000030517578125</ele>
        <time>2019-10-26T10:12:13.000Z</time>
      </trkpt>
      <trkpt lat="37.80381493270397186279296875" lon="-1.4403048343956470489501953125">
        <ele>175.8000030517578125</ele>
        <time>2019-10-26T10:12:17.000Z</time>
      </trkpt>
      <trkpt lat="37.80376153998076915740966796875" lon="-1.44030760042369365692138671875">
        <ele>175.600006103515625</ele>
        <time>2019-10-26T10:12:18.000Z</time>
      </trkpt>
      <trkpt lat="37.8035378269851207733154296875" lon="-1.440348587930202484130859375">
        <ele>175.1999969482421875</ele>
        <time>2019-10-26T10:12:22.000Z</time>
      </trkpt>
      <trkpt lat="37.80331713147461414337158203125" lon="-1.44040265120565891265869140625">
        <ele>175.1999969482421875</ele>
        <time>2019-10-26T10:12:26.000Z</time>
      </trkpt>
      <trkpt lat="37.80321755446493625640869140625" lon="-1.4404272101819515228271484375">
        <ele>175.399993896484375</ele>
        <time>2019-10-26T10:12:28.000Z</time>
      </trkpt>
      <trkpt lat="37.80301169492304325103759765625" lon="-1.44049216993153095245361328125">
        <ele>175.8000030517578125</ele>
        <time>2019-10-26T10:12:32.000Z</time>
      </trkpt>
      <trkpt lat="37.80280482955276966094970703125" lon="-1.44055855460464954376220703125">
        <ele>176.399993896484375</ele>
        <time>2019-10-26T10:12:36.000Z</time>
      </trkpt>
      <trkpt lat="37.802602238953113555908203125" lon="-1.44063265062868595123291015625">
        <ele>176.8000030517578125</ele>
        <time>2019-10-26T10:12:40.000Z</time>
      </trkpt>
      <trkpt lat="37.80240719206631183624267578125" lon="-1.440712027251720428466796875">
        <ele>176.8000030517578125</ele>
        <time>2019-10-26T10:12:44.000Z</time>
      </trkpt>
      <trkpt lat="37.80225983820855617523193359375" lon="-1.44078922457993030548095703125">
        <ele>176.8000030517578125</ele>
        <time>2019-10-26T10:12:47.000Z</time>
      </trkpt>
      <trkpt lat="37.80221273191273212432861328125" lon="-1.440816633403301239013671875">
        <ele>176.8000030517578125</ele>
        <time>2019-10-26T10:12:48.000Z</time>
      </trkpt>
      <trkpt lat="37.80201944522559642791748046875" lon="-1.44093473441898822784423828125">
        <ele>176.600006103515625</ele>
        <time>2019-10-26T10:12:52.000Z</time>
      </trkpt>
      <trkpt lat="37.8018292598426342010498046875" lon="-1.4410581998527050018310546875">
        <ele>176.600006103515625</ele>
        <time>2019-10-26T10:12:56.000Z</time>
      </trkpt>
      <trkpt lat="37.8016290999948978424072265625" lon="-1.44114830531179904937744140625">
        <ele>176.600006103515625</ele>
        <time>2019-10-26T10:13:00.000Z</time>
      </trkpt>
      <trkpt lat="37.80142634175717830657958984375" lon="-1.4411966688930988311767578125">
        <ele>176.600006103515625</ele>
        <time>2019-10-26T10:13:04.000Z</time>
      </trkpt>
      <trkpt lat="37.801249064505100250244140625" lon="-1.4412402547895908355712890625">
        <ele>176.8000030517578125</ele>
        <time>2019-10-26T10:13:08.000Z</time>
      </trkpt>
      <trkpt lat="37.80112878419458866119384765625" lon="-1.4412871934473514556884765625">
        <ele>176.8000030517578125</ele>
        <time>2019-10-26T10:13:11.000Z</time>
      </trkpt>
      <trkpt lat="37.8009779937565326690673828125" lon="-1.44132449291646480560302734375">
        <ele>176.8000030517578125</ele>
        <time>2019-10-26T10:13:15.000Z</time>
      </trkpt>
      <trkpt lat="37.80078797601163387298583984375" lon="-1.44120815210044384002685546875">
        <ele>176.8000030517578125</ele>
        <time>2019-10-26T10:13:20.000Z</time>
      </trkpt>
      <trkpt lat="37.80074916779994964599609375" lon="-1.44116498529911041259765625">
        <ele>176.8000030517578125</ele>
        <time>2019-10-26T10:13:21.000Z</time>
      </trkpt>
      <trkpt lat="37.80063089914619922637939453125" lon="-1.4410297013819217681884765625">
        <ele>176.600006103515625</ele>
        <time>2019-10-26T10:13:24.000Z</time>
      </trkpt>
      <trkpt lat="37.80043040402233600616455078125" lon="-1.4410042203962802886962890625">
        <ele>176.399993896484375</ele>
        <time>2019-10-26T10:13:28.000Z</time>
      </trkpt>
      <trkpt lat="37.80033652670681476593017578125" lon="-1.44105224870145320892333984375">
        <ele>176.1999969482421875</ele>
        <time>2019-10-26T10:13:30.000Z</time>
      </trkpt>
      <trkpt lat="37.8001481853425502777099609375" lon="-1.44119448959827423095703125">
        <ele>175.8000030517578125</ele>
        <time>2019-10-26T10:13:34.000Z</time>
      </trkpt>
      <trkpt lat="37.79996738769114017486572265625" lon="-1.44133773632347583770751953125">
        <ele>175.8000030517578125</ele>
        <time>2019-10-26T10:13:38.000Z</time>
      </trkpt>
      <trkpt lat="37.79978063888847827911376953125" lon="-1.44147570244967937469482421875">
        <ele>176</ele>
        <time>2019-10-26T10:13:42.000Z</time>
      </trkpt>
      <trkpt lat="37.79958869330585002899169921875" lon="-1.44159925170242786407470703125">
        <ele>176.1999969482421875</ele>
        <time>2019-10-26T10:13:46.000Z</time>
      </trkpt>
      <trkpt lat="37.79940378852188587188720703125" lon="-1.44172246567904949188232421875">
        <ele>176.600006103515625</ele>
        <time>2019-10-26T10:13:50.000Z</time>
      </trkpt>
      <trkpt lat="37.79922877438366413116455078125" lon="-1.44186495803296566009521484375">
        <ele>177</ele>
        <time>2019-10-26T10:13:54.000Z</time>
      </trkpt>
      <trkpt lat="37.7990612201392650604248046875" lon="-1.442031674087047576904296875">
        <ele>177</ele>
        <time>2019-10-26T10:13:58.000Z</time>
      </trkpt>
      <trkpt lat="37.7989002875983715057373046875" lon="-1.44221280701458454132080078125">
        <ele>177</ele>
        <time>2019-10-26T10:14:02.000Z</time>
      </trkpt>
      <trkpt lat="37.7987395226955413818359375" lon="-1.4423902519047260284423828125">
        <ele>177</ele>
        <time>2019-10-26T10:14:06.000Z</time>
      </trkpt>
      <trkpt lat="37.79858252964913845062255859375" lon="-1.44256937317550182342529296875">
        <ele>177</ele>
        <time>2019-10-26T10:14:10.000Z</time>
      </trkpt>
      <trkpt lat="37.79842947609722614288330078125" lon="-1.44275763072073459625244140625">
        <ele>177.1999969482421875</ele>
        <time>2019-10-26T10:14:14.000Z</time>
      </trkpt>
      <trkpt lat="37.7982837148010730743408203125" lon="-1.44295494072139263153076171875">
        <ele>177.399993896484375</ele>
        <time>2019-10-26T10:14:18.000Z</time>
      </trkpt>
      <trkpt lat="37.79815438203513622283935546875" lon="-1.44313515163958072662353515625">
        <ele>177.600006103515625</ele>
        <time>2019-10-26T10:14:22.000Z</time>
      </trkpt>
      <trkpt lat="37.79812873341143131256103515625" lon="-1.44317722879350185394287109375">
        <ele>177.600006103515625</ele>
        <time>2019-10-26T10:14:23.000Z</time>
      </trkpt>
      <trkpt lat="37.798081375658512115478515625" lon="-1.44326071254909038543701171875">
        <ele>177.600006103515625</ele>
        <time>2019-10-26T10:14:25.000Z</time>
      </trkpt>
      <trkpt lat="37.79789621941745281219482421875" lon="-1.443340592086315155029296875">
        <ele>177.399993896484375</ele>
        <time>2019-10-26T10:14:30.000Z</time>
      </trkpt>
      <trkpt lat="37.79771617613732814788818359375" lon="-1.4433632232248783111572265625">
        <ele>177.1999969482421875</ele>
        <time>2019-10-26T10:14:34.000Z</time>
      </trkpt>
      <trkpt lat="37.79751836322247982025146484375" lon="-1.4433521591126918792724609375">
        <ele>177</ele>
        <time>2019-10-26T10:14:38.000Z</time>
      </trkpt>
      <trkpt lat="37.79731166549026966094970703125" lon="-1.4433301985263824462890625">
        <ele>176.600006103515625</ele>
        <time>2019-10-26T10:14:42.000Z</time>
      </trkpt>
      <trkpt lat="37.79710513539612293243408203125" lon="-1.44330329261720180511474609375">
        <ele>176.1999969482421875</ele>
        <time>2019-10-26T10:14:46.000Z</time>
      </trkpt>
      <trkpt lat="37.79689885675907135009765625" lon="-1.443277895450592041015625">
        <ele>175.600006103515625</ele>
        <time>2019-10-26T10:14:50.000Z</time>
      </trkpt>
      <trkpt lat="37.7966931648552417755126953125" lon="-1.4432569406926631927490234375">
        <ele>175.1999969482421875</ele>
        <time>2019-10-26T10:14:54.000Z</time>
      </trkpt>
      <trkpt lat="37.7965010516345500946044921875" lon="-1.44323053769767284393310546875">
        <ele>175.600006103515625</ele>
        <time>2019-10-26T10:14:58.000Z</time>
      </trkpt>
      <trkpt lat="37.79637641273438930511474609375" lon="-1.44322819076478481292724609375">
        <ele>176.1999969482421875</ele>
        <time>2019-10-26T10:15:01.000Z</time>
      </trkpt>
      <trkpt lat="37.7961962856352329254150390625" lon="-1.4433233253657817840576171875">
        <ele>176.600006103515625</ele>
        <time>2019-10-26T10:15:06.000Z</time>
      </trkpt>
      <trkpt lat="37.7960035018622875213623046875" lon="-1.44346363842487335205078125">
        <ele>177.1999969482421875</ele>
        <time>2019-10-26T10:15:11.000Z</time>
      </trkpt>
      <trkpt lat="37.79584080912172794342041015625" lon="-1.443606130778789520263671875">
        <ele>177.399993896484375</ele>
        <time>2019-10-26T10:15:15.000Z</time>
      </trkpt>
      <trkpt lat="37.795797474682331085205078125" lon="-1.4436466991901397705078125">
        <ele>177.1999969482421875</ele>
        <time>2019-10-26T10:15:16.000Z</time>
      </trkpt>
      <trkpt lat="37.79563595540821552276611328125" lon="-1.44378625787794589996337890625">
        <ele>176.600006103515625</ele>
        <time>2019-10-26T10:15:20.000Z</time>
      </trkpt>
      <trkpt lat="37.79546664096415042877197265625" lon="-1.44392338581383228302001953125">
        <ele>176</ele>
        <time>2019-10-26T10:15:24.000Z</time>
      </trkpt>
      <trkpt lat="37.79528953135013580322265625" lon="-1.44406755454838275909423828125">
        <ele>175.8000030517578125</ele>
        <time>2019-10-26T10:15:28.000Z</time>
      </trkpt>
      <trkpt lat="37.79524125158786773681640625" lon="-1.44409798085689544677734375">
        <ele>175.8000030517578125</ele>
        <time>2019-10-26T10:15:29.000Z</time>
      </trkpt>
      <trkpt lat="37.7950533293187618255615234375" lon="-1.44421541132032871246337890625">
        <ele>175.8000030517578125</ele>
        <time>2019-10-26T10:15:33.000Z</time>
      </trkpt>
      <trkpt lat="37.794857360422611236572265625" lon="-1.44432035274803638458251953125">
        <ele>176.1999969482421875</ele>
        <time>2019-10-26T10:15:37.000Z</time>
      </trkpt>
      <trkpt lat="37.79465728439390659332275390625" lon="-1.44441188313066959381103515625">
        <ele>176.600006103515625</ele>
        <time>2019-10-26T10:15:41.000Z</time>
      </trkpt>
      <trkpt lat="37.7944669313728809356689453125" lon="-1.4445175789296627044677734375">
        <ele>176.8000030517578125</ele>
        <time>2019-10-26T10:15:45.000Z</time>
      </trkpt>
      <trkpt lat="37.79437313787639141082763671875" lon="-1.4445759169757366180419921875">
        <ele>177</ele>
        <time>2019-10-26T10:15:47.000Z</time>
      </trkpt>
      <trkpt lat="37.79433039017021656036376953125" lon="-1.44461103715002536773681640625">
        <ele>177.1999969482421875</ele>
        <time>2019-10-26T10:15:48.000Z</time>
      </trkpt>
      <trkpt lat="37.79415923170745372772216796875" lon="-1.44476274959743022918701171875">
        <ele>177.8000030517578125</ele>
        <time>2019-10-26T10:15:52.000Z</time>
      </trkpt>
      <trkpt lat="37.79398388229310512542724609375" lon="-1.4449048228561878204345703125">
        <ele>178.399993896484375</ele>
        <time>2019-10-26T10:15:56.000Z</time>
      </trkpt>
      <trkpt lat="37.79381725005805492401123046875" lon="-1.4450318925082683563232421875">
        <ele>178.8000030517578125</ele>
        <time>2019-10-26T10:16:00.000Z</time>
      </trkpt>
      <trkpt lat="37.79363687150180339813232421875" lon="-1.4451405219733715057373046875">
        <ele>179</ele>
        <time>2019-10-26T10:16:05.000Z</time>
      </trkpt>
      <trkpt lat="37.79345883987843990325927734375" lon="-1.4452474750578403472900390625">
        <ele>179.399993896484375</ele>
        <time>2019-10-26T10:16:10.000Z</time>
      </trkpt>
      <trkpt lat="37.793419361114501953125" lon="-1.445263735949993133544921875">
        <ele>179.399993896484375</ele>
        <time>2019-10-26T10:16:11.000Z</time>
      </trkpt>
      <trkpt lat="37.793251387774944305419921875" lon="-1.4452793262898921966552734375">
        <ele>179.1999969482421875</ele>
        <time>2019-10-26T10:16:15.000Z</time>
      </trkpt>
      <trkpt lat="37.79320972971618175506591796875" lon="-1.44527873955667018890380859375">
        <ele>179.1999969482421875</ele>
        <time>2019-10-26T10:16:16.000Z</time>
      </trkpt>
      <trkpt lat="37.793003953993320465087890625" lon="-1.4453239180147647857666015625">
        <ele>179</ele>
        <time>2019-10-26T10:16:21.000Z</time>
      </trkpt>
      <trkpt lat="37.79297386296093463897705078125" lon="-1.44532777369022369384765625">
        <ele>179</ele>
        <time>2019-10-26T10:16:22.000Z</time>
      </trkpt>
      <trkpt lat="37.7928559295833110809326171875" lon="-1.44535996019840240478515625">
        <ele>178.8000030517578125</ele>
        <time>2019-10-26T10:16:26.000Z</time>
      </trkpt>
      <trkpt lat="37.7927429415285587310791015625" lon="-1.44545224495232105255126953125">
        <ele>178.600006103515625</ele>
        <time>2019-10-26T10:16:30.000Z</time>
      </trkpt>
      <trkpt lat="37.7925558574497699737548828125" lon="-1.44555567763745784759521484375">
        <ele>178.600006103515625</ele>
        <time>2019-10-26T10:16:35.000Z</time>
      </trkpt>
      <trkpt lat="37.7923721261322498321533203125" lon="-1.4456648938357830047607421875">
        <ele>177.8000030517578125</ele>
        <time>2019-10-26T10:16:40.000Z</time>
      </trkpt>
      <trkpt lat="37.792241871356964111328125" lon="-1.4457334578037261962890625">
        <ele>177.8000030517578125</ele>
        <time>2019-10-26T10:16:44.000Z</time>
      </trkpt>
      <trkpt lat="37.79216609895229339599609375" lon="-1.4457946456968784332275390625">
        <ele>177.8000030517578125</ele>
        <time>2019-10-26T10:16:47.000Z</time>
      </trkpt>
      <trkpt lat="37.7920868061482906341552734375" lon="-1.44584544003009796142578125">
        <ele>177.600006103515625</ele>
        <time>2019-10-26T10:16:51.000Z</time>
      </trkpt>
      <trkpt lat="37.7920447289943695068359375" lon="-1.4458590187132358551025390625">
        <ele>177.600006103515625</ele>
        <time>2019-10-26T10:16:53.000Z</time>
      </trkpt>
      <trkpt lat="37.79184012673795223236083984375" lon="-1.44590319134294986724853515625">
        <ele>177.399993896484375</ele>
        <time>2019-10-26T10:17:00.000Z</time>
      </trkpt>
      <trkpt lat="37.79164214618504047393798828125" lon="-1.44594057463109493255615234375">
        <ele>177.600006103515625</ele>
        <time>2019-10-26T10:17:06.000Z</time>
      </trkpt>
      <trkpt lat="37.7914464287459850311279296875" lon="-1.44589045085012912750244140625">
        <ele>178</ele>
        <time>2019-10-26T10:17:12.000Z</time>
      </trkpt>
      <trkpt lat="37.7912802994251251220703125" lon="-1.44576723687350749969482421875">
        <ele>178.1999969482421875</ele>
        <time>2019-10-26T10:17:17.000Z</time>
      </trkpt>
      <trkpt lat="37.79110528528690338134765625" lon="-1.4456320367753505706787109375">
        <ele>178.399993896484375</ele>
        <time>2019-10-26T10:17:22.000Z</time>
      </trkpt>
      <trkpt lat="37.790911830961704254150390625" lon="-1.44551753997802734375">
        <ele>178.399993896484375</ele>
        <time>2019-10-26T10:17:27.000Z</time>
      </trkpt>
      <trkpt lat="37.79072985984385013580322265625" lon="-1.445391140878200531005859375">
        <ele>177.1999969482421875</ele>
        <time>2019-10-26T10:17:32.000Z</time>
      </trkpt>
      <trkpt lat="37.79054311104118824005126953125" lon="-1.44525225274264812469482421875">
        <ele>175.8000030517578125</ele>
        <time>2019-10-26T10:17:37.000Z</time>
      </trkpt>
      <trkpt lat="37.7903903089463710784912109375" lon="-1.44513004459440708160400390625">
        <ele>175.8000030517578125</ele>
        <time>2019-10-26T10:17:41.000Z</time>
      </trkpt>
      <trkpt lat="37.7902444638311862945556640625" lon="-1.44491965882480144500732421875">
        <ele>176.399993896484375</ele>
        <time>2019-10-26T10:17:46.000Z</time>
      </trkpt>
      <trkpt lat="37.7901103533804416656494140625" lon="-1.4447495900094509124755859375">
        <ele>177</ele>
        <time>2019-10-26T10:17:50.000Z</time>
      </trkpt>
      <trkpt lat="37.7899675257503986358642578125" lon="-1.4445983804762363433837890625">
        <ele>177</ele>
        <time>2019-10-26T10:17:54.000Z</time>
      </trkpt>
      <trkpt lat="37.78978924266993999481201171875" lon="-1.44443719647824764251708984375">
        <ele>177.399993896484375</ele>
        <time>2019-10-26T10:17:59.000Z</time>
      </trkpt>
      <trkpt lat="37.78963535092771053314208984375" lon="-1.4443066902458667755126953125">
        <ele>177.399993896484375</ele>
        <time>2019-10-26T10:18:04.000Z</time>
      </trkpt>
      <trkpt lat="37.789476849138736724853515625" lon="-1.4441950432956218719482421875">
        <ele>177.1999969482421875</ele>
        <time>2019-10-26T10:18:09.000Z</time>
      </trkpt>
      <trkpt lat="37.78934441506862640380859375" lon="-1.44410594366490840911865234375">
        <ele>177.1999969482421875</ele>
        <time>2019-10-26T10:18:13.000Z</time>
      </trkpt>
      <trkpt lat="37.78917417861521244049072265625" lon="-1.44400100223720073699951171875">
        <ele>177</ele>
        <time>2019-10-26T10:18:18.000Z</time>
      </trkpt>
      <trkpt lat="37.78900419361889362335205078125" lon="-1.4438889361917972564697265625">
        <ele>177.600006103515625</ele>
        <time>2019-10-26T10:18:23.000Z</time>
      </trkpt>
      <trkpt lat="37.78882079757750034332275390625" lon="-1.44386085681617259979248046875">
        <ele>178</ele>
        <time>2019-10-26T10:18:28.000Z</time>
      </trkpt>
      <trkpt lat="37.78863388113677501678466796875" lon="-1.44391718320548534393310546875">
        <ele>178.399993896484375</ele>
        <time>2019-10-26T10:18:34.000Z</time>
      </trkpt>
      <trkpt lat="37.78845182619988918304443359375" lon="-1.44392137415707111358642578125">
        <ele>178.8000030517578125</ele>
        <time>2019-10-26T10:18:41.000Z</time>
      </trkpt>
      <trkpt lat="37.78826759196817874908447265625" lon="-1.44402832724153995513916015625">
        <ele>179</ele>
        <time>2019-10-26T10:18:48.000Z</time>
      </trkpt>
      <trkpt lat="37.78812090866267681121826171875" lon="-1.44420669414103031158447265625">
        <ele>179.1999969482421875</ele>
        <time>2019-10-26T10:18:54.000Z</time>
      </trkpt>
      <trkpt lat="37.7880121953785419464111328125" lon="-1.44439972937107086181640625">
        <ele>179.399993896484375</ele>
        <time>2019-10-26T10:19:00.000Z</time>
      </trkpt>
      <trkpt lat="37.787890993058681488037109375" lon="-1.444581784307956695556640625">
        <ele>179.600006103515625</ele>
        <time>2019-10-26T10:19:06.000Z</time>
      </trkpt>
      <trkpt lat="37.787768281996250152587890625" lon="-1.4447941817343235015869140625">
        <ele>179.8000030517578125</ele>
        <time>2019-10-26T10:19:12.000Z</time>
      </trkpt>
      <trkpt lat="37.78763861395418643951416015625" lon="-1.4450064115226268768310546875">
        <ele>180.1999969482421875</ele>
        <time>2019-10-26T10:19:18.000Z</time>
      </trkpt>
      <trkpt lat="37.78752277605235576629638671875" lon="-1.4451810903847217559814453125">
        <ele>180.399993896484375</ele>
        <time>2019-10-26T10:19:23.000Z</time>
      </trkpt>
      <trkpt lat="37.78741749934852123260498046875" lon="-1.4453691802918910980224609375">
        <ele>180.8000030517578125</ele>
        <time>2019-10-26T10:19:28.000Z</time>
      </trkpt>
      <trkpt lat="37.78729964978992938995361328125" lon="-1.44555014558136463165283203125">
        <ele>181.1999969482421875</ele>
        <time>2019-10-26T10:19:33.000Z</time>
      </trkpt>
      <trkpt lat="37.78716377913951873779296875" lon="-1.4457433484494686126708984375">
        <ele>181.600006103515625</ele>
        <time>2019-10-26T10:19:39.000Z</time>
      </trkpt>
      <trkpt lat="37.7870321832597255706787109375" lon="-1.4459217153489589691162109375">
        <ele>182</ele>
        <time>2019-10-26T10:19:46.000Z</time>
      </trkpt>
      <trkpt lat="37.7869309298694133758544921875" lon="-1.4460839889943599700927734375">
        <ele>182.1999969482421875</ele>
        <time>2019-10-26T10:19:52.000Z</time>
      </trkpt>
      <trkpt lat="37.78685591183602809906005859375" lon="-1.446291022002696990966796875">
        <ele>182.600006103515625</ele>
        <time>2019-10-26T10:20:00.000Z</time>
      </trkpt>
      <trkpt lat="37.786855660378932952880859375" lon="-1.4462911896407604217529296875">
        <ele>182.600006103515625</ele>
        <time>2019-10-26T10:20:02.000Z</time>
      </trkpt>
      <trkpt lat="37.78680277056992053985595703125" lon="-1.4464685507118701934814453125">
        <ele>182.8000030517578125</ele>
        <time>2019-10-26T10:20:29.000Z</time>
      </trkpt>
      <trkpt lat="37.7867505513131618499755859375" lon="-1.44655547104775905609130859375">
        <ele>183</ele>
        <time>2019-10-26T10:20:35.000Z</time>
      </trkpt>
      <trkpt lat="37.78669481165707111358642578125" lon="-1.446763761341571807861328125">
        <ele>183</ele>
        <time>2019-10-26T10:21:05.000Z</time>
      </trkpt>
      <trkpt lat="37.78652675449848175048828125" lon="-1.4468738995492458343505859375">
        <ele>183</ele>
        <time>2019-10-26T10:21:14.000Z</time>
      </trkpt>
      <trkpt lat="37.78634972870349884033203125" lon="-1.4469711296260356903076171875">
        <ele>183</ele>
        <time>2019-10-26T10:21:21.000Z</time>
      </trkpt>
      <trkpt lat="37.7861812524497509002685546875" lon="-1.44707783125340938568115234375">
        <ele>183</ele>
        <time>2019-10-26T10:21:27.000Z</time>
      </trkpt>
      <trkpt lat="37.786017470061779022216796875" lon="-1.44718461669981479644775390625">
        <ele>183</ele>
        <time>2019-10-26T10:21:33.000Z</time>
      </trkpt>
      <trkpt lat="37.78584354557096958160400390625" lon="-1.44728704355657100677490234375">
        <ele>183</ele>
        <time>2019-10-26T10:21:39.000Z</time>
      </trkpt>
      <trkpt lat="37.785664089024066925048828125" lon="-1.4473935775458812713623046875">
        <ele>183</ele>
        <time>2019-10-26T10:21:45.000Z</time>
      </trkpt>
      <trkpt lat="37.78548412956297397613525390625" lon="-1.4475082419812679290771484375">
        <ele>182.8000030517578125</ele>
        <time>2019-10-26T10:21:51.000Z</time>
      </trkpt>
      <trkpt lat="37.7853065170347690582275390625" lon="-1.44761930219829082489013671875">
        <ele>182.600006103515625</ele>
        <time>2019-10-26T10:21:57.000Z</time>
      </trkpt>
      <trkpt lat="37.7851325087249279022216796875" lon="-1.447757184505462646484375">
        <ele>182.399993896484375</ele>
        <time>2019-10-26T10:22:03.000Z</time>
      </trkpt>
      <trkpt lat="37.785006947815418243408203125" lon="-1.4479328691959381103515625">
        <ele>182.399993896484375</ele>
        <time>2019-10-26T10:22:08.000Z</time>
      </trkpt>
      <trkpt lat="37.784881554543972015380859375" lon="-1.44813629798591136932373046875">
        <ele>182.399993896484375</ele>
        <time>2019-10-26T10:22:13.000Z</time>
      </trkpt>
      <trkpt lat="37.784750126302242279052734375" lon="-1.4483115635812282562255859375">
        <ele>182.600006103515625</ele>
        <time>2019-10-26T10:22:18.000Z</time>
      </trkpt>
      <trkpt lat="37.78461090289056301116943359375" lon="-1.44847827963531017303466796875">
        <ele>182.600006103515625</ele>
        <time>2019-10-26T10:22:23.000Z</time>
      </trkpt>
      <trkpt lat="37.7844790555536746978759765625" lon="-1.448646001517772674560546875">
        <ele>182.8000030517578125</ele>
        <time>2019-10-26T10:22:28.000Z</time>
      </trkpt>
      <trkpt lat="37.78433346189558506011962890625" lon="-1.44884306006133556365966796875">
        <ele>182.8000030517578125</ele>
        <time>2019-10-26T10:22:34.000Z</time>
      </trkpt>
      <trkpt lat="37.78420303948223590850830078125" lon="-1.449000053107738494873046875">
        <ele>183</ele>
        <time>2019-10-26T10:22:39.000Z</time>
      </trkpt>
      <trkpt lat="37.78406909666955471038818359375" lon="-1.44916458986699581146240234375">
        <ele>183.399993896484375</ele>
        <time>2019-10-26T10:22:44.000Z</time>
      </trkpt>
      <trkpt lat="37.78391436673700809478759765625" lon="-1.44935217685997486114501953125">
        <ele>184</ele>
        <time>2019-10-26T10:22:50.000Z</time>
      </trkpt>
      <trkpt lat="37.78377656824886798858642578125" lon="-1.44951646216213703155517578125">
        <ele>184.399993896484375</ele>
        <time>2019-10-26T10:22:55.000Z</time>
      </trkpt>
      <trkpt lat="37.7836445532739162445068359375" lon="-1.4496784843504428863525390625">
        <ele>185</ele>
        <time>2019-10-26T10:23:00.000Z</time>
      </trkpt>
      <trkpt lat="37.78350968845188617706298828125" lon="-1.44983329810202121734619140625">
        <ele>185.399993896484375</ele>
        <time>2019-10-26T10:23:05.000Z</time>
      </trkpt>
      <trkpt lat="37.7833776734769344329833984375" lon="-1.44999909214675426483154296875">
        <ele>186.1999969482421875</ele>
        <time>2019-10-26T10:23:10.000Z</time>
      </trkpt>
      <trkpt lat="37.7832606621086597442626953125" lon="-1.450179554522037506103515625">
        <ele>186.1999969482421875</ele>
        <time>2019-10-26T10:23:15.000Z</time>
      </trkpt>
      <trkpt lat="37.783170305192470550537109375" lon="-1.4504144154489040374755859375">
        <ele>186.399993896484375</ele>
        <time>2019-10-26T10:23:21.000Z</time>
      </trkpt>
      <trkpt lat="37.7830259688198566436767578125" lon="-1.45053352229297161102294921875">
        <ele>186.399993896484375</ele>
        <time>2019-10-26T10:23:27.000Z</time>
      </trkpt>
      <trkpt lat="37.78284785337746143341064453125" lon="-1.45047266967594623565673828125">
        <ele>186.1999969482421875</ele>
        <time>2019-10-26T10:23:32.000Z</time>
      </trkpt>
      <trkpt lat="37.7826719172298908233642578125" lon="-1.45041458308696746826171875">
        <ele>186.1999969482421875</ele>
        <time>2019-10-26T10:23:37.000Z</time>
      </trkpt>
      <trkpt lat="37.78253520838916301727294921875" lon="-1.45053553394973278045654296875">
        <ele>186.1999969482421875</ele>
        <time>2019-10-26T10:23:45.000Z</time>
      </trkpt>
      <trkpt lat="37.78246396221220493316650390625" lon="-1.4507614262402057647705078125">
        <ele>186.1999969482421875</ele>
        <time>2019-10-26T10:23:54.000Z</time>
      </trkpt>
      <trkpt lat="37.78245440684258937835693359375" lon="-1.45079285837709903717041015625">
        <ele>186.399993896484375</ele>
        <time>2019-10-26T10:23:57.000Z</time>
      </trkpt>
      <trkpt lat="37.78241601772606372833251953125" lon="-1.45084767602384090423583984375">
        <ele>186.399993896484375</ele>
        <time>2019-10-26T10:25:35.000Z</time>
      </trkpt>
      <trkpt lat="37.78238567523658275604248046875" lon="-1.45089813508093357086181640625">
        <ele>186.600006103515625</ele>
        <time>2019-10-26T10:27:48.000Z</time>
      </trkpt>
      <trkpt lat="37.7823378145694732666015625" lon="-1.4511268772184848785400390625">
        <ele>187.1999969482421875</ele>
        <time>2019-10-26T10:27:56.000Z</time>
      </trkpt>
      <trkpt lat="37.78225894086062908172607421875" lon="-1.45136944949626922607421875">
        <ele>187.8000030517578125</ele>
        <time>2019-10-26T10:28:02.000Z</time>
      </trkpt>
      <trkpt lat="37.78218853287398815155029296875" lon="-1.45158930681645870208740234375">
        <ele>188.1999969482421875</ele>
        <time>2019-10-26T10:28:07.000Z</time>
      </trkpt>
      <trkpt lat="37.78209884651005268096923828125" lon="-1.4518068172037601470947265625">
        <ele>188.399993896484375</ele>
        <time>2019-10-26T10:28:12.000Z</time>
      </trkpt>
      <trkpt lat="37.78202961198985576629638671875" lon="-1.4520304463803768157958984375">
        <ele>188.600006103515625</ele>
        <time>2019-10-26T10:28:17.000Z</time>
      </trkpt>
      <trkpt lat="37.78196389786899089813232421875" lon="-1.45224644802510738372802734375">
        <ele>188.1999969482421875</ele>
        <time>2019-10-26T10:28:22.000Z</time>
      </trkpt>
      <trkpt lat="37.78189566917717456817626953125" lon="-1.45248617045581340789794921875">
        <ele>188</ele>
        <time>2019-10-26T10:28:27.000Z</time>
      </trkpt>
      <trkpt lat="37.7817985229194164276123046875" lon="-1.45271415822207927703857421875">
        <ele>187.8000030517578125</ele>
        <time>2019-10-26T10:28:32.000Z</time>
      </trkpt>
      <trkpt lat="37.7817043103277683258056640625" lon="-1.45294717513024806976318359375">
        <ele>187.600006103515625</ele>
        <time>2019-10-26T10:28:38.000Z</time>
      </trkpt>
      <trkpt lat="37.7816275320947170257568359375" lon="-1.4531854726374149322509765625">
        <ele>187.1999969482421875</ele>
        <time>2019-10-26T10:28:43.000Z</time>
      </trkpt>
      <trkpt lat="37.78155930340290069580078125" lon="-1.45341354422271251678466796875">
        <ele>187.1999969482421875</ele>
        <time>2019-10-26T10:28:48.000Z</time>
      </trkpt>
      <trkpt lat="37.78148286044597625732421875" lon="-1.4536501653492450714111328125">
        <ele>187.1999969482421875</ele>
        <time>2019-10-26T10:28:53.000Z</time>
      </trkpt>
      <trkpt lat="37.78146433643996715545654296875" lon="-1.4536971040070056915283203125">
        <ele>187.1999969482421875</ele>
        <time>2019-10-26T10:28:54.000Z</time>
      </trkpt>
      <trkpt lat="37.78136040084064006805419921875" lon="-1.4539388380944728851318359375">
        <ele>187.399993896484375</ele>
        <time>2019-10-26T10:28:59.000Z</time>
      </trkpt>
      <trkpt lat="37.7812587283551692962646484375" lon="-1.4541282691061496734619140625">
        <ele>187.600006103515625</ele>
        <time>2019-10-26T10:29:03.000Z</time>
      </trkpt>
      <trkpt lat="37.7811430580914020538330078125" lon="-1.45436346530914306640625">
        <ele>187.600006103515625</ele>
        <time>2019-10-26T10:29:08.000Z</time>
      </trkpt>
      <trkpt lat="37.781037949025630950927734375" lon="-1.45456002093851566314697265625">
        <ele>187.8000030517578125</ele>
        <time>2019-10-26T10:29:12.000Z</time>
      </trkpt>
      <trkpt lat="37.7809355221688747406005859375" lon="-1.45476043224334716796875">
        <ele>188</ele>
        <time>2019-10-26T10:29:16.000Z</time>
      </trkpt>
      <trkpt lat="37.7808248810470104217529296875" lon="-1.45496000535786151885986328125">
        <ele>188.1999969482421875</ele>
        <time>2019-10-26T10:29:20.000Z</time>
      </trkpt>
      <trkpt lat="37.78072253800928592681884765625" lon="-1.45516955293715000152587890625">
        <ele>188.600006103515625</ele>
        <time>2019-10-26T10:29:24.000Z</time>
      </trkpt>
      <trkpt lat="37.78061340562999248504638671875" lon="-1.45537356846034526824951171875">
        <ele>189</ele>
        <time>2019-10-26T10:29:28.000Z</time>
      </trkpt>
      <trkpt lat="37.78051349334418773651123046875" lon="-1.455576159060001373291015625">
        <ele>189.399993896484375</ele>
        <time>2019-10-26T10:29:32.000Z</time>
      </trkpt>
      <trkpt lat="37.7804101444780826568603515625" lon="-1.45577304996550083160400390625">
        <ele>189.399993896484375</ele>
        <time>2019-10-26T10:29:36.000Z</time>
      </trkpt>
      <trkpt lat="37.78031031601130962371826171875" lon="-1.45597186870872974395751953125">
        <ele>189.399993896484375</ele>
        <time>2019-10-26T10:29:40.000Z</time>
      </trkpt>
      <trkpt lat="37.78025801293551921844482421875" lon="-1.45606465637683868408203125">
        <ele>189.1999969482421875</ele>
        <time>2019-10-26T10:29:42.000Z</time>
      </trkpt>
      <trkpt lat="37.7801734395325183868408203125" lon="-1.4562780596315860748291015625">
        <ele>189.1999969482421875</ele>
        <time>2019-10-26T10:29:46.000Z</time>
      </trkpt>
      <trkpt lat="37.78009892441332340240478515625" lon="-1.4565140940248966217041015625">
        <ele>189</ele>
        <time>2019-10-26T10:29:50.000Z</time>
      </trkpt>
      <trkpt lat="37.7799920551478862762451171875" lon="-1.4567326940596103668212890625">
        <ele>189.399993896484375</ele>
        <time>2019-10-26T10:29:54.000Z</time>
      </trkpt>
      <trkpt lat="37.77987898327410221099853515625" lon="-1.456942744553089141845703125">
        <ele>190</ele>
        <time>2019-10-26T10:29:58.000Z</time>
      </trkpt>
      <trkpt lat="37.77977974154055118560791015625" lon="-1.45714960992336273193359375">
        <ele>190.399993896484375</ele>
        <time>2019-10-26T10:30:02.000Z</time>
      </trkpt>
      <trkpt lat="37.77968351729214191436767578125" lon="-1.45734666846692562103271484375">
        <ele>190.8000030517578125</ele>
        <time>2019-10-26T10:30:06.000Z</time>
      </trkpt>
      <trkpt lat="37.779562734067440032958984375" lon="-1.45758144557476043701171875">
        <ele>190.1999969482421875</ele>
        <time>2019-10-26T10:30:11.000Z</time>
      </trkpt>
      <trkpt lat="37.77947480790317058563232421875" lon="-1.4577658474445343017578125">
        <ele>189.8000030517578125</ele>
        <time>2019-10-26T10:30:15.000Z</time>
      </trkpt>
      <trkpt lat="37.7793563716113567352294921875" lon="-1.45799458958208560943603515625">
        <ele>189.1999969482421875</ele>
        <time>2019-10-26T10:30:20.000Z</time>
      </trkpt>
      <trkpt lat="37.77925805188715457916259765625" lon="-1.458185277879238128662109375">
        <ele>189</ele>
        <time>2019-10-26T10:30:24.000Z</time>
      </trkpt>
      <trkpt lat="37.7791598998010158538818359375" lon="-1.45838485099375247955322265625">
        <ele>188.8000030517578125</ele>
        <time>2019-10-26T10:30:28.000Z</time>
      </trkpt>
      <trkpt lat="37.779061160981655120849609375" lon="-1.45859020762145519256591796875">
        <ele>188.600006103515625</ele>
        <time>2019-10-26T10:30:32.000Z</time>
      </trkpt>
      <trkpt lat="37.77898631058633327484130859375" lon="-1.4587440155446529388427734375">
        <ele>188.399993896484375</ele>
        <time>2019-10-26T10:30:35.000Z</time>
      </trkpt>
      <trkpt lat="37.77887935750186443328857421875" lon="-1.4589508809149265289306640625">
        <ele>188.1999969482421875</ele>
        <time>2019-10-26T10:30:39.000Z</time>
      </trkpt>
      <trkpt lat="37.7787756733596324920654296875" lon="-1.45916067995131015777587890625">
        <ele>188.1999969482421875</ele>
        <time>2019-10-26T10:30:43.000Z</time>
      </trkpt>
      <trkpt lat="37.77867366559803485870361328125" lon="-1.459370143711566925048828125">
        <ele>188.1999969482421875</ele>
        <time>2019-10-26T10:30:47.000Z</time>
      </trkpt>
      <trkpt lat="37.77857073582708835601806640625" lon="-1.4595681242644786834716796875">
        <ele>188.1999969482421875</ele>
        <time>2019-10-26T10:30:51.000Z</time>
      </trkpt>
      <trkpt lat="37.77847115881741046905517578125" lon="-1.45977373234927654266357421875">
        <ele>188.1999969482421875</ele>
        <time>2019-10-26T10:30:55.000Z</time>
      </trkpt>
      <trkpt lat="37.7783777005970478057861328125" lon="-1.45998470485210418701171875">
        <ele>188.399993896484375</ele>
        <time>2019-10-26T10:30:59.000Z</time>
      </trkpt>
      <trkpt lat="37.7782908640801906585693359375" lon="-1.46018394269049167633056640625">
        <ele>189</ele>
        <time>2019-10-26T10:31:03.000Z</time>
      </trkpt>
      <trkpt lat="37.77819707058370113372802734375" lon="-1.4604093320667743682861328125">
        <ele>189.8000030517578125</ele>
        <time>2019-10-26T10:31:08.000Z</time>
      </trkpt>
      <trkpt lat="37.77809229679405689239501953125" lon="-1.46064226515591144561767578125">
        <ele>190.600006103515625</ele>
        <time>2019-10-26T10:31:14.000Z</time>
      </trkpt>
      <trkpt lat="37.778041251003742218017578125" lon="-1.46077922545373439788818359375">
        <ele>190.8000030517578125</ele>
        <time>2019-10-26T10:31:18.000Z</time>
      </trkpt>
      <trkpt lat="37.7780259959399700164794921875" lon="-1.46084628067910671234130859375">
        <ele>190.8000030517578125</ele>
        <time>2019-10-26T10:31:22.000Z</time>
      </trkpt>
      <trkpt lat="37.77794762514531612396240234375" lon="-1.46104258485138416290283203125">
        <ele>191</ele>
        <time>2019-10-26T10:31:45.000Z</time>
      </trkpt>
      <trkpt lat="37.77786363847553730010986328125" lon="-1.46124408580362796783447265625">
        <ele>191.399993896484375</ele>
        <time>2019-10-26T10:31:50.000Z</time>
      </trkpt>
      <trkpt lat="37.7777765505015850067138671875" lon="-1.46144776605069637298583984375">
        <ele>191.600006103515625</ele>
        <time>2019-10-26T10:31:55.000Z</time>
      </trkpt>
      <trkpt lat="37.77766716666519641876220703125" lon="-1.4616813696920871734619140625">
        <ele>191.8000030517578125</ele>
        <time>2019-10-26T10:32:00.000Z</time>
      </trkpt>
      <trkpt lat="37.7775609679520130157470703125" lon="-1.4619227685034275054931640625">
        <ele>192</ele>
        <time>2019-10-26T10:32:05.000Z</time>
      </trkpt>
      <trkpt lat="37.77745594270527362823486328125" lon="-1.4621618203818798065185546875">
        <ele>192</ele>
        <time>2019-10-26T10:32:10.000Z</time>
      </trkpt>
      <trkpt lat="37.7773676812648773193359375" lon="-1.46236675791442394256591796875">
        <ele>192</ele>
        <time>2019-10-26T10:32:14.000Z</time>
      </trkpt>
      <trkpt lat="37.77727573178708553314208984375" lon="-1.46256909705698490142822265625">
        <ele>192.600006103515625</ele>
        <time>2019-10-26T10:32:18.000Z</time>
      </trkpt>
      <trkpt lat="37.7771857939660549163818359375" lon="-1.46277629770338535308837890625">
        <ele>193</ele>
        <time>2019-10-26T10:32:22.000Z</time>
      </trkpt>
      <trkpt lat="37.77709853835403919219970703125" lon="-1.46297863684594631195068359375">
        <ele>193.399993896484375</ele>
        <time>2019-10-26T10:32:26.000Z</time>
      </trkpt>
      <trkpt lat="37.77701027691364288330078125" lon="-1.4631803892552852630615234375">
        <ele>193.600006103515625</ele>
        <time>2019-10-26T10:32:30.000Z</time>
      </trkpt>
      <trkpt lat="37.776920087635517120361328125" lon="-1.46337979473173618316650390625">
        <ele>194</ele>
        <time>2019-10-26T10:32:34.000Z</time>
      </trkpt>
      <trkpt lat="37.77689837850630283355712890625" lon="-1.463426649570465087890625">
        <ele>194</ele>
        <time>2019-10-26T10:32:35.000Z</time>
      </trkpt>
      <trkpt lat="37.7768017351627349853515625" lon="-1.463629491627216339111328125">
        <ele>194.399993896484375</ele>
        <time>2019-10-26T10:32:39.000Z</time>
      </trkpt>
      <trkpt lat="37.776690758764743804931640625" lon="-1.46385219879448413848876953125">
        <ele>194.8000030517578125</ele>
        <time>2019-10-26T10:32:44.000Z</time>
      </trkpt>
      <trkpt lat="37.776604928076267242431640625" lon="-1.46405453793704509735107421875">
        <ele>195</ele>
        <time>2019-10-26T10:32:48.000Z</time>
      </trkpt>
      <trkpt lat="37.776509039103984832763671875" lon="-1.4642757363617420196533203125">
        <ele>194.8000030517578125</ele>
        <time>2019-10-26T10:32:52.000Z</time>
      </trkpt>
      <trkpt lat="37.77640753425657749176025390625" lon="-1.464490480720996856689453125">
        <ele>194.8000030517578125</ele>
        <time>2019-10-26T10:32:56.000Z</time>
      </trkpt>
      <trkpt lat="37.77629504911601543426513671875" lon="-1.46469441242516040802001953125">
        <ele>194.8000030517578125</ele>
        <time>2019-10-26T10:33:00.000Z</time>
      </trkpt>
      <trkpt lat="37.77618222869932651519775390625" lon="-1.46487034857273101806640625">
        <ele>194.8000030517578125</ele>
        <time>2019-10-26T10:33:04.000Z</time>
      </trkpt>
      <trkpt lat="37.77603956870734691619873046875" lon="-1.4650358073413372039794921875">
        <ele>194.600006103515625</ele>
        <time>2019-10-26T10:33:09.000Z</time>
      </trkpt>
      <trkpt lat="37.77587729506194591522216796875" lon="-1.46520855836570262908935546875">
        <ele>194.399993896484375</ele>
        <time>2019-10-26T10:33:15.000Z</time>
      </trkpt>
      <trkpt lat="37.77573966421186923980712890625" lon="-1.46535121835768222808837890625">
        <ele>194.8000030517578125</ele>
        <time>2019-10-26T10:33:20.000Z</time>
      </trkpt>
      <trkpt lat="37.77564503252506256103515625" lon="-1.4655460976064205169677734375">
        <ele>195.1999969482421875</ele>
        <time>2019-10-26T10:33:25.000Z</time>
      </trkpt>
      <trkpt lat="37.77546289376914501190185546875" lon="-1.46567023359239101409912109375">
        <ele>195.600006103515625</ele>
        <time>2019-10-26T10:33:30.000Z</time>
      </trkpt>
      <trkpt lat="37.77537186630070209503173828125" lon="-1.4656721614301204681396484375">
        <ele>195.600006103515625</ele>
        <time>2019-10-26T10:33:32.000Z</time>
      </trkpt>
      <trkpt lat="37.7753253467381000518798828125" lon="-1.465680040419101715087890625">
        <ele>195.8000030517578125</ele>
        <time>2019-10-26T10:33:33.000Z</time>
      </trkpt>
      <trkpt lat="37.7751360833644866943359375" lon="-1.4657982252538204193115234375">
        <ele>196.399993896484375</ele>
        <time>2019-10-26T10:33:37.000Z</time>
      </trkpt>
      <trkpt lat="37.7749644219875335693359375" lon="-1.46596603095531463623046875">
        <ele>197</ele>
        <time>2019-10-26T10:33:41.000Z</time>
      </trkpt>
      <trkpt lat="37.7748237736523151397705078125" lon="-1.46614615805447101593017578125">
        <ele>197.399993896484375</ele>
        <time>2019-10-26T10:33:45.000Z</time>
      </trkpt>
      <trkpt lat="37.7747094444930553436279296875" lon="-1.466335169970989227294921875">
        <ele>198</ele>
        <time>2019-10-26T10:33:49.000Z</time>
      </trkpt>
      <trkpt lat="37.77459804899990558624267578125" lon="-1.4665757305920124053955078125">
        <ele>198.399993896484375</ele>
        <time>2019-10-26T10:33:54.000Z</time>
      </trkpt>
      <trkpt lat="37.77456100098788738250732421875" lon="-1.466674469411373138427734375">
        <ele>198.399993896484375</ele>
        <time>2019-10-26T10:33:56.000Z</time>
      </trkpt>
      <trkpt lat="37.77450216002762317657470703125" lon="-1.46688845939934253692626953125">
        <ele>198.399993896484375</ele>
        <time>2019-10-26T10:34:00.000Z</time>
      </trkpt>
      <trkpt lat="37.77440459467470645904541015625" lon="-1.4670806564390659332275390625">
        <ele>198.1999969482421875</ele>
        <time>2019-10-26T10:34:04.000Z</time>
      </trkpt>
      <trkpt lat="37.7742863260209560394287109375" lon="-1.4672523178160190582275390625">
        <ele>198</ele>
        <time>2019-10-26T10:34:08.000Z</time>
      </trkpt>
      <trkpt lat="37.77412765659391880035400390625" lon="-1.4674494601786136627197265625">
        <ele>197.8000030517578125</ele>
        <time>2019-10-26T10:34:13.000Z</time>
      </trkpt>
      <trkpt lat="37.77399790473282337188720703125" lon="-1.467628665268421173095703125">
        <ele>197.600006103515625</ele>
        <time>2019-10-26T10:34:17.000Z</time>
      </trkpt>
      <trkpt lat="37.77387368492782115936279296875" lon="-1.467823125422000885009765625">
        <ele>197.1999969482421875</ele>
        <time>2019-10-26T10:34:21.000Z</time>
      </trkpt>
      <trkpt lat="37.77374627999961376190185546875" lon="-1.46800476126372814178466796875">
        <ele>197</ele>
        <time>2019-10-26T10:34:25.000Z</time>
      </trkpt>
      <trkpt lat="37.77360512875020503997802734375" lon="-1.46814926527440547943115234375">
        <ele>196.8000030517578125</ele>
        <time>2019-10-26T10:34:29.000Z</time>
      </trkpt>
      <trkpt lat="37.7734692580997943878173828125" lon="-1.4682640135288238525390625">
        <ele>196.8000030517578125</ele>
        <time>2019-10-26T10:34:33.000Z</time>
      </trkpt>
      <trkpt lat="37.7732828445732593536376953125" lon="-1.46839871071279048919677734375">
        <ele>197.399993896484375</ele>
        <time>2019-10-26T10:34:38.000Z</time>
      </trkpt>
      <trkpt lat="37.7731232531368732452392578125" lon="-1.46850549615919589996337890625">
        <ele>198.1999969482421875</ele>
        <time>2019-10-26T10:34:42.000Z</time>
      </trkpt>
      <trkpt lat="37.77295905165374279022216796875" lon="-1.468599624931812286376953125">
        <ele>199</ele>
        <time>2019-10-26T10:34:46.000Z</time>
      </trkpt>
      <trkpt lat="37.77287975884974002838134765625" lon="-1.46863139234483242034912109375">
        <ele>199.399993896484375</ele>
        <time>2019-10-26T10:34:48.000Z</time>
      </trkpt>
      <trkpt lat="37.7727728895843029022216796875" lon="-1.46868688054382801055908203125">
        <ele>200</ele>
        <time>2019-10-26T10:34:51.000Z</time>
      </trkpt>
      <trkpt lat="37.7725879848003387451171875" lon="-1.4688247628509998321533203125">
        <ele>201</ele>
        <time>2019-10-26T10:34:56.000Z</time>
      </trkpt>
      <trkpt lat="37.77244121767580509185791015625" lon="-1.4689625613391399383544921875">
        <ele>201</ele>
        <time>2019-10-26T10:35:00.000Z</time>
      </trkpt>
      <trkpt lat="37.7723501063883304595947265625" lon="-1.46908317692577838897705078125">
        <ele>201</ele>
        <time>2019-10-26T10:35:03.000Z</time>
      </trkpt>
      <trkpt lat="37.77228497900068759918212890625" lon="-1.46933899261057376861572265625">
        <ele>200.8000030517578125</ele>
        <time>2019-10-26T10:35:08.000Z</time>
      </trkpt>
      <trkpt lat="37.77223267592489719390869140625" lon="-1.46960972808301448822021484375">
        <ele>200.600006103515625</ele>
        <time>2019-10-26T10:35:13.000Z</time>
      </trkpt>
      <trkpt lat="37.77217961847782135009765625" lon="-1.46988348104059696197509765625">
        <ele>200.600006103515625</ele>
        <time>2019-10-26T10:35:18.000Z</time>
      </trkpt>
      <trkpt lat="37.7721120603382587432861328125" lon="-1.47009755484759807586669921875">
        <ele>200.8000030517578125</ele>
        <time>2019-10-26T10:35:22.000Z</time>
      </trkpt>
      <trkpt lat="37.7720144949853420257568359375" lon="-1.47029109299182891845703125">
        <ele>201.1999969482421875</ele>
        <time>2019-10-26T10:35:26.000Z</time>
      </trkpt>
      <trkpt lat="37.77190863154828548431396484375" lon="-1.47048329003155231475830078125">
        <ele>201.600006103515625</ele>
        <time>2019-10-26T10:35:30.000Z</time>
      </trkpt>
      <trkpt lat="37.77180536650121212005615234375" lon="-1.4706701226532459259033203125">
        <ele>201.8000030517578125</ele>
        <time>2019-10-26T10:35:34.000Z</time>
      </trkpt>
      <trkpt lat="37.77167477644979953765869140625" lon="-1.4709004573523998260498046875">
        <ele>202</ele>
        <time>2019-10-26T10:35:39.000Z</time>
      </trkpt>
      <trkpt lat="37.77157050557434558868408203125" lon="-1.47108980454504489898681640625">
        <ele>202.399993896484375</ele>
        <time>2019-10-26T10:35:43.000Z</time>
      </trkpt>
      <trkpt lat="37.7714668214321136474609375" lon="-1.47127705626189708709716796875">
        <ele>202.600006103515625</ele>
        <time>2019-10-26T10:35:47.000Z</time>
      </trkpt>
      <trkpt lat="37.77134134434163570404052734375" lon="-1.4715076424181461334228515625">
        <ele>203</ele>
        <time>2019-10-26T10:35:52.000Z</time>
      </trkpt>
      <trkpt lat="37.77132173068821430206298828125" lon="-1.47155919112265110015869140625">
        <ele>203</ele>
        <time>2019-10-26T10:35:53.000Z</time>
      </trkpt>
      <trkpt lat="37.7712758816778659820556640625" lon="-1.47172884084284305572509765625">
        <ele>203.399993896484375</ele>
        <time>2019-10-26T10:35:56.000Z</time>
      </trkpt>
      <trkpt lat="37.77126632630825042724609375" lon="-1.47178701125085353851318359375">
        <ele>203.399993896484375</ele>
        <time>2019-10-26T10:35:57.000Z</time>
      </trkpt>
      <trkpt lat="37.77125484310090541839599609375" lon="-1.47201516665518283843994140625">
        <ele>203.8000030517578125</ele>
        <time>2019-10-26T10:36:01.000Z</time>
      </trkpt>
      <trkpt lat="37.77125383727252483367919921875" lon="-1.47229428403079509735107421875">
        <ele>204</ele>
        <time>2019-10-26T10:36:06.000Z</time>
      </trkpt>
      <trkpt lat="37.77125920169055461883544921875" lon="-1.47249855101108551025390625">
        <ele>204</ele>
        <time>2019-10-26T10:36:10.000Z</time>
      </trkpt>
      <trkpt lat="37.77127571403980255126953125" lon="-1.47275495342910289764404296875">
        <ele>204</ele>
        <time>2019-10-26T10:36:15.000Z</time>
      </trkpt>
      <trkpt lat="37.77129356749355792999267578125" lon="-1.4729972742497920989990234375">
        <ele>204.399993896484375</ele>
        <time>2019-10-26T10:36:20.000Z</time>
      </trkpt>
      <trkpt lat="37.77129943482577800750732421875" lon="-1.4730968512594699859619140625">
        <ele>204.399993896484375</ele>
        <time>2019-10-26T10:36:22.000Z</time>
      </trkpt>
      <trkpt lat="37.77131368406116962432861328125" lon="-1.4733563549816608428955078125">
        <ele>205</ele>
        <time>2019-10-26T10:36:27.000Z</time>
      </trkpt>
      <trkpt lat="37.77133095078170299530029296875" lon="-1.4736165292561054229736328125">
        <ele>205.399993896484375</ele>
        <time>2019-10-26T10:36:32.000Z</time>
      </trkpt>
      <trkpt lat="37.77134788222610950469970703125" lon="-1.473884247243404388427734375">
        <ele>205.8000030517578125</ele>
        <time>2019-10-26T10:36:37.000Z</time>
      </trkpt>
      <trkpt lat="37.77136112563312053680419921875" lon="-1.4741523005068302154541015625">
        <ele>205.8000030517578125</ele>
        <time>2019-10-26T10:36:42.000Z</time>
      </trkpt>
      <trkpt lat="37.77136850170791149139404296875" lon="-1.4743177592754364013671875">
        <ele>205.8000030517578125</ele>
        <time>2019-10-26T10:36:45.000Z</time>
      </trkpt>
      <trkpt lat="37.77134218253195285797119140625" lon="-1.4745680429041385650634765625">
        <ele>206.1999969482421875</ele>
        <time>2019-10-26T10:36:50.000Z</time>
      </trkpt>
      <trkpt lat="37.77130899019539356231689453125" lon="-1.47482528351247310638427734375">
        <ele>206.399993896484375</ele>
        <time>2019-10-26T10:36:55.000Z</time>
      </trkpt>
      <trkpt lat="37.77126272208988666534423828125" lon="-1.475075818598270416259765625">
        <ele>206.8000030517578125</ele>
        <time>2019-10-26T10:37:00.000Z</time>
      </trkpt>
      <trkpt lat="37.77122248895466327667236328125" lon="-1.4753073267638683319091796875">
        <ele>207.1999969482421875</ele>
        <time>2019-10-26T10:37:05.000Z</time>
      </trkpt>
      <trkpt lat="37.7711803279817104339599609375" lon="-1.475555598735809326171875">
        <ele>208</ele>
        <time>2019-10-26T10:37:10.000Z</time>
      </trkpt>
      <trkpt lat="37.77114252559840679168701171875" lon="-1.4758008532226085662841796875">
        <ele>208.600006103515625</ele>
        <time>2019-10-26T10:37:15.000Z</time>
      </trkpt>
      <trkpt lat="37.77109223417937755584716796875" lon="-1.476062871515750885009765625">
        <ele>209.1999969482421875</ele>
        <time>2019-10-26T10:37:20.000Z</time>
      </trkpt>
      <trkpt lat="37.7710562758147716522216796875" lon="-1.47632463835179805755615234375">
        <ele>209.8000030517578125</ele>
        <time>2019-10-26T10:37:25.000Z</time>
      </trkpt>
      <trkpt lat="37.771016545593738555908203125" lon="-1.476582549512386322021484375">
        <ele>209.600006103515625</ele>
        <time>2019-10-26T10:37:30.000Z</time>
      </trkpt>
      <trkpt lat="37.7709704451262950897216796875" lon="-1.47684817202389240264892578125">
        <ele>209.8000030517578125</ele>
        <time>2019-10-26T10:37:35.000Z</time>
      </trkpt>
      <trkpt lat="37.770927362143993377685546875" lon="-1.47708873264491558074951171875">
        <ele>209.8000030517578125</ele>
        <time>2019-10-26T10:37:40.000Z</time>
      </trkpt>
      <trkpt lat="37.7708819322288036346435546875" lon="-1.47732778452336788177490234375">
        <ele>210</ele>
        <time>2019-10-26T10:37:45.000Z</time>
      </trkpt>
      <trkpt lat="37.7708192355930805206298828125" lon="-1.47757069207727909088134765625">
        <ele>209.8000030517578125</ele>
        <time>2019-10-26T10:37:50.000Z</time>
      </trkpt>
      <trkpt lat="37.7707585506141185760498046875" lon="-1.47780639119446277618408203125">
        <ele>209.600006103515625</ele>
        <time>2019-10-26T10:37:55.000Z</time>
      </trkpt>
      <trkpt lat="37.7706955187022686004638671875" lon="-1.478034965693950653076171875">
        <ele>209.399993896484375</ele>
        <time>2019-10-26T10:38:00.000Z</time>
      </trkpt>
      <trkpt lat="37.770639024674892425537109375" lon="-1.4782941341400146484375">
        <ele>209.600006103515625</ele>
        <time>2019-10-26T10:38:06.000Z</time>
      </trkpt>
      <trkpt lat="37.77056668885052204132080078125" lon="-1.4785249717533588409423828125">
        <ele>210.1999969482421875</ele>
        <time>2019-10-26T10:38:13.000Z</time>
      </trkpt>
      <trkpt lat="37.77049996890127658843994140625" lon="-1.478768885135650634765625">
        <ele>211</ele>
        <time>2019-10-26T10:38:19.000Z</time>
      </trkpt>
      <trkpt lat="37.7704085223376750946044921875" lon="-1.47898304276168346405029296875">
        <ele>211.600006103515625</ele>
        <time>2019-10-26T10:38:24.000Z</time>
      </trkpt>
      <trkpt lat="37.7703076042234897613525390625" lon="-1.47920072078704833984375">
        <ele>212.1999969482421875</ele>
        <time>2019-10-26T10:38:29.000Z</time>
      </trkpt>
      <trkpt lat="37.77020609937608242034912109375" lon="-1.47941990755498409271240234375">
        <ele>212.8000030517578125</ele>
        <time>2019-10-26T10:38:34.000Z</time>
      </trkpt>
      <trkpt lat="37.770103253424167633056640625" lon="-1.47963347844779491424560546875">
        <ele>213.399993896484375</ele>
        <time>2019-10-26T10:38:40.000Z</time>
      </trkpt>
      <trkpt lat="37.77001381851732730865478515625" lon="-1.47983564995229244232177734375">
        <ele>214</ele>
        <time>2019-10-26T10:38:45.000Z</time>
      </trkpt>
      <trkpt lat="37.769908793270587921142578125" lon="-1.48005911149084568023681640625">
        <ele>214.399993896484375</ele>
        <time>2019-10-26T10:38:50.000Z</time>
      </trkpt>
      <trkpt lat="37.7698051929473876953125" lon="-1.48028424941003322601318359375">
        <ele>214.600006103515625</ele>
        <time>2019-10-26T10:38:55.000Z</time>
      </trkpt>
      <trkpt lat="37.76970955543220043182373046875" lon="-1.48047736845910549163818359375">
        <ele>214.8000030517578125</ele>
        <time>2019-10-26T10:39:00.000Z</time>
      </trkpt>
      <trkpt lat="37.7696893550455570220947265625" lon="-1.48072949610650539398193359375">
        <ele>215</ele>
        <time>2019-10-26T10:39:06.000Z</time>
      </trkpt>
      <trkpt lat="37.76972229592502117156982421875" lon="-1.4809537120163440704345703125">
        <ele>215.399993896484375</ele>
        <time>2019-10-26T10:39:11.000Z</time>
      </trkpt>
      <trkpt lat="37.76974341832101345062255859375" lon="-1.481188572943210601806640625">
        <ele>216.1999969482421875</ele>
        <time>2019-10-26T10:39:16.000Z</time>
      </trkpt>
      <trkpt lat="37.7697631157934665679931640625" lon="-1.4814291335642337799072265625">
        <ele>217</ele>
        <time>2019-10-26T10:39:21.000Z</time>
      </trkpt>
      <trkpt lat="37.7697798795998096466064453125" lon="-1.4816691912710666656494140625">
        <ele>217.600006103515625</ele>
        <time>2019-10-26T10:39:26.000Z</time>
      </trkpt>
      <trkpt lat="37.76979236863553524017333984375" lon="-1.4819357357919216156005859375">
        <ele>218</ele>
        <time>2019-10-26T10:39:31.000Z</time>
      </trkpt>
      <trkpt lat="37.76979471556842327117919921875" lon="-1.4821838401257991790771484375">
        <ele>218.600006103515625</ele>
        <time>2019-10-26T10:39:36.000Z</time>
      </trkpt>
      <trkpt lat="37.7697879262268543243408203125" lon="-1.482418365776538848876953125">
        <ele>219.1999969482421875</ele>
        <time>2019-10-26T10:39:41.000Z</time>
      </trkpt>
      <trkpt lat="37.7697584219276905059814453125" lon="-1.4826743490993976593017578125">
        <ele>219.399993896484375</ele>
        <time>2019-10-26T10:39:47.000Z</time>
      </trkpt>
      <trkpt lat="37.76974140666425228118896484375" lon="-1.4829325117170810699462890625">
        <ele>219.8000030517578125</ele>
        <time>2019-10-26T10:39:53.000Z</time>
      </trkpt>
      <trkpt lat="37.76972011663019657135009765625" lon="-1.4831588231027126312255859375">
        <ele>220</ele>
        <time>2019-10-26T10:39:58.000Z</time>
      </trkpt>
      <trkpt lat="37.7697061188519001007080078125" lon="-1.48339946754276752471923828125">
        <ele>220.1999969482421875</ele>
        <time>2019-10-26T10:40:03.000Z</time>
      </trkpt>
      <trkpt lat="37.76966898702085018157958984375" lon="-1.483633406460285186767578125">
        <ele>220.600006103515625</ele>
        <time>2019-10-26T10:40:08.000Z</time>
      </trkpt>
      <trkpt lat="37.76963462121784687042236328125" lon="-1.48387111723423004150390625">
        <ele>220.8000030517578125</ele>
        <time>2019-10-26T10:40:13.000Z</time>
      </trkpt>
      <trkpt lat="37.769605703651905059814453125" lon="-1.48409617133438587188720703125">
        <ele>221.1999969482421875</ele>
        <time>2019-10-26T10:40:18.000Z</time>
      </trkpt>
      <trkpt lat="37.76958064176142215728759765625" lon="-1.48432516492903232574462890625">
        <ele>221.8000030517578125</ele>
        <time>2019-10-26T10:40:23.000Z</time>
      </trkpt>
      <trkpt lat="37.76954024098813533782958984375" lon="-1.4845763705670833587646484375">
        <ele>222.399993896484375</ele>
        <time>2019-10-26T10:40:29.000Z</time>
      </trkpt>
      <trkpt lat="37.7695123292505741119384765625" lon="-1.484796814620494842529296875">
        <ele>222.600006103515625</ele>
        <time>2019-10-26T10:40:39.000Z</time>
      </trkpt>
      <trkpt lat="37.76951375417411327362060546875" lon="-1.4848231337964534759521484375">
        <ele>222.600006103515625</ele>
        <time>2019-10-26T10:42:41.000Z</time>
      </trkpt>
      <trkpt lat="37.769515179097652435302734375" lon="-1.48504567332565784454345703125">
        <ele>223.1999969482421875</ele>
        <time>2019-10-26T10:42:59.000Z</time>
      </trkpt>
      <trkpt lat="37.7694618701934814453125" lon="-1.48529143072664737701416015625">
        <ele>223.8000030517578125</ele>
        <time>2019-10-26T10:43:06.000Z</time>
      </trkpt>
      <trkpt lat="37.7693668194115161895751953125" lon="-1.48550483398139476776123046875">
        <ele>224.399993896484375</ele>
        <time>2019-10-26T10:43:12.000Z</time>
      </trkpt>
      <trkpt lat="37.76925332844257354736328125" lon="-1.48568403907120227813720703125">
        <ele>225</ele>
        <time>2019-10-26T10:43:17.000Z</time>
      </trkpt>
      <trkpt lat="37.769121229648590087890625" lon="-1.4858968555927276611328125">
        <ele>225.1999969482421875</ele>
        <time>2019-10-26T10:43:23.000Z</time>
      </trkpt>
      <trkpt lat="37.76900530792772769927978515625" lon="-1.48607698269188404083251953125">
        <ele>225.1999969482421875</ele>
        <time>2019-10-26T10:43:28.000Z</time>
      </trkpt>
      <trkpt lat="37.768864072859287261962890625" lon="-1.48627781309187412261962890625">
        <ele>225.1999969482421875</ele>
        <time>2019-10-26T10:43:33.000Z</time>
      </trkpt>
      <trkpt lat="37.768735997378826141357421875" lon="-1.48647562600672245025634765625">
        <ele>225.1999969482421875</ele>
        <time>2019-10-26T10:43:37.000Z</time>
      </trkpt>
      <trkpt lat="37.76869098655879497528076171875" lon="-1.48655466735363006591796875">
        <ele>225.1999969482421875</ele>
        <time>2019-10-26T10:43:39.000Z</time>
      </trkpt>
      <trkpt lat="37.7685861289501190185546875" lon="-1.486758179962635040283203125">
        <ele>224.8000030517578125</ele>
        <time>2019-10-26T10:43:45.000Z</time>
      </trkpt>
      <trkpt lat="37.76845864020287990570068359375" lon="-1.4869742654263973236083984375">
        <ele>224.1999969482421875</ele>
        <time>2019-10-26T10:43:51.000Z</time>
      </trkpt>
      <trkpt lat="37.76832704432308673858642578125" lon="-1.487179957330226898193359375">
        <ele>224.1999969482421875</ele>
        <time>2019-10-26T10:43:57.000Z</time>
      </trkpt>
      <trkpt lat="37.768196202814579010009765625" lon="-1.4873890019953250885009765625">
        <ele>224.600006103515625</ele>
        <time>2019-10-26T10:44:03.000Z</time>
      </trkpt>
      <trkpt lat="37.7680766768753528594970703125" lon="-1.48757449351251125335693359375">
        <ele>225.399993896484375</ele>
        <time>2019-10-26T10:44:08.000Z</time>
      </trkpt>
      <trkpt lat="37.76796142570674419403076171875" lon="-1.487764678895473480224609375">
        <ele>226</ele>
        <time>2019-10-26T10:44:13.000Z</time>
      </trkpt>
      <trkpt lat="37.7678453363478183746337890625" lon="-1.48794849403202533721923828125">
        <ele>226.8000030517578125</ele>
        <time>2019-10-26T10:44:18.000Z</time>
      </trkpt>
      <trkpt lat="37.7677360363304615020751953125" lon="-1.488134823739528656005859375">
        <ele>227.399993896484375</ele>
        <time>2019-10-26T10:44:23.000Z</time>
      </trkpt>
      <trkpt lat="37.76760754175484180450439453125" lon="-1.48834613151848316192626953125">
        <ele>228</ele>
        <time>2019-10-26T10:44:29.000Z</time>
      </trkpt>
      <trkpt lat="37.7674909494817256927490234375" lon="-1.488540172576904296875">
        <ele>228.399993896484375</ele>
        <time>2019-10-26T10:44:34.000Z</time>
      </trkpt>
      <trkpt lat="37.7673645503818988800048828125" lon="-1.4887408353388309478759765625">
        <ele>228.399993896484375</ele>
        <time>2019-10-26T10:44:39.000Z</time>
      </trkpt>
      <trkpt lat="37.76723840273916721343994140625" lon="-1.4889363013207912445068359375">
        <ele>228.600006103515625</ele>
        <time>2019-10-26T10:44:44.000Z</time>
      </trkpt>
      <trkpt lat="37.767061628401279449462890625" lon="-1.489053480327129364013671875">
        <ele>228.399993896484375</ele>
        <time>2019-10-26T10:44:49.000Z</time>
      </trkpt>
      <trkpt lat="37.766856439411640167236328125" lon="-1.48900008760392665863037109375">
        <ele>228.1999969482421875</ele>
        <time>2019-10-26T10:44:54.000Z</time>
      </trkpt>
      <trkpt lat="37.766717970371246337890625" lon="-1.48882591165602207183837890625">
        <ele>227.8000030517578125</ele>
        <time>2019-10-26T10:44:58.000Z</time>
      </trkpt>
      <trkpt lat="37.76658545248210430145263671875" lon="-1.488620974123477935791015625">
        <ele>227.399993896484375</ele>
        <time>2019-10-26T10:45:02.000Z</time>
      </trkpt>
      <trkpt lat="37.7664596401154994964599609375" lon="-1.4884032122790813446044921875">
        <ele>227</ele>
        <time>2019-10-26T10:45:06.000Z</time>
      </trkpt>
      <trkpt lat="37.7663976140320301055908203125" lon="-1.48829952813684940338134765625">
        <ele>226.8000030517578125</ele>
        <time>2019-10-26T10:45:08.000Z</time>
      </trkpt>
      <trkpt lat="37.7663489989936351776123046875" lon="-1.48821889422833919525146484375">
        <ele>226.600006103515625</ele>
        <time>2019-10-26T10:45:10.000Z</time>
      </trkpt>
      <trkpt lat="37.7662846259772777557373046875" lon="-1.48833489976823329925537109375">
        <ele>226.600006103515625</ele>
        <time>2019-10-26T10:45:17.000Z</time>
      </trkpt>
      <trkpt lat="37.7663446404039859771728515625" lon="-1.48848325945436954498291015625">
        <ele>227</ele>
        <time>2019-10-26T10:45:21.000Z</time>
      </trkpt>
      <trkpt lat="37.76642871089279651641845703125" lon="-1.4886895380914211273193359375">
        <ele>227.1999969482421875</ele>
        <time>2019-10-26T10:45:26.000Z</time>
      </trkpt>
      <trkpt lat="37.76653449051082134246826171875" lon="-1.48892180062830448150634765625">
        <ele>227.600006103515625</ele>
        <time>2019-10-26T10:45:32.000Z</time>
      </trkpt>
      <trkpt lat="37.76663909666240215301513671875" lon="-1.4891525544226169586181640625">
        <ele>228.1999969482421875</ele>
        <time>2019-10-26T10:45:38.000Z</time>
      </trkpt>
      <trkpt lat="37.76675485074520111083984375" lon="-1.48938213475048542022705078125">
        <ele>228.600006103515625</ele>
        <time>2019-10-26T10:45:44.000Z</time>
      </trkpt>
      <trkpt lat="37.7668358199298381805419921875" lon="-1.48958749137818813323974609375">
        <ele>228.8000030517578125</ele>
        <time>2019-10-26T10:45:49.000Z</time>
      </trkpt>
      <trkpt lat="37.76676013134419918060302734375" lon="-1.4898127131164073944091796875">
        <ele>229</ele>
        <time>2019-10-26T10:45:54.000Z</time>
      </trkpt>
      <trkpt lat="37.76661177165806293487548828125" lon="-1.49001563899219036102294921875">
        <ele>229</ele>
        <time>2019-10-26T10:45:59.000Z</time>
      </trkpt>
      <trkpt lat="37.76650263927876949310302734375" lon="-1.4901288785040378570556640625">
        <ele>229.1999969482421875</ele>
        <time>2019-10-26T10:46:02.000Z</time>
      </trkpt>
      <trkpt lat="37.7663174830377101898193359375" lon="-1.49020423181354999542236328125">
        <ele>229.399993896484375</ele>
        <time>2019-10-26T10:46:06.000Z</time>
      </trkpt>
      <trkpt lat="37.766129560768604278564453125" lon="-1.4902264438569545745849609375">
        <ele>229.399993896484375</ele>
        <time>2019-10-26T10:46:10.000Z</time>
      </trkpt>
      <trkpt lat="37.76595144532620906829833984375" lon="-1.49027497507631778717041015625">
        <ele>229.600006103515625</ele>
        <time>2019-10-26T10:46:14.000Z</time>
      </trkpt>
      <trkpt lat="37.7657974697649478912353515625" lon="-1.49037119932472705841064453125">
        <ele>229.600006103515625</ele>
        <time>2019-10-26T10:46:18.000Z</time>
      </trkpt>
      <trkpt lat="37.765616588294506072998046875" lon="-1.49052626453340053558349609375">
        <ele>229.8000030517578125</ele>
        <time>2019-10-26T10:46:23.000Z</time>
      </trkpt>
      <trkpt lat="37.76544266380369663238525390625" lon="-1.49067990481853485107421875">
        <ele>230</ele>
        <time>2019-10-26T10:46:28.000Z</time>
      </trkpt>
      <trkpt lat="37.76527117006480693817138671875" lon="-1.49083807133138179779052734375">
        <ele>230</ele>
        <time>2019-10-26T10:46:33.000Z</time>
      </trkpt>
      <trkpt lat="37.7650917135179042816162109375" lon="-1.4909845031797885894775390625">
        <ele>230</ele>
        <time>2019-10-26T10:46:38.000Z</time>
      </trkpt>
      <trkpt lat="37.764913178980350494384765625" lon="-1.49107276462018489837646484375">
        <ele>229.600006103515625</ele>
        <time>2019-10-26T10:46:42.000Z</time>
      </trkpt>
      <trkpt lat="37.7648095786571502685546875" lon="-1.49110310710966587066650390625">
        <ele>229.399993896484375</ele>
        <time>2019-10-26T10:46:44.000Z</time>
      </trkpt>
      <trkpt lat="37.76459835469722747802734375" lon="-1.4911243133246898651123046875">
        <ele>229</ele>
        <time>2019-10-26T10:46:49.000Z</time>
      </trkpt>
      <trkpt lat="37.76446918956935405731201171875" lon="-1.4911571703851222991943359375">
        <ele>228.8000030517578125</ele>
        <time>2019-10-26T10:46:52.000Z</time>
      </trkpt>
      <trkpt lat="37.76432351209223270416259765625" lon="-1.49129421450197696685791015625">
        <ele>228.399993896484375</ele>
        <time>2019-10-26T10:46:56.000Z</time>
      </trkpt>
      <trkpt lat="37.764227204024791717529296875" lon="-1.4914374612271785736083984375">
        <ele>228</ele>
        <time>2019-10-26T10:46:59.000Z</time>
      </trkpt>
      <trkpt lat="37.7641053311526775360107421875" lon="-1.49164441041648387908935546875">
        <ele>228.1999969482421875</ele>
        <time>2019-10-26T10:47:03.000Z</time>
      </trkpt>
      <trkpt lat="37.7639819495379924774169921875" lon="-1.491832248866558074951171875">
        <ele>228.600006103515625</ele>
        <time>2019-10-26T10:47:07.000Z</time>
      </trkpt>
      <trkpt lat="37.76385177858173847198486328125" lon="-1.492030061781406402587890625">
        <ele>228.8000030517578125</ele>
        <time>2019-10-26T10:47:12.000Z</time>
      </trkpt>
      <trkpt lat="37.76372219435870647430419921875" lon="-1.492230556905269622802734375">
        <ele>229.1999969482421875</ele>
        <time>2019-10-26T10:47:18.000Z</time>
      </trkpt>
      <trkpt lat="37.7636991441249847412109375" lon="-1.49226735346019268035888671875">
        <ele>229.1999969482421875</ele>
        <time>2019-10-26T10:47:19.000Z</time>
      </trkpt>
      <trkpt lat="37.763591520488262176513671875" lon="-1.49242996238172054290771484375">
        <ele>229</ele>
        <time>2019-10-26T10:47:24.000Z</time>
      </trkpt>
      <trkpt lat="37.76355807669460773468017578125" lon="-1.4924781583249568939208984375">
        <ele>228.8000030517578125</ele>
        <time>2019-10-26T10:47:27.000Z</time>
      </trkpt>
      <trkpt lat="37.76354684494435787200927734375" lon="-1.49250573478639125823974609375">
        <ele>228.8000030517578125</ele>
        <time>2019-10-26T10:47:30.000Z</time>
      </trkpt>
      <trkpt lat="37.7634156681597232818603515625" lon="-1.4927058108150959014892578125">
        <ele>228.1999969482421875</ele>
        <time>2019-10-26T10:47:37.000Z</time>
      </trkpt>
      <trkpt lat="37.76335322298109531402587890625" lon="-1.49297897703945636749267578125">
        <ele>227.399993896484375</ele>
        <time>2019-10-26T10:47:42.000Z</time>
      </trkpt>
      <trkpt lat="37.7633174322545528411865234375" lon="-1.49321551434695720672607421875">
        <ele>227</ele>
        <time>2019-10-26T10:47:46.000Z</time>
      </trkpt>
      <trkpt lat="37.76328541338443756103515625" lon="-1.493459679186344146728515625">
        <ele>226.8000030517578125</ele>
        <time>2019-10-26T10:47:50.000Z</time>
      </trkpt>
      <trkpt lat="37.76325498707592487335205078125" lon="-1.4937181770801544189453125">
        <ele>226.8000030517578125</ele>
        <time>2019-10-26T10:47:54.000Z</time>
      </trkpt>
      <trkpt lat="37.76321995072066783905029296875" lon="-1.49398966692388057708740234375">
        <ele>226.8000030517578125</ele>
        <time>2019-10-26T10:47:58.000Z</time>
      </trkpt>
      <trkpt lat="37.76317887939512729644775390625" lon="-1.49424095638096332550048828125">
        <ele>226.600006103515625</ele>
        <time>2019-10-26T10:48:02.000Z</time>
      </trkpt>
      <trkpt lat="37.76313730515539646148681640625" lon="-1.49448872543871402740478515625">
        <ele>226.8000030517578125</ele>
        <time>2019-10-26T10:48:06.000Z</time>
      </trkpt>
      <trkpt lat="37.763098664581775665283203125" lon="-1.49472660385072231292724609375">
        <ele>226.8000030517578125</ele>
        <time>2019-10-26T10:48:10.000Z</time>
      </trkpt>
      <trkpt lat="37.76306253857910633087158203125" lon="-1.49491335265338420867919921875">
        <ele>227</ele>
        <time>2019-10-26T10:48:13.000Z</time>
      </trkpt>
      <trkpt lat="37.763020880520343780517578125" lon="-1.49517402984201908111572265625">
        <ele>227.1999969482421875</ele>
        <time>2019-10-26T10:48:17.000Z</time>
      </trkpt>
      <trkpt lat="37.76293697766959667205810546875" lon="-1.495427750051021575927734375">
        <ele>227.399993896484375</ele>
        <time>2019-10-26T10:48:21.000Z</time>
      </trkpt>
      <trkpt lat="37.76280521415174007415771484375" lon="-1.49566068314015865325927734375">
        <ele>227.1999969482421875</ele>
        <time>2019-10-26T10:48:25.000Z</time>
      </trkpt>
      <trkpt lat="37.76265911757946014404296875" lon="-1.49588883854448795318603515625">
        <ele>227.399993896484375</ele>
        <time>2019-10-26T10:48:29.000Z</time>
      </trkpt>
      <trkpt lat="37.7625151164829730987548828125" lon="-1.4961142279207706451416015625">
        <ele>227.399993896484375</ele>
        <time>2019-10-26T10:48:33.000Z</time>
      </trkpt>
      <trkpt lat="37.762367427349090576171875" lon="-1.49634204804897308349609375">
        <ele>227.600006103515625</ele>
        <time>2019-10-26T10:48:37.000Z</time>
      </trkpt>
      <trkpt lat="37.76222527027130126953125" lon="-1.49657414294779300689697265625">
        <ele>227.600006103515625</ele>
        <time>2019-10-26T10:48:41.000Z</time>
      </trkpt>
      <trkpt lat="37.76208302937448024749755859375" lon="-1.4968109317123889923095703125">
        <ele>227.1999969482421875</ele>
        <time>2019-10-26T10:48:45.000Z</time>
      </trkpt>
      <trkpt lat="37.76192997582256793975830078125" lon="-1.497037410736083984375">
        <ele>226.8000030517578125</ele>
        <time>2019-10-26T10:48:49.000Z</time>
      </trkpt>
      <trkpt lat="37.761785723268985748291015625" lon="-1.49726816453039646148681640625">
        <ele>226.1999969482421875</ele>
        <time>2019-10-26T10:48:53.000Z</time>
      </trkpt>
      <trkpt lat="37.76164063252508640289306640625" lon="-1.49749916978180408477783203125">
        <ele>226.1999969482421875</ele>
        <time>2019-10-26T10:48:57.000Z</time>
      </trkpt>
      <trkpt lat="37.7614874951541423797607421875" lon="-1.4977218769490718841552734375">
        <ele>226.1999969482421875</ele>
        <time>2019-10-26T10:49:01.000Z</time>
      </trkpt>
      <trkpt lat="37.7613621018826961517333984375" lon="-1.4978861622512340545654296875">
        <ele>226.1999969482421875</ele>
        <time>2019-10-26T10:49:04.000Z</time>
      </trkpt>
      <trkpt lat="37.7612313441932201385498046875" lon="-1.49805002845823764801025390625">
        <ele>226.1999969482421875</ele>
        <time>2019-10-26T10:49:07.000Z</time>
      </trkpt>
      <trkpt lat="37.761089690029621124267578125" lon="-1.49820341728627681732177734375">
        <ele>226.399993896484375</ele>
        <time>2019-10-26T10:49:10.000Z</time>
      </trkpt>
      <trkpt lat="37.761041410267353057861328125" lon="-1.49825714528560638427734375">
        <ele>226.399993896484375</ele>
        <time>2019-10-26T10:49:11.000Z</time>
      </trkpt>
      <trkpt lat="37.760897241532802581787109375" lon="-1.4984172396361827850341796875">
        <ele>226.399993896484375</ele>
        <time>2019-10-26T10:49:14.000Z</time>
      </trkpt>
      <trkpt lat="37.76085197925567626953125" lon="-1.49847247637808322906494140625">
        <ele>226.399993896484375</ele>
        <time>2019-10-26T10:49:15.000Z</time>
      </trkpt>
      <trkpt lat="37.7607277594506740570068359375" lon="-1.49863927625119686126708984375">
        <ele>226.1999969482421875</ele>
        <time>2019-10-26T10:49:18.000Z</time>
      </trkpt>
      <trkpt lat="37.76059926487505435943603515625" lon="-1.49887329898774623870849609375">
        <ele>226.1999969482421875</ele>
        <time>2019-10-26T10:49:22.000Z</time>
      </trkpt>
      <trkpt lat="37.76054796762764453887939453125" lon="-1.498993746936321258544921875">
        <ele>226.1999969482421875</ele>
        <time>2019-10-26T10:49:24.000Z</time>
      </trkpt>
      <trkpt lat="37.760457694530487060546875" lon="-1.4992195554077625274658203125">
        <ele>226.600006103515625</ele>
        <time>2019-10-26T10:49:28.000Z</time>
      </trkpt>
      <trkpt lat="37.760366834700107574462890625" lon="-1.49943958036601543426513671875">
        <ele>226.8000030517578125</ele>
        <time>2019-10-26T10:49:32.000Z</time>
      </trkpt>
      <trkpt lat="37.76026248000562191009521484375" lon="-1.49967511184513568878173828125">
        <ele>227</ele>
        <time>2019-10-26T10:49:37.000Z</time>
      </trkpt>
      <trkpt lat="37.76016944088041782379150390625" lon="-1.49989237077534198760986328125">
        <ele>227.1999969482421875</ele>
        <time>2019-10-26T10:49:42.000Z</time>
      </trkpt>
      <trkpt lat="37.76009836234152317047119140625" lon="-1.50002078153192996978759765625">
        <ele>227.1999969482421875</ele>
        <time>2019-10-26T10:49:45.000Z</time>
      </trkpt>
      <trkpt lat="37.7600035630166530609130859375" lon="-1.50014265440404415130615234375">
        <ele>227.399993896484375</ele>
        <time>2019-10-26T10:49:48.000Z</time>
      </trkpt>
      <trkpt lat="37.75983248837292194366455078125" lon="-1.50021809153258800506591796875">
        <ele>227.399993896484375</ele>
        <time>2019-10-26T10:49:52.000Z</time>
      </trkpt>
      <trkpt lat="37.75963081978261470794677734375" lon="-1.50024189613759517669677734375">
        <ele>227.399993896484375</ele>
        <time>2019-10-26T10:49:56.000Z</time>
      </trkpt>
      <trkpt lat="37.75952504016458988189697265625" lon="-1.50023485533893108367919921875">
        <ele>227.399993896484375</ele>
        <time>2019-10-26T10:49:58.000Z</time>
      </trkpt>
      <trkpt lat="37.759308703243732452392578125" lon="-1.500204093754291534423828125">
        <ele>227</ele>
        <time>2019-10-26T10:50:02.000Z</time>
      </trkpt>
      <trkpt lat="37.75909001938998699188232421875" lon="-1.50016997940838336944580078125">
        <ele>226.399993896484375</ele>
        <time>2019-10-26T10:50:06.000Z</time>
      </trkpt>
      <trkpt lat="37.7589393965899944305419921875" lon="-1.5001367032527923583984375">
        <ele>225.8000030517578125</ele>
        <time>2019-10-26T10:50:09.000Z</time>
      </trkpt>
      <trkpt lat="37.758805453777313232421875" lon="-1.5001388825476169586181640625">
        <ele>225.1999969482421875</ele>
        <time>2019-10-26T10:50:12.000Z</time>
      </trkpt>
      <trkpt lat="37.75864158757030963897705078125" lon="-1.50029101409018039703369140625">
        <ele>225</ele>
        <time>2019-10-26T10:50:17.000Z</time>
      </trkpt>
      <trkpt lat="37.75849222205579280853271484375" lon="-1.50044716894626617431640625">
        <ele>224.8000030517578125</ele>
        <time>2019-10-26T10:50:22.000Z</time>
      </trkpt>
      <trkpt lat="37.758318297564983367919921875" lon="-1.5004074387252330780029296875">
        <ele>224</ele>
        <time>2019-10-26T10:50:27.000Z</time>
      </trkpt>
      <trkpt lat="37.75825493037700653076171875" lon="-1.50032789446413516998291015625">
        <ele>223.600006103515625</ele>
        <time>2019-10-26T10:50:29.000Z</time>
      </trkpt>
      <trkpt lat="37.7582222409546375274658203125" lon="-1.50029721669852733612060546875">
        <ele>223.399993896484375</ele>
        <time>2019-10-26T10:50:30.000Z</time>
      </trkpt>
      <trkpt lat="37.75804102420806884765625" lon="-1.5003727376461029052734375">
        <ele>222.600006103515625</ele>
        <time>2019-10-26T10:50:35.000Z</time>
      </trkpt>
      <trkpt lat="37.75800137780606746673583984375" lon="-1.5004030801355838775634765625">
        <ele>222.600006103515625</ele>
        <time>2019-10-26T10:50:36.000Z</time>
      </trkpt>
      <trkpt lat="37.757825441658496856689453125" lon="-1.500527299940586090087890625">
        <ele>222</ele>
        <time>2019-10-26T10:50:40.000Z</time>
      </trkpt>
      <trkpt lat="37.7576499246060848236083984375" lon="-1.50069787167012691497802734375">
        <ele>221.600006103515625</ele>
        <time>2019-10-26T10:50:44.000Z</time>
      </trkpt>
      <trkpt lat="37.75746543891727924346923828125" lon="-1.50087858550250530242919921875">
        <ele>221</ele>
        <time>2019-10-26T10:50:48.000Z</time>
      </trkpt>
      <trkpt lat="37.75727751664817333221435546875" lon="-1.50105468928813934326171875">
        <ele>221</ele>
        <time>2019-10-26T10:50:52.000Z</time>
      </trkpt>
      <trkpt lat="37.75709931738674640655517578125" lon="-1.50123364292085170745849609375">
        <ele>221</ele>
        <time>2019-10-26T10:50:56.000Z</time>
      </trkpt>
      <trkpt lat="37.7569200284779071807861328125" lon="-1.5014107525348663330078125">
        <ele>221</ele>
        <time>2019-10-26T10:51:00.000Z</time>
      </trkpt>
      <trkpt lat="37.7567406557500362396240234375" lon="-1.50158434174954891204833984375">
        <ele>221.1999969482421875</ele>
        <time>2019-10-26T10:51:04.000Z</time>
      </trkpt>
      <trkpt lat="37.756552733480930328369140625" lon="-1.50173337198793888092041015625">
        <ele>221</ele>
        <time>2019-10-26T10:51:08.000Z</time>
      </trkpt>
      <trkpt lat="37.75636305101215839385986328125" lon="-1.50188659317791461944580078125">
        <ele>220.600006103515625</ele>
        <time>2019-10-26T10:51:12.000Z</time>
      </trkpt>
      <trkpt lat="37.75616641156375408172607421875" lon="-1.50202489458024501800537109375">
        <ele>220.399993896484375</ele>
        <time>2019-10-26T10:51:16.000Z</time>
      </trkpt>
      <trkpt lat="37.75597966276109218597412109375" lon="-1.5021652914583683013916015625">
        <ele>220</ele>
        <time>2019-10-26T10:51:20.000Z</time>
      </trkpt>
      <trkpt lat="37.75579869747161865234375" lon="-1.50229613296687602996826171875">
        <ele>220</ele>
        <time>2019-10-26T10:51:24.000Z</time>
      </trkpt>
      <trkpt lat="37.75570859201252460479736328125" lon="-1.5023683011531829833984375">
        <ele>220</ele>
        <time>2019-10-26T10:51:26.000Z</time>
      </trkpt>
      <trkpt lat="37.7555264532566070556640625" lon="-1.50252529419958591461181640625">
        <ele>220.1999969482421875</ele>
        <time>2019-10-26T10:51:30.000Z</time>
      </trkpt>
      <trkpt lat="37.7553495950996875762939453125" lon="-1.50267600081861019134521484375">
        <ele>220.399993896484375</ele>
        <time>2019-10-26T10:51:34.000Z</time>
      </trkpt>
      <trkpt lat="37.75530877523124217987060546875" lon="-1.5027111209928989410400390625">
        <ele>220.399993896484375</ele>
        <time>2019-10-26T10:51:35.000Z</time>
      </trkpt>
      <trkpt lat="37.75514013133943080902099609375" lon="-1.502837352454662322998046875">
        <ele>220.600006103515625</ele>
        <time>2019-10-26T10:51:39.000Z</time>
      </trkpt>
      <trkpt lat="37.75496880523860454559326171875" lon="-1.5029716305434703826904296875">
        <ele>220.8000030517578125</ele>
        <time>2019-10-26T10:51:43.000Z</time>
      </trkpt>
      <trkpt lat="37.75479747913777828216552734375" lon="-1.5031067468225955963134765625">
        <ele>221</ele>
        <time>2019-10-26T10:51:47.000Z</time>
      </trkpt>
      <trkpt lat="37.7546307630836963653564453125" lon="-1.50325166992843151092529296875">
        <ele>221.1999969482421875</ele>
        <time>2019-10-26T10:51:51.000Z</time>
      </trkpt>
      <trkpt lat="37.7544621191918849945068359375" lon="-1.5034027956426143646240234375">
        <ele>221.1999969482421875</ele>
        <time>2019-10-26T10:51:55.000Z</time>
      </trkpt>
      <trkpt lat="37.75429573841392993927001953125" lon="-1.503554172813892364501953125">
        <ele>221.399993896484375</ele>
        <time>2019-10-26T10:51:59.000Z</time>
      </trkpt>
      <trkpt lat="37.75413547642529010772705078125" lon="-1.50370378978550434112548828125">
        <ele>221.8000030517578125</ele>
        <time>2019-10-26T10:52:03.000Z</time>
      </trkpt>
      <trkpt lat="37.75396599434316158294677734375" lon="-1.5038488805294036865234375">
        <ele>222.1999969482421875</ele>
        <time>2019-10-26T10:52:07.000Z</time>
      </trkpt>
      <trkpt lat="37.75387949310243129730224609375" lon="-1.50392104871571063995361328125">
        <ele>222.399993896484375</ele>
        <time>2019-10-26T10:52:09.000Z</time>
      </trkpt>
      <trkpt lat="37.75370012037456035614013671875" lon="-1.50405901484191417694091796875">
        <ele>222.8000030517578125</ele>
        <time>2019-10-26T10:52:13.000Z</time>
      </trkpt>
      <trkpt lat="37.75351538322865962982177734375" lon="-1.504187844693660736083984375">
        <ele>223.1999969482421875</ele>
        <time>2019-10-26T10:52:17.000Z</time>
      </trkpt>
      <trkpt lat="37.75333307683467864990234375" lon="-1.50431156158447265625">
        <ele>223.600006103515625</ele>
        <time>2019-10-26T10:52:21.000Z</time>
      </trkpt>
      <trkpt lat="37.75315563194453716278076171875" lon="-1.50443268008530139923095703125">
        <ele>223.8000030517578125</ele>
        <time>2019-10-26T10:52:25.000Z</time>
      </trkpt>
      <trkpt lat="37.7529858984053134918212890625" lon="-1.50454482994973659515380859375">
        <ele>223.8000030517578125</ele>
        <time>2019-10-26T10:52:29.000Z</time>
      </trkpt>
      <trkpt lat="37.75290400721132755279541015625" lon="-1.504603587090969085693359375">
        <ele>223.8000030517578125</ele>
        <time>2019-10-26T10:52:31.000Z</time>
      </trkpt>
      <trkpt lat="37.752760089933872222900390625" lon="-1.5047579817473888397216796875">
        <ele>224</ele>
        <time>2019-10-26T10:52:35.000Z</time>
      </trkpt>
      <trkpt lat="37.75260225869715213775634765625" lon="-1.504943557083606719970703125">
        <ele>224.399993896484375</ele>
        <time>2019-10-26T10:52:40.000Z</time>
      </trkpt>
      <trkpt lat="37.7524581737816333770751953125" lon="-1.5051519311964511871337890625">
        <ele>225</ele>
        <time>2019-10-26T10:52:45.000Z</time>
      </trkpt>
      <trkpt lat="37.7523351274430751800537109375" lon="-1.50531814433634281158447265625">
        <ele>225.399993896484375</ele>
        <time>2019-10-26T10:52:49.000Z</time>
      </trkpt>
      <trkpt lat="37.75226019322872161865234375" lon="-1.50538955815136432647705078125">
        <ele>225.600006103515625</ele>
        <time>2019-10-26T10:52:51.000Z</time>
      </trkpt>
      <trkpt lat="37.752127759158611297607421875" lon="-1.5054573677480220794677734375">
        <ele>225.8000030517578125</ele>
        <time>2019-10-26T10:52:54.000Z</time>
      </trkpt>
      <trkpt lat="37.7519059740006923675537109375" lon="-1.50548167526721954345703125">
        <ele>225.600006103515625</ele>
        <time>2019-10-26T10:52:59.000Z</time>
      </trkpt>
      <trkpt lat="37.7517123520374298095703125" lon="-1.5055039711296558380126953125">
        <ele>225.600006103515625</ele>
        <time>2019-10-26T10:53:03.000Z</time>
      </trkpt>
      <trkpt lat="37.75150037370622158050537109375" lon="-1.5055254288017749786376953125">
        <ele>225.1999969482421875</ele>
        <time>2019-10-26T10:53:07.000Z</time>
      </trkpt>
      <trkpt lat="37.75128764100372791290283203125" lon="-1.5055505745112895965576171875">
        <ele>224.8000030517578125</ele>
        <time>2019-10-26T10:53:11.000Z</time>
      </trkpt>
      <trkpt lat="37.7510738186538219451904296875" lon="-1.50556691922247409820556640625">
        <ele>224.1999969482421875</ele>
        <time>2019-10-26T10:53:15.000Z</time>
      </trkpt>
      <trkpt lat="37.7508647739887237548828125" lon="-1.50558971799910068511962890625">
        <ele>224</ele>
        <time>2019-10-26T10:53:19.000Z</time>
      </trkpt>
      <trkpt lat="37.75065229274332523345947265625" lon="-1.50561176240444183349609375">
        <ele>224.399993896484375</ele>
        <time>2019-10-26T10:53:23.000Z</time>
      </trkpt>
      <trkpt lat="37.75044123642146587371826171875" lon="-1.50563229806721210479736328125">
        <ele>225</ele>
        <time>2019-10-26T10:53:27.000Z</time>
      </trkpt>
      <trkpt lat="37.7502332814037799835205078125" lon="-1.50565057061612606048583984375">
        <ele>225.600006103515625</ele>
        <time>2019-10-26T10:53:31.000Z</time>
      </trkpt>
      <trkpt lat="37.7500371448695659637451171875" lon="-1.5056674182415008544921875">
        <ele>226</ele>
        <time>2019-10-26T10:53:35.000Z</time>
      </trkpt>
      <trkpt lat="37.7498420141637325286865234375" lon="-1.50566984899342060089111328125">
        <ele>226.1999969482421875</ele>
        <time>2019-10-26T10:53:39.000Z</time>
      </trkpt>
      <trkpt lat="37.7496475540101528167724609375" lon="-1.5056474693119525909423828125">
        <ele>226.399993896484375</ele>
        <time>2019-10-26T10:53:43.000Z</time>
      </trkpt>
      <trkpt lat="37.74945770390331745147705078125" lon="-1.50563028641045093536376953125">
        <ele>226.600006103515625</ele>
        <time>2019-10-26T10:53:47.000Z</time>
      </trkpt>
      <trkpt lat="37.74927028454840183258056640625" lon="-1.5056193061172962188720703125">
        <ele>226.8000030517578125</ele>
        <time>2019-10-26T10:53:51.000Z</time>
      </trkpt>
      <trkpt lat="37.74908973835408687591552734375" lon="-1.5056136064231395721435546875">
        <ele>226.600006103515625</ele>
        <time>2019-10-26T10:53:55.000Z</time>
      </trkpt>
      <trkpt lat="37.7488717250525951385498046875" lon="-1.50560916401445865631103515625">
        <ele>226.399993896484375</ele>
        <time>2019-10-26T10:54:00.000Z</time>
      </trkpt>
      <trkpt lat="37.74871272034943103790283203125" lon="-1.50560111738741397857666015625">
        <ele>226</ele>
        <time>2019-10-26T10:54:04.000Z</time>
      </trkpt>
      <trkpt lat="37.748521864414215087890625" lon="-1.5055837668478488922119140625">
        <ele>225.8000030517578125</ele>
        <time>2019-10-26T10:54:09.000Z</time>
      </trkpt>
      <trkpt lat="37.74830686859786510467529296875" lon="-1.50555032305419445037841796875">
        <ele>225.399993896484375</ele>
        <time>2019-10-26T10:54:14.000Z</time>
      </trkpt>
      <trkpt lat="37.7482192777097225189208984375" lon="-1.5055438689887523651123046875">
        <ele>225.399993896484375</ele>
        <time>2019-10-26T10:54:16.000Z</time>
      </trkpt>
      <trkpt lat="37.74800310842692852020263671875" lon="-1.5055468864738941192626953125">
        <ele>225.399993896484375</ele>
        <time>2019-10-26T10:54:21.000Z</time>
      </trkpt>
      <trkpt lat="37.74778450839221477508544921875" lon="-1.50553573854267597198486328125">
        <ele>225.399993896484375</ele>
        <time>2019-10-26T10:54:26.000Z</time>
      </trkpt>
      <trkpt lat="37.74759708903729915618896484375" lon="-1.50553775019943714141845703125">
        <ele>225.600006103515625</ele>
        <time>2019-10-26T10:54:30.000Z</time>
      </trkpt>
      <trkpt lat="37.74740296415984630584716796875" lon="-1.50553020648658275604248046875">
        <ele>225.8000030517578125</ele>
        <time>2019-10-26T10:54:34.000Z</time>
      </trkpt>
      <trkpt lat="37.74720531888306140899658203125" lon="-1.50552702136337757110595703125">
        <ele>225.8000030517578125</ele>
        <time>2019-10-26T10:54:38.000Z</time>
      </trkpt>
      <trkpt lat="37.74700633250176906585693359375" lon="-1.50551922619342803955078125">
        <ele>225.8000030517578125</ele>
        <time>2019-10-26T10:54:42.000Z</time>
      </trkpt>
      <trkpt lat="37.7468084357678890228271484375" lon="-1.50551478378474712371826171875">
        <ele>226</ele>
        <time>2019-10-26T10:54:46.000Z</time>
      </trkpt>
      <trkpt lat="37.7466149814426898956298828125" lon="-1.50551117956638336181640625">
        <ele>226.1999969482421875</ele>
        <time>2019-10-26T10:54:50.000Z</time>
      </trkpt>
      <trkpt lat="37.7464272268116474151611328125" lon="-1.50550656951963901519775390625">
        <ele>226.600006103515625</ele>
        <time>2019-10-26T10:54:54.000Z</time>
      </trkpt>
      <trkpt lat="37.74624022655189037322998046875" lon="-1.5054932422935962677001953125">
        <ele>226.8000030517578125</ele>
        <time>2019-10-26T10:54:58.000Z</time>
      </trkpt>
      <trkpt lat="37.74605196900665760040283203125" lon="-1.50545359589159488677978515625">
        <ele>227</ele>
        <time>2019-10-26T10:55:02.000Z</time>
      </trkpt>
      <trkpt lat="37.74586404673755168914794921875" lon="-1.50538645684719085693359375">
        <ele>226.600006103515625</ele>
        <time>2019-10-26T10:55:06.000Z</time>
      </trkpt>
      <trkpt lat="37.7456812374293804168701171875" lon="-1.50530439801514148712158203125">
        <ele>226.600006103515625</ele>
        <time>2019-10-26T10:55:10.000Z</time>
      </trkpt>
      <trkpt lat="37.74549624882638454437255859375" lon="-1.5052220039069652557373046875">
        <ele>226.399993896484375</ele>
        <time>2019-10-26T10:55:14.000Z</time>
      </trkpt>
      <trkpt lat="37.74535861797630786895751953125" lon="-1.505158133804798126220703125">
        <ele>226.8000030517578125</ele>
        <time>2019-10-26T10:55:17.000Z</time>
      </trkpt>
      <trkpt lat="37.74521495215594768524169921875" lon="-1.50509283877909183502197265625">
        <ele>227.1999969482421875</ele>
        <time>2019-10-26T10:55:20.000Z</time>
      </trkpt>
      <trkpt lat="37.74503440596163272857666015625" lon="-1.5050040744245052337646484375">
        <ele>227.8000030517578125</ele>
        <time>2019-10-26T10:55:24.000Z</time>
      </trkpt>
      <trkpt lat="37.744839191436767578125" lon="-1.50488295592367649078369140625">
        <ele>228</ele>
        <time>2019-10-26T10:55:29.000Z</time>
      </trkpt>
      <trkpt lat="37.7448014728724956512451171875" lon="-1.50486837141215801239013671875">
        <ele>228</ele>
        <time>2019-10-26T10:55:30.000Z</time>
      </trkpt>
      <trkpt lat="37.7447251975536346435546875" lon="-1.5050295554101467132568359375">
        <ele>227.8000030517578125</ele>
        <time>2019-10-26T10:55:36.000Z</time>
      </trkpt>
      <trkpt lat="37.7448735572397708892822265625" lon="-1.50513592176139354705810546875">
        <ele>227.600006103515625</ele>
        <time>2019-10-26T10:55:40.000Z</time>
      </trkpt>
      <trkpt lat="37.74491571821272373199462890625" lon="-1.50515712797641754150390625">
        <ele>227.600006103515625</ele>
        <time>2019-10-26T10:55:41.000Z</time>
      </trkpt>
      <trkpt lat="37.74500674568116664886474609375" lon="-1.50528763420879840850830078125">
        <ele>227.399993896484375</ele>
        <time>2019-10-26T10:55:46.000Z</time>
      </trkpt>
      <trkpt lat="37.745007835328578948974609375" lon="-1.50529199279844760894775390625">
        <ele>227.399993896484375</ele>
        <time>2019-10-26T10:55:47.000Z</time>
      </trkpt>
      <trkpt lat="37.7450458891689777374267578125" lon="-1.505338512361049652099609375">
        <ele>227.399993896484375</ele>
        <time>2019-10-26T10:55:59.000Z</time>
      </trkpt>
      <trkpt lat="37.7451313845813274383544921875" lon="-1.50544152595102787017822265625">
        <ele>227</ele>
        <time>2019-10-26T10:56:04.000Z</time>
      </trkpt>
      <trkpt lat="37.74525602348148822784423828125" lon="-1.50560631416738033294677734375">
        <ele>227</ele>
        <time>2019-10-26T10:56:09.000Z</time>
      </trkpt>
      <trkpt lat="37.745339088141918182373046875" lon="-1.505813263356685638427734375">
        <ele>227</ele>
        <time>2019-10-26T10:56:14.000Z</time>
      </trkpt>
      <trkpt lat="37.7452178858220577239990234375" lon="-1.505807228386402130126953125">
        <ele>227</ele>
        <time>2019-10-26T10:56:19.000Z</time>
      </trkpt>
      <trkpt lat="37.745061814785003662109375" lon="-1.50564755313098430633544921875">
        <ele>227</ele>
        <time>2019-10-26T10:56:24.000Z</time>
      </trkpt>
      <trkpt lat="37.7448702044785022735595703125" lon="-1.50550724007189273834228515625">
        <ele>227.1999969482421875</ele>
        <time>2019-10-26T10:56:29.000Z</time>
      </trkpt>
      <trkpt lat="37.7448303066194057464599609375" lon="-1.5055090002715587615966796875">
        <ele>227.1999969482421875</ele>
        <time>2019-10-26T10:56:30.000Z</time>
      </trkpt>
      <trkpt lat="37.74471052922308444976806640625" lon="-1.5056239999830722808837890625">
        <ele>227</ele>
        <time>2019-10-26T10:56:34.000Z</time>
      </trkpt>
      <trkpt lat="37.74466308765113353729248046875" lon="-1.505863554775714874267578125">
        <ele>227.399993896484375</ele>
        <time>2019-10-26T10:56:40.000Z</time>
      </trkpt>
      <trkpt lat="37.74465235881507396697998046875" lon="-1.50611107237637042999267578125">
        <ele>228</ele>
        <time>2019-10-26T10:56:50.000Z</time>
      </trkpt>
      <trkpt lat="37.74465252645313739776611328125" lon="-1.50637174956500530242919921875">
        <ele>228</ele>
        <time>2019-10-26T10:56:56.000Z</time>
      </trkpt>
      <trkpt lat="37.744657807052135467529296875" lon="-1.5066429041326045989990234375">
        <ele>228.1999969482421875</ele>
        <time>2019-10-26T10:57:02.000Z</time>
      </trkpt>
      <trkpt lat="37.74464917369186878204345703125" lon="-1.50688656605780124664306640625">
        <ele>228.8000030517578125</ele>
        <time>2019-10-26T10:57:08.000Z</time>
      </trkpt>
      <trkpt lat="37.744629643857479095458984375" lon="-1.5071374364197254180908203125">
        <ele>229.8000030517578125</ele>
        <time>2019-10-26T10:57:16.000Z</time>
      </trkpt>
      <trkpt lat="37.74461229331791400909423828125" lon="-1.5073888935148715972900390625">
        <ele>230.399993896484375</ele>
        <time>2019-10-26T10:57:23.000Z</time>
      </trkpt>
      <trkpt lat="37.74460022337734699249267578125" lon="-1.50762216188013553619384765625">
        <ele>230.1999969482421875</ele>
        <time>2019-10-26T10:57:29.000Z</time>
      </trkpt>
      <trkpt lat="37.74460240267217159271240234375" lon="-1.50765518657863140106201171875">
        <ele>230.1999969482421875</ele>
        <time>2019-10-26T10:57:30.000Z</time>
      </trkpt>
      <trkpt lat="37.74477825500071048736572265625" lon="-1.5075897239148616790771484375">
        <ele>230</ele>
        <time>2019-10-26T10:57:36.000Z</time>
      </trkpt>
      <trkpt lat="37.7448673546314239501953125" lon="-1.50753130204975605010986328125">
        <ele>230</ele>
        <time>2019-10-26T10:57:39.000Z</time>
      </trkpt>
      <trkpt lat="37.74505049921572208404541015625" lon="-1.50746089406311511993408203125">
        <ele>230.1999969482421875</ele>
        <time>2019-10-26T10:57:45.000Z</time>
      </trkpt>
      <trkpt lat="37.74525686167180538177490234375" lon="-1.50741110555827617645263671875">
        <ele>229.600006103515625</ele>
        <time>2019-10-26T10:57:51.000Z</time>
      </trkpt>
      <trkpt lat="37.7454532496631145477294921875" lon="-1.507404148578643798828125">
        <ele>229</ele>
        <time>2019-10-26T10:57:57.000Z</time>
      </trkpt>
      <trkpt lat="37.7456584386527538299560546875" lon="-1.50738311000168323516845703125">
        <ele>228.600006103515625</ele>
        <time>2019-10-26T10:58:04.000Z</time>
      </trkpt>
      <trkpt lat="37.74579338729381561279296875" lon="-1.507348157465457916259765625">
        <ele>228.1999969482421875</ele>
        <time>2019-10-26T10:58:09.000Z</time>
      </trkpt>
      <trkpt lat="37.745763547718524932861328125" lon="-1.50744312442839145660400390625">
        <ele>228.399993896484375</ele>
        <time>2019-10-26T10:58:16.000Z</time>
      </trkpt>
      <trkpt lat="37.7455689199268817901611328125" lon="-1.50750062428414821624755859375">
        <ele>229</ele>
        <time>2019-10-26T10:58:23.000Z</time>
      </trkpt>
      <trkpt lat="37.745378650724887847900390625" lon="-1.507545299828052520751953125">
        <ele>229.399993896484375</ele>
        <time>2019-10-26T10:58:30.000Z</time>
      </trkpt>
      <trkpt lat="37.7451870404183864593505859375" lon="-1.50760623626410961151123046875">
        <ele>230</ele>
        <time>2019-10-26T10:58:38.000Z</time>
      </trkpt>
      <trkpt lat="37.74500154890120029449462890625" lon="-1.50769357569515705108642578125">
        <ele>230.399993896484375</ele>
        <time>2019-10-26T10:58:46.000Z</time>
      </trkpt>
      <trkpt lat="37.74484095163643360137939453125" lon="-1.50783036835491657257080078125">
        <ele>230.399993896484375</ele>
        <time>2019-10-26T10:58:54.000Z</time>
      </trkpt>
      <trkpt lat="37.744738273322582244873046875" lon="-1.50804989039897918701171875">
        <ele>230.399993896484375</ele>
        <time>2019-10-26T10:59:02.000Z</time>
      </trkpt>
      <trkpt lat="37.7446965314447879791259765625" lon="-1.50827427394688129425048828125">
        <ele>230.8000030517578125</ele>
        <time>2019-10-26T10:59:09.000Z</time>
      </trkpt>
      <trkpt lat="37.744666524231433868408203125" lon="-1.50849991478025913238525390625">
        <ele>231</ele>
        <time>2019-10-26T10:59:15.000Z</time>
      </trkpt>
      <trkpt lat="37.74464397691190242767333984375" lon="-1.508747600018978118896484375">
        <ele>230.8000030517578125</ele>
        <time>2019-10-26T10:59:21.000Z</time>
      </trkpt>
      <trkpt lat="37.74466820061206817626953125" lon="-1.508972235023975372314453125">
        <ele>230.399993896484375</ele>
        <time>2019-10-26T10:59:25.000Z</time>
      </trkpt>
      <trkpt lat="37.744772471487522125244140625" lon="-1.50920198298990726470947265625">
        <ele>230.8000030517578125</ele>
        <time>2019-10-26T10:59:29.000Z</time>
      </trkpt>
      <trkpt lat="37.7449308894574642181396484375" lon="-1.50942184031009674072265625">
        <ele>229.600006103515625</ele>
        <time>2019-10-26T10:59:33.000Z</time>
      </trkpt>
      <trkpt lat="37.74502267129719257354736328125" lon="-1.50956274010241031646728515625">
        <ele>228.8000030517578125</ele>
        <time>2019-10-26T10:59:35.000Z</time>
      </trkpt>
      <trkpt lat="37.74510598741471767425537109375" lon="-1.50983163155615329742431640625">
        <ele>228</ele>
        <time>2019-10-26T10:59:38.000Z</time>
      </trkpt>
      <trkpt lat="37.74503893218934535980224609375" lon="-1.5100432746112346649169921875">
        <ele>228.8000030517578125</ele>
        <time>2019-10-26T10:59:41.000Z</time>
      </trkpt>
      <trkpt lat="37.7448604814708232879638671875" lon="-1.50997563265264034271240234375">
        <ele>229.600006103515625</ele>
        <time>2019-10-26T10:59:45.000Z</time>
      </trkpt>
      <trkpt lat="37.74482904933393001556396484375" lon="-1.50991863571107387542724609375">
        <ele>229.600006103515625</ele>
        <time>2019-10-26T10:59:46.000Z</time>
      </trkpt>
      <trkpt lat="37.74472729302942752838134765625" lon="-1.5096858702600002288818359375">
        <ele>230.1999969482421875</ele>
        <time>2019-10-26T10:59:50.000Z</time>
      </trkpt>
      <trkpt lat="37.74468295276165008544921875" lon="-1.50957883335649967193603515625">
        <ele>230.8000030517578125</ele>
        <time>2019-10-26T10:59:52.000Z</time>
      </trkpt>
      <trkpt lat="37.74459636770188808441162109375" lon="-1.50937632657587528228759765625">
        <ele>231.399993896484375</ele>
        <time>2019-10-26T10:59:56.000Z</time>
      </trkpt>
      <trkpt lat="37.74452160112559795379638671875" lon="-1.50916946120560169219970703125">
        <ele>231</ele>
        <time>2019-10-26T11:00:00.000Z</time>
      </trkpt>
      <trkpt lat="37.74445186369121074676513671875" lon="-1.508950777351856231689453125">
        <ele>230.8000030517578125</ele>
        <time>2019-10-26T11:00:04.000Z</time>
      </trkpt>
      <trkpt lat="37.744371481239795684814453125" lon="-1.508743576705455780029296875">
        <ele>230.8000030517578125</ele>
        <time>2019-10-26T11:00:08.000Z</time>
      </trkpt>
      <trkpt lat="37.74434658698737621307373046875" lon="-1.5087011642754077911376953125">
        <ele>230.8000030517578125</ele>
        <time>2019-10-26T11:00:09.000Z</time>
      </trkpt>
      <trkpt lat="37.744160927832126617431640625" lon="-1.50859094224870204925537109375">
        <ele>230.399993896484375</ele>
        <time>2019-10-26T11:00:14.000Z</time>
      </trkpt>
      <trkpt lat="37.74398616515100002288818359375" lon="-1.50865548290312290191650390625">
        <ele>230</ele>
        <time>2019-10-26T11:00:18.000Z</time>
      </trkpt>
      <trkpt lat="37.74395347572863101959228515625" lon="-1.50869253091514110565185546875">
        <ele>230</ele>
        <time>2019-10-26T11:00:19.000Z</time>
      </trkpt>
      <trkpt lat="37.74392598308622837066650390625" lon="-1.50873846374452114105224609375">
        <ele>230</ele>
        <time>2019-10-26T11:00:20.000Z</time>
      </trkpt>
      <trkpt lat="37.7438818104565143585205078125" lon="-1.50895907543599605560302734375">
        <ele>230.1999969482421875</ele>
        <time>2019-10-26T11:00:24.000Z</time>
      </trkpt>
      <trkpt lat="37.7438683994114398956298828125" lon="-1.5090089477598667144775390625">
        <ele>230.1999969482421875</ele>
        <time>2019-10-26T11:00:25.000Z</time>
      </trkpt>
      <trkpt lat="37.74370084516704082489013671875" lon="-1.50916434824466705322265625">
        <ele>230.1999969482421875</ele>
        <time>2019-10-26T11:00:30.000Z</time>
      </trkpt>
      <trkpt lat="37.743658684194087982177734375" lon="-1.509179435670375823974609375">
        <ele>230.1999969482421875</ele>
        <time>2019-10-26T11:00:31.000Z</time>
      </trkpt>
      <trkpt lat="37.74344150908291339874267578125" lon="-1.50923584587872028350830078125">
        <ele>229.8000030517578125</ele>
        <time>2019-10-26T11:00:36.000Z</time>
      </trkpt>
      <trkpt lat="37.7432615496218204498291015625" lon="-1.50928228162229061126708984375">
        <ele>229.600006103515625</ele>
        <time>2019-10-26T11:00:41.000Z</time>
      </trkpt>
      <trkpt lat="37.7432310394942760467529296875" lon="-1.50929468683898448944091796875">
        <ele>229.600006103515625</ele>
        <time>2019-10-26T11:00:42.000Z</time>
      </trkpt>
      <trkpt lat="37.74317462928593158721923828125" lon="-1.5093190781772136688232421875">
        <ele>229.600006103515625</ele>
        <time>2019-10-26T11:00:44.000Z</time>
      </trkpt>
      <trkpt lat="37.7431180514395236968994140625" lon="-1.50933978147804737091064453125">
        <ele>229.600006103515625</ele>
        <time>2019-10-26T11:00:46.000Z</time>
      </trkpt>
      <trkpt lat="37.742929123342037200927734375" lon="-1.50941111147403717041015625">
        <ele>229.600006103515625</ele>
        <time>2019-10-26T11:00:52.000Z</time>
      </trkpt>
      <trkpt lat="37.7428959310054779052734375" lon="-1.5094243548810482025146484375">
        <ele>229.600006103515625</ele>
        <time>2019-10-26T11:00:53.000Z</time>
      </trkpt>
      <trkpt lat="37.7427267841994762420654296875" lon="-1.50950507260859012603759765625">
        <ele>230</ele>
        <time>2019-10-26T11:00:58.000Z</time>
      </trkpt>
      <trkpt lat="37.7425474114716053009033203125" lon="-1.5096000395715236663818359375">
        <ele>230.1999969482421875</ele>
        <time>2019-10-26T11:01:03.000Z</time>
      </trkpt>
      <trkpt lat="37.7423710562288761138916015625" lon="-1.5097177214920520782470703125">
        <ele>230.399993896484375</ele>
        <time>2019-10-26T11:01:08.000Z</time>
      </trkpt>
      <trkpt lat="37.74218724109232425689697265625" lon="-1.50984638370573520660400390625">
        <ele>230.399993896484375</ele>
        <time>2019-10-26T11:01:13.000Z</time>
      </trkpt>
      <trkpt lat="37.74200216867029666900634765625" lon="-1.50997311808168888092041015625">
        <ele>231</ele>
        <time>2019-10-26T11:01:18.000Z</time>
      </trkpt>
      <trkpt lat="37.74181072600185871124267578125" lon="-1.51009314693510532379150390625">
        <ele>231.399993896484375</ele>
        <time>2019-10-26T11:01:23.000Z</time>
      </trkpt>
      <trkpt lat="37.7416207082569599151611328125" lon="-1.5102280117571353912353515625">
        <ele>232.1999969482421875</ele>
        <time>2019-10-26T11:01:28.000Z</time>
      </trkpt>
      <trkpt lat="37.74143823422491550445556640625" lon="-1.51034929789602756500244140625">
        <ele>232.8000030517578125</ele>
        <time>2019-10-26T11:01:33.000Z</time>
      </trkpt>
      <trkpt lat="37.74140403605997562408447265625" lon="-1.5103705041110515594482421875">
        <ele>233</ele>
        <time>2019-10-26T11:01:34.000Z</time>
      </trkpt>
      <trkpt lat="37.741314433515071868896484375" lon="-1.51042758487164974212646484375">
        <ele>233.399993896484375</ele>
        <time>2019-10-26T11:01:37.000Z</time>
      </trkpt>
      <trkpt lat="37.74126104079186916351318359375" lon="-1.510469913482666015625">
        <ele>233.600006103515625</ele>
        <time>2019-10-26T11:01:39.000Z</time>
      </trkpt>
      <trkpt lat="37.74119214154779911041259765625" lon="-1.5105203725397586822509765625">
        <ele>233.8000030517578125</ele>
        <time>2019-10-26T11:01:42.000Z</time>
      </trkpt>
      <trkpt lat="37.74104193784296512603759765625" lon="-1.51068440638482570648193359375">
        <ele>234.600006103515625</ele>
        <time>2019-10-26T11:01:50.000Z</time>
      </trkpt>
      <trkpt lat="37.74091922678053379058837890625" lon="-1.51088104583323001861572265625">
        <ele>233.8000030517578125</ele>
        <time>2019-10-26T11:01:57.000Z</time>
      </trkpt>
      <trkpt lat="37.7408740483224391937255859375" lon="-1.51095178909599781036376953125">
        <ele>233.600006103515625</ele>
        <time>2019-10-26T11:02:02.000Z</time>
      </trkpt>
      <trkpt lat="37.74075125344097614288330078125" lon="-1.51111775077879428863525390625">
        <ele>233.8000030517578125</ele>
        <time>2019-10-26T11:02:16.000Z</time>
      </trkpt>
      <trkpt lat="37.740621082484722137451171875" lon="-1.51131589896976947784423828125">
        <ele>234</ele>
        <time>2019-10-26T11:02:22.000Z</time>
      </trkpt>
      <trkpt lat="37.74049334228038787841796875" lon="-1.5114896558225154876708984375">
        <ele>234.1999969482421875</ele>
        <time>2019-10-26T11:02:27.000Z</time>
      </trkpt>
      <trkpt lat="37.74036032147705554962158203125" lon="-1.5116707049310207366943359375">
        <ele>234.8000030517578125</ele>
        <time>2019-10-26T11:02:32.000Z</time>
      </trkpt>
      <trkpt lat="37.7402326650917530059814453125" lon="-1.5118587948381900787353515625">
        <ele>235</ele>
        <time>2019-10-26T11:02:37.000Z</time>
      </trkpt>
      <trkpt lat="37.7401062659919261932373046875" lon="-1.51203774847090244293212890625">
        <ele>235.600006103515625</ele>
        <time>2019-10-26T11:02:42.000Z</time>
      </trkpt>
      <trkpt lat="37.73998129181563854217529296875" lon="-1.5122145228087902069091796875">
        <ele>235.600006103515625</ele>
        <time>2019-10-26T11:02:47.000Z</time>
      </trkpt>
      <trkpt lat="37.739857994019985198974609375" lon="-1.51238928548991680145263671875">
        <ele>235.399993896484375</ele>
        <time>2019-10-26T11:02:52.000Z</time>
      </trkpt>
      <trkpt lat="37.73970904760062694549560546875" lon="-1.512581817805767059326171875">
        <ele>235.8000030517578125</ele>
        <time>2019-10-26T11:02:58.000Z</time>
      </trkpt>
      <trkpt lat="37.73960418999195098876953125" lon="-1.5127670578658580780029296875">
        <ele>236</ele>
        <time>2019-10-26T11:03:03.000Z</time>
      </trkpt>
      <trkpt lat="37.73949061520397663116455078125" lon="-1.5129652060568332672119140625">
        <ele>236.399993896484375</ele>
        <time>2019-10-26T11:03:08.000Z</time>
      </trkpt>
      <trkpt lat="37.73938550613820552825927734375" lon="-1.5131791122257709503173828125">
        <ele>236.8000030517578125</ele>
        <time>2019-10-26T11:03:13.000Z</time>
      </trkpt>
      <trkpt lat="37.73927469737827777862548828125" lon="-1.513390839099884033203125">
        <ele>237.1999969482421875</ele>
        <time>2019-10-26T11:03:18.000Z</time>
      </trkpt>
      <trkpt lat="37.7391641400754451751708984375" lon="-1.51358999311923980712890625">
        <ele>237.600006103515625</ele>
        <time>2019-10-26T11:03:23.000Z</time>
      </trkpt>
      <trkpt lat="37.7390400879085063934326171875" lon="-1.51379291899502277374267578125">
        <ele>237.8000030517578125</ele>
        <time>2019-10-26T11:03:28.000Z</time>
      </trkpt>
      <trkpt lat="37.7389130182564258575439453125" lon="-1.51400213129818439483642578125">
        <ele>238</ele>
        <time>2019-10-26T11:03:33.000Z</time>
      </trkpt>
      <trkpt lat="37.7387841045856475830078125" lon="-1.51422307826578617095947265625">
        <ele>238.600006103515625</ele>
        <time>2019-10-26T11:03:38.000Z</time>
      </trkpt>
      <trkpt lat="37.73866139352321624755859375" lon="-1.51443648152053356170654296875">
        <ele>239</ele>
        <time>2019-10-26T11:03:43.000Z</time>
      </trkpt>
      <trkpt lat="37.7385425381362438201904296875" lon="-1.51464678347110748291015625">
        <ele>239.600006103515625</ele>
        <time>2019-10-26T11:03:48.000Z</time>
      </trkpt>
      <trkpt lat="37.73849333636462688446044921875" lon="-1.5147334523499011993408203125">
        <ele>239.8000030517578125</ele>
        <time>2019-10-26T11:03:50.000Z</time>
      </trkpt>
      <trkpt lat="37.7383722178637981414794921875" lon="-1.51495121419429779052734375">
        <ele>239.600006103515625</ele>
        <time>2019-10-26T11:03:55.000Z</time>
      </trkpt>
      <trkpt lat="37.73834749124944210052490234375" lon="-1.51499572210013866424560546875">
        <ele>239.399993896484375</ele>
        <time>2019-10-26T11:03:56.000Z</time>
      </trkpt>
      <trkpt lat="37.7382293902337551116943359375" lon="-1.515221782028675079345703125">
        <ele>239</ele>
        <time>2019-10-26T11:04:01.000Z</time>
      </trkpt>
      <trkpt lat="37.73809754289686679840087890625" lon="-1.51542068459093570709228515625">
        <ele>238.600006103515625</ele>
        <time>2019-10-26T11:04:06.000Z</time>
      </trkpt>
      <trkpt lat="37.73795572109520435333251953125" lon="-1.51561640202999114990234375">
        <ele>238.1999969482421875</ele>
        <time>2019-10-26T11:04:11.000Z</time>
      </trkpt>
      <trkpt lat="37.7378921024501323699951171875" lon="-1.51569041423499584197998046875">
        <ele>238.1999969482421875</ele>
        <time>2019-10-26T11:04:13.000Z</time>
      </trkpt>
      <trkpt lat="37.737750448286533355712890625" lon="-1.515879593789577484130859375">
        <ele>239</ele>
        <time>2019-10-26T11:04:17.000Z</time>
      </trkpt>
      <trkpt lat="37.73762245662510395050048828125" lon="-1.5160668455064296722412109375">
        <ele>239.8000030517578125</ele>
        <time>2019-10-26T11:04:21.000Z</time>
      </trkpt>
      <trkpt lat="37.7374746836721897125244140625" lon="-1.516278572380542755126953125">
        <ele>240.600006103515625</ele>
        <time>2019-10-26T11:04:26.000Z</time>
      </trkpt>
      <trkpt lat="37.73733948357403278350830078125" lon="-1.51648568920791149139404296875">
        <ele>241.1999969482421875</ele>
        <time>2019-10-26T11:04:31.000Z</time>
      </trkpt>
      <trkpt lat="37.73720101453363895416259765625" lon="-1.51669255457818508148193359375">
        <ele>241.8000030517578125</ele>
        <time>2019-10-26T11:04:36.000Z</time>
      </trkpt>
      <trkpt lat="37.73718005977571010589599609375" lon="-1.5167370624840259552001953125">
        <ele>242</ele>
        <time>2019-10-26T11:04:37.000Z</time>
      </trkpt>
      <trkpt lat="37.7371729351580142974853515625" lon="-1.5169824846088886260986328125">
        <ele>242.600006103515625</ele>
        <time>2019-10-26T11:04:42.000Z</time>
      </trkpt>
      <trkpt lat="37.7371816523373126983642578125" lon="-1.51702548377215862274169921875">
        <ele>242.600006103515625</ele>
        <time>2019-10-26T11:04:43.000Z</time>
      </trkpt>
      <trkpt lat="37.73720637895166873931884765625" lon="-1.51711232028901576995849609375">
        <ele>242.8000030517578125</ele>
        <time>2019-10-26T11:04:45.000Z</time>
      </trkpt>
      <trkpt lat="37.7372859232127666473388671875" lon="-1.51726889424026012420654296875">
        <ele>243.1999969482421875</ele>
        <time>2019-10-26T11:04:49.000Z</time>
      </trkpt>
      <trkpt lat="37.73733529262244701385498046875" lon="-1.51735288091003894805908203125">
        <ele>243.1999969482421875</ele>
        <time>2019-10-26T11:04:51.000Z</time>
      </trkpt>
      <trkpt lat="37.737392373383045196533203125" lon="-1.51743385009467601776123046875">
        <ele>243.1999969482421875</ele>
        <time>2019-10-26T11:04:53.000Z</time>
      </trkpt>
      <trkpt lat="37.737535201013088226318359375" lon="-1.51764105074107646942138671875">
        <ele>243</ele>
        <time>2019-10-26T11:04:58.000Z</time>
      </trkpt>
      <trkpt lat="37.73765900172293186187744140625" lon="-1.5178515203297138214111328125">
        <ele>242.8000030517578125</ele>
        <time>2019-10-26T11:05:03.000Z</time>
      </trkpt>
      <trkpt lat="37.73767660371959209442138671875" lon="-1.5178974531590938568115234375">
        <ele>242.600006103515625</ele>
        <time>2019-10-26T11:05:04.000Z</time>
      </trkpt>
      <trkpt lat="37.737709544599056243896484375" lon="-1.51804271154105663299560546875">
        <ele>242.600006103515625</ele>
        <time>2019-10-26T11:05:07.000Z</time>
      </trkpt>
      <trkpt lat="37.7377020008862018585205078125" lon="-1.518240272998809814453125">
        <ele>242.600006103515625</ele>
        <time>2019-10-26T11:05:11.000Z</time>
      </trkpt>
      <trkpt lat="37.73764257319271564483642578125" lon="-1.518484018743038177490234375">
        <ele>243.1999969482421875</ele>
        <time>2019-10-26T11:05:16.000Z</time>
      </trkpt>
      <trkpt lat="37.73754651658236980438232421875" lon="-1.518716700375080108642578125">
        <ele>243.600006103515625</ele>
        <time>2019-10-26T11:05:21.000Z</time>
      </trkpt>
      <trkpt lat="37.7374398149549961090087890625" lon="-1.518955416977405548095703125">
        <ele>244</ele>
        <time>2019-10-26T11:05:26.000Z</time>
      </trkpt>
      <trkpt lat="37.73734115995466709136962890625" lon="-1.519196145236492156982421875">
        <ele>243.8000030517578125</ele>
        <time>2019-10-26T11:05:31.000Z</time>
      </trkpt>
      <trkpt lat="37.73724074475467205047607421875" lon="-1.51943360455334186553955078125">
        <ele>243.8000030517578125</ele>
        <time>2019-10-26T11:05:36.000Z</time>
      </trkpt>
      <trkpt lat="37.73714167065918445587158203125" lon="-1.5196613408625125885009765625">
        <ele>243.8000030517578125</ele>
        <time>2019-10-26T11:05:41.000Z</time>
      </trkpt>
      <trkpt lat="37.737040333449840545654296875" lon="-1.51988857425749301910400390625">
        <ele>243.8000030517578125</ele>
        <time>2019-10-26T11:05:46.000Z</time>
      </trkpt>
      <trkpt lat="37.73694813251495361328125" lon="-1.5201220102608203887939453125">
        <ele>244</ele>
        <time>2019-10-26T11:05:51.000Z</time>
      </trkpt>
      <trkpt lat="37.7368560992181301116943359375" lon="-1.52035008184611797332763671875">
        <ele>244</ele>
        <time>2019-10-26T11:05:56.000Z</time>
      </trkpt>
      <trkpt lat="37.73676574230194091796875" lon="-1.52057605795562267303466796875">
        <ele>244</ele>
        <time>2019-10-26T11:06:01.000Z</time>
      </trkpt>
      <trkpt lat="37.73666909895837306976318359375" lon="-1.5208066441118717193603515625">
        <ele>244.600006103515625</ele>
        <time>2019-10-26T11:06:06.000Z</time>
      </trkpt>
      <trkpt lat="37.73657270707190036773681640625" lon="-1.521043516695499420166015625">
        <ele>245.600006103515625</ele>
        <time>2019-10-26T11:06:11.000Z</time>
      </trkpt>
      <trkpt lat="37.7364819310605525970458984375" lon="-1.52129036374390125274658203125">
        <ele>246.600006103515625</ele>
        <time>2019-10-26T11:06:16.000Z</time>
      </trkpt>
      <trkpt lat="37.73640842176973819732666015625" lon="-1.521538384258747100830078125">
        <ele>247.399993896484375</ele>
        <time>2019-10-26T11:06:21.000Z</time>
      </trkpt>
      <trkpt lat="37.7363535203039646148681640625" lon="-1.5217821300029754638671875">
        <ele>247.399993896484375</ele>
        <time>2019-10-26T11:06:26.000Z</time>
      </trkpt>
      <trkpt lat="37.7363089285790920257568359375" lon="-1.52202746830880641937255859375">
        <ele>247.8000030517578125</ele>
        <time>2019-10-26T11:06:31.000Z</time>
      </trkpt>
      <trkpt lat="37.73630314506590366363525390625" lon="-1.522174067795276641845703125">
        <ele>248.1999969482421875</ele>
        <time>2019-10-26T11:06:34.000Z</time>
      </trkpt>
      <trkpt lat="37.73632091470062732696533203125" lon="-1.52243399061262607574462890625">
        <ele>248.1999969482421875</ele>
        <time>2019-10-26T11:06:39.000Z</time>
      </trkpt>
      <trkpt lat="37.73634891025722026824951171875" lon="-1.5226979367434978485107421875">
        <ele>247.1999969482421875</ele>
        <time>2019-10-26T11:06:44.000Z</time>
      </trkpt>
      <trkpt lat="37.7363729663193225860595703125" lon="-1.52297370135784149169921875">
        <ele>247.8000030517578125</ele>
        <time>2019-10-26T11:06:49.000Z</time>
      </trkpt>
      <trkpt lat="37.7364024706184864044189453125" lon="-1.52324954979121685028076171875">
        <ele>248.399993896484375</ele>
        <time>2019-10-26T11:06:54.000Z</time>
      </trkpt>
      <trkpt lat="37.73641428910195827484130859375" lon="-1.52351626195013523101806640625">
        <ele>249.1999969482421875</ele>
        <time>2019-10-26T11:06:59.000Z</time>
      </trkpt>
      <trkpt lat="37.73641982115805149078369140625" lon="-1.52377727441489696502685546875">
        <ele>249.399993896484375</ele>
        <time>2019-10-26T11:07:04.000Z</time>
      </trkpt>
      <trkpt lat="37.736419402062892913818359375" lon="-1.523828990757465362548828125">
        <ele>249.399993896484375</ele>
        <time>2019-10-26T11:07:05.000Z</time>
      </trkpt>
      <trkpt lat="37.73640372790396213531494140625" lon="-1.52408271096646785736083984375">
        <ele>249.399993896484375</ele>
        <time>2019-10-26T11:07:10.000Z</time>
      </trkpt>
      <trkpt lat="37.7363888919353485107421875" lon="-1.5243438072502613067626953125">
        <ele>250</ele>
        <time>2019-10-26T11:07:15.000Z</time>
      </trkpt>
      <trkpt lat="37.7363759838044643402099609375" lon="-1.52460272423923015594482421875">
        <ele>250.600006103515625</ele>
        <time>2019-10-26T11:07:20.000Z</time>
      </trkpt>
      <trkpt lat="37.73636718280613422393798828125" lon="-1.5248587913811206817626953125">
        <ele>251.1999969482421875</ele>
        <time>2019-10-26T11:07:25.000Z</time>
      </trkpt>
      <trkpt lat="37.73636634461581707000732421875" lon="-1.52500941418111324310302734375">
        <ele>251.8000030517578125</ele>
        <time>2019-10-26T11:07:28.000Z</time>
      </trkpt>
      <trkpt lat="37.736386545002460479736328125" lon="-1.52515701949596405029296875">
        <ele>252.399993896484375</ele>
        <time>2019-10-26T11:07:31.000Z</time>
      </trkpt>
      <trkpt lat="37.7364490740001201629638671875" lon="-1.52540403418242931365966796875">
        <ele>253</ele>
        <time>2019-10-26T11:07:36.000Z</time>
      </trkpt>
      <trkpt lat="37.73653431795537471771240234375" lon="-1.52564652264118194580078125">
        <ele>253.8000030517578125</ele>
        <time>2019-10-26T11:07:41.000Z</time>
      </trkpt>
      <trkpt lat="37.73660891689360141754150390625" lon="-1.52589169330894947052001953125">
        <ele>254</ele>
        <time>2019-10-26T11:07:46.000Z</time>
      </trkpt>
      <trkpt lat="37.736687622964382171630859375" lon="-1.5261380374431610107421875">
        <ele>254.600006103515625</ele>
        <time>2019-10-26T11:07:51.000Z</time>
      </trkpt>
      <trkpt lat="37.73675945587456226348876953125" lon="-1.5263769216835498809814453125">
        <ele>254.8000030517578125</ele>
        <time>2019-10-26T11:07:56.000Z</time>
      </trkpt>
      <trkpt lat="37.7368198893964290618896484375" lon="-1.52656727470457553863525390625">
        <ele>255.1999969482421875</ele>
        <time>2019-10-26T11:08:01.000Z</time>
      </trkpt>
      <trkpt lat="37.7368550933897495269775390625" lon="-1.52665561996400356292724609375">
        <ele>255.399993896484375</ele>
        <time>2019-10-26T11:08:04.000Z</time>
      </trkpt>
      <trkpt lat="37.73679734207689762115478515625" lon="-1.5267859585583209991455078125">
        <ele>255.600006103515625</ele>
        <time>2019-10-26T11:08:08.000Z</time>
      </trkpt>
      <trkpt lat="37.7366790734231472015380859375" lon="-1.5269753895699977874755859375">
        <ele>256</ele>
        <time>2019-10-26T11:08:13.000Z</time>
      </trkpt>
      <trkpt lat="37.73655342869460582733154296875" lon="-1.52718367986381053924560546875">
        <ele>256.399993896484375</ele>
        <time>2019-10-26T11:08:18.000Z</time>
      </trkpt>
      <trkpt lat="37.73641730658710002899169921875" lon="-1.527391634881496429443359375">
        <ele>256.600006103515625</ele>
        <time>2019-10-26T11:08:23.000Z</time>
      </trkpt>
      <trkpt lat="37.73626090027391910552978515625" lon="-1.52759590186178684234619140625">
        <ele>256.20001220703125</ele>
        <time>2019-10-26T11:08:28.000Z</time>
      </trkpt>
      <trkpt lat="37.73611052893102169036865234375" lon="-1.52773520909249782562255859375">
        <ele>255.8000030517578125</ele>
        <time>2019-10-26T11:08:32.000Z</time>
      </trkpt>
      <trkpt lat="37.735922522842884063720703125" lon="-1.5278756059706211090087890625">
        <ele>255.399993896484375</ele>
        <time>2019-10-26T11:08:37.000Z</time>
      </trkpt>
      <trkpt lat="37.73577642627060413360595703125" lon="-1.52796822600066661834716796875">
        <ele>255.1999969482421875</ele>
        <time>2019-10-26T11:08:41.000Z</time>
      </trkpt>
      <trkpt lat="37.73559152148663997650146484375" lon="-1.52808238752186298370361328125">
        <ele>255.1999969482421875</ele>
        <time>2019-10-26T11:08:46.000Z</time>
      </trkpt>
      <trkpt lat="37.7354020066559314727783203125" lon="-1.5281813777983188629150390625">
        <ele>255</ele>
        <time>2019-10-26T11:08:51.000Z</time>
      </trkpt>
      <trkpt lat="37.73519941605627536773681640625" lon="-1.52827550657093524932861328125">
        <ele>255</ele>
        <time>2019-10-26T11:08:56.000Z</time>
      </trkpt>
      <trkpt lat="37.7350063808262348175048828125" lon="-1.528363265097141265869140625">
        <ele>255</ele>
        <time>2019-10-26T11:09:01.000Z</time>
      </trkpt>
      <trkpt lat="37.7349269203841686248779296875" lon="-1.52839369140565395355224609375">
        <ele>254.8000030517578125</ele>
        <time>2019-10-26T11:09:03.000Z</time>
      </trkpt>
      <trkpt lat="37.73475735448300838470458984375" lon="-1.52852176688611507415771484375">
        <ele>254.399993896484375</ele>
        <time>2019-10-26T11:09:07.000Z</time>
      </trkpt>
      <trkpt lat="37.7346107549965381622314453125" lon="-1.5286554582417011260986328125">
        <ele>254</ele>
        <time>2019-10-26T11:09:10.000Z</time>
      </trkpt>
      <trkpt lat="37.73452299647033214569091796875" lon="-1.5287526883184909820556640625">
        <ele>253.8000030517578125</ele>
        <time>2019-10-26T11:09:12.000Z</time>
      </trkpt>
      <trkpt lat="37.734403721988201141357421875" lon="-1.52901160530745983123779296875">
        <ele>253.399993896484375</ele>
        <time>2019-10-26T11:09:16.000Z</time>
      </trkpt>
      <trkpt lat="37.73437388241291046142578125" lon="-1.5291888825595378875732421875">
        <ele>253.399993896484375</ele>
        <time>2019-10-26T11:09:18.000Z</time>
      </trkpt>
      <trkpt lat="37.73433591239154338836669921875" lon="-1.52946188114583492279052734375">
        <ele>253.399993896484375</ele>
        <time>2019-10-26T11:09:21.000Z</time>
      </trkpt>
      <trkpt lat="37.734277658164501190185546875" lon="-1.5296877734363079071044921875">
        <ele>253.1999969482421875</ele>
        <time>2019-10-26T11:09:24.000Z</time>
      </trkpt>
      <trkpt lat="37.73415687493979930877685546875" lon="-1.529872007668018341064453125">
        <ele>253.1999969482421875</ele>
        <time>2019-10-26T11:09:29.000Z</time>
      </trkpt>
      <trkpt lat="37.73412988521158695220947265625" lon="-1.5299278311431407928466796875">
        <ele>253.1999969482421875</ele>
        <time>2019-10-26T11:09:31.000Z</time>
      </trkpt>
      <trkpt lat="37.73401957936584949493408203125" lon="-1.5301155857741832733154296875">
        <ele>253.8000030517578125</ele>
        <time>2019-10-26T11:09:37.000Z</time>
      </trkpt>
      <trkpt lat="37.73391229100525379180908203125" lon="-1.530313231050968170166015625">
        <ele>254.1999969482421875</ele>
        <time>2019-10-26T11:09:43.000Z</time>
      </trkpt>
      <trkpt lat="37.733811624348163604736328125" lon="-1.53054079972207546234130859375">
        <ele>254.8000030517578125</ele>
        <time>2019-10-26T11:09:49.000Z</time>
      </trkpt>
      <trkpt lat="37.73372084833681583404541015625" lon="-1.53075420297682285308837890625">
        <ele>255</ele>
        <time>2019-10-26T11:09:54.000Z</time>
      </trkpt>
      <trkpt lat="37.73362596519291400909423828125" lon="-1.5309822745621204376220703125">
        <ele>255</ele>
        <time>2019-10-26T11:09:59.000Z</time>
      </trkpt>
      <trkpt lat="37.73352303542196750640869140625" lon="-1.53122493065893650054931640625">
        <ele>255</ele>
        <time>2019-10-26T11:10:04.000Z</time>
      </trkpt>
      <trkpt lat="37.7334129810333251953125" lon="-1.53146155178546905517578125">
        <ele>255</ele>
        <time>2019-10-26T11:10:09.000Z</time>
      </trkpt>
      <trkpt lat="37.733323462307453155517578125" lon="-1.53166003525257110595703125">
        <ele>255</ele>
        <time>2019-10-26T11:10:13.000Z</time>
      </trkpt>
      <trkpt lat="37.7332052774727344512939453125" lon="-1.53189682401716709136962890625">
        <ele>255</ele>
        <time>2019-10-26T11:10:18.000Z</time>
      </trkpt>
      <trkpt lat="37.7331157587468624114990234375" lon="-1.5320818126201629638671875">
        <ele>255</ele>
        <time>2019-10-26T11:10:22.000Z</time>
      </trkpt>
      <trkpt lat="37.7330547384917736053466796875" lon="-1.532301418483257293701171875">
        <ele>255</ele>
        <time>2019-10-26T11:10:26.000Z</time>
      </trkpt>
      <trkpt lat="37.73302070796489715576171875" lon="-1.53254407458007335662841796875">
        <ele>255.1999969482421875</ele>
        <time>2019-10-26T11:10:30.000Z</time>
      </trkpt>
      <trkpt lat="37.73298055864870548248291015625" lon="-1.5327793546020984649658203125">
        <ele>255.600006103515625</ele>
        <time>2019-10-26T11:10:34.000Z</time>
      </trkpt>
      <trkpt lat="37.73291367106139659881591796875" lon="-1.53304145671427249908447265625">
        <ele>255.8000030517578125</ele>
        <time>2019-10-26T11:10:39.000Z</time>
      </trkpt>
      <trkpt lat="37.7328498847782611846923828125" lon="-1.53329886496067047119140625">
        <ele>256.399993896484375</ele>
        <time>2019-10-26T11:10:44.000Z</time>
      </trkpt>
      <trkpt lat="37.732780314981937408447265625" lon="-1.53351637534797191619873046875">
        <ele>256.79998779296875</ele>
        <time>2019-10-26T11:10:48.000Z</time>
      </trkpt>
      <trkpt lat="37.7326916344463825225830078125" lon="-1.5337313711643218994140625">
        <ele>257.399993896484375</ele>
        <time>2019-10-26T11:10:52.000Z</time>
      </trkpt>
      <trkpt lat="37.73258945904672145843505859375" lon="-1.53394988738000392913818359375">
        <ele>257.79998779296875</ele>
        <time>2019-10-26T11:10:56.000Z</time>
      </trkpt>
      <trkpt lat="37.7325142733752727508544921875" lon="-1.5341184474527835845947265625">
        <ele>257.79998779296875</ele>
        <time>2019-10-26T11:10:59.000Z</time>
      </trkpt>
      <trkpt lat="37.73242567665874958038330078125" lon="-1.53435154817998409271240234375">
        <ele>257.20001220703125</ele>
        <time>2019-10-26T11:11:03.000Z</time>
      </trkpt>
      <trkpt lat="37.73233666084706783294677734375" lon="-1.53458003886044025421142578125">
        <ele>256.600006103515625</ele>
        <time>2019-10-26T11:11:07.000Z</time>
      </trkpt>
      <trkpt lat="37.73225736804306507110595703125" lon="-1.53480936773121356964111328125">
        <ele>256</ele>
        <time>2019-10-26T11:11:11.000Z</time>
      </trkpt>
      <trkpt lat="37.73218008689582347869873046875" lon="-1.53503802604973316192626953125">
        <ele>255.600006103515625</ele>
        <time>2019-10-26T11:11:15.000Z</time>
      </trkpt>
      <trkpt lat="37.7321065776050090789794921875" lon="-1.535277329385280609130859375">
        <ele>255</ele>
        <time>2019-10-26T11:11:19.000Z</time>
      </trkpt>
      <trkpt lat="37.732047401368618011474609375" lon="-1.53551462106406688690185546875">
        <ele>255</ele>
        <time>2019-10-26T11:11:23.000Z</time>
      </trkpt>
      <trkpt lat="37.7320009656250476837158203125" lon="-1.53575786389410495758056640625">
        <ele>255.1999969482421875</ele>
        <time>2019-10-26T11:11:27.000Z</time>
      </trkpt>
      <trkpt lat="37.7319577150046825408935546875" lon="-1.53600697405636310577392578125">
        <ele>255.8000030517578125</ele>
        <time>2019-10-26T11:11:31.000Z</time>
      </trkpt>
      <trkpt lat="37.7319037355482578277587890625" lon="-1.5362578444182872772216796875">
        <ele>256.20001220703125</ele>
        <time>2019-10-26T11:11:35.000Z</time>
      </trkpt>
      <trkpt lat="37.73185553960502147674560546875" lon="-1.53651726432144641876220703125">
        <ele>256.399993896484375</ele>
        <time>2019-10-26T11:11:39.000Z</time>
      </trkpt>
      <trkpt lat="37.73177993483841419219970703125" lon="-1.536786071956157684326171875">
        <ele>256.20001220703125</ele>
        <time>2019-10-26T11:11:43.000Z</time>
      </trkpt>
      <trkpt lat="37.73171941749751567840576171875" lon="-1.53707181103527545928955078125">
        <ele>256</ele>
        <time>2019-10-26T11:11:47.000Z</time>
      </trkpt>
      <trkpt lat="37.73165353573858737945556640625" lon="-1.5373572148382663726806640625">
        <ele>255.8000030517578125</ele>
        <time>2019-10-26T11:11:51.000Z</time>
      </trkpt>
      <trkpt lat="37.7315899170935153961181640625" lon="-1.537644378840923309326171875">
        <ele>255.600006103515625</ele>
        <time>2019-10-26T11:11:55.000Z</time>
      </trkpt>
      <trkpt lat="37.73153166286647319793701171875" lon="-1.53793078847229480743408203125">
        <ele>255.1999969482421875</ele>
        <time>2019-10-26T11:11:59.000Z</time>
      </trkpt>
      <trkpt lat="37.73146494291722774505615234375" lon="-1.53820621781051158905029296875">
        <ele>254.8000030517578125</ele>
        <time>2019-10-26T11:12:03.000Z</time>
      </trkpt>
      <trkpt lat="37.73140325210988521575927734375" lon="-1.5384614467620849609375">
        <ele>254.399993896484375</ele>
        <time>2019-10-26T11:12:07.000Z</time>
      </trkpt>
      <trkpt lat="37.73134876973927021026611328125" lon="-1.5386996604502201080322265625">
        <ele>254</ele>
        <time>2019-10-26T11:12:11.000Z</time>
      </trkpt>
      <trkpt lat="37.73131088353693485260009765625" lon="-1.53893577866256237030029296875">
        <ele>253.600006103515625</ele>
        <time>2019-10-26T11:12:15.000Z</time>
      </trkpt>
      <trkpt lat="37.73127115331590175628662109375" lon="-1.539173908531665802001953125">
        <ele>253.1999969482421875</ele>
        <time>2019-10-26T11:12:19.000Z</time>
      </trkpt>
      <trkpt lat="37.73120996542274951934814453125" lon="-1.53944070450961589813232421875">
        <ele>252.8000030517578125</ele>
        <time>2019-10-26T11:12:23.000Z</time>
      </trkpt>
      <trkpt lat="37.73116084747016429901123046875" lon="-1.5396850369870662689208984375">
        <ele>252.8000030517578125</ele>
        <time>2019-10-26T11:12:27.000Z</time>
      </trkpt>
      <trkpt lat="37.73114995099604129791259765625" lon="-1.5397400222718715667724609375">
        <ele>252.8000030517578125</ele>
        <time>2019-10-26T11:12:28.000Z</time>
      </trkpt>
      <trkpt lat="37.731090523302555084228515625" lon="-1.5399837680160999298095703125">
        <ele>253</ele>
        <time>2019-10-26T11:12:33.000Z</time>
      </trkpt>
      <trkpt lat="37.731028832495212554931640625" lon="-1.540252827107906341552734375">
        <ele>253</ele>
        <time>2019-10-26T11:12:38.000Z</time>
      </trkpt>
      <trkpt lat="37.73096722550690174102783203125" lon="-1.54048961587250232696533203125">
        <ele>253</ele>
        <time>2019-10-26T11:12:42.000Z</time>
      </trkpt>
      <trkpt lat="37.73090234957635402679443359375" lon="-1.5407461859285831451416015625">
        <ele>253</ele>
        <time>2019-10-26T11:12:46.000Z</time>
      </trkpt>
      <trkpt lat="37.73082255385816097259521484375" lon="-1.54102119617164134979248046875">
        <ele>252.8000030517578125</ele>
        <time>2019-10-26T11:12:50.000Z</time>
      </trkpt>
      <trkpt lat="37.73075248114764690399169921875" lon="-1.5412970446050167083740234375">
        <ele>252.600006103515625</ele>
        <time>2019-10-26T11:12:54.000Z</time>
      </trkpt>
      <trkpt lat="37.7306756190955638885498046875" lon="-1.5415719710290431976318359375">
        <ele>252.399993896484375</ele>
        <time>2019-10-26T11:12:58.000Z</time>
      </trkpt>
      <trkpt lat="37.73059925995767116546630859375" lon="-1.54184849001467227935791015625">
        <ele>252.399993896484375</ele>
        <time>2019-10-26T11:13:02.000Z</time>
      </trkpt>
      <trkpt lat="37.73053027689456939697265625" lon="-1.54211251996457576751708984375">
        <ele>252.1999969482421875</ele>
        <time>2019-10-26T11:13:06.000Z</time>
      </trkpt>
      <trkpt lat="37.73046749643981456756591796875" lon="-1.54235961847007274627685546875">
        <ele>252</ele>
        <time>2019-10-26T11:13:10.000Z</time>
      </trkpt>
      <trkpt lat="37.73040966130793094635009765625" lon="-1.54259045608341693878173828125">
        <ele>251.8000030517578125</ele>
        <time>2019-10-26T11:13:14.000Z</time>
      </trkpt>
      <trkpt lat="37.73034445010125637054443359375" lon="-1.54283319599926471710205078125">
        <ele>251.8000030517578125</ele>
        <time>2019-10-26T11:13:18.000Z</time>
      </trkpt>
      <trkpt lat="37.73027873598039150238037109375" lon="-1.543096639215946197509765625">
        <ele>251</ele>
        <time>2019-10-26T11:13:22.000Z</time>
      </trkpt>
      <trkpt lat="37.73020631633698940277099609375" lon="-1.54336008243262767791748046875">
        <ele>250.399993896484375</ele>
        <time>2019-10-26T11:13:26.000Z</time>
      </trkpt>
      <trkpt lat="37.73013733327388763427734375" lon="-1.54360148124396800994873046875">
        <ele>249.8000030517578125</ele>
        <time>2019-10-26T11:13:30.000Z</time>
      </trkpt>
      <trkpt lat="37.73008234798908233642578125" lon="-1.54383684508502483367919921875">
        <ele>249.399993896484375</ele>
        <time>2019-10-26T11:13:34.000Z</time>
      </trkpt>
      <trkpt lat="37.7300302125513553619384765625" lon="-1.544054187834262847900390625">
        <ele>249</ele>
        <time>2019-10-26T11:13:38.000Z</time>
      </trkpt>
      <trkpt lat="37.7299681864678859710693359375" lon="-1.54431662522256374359130859375">
        <ele>249</ele>
        <time>2019-10-26T11:13:43.000Z</time>
      </trkpt>
      <trkpt lat="37.7299121953547000885009765625" lon="-1.54457411728799343109130859375">
        <ele>248.8000030517578125</ele>
        <time>2019-10-26T11:13:48.000Z</time>
      </trkpt>
      <trkpt lat="37.7298738062381744384765625" lon="-1.5448425896465778350830078125">
        <ele>248.8000030517578125</ele>
        <time>2019-10-26T11:13:53.000Z</time>
      </trkpt>
      <trkpt lat="37.72985863499343395233154296875" lon="-1.54495750553905963897705078125">
        <ele>248.8000030517578125</ele>
        <time>2019-10-26T11:13:55.000Z</time>
      </trkpt>
      <trkpt lat="37.72981773130595684051513671875" lon="-1.54518884606659412384033203125">
        <ele>248.600006103515625</ele>
        <time>2019-10-26T11:13:59.000Z</time>
      </trkpt>
      <trkpt lat="37.7297707088291645050048828125" lon="-1.54542379081249237060546875">
        <ele>248.1999969482421875</ele>
        <time>2019-10-26T11:14:03.000Z</time>
      </trkpt>
      <trkpt lat="37.72972050122916698455810546875" lon="-1.54565672390162944793701171875">
        <ele>248</ele>
        <time>2019-10-26T11:14:07.000Z</time>
      </trkpt>
      <trkpt lat="37.72967004217207431793212890625" lon="-1.54589476995170116424560546875">
        <ele>247.399993896484375</ele>
        <time>2019-10-26T11:14:11.000Z</time>
      </trkpt>
      <trkpt lat="37.7296262048184871673583984375" lon="-1.5461488254368305206298828125">
        <ele>247</ele>
        <time>2019-10-26T11:14:15.000Z</time>
      </trkpt>
      <trkpt lat="37.72958069108426570892333984375" lon="-1.54642819426953792572021484375">
        <ele>246.600006103515625</ele>
        <time>2019-10-26T11:14:19.000Z</time>
      </trkpt>
      <trkpt lat="37.72954330779612064361572265625" lon="-1.54666322283446788787841796875">
        <ele>246.1999969482421875</ele>
        <time>2019-10-26T11:14:22.000Z</time>
      </trkpt>
      <trkpt lat="37.729492597281932830810546875" lon="-1.54691233299672603607177734375">
        <ele>245.8000030517578125</ele>
        <time>2019-10-26T11:14:25.000Z</time>
      </trkpt>
      <trkpt lat="37.729416154325008392333984375" lon="-1.54717393219470977783203125">
        <ele>245.600006103515625</ele>
        <time>2019-10-26T11:14:28.000Z</time>
      </trkpt>
      <trkpt lat="37.729319594800472259521484375" lon="-1.54743938706815242767333984375">
        <ele>245.600006103515625</ele>
        <time>2019-10-26T11:14:31.000Z</time>
      </trkpt>
      <trkpt lat="37.7292168326675891876220703125" lon="-1.5476917661726474761962890625">
        <ele>245.399993896484375</ele>
        <time>2019-10-26T11:14:34.000Z</time>
      </trkpt>
      <trkpt lat="37.7290994860231876373291015625" lon="-1.54791413806378841400146484375">
        <ele>245.600006103515625</ele>
        <time>2019-10-26T11:14:37.000Z</time>
      </trkpt>
      <trkpt lat="37.72898758761584758758544921875" lon="-1.54811982996761798858642578125">
        <ele>246</ele>
        <time>2019-10-26T11:14:40.000Z</time>
      </trkpt>
      <trkpt lat="37.72887661121785640716552734375" lon="-1.54830356128513813018798828125">
        <ele>245.8000030517578125</ele>
        <time>2019-10-26T11:14:43.000Z</time>
      </trkpt>
      <trkpt lat="37.72884475998580455780029296875" lon="-1.54836349189281463623046875">
        <ele>245.8000030517578125</ele>
        <time>2019-10-26T11:14:44.000Z</time>
      </trkpt>
      <trkpt lat="37.72878122515976428985595703125" lon="-1.5484816767275333404541015625">
        <ele>245.600006103515625</ele>
        <time>2019-10-26T11:14:46.000Z</time>
      </trkpt>
      <trkpt lat="37.72864795289933681488037109375" lon="-1.54870019294321537017822265625">
        <ele>245.399993896484375</ele>
        <time>2019-10-26T11:14:50.000Z</time>
      </trkpt>
      <trkpt lat="37.72855776362121105194091796875" lon="-1.54887420125305652618408203125">
        <ele>245.1999969482421875</ele>
        <time>2019-10-26T11:14:53.000Z</time>
      </trkpt>
      <trkpt lat="37.72842683829367160797119140625" lon="-1.54909171164035797119140625">
        <ele>245</ele>
        <time>2019-10-26T11:14:57.000Z</time>
      </trkpt>
      <trkpt lat="37.7282847650349140167236328125" lon="-1.5493118204176425933837890625">
        <ele>245</ele>
        <time>2019-10-26T11:15:01.000Z</time>
      </trkpt>
      <trkpt lat="37.72814922966063022613525390625" lon="-1.54953151009976863861083984375">
        <ele>245</ele>
        <time>2019-10-26T11:15:05.000Z</time>
      </trkpt>
      <trkpt lat="37.72800573147833347320556640625" lon="-1.54973703436553478240966796875">
        <ele>245</ele>
        <time>2019-10-26T11:15:09.000Z</time>
      </trkpt>
      <trkpt lat="37.72785183973610401153564453125" lon="-1.5499265491962432861328125">
        <ele>245.1999969482421875</ele>
        <time>2019-10-26T11:15:13.000Z</time>
      </trkpt>
      <trkpt lat="37.7276909910142421722412109375" lon="-1.55011363327503204345703125">
        <ele>245.399993896484375</ele>
        <time>2019-10-26T11:15:17.000Z</time>
      </trkpt>
      <trkpt lat="37.72752285003662109375" lon="-1.55029409565031528472900390625">
        <ele>245.600006103515625</ele>
        <time>2019-10-26T11:15:21.000Z</time>
      </trkpt>
      <trkpt lat="37.72734557278454303741455078125" lon="-1.5504644997417926788330078125">
        <ele>245.600006103515625</ele>
        <time>2019-10-26T11:15:25.000Z</time>
      </trkpt>
      <trkpt lat="37.7271729893982410430908203125" lon="-1.550638675689697265625">
        <ele>245.600006103515625</ele>
        <time>2019-10-26T11:15:29.000Z</time>
      </trkpt>
      <trkpt lat="37.72699554450809955596923828125" lon="-1.55082701705396175384521484375">
        <ele>245.8000030517578125</ele>
        <time>2019-10-26T11:15:33.000Z</time>
      </trkpt>
      <trkpt lat="37.726823799312114715576171875" lon="-1.551009155809879302978515625">
        <ele>246</ele>
        <time>2019-10-26T11:15:37.000Z</time>
      </trkpt>
      <trkpt lat="37.726653479039669036865234375" lon="-1.55119515024125576019287109375">
        <ele>246.1999969482421875</ele>
        <time>2019-10-26T11:15:41.000Z</time>
      </trkpt>
      <trkpt lat="37.726503945887088775634765625" lon="-1.55141207389533519744873046875">
        <ele>246.600006103515625</ele>
        <time>2019-10-26T11:15:45.000Z</time>
      </trkpt>
      <trkpt lat="37.72639338858425617218017578125" lon="-1.55165531672537326812744140625">
        <ele>246.600006103515625</ele>
        <time>2019-10-26T11:15:49.000Z</time>
      </trkpt>
      <trkpt lat="37.7263002656400203704833984375" lon="-1.5519031696021556854248046875">
        <ele>246.600006103515625</ele>
        <time>2019-10-26T11:15:53.000Z</time>
      </trkpt>
      <trkpt lat="37.72620077244937419891357421875" lon="-1.55214398168027400970458984375">
        <ele>246.399993896484375</ele>
        <time>2019-10-26T11:15:57.000Z</time>
      </trkpt>
      <trkpt lat="37.72611536085605621337890625" lon="-1.5523807704448699951171875">
        <ele>246.1999969482421875</ele>
        <time>2019-10-26T11:16:01.000Z</time>
      </trkpt>
      <trkpt lat="37.726031877100467681884765625" lon="-1.552601046860218048095703125">
        <ele>246.1999969482421875</ele>
        <time>2019-10-26T11:16:05.000Z</time>
      </trkpt>
      <trkpt lat="37.725945375859737396240234375" lon="-1.55282392166554927825927734375">
        <ele>246</ele>
        <time>2019-10-26T11:16:09.000Z</time>
      </trkpt>
      <trkpt lat="37.725870274007320404052734375" lon="-1.55305869877338409423828125">
        <ele>246</ele>
        <time>2019-10-26T11:16:13.000Z</time>
      </trkpt>
      <trkpt lat="37.72586197592318058013916015625" lon="-1.55331325717270374298095703125">
        <ele>245.8000030517578125</ele>
        <time>2019-10-26T11:16:17.000Z</time>
      </trkpt>
      <trkpt lat="37.72585175000131130218505859375" lon="-1.55356806702911853790283203125">
        <ele>245.600006103515625</ele>
        <time>2019-10-26T11:16:21.000Z</time>
      </trkpt>
      <trkpt lat="37.72584152407944202423095703125" lon="-1.5538157522678375244140625">
        <ele>245.1999969482421875</ele>
        <time>2019-10-26T11:16:25.000Z</time>
      </trkpt>
      <trkpt lat="37.72582626901566982269287109375" lon="-1.554000489413738250732421875">
        <ele>245</ele>
        <time>2019-10-26T11:16:28.000Z</time>
      </trkpt>
      <trkpt lat="37.725788466632366180419921875" lon="-1.5542554669082164764404296875">
        <ele>245</ele>
        <time>2019-10-26T11:16:32.000Z</time>
      </trkpt>
      <trkpt lat="37.7257245965301990509033203125" lon="-1.55449309386312961578369140625">
        <ele>245</ele>
        <time>2019-10-26T11:16:36.000Z</time>
      </trkpt>
      <trkpt lat="37.7256868779659271240234375" lon="-1.55460859648883342742919921875">
        <ele>245</ele>
        <time>2019-10-26T11:16:38.000Z</time>
      </trkpt>
      <trkpt lat="37.7256008796393871307373046875" lon="-1.55484362505376338958740234375">
        <ele>245</ele>
        <time>2019-10-26T11:16:42.000Z</time>
      </trkpt>
      <trkpt lat="37.72551362402737140655517578125" lon="-1.55508552677929401397705078125">
        <ele>245.600006103515625</ele>
        <time>2019-10-26T11:16:46.000Z</time>
      </trkpt>
      <trkpt lat="37.7254218421876430511474609375" lon="-1.555323489010334014892578125">
        <ele>246</ele>
        <time>2019-10-26T11:16:50.000Z</time>
      </trkpt>
      <trkpt lat="37.725332491099834442138671875" lon="-1.5555623732507228851318359375">
        <ele>246.1999969482421875</ele>
        <time>2019-10-26T11:16:54.000Z</time>
      </trkpt>
      <trkpt lat="37.725239954888820648193359375" lon="-1.55580167658627033233642578125">
        <ele>246.1999969482421875</ele>
        <time>2019-10-26T11:16:58.000Z</time>
      </trkpt>
      <trkpt lat="37.72516527213156223297119140625" lon="-1.55605330131947994232177734375">
        <ele>245.8000030517578125</ele>
        <time>2019-10-26T11:17:02.000Z</time>
      </trkpt>
      <trkpt lat="37.72508405148983001708984375" lon="-1.5562902577221393585205078125">
        <ele>245.399993896484375</ele>
        <time>2019-10-26T11:17:06.000Z</time>
      </trkpt>
      <trkpt lat="37.72500182501971721649169921875" lon="-1.55651497654616832733154296875">
        <ele>245.1999969482421875</ele>
        <time>2019-10-26T11:17:10.000Z</time>
      </trkpt>
      <trkpt lat="37.72490124218165874481201171875" lon="-1.55676173977553844451904296875">
        <ele>245.8000030517578125</ele>
        <time>2019-10-26T11:17:15.000Z</time>
      </trkpt>
      <trkpt lat="37.7248656190931797027587890625" lon="-1.556846983730792999267578125">
        <ele>246</ele>
        <time>2019-10-26T11:17:17.000Z</time>
      </trkpt>
      <trkpt lat="37.7248287387192249298095703125" lon="-1.556973047554492950439453125">
        <ele>246.399993896484375</ele>
        <time>2019-10-26T11:17:20.000Z</time>
      </trkpt>
      <trkpt lat="37.72479814477264881134033203125" lon="-1.5570905618369579315185546875">
        <ele>246.600006103515625</ele>
        <time>2019-10-26T11:17:23.000Z</time>
      </trkpt>
      <trkpt lat="37.72475372068583965301513671875" lon="-1.55722944997251033782958984375">
        <ele>247</ele>
        <time>2019-10-26T11:17:27.000Z</time>
      </trkpt>
      <trkpt lat="37.72472069598734378814697265625" lon="-1.55734629370272159576416015625">
        <ele>247.399993896484375</ele>
        <time>2019-10-26T11:17:30.000Z</time>
      </trkpt>
      <trkpt lat="37.72465012036263942718505859375" lon="-1.5575601160526275634765625">
        <ele>247.1999969482421875</ele>
        <time>2019-10-26T11:17:35.000Z</time>
      </trkpt>
      <trkpt lat="37.7245749346911907196044921875" lon="-1.5577892772853374481201171875">
        <ele>247</ele>
        <time>2019-10-26T11:17:40.000Z</time>
      </trkpt>
      <trkpt lat="37.72449195384979248046875" lon="-1.5580494515597820281982421875">
        <ele>247</ele>
        <time>2019-10-26T11:17:45.000Z</time>
      </trkpt>
      <trkpt lat="37.7244193665683269500732421875" lon="-1.55826210044324398040771484375">
        <ele>247</ele>
        <time>2019-10-26T11:17:49.000Z</time>
      </trkpt>
      <trkpt lat="37.72435893304646015167236328125" lon="-1.558479107916355133056640625">
        <ele>247</ele>
        <time>2019-10-26T11:17:53.000Z</time>
      </trkpt>
      <trkpt lat="37.72427611984312534332275390625" lon="-1.55868974514305591583251953125">
        <ele>247</ele>
        <time>2019-10-26T11:17:57.000Z</time>
      </trkpt>
      <trkpt lat="37.7241893671452999114990234375" lon="-1.558904908597469329833984375">
        <ele>247</ele>
        <time>2019-10-26T11:18:01.000Z</time>
      </trkpt>
      <trkpt lat="37.72408492863178253173828125" lon="-1.55910531990230083465576171875">
        <ele>247</ele>
        <time>2019-10-26T11:18:05.000Z</time>
      </trkpt>
      <trkpt lat="37.7239939011633396148681640625" lon="-1.55931117944419384002685546875">
        <ele>247.1999969482421875</ele>
        <time>2019-10-26T11:18:09.000Z</time>
      </trkpt>
      <trkpt lat="37.72390522062778472900390625" lon="-1.55951435677707195281982421875">
        <ele>247.1999969482421875</ele>
        <time>2019-10-26T11:18:13.000Z</time>
      </trkpt>
      <trkpt lat="37.723810337483882904052734375" lon="-1.55971594154834747314453125">
        <ele>247.399993896484375</ele>
        <time>2019-10-26T11:18:17.000Z</time>
      </trkpt>
      <trkpt lat="37.72370816208422183990478515625" lon="-1.55990629456937313079833984375">
        <ele>247.399993896484375</ele>
        <time>2019-10-26T11:18:21.000Z</time>
      </trkpt>
      <trkpt lat="37.723568938672542572021484375" lon="-1.5601000003516674041748046875">
        <ele>247.600006103515625</ele>
        <time>2019-10-26T11:18:26.000Z</time>
      </trkpt>
      <trkpt lat="37.72343306802213191986083984375" lon="-1.56025364063680171966552734375">
        <ele>247.600006103515625</ele>
        <time>2019-10-26T11:18:31.000Z</time>
      </trkpt>
      <trkpt lat="37.723335921764373779296875" lon="-1.5603521279990673065185546875">
        <ele>247.600006103515625</ele>
        <time>2019-10-26T11:18:35.000Z</time>
      </trkpt>
      <trkpt lat="37.7232891507446765899658203125" lon="-1.5604024194180965423583984375">
        <ele>247.8000030517578125</ele>
        <time>2019-10-26T11:18:37.000Z</time>
      </trkpt>
      <trkpt lat="37.723118998110294342041015625" lon="-1.56055706553161144256591796875">
        <ele>248.1999969482421875</ele>
        <time>2019-10-26T11:18:43.000Z</time>
      </trkpt>
      <trkpt lat="37.72296535782516002655029296875" lon="-1.56070643104612827301025390625">
        <ele>248.399993896484375</ele>
        <time>2019-10-26T11:18:48.000Z</time>
      </trkpt>
      <trkpt lat="37.722809202969074249267578125" lon="-1.560864262282848358154296875">
        <ele>248.399993896484375</ele>
        <time>2019-10-26T11:18:53.000Z</time>
      </trkpt>
      <trkpt lat="37.72265271283686161041259765625" lon="-1.56104673631489276885986328125">
        <ele>248.399993896484375</ele>
        <time>2019-10-26T11:18:58.000Z</time>
      </trkpt>
      <trkpt lat="37.72250267677009105682373046875" lon="-1.56124320812523365020751953125">
        <ele>248.399993896484375</ele>
        <time>2019-10-26T11:19:03.000Z</time>
      </trkpt>
      <trkpt lat="37.72237778641283512115478515625" lon="-1.56142316758632659912109375">
        <ele>248.1999969482421875</ele>
        <time>2019-10-26T11:19:08.000Z</time>
      </trkpt>
      <trkpt lat="37.72223730571568012237548828125" lon="-1.561627686023712158203125">
        <ele>248.399993896484375</ele>
        <time>2019-10-26T11:19:13.000Z</time>
      </trkpt>
      <trkpt lat="37.722168825566768646240234375" lon="-1.56170454807579517364501953125">
        <ele>248.399993896484375</ele>
        <time>2019-10-26T11:19:15.000Z</time>
      </trkpt>
      <trkpt lat="37.721973694860935211181640625" lon="-1.56182021833956241607666015625">
        <ele>248.600006103515625</ele>
        <time>2019-10-26T11:19:20.000Z</time>
      </trkpt>
      <trkpt lat="37.72189683280885219573974609375" lon="-1.56187905929982662200927734375">
        <ele>248.8000030517578125</ele>
        <time>2019-10-26T11:19:22.000Z</time>
      </trkpt>
      <trkpt lat="37.721789963543415069580078125" lon="-1.56207033433020114898681640625">
        <ele>248.8000030517578125</ele>
        <time>2019-10-26T11:19:26.000Z</time>
      </trkpt>
      <trkpt lat="37.7216989360749721527099609375" lon="-1.56227049417793750762939453125">
        <ele>249</ele>
        <time>2019-10-26T11:19:30.000Z</time>
      </trkpt>
      <trkpt lat="37.72161972709000110626220703125" lon="-1.5624824725091457366943359375">
        <ele>249.1999969482421875</ele>
        <time>2019-10-26T11:19:34.000Z</time>
      </trkpt>
      <trkpt lat="37.72154043428599834442138671875" lon="-1.56270937062799930572509765625">
        <ele>249.1999969482421875</ele>
        <time>2019-10-26T11:19:38.000Z</time>
      </trkpt>
      <trkpt lat="37.7214575372636318206787109375" lon="-1.56291338615119457244873046875">
        <ele>249.1999969482421875</ele>
        <time>2019-10-26T11:19:42.000Z</time>
      </trkpt>
      <trkpt lat="37.72135309875011444091796875" lon="-1.563142128288745880126953125">
        <ele>249.399993896484375</ele>
        <time>2019-10-26T11:19:47.000Z</time>
      </trkpt>
      <trkpt lat="37.721260227262973785400390625" lon="-1.5633334033191204071044921875">
        <ele>249.8000030517578125</ele>
        <time>2019-10-26T11:19:52.000Z</time>
      </trkpt>
      <trkpt lat="37.72118235938251018524169921875" lon="-1.56355057843029499053955078125">
        <ele>250</ele>
        <time>2019-10-26T11:19:58.000Z</time>
      </trkpt>
      <trkpt lat="37.7210897393524646759033203125" lon="-1.5637960843741893768310546875">
        <ele>250.399993896484375</ele>
        <time>2019-10-26T11:20:03.000Z</time>
      </trkpt>
      <trkpt lat="37.7210716344416141510009765625" lon="-1.56385014764964580535888671875">
        <ele>250.600006103515625</ele>
        <time>2019-10-26T11:20:04.000Z</time>
      </trkpt>
      <trkpt lat="37.7210344187915325164794921875" lon="-1.5640188753604888916015625">
        <ele>250.600006103515625</ele>
        <time>2019-10-26T11:20:07.000Z</time>
      </trkpt>
      <trkpt lat="37.72098806686699390411376953125" lon="-1.5642487071454524993896484375">
        <ele>251</ele>
        <time>2019-10-26T11:20:11.000Z</time>
      </trkpt>
      <trkpt lat="37.72095235995948314666748046875" lon="-1.56447342596948146820068359375">
        <ele>251.399993896484375</ele>
        <time>2019-10-26T11:20:15.000Z</time>
      </trkpt>
      <trkpt lat="37.7209086902439594268798828125" lon="-1.5646974742412567138671875">
        <ele>251.8000030517578125</ele>
        <time>2019-10-26T11:20:19.000Z</time>
      </trkpt>
      <trkpt lat="37.720846831798553466796875" lon="-1.5649239532649517059326171875">
        <ele>252</ele>
        <time>2019-10-26T11:20:23.000Z</time>
      </trkpt>
      <trkpt lat="37.7207812853157520294189453125" lon="-1.56515252776443958282470703125">
        <ele>252.1999969482421875</ele>
        <time>2019-10-26T11:20:27.000Z</time>
      </trkpt>
      <trkpt lat="37.72072353400290012359619140625" lon="-1.56539442948997020721435546875">
        <ele>252.1999969482421875</ele>
        <time>2019-10-26T11:20:31.000Z</time>
      </trkpt>
      <trkpt lat="37.720681540668010711669921875" lon="-1.56564739532768726348876953125">
        <ele>252.1999969482421875</ele>
        <time>2019-10-26T11:20:35.000Z</time>
      </trkpt>
      <trkpt lat="37.7206750027835369110107421875" lon="-1.565909497439861297607421875">
        <ele>252.1999969482421875</ele>
        <time>2019-10-26T11:20:39.000Z</time>
      </trkpt>
      <trkpt lat="37.720648683607578277587890625" lon="-1.5661698393523693084716796875">
        <ele>252.1999969482421875</ele>
        <time>2019-10-26T11:20:43.000Z</time>
      </trkpt>
      <trkpt lat="37.720602415502071380615234375" lon="-1.5664207935333251953125">
        <ele>252.399993896484375</ele>
        <time>2019-10-26T11:20:47.000Z</time>
      </trkpt>
      <trkpt lat="37.72054533474147319793701171875" lon="-1.56664065085351467132568359375">
        <ele>252.399993896484375</ele>
        <time>2019-10-26T11:20:51.000Z</time>
      </trkpt>
      <trkpt lat="37.72045648656785488128662109375" lon="-1.5668392181396484375">
        <ele>252.399993896484375</ele>
        <time>2019-10-26T11:20:56.000Z</time>
      </trkpt>
      <trkpt lat="37.72039915435016155242919921875" lon="-1.56694876961410045623779296875">
        <ele>252.600006103515625</ele>
        <time>2019-10-26T11:21:00.000Z</time>
      </trkpt>
      <trkpt lat="37.72039848379790782928466796875" lon="-1.5669346041977405548095703125">
        <ele>252.600006103515625</ele>
        <time>2019-10-26T11:23:38.000Z</time>
      </trkpt>
      <trkpt lat="37.72038456983864307403564453125" lon="-1.5669553913176059722900390625">
        <ele>252.600006103515625</ele>
        <time>2019-10-26T11:23:50.000Z</time>
      </trkpt>
      <trkpt lat="37.72037350572645664215087890625" lon="-1.5670023299753665924072265625">
        <ele>252.600006103515625</ele>
        <time>2019-10-26T11:28:27.000Z</time>
      </trkpt>
      <trkpt lat="37.7202902734279632568359375" lon="-1.567221768200397491455078125">
        <ele>252.8000030517578125</ele>
        <time>2019-10-26T11:28:46.000Z</time>
      </trkpt>
      <trkpt lat="37.7202203683555126190185546875" lon="-1.56744380481541156768798828125">
        <ele>252.8000030517578125</ele>
        <time>2019-10-26T11:28:52.000Z</time>
      </trkpt>
      <trkpt lat="37.7201521396636962890625" lon="-1.56766198575496673583984375">
        <ele>252.600006103515625</ele>
        <time>2019-10-26T11:28:57.000Z</time>
      </trkpt>
      <trkpt lat="37.7200973220169544219970703125" lon="-1.56790296547114849090576171875">
        <ele>252.399993896484375</ele>
        <time>2019-10-26T11:29:02.000Z</time>
      </trkpt>
      <trkpt lat="37.72005666978657245635986328125" lon="-1.56815827824175357818603515625">
        <ele>252</ele>
        <time>2019-10-26T11:29:07.000Z</time>
      </trkpt>
      <trkpt lat="37.72001744247972965240478515625" lon="-1.56841862015426158905029296875">
        <ele>252.8000030517578125</ele>
        <time>2019-10-26T11:29:12.000Z</time>
      </trkpt>
      <trkpt lat="37.71996430121362209320068359375" lon="-1.5686790458858013153076171875">
        <ele>253.600006103515625</ele>
        <time>2019-10-26T11:29:17.000Z</time>
      </trkpt>
      <trkpt lat="37.71987654268741607666015625" lon="-1.5689294971525669097900390625">
        <ele>254.399993896484375</ele>
        <time>2019-10-26T11:29:22.000Z</time>
      </trkpt>
      <trkpt lat="37.71979666315019130706787109375" lon="-1.56913476996123790740966796875">
        <ele>254.8000030517578125</ele>
        <time>2019-10-26T11:29:26.000Z</time>
      </trkpt>
      <trkpt lat="37.71969004534184932708740234375" lon="-1.56937818042933940887451171875">
        <ele>255</ele>
        <time>2019-10-26T11:29:31.000Z</time>
      </trkpt>
      <trkpt lat="37.71959667094051837921142578125" lon="-1.5695785917341709136962890625">
        <ele>255</ele>
        <time>2019-10-26T11:29:35.000Z</time>
      </trkpt>
      <trkpt lat="37.71949960850179195404052734375" lon="-1.56977632082998752593994140625">
        <ele>255</ele>
        <time>2019-10-26T11:29:39.000Z</time>
      </trkpt>
      <trkpt lat="37.71939466707408428192138671875" lon="-1.56996893696486949920654296875">
        <ele>255</ele>
        <time>2019-10-26T11:29:43.000Z</time>
      </trkpt>
      <trkpt lat="37.7192876301705837249755859375" lon="-1.570170186460018157958984375">
        <ele>255</ele>
        <time>2019-10-26T11:29:47.000Z</time>
      </trkpt>
      <trkpt lat="37.71918461658060550689697265625" lon="-1.57035919837653636932373046875">
        <ele>255</ele>
        <time>2019-10-26T11:29:51.000Z</time>
      </trkpt>
      <trkpt lat="37.719058804214000701904296875" lon="-1.5705901198089122772216796875">
        <ele>255</ele>
        <time>2019-10-26T11:29:56.000Z</time>
      </trkpt>
      <trkpt lat="37.718933410942554473876953125" lon="-1.57082565128803253173828125">
        <ele>255.399993896484375</ele>
        <time>2019-10-26T11:30:01.000Z</time>
      </trkpt>
      <trkpt lat="37.71883492358028888702392578125" lon="-1.571017093956470489501953125">
        <ele>255.8000030517578125</ele>
        <time>2019-10-26T11:30:05.000Z</time>
      </trkpt>
      <trkpt lat="37.71873551420867443084716796875" lon="-1.57122236676514148712158203125">
        <ele>256.399993896484375</ele>
        <time>2019-10-26T11:30:09.000Z</time>
      </trkpt>
      <trkpt lat="37.71864985115826129913330078125" lon="-1.57143761403858661651611328125">
        <ele>257</ele>
        <time>2019-10-26T11:30:13.000Z</time>
      </trkpt>
      <trkpt lat="37.7185671217739582061767578125" lon="-1.57164984382688999176025390625">
        <ele>257.399993896484375</ele>
        <time>2019-10-26T11:30:17.000Z</time>
      </trkpt>
      <trkpt lat="37.718474082648754119873046875" lon="-1.57190524041652679443359375">
        <ele>257.600006103515625</ele>
        <time>2019-10-26T11:30:22.000Z</time>
      </trkpt>
      <trkpt lat="37.7183711528778076171875" lon="-1.57215342856943607330322265625">
        <ele>257.79998779296875</ele>
        <time>2019-10-26T11:30:27.000Z</time>
      </trkpt>
      <trkpt lat="37.71827199496328830718994140625" lon="-1.57237672246992588043212890625">
        <ele>258</ele>
        <time>2019-10-26T11:30:32.000Z</time>
      </trkpt>
      <trkpt lat="37.71816655062139034271240234375" lon="-1.57257772050797939300537109375">
        <ele>258.399993896484375</ele>
        <time>2019-10-26T11:30:37.000Z</time>
      </trkpt>
      <trkpt lat="37.71805222146213054656982421875" lon="-1.5727630443871021270751953125">
        <ele>258.79998779296875</ele>
        <time>2019-10-26T11:30:42.000Z</time>
      </trkpt>
      <trkpt lat="37.71789849735796451568603515625" lon="-1.57291400246322154998779296875">
        <ele>259.20001220703125</ele>
        <time>2019-10-26T11:30:47.000Z</time>
      </trkpt>
      <trkpt lat="37.7177202142775058746337890625" lon="-1.573040150105953216552734375">
        <ele>259.600006103515625</ele>
        <time>2019-10-26T11:30:52.000Z</time>
      </trkpt>
      <trkpt lat="37.71768609993159770965576171875" lon="-1.5730731748044490814208984375">
        <ele>259.600006103515625</ele>
        <time>2019-10-26T11:30:53.000Z</time>
      </trkpt>
      <trkpt lat="37.7176078967750072479248046875" lon="-1.5733025036752223968505859375">
        <ele>259.600006103515625</ele>
        <time>2019-10-26T11:30:58.000Z</time>
      </trkpt>
      <trkpt lat="37.717607729136943817138671875" lon="-1.573351286351680755615234375">
        <ele>259.399993896484375</ele>
        <time>2019-10-26T11:30:59.000Z</time>
      </trkpt>
      <trkpt lat="37.71760580129921436309814453125" lon="-1.57340115867555141448974609375">
        <ele>259.20001220703125</ele>
        <time>2019-10-26T11:31:00.000Z</time>
      </trkpt>
      <trkpt lat="37.71757780574262142181396484375" lon="-1.57366770319640636444091796875">
        <ele>258.79998779296875</ele>
        <time>2019-10-26T11:31:06.000Z</time>
      </trkpt>
      <trkpt lat="37.717555426061153411865234375" lon="-1.5739254467189311981201171875">
        <ele>258.20001220703125</ele>
        <time>2019-10-26T11:31:12.000Z</time>
      </trkpt>
      <trkpt lat="37.7175498940050601959228515625" lon="-1.57396710477769374847412109375">
        <ele>258</ele>
        <time>2019-10-26T11:31:13.000Z</time>
      </trkpt>
      <trkpt lat="37.71750806830823421478271484375" lon="-1.57422325573861598968505859375">
        <ele>259</ele>
        <time>2019-10-26T11:31:19.000Z</time>
      </trkpt>
      <trkpt lat="37.71745157428085803985595703125" lon="-1.5744387544691562652587890625">
        <ele>259.79998779296875</ele>
        <time>2019-10-26T11:31:24.000Z</time>
      </trkpt>
      <trkpt lat="37.717373706400394439697265625" lon="-1.5746617130935192108154296875">
        <ele>260.600006103515625</ele>
        <time>2019-10-26T11:31:29.000Z</time>
      </trkpt>
      <trkpt lat="37.717271111905574798583984375" lon="-1.57487712800502777099609375">
        <ele>261.20001220703125</ele>
        <time>2019-10-26T11:31:34.000Z</time>
      </trkpt>
      <trkpt lat="37.7171455509960651397705078125" lon="-1.57508776523172855377197265625">
        <ele>261.20001220703125</ele>
        <time>2019-10-26T11:31:39.000Z</time>
      </trkpt>
      <trkpt lat="37.71701018325984477996826171875" lon="-1.57527250237762928009033203125">
        <ele>261.20001220703125</ele>
        <time>2019-10-26T11:31:44.000Z</time>
      </trkpt>
      <trkpt lat="37.71689082495868206024169921875" lon="-1.57551272772252559661865234375">
        <ele>261.399993896484375</ele>
        <time>2019-10-26T11:31:49.000Z</time>
      </trkpt>
      <trkpt lat="37.71681404672563076019287109375" lon="-1.57572738826274871826171875">
        <ele>261.79998779296875</ele>
        <time>2019-10-26T11:31:53.000Z</time>
      </trkpt>
      <trkpt lat="37.71673567593097686767578125" lon="-1.575951017439365386962890625">
        <ele>262.20001220703125</ele>
        <time>2019-10-26T11:31:57.000Z</time>
      </trkpt>
      <trkpt lat="37.71664691157639026641845703125" lon="-1.57618830911815166473388671875">
        <ele>262.600006103515625</ele>
        <time>2019-10-26T11:32:01.000Z</time>
      </trkpt>
      <trkpt lat="37.71657340228557586669921875" lon="-1.57641730271279811859130859375">
        <ele>263.20001220703125</ele>
        <time>2019-10-26T11:32:05.000Z</time>
      </trkpt>
      <trkpt lat="37.71655135788023471832275390625" lon="-1.576469354331493377685546875">
        <ele>263.399993896484375</ele>
        <time>2019-10-26T11:32:06.000Z</time>
      </trkpt>
      <trkpt lat="37.7164723165333271026611328125" lon="-1.5766775608062744140625">
        <ele>263.600006103515625</ele>
        <time>2019-10-26T11:32:10.000Z</time>
      </trkpt>
      <trkpt lat="37.7163895033299922943115234375" lon="-1.57690043561160564422607421875">
        <ele>263.600006103515625</ele>
        <time>2019-10-26T11:32:14.000Z</time>
      </trkpt>
      <trkpt lat="37.71629579365253448486328125" lon="-1.577124483883380889892578125">
        <ele>263.600006103515625</ele>
        <time>2019-10-26T11:32:18.000Z</time>
      </trkpt>
      <trkpt lat="37.71624525077641010284423828125" lon="-1.5772292576730251312255859375">
        <ele>263.399993896484375</ele>
        <time>2019-10-26T11:32:20.000Z</time>
      </trkpt>
      <trkpt lat="37.71615204401314258575439453125" lon="-1.57743352465331554412841796875">
        <ele>263.399993896484375</ele>
        <time>2019-10-26T11:32:24.000Z</time>
      </trkpt>
      <trkpt lat="37.71607006900012493133544921875" lon="-1.57764650881290435791015625">
        <ele>263.600006103515625</ele>
        <time>2019-10-26T11:32:28.000Z</time>
      </trkpt>
      <trkpt lat="37.71599094383418560028076171875" lon="-1.5778726525604724884033203125">
        <ele>263.79998779296875</ele>
        <time>2019-10-26T11:32:32.000Z</time>
      </trkpt>
      <trkpt lat="37.7159134112298488616943359375" lon="-1.57810340635478496551513671875">
        <ele>264</ele>
        <time>2019-10-26T11:32:36.000Z</time>
      </trkpt>
      <trkpt lat="37.7158530615270137786865234375" lon="-1.57834011130034923553466796875">
        <ele>264.20001220703125</ele>
        <time>2019-10-26T11:32:40.000Z</time>
      </trkpt>
      <trkpt lat="37.71579078398644924163818359375" lon="-1.57857949845492839813232421875">
        <ele>264.20001220703125</ele>
        <time>2019-10-26T11:32:44.000Z</time>
      </trkpt>
      <trkpt lat="37.7157323621213436126708984375" lon="-1.578812934458255767822265625">
        <ele>264.20001220703125</ele>
        <time>2019-10-26T11:32:48.000Z</time>
      </trkpt>
      <trkpt lat="37.71567058749496936798095703125" lon="-1.579046957194805145263671875">
        <ele>264.399993896484375</ele>
        <time>2019-10-26T11:32:52.000Z</time>
      </trkpt>
      <trkpt lat="37.71560956723988056182861328125" lon="-1.5792798064649105072021484375">
        <ele>264.399993896484375</ele>
        <time>2019-10-26T11:32:56.000Z</time>
      </trkpt>
      <trkpt lat="37.715563885867595672607421875" lon="-1.5795138292014598846435546875">
        <ele>264.79998779296875</ele>
        <time>2019-10-26T11:33:00.000Z</time>
      </trkpt>
      <trkpt lat="37.71552172489464282989501953125" lon="-1.57974709756672382354736328125">
        <ele>265</ele>
        <time>2019-10-26T11:33:04.000Z</time>
      </trkpt>
      <trkpt lat="37.71548819728195667266845703125" lon="-1.5799845568835735321044921875">
        <ele>265.20001220703125</ele>
        <time>2019-10-26T11:33:08.000Z</time>
      </trkpt>
      <trkpt lat="37.71544947288930416107177734375" lon="-1.580219753086566925048828125">
        <ele>265</ele>
        <time>2019-10-26T11:33:12.000Z</time>
      </trkpt>
      <trkpt lat="37.71540873683989048004150390625" lon="-1.58045184798538684844970703125">
        <ele>264.600006103515625</ele>
        <time>2019-10-26T11:33:16.000Z</time>
      </trkpt>
      <trkpt lat="37.71537370048463344573974609375" lon="-1.58068276941776275634765625">
        <ele>264.20001220703125</ele>
        <time>2019-10-26T11:33:20.000Z</time>
      </trkpt>
      <trkpt lat="37.71533447317779064178466796875" lon="-1.58090899698436260223388671875">
        <ele>264.399993896484375</ele>
        <time>2019-10-26T11:33:24.000Z</time>
      </trkpt>
      <trkpt lat="37.7152552641928195953369140625" lon="-1.58112273551523685455322265625">
        <ele>264.399993896484375</ele>
        <time>2019-10-26T11:33:28.000Z</time>
      </trkpt>
      <trkpt lat="37.71515023894608020782470703125" lon="-1.58132893033325672149658203125">
        <ele>264.20001220703125</ele>
        <time>2019-10-26T11:33:32.000Z</time>
      </trkpt>
      <trkpt lat="37.71503523923456668853759765625" lon="-1.5815358795225620269775390625">
        <ele>264</ele>
        <time>2019-10-26T11:33:36.000Z</time>
      </trkpt>
      <trkpt lat="37.7149233408272266387939453125" lon="-1.58173981122672557830810546875">
        <ele>264.20001220703125</ele>
        <time>2019-10-26T11:33:40.000Z</time>
      </trkpt>
      <trkpt lat="37.71481119096279144287109375" lon="-1.581935025751590728759765625">
        <ele>264.600006103515625</ele>
        <time>2019-10-26T11:33:44.000Z</time>
      </trkpt>
      <trkpt lat="37.7146765775978565216064453125" lon="-1.58211532048881053924560546875">
        <ele>264.79998779296875</ele>
        <time>2019-10-26T11:33:48.000Z</time>
      </trkpt>
      <trkpt lat="37.7145236916840076446533203125" lon="-1.5822832100093364715576171875">
        <ele>265</ele>
        <time>2019-10-26T11:33:52.000Z</time>
      </trkpt>
      <trkpt lat="37.71436166949570178985595703125" lon="-1.58245596103370189666748046875">
        <ele>265.20001220703125</ele>
        <time>2019-10-26T11:33:56.000Z</time>
      </trkpt>
      <trkpt lat="37.71427734754979610443115234375" lon="-1.582543216645717620849609375">
        <ele>265.20001220703125</ele>
        <time>2019-10-26T11:33:58.000Z</time>
      </trkpt>
      <trkpt lat="37.714120857417583465576171875" lon="-1.58271697349846363067626953125">
        <ele>265.20001220703125</ele>
        <time>2019-10-26T11:34:02.000Z</time>
      </trkpt>
      <trkpt lat="37.71397694014012813568115234375" lon="-1.58289399929344654083251953125">
        <ele>265.20001220703125</ele>
        <time>2019-10-26T11:34:06.000Z</time>
      </trkpt>
      <trkpt lat="37.71384601481258869171142578125" lon="-1.583062224090099334716796875">
        <ele>265</ele>
        <time>2019-10-26T11:34:10.000Z</time>
      </trkpt>
      <trkpt lat="37.71381684578955173492431640625" lon="-1.583107151091098785400390625">
        <ele>265</ele>
        <time>2019-10-26T11:34:11.000Z</time>
      </trkpt>
      <trkpt lat="37.71380477584898471832275390625" lon="-1.58335315994918346405029296875">
        <ele>265.20001220703125</ele>
        <time>2019-10-26T11:34:16.000Z</time>
      </trkpt>
      <trkpt lat="37.7138464339077472686767578125" lon="-1.58352398313581943511962890625">
        <ele>265.600006103515625</ele>
        <time>2019-10-26T11:34:20.000Z</time>
      </trkpt>
      <trkpt lat="37.7138476073741912841796875" lon="-1.58356991596519947052001953125">
        <ele>265.600006103515625</ele>
        <time>2019-10-26T11:34:21.000Z</time>
      </trkpt>
      <trkpt lat="37.7138263173401355743408203125" lon="-1.58381634391844272613525390625">
        <ele>265.79998779296875</ele>
        <time>2019-10-26T11:34:26.000Z</time>
      </trkpt>
      <trkpt lat="37.713803015649318695068359375" lon="-1.5839223749935626983642578125">
        <ele>266</ele>
        <time>2019-10-26T11:34:28.000Z</time>
      </trkpt>
      <trkpt lat="37.71374576725065708160400390625" lon="-1.584078110754489898681640625">
        <ele>266</ele>
        <time>2019-10-26T11:34:31.000Z</time>
      </trkpt>
      <trkpt lat="37.7136311866343021392822265625" lon="-1.58426008187234401702880859375">
        <ele>266</ele>
        <time>2019-10-26T11:34:35.000Z</time>
      </trkpt>
      <trkpt lat="37.7134960703551769256591796875" lon="-1.58448404632508754730224609375">
        <ele>265.79998779296875</ele>
        <time>2019-10-26T11:34:40.000Z</time>
      </trkpt>
      <trkpt lat="37.7133674919605255126953125" lon="-1.5847055800259113311767578125">
        <ele>265.79998779296875</ele>
        <time>2019-10-26T11:34:45.000Z</time>
      </trkpt>
      <trkpt lat="37.71325743757188320159912109375" lon="-1.5848973579704761505126953125">
        <ele>265.79998779296875</ele>
        <time>2019-10-26T11:34:49.000Z</time>
      </trkpt>
      <trkpt lat="37.71314579062163829803466796875" lon="-1.58509911037981510162353515625">
        <ele>266</ele>
        <time>2019-10-26T11:34:53.000Z</time>
      </trkpt>
      <trkpt lat="37.71302810870110988616943359375" lon="-1.58530077897012233734130859375">
        <ele>266.20001220703125</ele>
        <time>2019-10-26T11:34:57.000Z</time>
      </trkpt>
      <trkpt lat="37.712905816733837127685546875" lon="-1.58548719249665737152099609375">
        <ele>266.399993896484375</ele>
        <time>2019-10-26T11:35:01.000Z</time>
      </trkpt>
      <trkpt lat="37.7127463929355144500732421875" lon="-1.58568567596375942230224609375">
        <ele>266.600006103515625</ele>
        <time>2019-10-26T11:35:06.000Z</time>
      </trkpt>
      <trkpt lat="37.7126116119325160980224609375" lon="-1.5858606062829494476318359375">
        <ele>266.79998779296875</ele>
        <time>2019-10-26T11:35:10.000Z</time>
      </trkpt>
      <trkpt lat="37.71245621144771575927734375" lon="-1.58602212555706501007080078125">
        <ele>267</ele>
        <time>2019-10-26T11:35:14.000Z</time>
      </trkpt>
      <trkpt lat="37.7122811973094940185546875" lon="-1.58615623600780963897705078125">
        <ele>266.79998779296875</ele>
        <time>2019-10-26T11:35:18.000Z</time>
      </trkpt>
      <trkpt lat="37.71210861392319202423095703125" lon="-1.586301326751708984375">
        <ele>266.600006103515625</ele>
        <time>2019-10-26T11:35:22.000Z</time>
      </trkpt>
      <trkpt lat="37.71193586289882659912109375" lon="-1.5864501893520355224609375">
        <ele>266.600006103515625</ele>
        <time>2019-10-26T11:35:26.000Z</time>
      </trkpt>
      <trkpt lat="37.711763195693492889404296875" lon="-1.5866065956652164459228515625">
        <ele>266.399993896484375</ele>
        <time>2019-10-26T11:35:30.000Z</time>
      </trkpt>
      <trkpt lat="37.71159195341169834136962890625" lon="-1.586763672530651092529296875">
        <ele>266.600006103515625</ele>
        <time>2019-10-26T11:35:34.000Z</time>
      </trkpt>
      <trkpt lat="37.71143705584108829498291015625" lon="-1.58691647462546825408935546875">
        <ele>267</ele>
        <time>2019-10-26T11:35:38.000Z</time>
      </trkpt>
      <trkpt lat="37.711361534893512725830078125" lon="-1.5869797579944133758544921875">
        <ele>267.20001220703125</ele>
        <time>2019-10-26T11:35:40.000Z</time>
      </trkpt>
      <trkpt lat="37.71115022711455821990966796875" lon="-1.58704765141010284423828125">
        <ele>267.20001220703125</ele>
        <time>2019-10-26T11:35:45.000Z</time>
      </trkpt>
      <trkpt lat="37.710933387279510498046875" lon="-1.58709400333464145660400390625">
        <ele>267</ele>
        <time>2019-10-26T11:35:50.000Z</time>
      </trkpt>
      <trkpt lat="37.71080707199871540069580078125" lon="-1.587135158479213714599609375">
        <ele>266.79998779296875</ele>
        <time>2019-10-26T11:35:53.000Z</time>
      </trkpt>
      <trkpt lat="37.71072995848953723907470703125" lon="-1.58717782236635684967041015625">
        <ele>266.79998779296875</ele>
        <time>2019-10-26T11:35:55.000Z</time>
      </trkpt>
      <trkpt lat="37.710554860532283782958984375" lon="-1.5873126871883869171142578125">
        <ele>267</ele>
        <time>2019-10-26T11:35:59.000Z</time>
      </trkpt>
      <trkpt lat="37.71037406288087368011474609375" lon="-1.58745878376066684722900390625">
        <ele>267.399993896484375</ele>
        <time>2019-10-26T11:36:03.000Z</time>
      </trkpt>
      <trkpt lat="37.71020022220909595489501953125" lon="-1.58760529942810535430908203125">
        <ele>267.600006103515625</ele>
        <time>2019-10-26T11:36:07.000Z</time>
      </trkpt>
      <trkpt lat="37.71002252586185932159423828125" lon="-1.58774636685848236083984375">
        <ele>267.79998779296875</ele>
        <time>2019-10-26T11:36:11.000Z</time>
      </trkpt>
      <trkpt lat="37.70985237322747707366943359375" lon="-1.587884835898876190185546875">
        <ele>268.20001220703125</ele>
        <time>2019-10-26T11:36:15.000Z</time>
      </trkpt>
      <trkpt lat="37.70968138240277767181396484375" lon="-1.58801869489252567291259765625">
        <ele>268.399993896484375</ele>
        <time>2019-10-26T11:36:19.000Z</time>
      </trkpt>
      <trkpt lat="37.70951944403350353240966796875" lon="-1.58815397880971431732177734375">
        <ele>268.600006103515625</ele>
        <time>2019-10-26T11:36:23.000Z</time>
      </trkpt>
      <trkpt lat="37.7093725092709064483642578125" lon="-1.5882906876504421234130859375">
        <ele>268.600006103515625</ele>
        <time>2019-10-26T11:36:27.000Z</time>
      </trkpt>
      <trkpt lat="37.70920026116073131561279296875" lon="-1.588450782001018524169921875">
        <ele>268.600006103515625</ele>
        <time>2019-10-26T11:36:32.000Z</time>
      </trkpt>
      <trkpt lat="37.70900295116007328033447265625" lon="-1.588587574660778045654296875">
        <ele>268.399993896484375</ele>
        <time>2019-10-26T11:36:37.000Z</time>
      </trkpt>
      <trkpt lat="37.70883816294372081756591796875" lon="-1.5887141413986682891845703125">
        <ele>268.399993896484375</ele>
        <time>2019-10-26T11:36:41.000Z</time>
      </trkpt>
      <trkpt lat="37.70866759121417999267578125" lon="-1.58882939256727695465087890625">
        <ele>268.20001220703125</ele>
        <time>2019-10-26T11:36:45.000Z</time>
      </trkpt>
      <trkpt lat="37.70849802531301975250244140625" lon="-1.588940285146236419677734375">
        <ele>268.20001220703125</ele>
        <time>2019-10-26T11:36:49.000Z</time>
      </trkpt>
      <trkpt lat="37.7083304710686206817626953125" lon="-1.58905738033354282379150390625">
        <ele>268</ele>
        <time>2019-10-26T11:36:53.000Z</time>
      </trkpt>
      <trkpt lat="37.70828939974308013916015625" lon="-1.58908721990883350372314453125">
        <ele>268</ele>
        <time>2019-10-26T11:36:54.000Z</time>
      </trkpt>
      <trkpt lat="37.7081276290118694305419921875" lon="-1.58919886685907840728759765625">
        <ele>268.20001220703125</ele>
        <time>2019-10-26T11:36:58.000Z</time>
      </trkpt>
      <trkpt lat="37.7079656906425952911376953125" lon="-1.589329876005649566650390625">
        <ele>268.399993896484375</ele>
        <time>2019-10-26T11:37:02.000Z</time>
      </trkpt>
      <trkpt lat="37.70781322382390499114990234375" lon="-1.58946423791348934173583984375">
        <ele>268.600006103515625</ele>
        <time>2019-10-26T11:37:06.000Z</time>
      </trkpt>
      <trkpt lat="37.70766913890838623046875" lon="-1.58960639499127864837646484375">
        <ele>268.79998779296875</ele>
        <time>2019-10-26T11:37:10.000Z</time>
      </trkpt>
      <trkpt lat="37.70759873092174530029296875" lon="-1.589677892625331878662109375">
        <ele>268.79998779296875</ele>
        <time>2019-10-26T11:37:12.000Z</time>
      </trkpt>
      <trkpt lat="37.70742229185998439788818359375" lon="-1.58985030837357044219970703125">
        <ele>268.79998779296875</ele>
        <time>2019-10-26T11:37:17.000Z</time>
      </trkpt>
      <trkpt lat="37.7072793804109096527099609375" lon="-1.59000889398157596588134765625">
        <ele>268.79998779296875</ele>
        <time>2019-10-26T11:37:21.000Z</time>
      </trkpt>
      <trkpt lat="37.70714736543595790863037109375" lon="-1.59018038772046566009521484375">
        <ele>269</ele>
        <time>2019-10-26T11:37:25.000Z</time>
      </trkpt>
      <trkpt lat="37.70703278481960296630859375" lon="-1.59037367440760135650634765625">
        <ele>269</ele>
        <time>2019-10-26T11:37:29.000Z</time>
      </trkpt>
      <trkpt lat="37.70691367797553539276123046875" lon="-1.59057500772178173065185546875">
        <ele>269.20001220703125</ele>
        <time>2019-10-26T11:37:33.000Z</time>
      </trkpt>
      <trkpt lat="37.70679985173046588897705078125" lon="-1.5907680429518222808837890625">
        <ele>269.399993896484375</ele>
        <time>2019-10-26T11:37:37.000Z</time>
      </trkpt>
      <trkpt lat="37.70669876597821712493896484375" lon="-1.5909564681351184844970703125">
        <ele>269.600006103515625</ele>
        <time>2019-10-26T11:37:41.000Z</time>
      </trkpt>
      <trkpt lat="37.70657488144934177398681640625" lon="-1.5911817736923694610595703125">
        <ele>269.79998779296875</ele>
        <time>2019-10-26T11:37:46.000Z</time>
      </trkpt>
      <trkpt lat="37.7064448781311511993408203125" lon="-1.59139417111873626708984375">
        <ele>269.79998779296875</ele>
        <time>2019-10-26T11:37:51.000Z</time>
      </trkpt>
      <trkpt lat="37.706314623355865478515625" lon="-1.59158837981522083282470703125">
        <ele>269.79998779296875</ele>
        <time>2019-10-26T11:37:56.000Z</time>
      </trkpt>
      <trkpt lat="37.70618327893316745758056640625" lon="-1.59178568981587886810302734375">
        <ele>269.79998779296875</ele>
        <time>2019-10-26T11:38:01.000Z</time>
      </trkpt>
      <trkpt lat="37.706043384969234466552734375" lon="-1.59198953770101070404052734375">
        <ele>269.79998779296875</ele>
        <time>2019-10-26T11:38:06.000Z</time>
      </trkpt>
      <trkpt lat="37.70592260174453258514404296875" lon="-1.5922261588275432586669921875">
        <ele>270</ele>
        <time>2019-10-26T11:38:11.000Z</time>
      </trkpt>
      <trkpt lat="37.70589896477758884429931640625" lon="-1.59227686934173107147216796875">
        <ele>270</ele>
        <time>2019-10-26T11:38:12.000Z</time>
      </trkpt>
      <trkpt lat="37.70580860786139965057373046875" lon="-1.59248725511133670806884765625">
        <ele>270.399993896484375</ele>
        <time>2019-10-26T11:38:16.000Z</time>
      </trkpt>
      <trkpt lat="37.70574088208377361297607421875" lon="-1.59263075329363346099853515625">
        <ele>270.79998779296875</ele>
        <time>2019-10-26T11:38:19.000Z</time>
      </trkpt>
      <trkpt lat="37.70566326566040515899658203125" lon="-1.592864692211151123046875">
        <ele>271.399993896484375</ele>
        <time>2019-10-26T11:38:24.000Z</time>
      </trkpt>
      <trkpt lat="37.70558598451316356658935546875" lon="-1.593112461268901824951171875">
        <ele>272</ele>
        <time>2019-10-26T11:38:29.000Z</time>
      </trkpt>
      <trkpt lat="37.70555765368044376373291015625" lon="-1.59321539103984832763671875">
        <ele>272.20001220703125</ele>
        <time>2019-10-26T11:38:31.000Z</time>
      </trkpt>
      <trkpt lat="37.705513648688793182373046875" lon="-1.59348017536103725433349609375">
        <ele>272.600006103515625</ele>
        <time>2019-10-26T11:38:36.000Z</time>
      </trkpt>
      <trkpt lat="37.70551322959363460540771484375" lon="-1.5935300476849079132080078125">
        <ele>272.600006103515625</ele>
        <time>2019-10-26T11:38:37.000Z</time>
      </trkpt>
      <trkpt lat="37.7055409736931324005126953125" lon="-1.59371562302112579345703125">
        <ele>272.600006103515625</ele>
        <time>2019-10-26T11:38:41.000Z</time>
      </trkpt>
      <trkpt lat="37.70558933727443218231201171875" lon="-1.59395509399473667144775390625">
        <ele>272.600006103515625</ele>
        <time>2019-10-26T11:38:46.000Z</time>
      </trkpt>
      <trkpt lat="37.70562730729579925537109375" lon="-1.59420453943312168121337890625">
        <ele>273.20001220703125</ele>
        <time>2019-10-26T11:38:51.000Z</time>
      </trkpt>
      <trkpt lat="37.70565337501466274261474609375" lon="-1.59447326324880123138427734375">
        <ele>273.79998779296875</ele>
        <time>2019-10-26T11:38:56.000Z</time>
      </trkpt>
      <trkpt lat="37.7056569792330265045166015625" lon="-1.59453327767550945281982421875">
        <ele>274</ele>
        <time>2019-10-26T11:38:57.000Z</time>
      </trkpt>
      <trkpt lat="37.7056630142033100128173828125" lon="-1.59477232955396175384521484375">
        <ele>274.600006103515625</ele>
        <time>2019-10-26T11:39:01.000Z</time>
      </trkpt>
      <trkpt lat="37.70566276274621486663818359375" lon="-1.59482982940971851348876953125">
        <ele>274.79998779296875</ele>
        <time>2019-10-26T11:39:02.000Z</time>
      </trkpt>
      <trkpt lat="37.7056120522320270538330078125" lon="-1.59508891403675079345703125">
        <ele>274.20001220703125</ele>
        <time>2019-10-26T11:39:07.000Z</time>
      </trkpt>
      <trkpt lat="37.70554508082568645477294921875" lon="-1.5953398682177066802978515625">
        <ele>273.79998779296875</ele>
        <time>2019-10-26T11:39:12.000Z</time>
      </trkpt>
      <trkpt lat="37.705471403896808624267578125" lon="-1.5955970250070095062255859375">
        <ele>273.600006103515625</ele>
        <time>2019-10-26T11:39:17.000Z</time>
      </trkpt>
      <trkpt lat="37.70542605780065059661865234375" lon="-1.59584538079798221588134765625">
        <ele>273.399993896484375</ele>
        <time>2019-10-26T11:39:22.000Z</time>
      </trkpt>
      <trkpt lat="37.70542136393487453460693359375" lon="-1.59594051539897918701171875">
        <ele>273.399993896484375</ele>
        <time>2019-10-26T11:39:24.000Z</time>
      </trkpt>
      <trkpt lat="37.70555882714688777923583984375" lon="-1.59613975323736667633056640625">
        <ele>274</ele>
        <time>2019-10-26T11:39:30.000Z</time>
      </trkpt>
      <trkpt lat="37.7056281454861164093017578125" lon="-1.59623019397258758544921875">
        <ele>274.600006103515625</ele>
        <time>2019-10-26T11:39:33.000Z</time>
      </trkpt>
      <trkpt lat="37.70566561259329319000244140625" lon="-1.596380732953548431396484375">
        <ele>274.79998779296875</ele>
        <time>2019-10-26T11:39:37.000Z</time>
      </trkpt>
      <trkpt lat="37.70570836029946804046630859375" lon="-1.59664534963667392730712890625">
        <ele>275</ele>
        <time>2019-10-26T11:39:43.000Z</time>
      </trkpt>
      <trkpt lat="37.705792598426342010498046875" lon="-1.59686964936554431915283203125">
        <ele>274.79998779296875</ele>
        <time>2019-10-26T11:39:47.000Z</time>
      </trkpt>
      <trkpt lat="37.70583928562700748443603515625" lon="-1.5970977209508419036865234375">
        <ele>274.399993896484375</ele>
        <time>2019-10-26T11:39:51.000Z</time>
      </trkpt>
      <trkpt lat="37.7058272995054721832275390625" lon="-1.59735345281660556793212890625">
        <ele>273.79998779296875</ele>
        <time>2019-10-26T11:39:56.000Z</time>
      </trkpt>
      <trkpt lat="37.70580877549946308135986328125" lon="-1.597459316253662109375">
        <ele>273.79998779296875</ele>
        <time>2019-10-26T11:39:58.000Z</time>
      </trkpt>
      <trkpt lat="37.70578949712216854095458984375" lon="-1.5975714661180973052978515625">
        <ele>273.79998779296875</ele>
        <time>2019-10-26T11:40:00.000Z</time>
      </trkpt>
      <trkpt lat="37.70576116628944873809814453125" lon="-1.59784429706633090972900390625">
        <ele>273.600006103515625</ele>
        <time>2019-10-26T11:40:05.000Z</time>
      </trkpt>
      <trkpt lat="37.705728225409984588623046875" lon="-1.5980079956352710723876953125">
        <ele>273.399993896484375</ele>
        <time>2019-10-26T11:40:08.000Z</time>
      </trkpt>
      <trkpt lat="37.70569796673953533172607421875" lon="-1.598285771906375885009765625">
        <ele>273.600006103515625</ele>
        <time>2019-10-26T11:40:13.000Z</time>
      </trkpt>
      <trkpt lat="37.705673240125179290771484375" lon="-1.598511748015880584716796875">
        <ele>273.600006103515625</ele>
        <time>2019-10-26T11:40:17.000Z</time>
      </trkpt>
      <trkpt lat="37.7056546323001384735107421875" lon="-1.598740406334400177001953125">
        <ele>273.399993896484375</ele>
        <time>2019-10-26T11:40:21.000Z</time>
      </trkpt>
      <trkpt lat="37.70563594065606594085693359375" lon="-1.59891265444457530975341796875">
        <ele>273.20001220703125</ele>
        <time>2019-10-26T11:40:24.000Z</time>
      </trkpt>
      <trkpt lat="37.705596797168254852294921875" lon="-1.599100492894649505615234375">
        <ele>273.20001220703125</ele>
        <time>2019-10-26T11:40:28.000Z</time>
      </trkpt>
      <trkpt lat="37.70559621043503284454345703125" lon="-1.5992116369307041168212890625">
        <ele>273.20001220703125</ele>
        <time>2019-10-26T11:40:31.000Z</time>
      </trkpt>
      <trkpt lat="37.70557676441967487335205078125" lon="-1.5994587354362010955810546875">
        <ele>273.20001220703125</ele>
        <time>2019-10-26T11:40:36.000Z</time>
      </trkpt>
      <trkpt lat="37.70555756986141204833984375" lon="-1.59951514564454555511474609375">
        <ele>273.20001220703125</ele>
        <time>2019-10-26T11:40:37.000Z</time>
      </trkpt>
      <trkpt lat="37.70553485490381717681884765625" lon="-1.59957088530063629150390625">
        <ele>273.20001220703125</ele>
        <time>2019-10-26T11:40:38.000Z</time>
      </trkpt>
      <trkpt lat="37.7054370380938053131103515625" lon="-1.5997769124805927276611328125">
        <ele>273.20001220703125</ele>
        <time>2019-10-26T11:40:42.000Z</time>
      </trkpt>
      <trkpt lat="37.70534441806375980377197265625" lon="-1.59998939372599124908447265625">
        <ele>273.600006103515625</ele>
        <time>2019-10-26T11:40:46.000Z</time>
      </trkpt>
      <trkpt lat="37.70519949495792388916015625" lon="-1.60014479421079158782958984375">
        <ele>274.399993896484375</ele>
        <time>2019-10-26T11:40:50.000Z</time>
      </trkpt>
      <trkpt lat="37.70504300482571125030517578125" lon="-1.6002858616411685943603515625">
        <ele>275</ele>
        <time>2019-10-26T11:40:54.000Z</time>
      </trkpt>
      <trkpt lat="37.70492750220000743865966796875" lon="-1.60039206035435199737548828125">
        <ele>275.20001220703125</ele>
        <time>2019-10-26T11:40:57.000Z</time>
      </trkpt>
      <trkpt lat="37.7047871053218841552734375" lon="-1.60057998262345790863037109375">
        <ele>275.399993896484375</ele>
        <time>2019-10-26T11:41:01.000Z</time>
      </trkpt>
      <trkpt lat="37.70465039648115634918212890625" lon="-1.600756086409091949462890625">
        <ele>275.79998779296875</ele>
        <time>2019-10-26T11:41:05.000Z</time>
      </trkpt>
      <trkpt lat="37.70458166487514972686767578125" lon="-1.60084853880107402801513671875">
        <ele>275.79998779296875</ele>
        <time>2019-10-26T11:41:07.000Z</time>
      </trkpt>
      <trkpt lat="37.70445191301405429840087890625" lon="-1.60103310830891132354736328125">
        <ele>276.20001220703125</ele>
        <time>2019-10-26T11:41:11.000Z</time>
      </trkpt>
      <trkpt lat="37.70433858968317508697509765625" lon="-1.60122488625347614288330078125">
        <ele>276.399993896484375</ele>
        <time>2019-10-26T11:41:15.000Z</time>
      </trkpt>
      <trkpt lat="37.70423096604645252227783203125" lon="-1.60140828229486942291259765625">
        <ele>276.79998779296875</ele>
        <time>2019-10-26T11:41:19.000Z</time>
      </trkpt>
      <trkpt lat="37.7041247673332691192626953125" lon="-1.6015967912971973419189453125">
        <ele>277</ele>
        <time>2019-10-26T11:41:23.000Z</time>
      </trkpt>
      <trkpt lat="37.704018652439117431640625" lon="-1.60179468803107738494873046875">
        <ele>277.20001220703125</ele>
        <time>2019-10-26T11:41:27.000Z</time>
      </trkpt>
      <trkpt lat="37.70390993915498256683349609375" lon="-1.6019870527088642120361328125">
        <ele>277.399993896484375</ele>
        <time>2019-10-26T11:41:31.000Z</time>
      </trkpt>
      <trkpt lat="37.703809104859828948974609375" lon="-1.60217639990150928497314453125">
        <ele>277.600006103515625</ele>
        <time>2019-10-26T11:41:35.000Z</time>
      </trkpt>
      <trkpt lat="37.7037093602120876312255859375" lon="-1.6023786552250385284423828125">
        <ele>277.79998779296875</ele>
        <time>2019-10-26T11:41:40.000Z</time>
      </trkpt>
      <trkpt lat="37.70367658697068691253662109375" lon="-1.6024564392864704132080078125">
        <ele>278</ele>
        <time>2019-10-26T11:41:42.000Z</time>
      </trkpt>
      <trkpt lat="37.70360366441309452056884765625" lon="-1.60267596133053302764892578125">
        <ele>278.399993896484375</ele>
        <time>2019-10-26T11:41:47.000Z</time>
      </trkpt>
      <trkpt lat="37.7035211026668548583984375" lon="-1.60290814004838466644287109375">
        <ele>278.79998779296875</ele>
        <time>2019-10-26T11:41:52.000Z</time>
      </trkpt>
      <trkpt lat="37.703425884246826171875" lon="-1.60315942950546741485595703125">
        <ele>279</ele>
        <time>2019-10-26T11:41:57.000Z</time>
      </trkpt>
      <trkpt lat="37.70334466360509395599365234375" lon="-1.6033623553812503814697265625">
        <ele>279.20001220703125</ele>
        <time>2019-10-26T11:42:01.000Z</time>
      </trkpt>
      <trkpt lat="37.70325162447988986968994140625" lon="-1.603622026741504669189453125">
        <ele>279.20001220703125</ele>
        <time>2019-10-26T11:42:06.000Z</time>
      </trkpt>
      <trkpt lat="37.7031722478568553924560546875" lon="-1.60383425652980804443359375">
        <ele>279.399993896484375</ele>
        <time>2019-10-26T11:42:10.000Z</time>
      </trkpt>
      <trkpt lat="37.70309555344283580780029296875" lon="-1.6040945984423160552978515625">
        <ele>279.600006103515625</ele>
        <time>2019-10-26T11:42:15.000Z</time>
      </trkpt>
      <trkpt lat="37.70303972996771335601806640625" lon="-1.6043494082987308502197265625">
        <ele>280.399993896484375</ele>
        <time>2019-10-26T11:42:20.000Z</time>
      </trkpt>
      <trkpt lat="37.7029918693006038665771484375" lon="-1.60460782237350940704345703125">
        <ele>280.79998779296875</ele>
        <time>2019-10-26T11:42:25.000Z</time>
      </trkpt>
      <trkpt lat="37.70296521484851837158203125" lon="-1.60471075214445590972900390625">
        <ele>280.79998779296875</ele>
        <time>2019-10-26T11:42:27.000Z</time>
      </trkpt>
      <trkpt lat="37.7029110677540302276611328125" lon="-1.60495407879352569580078125">
        <ele>281.20001220703125</ele>
        <time>2019-10-26T11:42:32.000Z</time>
      </trkpt>
      <trkpt lat="37.70274619571864604949951171875" lon="-1.60499070771038532257080078125">
        <ele>281.399993896484375</ele>
        <time>2019-10-26T11:42:38.000Z</time>
      </trkpt>
      <trkpt lat="37.70271937362849712371826171875" lon="-1.60496480762958526611328125">
        <ele>281.20001220703125</ele>
        <time>2019-10-26T11:42:39.000Z</time>
      </trkpt>
      <trkpt lat="37.7026894502341747283935546875" lon="-1.60494041629135608673095703125">
        <ele>281.20001220703125</ele>
        <time>2019-10-26T11:42:40.000Z</time>
      </trkpt>
      <trkpt lat="37.702564895153045654296875" lon="-1.60484276711940765380859375">
        <ele>281</ele>
        <time>2019-10-26T11:42:44.000Z</time>
      </trkpt>
      <trkpt lat="37.70239918492734432220458984375" lon="-1.6047188825905323028564453125">
        <ele>280.399993896484375</ele>
        <time>2019-10-26T11:42:49.000Z</time>
      </trkpt>
      <trkpt lat="37.7022690139710903167724609375" lon="-1.6046233288943767547607421875">
        <ele>279.79998779296875</ele>
        <time>2019-10-26T11:42:53.000Z</time>
      </trkpt>
      <trkpt lat="37.70211084745824337005615234375" lon="-1.604503132402896881103515625">
        <ele>279.20001220703125</ele>
        <time>2019-10-26T11:42:58.000Z</time>
      </trkpt>
      <trkpt lat="37.70195527933537960052490234375" lon="-1.60436776466667652130126953125">
        <ele>278.20001220703125</ele>
        <time>2019-10-26T11:43:03.000Z</time>
      </trkpt>
      <trkpt lat="37.70181831903755664825439453125" lon="-1.60421571694314479827880859375">
        <ele>277.20001220703125</ele>
        <time>2019-10-26T11:43:08.000Z</time>
      </trkpt>
      <trkpt lat="37.70170181058347225189208984375" lon="-1.60402226261794567108154296875">
        <ele>276</ele>
        <time>2019-10-26T11:43:15.000Z</time>
      </trkpt>
      <trkpt lat="37.70158848725259304046630859375" lon="-1.60382377915084362030029296875">
        <ele>275.399993896484375</ele>
        <time>2019-10-26T11:43:20.000Z</time>
      </trkpt>
      <trkpt lat="37.7014630101621150970458984375" lon="-1.60365362651646137237548828125">
        <ele>274.79998779296875</ele>
        <time>2019-10-26T11:43:24.000Z</time>
      </trkpt>
      <trkpt lat="37.7013057656586170196533203125" lon="-1.60352806560695171356201171875">
        <ele>274.399993896484375</ele>
        <time>2019-10-26T11:43:27.000Z</time>
      </trkpt>
      <trkpt lat="37.70113368518650531768798828125" lon="-1.60342924296855926513671875">
        <ele>274</ele>
        <time>2019-10-26T11:43:30.000Z</time>
      </trkpt>
      <trkpt lat="37.70093117840588092803955078125" lon="-1.6033499501645565032958984375">
        <ele>273.399993896484375</ele>
        <time>2019-10-26T11:43:34.000Z</time>
      </trkpt>
      <trkpt lat="37.7008226327598094940185546875" lon="-1.60329689271748065948486328125">
        <ele>273.20001220703125</ele>
        <time>2019-10-26T11:43:37.000Z</time>
      </trkpt>
      <trkpt lat="37.70065315067768096923828125" lon="-1.603264622390270233154296875">
        <ele>273.399993896484375</ele>
        <time>2019-10-26T11:43:42.000Z</time>
      </trkpt>
      <trkpt lat="37.70064032636582851409912109375" lon="-1.60338054411113262176513671875">
        <ele>273.399993896484375</ele>
        <time>2019-10-26T11:43:51.000Z</time>
      </trkpt>
      <trkpt lat="37.70065809600055217742919921875" lon="-1.60338758490979671478271484375">
        <ele>273.20001220703125</ele>
        <time>2019-10-26T11:43:52.000Z</time>
      </trkpt>
      <trkpt lat="37.700688354671001434326171875" lon="-1.60339965485036373138427734375">
        <ele>273.399993896484375</ele>
        <time>2019-10-26T11:43:55.000Z</time>
      </trkpt>
      <trkpt lat="37.70085171796381473541259765625" lon="-1.60353242419660091400146484375">
        <ele>273.79998779296875</ele>
        <time>2019-10-26T11:44:10.000Z</time>
      </trkpt>
      <trkpt lat="37.70091139711439609527587890625" lon="-1.6037445701658725738525390625">
        <ele>274.399993896484375</ele>
        <time>2019-10-26T11:44:17.000Z</time>
      </trkpt>
      <trkpt lat="37.70084015093743801116943359375" lon="-1.60397850908339023590087890625">
        <ele>274.79998779296875</ele>
        <time>2019-10-26T11:44:23.000Z</time>
      </trkpt>
      <trkpt lat="37.7007713355123996734619140625" lon="-1.60421269945800304412841796875">
        <ele>275.20001220703125</ele>
        <time>2019-10-26T11:44:29.000Z</time>
      </trkpt>
      <trkpt lat="37.700696401298046112060546875" lon="-1.60443901084363460540771484375">
        <ele>275.79998779296875</ele>
        <time>2019-10-26T11:44:34.000Z</time>
      </trkpt>
      <trkpt lat="37.70062691532075405120849609375" lon="-1.6046716086566448211669921875">
        <ele>276.20001220703125</ele>
        <time>2019-10-26T11:44:39.000Z</time>
      </trkpt>
      <trkpt lat="37.70055701024830341339111328125" lon="-1.6048945672810077667236328125">
        <ele>276.600006103515625</ele>
        <time>2019-10-26T11:44:44.000Z</time>
      </trkpt>
      <trkpt lat="37.70048123784363269805908203125" lon="-1.605106294155120849609375">
        <ele>276.399993896484375</ele>
        <time>2019-10-26T11:44:49.000Z</time>
      </trkpt>
      <trkpt lat="37.70040194503962993621826171875" lon="-1.6053490340709686279296875">
        <ele>276.399993896484375</ele>
        <time>2019-10-26T11:44:54.000Z</time>
      </trkpt>
      <trkpt lat="37.70034394226968288421630859375" lon="-1.60557056777179241180419921875">
        <ele>276.399993896484375</ele>
        <time>2019-10-26T11:44:58.000Z</time>
      </trkpt>
      <trkpt lat="37.7002768032252788543701171875" lon="-1.6057840548455715179443359375">
        <ele>276.399993896484375</ele>
        <time>2019-10-26T11:45:02.000Z</time>
      </trkpt>
      <trkpt lat="37.70021192729473114013671875" lon="-1.6059845499694347381591796875">
        <ele>276.600006103515625</ele>
        <time>2019-10-26T11:45:06.000Z</time>
      </trkpt>
      <trkpt lat="37.70014495588839054107666015625" lon="-1.60620457492768764495849609375">
        <ele>276.79998779296875</ele>
        <time>2019-10-26T11:45:10.000Z</time>
      </trkpt>
      <trkpt lat="37.70007622428238391876220703125" lon="-1.6064405255019664764404296875">
        <ele>277</ele>
        <time>2019-10-26T11:45:14.000Z</time>
      </trkpt>
      <trkpt lat="37.700003720819950103759765625" lon="-1.60666759125888347625732421875">
        <ele>277</ele>
        <time>2019-10-26T11:45:18.000Z</time>
      </trkpt>
      <trkpt lat="37.699930630624294281005859375" lon="-1.60687797702848911285400390625">
        <ele>276.79998779296875</ele>
        <time>2019-10-26T11:45:22.000Z</time>
      </trkpt>
      <trkpt lat="37.6998939178884029388427734375" lon="-1.60703337751328945159912109375">
        <ele>276.79998779296875</ele>
        <time>2019-10-26T11:45:25.000Z</time>
      </trkpt>
      <trkpt lat="37.69981470890343189239501953125" lon="-1.607286930084228515625">
        <ele>276.79998779296875</ele>
        <time>2019-10-26T11:45:30.000Z</time>
      </trkpt>
      <trkpt lat="37.69974798895418643951416015625" lon="-1.6074993275105953216552734375">
        <ele>276.79998779296875</ele>
        <time>2019-10-26T11:45:34.000Z</time>
      </trkpt>
      <trkpt lat="37.69967707805335521697998046875" lon="-1.60772589035332202911376953125">
        <ele>277</ele>
        <time>2019-10-26T11:45:38.000Z</time>
      </trkpt>
      <trkpt lat="37.6996243558824062347412109375" lon="-1.60788975656032562255859375">
        <ele>277</ele>
        <time>2019-10-26T11:45:41.000Z</time>
      </trkpt>
      <trkpt lat="37.69954129122197628021240234375" lon="-1.60813794471323490142822265625">
        <ele>277</ele>
        <time>2019-10-26T11:45:46.000Z</time>
      </trkpt>
      <trkpt lat="37.69949569366872310638427734375" lon="-1.608281694352626800537109375">
        <ele>277.20001220703125</ele>
        <time>2019-10-26T11:45:49.000Z</time>
      </trkpt>
      <trkpt lat="37.699410282075405120849609375" lon="-1.6085477359592914581298828125">
        <ele>277.399993896484375</ele>
        <time>2019-10-26T11:45:54.000Z</time>
      </trkpt>
      <trkpt lat="37.69933492876589298248291015625" lon="-1.608771197497844696044921875">
        <ele>277.79998779296875</ele>
        <time>2019-10-26T11:45:58.000Z</time>
      </trkpt>
      <trkpt lat="37.69924976862967014312744140625" lon="-1.60902592353522777557373046875">
        <ele>278.20001220703125</ele>
        <time>2019-10-26T11:46:03.000Z</time>
      </trkpt>
      <trkpt lat="37.69918254576623439788818359375" lon="-1.60924754105508327484130859375">
        <ele>278.20001220703125</ele>
        <time>2019-10-26T11:46:08.000Z</time>
      </trkpt>
      <trkpt lat="37.69911079667508602142333984375" lon="-1.60950017161667346954345703125">
        <ele>278.399993896484375</ele>
        <time>2019-10-26T11:46:13.000Z</time>
      </trkpt>
      <trkpt lat="37.69902831874787807464599609375" lon="-1.609737463295459747314453125">
        <ele>278.399993896484375</ele>
        <time>2019-10-26T11:46:18.000Z</time>
      </trkpt>
      <trkpt lat="37.69899956881999969482421875" lon="-1.60982958041131496429443359375">
        <ele>278.399993896484375</ele>
        <time>2019-10-26T11:46:20.000Z</time>
      </trkpt>
      <trkpt lat="37.69893745891749858856201171875" lon="-1.61010014824569225311279296875">
        <ele>278.399993896484375</ele>
        <time>2019-10-26T11:46:25.000Z</time>
      </trkpt>
      <trkpt lat="37.69892304204404354095458984375" lon="-1.61015848629176616668701171875">
        <ele>278.399993896484375</ele>
        <time>2019-10-26T11:46:26.000Z</time>
      </trkpt>
      <trkpt lat="37.6988535560667514801025390625" lon="-1.61038747988641262054443359375">
        <ele>278.20001220703125</ele>
        <time>2019-10-26T11:46:30.000Z</time>
      </trkpt>
      <trkpt lat="37.69878306426107883453369140625" lon="-1.61062150262296199798583984375">
        <ele>278</ele>
        <time>2019-10-26T11:46:34.000Z</time>
      </trkpt>
      <trkpt lat="37.698709554970264434814453125" lon="-1.610856950283050537109375">
        <ele>278</ele>
        <time>2019-10-26T11:46:38.000Z</time>
      </trkpt>
      <trkpt lat="37.69863738678395748138427734375" lon="-1.61110161803662776947021484375">
        <ele>278.20001220703125</ele>
        <time>2019-10-26T11:46:42.000Z</time>
      </trkpt>
      <trkpt lat="37.69856245256960391998291015625" lon="-1.61135676316916942596435546875">
        <ele>278.399993896484375</ele>
        <time>2019-10-26T11:46:46.000Z</time>
      </trkpt>
      <trkpt lat="37.69848165102303028106689453125" lon="-1.6116232238709926605224609375">
        <ele>278.399993896484375</ele>
        <time>2019-10-26T11:46:50.000Z</time>
      </trkpt>
      <trkpt lat="37.6984039507806301116943359375" lon="-1.6118951328098773956298828125">
        <ele>278.20001220703125</ele>
        <time>2019-10-26T11:46:54.000Z</time>
      </trkpt>
      <trkpt lat="37.69832541234791278839111328125" lon="-1.612170226871967315673828125">
        <ele>278</ele>
        <time>2019-10-26T11:46:58.000Z</time>
      </trkpt>
      <trkpt lat="37.6982480473816394805908203125" lon="-1.6124382801353931427001953125">
        <ele>277.79998779296875</ele>
        <time>2019-10-26T11:47:02.000Z</time>
      </trkpt>
      <trkpt lat="37.69817235879600048065185546875" lon="-1.6127095185220241546630859375">
        <ele>277.79998779296875</ele>
        <time>2019-10-26T11:47:06.000Z</time>
      </trkpt>
      <trkpt lat="37.6980854384601116180419921875" lon="-1.61296424455940723419189453125">
        <ele>277.600006103515625</ele>
        <time>2019-10-26T11:47:10.000Z</time>
      </trkpt>
      <trkpt lat="37.6980177126824855804443359375" lon="-1.61323280073702335357666015625">
        <ele>277.600006103515625</ele>
        <time>2019-10-26T11:47:14.000Z</time>
      </trkpt>
      <trkpt lat="37.69794621504843235015869140625" lon="-1.6135014407336711883544921875">
        <ele>277.79998779296875</ele>
        <time>2019-10-26T11:47:18.000Z</time>
      </trkpt>
      <trkpt lat="37.69787111319601535797119140625" lon="-1.61376454867422580718994140625">
        <ele>278.20001220703125</ele>
        <time>2019-10-26T11:47:22.000Z</time>
      </trkpt>
      <trkpt lat="37.69778796471655368804931640625" lon="-1.614019609987735748291015625">
        <ele>278.399993896484375</ele>
        <time>2019-10-26T11:47:26.000Z</time>
      </trkpt>
      <trkpt lat="37.69771152175962924957275390625" lon="-1.614279784262180328369140625">
        <ele>278.600006103515625</ele>
        <time>2019-10-26T11:47:30.000Z</time>
      </trkpt>
      <trkpt lat="37.69763273186981678009033203125" lon="-1.614542640745639801025390625">
        <ele>278.79998779296875</ele>
        <time>2019-10-26T11:47:34.000Z</time>
      </trkpt>
      <trkpt lat="37.69755880348384380340576171875" lon="-1.6148053295910358428955078125">
        <ele>279</ele>
        <time>2019-10-26T11:47:38.000Z</time>
      </trkpt>
      <trkpt lat="37.69753851927816867828369140625" lon="-1.61486861295998096466064453125">
        <ele>279</ele>
        <time>2019-10-26T11:47:39.000Z</time>
      </trkpt>
      <trkpt lat="37.69745436497032642364501953125" lon="-1.615127362310886383056640625">
        <ele>278.79998779296875</ele>
        <time>2019-10-26T11:47:43.000Z</time>
      </trkpt>
      <trkpt lat="37.69737775437533855438232421875" lon="-1.6153890453279018402099609375">
        <ele>278.600006103515625</ele>
        <time>2019-10-26T11:47:47.000Z</time>
      </trkpt>
      <trkpt lat="37.697296701371669769287109375" lon="-1.615644358098506927490234375">
        <ele>278.399993896484375</ele>
        <time>2019-10-26T11:47:51.000Z</time>
      </trkpt>
      <trkpt lat="37.6972613297402858734130859375" lon="-1.6157722659409046173095703125">
        <ele>278.399993896484375</ele>
        <time>2019-10-26T11:47:53.000Z</time>
      </trkpt>
      <trkpt lat="37.697186060249805450439453125" lon="-1.61602313630282878875732421875">
        <ele>278.600006103515625</ele>
        <time>2019-10-26T11:47:57.000Z</time>
      </trkpt>
      <trkpt lat="37.69710936583578586578369140625" lon="-1.61626872606575489044189453125">
        <ele>278.399993896484375</ele>
        <time>2019-10-26T11:48:01.000Z</time>
      </trkpt>
      <trkpt lat="37.6970382034778594970703125" lon="-1.616522110998630523681640625">
        <ele>278.399993896484375</ele>
        <time>2019-10-26T11:48:05.000Z</time>
      </trkpt>
      <trkpt lat="37.6970195956528186798095703125" lon="-1.6165822930634021759033203125">
        <ele>278.399993896484375</ele>
        <time>2019-10-26T11:48:06.000Z</time>
      </trkpt>
      <trkpt lat="37.69694725982844829559326171875" lon="-1.61682209931313991546630859375">
        <ele>278.600006103515625</ele>
        <time>2019-10-26T11:48:10.000Z</time>
      </trkpt>
      <trkpt lat="37.696876935660839080810546875" lon="-1.61707540042698383331298828125">
        <ele>278.79998779296875</ele>
        <time>2019-10-26T11:48:14.000Z</time>
      </trkpt>
      <trkpt lat="37.69680225290358066558837890625" lon="-1.6173333115875720977783203125">
        <ele>279</ele>
        <time>2019-10-26T11:48:18.000Z</time>
      </trkpt>
      <trkpt lat="37.6967297494411468505859375" lon="-1.61759155802428722381591796875">
        <ele>279</ele>
        <time>2019-10-26T11:48:22.000Z</time>
      </trkpt>
      <trkpt lat="37.6966501213610172271728515625" lon="-1.6178422607481479644775390625">
        <ele>279</ele>
        <time>2019-10-26T11:48:26.000Z</time>
      </trkpt>
      <trkpt lat="37.69657527096569538116455078125" lon="-1.61809681914746761322021484375">
        <ele>279</ele>
        <time>2019-10-26T11:48:30.000Z</time>
      </trkpt>
      <trkpt lat="37.69650201313197612762451171875" lon="-1.61834877915680408477783203125">
        <ele>279.399993896484375</ele>
        <time>2019-10-26T11:48:34.000Z</time>
      </trkpt>
      <trkpt lat="37.69642070867121219635009765625" lon="-1.61860518157482147216796875">
        <ele>280</ele>
        <time>2019-10-26T11:48:38.000Z</time>
      </trkpt>
      <trkpt lat="37.696350552141666412353515625" lon="-1.618848256766796112060546875">
        <ele>280.600006103515625</ele>
        <time>2019-10-26T11:48:42.000Z</time>
      </trkpt>
      <trkpt lat="37.696300260722637176513671875" lon="-1.619005165994167327880859375">
        <ele>281</ele>
        <time>2019-10-26T11:48:45.000Z</time>
      </trkpt>
      <trkpt lat="37.69622675143182277679443359375" lon="-1.61925100721418857574462890625">
        <ele>281.20001220703125</ele>
        <time>2019-10-26T11:48:49.000Z</time>
      </trkpt>
      <trkpt lat="37.6961586065590381622314453125" lon="-1.619461812078952789306640625">
        <ele>281.600006103515625</ele>
        <time>2019-10-26T11:48:52.000Z</time>
      </trkpt>
      <trkpt lat="37.69608811475336551666259765625" lon="-1.6196800768375396728515625">
        <ele>281.79998779296875</ele>
        <time>2019-10-26T11:48:55.000Z</time>
      </trkpt>
      <trkpt lat="37.6959970034658908843994140625" lon="-1.6199474595487117767333984375">
        <ele>281.79998779296875</ele>
        <time>2019-10-26T11:48:59.000Z</time>
      </trkpt>
      <trkpt lat="37.69591846503317356109619140625" lon="-1.62018005736172199249267578125">
        <ele>281.600006103515625</ele>
        <time>2019-10-26T11:49:03.000Z</time>
      </trkpt>
      <trkpt lat="37.6958457939326763153076171875" lon="-1.62044383585453033447265625">
        <ele>281.20001220703125</ele>
        <time>2019-10-26T11:49:08.000Z</time>
      </trkpt>
      <trkpt lat="37.695830203592777252197265625" lon="-1.6204946301877498626708984375">
        <ele>281.20001220703125</ele>
        <time>2019-10-26T11:49:09.000Z</time>
      </trkpt>
      <trkpt lat="37.6957670040428638458251953125" lon="-1.6207531280815601348876953125">
        <ele>280.79998779296875</ele>
        <time>2019-10-26T11:49:14.000Z</time>
      </trkpt>
      <trkpt lat="37.69570313394069671630859375" lon="-1.62097181193530559539794921875">
        <ele>280.79998779296875</ele>
        <time>2019-10-26T11:49:18.000Z</time>
      </trkpt>
      <trkpt lat="37.6956379227340221405029296875" lon="-1.62119728513062000274658203125">
        <ele>280.79998779296875</ele>
        <time>2019-10-26T11:49:22.000Z</time>
      </trkpt>
      <trkpt lat="37.695580087602138519287109375" lon="-1.6214334033429622650146484375">
        <ele>280.600006103515625</ele>
        <time>2019-10-26T11:49:26.000Z</time>
      </trkpt>
      <trkpt lat="37.6955088414251804351806640625" lon="-1.6216811724007129669189453125">
        <ele>280.79998779296875</ele>
        <time>2019-10-26T11:49:30.000Z</time>
      </trkpt>
      <trkpt lat="37.695437930524349212646484375" lon="-1.6219386644661426544189453125">
        <ele>281</ele>
        <time>2019-10-26T11:49:34.000Z</time>
      </trkpt>
      <trkpt lat="37.69536877982318401336669921875" lon="-1.6222093999385833740234375">
        <ele>281.399993896484375</ele>
        <time>2019-10-26T11:49:38.000Z</time>
      </trkpt>
      <trkpt lat="37.69529501907527446746826171875" lon="-1.62248105742037296295166015625">
        <ele>281.600006103515625</ele>
        <time>2019-10-26T11:49:42.000Z</time>
      </trkpt>
      <trkpt lat="37.6952169835567474365234375" lon="-1.62274760194122791290283203125">
        <ele>281.399993896484375</ele>
        <time>2019-10-26T11:49:46.000Z</time>
      </trkpt>
      <trkpt lat="37.6951574720442295074462890625" lon="-1.62300375290215015411376953125">
        <ele>281.20001220703125</ele>
        <time>2019-10-26T11:49:50.000Z</time>
      </trkpt>
      <trkpt lat="37.69508731551468372344970703125" lon="-1.62325940094888210296630859375">
        <ele>281.399993896484375</ele>
        <time>2019-10-26T11:49:54.000Z</time>
      </trkpt>
      <trkpt lat="37.69504909403622150421142578125" lon="-1.6233840398490428924560546875">
        <ele>281.600006103515625</ele>
        <time>2019-10-26T11:49:56.000Z</time>
      </trkpt>
      <trkpt lat="37.6949841342866420745849609375" lon="-1.62364111281931400299072265625">
        <ele>282</ele>
        <time>2019-10-26T11:50:00.000Z</time>
      </trkpt>
      <trkpt lat="37.69491565413773059844970703125" lon="-1.623892486095428466796875">
        <ele>282.600006103515625</ele>
        <time>2019-10-26T11:50:04.000Z</time>
      </trkpt>
      <trkpt lat="37.6948548853397369384765625" lon="-1.6241377405822277069091796875">
        <ele>283</ele>
        <time>2019-10-26T11:50:08.000Z</time>
      </trkpt>
      <trkpt lat="37.69478380680084228515625" lon="-1.62437369115650653839111328125">
        <ele>283.20001220703125</ele>
        <time>2019-10-26T11:50:12.000Z</time>
      </trkpt>
      <trkpt lat="37.69472504965960979461669921875" lon="-1.624620370566844940185546875">
        <ele>283.399993896484375</ele>
        <time>2019-10-26T11:50:16.000Z</time>
      </trkpt>
      <trkpt lat="37.69466352649033069610595703125" lon="-1.62487140856683254241943359375">
        <ele>283.600006103515625</ele>
        <time>2019-10-26T11:50:20.000Z</time>
      </trkpt>
      <trkpt lat="37.69459412433207035064697265625" lon="-1.6251227818429470062255859375">
        <ele>283.399993896484375</ele>
        <time>2019-10-26T11:50:24.000Z</time>
      </trkpt>
      <trkpt lat="37.6945169270038604736328125" lon="-1.625375412404537200927734375">
        <ele>283.399993896484375</ele>
        <time>2019-10-26T11:50:28.000Z</time>
      </trkpt>
      <trkpt lat="37.6944399811327457427978515625" lon="-1.62563969381153583526611328125">
        <ele>283.79998779296875</ele>
        <time>2019-10-26T11:50:32.000Z</time>
      </trkpt>
      <trkpt lat="37.694361023604869842529296875" lon="-1.6259002871811389923095703125">
        <ele>284</ele>
        <time>2019-10-26T11:50:36.000Z</time>
      </trkpt>
      <trkpt lat="37.69429187290370464324951171875" lon="-1.626156605780124664306640625">
        <ele>284.399993896484375</ele>
        <time>2019-10-26T11:50:40.000Z</time>
      </trkpt>
      <trkpt lat="37.69421517848968505859375" lon="-1.62642021663486957550048828125">
        <ele>284.79998779296875</ele>
        <time>2019-10-26T11:50:44.000Z</time>
      </trkpt>
      <trkpt lat="37.69413848407566547393798828125" lon="-1.62668139673769474029541015625">
        <ele>284.79998779296875</ele>
        <time>2019-10-26T11:50:48.000Z</time>
      </trkpt>
      <trkpt lat="37.69406522624194622039794921875" lon="-1.626936458051204681396484375">
        <ele>284.600006103515625</ele>
        <time>2019-10-26T11:50:52.000Z</time>
      </trkpt>
      <trkpt lat="37.693992555141448974609375" lon="-1.62719738669693470001220703125">
        <ele>284.20001220703125</ele>
        <time>2019-10-26T11:50:56.000Z</time>
      </trkpt>
      <trkpt lat="37.6939773000776767730712890625" lon="-1.62726243026554584503173828125">
        <ele>284.20001220703125</ele>
        <time>2019-10-26T11:50:57.000Z</time>
      </trkpt>
      <trkpt lat="37.69391116686165332794189453125" lon="-1.62752486765384674072265625">
        <ele>284</ele>
        <time>2019-10-26T11:51:01.000Z</time>
      </trkpt>
      <trkpt lat="37.6938408426940441131591796875" lon="-1.62778127007186412811279296875">
        <ele>284</ele>
        <time>2019-10-26T11:51:05.000Z</time>
      </trkpt>
      <trkpt lat="37.693804800510406494140625" lon="-1.62790649570524692535400390625">
        <ele>284.20001220703125</ele>
        <time>2019-10-26T11:51:07.000Z</time>
      </trkpt>
      <trkpt lat="37.6937312074005603790283203125" lon="-1.6281573660671710968017578125">
        <ele>284.399993896484375</ele>
        <time>2019-10-26T11:51:11.000Z</time>
      </trkpt>
      <trkpt lat="37.6936628110706806182861328125" lon="-1.62841091863811016082763671875">
        <ele>284.79998779296875</ele>
        <time>2019-10-26T11:51:15.000Z</time>
      </trkpt>
      <trkpt lat="37.6935937441885471343994140625" lon="-1.62866271100938320159912109375">
        <ele>285.399993896484375</ele>
        <time>2019-10-26T11:51:19.000Z</time>
      </trkpt>
      <trkpt lat="37.6935432851314544677734375" lon="-1.62884451448917388916015625">
        <ele>285.79998779296875</ele>
        <time>2019-10-26T11:51:22.000Z</time>
      </trkpt>
      <trkpt lat="37.69347715191543102264404296875" lon="-1.6290946304798126220703125">
        <ele>286.20001220703125</ele>
        <time>2019-10-26T11:51:26.000Z</time>
      </trkpt>
      <trkpt lat="37.69340942613780498504638671875" lon="-1.6293465904891490936279296875">
        <ele>286.20001220703125</ele>
        <time>2019-10-26T11:51:30.000Z</time>
      </trkpt>
      <trkpt lat="37.69334069453179836273193359375" lon="-1.62959394045174121856689453125">
        <ele>286</ele>
        <time>2019-10-26T11:51:34.000Z</time>
      </trkpt>
      <trkpt lat="37.69327565096318721771240234375" lon="-1.62984321825206279754638671875">
        <ele>286.20001220703125</ele>
        <time>2019-10-26T11:51:38.000Z</time>
      </trkpt>
      <trkpt lat="37.693203650414943695068359375" lon="-1.63010322488844394683837890625">
        <ele>286</ele>
        <time>2019-10-26T11:51:43.000Z</time>
      </trkpt>
      <trkpt lat="37.69314237870275974273681640625" lon="-1.63032266311347484588623046875">
        <ele>286</ele>
        <time>2019-10-26T11:51:48.000Z</time>
      </trkpt>
      <trkpt lat="37.6931340806186199188232421875" lon="-1.63036373443901538848876953125">
        <ele>286</ele>
        <time>2019-10-26T11:51:49.000Z</time>
      </trkpt>
      <trkpt lat="37.69308789633214473724365234375" lon="-1.6305384971201419830322265625">
        <ele>285.79998779296875</ele>
        <time>2019-10-26T11:51:53.000Z</time>
      </trkpt>
      <trkpt lat="37.69305872730910778045654296875" lon="-1.63068115711212158203125">
        <ele>285.79998779296875</ele>
        <time>2019-10-26T11:51:56.000Z</time>
      </trkpt>
      <trkpt lat="37.69298882223665714263916015625" lon="-1.63092666305601596832275390625">
        <ele>286</ele>
        <time>2019-10-26T11:52:01.000Z</time>
      </trkpt>
      <trkpt lat="37.69291891716420650482177734375" lon="-1.6311795450747013092041015625">
        <ele>286.20001220703125</ele>
        <time>2019-10-26T11:52:06.000Z</time>
      </trkpt>
      <trkpt lat="37.69284482114017009735107421875" lon="-1.63143158890306949615478515625">
        <ele>286.79998779296875</ele>
        <time>2019-10-26T11:52:11.000Z</time>
      </trkpt>
      <trkpt lat="37.6927770115435123443603515625" lon="-1.63168388418853282928466796875">
        <ele>287.20001220703125</ele>
        <time>2019-10-26T11:52:16.000Z</time>
      </trkpt>
      <trkpt lat="37.69270853139460086822509765625" lon="-1.63192243315279483795166015625">
        <ele>287.399993896484375</ele>
        <time>2019-10-26T11:52:21.000Z</time>
      </trkpt>
      <trkpt lat="37.69265807233750820159912109375" lon="-1.63212393410503864288330078125">
        <ele>287.79998779296875</ele>
        <time>2019-10-26T11:52:25.000Z</time>
      </trkpt>
      <trkpt lat="37.69260518252849578857421875" lon="-1.63238427601754665374755859375">
        <ele>288</ele>
        <time>2019-10-26T11:52:30.000Z</time>
      </trkpt>
      <trkpt lat="37.69254692830145359039306640625" lon="-1.6326561011373996734619140625">
        <ele>288.79998779296875</ele>
        <time>2019-10-26T11:52:35.000Z</time>
      </trkpt>
      <trkpt lat="37.692474089562892913818359375" lon="-1.632911749184131622314453125">
        <ele>289.20001220703125</ele>
        <time>2019-10-26T11:52:40.000Z</time>
      </trkpt>
      <trkpt lat="37.6924152486026287078857421875" lon="-1.63316027261316776275634765625">
        <ele>289.79998779296875</ele>
        <time>2019-10-26T11:52:45.000Z</time>
      </trkpt>
      <trkpt lat="37.69235665909945964813232421875" lon="-1.63340561091899871826171875">
        <ele>290.20001220703125</ele>
        <time>2019-10-26T11:52:50.000Z</time>
      </trkpt>
      <trkpt lat="37.69229404628276824951171875" lon="-1.63363971747457981109619140625">
        <ele>290.20001220703125</ele>
        <time>2019-10-26T11:52:55.000Z</time>
      </trkpt>
      <trkpt lat="37.69222489558160305023193359375" lon="-1.6338765062391757965087890625">
        <ele>290.399993896484375</ele>
        <time>2019-10-26T11:53:00.000Z</time>
      </trkpt>
      <trkpt lat="37.69215197302401065826416015625" lon="-1.6341142170131206512451171875">
        <ele>290.600006103515625</ele>
        <time>2019-10-26T11:53:05.000Z</time>
      </trkpt>
      <trkpt lat="37.69208324141800403594970703125" lon="-1.63435871712863445281982421875">
        <ele>291.399993896484375</ele>
        <time>2019-10-26T11:53:10.000Z</time>
      </trkpt>
      <trkpt lat="37.69200679846107959747314453125" lon="-1.63460581563413143157958984375">
        <ele>292</ele>
        <time>2019-10-26T11:53:15.000Z</time>
      </trkpt>
      <trkpt lat="37.69198894500732421875" lon="-1.6346521675586700439453125">
        <ele>292.20001220703125</ele>
        <time>2019-10-26T11:53:16.000Z</time>
      </trkpt>
      <trkpt lat="37.69181384705007076263427734375" lon="-1.6347488947212696075439453125">
        <ele>292.600006103515625</ele>
        <time>2019-10-26T11:53:21.000Z</time>
      </trkpt>
      <trkpt lat="37.69176925532519817352294921875" lon="-1.63473674096167087554931640625">
        <ele>292.600006103515625</ele>
        <time>2019-10-26T11:53:22.000Z</time>
      </trkpt>
      <trkpt lat="37.69155769608914852142333984375" lon="-1.63465476594865322113037109375">
        <ele>292.600006103515625</ele>
        <time>2019-10-26T11:53:27.000Z</time>
      </trkpt>
      <trkpt lat="37.691413275897502899169921875" lon="-1.63459324277937412261962890625">
        <ele>292.399993896484375</ele>
        <time>2019-10-26T11:53:31.000Z</time>
      </trkpt>
      <trkpt lat="37.69125066697597503662109375" lon="-1.63456298410892486572265625">
        <ele>292.20001220703125</ele>
        <time>2019-10-26T11:53:37.000Z</time>
      </trkpt>
      <trkpt lat="37.69121722318232059478759765625" lon="-1.63477362133562564849853515625">
        <ele>292.79998779296875</ele>
        <time>2019-10-26T11:53:43.000Z</time>
      </trkpt>
      <trkpt lat="37.69117933697998523712158203125" lon="-1.635011248290538787841796875">
        <ele>293.20001220703125</ele>
        <time>2019-10-26T11:53:49.000Z</time>
      </trkpt>
      <trkpt lat="37.69116818904876708984375" lon="-1.63526832126080989837646484375">
        <ele>293.399993896484375</ele>
        <time>2019-10-26T11:53:55.000Z</time>
      </trkpt>
      <trkpt lat="37.6911266148090362548828125" lon="-1.6354871727526187896728515625">
        <ele>293.79998779296875</ele>
        <time>2019-10-26T11:54:01.000Z</time>
      </trkpt>
      <trkpt lat="37.69095453433692455291748046875" lon="-1.63546982221305370330810546875">
        <ele>293.79998779296875</ele>
        <time>2019-10-26T11:54:09.000Z</time>
      </trkpt>
      <trkpt lat="37.69078874029219150543212890625" lon="-1.63537778891623020172119140625">
        <ele>293.399993896484375</ele>
        <time>2019-10-26T11:54:14.000Z</time>
      </trkpt>
      <trkpt lat="37.690597884356975555419921875" lon="-1.635248959064483642578125">
        <ele>292.79998779296875</ele>
        <time>2019-10-26T11:54:19.000Z</time>
      </trkpt>
      <trkpt lat="37.69043351523578166961669921875" lon="-1.63514234125614166259765625">
        <ele>292.399993896484375</ele>
        <time>2019-10-26T11:54:23.000Z</time>
      </trkpt>
      <trkpt lat="37.6902674697339534759521484375" lon="-1.635028012096881866455078125">
        <ele>291.79998779296875</ele>
        <time>2019-10-26T11:54:27.000Z</time>
      </trkpt>
      <trkpt lat="37.6900803856551647186279296875" lon="-1.63490991108119487762451171875">
        <ele>291.20001220703125</ele>
        <time>2019-10-26T11:54:32.000Z</time>
      </trkpt>
      <trkpt lat="37.69004727713763713836669921875" lon="-1.6348923929035663604736328125">
        <ele>291</ele>
        <time>2019-10-26T11:54:33.000Z</time>
      </trkpt>
      <trkpt lat="37.68987913616001605987548828125" lon="-1.63479206152260303497314453125">
        <ele>291.20001220703125</ele>
        <time>2019-10-26T11:54:39.000Z</time>
      </trkpt>
      <trkpt lat="37.68978022970259189605712890625" lon="-1.63478099741041660308837890625">
        <ele>291.20001220703125</ele>
        <time>2019-10-26T11:54:42.000Z</time>
      </trkpt>
      <trkpt lat="37.689714096486568450927734375" lon="-1.63495592772960662841796875">
        <ele>291.20001220703125</ele>
        <time>2019-10-26T11:54:46.000Z</time>
      </trkpt>
      <trkpt lat="37.68967361189424991607666015625" lon="-1.635225825011730194091796875">
        <ele>291</ele>
        <time>2019-10-26T11:54:51.000Z</time>
      </trkpt>
      <trkpt lat="37.68964192830026149749755859375" lon="-1.6354962252080440521240234375">
        <ele>291.399993896484375</ele>
        <time>2019-10-26T11:54:56.000Z</time>
      </trkpt>
      <trkpt lat="37.68960789777338504791259765625" lon="-1.6357560642063617706298828125">
        <ele>291.600006103515625</ele>
        <time>2019-10-26T11:55:01.000Z</time>
      </trkpt>
      <trkpt lat="37.6895575225353240966796875" lon="-1.63602436892688274383544921875">
        <ele>292.20001220703125</ele>
        <time>2019-10-26T11:55:06.000Z</time>
      </trkpt>
      <trkpt lat="37.689507566392421722412109375" lon="-1.63629812188446521759033203125">
        <ele>292.600006103515625</ele>
        <time>2019-10-26T11:55:11.000Z</time>
      </trkpt>
      <trkpt lat="37.68947278149425983428955078125" lon="-1.6365243494510650634765625">
        <ele>292.399993896484375</ele>
        <time>2019-10-26T11:55:15.000Z</time>
      </trkpt>
      <trkpt lat="37.6894333027303218841552734375" lon="-1.63675007410347461700439453125">
        <ele>292.399993896484375</ele>
        <time>2019-10-26T11:55:19.000Z</time>
      </trkpt>
      <trkpt lat="37.6893939077854156494140625" lon="-1.63697219453752040863037109375">
        <ele>292.600006103515625</ele>
        <time>2019-10-26T11:55:23.000Z</time>
      </trkpt>
      <trkpt lat="37.689355351030826568603515625" lon="-1.6372037865221500396728515625">
        <ele>292.600006103515625</ele>
        <time>2019-10-26T11:55:28.000Z</time>
      </trkpt>
      <trkpt lat="37.68934839405119419097900390625" lon="-1.637258939445018768310546875">
        <ele>292.79998779296875</ele>
        <time>2019-10-26T11:55:30.000Z</time>
      </trkpt>
      <trkpt lat="37.6893350668251514434814453125" lon="-1.6373268328607082366943359375">
        <ele>292.79998779296875</ele>
        <time>2019-10-26T11:55:33.000Z</time>
      </trkpt>
      <trkpt lat="37.68931453116238117218017578125" lon="-1.63723354227840900421142578125">
        <ele>292.79998779296875</ele>
        <time>2019-10-26T11:55:42.000Z</time>
      </trkpt>
      <trkpt lat="37.68936683423817157745361328125" lon="-1.6369828395545482635498046875">
        <ele>292.600006103515625</ele>
        <time>2019-10-26T11:55:48.000Z</time>
      </trkpt>
      <trkpt lat="37.6894207298755645751953125" lon="-1.63675359450280666351318359375">
        <ele>292.399993896484375</ele>
        <time>2019-10-26T11:55:53.000Z</time>
      </trkpt>
      <trkpt lat="37.6895000226795673370361328125" lon="-1.6366539336740970611572265625">
        <ele>292.20001220703125</ele>
        <time>2019-10-26T11:55:56.000Z</time>
      </trkpt>
      <trkpt lat="37.68967679701745510101318359375" lon="-1.63668151013553142547607421875">
        <ele>291.79998779296875</ele>
        <time>2019-10-26T11:56:01.000Z</time>
      </trkpt>
      <trkpt lat="37.689864635467529296875" lon="-1.63679055869579315185546875">
        <ele>291.600006103515625</ele>
        <time>2019-10-26T11:56:07.000Z</time>
      </trkpt>
      <trkpt lat="37.69003503955900669097900390625" lon="-1.63690446875989437103271484375">
        <ele>291.399993896484375</ele>
        <time>2019-10-26T11:56:12.000Z</time>
      </trkpt>
      <trkpt lat="37.69020820967853069305419921875" lon="-1.637014187872409820556640625">
        <ele>292</ele>
        <time>2019-10-26T11:56:17.000Z</time>
      </trkpt>
      <trkpt lat="37.69039579667150974273681640625" lon="-1.63713715039193630218505859375">
        <ele>292.399993896484375</ele>
        <time>2019-10-26T11:56:22.000Z</time>
      </trkpt>
      <trkpt lat="37.69058120436966419219970703125" lon="-1.6372775472700595855712890625">
        <ele>292.600006103515625</ele>
        <time>2019-10-26T11:56:27.000Z</time>
      </trkpt>
      <trkpt lat="37.6907779276371002197265625" lon="-1.63739430718123912811279296875">
        <ele>293</ele>
        <time>2019-10-26T11:56:32.000Z</time>
      </trkpt>
      <trkpt lat="37.690976746380329132080078125" lon="-1.63750243373215198516845703125">
        <ele>293</ele>
        <time>2019-10-26T11:56:37.000Z</time>
      </trkpt>
      <trkpt lat="37.69111789762973785400390625" lon="-1.63761944510042667388916015625">
        <ele>293</ele>
        <time>2019-10-26T11:56:41.000Z</time>
      </trkpt>
      <trkpt lat="37.6911534368991851806640625" lon="-1.6378602571785449981689453125">
        <ele>293.20001220703125</ele>
        <time>2019-10-26T11:56:46.000Z</time>
      </trkpt>
      <trkpt lat="37.69109987653791904449462890625" lon="-1.6381083615124225616455078125">
        <ele>294</ele>
        <time>2019-10-26T11:56:51.000Z</time>
      </trkpt>
      <trkpt lat="37.69105008803308010101318359375" lon="-1.63830542005598545074462890625">
        <ele>294.20001220703125</ele>
        <time>2019-10-26T11:56:55.000Z</time>
      </trkpt>
      <trkpt lat="37.69101840443909168243408203125" lon="-1.63843064568936824798583984375">
        <ele>294.20001220703125</ele>
        <time>2019-10-26T11:56:58.000Z</time>
      </trkpt>
      <trkpt lat="37.69097582437098026275634765625" lon="-1.63860104978084564208984375">
        <ele>294.20001220703125</ele>
        <time>2019-10-26T11:57:02.000Z</time>
      </trkpt>
      <trkpt lat="37.69091949798166751861572265625" lon="-1.63884806446731090545654296875">
        <ele>294</ele>
        <time>2019-10-26T11:57:07.000Z</time>
      </trkpt>
      <trkpt lat="37.6908491738140583038330078125" lon="-1.639101617038249969482421875">
        <ele>294</ele>
        <time>2019-10-26T11:57:12.000Z</time>
      </trkpt>
      <trkpt lat="37.69077725708484649658203125" lon="-1.63935081101953983306884765625">
        <ele>293.79998779296875</ele>
        <time>2019-10-26T11:57:17.000Z</time>
      </trkpt>
      <trkpt lat="37.69070710055530071258544921875" lon="-1.639593131840229034423828125">
        <ele>293.79998779296875</ele>
        <time>2019-10-26T11:57:22.000Z</time>
      </trkpt>
      <trkpt lat="37.6906411349773406982421875" lon="-1.6398420743644237518310546875">
        <ele>293.79998779296875</ele>
        <time>2019-10-26T11:57:27.000Z</time>
      </trkpt>
      <trkpt lat="37.6905767619609832763671875" lon="-1.6400890052318572998046875">
        <ele>294</ele>
        <time>2019-10-26T11:57:32.000Z</time>
      </trkpt>
      <trkpt lat="37.69051012583076953887939453125" lon="-1.64033819921314716339111328125">
        <ele>294.399993896484375</ele>
        <time>2019-10-26T11:57:37.000Z</time>
      </trkpt>
      <trkpt lat="37.69045044668018817901611328125" lon="-1.640595607459545135498046875">
        <ele>294.79998779296875</ele>
        <time>2019-10-26T11:57:42.000Z</time>
      </trkpt>
      <trkpt lat="37.69040736369788646697998046875" lon="-1.6407513432204723358154296875">
        <ele>295</ele>
        <time>2019-10-26T11:57:45.000Z</time>
      </trkpt>
      <trkpt lat="37.69034600816667079925537109375" lon="-1.64100992493331432342529296875">
        <ele>295.600006103515625</ele>
        <time>2019-10-26T11:57:50.000Z</time>
      </trkpt>
      <trkpt lat="37.690280042588710784912109375" lon="-1.64124562405049800872802734375">
        <ele>296</ele>
        <time>2019-10-26T11:57:55.000Z</time>
      </trkpt>
      <trkpt lat="37.69021742977201938629150390625" lon="-1.64148534648120403289794921875">
        <ele>295.79998779296875</ele>
        <time>2019-10-26T11:58:00.000Z</time>
      </trkpt>
      <trkpt lat="37.6901467703282833099365234375" lon="-1.641750298440456390380859375">
        <ele>296.20001220703125</ele>
        <time>2019-10-26T11:58:05.000Z</time>
      </trkpt>
      <trkpt lat="37.69008281640708446502685546875" lon="-1.64196261204779148101806640625">
        <ele>296.399993896484375</ele>
        <time>2019-10-26T11:58:09.000Z</time>
      </trkpt>
      <trkpt lat="37.69002112559974193572998046875" lon="-1.642176099121570587158203125">
        <ele>296.79998779296875</ele>
        <time>2019-10-26T11:58:13.000Z</time>
      </trkpt>
      <trkpt lat="37.68995775841176509857177734375" lon="-1.64242831058800220489501953125">
        <ele>297</ele>
        <time>2019-10-26T11:58:18.000Z</time>
      </trkpt>
      <trkpt lat="37.6899104006588459014892578125" lon="-1.6425806097686290740966796875">
        <ele>297.20001220703125</ele>
        <time>2019-10-26T11:58:21.000Z</time>
      </trkpt>
      <trkpt lat="37.68985197879374027252197265625" lon="-1.64278906770050525665283203125">
        <ele>297.600006103515625</ele>
        <time>2019-10-26T11:58:25.000Z</time>
      </trkpt>
      <trkpt lat="37.68978861160576343536376953125" lon="-1.6430362500250339508056640625">
        <ele>297.79998779296875</ele>
        <time>2019-10-26T11:58:30.000Z</time>
      </trkpt>
      <trkpt lat="37.6897211372852325439453125" lon="-1.64328443817794322967529296875">
        <ele>298.20001220703125</ele>
        <time>2019-10-26T11:58:35.000Z</time>
      </trkpt>
      <trkpt lat="37.6896542496979236602783203125" lon="-1.64353623054921627044677734375">
        <ele>298.399993896484375</ele>
        <time>2019-10-26T11:58:40.000Z</time>
      </trkpt>
      <trkpt lat="37.6895816624164581298828125" lon="-1.64378215558826923370361328125">
        <ele>298.79998779296875</ele>
        <time>2019-10-26T11:58:45.000Z</time>
      </trkpt>
      <trkpt lat="37.68951904959976673126220703125" lon="-1.644020788371562957763671875">
        <ele>299</ele>
        <time>2019-10-26T11:58:50.000Z</time>
      </trkpt>
      <trkpt lat="37.68946037627756595611572265625" lon="-1.64422337897121906280517578125">
        <ele>298.79998779296875</ele>
        <time>2019-10-26T11:58:54.000Z</time>
      </trkpt>
      <trkpt lat="37.68943489529192447662353515625" lon="-1.64433653466403484344482421875">
        <ele>298.600006103515625</ele>
        <time>2019-10-26T11:58:56.000Z</time>
      </trkpt>
      <trkpt lat="37.6893751323223114013671875" lon="-1.64456351660192012786865234375">
        <ele>298.399993896484375</ele>
        <time>2019-10-26T11:59:00.000Z</time>
      </trkpt>
      <trkpt lat="37.689313776791095733642578125" lon="-1.64478094317018985748291015625">
        <ele>298.20001220703125</ele>
        <time>2019-10-26T11:59:04.000Z</time>
      </trkpt>
      <trkpt lat="37.68925317563116550445556640625" lon="-1.64500021375715732574462890625">
        <ele>298</ele>
        <time>2019-10-26T11:59:08.000Z</time>
      </trkpt>
      <trkpt lat="37.68918276764452457427978515625" lon="-1.64526625536382198333740234375">
        <ele>298</ele>
        <time>2019-10-26T11:59:13.000Z</time>
      </trkpt>
      <trkpt lat="37.68911940045654773712158203125" lon="-1.6455058939754962921142578125">
        <ele>298</ele>
        <time>2019-10-26T11:59:18.000Z</time>
      </trkpt>
      <trkpt lat="37.68904949538409709930419921875" lon="-1.64576581679284572601318359375">
        <ele>298</ele>
        <time>2019-10-26T11:59:23.000Z</time>
      </trkpt>
      <trkpt lat="37.68902032636106014251708984375" lon="-1.645870171487331390380859375">
        <ele>298</ele>
        <time>2019-10-26T11:59:25.000Z</time>
      </trkpt>
      <trkpt lat="37.68894589506089687347412109375" lon="-1.64612908847630023956298828125">
        <ele>298.20001220703125</ele>
        <time>2019-10-26T11:59:30.000Z</time>
      </trkpt>
      <trkpt lat="37.68891848623752593994140625" lon="-1.64623419754207134246826171875">
        <ele>298.399993896484375</ele>
        <time>2019-10-26T11:59:32.000Z</time>
      </trkpt>
      <trkpt lat="37.68884933553636074066162109375" lon="-1.64648766629397869110107421875">
        <ele>298.600006103515625</ele>
        <time>2019-10-26T11:59:37.000Z</time>
      </trkpt>
      <trkpt lat="37.68880055285990238189697265625" lon="-1.64669453166425228118896484375">
        <ele>298.79998779296875</ele>
        <time>2019-10-26T11:59:41.000Z</time>
      </trkpt>
      <trkpt lat="37.68874204717576503753662109375" lon="-1.64695856161415576934814453125">
        <ele>299</ele>
        <time>2019-10-26T11:59:46.000Z</time>
      </trkpt>
      <trkpt lat="37.68867306411266326904296875" lon="-1.6472171433269977569580078125">
        <ele>299</ele>
        <time>2019-10-26T11:59:51.000Z</time>
      </trkpt>
      <trkpt lat="37.68860399723052978515625" lon="-1.6474763117730617523193359375">
        <ele>299.20001220703125</ele>
        <time>2019-10-26T11:59:56.000Z</time>
      </trkpt>
      <trkpt lat="37.6885350979864597320556640625" lon="-1.64772299118340015411376953125">
        <ele>299.399993896484375</ele>
        <time>2019-10-26T12:00:01.000Z</time>
      </trkpt>
      <trkpt lat="37.6884848065674304962158203125" lon="-1.64792533032596111297607421875">
        <ele>299.600006103515625</ele>
        <time>2019-10-26T12:00:05.000Z</time>
      </trkpt>
      <trkpt lat="37.6884107105433940887451171875" lon="-1.648189611732959747314453125">
        <ele>300</ele>
        <time>2019-10-26T12:00:10.000Z</time>
      </trkpt>
      <trkpt lat="37.68834021873772144317626953125" lon="-1.6484556533396244049072265625">
        <ele>300.600006103515625</ele>
        <time>2019-10-26T12:00:15.000Z</time>
      </trkpt>
      <trkpt lat="37.6882685534656047821044921875" lon="-1.648712642490863800048828125">
        <ele>301.20001220703125</ele>
        <time>2019-10-26T12:00:20.000Z</time>
      </trkpt>
      <trkpt lat="37.688209377229213714599609375" lon="-1.64893350563943386077880859375">
        <ele>301.600006103515625</ele>
        <time>2019-10-26T12:00:24.000Z</time>
      </trkpt>
      <trkpt lat="37.688149698078632354736328125" lon="-1.6491553746163845062255859375">
        <ele>301.79998779296875</ele>
        <time>2019-10-26T12:00:28.000Z</time>
      </trkpt>
      <trkpt lat="37.6880930364131927490234375" lon="-1.649373136460781097412109375">
        <ele>301.79998779296875</ele>
        <time>2019-10-26T12:00:32.000Z</time>
      </trkpt>
      <trkpt lat="37.688027322292327880859375" lon="-1.64963523857295513153076171875">
        <ele>302</ele>
        <time>2019-10-26T12:00:37.000Z</time>
      </trkpt>
      <trkpt lat="37.68796236254274845123291015625" lon="-1.64988820441067218780517578125">
        <ele>302</ele>
        <time>2019-10-26T12:00:42.000Z</time>
      </trkpt>
      <trkpt lat="37.6879460178315639495849609375" lon="-1.64993681944906711578369140625">
        <ele>302</ele>
        <time>2019-10-26T12:00:43.000Z</time>
      </trkpt>
      <trkpt lat="37.687856666743755340576171875" lon="-1.65015726350247859954833984375">
        <ele>301.79998779296875</ele>
        <time>2019-10-26T12:00:48.000Z</time>
      </trkpt>
      <trkpt lat="37.68784300424158573150634765625" lon="-1.6501928865909576416015625">
        <ele>301.79998779296875</ele>
        <time>2019-10-26T12:00:49.000Z</time>
      </trkpt>
      <trkpt lat="37.68781333230435848236083984375" lon="-1.65045498870313167572021484375">
        <ele>301.600006103515625</ele>
        <time>2019-10-26T12:00:55.000Z</time>
      </trkpt>
      <trkpt lat="37.6877510547637939453125" lon="-1.65070854127407073974609375">
        <ele>301</ele>
        <time>2019-10-26T12:01:00.000Z</time>
      </trkpt>
      <trkpt lat="37.68767553381621837615966796875" lon="-1.65097516961395740509033203125">
        <ele>301</ele>
        <time>2019-10-26T12:01:05.000Z</time>
      </trkpt>
      <trkpt lat="37.68761627376079559326171875" lon="-1.65119469165802001953125">
        <ele>301</ele>
        <time>2019-10-26T12:01:09.000Z</time>
      </trkpt>
      <trkpt lat="37.6875537447631359100341796875" lon="-1.65142108686268329620361328125">
        <ele>301</ele>
        <time>2019-10-26T12:01:13.000Z</time>
      </trkpt>
      <trkpt lat="37.687490880489349365234375" lon="-1.65164136327803134918212890625">
        <ele>301.20001220703125</ele>
        <time>2019-10-26T12:01:17.000Z</time>
      </trkpt>
      <trkpt lat="37.68742986023426055908203125" lon="-1.65187136270105838775634765625">
        <ele>301.399993896484375</ele>
        <time>2019-10-26T12:01:21.000Z</time>
      </trkpt>
      <trkpt lat="37.68737018108367919921875" lon="-1.65210102684795856475830078125">
        <ele>301.600006103515625</ele>
        <time>2019-10-26T12:01:25.000Z</time>
      </trkpt>
      <trkpt lat="37.6873098313808441162109375" lon="-1.6523314453661441802978515625">
        <ele>302</ele>
        <time>2019-10-26T12:01:29.000Z</time>
      </trkpt>
      <trkpt lat="37.687244452536106109619140625" lon="-1.65256437845528125762939453125">
        <ele>302.20001220703125</ele>
        <time>2019-10-26T12:01:33.000Z</time>
      </trkpt>
      <trkpt lat="37.68718234263360500335693359375" lon="-1.65279454551637172698974609375">
        <ele>302.600006103515625</ele>
        <time>2019-10-26T12:01:37.000Z</time>
      </trkpt>
      <trkpt lat="37.6871193945407867431640625" lon="-1.6530239582061767578125">
        <ele>303.20001220703125</ele>
        <time>2019-10-26T12:01:41.000Z</time>
      </trkpt>
      <trkpt lat="37.68705996684730052947998046875" lon="-1.6532547958195209503173828125">
        <ele>303.399993896484375</ele>
        <time>2019-10-26T12:01:45.000Z</time>
      </trkpt>
      <trkpt lat="37.68702962435781955718994140625" lon="-1.65337239392101764678955078125">
        <ele>303.399993896484375</ele>
        <time>2019-10-26T12:01:47.000Z</time>
      </trkpt>
      <trkpt lat="37.68696625716984272003173828125" lon="-1.6536031477153301239013671875">
        <ele>303.399993896484375</ele>
        <time>2019-10-26T12:01:51.000Z</time>
      </trkpt>
      <trkpt lat="37.6869059912860393524169921875" lon="-1.65383088402450084686279296875">
        <ele>303.20001220703125</ele>
        <time>2019-10-26T12:01:55.000Z</time>
      </trkpt>
      <trkpt lat="37.6868446357548236846923828125" lon="-1.6540537588298320770263671875">
        <ele>303.20001220703125</ele>
        <time>2019-10-26T12:01:59.000Z</time>
      </trkpt>
      <trkpt lat="37.6867856271564960479736328125" lon="-1.6542763821780681610107421875">
        <ele>303.399993896484375</ele>
        <time>2019-10-26T12:02:03.000Z</time>
      </trkpt>
      <trkpt lat="37.6867251098155975341796875" lon="-1.65450210683047771453857421875">
        <ele>303.600006103515625</ele>
        <time>2019-10-26T12:02:07.000Z</time>
      </trkpt>
      <trkpt lat="37.68666735850274562835693359375" lon="-1.6547303460538387298583984375">
        <ele>303.79998779296875</ele>
        <time>2019-10-26T12:02:11.000Z</time>
      </trkpt>
      <trkpt lat="37.68660617060959339141845703125" lon="-1.65495925582945346832275390625">
        <ele>304.20001220703125</ele>
        <time>2019-10-26T12:02:15.000Z</time>
      </trkpt>
      <trkpt lat="37.686545737087726593017578125" lon="-1.655186824500560760498046875">
        <ele>304.600006103515625</ele>
        <time>2019-10-26T12:02:19.000Z</time>
      </trkpt>
      <trkpt lat="37.686488740146160125732421875" lon="-1.65541104041039943695068359375">
        <ele>305</ele>
        <time>2019-10-26T12:02:23.000Z</time>
      </trkpt>
      <trkpt lat="37.6864273846149444580078125" lon="-1.6556431353092193603515625">
        <ele>305.20001220703125</ele>
        <time>2019-10-26T12:02:27.000Z</time>
      </trkpt>
      <trkpt lat="37.68636343069374561309814453125" lon="-1.6558719612658023834228515625">
        <ele>305.600006103515625</ele>
        <time>2019-10-26T12:02:31.000Z</time>
      </trkpt>
      <trkpt lat="37.68630391918122768402099609375" lon="-1.6560959257185459136962890625">
        <ele>306</ele>
        <time>2019-10-26T12:02:35.000Z</time>
      </trkpt>
      <trkpt lat="37.6862237043678760528564453125" lon="-1.656315363943576812744140625">
        <ele>306.399993896484375</ele>
        <time>2019-10-26T12:02:39.000Z</time>
      </trkpt>
      <trkpt lat="37.68606352619826793670654296875" lon="-1.65642969310283660888671875">
        <ele>306.79998779296875</ele>
        <time>2019-10-26T12:02:43.000Z</time>
      </trkpt>
      <trkpt lat="37.685912065207958221435546875" lon="-1.656371690332889556884765625">
        <ele>306.79998779296875</ele>
        <time>2019-10-26T12:02:46.000Z</time>
      </trkpt>
      <trkpt lat="37.68572271801531314849853515625" lon="-1.65627102367579936981201171875">
        <ele>306.600006103515625</ele>
        <time>2019-10-26T12:02:50.000Z</time>
      </trkpt>
      <trkpt lat="37.68559120595455169677734375" lon="-1.65621511638164520263671875">
        <ele>306.20001220703125</ele>
        <time>2019-10-26T12:02:53.000Z</time>
      </trkpt>
      <trkpt lat="37.68542381934821605682373046875" lon="-1.6563148610293865203857421875">
        <ele>306.20001220703125</ele>
        <time>2019-10-26T12:02:58.000Z</time>
      </trkpt>
      <trkpt lat="37.6852715201675891876220703125" lon="-1.6564566828310489654541015625">
        <ele>306.20001220703125</ele>
        <time>2019-10-26T12:03:05.000Z</time>
      </trkpt>
      <trkpt lat="37.68519029952585697174072265625" lon="-1.6565565951168537139892578125">
        <ele>306.20001220703125</ele>
        <time>2019-10-26T12:03:09.000Z</time>
      </trkpt>
      <trkpt lat="37.685120813548564910888671875" lon="-1.6566528193652629852294921875">
        <ele>306.20001220703125</ele>
        <time>2019-10-26T12:03:13.000Z</time>
      </trkpt>
      <trkpt lat="37.6850795745849609375" lon="-1.6567064635455608367919921875">
        <ele>306.20001220703125</ele>
        <time>2019-10-26T12:03:15.000Z</time>
      </trkpt>
      <trkpt lat="37.68504898063838481903076171875" lon="-1.6568823158740997314453125">
        <ele>306.399993896484375</ele>
        <time>2019-10-26T12:03:19.000Z</time>
      </trkpt>
      <trkpt lat="37.68504210747778415679931640625" lon="-1.6571339406073093414306640625">
        <ele>306.79998779296875</ele>
        <time>2019-10-26T12:03:24.000Z</time>
      </trkpt>
      <trkpt lat="37.68504713661968708038330078125" lon="-1.65739503689110279083251953125">
        <ele>307</ele>
        <time>2019-10-26T12:03:29.000Z</time>
      </trkpt>
      <trkpt lat="37.6850495673716068267822265625" lon="-1.6576529480516910552978515625">
        <ele>306.399993896484375</ele>
        <time>2019-10-26T12:03:34.000Z</time>
      </trkpt>
      <trkpt lat="37.6850267685949802398681640625" lon="-1.6578799299895763397216796875">
        <ele>305.79998779296875</ele>
        <time>2019-10-26T12:03:39.000Z</time>
      </trkpt>
      <trkpt lat="37.68501897342503070831298828125" lon="-1.65803072042763233184814453125">
        <ele>305.399993896484375</ele>
        <time>2019-10-26T12:03:44.000Z</time>
      </trkpt>
      <trkpt lat="37.6851318776607513427734375" lon="-1.6581027209758758544921875">
        <ele>305.399993896484375</ele>
        <time>2019-10-26T12:03:49.000Z</time>
      </trkpt>
      <trkpt lat="37.68532273359596729278564453125" lon="-1.658225096762180328369140625">
        <ele>306</ele>
        <time>2019-10-26T12:03:55.000Z</time>
      </trkpt>
      <trkpt lat="37.685499675571918487548828125" lon="-1.6583454608917236328125">
        <ele>306.79998779296875</ele>
        <time>2019-10-26T12:04:00.000Z</time>
      </trkpt>
      <trkpt lat="37.68561844713985919952392578125" lon="-1.6585533320903778076171875">
        <ele>307.600006103515625</ele>
        <time>2019-10-26T12:04:05.000Z</time>
      </trkpt>
      <trkpt lat="37.68556966446340084075927734375" lon="-1.65882163681089878082275390625">
        <ele>307.600006103515625</ele>
        <time>2019-10-26T12:04:10.000Z</time>
      </trkpt>
      <trkpt lat="37.6855052076280117034912109375" lon="-1.65907912887632846832275390625">
        <ele>307.79998779296875</ele>
        <time>2019-10-26T12:04:15.000Z</time>
      </trkpt>
      <trkpt lat="37.68543471582233905792236328125" lon="-1.65934265591204166412353515625">
        <ele>308.20001220703125</ele>
        <time>2019-10-26T12:04:20.000Z</time>
      </trkpt>
      <trkpt lat="37.6853623799979686737060546875" lon="-1.6596079431474208831787109375">
        <ele>308.399993896484375</ele>
        <time>2019-10-26T12:04:25.000Z</time>
      </trkpt>
      <trkpt lat="37.6853050477802753448486328125" lon="-1.6598273813724517822265625">
        <ele>308.399993896484375</ele>
        <time>2019-10-26T12:04:29.000Z</time>
      </trkpt>
      <trkpt lat="37.6852420158684253692626953125" lon="-1.66004204191267490386962890625">
        <ele>308.20001220703125</ele>
        <time>2019-10-26T12:04:33.000Z</time>
      </trkpt>
      <trkpt lat="37.68518309108912944793701171875" lon="-1.6602630726993083953857421875">
        <ele>308.20001220703125</ele>
        <time>2019-10-26T12:04:37.000Z</time>
      </trkpt>
      <trkpt lat="37.685119807720184326171875" lon="-1.6604806669056415557861328125">
        <ele>308.20001220703125</ele>
        <time>2019-10-26T12:04:41.000Z</time>
      </trkpt>
      <trkpt lat="37.68506121821701526641845703125" lon="-1.6607110016047954559326171875">
        <ele>308</ele>
        <time>2019-10-26T12:04:45.000Z</time>
      </trkpt>
      <trkpt lat="37.68500271253287792205810546875" lon="-1.66093320585787296295166015625">
        <ele>308.20001220703125</ele>
        <time>2019-10-26T12:04:49.000Z</time>
      </trkpt>
      <trkpt lat="37.684943787753582000732421875" lon="-1.661158762872219085693359375">
        <ele>308.399993896484375</ele>
        <time>2019-10-26T12:04:53.000Z</time>
      </trkpt>
      <trkpt lat="37.684886120259761810302734375" lon="-1.6613828949630260467529296875">
        <ele>308.399993896484375</ele>
        <time>2019-10-26T12:04:57.000Z</time>
      </trkpt>
      <trkpt lat="37.68482836894690990447998046875" lon="-1.6616078652441501617431640625">
        <ele>308.600006103515625</ele>
        <time>2019-10-26T12:05:01.000Z</time>
      </trkpt>
      <trkpt lat="37.6847722940146923065185546875" lon="-1.66182906366884708404541015625">
        <ele>308.79998779296875</ele>
        <time>2019-10-26T12:05:05.000Z</time>
      </trkpt>
      <trkpt lat="37.68471353687345981597900390625" lon="-1.6620457358658313751220703125">
        <ele>308.79998779296875</ele>
        <time>2019-10-26T12:05:09.000Z</time>
      </trkpt>
      <trkpt lat="37.68464245833456516265869140625" lon="-1.6623122803866863250732421875">
        <ele>309</ele>
        <time>2019-10-26T12:05:14.000Z</time>
      </trkpt>
      <trkpt lat="37.68458479084074497222900390625" lon="-1.66253766976296901702880859375">
        <ele>309.399993896484375</ele>
        <time>2019-10-26T12:05:18.000Z</time>
      </trkpt>
      <trkpt lat="37.68452410586178302764892578125" lon="-1.6627697646617889404296875">
        <ele>309.79998779296875</ele>
        <time>2019-10-26T12:05:22.000Z</time>
      </trkpt>
      <trkpt lat="37.684460319578647613525390625" lon="-1.6629977524280548095703125">
        <ele>310</ele>
        <time>2019-10-26T12:05:26.000Z</time>
      </trkpt>
      <trkpt lat="37.6844467408955097198486328125" lon="-1.6630559228360652923583984375">
        <ele>309.79998779296875</ele>
        <time>2019-10-26T12:05:27.000Z</time>
      </trkpt>
      <trkpt lat="37.68439225852489471435546875" lon="-1.6632954776287078857421875">
        <ele>309.79998779296875</ele>
        <time>2019-10-26T12:05:31.000Z</time>
      </trkpt>
      <trkpt lat="37.684338279068470001220703125" lon="-1.6635420732200145721435546875">
        <ele>309.79998779296875</ele>
        <time>2019-10-26T12:05:35.000Z</time>
      </trkpt>
      <trkpt lat="37.68428471870720386505126953125" lon="-1.66378389112651348114013671875">
        <ele>309.79998779296875</ele>
        <time>2019-10-26T12:05:39.000Z</time>
      </trkpt>
      <trkpt lat="37.6842298172414302825927734375" lon="-1.6640188358724117279052734375">
        <ele>310</ele>
        <time>2019-10-26T12:05:43.000Z</time>
      </trkpt>
      <trkpt lat="37.6841698028147220611572265625" lon="-1.6642552055418491363525390625">
        <ele>310</ele>
        <time>2019-10-26T12:05:47.000Z</time>
      </trkpt>
      <trkpt lat="37.68410182558000087738037109375" lon="-1.66448277421295642852783203125">
        <ele>310</ele>
        <time>2019-10-26T12:05:51.000Z</time>
      </trkpt>
      <trkpt lat="37.68404382281005382537841796875" lon="-1.66471813805401325225830078125">
        <ele>310</ele>
        <time>2019-10-26T12:05:55.000Z</time>
      </trkpt>
      <trkpt lat="37.68398330546915531158447265625" lon="-1.66495786048471927642822265625">
        <ele>310.20001220703125</ele>
        <time>2019-10-26T12:05:59.000Z</time>
      </trkpt>
      <trkpt lat="37.6839136518537998199462890625" lon="-1.665192134678363800048828125">
        <ele>310.79998779296875</ele>
        <time>2019-10-26T12:06:03.000Z</time>
      </trkpt>
      <trkpt lat="37.68385112285614013671875" lon="-1.66543294675648212432861328125">
        <ele>311.20001220703125</ele>
        <time>2019-10-26T12:06:07.000Z</time>
      </trkpt>
      <trkpt lat="37.68378934822976589202880859375" lon="-1.66567132808268070220947265625">
        <ele>311.399993896484375</ele>
        <time>2019-10-26T12:06:11.000Z</time>
      </trkpt>
      <trkpt lat="37.68372748978435993194580078125" lon="-1.66590535081923007965087890625">
        <ele>311.399993896484375</ele>
        <time>2019-10-26T12:06:15.000Z</time>
      </trkpt>
      <trkpt lat="37.6836699061095714569091796875" lon="-1.6661317460238933563232421875">
        <ele>311.20001220703125</ele>
        <time>2019-10-26T12:06:19.000Z</time>
      </trkpt>
      <trkpt lat="37.6836025156080722808837890625" lon="-1.66635663248598575592041015625">
        <ele>311</ele>
        <time>2019-10-26T12:06:23.000Z</time>
      </trkpt>
      <trkpt lat="37.6835297606885433197021484375" lon="-1.66659149341285228729248046875">
        <ele>311</ele>
        <time>2019-10-26T12:06:27.000Z</time>
      </trkpt>
      <trkpt lat="37.6834600232541561126708984375" lon="-1.66683054529130458831787109375">
        <ele>311.399993896484375</ele>
        <time>2019-10-26T12:06:31.000Z</time>
      </trkpt>
      <trkpt lat="37.6833879388868808746337890625" lon="-1.6670693457126617431640625">
        <ele>311.600006103515625</ele>
        <time>2019-10-26T12:06:35.000Z</time>
      </trkpt>
      <trkpt lat="37.6833175309002399444580078125" lon="-1.667300350964069366455078125">
        <ele>312</ele>
        <time>2019-10-26T12:06:39.000Z</time>
      </trkpt>
      <trkpt lat="37.6832541637122631072998046875" lon="-1.66752238757908344268798828125">
        <ele>312.20001220703125</ele>
        <time>2019-10-26T12:06:43.000Z</time>
      </trkpt>
      <trkpt lat="37.6831995137035846710205078125" lon="-1.66774081997573375701904296875">
        <ele>312.20001220703125</ele>
        <time>2019-10-26T12:06:47.000Z</time>
      </trkpt>
      <trkpt lat="37.683146037161350250244140625" lon="-1.6679576598107814788818359375">
        <ele>312.20001220703125</ele>
        <time>2019-10-26T12:06:51.000Z</time>
      </trkpt>
      <trkpt lat="37.6830841787159442901611328125" lon="-1.66817416436970233917236328125">
        <ele>312.399993896484375</ele>
        <time>2019-10-26T12:06:55.000Z</time>
      </trkpt>
      <trkpt lat="37.68301402218639850616455078125" lon="-1.66844020597636699676513671875">
        <ele>312.20001220703125</ele>
        <time>2019-10-26T12:07:00.000Z</time>
      </trkpt>
      <trkpt lat="37.68296306021511554718017578125" lon="-1.6686211712658405303955078125">
        <ele>312</ele>
        <time>2019-10-26T12:07:04.000Z</time>
      </trkpt>
      <trkpt lat="37.68288888037204742431640625" lon="-1.66884337551891803741455078125">
        <ele>312</ele>
        <time>2019-10-26T12:07:09.000Z</time>
      </trkpt>
      <trkpt lat="37.68282174132764339447021484375" lon="-1.669098772108554840087890625">
        <ele>312.20001220703125</ele>
        <time>2019-10-26T12:07:14.000Z</time>
      </trkpt>
      <trkpt lat="37.682809419929981231689453125" lon="-1.66915065608918666839599609375">
        <ele>312.20001220703125</ele>
        <time>2019-10-26T12:07:15.000Z</time>
      </trkpt>
      <trkpt lat="37.68274915404617786407470703125" lon="-1.66940831579267978668212890625">
        <ele>313</ele>
        <time>2019-10-26T12:07:20.000Z</time>
      </trkpt>
      <trkpt lat="37.68268846906721591949462890625" lon="-1.6696548275649547576904296875">
        <ele>313.600006103515625</ele>
        <time>2019-10-26T12:07:25.000Z</time>
      </trkpt>
      <trkpt lat="37.682620324194431304931640625" lon="-1.669904775917530059814453125">
        <ele>314</ele>
        <time>2019-10-26T12:07:30.000Z</time>
      </trkpt>
      <trkpt lat="37.68255092203617095947265625" lon="-1.67017039842903614044189453125">
        <ele>314.399993896484375</ele>
        <time>2019-10-26T12:07:35.000Z</time>
      </trkpt>
      <trkpt lat="37.68247540108859539031982421875" lon="-1.670422442257404327392578125">
        <ele>314.600006103515625</ele>
        <time>2019-10-26T12:07:40.000Z</time>
      </trkpt>
      <trkpt lat="37.68240465782582759857177734375" lon="-1.6706697084009647369384765625">
        <ele>314.79998779296875</ele>
        <time>2019-10-26T12:07:45.000Z</time>
      </trkpt>
      <trkpt lat="37.682329975068569183349609375" lon="-1.67093181051313877105712890625">
        <ele>315</ele>
        <time>2019-10-26T12:07:50.000Z</time>
      </trkpt>
      <trkpt lat="37.68226484768092632293701171875" lon="-1.67115099728107452392578125">
        <ele>315</ele>
        <time>2019-10-26T12:07:54.000Z</time>
      </trkpt>
      <trkpt lat="37.6822158135473728179931640625" lon="-1.67137856595218181610107421875">
        <ele>315</ele>
        <time>2019-10-26T12:07:58.000Z</time>
      </trkpt>
      <trkpt lat="37.682153619825839996337890625" lon="-1.67159850709140300750732421875">
        <ele>315</ele>
        <time>2019-10-26T12:08:02.000Z</time>
      </trkpt>
      <trkpt lat="37.6820924319326877593994140625" lon="-1.671833284199237823486328125">
        <ele>315.399993896484375</ele>
        <time>2019-10-26T12:08:06.000Z</time>
      </trkpt>
      <trkpt lat="37.6820257119834423065185546875" lon="-1.6720698215067386627197265625">
        <ele>315.600006103515625</ele>
        <time>2019-10-26T12:08:10.000Z</time>
      </trkpt>
      <trkpt lat="37.681962512433528900146484375" lon="-1.67230904102325439453125">
        <ele>316</ele>
        <time>2019-10-26T12:08:14.000Z</time>
      </trkpt>
      <trkpt lat="37.68190593458712100982666015625" lon="-1.67254574596881866455078125">
        <ele>316</ele>
        <time>2019-10-26T12:08:18.000Z</time>
      </trkpt>
      <trkpt lat="37.681850530207157135009765625" lon="-1.67278538458049297332763671875">
        <ele>316</ele>
        <time>2019-10-26T12:08:22.000Z</time>
      </trkpt>
      <trkpt lat="37.68180049024522304534912109375" lon="-1.6730179823935031890869140625">
        <ele>316</ele>
        <time>2019-10-26T12:08:26.000Z</time>
      </trkpt>
      <trkpt lat="37.68174516968429088592529296875" lon="-1.67329031042754650115966796875">
        <ele>316.20001220703125</ele>
        <time>2019-10-26T12:08:31.000Z</time>
      </trkpt>
      <trkpt lat="37.6816850714385509490966796875" lon="-1.67355450801551342010498046875">
        <ele>316.399993896484375</ele>
        <time>2019-10-26T12:08:36.000Z</time>
      </trkpt>
      <trkpt lat="37.68163184635341167449951171875" lon="-1.67382650077342987060546875">
        <ele>316.79998779296875</ele>
        <time>2019-10-26T12:08:41.000Z</time>
      </trkpt>
      <trkpt lat="37.6815935410559177398681640625" lon="-1.67405071668326854705810546875">
        <ele>317</ele>
        <time>2019-10-26T12:08:45.000Z</time>
      </trkpt>
      <trkpt lat="37.68155590631067752838134765625" lon="-1.6742809675633907318115234375">
        <ele>317.20001220703125</ele>
        <time>2019-10-26T12:08:49.000Z</time>
      </trkpt>
      <trkpt lat="37.6815201155841350555419921875" lon="-1.67450644075870513916015625">
        <ele>317.399993896484375</ele>
        <time>2019-10-26T12:08:53.000Z</time>
      </trkpt>
      <trkpt lat="37.68147041089832782745361328125" lon="-1.6747825406491756439208984375">
        <ele>317.600006103515625</ele>
        <time>2019-10-26T12:08:58.000Z</time>
      </trkpt>
      <trkpt lat="37.6814424991607666015625" lon="-1.675009019672870635986328125">
        <ele>318</ele>
        <time>2019-10-26T12:09:02.000Z</time>
      </trkpt>
      <trkpt lat="37.68143587745726108551025390625" lon="-1.67506635189056396484375">
        <ele>318.20001220703125</ele>
        <time>2019-10-26T12:09:03.000Z</time>
      </trkpt>
      <trkpt lat="37.681407295167446136474609375" lon="-1.675296686589717864990234375">
        <ele>318.79998779296875</ele>
        <time>2019-10-26T12:09:07.000Z</time>
      </trkpt>
      <trkpt lat="37.68139044754207134246826171875" lon="-1.675412356853485107421875">
        <ele>319.20001220703125</ele>
        <time>2019-10-26T12:09:09.000Z</time>
      </trkpt>
      <trkpt lat="37.68136949278414249420166015625" lon="-1.67564579285681247711181640625">
        <ele>320</ele>
        <time>2019-10-26T12:09:13.000Z</time>
      </trkpt>
      <trkpt lat="37.68134853802621364593505859375" lon="-1.67587361298501491546630859375">
        <ele>320.600006103515625</ele>
        <time>2019-10-26T12:09:17.000Z</time>
      </trkpt>
      <trkpt lat="37.68132288940250873565673828125" lon="-1.67613965459167957305908203125">
        <ele>321</ele>
        <time>2019-10-26T12:09:22.000Z</time>
      </trkpt>
      <trkpt lat="37.6812767051160335540771484375" lon="-1.67634769342839717864990234375">
        <ele>321.20001220703125</ele>
        <time>2019-10-26T12:09:27.000Z</time>
      </trkpt>
      <trkpt lat="37.68125650472939014434814453125" lon="-1.67640837840735912322998046875">
        <ele>321.399993896484375</ele>
        <time>2019-10-26T12:09:29.000Z</time>
      </trkpt>
      <trkpt lat="37.681358344852924346923828125" lon="-1.67654852382838726043701171875">
        <ele>321.600006103515625</ele>
        <time>2019-10-26T12:09:37.000Z</time>
      </trkpt>
      <trkpt lat="37.68136982806026935577392578125" lon="-1.6765584982931613922119140625">
        <ele>321.600006103515625</ele>
        <time>2019-10-26T12:09:38.000Z</time>
      </trkpt>
      <trkpt lat="37.68142045475542545318603515625" lon="-1.6766260564327239990234375">
        <ele>321.600006103515625</ele>
        <time>2019-10-26T12:09:42.000Z</time>
      </trkpt>
      <trkpt lat="37.6815335266292095184326171875" lon="-1.67675815522670745849609375">
        <ele>321.600006103515625</ele>
        <time>2019-10-26T12:09:48.000Z</time>
      </trkpt>
      <trkpt lat="37.68169487826526165008544921875" lon="-1.67689033783972263336181640625">
        <ele>322.399993896484375</ele>
        <time>2019-10-26T12:09:55.000Z</time>
      </trkpt>
      <trkpt lat="37.68185220658779144287109375" lon="-1.67692369781434535980224609375">
        <ele>322.20001220703125</ele>
        <time>2019-10-26T12:10:05.000Z</time>
      </trkpt>
      <trkpt lat="37.68199746496975421905517578125" lon="-1.676903329789638519287109375">
        <ele>322</ele>
        <time>2019-10-26T12:11:25.000Z</time>
      </trkpt>
      <trkpt lat="37.68214733339846134185791015625" lon="-1.67694498784840106964111328125">
        <ele>322</ele>
        <time>2019-10-26T12:11:31.000Z</time>
      </trkpt>
      <trkpt lat="37.68213517963886260986328125" lon="-1.677164845168590545654296875">
        <ele>323.20001220703125</ele>
        <time>2019-10-26T12:11:37.000Z</time>
      </trkpt>
      <trkpt lat="37.68211447633802890777587890625" lon="-1.67741538025438785552978515625">
        <ele>324</ele>
        <time>2019-10-26T12:11:44.000Z</time>
      </trkpt>
      <trkpt lat="37.68210232257843017578125" lon="-1.67764973826706409454345703125">
        <ele>323.600006103515625</ele>
        <time>2019-10-26T12:11:50.000Z</time>
      </trkpt>
      <trkpt lat="37.6820776797831058502197265625" lon="-1.6778892092406749725341796875">
        <ele>323.20001220703125</ele>
        <time>2019-10-26T12:11:56.000Z</time>
      </trkpt>
      <trkpt lat="37.6820687949657440185546875" lon="-1.6781638003885746002197265625">
        <ele>323</ele>
        <time>2019-10-26T12:12:02.000Z</time>
      </trkpt>
      <trkpt lat="37.68207013607025146484375" lon="-1.6784226335585117340087890625">
        <ele>323.20001220703125</ele>
        <time>2019-10-26T12:12:07.000Z</time>
      </trkpt>
      <trkpt lat="37.682064436376094818115234375" lon="-1.67868808843195438385009765625">
        <ele>323.600006103515625</ele>
        <time>2019-10-26T12:12:12.000Z</time>
      </trkpt>
      <trkpt lat="37.6820461638271808624267578125" lon="-1.678937114775180816650390625">
        <ele>324</ele>
        <time>2019-10-26T12:12:17.000Z</time>
      </trkpt>
      <trkpt lat="37.6820595748722553253173828125" lon="-1.6791917569935321807861328125">
        <ele>324.399993896484375</ele>
        <time>2019-10-26T12:12:22.000Z</time>
      </trkpt>
      <trkpt lat="37.68205982632935047149658203125" lon="-1.67943223379552364349365234375">
        <ele>324.79998779296875</ele>
        <time>2019-10-26T12:12:27.000Z</time>
      </trkpt>
      <trkpt lat="37.68204088322818279266357421875" lon="-1.679682433605194091796875">
        <ele>325</ele>
        <time>2019-10-26T12:12:32.000Z</time>
      </trkpt>
      <trkpt lat="37.6820055954158306121826171875" lon="-1.6799394227564334869384765625">
        <ele>325.20001220703125</ele>
        <time>2019-10-26T12:12:37.000Z</time>
      </trkpt>
      <trkpt lat="37.68197684548795223236083984375" lon="-1.68020454235374927520751953125">
        <ele>325</ele>
        <time>2019-10-26T12:12:42.000Z</time>
      </trkpt>
      <trkpt lat="37.68194080330431461334228515625" lon="-1.68045968748629093170166015625">
        <ele>324.79998779296875</ele>
        <time>2019-10-26T12:12:47.000Z</time>
      </trkpt>
      <trkpt lat="37.681907527148723602294921875" lon="-1.68072237633168697357177734375">
        <ele>325</ele>
        <time>2019-10-26T12:12:52.000Z</time>
      </trkpt>
      <trkpt lat="37.68188950605690479278564453125" lon="-1.6808798722922801971435546875">
        <ele>325.399993896484375</ele>
        <time>2019-10-26T12:12:55.000Z</time>
      </trkpt>
      <trkpt lat="37.68181993626058101654052734375" lon="-1.68114113621413707733154296875">
        <ele>325.600006103515625</ele>
        <time>2019-10-26T12:13:00.000Z</time>
      </trkpt>
      <trkpt lat="37.681752629578113555908203125" lon="-1.68138957582414150238037109375">
        <ele>326</ele>
        <time>2019-10-26T12:13:05.000Z</time>
      </trkpt>
      <trkpt lat="37.68172522075474262237548828125" lon="-1.6814924217760562896728515625">
        <ele>326</ele>
        <time>2019-10-26T12:13:07.000Z</time>
      </trkpt>
      <trkpt lat="37.68170242197811603546142578125" lon="-1.6817571222782135009765625">
        <ele>326.20001220703125</ele>
        <time>2019-10-26T12:13:12.000Z</time>
      </trkpt>
      <trkpt lat="37.6817025057971477508544921875" lon="-1.6820137761533260345458984375">
        <ele>326.600006103515625</ele>
        <time>2019-10-26T12:13:18.000Z</time>
      </trkpt>
      <trkpt lat="37.68172002397477626800537109375" lon="-1.682254336774349212646484375">
        <ele>327</ele>
        <time>2019-10-26T12:13:24.000Z</time>
      </trkpt>
      <trkpt lat="37.68174491822719573974609375" lon="-1.6824888624250888824462890625">
        <ele>328.20001220703125</ele>
        <time>2019-10-26T12:13:29.000Z</time>
      </trkpt>
      <trkpt lat="37.681782133877277374267578125" lon="-1.68273839168250560760498046875">
        <ele>330.399993896484375</ele>
        <time>2019-10-26T12:13:34.000Z</time>
      </trkpt>
      <trkpt lat="37.6818131469190120697021484375" lon="-1.683001331984996795654296875">
        <ele>332.399993896484375</ele>
        <time>2019-10-26T12:13:39.000Z</time>
      </trkpt>
      <trkpt lat="37.68182328902184963226318359375" lon="-1.68324373662471771240234375">
        <ele>334</ele>
        <time>2019-10-26T12:13:44.000Z</time>
      </trkpt>
      <trkpt lat="37.681807614862918853759765625" lon="-1.683508269488811492919921875">
        <ele>335</ele>
        <time>2019-10-26T12:13:50.000Z</time>
      </trkpt>
      <trkpt lat="37.68182882107794284820556640625" lon="-1.68360625393688678741455078125">
        <ele>335.399993896484375</ele>
        <time>2019-10-26T12:13:53.000Z</time>
      </trkpt>
      <trkpt lat="37.68188397400081157684326171875" lon="-1.6837924160063266754150390625">
        <ele>336.399993896484375</ele>
        <time>2019-10-26T12:14:00.000Z</time>
      </trkpt>
      <trkpt lat="37.6818034239113330841064453125" lon="-1.68403859250247478485107421875">
        <ele>336</ele>
        <time>2019-10-26T12:14:06.000Z</time>
      </trkpt>
      <trkpt lat="37.6817450858652591705322265625" lon="-1.68427169322967529296875">
        <ele>335.79998779296875</ele>
        <time>2019-10-26T12:14:11.000Z</time>
      </trkpt>
      <trkpt lat="37.681674174964427947998046875" lon="-1.6844948194921016693115234375">
        <ele>335.20001220703125</ele>
        <time>2019-10-26T12:14:16.000Z</time>
      </trkpt>
      <trkpt lat="37.6816220395267009735107421875" lon="-1.6847264952957630157470703125">
        <ele>334.399993896484375</ele>
        <time>2019-10-26T12:14:22.000Z</time>
      </trkpt>
      <trkpt lat="37.68155070953071117401123046875" lon="-1.684955991804599761962890625">
        <ele>334</ele>
        <time>2019-10-26T12:14:28.000Z</time>
      </trkpt>
      <trkpt lat="37.68155355937778949737548828125" lon="-1.68508104979991912841796875">
        <ele>334.399993896484375</ele>
        <time>2019-10-26T12:14:32.000Z</time>
      </trkpt>
      <trkpt lat="37.6816488616168498992919921875" lon="-1.68509420938789844512939453125">
        <ele>335.20001220703125</ele>
        <time>2019-10-26T12:14:37.000Z</time>
      </trkpt>
      <trkpt lat="37.68184038810431957244873046875" lon="-1.68513494543731212615966796875">
        <ele>336</ele>
        <time>2019-10-26T12:14:46.000Z</time>
      </trkpt>
      <trkpt lat="37.68202789127826690673828125" lon="-1.68515481054782867431640625">
        <ele>336.399993896484375</ele>
        <time>2019-10-26T12:14:52.000Z</time>
      </trkpt>
      <trkpt lat="37.682233750820159912109375" lon="-1.6851952113211154937744140625">
        <ele>337</ele>
        <time>2019-10-26T12:14:59.000Z</time>
      </trkpt>
      <trkpt lat="37.682394348084926605224609375" lon="-1.685134358704090118408203125">
        <ele>337</ele>
        <time>2019-10-26T12:15:05.000Z</time>
      </trkpt>
      <trkpt lat="37.68245142884552478790283203125" lon="-1.68492757715284824371337890625">
        <ele>337</ele>
        <time>2019-10-26T12:15:15.000Z</time>
      </trkpt>
      <trkpt lat="37.68245310522615909576416015625" lon="-1.6848827339708805084228515625">
        <ele>336.79998779296875</ele>
        <time>2019-10-26T12:15:18.000Z</time>
      </trkpt>
      <trkpt lat="37.68245981074869632720947265625" lon="-1.6848242282867431640625">
        <ele>336.79998779296875</ele>
        <time>2019-10-26T12:15:23.000Z</time>
      </trkpt>
      <trkpt lat="37.68250591121613979339599609375" lon="-1.68459263630211353302001953125">
        <ele>336.600006103515625</ele>
        <time>2019-10-26T12:15:36.000Z</time>
      </trkpt>
      <trkpt lat="37.68255637027323246002197265625" lon="-1.68447964824736118316650390625">
        <ele>336.600006103515625</ele>
        <time>2019-10-26T12:15:42.000Z</time>
      </trkpt>
      <trkpt lat="37.68250524066388607025146484375" lon="-1.68438593856990337371826171875">
        <ele>336.399993896484375</ele>
        <time>2019-10-26T12:16:50.000Z</time>
      </trkpt>
      <trkpt lat="37.6826563663780689239501953125" lon="-1.68438292108476161956787109375">
        <ele>337</ele>
        <time>2019-10-26T12:17:45.000Z</time>
      </trkpt>
      <trkpt lat="37.68258520402014255523681640625" lon="-1.68435157276690006256103515625">
        <ele>336.600006103515625</ele>
        <time>2019-10-26T12:18:17.000Z</time>
      </trkpt>
      <trkpt lat="37.682443298399448394775390625" lon="-1.684337742626667022705078125">
        <ele>336.20001220703125</ele>
        <time>2019-10-26T12:19:19.000Z</time>
      </trkpt>
      <trkpt lat="37.68244631588459014892578125" lon="-1.68436565436422824859619140625">
        <ele>336.20001220703125</ele>
        <time>2019-10-26T12:19:55.000Z</time>
      </trkpt>
      <trkpt lat="37.68246718682348728179931640625" lon="-1.68447411619126796722412109375">
        <ele>336.399993896484375</ele>
        <time>2019-10-26T13:13:07.000Z</time>
      </trkpt>
      <trkpt lat="37.68258855678141117095947265625" lon="-1.68459917418658733367919921875">
        <ele>337</ele>
        <time>2019-10-26T13:13:14.000Z</time>
      </trkpt>
      <trkpt lat="37.68258805386722087860107421875" lon="-1.6846470348536968231201171875">
        <ele>337</ele>
        <time>2019-10-26T13:13:18.000Z</time>
      </trkpt>
      <trkpt lat="37.68260599114000797271728515625" lon="-1.6848874278366565704345703125">
        <ele>337</ele>
        <time>2019-10-26T13:13:32.000Z</time>
      </trkpt>
      <trkpt lat="37.682597525417804718017578125" lon="-1.6849450953304767608642578125">
        <ele>337</ele>
        <time>2019-10-26T13:13:34.000Z</time>
      </trkpt>
      <trkpt lat="37.68254346214234828948974609375" lon="-1.68516696430742740631103515625">
        <ele>337</ele>
        <time>2019-10-26T13:13:41.000Z</time>
      </trkpt>
      <trkpt lat="37.68248596228659152984619140625" lon="-1.68520451523363590240478515625">
        <ele>337</ele>
        <time>2019-10-26T13:13:44.000Z</time>
      </trkpt>
      <trkpt lat="37.68237766809761524200439453125" lon="-1.68517626821994781494140625">
        <ele>337</ele>
        <time>2019-10-26T13:13:48.000Z</time>
      </trkpt>
      <trkpt lat="37.68220282159745693206787109375" lon="-1.68509169481694698333740234375">
        <ele>336.79998779296875</ele>
        <time>2019-10-26T13:13:55.000Z</time>
      </trkpt>
      <trkpt lat="37.68202093429863452911376953125" lon="-1.685038469731807708740234375">
        <ele>336.20001220703125</ele>
        <time>2019-10-26T13:14:01.000Z</time>
      </trkpt>
      <trkpt lat="37.68182002007961273193359375" lon="-1.6849776171147823333740234375">
        <ele>335.600006103515625</ele>
        <time>2019-10-26T13:14:08.000Z</time>
      </trkpt>
      <trkpt lat="37.68166981637477874755859375" lon="-1.68506755493581295013427734375">
        <ele>335.20001220703125</ele>
        <time>2019-10-26T13:14:14.000Z</time>
      </trkpt>
      <trkpt lat="37.68157149665057659149169921875" lon="-1.68527743779122829437255859375">
        <ele>335</ele>
        <time>2019-10-26T13:14:20.000Z</time>
      </trkpt>
      <trkpt lat="37.68151022493839263916015625" lon="-1.685509867966175079345703125">
        <ele>335.20001220703125</ele>
        <time>2019-10-26T13:14:26.000Z</time>
      </trkpt>
      <trkpt lat="37.6814456842839717864990234375" lon="-1.68575453571975231170654296875">
        <ele>335.399993896484375</ele>
        <time>2019-10-26T13:14:33.000Z</time>
      </trkpt>
      <trkpt lat="37.68140519969165325164794921875" lon="-1.6859975270926952362060546875">
        <ele>335.600006103515625</ele>
        <time>2019-10-26T13:14:39.000Z</time>
      </trkpt>
      <trkpt lat="37.681366391479969024658203125" lon="-1.68625853955745697021484375">
        <ele>334.79998779296875</ele>
        <time>2019-10-26T13:14:45.000Z</time>
      </trkpt>
      <trkpt lat="37.68132775090634822845458984375" lon="-1.6865019500255584716796875">
        <ele>334.20001220703125</ele>
        <time>2019-10-26T13:14:50.000Z</time>
      </trkpt>
      <trkpt lat="37.68128357827663421630859375" lon="-1.68673940934240818023681640625">
        <ele>333</ele>
        <time>2019-10-26T13:14:55.000Z</time>
      </trkpt>
      <trkpt lat="37.6812415011227130889892578125" lon="-1.68696873821318149566650390625">
        <ele>331.79998779296875</ele>
        <time>2019-10-26T13:15:00.000Z</time>
      </trkpt>
      <trkpt lat="37.6811808161437511444091796875" lon="-1.68719991110265254974365234375">
        <ele>330.20001220703125</ele>
        <time>2019-10-26T13:15:05.000Z</time>
      </trkpt>
      <trkpt lat="37.681120969355106353759765625" lon="-1.68745924718677997589111328125">
        <ele>329.399993896484375</ele>
        <time>2019-10-26T13:15:10.000Z</time>
      </trkpt>
      <trkpt lat="37.68107428215444087982177734375" lon="-1.68770852498710155487060546875">
        <ele>330.600006103515625</ele>
        <time>2019-10-26T13:15:15.000Z</time>
      </trkpt>
      <trkpt lat="37.6810453645884990692138671875" lon="-1.68793701566755771636962890625">
        <ele>331.79998779296875</ele>
        <time>2019-10-26T13:15:21.000Z</time>
      </trkpt>
      <trkpt lat="37.6810363121330738067626953125" lon="-1.6880339942872524261474609375">
        <ele>332.20001220703125</ele>
        <time>2019-10-26T13:15:25.000Z</time>
      </trkpt>
      <trkpt lat="37.68095073290169239044189453125" lon="-1.6880276240408420562744140625">
        <ele>332.20001220703125</ele>
        <time>2019-10-26T13:15:29.000Z</time>
      </trkpt>
      <trkpt lat="37.68074487335979938507080078125" lon="-1.68798185884952545166015625">
        <ele>331.20001220703125</ele>
        <time>2019-10-26T13:15:35.000Z</time>
      </trkpt>
      <trkpt lat="37.68056583590805530548095703125" lon="-1.6880202479660511016845703125">
        <ele>330</ele>
        <time>2019-10-26T13:15:40.000Z</time>
      </trkpt>
      <trkpt lat="37.68046843819320201873779296875" lon="-1.68802267871797084808349609375">
        <ele>329.399993896484375</ele>
        <time>2019-10-26T13:15:45.000Z</time>
      </trkpt>
      <trkpt lat="37.68032225780189037322998046875" lon="-1.68810985051095485687255859375">
        <ele>328.600006103515625</ele>
        <time>2019-10-26T13:15:55.000Z</time>
      </trkpt>
      <trkpt lat="37.68027364276349544525146484375" lon="-1.68807975947856903076171875">
        <ele>328.20001220703125</ele>
        <time>2019-10-26T13:15:57.000Z</time>
      </trkpt>
      <trkpt lat="37.6800626702606678009033203125" lon="-1.68806425295770168304443359375">
        <ele>327</ele>
        <time>2019-10-26T13:16:11.000Z</time>
      </trkpt>
      <trkpt lat="37.6798853091895580291748046875" lon="-1.6881332360208034515380859375">
        <ele>326.399993896484375</ele>
        <time>2019-10-26T13:16:16.000Z</time>
      </trkpt>
      <trkpt lat="37.67970778048038482666015625" lon="-1.68816835619509220123291015625">
        <ele>325.79998779296875</ele>
        <time>2019-10-26T13:16:24.000Z</time>
      </trkpt>
      <trkpt lat="37.67967768944799900054931640625" lon="-1.6881246864795684814453125">
        <ele>325.79998779296875</ele>
        <time>2019-10-26T13:16:28.000Z</time>
      </trkpt>
      <trkpt lat="37.6795845665037631988525390625" lon="-1.6881622374057769775390625">
        <ele>325.399993896484375</ele>
        <time>2019-10-26T13:17:04.000Z</time>
      </trkpt>
      <trkpt lat="37.6794303394854068756103515625" lon="-1.6883204877376556396484375">
        <ele>325.20001220703125</ele>
        <time>2019-10-26T13:17:17.000Z</time>
      </trkpt>
      <trkpt lat="37.6792694069445133209228515625" lon="-1.68846088461577892303466796875">
        <ele>325.20001220703125</ele>
        <time>2019-10-26T13:17:24.000Z</time>
      </trkpt>
      <trkpt lat="37.67909782938659191131591796875" lon="-1.688566245138645172119140625">
        <ele>326</ele>
        <time>2019-10-26T13:17:31.000Z</time>
      </trkpt>
      <trkpt lat="37.67891543917357921600341796875" lon="-1.688684262335300445556640625">
        <ele>327.399993896484375</ele>
        <time>2019-10-26T13:17:39.000Z</time>
      </trkpt>
      <trkpt lat="37.67874327488243579864501953125" lon="-1.68880286626517772674560546875">
        <ele>328.79998779296875</ele>
        <time>2019-10-26T13:17:45.000Z</time>
      </trkpt>
      <trkpt lat="37.67854395322501659393310546875" lon="-1.6889003477990627288818359375">
        <ele>330.399993896484375</ele>
        <time>2019-10-26T13:17:51.000Z</time>
      </trkpt>
      <trkpt lat="37.67836139537394046783447265625" lon="-1.68899414129555225372314453125">
        <ele>331.600006103515625</ele>
        <time>2019-10-26T13:17:57.000Z</time>
      </trkpt>
      <trkpt lat="37.678189314901828765869140625" lon="-1.68906689621508121490478515625">
        <ele>330.600006103515625</ele>
        <time>2019-10-26T13:18:04.000Z</time>
      </trkpt>
      <trkpt lat="37.67806333489716053009033203125" lon="-1.689139902591705322265625">
        <ele>329.399993896484375</ele>
        <time>2019-10-26T13:18:11.000Z</time>
      </trkpt>
      <trkpt lat="37.6780610717833042144775390625" lon="-1.68924442492425441741943359375">
        <ele>329</ele>
        <time>2019-10-26T13:18:22.000Z</time>
      </trkpt>
      <trkpt lat="37.6780067570507526397705078125" lon="-1.68928784318268299102783203125">
        <ele>328.600006103515625</ele>
        <time>2019-10-26T13:18:57.000Z</time>
      </trkpt>
      <trkpt lat="37.67792151309549808502197265625" lon="-1.6892136633396148681640625">
        <ele>328.20001220703125</ele>
        <time>2019-10-26T13:19:02.000Z</time>
      </trkpt>
      <trkpt lat="37.6777174137532711029052734375" lon="-1.6891890205442905426025390625">
        <ele>326.79998779296875</ele>
        <time>2019-10-26T13:19:09.000Z</time>
      </trkpt>
      <trkpt lat="37.67753996886312961578369140625" lon="-1.68924090452492237091064453125">
        <ele>325.399993896484375</ele>
        <time>2019-10-26T13:19:14.000Z</time>
      </trkpt>
      <trkpt lat="37.67733930610120296478271484375" lon="-1.6892782039940357208251953125">
        <ele>324</ele>
        <time>2019-10-26T13:19:19.000Z</time>
      </trkpt>
      <trkpt lat="37.67714601941406726837158203125" lon="-1.6893023438751697540283203125">
        <ele>322.399993896484375</ele>
        <time>2019-10-26T13:19:24.000Z</time>
      </trkpt>
      <trkpt lat="37.6769543252885341644287109375" lon="-1.68925347737967967987060546875">
        <ele>321</ele>
        <time>2019-10-26T13:19:29.000Z</time>
      </trkpt>
      <trkpt lat="37.6767451129853725433349609375" lon="-1.68920251540839672088623046875">
        <ele>319.20001220703125</ele>
        <time>2019-10-26T13:19:34.000Z</time>
      </trkpt>
      <trkpt lat="37.67655744217336177825927734375" lon="-1.68916471302509307861328125">
        <ele>319.20001220703125</ele>
        <time>2019-10-26T13:19:38.000Z</time>
      </trkpt>
      <trkpt lat="37.6763669215142726898193359375" lon="-1.68907561339437961578369140625">
        <ele>318</ele>
        <time>2019-10-26T13:19:42.000Z</time>
      </trkpt>
      <trkpt lat="37.67623524181544780731201171875" lon="-1.6888698376715183258056640625">
        <ele>318</ele>
        <time>2019-10-26T13:19:46.000Z</time>
      </trkpt>
      <trkpt lat="37.6761305518448352813720703125" lon="-1.68861309997737407684326171875">
        <ele>318.399993896484375</ele>
        <time>2019-10-26T13:19:50.000Z</time>
      </trkpt>
      <trkpt lat="37.67604027874767780303955078125" lon="-1.688353009521961212158203125">
        <ele>319</ele>
        <time>2019-10-26T13:19:54.000Z</time>
      </trkpt>
      <trkpt lat="37.67595268785953521728515625" lon="-1.6881010495126247406005859375">
        <ele>319.399993896484375</ele>
        <time>2019-10-26T13:19:58.000Z</time>
      </trkpt>
      <trkpt lat="37.67586392350494861602783203125" lon="-1.68785654939711093902587890625">
        <ele>318.600006103515625</ele>
        <time>2019-10-26T13:20:02.000Z</time>
      </trkpt>
      <trkpt lat="37.67577189020812511444091796875" lon="-1.68761732988059520721435546875">
        <ele>317.79998779296875</ele>
        <time>2019-10-26T13:20:07.000Z</time>
      </trkpt>
      <trkpt lat="37.67568446695804595947265625" lon="-1.687402836978435516357421875">
        <ele>317.399993896484375</ele>
        <time>2019-10-26T13:20:14.000Z</time>
      </trkpt>
      <trkpt lat="37.67551104538142681121826171875" lon="-1.68746712617576122283935546875">
        <ele>316.600006103515625</ele>
        <time>2019-10-26T13:20:19.000Z</time>
      </trkpt>
      <trkpt lat="37.67531566321849822998046875" lon="-1.6876112110912799835205078125">
        <ele>315.79998779296875</ele>
        <time>2019-10-26T13:20:23.000Z</time>
      </trkpt>
      <trkpt lat="37.67513184808194637298583984375" lon="-1.68772646225988864898681640625">
        <ele>315</ele>
        <time>2019-10-26T13:20:27.000Z</time>
      </trkpt>
      <trkpt lat="37.6749621145427227020263671875" lon="-1.687846072018146514892578125">
        <ele>315</ele>
        <time>2019-10-26T13:20:31.000Z</time>
      </trkpt>
      <trkpt lat="37.67479992471635341644287109375" lon="-1.68795914389193058013916015625">
        <ele>316.399993896484375</ele>
        <time>2019-10-26T13:20:36.000Z</time>
      </trkpt>
      <trkpt lat="37.674701772630214691162109375" lon="-1.688018403947353363037109375">
        <ele>317.399993896484375</ele>
        <time>2019-10-26T13:20:40.000Z</time>
      </trkpt>
      <trkpt lat="37.67463614232838153839111328125" lon="-1.68806643225252628326416015625">
        <ele>318</ele>
        <time>2019-10-26T13:20:43.000Z</time>
      </trkpt>
      <trkpt lat="37.67455919645726680755615234375" lon="-1.688133738934993743896484375">
        <ele>318.600006103515625</ele>
        <time>2019-10-26T13:20:47.000Z</time>
      </trkpt>
      <trkpt lat="37.67440195195376873016357421875" lon="-1.6882502473890781402587890625">
        <ele>320.20001220703125</ele>
        <time>2019-10-26T13:20:56.000Z</time>
      </trkpt>
      <trkpt lat="37.67423548735678195953369140625" lon="-1.68836583383381366729736328125">
        <ele>322.20001220703125</ele>
        <time>2019-10-26T13:21:03.000Z</time>
      </trkpt>
      <trkpt lat="37.67405770719051361083984375" lon="-1.68848804198205471038818359375">
        <ele>322.79998779296875</ele>
        <time>2019-10-26T13:21:09.000Z</time>
      </trkpt>
      <trkpt lat="37.67387665808200836181640625" lon="-1.6886210627853870391845703125">
        <ele>322.79998779296875</ele>
        <time>2019-10-26T13:21:15.000Z</time>
      </trkpt>
      <trkpt lat="37.6737353391945362091064453125" lon="-1.6887632198631763458251953125">
        <ele>323</ele>
        <time>2019-10-26T13:21:20.000Z</time>
      </trkpt>
      <trkpt lat="37.67373492009937763214111328125" lon="-1.68902297504246234893798828125">
        <ele>323.79998779296875</ele>
        <time>2019-10-26T13:21:26.000Z</time>
      </trkpt>
      <trkpt lat="37.67361153848469257354736328125" lon="-1.68921123258769512176513671875">
        <ele>323.399993896484375</ele>
        <time>2019-10-26T13:21:31.000Z</time>
      </trkpt>
      <trkpt lat="37.67354683019220829010009765625" lon="-1.6894431598484516143798828125">
        <ele>323</ele>
        <time>2019-10-26T13:21:37.000Z</time>
      </trkpt>
      <trkpt lat="37.6735117100179195404052734375" lon="-1.68964709155261516571044921875">
        <ele>322.600006103515625</ele>
        <time>2019-10-26T13:21:46.000Z</time>
      </trkpt>
      <trkpt lat="37.67346971668303012847900390625" lon="-1.68957148678600788116455078125">
        <ele>322.600006103515625</ele>
        <time>2019-10-26T13:21:51.000Z</time>
      </trkpt>
      <trkpt lat="37.67347742803394794464111328125" lon="-1.6893238015472888946533203125">
        <ele>323</ele>
        <time>2019-10-26T13:21:57.000Z</time>
      </trkpt>
      <trkpt lat="37.67343007028102874755859375" lon="-1.689108721911907196044921875">
        <ele>323</ele>
        <time>2019-10-26T13:22:02.000Z</time>
      </trkpt>
      <trkpt lat="37.673419006168842315673828125" lon="-1.68906706385314464569091796875">
        <ele>323</ele>
        <time>2019-10-26T13:22:03.000Z</time>
      </trkpt>
      <trkpt lat="37.673417665064334869384765625" lon="-1.688886769115924835205078125">
        <ele>323</ele>
        <time>2019-10-26T13:22:07.000Z</time>
      </trkpt>
      <trkpt lat="37.67329470254480838775634765625" lon="-1.688687615096569061279296875">
        <ele>323</ele>
        <time>2019-10-26T13:22:13.000Z</time>
      </trkpt>
      <trkpt lat="37.67313024960458278656005859375" lon="-1.68852140195667743682861328125">
        <ele>323.20001220703125</ele>
        <time>2019-10-26T13:22:19.000Z</time>
      </trkpt>
      <trkpt lat="37.672947943210601806640625" lon="-1.68841076083481311798095703125">
        <ele>323.399993896484375</ele>
        <time>2019-10-26T13:22:24.000Z</time>
      </trkpt>
      <trkpt lat="37.67278525047004222869873046875" lon="-1.68828637339174747467041015625">
        <ele>323.600006103515625</ele>
        <time>2019-10-26T13:22:29.000Z</time>
      </trkpt>
      <trkpt lat="37.67261107452213764190673828125" lon="-1.68816349469125270843505859375">
        <ele>324</ele>
        <time>2019-10-26T13:22:34.000Z</time>
      </trkpt>
      <trkpt lat="37.67254569567739963531494140625" lon="-1.68818394653499126434326171875">
        <ele>324</ele>
        <time>2019-10-26T13:22:36.000Z</time>
      </trkpt>
      <trkpt lat="37.67242851667106151580810546875" lon="-1.688395924866199493408203125">
        <ele>324.20001220703125</ele>
        <time>2019-10-26T13:22:42.000Z</time>
      </trkpt>
      <trkpt lat="37.67229977063834667205810546875" lon="-1.68861477635800838470458984375">
        <ele>324.20001220703125</ele>
        <time>2019-10-26T13:22:48.000Z</time>
      </trkpt>
      <trkpt lat="37.672195248305797576904296875" lon="-1.6888118349015712738037109375">
        <ele>324.399993896484375</ele>
        <time>2019-10-26T13:22:53.000Z</time>
      </trkpt>
      <trkpt lat="37.67208603210747241973876953125" lon="-1.6890299320220947265625">
        <ele>324.600006103515625</ele>
        <time>2019-10-26T13:22:59.000Z</time>
      </trkpt>
      <trkpt lat="37.6719882152974605560302734375" lon="-1.6892470233142375946044921875">
        <ele>325</ele>
        <time>2019-10-26T13:23:06.000Z</time>
      </trkpt>
      <trkpt lat="37.67193867824971675872802734375" lon="-1.6892674751579761505126953125">
        <ele>325</ele>
        <time>2019-10-26T13:23:08.000Z</time>
      </trkpt>
      <trkpt lat="37.67181445844471454620361328125" lon="-1.68917720206081867218017578125">
        <ele>325</ele>
        <time>2019-10-26T13:23:12.000Z</time>
      </trkpt>
      <trkpt lat="37.6716777496039867401123046875" lon="-1.6890203766524791717529296875">
        <ele>325</ele>
        <time>2019-10-26T13:23:17.000Z</time>
      </trkpt>
      <trkpt lat="37.67153835855424404144287109375" lon="-1.68886028230190277099609375">
        <ele>325.399993896484375</ele>
        <time>2019-10-26T13:23:23.000Z</time>
      </trkpt>
      <trkpt lat="37.6714148931205272674560546875" lon="-1.68872826732695102691650390625">
        <ele>325.600006103515625</ele>
        <time>2019-10-26T13:23:31.000Z</time>
      </trkpt>
      <trkpt lat="37.671346329152584075927734375" lon="-1.6886539198458194732666015625">
        <ele>325.79998779296875</ele>
        <time>2019-10-26T13:23:41.000Z</time>
      </trkpt>
      <trkpt lat="37.671475075185298919677734375" lon="-1.688828766345977783203125">
        <ele>325.600006103515625</ele>
        <time>2019-10-26T13:23:56.000Z</time>
      </trkpt>
      <trkpt lat="37.6716244406998157501220703125" lon="-1.68900788761675357818603515625">
        <ele>325.20001220703125</ele>
        <time>2019-10-26T13:24:03.000Z</time>
      </trkpt>
      <trkpt lat="37.671774812042713165283203125" lon="-1.68913696892559528350830078125">
        <ele>325</ele>
        <time>2019-10-26T13:24:11.000Z</time>
      </trkpt>
      <trkpt lat="37.671939097344875335693359375" lon="-1.68926940299570560455322265625">
        <ele>325</ele>
        <time>2019-10-26T13:24:18.000Z</time>
      </trkpt>
      <trkpt lat="37.6719536818563938140869140625" lon="-1.68929077684879302978515625">
        <ele>325</ele>
        <time>2019-10-26T13:24:19.000Z</time>
      </trkpt>
      <trkpt lat="37.67189241014420986175537109375" lon="-1.6893665492534637451171875">
        <ele>325.20001220703125</ele>
        <time>2019-10-26T13:24:25.000Z</time>
      </trkpt>
      <trkpt lat="37.671750672161579132080078125" lon="-1.6895122267305850982666015625">
        <ele>325.600006103515625</ele>
        <time>2019-10-26T13:24:33.000Z</time>
      </trkpt>
      <trkpt lat="37.67169811762869358062744140625" lon="-1.68954499997198581695556640625">
        <ele>325.600006103515625</ele>
        <time>2019-10-26T13:24:37.000Z</time>
      </trkpt>
      <trkpt lat="37.67154539935290813446044921875" lon="-1.689393706619739532470703125">
        <ele>325.20001220703125</ele>
        <time>2019-10-26T13:24:46.000Z</time>
      </trkpt>
      <trkpt lat="37.671524696052074432373046875" lon="-1.689383983612060546875">
        <ele>325.20001220703125</ele>
        <time>2019-10-26T13:24:47.000Z</time>
      </trkpt>
      <trkpt lat="37.67148035578429698944091796875" lon="-1.689402759075164794921875">
        <ele>325.20001220703125</ele>
        <time>2019-10-26T13:24:52.000Z</time>
      </trkpt>
      <trkpt lat="37.67140927724540233612060546875" lon="-1.68938373215496540069580078125">
        <ele>325</ele>
        <time>2019-10-26T13:24:58.000Z</time>
      </trkpt>
      <trkpt lat="37.67135202884674072265625" lon="-1.68931516818702220916748046875">
        <ele>325.20001220703125</ele>
        <time>2019-10-26T13:25:02.000Z</time>
      </trkpt>
      <trkpt lat="37.67128606326878070831298828125" lon="-1.68927493505179882049560546875">
        <ele>325.399993896484375</ele>
        <time>2019-10-26T13:25:07.000Z</time>
      </trkpt>
      <trkpt lat="37.67130433581769466400146484375" lon="-1.68926923535764217376708984375">
        <ele>325.399993896484375</ele>
        <time>2019-10-26T13:25:21.000Z</time>
      </trkpt>
      <trkpt lat="37.67136954702436923980712890625" lon="-1.689373590052127838134765625">
        <ele>325</ele>
        <time>2019-10-26T13:25:26.000Z</time>
      </trkpt>
      <trkpt lat="37.67149661667644977569580078125" lon="-1.68957970105111598968505859375">
        <ele>325.399993896484375</ele>
        <time>2019-10-26T13:25:33.000Z</time>
      </trkpt>
      <trkpt lat="37.6716190762817859649658203125" lon="-1.68978966772556304931640625">
        <ele>325.79998779296875</ele>
        <time>2019-10-26T13:25:39.000Z</time>
      </trkpt>
      <trkpt lat="37.67174564301967620849609375" lon="-1.68997566215693950653076171875">
        <ele>326.399993896484375</ele>
        <time>2019-10-26T13:25:44.000Z</time>
      </trkpt>
      <trkpt lat="37.67188511788845062255859375" lon="-1.690172217786312103271484375">
        <ele>327.20001220703125</ele>
        <time>2019-10-26T13:25:50.000Z</time>
      </trkpt>
      <trkpt lat="37.67203263938426971435546875" lon="-1.69036139734089374542236328125">
        <ele>328</ele>
        <time>2019-10-26T13:25:56.000Z</time>
      </trkpt>
      <trkpt lat="37.67219223082065582275390625" lon="-1.690518893301486968994140625">
        <ele>328</ele>
        <time>2019-10-26T13:26:02.000Z</time>
      </trkpt>
      <trkpt lat="37.67235090024769306182861328125" lon="-1.690673120319843292236328125">
        <ele>328</ele>
        <time>2019-10-26T13:26:08.000Z</time>
      </trkpt>
      <trkpt lat="37.67240186221897602081298828125" lon="-1.6909029521048069000244140625">
        <ele>327.600006103515625</ele>
        <time>2019-10-26T13:26:14.000Z</time>
      </trkpt>
      <trkpt lat="37.67238325439393520355224609375" lon="-1.690925247967243194580078125">
        <ele>327.600006103515625</ele>
        <time>2019-10-26T13:26:15.000Z</time>
      </trkpt>
      <trkpt lat="37.6721848547458648681640625" lon="-1.69094796292483806610107421875">
        <ele>327.399993896484375</ele>
        <time>2019-10-26T13:26:22.000Z</time>
      </trkpt>
      <trkpt lat="37.6719848625361919403076171875" lon="-1.69096506200730800628662109375">
        <ele>327.399993896484375</ele>
        <time>2019-10-26T13:26:27.000Z</time>
      </trkpt>
      <trkpt lat="37.67176835797727108001708984375" lon="-1.6909850947558879852294921875">
        <ele>327.399993896484375</ele>
        <time>2019-10-26T13:26:32.000Z</time>
      </trkpt>
      <trkpt lat="37.6715791784226894378662109375" lon="-1.690993644297122955322265625">
        <ele>327.20001220703125</ele>
        <time>2019-10-26T13:26:36.000Z</time>
      </trkpt>
      <trkpt lat="37.67138916067779064178466796875" lon="-1.69103345833718776702880859375">
        <ele>327.20001220703125</ele>
        <time>2019-10-26T13:26:40.000Z</time>
      </trkpt>
      <trkpt lat="37.67120157368481159210205078125" lon="-1.691090203821659088134765625">
        <ele>327</ele>
        <time>2019-10-26T13:26:44.000Z</time>
      </trkpt>
      <trkpt lat="37.67100979574024677276611328125" lon="-1.6911309398710727691650390625">
        <ele>326.600006103515625</ele>
        <time>2019-10-26T13:26:48.000Z</time>
      </trkpt>
      <trkpt lat="37.67091189511120319366455078125" lon="-1.69114996679127216339111328125">
        <ele>326.600006103515625</ele>
        <time>2019-10-26T13:26:50.000Z</time>
      </trkpt>
      <trkpt lat="37.67073713243007659912109375" lon="-1.6911758668720722198486328125">
        <ele>326.399993896484375</ele>
        <time>2019-10-26T13:26:54.000Z</time>
      </trkpt>
      <trkpt lat="37.6705243997275829315185546875" lon="-1.69122423045337200164794921875">
        <ele>326.399993896484375</ele>
        <time>2019-10-26T13:26:59.000Z</time>
      </trkpt>
      <trkpt lat="37.67030890099704265594482421875" lon="-1.6912709176540374755859375">
        <ele>326.399993896484375</ele>
        <time>2019-10-26T13:27:04.000Z</time>
      </trkpt>
      <trkpt lat="37.67012785188853740692138671875" lon="-1.6912999190390110015869140625">
        <ele>326</ele>
        <time>2019-10-26T13:27:08.000Z</time>
      </trkpt>
      <trkpt lat="37.670035399496555328369140625" lon="-1.69131877832114696502685546875">
        <ele>325.79998779296875</ele>
        <time>2019-10-26T13:27:10.000Z</time>
      </trkpt>
      <trkpt lat="37.66984588466584682464599609375" lon="-1.69136253185570240020751953125">
        <ele>326</ele>
        <time>2019-10-26T13:27:14.000Z</time>
      </trkpt>
      <trkpt lat="37.66964890994131565093994140625" lon="-1.691405363380908966064453125">
        <ele>326.399993896484375</ele>
        <time>2019-10-26T13:27:18.000Z</time>
      </trkpt>
      <trkpt lat="37.66954933293163776397705078125" lon="-1.69142371974885463714599609375">
        <ele>326.399993896484375</ele>
        <time>2019-10-26T13:27:20.000Z</time>
      </trkpt>
      <trkpt lat="37.6693328283727169036865234375" lon="-1.691465042531490325927734375">
        <ele>326.79998779296875</ele>
        <time>2019-10-26T13:27:25.000Z</time>
      </trkpt>
      <trkpt lat="37.6691351830959320068359375" lon="-1.691522710025310516357421875">
        <ele>326.79998779296875</ele>
        <time>2019-10-26T13:27:30.000Z</time>
      </trkpt>
      <trkpt lat="37.66894550062716007232666015625" lon="-1.691587753593921661376953125">
        <ele>326.399993896484375</ele>
        <time>2019-10-26T13:27:36.000Z</time>
      </trkpt>
      <trkpt lat="37.66893661580979824066162109375" lon="-1.69182873331010341644287109375">
        <ele>326</ele>
        <time>2019-10-26T13:27:42.000Z</time>
      </trkpt>
      <trkpt lat="37.66882346011698246002197265625" lon="-1.69201782904565334320068359375">
        <ele>325.20001220703125</ele>
        <time>2019-10-26T13:27:47.000Z</time>
      </trkpt>
      <trkpt lat="37.66878716647624969482421875" lon="-1.69204029254615306854248046875">
        <ele>325.20001220703125</ele>
        <time>2019-10-26T13:27:48.000Z</time>
      </trkpt>
      <trkpt lat="37.66875506378710269927978515625" lon="-1.69206493534147739410400390625">
        <ele>325</ele>
        <time>2019-10-26T13:27:49.000Z</time>
      </trkpt>
      <trkpt lat="37.66857418231666088104248046875" lon="-1.6921753250062465667724609375">
        <ele>324.600006103515625</ele>
        <time>2019-10-26T13:27:54.000Z</time>
      </trkpt>
      <trkpt lat="37.66835843212902545928955078125" lon="-1.69222779572010040283203125">
        <ele>324.20001220703125</ele>
        <time>2019-10-26T13:27:59.000Z</time>
      </trkpt>
      <trkpt lat="37.66817755065858364105224609375" lon="-1.6922847926616668701171875">
        <ele>324</ele>
        <time>2019-10-26T13:28:03.000Z</time>
      </trkpt>
      <trkpt lat="37.66799851320683956146240234375" lon="-1.69233416207134723663330078125">
        <ele>324</ele>
        <time>2019-10-26T13:28:07.000Z</time>
      </trkpt>
      <trkpt lat="37.66781528480350971221923828125" lon="-1.6923878900706768035888671875">
        <ele>324</ele>
        <time>2019-10-26T13:28:11.000Z</time>
      </trkpt>
      <trkpt lat="37.6676108501851558685302734375" lon="-1.69244346208870410919189453125">
        <ele>324</ele>
        <time>2019-10-26T13:28:16.000Z</time>
      </trkpt>
      <trkpt lat="37.6675364188849925994873046875" lon="-1.69247246347367763519287109375">
        <ele>324</ele>
        <time>2019-10-26T13:28:18.000Z</time>
      </trkpt>
      <trkpt lat="37.66740306280553340911865234375" lon="-1.69268050231039524078369140625">
        <ele>323.399993896484375</ele>
        <time>2019-10-26T13:28:23.000Z</time>
      </trkpt>
      <trkpt lat="37.66732670366764068603515625" lon="-1.69276633299887180328369140625">
        <ele>323</ele>
        <time>2019-10-26T13:28:25.000Z</time>
      </trkpt>
      <trkpt lat="37.66715412028133869171142578125" lon="-1.6929338872432708740234375">
        <ele>322.20001220703125</ele>
        <time>2019-10-26T13:28:29.000Z</time>
      </trkpt>
      <trkpt lat="37.6669869013130664825439453125" lon="-1.69311116449534893035888671875">
        <ele>321.399993896484375</ele>
        <time>2019-10-26T13:28:33.000Z</time>
      </trkpt>
      <trkpt lat="37.66681817360222339630126953125" lon="-1.6932780481874942779541015625">
        <ele>320.600006103515625</ele>
        <time>2019-10-26T13:28:37.000Z</time>
      </trkpt>
      <trkpt lat="37.666661851108074188232421875" lon="-1.69344459660351276397705078125">
        <ele>320.399993896484375</ele>
        <time>2019-10-26T13:28:41.000Z</time>
      </trkpt>
      <trkpt lat="37.66651659272611141204833984375" lon="-1.6936673037707805633544921875">
        <ele>321</ele>
        <time>2019-10-26T13:28:45.000Z</time>
      </trkpt>
      <trkpt lat="37.6663723401725292205810546875" lon="-1.69387676753103733062744140625">
        <ele>321.600006103515625</ele>
        <time>2019-10-26T13:28:49.000Z</time>
      </trkpt>
      <trkpt lat="37.66632364131510257720947265625" lon="-1.69398606754839420318603515625">
        <ele>321.79998779296875</ele>
        <time>2019-10-26T13:28:51.000Z</time>
      </trkpt>
      <trkpt lat="37.66624015755951404571533203125" lon="-1.69419293291866779327392578125">
        <ele>322</ele>
        <time>2019-10-26T13:28:55.000Z</time>
      </trkpt>
      <trkpt lat="37.66615550033748149871826171875" lon="-1.69439460150897502899169921875">
        <ele>322.20001220703125</ele>
        <time>2019-10-26T13:28:59.000Z</time>
      </trkpt>
      <trkpt lat="37.666135467588901519775390625" lon="-1.69443550519645214080810546875">
        <ele>322.399993896484375</ele>
        <time>2019-10-26T13:29:00.000Z</time>
      </trkpt>
      <trkpt lat="37.666060365736484527587890625" lon="-1.694695763289928436279296875">
        <ele>322.600006103515625</ele>
        <time>2019-10-26T13:29:05.000Z</time>
      </trkpt>
      <trkpt lat="37.66602457500994205474853515625" lon="-1.6948087513446807861328125">
        <ele>323</ele>
        <time>2019-10-26T13:29:07.000Z</time>
      </trkpt>
      <trkpt lat="37.665974199771881103515625" lon="-1.69496440328657627105712890625">
        <ele>323.20001220703125</ele>
        <time>2019-10-26T13:29:10.000Z</time>
      </trkpt>
      <trkpt lat="37.66593254171311855316162109375" lon="-1.69512684457004070281982421875">
        <ele>323.399993896484375</ele>
        <time>2019-10-26T13:29:13.000Z</time>
      </trkpt>
      <trkpt lat="37.66588543541729450225830078125" lon="-1.695263385772705078125">
        <ele>323.600006103515625</ele>
        <time>2019-10-26T13:29:16.000Z</time>
      </trkpt>
      <trkpt lat="37.66584075987339019775390625" lon="-1.695433370769023895263671875">
        <ele>323.600006103515625</ele>
        <time>2019-10-26T13:29:20.000Z</time>
      </trkpt>
      <trkpt lat="37.66582072712481021881103515625" lon="-1.6955609433352947235107421875">
        <ele>323.79998779296875</ele>
        <time>2019-10-26T13:29:23.000Z</time>
      </trkpt>
      <trkpt lat="37.66565476544201374053955078125" lon="-1.695745848119258880615234375">
        <ele>323.79998779296875</ele>
        <time>2019-10-26T13:29:28.000Z</time>
      </trkpt>
      <trkpt lat="37.66562283039093017578125" lon="-1.69578331522643566131591796875">
        <ele>323.600006103515625</ele>
        <time>2019-10-26T13:29:29.000Z</time>
      </trkpt>
      <trkpt lat="37.66558804549276828765869140625" lon="-1.69581801630556583404541015625">
        <ele>323.600006103515625</ele>
        <time>2019-10-26T13:29:30.000Z</time>
      </trkpt>
      <trkpt lat="37.66561411321163177490234375" lon="-1.69585950672626495361328125">
        <ele>323.399993896484375</ele>
        <time>2019-10-26T13:29:36.000Z</time>
      </trkpt>
      <trkpt lat="37.6657145284116268157958984375" lon="-1.69578046537935733795166015625">
        <ele>323.79998779296875</ele>
        <time>2019-10-26T13:29:42.000Z</time>
      </trkpt>
      <trkpt lat="37.66576909460127353668212890625" lon="-1.69577593915164470672607421875">
        <ele>323.79998779296875</ele>
        <time>2019-10-26T13:30:28.000Z</time>
      </trkpt>
      <trkpt lat="37.665625847876071929931640625" lon="-1.69583075679838657379150390625">
        <ele>323.600006103515625</ele>
        <time>2019-10-26T13:30:56.000Z</time>
      </trkpt>
      <trkpt lat="37.66551646403968334197998046875" lon="-1.69588632881641387939453125">
        <ele>323.399993896484375</ele>
        <time>2019-10-26T13:31:02.000Z</time>
      </trkpt>
      <trkpt lat="37.66533390618860721588134765625" lon="-1.6960367001593112945556640625">
        <ele>322.79998779296875</ele>
        <time>2019-10-26T13:31:08.000Z</time>
      </trkpt>
      <trkpt lat="37.665163837373256683349609375" lon="-1.69617961160838603973388671875">
        <ele>322.20001220703125</ele>
        <time>2019-10-26T13:31:13.000Z</time>
      </trkpt>
      <trkpt lat="37.6650124602019786834716796875" lon="-1.69632948003709316253662109375">
        <ele>321.79998779296875</ele>
        <time>2019-10-26T13:31:18.000Z</time>
      </trkpt>
      <trkpt lat="37.66483887098729610443115234375" lon="-1.69645856134593486785888671875">
        <ele>321</ele>
        <time>2019-10-26T13:31:23.000Z</time>
      </trkpt>
      <trkpt lat="37.66466327011585235595703125" lon="-1.696590743958950042724609375">
        <ele>320.79998779296875</ele>
        <time>2019-10-26T13:31:28.000Z</time>
      </trkpt>
      <trkpt lat="37.66448347829282283782958984375" lon="-1.69673030264675617218017578125">
        <ele>320.79998779296875</ele>
        <time>2019-10-26T13:31:33.000Z</time>
      </trkpt>
      <trkpt lat="37.66430678777396678924560546875" lon="-1.696877740323543548583984375">
        <ele>321</ele>
        <time>2019-10-26T13:31:38.000Z</time>
      </trkpt>
      <trkpt lat="37.6641585119068622589111328125" lon="-1.6970153711736202239990234375">
        <ele>321.20001220703125</ele>
        <time>2019-10-26T13:31:43.000Z</time>
      </trkpt>
      <trkpt lat="37.66396011225879192352294921875" lon="-1.69714252464473247528076171875">
        <ele>321.20001220703125</ele>
        <time>2019-10-26T13:31:48.000Z</time>
      </trkpt>
      <trkpt lat="37.6637964136898517608642578125" lon="-1.69731787405908107757568359375">
        <ele>321.399993896484375</ele>
        <time>2019-10-26T13:31:52.000Z</time>
      </trkpt>
      <trkpt lat="37.66365216113626956939697265625" lon="-1.697484590113162994384765625">
        <ele>321.20001220703125</ele>
        <time>2019-10-26T13:31:56.000Z</time>
      </trkpt>
      <trkpt lat="37.6634846068918704986572265625" lon="-1.697666309773921966552734375">
        <ele>320.79998779296875</ele>
        <time>2019-10-26T13:32:01.000Z</time>
      </trkpt>
      <trkpt lat="37.6633414439857006072998046875" lon="-1.6978146694600582122802734375">
        <ele>320.399993896484375</ele>
        <time>2019-10-26T13:32:05.000Z</time>
      </trkpt>
      <trkpt lat="37.663206495344638824462890625" lon="-1.69798054732382297515869140625">
        <ele>320.399993896484375</ele>
        <time>2019-10-26T13:32:09.000Z</time>
      </trkpt>
      <trkpt lat="37.6630626618862152099609375" lon="-1.6981589980423450469970703125">
        <ele>320.399993896484375</ele>
        <time>2019-10-26T13:32:13.000Z</time>
      </trkpt>
      <trkpt lat="37.66291790641844272613525390625" lon="-1.69831817038357257843017578125">
        <ele>320.399993896484375</ele>
        <time>2019-10-26T13:32:17.000Z</time>
      </trkpt>
      <trkpt lat="37.66277357004582881927490234375" lon="-1.69847876764833927154541015625">
        <ele>320.399993896484375</ele>
        <time>2019-10-26T13:32:21.000Z</time>
      </trkpt>
      <trkpt lat="37.66262688674032688140869140625" lon="-1.69864405877888202667236328125">
        <ele>320.399993896484375</ele>
        <time>2019-10-26T13:32:25.000Z</time>
      </trkpt>
      <trkpt lat="37.66259302385151386260986328125" lon="-1.6986857168376445770263671875">
        <ele>320.399993896484375</ele>
        <time>2019-10-26T13:32:26.000Z</time>
      </trkpt>
      <trkpt lat="37.66246997751295566558837890625" lon="-1.698887385427951812744140625">
        <ele>320.399993896484375</ele>
        <time>2019-10-26T13:32:30.000Z</time>
      </trkpt>
      <trkpt lat="37.66230426728725433349609375" lon="-1.69908159412443637847900390625">
        <ele>320.399993896484375</ele>
        <time>2019-10-26T13:32:35.000Z</time>
      </trkpt>
      <trkpt lat="37.662144340574741363525390625" lon="-1.69922173954546451568603515625">
        <ele>320.600006103515625</ele>
        <time>2019-10-26T13:32:39.000Z</time>
      </trkpt>
      <trkpt lat="37.6619711704552173614501953125" lon="-1.6993539221584796905517578125">
        <ele>321</ele>
        <time>2019-10-26T13:32:43.000Z</time>
      </trkpt>
      <trkpt lat="37.66180529259145259857177734375" lon="-1.699502952396869659423828125">
        <ele>321.20001220703125</ele>
        <time>2019-10-26T13:32:47.000Z</time>
      </trkpt>
      <trkpt lat="37.66169364564120769500732421875" lon="-1.69961887411773204803466796875">
        <ele>321.20001220703125</ele>
        <time>2019-10-26T13:32:50.000Z</time>
      </trkpt>
      <trkpt lat="37.6617403328418731689453125" lon="-1.69983764179050922393798828125">
        <ele>321</ele>
        <time>2019-10-26T13:32:55.000Z</time>
      </trkpt>
      <trkpt lat="37.66182574443519115447998046875" lon="-1.699883155524730682373046875">
        <ele>321</ele>
        <time>2019-10-26T13:32:57.000Z</time>
      </trkpt>
      <trkpt lat="37.6620053686201572418212890625" lon="-1.699984408915042877197265625">
        <ele>321</ele>
        <time>2019-10-26T13:33:01.000Z</time>
      </trkpt>
      <trkpt lat="37.66218180768191814422607421875" lon="-1.70009178109467029571533203125">
        <ele>321</ele>
        <time>2019-10-26T13:33:05.000Z</time>
      </trkpt>
      <trkpt lat="37.66234961338341236114501953125" lon="-1.7001941241323947906494140625">
        <ele>321</ele>
        <time>2019-10-26T13:33:09.000Z</time>
      </trkpt>
      <trkpt lat="37.66251088120043277740478515625" lon="-1.70030392706394195556640625">
        <ele>321</ele>
        <time>2019-10-26T13:33:13.000Z</time>
      </trkpt>
      <trkpt lat="37.66269427724182605743408203125" lon="-1.70042605139315128326416015625">
        <ele>321</ele>
        <time>2019-10-26T13:33:18.000Z</time>
      </trkpt>
      <trkpt lat="37.6628261245787143707275390625" lon="-1.70051288791000843048095703125">
        <ele>321.20001220703125</ele>
        <time>2019-10-26T13:33:22.000Z</time>
      </trkpt>
      <trkpt lat="37.66299602575600147247314453125" lon="-1.700632162392139434814453125">
        <ele>321.399993896484375</ele>
        <time>2019-10-26T13:33:29.000Z</time>
      </trkpt>
      <trkpt lat="37.6630519330501556396484375" lon="-1.70067415572702884674072265625">
        <ele>321.600006103515625</ele>
        <time>2019-10-26T13:33:32.000Z</time>
      </trkpt>
      <trkpt lat="37.66298144124448299407958984375" lon="-1.7006635107100009918212890625">
        <ele>321.600006103515625</ele>
        <time>2019-10-26T13:33:36.000Z</time>
      </trkpt>
      <trkpt lat="37.6628133840858936309814453125" lon="-1.700547002255916595458984375">
        <ele>321.20001220703125</ele>
        <time>2019-10-26T13:33:41.000Z</time>
      </trkpt>
      <trkpt lat="37.66264800913631916046142578125" lon="-1.70044013299047946929931640625">
        <ele>321</ele>
        <time>2019-10-26T13:33:45.000Z</time>
      </trkpt>
      <trkpt lat="37.662478275597095489501953125" lon="-1.700312979519367218017578125">
        <ele>321</ele>
        <time>2019-10-26T13:33:49.000Z</time>
      </trkpt>
      <trkpt lat="37.6622963882982730865478515625" lon="-1.7001874186098575592041015625">
        <ele>321</ele>
        <time>2019-10-26T13:33:53.000Z</time>
      </trkpt>
      <trkpt lat="37.66210486181080341339111328125" lon="-1.70008356682956218719482421875">
        <ele>321</ele>
        <time>2019-10-26T13:33:57.000Z</time>
      </trkpt>
      <trkpt lat="37.66193487681448459625244140625" lon="-1.69997912831604480743408203125">
        <ele>321</ele>
        <time>2019-10-26T13:34:01.000Z</time>
      </trkpt>
      <trkpt lat="37.66185457818210124969482421875" lon="-1.69993336312472820281982421875">
        <ele>321</ele>
        <time>2019-10-26T13:34:03.000Z</time>
      </trkpt>
      <trkpt lat="37.66165978275239467620849609375" lon="-1.699871756136417388916015625">
        <ele>321</ele>
        <time>2019-10-26T13:34:08.000Z</time>
      </trkpt>
      <trkpt lat="37.66162432730197906494140625" lon="-1.69987016357481479644775390625">
        <ele>321</ele>
        <time>2019-10-26T13:34:09.000Z</time>
      </trkpt>
      <trkpt lat="37.66141385771334171295166015625" lon="-1.69989757239818572998046875">
        <ele>321.399993896484375</ele>
        <time>2019-10-26T13:34:15.000Z</time>
      </trkpt>
      <trkpt lat="37.661373876035213470458984375" lon="-1.6999020986258983612060546875">
        <ele>321.399993896484375</ele>
        <time>2019-10-26T13:34:16.000Z</time>
      </trkpt>
      <trkpt lat="37.66129449941217899322509765625" lon="-1.699903272092342376708984375">
        <ele>321.399993896484375</ele>
        <time>2019-10-26T13:34:18.000Z</time>
      </trkpt>
      <trkpt lat="37.661210596561431884765625" lon="-1.6999128274619579315185546875">
        <ele>321.600006103515625</ele>
        <time>2019-10-26T13:34:20.000Z</time>
      </trkpt>
      <trkpt lat="37.6610733009874820709228515625" lon="-1.69986714608967304229736328125">
        <ele>321.79998779296875</ele>
        <time>2019-10-26T13:34:24.000Z</time>
      </trkpt>
      <trkpt lat="37.66102560795843601226806640625" lon="-1.69982641004025936126708984375">
        <ele>321.79998779296875</ele>
        <time>2019-10-26T13:34:26.000Z</time>
      </trkpt>
      <trkpt lat="37.660901807248592376708984375" lon="-1.69970889575779438018798828125">
        <ele>321.79998779296875</ele>
        <time>2019-10-26T13:34:30.000Z</time>
      </trkpt>
      <trkpt lat="37.6607031561434268951416015625" lon="-1.69976882636547088623046875">
        <ele>321.399993896484375</ele>
        <time>2019-10-26T13:34:35.000Z</time>
      </trkpt>
      <trkpt lat="37.66058455221354961395263671875" lon="-1.6999795474112033843994140625">
        <ele>321.20001220703125</ele>
        <time>2019-10-26T13:34:40.000Z</time>
      </trkpt>
      <trkpt lat="37.66049243509769439697265625" lon="-1.70020057819783687591552734375">
        <ele>321</ele>
        <time>2019-10-26T13:34:44.000Z</time>
      </trkpt>
      <trkpt lat="37.66040115617215633392333984375" lon="-1.70042462646961212158203125">
        <ele>320.79998779296875</ele>
        <time>2019-10-26T13:34:48.000Z</time>
      </trkpt>
      <trkpt lat="37.66030141152441501617431640625" lon="-1.700647585093975067138671875">
        <ele>320.600006103515625</ele>
        <time>2019-10-26T13:34:52.000Z</time>
      </trkpt>
      <trkpt lat="37.6601700671017169952392578125" lon="-1.7008499242365360260009765625">
        <ele>320.399993896484375</ele>
        <time>2019-10-26T13:34:56.000Z</time>
      </trkpt>
      <trkpt lat="37.66005632467567920684814453125" lon="-1.70099283568561077117919921875">
        <ele>320</ele>
        <time>2019-10-26T13:34:59.000Z</time>
      </trkpt>
      <trkpt lat="37.659891285002231597900390625" lon="-1.70116701163351535797119140625">
        <ele>320</ele>
        <time>2019-10-26T13:35:03.000Z</time>
      </trkpt>
      <trkpt lat="37.6597191207110881805419921875" lon="-1.70133850537240505218505859375">
        <ele>320</ele>
        <time>2019-10-26T13:35:07.000Z</time>
      </trkpt>
      <trkpt lat="37.659547962248325347900390625" lon="-1.70150220394134521484375">
        <ele>320</ele>
        <time>2019-10-26T13:35:11.000Z</time>
      </trkpt>
      <trkpt lat="37.65939365141093730926513671875" lon="-1.70165651477873325347900390625">
        <ele>320.20001220703125</ele>
        <time>2019-10-26T13:35:15.000Z</time>
      </trkpt>
      <trkpt lat="37.65922282822430133819580078125" lon="-1.701821386814117431640625">
        <ele>320.399993896484375</ele>
        <time>2019-10-26T13:35:19.000Z</time>
      </trkpt>
      <trkpt lat="37.65913632698357105255126953125" lon="-1.7019083909690380096435546875">
        <ele>320.399993896484375</ele>
        <time>2019-10-26T13:35:21.000Z</time>
      </trkpt>
      <trkpt lat="37.65896181575953960418701171875" lon="-1.702068485319614410400390625">
        <ele>320.600006103515625</ele>
        <time>2019-10-26T13:35:25.000Z</time>
      </trkpt>
      <trkpt lat="37.65881278552114963531494140625" lon="-1.702188514173030853271484375">
        <ele>320.79998779296875</ele>
        <time>2019-10-26T13:35:29.000Z</time>
      </trkpt>
      <trkpt lat="37.65864665620028972625732421875" lon="-1.702326647937297821044921875">
        <ele>321</ele>
        <time>2019-10-26T13:35:35.000Z</time>
      </trkpt>
      <trkpt lat="37.65847742557525634765625" lon="-1.70243703760206699371337890625">
        <ele>321.20001220703125</ele>
        <time>2019-10-26T13:35:40.000Z</time>
      </trkpt>
      <trkpt lat="37.65830333344638347625732421875" lon="-1.7025388777256011962890625">
        <ele>321.20001220703125</ele>
        <time>2019-10-26T13:35:44.000Z</time>
      </trkpt>
      <trkpt lat="37.65809319913387298583984375" lon="-1.702652536332607269287109375">
        <ele>321</ele>
        <time>2019-10-26T13:35:48.000Z</time>
      </trkpt>
      <trkpt lat="37.65792748890817165374755859375" lon="-1.70275253243744373321533203125">
        <ele>321</ele>
        <time>2019-10-26T13:35:51.000Z</time>
      </trkpt>
      <trkpt lat="37.6577560789883136749267578125" lon="-1.702846996486186981201171875">
        <ele>320.79998779296875</ele>
        <time>2019-10-26T13:35:54.000Z</time>
      </trkpt>
      <trkpt lat="37.657584249973297119140625" lon="-1.70293517410755157470703125">
        <ele>320.79998779296875</ele>
        <time>2019-10-26T13:35:57.000Z</time>
      </trkpt>
      <trkpt lat="37.6574191264808177947998046875" lon="-1.70303164981305599212646484375">
        <ele>320.600006103515625</ele>
        <time>2019-10-26T13:36:00.000Z</time>
      </trkpt>
      <trkpt lat="37.6572100818157196044921875" lon="-1.703155450522899627685546875">
        <ele>320.600006103515625</ele>
        <time>2019-10-26T13:36:04.000Z</time>
      </trkpt>
      <trkpt lat="37.65710706822574138641357421875" lon="-1.70321051962673664093017578125">
        <ele>320.600006103515625</ele>
        <time>2019-10-26T13:36:06.000Z</time>
      </trkpt>
      <trkpt lat="37.6569128595292568206787109375" lon="-1.70334286987781524658203125">
        <ele>320.600006103515625</ele>
        <time>2019-10-26T13:36:10.000Z</time>
      </trkpt>
      <trkpt lat="37.6568696089088916778564453125" lon="-1.70338016934692859649658203125">
        <ele>320.600006103515625</ele>
        <time>2019-10-26T13:36:11.000Z</time>
      </trkpt>
      <trkpt lat="37.65678939409554004669189453125" lon="-1.70346365310251712799072265625">
        <ele>320.79998779296875</ele>
        <time>2019-10-26T13:36:13.000Z</time>
      </trkpt>
      <trkpt lat="37.656680680811405181884765625" lon="-1.70368795283138751983642578125">
        <ele>321.20001220703125</ele>
        <time>2019-10-26T13:36:17.000Z</time>
      </trkpt>
      <trkpt lat="37.65664908103644847869873046875" lon="-1.70374344103038311004638671875">
        <ele>321</ele>
        <time>2019-10-26T13:36:18.000Z</time>
      </trkpt>
      <trkpt lat="37.6564877294003963470458984375" lon="-1.7039207182824611663818359375">
        <ele>320.79998779296875</ele>
        <time>2019-10-26T13:36:22.000Z</time>
      </trkpt>
      <trkpt lat="37.6563356816768646240234375" lon="-1.703999005258083343505859375">
        <ele>320.20001220703125</ele>
        <time>2019-10-26T13:36:25.000Z</time>
      </trkpt>
      <trkpt lat="37.656123451888561248779296875" lon="-1.70407989062368869781494140625">
        <ele>319.399993896484375</ele>
        <time>2019-10-26T13:36:29.000Z</time>
      </trkpt>
      <trkpt lat="37.65590728260576725006103515625" lon="-1.70414493419229984283447265625">
        <ele>318.399993896484375</ele>
        <time>2019-10-26T13:36:33.000Z</time>
      </trkpt>
      <trkpt lat="37.655694968998432159423828125" lon="-1.704217605292797088623046875">
        <ele>317.79998779296875</ele>
        <time>2019-10-26T13:36:37.000Z</time>
      </trkpt>
      <trkpt lat="37.65547846443951129913330078125" lon="-1.70428424142301082611083984375">
        <ele>317.600006103515625</ele>
        <time>2019-10-26T13:36:41.000Z</time>
      </trkpt>
      <trkpt lat="37.65529037453234195709228515625" lon="-1.70434425584971904754638671875">
        <ele>317.600006103515625</ele>
        <time>2019-10-26T13:36:45.000Z</time>
      </trkpt>
      <trkpt lat="37.65525466762483119964599609375" lon="-1.704367138445377349853515625">
        <ele>317.600006103515625</ele>
        <time>2019-10-26T13:36:46.000Z</time>
      </trkpt>
      <trkpt lat="37.655261456966400146484375" lon="-1.70457509346306324005126953125">
        <ele>317.399993896484375</ele>
        <time>2019-10-26T13:36:52.000Z</time>
      </trkpt>
      <trkpt lat="37.65531082637608051300048828125" lon="-1.70463611371815204620361328125">
        <ele>317.399993896484375</ele>
        <time>2019-10-26T13:36:54.000Z</time>
      </trkpt>
      <trkpt lat="37.65537017025053501129150390625" lon="-1.704727225005626678466796875">
        <ele>318</ele>
        <time>2019-10-26T13:36:57.000Z</time>
      </trkpt>
      <trkpt lat="37.6553149335086345672607421875" lon="-1.7048893310129642486572265625">
        <ele>318</ele>
        <time>2019-10-26T13:37:01.000Z</time>
      </trkpt>
      <trkpt lat="37.65515257604420185089111328125" lon="-1.70508471317589282989501953125">
        <ele>318</ele>
        <time>2019-10-26T13:37:06.000Z</time>
      </trkpt>
      <trkpt lat="37.6550031267106533050537109375" lon="-1.70525033958256244659423828125">
        <ele>318</ele>
        <time>2019-10-26T13:37:10.000Z</time>
      </trkpt>
      <trkpt lat="37.654895000159740447998046875" lon="-1.705371625721454620361328125">
        <ele>318.20001220703125</ele>
        <time>2019-10-26T13:37:13.000Z</time>
      </trkpt>
      <trkpt lat="37.65473750419914722442626953125" lon="-1.705543957650661468505859375">
        <ele>318.600006103515625</ele>
        <time>2019-10-26T13:37:17.000Z</time>
      </trkpt>
      <trkpt lat="37.65457405708730220794677734375" lon="-1.705710925161838531494140625">
        <ele>319</ele>
        <time>2019-10-26T13:37:21.000Z</time>
      </trkpt>
      <trkpt lat="37.6543982885777950286865234375" lon="-1.705871857702732086181640625">
        <ele>319</ele>
        <time>2019-10-26T13:37:25.000Z</time>
      </trkpt>
      <trkpt lat="37.65422939322888851165771484375" lon="-1.70604159124195575714111328125">
        <ele>319</ele>
        <time>2019-10-26T13:37:29.000Z</time>
      </trkpt>
      <trkpt lat="37.6540625095367431640625" lon="-1.706216521561145782470703125">
        <ele>318.600006103515625</ele>
        <time>2019-10-26T13:37:33.000Z</time>
      </trkpt>
      <trkpt lat="37.653899900615215301513671875" lon="-1.70640720985829830169677734375">
        <ele>318.20001220703125</ele>
        <time>2019-10-26T13:37:37.000Z</time>
      </trkpt>
      <trkpt lat="37.65373083762824535369873046875" lon="-1.70661382377147674560546875">
        <ele>318</ele>
        <time>2019-10-26T13:37:41.000Z</time>
      </trkpt>
      <trkpt lat="37.6535691507160663604736328125" lon="-1.70680786482989788055419921875">
        <ele>317.79998779296875</ele>
        <time>2019-10-26T13:37:45.000Z</time>
      </trkpt>
      <trkpt lat="37.65342221595346927642822265625" lon="-1.70699494890868663787841796875">
        <ele>317.79998779296875</ele>
        <time>2019-10-26T13:37:49.000Z</time>
      </trkpt>
      <trkpt lat="37.65328257344663143157958984375" lon="-1.70716979540884494781494140625">
        <ele>317.600006103515625</ele>
        <time>2019-10-26T13:37:53.000Z</time>
      </trkpt>
      <trkpt lat="37.6531450264155864715576171875" lon="-1.70734531246125698089599609375">
        <ele>317.399993896484375</ele>
        <time>2019-10-26T13:37:57.000Z</time>
      </trkpt>
      <trkpt lat="37.6530052162706851959228515625" lon="-1.70752150006592273712158203125">
        <ele>317</ele>
        <time>2019-10-26T13:38:01.000Z</time>
      </trkpt>
      <trkpt lat="37.6528439484536647796630859375" lon="-1.70771914534270763397216796875">
        <ele>316.399993896484375</ele>
        <time>2019-10-26T13:38:05.000Z</time>
      </trkpt>
      <trkpt lat="37.6527272723615169525146484375" lon="-1.70789650641381740570068359375">
        <ele>315.79998779296875</ele>
        <time>2019-10-26T13:38:08.000Z</time>
      </trkpt>
      <trkpt lat="37.6526102609932422637939453125" lon="-1.70808157883584499359130859375">
        <ele>315.399993896484375</ele>
        <time>2019-10-26T13:38:11.000Z</time>
      </trkpt>
      <trkpt lat="37.65248604118824005126953125" lon="-1.7082638852298259735107421875">
        <ele>315</ele>
        <time>2019-10-26T13:38:14.000Z</time>
      </trkpt>
      <trkpt lat="37.65235737897455692291259765625" lon="-1.70844820328056812286376953125">
        <ele>315</ele>
        <time>2019-10-26T13:38:17.000Z</time>
      </trkpt>
      <trkpt lat="37.65222050249576568603515625" lon="-1.70861952938139438629150390625">
        <ele>315.20001220703125</ele>
        <time>2019-10-26T13:38:20.000Z</time>
      </trkpt>
      <trkpt lat="37.65206719748675823211669921875" lon="-1.708745844662189483642578125">
        <ele>315.20001220703125</ele>
        <time>2019-10-26T13:38:23.000Z</time>
      </trkpt>
      <trkpt lat="37.65186653472483158111572265625" lon="-1.7089002393186092376708984375">
        <ele>315</ele>
        <time>2019-10-26T13:38:27.000Z</time>
      </trkpt>
      <trkpt lat="37.65170023776590824127197265625" lon="-1.70906712301075458526611328125">
        <ele>315</ele>
        <time>2019-10-26T13:38:31.000Z</time>
      </trkpt>
      <trkpt lat="37.65153544954955577850341796875" lon="-1.7092187516391277313232421875">
        <ele>315.20001220703125</ele>
        <time>2019-10-26T13:38:35.000Z</time>
      </trkpt>
      <trkpt lat="37.65137284062802791595458984375" lon="-1.70937675051391124725341796875">
        <ele>315.399993896484375</ele>
        <time>2019-10-26T13:38:39.000Z</time>
      </trkpt>
      <trkpt lat="37.65122540295124053955078125" lon="-1.7095476575195789337158203125">
        <ele>315.600006103515625</ele>
        <time>2019-10-26T13:38:43.000Z</time>
      </trkpt>
      <trkpt lat="37.65107461251318454742431640625" lon="-1.70977455563843250274658203125">
        <ele>315.79998779296875</ele>
        <time>2019-10-26T13:38:47.000Z</time>
      </trkpt>
      <trkpt lat="37.65095592476427555084228515625" lon="-1.7099469713866710662841796875">
        <ele>316</ele>
        <time>2019-10-26T13:38:50.000Z</time>
      </trkpt>
      <trkpt lat="37.6507960818707942962646484375" lon="-1.710163392126560211181640625">
        <ele>315.79998779296875</ele>
        <time>2019-10-26T13:38:54.000Z</time>
      </trkpt>
      <trkpt lat="37.650648392736911773681640625" lon="-1.71038408763706684112548828125">
        <ele>315.399993896484375</ele>
        <time>2019-10-26T13:38:58.000Z</time>
      </trkpt>
      <trkpt lat="37.650510258972644805908203125" lon="-1.71060352586209774017333984375">
        <ele>315.20001220703125</ele>
        <time>2019-10-26T13:39:02.000Z</time>
      </trkpt>
      <trkpt lat="37.6503758132457733154296875" lon="-1.7108108103275299072265625">
        <ele>315.399993896484375</ele>
        <time>2019-10-26T13:39:06.000Z</time>
      </trkpt>
      <trkpt lat="37.65023122541606426239013671875" lon="-1.71099579893052577972412109375">
        <ele>316</ele>
        <time>2019-10-26T13:39:10.000Z</time>
      </trkpt>
      <trkpt lat="37.6500749029219150543212890625" lon="-1.711167879402637481689453125">
        <ele>316.399993896484375</ele>
        <time>2019-10-26T13:39:14.000Z</time>
      </trkpt>
      <trkpt lat="37.6499019004404544830322265625" lon="-1.71131531707942485809326171875">
        <ele>316.20001220703125</ele>
        <time>2019-10-26T13:39:18.000Z</time>
      </trkpt>
      <trkpt lat="37.6497352682054042816162109375" lon="-1.7114647664129734039306640625">
        <ele>316</ele>
        <time>2019-10-26T13:39:22.000Z</time>
      </trkpt>
      <trkpt lat="37.64957441948354244232177734375" lon="-1.711641959846019744873046875">
        <ele>315.600006103515625</ele>
        <time>2019-10-26T13:39:27.000Z</time>
      </trkpt>
      <trkpt lat="37.64943963848054409027099609375" lon="-1.71183365397155284881591796875">
        <ele>315.20001220703125</ele>
        <time>2019-10-26T13:39:34.000Z</time>
      </trkpt>
      <trkpt lat="37.6492890156805515289306640625" lon="-1.71197430230677127838134765625">
        <ele>314.600006103515625</ele>
        <time>2019-10-26T13:39:39.000Z</time>
      </trkpt>
      <trkpt lat="37.64909246005117893218994140625" lon="-1.71213640831410884857177734375">
        <ele>314</ele>
        <time>2019-10-26T13:39:43.000Z</time>
      </trkpt>
      <trkpt lat="37.6490425877273082733154296875" lon="-1.712189130485057830810546875">
        <ele>313.79998779296875</ele>
        <time>2019-10-26T13:39:44.000Z</time>
      </trkpt>
      <trkpt lat="37.6489379815757274627685546875" lon="-1.7123938165605068206787109375">
        <ele>313.79998779296875</ele>
        <time>2019-10-26T13:39:47.000Z</time>
      </trkpt>
      <trkpt lat="37.64891736209392547607421875" lon="-1.71262658201158046722412109375">
        <ele>314.600006103515625</ele>
        <time>2019-10-26T13:39:50.000Z</time>
      </trkpt>
      <trkpt lat="37.64891962520778179168701171875" lon="-1.71292548067867755889892578125">
        <ele>316</ele>
        <time>2019-10-26T13:39:54.000Z</time>
      </trkpt>
      <trkpt lat="37.648914344608783721923828125" lon="-1.713203676044940948486328125">
        <ele>317.399993896484375</ele>
        <time>2019-10-26T13:39:58.000Z</time>
      </trkpt>
      <trkpt lat="37.64891333878040313720703125" lon="-1.7134033329784870147705078125">
        <ele>317.399993896484375</ele>
        <time>2019-10-26T13:40:01.000Z</time>
      </trkpt>
      <trkpt lat="37.6489128358662128448486328125" lon="-1.71366074122488498687744140625">
        <ele>317.399993896484375</ele>
        <time>2019-10-26T13:40:05.000Z</time>
      </trkpt>
      <trkpt lat="37.6489336229860782623291015625" lon="-1.713837347924709320068359375">
        <ele>317.399993896484375</ele>
        <time>2019-10-26T13:40:08.000Z</time>
      </trkpt>
      <trkpt lat="37.6489705033600330352783203125" lon="-1.71396483667194843292236328125">
        <ele>317.600006103515625</ele>
        <time>2019-10-26T13:40:11.000Z</time>
      </trkpt>
      <trkpt lat="37.64898802153766155242919921875" lon="-1.71405033208429813385009765625">
        <ele>317.79998779296875</ele>
        <time>2019-10-26T13:40:16.000Z</time>
      </trkpt>
      <trkpt lat="37.64898215420544147491455078125" lon="-1.714078076183795928955078125">
        <ele>317.79998779296875</ele>
        <time>2019-10-26T13:40:17.000Z</time>
      </trkpt>
      <trkpt lat="37.6489523984491825103759765625" lon="-1.71415745280683040618896484375">
        <ele>318</ele>
        <time>2019-10-26T13:40:19.000Z</time>
      </trkpt>
      <trkpt lat="37.64882055111229419708251953125" lon="-1.7143236659467220306396484375">
        <ele>317.79998779296875</ele>
        <time>2019-10-26T13:40:23.000Z</time>
      </trkpt>
      <trkpt lat="37.64866230078041553497314453125" lon="-1.71451753936707973480224609375">
        <ele>317.600006103515625</ele>
        <time>2019-10-26T13:40:27.000Z</time>
      </trkpt>
      <trkpt lat="37.64850304462015628814697265625" lon="-1.71472616493701934814453125">
        <ele>317.399993896484375</ele>
        <time>2019-10-26T13:40:31.000Z</time>
      </trkpt>
      <trkpt lat="37.6483440399169921875" lon="-1.7149308510124683380126953125">
        <ele>317</ele>
        <time>2019-10-26T13:40:35.000Z</time>
      </trkpt>
      <trkpt lat="37.6481842808425426483154296875" lon="-1.7151269875466823577880859375">
        <ele>317.20001220703125</ele>
        <time>2019-10-26T13:40:39.000Z</time>
      </trkpt>
      <trkpt lat="37.6480099372565746307373046875" lon="-1.715307533740997314453125">
        <ele>317.399993896484375</ele>
        <time>2019-10-26T13:40:43.000Z</time>
      </trkpt>
      <trkpt lat="37.64783266000449657440185546875" lon="-1.71547642908990383148193359375">
        <ele>317.600006103515625</ele>
        <time>2019-10-26T13:40:47.000Z</time>
      </trkpt>
      <trkpt lat="37.64765546657145023345947265625" lon="-1.71564423479139804840087890625">
        <ele>317.79998779296875</ele>
        <time>2019-10-26T13:40:51.000Z</time>
      </trkpt>
      <trkpt lat="37.6475110463798046112060546875" lon="-1.7157831229269504547119140625">
        <ele>317.600006103515625</ele>
        <time>2019-10-26T13:40:54.000Z</time>
      </trkpt>
      <trkpt lat="37.64736704528331756591796875" lon="-1.71592469327151775360107421875">
        <ele>317</ele>
        <time>2019-10-26T13:40:57.000Z</time>
      </trkpt>
      <trkpt lat="37.64722161926329135894775390625" lon="-1.7160664312541484832763671875">
        <ele>316.20001220703125</ele>
        <time>2019-10-26T13:41:00.000Z</time>
      </trkpt>
      <trkpt lat="37.64707761816680431365966796875" lon="-1.71620716340839862823486328125">
        <ele>315.600006103515625</ele>
        <time>2019-10-26T13:41:03.000Z</time>
      </trkpt>
      <trkpt lat="37.64693127013742923736572265625" lon="-1.7163500748574733734130859375">
        <ele>314.79998779296875</ele>
        <time>2019-10-26T13:41:06.000Z</time>
      </trkpt>
      <trkpt lat="37.64677964150905609130859375" lon="-1.71648410148918628692626953125">
        <ele>314.20001220703125</ele>
        <time>2019-10-26T13:41:09.000Z</time>
      </trkpt>
      <trkpt lat="37.6467278413474559783935546875" lon="-1.71652701683342456817626953125">
        <ele>314</ele>
        <time>2019-10-26T13:41:10.000Z</time>
      </trkpt>
      <trkpt lat="37.64657118357717990875244140625" lon="-1.71665509231388568878173828125">
        <ele>314.20001220703125</ele>
        <time>2019-10-26T13:41:13.000Z</time>
      </trkpt>
      <trkpt lat="37.64641544781625270843505859375" lon="-1.71677671372890472412109375">
        <ele>314.600006103515625</ele>
        <time>2019-10-26T13:41:16.000Z</time>
      </trkpt>
      <trkpt lat="37.6462574489414691925048828125" lon="-1.71690017916262149810791015625">
        <ele>314.79998779296875</ele>
        <time>2019-10-26T13:41:19.000Z</time>
      </trkpt>
      <trkpt lat="37.64610104262828826904296875" lon="-1.71702473424375057220458984375">
        <ele>315.20001220703125</ele>
        <time>2019-10-26T13:41:22.000Z</time>
      </trkpt>
      <trkpt lat="37.64593918807804584503173828125" lon="-1.7171530611813068389892578125">
        <ele>315.399993896484375</ele>
        <time>2019-10-26T13:41:25.000Z</time>
      </trkpt>
      <trkpt lat="37.645772807300090789794921875" lon="-1.71728633344173431396484375">
        <ele>315.600006103515625</ele>
        <time>2019-10-26T13:41:28.000Z</time>
      </trkpt>
      <trkpt lat="37.6456100307404994964599609375" lon="-1.71741885133087635040283203125">
        <ele>315.399993896484375</ele>
        <time>2019-10-26T13:41:31.000Z</time>
      </trkpt>
      <trkpt lat="37.64545538462698459625244140625" lon="-1.7175416462123394012451171875">
        <ele>314.79998779296875</ele>
        <time>2019-10-26T13:41:34.000Z</time>
      </trkpt>
      <trkpt lat="37.6452720724046230316162109375" lon="-1.71768807806074619293212890625">
        <ele>314.20001220703125</ele>
        <time>2019-10-26T13:41:38.000Z</time>
      </trkpt>
      <trkpt lat="37.64509798027575016021728515625" lon="-1.71783216297626495361328125">
        <ele>313.600006103515625</ele>
        <time>2019-10-26T13:41:42.000Z</time>
      </trkpt>
      <trkpt lat="37.644928582012653350830078125" lon="-1.71797373332083225250244140625">
        <ele>313.399993896484375</ele>
        <time>2019-10-26T13:41:46.000Z</time>
      </trkpt>
      <trkpt lat="37.64475599862635135650634765625" lon="-1.71811555512249469757080078125">
        <ele>313.399993896484375</ele>
        <time>2019-10-26T13:41:50.000Z</time>
      </trkpt>
      <trkpt lat="37.6445768773555755615234375" lon="-1.71825016848742961883544921875">
        <ele>313.79998779296875</ele>
        <time>2019-10-26T13:41:54.000Z</time>
      </trkpt>
      <trkpt lat="37.6443850994110107421875" lon="-1.7183761484920978546142578125">
        <ele>314.399993896484375</ele>
        <time>2019-10-26T13:41:58.000Z</time>
      </trkpt>
      <trkpt lat="37.6441914774477481842041015625" lon="-1.7185008712112903594970703125">
        <ele>315</ele>
        <time>2019-10-26T13:42:02.000Z</time>
      </trkpt>
      <trkpt lat="37.643974386155605316162109375" lon="-1.71861662529408931732177734375">
        <ele>315</ele>
        <time>2019-10-26T13:42:06.000Z</time>
      </trkpt>
      <trkpt lat="37.6437536068260669708251953125" lon="-1.718717627227306365966796875">
        <ele>314.79998779296875</ele>
        <time>2019-10-26T13:42:10.000Z</time>
      </trkpt>
      <trkpt lat="37.64358521439135074615478515625" lon="-1.718809492886066436767578125">
        <ele>314.79998779296875</ele>
        <time>2019-10-26T13:42:13.000Z</time>
      </trkpt>
      <trkpt lat="37.6433683745563030242919921875" lon="-1.7189246602356433868408203125">
        <ele>314.79998779296875</ele>
        <time>2019-10-26T13:42:17.000Z</time>
      </trkpt>
      <trkpt lat="37.643163017928600311279296875" lon="-1.71903370879590511322021484375">
        <ele>314.600006103515625</ele>
        <time>2019-10-26T13:42:21.000Z</time>
      </trkpt>
      <trkpt lat="37.642952464520931243896484375" lon="-1.71914502047002315521240234375">
        <ele>314.20001220703125</ele>
        <time>2019-10-26T13:42:25.000Z</time>
      </trkpt>
      <trkpt lat="37.64273461885750293731689453125" lon="-1.719261445105075836181640625">
        <ele>314</ele>
        <time>2019-10-26T13:42:29.000Z</time>
      </trkpt>
      <trkpt lat="37.6425228081643581390380859375" lon="-1.719376109540462493896484375">
        <ele>313.79998779296875</ele>
        <time>2019-10-26T13:42:33.000Z</time>
      </trkpt>
      <trkpt lat="37.6423705928027629852294921875" lon="-1.71946118585765361785888671875">
        <ele>313.600006103515625</ele>
        <time>2019-10-26T13:42:36.000Z</time>
      </trkpt>
      <trkpt lat="37.64217001385986804962158203125" lon="-1.7195735871791839599609375">
        <ele>313.399993896484375</ele>
        <time>2019-10-26T13:42:40.000Z</time>
      </trkpt>
      <trkpt lat="37.641966082155704498291015625" lon="-1.71969571150839328765869140625">
        <ele>313.20001220703125</ele>
        <time>2019-10-26T13:42:44.000Z</time>
      </trkpt>
      <trkpt lat="37.64176466502249240875244140625" lon="-1.71983837150037288665771484375">
        <ele>313.20001220703125</ele>
        <time>2019-10-26T13:42:48.000Z</time>
      </trkpt>
      <trkpt lat="37.641573138535022735595703125" lon="-1.71998086385428905487060546875">
        <ele>313</ele>
        <time>2019-10-26T13:42:52.000Z</time>
      </trkpt>
      <trkpt lat="37.64138027094304561614990234375" lon="-1.7201205901801586151123046875">
        <ele>313</ele>
        <time>2019-10-26T13:42:56.000Z</time>
      </trkpt>
      <trkpt lat="37.6411917619407176971435546875" lon="-1.72026132233440876007080078125">
        <ele>313</ele>
        <time>2019-10-26T13:43:00.000Z</time>
      </trkpt>
      <trkpt lat="37.64101012609899044036865234375" lon="-1.72042527236044406890869140625">
        <ele>313</ele>
        <time>2019-10-26T13:43:04.000Z</time>
      </trkpt>
      <trkpt lat="37.64082924462854862213134765625" lon="-1.72058084048330783843994140625">
        <ele>313</ele>
        <time>2019-10-26T13:43:08.000Z</time>
      </trkpt>
      <trkpt lat="37.64065506868064403533935546875" lon="-1.720743365585803985595703125">
        <ele>313.600006103515625</ele>
        <time>2019-10-26T13:43:12.000Z</time>
      </trkpt>
      <trkpt lat="37.6405017636716365814208984375" lon="-1.7209054715931415557861328125">
        <ele>314</ele>
        <time>2019-10-26T13:43:16.000Z</time>
      </trkpt>
      <trkpt lat="37.64036907814443111419677734375" lon="-1.721063554286956787109375">
        <ele>314.600006103515625</ele>
        <time>2019-10-26T13:43:20.000Z</time>
      </trkpt>
      <trkpt lat="37.64034259133040904998779296875" lon="-1.72110018320381641387939453125">
        <ele>314.79998779296875</ele>
        <time>2019-10-26T13:43:21.000Z</time>
      </trkpt>
      <trkpt lat="37.64024175703525543212890625" lon="-1.72129682265222072601318359375">
        <ele>315.20001220703125</ele>
        <time>2019-10-26T13:43:26.000Z</time>
      </trkpt>
      <trkpt lat="37.6402013562619686126708984375" lon="-1.72141450457274913787841796875">
        <ele>315.399993896484375</ele>
        <time>2019-10-26T13:43:29.000Z</time>
      </trkpt>
      <trkpt lat="37.6401912979781627655029296875" lon="-1.7216306738555431365966796875">
        <ele>315.600006103515625</ele>
        <time>2019-10-26T13:43:34.000Z</time>
      </trkpt>
      <trkpt lat="37.64018752612173557281494140625" lon="-1.721676774322986602783203125">
        <ele>315.600006103515625</ele>
        <time>2019-10-26T13:43:35.000Z</time>
      </trkpt>
      <trkpt lat="37.64007789082825183868408203125" lon="-1.72189168632030487060546875">
        <ele>315.600006103515625</ele>
        <time>2019-10-26T13:43:40.000Z</time>
      </trkpt>
      <trkpt lat="37.64000144787132740020751953125" lon="-1.7219756729900836944580078125">
        <ele>315.600006103515625</ele>
        <time>2019-10-26T13:43:42.000Z</time>
      </trkpt>
      <trkpt lat="37.63984076678752899169921875" lon="-1.72213953919708728790283203125">
        <ele>316</ele>
        <time>2019-10-26T13:43:46.000Z</time>
      </trkpt>
      <trkpt lat="37.639676816761493682861328125" lon="-1.72229058109223842620849609375">
        <ele>316.399993896484375</ele>
        <time>2019-10-26T13:43:50.000Z</time>
      </trkpt>
      <trkpt lat="37.6395126990973949432373046875" lon="-1.722425781190395355224609375">
        <ele>317</ele>
        <time>2019-10-26T13:43:54.000Z</time>
      </trkpt>
      <trkpt lat="37.63934480957686901092529296875" lon="-1.7225550301373004913330078125">
        <ele>317.79998779296875</ele>
        <time>2019-10-26T13:43:58.000Z</time>
      </trkpt>
      <trkpt lat="37.6391780935227870941162109375" lon="-1.722679249942302703857421875">
        <ele>318.79998779296875</ele>
        <time>2019-10-26T13:44:02.000Z</time>
      </trkpt>
      <trkpt lat="37.6390392892062664031982421875" lon="-1.722789891064167022705078125">
        <ele>318.600006103515625</ele>
        <time>2019-10-26T13:44:06.000Z</time>
      </trkpt>
      <trkpt lat="37.6389048434793949127197265625" lon="-1.72289885580539703369140625">
        <ele>318.600006103515625</ele>
        <time>2019-10-26T13:44:12.000Z</time>
      </trkpt>
      <trkpt lat="37.63886083848774433135986328125" lon="-1.72292643226683139801025390625">
        <ele>318.600006103515625</ele>
        <time>2019-10-26T13:44:14.000Z</time>
      </trkpt>
      <trkpt lat="37.63891599141061305999755859375" lon="-1.7228349857032299041748046875">
        <ele>318.399993896484375</ele>
        <time>2019-10-26T13:44:22.000Z</time>
      </trkpt>
      <trkpt lat="37.6389413885772228240966796875" lon="-1.72281059436500072479248046875">
        <ele>318.399993896484375</ele>
        <time>2019-10-26T13:44:23.000Z</time>
      </trkpt>
      <trkpt lat="37.639035098254680633544921875" lon="-1.72271587885916233062744140625">
        <ele>318.399993896484375</ele>
        <time>2019-10-26T13:44:26.000Z</time>
      </trkpt>
      <trkpt lat="37.6391968689858913421630859375" lon="-1.72258512116968631744384765625">
        <ele>318.399993896484375</ele>
        <time>2019-10-26T13:44:30.000Z</time>
      </trkpt>
      <trkpt lat="37.6393816061317920684814453125" lon="-1.72243894077837467193603515625">
        <ele>317.399993896484375</ele>
        <time>2019-10-26T13:44:34.000Z</time>
      </trkpt>
      <trkpt lat="37.639567852020263671875" lon="-1.7222906649112701416015625">
        <ele>316.79998779296875</ele>
        <time>2019-10-26T13:44:38.000Z</time>
      </trkpt>
      <trkpt lat="37.63960481621325016021728515625" lon="-1.72225906513631343841552734375">
        <ele>316.600006103515625</ele>
        <time>2019-10-26T13:44:39.000Z</time>
      </trkpt>
      <trkpt lat="37.6396806724369525909423828125" lon="-1.72219251282513141632080078125">
        <ele>316.399993896484375</ele>
        <time>2019-10-26T13:44:42.000Z</time>
      </trkpt>
      <trkpt lat="37.63963733799755573272705078125" lon="-1.72228404320776462554931640625">
        <ele>316.399993896484375</ele>
        <time>2019-10-26T13:44:48.000Z</time>
      </trkpt>
      <trkpt lat="37.639567516744136810302734375" lon="-1.72235428355634212493896484375">
        <ele>316.600006103515625</ele>
        <time>2019-10-26T13:44:51.000Z</time>
      </trkpt>
      <trkpt lat="37.6395894773304462432861328125" lon="-1.7224852927029132843017578125">
        <ele>316.79998779296875</ele>
        <time>2019-10-26T13:44:55.000Z</time>
      </trkpt>
      <trkpt lat="37.6396858692169189453125" lon="-1.7226911522448062896728515625">
        <ele>317</ele>
        <time>2019-10-26T13:45:01.000Z</time>
      </trkpt>
      <trkpt lat="37.63974328525364398956298828125" lon="-1.72293598763644695281982421875">
        <ele>318</ele>
        <time>2019-10-26T13:45:07.000Z</time>
      </trkpt>
      <trkpt lat="37.63972132466733455657958984375" lon="-1.7231659032404422760009765625">
        <ele>319.20001220703125</ele>
        <time>2019-10-26T13:45:13.000Z</time>
      </trkpt>
      <trkpt lat="37.63967153616249561309814453125" lon="-1.7234116606414318084716796875">
        <ele>320</ele>
        <time>2019-10-26T13:45:20.000Z</time>
      </trkpt>
      <trkpt lat="37.639645636081695556640625" lon="-1.7236631177365779876708984375">
        <ele>320.600006103515625</ele>
        <time>2019-10-26T13:45:27.000Z</time>
      </trkpt>
      <trkpt lat="37.6396444626152515411376953125" lon="-1.7239202745258808135986328125">
        <ele>321.20001220703125</ele>
        <time>2019-10-26T13:45:34.000Z</time>
      </trkpt>
      <trkpt lat="37.63963867910206317901611328125" lon="-1.72415991313755512237548828125">
        <ele>321.399993896484375</ele>
        <time>2019-10-26T13:45:41.000Z</time>
      </trkpt>
      <trkpt lat="37.63962862081825733184814453125" lon="-1.72440701164305210113525390625">
        <ele>321.399993896484375</ele>
        <time>2019-10-26T13:45:49.000Z</time>
      </trkpt>
      <trkpt lat="37.63962593860924243927001953125" lon="-1.7246588878333568572998046875">
        <ele>322.20001220703125</ele>
        <time>2019-10-26T13:45:58.000Z</time>
      </trkpt>
      <trkpt lat="37.6396109350025653839111328125" lon="-1.72484890557825565338134765625">
        <ele>323</ele>
        <time>2019-10-26T13:46:07.000Z</time>
      </trkpt>
      <trkpt lat="37.6395906507968902587890625" lon="-1.72508242540061473846435546875">
        <ele>323.79998779296875</ele>
        <time>2019-10-26T13:46:16.000Z</time>
      </trkpt>
      <trkpt lat="37.63952426612377166748046875" lon="-1.72530203126370906829833984375">
        <ele>324.399993896484375</ele>
        <time>2019-10-26T13:46:24.000Z</time>
      </trkpt>
      <trkpt lat="37.63948679901659488677978515625" lon="-1.725527085363864898681640625">
        <ele>325</ele>
        <time>2019-10-26T13:46:32.000Z</time>
      </trkpt>
      <trkpt lat="37.6394654251635074615478515625" lon="-1.72576823271811008453369140625">
        <ele>325.600006103515625</ele>
        <time>2019-10-26T13:46:41.000Z</time>
      </trkpt>
      <trkpt lat="37.63944069854915142059326171875" lon="-1.72601801343262195587158203125">
        <ele>326.399993896484375</ele>
        <time>2019-10-26T13:46:50.000Z</time>
      </trkpt>
      <trkpt lat="37.63941228389739990234375" lon="-1.72626494430005550384521484375">
        <ele>327.20001220703125</ele>
        <time>2019-10-26T13:46:59.000Z</time>
      </trkpt>
      <trkpt lat="37.6393772475421428680419921875" lon="-1.726497709751129150390625">
        <ele>328</ele>
        <time>2019-10-26T13:47:08.000Z</time>
      </trkpt>
      <trkpt lat="37.6392837055027484893798828125" lon="-1.7267000488936901092529296875">
        <ele>329</ele>
        <time>2019-10-26T13:47:17.000Z</time>
      </trkpt>
      <trkpt lat="37.6392753235995769500732421875" lon="-1.7267221771180629730224609375">
        <ele>329.20001220703125</ele>
        <time>2019-10-26T13:47:18.000Z</time>
      </trkpt>
      <trkpt lat="37.6393142156302928924560546875" lon="-1.7267858795821666717529296875">
        <ele>329.600006103515625</ele>
        <time>2019-10-26T13:47:22.000Z</time>
      </trkpt>
      <trkpt lat="37.6394774951040744781494140625" lon="-1.72689744271337985992431640625">
        <ele>330.600006103515625</ele>
        <time>2019-10-26T13:47:29.000Z</time>
      </trkpt>
      <trkpt lat="37.6396501623094081878662109375" lon="-1.7270443774759769439697265625">
        <ele>331.399993896484375</ele>
        <time>2019-10-26T13:47:36.000Z</time>
      </trkpt>
      <trkpt lat="37.6398052275180816650390625" lon="-1.727184019982814788818359375">
        <ele>332.20001220703125</ele>
        <time>2019-10-26T13:47:43.000Z</time>
      </trkpt>
      <trkpt lat="37.63993137516081333160400390625" lon="-1.72735107131302356719970703125">
        <ele>333</ele>
        <time>2019-10-26T13:47:49.000Z</time>
      </trkpt>
      <trkpt lat="37.64002977870404720306396484375" lon="-1.7275596968829631805419921875">
        <ele>333</ele>
        <time>2019-10-26T13:47:56.000Z</time>
      </trkpt>
      <trkpt lat="37.640146203339099884033203125" lon="-1.72773756086826324462890625">
        <ele>332.600006103515625</ele>
        <time>2019-10-26T13:48:03.000Z</time>
      </trkpt>
      <trkpt lat="37.64011292718350887298583984375" lon="-1.7278694920241832733154296875">
        <ele>332.600006103515625</ele>
        <time>2019-10-26T13:48:08.000Z</time>
      </trkpt>
      <trkpt lat="37.640138827264308929443359375" lon="-1.72803687863051891326904296875">
        <ele>332.600006103515625</ele>
        <time>2019-10-26T13:48:14.000Z</time>
      </trkpt>
      <trkpt lat="37.64023530296981334686279296875" lon="-1.72826570458710193634033203125">
        <ele>332.399993896484375</ele>
        <time>2019-10-26T13:48:20.000Z</time>
      </trkpt>
      <trkpt lat="37.6401443593204021453857421875" lon="-1.7284642718732357025146484375">
        <ele>332.79998779296875</ele>
        <time>2019-10-26T13:48:26.000Z</time>
      </trkpt>
      <trkpt lat="37.63996909372508525848388671875" lon="-1.72845982946455478668212890625">
        <ele>333.20001220703125</ele>
        <time>2019-10-26T13:48:31.000Z</time>
      </trkpt>
      <trkpt lat="37.63979575596749782562255859375" lon="-1.72851984389126300811767578125">
        <ele>333.600006103515625</ele>
        <time>2019-10-26T13:48:37.000Z</time>
      </trkpt>
      <trkpt lat="37.63964186422526836395263671875" lon="-1.72864959575235843658447265625">
        <ele>334</ele>
        <time>2019-10-26T13:48:43.000Z</time>
      </trkpt>
      <trkpt lat="37.63949149288237094879150390625" lon="-1.728800721466541290283203125">
        <ele>334.20001220703125</ele>
        <time>2019-10-26T13:48:49.000Z</time>
      </trkpt>
      <trkpt lat="37.63934212736785411834716796875" lon="-1.72895704396069049835205078125">
        <ele>334.600006103515625</ele>
        <time>2019-10-26T13:48:55.000Z</time>
      </trkpt>
      <trkpt lat="37.63919091783463954925537109375" lon="-1.72911948524415493011474609375">
        <ele>335.20001220703125</ele>
        <time>2019-10-26T13:49:01.000Z</time>
      </trkpt>
      <trkpt lat="37.6390470005571842193603515625" lon="-1.72927505336701869964599609375">
        <ele>335.399993896484375</ele>
        <time>2019-10-26T13:49:07.000Z</time>
      </trkpt>
      <trkpt lat="37.6388880796730518341064453125" lon="-1.72943028621375560760498046875">
        <ele>335.600006103515625</ele>
        <time>2019-10-26T13:49:14.000Z</time>
      </trkpt>
      <trkpt lat="37.63879629783332347869873046875" lon="-1.72952164895832538604736328125">
        <ele>335.600006103515625</ele>
        <time>2019-10-26T13:49:18.000Z</time>
      </trkpt>
      <trkpt lat="37.6386436633765697479248046875" lon="-1.72967688180506229400634765625">
        <ele>335.79998779296875</ele>
        <time>2019-10-26T13:49:24.000Z</time>
      </trkpt>
      <trkpt lat="37.63848314993083477020263671875" lon="-1.72981719486415386199951171875">
        <ele>336</ele>
        <time>2019-10-26T13:49:30.000Z</time>
      </trkpt>
      <trkpt lat="37.6383144222199916839599609375" lon="-1.7299736849963665008544921875">
        <ele>336.20001220703125</ele>
        <time>2019-10-26T13:49:36.000Z</time>
      </trkpt>
      <trkpt lat="37.6381662301719188690185546875" lon="-1.73013210296630859375">
        <ele>336.79998779296875</ele>
        <time>2019-10-26T13:49:42.000Z</time>
      </trkpt>
      <trkpt lat="37.63800990767776966094970703125" lon="-1.7303099669516086578369140625">
        <ele>337.399993896484375</ele>
        <time>2019-10-26T13:49:48.000Z</time>
      </trkpt>
      <trkpt lat="37.63785618357360363006591796875" lon="-1.73046394251286983489990234375">
        <ele>338</ele>
        <time>2019-10-26T13:49:54.000Z</time>
      </trkpt>
      <trkpt lat="37.63770497404038906097412109375" lon="-1.7306060157716274261474609375">
        <ele>338.600006103515625</ele>
        <time>2019-10-26T13:50:00.000Z</time>
      </trkpt>
      <trkpt lat="37.6375664211809635162353515625" lon="-1.73078932799398899078369140625">
        <ele>339.20001220703125</ele>
        <time>2019-10-26T13:50:07.000Z</time>
      </trkpt>
      <trkpt lat="37.63753264211118221282958984375" lon="-1.73083492554724216461181640625">
        <ele>339.399993896484375</ele>
        <time>2019-10-26T13:50:12.000Z</time>
      </trkpt>
      <trkpt lat="37.63752736151218414306640625" lon="-1.73083157278597354888916015625">
        <ele>339.399993896484375</ele>
        <time>2019-10-26T13:53:03.000Z</time>
      </trkpt>
      <trkpt lat="37.63741026632487773895263671875" lon="-1.7309032380580902099609375">
        <ele>339.600006103515625</ele>
        <time>2019-10-26T13:53:44.000Z</time>
      </trkpt>
      <trkpt lat="37.637248076498508453369140625" lon="-1.7310646735131740570068359375">
        <ele>340</ele>
        <time>2019-10-26T13:53:52.000Z</time>
      </trkpt>
      <trkpt lat="37.6371017284691333770751953125" lon="-1.73120431602001190185546875">
        <ele>340.20001220703125</ele>
        <time>2019-10-26T13:53:58.000Z</time>
      </trkpt>
      <trkpt lat="37.63693886809051036834716796875" lon="-1.7313587106764316558837890625">
        <ele>340.600006103515625</ele>
        <time>2019-10-26T13:54:04.000Z</time>
      </trkpt>
      <trkpt lat="37.63676921837031841278076171875" lon="-1.73152626492083072662353515625">
        <ele>341</ele>
        <time>2019-10-26T13:54:10.000Z</time>
      </trkpt>
      <trkpt lat="37.63661968521773815155029296875" lon="-1.73168032430112361907958984375">
        <ele>341.399993896484375</ele>
        <time>2019-10-26T13:54:16.000Z</time>
      </trkpt>
      <trkpt lat="37.636465542018413543701171875" lon="-1.73183170147240161895751953125">
        <ele>341.79998779296875</ele>
        <time>2019-10-26T13:54:22.000Z</time>
      </trkpt>
      <trkpt lat="37.636307291686534881591796875" lon="-1.731995232403278350830078125">
        <ele>342</ele>
        <time>2019-10-26T13:54:28.000Z</time>
      </trkpt>
      <trkpt lat="37.63614443130791187286376953125" lon="-1.73216932453215122222900390625">
        <ele>342.600006103515625</ele>
        <time>2019-10-26T13:54:34.000Z</time>
      </trkpt>
      <trkpt lat="37.635997496545314788818359375" lon="-1.73231969587504863739013671875">
        <ele>342.79998779296875</ele>
        <time>2019-10-26T13:54:39.000Z</time>
      </trkpt>
      <trkpt lat="37.635851986706256866455078125" lon="-1.73246285878121852874755859375">
        <ele>343.20001220703125</ele>
        <time>2019-10-26T13:54:44.000Z</time>
      </trkpt>
      <trkpt lat="37.635687701404094696044921875" lon="-1.7326387949287891387939453125">
        <ele>343.600006103515625</ele>
        <time>2019-10-26T13:54:50.000Z</time>
      </trkpt>
      <trkpt lat="37.63554252684116363525390625" lon="-1.73278145492076873779296875">
        <ele>343.79998779296875</ele>
        <time>2019-10-26T13:54:55.000Z</time>
      </trkpt>
      <trkpt lat="37.6354018785059452056884765625" lon="-1.73292604275047779083251953125">
        <ele>344.20001220703125</ele>
        <time>2019-10-26T13:55:00.000Z</time>
      </trkpt>
      <trkpt lat="37.6352374255657196044921875" lon="-1.73309586010873317718505859375">
        <ele>344.600006103515625</ele>
        <time>2019-10-26T13:55:06.000Z</time>
      </trkpt>
      <trkpt lat="37.63506911695003509521484375" lon="-1.73325955867767333984375">
        <ele>345.20001220703125</ele>
        <time>2019-10-26T13:55:12.000Z</time>
      </trkpt>
      <trkpt lat="37.63491363264620304107666015625" lon="-1.7334297113120555877685546875">
        <ele>345.399993896484375</ele>
        <time>2019-10-26T13:55:18.000Z</time>
      </trkpt>
      <trkpt lat="37.63476527296006679534912109375" lon="-1.73362861387431621551513671875">
        <ele>345.600006103515625</ele>
        <time>2019-10-26T13:55:24.000Z</time>
      </trkpt>
      <trkpt lat="37.634618841111660003662109375" lon="-1.73378015868365764617919921875">
        <ele>345.600006103515625</ele>
        <time>2019-10-26T13:55:29.000Z</time>
      </trkpt>
      <trkpt lat="37.6344698108732700347900390625" lon="-1.73391980119049549102783203125">
        <ele>345.600006103515625</ele>
        <time>2019-10-26T13:55:34.000Z</time>
      </trkpt>
      <trkpt lat="37.6343303360044956207275390625" lon="-1.73406849615275859832763671875">
        <ele>345.600006103515625</ele>
        <time>2019-10-26T13:55:39.000Z</time>
      </trkpt>
      <trkpt lat="37.63418532907962799072265625" lon="-1.73420998267829418182373046875">
        <ele>345</ele>
        <time>2019-10-26T13:55:44.000Z</time>
      </trkpt>
      <trkpt lat="37.63404627330601215362548828125" lon="-1.73435415141284465789794921875">
        <ele>344.600006103515625</ele>
        <time>2019-10-26T13:55:49.000Z</time>
      </trkpt>
      <trkpt lat="37.6338847540318965911865234375" lon="-1.73452799208462238311767578125">
        <ele>344.20001220703125</ele>
        <time>2019-10-26T13:55:55.000Z</time>
      </trkpt>
      <trkpt lat="37.63374133966863155364990234375" lon="-1.7346725799143314361572265625">
        <ele>344</ele>
        <time>2019-10-26T13:56:00.000Z</time>
      </trkpt>
      <trkpt lat="37.63359515927731990814208984375" lon="-1.7348207719624042510986328125">
        <ele>343.600006103515625</ele>
        <time>2019-10-26T13:56:05.000Z</time>
      </trkpt>
      <trkpt lat="37.63344931416213512420654296875" lon="-1.7349682934582233428955078125">
        <ele>343.600006103515625</ele>
        <time>2019-10-26T13:56:10.000Z</time>
      </trkpt>
      <trkpt lat="37.633305229246616363525390625" lon="-1.73512168228626251220703125">
        <ele>343.79998779296875</ele>
        <time>2019-10-26T13:56:15.000Z</time>
      </trkpt>
      <trkpt lat="37.633159048855304718017578125" lon="-1.7352663539350032806396484375">
        <ele>344.399993896484375</ele>
        <time>2019-10-26T13:56:20.000Z</time>
      </trkpt>
      <trkpt lat="37.63301680795848369598388671875" lon="-1.735408343374729156494140625">
        <ele>345</ele>
        <time>2019-10-26T13:56:25.000Z</time>
      </trkpt>
      <trkpt lat="37.632867358624935150146484375" lon="-1.735560558736324310302734375">
        <ele>345.399993896484375</ele>
        <time>2019-10-26T13:56:30.000Z</time>
      </trkpt>
      <trkpt lat="37.63271757401525974273681640625" lon="-1.73571168445050716400146484375">
        <ele>346</ele>
        <time>2019-10-26T13:56:35.000Z</time>
      </trkpt>
      <trkpt lat="37.6325607486069202423095703125" lon="-1.73587379045784473419189453125">
        <ele>346.600006103515625</ele>
        <time>2019-10-26T13:56:41.000Z</time>
      </trkpt>
      <trkpt lat="37.63241104781627655029296875" lon="-1.7360321246087551116943359375">
        <ele>347.399993896484375</ele>
        <time>2019-10-26T13:56:46.000Z</time>
      </trkpt>
      <trkpt lat="37.6322412304580211639404296875" lon="-1.7362153530120849609375">
        <ele>348.20001220703125</ele>
        <time>2019-10-26T13:56:51.000Z</time>
      </trkpt>
      <trkpt lat="37.63208574615418910980224609375" lon="-1.73636865802109241485595703125">
        <ele>349</ele>
        <time>2019-10-26T13:56:55.000Z</time>
      </trkpt>
      <trkpt lat="37.6320065371692180633544921875" lon="-1.73644526861608028411865234375">
        <ele>349.20001220703125</ele>
        <time>2019-10-26T13:56:57.000Z</time>
      </trkpt>
      <trkpt lat="37.63185792602598667144775390625" lon="-1.73661123029887676239013671875">
        <ele>349.79998779296875</ele>
        <time>2019-10-26T13:57:01.000Z</time>
      </trkpt>
      <trkpt lat="37.63170562684535980224609375" lon="-1.736778281629085540771484375">
        <ele>349.600006103515625</ele>
        <time>2019-10-26T13:57:05.000Z</time>
      </trkpt>
      <trkpt lat="37.631549052894115447998046875" lon="-1.73693896271288394927978515625">
        <ele>349.399993896484375</ele>
        <time>2019-10-26T13:57:09.000Z</time>
      </trkpt>
      <trkpt lat="37.6313902996480464935302734375" lon="-1.7370991408824920654296875">
        <ele>349</ele>
        <time>2019-10-26T13:57:13.000Z</time>
      </trkpt>
      <trkpt lat="37.63123548589646816253662109375" lon="-1.7372573912143707275390625">
        <ele>348.600006103515625</ele>
        <time>2019-10-26T13:57:17.000Z</time>
      </trkpt>
      <trkpt lat="37.6310784928500652313232421875" lon="-1.73741740174591541290283203125">
        <ele>348.399993896484375</ele>
        <time>2019-10-26T13:57:21.000Z</time>
      </trkpt>
      <trkpt lat="37.6309259422123432159423828125" lon="-1.7375720478594303131103515625">
        <ele>348.600006103515625</ele>
        <time>2019-10-26T13:57:25.000Z</time>
      </trkpt>
      <trkpt lat="37.63081722892820835113525390625" lon="-1.7376907356083393096923828125">
        <ele>348.399993896484375</ele>
        <time>2019-10-26T13:57:28.000Z</time>
      </trkpt>
      <trkpt lat="37.63066568411886692047119140625" lon="-1.73784169368445873260498046875">
        <ele>347.79998779296875</ele>
        <time>2019-10-26T13:57:32.000Z</time>
      </trkpt>
      <trkpt lat="37.63050173409283161163330078125" lon="-1.73800849355757236480712890625">
        <ele>347</ele>
        <time>2019-10-26T13:57:36.000Z</time>
      </trkpt>
      <trkpt lat="37.6303343474864959716796875" lon="-1.73818032257258892059326171875">
        <ele>346.20001220703125</ele>
        <time>2019-10-26T13:57:40.000Z</time>
      </trkpt>
      <trkpt lat="37.63016981072723865509033203125" lon="-1.7383552528917789459228515625">
        <ele>345.399993896484375</ele>
        <time>2019-10-26T13:57:44.000Z</time>
      </trkpt>
      <trkpt lat="37.63000116683542728424072265625" lon="-1.73853613436222076416015625">
        <ele>344.79998779296875</ele>
        <time>2019-10-26T13:57:48.000Z</time>
      </trkpt>
      <trkpt lat="37.62983101420104503631591796875" lon="-1.7387123219668865203857421875">
        <ele>344.600006103515625</ele>
        <time>2019-10-26T13:57:52.000Z</time>
      </trkpt>
      <trkpt lat="37.629660777747631072998046875" lon="-1.73888624645769596099853515625">
        <ele>344.399993896484375</ele>
        <time>2019-10-26T13:57:56.000Z</time>
      </trkpt>
      <trkpt lat="37.62948316521942615509033203125" lon="-1.73906729556620121002197265625">
        <ele>344.20001220703125</ele>
        <time>2019-10-26T13:58:00.000Z</time>
      </trkpt>
      <trkpt lat="37.62930572032928466796875" lon="-1.73925220035016536712646484375">
        <ele>344.399993896484375</ele>
        <time>2019-10-26T13:58:04.000Z</time>
      </trkpt>
      <trkpt lat="37.62913607060909271240234375" lon="-1.73942930996417999267578125">
        <ele>344.79998779296875</ele>
        <time>2019-10-26T13:58:08.000Z</time>
      </trkpt>
      <trkpt lat="37.628969438374042510986328125" lon="-1.7396071739494800567626953125">
        <ele>345.20001220703125</ele>
        <time>2019-10-26T13:58:12.000Z</time>
      </trkpt>
      <trkpt lat="37.6288054883480072021484375" lon="-1.73977808095514774322509765625">
        <ele>345.600006103515625</ele>
        <time>2019-10-26T13:58:16.000Z</time>
      </trkpt>
      <trkpt lat="37.62864061631262302398681640625" lon="-1.739939935505390167236328125">
        <ele>345.600006103515625</ele>
        <time>2019-10-26T13:58:20.000Z</time>
      </trkpt>
      <trkpt lat="37.62847834266722202301025390625" lon="-1.74010430462658405303955078125">
        <ele>345</ele>
        <time>2019-10-26T13:58:24.000Z</time>
      </trkpt>
      <trkpt lat="37.628314308822154998779296875" lon="-1.74027529545128345489501953125">
        <ele>344.399993896484375</ele>
        <time>2019-10-26T13:58:28.000Z</time>
      </trkpt>
      <trkpt lat="37.6281475089490413665771484375" lon="-1.74045525491237640380859375">
        <ele>343.79998779296875</ele>
        <time>2019-10-26T13:58:32.000Z</time>
      </trkpt>
      <trkpt lat="37.6279758475720882415771484375" lon="-1.74063990823924541473388671875">
        <ele>343.20001220703125</ele>
        <time>2019-10-26T13:58:36.000Z</time>
      </trkpt>
      <trkpt lat="37.62780058197677135467529296875" lon="-1.7408235557377338409423828125">
        <ele>343</ele>
        <time>2019-10-26T13:58:40.000Z</time>
      </trkpt>
      <trkpt lat="37.6276204548776149749755859375" lon="-1.74100904725492000579833984375">
        <ele>343</ele>
        <time>2019-10-26T13:58:44.000Z</time>
      </trkpt>
      <trkpt lat="37.62744150124490261077880859375" lon="-1.74120166338980197906494140625">
        <ele>343</ele>
        <time>2019-10-26T13:58:48.000Z</time>
      </trkpt>
      <trkpt lat="37.62726196087896823883056640625" lon="-1.741385646164417266845703125">
        <ele>343</ele>
        <time>2019-10-26T13:58:52.000Z</time>
      </trkpt>
      <trkpt lat="37.6270877011120319366455078125" lon="-1.74156812019646167755126953125">
        <ele>343</ele>
        <time>2019-10-26T13:58:56.000Z</time>
      </trkpt>
      <trkpt lat="37.62691444717347621917724609375" lon="-1.74174749292433261871337890625">
        <ele>342.600006103515625</ele>
        <time>2019-10-26T13:59:00.000Z</time>
      </trkpt>
      <trkpt lat="37.626744545996189117431640625" lon="-1.741924099624156951904296875">
        <ele>342.20001220703125</ele>
        <time>2019-10-26T13:59:04.000Z</time>
      </trkpt>
      <trkpt lat="37.6265792548656463623046875" lon="-1.74209768883883953094482421875">
        <ele>342.20001220703125</ele>
        <time>2019-10-26T13:59:08.000Z</time>
      </trkpt>
      <trkpt lat="37.62641387991607189178466796875" lon="-1.742264069616794586181640625">
        <ele>342.399993896484375</ele>
        <time>2019-10-26T13:59:12.000Z</time>
      </trkpt>
      <trkpt lat="37.6262531988322734832763671875" lon="-1.74242894165217876434326171875">
        <ele>342.600006103515625</ele>
        <time>2019-10-26T13:59:16.000Z</time>
      </trkpt>
      <trkpt lat="37.62610224075615406036376953125" lon="-1.7425847612321376800537109375">
        <ele>343</ele>
        <time>2019-10-26T13:59:20.000Z</time>
      </trkpt>
      <trkpt lat="37.62595924548804759979248046875" lon="-1.74273538403213024139404296875">
        <ele>343.399993896484375</ele>
        <time>2019-10-26T13:59:24.000Z</time>
      </trkpt>
      <trkpt lat="37.62578791938722133636474609375" lon="-1.7429160140454769134521484375">
        <ele>343.600006103515625</ele>
        <time>2019-10-26T13:59:29.000Z</time>
      </trkpt>
      <trkpt lat="37.62561894021928310394287109375" lon="-1.74310083501040935516357421875">
        <ele>343.600006103515625</ele>
        <time>2019-10-26T13:59:34.000Z</time>
      </trkpt>
      <trkpt lat="37.62547628022730350494384765625" lon="-1.7432486079633235931396484375">
        <ele>343.600006103515625</ele>
        <time>2019-10-26T13:59:38.000Z</time>
      </trkpt>
      <trkpt lat="37.62532356195151805877685546875" lon="-1.74340509809553623199462890625">
        <ele>343.399993896484375</ele>
        <time>2019-10-26T13:59:42.000Z</time>
      </trkpt>
      <trkpt lat="37.62516916729509830474853515625" lon="-1.74356217496097087860107421875">
        <ele>343.20001220703125</ele>
        <time>2019-10-26T13:59:46.000Z</time>
      </trkpt>
      <trkpt lat="37.6250552572309970855712890625" lon="-1.74368320964276790618896484375">
        <ele>343</ele>
        <time>2019-10-26T13:59:49.000Z</time>
      </trkpt>
      <trkpt lat="37.62489943765103816986083984375" lon="-1.7438360117375850677490234375">
        <ele>343</ele>
        <time>2019-10-26T13:59:53.000Z</time>
      </trkpt>
      <trkpt lat="37.62475577183067798614501953125" lon="-1.74398026429116725921630859375">
        <ele>343</ele>
        <time>2019-10-26T13:59:57.000Z</time>
      </trkpt>
      <trkpt lat="37.6245949231088161468505859375" lon="-1.7441521771252155303955078125">
        <ele>343.20001220703125</ele>
        <time>2019-10-26T14:00:02.000Z</time>
      </trkpt>
      <trkpt lat="37.62444832362234592437744140625" lon="-1.744315624237060546875">
        <ele>343.600006103515625</ele>
        <time>2019-10-26T14:00:07.000Z</time>
      </trkpt>
      <trkpt lat="37.624308764934539794921875" lon="-1.74446515738964080810546875">
        <ele>344</ele>
        <time>2019-10-26T14:00:12.000Z</time>
      </trkpt>
      <trkpt lat="37.62418479658663272857666015625" lon="-1.74458661116659641265869140625">
        <ele>344.399993896484375</ele>
        <time>2019-10-26T14:00:16.000Z</time>
      </trkpt>
      <trkpt lat="37.62403593398630619049072265625" lon="-1.74474083818495273590087890625">
        <ele>344.20001220703125</ele>
        <time>2019-10-26T14:00:21.000Z</time>
      </trkpt>
      <trkpt lat="37.623882293701171875" lon="-1.74488349817693233489990234375">
        <ele>344</ele>
        <time>2019-10-26T14:00:26.000Z</time>
      </trkpt>
      <trkpt lat="37.62372597120702266693115234375" lon="-1.7450359649956226348876953125">
        <ele>344.20001220703125</ele>
        <time>2019-10-26T14:00:31.000Z</time>
      </trkpt>
      <trkpt lat="37.62357585132122039794921875" lon="-1.74518667161464691162109375">
        <ele>344.399993896484375</ele>
        <time>2019-10-26T14:00:36.000Z</time>
      </trkpt>
      <trkpt lat="37.6234861649572849273681640625" lon="-1.74528163857758045196533203125">
        <ele>344.399993896484375</ele>
        <time>2019-10-26T14:00:39.000Z</time>
      </trkpt>
      <trkpt lat="37.62336538173258304595947265625" lon="-1.74539647065103054046630859375">
        <ele>344.600006103515625</ele>
        <time>2019-10-26T14:00:43.000Z</time>
      </trkpt>
      <trkpt lat="37.62321031652390956878662109375" lon="-1.74555413424968719482421875">
        <ele>344.79998779296875</ele>
        <time>2019-10-26T14:00:48.000Z</time>
      </trkpt>
      <trkpt lat="37.62305156327784061431884765625" lon="-1.74571448005735874176025390625">
        <ele>345</ele>
        <time>2019-10-26T14:00:53.000Z</time>
      </trkpt>
      <trkpt lat="37.6228917203843593597412109375" lon="-1.745873987674713134765625">
        <ele>344.79998779296875</ele>
        <time>2019-10-26T14:00:58.000Z</time>
      </trkpt>
      <trkpt lat="37.62273020111024379730224609375" lon="-1.7460429668426513671875">
        <ele>344.600006103515625</ele>
        <time>2019-10-26T14:01:03.000Z</time>
      </trkpt>
      <trkpt lat="37.6225641556084156036376953125" lon="-1.74621068872511386871337890625">
        <ele>344.399993896484375</ele>
        <time>2019-10-26T14:01:08.000Z</time>
      </trkpt>
      <trkpt lat="37.6224002055823802947998046875" lon="-1.7463834397494792938232421875">
        <ele>345</ele>
        <time>2019-10-26T14:01:13.000Z</time>
      </trkpt>
      <trkpt lat="37.6222392730414867401123046875" lon="-1.74655049107968807220458984375">
        <ele>345.600006103515625</ele>
        <time>2019-10-26T14:01:18.000Z</time>
      </trkpt>
      <trkpt lat="37.62208320200443267822265625" lon="-1.74671594984829425811767578125">
        <ele>346.20001220703125</ele>
        <time>2019-10-26T14:01:23.000Z</time>
      </trkpt>
      <trkpt lat="37.621927969157695770263671875" lon="-1.74688224680721759796142578125">
        <ele>346.79998779296875</ele>
        <time>2019-10-26T14:01:28.000Z</time>
      </trkpt>
      <trkpt lat="37.6217685453593730926513671875" lon="-1.74704049713909626007080078125">
        <ele>347.399993896484375</ele>
        <time>2019-10-26T14:01:33.000Z</time>
      </trkpt>
      <trkpt lat="37.6216039247810840606689453125" lon="-1.7472145892679691314697265625">
        <ele>348</ele>
        <time>2019-10-26T14:01:38.000Z</time>
      </trkpt>
      <trkpt lat="37.621437795460224151611328125" lon="-1.74738046713173389434814453125">
        <ele>348.399993896484375</ele>
        <time>2019-10-26T14:01:43.000Z</time>
      </trkpt>
      <trkpt lat="37.6212780363857746124267578125" lon="-1.74755212850868701934814453125">
        <ele>348.79998779296875</ele>
        <time>2019-10-26T14:01:48.000Z</time>
      </trkpt>
      <trkpt lat="37.62110821902751922607421875" lon="-1.74772395752370357513427734375">
        <ele>349.20001220703125</ele>
        <time>2019-10-26T14:01:53.000Z</time>
      </trkpt>
      <trkpt lat="37.62094519101083278656005859375" lon="-1.74788296222686767578125">
        <ele>349.600006103515625</ele>
        <time>2019-10-26T14:01:58.000Z</time>
      </trkpt>
      <trkpt lat="37.62078878469765186309814453125" lon="-1.74804716370999813079833984375">
        <ele>349.79998779296875</ele>
        <time>2019-10-26T14:02:03.000Z</time>
      </trkpt>
      <trkpt lat="37.62062449939548969268798828125" lon="-1.74820524640381336212158203125">
        <ele>350.20001220703125</ele>
        <time>2019-10-26T14:02:08.000Z</time>
      </trkpt>
      <trkpt lat="37.62046876363456249237060546875" lon="-1.7483619041740894317626953125">
        <ele>350.79998779296875</ele>
        <time>2019-10-26T14:02:13.000Z</time>
      </trkpt>
      <trkpt lat="37.6203204877674579620361328125" lon="-1.7485278658568859100341796875">
        <ele>351.399993896484375</ele>
        <time>2019-10-26T14:02:18.000Z</time>
      </trkpt>
      <trkpt lat="37.62021906673908233642578125" lon="-1.74867890775203704833984375">
        <ele>351.79998779296875</ele>
        <time>2019-10-26T14:02:22.000Z</time>
      </trkpt>
      <trkpt lat="37.6202007941901683807373046875" lon="-1.748722158372402191162109375">
        <ele>352</ele>
        <time>2019-10-26T14:02:23.000Z</time>
      </trkpt>
      <trkpt lat="37.6201478205621242523193359375" lon="-1.74889910034835338592529296875">
        <ele>352.600006103515625</ele>
        <time>2019-10-26T14:02:27.000Z</time>
      </trkpt>
      <trkpt lat="37.620128206908702850341796875" lon="-1.749063469469547271728515625">
        <ele>353</ele>
        <time>2019-10-26T14:02:31.000Z</time>
      </trkpt>
      <trkpt lat="37.62014396488666534423828125" lon="-1.749305538833141326904296875">
        <ele>353.399993896484375</ele>
        <time>2019-10-26T14:02:39.000Z</time>
      </trkpt>
      <trkpt lat="37.6201417855918407440185546875" lon="-1.749435625970363616943359375">
        <ele>353.79998779296875</ele>
        <time>2019-10-26T14:02:46.000Z</time>
      </trkpt>
      <trkpt lat="37.620110772550106048583984375" lon="-1.74924460239708423614501953125">
        <ele>353.399993896484375</ele>
        <time>2019-10-26T14:03:13.000Z</time>
      </trkpt>
      <trkpt lat="37.620110101997852325439453125" lon="-1.74901560880243778228759765625">
        <ele>352.79998779296875</ele>
        <time>2019-10-26T14:03:17.000Z</time>
      </trkpt>
      <trkpt lat="37.6201203279197216033935546875" lon="-1.74888585694134235382080078125">
        <ele>352.600006103515625</ele>
        <time>2019-10-26T14:03:19.000Z</time>
      </trkpt>
      <trkpt lat="37.6202048175036907196044921875" lon="-1.74863372929394245147705078125">
        <ele>351.79998779296875</ele>
        <time>2019-10-26T14:03:23.000Z</time>
      </trkpt>
      <trkpt lat="37.62024027295410633087158203125" lon="-1.74857572652399539947509765625">
        <ele>351.600006103515625</ele>
        <time>2019-10-26T14:03:24.000Z</time>
      </trkpt>
      <trkpt lat="37.6202802546322345733642578125" lon="-1.74852241761982440948486328125">
        <ele>351.399993896484375</ele>
        <time>2019-10-26T14:03:25.000Z</time>
      </trkpt>
      <trkpt lat="37.6204418577253818511962890625" lon="-1.74833357334136962890625">
        <ele>350.79998779296875</ele>
        <time>2019-10-26T14:03:29.000Z</time>
      </trkpt>
      <trkpt lat="37.6206141896545886993408203125" lon="-1.748156212270259857177734375">
        <ele>350.20001220703125</ele>
        <time>2019-10-26T14:03:33.000Z</time>
      </trkpt>
      <trkpt lat="37.6207868568599224090576171875" lon="-1.7479867301881313323974609375">
        <ele>349.79998779296875</ele>
        <time>2019-10-26T14:03:37.000Z</time>
      </trkpt>
      <trkpt lat="37.6209608651697635650634765625" lon="-1.74783560447394847869873046875">
        <ele>349.399993896484375</ele>
        <time>2019-10-26T14:03:41.000Z</time>
      </trkpt>
      <trkpt lat="37.621005289256572723388671875" lon="-1.7478026635944843292236328125">
        <ele>349.399993896484375</ele>
        <time>2019-10-26T14:03:42.000Z</time>
      </trkpt>
      <trkpt lat="37.6211553253233432769775390625" lon="-1.7476777732372283935546875">
        <ele>349</ele>
        <time>2019-10-26T14:03:46.000Z</time>
      </trkpt>
      <trkpt lat="37.62106203474104404449462890625" lon="-1.7476782761514186859130859375">
        <ele>349.20001220703125</ele>
        <time>2019-10-26T14:03:53.000Z</time>
      </trkpt>
      <trkpt lat="37.621041499078273773193359375" lon="-1.74770400859415531158447265625">
        <ele>349.20001220703125</ele>
        <time>2019-10-26T14:03:54.000Z</time>
      </trkpt>
      <trkpt lat="37.62097603641450405120849609375" lon="-1.74775530584156513214111328125">
        <ele>349.399993896484375</ele>
        <time>2019-10-26T14:03:57.000Z</time>
      </trkpt>
      <trkpt lat="37.62081057764589786529541015625" lon="-1.7478831298649311065673828125">
        <ele>349.600006103515625</ele>
        <time>2019-10-26T14:04:05.000Z</time>
      </trkpt>
      <trkpt lat="37.62064553797245025634765625" lon="-1.74801112152636051177978515625">
        <ele>350</ele>
        <time>2019-10-26T14:04:13.000Z</time>
      </trkpt>
      <trkpt lat="37.6204933226108551025390625" lon="-1.74813450314104557037353515625">
        <ele>350.399993896484375</ele>
        <time>2019-10-26T14:04:21.000Z</time>
      </trkpt>
      <trkpt lat="37.6203258521854877471923828125" lon="-1.7482678592205047607421875">
        <ele>350.79998779296875</ele>
        <time>2019-10-26T14:04:30.000Z</time>
      </trkpt>
      <trkpt lat="37.62018629349768161773681640625" lon="-1.74841831438243389129638671875">
        <ele>351.399993896484375</ele>
        <time>2019-10-26T14:04:38.000Z</time>
      </trkpt>
      <trkpt lat="37.62007196433842182159423828125" lon="-1.74860171042382717132568359375">
        <ele>351.79998779296875</ele>
        <time>2019-10-26T14:04:46.000Z</time>
      </trkpt>
      <trkpt lat="37.6199868880212306976318359375" lon="-1.7488219030201435089111328125">
        <ele>352.399993896484375</ele>
        <time>2019-10-26T14:04:55.000Z</time>
      </trkpt>
      <trkpt lat="37.61995512060821056365966796875" lon="-1.749047376215457916259765625">
        <ele>353</ele>
        <time>2019-10-26T14:05:03.000Z</time>
      </trkpt>
      <trkpt lat="37.6199568808078765869140625" lon="-1.74929204396903514862060546875">
        <ele>353.600006103515625</ele>
        <time>2019-10-26T14:05:11.000Z</time>
      </trkpt>
      <trkpt lat="37.6199877262115478515625" lon="-1.7495152540504932403564453125">
        <ele>354.20001220703125</ele>
        <time>2019-10-26T14:05:18.000Z</time>
      </trkpt>
      <trkpt lat="37.620032317936420440673828125" lon="-1.74975254572927951812744140625">
        <ele>354.600006103515625</ele>
        <time>2019-10-26T14:05:25.000Z</time>
      </trkpt>
      <trkpt lat="37.62007959187030792236328125" lon="-1.74999989569187164306640625">
        <ele>355</ele>
        <time>2019-10-26T14:05:31.000Z</time>
      </trkpt>
      <trkpt lat="37.620124183595180511474609375" lon="-1.7502558790147304534912109375">
        <ele>354.79998779296875</ele>
        <time>2019-10-26T14:05:36.000Z</time>
      </trkpt>
      <trkpt lat="37.62015930376946926116943359375" lon="-1.75049384124577045440673828125">
        <ele>354.79998779296875</ele>
        <time>2019-10-26T14:05:40.000Z</time>
      </trkpt>
      <trkpt lat="37.62013181112706661224365234375" lon="-1.75076155923306941986083984375">
        <ele>355</ele>
        <time>2019-10-26T14:05:44.000Z</time>
      </trkpt>
      <trkpt lat="37.62011286802589893341064453125" lon="-1.7508315481245517730712890625">
        <ele>355</ele>
        <time>2019-10-26T14:05:45.000Z</time>
      </trkpt>
      <trkpt lat="37.6200132071971893310546875" lon="-1.7510283552110195159912109375">
        <ele>355.399993896484375</ele>
        <time>2019-10-26T14:05:48.000Z</time>
      </trkpt>
      <trkpt lat="37.61987012811005115509033203125" lon="-1.7511859349906444549560546875">
        <ele>356</ele>
        <time>2019-10-26T14:05:51.000Z</time>
      </trkpt>
      <trkpt lat="37.6196993887424468994140625" lon="-1.75128090195357799530029296875">
        <ele>356.399993896484375</ele>
        <time>2019-10-26T14:05:54.000Z</time>
      </trkpt>
      <trkpt lat="37.61947098188102245330810546875" lon="-1.75128794275224208831787109375">
        <ele>357</ele>
        <time>2019-10-26T14:05:58.000Z</time>
      </trkpt>
      <trkpt lat="37.61931407265365123748779296875" lon="-1.75122591666877269744873046875">
        <ele>356.79998779296875</ele>
        <time>2019-10-26T14:06:01.000Z</time>
      </trkpt>
      <trkpt lat="37.61909547261893749237060546875" lon="-1.751140169799327850341796875">
        <ele>356.399993896484375</ele>
        <time>2019-10-26T14:06:05.000Z</time>
      </trkpt>
      <trkpt lat="37.61886027641594409942626953125" lon="-1.751083172857761383056640625">
        <ele>356</ele>
        <time>2019-10-26T14:06:09.000Z</time>
      </trkpt>
      <trkpt lat="37.6186313666403293609619140625" lon="-1.75105869770050048828125">
        <ele>356</ele>
        <time>2019-10-26T14:06:13.000Z</time>
      </trkpt>
      <trkpt lat="37.61852298863232135772705078125" lon="-1.7510618828237056732177734375">
        <ele>356.20001220703125</ele>
        <time>2019-10-26T14:06:15.000Z</time>
      </trkpt>
      <trkpt lat="37.61831645853817462921142578125" lon="-1.75113874487578868865966796875">
        <ele>356.600006103515625</ele>
        <time>2019-10-26T14:06:19.000Z</time>
      </trkpt>
      <trkpt lat="37.6181195676326751708984375" lon="-1.751234717667102813720703125">
        <ele>357</ele>
        <time>2019-10-26T14:06:23.000Z</time>
      </trkpt>
      <trkpt lat="37.61793508194386959075927734375" lon="-1.75132029689848423004150390625">
        <ele>357.20001220703125</ele>
        <time>2019-10-26T14:06:27.000Z</time>
      </trkpt>
      <trkpt lat="37.61772972531616687774658203125" lon="-1.751420460641384124755859375">
        <ele>357.600006103515625</ele>
        <time>2019-10-26T14:06:32.000Z</time>
      </trkpt>
      <trkpt lat="37.617612965404987335205078125" lon="-1.7514886893332004547119140625">
        <ele>357.79998779296875</ele>
        <time>2019-10-26T14:06:35.000Z</time>
      </trkpt>
      <trkpt lat="37.61743820272386074066162109375" lon="-1.75160578452050685882568359375">
        <ele>358</ele>
        <time>2019-10-26T14:06:40.000Z</time>
      </trkpt>
      <trkpt lat="37.61725413613021373748779296875" lon="-1.75174827687442302703857421875">
        <ele>358.20001220703125</ele>
        <time>2019-10-26T14:06:46.000Z</time>
      </trkpt>
      <trkpt lat="37.6171652041375637054443359375" lon="-1.75183125771582126617431640625">
        <ele>358.399993896484375</ele>
        <time>2019-10-26T14:06:49.000Z</time>
      </trkpt>
      <trkpt lat="37.61702514253556728363037109375" lon="-1.7519808746874332427978515625">
        <ele>358.600006103515625</ele>
        <time>2019-10-26T14:06:54.000Z</time>
      </trkpt>
      <trkpt lat="37.6168792136013507843017578125" lon="-1.75213200040161609649658203125">
        <ele>358.79998779296875</ele>
        <time>2019-10-26T14:06:59.000Z</time>
      </trkpt>
      <trkpt lat="37.6168185286223888397216796875" lon="-1.752196960151195526123046875">
        <ele>358.79998779296875</ele>
        <time>2019-10-26T14:07:01.000Z</time>
      </trkpt>
      <trkpt lat="37.61673579923808574676513671875" lon="-1.7522953636944293975830078125">
        <ele>359</ele>
        <time>2019-10-26T14:07:04.000Z</time>
      </trkpt>
      <trkpt lat="37.61659380979835987091064453125" lon="-1.752445399761199951171875">
        <ele>359.399993896484375</ele>
        <time>2019-10-26T14:07:09.000Z</time>
      </trkpt>
      <trkpt lat="37.61645835824310779571533203125" lon="-1.75260758958756923675537109375">
        <ele>359.79998779296875</ele>
        <time>2019-10-26T14:07:14.000Z</time>
      </trkpt>
      <trkpt lat="37.6162871159613132476806640625" lon="-1.75277086906135082244873046875">
        <ele>360.399993896484375</ele>
        <time>2019-10-26T14:07:20.000Z</time>
      </trkpt>
      <trkpt lat="37.61614168994128704071044921875" lon="-1.75292207859456539154052734375">
        <ele>361</ele>
        <time>2019-10-26T14:07:25.000Z</time>
      </trkpt>
      <trkpt lat="37.61600263416767120361328125" lon="-1.75306825898587703704833984375">
        <ele>361.399993896484375</ele>
        <time>2019-10-26T14:07:30.000Z</time>
      </trkpt>
      <trkpt lat="37.6158616505563259124755859375" lon="-1.753214187920093536376953125">
        <ele>362</ele>
        <time>2019-10-26T14:07:35.000Z</time>
      </trkpt>
      <trkpt lat="37.61569895781576633453369140625" lon="-1.7533752880990505218505859375">
        <ele>362.399993896484375</ele>
        <time>2019-10-26T14:07:41.000Z</time>
      </trkpt>
      <trkpt lat="37.615532577037811279296875" lon="-1.75354368053376674652099609375">
        <ele>362.79998779296875</ele>
        <time>2019-10-26T14:07:47.000Z</time>
      </trkpt>
      <trkpt lat="37.6153724826872348785400390625" lon="-1.75371467135846614837646484375">
        <ele>363.20001220703125</ele>
        <time>2019-10-26T14:07:53.000Z</time>
      </trkpt>
      <trkpt lat="37.61521096341311931610107421875" lon="-1.75387325696647167205810546875">
        <ele>363.600006103515625</ele>
        <time>2019-10-26T14:07:59.000Z</time>
      </trkpt>
      <trkpt lat="37.61510116048157215118408203125" lon="-1.75397769547998905181884765625">
        <ele>363.79998779296875</ele>
        <time>2019-10-26T14:08:03.000Z</time>
      </trkpt>
      <trkpt lat="37.614936791360378265380859375" lon="-1.7541350238025188446044921875">
        <ele>364.399993896484375</ele>
        <time>2019-10-26T14:08:09.000Z</time>
      </trkpt>
      <trkpt lat="37.6147746853530406951904296875" lon="-1.75430140458047389984130859375">
        <ele>365</ele>
        <time>2019-10-26T14:08:15.000Z</time>
      </trkpt>
      <trkpt lat="37.61461065150797367095947265625" lon="-1.75448161549866199493408203125">
        <ele>365.600006103515625</ele>
        <time>2019-10-26T14:08:21.000Z</time>
      </trkpt>
      <trkpt lat="37.61444468982517719268798828125" lon="-1.75465092994272708892822265625">
        <ele>366.20001220703125</ele>
        <time>2019-10-26T14:08:27.000Z</time>
      </trkpt>
      <trkpt lat="37.61429599486291408538818359375" lon="-1.754800714552402496337890625">
        <ele>366.600006103515625</ele>
        <time>2019-10-26T14:08:32.000Z</time>
      </trkpt>
      <trkpt lat="37.614146880805492401123046875" lon="-1.754947565495967864990234375">
        <ele>367.20001220703125</ele>
        <time>2019-10-26T14:08:37.000Z</time>
      </trkpt>
      <trkpt lat="37.61400514282286167144775390625" lon="-1.7551019601523876190185546875">
        <ele>367.399993896484375</ele>
        <time>2019-10-26T14:08:42.000Z</time>
      </trkpt>
      <trkpt lat="37.61385628022253513336181640625" lon="-1.7552528344094753265380859375">
        <ele>367.79998779296875</ele>
        <time>2019-10-26T14:08:47.000Z</time>
      </trkpt>
      <trkpt lat="37.61372141540050506591796875" lon="-1.7554030381143093109130859375">
        <ele>368.20001220703125</ele>
        <time>2019-10-26T14:08:52.000Z</time>
      </trkpt>
      <trkpt lat="37.613585628569126129150390625" lon="-1.75555215217173099517822265625">
        <ele>368.600006103515625</ele>
        <time>2019-10-26T14:08:57.000Z</time>
      </trkpt>
      <trkpt lat="37.61343039572238922119140625" lon="-1.75573621876537799835205078125">
        <ele>369</ele>
        <time>2019-10-26T14:09:03.000Z</time>
      </trkpt>
      <trkpt lat="37.61331380344927310943603515625" lon="-1.7559119872748851776123046875">
        <ele>369.79998779296875</ele>
        <time>2019-10-26T14:09:08.000Z</time>
      </trkpt>
      <trkpt lat="37.61319595389068126678466796875" lon="-1.7560984008014202117919921875">
        <ele>370.399993896484375</ele>
        <time>2019-10-26T14:09:13.000Z</time>
      </trkpt>
      <trkpt lat="37.61306150816380977630615234375" lon="-1.7563032545149326324462890625">
        <ele>371.20001220703125</ele>
        <time>2019-10-26T14:09:19.000Z</time>
      </trkpt>
      <trkpt lat="37.61294332332909107208251953125" lon="-1.75648857839405536651611328125">
        <ele>371.79998779296875</ele>
        <time>2019-10-26T14:09:24.000Z</time>
      </trkpt>
      <trkpt lat="37.6128089614212512969970703125" lon="-1.7566953599452972412109375">
        <ele>372.79998779296875</ele>
        <time>2019-10-26T14:09:30.000Z</time>
      </trkpt>
      <trkpt lat="37.61269748210906982421875" lon="-1.75687397830188274383544921875">
        <ele>373.79998779296875</ele>
        <time>2019-10-26T14:09:35.000Z</time>
      </trkpt>
      <trkpt lat="37.61257133446633815765380859375" lon="-1.75705888308584690093994140625">
        <ele>374.79998779296875</ele>
        <time>2019-10-26T14:09:40.000Z</time>
      </trkpt>
      <trkpt lat="37.61244644410908222198486328125" lon="-1.75724856555461883544921875">
        <ele>375.79998779296875</ele>
        <time>2019-10-26T14:09:45.000Z</time>
      </trkpt>
      <trkpt lat="37.6123275049030780792236328125" lon="-1.75744277425110340118408203125">
        <ele>376.399993896484375</ele>
        <time>2019-10-26T14:09:50.000Z</time>
      </trkpt>
      <trkpt lat="37.61220705695450305938720703125" lon="-1.75762885250151157379150390625">
        <ele>376.79998779296875</ele>
        <time>2019-10-26T14:09:55.000Z</time>
      </trkpt>
      <trkpt lat="37.6120847649872303009033203125" lon="-1.75783194601535797119140625">
        <ele>377</ele>
        <time>2019-10-26T14:10:00.000Z</time>
      </trkpt>
      <trkpt lat="37.61196498759090900421142578125" lon="-1.75801006145775318145751953125">
        <ele>377.20001220703125</ele>
        <time>2019-10-26T14:10:05.000Z</time>
      </trkpt>
      <trkpt lat="37.61183791793882846832275390625" lon="-1.758177615702152252197265625">
        <ele>377.399993896484375</ele>
        <time>2019-10-26T14:10:11.000Z</time>
      </trkpt>
      <trkpt lat="37.61169643141329288482666015625" lon="-1.75832924433052539825439453125">
        <ele>377.399993896484375</ele>
        <time>2019-10-26T14:10:17.000Z</time>
      </trkpt>
      <trkpt lat="37.6115479879081249237060546875" lon="-1.7584808729588985443115234375">
        <ele>377.399993896484375</ele>
        <time>2019-10-26T14:10:22.000Z</time>
      </trkpt>
      <trkpt lat="37.6114071719348430633544921875" lon="-1.758642978966236114501953125">
        <ele>377.399993896484375</ele>
        <time>2019-10-26T14:10:27.000Z</time>
      </trkpt>
      <trkpt lat="37.6112606562674045562744140625" lon="-1.75879427231848239898681640625">
        <ele>377.399993896484375</ele>
        <time>2019-10-26T14:10:33.000Z</time>
      </trkpt>
      <trkpt lat="37.61109109036624431610107421875" lon="-1.758942715823650360107421875">
        <ele>377.399993896484375</ele>
        <time>2019-10-26T14:10:40.000Z</time>
      </trkpt>
      <trkpt lat="37.6109283976256847381591796875" lon="-1.7590890638530254364013671875">
        <ele>377.600006103515625</ele>
        <time>2019-10-26T14:10:46.000Z</time>
      </trkpt>
      <trkpt lat="37.61074441485106945037841796875" lon="-1.75911144353449344635009765625">
        <ele>377.600006103515625</ele>
        <time>2019-10-26T14:10:50.000Z</time>
      </trkpt>
      <trkpt lat="37.6105451770126819610595703125" lon="-1.7590910755097866058349609375">
        <ele>377.399993896484375</ele>
        <time>2019-10-26T14:10:54.000Z</time>
      </trkpt>
      <trkpt lat="37.6103572547435760498046875" lon="-1.75913860090076923370361328125">
        <ele>377.79998779296875</ele>
        <time>2019-10-26T14:10:59.000Z</time>
      </trkpt>
      <trkpt lat="37.61019422672688961029052734375" lon="-1.75924521870911121368408203125">
        <ele>378.79998779296875</ele>
        <time>2019-10-26T14:11:05.000Z</time>
      </trkpt>
      <trkpt lat="37.6100395806133747100830078125" lon="-1.7593733780086040496826171875">
        <ele>379.79998779296875</ele>
        <time>2019-10-26T14:11:11.000Z</time>
      </trkpt>
      <trkpt lat="37.6098903827369213104248046875" lon="-1.75950304605066776275634765625">
        <ele>380.399993896484375</ele>
        <time>2019-10-26T14:11:17.000Z</time>
      </trkpt>
      <trkpt lat="37.60973825119435787200927734375" lon="-1.75963363610208034515380859375">
        <ele>381</ele>
        <time>2019-10-26T14:11:23.000Z</time>
      </trkpt>
      <trkpt lat="37.6095812581479549407958984375" lon="-1.75978593528270721435546875">
        <ele>381.600006103515625</ele>
        <time>2019-10-26T14:11:29.000Z</time>
      </trkpt>
      <trkpt lat="37.609435580670833587646484375" lon="-1.7599202133715152740478515625">
        <ele>382.20001220703125</ele>
        <time>2019-10-26T14:11:34.000Z</time>
      </trkpt>
      <trkpt lat="37.60927439667284488677978515625" lon="-1.7600620351731777191162109375">
        <ele>382.20001220703125</ele>
        <time>2019-10-26T14:11:39.000Z</time>
      </trkpt>
      <trkpt lat="37.6091172359883785247802734375" lon="-1.7602159269154071807861328125">
        <ele>382.399993896484375</ele>
        <time>2019-10-26T14:11:44.000Z</time>
      </trkpt>
      <trkpt lat="37.60895638726651668548583984375" lon="-1.760372333228588104248046875">
        <ele>382.600006103515625</ele>
        <time>2019-10-26T14:11:49.000Z</time>
      </trkpt>
      <trkpt lat="37.6088138110935688018798828125" lon="-1.76052195020020008087158203125">
        <ele>382.79998779296875</ele>
        <time>2019-10-26T14:11:54.000Z</time>
      </trkpt>
      <trkpt lat="37.6086642779409885406494140625" lon="-1.76068103872239589691162109375">
        <ele>383</ele>
        <time>2019-10-26T14:12:00.000Z</time>
      </trkpt>
      <trkpt lat="37.60852002538740634918212890625" lon="-1.76083459518849849700927734375">
        <ele>383</ele>
        <time>2019-10-26T14:12:06.000Z</time>
      </trkpt>
      <trkpt lat="37.6083782874047756195068359375" lon="-1.760977171361446380615234375">
        <ele>382.79998779296875</ele>
        <time>2019-10-26T14:12:12.000Z</time>
      </trkpt>
      <trkpt lat="37.60830947197973728179931640625" lon="-1.76104791462421417236328125">
        <ele>382.600006103515625</ele>
        <time>2019-10-26T14:12:15.000Z</time>
      </trkpt>
      <trkpt lat="37.6081637106835842132568359375" lon="-1.7611969448626041412353515625">
        <ele>382</ele>
        <time>2019-10-26T14:12:21.000Z</time>
      </trkpt>
      <trkpt lat="37.60801794938743114471435546875" lon="-1.7613461427390575408935546875">
        <ele>381.600006103515625</ele>
        <time>2019-10-26T14:12:27.000Z</time>
      </trkpt>
      <trkpt lat="37.6078777201473712921142578125" lon="-1.7615045607089996337890625">
        <ele>381</ele>
        <time>2019-10-26T14:12:33.000Z</time>
      </trkpt>
      <trkpt lat="37.60771703906357288360595703125" lon="-1.7616680078208446502685546875">
        <ele>381.20001220703125</ele>
        <time>2019-10-26T14:12:40.000Z</time>
      </trkpt>
      <trkpt lat="37.6075645722448825836181640625" lon="-1.761809326708316802978515625">
        <ele>381.600006103515625</ele>
        <time>2019-10-26T14:12:46.000Z</time>
      </trkpt>
      <trkpt lat="37.60741177015006542205810546875" lon="-1.761971600353717803955078125">
        <ele>382</ele>
        <time>2019-10-26T14:12:52.000Z</time>
      </trkpt>
      <trkpt lat="37.6072722114622592926025390625" lon="-1.76212540827691555023193359375">
        <ele>382.79998779296875</ele>
        <time>2019-10-26T14:12:58.000Z</time>
      </trkpt>
      <trkpt lat="37.6071251928806304931640625" lon="-1.76227075047791004180908203125">
        <ele>383.20001220703125</ele>
        <time>2019-10-26T14:13:04.000Z</time>
      </trkpt>
      <trkpt lat="37.60697574354708194732666015625" lon="-1.7624129913747310638427734375">
        <ele>383.399993896484375</ele>
        <time>2019-10-26T14:13:10.000Z</time>
      </trkpt>
      <trkpt lat="37.60682403109967708587646484375" lon="-1.762552298605442047119140625">
        <ele>382.600006103515625</ele>
        <time>2019-10-26T14:13:16.000Z</time>
      </trkpt>
      <trkpt lat="37.60666812770068645477294921875" lon="-1.762707196176052093505859375">
        <ele>381.79998779296875</ele>
        <time>2019-10-26T14:13:22.000Z</time>
      </trkpt>
      <trkpt lat="37.6065107993781566619873046875" lon="-1.76288187503814697265625">
        <ele>380.399993896484375</ele>
        <time>2019-10-26T14:13:27.000Z</time>
      </trkpt>
      <trkpt lat="37.6063741743564605712890625" lon="-1.763035766780376434326171875">
        <ele>379</ele>
        <time>2019-10-26T14:13:31.000Z</time>
      </trkpt>
      <trkpt lat="37.60621986351907253265380859375" lon="-1.76323366351425647735595703125">
        <ele>377.600006103515625</ele>
        <time>2019-10-26T14:13:36.000Z</time>
      </trkpt>
      <trkpt lat="37.60606932453811168670654296875" lon="-1.763404570519924163818359375">
        <ele>377.20001220703125</ele>
        <time>2019-10-26T14:13:41.000Z</time>
      </trkpt>
      <trkpt lat="37.6059277541935443878173828125" lon="-1.763546727597713470458984375">
        <ele>376.79998779296875</ele>
        <time>2019-10-26T14:13:46.000Z</time>
      </trkpt>
      <trkpt lat="37.6057859323918819427490234375" lon="-1.763719059526920318603515625">
        <ele>376.79998779296875</ele>
        <time>2019-10-26T14:13:51.000Z</time>
      </trkpt>
      <trkpt lat="37.605625502765178680419921875" lon="-1.76389516331255435943603515625">
        <ele>377.600006103515625</ele>
        <time>2019-10-26T14:13:56.000Z</time>
      </trkpt>
      <trkpt lat="37.60546834208071231842041015625" lon="-1.764071770012378692626953125">
        <ele>378</ele>
        <time>2019-10-26T14:14:01.000Z</time>
      </trkpt>
      <trkpt lat="37.60530422441661357879638671875" lon="-1.76424066536128520965576171875">
        <ele>377.399993896484375</ele>
        <time>2019-10-26T14:14:06.000Z</time>
      </trkpt>
      <trkpt lat="37.6051556132733821868896484375" lon="-1.76440830342471599578857421875">
        <ele>376.79998779296875</ele>
        <time>2019-10-26T14:14:11.000Z</time>
      </trkpt>
      <trkpt lat="37.6050070859491825103759765625" lon="-1.7645703256130218505859375">
        <ele>376.399993896484375</ele>
        <time>2019-10-26T14:14:16.000Z</time>
      </trkpt>
      <trkpt lat="37.60486417450010776519775390625" lon="-1.76472212187945842742919921875">
        <ele>377</ele>
        <time>2019-10-26T14:14:21.000Z</time>
      </trkpt>
      <trkpt lat="37.604726292192935943603515625" lon="-1.7648707330226898193359375">
        <ele>377.399993896484375</ele>
        <time>2019-10-26T14:14:26.000Z</time>
      </trkpt>
      <trkpt lat="37.60456326417624950408935546875" lon="-1.76504314877092838287353515625">
        <ele>377.79998779296875</ele>
        <time>2019-10-26T14:14:32.000Z</time>
      </trkpt>
      <trkpt lat="37.60440216399729251861572265625" lon="-1.76519955508410930633544921875">
        <ele>378.20001220703125</ele>
        <time>2019-10-26T14:14:38.000Z</time>
      </trkpt>
      <trkpt lat="37.6042436622083187103271484375" lon="-1.7653587274253368377685546875">
        <ele>378.600006103515625</ele>
        <time>2019-10-26T14:14:44.000Z</time>
      </trkpt>
      <trkpt lat="37.60408348403871059417724609375" lon="-1.76551655866205692291259765625">
        <ele>378.79998779296875</ele>
        <time>2019-10-26T14:14:50.000Z</time>
      </trkpt>
      <trkpt lat="37.60392255149781703948974609375" lon="-1.76568184979259967803955078125">
        <ele>379</ele>
        <time>2019-10-26T14:14:56.000Z</time>
      </trkpt>
      <trkpt lat="37.6037590205669403076171875" lon="-1.76584563218057155609130859375">
        <ele>379.600006103515625</ele>
        <time>2019-10-26T14:15:02.000Z</time>
      </trkpt>
      <trkpt lat="37.60359079577028751373291015625" lon="-1.76600891165435314178466796875">
        <ele>380.399993896484375</ele>
        <time>2019-10-26T14:15:08.000Z</time>
      </trkpt>
      <trkpt lat="37.60343221016228199005126953125" lon="-1.76618074066936969757080078125">
        <ele>381.20001220703125</ele>
        <time>2019-10-26T14:15:14.000Z</time>
      </trkpt>
      <trkpt lat="37.6032708585262298583984375" lon="-1.76635223440825939178466796875">
        <ele>382.20001220703125</ele>
        <time>2019-10-26T14:15:20.000Z</time>
      </trkpt>
      <trkpt lat="37.60311420075595378875732421875" lon="-1.76651366986334323883056640625">
        <ele>383</ele>
        <time>2019-10-26T14:15:26.000Z</time>
      </trkpt>
      <trkpt lat="37.60294639505445957183837890625" lon="-1.7666733451187610626220703125">
        <ele>383.399993896484375</ele>
        <time>2019-10-26T14:15:32.000Z</time>
      </trkpt>
      <trkpt lat="37.60279099456965923309326171875" lon="-1.7668429948389530181884765625">
        <ele>383.600006103515625</ele>
        <time>2019-10-26T14:15:38.000Z</time>
      </trkpt>
      <trkpt lat="37.602652944624423980712890625" lon="-1.76699143834412097930908203125">
        <ele>383.79998779296875</ele>
        <time>2019-10-26T14:15:43.000Z</time>
      </trkpt>
      <trkpt lat="37.6024898327887058258056640625" lon="-1.76716268062591552734375">
        <ele>383.79998779296875</ele>
        <time>2019-10-26T14:15:49.000Z</time>
      </trkpt>
      <trkpt lat="37.6023225300014019012451171875" lon="-1.76733224652707576751708984375">
        <ele>383.399993896484375</ele>
        <time>2019-10-26T14:15:55.000Z</time>
      </trkpt>
      <trkpt lat="37.6021813787519931793212890625" lon="-1.767480187118053436279296875">
        <ele>383.600006103515625</ele>
        <time>2019-10-26T14:16:00.000Z</time>
      </trkpt>
      <trkpt lat="37.60201332159340381622314453125" lon="-1.76765444688498973846435546875">
        <ele>384</ele>
        <time>2019-10-26T14:16:06.000Z</time>
      </trkpt>
      <trkpt lat="37.60186068713665008544921875" lon="-1.7678002081811428070068359375">
        <ele>384.20001220703125</ele>
        <time>2019-10-26T14:16:11.000Z</time>
      </trkpt>
      <trkpt lat="37.601712159812450408935546875" lon="-1.76796524785459041595458984375">
        <ele>384.600006103515625</ele>
        <time>2019-10-26T14:16:16.000Z</time>
      </trkpt>
      <trkpt lat="37.6015664823353290557861328125" lon="-1.768126599490642547607421875">
        <ele>384.79998779296875</ele>
        <time>2019-10-26T14:16:21.000Z</time>
      </trkpt>
      <trkpt lat="37.60140446014702320098876953125" lon="-1.7682930640876293182373046875">
        <ele>384.600006103515625</ele>
        <time>2019-10-26T14:16:26.000Z</time>
      </trkpt>
      <trkpt lat="37.60137327946722507476806640625" lon="-1.76832818426191806793212890625">
        <ele>384.600006103515625</ele>
        <time>2019-10-26T14:16:27.000Z</time>
      </trkpt>
      <trkpt lat="37.60121301747858524322509765625" lon="-1.7685022763907909393310546875">
        <ele>384.399993896484375</ele>
        <time>2019-10-26T14:16:32.000Z</time>
      </trkpt>
      <trkpt lat="37.60107421316206455230712890625" lon="-1.76864921115338802337646484375">
        <ele>384.20001220703125</ele>
        <time>2019-10-26T14:16:36.000Z</time>
      </trkpt>
      <trkpt lat="37.6009012944996356964111328125" lon="-1.7688281647861003875732421875">
        <ele>384</ele>
        <time>2019-10-26T14:16:41.000Z</time>
      </trkpt>
      <trkpt lat="37.6007524318993091583251953125" lon="-1.76897493191063404083251953125">
        <ele>384.20001220703125</ele>
        <time>2019-10-26T14:16:45.000Z</time>
      </trkpt>
      <trkpt lat="37.6006101071834564208984375" lon="-1.7691178433597087860107421875">
        <ele>384.399993896484375</ele>
        <time>2019-10-26T14:16:49.000Z</time>
      </trkpt>
      <trkpt lat="37.6004671119153499603271484375" lon="-1.76925924606621265411376953125">
        <ele>384.79998779296875</ele>
        <time>2019-10-26T14:16:53.000Z</time>
      </trkpt>
      <trkpt lat="37.60032713413238525390625" lon="-1.76940433681011199951171875">
        <ele>385</ele>
        <time>2019-10-26T14:16:57.000Z</time>
      </trkpt>
      <trkpt lat="37.60018573142588138580322265625" lon="-1.7695526964962482452392578125">
        <ele>385.399993896484375</ele>
        <time>2019-10-26T14:17:01.000Z</time>
      </trkpt>
      <trkpt lat="37.60004189796745777130126953125" lon="-1.76970072090625762939453125">
        <ele>385.79998779296875</ele>
        <time>2019-10-26T14:17:05.000Z</time>
      </trkpt>
      <trkpt lat="37.599872834980487823486328125" lon="-1.76987498067319393157958984375">
        <ele>386.20001220703125</ele>
        <time>2019-10-26T14:17:10.000Z</time>
      </trkpt>
      <trkpt lat="37.59970913641154766082763671875" lon="-1.77004731260240077972412109375">
        <ele>386.399993896484375</ele>
        <time>2019-10-26T14:17:15.000Z</time>
      </trkpt>
      <trkpt lat="37.59953814558684825897216796875" lon="-1.77022534422576427459716796875">
        <ele>386.600006103515625</ele>
        <time>2019-10-26T14:17:20.000Z</time>
      </trkpt>
      <trkpt lat="37.59940654970705509185791015625" lon="-1.7703486420214176177978515625">
        <ele>386.79998779296875</ele>
        <time>2019-10-26T14:17:24.000Z</time>
      </trkpt>
      <trkpt lat="37.5993130914866924285888671875" lon="-1.7704572714865207672119140625">
        <ele>386.79998779296875</ele>
        <time>2019-10-26T14:17:27.000Z</time>
      </trkpt>
      <trkpt lat="37.59915140457451343536376953125" lon="-1.77062029950320720672607421875">
        <ele>387</ele>
        <time>2019-10-26T14:17:32.000Z</time>
      </trkpt>
      <trkpt lat="37.598987035453319549560546875" lon="-1.77079229615628719329833984375">
        <ele>387.600006103515625</ele>
        <time>2019-10-26T14:17:37.000Z</time>
      </trkpt>
      <trkpt lat="37.598893828690052032470703125" lon="-1.77089832723140716552734375">
        <ele>388</ele>
        <time>2019-10-26T14:17:40.000Z</time>
      </trkpt>
      <trkpt lat="37.59872342459857463836669921875" lon="-1.7710624448955059051513671875">
        <ele>388.600006103515625</ele>
        <time>2019-10-26T14:17:45.000Z</time>
      </trkpt>
      <trkpt lat="37.598564587533473968505859375" lon="-1.77122966386377811431884765625">
        <ele>389.20001220703125</ele>
        <time>2019-10-26T14:17:50.000Z</time>
      </trkpt>
      <trkpt lat="37.59840843267738819122314453125" lon="-1.77138355560600757598876953125">
        <ele>389.600006103515625</ele>
        <time>2019-10-26T14:17:55.000Z</time>
      </trkpt>
      <trkpt lat="37.5982660241425037384033203125" lon="-1.7715371958911418914794921875">
        <ele>389.79998779296875</ele>
        <time>2019-10-26T14:18:00.000Z</time>
      </trkpt>
      <trkpt lat="37.598100565373897552490234375" lon="-1.77170567214488983154296875">
        <ele>389.79998779296875</ele>
        <time>2019-10-26T14:18:05.000Z</time>
      </trkpt>
      <trkpt lat="37.59794642217457294464111328125" lon="-1.771872304379940032958984375">
        <ele>389.600006103515625</ele>
        <time>2019-10-26T14:18:10.000Z</time>
      </trkpt>
      <trkpt lat="37.597784064710140228271484375" lon="-1.77204631268978118896484375">
        <ele>389.399993896484375</ele>
        <time>2019-10-26T14:18:15.000Z</time>
      </trkpt>
      <trkpt lat="37.59762346744537353515625" lon="-1.7722100950777530670166015625">
        <ele>389.20001220703125</ele>
        <time>2019-10-26T14:18:20.000Z</time>
      </trkpt>
      <trkpt lat="37.5974558293819427490234375" lon="-1.77238695323467254638671875">
        <ele>389.20001220703125</ele>
        <time>2019-10-26T14:18:25.000Z</time>
      </trkpt>
      <trkpt lat="37.597291208803653717041015625" lon="-1.772556267678737640380859375">
        <ele>389.20001220703125</ele>
        <time>2019-10-26T14:18:30.000Z</time>
      </trkpt>
      <trkpt lat="37.59715014137327671051025390625" lon="-1.77270353771746158599853515625">
        <ele>389</ele>
        <time>2019-10-26T14:18:34.000Z</time>
      </trkpt>
      <trkpt lat="37.597008235752582550048828125" lon="-1.77286229096353054046630859375">
        <ele>389</ele>
        <time>2019-10-26T14:18:38.000Z</time>
      </trkpt>
      <trkpt lat="37.59687236510217189788818359375" lon="-1.7730288393795490264892578125">
        <ele>389</ele>
        <time>2019-10-26T14:18:42.000Z</time>
      </trkpt>
      <trkpt lat="37.5968040525913238525390625" lon="-1.77309899590909481048583984375">
        <ele>389</ele>
        <time>2019-10-26T14:18:44.000Z</time>
      </trkpt>
      <trkpt lat="37.59667103178799152374267578125" lon="-1.77324584685266017913818359375">
        <ele>389</ele>
        <time>2019-10-26T14:18:48.000Z</time>
      </trkpt>
      <trkpt lat="37.59652602486312389373779296875" lon="-1.77339571528136730194091796875">
        <ele>389.20001220703125</ele>
        <time>2019-10-26T14:18:53.000Z</time>
      </trkpt>
      <trkpt lat="37.59637297131121158599853515625" lon="-1.77355329506099224090576171875">
        <ele>389.399993896484375</ele>
        <time>2019-10-26T14:18:58.000Z</time>
      </trkpt>
      <trkpt lat="37.59620415978133678436279296875" lon="-1.77372864447534084320068359375">
        <ele>389.600006103515625</ele>
        <time>2019-10-26T14:19:03.000Z</time>
      </trkpt>
      <trkpt lat="37.5960637629032135009765625" lon="-1.7738561332225799560546875">
        <ele>389.79998779296875</ele>
        <time>2019-10-26T14:19:07.000Z</time>
      </trkpt>
      <trkpt lat="37.59592831134796142578125" lon="-1.774006001651287078857421875">
        <ele>390</ele>
        <time>2019-10-26T14:19:11.000Z</time>
      </trkpt>
      <trkpt lat="37.59575866162776947021484375" lon="-1.77417322061955928802490234375">
        <ele>389.79998779296875</ele>
        <time>2019-10-26T14:19:16.000Z</time>
      </trkpt>
      <trkpt lat="37.59562228806316852569580078125" lon="-1.7743226699531078338623046875">
        <ele>389.79998779296875</ele>
        <time>2019-10-26T14:19:20.000Z</time>
      </trkpt>
      <trkpt lat="37.59544861502945423126220703125" lon="-1.774505563080310821533203125">
        <ele>389.600006103515625</ele>
        <time>2019-10-26T14:19:25.000Z</time>
      </trkpt>
      <trkpt lat="37.595282234251499176025390625" lon="-1.77466758526861667633056640625">
        <ele>389.399993896484375</ele>
        <time>2019-10-26T14:19:30.000Z</time>
      </trkpt>
      <trkpt lat="37.59511434473097324371337890625" lon="-1.77483052946627140045166015625">
        <ele>389.20001220703125</ele>
        <time>2019-10-26T14:19:35.000Z</time>
      </trkpt>
      <trkpt lat="37.5949484668672084808349609375" lon="-1.774999089539051055908203125">
        <ele>389.20001220703125</ele>
        <time>2019-10-26T14:19:40.000Z</time>
      </trkpt>
      <trkpt lat="37.5947959162294864654541015625" lon="-1.77516278810799121856689453125">
        <ele>389.600006103515625</ele>
        <time>2019-10-26T14:19:45.000Z</time>
      </trkpt>
      <trkpt lat="37.59464244358241558074951171875" lon="-1.775324977934360504150390625">
        <ele>390</ele>
        <time>2019-10-26T14:19:50.000Z</time>
      </trkpt>
      <trkpt lat="37.59449760429561138153076171875" lon="-1.7754683084785938262939453125">
        <ele>390.399993896484375</ele>
        <time>2019-10-26T14:19:55.000Z</time>
      </trkpt>
      <trkpt lat="37.59444178082048892974853515625" lon="-1.77552673034369945526123046875">
        <ele>390.399993896484375</ele>
        <time>2019-10-26T14:19:57.000Z</time>
      </trkpt>
      <trkpt lat="37.5943543575704097747802734375" lon="-1.77561096847057342529296875">
        <ele>390.600006103515625</ele>
        <time>2019-10-26T14:20:00.000Z</time>
      </trkpt>
      <trkpt lat="37.59419225156307220458984375" lon="-1.77577885799109935760498046875">
        <ele>391.20001220703125</ele>
        <time>2019-10-26T14:20:06.000Z</time>
      </trkpt>
      <trkpt lat="37.59413726627826690673828125" lon="-1.77583652548491954803466796875">
        <ele>391.399993896484375</ele>
        <time>2019-10-26T14:20:08.000Z</time>
      </trkpt>
      <trkpt lat="37.5939932651817798614501953125" lon="-1.77597784437239170074462890625">
        <ele>391.79998779296875</ele>
        <time>2019-10-26T14:20:13.000Z</time>
      </trkpt>
      <trkpt lat="37.59384901262819766998291015625" lon="-1.7761177383363246917724609375">
        <ele>392</ele>
        <time>2019-10-26T14:20:18.000Z</time>
      </trkpt>
      <trkpt lat="37.59370249696075916290283203125" lon="-1.776268444955348968505859375">
        <ele>392.399993896484375</ele>
        <time>2019-10-26T14:20:23.000Z</time>
      </trkpt>
      <trkpt lat="37.59356084279716014862060546875" lon="-1.77641387097537517547607421875">
        <ele>392.79998779296875</ele>
        <time>2019-10-26T14:20:28.000Z</time>
      </trkpt>
      <trkpt lat="37.59340711869299411773681640625" lon="-1.77657731808722019195556640625">
        <ele>393.20001220703125</ele>
        <time>2019-10-26T14:20:34.000Z</time>
      </trkpt>
      <trkpt lat="37.59326647035777568817138671875" lon="-1.77673204801976680755615234375">
        <ele>393.79998779296875</ele>
        <time>2019-10-26T14:20:39.000Z</time>
      </trkpt>
      <trkpt lat="37.5931242294609546661376953125" lon="-1.77688292227685451507568359375">
        <ele>394.399993896484375</ele>
        <time>2019-10-26T14:20:44.000Z</time>
      </trkpt>
      <trkpt lat="37.59298115037381649017333984375" lon="-1.77703245542943477630615234375">
        <ele>395.20001220703125</ele>
        <time>2019-10-26T14:20:49.000Z</time>
      </trkpt>
      <trkpt lat="37.5928397476673126220703125" lon="-1.77718282677233219146728515625">
        <ele>396</ele>
        <time>2019-10-26T14:20:54.000Z</time>
      </trkpt>
      <trkpt lat="37.59269230999052524566650390625" lon="-1.777317188680171966552734375">
        <ele>396.600006103515625</ele>
        <time>2019-10-26T14:20:59.000Z</time>
      </trkpt>
      <trkpt lat="37.59253154508769512176513671875" lon="-1.7774685658514499664306640625">
        <ele>397</ele>
        <time>2019-10-26T14:21:04.000Z</time>
      </trkpt>
      <trkpt lat="37.59236834943294525146484375" lon="-1.77764265798032283782958984375">
        <ele>397.20001220703125</ele>
        <time>2019-10-26T14:21:09.000Z</time>
      </trkpt>
      <trkpt lat="37.59221621789038181304931640625" lon="-1.77781599573791027069091796875">
        <ele>397.20001220703125</ele>
        <time>2019-10-26T14:21:14.000Z</time>
      </trkpt>
      <trkpt lat="37.59205964393913745880126953125" lon="-1.77798782475292682647705078125">
        <ele>397.20001220703125</ele>
        <time>2019-10-26T14:21:19.000Z</time>
      </trkpt>
      <trkpt lat="37.59189988486468791961669921875" lon="-1.77815764211118221282958984375">
        <ele>397.20001220703125</ele>
        <time>2019-10-26T14:21:24.000Z</time>
      </trkpt>
      <trkpt lat="37.59175454266369342803955078125" lon="-1.77832067012786865234375">
        <ele>397.399993896484375</ele>
        <time>2019-10-26T14:21:29.000Z</time>
      </trkpt>
      <trkpt lat="37.59160450659692287445068359375" lon="-1.77848185412585735321044921875">
        <ele>397.399993896484375</ele>
        <time>2019-10-26T14:21:34.000Z</time>
      </trkpt>
      <trkpt lat="37.5914582423865795135498046875" lon="-1.7786564491689205169677734375">
        <ele>397.20001220703125</ele>
        <time>2019-10-26T14:21:39.000Z</time>
      </trkpt>
      <trkpt lat="37.59128968231379985809326171875" lon="-1.7787962593138217926025390625">
        <ele>397</ele>
        <time>2019-10-26T14:21:44.000Z</time>
      </trkpt>
      <trkpt lat="37.59113796986639499664306640625" lon="-1.778934895992279052734375">
        <ele>396.79998779296875</ele>
        <time>2019-10-26T14:21:48.000Z</time>
      </trkpt>
      <trkpt lat="37.59096681140363216400146484375" lon="-1.77910747937858104705810546875">
        <ele>396.399993896484375</ele>
        <time>2019-10-26T14:21:53.000Z</time>
      </trkpt>
      <trkpt lat="37.590796239674091339111328125" lon="-1.77928081713616847991943359375">
        <ele>396</ele>
        <time>2019-10-26T14:21:58.000Z</time>
      </trkpt>
      <trkpt lat="37.59076212532818317413330078125" lon="-1.7793144285678863525390625">
        <ele>396</ele>
        <time>2019-10-26T14:21:59.000Z</time>
      </trkpt>
      <trkpt lat="37.59061611257493495941162109375" lon="-1.7794557474553585052490234375">
        <ele>396</ele>
        <time>2019-10-26T14:22:03.000Z</time>
      </trkpt>
      <trkpt lat="37.59044394828379154205322265625" lon="-1.77963872440159320831298828125">
        <ele>396</ele>
        <time>2019-10-26T14:22:08.000Z</time>
      </trkpt>
      <trkpt lat="37.590271197259426116943359375" lon="-1.77981608547270298004150390625">
        <ele>396</ele>
        <time>2019-10-26T14:22:13.000Z</time>
      </trkpt>
      <trkpt lat="37.590127028524875640869140625" lon="-1.7799563147127628326416015625">
        <ele>396.20001220703125</ele>
        <time>2019-10-26T14:22:17.000Z</time>
      </trkpt>
      <trkpt lat="37.5899562053382396697998046875" lon="-1.78013023920357227325439453125">
        <ele>396.600006103515625</ele>
        <time>2019-10-26T14:22:22.000Z</time>
      </trkpt>
      <trkpt lat="37.58982368744909763336181640625" lon="-1.78026619367301464080810546875">
        <ele>397</ele>
        <time>2019-10-26T14:22:26.000Z</time>
      </trkpt>
      <trkpt lat="37.5896735675632953643798828125" lon="-1.78043031133711338043212890625">
        <ele>397.399993896484375</ele>
        <time>2019-10-26T14:22:31.000Z</time>
      </trkpt>
      <trkpt lat="37.58952260948717594146728515625" lon="-1.78057448007166385650634765625">
        <ele>397.600006103515625</ele>
        <time>2019-10-26T14:22:36.000Z</time>
      </trkpt>
      <trkpt lat="37.5893664546310901641845703125" lon="-1.7807234264910221099853515625">
        <ele>398</ele>
        <time>2019-10-26T14:22:41.000Z</time>
      </trkpt>
      <trkpt lat="37.58920074440538883209228515625" lon="-1.78090422414243221282958984375">
        <ele>398</ele>
        <time>2019-10-26T14:22:46.000Z</time>
      </trkpt>
      <trkpt lat="37.5890365429222583770751953125" lon="-1.78107370622456073760986328125">
        <ele>397.79998779296875</ele>
        <time>2019-10-26T14:22:51.000Z</time>
      </trkpt>
      <trkpt lat="37.58888122625648975372314453125" lon="-1.781241595745086669921875">
        <ele>397.600006103515625</ele>
        <time>2019-10-26T14:22:56.000Z</time>
      </trkpt>
      <trkpt lat="37.588726244866847991943359375" lon="-1.78140328265726566314697265625">
        <ele>397.399993896484375</ele>
        <time>2019-10-26T14:23:01.000Z</time>
      </trkpt>
      <trkpt lat="37.588567323982715606689453125" lon="-1.78156505338847637176513671875">
        <ele>397.399993896484375</ele>
        <time>2019-10-26T14:23:06.000Z</time>
      </trkpt>
      <trkpt lat="37.58841385133564472198486328125" lon="-1.781721375882625579833984375">
        <ele>397.399993896484375</ele>
        <time>2019-10-26T14:23:11.000Z</time>
      </trkpt>
      <trkpt lat="37.5882597081363201141357421875" lon="-1.78188289515674114227294921875">
        <ele>398</ele>
        <time>2019-10-26T14:23:16.000Z</time>
      </trkpt>
      <trkpt lat="37.58811310864984989166259765625" lon="-1.782030165195465087890625">
        <ele>398.399993896484375</ele>
        <time>2019-10-26T14:23:21.000Z</time>
      </trkpt>
      <trkpt lat="37.5879733823239803314208984375" lon="-1.78217844106256961822509765625">
        <ele>399</ele>
        <time>2019-10-26T14:23:26.000Z</time>
      </trkpt>
      <trkpt lat="37.58782175369560718536376953125" lon="-1.7823345959186553955078125">
        <ele>399.600006103515625</ele>
        <time>2019-10-26T14:23:31.000Z</time>
      </trkpt>
      <trkpt lat="37.58765746839344501495361328125" lon="-1.78248907439410686492919921875">
        <ele>400</ele>
        <time>2019-10-26T14:23:36.000Z</time>
      </trkpt>
      <trkpt lat="37.58749477565288543701171875" lon="-1.7826323211193084716796875">
        <ele>400.20001220703125</ele>
        <time>2019-10-26T14:23:41.000Z</time>
      </trkpt>
      <trkpt lat="37.5874634273350238800048828125" lon="-1.782661490142345428466796875">
        <ele>400.20001220703125</ele>
        <time>2019-10-26T14:23:42.000Z</time>
      </trkpt>
      <trkpt lat="37.58731012232601642608642578125" lon="-1.78281714208424091339111328125">
        <ele>400.20001220703125</ele>
        <time>2019-10-26T14:23:47.000Z</time>
      </trkpt>
      <trkpt lat="37.587166540324687957763671875" lon="-1.78297639824450016021728515625">
        <ele>400.20001220703125</ele>
        <time>2019-10-26T14:23:52.000Z</time>
      </trkpt>
      <trkpt lat="37.58701776154339313507080078125" lon="-1.78313850425183773040771484375">
        <ele>400.399993896484375</ele>
        <time>2019-10-26T14:23:57.000Z</time>
      </trkpt>
      <trkpt lat="37.5868703238666057586669921875" lon="-1.7833110876381397247314453125">
        <ele>400.79998779296875</ele>
        <time>2019-10-26T14:24:02.000Z</time>
      </trkpt>
      <trkpt lat="37.58671970106661319732666015625" lon="-1.78348534740507602691650390625">
        <ele>401.600006103515625</ele>
        <time>2019-10-26T14:24:07.000Z</time>
      </trkpt>
      <trkpt lat="37.58657100610435009002685546875" lon="-1.78365851752460002899169921875">
        <ele>402.399993896484375</ele>
        <time>2019-10-26T14:24:12.000Z</time>
      </trkpt>
      <trkpt lat="37.58642314933240413665771484375" lon="-1.78383369930088520050048828125">
        <ele>403.20001220703125</ele>
        <time>2019-10-26T14:24:17.000Z</time>
      </trkpt>
      <trkpt lat="37.586273364722728729248046875" lon="-1.7840212024748325347900390625">
        <ele>403.79998779296875</ele>
        <time>2019-10-26T14:24:22.000Z</time>
      </trkpt>
      <trkpt lat="37.5861337222158908843994140625" lon="-1.784208454191684722900390625">
        <ele>403.79998779296875</ele>
        <time>2019-10-26T14:24:27.000Z</time>
      </trkpt>
      <trkpt lat="37.58600103668868541717529296875" lon="-1.78441087715327739715576171875">
        <ele>403.79998779296875</ele>
        <time>2019-10-26T14:24:33.000Z</time>
      </trkpt>
      <trkpt lat="37.58588218130171298980712890625" lon="-1.784610450267791748046875">
        <ele>403.79998779296875</ele>
        <time>2019-10-26T14:24:39.000Z</time>
      </trkpt>
      <trkpt lat="37.58578210137784481048583984375" lon="-1.78483013994991779327392578125">
        <ele>404</ele>
        <time>2019-10-26T14:24:45.000Z</time>
      </trkpt>
      <trkpt lat="37.58575913496315479278564453125" lon="-1.78507036529481410980224609375">
        <ele>404.600006103515625</ele>
        <time>2019-10-26T14:24:51.000Z</time>
      </trkpt>
      <trkpt lat="37.5857370905578136444091796875" lon="-1.78531176410615444183349609375">
        <ele>405.600006103515625</ele>
        <time>2019-10-26T14:25:00.000Z</time>
      </trkpt>
      <trkpt lat="37.58573549799621105194091796875" lon="-1.78554662503302097320556640625">
        <ele>406.399993896484375</ele>
        <time>2019-10-26T14:25:08.000Z</time>
      </trkpt>
      <trkpt lat="37.5857287086546421051025390625" lon="-1.785790622234344482421875">
        <ele>407.399993896484375</ele>
        <time>2019-10-26T14:25:15.000Z</time>
      </trkpt>
      <trkpt lat="37.58564748801290988922119140625" lon="-1.7860194481909275054931640625">
        <ele>408.399993896484375</ele>
        <time>2019-10-26T14:25:21.000Z</time>
      </trkpt>
      <trkpt lat="37.58554388768970966339111328125" lon="-1.786237545311450958251953125">
        <ele>409.600006103515625</ele>
        <time>2019-10-26T14:25:27.000Z</time>
      </trkpt>
      <trkpt lat="37.58555294014513492584228515625" lon="-1.7864703945815563201904296875">
        <ele>410.600006103515625</ele>
        <time>2019-10-26T14:25:33.000Z</time>
      </trkpt>
      <trkpt lat="37.58553952910006046295166015625" lon="-1.78670232184231281280517578125">
        <ele>412</ele>
        <time>2019-10-26T14:25:39.000Z</time>
      </trkpt>
      <trkpt lat="37.58547582663595676422119140625" lon="-1.78693299181759357452392578125">
        <ele>413.20001220703125</ele>
        <time>2019-10-26T14:25:45.000Z</time>
      </trkpt>
      <trkpt lat="37.585330903530120849609375" lon="-1.78710146807134151458740234375">
        <ele>414.20001220703125</ele>
        <time>2019-10-26T14:25:51.000Z</time>
      </trkpt>
      <trkpt lat="37.585142813622951507568359375" lon="-1.78704849444329738616943359375">
        <ele>414</ele>
        <time>2019-10-26T14:25:57.000Z</time>
      </trkpt>
      <trkpt lat="37.58505539037287235260009765625" lon="-1.78684565238654613494873046875">
        <ele>412.79998779296875</ele>
        <time>2019-10-26T14:26:01.000Z</time>
      </trkpt>
      <trkpt lat="37.58495480753481388092041015625" lon="-1.78676334209740161895751953125">
        <ele>412.20001220703125</ele>
        <time>2019-10-26T14:26:03.000Z</time>
      </trkpt>
      <trkpt lat="37.58477233350276947021484375" lon="-1.786648593842983245849609375">
        <ele>411.399993896484375</ele>
        <time>2019-10-26T14:26:06.000Z</time>
      </trkpt>
      <trkpt lat="37.5845825672149658203125" lon="-1.78651574067771434783935546875">
        <ele>410.79998779296875</ele>
        <time>2019-10-26T14:26:09.000Z</time>
      </trkpt>
      <trkpt lat="37.5844754464924335479736328125" lon="-1.78644751198589801788330078125">
        <ele>410.600006103515625</ele>
        <time>2019-10-26T14:26:11.000Z</time>
      </trkpt>
      <trkpt lat="37.58429246954619884490966796875" lon="-1.78629948757588863372802734375">
        <ele>410</ele>
        <time>2019-10-26T14:26:16.000Z</time>
      </trkpt>
      <trkpt lat="37.58413891308009624481201171875" lon="-1.78617510013282299041748046875">
        <ele>409.79998779296875</ele>
        <time>2019-10-26T14:26:21.000Z</time>
      </trkpt>
      <trkpt lat="37.58396540768444538116455078125" lon="-1.7862152494490146636962890625">
        <ele>410</ele>
        <time>2019-10-26T14:26:28.000Z</time>
      </trkpt>
      <trkpt lat="37.58392785675823688507080078125" lon="-1.786256320774555206298828125">
        <ele>410.20001220703125</ele>
        <time>2019-10-26T14:26:31.000Z</time>
      </trkpt>
      <trkpt lat="37.58388812653720378875732421875" lon="-1.78630736656486988067626953125">
        <ele>410.399993896484375</ele>
        <time>2019-10-26T14:26:36.000Z</time>
      </trkpt>
      <trkpt lat="37.58383984677493572235107421875" lon="-1.78633703850209712982177734375">
        <ele>410.600006103515625</ele>
        <time>2019-10-26T14:28:15.000Z</time>
      </trkpt>
      <trkpt lat="37.583830542862415313720703125" lon="-1.78634005598723888397216796875">
        <ele>410.600006103515625</ele>
        <time>2019-10-26T14:28:16.000Z</time>
      </trkpt>
      <trkpt lat="37.5836996175348758697509765625" lon="-1.78649830631911754608154296875">
        <ele>411.399993896484375</ele>
        <time>2019-10-26T14:28:23.000Z</time>
      </trkpt>
      <trkpt lat="37.58355687372386455535888671875" lon="-1.78664666600525379180908203125">
        <ele>411.79998779296875</ele>
        <time>2019-10-26T14:28:29.000Z</time>
      </trkpt>
      <trkpt lat="37.58340977132320404052734375" lon="-1.7868076823651790618896484375">
        <ele>412</ele>
        <time>2019-10-26T14:28:35.000Z</time>
      </trkpt>
      <trkpt lat="37.583255209028720855712890625" lon="-1.786959059536457061767578125">
        <ele>412.20001220703125</ele>
        <time>2019-10-26T14:28:42.000Z</time>
      </trkpt>
      <trkpt lat="37.58317239582538604736328125" lon="-1.78706559352576732635498046875">
        <ele>412.399993896484375</ele>
        <time>2019-10-26T14:28:49.000Z</time>
      </trkpt>
      <trkpt lat="37.58305228315293788909912109375" lon="-1.787196099758148193359375">
        <ele>412.79998779296875</ele>
        <time>2019-10-26T14:30:25.000Z</time>
      </trkpt>
      <trkpt lat="37.58290953934192657470703125" lon="-1.78737320937216281890869140625">
        <ele>413</ele>
        <time>2019-10-26T14:30:32.000Z</time>
      </trkpt>
      <trkpt lat="37.582750953733921051025390625" lon="-1.7875405959784984588623046875">
        <ele>414.20001220703125</ele>
        <time>2019-10-26T14:30:39.000Z</time>
      </trkpt>
      <trkpt lat="37.582608126103878021240234375" lon="-1.78768903948366641998291015625">
        <ele>415.20001220703125</ele>
        <time>2019-10-26T14:30:45.000Z</time>
      </trkpt>
      <trkpt lat="37.5824408233165740966796875" lon="-1.787834800779819488525390625">
        <ele>416</ele>
        <time>2019-10-26T14:30:51.000Z</time>
      </trkpt>
      <trkpt lat="37.58228014223277568817138671875" lon="-1.78800411522388458251953125">
        <ele>416.79998779296875</ele>
        <time>2019-10-26T14:30:57.000Z</time>
      </trkpt>
      <trkpt lat="37.5821243226528167724609375" lon="-1.78816194646060466766357421875">
        <ele>417.20001220703125</ele>
        <time>2019-10-26T14:31:03.000Z</time>
      </trkpt>
      <trkpt lat="37.58197185583412647247314453125" lon="-1.788322627544403076171875">
        <ele>417.79998779296875</ele>
        <time>2019-10-26T14:31:09.000Z</time>
      </trkpt>
      <trkpt lat="37.58181779645383358001708984375" lon="-1.78848381154239177703857421875">
        <ele>418.20001220703125</ele>
        <time>2019-10-26T14:31:15.000Z</time>
      </trkpt>
      <trkpt lat="37.58179181255400180816650390625" lon="-1.7885159142315387725830078125">
        <ele>418.20001220703125</ele>
        <time>2019-10-26T14:31:16.000Z</time>
      </trkpt>
      <trkpt lat="37.58166206069290637969970703125" lon="-1.78867609240114688873291015625">
        <ele>418.600006103515625</ele>
        <time>2019-10-26T14:31:21.000Z</time>
      </trkpt>
      <trkpt lat="37.58151479065418243408203125" lon="-1.78881841711699962615966796875">
        <ele>419.399993896484375</ele>
        <time>2019-10-26T14:31:26.000Z</time>
      </trkpt>
      <trkpt lat="37.5813422910869121551513671875" lon="-1.78897884674370288848876953125">
        <ele>420.20001220703125</ele>
        <time>2019-10-26T14:31:32.000Z</time>
      </trkpt>
      <trkpt lat="37.5811775028705596923828125" lon="-1.7891495861113071441650390625">
        <ele>420.600006103515625</ele>
        <time>2019-10-26T14:31:38.000Z</time>
      </trkpt>
      <trkpt lat="37.58101749233901500701904296875" lon="-1.78930758498609066009521484375">
        <ele>420.79998779296875</ele>
        <time>2019-10-26T14:31:44.000Z</time>
      </trkpt>
      <trkpt lat="37.58087298832833766937255859375" lon="-1.78946147672832012176513671875">
        <ele>421</ele>
        <time>2019-10-26T14:31:49.000Z</time>
      </trkpt>
      <trkpt lat="37.58072798140347003936767578125" lon="-1.78961344063282012939453125">
        <ele>421</ele>
        <time>2019-10-26T14:31:54.000Z</time>
      </trkpt>
      <trkpt lat="37.58058347739279270172119140625" lon="-1.78976154886186122894287109375">
        <ele>421</ele>
        <time>2019-10-26T14:31:59.000Z</time>
      </trkpt>
      <trkpt lat="37.5804511271417140960693359375" lon="-1.7899170331656932830810546875">
        <ele>421</ele>
        <time>2019-10-26T14:32:04.000Z</time>
      </trkpt>
      <trkpt lat="37.58029413409531116485595703125" lon="-1.7901027761399745941162109375">
        <ele>421.600006103515625</ele>
        <time>2019-10-26T14:32:10.000Z</time>
      </trkpt>
      <trkpt lat="37.58014795370399951934814453125" lon="-1.7902610264718532562255859375">
        <ele>422</ele>
        <time>2019-10-26T14:32:15.000Z</time>
      </trkpt>
      <trkpt lat="37.57999137975275516510009765625" lon="-1.7904001660645008087158203125">
        <ele>422.20001220703125</ele>
        <time>2019-10-26T14:32:20.000Z</time>
      </trkpt>
      <trkpt lat="37.5798483006656169891357421875" lon="-1.7905460111796855926513671875">
        <ele>422.399993896484375</ele>
        <time>2019-10-26T14:32:25.000Z</time>
      </trkpt>
      <trkpt lat="37.5796913914382457733154296875" lon="-1.79069227539002895355224609375">
        <ele>422.600006103515625</ele>
        <time>2019-10-26T14:32:30.000Z</time>
      </trkpt>
      <trkpt lat="37.57954881526529788970947265625" lon="-1.79083359427750110626220703125">
        <ele>422.79998779296875</ele>
        <time>2019-10-26T14:32:35.000Z</time>
      </trkpt>
      <trkpt lat="37.5793832726776599884033203125" lon="-1.7910083569586277008056640625">
        <ele>423.399993896484375</ele>
        <time>2019-10-26T14:32:41.000Z</time>
      </trkpt>
      <trkpt lat="37.57923424243927001953125" lon="-1.79115411825478076934814453125">
        <ele>423.600006103515625</ele>
        <time>2019-10-26T14:32:46.000Z</time>
      </trkpt>
      <trkpt lat="37.5790852122008800506591796875" lon="-1.79130080156028270721435546875">
        <ele>424.20001220703125</ele>
        <time>2019-10-26T14:32:51.000Z</time>
      </trkpt>
      <trkpt lat="37.5789437256753444671630859375" lon="-1.79144899360835552215576171875">
        <ele>425</ele>
        <time>2019-10-26T14:32:56.000Z</time>
      </trkpt>
      <trkpt lat="37.57878472097218036651611328125" lon="-1.79162953980267047882080078125">
        <ele>425.600006103515625</ele>
        <time>2019-10-26T14:33:02.000Z</time>
      </trkpt>
      <trkpt lat="37.5786372832953929901123046875" lon="-1.79176264442503452301025390625">
        <ele>426</ele>
        <time>2019-10-26T14:33:07.000Z</time>
      </trkpt>
      <trkpt lat="37.57847442291676998138427734375" lon="-1.791938580572605133056640625">
        <ele>426.399993896484375</ele>
        <time>2019-10-26T14:33:13.000Z</time>
      </trkpt>
      <trkpt lat="37.57833695970475673675537109375" lon="-1.7921006865799427032470703125">
        <ele>426.600006103515625</ele>
        <time>2019-10-26T14:33:18.000Z</time>
      </trkpt>
      <trkpt lat="37.5781849958002567291259765625" lon="-1.79225181229412555694580078125">
        <ele>427.20001220703125</ele>
        <time>2019-10-26T14:33:23.000Z</time>
      </trkpt>
      <trkpt lat="37.5780368037521839141845703125" lon="-1.79240553639829158782958984375">
        <ele>427.79998779296875</ele>
        <time>2019-10-26T14:33:28.000Z</time>
      </trkpt>
      <trkpt lat="37.577893473207950592041015625" lon="-1.7925476096570491790771484375">
        <ele>428.600006103515625</ele>
        <time>2019-10-26T14:33:33.000Z</time>
      </trkpt>
      <trkpt lat="37.57775022648274898529052734375" lon="-1.79269152693450450897216796875">
        <ele>429.600006103515625</ele>
        <time>2019-10-26T14:33:38.000Z</time>
      </trkpt>
      <trkpt lat="37.57761963643133640289306640625" lon="-1.7928607575595378875732421875">
        <ele>430.399993896484375</ele>
        <time>2019-10-26T14:33:43.000Z</time>
      </trkpt>
      <trkpt lat="37.577454261481761932373046875" lon="-1.79303602315485477447509765625">
        <ele>431.20001220703125</ele>
        <time>2019-10-26T14:33:49.000Z</time>
      </trkpt>
      <trkpt lat="37.57728586904704570770263671875" lon="-1.793187819421291351318359375">
        <ele>431.600006103515625</ele>
        <time>2019-10-26T14:33:55.000Z</time>
      </trkpt>
      <trkpt lat="37.5771416164934635162353515625" lon="-1.79333710111677646636962890625">
        <ele>432</ele>
        <time>2019-10-26T14:34:00.000Z</time>
      </trkpt>
      <trkpt lat="37.57699132896959781646728515625" lon="-1.79348311387002468109130859375">
        <ele>432.399993896484375</ele>
        <time>2019-10-26T14:34:05.000Z</time>
      </trkpt>
      <trkpt lat="37.57683794014155864715576171875" lon="-1.79360867477953433990478515625">
        <ele>432.600006103515625</ele>
        <time>2019-10-26T14:34:10.000Z</time>
      </trkpt>
      <trkpt lat="37.5766729004681110382080078125" lon="-1.7937673442065715789794921875">
        <ele>433</ele>
        <time>2019-10-26T14:34:16.000Z</time>
      </trkpt>
      <trkpt lat="37.57652110420167446136474609375" lon="-1.79395048879086971282958984375">
        <ele>433.600006103515625</ele>
        <time>2019-10-26T14:34:22.000Z</time>
      </trkpt>
      <trkpt lat="37.576357237994670867919921875" lon="-1.79411913268268108367919921875">
        <ele>434</ele>
        <time>2019-10-26T14:34:28.000Z</time>
      </trkpt>
      <trkpt lat="37.57624500431120395660400390625" lon="-1.79426380433142185211181640625">
        <ele>434.20001220703125</ele>
        <time>2019-10-26T14:34:33.000Z</time>
      </trkpt>
      <trkpt lat="37.57614894770085811614990234375" lon="-1.79443479515612125396728515625">
        <ele>434.399993896484375</ele>
        <time>2019-10-26T14:34:38.000Z</time>
      </trkpt>
      <trkpt lat="37.575990445911884307861328125" lon="-1.7945669777691364288330078125">
        <ele>434.600006103515625</ele>
        <time>2019-10-26T14:34:43.000Z</time>
      </trkpt>
      <trkpt lat="37.57583362050354480743408203125" lon="-1.7946937121450901031494140625">
        <ele>434.79998779296875</ele>
        <time>2019-10-26T14:34:48.000Z</time>
      </trkpt>
      <trkpt lat="37.575693391263484954833984375" lon="-1.794849447906017303466796875">
        <ele>435</ele>
        <time>2019-10-26T14:34:53.000Z</time>
      </trkpt>
      <trkpt lat="37.5755259208381175994873046875" lon="-1.7950185947120189666748046875">
        <ele>435.20001220703125</ele>
        <time>2019-10-26T14:34:59.000Z</time>
      </trkpt>
      <trkpt lat="37.5753623060882091522216796875" lon="-1.79518497548997402191162109375">
        <ele>435.399993896484375</ele>
        <time>2019-10-26T14:35:05.000Z</time>
      </trkpt>
      <trkpt lat="37.57522207684814929962158203125" lon="-1.79533316753804683685302734375">
        <ele>435.600006103515625</ele>
        <time>2019-10-26T14:35:10.000Z</time>
      </trkpt>
      <trkpt lat="37.57507841102778911590576171875" lon="-1.79547348059713840484619140625">
        <ele>435.79998779296875</ele>
        <time>2019-10-26T14:35:15.000Z</time>
      </trkpt>
      <trkpt lat="37.57493667304515838623046875" lon="-1.7956237681210041046142578125">
        <ele>436.20001220703125</ele>
        <time>2019-10-26T14:35:20.000Z</time>
      </trkpt>
      <trkpt lat="37.5748815201222896575927734375" lon="-1.79568286053836345672607421875">
        <ele>436.600006103515625</ele>
        <time>2019-10-26T14:35:22.000Z</time>
      </trkpt>
      <trkpt lat="37.5747407041490077972412109375" lon="-1.7958282865583896636962890625">
        <ele>437.600006103515625</ele>
        <time>2019-10-26T14:35:27.000Z</time>
      </trkpt>
      <trkpt lat="37.57458806969225406646728515625" lon="-1.796018220484256744384765625">
        <ele>438.79998779296875</ele>
        <time>2019-10-26T14:35:33.000Z</time>
      </trkpt>
      <trkpt lat="37.574448175728321075439453125" lon="-1.7961779795587062835693359375">
        <ele>439.79998779296875</ele>
        <time>2019-10-26T14:35:38.000Z</time>
      </trkpt>
      <trkpt lat="37.57433124817907810211181640625" lon="-1.7963482998311519622802734375">
        <ele>440.79998779296875</ele>
        <time>2019-10-26T14:35:43.000Z</time>
      </trkpt>
      <trkpt lat="37.57430727593600749969482421875" lon="-1.7965851724147796630859375">
        <ele>441.399993896484375</ele>
        <time>2019-10-26T14:35:48.000Z</time>
      </trkpt>
      <trkpt lat="37.5742233730852603912353515625" lon="-1.79680637083947658538818359375">
        <ele>441.600006103515625</ele>
        <time>2019-10-26T14:35:53.000Z</time>
      </trkpt>
      <trkpt lat="37.57401122711598873138427734375" lon="-1.7968639545142650604248046875">
        <ele>442</ele>
        <time>2019-10-26T14:35:58.000Z</time>
      </trkpt>
      <trkpt lat="37.573801092803478240966796875" lon="-1.796848364174365997314453125">
        <ele>442.20001220703125</ele>
        <time>2019-10-26T14:36:03.000Z</time>
      </trkpt>
      <trkpt lat="37.57363772951066493988037109375" lon="-1.7969786189496517181396484375">
        <ele>442.399993896484375</ele>
        <time>2019-10-26T14:36:09.000Z</time>
      </trkpt>
      <trkpt lat="37.57350261323153972625732421875" lon="-1.79713443852961063385009765625">
        <ele>442.600006103515625</ele>
        <time>2019-10-26T14:36:14.000Z</time>
      </trkpt>
      <trkpt lat="37.57334050722420215606689453125" lon="-1.79729067720472812652587890625">
        <ele>442.79998779296875</ele>
        <time>2019-10-26T14:36:20.000Z</time>
      </trkpt>
      <trkpt lat="37.57319851778447628021240234375" lon="-1.7974573932588100433349609375">
        <ele>443.600006103515625</ele>
        <time>2019-10-26T14:36:26.000Z</time>
      </trkpt>
      <trkpt lat="37.57304613478481769561767578125" lon="-1.79761656560003757476806640625">
        <ele>444.600006103515625</ele>
        <time>2019-10-26T14:36:32.000Z</time>
      </trkpt>
      <trkpt lat="37.57289542816579341888427734375" lon="-1.79777733050286769866943359375">
        <ele>445.600006103515625</ele>
        <time>2019-10-26T14:36:38.000Z</time>
      </trkpt>
      <trkpt lat="37.57274396717548370361328125" lon="-1.79793960414826869964599609375">
        <ele>446.399993896484375</ele>
        <time>2019-10-26T14:36:44.000Z</time>
      </trkpt>
      <trkpt lat="37.5725878961384296417236328125" lon="-1.798082180321216583251953125">
        <ele>447.399993896484375</ele>
        <time>2019-10-26T14:36:50.000Z</time>
      </trkpt>
      <trkpt lat="37.57243014872074127197265625" lon="-1.79824453778564929962158203125">
        <ele>448</ele>
        <time>2019-10-26T14:36:56.000Z</time>
      </trkpt>
      <trkpt lat="37.57229327224195003509521484375" lon="-1.7984079010784626007080078125">
        <ele>448.20001220703125</ele>
        <time>2019-10-26T14:37:02.000Z</time>
      </trkpt>
      <trkpt lat="37.572143487632274627685546875" lon="-1.79855324327945709228515625">
        <ele>448.399993896484375</ele>
        <time>2019-10-26T14:37:08.000Z</time>
      </trkpt>
      <trkpt lat="37.5719941221177577972412109375" lon="-1.79870068095624446868896484375">
        <ele>448.600006103515625</ele>
        <time>2019-10-26T14:37:14.000Z</time>
      </trkpt>
      <trkpt lat="37.57182941772043704986572265625" lon="-1.79884552024304866790771484375">
        <ele>448.79998779296875</ele>
        <time>2019-10-26T14:37:20.000Z</time>
      </trkpt>
      <trkpt lat="37.5716690719127655029296875" lon="-1.79900997318327426910400390625">
        <ele>449</ele>
        <time>2019-10-26T14:37:26.000Z</time>
      </trkpt>
      <trkpt lat="37.57151576690375804901123046875" lon="-1.799162440001964569091796875">
        <ele>449.20001220703125</ele>
        <time>2019-10-26T14:37:32.000Z</time>
      </trkpt>
      <trkpt lat="37.57134829647839069366455078125" lon="-1.7992373742163181304931640625">
        <ele>449.399993896484375</ele>
        <time>2019-10-26T14:37:40.000Z</time>
      </trkpt>
      <trkpt lat="37.5711817480623722076416015625" lon="-1.79928691126406192779541015625">
        <ele>449.20001220703125</ele>
        <time>2019-10-26T14:37:48.000Z</time>
      </trkpt>
      <trkpt lat="37.57110538892447948455810546875" lon="-1.7993292398750782012939453125">
        <ele>449.399993896484375</ele>
        <time>2019-10-26T14:38:29.000Z</time>
      </trkpt>
      <trkpt lat="37.5711143575608730316162109375" lon="-1.7993014119565486907958984375">
        <ele>449.20001220703125</ele>
        <time>2019-10-26T14:38:32.000Z</time>
      </trkpt>
      <trkpt lat="37.57112416438758373260498046875" lon="-1.79927702061831951141357421875">
        <ele>449</ele>
        <time>2019-10-26T14:38:36.000Z</time>
      </trkpt>
      <trkpt lat="37.57097094319760799407958984375" lon="-1.79919873364269733428955078125">
        <ele>448.20001220703125</ele>
        <time>2019-10-26T14:40:08.000Z</time>
      </trkpt>
      <trkpt lat="37.57082090713083744049072265625" lon="-1.79929043166339397430419921875">
        <ele>448.399993896484375</ele>
        <time>2019-10-26T14:40:25.000Z</time>
      </trkpt>
      <trkpt lat="37.570800371468067169189453125" lon="-1.79944750852882862091064453125">
        <ele>449.20001220703125</ele>
        <time>2019-10-26T14:41:14.000Z</time>
      </trkpt>
      <trkpt lat="37.5707291252911090850830078125" lon="-1.7994968779385089874267578125">
        <ele>449.399993896484375</ele>
        <time>2019-10-26T14:42:18.000Z</time>
      </trkpt>
      <trkpt lat="37.57074161432683467864990234375" lon="-1.79950006306171417236328125">
        <ele>449.399993896484375</ele>
        <time>2019-10-26T14:43:06.000Z</time>
      </trkpt>
      <trkpt lat="37.5705854594707489013671875" lon="-1.7994781024754047393798828125">
        <ele>449</ele>
        <time>2019-10-26T14:43:33.000Z</time>
      </trkpt>
      <trkpt lat="37.57069073617458343505859375" lon="-1.799333430826663970947265625">
        <ele>448.399993896484375</ele>
        <time>2019-10-26T14:43:48.000Z</time>
      </trkpt>
      <trkpt lat="37.570851333439350128173828125" lon="-1.7992673814296722412109375">
        <ele>448.399993896484375</ele>
        <time>2019-10-26T14:44:02.000Z</time>
      </trkpt>
      <trkpt lat="37.5709705241024494171142578125" lon="-1.7991810478270053863525390625">
        <ele>448</ele>
        <time>2019-10-26T14:44:14.000Z</time>
      </trkpt>
      <trkpt lat="37.571082673966884613037109375" lon="-1.7989788763225078582763671875">
        <ele>447.399993896484375</ele>
        <time>2019-10-26T14:45:08.000Z</time>
      </trkpt>
      <trkpt lat="37.57112433202564716339111328125" lon="-1.79913394153118133544921875">
        <ele>448.20001220703125</ele>
        <time>2019-10-26T14:45:40.000Z</time>
      </trkpt>
      <trkpt lat="37.57118099369108676910400390625" lon="-1.79932278580963611602783203125">
        <ele>449.399993896484375</ele>
        <time>2019-10-26T14:46:53.000Z</time>
      </trkpt>
      <trkpt lat="37.57121913135051727294921875" lon="-1.79934994317591190338134765625">
        <ele>449.79998779296875</ele>
        <time>2019-10-26T14:48:15.000Z</time>
      </trkpt>
      <trkpt lat="37.5712260045111179351806640625" lon="-1.7993577383458614349365234375">
        <ele>449.79998779296875</ele>
        <time>2019-10-26T14:48:54.000Z</time>
      </trkpt>
      <trkpt lat="37.5711207278072834014892578125" lon="-1.799370981752872467041015625">
        <ele>449.600006103515625</ele>
        <time>2019-10-26T14:48:59.000Z</time>
      </trkpt>
      <trkpt lat="37.57105761207640171051025390625" lon="-1.79944734089076519012451171875">
        <ele>449.79998779296875</ele>
        <time>2019-10-26T14:51:08.000Z</time>
      </trkpt>
      <trkpt lat="37.57105694152414798736572265625" lon="-1.79944952018558979034423828125">
        <ele>450</ele>
        <time>2019-10-26T14:51:09.000Z</time>
      </trkpt>
      <trkpt lat="37.570975720882415771484375" lon="-1.79951858706772327423095703125">
        <ele>450.20001220703125</ele>
        <time>2019-10-26T14:51:53.000Z</time>
      </trkpt>
      <trkpt lat="37.57086482830345630645751953125" lon="-1.79962822236120700836181640625">
        <ele>450.600006103515625</ele>
        <time>2019-10-26T14:52:11.000Z</time>
      </trkpt>
      <trkpt lat="37.570767514407634735107421875" lon="-1.7997842095792293548583984375">
        <ele>451.20001220703125</ele>
        <time>2019-10-26T14:52:19.000Z</time>
      </trkpt>
      <trkpt lat="37.57060515694320201873779296875" lon="-1.79990080185234546661376953125">
        <ele>451.399993896484375</ele>
        <time>2019-10-26T14:52:27.000Z</time>
      </trkpt>
      <trkpt lat="37.5704625807702541351318359375" lon="-1.8000557832419872283935546875">
        <ele>451.79998779296875</ele>
        <time>2019-10-26T14:52:35.000Z</time>
      </trkpt>
      <trkpt lat="37.57032436318695545196533203125" lon="-1.80020439438521862030029296875">
        <ele>452</ele>
        <time>2019-10-26T14:52:45.000Z</time>
      </trkpt>
      <trkpt lat="37.57024171762168407440185546875" lon="-1.80029760114848613739013671875">
        <ele>452</ele>
        <time>2019-10-26T14:52:50.000Z</time>
      </trkpt>
      <trkpt lat="37.5701554678380489349365234375" lon="-1.80049784481525421142578125">
        <ele>452.600006103515625</ele>
        <time>2019-10-26T14:52:59.000Z</time>
      </trkpt>
      <trkpt lat="37.57001624442636966705322265625" lon="-1.80064561776816844940185546875">
        <ele>452.79998779296875</ele>
        <time>2019-10-26T14:53:04.000Z</time>
      </trkpt>
      <trkpt lat="37.56986956112086772918701171875" lon="-1.80080252699553966522216796875">
        <ele>452.600006103515625</ele>
        <time>2019-10-26T14:53:09.000Z</time>
      </trkpt>
      <trkpt lat="37.56973343901336193084716796875" lon="-1.800954155623912811279296875">
        <ele>452.600006103515625</ele>
        <time>2019-10-26T14:53:14.000Z</time>
      </trkpt>
      <trkpt lat="37.5695930421352386474609375" lon="-1.8010974861681461334228515625">
        <ele>452.399993896484375</ele>
        <time>2019-10-26T14:53:19.000Z</time>
      </trkpt>
      <trkpt lat="37.56945096887648105621337890625" lon="-1.80124484002590179443359375">
        <ele>452.20001220703125</ele>
        <time>2019-10-26T14:53:24.000Z</time>
      </trkpt>
      <trkpt lat="37.5693115778267383575439453125" lon="-1.8013952113687992095947265625">
        <ele>452</ele>
        <time>2019-10-26T14:53:29.000Z</time>
      </trkpt>
      <trkpt lat="37.569150142371654510498046875" lon="-1.8015621788799762725830078125">
        <ele>452</ele>
        <time>2019-10-26T14:53:35.000Z</time>
      </trkpt>
      <trkpt lat="37.5689866952598094940185546875" lon="-1.80173928849399089813232421875">
        <ele>452.399993896484375</ele>
        <time>2019-10-26T14:53:41.000Z</time>
      </trkpt>
      <trkpt lat="37.568843364715576171875" lon="-1.8018825352191925048828125">
        <ele>452.79998779296875</ele>
        <time>2019-10-26T14:53:46.000Z</time>
      </trkpt>
      <trkpt lat="37.5687000341713428497314453125" lon="-1.80202226154506206512451171875">
        <ele>453.20001220703125</ele>
        <time>2019-10-26T14:53:51.000Z</time>
      </trkpt>
      <trkpt lat="37.56853566505014896392822265625" lon="-1.8022002093493938446044921875">
        <ele>453.600006103515625</ele>
        <time>2019-10-26T14:53:57.000Z</time>
      </trkpt>
      <trkpt lat="37.56838948465883731842041015625" lon="-1.80234379135072231292724609375">
        <ele>454</ele>
        <time>2019-10-26T14:54:02.000Z</time>
      </trkpt>
      <trkpt lat="37.568229474127292633056640625" lon="-1.8025160394608974456787109375">
        <ele>454.20001220703125</ele>
        <time>2019-10-26T14:54:08.000Z</time>
      </trkpt>
      <trkpt lat="37.56807290017604827880859375" lon="-1.80268426425755023956298828125">
        <ele>454.399993896484375</ele>
        <time>2019-10-26T14:54:14.000Z</time>
      </trkpt>
      <trkpt lat="37.5679191760718822479248046875" lon="-1.80283673107624053955078125">
        <ele>454.600006103515625</ele>
        <time>2019-10-26T14:54:20.000Z</time>
      </trkpt>
      <trkpt lat="37.5677797012031078338623046875" lon="-1.8029958195984363555908203125">
        <ele>454.79998779296875</ele>
        <time>2019-10-26T14:54:26.000Z</time>
      </trkpt>
      <trkpt lat="37.56763695739209651947021484375" lon="-1.8031684868037700653076171875">
        <ele>455</ele>
        <time>2019-10-26T14:54:32.000Z</time>
      </trkpt>
      <trkpt lat="37.5674933753907680511474609375" lon="-1.80331558920443058013916015625">
        <ele>455.399993896484375</ele>
        <time>2019-10-26T14:54:38.000Z</time>
      </trkpt>
      <trkpt lat="37.5673565827310085296630859375" lon="-1.803482472896575927734375">
        <ele>456.20001220703125</ele>
        <time>2019-10-26T14:54:44.000Z</time>
      </trkpt>
      <trkpt lat="37.56717628799378871917724609375" lon="-1.8036227859556674957275390625">
        <ele>456.79998779296875</ele>
        <time>2019-10-26T14:54:51.000Z</time>
      </trkpt>
      <trkpt lat="37.5670115835964679718017578125" lon="-1.80378380231559276580810546875">
        <ele>457.600006103515625</ele>
        <time>2019-10-26T14:54:57.000Z</time>
      </trkpt>
      <trkpt lat="37.56686054170131683349609375" lon="-1.8039443157613277435302734375">
        <ele>458.399993896484375</ele>
        <time>2019-10-26T14:55:03.000Z</time>
      </trkpt>
      <trkpt lat="37.5666962563991546630859375" lon="-1.8041059188544750213623046875">
        <ele>459.20001220703125</ele>
        <time>2019-10-26T14:55:10.000Z</time>
      </trkpt>
      <trkpt lat="37.5665318034589290618896484375" lon="-1.80424413643777370452880859375">
        <ele>459.600006103515625</ele>
        <time>2019-10-26T14:55:17.000Z</time>
      </trkpt>
      <trkpt lat="37.5665120221674442291259765625" lon="-1.80428168736398220062255859375">
        <ele>459.79998779296875</ele>
        <time>2019-10-26T14:55:19.000Z</time>
      </trkpt>
      <trkpt lat="37.56649081595242023468017578125" lon="-1.8042477406561374664306640625">
        <ele>459.600006103515625</ele>
        <time>2019-10-26T14:55:32.000Z</time>
      </trkpt>
      <trkpt lat="37.56633273325860500335693359375" lon="-1.80434421636164188385009765625">
        <ele>460.20001220703125</ele>
        <time>2019-10-26T14:55:43.000Z</time>
      </trkpt>
      <trkpt lat="37.56618621759116649627685546875" lon="-1.80450062267482280731201171875">
        <ele>460.600006103515625</ele>
        <time>2019-10-26T14:55:49.000Z</time>
      </trkpt>
      <trkpt lat="37.56603199057281017303466796875" lon="-1.80463003925979137420654296875">
        <ele>461.20001220703125</ele>
        <time>2019-10-26T14:55:55.000Z</time>
      </trkpt>
      <trkpt lat="37.5658813677728176116943359375" lon="-1.8047855235636234283447265625">
        <ele>461.79998779296875</ele>
        <time>2019-10-26T14:56:01.000Z</time>
      </trkpt>
      <trkpt lat="37.56570308469235897064208984375" lon="-1.804933883249759674072265625">
        <ele>462</ele>
        <time>2019-10-26T14:56:08.000Z</time>
      </trkpt>
      <trkpt lat="37.5655544735491275787353515625" lon="-1.80512641556560993194580078125">
        <ele>462.20001220703125</ele>
        <time>2019-10-26T14:56:14.000Z</time>
      </trkpt>
      <trkpt lat="37.56544223986566066741943359375" lon="-1.8053129129111766815185546875">
        <ele>462.600006103515625</ele>
        <time>2019-10-26T14:56:19.000Z</time>
      </trkpt>
      <trkpt lat="37.5652988255023956298828125" lon="-1.8055040203034877777099609375">
        <ele>462.79998779296875</ele>
        <time>2019-10-26T14:56:25.000Z</time>
      </trkpt>
      <trkpt lat="37.5652237236499786376953125" lon="-1.80573343299329280853271484375">
        <ele>463</ele>
        <time>2019-10-26T14:56:30.000Z</time>
      </trkpt>
      <trkpt lat="37.56509430706501007080078125" lon="-1.80593828670680522918701171875">
        <ele>464</ele>
        <time>2019-10-26T14:56:36.000Z</time>
      </trkpt>
      <trkpt lat="37.564964555203914642333984375" lon="-1.8061373569071292877197265625">
        <ele>465</ele>
        <time>2019-10-26T14:56:42.000Z</time>
      </trkpt>
      <trkpt lat="37.56483547389507293701171875" lon="-1.80630088783800601959228515625">
        <ele>465.399993896484375</ele>
        <time>2019-10-26T14:56:47.000Z</time>
      </trkpt>
      <trkpt lat="37.564703039824962615966796875" lon="-1.806498952209949493408203125">
        <ele>466</ele>
        <time>2019-10-26T14:56:53.000Z</time>
      </trkpt>
      <trkpt lat="37.564580999314785003662109375" lon="-1.80667220614850521087646484375">
        <ele>466.399993896484375</ele>
        <time>2019-10-26T14:56:59.000Z</time>
      </trkpt>
      <trkpt lat="37.5644715316593647003173828125" lon="-1.8068421073257923126220703125">
        <ele>466.79998779296875</ele>
        <time>2019-10-26T14:57:08.000Z</time>
      </trkpt>
      <trkpt lat="37.5643256865441799163818359375" lon="-1.8068193085491657257080078125">
        <ele>466.399993896484375</ele>
        <time>2019-10-26T14:57:38.000Z</time>
      </trkpt>
      <trkpt lat="37.564380504190921783447265625" lon="-1.806901283562183380126953125">
        <ele>466.79998779296875</ele>
        <time>2019-10-26T14:58:35.000Z</time>
      </trkpt>
      <trkpt lat="37.56424245424568653106689453125" lon="-1.8070952408015727996826171875">
        <ele>467.20001220703125</ele>
        <time>2019-10-26T14:58:43.000Z</time>
      </trkpt>
      <trkpt lat="37.564107589423656463623046875" lon="-1.80727100931107997894287109375">
        <ele>467.600006103515625</ele>
        <time>2019-10-26T14:58:49.000Z</time>
      </trkpt>
      <trkpt lat="37.56396400742232799530029296875" lon="-1.8074419163167476654052734375">
        <ele>468.20001220703125</ele>
        <time>2019-10-26T14:58:55.000Z</time>
      </trkpt>
      <trkpt lat="37.56384707987308502197265625" lon="-1.8075750209391117095947265625">
        <ele>468.399993896484375</ele>
        <time>2019-10-26T14:59:00.000Z</time>
      </trkpt>
      <trkpt lat="37.56369997747242450714111328125" lon="-1.80776797235012054443359375">
        <ele>468.600006103515625</ele>
        <time>2019-10-26T14:59:06.000Z</time>
      </trkpt>
      <trkpt lat="37.56355413235723972320556640625" lon="-1.8079434894025325775146484375">
        <ele>468.79998779296875</ele>
        <time>2019-10-26T14:59:12.000Z</time>
      </trkpt>
      <trkpt lat="37.563420273363590240478515625" lon="-1.80810065008699893951416015625">
        <ele>469</ele>
        <time>2019-10-26T14:59:18.000Z</time>
      </trkpt>
      <trkpt lat="37.56329630501568317413330078125" lon="-1.80827599950134754180908203125">
        <ele>469.20001220703125</ele>
        <time>2019-10-26T14:59:23.000Z</time>
      </trkpt>
      <trkpt lat="37.5631639547646045684814453125" lon="-1.8084708787500858306884765625">
        <ele>470</ele>
        <time>2019-10-26T14:59:28.000Z</time>
      </trkpt>
      <trkpt lat="37.563041411340236663818359375" lon="-1.8086564540863037109375">
        <ele>470.79998779296875</ele>
        <time>2019-10-26T14:59:33.000Z</time>
      </trkpt>
      <trkpt lat="37.5629245676100254058837890625" lon="-1.80887279100716114044189453125">
        <ele>471.600006103515625</ele>
        <time>2019-10-26T14:59:39.000Z</time>
      </trkpt>
      <trkpt lat="37.56280495785176753997802734375" lon="-1.80907948873937129974365234375">
        <ele>472.20001220703125</ele>
        <time>2019-10-26T14:59:45.000Z</time>
      </trkpt>
      <trkpt lat="37.5627234019339084625244140625" lon="-1.80929574184119701385498046875">
        <ele>472.20001220703125</ele>
        <time>2019-10-26T14:59:50.000Z</time>
      </trkpt>
      <trkpt lat="37.56259390152990818023681640625" lon="-1.80951182730495929718017578125">
        <ele>472.20001220703125</ele>
        <time>2019-10-26T14:59:55.000Z</time>
      </trkpt>
      <trkpt lat="37.56243011914193630218505859375" lon="-1.80966295301914215087890625">
        <ele>472</ele>
        <time>2019-10-26T15:00:01.000Z</time>
      </trkpt>
      <trkpt lat="37.5622540153563022613525390625" lon="-1.8098245561122894287109375">
        <ele>471.20001220703125</ele>
        <time>2019-10-26T15:00:07.000Z</time>
      </trkpt>
      <trkpt lat="37.5621188990771770477294921875" lon="-1.8099668808281421661376953125">
        <ele>470.399993896484375</ele>
        <time>2019-10-26T15:00:12.000Z</time>
      </trkpt>
      <trkpt lat="37.5621386803686618804931640625" lon="-1.810198388993740081787109375">
        <ele>470</ele>
        <time>2019-10-26T15:00:17.000Z</time>
      </trkpt>
      <trkpt lat="37.5621874630451202392578125" lon="-1.81028279475867748260498046875">
        <ele>469.79998779296875</ele>
        <time>2019-10-26T15:00:20.000Z</time>
      </trkpt>
      <trkpt lat="37.56224739365279674530029296875" lon="-1.81050860323011875152587890625">
        <ele>469.600006103515625</ele>
        <time>2019-10-26T15:00:26.000Z</time>
      </trkpt>
      <trkpt lat="37.562301792204380035400390625" lon="-1.81074120104312896728515625">
        <ele>469.20001220703125</ele>
        <time>2019-10-26T15:00:32.000Z</time>
      </trkpt>
      <trkpt lat="37.5623773969709873199462890625" lon="-1.8109626509249210357666015625">
        <ele>469.399993896484375</ele>
        <time>2019-10-26T15:00:38.000Z</time>
      </trkpt>
      <trkpt lat="37.56245191209018230438232421875" lon="-1.8111758865416049957275390625">
        <ele>470.20001220703125</ele>
        <time>2019-10-26T15:00:43.000Z</time>
      </trkpt>
      <trkpt lat="37.56252609193325042724609375" lon="-1.81140261702239513397216796875">
        <ele>470.79998779296875</ele>
        <time>2019-10-26T15:00:48.000Z</time>
      </trkpt>
      <trkpt lat="37.5626020319759845733642578125" lon="-1.81161736138164997100830078125">
        <ele>471.399993896484375</ele>
        <time>2019-10-26T15:00:53.000Z</time>
      </trkpt>
      <trkpt lat="37.5626955740153789520263671875" lon="-1.81182456202805042266845703125">
        <ele>471.399993896484375</ele>
        <time>2019-10-26T15:00:58.000Z</time>
      </trkpt>
      <trkpt lat="37.562773525714874267578125" lon="-1.8120481073856353759765625">
        <ele>471.399993896484375</ele>
        <time>2019-10-26T15:01:03.000Z</time>
      </trkpt>
      <trkpt lat="37.56286312825977802276611328125" lon="-1.812254302203655242919921875">
        <ele>472.399993896484375</ele>
        <time>2019-10-26T15:01:08.000Z</time>
      </trkpt>
      <trkpt lat="37.562963962554931640625" lon="-1.812464185059070587158203125">
        <ele>474</ele>
        <time>2019-10-26T15:01:13.000Z</time>
      </trkpt>
      <trkpt lat="37.563080973923206329345703125" lon="-1.812692172825336456298828125">
        <ele>475.399993896484375</ele>
        <time>2019-10-26T15:01:19.000Z</time>
      </trkpt>
      <trkpt lat="37.5631854124367237091064453125" lon="-1.81292041204869747161865234375">
        <ele>475.600006103515625</ele>
        <time>2019-10-26T15:01:25.000Z</time>
      </trkpt>
      <trkpt lat="37.5632779486477375030517578125" lon="-1.81312300264835357666015625">
        <ele>475.79998779296875</ele>
        <time>2019-10-26T15:01:30.000Z</time>
      </trkpt>
      <trkpt lat="37.5633667968213558197021484375" lon="-1.81336976587772369384765625">
        <ele>476.399993896484375</ele>
        <time>2019-10-26T15:01:36.000Z</time>
      </trkpt>
      <trkpt lat="37.56342865526676177978515625" lon="-1.8135851807892322540283203125">
        <ele>477.20001220703125</ele>
        <time>2019-10-26T15:01:41.000Z</time>
      </trkpt>
      <trkpt lat="37.563492357730865478515625" lon="-1.81381308473646640777587890625">
        <ele>478</ele>
        <time>2019-10-26T15:01:46.000Z</time>
      </trkpt>
      <trkpt lat="37.56355597637593746185302734375" lon="-1.81404945440590381622314453125">
        <ele>479.600006103515625</ele>
        <time>2019-10-26T15:01:51.000Z</time>
      </trkpt>
      <trkpt lat="37.5636078603565692901611328125" lon="-1.81427911855280399322509765625">
        <ele>480.20001220703125</ele>
        <time>2019-10-26T15:01:56.000Z</time>
      </trkpt>
      <trkpt lat="37.5636946968734264373779296875" lon="-1.81450593285262584686279296875">
        <ele>481.399993896484375</ele>
        <time>2019-10-26T15:02:01.000Z</time>
      </trkpt>
      <trkpt lat="37.56375261582434177398681640625" lon="-1.8147418834269046783447265625">
        <ele>482.399993896484375</ele>
        <time>2019-10-26T15:02:06.000Z</time>
      </trkpt>
      <trkpt lat="37.563809193670749664306640625" lon="-1.81498286314308643341064453125">
        <ele>483.20001220703125</ele>
        <time>2019-10-26T15:02:11.000Z</time>
      </trkpt>
      <trkpt lat="37.56387130357325077056884765625" lon="-1.81521923281252384185791015625">
        <ele>483.79998779296875</ele>
        <time>2019-10-26T15:02:16.000Z</time>
      </trkpt>
      <trkpt lat="37.5639397837221622467041015625" lon="-1.8154473043978214263916015625">
        <ele>482.399993896484375</ele>
        <time>2019-10-26T15:02:21.000Z</time>
      </trkpt>
      <trkpt lat="37.56403148174285888671875" lon="-1.81565425358712673187255859375">
        <ele>481.20001220703125</ele>
        <time>2019-10-26T15:02:26.000Z</time>
      </trkpt>
      <trkpt lat="37.5641852058470249176025390625" lon="-1.81581853888928890228271484375">
        <ele>481.399993896484375</ele>
        <time>2019-10-26T15:02:32.000Z</time>
      </trkpt>
      <trkpt lat="37.5643307156860828399658203125" lon="-1.8159710057079792022705078125">
        <ele>482.20001220703125</ele>
        <time>2019-10-26T15:02:37.000Z</time>
      </trkpt>
      <trkpt lat="37.56445133127272129058837890625" lon="-1.8161607719957828521728515625">
        <ele>482.399993896484375</ele>
        <time>2019-10-26T15:02:42.000Z</time>
      </trkpt>
      <trkpt lat="37.56457370705902576446533203125" lon="-1.8163629435002803802490234375">
        <ele>481.79998779296875</ele>
        <time>2019-10-26T15:02:47.000Z</time>
      </trkpt>
      <trkpt lat="37.5646810792386531829833984375" lon="-1.81656268425285816192626953125">
        <ele>480.79998779296875</ele>
        <time>2019-10-26T15:02:52.000Z</time>
      </trkpt>
      <trkpt lat="37.56476565264165401458740234375" lon="-1.81676812469959259033203125">
        <ele>480.79998779296875</ele>
        <time>2019-10-26T15:02:57.000Z</time>
      </trkpt>
      <trkpt lat="37.56483656354248523712158203125" lon="-1.81698538362979888916015625">
        <ele>480.79998779296875</ele>
        <time>2019-10-26T15:03:02.000Z</time>
      </trkpt>
      <trkpt lat="37.56487847305834293365478515625" lon="-1.81711681187152862548828125">
        <ele>480.600006103515625</ele>
        <time>2019-10-26T15:03:05.000Z</time>
      </trkpt>
      <trkpt lat="37.56494049914181232452392578125" lon="-1.8173312209546566009521484375">
        <ele>480.600006103515625</ele>
        <time>2019-10-26T15:03:10.000Z</time>
      </trkpt>
      <trkpt lat="37.56501023657619953155517578125" lon="-1.81754219345748424530029296875">
        <ele>481</ele>
        <time>2019-10-26T15:03:15.000Z</time>
      </trkpt>
      <trkpt lat="37.565067149698734283447265625" lon="-1.8177620507776737213134765625">
        <ele>481.399993896484375</ele>
        <time>2019-10-26T15:03:20.000Z</time>
      </trkpt>
      <trkpt lat="37.5651394017040729522705078125" lon="-1.81797771714627742767333984375">
        <ele>481.79998779296875</ele>
        <time>2019-10-26T15:03:25.000Z</time>
      </trkpt>
      <trkpt lat="37.5652062892913818359375" lon="-1.81819849647581577301025390625">
        <ele>482.20001220703125</ele>
        <time>2019-10-26T15:03:30.000Z</time>
      </trkpt>
      <trkpt lat="37.56526722572743892669677734375" lon="-1.818413324654102325439453125">
        <ele>482.399993896484375</ele>
        <time>2019-10-26T15:03:35.000Z</time>
      </trkpt>
      <trkpt lat="37.56534232757985591888427734375" lon="-1.8186461739242076873779296875">
        <ele>482.399993896484375</ele>
        <time>2019-10-26T15:03:41.000Z</time>
      </trkpt>
      <trkpt lat="37.56541105918586254119873046875" lon="-1.8188902549445629119873046875">
        <ele>484.399993896484375</ele>
        <time>2019-10-26T15:03:48.000Z</time>
      </trkpt>
      <trkpt lat="37.5655026733875274658203125" lon="-1.8191018141806125640869140625">
        <ele>486.600006103515625</ele>
        <time>2019-10-26T15:03:55.000Z</time>
      </trkpt>
      <trkpt lat="37.5656024180352687835693359375" lon="-1.81931261904537677764892578125">
        <ele>488.20001220703125</ele>
        <time>2019-10-26T15:04:02.000Z</time>
      </trkpt>
      <trkpt lat="37.56572219543159008026123046875" lon="-1.81951998732984066009521484375">
        <ele>487.600006103515625</ele>
        <time>2019-10-26T15:04:09.000Z</time>
      </trkpt>
      <trkpt lat="37.5658200122416019439697265625" lon="-1.81971226818859577178955078125">
        <ele>487</ele>
        <time>2019-10-26T15:04:15.000Z</time>
      </trkpt>
      <trkpt lat="37.565956301987171173095703125" lon="-1.8198855221271514892578125">
        <ele>487.399993896484375</ele>
        <time>2019-10-26T15:04:21.000Z</time>
      </trkpt>
      <trkpt lat="37.566136680543422698974609375" lon="-1.82003907859325408935546875">
        <ele>488.600006103515625</ele>
        <time>2019-10-26T15:04:27.000Z</time>
      </trkpt>
      <trkpt lat="37.566282860934734344482421875" lon="-1.82020965032279491424560546875">
        <ele>489.399993896484375</ele>
        <time>2019-10-26T15:04:32.000Z</time>
      </trkpt>
      <trkpt lat="37.566431052982807159423828125" lon="-1.82039983570575714111328125">
        <ele>489</ele>
        <time>2019-10-26T15:04:37.000Z</time>
      </trkpt>
      <trkpt lat="37.5665924884378910064697265625" lon="-1.8205877579748630523681640625">
        <ele>488.600006103515625</ele>
        <time>2019-10-26T15:04:42.000Z</time>
      </trkpt>
      <trkpt lat="37.566725425422191619873046875" lon="-1.82075212709605693817138671875">
        <ele>488.600006103515625</ele>
        <time>2019-10-26T15:04:46.000Z</time>
      </trkpt>
      <trkpt lat="37.56687127053737640380859375" lon="-1.82095010764896869659423828125">
        <ele>490.20001220703125</ele>
        <time>2019-10-26T15:04:51.000Z</time>
      </trkpt>
      <trkpt lat="37.56698601879179477691650390625" lon="-1.82114146649837493896484375">
        <ele>491.20001220703125</ele>
        <time>2019-10-26T15:04:56.000Z</time>
      </trkpt>
      <trkpt lat="37.567086182534694671630859375" lon="-1.82133902795612812042236328125">
        <ele>492.20001220703125</ele>
        <time>2019-10-26T15:05:01.000Z</time>
      </trkpt>
      <trkpt lat="37.5671755336225032806396484375" lon="-1.82155176065862178802490234375">
        <ele>492.79998779296875</ele>
        <time>2019-10-26T15:05:06.000Z</time>
      </trkpt>
      <trkpt lat="37.5672710873186588287353515625" lon="-1.82176533155143260955810546875">
        <ele>494.20001220703125</ele>
        <time>2019-10-26T15:05:11.000Z</time>
      </trkpt>
      <trkpt lat="37.56737058050930500030517578125" lon="-1.82198007591068744659423828125">
        <ele>495.399993896484375</ele>
        <time>2019-10-26T15:05:16.000Z</time>
      </trkpt>
      <trkpt lat="37.56746144033968448638916015625" lon="-1.8222044594585895538330078125">
        <ele>496.399993896484375</ele>
        <time>2019-10-26T15:05:21.000Z</time>
      </trkpt>
      <trkpt lat="37.56752933375537395477294921875" lon="-1.8224616162478923797607421875">
        <ele>496.79998779296875</ele>
        <time>2019-10-26T15:05:27.000Z</time>
      </trkpt>
      <trkpt lat="37.56756721995770931243896484375" lon="-1.82270678691565990447998046875">
        <ele>496.20001220703125</ele>
        <time>2019-10-26T15:05:32.000Z</time>
      </trkpt>
      <trkpt lat="37.567601501941680908203125" lon="-1.82295405305922031402587890625">
        <ele>495.399993896484375</ele>
        <time>2019-10-26T15:05:37.000Z</time>
      </trkpt>
      <trkpt lat="37.56763125769793987274169921875" lon="-1.82320333085954189300537109375">
        <ele>494.399993896484375</ele>
        <time>2019-10-26T15:05:42.000Z</time>
      </trkpt>
      <trkpt lat="37.567679621279239654541015625" lon="-1.82345093227922916412353515625">
        <ele>493.600006103515625</ele>
        <time>2019-10-26T15:05:47.000Z</time>
      </trkpt>
      <trkpt lat="37.567753382027149200439453125" lon="-1.82369585148990154266357421875">
        <ele>493.20001220703125</ele>
        <time>2019-10-26T15:05:52.000Z</time>
      </trkpt>
      <trkpt lat="37.5678413920104503631591796875" lon="-1.82392467744648456573486328125">
        <ele>493.600006103515625</ele>
        <time>2019-10-26T15:05:57.000Z</time>
      </trkpt>
      <trkpt lat="37.567935101687908172607421875" lon="-1.8241440318524837493896484375">
        <ele>495</ele>
        <time>2019-10-26T15:06:02.000Z</time>
      </trkpt>
      <trkpt lat="37.56802336312830448150634765625" lon="-1.82436673901975154876708984375">
        <ele>497.600006103515625</ele>
        <time>2019-10-26T15:06:07.000Z</time>
      </trkpt>
      <trkpt lat="37.5681210123002529144287109375" lon="-1.82459204457700252532958984375">
        <ele>497</ele>
        <time>2019-10-26T15:06:12.000Z</time>
      </trkpt>
      <trkpt lat="37.56820877082645893096923828125" lon="-1.82482455857098102569580078125">
        <ele>496.20001220703125</ele>
        <time>2019-10-26T15:06:17.000Z</time>
      </trkpt>
      <trkpt lat="37.5682940147817134857177734375" lon="-1.825051791965961456298828125">
        <ele>496</ele>
        <time>2019-10-26T15:06:22.000Z</time>
      </trkpt>
      <trkpt lat="37.56838613189756870269775390625" lon="-1.825269050896167755126953125">
        <ele>495.20001220703125</ele>
        <time>2019-10-26T15:06:27.000Z</time>
      </trkpt>
      <trkpt lat="37.568484954535961151123046875" lon="-1.8255025707185268402099609375">
        <ele>495</ele>
        <time>2019-10-26T15:06:33.000Z</time>
      </trkpt>
      <trkpt lat="37.56860473193228244781494140625" lon="-1.82572670280933380126953125">
        <ele>494.79998779296875</ele>
        <time>2019-10-26T15:06:39.000Z</time>
      </trkpt>
      <trkpt lat="37.56873280741274356842041015625" lon="-1.8259312212467193603515625">
        <ele>495.399993896484375</ele>
        <time>2019-10-26T15:06:45.000Z</time>
      </trkpt>
      <trkpt lat="37.56886540912091732025146484375" lon="-1.82609123177826404571533203125">
        <ele>496</ele>
        <time>2019-10-26T15:06:53.000Z</time>
      </trkpt>
      <trkpt lat="37.56901561282575130462646484375" lon="-1.82621511630713939666748046875">
        <ele>496.20001220703125</ele>
        <time>2019-10-26T15:07:00.000Z</time>
      </trkpt>
      <trkpt lat="37.5690255872905254364013671875" lon="-1.82623389177024364471435546875">
        <ele>496.20001220703125</ele>
        <time>2019-10-26T15:07:01.000Z</time>
      </trkpt>
      <trkpt lat="37.5689360685646533966064453125" lon="-1.826203800737857818603515625">
        <ele>495.79998779296875</ele>
        <time>2019-10-26T15:07:07.000Z</time>
      </trkpt>
      <trkpt lat="37.56877153180539608001708984375" lon="-1.82602484710514545440673828125">
        <ele>495.600006103515625</ele>
        <time>2019-10-26T15:07:13.000Z</time>
      </trkpt>
      <trkpt lat="37.56868737749755382537841796875" lon="-1.82593130506575107574462890625">
        <ele>495</ele>
        <time>2019-10-26T15:07:16.000Z</time>
      </trkpt>
      <trkpt lat="37.56856097839772701263427734375" lon="-1.825765930116176605224609375">
        <ele>494.20001220703125</ele>
        <time>2019-10-26T15:07:21.000Z</time>
      </trkpt>
      <trkpt lat="37.56845804862678050994873046875" lon="-1.8255726434290409088134765625">
        <ele>494.20001220703125</ele>
        <time>2019-10-26T15:07:26.000Z</time>
      </trkpt>
      <trkpt lat="37.568358890712261199951171875" lon="-1.82536032982170581817626953125">
        <ele>494.399993896484375</ele>
        <time>2019-10-26T15:07:31.000Z</time>
      </trkpt>
      <trkpt lat="37.56828236393630504608154296875" lon="-1.82513703592121601104736328125">
        <ele>495.399993896484375</ele>
        <time>2019-10-26T15:07:36.000Z</time>
      </trkpt>
      <trkpt lat="37.568201981484889984130859375" lon="-1.82491960935294628143310546875">
        <ele>495.79998779296875</ele>
        <time>2019-10-26T15:07:41.000Z</time>
      </trkpt>
      <trkpt lat="37.56814272142946720123291015625" lon="-1.82481366209685802459716796875">
        <ele>495.600006103515625</ele>
        <time>2019-10-26T15:07:44.000Z</time>
      </trkpt>
      <trkpt lat="37.568103410303592681884765625" lon="-1.82499135844409465789794921875">
        <ele>495</ele>
        <time>2019-10-26T15:07:51.000Z</time>
      </trkpt>
      <trkpt lat="37.56814708001911640167236328125" lon="-1.8251237086951732635498046875">
        <ele>495.399993896484375</ele>
        <time>2019-10-26T15:07:54.000Z</time>
      </trkpt>
      <trkpt lat="37.5682055018842220306396484375" lon="-1.82541020214557647705078125">
        <ele>493.600006103515625</ele>
        <time>2019-10-26T15:07:59.000Z</time>
      </trkpt>
      <trkpt lat="37.56826945580542087554931640625" lon="-1.82565218769013881683349609375">
        <ele>492.399993896484375</ele>
        <time>2019-10-26T15:08:02.000Z</time>
      </trkpt>
      <trkpt lat="37.56829996593296527862548828125" lon="-1.82572293095290660858154296875">
        <ele>492</ele>
        <time>2019-10-26T15:08:03.000Z</time>
      </trkpt>
      <trkpt lat="37.5684180669486522674560546875" lon="-1.82595334947109222412109375">
        <ele>492</ele>
        <time>2019-10-26T15:08:07.000Z</time>
      </trkpt>
      <trkpt lat="37.56855444051325321197509765625" lon="-1.82615878991782665252685546875">
        <ele>492.600006103515625</ele>
        <time>2019-10-26T15:08:12.000Z</time>
      </trkpt>
      <trkpt lat="37.5686185620725154876708984375" lon="-1.8262606300413608551025390625">
        <ele>493</ele>
        <time>2019-10-26T15:08:15.000Z</time>
      </trkpt>
      <trkpt lat="37.56873674690723419189453125" lon="-1.8264510668814182281494140625">
        <ele>492.600006103515625</ele>
        <time>2019-10-26T15:08:21.000Z</time>
      </trkpt>
      <trkpt lat="37.5687932409346103668212890625" lon="-1.82653932832181453704833984375">
        <ele>492.399993896484375</ele>
        <time>2019-10-26T15:08:24.000Z</time>
      </trkpt>
      <trkpt lat="37.5689109228551387786865234375" lon="-1.82673010043799877166748046875">
        <ele>494.20001220703125</ele>
        <time>2019-10-26T15:08:31.000Z</time>
      </trkpt>
      <trkpt lat="37.56902215071022510528564453125" lon="-1.826944090425968170166015625">
        <ele>494</ele>
        <time>2019-10-26T15:08:39.000Z</time>
      </trkpt>
      <trkpt lat="37.569130025804042816162109375" lon="-1.827144920825958251953125">
        <ele>493</ele>
        <time>2019-10-26T15:08:46.000Z</time>
      </trkpt>
      <trkpt lat="37.5692596100270748138427734375" lon="-1.82732303626835346221923828125">
        <ele>493.20001220703125</ele>
        <time>2019-10-26T15:08:54.000Z</time>
      </trkpt>
      <trkpt lat="37.56944694556295871734619140625" lon="-1.82741188444197177886962890625">
        <ele>494.399993896484375</ele>
        <time>2019-10-26T15:09:02.000Z</time>
      </trkpt>
      <trkpt lat="37.56962028332054615020751953125" lon="-1.827514730393886566162109375">
        <ele>496.399993896484375</ele>
        <time>2019-10-26T15:09:09.000Z</time>
      </trkpt>
      <trkpt lat="37.56978792138397693634033203125" lon="-1.827606596052646636962890625">
        <ele>498.20001220703125</ele>
        <time>2019-10-26T15:09:16.000Z</time>
      </trkpt>
      <trkpt lat="37.5699700601398944854736328125" lon="-1.82765278033912181854248046875">
        <ele>498.399993896484375</ele>
        <time>2019-10-26T15:09:23.000Z</time>
      </trkpt>
      <trkpt lat="37.57014532573521137237548828125" lon="-1.82775755412876605987548828125">
        <ele>500</ele>
        <time>2019-10-26T15:09:30.000Z</time>
      </trkpt>
      <trkpt lat="37.57030718028545379638671875" lon="-1.82789434678852558135986328125">
        <ele>502</ele>
        <time>2019-10-26T15:09:37.000Z</time>
      </trkpt>
      <trkpt lat="37.5704669393599033355712890625" lon="-1.82801186107099056243896484375">
        <ele>501.20001220703125</ele>
        <time>2019-10-26T15:09:44.000Z</time>
      </trkpt>
      <trkpt lat="37.57062879391014575958251953125" lon="-1.82813423685729503631591796875">
        <ele>499.79998779296875</ele>
        <time>2019-10-26T15:09:51.000Z</time>
      </trkpt>
      <trkpt lat="37.5707881338894367218017578125" lon="-1.8282488174736499786376953125">
        <ele>499</ele>
        <time>2019-10-26T15:09:58.000Z</time>
      </trkpt>
      <trkpt lat="37.57095468230545520782470703125" lon="-1.8283903039991855621337890625">
        <ele>499.20001220703125</ele>
        <time>2019-10-26T15:10:06.000Z</time>
      </trkpt>
      <trkpt lat="37.5711120106279850006103515625" lon="-1.8285083211958408355712890625">
        <ele>500</ele>
        <time>2019-10-26T15:10:13.000Z</time>
      </trkpt>
      <trkpt lat="37.5712685845792293548583984375" lon="-1.82863497175276279449462890625">
        <ele>500.600006103515625</ele>
        <time>2019-10-26T15:10:20.000Z</time>
      </trkpt>
      <trkpt lat="37.5714218057692050933837890625" lon="-1.828759275376796722412109375">
        <ele>500.399993896484375</ele>
        <time>2019-10-26T15:10:27.000Z</time>
      </trkpt>
      <trkpt lat="37.5715807266533374786376953125" lon="-1.82890889234840869903564453125">
        <ele>500.399993896484375</ele>
        <time>2019-10-26T15:10:35.000Z</time>
      </trkpt>
      <trkpt lat="37.5717305950820446014404296875" lon="-1.82904300279915332794189453125">
        <ele>500.399993896484375</ele>
        <time>2019-10-26T15:10:42.000Z</time>
      </trkpt>
      <trkpt lat="37.57190267555415630340576171875" lon="-1.82917510159313678741455078125">
        <ele>501.600006103515625</ele>
        <time>2019-10-26T15:10:50.000Z</time>
      </trkpt>
      <trkpt lat="37.5720745883882045745849609375" lon="-1.8293196894228458404541015625">
        <ele>502.79998779296875</ele>
        <time>2019-10-26T15:10:58.000Z</time>
      </trkpt>
      <trkpt lat="37.57222898304462432861328125" lon="-1.82945497334003448486328125">
        <ele>503.399993896484375</ele>
        <time>2019-10-26T15:11:05.000Z</time>
      </trkpt>
      <trkpt lat="37.5723994709551334381103515625" lon="-1.82959050871431827545166015625">
        <ele>503.20001220703125</ele>
        <time>2019-10-26T15:11:12.000Z</time>
      </trkpt>
      <trkpt lat="37.5725667737424373626708984375" lon="-1.82971674017608165740966796875">
        <ele>503.399993896484375</ele>
        <time>2019-10-26T15:11:19.000Z</time>
      </trkpt>
      <trkpt lat="37.57272812537848949432373046875" lon="-1.82985520921647548675537109375">
        <ele>503.600006103515625</ele>
        <time>2019-10-26T15:11:26.000Z</time>
      </trkpt>
      <trkpt lat="37.572872377932071685791015625" lon="-1.8300106935203075408935546875">
        <ele>504.399993896484375</ele>
        <time>2019-10-26T15:11:33.000Z</time>
      </trkpt>
      <trkpt lat="37.57299399934709072113037109375" lon="-1.83017808012664318084716796875">
        <ele>505.600006103515625</ele>
        <time>2019-10-26T15:11:40.000Z</time>
      </trkpt>
      <trkpt lat="37.5731062330305576324462890625" lon="-1.830357201397418975830078125">
        <ele>505</ele>
        <time>2019-10-26T15:11:47.000Z</time>
      </trkpt>
      <trkpt lat="37.57323053665459156036376953125" lon="-1.830536909401416778564453125">
        <ele>504</ele>
        <time>2019-10-26T15:11:54.000Z</time>
      </trkpt>
      <trkpt lat="37.57333338260650634765625" lon="-1.83075048029422760009765625">
        <ele>503.20001220703125</ele>
        <time>2019-10-26T15:12:01.000Z</time>
      </trkpt>
      <trkpt lat="37.57342130877077579498291015625" lon="-1.83098492212593555450439453125">
        <ele>504.399993896484375</ele>
        <time>2019-10-26T15:12:08.000Z</time>
      </trkpt>
      <trkpt lat="37.57351384498178958892822265625" lon="-1.831218190491199493408203125">
        <ele>505.79998779296875</ele>
        <time>2019-10-26T15:12:15.000Z</time>
      </trkpt>
      <trkpt lat="37.57358006201684474945068359375" lon="-1.83137677609920501708984375">
        <ele>506.399993896484375</ele>
        <time>2019-10-26T15:12:20.000Z</time>
      </trkpt>
      <trkpt lat="37.57369816303253173828125" lon="-1.831592023372650146484375">
        <ele>506.399993896484375</ele>
        <time>2019-10-26T15:12:27.000Z</time>
      </trkpt>
      <trkpt lat="37.57379262708127498626708984375" lon="-1.8318044207990169525146484375">
        <ele>507.600006103515625</ele>
        <time>2019-10-26T15:12:33.000Z</time>
      </trkpt>
      <trkpt lat="37.5738713331520557403564453125" lon="-1.83204757981002330780029296875">
        <ele>508</ele>
        <time>2019-10-26T15:12:40.000Z</time>
      </trkpt>
      <trkpt lat="37.57393562234938144683837890625" lon="-1.8322654254734516143798828125">
        <ele>508</ele>
        <time>2019-10-26T15:12:46.000Z</time>
      </trkpt>
      <trkpt lat="37.57401240058243274688720703125" lon="-1.8324793316423892974853515625">
        <ele>508.600006103515625</ele>
        <time>2019-10-26T15:12:52.000Z</time>
      </trkpt>
      <trkpt lat="37.57409253157675266265869140625" lon="-1.8327207304537296295166015625">
        <ele>508.600006103515625</ele>
        <time>2019-10-26T15:12:59.000Z</time>
      </trkpt>
      <trkpt lat="37.57417836226522922515869140625" lon="-1.8329483829438686370849609375">
        <ele>508</ele>
        <time>2019-10-26T15:13:06.000Z</time>
      </trkpt>
      <trkpt lat="37.574261762201786041259765625" lon="-1.83318366296589374542236328125">
        <ele>508.600006103515625</ele>
        <time>2019-10-26T15:13:13.000Z</time>
      </trkpt>
      <trkpt lat="37.574324123561382293701171875" lon="-1.83340025134384632110595703125">
        <ele>509.79998779296875</ele>
        <time>2019-10-26T15:13:19.000Z</time>
      </trkpt>
      <trkpt lat="37.574376426637172698974609375" lon="-1.83362446725368499755859375">
        <ele>511.20001220703125</ele>
        <time>2019-10-26T15:13:25.000Z</time>
      </trkpt>
      <trkpt lat="37.57443912327289581298828125" lon="-1.83386561460793018341064453125">
        <ele>512.20001220703125</ele>
        <time>2019-10-26T15:13:32.000Z</time>
      </trkpt>
      <trkpt lat="37.5745157338678836822509765625" lon="-1.83409779332578182220458984375">
        <ele>512.5999755859375</ele>
        <time>2019-10-26T15:13:39.000Z</time>
      </trkpt>
      <trkpt lat="37.574602402746677398681640625" lon="-1.83433449827134609222412109375">
        <ele>514.79998779296875</ele>
        <time>2019-10-26T15:13:46.000Z</time>
      </trkpt>
      <trkpt lat="37.57468077354133129119873046875" lon="-1.83457355014979839324951171875">
        <ele>515.5999755859375</ele>
        <time>2019-10-26T15:13:53.000Z</time>
      </trkpt>
      <trkpt lat="37.57475503720343112945556640625" lon="-1.83478997088968753814697265625">
        <ele>515.20001220703125</ele>
        <time>2019-10-26T15:14:00.000Z</time>
      </trkpt>
      <trkpt lat="37.5748295523226261138916015625" lon="-1.8350123427808284759521484375">
        <ele>515.79998779296875</ele>
        <time>2019-10-26T15:14:07.000Z</time>
      </trkpt>
      <trkpt lat="37.57491345517337322235107421875" lon="-1.83521476574242115020751953125">
        <ele>515.20001220703125</ele>
        <time>2019-10-26T15:14:13.000Z</time>
      </trkpt>
      <trkpt lat="37.57499626837670803070068359375" lon="-1.8354197032749652862548828125">
        <ele>514.20001220703125</ele>
        <time>2019-10-26T15:14:19.000Z</time>
      </trkpt>
      <trkpt lat="37.5750820152461528778076171875" lon="-1.835637800395488739013671875">
        <ele>515.4000244140625</ele>
        <time>2019-10-26T15:14:26.000Z</time>
      </trkpt>
      <trkpt lat="37.57516893558204174041748046875" lon="-1.8358398042619228363037109375">
        <ele>516</ele>
        <time>2019-10-26T15:14:33.000Z</time>
      </trkpt>
      <trkpt lat="37.5752033852040767669677734375" lon="-1.8360728211700916290283203125">
        <ele>517</ele>
        <time>2019-10-26T15:14:41.000Z</time>
      </trkpt>
      <trkpt lat="37.57524454034864902496337890625" lon="-1.8363142199814319610595703125">
        <ele>518</ele>
        <time>2019-10-26T15:14:48.000Z</time>
      </trkpt>
      <trkpt lat="37.5752727873623371124267578125" lon="-1.8365489132702350616455078125">
        <ele>516</ele>
        <time>2019-10-26T15:14:55.000Z</time>
      </trkpt>
      <trkpt lat="37.5752902217209339141845703125" lon="-1.83680447749793529510498046875">
        <ele>518.5999755859375</ele>
        <time>2019-10-26T15:15:02.000Z</time>
      </trkpt>
      <trkpt lat="37.57524822838604450225830078125" lon="-1.8370494805276393890380859375">
        <ele>521.4000244140625</ele>
        <time>2019-10-26T15:15:11.000Z</time>
      </trkpt>
      <trkpt lat="37.57520011626183986663818359375" lon="-1.83726598508656024932861328125">
        <ele>523</ele>
        <time>2019-10-26T15:15:21.000Z</time>
      </trkpt>
      <trkpt lat="37.5752000324428081512451171875" lon="-1.83714914135634899139404296875">
        <ele>522.4000244140625</ele>
        <time>2019-10-26T15:15:28.000Z</time>
      </trkpt>
      <trkpt lat="37.57528192363679409027099609375" lon="-1.8369200639426708221435546875">
        <ele>520</ele>
        <time>2019-10-26T15:15:33.000Z</time>
      </trkpt>
      <trkpt lat="37.57534730248153209686279296875" lon="-1.83668947778642177581787109375">
        <ele>517.4000244140625</ele>
        <time>2019-10-26T15:15:38.000Z</time>
      </trkpt>
      <trkpt lat="37.575488872826099395751953125" lon="-1.836551763117313385009765625">
        <ele>516</ele>
        <time>2019-10-26T15:15:44.000Z</time>
      </trkpt>
      <trkpt lat="37.57567352615296840667724609375" lon="-1.8365710414946079254150390625">
        <ele>516.20001220703125</ele>
        <time>2019-10-26T15:15:51.000Z</time>
      </trkpt>
      <trkpt lat="37.575727589428424835205078125" lon="-1.83660314418375492095947265625">
        <ele>516.5999755859375</ele>
        <time>2019-10-26T15:15:57.000Z</time>
      </trkpt>
      <trkpt lat="37.57584728300571441650390625" lon="-1.83646752499043941497802734375">
        <ele>516.79998779296875</ele>
        <time>2019-10-26T15:16:22.000Z</time>
      </trkpt>
      <trkpt lat="37.5758729316294193267822265625" lon="-1.8364272080361843109130859375">
        <ele>517.5999755859375</ele>
        <time>2019-10-26T15:16:26.000Z</time>
      </trkpt>
      <trkpt lat="37.57591559551656246185302734375" lon="-1.83642712421715259552001953125">
        <ele>518.5999755859375</ele>
        <time>2019-10-26T15:16:52.000Z</time>
      </trkpt>
      <trkpt lat="37.57589966990053653717041015625" lon="-1.83655251748859882354736328125">
        <ele>516.5999755859375</ele>
        <time>2019-10-26T15:17:47.000Z</time>
      </trkpt>
      <trkpt lat="37.57588709704577922821044921875" lon="-1.83664689771831035614013671875">
        <ele>516.5999755859375</ele>
        <time>2019-10-26T15:17:53.000Z</time>
      </trkpt>
      <trkpt lat="37.57594384253025054931640625" lon="-1.8368530087172985076904296875">
        <ele>517.5999755859375</ele>
        <time>2019-10-26T15:18:16.000Z</time>
      </trkpt>
      <trkpt lat="37.57609480060636997222900390625" lon="-1.83700715191662311553955078125">
        <ele>519.5999755859375</ele>
        <time>2019-10-26T15:18:25.000Z</time>
      </trkpt>
      <trkpt lat="37.5762395560741424560546875" lon="-1.83714696206152439117431640625">
        <ele>520.20001220703125</ele>
        <time>2019-10-26T15:18:33.000Z</time>
      </trkpt>
      <trkpt lat="37.5764070264995098114013671875" lon="-1.8372888676822185516357421875">
        <ele>519.79998779296875</ele>
        <time>2019-10-26T15:18:41.000Z</time>
      </trkpt>
      <trkpt lat="37.57656469009816646575927734375" lon="-1.8374149315059185028076171875">
        <ele>519.79998779296875</ele>
        <time>2019-10-26T15:18:48.000Z</time>
      </trkpt>
      <trkpt lat="37.5767268799245357513427734375" lon="-1.83754376135766506195068359375">
        <ele>520.79998779296875</ele>
        <time>2019-10-26T15:18:55.000Z</time>
      </trkpt>
      <trkpt lat="37.57688102312386035919189453125" lon="-1.83767166920006275177001953125">
        <ele>522.5999755859375</ele>
        <time>2019-10-26T15:19:01.000Z</time>
      </trkpt>
      <trkpt lat="37.577024437487125396728515625" lon="-1.83782136999070644378662109375">
        <ele>524.4000244140625</ele>
        <time>2019-10-26T15:19:07.000Z</time>
      </trkpt>
      <trkpt lat="37.577165253460407257080078125" lon="-1.83798381127417087554931640625">
        <ele>523.79998779296875</ele>
        <time>2019-10-26T15:19:13.000Z</time>
      </trkpt>
      <trkpt lat="37.57729969918727874755859375" lon="-1.83814935386180877685546875">
        <ele>522.5999755859375</ele>
        <time>2019-10-26T15:19:19.000Z</time>
      </trkpt>
      <trkpt lat="37.57742970250546932220458984375" lon="-1.83835311792790889739990234375">
        <ele>522.5999755859375</ele>
        <time>2019-10-26T15:19:26.000Z</time>
      </trkpt>
      <trkpt lat="37.57752835750579833984375" lon="-1.8385759927332401275634765625">
        <ele>522</ele>
        <time>2019-10-26T15:19:33.000Z</time>
      </trkpt>
      <trkpt lat="37.577541768550872802734375" lon="-1.83861094526946544647216796875">
        <ele>522.20001220703125</ele>
        <time>2019-10-26T15:19:34.000Z</time>
      </trkpt>
      <trkpt lat="37.57762080989778041839599609375" lon="-1.8388515897095203399658203125">
        <ele>522.4000244140625</ele>
        <time>2019-10-26T15:19:41.000Z</time>
      </trkpt>
      <trkpt lat="37.5776552595198154449462890625" lon="-1.8390779010951519012451171875">
        <ele>522.20001220703125</ele>
        <time>2019-10-26T15:19:50.000Z</time>
      </trkpt>
      <trkpt lat="37.57765106856822967529296875" lon="-1.8391057290136814117431640625">
        <ele>522.4000244140625</ele>
        <time>2019-10-26T15:19:52.000Z</time>
      </trkpt>
      <trkpt lat="37.577619217336177825927734375" lon="-1.83888419531285762786865234375">
        <ele>522.4000244140625</ele>
        <time>2019-10-26T15:20:06.000Z</time>
      </trkpt>
      <trkpt lat="37.577611505985260009765625" lon="-1.838648580014705657958984375">
        <ele>522.4000244140625</ele>
        <time>2019-10-26T15:20:12.000Z</time>
      </trkpt>
      <trkpt lat="37.57767009548842906951904296875" lon="-1.83845956809818744659423828125">
        <ele>522.5999755859375</ele>
        <time>2019-10-26T15:20:20.000Z</time>
      </trkpt>
      <trkpt lat="37.57774871774017810821533203125" lon="-1.8383828736841678619384765625">
        <ele>522.79998779296875</ele>
        <time>2019-10-26T15:20:30.000Z</time>
      </trkpt>
      <trkpt lat="37.57777403108775615692138671875" lon="-1.83840215206146240234375">
        <ele>523</ele>
        <time>2019-10-26T15:20:31.000Z</time>
      </trkpt>
      <trkpt lat="37.577950470149517059326171875" lon="-1.83853802271187305450439453125">
        <ele>523.5999755859375</ele>
        <time>2019-10-26T15:20:38.000Z</time>
      </trkpt>
      <trkpt lat="37.57810310460627079010009765625" lon="-1.83866123668849468231201171875">
        <ele>523.5999755859375</ele>
        <time>2019-10-26T15:20:44.000Z</time>
      </trkpt>
      <trkpt lat="37.578255236148834228515625" lon="-1.83884195052087306976318359375">
        <ele>523.4000244140625</ele>
        <time>2019-10-26T15:20:51.000Z</time>
      </trkpt>
      <trkpt lat="37.57838004268705844879150390625" lon="-1.83905367739498615264892578125">
        <ele>523.20001220703125</ele>
        <time>2019-10-26T15:20:58.000Z</time>
      </trkpt>
      <trkpt lat="37.57848749868571758270263671875" lon="-1.8392488919198513031005859375">
        <ele>524.20001220703125</ele>
        <time>2019-10-26T15:21:04.000Z</time>
      </trkpt>
      <trkpt lat="37.5786159932613372802734375" lon="-1.83945827186107635498046875">
        <ele>525.20001220703125</ele>
        <time>2019-10-26T15:21:11.000Z</time>
      </trkpt>
      <trkpt lat="37.578739039599895477294921875" lon="-1.83963018469512462615966796875">
        <ele>525.5999755859375</ele>
        <time>2019-10-26T15:21:17.000Z</time>
      </trkpt>
      <trkpt lat="37.5788612477481365203857421875" lon="-1.83983109891414642333984375">
        <ele>525.20001220703125</ele>
        <time>2019-10-26T15:21:24.000Z</time>
      </trkpt>
      <trkpt lat="37.57897733710706233978271484375" lon="-1.840028576552867889404296875">
        <ele>525.4000244140625</ele>
        <time>2019-10-26T15:21:31.000Z</time>
      </trkpt>
      <trkpt lat="37.579082362353801727294921875" lon="-1.8402198515832424163818359375">
        <ele>525.20001220703125</ele>
        <time>2019-10-26T15:21:38.000Z</time>
      </trkpt>
      <trkpt lat="37.579204738140106201171875" lon="-1.84039226733148097991943359375">
        <ele>525.20001220703125</ele>
        <time>2019-10-26T15:21:46.000Z</time>
      </trkpt>
      <trkpt lat="37.57935703732073307037353515625" lon="-1.840518750250339508056640625">
        <ele>526.20001220703125</ele>
        <time>2019-10-26T15:21:53.000Z</time>
      </trkpt>
      <trkpt lat="37.5794345699250698089599609375" lon="-1.8405500985682010650634765625">
        <ele>526.5999755859375</ele>
        <time>2019-10-26T15:21:57.000Z</time>
      </trkpt>
      <trkpt lat="37.5794479809701442718505859375" lon="-1.8404817022383213043212890625">
        <ele>526.79998779296875</ele>
        <time>2019-10-26T15:22:05.000Z</time>
      </trkpt>
      <trkpt lat="37.579508163034915924072265625" lon="-1.84044356457889080047607421875">
        <ele>527.20001220703125</ele>
        <time>2019-10-26T15:22:14.000Z</time>
      </trkpt>
      <trkpt lat="37.57958770729601383209228515625" lon="-1.84046141803264617919921875">
        <ele>527.4000244140625</ele>
        <time>2019-10-26T15:22:22.000Z</time>
      </trkpt>
      <trkpt lat="37.5796079076826572418212890625" lon="-1.840452365577220916748046875">
        <ele>527.5999755859375</ele>
        <time>2019-10-26T15:22:25.000Z</time>
      </trkpt>
      <trkpt lat="37.57968024350702762603759765625" lon="-1.8403325043618679046630859375">
        <ele>528.20001220703125</ele>
        <time>2019-10-26T15:22:37.000Z</time>
      </trkpt>
      <trkpt lat="37.57978267036378383636474609375" lon="-1.84015422128140926361083984375">
        <ele>529.20001220703125</ele>
        <time>2019-10-26T15:22:52.000Z</time>
      </trkpt>
      <trkpt lat="37.5799223966896533966064453125" lon="-1.84028531424701213836669921875">
        <ele>529.20001220703125</ele>
        <time>2019-10-26T15:23:05.000Z</time>
      </trkpt>
      <trkpt lat="37.58005089126527309417724609375" lon="-1.84046208858489990234375">
        <ele>529.79998779296875</ele>
        <time>2019-10-26T15:23:19.000Z</time>
      </trkpt>
      <trkpt lat="37.5801705010235309600830078125" lon="-1.84063710272312164306640625">
        <ele>531.20001220703125</ele>
        <time>2019-10-26T15:23:34.000Z</time>
      </trkpt>
      <trkpt lat="37.58022439666092395782470703125" lon="-1.84070357121527194976806640625">
        <ele>530.79998779296875</ele>
        <time>2019-10-26T15:23:40.000Z</time>
      </trkpt>
      <trkpt lat="37.58026647381484508514404296875" lon="-1.8407633341848850250244140625">
        <ele>531</ele>
        <time>2019-10-26T15:23:46.000Z</time>
      </trkpt>
      <trkpt lat="37.580288015305995941162109375" lon="-1.8407884798943996429443359375">
        <ele>531.20001220703125</ele>
        <time>2019-10-26T15:23:51.000Z</time>
      </trkpt>
      <trkpt lat="37.58015532977879047393798828125" lon="-1.8406412936747074127197265625">
        <ele>531</ele>
        <time>2019-10-26T15:24:10.000Z</time>
      </trkpt>
      <trkpt lat="37.58015549741685390472412109375" lon="-1.8404595740139484405517578125">
        <ele>532.4000244140625</ele>
        <time>2019-10-26T15:24:23.000Z</time>
      </trkpt>
      <trkpt lat="37.580142505466938018798828125" lon="-1.84063978493213653564453125">
        <ele>530.79998779296875</ele>
        <time>2019-10-26T15:24:43.000Z</time>
      </trkpt>
      <trkpt lat="37.5802355445921421051025390625" lon="-1.84081505052745342254638671875">
        <ele>530.5999755859375</ele>
        <time>2019-10-26T15:24:57.000Z</time>
      </trkpt>
      <trkpt lat="37.58019455708563327789306640625" lon="-1.8409215845167636871337890625">
        <ele>530.20001220703125</ele>
        <time>2019-10-26T15:25:05.000Z</time>
      </trkpt>
      <trkpt lat="37.580249123275279998779296875" lon="-1.84092636220157146453857421875">
        <ele>530.79998779296875</ele>
        <time>2019-10-26T15:25:17.000Z</time>
      </trkpt>
      <trkpt lat="37.58029170334339141845703125" lon="-1.84101261198520660400390625">
        <ele>531.4000244140625</ele>
        <time>2019-10-26T15:25:23.000Z</time>
      </trkpt>
      <trkpt lat="37.580306120216846466064453125" lon="-1.84103348292410373687744140625">
        <ele>531.5999755859375</ele>
        <time>2019-10-26T15:25:25.000Z</time>
      </trkpt>
      <trkpt lat="37.580336295068264007568359375" lon="-1.84115317650139331817626953125">
        <ele>531.79998779296875</ele>
        <time>2019-10-26T15:25:36.000Z</time>
      </trkpt>
      <trkpt lat="37.58033067919313907623291015625" lon="-1.84132316149771213531494140625">
        <ele>531.4000244140625</ele>
        <time>2019-10-26T15:25:48.000Z</time>
      </trkpt>
      <trkpt lat="37.5803247280418872833251953125" lon="-1.84139239601790904998779296875">
        <ele>530.79998779296875</ele>
        <time>2019-10-26T15:25:53.000Z</time>
      </trkpt>
      <trkpt lat="37.58028474636375904083251953125" lon="-1.84162013232707977294921875">
        <ele>529.79998779296875</ele>
        <time>2019-10-26T15:26:08.000Z</time>
      </trkpt>
      <trkpt lat="37.58028642274439334869384765625" lon="-1.8416618742048740386962890625">
        <ele>529.79998779296875</ele>
        <time>2019-10-26T15:26:11.000Z</time>
      </trkpt>
      <trkpt lat="37.5802387297153472900390625" lon="-1.841896735131740570068359375">
        <ele>530.20001220703125</ele>
        <time>2019-10-26T15:26:25.000Z</time>
      </trkpt>
      <trkpt lat="37.58015499450266361236572265625" lon="-1.84211055748164653778076171875">
        <ele>530.20001220703125</ele>
        <time>2019-10-26T15:26:38.000Z</time>
      </trkpt>
      <trkpt lat="37.58005994372069835662841796875" lon="-1.8422962166368961334228515625">
        <ele>530</ele>
        <time>2019-10-26T15:26:53.000Z</time>
      </trkpt>
      <trkpt lat="37.5800957344472408294677734375" lon="-1.842468716204166412353515625">
        <ele>530.79998779296875</ele>
        <time>2019-10-26T15:27:16.000Z</time>
      </trkpt>
      <trkpt lat="37.58000629954040050506591796875" lon="-1.84265923686325550079345703125">
        <ele>532.4000244140625</ele>
        <time>2019-10-26T15:27:42.000Z</time>
      </trkpt>
      <trkpt lat="37.57997880689799785614013671875" lon="-1.84269108809530735015869140625">
        <ele>532.79998779296875</ele>
        <time>2019-10-26T15:27:46.000Z</time>
      </trkpt>
      <trkpt lat="37.58011057041585445404052734375" lon="-1.8428447283804416656494140625">
        <ele>534</ele>
        <time>2019-10-26T15:28:10.000Z</time>
      </trkpt>
      <trkpt lat="37.58015516214072704315185546875" lon="-1.84295277111232280731201171875">
        <ele>534.79998779296875</ele>
        <time>2019-10-26T15:29:10.000Z</time>
      </trkpt>
      <trkpt lat="37.58016765117645263671875" lon="-1.84291941113770008087158203125">
        <ele>534.5999755859375</ele>
        <time>2019-10-26T15:30:31.000Z</time>
      </trkpt>
      <trkpt lat="37.58015482686460018157958984375" lon="-1.84293533675372600555419921875">
        <ele>534.79998779296875</ele>
        <time>2019-10-26T15:31:12.000Z</time>
      </trkpt>
      <trkpt lat="37.58008508943021297454833984375" lon="-1.842835843563079833984375">
        <ele>532.4000244140625</ele>
        <time>2019-10-27T07:36:23.000Z</time>
      </trkpt>
      <trkpt lat="37.5801460258662700653076171875" lon="-1.8427647650241851806640625">
        <ele>531.79998779296875</ele>
        <time>2019-10-27T07:36:41.000Z</time>
      </trkpt>
      <trkpt lat="37.58022959344089031219482421875" lon="-1.84278228320181369781494140625">
        <ele>531.20001220703125</ele>
        <time>2019-10-27T07:36:49.000Z</time>
      </trkpt>
      <trkpt lat="37.58026446215808391571044921875" lon="-1.842757724225521087646484375">
        <ele>530.79998779296875</ele>
        <time>2019-10-27T07:36:55.000Z</time>
      </trkpt>
      <trkpt lat="37.5803196988999843597412109375" lon="-1.84257206507027149200439453125">
        <ele>530</ele>
        <time>2019-10-27T07:37:43.000Z</time>
      </trkpt>
      <trkpt lat="37.5803835690021514892578125" lon="-1.84248975478112697601318359375">
        <ele>529.79998779296875</ele>
        <time>2019-10-27T07:37:52.000Z</time>
      </trkpt>
      <trkpt lat="37.58053989149630069732666015625" lon="-1.84238011948764324188232421875">
        <ele>530</ele>
        <time>2019-10-27T07:38:20.000Z</time>
      </trkpt>
      <trkpt lat="37.58071205578744411468505859375" lon="-1.842304766178131103515625">
        <ele>531</ele>
        <time>2019-10-27T07:38:38.000Z</time>
      </trkpt>
      <trkpt lat="37.5807723216712474822998046875" lon="-1.8423746712505817413330078125">
        <ele>531.5999755859375</ele>
        <time>2019-10-27T07:38:46.000Z</time>
      </trkpt>
      <trkpt lat="37.58076150901615619659423828125" lon="-1.8424373678863048553466796875">
        <ele>531.5999755859375</ele>
        <time>2019-10-27T07:38:50.000Z</time>
      </trkpt>
      <trkpt lat="37.580713145434856414794921875" lon="-1.84265554882586002349853515625">
        <ele>531.4000244140625</ele>
        <time>2019-10-27T07:39:05.000Z</time>
      </trkpt>
      <trkpt lat="37.58080668747425079345703125" lon="-1.8428460694849491119384765625">
        <ele>531</ele>
        <time>2019-10-27T07:39:25.000Z</time>
      </trkpt>
      <trkpt lat="37.5809081085026264190673828125" lon="-1.84305905364453792572021484375">
        <ele>530.79998779296875</ele>
        <time>2019-10-27T07:39:34.000Z</time>
      </trkpt>
      <trkpt lat="37.58099720813333988189697265625" lon="-1.84325954876840114593505859375">
        <ele>531</ele>
        <time>2019-10-27T07:39:42.000Z</time>
      </trkpt>
      <trkpt lat="37.5810945220291614532470703125" lon="-1.84345769695937633514404296875">
        <ele>531.79998779296875</ele>
        <time>2019-10-27T07:39:50.000Z</time>
      </trkpt>
      <trkpt lat="37.58119083009660243988037109375" lon="-1.84365014545619487762451171875">
        <ele>533.20001220703125</ele>
        <time>2019-10-27T07:39:58.000Z</time>
      </trkpt>
      <trkpt lat="37.5812960229814052581787109375" lon="-1.8438539095222949981689453125">
        <ele>533.5999755859375</ele>
        <time>2019-10-27T07:40:07.000Z</time>
      </trkpt>
      <trkpt lat="37.58138864301145076751708984375" lon="-1.84405096806585788726806640625">
        <ele>534</ele>
        <time>2019-10-27T07:40:15.000Z</time>
      </trkpt>
      <trkpt lat="37.5814653374254703521728515625" lon="-1.844266466796398162841796875">
        <ele>534</ele>
        <time>2019-10-27T07:40:23.000Z</time>
      </trkpt>
      <trkpt lat="37.5815763138234615325927734375" lon="-1.8444557301700115203857421875">
        <ele>534</ele>
        <time>2019-10-27T07:40:31.000Z</time>
      </trkpt>
      <trkpt lat="37.58167295716702938079833984375" lon="-1.8446736596524715423583984375">
        <ele>533.5999755859375</ele>
        <time>2019-10-27T07:40:39.000Z</time>
      </trkpt>
      <trkpt lat="37.58177672512829303741455078125" lon="-1.84487901628017425537109375">
        <ele>533</ele>
        <time>2019-10-27T07:40:47.000Z</time>
      </trkpt>
      <trkpt lat="37.58188149891793727874755859375" lon="-1.8450930900871753692626953125">
        <ele>532.79998779296875</ele>
        <time>2019-10-27T07:40:55.000Z</time>
      </trkpt>
      <trkpt lat="37.58197504095733165740966796875" lon="-1.8452986143529415130615234375">
        <ele>533.20001220703125</ele>
        <time>2019-10-27T07:41:03.000Z</time>
      </trkpt>
      <trkpt lat="37.5820706784725189208984375" lon="-1.8455209024250507354736328125">
        <ele>535</ele>
        <time>2019-10-27T07:41:11.000Z</time>
      </trkpt>
      <trkpt lat="37.5821430981159210205078125" lon="-1.84573036618530750274658203125">
        <ele>536.20001220703125</ele>
        <time>2019-10-27T07:41:19.000Z</time>
      </trkpt>
      <trkpt lat="37.58223353885114192962646484375" lon="-1.8459399975836277008056640625">
        <ele>537</ele>
        <time>2019-10-27T07:41:27.000Z</time>
      </trkpt>
      <trkpt lat="37.58241123519837856292724609375" lon="-1.84606455266475677490234375">
        <ele>537.5999755859375</ele>
        <time>2019-10-27T07:41:35.000Z</time>
      </trkpt>
      <trkpt lat="37.582585997879505157470703125" lon="-1.84613294899463653564453125">
        <ele>537.79998779296875</ele>
        <time>2019-10-27T07:41:42.000Z</time>
      </trkpt>
      <trkpt lat="37.5827652029693126678466796875" lon="-1.846207045018672943115234375">
        <ele>538.79998779296875</ele>
        <time>2019-10-27T07:41:50.000Z</time>
      </trkpt>
      <trkpt lat="37.5829088687896728515625" lon="-1.84637057594954967498779296875">
        <ele>540.4000244140625</ele>
        <time>2019-10-27T07:42:00.000Z</time>
      </trkpt>
      <trkpt lat="37.583018504083156585693359375" lon="-1.846570484340190887451171875">
        <ele>543</ele>
        <time>2019-10-27T07:42:10.000Z</time>
      </trkpt>
      <trkpt lat="37.583119757473468780517578125" lon="-1.846767626702785491943359375">
        <ele>544.79998779296875</ele>
        <time>2019-10-27T07:42:20.000Z</time>
      </trkpt>
      <trkpt lat="37.58313191123306751251220703125" lon="-1.84677123092114925384521484375">
        <ele>545.20001220703125</ele>
        <time>2019-10-27T07:42:22.000Z</time>
      </trkpt>
      <trkpt lat="37.583172731101512908935546875" lon="-1.84677609242498874664306640625">
        <ele>546</ele>
        <time>2019-10-27T07:42:54.000Z</time>
      </trkpt>
      <trkpt lat="37.583189494907855987548828125" lon="-1.8468792736530303955078125">
        <ele>546.4000244140625</ele>
        <time>2019-10-27T07:42:58.000Z</time>
      </trkpt>
      <trkpt lat="37.58318203501403331756591796875" lon="-1.847111284732818603515625">
        <ele>545.4000244140625</ele>
        <time>2019-10-27T07:43:06.000Z</time>
      </trkpt>
      <trkpt lat="37.58316962979733943939208984375" lon="-1.8473458103835582733154296875">
        <ele>545.5999755859375</ele>
        <time>2019-10-27T07:43:14.000Z</time>
      </trkpt>
      <trkpt lat="37.58317600004374980926513671875" lon="-1.84760053642094135284423828125">
        <ele>545.79998779296875</ele>
        <time>2019-10-27T07:43:23.000Z</time>
      </trkpt>
      <trkpt lat="37.5831863097846508026123046875" lon="-1.84782919473946094512939453125">
        <ele>545.79998779296875</ele>
        <time>2019-10-27T07:43:31.000Z</time>
      </trkpt>
      <trkpt lat="37.58318723179399967193603515625" lon="-1.84805684722959995269775390625">
        <ele>546.20001220703125</ele>
        <time>2019-10-27T07:43:39.000Z</time>
      </trkpt>
      <trkpt lat="37.58321170695126056671142578125" lon="-1.848288439214229583740234375">
        <ele>546.4000244140625</ele>
        <time>2019-10-27T07:43:47.000Z</time>
      </trkpt>
      <trkpt lat="37.5832342542707920074462890625" lon="-1.84852137230336666107177734375">
        <ele>547.5999755859375</ele>
        <time>2019-10-27T07:43:55.000Z</time>
      </trkpt>
      <trkpt lat="37.58326736278831958770751953125" lon="-1.84875774197280406951904296875">
        <ele>547.79998779296875</ele>
        <time>2019-10-27T07:44:03.000Z</time>
      </trkpt>
      <trkpt lat="37.5833060033619403839111328125" lon="-1.84897986240684986114501953125">
        <ele>547.4000244140625</ele>
        <time>2019-10-27T07:44:10.000Z</time>
      </trkpt>
      <trkpt lat="37.583348415791988372802734375" lon="-1.84921254403889179229736328125">
        <ele>548</ele>
        <time>2019-10-27T07:44:17.000Z</time>
      </trkpt>
      <trkpt lat="37.5833881460130214691162109375" lon="-1.84945461340248584747314453125">
        <ele>548.4000244140625</ele>
        <time>2019-10-27T07:44:24.000Z</time>
      </trkpt>
      <trkpt lat="37.583434246480464935302734375" lon="-1.849703975021839141845703125">
        <ele>549.4000244140625</ele>
        <time>2019-10-27T07:44:31.000Z</time>
      </trkpt>
      <trkpt lat="37.58347657509148120880126953125" lon="-1.849960796535015106201171875">
        <ele>550.20001220703125</ele>
        <time>2019-10-27T07:44:38.000Z</time>
      </trkpt>
      <trkpt lat="37.58352552540600299835205078125" lon="-1.8502067215740680694580078125">
        <ele>550.79998779296875</ele>
        <time>2019-10-27T07:44:45.000Z</time>
      </trkpt>
      <trkpt lat="37.58357229642570018768310546875" lon="-1.85046412982046604156494140625">
        <ele>552.20001220703125</ele>
        <time>2019-10-27T07:44:52.000Z</time>
      </trkpt>
      <trkpt lat="37.58360884152352809906005859375" lon="-1.85068733990192413330078125">
        <ele>552.5999755859375</ele>
        <time>2019-10-27T07:44:58.000Z</time>
      </trkpt>
      <trkpt lat="37.5836553610861301422119140625" lon="-1.85094474814832210540771484375">
        <ele>552.4000244140625</ele>
        <time>2019-10-27T07:45:05.000Z</time>
      </trkpt>
      <trkpt lat="37.5836892239749431610107421875" lon="-1.85112764127552509307861328125">
        <ele>552.79998779296875</ele>
        <time>2019-10-27T07:45:10.000Z</time>
      </trkpt>
      <trkpt lat="37.5837227515876293182373046875" lon="-1.85138362459838390350341796875">
        <ele>553</ele>
        <time>2019-10-27T07:45:17.000Z</time>
      </trkpt>
      <trkpt lat="37.583773545920848846435546875" lon="-1.8516294658184051513671875">
        <ele>553.5999755859375</ele>
        <time>2019-10-27T07:45:24.000Z</time>
      </trkpt>
      <trkpt lat="37.5838172994554042816162109375" lon="-1.8518494069576263427734375">
        <ele>554.20001220703125</ele>
        <time>2019-10-27T07:45:30.000Z</time>
      </trkpt>
      <trkpt lat="37.5838625617325305938720703125" lon="-1.8520908057689666748046875">
        <ele>554.79998779296875</ele>
        <time>2019-10-27T07:45:37.000Z</time>
      </trkpt>
      <trkpt lat="37.5839105062186717987060546875" lon="-1.8523187935352325439453125">
        <ele>556</ele>
        <time>2019-10-27T07:45:44.000Z</time>
      </trkpt>
      <trkpt lat="37.58395367302000522613525390625" lon="-1.85256622731685638427734375">
        <ele>557.20001220703125</ele>
        <time>2019-10-27T07:45:52.000Z</time>
      </trkpt>
      <trkpt lat="37.5839963369071483612060546875" lon="-1.8528118170797824859619140625">
        <ele>558.4000244140625</ele>
        <time>2019-10-27T07:46:00.000Z</time>
      </trkpt>
      <trkpt lat="37.5840365700423717498779296875" lon="-1.85305170714855194091796875">
        <ele>560.20001220703125</ele>
        <time>2019-10-27T07:46:08.000Z</time>
      </trkpt>
      <trkpt lat="37.58407420478761196136474609375" lon="-1.85329654254019260406494140625">
        <ele>562.20001220703125</ele>
        <time>2019-10-27T07:46:16.000Z</time>
      </trkpt>
      <trkpt lat="37.584121562540531158447265625" lon="-1.85353743843734264373779296875">
        <ele>564.4000244140625</ele>
        <time>2019-10-27T07:46:24.000Z</time>
      </trkpt>
      <trkpt lat="37.58417361415922641754150390625" lon="-1.8537730537354946136474609375">
        <ele>565.5999755859375</ele>
        <time>2019-10-27T07:46:32.000Z</time>
      </trkpt>
      <trkpt lat="37.58424368686974048614501953125" lon="-1.8539898097515106201171875">
        <ele>566.79998779296875</ele>
        <time>2019-10-27T07:46:40.000Z</time>
      </trkpt>
      <trkpt lat="37.58432842791080474853515625" lon="-1.85419164597988128662109375">
        <ele>566.79998779296875</ele>
        <time>2019-10-27T07:46:48.000Z</time>
      </trkpt>
      <trkpt lat="37.58443932048976421356201171875" lon="-1.85438015498220920562744140625">
        <ele>567.79998779296875</ele>
        <time>2019-10-27T07:46:56.000Z</time>
      </trkpt>
      <trkpt lat="37.5845750235021114349365234375" lon="-1.85454972088336944580078125">
        <ele>569.4000244140625</ele>
        <time>2019-10-27T07:47:04.000Z</time>
      </trkpt>
      <trkpt lat="37.58471667766571044921875" lon="-1.854709647595882415771484375">
        <ele>571.20001220703125</ele>
        <time>2019-10-27T07:47:12.000Z</time>
      </trkpt>
      <trkpt lat="37.584864199161529541015625" lon="-1.85485876165330410003662109375">
        <ele>572</ele>
        <time>2019-10-27T07:47:20.000Z</time>
      </trkpt>
      <trkpt lat="37.5850004889070987701416015625" lon="-1.855007372796535491943359375">
        <ele>572.5999755859375</ele>
        <time>2019-10-27T07:47:28.000Z</time>
      </trkpt>
      <trkpt lat="37.58505488745868206024169921875" lon="-1.85505456291139125823974609375">
        <ele>572.5999755859375</ele>
        <time>2019-10-27T07:47:33.000Z</time>
      </trkpt>
      <trkpt lat="37.58506494574248790740966796875" lon="-1.85504467226564884185791015625">
        <ele>572.4000244140625</ele>
        <time>2019-10-27T07:49:15.000Z</time>
      </trkpt>
      <trkpt lat="37.58509495295584201812744140625" lon="-1.85505657456815242767333984375">
        <ele>572.4000244140625</ele>
        <time>2019-10-27T07:51:10.000Z</time>
      </trkpt>
      <trkpt lat="37.58509294129908084869384765625" lon="-1.8550437502562999725341796875">
        <ele>572.4000244140625</ele>
        <time>2019-10-27T07:53:55.000Z</time>
      </trkpt>
      <trkpt lat="37.58519302122294902801513671875" lon="-1.8551845662295818328857421875">
        <ele>573</ele>
        <time>2019-10-27T07:54:37.000Z</time>
      </trkpt>
      <trkpt lat="37.58534255437552928924560546875" lon="-1.85533703304827213287353515625">
        <ele>573.79998779296875</ele>
        <time>2019-10-27T07:54:46.000Z</time>
      </trkpt>
      <trkpt lat="37.58548823185265064239501953125" lon="-1.85548983514308929443359375">
        <ele>575.79998779296875</ele>
        <time>2019-10-27T07:54:55.000Z</time>
      </trkpt>
      <trkpt lat="37.5856314785778522491455078125" lon="-1.855646073818206787109375">
        <ele>578</ele>
        <time>2019-10-27T07:55:04.000Z</time>
      </trkpt>
      <trkpt lat="37.5857860408723354339599609375" lon="-1.85581077821552753448486328125">
        <ele>579.4000244140625</ele>
        <time>2019-10-27T07:55:13.000Z</time>
      </trkpt>
      <trkpt lat="37.5859137810766696929931640625" lon="-1.8559719622135162353515625">
        <ele>580.20001220703125</ele>
        <time>2019-10-27T07:55:21.000Z</time>
      </trkpt>
      <trkpt lat="37.58604948408901691436767578125" lon="-1.85615778900682926177978515625">
        <ele>581.5999755859375</ele>
        <time>2019-10-27T07:55:30.000Z</time>
      </trkpt>
      <trkpt lat="37.58617772720754146575927734375" lon="-1.85634856112301349639892578125">
        <ele>582.20001220703125</ele>
        <time>2019-10-27T07:55:39.000Z</time>
      </trkpt>
      <trkpt lat="37.5862980075180530548095703125" lon="-1.85651770792901515960693359375">
        <ele>583.4000244140625</ele>
        <time>2019-10-27T07:55:47.000Z</time>
      </trkpt>
      <trkpt lat="37.58643069304525852203369140625" lon="-1.85671065934002399444580078125">
        <ele>584.79998779296875</ele>
        <time>2019-10-27T07:55:56.000Z</time>
      </trkpt>
      <trkpt lat="37.5865890271961688995361328125" lon="-1.8568592704832553863525390625">
        <ele>585.4000244140625</ele>
        <time>2019-10-27T07:56:05.000Z</time>
      </trkpt>
      <trkpt lat="37.58670595474541187286376953125" lon="-1.85705767013132572174072265625">
        <ele>586.20001220703125</ele>
        <time>2019-10-27T07:56:14.000Z</time>
      </trkpt>
      <trkpt lat="37.5868153385818004608154296875" lon="-1.85724944807589054107666015625">
        <ele>588.20001220703125</ele>
        <time>2019-10-27T07:56:23.000Z</time>
      </trkpt>
      <trkpt lat="37.5869293324649333953857421875" lon="-1.85743586160242557525634765625">
        <ele>589.4000244140625</ele>
        <time>2019-10-27T07:56:32.000Z</time>
      </trkpt>
      <trkpt lat="37.58704357780516147613525390625" lon="-1.85762445442378520965576171875">
        <ele>591.4000244140625</ele>
        <time>2019-10-27T07:56:41.000Z</time>
      </trkpt>
      <trkpt lat="37.5871588289737701416015625" lon="-1.85781103558838367462158203125">
        <ele>592.4000244140625</ele>
        <time>2019-10-27T07:56:50.000Z</time>
      </trkpt>
      <trkpt lat="37.58727894164621829986572265625" lon="-1.858006082475185394287109375">
        <ele>594.20001220703125</ele>
        <time>2019-10-27T07:56:59.000Z</time>
      </trkpt>
      <trkpt lat="37.58738522417843341827392578125" lon="-1.85821361839771270751953125">
        <ele>595.79998779296875</ele>
        <time>2019-10-27T07:57:08.000Z</time>
      </trkpt>
      <trkpt lat="37.587485052645206451416015625" lon="-1.85841478407382965087890625">
        <ele>597.5999755859375</ele>
        <time>2019-10-27T07:57:17.000Z</time>
      </trkpt>
      <trkpt lat="37.5875811092555522918701171875" lon="-1.8586184643208980560302734375">
        <ele>598.4000244140625</ele>
        <time>2019-10-27T07:57:26.000Z</time>
      </trkpt>
      <trkpt lat="37.587675154209136962890625" lon="-1.85883262194693088531494140625">
        <ele>599</ele>
        <time>2019-10-27T07:57:35.000Z</time>
      </trkpt>
      <trkpt lat="37.5877779163420200347900390625" lon="-1.85904736630618572235107421875">
        <ele>600</ele>
        <time>2019-10-27T07:57:44.000Z</time>
      </trkpt>
      <trkpt lat="37.58788813836872577667236328125" lon="-1.85923696495592594146728515625">
        <ele>601.79998779296875</ele>
        <time>2019-10-27T07:57:53.000Z</time>
      </trkpt>
      <trkpt lat="37.58799039758741855621337890625" lon="-1.85943377204239368438720703125">
        <ele>603.4000244140625</ele>
        <time>2019-10-27T07:58:01.000Z</time>
      </trkpt>
      <trkpt lat="37.58808611892163753509521484375" lon="-1.85963208787143230438232421875">
        <ele>604.79998779296875</ele>
        <time>2019-10-27T07:58:09.000Z</time>
      </trkpt>
      <trkpt lat="37.588150240480899810791015625" lon="-1.85977332293987274169921875">
        <ele>605.20001220703125</ele>
        <time>2019-10-27T07:58:15.000Z</time>
      </trkpt>
      <trkpt lat="37.5882640667259693145751953125" lon="-1.8599676154553890228271484375">
        <ele>607.20001220703125</ele>
        <time>2019-10-27T07:58:24.000Z</time>
      </trkpt>
      <trkpt lat="37.5883978419005870819091796875" lon="-1.86014807783067226409912109375">
        <ele>608.79998779296875</ele>
        <time>2019-10-27T07:58:33.000Z</time>
      </trkpt>
      <trkpt lat="37.58853270672261714935302734375" lon="-1.860298030078411102294921875">
        <ele>611.5999755859375</ele>
        <time>2019-10-27T07:58:41.000Z</time>
      </trkpt>
      <trkpt lat="37.58868324570357799530029296875" lon="-1.86046089045703411102294921875">
        <ele>613.5999755859375</ele>
        <time>2019-10-27T07:58:50.000Z</time>
      </trkpt>
      <trkpt lat="37.5888256542384624481201171875" lon="-1.860624253749847412109375">
        <ele>614.4000244140625</ele>
        <time>2019-10-27T07:58:59.000Z</time>
      </trkpt>
      <trkpt lat="37.5889929570257663726806640625" lon="-1.86075492762029170989990234375">
        <ele>615.79998779296875</ele>
        <time>2019-10-27T07:59:08.000Z</time>
      </trkpt>
      <trkpt lat="37.589170150458812713623046875" lon="-1.86087596230208873748779296875">
        <ele>617</ele>
        <time>2019-10-27T07:59:17.000Z</time>
      </trkpt>
      <trkpt lat="37.58933099918067455291748046875" lon="-1.86098710633814334869384765625">
        <ele>618.4000244140625</ele>
        <time>2019-10-27T07:59:25.000Z</time>
      </trkpt>
      <trkpt lat="37.58948774076998233795166015625" lon="-1.86113731004297733306884765625">
        <ele>619.4000244140625</ele>
        <time>2019-10-27T07:59:34.000Z</time>
      </trkpt>
      <trkpt lat="37.58963224478065967559814453125" lon="-1.8613087199628353118896484375">
        <ele>619.5999755859375</ele>
        <time>2019-10-27T07:59:43.000Z</time>
      </trkpt>
      <trkpt lat="37.58975076489150524139404296875" lon="-1.8615055270493030548095703125">
        <ele>619</ele>
        <time>2019-10-27T07:59:52.000Z</time>
      </trkpt>
      <trkpt lat="37.5898539461195468902587890625" lon="-1.861717589199542999267578125">
        <ele>619.79998779296875</ele>
        <time>2019-10-27T08:00:00.000Z</time>
      </trkpt>
      <trkpt lat="37.58995260111987590789794921875" lon="-1.86192906461656093597412109375">
        <ele>620.79998779296875</ele>
        <time>2019-10-27T08:00:08.000Z</time>
      </trkpt>
      <trkpt lat="37.59005469270050525665283203125" lon="-1.86212436296045780181884765625">
        <ele>621.20001220703125</ele>
        <time>2019-10-27T08:00:16.000Z</time>
      </trkpt>
      <trkpt lat="37.590184025466442108154296875" lon="-1.8622904084622859954833984375">
        <ele>622</ele>
        <time>2019-10-27T08:00:24.000Z</time>
      </trkpt>
      <trkpt lat="37.5903370790183544158935546875" lon="-1.86242342926561832427978515625">
        <ele>622.4000244140625</ele>
        <time>2019-10-27T08:00:32.000Z</time>
      </trkpt>
      <trkpt lat="37.5904949940741062164306640625" lon="-1.86254949308931827545166015625">
        <ele>622.79998779296875</ele>
        <time>2019-10-27T08:00:40.000Z</time>
      </trkpt>
      <trkpt lat="37.5906807370483875274658203125" lon="-1.8626082502305507659912109375">
        <ele>624.4000244140625</ele>
        <time>2019-10-27T08:00:48.000Z</time>
      </trkpt>
      <trkpt lat="37.59087645448744297027587890625" lon="-1.86259006150066852569580078125">
        <ele>627</ele>
        <time>2019-10-27T08:00:55.000Z</time>
      </trkpt>
      <trkpt lat="37.59107426740229129791259765625" lon="-1.8625794164836406707763671875">
        <ele>627.20001220703125</ele>
        <time>2019-10-27T08:01:02.000Z</time>
      </trkpt>
      <trkpt lat="37.59125716052949428558349609375" lon="-1.862592995166778564453125">
        <ele>626.5999755859375</ele>
        <time>2019-10-27T08:01:09.000Z</time>
      </trkpt>
      <trkpt lat="37.591450028121471405029296875" lon="-1.86263398267328739166259765625">
        <ele>625.79998779296875</ele>
        <time>2019-10-27T08:01:16.000Z</time>
      </trkpt>
      <trkpt lat="37.5914672948420047760009765625" lon="-1.86264772899448871612548828125">
        <ele>625.5999755859375</ele>
        <time>2019-10-27T08:01:17.000Z</time>
      </trkpt>
      <trkpt lat="37.5913157500326633453369140625" lon="-1.86268008314073085784912109375">
        <ele>625.20001220703125</ele>
        <time>2019-10-27T08:01:28.000Z</time>
      </trkpt>
      <trkpt lat="37.591293118894100189208984375" lon="-1.86266767792403697967529296875">
        <ele>625.4000244140625</ele>
        <time>2019-10-27T08:02:16.000Z</time>
      </trkpt>
      <trkpt lat="37.59129948914051055908203125" lon="-1.86264655552804470062255859375">
        <ele>625.79998779296875</ele>
        <time>2019-10-27T08:02:17.000Z</time>
      </trkpt>
      <trkpt lat="37.5914092920720577239990234375" lon="-1.8626387603580951690673828125">
        <ele>625.79998779296875</ele>
        <time>2019-10-27T08:02:22.000Z</time>
      </trkpt>
      <trkpt lat="37.59157919324934482574462890625" lon="-1.86272551305592060089111328125">
        <ele>625.20001220703125</ele>
        <time>2019-10-27T08:02:29.000Z</time>
      </trkpt>
      <trkpt lat="37.591742388904094696044921875" lon="-1.86285258270800113677978515625">
        <ele>625.20001220703125</ele>
        <time>2019-10-27T08:02:37.000Z</time>
      </trkpt>
      <trkpt lat="37.5918880663812160491943359375" lon="-1.86302818357944488525390625">
        <ele>625.5999755859375</ele>
        <time>2019-10-27T08:02:45.000Z</time>
      </trkpt>
      <trkpt lat="37.59203533641993999481201171875" lon="-1.8632000125944614410400390625">
        <ele>627.4000244140625</ele>
        <time>2019-10-27T08:02:53.000Z</time>
      </trkpt>
      <trkpt lat="37.59216785430908203125" lon="-1.86335348524153232574462890625">
        <ele>628.79998779296875</ele>
        <time>2019-10-27T08:03:00.000Z</time>
      </trkpt>
      <trkpt lat="37.59230875410139560699462890625" lon="-1.8635285831987857818603515625">
        <ele>630.20001220703125</ele>
        <time>2019-10-27T08:03:08.000Z</time>
      </trkpt>
      <trkpt lat="37.59244470857083797454833984375" lon="-1.86368440277874469757080078125">
        <ele>630.79998779296875</ele>
        <time>2019-10-27T08:03:15.000Z</time>
      </trkpt>
      <trkpt lat="37.5926229916512966156005859375" lon="-1.8638031743466854095458984375">
        <ele>631.79998779296875</ele>
        <time>2019-10-27T08:03:23.000Z</time>
      </trkpt>
      <trkpt lat="37.59280982427299022674560546875" lon="-1.86389051377773284912109375">
        <ele>633</ele>
        <time>2019-10-27T08:03:32.000Z</time>
      </trkpt>
      <trkpt lat="37.59299456141889095306396484375" lon="-1.86392538249492645263671875">
        <ele>634.20001220703125</ele>
        <time>2019-10-27T08:03:40.000Z</time>
      </trkpt>
      <trkpt lat="37.59318910539150238037109375" lon="-1.86391373164951801300048828125">
        <ele>634.4000244140625</ele>
        <time>2019-10-27T08:03:48.000Z</time>
      </trkpt>
      <trkpt lat="37.59338758885860443115234375" lon="-1.86390233226120471954345703125">
        <ele>634.5999755859375</ele>
        <time>2019-10-27T08:03:56.000Z</time>
      </trkpt>
      <trkpt lat="37.59357240982353687286376953125" lon="-1.86393971554934978485107421875">
        <ele>636.4000244140625</ele>
        <time>2019-10-27T08:04:04.000Z</time>
      </trkpt>
      <trkpt lat="37.59374306537210941314697265625" lon="-1.8640130572021007537841796875">
        <ele>638.5999755859375</ele>
        <time>2019-10-27T08:04:12.000Z</time>
      </trkpt>
      <trkpt lat="37.59390517137944698333740234375" lon="-1.8641223572194576263427734375">
        <ele>641</ele>
        <time>2019-10-27T08:04:20.000Z</time>
      </trkpt>
      <trkpt lat="37.59406476281583309173583984375" lon="-1.86425722204148769378662109375">
        <ele>642</ele>
        <time>2019-10-27T08:04:28.000Z</time>
      </trkpt>
      <trkpt lat="37.594210021197795867919921875" lon="-1.864416897296905517578125">
        <ele>643</ele>
        <time>2019-10-27T08:04:36.000Z</time>
      </trkpt>
      <trkpt lat="37.59436164982616901397705078125" lon="-1.864558719098567962646484375">
        <ele>643.5999755859375</ele>
        <time>2019-10-27T08:04:44.000Z</time>
      </trkpt>
      <trkpt lat="37.59451554156839847564697265625" lon="-1.8647084198892116546630859375">
        <ele>645</ele>
        <time>2019-10-27T08:04:52.000Z</time>
      </trkpt>
      <trkpt lat="37.59466708637773990631103515625" lon="-1.8648519180715084075927734375">
        <ele>645.79998779296875</ele>
        <time>2019-10-27T08:05:00.000Z</time>
      </trkpt>
      <trkpt lat="37.5948244147002696990966796875" lon="-1.86499156057834625244140625">
        <ele>646.5999755859375</ele>
        <time>2019-10-27T08:05:08.000Z</time>
      </trkpt>
      <trkpt lat="37.59497252292931079864501953125" lon="-1.86514637432992458343505859375">
        <ele>647.79998779296875</ele>
        <time>2019-10-27T08:05:16.000Z</time>
      </trkpt>
      <trkpt lat="37.59498962201178073883056640625" lon="-1.86516649089753627777099609375">
        <ele>648</ele>
        <time>2019-10-27T08:05:17.000Z</time>
      </trkpt>
      <trkpt lat="37.59513529948890209197998046875" lon="-1.86532105319201946258544921875">
        <ele>649.4000244140625</ele>
        <time>2019-10-27T08:05:25.000Z</time>
      </trkpt>
      <trkpt lat="37.59525708854198455810546875" lon="-1.8654909543693065643310546875">
        <ele>650.20001220703125</ele>
        <time>2019-10-27T08:05:33.000Z</time>
      </trkpt>
      <trkpt lat="37.59537041187286376953125" lon="-1.86567485332489013671875">
        <ele>650.20001220703125</ele>
        <time>2019-10-27T08:05:41.000Z</time>
      </trkpt>
      <trkpt lat="37.595483399927616119384765625" lon="-1.8658704869449138641357421875">
        <ele>650.79998779296875</ele>
        <time>2019-10-27T08:05:49.000Z</time>
      </trkpt>
      <trkpt lat="37.59560099802911281585693359375" lon="-1.86606268398463726043701171875">
        <ele>651</ele>
        <time>2019-10-27T08:05:57.000Z</time>
      </trkpt>
      <trkpt lat="37.5957155786454677581787109375" lon="-1.86625932343304157257080078125">
        <ele>652.20001220703125</ele>
        <time>2019-10-27T08:06:05.000Z</time>
      </trkpt>
      <trkpt lat="37.5958379544317722320556640625" lon="-1.86645646579563617706298828125">
        <ele>652.79998779296875</ele>
        <time>2019-10-27T08:06:13.000Z</time>
      </trkpt>
      <trkpt lat="37.59596879594027996063232421875" lon="-1.86665360815823078155517578125">
        <ele>653</ele>
        <time>2019-10-27T08:06:21.000Z</time>
      </trkpt>
      <trkpt lat="37.59609469212591648101806640625" lon="-1.8668528459966182708740234375">
        <ele>653.4000244140625</ele>
        <time>2019-10-27T08:06:29.000Z</time>
      </trkpt>
      <trkpt lat="37.596221677958965301513671875" lon="-1.86705023981630802154541015625">
        <ele>653.20001220703125</ele>
        <time>2019-10-27T08:06:37.000Z</time>
      </trkpt>
      <trkpt lat="37.5963480770587921142578125" lon="-1.86724889092147350311279296875">
        <ele>653.5999755859375</ele>
        <time>2019-10-27T08:06:45.000Z</time>
      </trkpt>
      <trkpt lat="37.596470452845096588134765625" lon="-1.86745114624500274658203125">
        <ele>655.4000244140625</ele>
        <time>2019-10-27T08:06:53.000Z</time>
      </trkpt>
      <trkpt lat="37.59659727104008197784423828125" lon="-1.86764962971210479736328125">
        <ele>657.79998779296875</ele>
        <time>2019-10-27T08:07:01.000Z</time>
      </trkpt>
      <trkpt lat="37.5967143662273883819580078125" lon="-1.867855489253997802734375">
        <ele>659</ele>
        <time>2019-10-27T08:07:09.000Z</time>
      </trkpt>
      <trkpt lat="37.59683766402304172515869140625" lon="-1.8680574931204319000244140625">
        <ele>658.79998779296875</ele>
        <time>2019-10-27T08:07:17.000Z</time>
      </trkpt>
      <trkpt lat="37.59696163237094879150390625" lon="-1.86825656332075595855712890625">
        <ele>658.20001220703125</ele>
        <time>2019-10-27T08:07:25.000Z</time>
      </trkpt>
      <trkpt lat="37.59708358906209468841552734375" lon="-1.86844264157116413116455078125">
        <ele>657.79998779296875</ele>
        <time>2019-10-27T08:07:33.000Z</time>
      </trkpt>
      <trkpt lat="37.59721132926642894744873046875" lon="-1.86864129267632961273193359375">
        <ele>658</ele>
        <time>2019-10-27T08:07:41.000Z</time>
      </trkpt>
      <trkpt lat="37.597328089177608489990234375" lon="-1.86883449554443359375">
        <ele>657.5999755859375</ele>
        <time>2019-10-27T08:07:49.000Z</time>
      </trkpt>
      <trkpt lat="37.59744820185005664825439453125" lon="-1.86901755630970001220703125">
        <ele>659</ele>
        <time>2019-10-27T08:07:57.000Z</time>
      </trkpt>
      <trkpt lat="37.59756001643836498260498046875" lon="-1.86921411193907260894775390625">
        <ele>659.4000244140625</ele>
        <time>2019-10-27T08:08:05.000Z</time>
      </trkpt>
      <trkpt lat="37.59767468087375164031982421875" lon="-1.86941058374941349029541015625">
        <ele>660.20001220703125</ele>
        <time>2019-10-27T08:08:13.000Z</time>
      </trkpt>
      <trkpt lat="37.5977775268256664276123046875" lon="-1.86962700448930263519287109375">
        <ele>662</ele>
        <time>2019-10-27T08:08:21.000Z</time>
      </trkpt>
      <trkpt lat="37.5978393852710723876953125" lon="-1.869862116873264312744140625">
        <ele>663.20001220703125</ele>
        <time>2019-10-27T08:08:29.000Z</time>
      </trkpt>
      <trkpt lat="37.59785807691514492034912109375" lon="-1.87008985318243503570556640625">
        <ele>663.5999755859375</ele>
        <time>2019-10-27T08:08:36.000Z</time>
      </trkpt>
      <trkpt lat="37.59786226786673069000244140625" lon="-1.870320774614810943603515625">
        <ele>663.5999755859375</ele>
        <time>2019-10-27T08:08:43.000Z</time>
      </trkpt>
      <trkpt lat="37.59787886403501033782958984375" lon="-1.8705470860004425048828125">
        <ele>664.4000244140625</ele>
        <time>2019-10-27T08:08:50.000Z</time>
      </trkpt>
      <trkpt lat="37.59793971665203571319580078125" lon="-1.870792172849178314208984375">
        <ele>665.4000244140625</ele>
        <time>2019-10-27T08:08:58.000Z</time>
      </trkpt>
      <trkpt lat="37.59803443215787410736083984375" lon="-1.871012784540653228759765625">
        <ele>666.5999755859375</ele>
        <time>2019-10-27T08:09:06.000Z</time>
      </trkpt>
      <trkpt lat="37.59816871024668216705322265625" lon="-1.87116801738739013671875">
        <ele>669.4000244140625</ele>
        <time>2019-10-27T08:09:13.000Z</time>
      </trkpt>
      <trkpt lat="37.59833894670009613037109375" lon="-1.87129064463078975677490234375">
        <ele>672.4000244140625</ele>
        <time>2019-10-27T08:09:21.000Z</time>
      </trkpt>
      <trkpt lat="37.598505914211273193359375" lon="-1.87139692716300487518310546875">
        <ele>673.5999755859375</ele>
        <time>2019-10-27T08:09:29.000Z</time>
      </trkpt>
      <trkpt lat="37.5986743904650211334228515625" lon="-1.8715088255703449249267578125">
        <ele>675</ele>
        <time>2019-10-27T08:09:37.000Z</time>
      </trkpt>
      <trkpt lat="37.5988239236176013946533203125" lon="-1.87163866125047206878662109375">
        <ele>675</ele>
        <time>2019-10-27T08:09:45.000Z</time>
      </trkpt>
      <trkpt lat="37.59896247647702693939208984375" lon="-1.87180311419069766998291015625">
        <ele>675</ele>
        <time>2019-10-27T08:09:53.000Z</time>
      </trkpt>
      <trkpt lat="37.5990592874586582183837890625" lon="-1.871998496353626251220703125">
        <ele>675.79998779296875</ele>
        <time>2019-10-27T08:10:01.000Z</time>
      </trkpt>
      <trkpt lat="37.59914704598486423492431640625" lon="-1.87221634201705455780029296875">
        <ele>676.5999755859375</ele>
        <time>2019-10-27T08:10:09.000Z</time>
      </trkpt>
      <trkpt lat="37.59920856915414333343505859375" lon="-1.87243930064141750335693359375">
        <ele>678.20001220703125</ele>
        <time>2019-10-27T08:10:17.000Z</time>
      </trkpt>
      <trkpt lat="37.59924813173711299896240234375" lon="-1.872668378055095672607421875">
        <ele>679.79998779296875</ele>
        <time>2019-10-27T08:10:25.000Z</time>
      </trkpt>
      <trkpt lat="37.59928031824529170989990234375" lon="-1.8729183264076709747314453125">
        <ele>681</ele>
        <time>2019-10-27T08:10:34.000Z</time>
      </trkpt>
      <trkpt lat="37.5992745347321033477783203125" lon="-1.8731536902487277984619140625">
        <ele>682</ele>
        <time>2019-10-27T08:10:42.000Z</time>
      </trkpt>
      <trkpt lat="37.59926162660121917724609375" lon="-1.873389221727848052978515625">
        <ele>683.79998779296875</ele>
        <time>2019-10-27T08:10:50.000Z</time>
      </trkpt>
      <trkpt lat="37.59927235543727874755859375" lon="-1.87363841570913791656494140625">
        <ele>684.20001220703125</ele>
        <time>2019-10-27T08:10:59.000Z</time>
      </trkpt>
      <trkpt lat="37.59930931963026523590087890625" lon="-1.8738676607608795166015625">
        <ele>685.5999755859375</ele>
        <time>2019-10-27T08:11:07.000Z</time>
      </trkpt>
      <trkpt lat="37.59937704540789127349853515625" lon="-1.8740897811949253082275390625">
        <ele>687.20001220703125</ele>
        <time>2019-10-27T08:11:15.000Z</time>
      </trkpt>
      <trkpt lat="37.59948131628334522247314453125" lon="-1.874298155307769775390625">
        <ele>689</ele>
        <time>2019-10-27T08:11:23.000Z</time>
      </trkpt>
      <trkpt lat="37.59956077672541141510009765625" lon="-1.87441944144666194915771484375">
        <ele>688.79998779296875</ele>
        <time>2019-10-27T08:11:28.000Z</time>
      </trkpt>
      <trkpt lat="37.5997077114880084991455078125" lon="-1.87459562905132770538330078125">
        <ele>690</ele>
        <time>2019-10-27T08:11:36.000Z</time>
      </trkpt>
      <trkpt lat="37.59985498152673244476318359375" lon="-1.874761171638965606689453125">
        <ele>688.79998779296875</ele>
        <time>2019-10-27T08:11:44.000Z</time>
      </trkpt>
      <trkpt lat="37.60001264512538909912109375" lon="-1.8749145604670047760009765625">
        <ele>688.5999755859375</ele>
        <time>2019-10-27T08:11:52.000Z</time>
      </trkpt>
      <trkpt lat="37.600155808031558990478515625" lon="-1.87506870366632938385009765625">
        <ele>688</ele>
        <time>2019-10-27T08:12:00.000Z</time>
      </trkpt>
      <trkpt lat="37.600269131362438201904296875" lon="-1.875256709754467010498046875">
        <ele>687.79998779296875</ele>
        <time>2019-10-27T08:12:07.000Z</time>
      </trkpt>
      <trkpt lat="37.60035571642220020294189453125" lon="-1.87545527704060077667236328125">
        <ele>688</ele>
        <time>2019-10-27T08:12:14.000Z</time>
      </trkpt>
      <trkpt lat="37.60043500922620296478271484375" lon="-1.8756940774619579315185546875">
        <ele>688.20001220703125</ele>
        <time>2019-10-27T08:12:22.000Z</time>
      </trkpt>
      <trkpt lat="37.6004848815500736236572265625" lon="-1.87591611407697200775146484375">
        <ele>689.5999755859375</ele>
        <time>2019-10-27T08:12:29.000Z</time>
      </trkpt>
      <trkpt lat="37.600539363920688629150390625" lon="-1.8761368095874786376953125">
        <ele>691.20001220703125</ele>
        <time>2019-10-27T08:12:36.000Z</time>
      </trkpt>
      <trkpt lat="37.6006315648555755615234375" lon="-1.876367144286632537841796875">
        <ele>692.79998779296875</ele>
        <time>2019-10-27T08:12:44.000Z</time>
      </trkpt>
      <trkpt lat="37.6007537730038166046142578125" lon="-1.87655146233737468719482421875">
        <ele>694.4000244140625</ele>
        <time>2019-10-27T08:12:52.000Z</time>
      </trkpt>
      <trkpt lat="37.6008878834545612335205078125" lon="-1.87670434825122356414794921875">
        <ele>695</ele>
        <time>2019-10-27T08:13:00.000Z</time>
      </trkpt>
      <trkpt lat="37.60103079490363597869873046875" lon="-1.87685270793735980987548828125">
        <ele>696.20001220703125</ele>
        <time>2019-10-27T08:13:08.000Z</time>
      </trkpt>
      <trkpt lat="37.6011721976101398468017578125" lon="-1.87701414339244365692138671875">
        <ele>697.20001220703125</ele>
        <time>2019-10-27T08:13:16.000Z</time>
      </trkpt>
      <trkpt lat="37.6013150252401828765869140625" lon="-1.87718345783650875091552734375">
        <ele>699</ele>
        <time>2019-10-27T08:13:24.000Z</time>
      </trkpt>
      <trkpt lat="37.60143480263650417327880859375" lon="-1.87737372703850269317626953125">
        <ele>701.4000244140625</ele>
        <time>2019-10-27T08:13:32.000Z</time>
      </trkpt>
      <trkpt lat="37.60153211653232574462890625" lon="-1.87757707200944423675537109375">
        <ele>702.79998779296875</ele>
        <time>2019-10-27T08:13:40.000Z</time>
      </trkpt>
      <trkpt lat="37.60161870159208774566650390625" lon="-1.87778645195066928863525390625">
        <ele>703</ele>
        <time>2019-10-27T08:13:48.000Z</time>
      </trkpt>
      <trkpt lat="37.6017178595066070556640625" lon="-1.87799700535833835601806640625">
        <ele>703</ele>
        <time>2019-10-27T08:13:56.000Z</time>
      </trkpt>
      <trkpt lat="37.60181902907788753509521484375" lon="-1.878216527402400970458984375">
        <ele>703.79998779296875</ele>
        <time>2019-10-27T08:14:04.000Z</time>
      </trkpt>
      <trkpt lat="37.60190494358539581298828125" lon="-1.878438480198383331298828125">
        <ele>705</ele>
        <time>2019-10-27T08:14:12.000Z</time>
      </trkpt>
      <trkpt lat="37.60195330716669559478759765625" lon="-1.87868013046681880950927734375">
        <ele>705.79998779296875</ele>
        <time>2019-10-27T08:14:20.000Z</time>
      </trkpt>
      <trkpt lat="37.601985074579715728759765625" lon="-1.8789281509816646575927734375">
        <ele>705.79998779296875</ele>
        <time>2019-10-27T08:14:28.000Z</time>
      </trkpt>
      <trkpt lat="37.60201198048889636993408203125" lon="-1.87917432747781276702880859375">
        <ele>705.5999755859375</ele>
        <time>2019-10-27T08:14:36.000Z</time>
      </trkpt>
      <trkpt lat="37.60205514729022979736328125" lon="-1.87942092306911945343017578125">
        <ele>706.4000244140625</ele>
        <time>2019-10-27T08:14:44.000Z</time>
      </trkpt>
      <trkpt lat="37.60210854001343250274658203125" lon="-1.87964304350316524505615234375">
        <ele>706.79998779296875</ele>
        <time>2019-10-27T08:14:51.000Z</time>
      </trkpt>
      <trkpt lat="37.602193616330623626708984375" lon="-1.87987404875457286834716796875">
        <ele>708.20001220703125</ele>
        <time>2019-10-27T08:14:59.000Z</time>
      </trkpt>
      <trkpt lat="37.6022833026945590972900390625" lon="-1.880080662667751312255859375">
        <ele>709</ele>
        <time>2019-10-27T08:15:06.000Z</time>
      </trkpt>
      <trkpt lat="37.60237474925816059112548828125" lon="-1.8802883662283420562744140625">
        <ele>709.20001220703125</ele>
        <time>2019-10-27T08:15:13.000Z</time>
      </trkpt>
      <trkpt lat="37.60246225632727146148681640625" lon="-1.88049028627574443817138671875">
        <ele>709.20001220703125</ele>
        <time>2019-10-27T08:15:20.000Z</time>
      </trkpt>
      <trkpt lat="37.60255965404212474822998046875" lon="-1.8806876800954341888427734375">
        <ele>709.20001220703125</ele>
        <time>2019-10-27T08:15:27.000Z</time>
      </trkpt>
      <trkpt lat="37.6026591472327709197998046875" lon="-1.88091315329074859619140625">
        <ele>707.5999755859375</ele>
        <time>2019-10-27T08:15:35.000Z</time>
      </trkpt>
      <trkpt lat="37.60273416526615619659423828125" lon="-1.8811416439712047576904296875">
        <ele>708.4000244140625</ele>
        <time>2019-10-27T08:15:43.000Z</time>
      </trkpt>
      <trkpt lat="37.60277791880071163177490234375" lon="-1.88138631172478199005126953125">
        <ele>711</ele>
        <time>2019-10-27T08:15:51.000Z</time>
      </trkpt>
      <trkpt lat="37.6027774997055530548095703125" lon="-1.88163156621158123016357421875">
        <ele>713.5999755859375</ele>
        <time>2019-10-27T08:15:59.000Z</time>
      </trkpt>
      <trkpt lat="37.60273081250488758087158203125" lon="-1.88187397085130214691162109375">
        <ele>716</ele>
        <time>2019-10-27T08:16:07.000Z</time>
      </trkpt>
      <trkpt lat="37.60264498181641101837158203125" lon="-1.882076561450958251953125">
        <ele>718.20001220703125</ele>
        <time>2019-10-27T08:16:14.000Z</time>
      </trkpt>
      <trkpt lat="37.6025278866291046142578125" lon="-1.8822557665407657623291015625">
        <ele>718.79998779296875</ele>
        <time>2019-10-27T08:16:21.000Z</time>
      </trkpt>
      <trkpt lat="37.60236360132694244384765625" lon="-1.88241879455745220184326171875">
        <ele>719.4000244140625</ele>
        <time>2019-10-27T08:16:28.000Z</time>
      </trkpt>
      <trkpt lat="37.6021890901029109954833984375" lon="-1.88255609013140201568603515625">
        <ele>719.79998779296875</ele>
        <time>2019-10-27T08:16:35.000Z</time>
      </trkpt>
      <trkpt lat="37.6020237989723682403564453125" lon="-1.88268265686929225921630859375">
        <ele>720.79998779296875</ele>
        <time>2019-10-27T08:16:42.000Z</time>
      </trkpt>
      <trkpt lat="37.6018692366778850555419921875" lon="-1.88280545175075531005859375">
        <ele>721</ele>
        <time>2019-10-27T08:16:49.000Z</time>
      </trkpt>
      <trkpt lat="37.601720876991748809814453125" lon="-1.88293629325926303863525390625">
        <ele>721</ele>
        <time>2019-10-27T08:16:56.000Z</time>
      </trkpt>
      <trkpt lat="37.60157637298107147216796875" lon="-1.88309253193438053131103515625">
        <ele>719.79998779296875</ele>
        <time>2019-10-27T08:17:03.000Z</time>
      </trkpt>
      <trkpt lat="37.601446621119976043701171875" lon="-1.88327592797577381134033203125">
        <ele>719.20001220703125</ele>
        <time>2019-10-27T08:17:10.000Z</time>
      </trkpt>
      <trkpt lat="37.60132818482816219329833984375" lon="-1.88345454633235931396484375">
        <ele>719.4000244140625</ele>
        <time>2019-10-27T08:17:17.000Z</time>
      </trkpt>
      <trkpt lat="37.60124956257641315460205078125" lon="-1.88358237035572528839111328125">
        <ele>719.79998779296875</ele>
        <time>2019-10-27T08:17:22.000Z</time>
      </trkpt>
      <trkpt lat="37.6011413522064685821533203125" lon="-1.88376392237842082977294921875">
        <ele>720.20001220703125</ele>
        <time>2019-10-27T08:17:29.000Z</time>
      </trkpt>
      <trkpt lat="37.60104906745254993438720703125" lon="-1.88397816382348537445068359375">
        <ele>720.20001220703125</ele>
        <time>2019-10-27T08:17:37.000Z</time>
      </trkpt>
      <trkpt lat="37.60098285041749477386474609375" lon="-1.8841933272778987884521484375">
        <ele>720.4000244140625</ele>
        <time>2019-10-27T08:17:44.000Z</time>
      </trkpt>
      <trkpt lat="37.60092996060848236083984375" lon="-1.88444830477237701416015625">
        <ele>720.20001220703125</ele>
        <time>2019-10-27T08:17:51.000Z</time>
      </trkpt>
      <trkpt lat="37.60090808384120464324951171875" lon="-1.88469883985817432403564453125">
        <ele>719.79998779296875</ele>
        <time>2019-10-27T08:17:57.000Z</time>
      </trkpt>
      <trkpt lat="37.60091328062117099761962890625" lon="-1.88493378460407257080078125">
        <ele>719.79998779296875</ele>
        <time>2019-10-27T08:18:02.000Z</time>
      </trkpt>
      <trkpt lat="37.60093591175973415374755859375" lon="-1.8852072022855281829833984375">
        <ele>720.5999755859375</ele>
        <time>2019-10-27T08:18:07.000Z</time>
      </trkpt>
      <trkpt lat="37.6009626500308513641357421875" lon="-1.88543275929987430572509765625">
        <ele>721</ele>
        <time>2019-10-27T08:18:11.000Z</time>
      </trkpt>
      <trkpt lat="37.600995339453220367431640625" lon="-1.88567985780537128448486328125">
        <ele>721.20001220703125</ele>
        <time>2019-10-27T08:18:16.000Z</time>
      </trkpt>
      <trkpt lat="37.60103431530296802520751953125" lon="-1.88590482808649539947509765625">
        <ele>721.79998779296875</ele>
        <time>2019-10-27T08:18:22.000Z</time>
      </trkpt>
      <trkpt lat="37.60108343325555324554443359375" lon="-1.88613465987145900726318359375">
        <ele>722.79998779296875</ele>
        <time>2019-10-27T08:18:29.000Z</time>
      </trkpt>
      <trkpt lat="37.6011450402438640594482421875" lon="-1.88637522049248218536376953125">
        <ele>724.20001220703125</ele>
        <time>2019-10-27T08:18:37.000Z</time>
      </trkpt>
      <trkpt lat="37.60119876824319362640380859375" lon="-1.88661561347544193267822265625">
        <ele>725.20001220703125</ele>
        <time>2019-10-27T08:18:45.000Z</time>
      </trkpt>
      <trkpt lat="37.60125375352799892425537109375" lon="-1.886853240430355072021484375">
        <ele>725.4000244140625</ele>
        <time>2019-10-27T08:18:53.000Z</time>
      </trkpt>
      <trkpt lat="37.6013250835239887237548828125" lon="-1.8870968185365200042724609375">
        <ele>726.20001220703125</ele>
        <time>2019-10-27T08:19:01.000Z</time>
      </trkpt>
      <trkpt lat="37.60139255784451961517333984375" lon="-1.8873100541532039642333984375">
        <ele>727.20001220703125</ele>
        <time>2019-10-27T08:19:08.000Z</time>
      </trkpt>
      <trkpt lat="37.60146548040211200714111328125" lon="-1.88755170442163944244384765625">
        <ele>728</ele>
        <time>2019-10-27T08:19:16.000Z</time>
      </trkpt>
      <trkpt lat="37.60154359973967075347900390625" lon="-1.8877864815294742584228515625">
        <ele>729.4000244140625</ele>
        <time>2019-10-27T08:19:24.000Z</time>
      </trkpt>
      <trkpt lat="37.6016271673142910003662109375" lon="-1.88801690004765987396240234375">
        <ele>729.5999755859375</ele>
        <time>2019-10-27T08:19:32.000Z</time>
      </trkpt>
      <trkpt lat="37.6017200388014316558837890625" lon="-1.888243965804576873779296875">
        <ele>729.4000244140625</ele>
        <time>2019-10-27T08:19:40.000Z</time>
      </trkpt>
      <trkpt lat="37.60183026082813739776611328125" lon="-1.88845686614513397216796875">
        <ele>729.20001220703125</ele>
        <time>2019-10-27T08:19:48.000Z</time>
      </trkpt>
      <trkpt lat="37.6019673049449920654296875" lon="-1.8886464647948741912841796875">
        <ele>729.5999755859375</ele>
        <time>2019-10-27T08:19:56.000Z</time>
      </trkpt>
      <trkpt lat="37.6021046005189418792724609375" lon="-1.88882030546665191650390625">
        <ele>729.5999755859375</ele>
        <time>2019-10-27T08:20:03.000Z</time>
      </trkpt>
      <trkpt lat="37.60225455276668071746826171875" lon="-1.88899775035679340362548828125">
        <ele>730</ele>
        <time>2019-10-27T08:20:10.000Z</time>
      </trkpt>
      <trkpt lat="37.602396793663501739501953125" lon="-1.88916094601154327392578125">
        <ele>730.4000244140625</ele>
        <time>2019-10-27T08:20:17.000Z</time>
      </trkpt>
      <trkpt lat="37.60251648724079132080078125" lon="-1.8893740139901638031005859375">
        <ele>730.20001220703125</ele>
        <time>2019-10-27T08:20:25.000Z</time>
      </trkpt>
      <trkpt lat="37.60260391049087047576904296875" lon="-1.88962094485759735107421875">
        <ele>730.5999755859375</ele>
        <time>2019-10-27T08:20:31.000Z</time>
      </trkpt>
      <trkpt lat="37.6026511006057262420654296875" lon="-1.8898115493357181549072265625">
        <ele>730.20001220703125</ele>
        <time>2019-10-27T08:20:52.000Z</time>
      </trkpt>
      <trkpt lat="37.60268119163811206817626953125" lon="-1.8900494277477264404296875">
        <ele>730</ele>
        <time>2019-10-27T08:21:01.000Z</time>
      </trkpt>
      <trkpt lat="37.60274003259837627410888671875" lon="-1.890278756618499755859375">
        <ele>730.20001220703125</ele>
        <time>2019-10-27T08:21:07.000Z</time>
      </trkpt>
      <trkpt lat="37.60283122770488262176513671875" lon="-1.89048570580780506134033203125">
        <ele>730.5999755859375</ele>
        <time>2019-10-27T08:21:13.000Z</time>
      </trkpt>
      <trkpt lat="37.60297221131622791290283203125" lon="-1.89065493643283843994140625">
        <ele>730</ele>
        <time>2019-10-27T08:21:20.000Z</time>
      </trkpt>
      <trkpt lat="37.60314320214092731475830078125" lon="-1.8907828442752361297607421875">
        <ele>728.20001220703125</ele>
        <time>2019-10-27T08:21:26.000Z</time>
      </trkpt>
      <trkpt lat="37.6033186353743076324462890625" lon="-1.89088870771229267120361328125">
        <ele>727.5999755859375</ele>
        <time>2019-10-27T08:21:31.000Z</time>
      </trkpt>
      <trkpt lat="37.60350731201469898223876953125" lon="-1.8910337984561920166015625">
        <ele>727.20001220703125</ele>
        <time>2019-10-27T08:21:36.000Z</time>
      </trkpt>
      <trkpt lat="37.60364896617829799652099609375" lon="-1.89119716174900531768798828125">
        <ele>726.5999755859375</ele>
        <time>2019-10-27T08:21:40.000Z</time>
      </trkpt>
      <trkpt lat="37.6037471182644367218017578125" lon="-1.8914186954498291015625">
        <ele>727.79998779296875</ele>
        <time>2019-10-27T08:21:44.000Z</time>
      </trkpt>
      <trkpt lat="37.60380486957728862762451171875" lon="-1.89167660661041736602783203125">
        <ele>729.20001220703125</ele>
        <time>2019-10-27T08:21:48.000Z</time>
      </trkpt>
      <trkpt lat="37.603804953396320343017578125" lon="-1.89188095740973949432373046875">
        <ele>729.20001220703125</ele>
        <time>2019-10-27T08:21:51.000Z</time>
      </trkpt>
      <trkpt lat="37.6037850044667720794677734375" lon="-1.89201909117400646209716796875">
        <ele>729.4000244140625</ele>
        <time>2019-10-27T08:21:53.000Z</time>
      </trkpt>
      <trkpt lat="37.60371216572821140289306640625" lon="-1.8922878988087177276611328125">
        <ele>727.5999755859375</ele>
        <time>2019-10-27T08:21:57.000Z</time>
      </trkpt>
      <trkpt lat="37.60365382768213748931884765625" lon="-1.892504990100860595703125">
        <ele>726</ele>
        <time>2019-10-27T08:22:00.000Z</time>
      </trkpt>
      <trkpt lat="37.603617869317531585693359375" lon="-1.8927361629903316497802734375">
        <ele>725</ele>
        <time>2019-10-27T08:22:03.000Z</time>
      </trkpt>
      <trkpt lat="37.60361728258430957794189453125" lon="-1.892815120518207550048828125">
        <ele>724.5999755859375</ele>
        <time>2019-10-27T08:22:04.000Z</time>
      </trkpt>
      <trkpt lat="37.60364796034991741180419921875" lon="-1.89305149018764495849609375">
        <ele>723.79998779296875</ele>
        <time>2019-10-27T08:22:07.000Z</time>
      </trkpt>
      <trkpt lat="37.60371903888881206512451171875" lon="-1.8932732753455638885498046875">
        <ele>723.20001220703125</ele>
        <time>2019-10-27T08:22:10.000Z</time>
      </trkpt>
      <trkpt lat="37.6037980802357196807861328125" lon="-1.893483661115169525146484375">
        <ele>723</ele>
        <time>2019-10-27T08:22:13.000Z</time>
      </trkpt>
      <trkpt lat="37.60390461422502994537353515625" lon="-1.8937510438263416290283203125">
        <ele>723.4000244140625</ele>
        <time>2019-10-27T08:22:17.000Z</time>
      </trkpt>
      <trkpt lat="37.6040039397776126861572265625" lon="-1.89399906434118747711181640625">
        <ele>723.4000244140625</ele>
        <time>2019-10-27T08:22:21.000Z</time>
      </trkpt>
      <trkpt lat="37.60411298833787441253662109375" lon="-1.89422990195453166961669921875">
        <ele>723.20001220703125</ele>
        <time>2019-10-27T08:22:25.000Z</time>
      </trkpt>
      <trkpt lat="37.6042272336781024932861328125" lon="-1.89444380812346935272216796875">
        <ele>723.4000244140625</ele>
        <time>2019-10-27T08:22:29.000Z</time>
      </trkpt>
      <trkpt lat="37.60434885509312152862548828125" lon="-1.89463340677320957183837890625">
        <ele>721.5999755859375</ele>
        <time>2019-10-27T08:22:33.000Z</time>
      </trkpt>
      <trkpt lat="37.6044699735939502716064453125" lon="-1.89480322413146495819091796875">
        <ele>720.79998779296875</ele>
        <time>2019-10-27T08:22:37.000Z</time>
      </trkpt>
      <trkpt lat="37.6045588217675685882568359375" lon="-1.8949228338897228240966796875">
        <ele>720.4000244140625</ele>
        <time>2019-10-27T08:22:40.000Z</time>
      </trkpt>
      <trkpt lat="37.6047160662710666656494140625" lon="-1.89511754550039768218994140625">
        <ele>720.4000244140625</ele>
        <time>2019-10-27T08:22:45.000Z</time>
      </trkpt>
      <trkpt lat="37.604853026568889617919921875" lon="-1.895290128886699676513671875">
        <ele>721.20001220703125</ele>
        <time>2019-10-27T08:22:49.000Z</time>
      </trkpt>
      <trkpt lat="37.60500180535018444061279296875" lon="-1.895473189651966094970703125">
        <ele>722</ele>
        <time>2019-10-27T08:22:53.000Z</time>
      </trkpt>
      <trkpt lat="37.6051388494670391082763671875" lon="-1.89566002227365970611572265625">
        <ele>721.5999755859375</ele>
        <time>2019-10-27T08:22:57.000Z</time>
      </trkpt>
      <trkpt lat="37.6051698625087738037109375" lon="-1.8957077153027057647705078125">
        <ele>721.4000244140625</ele>
        <time>2019-10-27T08:22:58.000Z</time>
      </trkpt>
      <trkpt lat="37.60529114864766597747802734375" lon="-1.89591365866363048553466796875">
        <ele>721</ele>
        <time>2019-10-27T08:23:03.000Z</time>
      </trkpt>
      <trkpt lat="37.6053074933588504791259765625" lon="-1.89595506526529788970947265625">
        <ele>721</ele>
        <time>2019-10-27T08:23:04.000Z</time>
      </trkpt>
      <trkpt lat="37.6053980179131031036376953125" lon="-1.8961958773434162139892578125">
        <ele>720</ele>
        <time>2019-10-27T08:23:10.000Z</time>
      </trkpt>
      <trkpt lat="37.60544520802795886993408203125" lon="-1.8964285589754581451416015625">
        <ele>721.5999755859375</ele>
        <time>2019-10-27T08:23:15.000Z</time>
      </trkpt>
      <trkpt lat="37.6054798252880573272705078125" lon="-1.89669149927794933319091796875">
        <ele>722.79998779296875</ele>
        <time>2019-10-27T08:23:20.000Z</time>
      </trkpt>
      <trkpt lat="37.60551310144364833831787109375" lon="-1.896926946938037872314453125">
        <ele>723.4000244140625</ele>
        <time>2019-10-27T08:23:24.000Z</time>
      </trkpt>
      <trkpt lat="37.60554092936217784881591796875" lon="-1.8971775658428668975830078125">
        <ele>723</ele>
        <time>2019-10-27T08:23:28.000Z</time>
      </trkpt>
      <trkpt lat="37.60558359324932098388671875" lon="-1.8974494747817516326904296875">
        <ele>721.5999755859375</ele>
        <time>2019-10-27T08:23:32.000Z</time>
      </trkpt>
      <trkpt lat="37.60562407784163951873779296875" lon="-1.897676289081573486328125">
        <ele>720.5999755859375</ele>
        <time>2019-10-27T08:23:35.000Z</time>
      </trkpt>
      <trkpt lat="37.605669088661670684814453125" lon="-1.89791123382747173309326171875">
        <ele>720.5999755859375</ele>
        <time>2019-10-27T08:23:38.000Z</time>
      </trkpt>
      <trkpt lat="37.60572885163128376007080078125" lon="-1.89814877696335315704345703125">
        <ele>721.79998779296875</ele>
        <time>2019-10-27T08:23:41.000Z</time>
      </trkpt>
      <trkpt lat="37.60579238645732402801513671875" lon="-1.89829881303012371063232421875">
        <ele>721.20001220703125</ele>
        <time>2019-10-27T08:23:43.000Z</time>
      </trkpt>
      <trkpt lat="37.60591685771942138671875" lon="-1.898506097495555877685546875">
        <ele>719.20001220703125</ele>
        <time>2019-10-27T08:23:46.000Z</time>
      </trkpt>
      <trkpt lat="37.60606144554913043975830078125" lon="-1.8986973725259304046630859375">
        <ele>718.4000244140625</ele>
        <time>2019-10-27T08:23:49.000Z</time>
      </trkpt>
      <trkpt lat="37.6062291674315929412841796875" lon="-1.89887532033026218414306640625">
        <ele>717.5999755859375</ele>
        <time>2019-10-27T08:23:52.000Z</time>
      </trkpt>
      <trkpt lat="37.60640946216881275177001953125" lon="-1.89903952181339263916015625">
        <ele>717.4000244140625</ele>
        <time>2019-10-27T08:23:55.000Z</time>
      </trkpt>
      <trkpt lat="37.60658112354576587677001953125" lon="-1.8991972692310810089111328125">
        <ele>718.20001220703125</ele>
        <time>2019-10-27T08:23:58.000Z</time>
      </trkpt>
      <trkpt lat="37.60673367418348789215087890625" lon="-1.89933666028082370758056640625">
        <ele>718.5999755859375</ele>
        <time>2019-10-27T08:24:01.000Z</time>
      </trkpt>
      <trkpt lat="37.60688580572605133056640625" lon="-1.89948921091854572296142578125">
        <ele>719.5999755859375</ele>
        <time>2019-10-27T08:24:05.000Z</time>
      </trkpt>
      <trkpt lat="37.60702662169933319091796875" lon="-1.89963472075760364532470703125">
        <ele>720.4000244140625</ele>
        <time>2019-10-27T08:24:10.000Z</time>
      </trkpt>
      <trkpt lat="37.60717188008129596710205078125" lon="-1.8997870199382305145263671875">
        <ele>721.5999755859375</ele>
        <time>2019-10-27T08:24:16.000Z</time>
      </trkpt>
      <trkpt lat="37.60733800940215587615966796875" lon="-1.899934373795986175537109375">
        <ele>721.79998779296875</ele>
        <time>2019-10-27T08:24:22.000Z</time>
      </trkpt>
      <trkpt lat="37.60736365802586078643798828125" lon="-1.899960525333881378173828125">
        <ele>721.5999755859375</ele>
        <time>2019-10-27T08:24:23.000Z</time>
      </trkpt>
      <trkpt lat="37.6075216569006443023681640625" lon="-1.90010209567844867706298828125">
        <ele>723</ele>
        <time>2019-10-27T08:24:29.000Z</time>
      </trkpt>
      <trkpt lat="37.60755007155239582061767578125" lon="-1.90012422390282154083251953125">
        <ele>723</ele>
        <time>2019-10-27T08:24:30.000Z</time>
      </trkpt>
      <trkpt lat="37.6076664961874485015869140625" lon="-1.90021676011383533477783203125">
        <ele>722.4000244140625</ele>
        <time>2019-10-27T08:24:34.000Z</time>
      </trkpt>
      <trkpt lat="37.60782365687191486358642578125" lon="-1.90036729909479618072509765625">
        <ele>722.79998779296875</ele>
        <time>2019-10-27T08:24:40.000Z</time>
      </trkpt>
      <trkpt lat="37.60798660106956958770751953125" lon="-1.900529824197292327880859375">
        <ele>723.5999755859375</ele>
        <time>2019-10-27T08:24:46.000Z</time>
      </trkpt>
      <trkpt lat="37.60814703069627285003662109375" lon="-1.9006895832717418670654296875">
        <ele>724.79998779296875</ele>
        <time>2019-10-27T08:24:52.000Z</time>
      </trkpt>
      <trkpt lat="37.60830762796103954315185546875" lon="-1.90084724687039852142333984375">
        <ele>724.79998779296875</ele>
        <time>2019-10-27T08:24:58.000Z</time>
      </trkpt>
      <trkpt lat="37.60846671648323535919189453125" lon="-1.90099074505269527435302734375">
        <ele>724.20001220703125</ele>
        <time>2019-10-27T08:25:04.000Z</time>
      </trkpt>
      <trkpt lat="37.60862228460609912872314453125" lon="-1.90115150995552539825439453125">
        <ele>723.5999755859375</ele>
        <time>2019-10-27T08:25:10.000Z</time>
      </trkpt>
      <trkpt lat="37.60878589935600757598876953125" lon="-1.9012984447181224822998046875">
        <ele>723</ele>
        <time>2019-10-27T08:25:16.000Z</time>
      </trkpt>
      <trkpt lat="37.6089475862681865692138671875" lon="-1.90145610831677913665771484375">
        <ele>722.4000244140625</ele>
        <time>2019-10-27T08:25:22.000Z</time>
      </trkpt>
      <trkpt lat="37.609103657305240631103515625" lon="-1.90161117352545261383056640625">
        <ele>722.4000244140625</ele>
        <time>2019-10-27T08:25:28.000Z</time>
      </trkpt>
      <trkpt lat="37.609262578189373016357421875" lon="-1.901777721941471099853515625">
        <ele>722.5999755859375</ele>
        <time>2019-10-27T08:25:34.000Z</time>
      </trkpt>
      <trkpt lat="37.60934262536466121673583984375" lon="-1.9018647260963916778564453125">
        <ele>722.20001220703125</ele>
        <time>2019-10-27T08:25:37.000Z</time>
      </trkpt>
      <trkpt lat="37.6094786636531352996826171875" lon="-1.9020166061818599700927734375">
        <ele>722.79998779296875</ele>
        <time>2019-10-27T08:25:42.000Z</time>
      </trkpt>
      <trkpt lat="37.60962425731122493743896484375" lon="-1.9021758623421192169189453125">
        <ele>723.4000244140625</ele>
        <time>2019-10-27T08:25:47.000Z</time>
      </trkpt>
      <trkpt lat="37.60975752957165241241455078125" lon="-1.90233193337917327880859375">
        <ele>723</ele>
        <time>2019-10-27T08:25:52.000Z</time>
      </trkpt>
      <trkpt lat="37.6098833419382572174072265625" lon="-1.90249663777649402618408203125">
        <ele>723.5999755859375</ele>
        <time>2019-10-27T08:25:57.000Z</time>
      </trkpt>
      <trkpt lat="37.60999456979334354400634765625" lon="-1.90269428305327892303466796875">
        <ele>723.79998779296875</ele>
        <time>2019-10-27T08:26:02.000Z</time>
      </trkpt>
      <trkpt lat="37.610099427402019500732421875" lon="-1.90292679704725742340087890625">
        <ele>725</ele>
        <time>2019-10-27T08:26:08.000Z</time>
      </trkpt>
      <trkpt lat="37.610189951956272125244140625" lon="-1.903126202523708343505859375">
        <ele>725.79998779296875</ele>
        <time>2019-10-27T08:26:13.000Z</time>
      </trkpt>
      <trkpt lat="37.610296905040740966796875" lon="-1.903335750102996826171875">
        <ele>725.20001220703125</ele>
        <time>2019-10-27T08:26:18.000Z</time>
      </trkpt>
      <trkpt lat="37.61038751341402530670166015625" lon="-1.9035436213016510009765625">
        <ele>723.79998779296875</ele>
        <time>2019-10-27T08:26:23.000Z</time>
      </trkpt>
      <trkpt lat="37.6104771159589290618896484375" lon="-1.9037550128996372222900390625">
        <ele>723.4000244140625</ele>
        <time>2019-10-27T08:26:28.000Z</time>
      </trkpt>
      <trkpt lat="37.6105619408190250396728515625" lon="-1.90398124046623706817626953125">
        <ele>723.20001220703125</ele>
        <time>2019-10-27T08:26:33.000Z</time>
      </trkpt>
      <trkpt lat="37.610639892518520355224609375" lon="-1.90420486964285373687744140625">
        <ele>723.4000244140625</ele>
        <time>2019-10-27T08:26:38.000Z</time>
      </trkpt>
      <trkpt lat="37.6107232086360454559326171875" lon="-1.90443210303783416748046875">
        <ele>725.20001220703125</ele>
        <time>2019-10-27T08:26:43.000Z</time>
      </trkpt>
      <trkpt lat="37.6108093746006488800048828125" lon="-1.90466218627989292144775390625">
        <ele>726.79998779296875</ele>
        <time>2019-10-27T08:26:48.000Z</time>
      </trkpt>
      <trkpt lat="37.6109522022306919097900390625" lon="-1.90485530532896518707275390625">
        <ele>727.5999755859375</ele>
        <time>2019-10-27T08:26:53.000Z</time>
      </trkpt>
      <trkpt lat="37.6111243665218353271484375" lon="-1.904985643923282623291015625">
        <ele>727.5999755859375</ele>
        <time>2019-10-27T08:26:58.000Z</time>
      </trkpt>
      <trkpt lat="37.611292339861392974853515625" lon="-1.90507759340107440948486328125">
        <ele>728</ele>
        <time>2019-10-27T08:27:03.000Z</time>
      </trkpt>
      <trkpt lat="37.61145805008709430694580078125" lon="-1.90517633222043514251708984375">
        <ele>728.4000244140625</ele>
        <time>2019-10-27T08:27:08.000Z</time>
      </trkpt>
      <trkpt lat="37.6116177253425121307373046875" lon="-1.9052855484187602996826171875">
        <ele>728.4000244140625</ele>
        <time>2019-10-27T08:27:13.000Z</time>
      </trkpt>
      <trkpt lat="37.6117763109505176544189453125" lon="-1.905402056872844696044921875">
        <ele>728.20001220703125</ele>
        <time>2019-10-27T08:27:18.000Z</time>
      </trkpt>
      <trkpt lat="37.6119355671107769012451171875" lon="-1.90552099607884883880615234375">
        <ele>727.5999755859375</ele>
        <time>2019-10-27T08:27:23.000Z</time>
      </trkpt>
      <trkpt lat="37.6121032051742076873779296875" lon="-1.90562392584979534149169921875">
        <ele>726.79998779296875</ele>
        <time>2019-10-27T08:27:28.000Z</time>
      </trkpt>
      <trkpt lat="37.61230948381125926971435546875" lon="-1.9056939147412776947021484375">
        <ele>726.20001220703125</ele>
        <time>2019-10-27T08:27:34.000Z</time>
      </trkpt>
      <trkpt lat="37.6125065423548221588134765625" lon="-1.90573875792324542999267578125">
        <ele>726.79998779296875</ele>
        <time>2019-10-27T08:27:40.000Z</time>
      </trkpt>
      <trkpt lat="37.61269622482359409332275390625" lon="-1.90578536130487918853759765625">
        <ele>727.20001220703125</ele>
        <time>2019-10-27T08:27:46.000Z</time>
      </trkpt>
      <trkpt lat="37.61289470829069614410400390625" lon="-1.90583632327616214752197265625">
        <ele>727.20001220703125</ele>
        <time>2019-10-27T08:27:52.000Z</time>
      </trkpt>
      <trkpt lat="37.6130842231214046478271484375" lon="-1.90589114092290401458740234375">
        <ele>728.4000244140625</ele>
        <time>2019-10-27T08:27:58.000Z</time>
      </trkpt>
      <trkpt lat="37.613267116248607635498046875" lon="-1.90598065964877605438232421875">
        <ele>729.4000244140625</ele>
        <time>2019-10-27T08:28:04.000Z</time>
      </trkpt>
      <trkpt lat="37.61342377401888370513916015625" lon="-1.906130611896514892578125">
        <ele>731.5999755859375</ele>
        <time>2019-10-27T08:28:10.000Z</time>
      </trkpt>
      <trkpt lat="37.613553442060947418212890625" lon="-1.90632062964141368865966796875">
        <ele>732.5999755859375</ele>
        <time>2019-10-27T08:28:16.000Z</time>
      </trkpt>
      <trkpt lat="37.61364229023456573486328125" lon="-1.90654098987579345703125">
        <ele>733.20001220703125</ele>
        <time>2019-10-27T08:28:22.000Z</time>
      </trkpt>
      <trkpt lat="37.61370305903255939483642578125" lon="-1.9067837297916412353515625">
        <ele>733.4000244140625</ele>
        <time>2019-10-27T08:28:28.000Z</time>
      </trkpt>
      <trkpt lat="37.6137393526732921600341796875" lon="-1.90702839754521846771240234375">
        <ele>734.5999755859375</ele>
        <time>2019-10-27T08:28:34.000Z</time>
      </trkpt>
      <trkpt lat="37.6137440465390682220458984375" lon="-1.9072868116199970245361328125">
        <ele>736.20001220703125</ele>
        <time>2019-10-27T08:28:40.000Z</time>
      </trkpt>
      <trkpt lat="37.6137135364115238189697265625" lon="-1.90753986127674579620361328125">
        <ele>737.79998779296875</ele>
        <time>2019-10-27T08:28:46.000Z</time>
      </trkpt>
      <trkpt lat="37.6136585511267185211181640625" lon="-1.9077803380787372589111328125">
        <ele>738.79998779296875</ele>
        <time>2019-10-27T08:28:52.000Z</time>
      </trkpt>
      <trkpt lat="37.61359803378582000732421875" lon="-1.90802064724266529083251953125">
        <ele>739.4000244140625</ele>
        <time>2019-10-27T08:28:58.000Z</time>
      </trkpt>
      <trkpt lat="37.61351748369634151458740234375" lon="-1.90823874436318874359130859375">
        <ele>740.4000244140625</ele>
        <time>2019-10-27T08:29:04.000Z</time>
      </trkpt>
      <trkpt lat="37.61341430246829986572265625" lon="-1.9084431789815425872802734375">
        <ele>742.20001220703125</ele>
        <time>2019-10-27T08:29:10.000Z</time>
      </trkpt>
      <trkpt lat="37.6133023202419281005859375" lon="-1.908630095422267913818359375">
        <ele>743.79998779296875</ele>
        <time>2019-10-27T08:29:16.000Z</time>
      </trkpt>
      <trkpt lat="37.61318991892039775848388671875" lon="-1.9088294170796871185302734375">
        <ele>744.79998779296875</ele>
        <time>2019-10-27T08:29:22.000Z</time>
      </trkpt>
      <trkpt lat="37.6131011545658111572265625" lon="-1.90906167961657047271728515625">
        <ele>744.4000244140625</ele>
        <time>2019-10-27T08:29:28.000Z</time>
      </trkpt>
      <trkpt lat="37.61301876045763492584228515625" lon="-1.90928631462156772613525390625">
        <ele>743.5999755859375</ele>
        <time>2019-10-27T08:29:34.000Z</time>
      </trkpt>
      <trkpt lat="37.6129407249391078948974609375" lon="-1.9095115363597869873046875">
        <ele>743</ele>
        <time>2019-10-27T08:29:40.000Z</time>
      </trkpt>
      <trkpt lat="37.6128642819821834564208984375" lon="-1.90975167788565158843994140625">
        <ele>742</ele>
        <time>2019-10-27T08:29:46.000Z</time>
      </trkpt>
      <trkpt lat="37.6127911917865276336669921875" lon="-1.90997379831969738006591796875">
        <ele>741.5999755859375</ele>
        <time>2019-10-27T08:29:51.000Z</time>
      </trkpt>
      <trkpt lat="37.612781636416912078857421875" lon="-1.91002308391034603118896484375">
        <ele>741.5999755859375</ele>
        <time>2019-10-27T08:29:52.000Z</time>
      </trkpt>
      <trkpt lat="37.6127697341144084930419921875" lon="-1.91027261316776275634765625">
        <ele>740.79998779296875</ele>
        <time>2019-10-27T08:29:57.000Z</time>
      </trkpt>
      <trkpt lat="37.61281742714345455169677734375" lon="-1.910524405539035797119140625">
        <ele>740</ele>
        <time>2019-10-27T08:30:03.000Z</time>
      </trkpt>
      <trkpt lat="37.612875513732433319091796875" lon="-1.91077812574803829193115234375">
        <ele>739.5999755859375</ele>
        <time>2019-10-27T08:30:09.000Z</time>
      </trkpt>
      <trkpt lat="37.61291868053376674652099609375" lon="-1.911005862057209014892578125">
        <ele>739.79998779296875</ele>
        <time>2019-10-27T08:30:14.000Z</time>
      </trkpt>
      <trkpt lat="37.61296645738184452056884765625" lon="-1.91123074851930141448974609375">
        <ele>740.4000244140625</ele>
        <time>2019-10-27T08:30:19.000Z</time>
      </trkpt>
      <trkpt lat="37.6130104623734951019287109375" lon="-1.91145655699074268341064453125">
        <ele>741.20001220703125</ele>
        <time>2019-10-27T08:30:24.000Z</time>
      </trkpt>
      <trkpt lat="37.6130560599267482757568359375" lon="-1.91170533187687397003173828125">
        <ele>742.5999755859375</ele>
        <time>2019-10-27T08:30:30.000Z</time>
      </trkpt>
      <trkpt lat="37.613113559782505035400390625" lon="-1.9119350798428058624267578125">
        <ele>743.5999755859375</ele>
        <time>2019-10-27T08:30:36.000Z</time>
      </trkpt>
      <trkpt lat="37.6132072694599628448486328125" lon="-1.9121392630040645599365234375">
        <ele>745</ele>
        <time>2019-10-27T08:30:43.000Z</time>
      </trkpt>
      <trkpt lat="37.6132790185511112213134765625" lon="-1.912323497235774993896484375">
        <ele>746</ele>
        <time>2019-10-27T08:30:52.000Z</time>
      </trkpt>
      <trkpt lat="37.61327885091304779052734375" lon="-1.91232441924512386322021484375">
        <ele>746</ele>
        <time>2019-10-27T08:30:57.000Z</time>
      </trkpt>
      <trkpt lat="37.61311917565762996673583984375" lon="-1.91294082440435886383056640625">
        <ele>749.20001220703125</ele>
        <time>2019-10-27T09:06:39.000Z</time>
      </trkpt>
      <trkpt lat="37.61309654451906681060791015625" lon="-1.91318775527179241180419921875">
        <ele>750.20001220703125</ele>
        <time>2019-10-27T09:06:49.000Z</time>
      </trkpt>
      <trkpt lat="37.61309838853776454925537109375" lon="-1.91343359649181365966796875">
        <ele>752</ele>
        <time>2019-10-27T09:06:57.000Z</time>
      </trkpt>
      <trkpt lat="37.6130701415240764617919921875" lon="-1.91366384737193584442138671875">
        <ele>753.4000244140625</ele>
        <time>2019-10-27T09:07:05.000Z</time>
      </trkpt>
      <trkpt lat="37.61305061168968677520751953125" lon="-1.91391647793352603912353515625">
        <ele>755.20001220703125</ele>
        <time>2019-10-27T09:07:14.000Z</time>
      </trkpt>
      <trkpt lat="37.61302948929369449615478515625" lon="-1.914148069918155670166015625">
        <ele>756.20001220703125</ele>
        <time>2019-10-27T09:07:22.000Z</time>
      </trkpt>
      <trkpt lat="37.61300937272608280181884765625" lon="-1.91438175737857818603515625">
        <ele>757.20001220703125</ele>
        <time>2019-10-27T09:07:30.000Z</time>
      </trkpt>
      <trkpt lat="37.61296913959085941314697265625" lon="-1.9146045483648777008056640625">
        <ele>758.4000244140625</ele>
        <time>2019-10-27T09:07:38.000Z</time>
      </trkpt>
      <trkpt lat="37.612915746867656707763671875" lon="-1.914843432605266571044921875">
        <ele>759.4000244140625</ele>
        <time>2019-10-27T09:07:47.000Z</time>
      </trkpt>
      <trkpt lat="37.6128465123474597930908203125" lon="-1.915051974356174468994140625">
        <ele>760.5999755859375</ele>
        <time>2019-10-27T09:07:55.000Z</time>
      </trkpt>
      <trkpt lat="37.61283905245363712310791015625" lon="-1.91528834402561187744140625">
        <ele>761.79998779296875</ele>
        <time>2019-10-27T09:08:03.000Z</time>
      </trkpt>
      <trkpt lat="37.61287241242825984954833984375" lon="-1.91553133539855480194091796875">
        <ele>762.4000244140625</ele>
        <time>2019-10-27T09:08:11.000Z</time>
      </trkpt>
      <trkpt lat="37.612849362194538116455078125" lon="-1.91577994264662265777587890625">
        <ele>762.79998779296875</ele>
        <time>2019-10-27T09:08:19.000Z</time>
      </trkpt>
      <trkpt lat="37.6127781160175800323486328125" lon="-1.91599778831005096435546875">
        <ele>763.20001220703125</ele>
        <time>2019-10-27T09:08:26.000Z</time>
      </trkpt>
      <trkpt lat="37.61267007328569889068603515625" lon="-1.91618286073207855224609375">
        <ele>764</ele>
        <time>2019-10-27T09:08:33.000Z</time>
      </trkpt>
      <trkpt lat="37.6125427521765232086181640625" lon="-1.9163526780903339385986328125">
        <ele>765.4000244140625</ele>
        <time>2019-10-27T09:08:41.000Z</time>
      </trkpt>
      <trkpt lat="37.61240067891776561737060546875" lon="-1.9165008701384067535400390625">
        <ele>766.4000244140625</ele>
        <time>2019-10-27T09:08:49.000Z</time>
      </trkpt>
      <trkpt lat="37.6122560910880565643310546875" lon="-1.91664596088230609893798828125">
        <ele>767.4000244140625</ele>
        <time>2019-10-27T09:08:57.000Z</time>
      </trkpt>
      <trkpt lat="37.61212818324565887451171875" lon="-1.9168240763247013092041015625">
        <ele>768.20001220703125</ele>
        <time>2019-10-27T09:09:05.000Z</time>
      </trkpt>
      <trkpt lat="37.61201410554349422454833984375" lon="-1.9170228950679302215576171875">
        <ele>769.79998779296875</ele>
        <time>2019-10-27T09:09:13.000Z</time>
      </trkpt>
      <trkpt lat="37.61192073114216327667236328125" lon="-1.9172418303787708282470703125">
        <ele>770</ele>
        <time>2019-10-27T09:09:21.000Z</time>
      </trkpt>
      <trkpt lat="37.6118654944002628326416015625" lon="-1.917478702962398529052734375">
        <ele>769.4000244140625</ele>
        <time>2019-10-27T09:09:28.000Z</time>
      </trkpt>
      <trkpt lat="37.61180631816387176513671875" lon="-1.91770761273801326751708984375">
        <ele>769</ele>
        <time>2019-10-27T09:09:35.000Z</time>
      </trkpt>
      <trkpt lat="37.61177555657923221588134765625" lon="-1.91795689053833484649658203125">
        <ele>769</ele>
        <time>2019-10-27T09:09:42.000Z</time>
      </trkpt>
      <trkpt lat="37.61174538172781467437744140625" lon="-1.91818110644817352294921875">
        <ele>769.5999755859375</ele>
        <time>2019-10-27T09:09:48.000Z</time>
      </trkpt>
      <trkpt lat="37.6117082498967647552490234375" lon="-1.91843859851360321044921875">
        <ele>770</ele>
        <time>2019-10-27T09:09:55.000Z</time>
      </trkpt>
      <trkpt lat="37.611686289310455322265625" lon="-1.9186637364327907562255859375">
        <ele>770.79998779296875</ele>
        <time>2019-10-27T09:10:01.000Z</time>
      </trkpt>
      <trkpt lat="37.61166625656187534332275390625" lon="-1.918927095830440521240234375">
        <ele>771.79998779296875</ele>
        <time>2019-10-27T09:10:08.000Z</time>
      </trkpt>
      <trkpt lat="37.61164295487105846405029296875" lon="-1.91916145384311676025390625">
        <ele>772.20001220703125</ele>
        <time>2019-10-27T09:10:14.000Z</time>
      </trkpt>
      <trkpt lat="37.611617557704448699951171875" lon="-1.91938667558133602142333984375">
        <ele>772.5999755859375</ele>
        <time>2019-10-27T09:10:20.000Z</time>
      </trkpt>
      <trkpt lat="37.61159886606037616729736328125" lon="-1.91964819096028804779052734375">
        <ele>773.4000244140625</ele>
        <time>2019-10-27T09:10:27.000Z</time>
      </trkpt>
      <trkpt lat="37.6115801744163036346435546875" lon="-1.919875256717205047607421875">
        <ele>774.20001220703125</ele>
        <time>2019-10-27T09:10:33.000Z</time>
      </trkpt>
      <trkpt lat="37.61155678890645503997802734375" lon="-1.920135430991649627685546875">
        <ele>775</ele>
        <time>2019-10-27T09:10:40.000Z</time>
      </trkpt>
      <trkpt lat="37.61153382249176502227783203125" lon="-1.92037791945040225982666015625">
        <ele>776</ele>
        <time>2019-10-27T09:10:47.000Z</time>
      </trkpt>
      <trkpt lat="37.61151085607707500457763671875" lon="-1.9206237606704235076904296875">
        <ele>777</ele>
        <time>2019-10-27T09:10:54.000Z</time>
      </trkpt>
      <trkpt lat="37.61148621328175067901611328125" lon="-1.920855604112148284912109375">
        <ele>777.20001220703125</ele>
        <time>2019-10-27T09:11:01.000Z</time>
      </trkpt>
      <trkpt lat="37.61147179640829563140869140625" lon="-1.921027936041355133056640625">
        <ele>777.4000244140625</ele>
        <time>2019-10-27T09:11:06.000Z</time>
      </trkpt>
      <trkpt lat="37.61144396848976612091064453125" lon="-1.92127226851880550384521484375">
        <ele>777.79998779296875</ele>
        <time>2019-10-27T09:11:13.000Z</time>
      </trkpt>
      <trkpt lat="37.61143307201564311981201171875" lon="-1.92152121104300022125244140625">
        <ele>777.20001220703125</ele>
        <time>2019-10-27T09:11:20.000Z</time>
      </trkpt>
      <trkpt lat="37.61141563765704631805419921875" lon="-1.92177166230976581573486328125">
        <ele>779</ele>
        <time>2019-10-27T09:11:27.000Z</time>
      </trkpt>
      <trkpt lat="37.61139325797557830810546875" lon="-1.92202194593846797943115234375">
        <ele>780</ele>
        <time>2019-10-27T09:11:34.000Z</time>
      </trkpt>
      <trkpt lat="37.61136668734252452850341796875" lon="-1.92226066254079341888427734375">
        <ele>781</ele>
        <time>2019-10-27T09:11:41.000Z</time>
      </trkpt>
      <trkpt lat="37.6113535277545452117919921875" lon="-1.9225106947124004364013671875">
        <ele>781.5999755859375</ele>
        <time>2019-10-27T09:11:48.000Z</time>
      </trkpt>
      <trkpt lat="37.611371465027332305908203125" lon="-1.92276156507432460784912109375">
        <ele>782.5999755859375</ele>
        <time>2019-10-27T09:11:55.000Z</time>
      </trkpt>
      <trkpt lat="37.6113991253077983856201171875" lon="-1.92299625836312770843505859375">
        <ele>783.20001220703125</ele>
        <time>2019-10-27T09:12:01.000Z</time>
      </trkpt>
      <trkpt lat="37.61142854578793048858642578125" lon="-1.9232543371617794036865234375">
        <ele>784.4000244140625</ele>
        <time>2019-10-27T09:12:07.000Z</time>
      </trkpt>
      <trkpt lat="37.6114604808390140533447265625" lon="-1.9234920479357242584228515625">
        <ele>785.79998779296875</ele>
        <time>2019-10-27T09:12:12.000Z</time>
      </trkpt>
      <trkpt lat="37.6114953495562076568603515625" lon="-1.92373671568930149078369140625">
        <ele>787</ele>
        <time>2019-10-27T09:12:17.000Z</time>
      </trkpt>
      <trkpt lat="37.61151731014251708984375" lon="-1.92397409118711948394775390625">
        <ele>787.20001220703125</ele>
        <time>2019-10-27T09:12:22.000Z</time>
      </trkpt>
      <trkpt lat="37.61154756881296634674072265625" lon="-1.92421649582684040069580078125">
        <ele>786.5999755859375</ele>
        <time>2019-10-27T09:12:27.000Z</time>
      </trkpt>
      <trkpt lat="37.61156282387673854827880859375" lon="-1.92448404617607593536376953125">
        <ele>785.79998779296875</ele>
        <time>2019-10-27T09:12:32.000Z</time>
      </trkpt>
      <trkpt lat="37.61158176697790622711181640625" lon="-1.924712955951690673828125">
        <ele>785</ele>
        <time>2019-10-27T09:12:36.000Z</time>
      </trkpt>
      <trkpt lat="37.61159249581396579742431640625" lon="-1.92498930729925632476806640625">
        <ele>784.20001220703125</ele>
        <time>2019-10-27T09:12:41.000Z</time>
      </trkpt>
      <trkpt lat="37.611593417823314666748046875" lon="-1.9252294488251209259033203125">
        <ele>784.20001220703125</ele>
        <time>2019-10-27T09:12:46.000Z</time>
      </trkpt>
      <trkpt lat="37.61159769259393215179443359375" lon="-1.925475709140300750732421875">
        <ele>784.20001220703125</ele>
        <time>2019-10-27T09:12:51.000Z</time>
      </trkpt>
      <trkpt lat="37.61160741560161113739013671875" lon="-1.925737559795379638671875">
        <ele>784.20001220703125</ele>
        <time>2019-10-27T09:12:56.000Z</time>
      </trkpt>
      <trkpt lat="37.61161931790411472320556640625" lon="-1.92599379457533359527587890625">
        <ele>783.5999755859375</ele>
        <time>2019-10-27T09:13:01.000Z</time>
      </trkpt>
      <trkpt lat="37.6116167195141315460205078125" lon="-1.926243491470813751220703125">
        <ele>784.5999755859375</ele>
        <time>2019-10-27T09:13:06.000Z</time>
      </trkpt>
      <trkpt lat="37.611605823040008544921875" lon="-1.9264776818454265594482421875">
        <ele>785</ele>
        <time>2019-10-27T09:13:11.000Z</time>
      </trkpt>
      <trkpt lat="37.61157698929309844970703125" lon="-1.926714889705181121826171875">
        <ele>785.79998779296875</ele>
        <time>2019-10-27T09:13:16.000Z</time>
      </trkpt>
      <trkpt lat="37.611553184688091278076171875" lon="-1.92696609534323215484619140625">
        <ele>786.79998779296875</ele>
        <time>2019-10-27T09:13:22.000Z</time>
      </trkpt>
      <trkpt lat="37.61153499595820903778076171875" lon="-1.92721185274422168731689453125">
        <ele>788</ele>
        <time>2019-10-27T09:13:28.000Z</time>
      </trkpt>
      <trkpt lat="37.611508928239345550537109375" lon="-1.92746959626674652099609375">
        <ele>789.20001220703125</ele>
        <time>2019-10-27T09:13:34.000Z</time>
      </trkpt>
      <trkpt lat="37.611508928239345550537109375" lon="-1.9277275912463665008544921875">
        <ele>790.4000244140625</ele>
        <time>2019-10-27T09:13:40.000Z</time>
      </trkpt>
      <trkpt lat="37.6115352474153041839599609375" lon="-1.92798147909343242645263671875">
        <ele>791.79998779296875</ele>
        <time>2019-10-27T09:13:46.000Z</time>
      </trkpt>
      <trkpt lat="37.611578665673732757568359375" lon="-1.92821935750544071197509765625">
        <ele>793</ele>
        <time>2019-10-27T09:13:52.000Z</time>
      </trkpt>
      <trkpt lat="37.61164479888975620269775390625" lon="-1.92844700999557971954345703125">
        <ele>794.20001220703125</ele>
        <time>2019-10-27T09:13:58.000Z</time>
      </trkpt>
      <trkpt lat="37.6117230020463466644287109375" lon="-1.9286740757524967193603515625">
        <ele>794.4000244140625</ele>
        <time>2019-10-27T09:14:05.000Z</time>
      </trkpt>
      <trkpt lat="37.611826099455356597900390625" lon="-1.92888974212110042572021484375">
        <ele>794.20001220703125</ele>
        <time>2019-10-27T09:14:12.000Z</time>
      </trkpt>
      <trkpt lat="37.61193581856787204742431640625" lon="-1.929097361862659454345703125">
        <ele>794</ele>
        <time>2019-10-27T09:14:19.000Z</time>
      </trkpt>
      <trkpt lat="37.61205978691577911376953125" lon="-1.92930229939520359039306640625">
        <ele>793.5999755859375</ele>
        <time>2019-10-27T09:14:26.000Z</time>
      </trkpt>
      <trkpt lat="37.6121793128550052642822265625" lon="-1.929494999349117279052734375">
        <ele>793.20001220703125</ele>
        <time>2019-10-27T09:14:33.000Z</time>
      </trkpt>
      <trkpt lat="37.612286098301410675048828125" lon="-1.9296778924763202667236328125">
        <ele>793.20001220703125</ele>
        <time>2019-10-27T09:14:40.000Z</time>
      </trkpt>
      <trkpt lat="37.612404786050319671630859375" lon="-1.9298775494098663330078125">
        <ele>794</ele>
        <time>2019-10-27T09:14:48.000Z</time>
      </trkpt>
      <trkpt lat="37.61252825148403644561767578125" lon="-1.930075697600841522216796875">
        <ele>795</ele>
        <time>2019-10-27T09:14:56.000Z</time>
      </trkpt>
      <trkpt lat="37.61265615932643413543701171875" lon="-1.9302637875080108642578125">
        <ele>796.79998779296875</ele>
        <time>2019-10-27T09:15:04.000Z</time>
      </trkpt>
      <trkpt lat="37.61279068887233734130859375" lon="-1.93044877611100673675537109375">
        <ele>798.79998779296875</ele>
        <time>2019-10-27T09:15:12.000Z</time>
      </trkpt>
      <trkpt lat="37.61293745599687099456787109375" lon="-1.93062194623053073883056640625">
        <ele>800.4000244140625</ele>
        <time>2019-10-27T09:15:20.000Z</time>
      </trkpt>
      <trkpt lat="37.61309570632874965667724609375" lon="-1.930777095258235931396484375">
        <ele>801.4000244140625</ele>
        <time>2019-10-27T09:15:28.000Z</time>
      </trkpt>
      <trkpt lat="37.61325647123157978057861328125" lon="-1.93092537112534046173095703125">
        <ele>802</ele>
        <time>2019-10-27T09:15:36.000Z</time>
      </trkpt>
      <trkpt lat="37.61341522447764873504638671875" lon="-1.93104363977909088134765625">
        <ele>802.20001220703125</ele>
        <time>2019-10-27T09:15:43.000Z</time>
      </trkpt>
      <trkpt lat="37.61357531882822513580322265625" lon="-1.93115822039544582366943359375">
        <ele>802.79998779296875</ele>
        <time>2019-10-27T09:15:50.000Z</time>
      </trkpt>
      <trkpt lat="37.61367204599082469940185546875" lon="-1.93121823482215404510498046875">
        <ele>803.5999755859375</ele>
        <time>2019-10-27T09:15:54.000Z</time>
      </trkpt>
      <trkpt lat="37.61385108344256877899169921875" lon="-1.93132770247757434844970703125">
        <ele>805</ele>
        <time>2019-10-27T09:16:01.000Z</time>
      </trkpt>
      <trkpt lat="37.61402928270399570465087890625" lon="-1.93141152150928974151611328125">
        <ele>807.20001220703125</ele>
        <time>2019-10-27T09:16:08.000Z</time>
      </trkpt>
      <trkpt lat="37.61420513503253459930419921875" lon="-1.93150632083415985107421875">
        <ele>808</ele>
        <time>2019-10-27T09:16:15.000Z</time>
      </trkpt>
      <trkpt lat="37.61438718996942043304443359375" lon="-1.93160011433064937591552734375">
        <ele>807.79998779296875</ele>
        <time>2019-10-27T09:16:22.000Z</time>
      </trkpt>
      <trkpt lat="37.614571340382099151611328125" lon="-1.93168862722814083099365234375">
        <ele>808</ele>
        <time>2019-10-27T09:16:29.000Z</time>
      </trkpt>
      <trkpt lat="37.61473068036139011383056640625" lon="-1.9318075664341449737548828125">
        <ele>808.5999755859375</ele>
        <time>2019-10-27T09:16:35.000Z</time>
      </trkpt>
      <trkpt lat="37.61487317271530628204345703125" lon="-1.9319482147693634033203125">
        <ele>809.20001220703125</ele>
        <time>2019-10-27T09:16:41.000Z</time>
      </trkpt>
      <trkpt lat="37.6150090433657169342041015625" lon="-1.93214812316000461578369140625">
        <ele>810.4000244140625</ele>
        <time>2019-10-27T09:16:48.000Z</time>
      </trkpt>
      <trkpt lat="37.61511054821312427520751953125" lon="-1.93234208039939403533935546875">
        <ele>810.5999755859375</ele>
        <time>2019-10-27T09:16:54.000Z</time>
      </trkpt>
      <trkpt lat="37.61521632783114910125732421875" lon="-1.932542324066162109375">
        <ele>809.5999755859375</ele>
        <time>2019-10-27T09:17:00.000Z</time>
      </trkpt>
      <trkpt lat="37.615312635898590087890625" lon="-1.9327396340668201446533203125">
        <ele>809.5999755859375</ele>
        <time>2019-10-27T09:17:06.000Z</time>
      </trkpt>
      <trkpt lat="37.61541464366018772125244140625" lon="-1.93293183110654354095458984375">
        <ele>809.5999755859375</ele>
        <time>2019-10-27T09:17:12.000Z</time>
      </trkpt>
      <trkpt lat="37.61551380157470703125" lon="-1.9331262074410915374755859375">
        <ele>810.79998779296875</ele>
        <time>2019-10-27T09:17:18.000Z</time>
      </trkpt>
      <trkpt lat="37.61561572551727294921875" lon="-1.93332427181303501129150390625">
        <ele>812.20001220703125</ele>
        <time>2019-10-27T09:17:24.000Z</time>
      </trkpt>
      <trkpt lat="37.61571966111660003662109375" lon="-1.9335111044347286224365234375">
        <ele>812.79998779296875</ele>
        <time>2019-10-27T09:17:30.000Z</time>
      </trkpt>
      <trkpt lat="37.61583943851292133331298828125" lon="-1.9337211549282073974609375">
        <ele>813.79998779296875</ele>
        <time>2019-10-27T09:17:37.000Z</time>
      </trkpt>
      <trkpt lat="37.61595779098570346832275390625" lon="-1.933928690850734710693359375">
        <ele>814.4000244140625</ele>
        <time>2019-10-27T09:17:44.000Z</time>
      </trkpt>
      <trkpt lat="37.616077400743961334228515625" lon="-1.9341260008513927459716796875">
        <ele>815.79998779296875</ele>
        <time>2019-10-27T09:17:51.000Z</time>
      </trkpt>
      <trkpt lat="37.61622299440205097198486328125" lon="-1.93430411629378795623779296875">
        <ele>818</ele>
        <time>2019-10-27T09:17:58.000Z</time>
      </trkpt>
      <trkpt lat="37.61637571267783641815185546875" lon="-1.934475190937519073486328125">
        <ele>819.5999755859375</ele>
        <time>2019-10-27T09:18:05.000Z</time>
      </trkpt>
      <trkpt lat="37.61653295718133449554443359375" lon="-1.9346315972506999969482421875">
        <ele>820.4000244140625</ele>
        <time>2019-10-27T09:18:11.000Z</time>
      </trkpt>
      <trkpt lat="37.6166646368801593780517578125" lon="-1.93481658585369586944580078125">
        <ele>820.79998779296875</ele>
        <time>2019-10-27T09:18:17.000Z</time>
      </trkpt>
      <trkpt lat="37.61677435599267482757568359375" lon="-1.93500618450343608856201171875">
        <ele>820.4000244140625</ele>
        <time>2019-10-27T09:18:23.000Z</time>
      </trkpt>
      <trkpt lat="37.616846859455108642578125" lon="-1.93521983921527862548828125">
        <ele>821.4000244140625</ele>
        <time>2019-10-27T09:18:29.000Z</time>
      </trkpt>
      <trkpt lat="37.6168919540941715240478515625" lon="-1.93545260466635227203369140625">
        <ele>822</ele>
        <time>2019-10-27T09:18:35.000Z</time>
      </trkpt>
      <trkpt lat="37.61692690663039684295654296875" lon="-1.93570389412343502044677734375">
        <ele>822.4000244140625</ele>
        <time>2019-10-27T09:18:42.000Z</time>
      </trkpt>
      <trkpt lat="37.61696546338498592376708984375" lon="-1.93594512529671192169189453125">
        <ele>823.79998779296875</ele>
        <time>2019-10-27T09:18:49.000Z</time>
      </trkpt>
      <trkpt lat="37.61700385250151157379150390625" lon="-1.9361980073153972625732421875">
        <ele>824.5999755859375</ele>
        <time>2019-10-27T09:18:56.000Z</time>
      </trkpt>
      <trkpt lat="37.6170411519706249237060546875" lon="-1.936445944011211395263671875">
        <ele>824.5999755859375</ele>
        <time>2019-10-27T09:19:03.000Z</time>
      </trkpt>
      <trkpt lat="37.61708213947713375091552734375" lon="-1.93668558262288570404052734375">
        <ele>823.79998779296875</ele>
        <time>2019-10-27T09:19:10.000Z</time>
      </trkpt>
      <trkpt lat="37.61713025160133838653564453125" lon="-1.93692161701619625091552734375">
        <ele>823.5999755859375</ele>
        <time>2019-10-27T09:19:18.000Z</time>
      </trkpt>
      <trkpt lat="37.61716428212821483612060546875" lon="-1.93715865723788738250732421875">
        <ele>823</ele>
        <time>2019-10-27T09:19:27.000Z</time>
      </trkpt>
      <trkpt lat="37.61721842922270298004150390625" lon="-1.937387399375438690185546875">
        <ele>824.20001220703125</ele>
        <time>2019-10-27T09:19:36.000Z</time>
      </trkpt>
      <trkpt lat="37.61728514917194843292236328125" lon="-1.93762242794036865234375">
        <ele>826</ele>
        <time>2019-10-27T09:19:46.000Z</time>
      </trkpt>
      <trkpt lat="37.61736117303371429443359375" lon="-1.93784513510763645172119140625">
        <ele>828.4000244140625</ele>
        <time>2019-10-27T09:19:55.000Z</time>
      </trkpt>
      <trkpt lat="37.61743099428713321685791015625" lon="-1.938080750405788421630859375">
        <ele>830</ele>
        <time>2019-10-27T09:20:04.000Z</time>
      </trkpt>
      <trkpt lat="37.61749327182769775390625" lon="-1.938308067619800567626953125">
        <ele>831.5999755859375</ele>
        <time>2019-10-27T09:20:13.000Z</time>
      </trkpt>
      <trkpt lat="37.6175547949969768524169921875" lon="-1.93854435347020626068115234375">
        <ele>833.20001220703125</ele>
        <time>2019-10-27T09:20:21.000Z</time>
      </trkpt>
      <trkpt lat="37.61760986410081386566162109375" lon="-1.93877887912094593048095703125">
        <ele>834.5999755859375</ele>
        <time>2019-10-27T09:20:29.000Z</time>
      </trkpt>
      <trkpt lat="37.61768161319196224212646484375" lon="-1.9390133209526538848876953125">
        <ele>836.5999755859375</ele>
        <time>2019-10-27T09:20:37.000Z</time>
      </trkpt>
      <trkpt lat="37.6177338324487209320068359375" lon="-1.939234435558319091796875">
        <ele>837.79998779296875</ele>
        <time>2019-10-27T09:20:44.000Z</time>
      </trkpt>
      <trkpt lat="37.6178049109876155853271484375" lon="-1.939449012279510498046875">
        <ele>839</ele>
        <time>2019-10-27T09:20:51.000Z</time>
      </trkpt>
      <trkpt lat="37.61786266230046749114990234375" lon="-1.9396771676838397979736328125">
        <ele>840</ele>
        <time>2019-10-27T09:20:58.000Z</time>
      </trkpt>
      <trkpt lat="37.617924772202968597412109375" lon="-1.93991378881037235260009765625">
        <ele>842.4000244140625</ele>
        <time>2019-10-27T09:21:05.000Z</time>
      </trkpt>
      <trkpt lat="37.61799073778092861175537109375" lon="-1.94015912711620330810546875">
        <ele>844.20001220703125</ele>
        <time>2019-10-27T09:21:12.000Z</time>
      </trkpt>
      <trkpt lat="37.61804790236055850982666015625" lon="-1.9404025375843048095703125">
        <ele>845.20001220703125</ele>
        <time>2019-10-27T09:21:19.000Z</time>
      </trkpt>
      <trkpt lat="37.61806902475655078887939453125" lon="-1.94050471298396587371826171875">
        <ele>845.4000244140625</ele>
        <time>2019-10-27T09:21:22.000Z</time>
      </trkpt>
      <trkpt lat="37.61812652461230754852294921875" lon="-1.94072163663804531097412109375">
        <ele>845.20001220703125</ele>
        <time>2019-10-27T09:21:29.000Z</time>
      </trkpt>
      <trkpt lat="37.6181874610483646392822265625" lon="-1.94096555002033710479736328125">
        <ele>844.79998779296875</ele>
        <time>2019-10-27T09:21:37.000Z</time>
      </trkpt>
      <trkpt lat="37.6182535104453563690185546875" lon="-1.94118264131247997283935546875">
        <ele>845.20001220703125</ele>
        <time>2019-10-27T09:21:44.000Z</time>
      </trkpt>
      <trkpt lat="37.618311010301113128662109375" lon="-1.9414056837558746337890625">
        <ele>846.79998779296875</ele>
        <time>2019-10-27T09:21:51.000Z</time>
      </trkpt>
      <trkpt lat="37.61837362311780452728271484375" lon="-1.9416345097124576568603515625">
        <ele>849</ele>
        <time>2019-10-27T09:21:58.000Z</time>
      </trkpt>
      <trkpt lat="37.61843397282063961029052734375" lon="-1.9418695382773876190185546875">
        <ele>850.79998779296875</ele>
        <time>2019-10-27T09:22:05.000Z</time>
      </trkpt>
      <trkpt lat="37.61849516071379184722900390625" lon="-1.94210096262395381927490234375">
        <ele>852</ele>
        <time>2019-10-27T09:22:12.000Z</time>
      </trkpt>
      <trkpt lat="37.6185636408627033233642578125" lon="-1.9423449598252773284912109375">
        <ele>851.79998779296875</ele>
        <time>2019-10-27T09:22:19.000Z</time>
      </trkpt>
      <trkpt lat="37.61862088926136493682861328125" lon="-1.94258158095180988311767578125">
        <ele>851</ele>
        <time>2019-10-27T09:22:25.000Z</time>
      </trkpt>
      <trkpt lat="37.61867771856486797332763671875" lon="-1.94280386902391910552978515625">
        <ele>850.5999755859375</ele>
        <time>2019-10-27T09:22:31.000Z</time>
      </trkpt>
      <trkpt lat="37.61873102746903896331787109375" lon="-1.9430225528776645660400390625">
        <ele>851</ele>
        <time>2019-10-27T09:22:37.000Z</time>
      </trkpt>
      <trkpt lat="37.61879506520926952362060546875" lon="-1.94323570467531681060791015625">
        <ele>852.20001220703125</ele>
        <time>2019-10-27T09:22:43.000Z</time>
      </trkpt>
      <trkpt lat="37.61886547319591045379638671875" lon="-1.94347509182989597320556640625">
        <ele>854</ele>
        <time>2019-10-27T09:22:50.000Z</time>
      </trkpt>
      <trkpt lat="37.6189388148486614227294921875" lon="-1.9437152333557605743408203125">
        <ele>855.20001220703125</ele>
        <time>2019-10-27T09:22:57.000Z</time>
      </trkpt>
      <trkpt lat="37.6190154254436492919921875" lon="-1.94394179619848728179931640625">
        <ele>856.20001220703125</ele>
        <time>2019-10-27T09:23:04.000Z</time>
      </trkpt>
      <trkpt lat="37.61910486035048961639404296875" lon="-1.94415436126291751861572265625">
        <ele>856.4000244140625</ele>
        <time>2019-10-27T09:23:11.000Z</time>
      </trkpt>
      <trkpt lat="37.61921013705432415008544921875" lon="-1.94433859549462795257568359375">
        <ele>856.79998779296875</ele>
        <time>2019-10-27T09:23:17.000Z</time>
      </trkpt>
      <trkpt lat="37.6193119771778583526611328125" lon="-1.9445406831800937652587890625">
        <ele>856.5999755859375</ele>
        <time>2019-10-27T09:23:24.000Z</time>
      </trkpt>
      <trkpt lat="37.6193897612392902374267578125" lon="-1.94476674310863018035888671875">
        <ele>857</ele>
        <time>2019-10-27T09:23:31.000Z</time>
      </trkpt>
      <trkpt lat="37.61944063939154148101806640625" lon="-1.94498484022915363311767578125">
        <ele>857.4000244140625</ele>
        <time>2019-10-27T09:23:37.000Z</time>
      </trkpt>
      <trkpt lat="37.6194849796593189239501953125" lon="-1.94521375000476837158203125">
        <ele>858.5999755859375</ele>
        <time>2019-10-27T09:23:43.000Z</time>
      </trkpt>
      <trkpt lat="37.6195339299738407135009765625" lon="-1.94545137695968151092529296875">
        <ele>860</ele>
        <time>2019-10-27T09:23:49.000Z</time>
      </trkpt>
      <trkpt lat="37.6195798628032207489013671875" lon="-1.94567617960274219512939453125">
        <ele>860.4000244140625</ele>
        <time>2019-10-27T09:23:55.000Z</time>
      </trkpt>
      <trkpt lat="37.61963224969804286956787109375" lon="-1.945931911468505859375">
        <ele>861</ele>
        <time>2019-10-27T09:24:02.000Z</time>
      </trkpt>
      <trkpt lat="37.6196779310703277587890625" lon="-1.946156211197376251220703125">
        <ele>860</ele>
        <time>2019-10-27T09:24:08.000Z</time>
      </trkpt>
      <trkpt lat="37.6197314076125621795654296875" lon="-1.94639199413359165191650390625">
        <ele>858.79998779296875</ele>
        <time>2019-10-27T09:24:14.000Z</time>
      </trkpt>
      <trkpt lat="37.61977591551840305328369140625" lon="-1.94664361886680126190185546875">
        <ele>857.5999755859375</ele>
        <time>2019-10-27T09:24:20.000Z</time>
      </trkpt>
      <trkpt lat="37.61976669542491436004638671875" lon="-1.9468747079372406005859375">
        <ele>857.4000244140625</ele>
        <time>2019-10-27T09:24:27.000Z</time>
      </trkpt>
      <trkpt lat="37.6197731494903564453125" lon="-1.946948468685150146484375">
        <ele>857.5999755859375</ele>
        <time>2019-10-27T09:24:32.000Z</time>
      </trkpt>
      <trkpt lat="37.61982352472841739654541015625" lon="-1.9470907934010028839111328125">
        <ele>858</ele>
        <time>2019-10-27T09:26:14.000Z</time>
      </trkpt>
      <trkpt lat="37.61988253332674503326416015625" lon="-1.94733981974422931671142578125">
        <ele>857</ele>
        <time>2019-10-27T09:26:21.000Z</time>
      </trkpt>
      <trkpt lat="37.6199349202215671539306640625" lon="-1.947589851915836334228515625">
        <ele>857.5999755859375</ele>
        <time>2019-10-27T09:26:28.000Z</time>
      </trkpt>
      <trkpt lat="37.6200026459991931915283203125" lon="-1.94784365594387054443359375">
        <ele>857.79998779296875</ele>
        <time>2019-10-27T09:26:35.000Z</time>
      </trkpt>
      <trkpt lat="37.620060481131076812744140625" lon="-1.9480614177882671356201171875">
        <ele>858.20001220703125</ele>
        <time>2019-10-27T09:26:40.000Z</time>
      </trkpt>
      <trkpt lat="37.6201370917260646820068359375" lon="-1.94831371307373046875">
        <ele>858.20001220703125</ele>
        <time>2019-10-27T09:26:45.000Z</time>
      </trkpt>
      <trkpt lat="37.62018998153507709503173828125" lon="-1.948560811579227447509765625">
        <ele>858.5999755859375</ele>
        <time>2019-10-27T09:26:49.000Z</time>
      </trkpt>
      <trkpt lat="37.62023490853607654571533203125" lon="-1.94882928393781185150146484375">
        <ele>859</ele>
        <time>2019-10-27T09:26:53.000Z</time>
      </trkpt>
      <trkpt lat="37.62026357464492321014404296875" lon="-1.9490887038409709930419921875">
        <ele>859.4000244140625</ele>
        <time>2019-10-27T09:26:57.000Z</time>
      </trkpt>
      <trkpt lat="37.62034219689667224884033203125" lon="-1.9492962397634983062744140625">
        <ele>859.20001220703125</ele>
        <time>2019-10-27T09:27:01.000Z</time>
      </trkpt>
      <trkpt lat="37.620391063392162322998046875" lon="-1.94941652007400989532470703125">
        <ele>859.5999755859375</ele>
        <time>2019-10-27T09:27:05.000Z</time>
      </trkpt>
      <trkpt lat="37.62047094292938709259033203125" lon="-1.94962774403393268585205078125">
        <ele>860.20001220703125</ele>
        <time>2019-10-27T09:27:13.000Z</time>
      </trkpt>
      <trkpt lat="37.62054093182086944580078125" lon="-1.949861347675323486328125">
        <ele>860.5999755859375</ele>
        <time>2019-10-27T09:27:22.000Z</time>
      </trkpt>
      <trkpt lat="37.6205856911838054656982421875" lon="-1.9499962963163852691650390625">
        <ele>861.5999755859375</ele>
        <time>2019-10-27T09:27:29.000Z</time>
      </trkpt>
      <trkpt lat="37.6206623017787933349609375" lon="-1.9502226077020168304443359375">
        <ele>862.5999755859375</ele>
        <time>2019-10-27T09:27:43.000Z</time>
      </trkpt>
      <trkpt lat="37.62074486352503299713134765625" lon="-1.95045587606728076934814453125">
        <ele>863</ele>
        <time>2019-10-27T09:27:52.000Z</time>
      </trkpt>
      <trkpt lat="37.620822899043560028076171875" lon="-1.95067514665424823760986328125">
        <ele>863.5999755859375</ele>
        <time>2019-10-27T09:27:59.000Z</time>
      </trkpt>
      <trkpt lat="37.62089892290532588958740234375" lon="-1.95091268979012966156005859375">
        <ele>863.5999755859375</ele>
        <time>2019-10-27T09:28:04.000Z</time>
      </trkpt>
      <trkpt lat="37.62097067199647426605224609375" lon="-1.95113162510097026824951171875">
        <ele>861.79998779296875</ele>
        <time>2019-10-27T09:28:07.000Z</time>
      </trkpt>
      <trkpt lat="37.6210765354335308074951171875" lon="-1.95141158066689968109130859375">
        <ele>860.79998779296875</ele>
        <time>2019-10-27T09:28:10.000Z</time>
      </trkpt>
      <trkpt lat="37.6211831532418727874755859375" lon="-1.95171869359910488128662109375">
        <ele>860.4000244140625</ele>
        <time>2019-10-27T09:28:13.000Z</time>
      </trkpt>
      <trkpt lat="37.62129672802984714508056640625" lon="-1.95199898444116115570068359375">
        <ele>861</ele>
        <time>2019-10-27T09:28:16.000Z</time>
      </trkpt>
      <trkpt lat="37.62139999307692050933837890625" lon="-1.9522121362388134002685546875">
        <ele>861.79998779296875</ele>
        <time>2019-10-27T09:28:19.000Z</time>
      </trkpt>
      <trkpt lat="37.62151264585554599761962890625" lon="-1.95242981426417827606201171875">
        <ele>862.4000244140625</ele>
        <time>2019-10-27T09:28:23.000Z</time>
      </trkpt>
      <trkpt lat="37.6216347701847553253173828125" lon="-1.95264439098536968231201171875">
        <ele>862.79998779296875</ele>
        <time>2019-10-27T09:28:29.000Z</time>
      </trkpt>
      <trkpt lat="37.6217413879930973052978515625" lon="-1.95283398963510990142822265625">
        <ele>863.4000244140625</ele>
        <time>2019-10-27T09:28:35.000Z</time>
      </trkpt>
      <trkpt lat="37.621848843991756439208984375" lon="-1.9530486501753330230712890625">
        <ele>863</ele>
        <time>2019-10-27T09:28:42.000Z</time>
      </trkpt>
      <trkpt lat="37.62195889838039875030517578125" lon="-1.95323766209185123443603515625">
        <ele>861.79998779296875</ele>
        <time>2019-10-27T09:28:49.000Z</time>
      </trkpt>
      <trkpt lat="37.62208160944283008575439453125" lon="-1.95341703481972217559814453125">
        <ele>861.79998779296875</ele>
        <time>2019-10-27T09:28:55.000Z</time>
      </trkpt>
      <trkpt lat="37.6222097687423229217529296875" lon="-1.9535854272544384002685546875">
        <ele>862.4000244140625</ele>
        <time>2019-10-27T09:28:59.000Z</time>
      </trkpt>
      <trkpt lat="37.622382938861846923828125" lon="-1.95380059070885181427001953125">
        <ele>863.4000244140625</ele>
        <time>2019-10-27T09:29:03.000Z</time>
      </trkpt>
      <trkpt lat="37.62251478619873523712158203125" lon="-1.9539854116737842559814453125">
        <ele>864</ele>
        <time>2019-10-27T09:29:07.000Z</time>
      </trkpt>
      <trkpt lat="37.62263179756700992584228515625" lon="-1.95415849797427654266357421875">
        <ele>865.4000244140625</ele>
        <time>2019-10-27T09:29:15.000Z</time>
      </trkpt>
      <trkpt lat="37.62276540510356426239013671875" lon="-1.95431356318295001983642578125">
        <ele>866.4000244140625</ele>
        <time>2019-10-27T09:29:22.000Z</time>
      </trkpt>
      <trkpt lat="37.62290270067751407623291015625" lon="-1.95450986735522747039794921875">
        <ele>867.79998779296875</ele>
        <time>2019-10-27T09:29:30.000Z</time>
      </trkpt>
      <trkpt lat="37.62303547002375125885009765625" lon="-1.95468588732182979583740234375">
        <ele>868.20001220703125</ele>
        <time>2019-10-27T09:29:35.000Z</time>
      </trkpt>
      <trkpt lat="37.62315834872424602508544921875" lon="-1.95486366748809814453125">
        <ele>868.4000244140625</ele>
        <time>2019-10-27T09:29:39.000Z</time>
      </trkpt>
      <trkpt lat="37.62328340671956539154052734375" lon="-1.95505536161363124847412109375">
        <ele>868.5999755859375</ele>
        <time>2019-10-27T09:29:44.000Z</time>
      </trkpt>
      <trkpt lat="37.6233959756791591644287109375" lon="-1.95523976348340511322021484375">
        <ele>868.4000244140625</ele>
        <time>2019-10-27T09:29:49.000Z</time>
      </trkpt>
      <trkpt lat="37.62351340614259243011474609375" lon="-1.95541611872613430023193359375">
        <ele>868.4000244140625</ele>
        <time>2019-10-27T09:29:53.000Z</time>
      </trkpt>
      <trkpt lat="37.623659670352935791015625" lon="-1.95564712397754192352294921875">
        <ele>868.4000244140625</ele>
        <time>2019-10-27T09:29:57.000Z</time>
      </trkpt>
      <trkpt lat="37.62378632090985774993896484375" lon="-1.9558461941778659820556640625">
        <ele>869</ele>
        <time>2019-10-27T09:30:03.000Z</time>
      </trkpt>
      <trkpt lat="37.62390903197228908538818359375" lon="-1.956026740372180938720703125">
        <ele>869.79998779296875</ele>
        <time>2019-10-27T09:30:10.000Z</time>
      </trkpt>
      <trkpt lat="37.62403853237628936767578125" lon="-1.95620921440422534942626953125">
        <ele>871.4000244140625</ele>
        <time>2019-10-27T09:30:17.000Z</time>
      </trkpt>
      <trkpt lat="37.62416484765708446502685546875" lon="-1.9563992321491241455078125">
        <ele>872.4000244140625</ele>
        <time>2019-10-27T09:30:24.000Z</time>
      </trkpt>
      <trkpt lat="37.62427414767444133758544921875" lon="-1.95660199038684368133544921875">
        <ele>873.4000244140625</ele>
        <time>2019-10-27T09:30:31.000Z</time>
      </trkpt>
      <trkpt lat="37.6243612356483936309814453125" lon="-1.95682209916412830352783203125">
        <ele>874.4000244140625</ele>
        <time>2019-10-27T09:30:37.000Z</time>
      </trkpt>
      <trkpt lat="37.62444111518561840057373046875" lon="-1.95706685073673725128173828125">
        <ele>875.4000244140625</ele>
        <time>2019-10-27T09:30:43.000Z</time>
      </trkpt>
      <trkpt lat="37.62452158145606517791748046875" lon="-1.95727388374507427215576171875">
        <ele>876.5999755859375</ele>
        <time>2019-10-27T09:30:49.000Z</time>
      </trkpt>
      <trkpt lat="37.624620236456394195556640625" lon="-1.95750002749264240264892578125">
        <ele>878.5999755859375</ele>
        <time>2019-10-27T09:30:56.000Z</time>
      </trkpt>
      <trkpt lat="37.6247035525739192962646484375" lon="-1.95770236663520336151123046875">
        <ele>880.20001220703125</ele>
        <time>2019-10-27T09:31:02.000Z</time>
      </trkpt>
      <trkpt lat="37.624801956117153167724609375" lon="-1.95791727863252162933349609375">
        <ele>881.5999755859375</ele>
        <time>2019-10-27T09:31:09.000Z</time>
      </trkpt>
      <trkpt lat="37.62490463443100452423095703125" lon="-1.958140991628170013427734375">
        <ele>881.5999755859375</ele>
        <time>2019-10-27T09:31:16.000Z</time>
      </trkpt>
      <trkpt lat="37.62500236742198467254638671875" lon="-1.95835934020578861236572265625">
        <ele>881.20001220703125</ele>
        <time>2019-10-27T09:31:23.000Z</time>
      </trkpt>
      <trkpt lat="37.6250954903662204742431640625" lon="-1.958575509488582611083984375">
        <ele>881.20001220703125</ele>
        <time>2019-10-27T09:31:30.000Z</time>
      </trkpt>
      <trkpt lat="37.62520219199359416961669921875" lon="-1.9587869010865688323974609375">
        <ele>882.5999755859375</ele>
        <time>2019-10-27T09:31:37.000Z</time>
      </trkpt>
      <trkpt lat="37.6252922974526882171630859375" lon="-1.9590152241289615631103515625">
        <ele>883.79998779296875</ele>
        <time>2019-10-27T09:31:44.000Z</time>
      </trkpt>
      <trkpt lat="37.625362873077392578125" lon="-1.9592482410371303558349609375">
        <ele>884.5999755859375</ele>
        <time>2019-10-27T09:31:51.000Z</time>
      </trkpt>
      <trkpt lat="37.62541425414383411407470703125" lon="-1.95949659682810306549072265625">
        <ele>885</ele>
        <time>2019-10-27T09:31:58.000Z</time>
      </trkpt>
      <trkpt lat="37.6254421658813953399658203125" lon="-1.95975827984511852264404296875">
        <ele>885.4000244140625</ele>
        <time>2019-10-27T09:32:05.000Z</time>
      </trkpt>
      <trkpt lat="37.62546555139124393463134765625" lon="-1.9599888660013675689697265625">
        <ele>885.5999755859375</ele>
        <time>2019-10-27T09:32:11.000Z</time>
      </trkpt>
      <trkpt lat="37.62552958913147449493408203125" lon="-1.96023805998265743255615234375">
        <ele>886</ele>
        <time>2019-10-27T09:32:17.000Z</time>
      </trkpt>
      <trkpt lat="37.62558977119624614715576171875" lon="-1.9604652933776378631591796875">
        <ele>884.79998779296875</ele>
        <time>2019-10-27T09:32:22.000Z</time>
      </trkpt>
      <trkpt lat="37.6256243884563446044921875" lon="-1.96058557368814945220947265625">
        <ele>884.4000244140625</ele>
        <time>2019-10-27T09:32:25.000Z</time>
      </trkpt>
      <trkpt lat="37.625664286315441131591796875" lon="-1.960821188986301422119140625">
        <ele>883.79998779296875</ele>
        <time>2019-10-27T09:32:32.000Z</time>
      </trkpt>
      <trkpt lat="37.6257144100964069366455078125" lon="-1.961046159267425537109375">
        <ele>884.20001220703125</ele>
        <time>2019-10-27T09:32:39.000Z</time>
      </trkpt>
      <trkpt lat="37.62576319277286529541015625" lon="-1.961287222802639007568359375">
        <ele>886.4000244140625</ele>
        <time>2019-10-27T09:32:46.000Z</time>
      </trkpt>
      <trkpt lat="37.6258166693150997161865234375" lon="-1.9615222513675689697265625">
        <ele>888.79998779296875</ele>
        <time>2019-10-27T09:32:53.000Z</time>
      </trkpt>
      <trkpt lat="37.62586251832544803619384765625" lon="-1.961764991283416748046875">
        <ele>890.79998779296875</ele>
        <time>2019-10-27T09:33:00.000Z</time>
      </trkpt>
      <trkpt lat="37.62590040452778339385986328125" lon="-1.961999349296092987060546875">
        <ele>891.5999755859375</ele>
        <time>2019-10-27T09:33:07.000Z</time>
      </trkpt>
      <trkpt lat="37.62595153413712978363037109375" lon="-1.9622372277081012725830078125">
        <ele>892.20001220703125</ele>
        <time>2019-10-27T09:33:14.000Z</time>
      </trkpt>
      <trkpt lat="37.62598271481692790985107421875" lon="-1.96248290129005908966064453125">
        <ele>892.20001220703125</ele>
        <time>2019-10-27T09:33:21.000Z</time>
      </trkpt>
      <trkpt lat="37.6260144822299480438232421875" lon="-1.96273435838520526885986328125">
        <ele>892.4000244140625</ele>
        <time>2019-10-27T09:33:28.000Z</time>
      </trkpt>
      <trkpt lat="37.6260419748723506927490234375" lon="-1.96296184323728084564208984375">
        <ele>894.20001220703125</ele>
        <time>2019-10-27T09:33:34.000Z</time>
      </trkpt>
      <trkpt lat="37.62605966068804264068603515625" lon="-1.963207684457302093505859375">
        <ele>897.20001220703125</ele>
        <time>2019-10-27T09:33:40.000Z</time>
      </trkpt>
      <trkpt lat="37.6260884106159210205078125" lon="-1.96344447322189807891845703125">
        <ele>898.4000244140625</ele>
        <time>2019-10-27T09:33:45.000Z</time>
      </trkpt>
      <trkpt lat="37.62615789659321308135986328125" lon="-1.9637134484946727752685546875">
        <ele>898.20001220703125</ele>
        <time>2019-10-27T09:33:49.000Z</time>
      </trkpt>
      <trkpt lat="37.626256383955478668212890625" lon="-1.96398250758647918701171875">
        <ele>896.4000244140625</ele>
        <time>2019-10-27T09:33:52.000Z</time>
      </trkpt>
      <trkpt lat="37.62634967453777790069580078125" lon="-1.96426221169531345367431640625">
        <ele>893.79998779296875</ele>
        <time>2019-10-27T09:33:55.000Z</time>
      </trkpt>
      <trkpt lat="37.6264389418065547943115234375" lon="-1.96454350836575031280517578125">
        <ele>891</ele>
        <time>2019-10-27T09:33:58.000Z</time>
      </trkpt>
      <trkpt lat="37.62648261152207851409912109375" lon="-1.9647289998829364776611328125">
        <ele>891.20001220703125</ele>
        <time>2019-10-27T09:34:00.000Z</time>
      </trkpt>
      <trkpt lat="37.62650105170905590057373046875" lon="-1.96491315029561519622802734375">
        <ele>891.79998779296875</ele>
        <time>2019-10-27T09:34:03.000Z</time>
      </trkpt>
      <trkpt lat="37.62650708667933940887451171875" lon="-1.965142898261547088623046875">
        <ele>893.5999755859375</ele>
        <time>2019-10-27T09:34:10.000Z</time>
      </trkpt>
      <trkpt lat="37.626518569886684417724609375" lon="-1.96538186632096767425537109375">
        <ele>894.79998779296875</ele>
        <time>2019-10-27T09:34:18.000Z</time>
      </trkpt>
      <trkpt lat="37.62652183882892131805419921875" lon="-1.9656332395970821380615234375">
        <ele>896.5999755859375</ele>
        <time>2019-10-27T09:34:27.000Z</time>
      </trkpt>
      <trkpt lat="37.62653742916882038116455078125" lon="-1.96586449630558490753173828125">
        <ele>897.4000244140625</ele>
        <time>2019-10-27T09:34:35.000Z</time>
      </trkpt>
      <trkpt lat="37.62654664926230907440185546875" lon="-1.9661100022494792938232421875">
        <ele>899.20001220703125</ele>
        <time>2019-10-27T09:34:45.000Z</time>
      </trkpt>
      <trkpt lat="37.62656156904995441436767578125" lon="-1.96633614599704742431640625">
        <ele>900.5999755859375</ele>
        <time>2019-10-27T09:34:55.000Z</time>
      </trkpt>
      <trkpt lat="37.62658596038818359375" lon="-1.9665807299315929412841796875">
        <ele>903.20001220703125</ele>
        <time>2019-10-27T09:35:06.000Z</time>
      </trkpt>
      <trkpt lat="37.626615799963474273681640625" lon="-1.9668067060410976409912109375">
        <ele>904.79998779296875</ele>
        <time>2019-10-27T09:35:16.000Z</time>
      </trkpt>
      <trkpt lat="37.6266434602439403533935546875" lon="-1.9670494459569454193115234375">
        <ele>906.4000244140625</ele>
        <time>2019-10-27T09:35:26.000Z</time>
      </trkpt>
      <trkpt lat="37.6266766525804996490478515625" lon="-1.96727215312421321868896484375">
        <ele>908.79998779296875</ele>
        <time>2019-10-27T09:35:34.000Z</time>
      </trkpt>
      <trkpt lat="37.62671847827732563018798828125" lon="-1.9675171561539173126220703125">
        <ele>911.20001220703125</ele>
        <time>2019-10-27T09:35:42.000Z</time>
      </trkpt>
      <trkpt lat="37.62675988487899303436279296875" lon="-1.96774028241634368896484375">
        <ele>913.20001220703125</ele>
        <time>2019-10-27T09:35:49.000Z</time>
      </trkpt>
      <trkpt lat="37.6267966814339160919189453125" lon="-1.96797707118093967437744140625">
        <ele>914.4000244140625</ele>
        <time>2019-10-27T09:35:56.000Z</time>
      </trkpt>
      <trkpt lat="37.626830376684665679931640625" lon="-1.96822643280029296875">
        <ele>915</ele>
        <time>2019-10-27T09:36:03.000Z</time>
      </trkpt>
      <trkpt lat="37.62685795314610004425048828125" lon="-1.96846892125904560089111328125">
        <ele>915.5999755859375</ele>
        <time>2019-10-27T09:36:10.000Z</time>
      </trkpt>
      <trkpt lat="37.6268855296075344085693359375" lon="-1.96870093233883380889892578125">
        <ele>915.5999755859375</ele>
        <time>2019-10-27T09:36:17.000Z</time>
      </trkpt>
      <trkpt lat="37.62690857984125614166259765625" lon="-1.96893746964633464813232421875">
        <ele>915.4000244140625</ele>
        <time>2019-10-27T09:36:24.000Z</time>
      </trkpt>
      <trkpt lat="37.6269582845270633697509765625" lon="-1.96920116432011127471923828125">
        <ele>915.79998779296875</ele>
        <time>2019-10-27T09:36:31.000Z</time>
      </trkpt>
      <trkpt lat="37.62698619626462459564208984375" lon="-1.9694812037050724029541015625">
        <ele>916</ele>
        <time>2019-10-27T09:36:36.000Z</time>
      </trkpt>
      <trkpt lat="37.62702248990535736083984375" lon="-1.96971497498452663421630859375">
        <ele>915.79998779296875</ele>
        <time>2019-10-27T09:36:39.000Z</time>
      </trkpt>
      <trkpt lat="37.6270756311714649200439453125" lon="-1.97000817395746707916259765625">
        <ele>914.5999755859375</ele>
        <time>2019-10-27T09:36:42.000Z</time>
      </trkpt>
      <trkpt lat="37.62710438109934329986572265625" lon="-1.9702214933931827545166015625">
        <ele>912.79998779296875</ele>
        <time>2019-10-27T09:36:44.000Z</time>
      </trkpt>
      <trkpt lat="37.6271242462098598480224609375" lon="-1.9704937376081943511962890625">
        <ele>911.20001220703125</ele>
        <time>2019-10-27T09:36:47.000Z</time>
      </trkpt>
      <trkpt lat="37.62715182267129421234130859375" lon="-1.9707321189343929290771484375">
        <ele>912</ele>
        <time>2019-10-27T09:36:51.000Z</time>
      </trkpt>
      <trkpt lat="37.627187110483646392822265625" lon="-1.97097192518413066864013671875">
        <ele>914</ele>
        <time>2019-10-27T09:36:56.000Z</time>
      </trkpt>
      <trkpt lat="37.62723161838948726654052734375" lon="-1.971228159964084625244140625">
        <ele>916.5999755859375</ele>
        <time>2019-10-27T09:37:01.000Z</time>
      </trkpt>
      <trkpt lat="37.62725961394608020782470703125" lon="-1.97142605669796466827392578125">
        <ele>917</ele>
        <time>2019-10-27T09:37:05.000Z</time>
      </trkpt>
      <trkpt lat="37.6273113302886486053466796875" lon="-1.971622444689273834228515625">
        <ele>917</ele>
        <time>2019-10-27T09:37:09.000Z</time>
      </trkpt>
      <trkpt lat="37.62731778435409069061279296875" lon="-1.97181061841547489166259765625">
        <ele>916.4000244140625</ele>
        <time>2019-10-27T09:37:13.000Z</time>
      </trkpt>
      <trkpt lat="37.62732423841953277587890625" lon="-1.971905417740345001220703125">
        <ele>916.4000244140625</ele>
        <time>2019-10-27T09:37:16.000Z</time>
      </trkpt>
      <trkpt lat="37.62732532806694507598876953125" lon="-1.97196073830127716064453125">
        <ele>916.4000244140625</ele>
        <time>2019-10-27T09:37:18.000Z</time>
      </trkpt>
      <trkpt lat="37.627334296703338623046875" lon="-1.97221345268189907073974609375">
        <ele>916</ele>
        <time>2019-10-27T09:37:27.000Z</time>
      </trkpt>
      <trkpt lat="37.62735483236610889434814453125" lon="-1.9724390096962451934814453125">
        <ele>915.79998779296875</ele>
        <time>2019-10-27T09:37:33.000Z</time>
      </trkpt>
      <trkpt lat="37.6274373941123485565185546875" lon="-1.97268426418304443359375">
        <ele>916.20001220703125</ele>
        <time>2019-10-27T09:37:38.000Z</time>
      </trkpt>
      <trkpt lat="37.62753873132169246673583984375" lon="-1.97290160693228244781494140625">
        <ele>917</ele>
        <time>2019-10-27T09:37:41.000Z</time>
      </trkpt>
      <trkpt lat="37.6276415772736072540283203125" lon="-1.97319832630455493927001953125">
        <ele>916.79998779296875</ele>
        <time>2019-10-27T09:37:44.000Z</time>
      </trkpt>
      <trkpt lat="37.6276714168488979339599609375" lon="-1.9734247215092182159423828125">
        <ele>915.79998779296875</ele>
        <time>2019-10-27T09:37:46.000Z</time>
      </trkpt>
      <trkpt lat="37.6276727579534053802490234375" lon="-1.973705179989337921142578125">
        <ele>916</ele>
        <time>2019-10-27T09:37:49.000Z</time>
      </trkpt>
      <trkpt lat="37.62766714207828044891357421875" lon="-1.97395973838865756988525390625">
        <ele>917.5999755859375</ele>
        <time>2019-10-27T09:37:54.000Z</time>
      </trkpt>
      <trkpt lat="37.62768005020916461944580078125" lon="-1.9742129556834697723388671875">
        <ele>919</ele>
        <time>2019-10-27T09:38:02.000Z</time>
      </trkpt>
      <trkpt lat="37.6277180202305316925048828125" lon="-1.9744617305696010589599609375">
        <ele>921</ele>
        <time>2019-10-27T09:38:11.000Z</time>
      </trkpt>
      <trkpt lat="37.62774760834872722625732421875" lon="-1.97470958344638347625732421875">
        <ele>923.20001220703125</ele>
        <time>2019-10-27T09:38:20.000Z</time>
      </trkpt>
      <trkpt lat="37.62777375988662242889404296875" lon="-1.97495584376156330108642578125">
        <ele>924</ele>
        <time>2019-10-27T09:38:29.000Z</time>
      </trkpt>
      <trkpt lat="37.62781047262251377105712890625" lon="-1.975199170410633087158203125">
        <ele>924.20001220703125</ele>
        <time>2019-10-27T09:38:38.000Z</time>
      </trkpt>
      <trkpt lat="37.62784182094037532806396484375" lon="-1.97542439214885234832763671875">
        <ele>925.4000244140625</ele>
        <time>2019-10-27T09:38:46.000Z</time>
      </trkpt>
      <trkpt lat="37.62786596082150936126708984375" lon="-1.97566847316920757293701171875">
        <ele>926.5999755859375</ele>
        <time>2019-10-27T09:38:54.000Z</time>
      </trkpt>
      <trkpt lat="37.62789060361683368682861328125" lon="-1.97590333409607410430908203125">
        <ele>927.79998779296875</ele>
        <time>2019-10-27T09:39:01.000Z</time>
      </trkpt>
      <trkpt lat="37.62792413122951984405517578125" lon="-1.97615839540958404541015625">
        <ele>928.5999755859375</ele>
        <time>2019-10-27T09:39:07.000Z</time>
      </trkpt>
      <trkpt lat="37.62795598246157169342041015625" lon="-1.9763986207544803619384765625">
        <ele>929</ele>
        <time>2019-10-27T09:39:11.000Z</time>
      </trkpt>
      <trkpt lat="37.62798112817108631134033203125" lon="-1.97662384249269962310791015625">
        <ele>928.4000244140625</ele>
        <time>2019-10-27T09:39:14.000Z</time>
      </trkpt>
      <trkpt lat="37.62800878845155239105224609375" lon="-1.97688032872974872589111328125">
        <ele>927.79998779296875</ele>
        <time>2019-10-27T09:39:17.000Z</time>
      </trkpt>
      <trkpt lat="37.6280222833156585693359375" lon="-1.977132372558116912841796875">
        <ele>928</ele>
        <time>2019-10-27T09:39:20.000Z</time>
      </trkpt>
      <trkpt lat="37.62802437879145145416259765625" lon="-1.977367065846920013427734375">
        <ele>927.20001220703125</ele>
        <time>2019-10-27T09:39:23.000Z</time>
      </trkpt>
      <trkpt lat="37.62805237434804439544677734375" lon="-1.9776555709540843963623046875">
        <ele>927.5999755859375</ele>
        <time>2019-10-27T09:39:27.000Z</time>
      </trkpt>
      <trkpt lat="37.62807517312467098236083984375" lon="-1.97789101861417293548583984375">
        <ele>926</ele>
        <time>2019-10-27T09:39:30.000Z</time>
      </trkpt>
      <trkpt lat="37.62809746898710727691650390625" lon="-1.97818589396774768829345703125">
        <ele>925</ele>
        <time>2019-10-27T09:39:33.000Z</time>
      </trkpt>
      <trkpt lat="37.62811406515538692474365234375" lon="-1.97842058725655078887939453125">
        <ele>924.4000244140625</ele>
        <time>2019-10-27T09:39:35.000Z</time>
      </trkpt>
      <trkpt lat="37.6281220279633998870849609375" lon="-1.978647150099277496337890625">
        <ele>924.79998779296875</ele>
        <time>2019-10-27T09:39:37.000Z</time>
      </trkpt>
      <trkpt lat="37.628117166459560394287109375" lon="-1.97889827191829681396484375">
        <ele>926.79998779296875</ele>
        <time>2019-10-27T09:39:40.000Z</time>
      </trkpt>
      <trkpt lat="37.62810903601348400115966796875" lon="-1.97915500961244106292724609375">
        <ele>928.5999755859375</ele>
        <time>2019-10-27T09:39:46.000Z</time>
      </trkpt>
      <trkpt lat="37.62809403240680694580078125" lon="-1.97939238511025905609130859375">
        <ele>929</ele>
        <time>2019-10-27T09:39:53.000Z</time>
      </trkpt>
      <trkpt lat="37.628086991608142852783203125" lon="-1.979673095047473907470703125">
        <ele>928.5999755859375</ele>
        <time>2019-10-27T09:39:59.000Z</time>
      </trkpt>
      <trkpt lat="37.62805907987058162689208984375" lon="-1.979967467486858367919921875">
        <ele>927.5999755859375</ele>
        <time>2019-10-27T09:40:03.000Z</time>
      </trkpt>
      <trkpt lat="37.62803326360881328582763671875" lon="-1.98023057542741298675537109375">
        <ele>927.79998779296875</ele>
        <time>2019-10-27T09:40:06.000Z</time>
      </trkpt>
      <trkpt lat="37.62800660915672779083251953125" lon="-1.98045521043241024017333984375">
        <ele>928.20001220703125</ele>
        <time>2019-10-27T09:40:09.000Z</time>
      </trkpt>
      <trkpt lat="37.62798381038010120391845703125" lon="-1.9806800968945026397705078125">
        <ele>928.20001220703125</ele>
        <time>2019-10-27T09:40:13.000Z</time>
      </trkpt>
      <trkpt lat="37.6279473491013050079345703125" lon="-1.9809090904891490936279296875">
        <ele>928.79998779296875</ele>
        <time>2019-10-27T09:40:19.000Z</time>
      </trkpt>
      <trkpt lat="37.6279547251760959625244140625" lon="-1.9810086674988269805908203125">
        <ele>929.20001220703125</ele>
        <time>2019-10-27T09:40:22.000Z</time>
      </trkpt>
      <trkpt lat="37.62795866467058658599853515625" lon="-1.98123405687510967254638671875">
        <ele>929.5999755859375</ele>
        <time>2019-10-27T09:40:30.000Z</time>
      </trkpt>
      <trkpt lat="37.6279450021684169769287109375" lon="-1.98120069690048694610595703125">
        <ele>929.4000244140625</ele>
        <time>2019-10-27T09:41:07.000Z</time>
      </trkpt>
      <trkpt lat="37.62792664580047130584716796875" lon="-1.98114839382469654083251953125">
        <ele>929.4000244140625</ele>
        <time>2019-10-27T09:41:13.000Z</time>
      </trkpt>
      <trkpt lat="37.62791608460247516632080078125" lon="-1.98101428337395191192626953125">
        <ele>929</ele>
        <time>2019-10-27T09:41:24.000Z</time>
      </trkpt>
      <trkpt lat="37.6279201917350292205810546875" lon="-1.98111109435558319091796875">
        <ele>929.20001220703125</ele>
        <time>2019-10-27T09:41:42.000Z</time>
      </trkpt>
      <trkpt lat="37.6279433257877826690673828125" lon="-1.98122718371450901031494140625">
        <ele>929.4000244140625</ele>
        <time>2019-10-27T09:41:51.000Z</time>
      </trkpt>
      <trkpt lat="37.62794558890163898468017578125" lon="-1.98120254091918468475341796875">
        <ele>929.4000244140625</ele>
        <time>2019-10-27T09:44:58.000Z</time>
      </trkpt>
      <trkpt lat="37.62798699550330638885498046875" lon="-1.981264986097812652587890625">
        <ele>929.79998779296875</ele>
        <time>2019-10-27T09:46:19.000Z</time>
      </trkpt>
      <trkpt lat="37.6279949583113193511962890625" lon="-1.98128543794155120849609375">
        <ele>930</ele>
        <time>2019-10-27T09:46:21.000Z</time>
      </trkpt>
      <trkpt lat="37.628058493137359619140625" lon="-1.98148836381733417510986328125">
        <ele>930.79998779296875</ele>
        <time>2019-10-27T09:46:42.000Z</time>
      </trkpt>
      <trkpt lat="37.62807936407625675201416015625" lon="-1.9816302694380283355712890625">
        <ele>931</ele>
        <time>2019-10-27T09:46:50.000Z</time>
      </trkpt>
      <trkpt lat="37.628070898354053497314453125" lon="-1.981866471469402313232421875">
        <ele>931</ele>
        <time>2019-10-27T09:47:04.000Z</time>
      </trkpt>
      <trkpt lat="37.6280361972749233245849609375" lon="-1.98211717419326305389404296875">
        <ele>931.20001220703125</ele>
        <time>2019-10-27T09:47:19.000Z</time>
      </trkpt>
      <trkpt lat="37.6279480196535587310791015625" lon="-1.9823558069765567779541015625">
        <ele>932</ele>
        <time>2019-10-27T09:47:25.000Z</time>
      </trkpt>
      <trkpt lat="37.62784550897777080535888671875" lon="-1.98258521966636180877685546875">
        <ele>932</ele>
        <time>2019-10-27T09:47:31.000Z</time>
      </trkpt>
      <trkpt lat="37.62780091725289821624755859375" lon="-1.98284455575048923492431640625">
        <ele>932.5999755859375</ele>
        <time>2019-10-27T09:47:37.000Z</time>
      </trkpt>
      <trkpt lat="37.62777795083820819854736328125" lon="-1.98307137005031108856201171875">
        <ele>933</ele>
        <time>2019-10-27T09:47:42.000Z</time>
      </trkpt>
      <trkpt lat="37.6277475245296955108642578125" lon="-1.98333573527634143829345703125">
        <ele>933.4000244140625</ele>
        <time>2019-10-27T09:47:48.000Z</time>
      </trkpt>
      <trkpt lat="37.62771827168762683868408203125" lon="-1.98356908746063709259033203125">
        <ele>933.20001220703125</ele>
        <time>2019-10-27T09:47:53.000Z</time>
      </trkpt>
      <trkpt lat="37.6276680640876293182373046875" lon="-1.9838216342031955718994140625">
        <ele>931.5999755859375</ele>
        <time>2019-10-27T09:47:57.000Z</time>
      </trkpt>
      <trkpt lat="37.62760561890900135040283203125" lon="-1.98408558033406734466552734375">
        <ele>929.4000244140625</ele>
        <time>2019-10-27T09:48:00.000Z</time>
      </trkpt>
      <trkpt lat="37.62753688730299472808837890625" lon="-1.9843907654285430908203125">
        <ele>927</ele>
        <time>2019-10-27T09:48:03.000Z</time>
      </trkpt>
      <trkpt lat="37.6274856738746166229248046875" lon="-1.98471472598612308502197265625">
        <ele>926.5999755859375</ele>
        <time>2019-10-27T09:48:06.000Z</time>
      </trkpt>
      <trkpt lat="37.62747117318212985992431640625" lon="-1.984948329627513885498046875">
        <ele>926.79998779296875</ele>
        <time>2019-10-27T09:48:08.000Z</time>
      </trkpt>
      <trkpt lat="37.627468071877956390380859375" lon="-1.98519869707524776458740234375">
        <ele>926.5999755859375</ele>
        <time>2019-10-27T09:48:10.000Z</time>
      </trkpt>
      <trkpt lat="37.62745809741318225860595703125" lon="-1.98545753024518489837646484375">
        <ele>924.79998779296875</ele>
        <time>2019-10-27T09:48:12.000Z</time>
      </trkpt>
      <trkpt lat="37.6274434290826320648193359375" lon="-1.98570840060710906982421875">
        <ele>923.20001220703125</ele>
        <time>2019-10-27T09:48:14.000Z</time>
      </trkpt>
      <trkpt lat="37.62744762003421783447265625" lon="-1.9859437644481658935546875">
        <ele>922</ele>
        <time>2019-10-27T09:48:16.000Z</time>
      </trkpt>
      <trkpt lat="37.6274429261684417724609375" lon="-1.98616747744381427764892578125">
        <ele>921.20001220703125</ele>
        <time>2019-10-27T09:48:18.000Z</time>
      </trkpt>
      <trkpt lat="37.6273773796856403350830078125" lon="-1.986412145197391510009765625">
        <ele>921</ele>
        <time>2019-10-27T09:48:21.000Z</time>
      </trkpt>
      <trkpt lat="37.6273586042225360870361328125" lon="-1.98648213408887386322021484375">
        <ele>921.20001220703125</ele>
        <time>2019-10-27T09:48:22.000Z</time>
      </trkpt>
      <trkpt lat="37.6272989250719547271728515625" lon="-1.98672872968018054962158203125">
        <ele>921.79998779296875</ele>
        <time>2019-10-27T09:48:26.000Z</time>
      </trkpt>
      <trkpt lat="37.62723413296043872833251953125" lon="-1.9869675301015377044677734375">
        <ele>923.5999755859375</ele>
        <time>2019-10-27T09:48:31.000Z</time>
      </trkpt>
      <trkpt lat="37.62719691731035709381103515625" lon="-1.9871965236961841583251953125">
        <ele>925.20001220703125</ele>
        <time>2019-10-27T09:48:37.000Z</time>
      </trkpt>
      <trkpt lat="37.62721116654574871063232421875" lon="-1.9873313046991825103759765625">
        <ele>926.4000244140625</ele>
        <time>2019-10-27T09:48:42.000Z</time>
      </trkpt>
      <trkpt lat="37.62721032835543155670166015625" lon="-1.98758116923272609710693359375">
        <ele>928.5999755859375</ele>
        <time>2019-10-27T09:48:50.000Z</time>
      </trkpt>
      <trkpt lat="37.62720513157546520233154296875" lon="-1.98780965991318225860595703125">
        <ele>930.20001220703125</ele>
        <time>2019-10-27T09:48:55.000Z</time>
      </trkpt>
      <trkpt lat="37.62719549238681793212890625" lon="-1.98804116807878017425537109375">
        <ele>931.20001220703125</ele>
        <time>2019-10-27T09:49:00.000Z</time>
      </trkpt>
      <trkpt lat="37.62719222344458103179931640625" lon="-1.98813269846141338348388671875">
        <ele>931.5999755859375</ele>
        <time>2019-10-27T09:49:02.000Z</time>
      </trkpt>
      <trkpt lat="37.62720127590000629425048828125" lon="-1.9883711636066436767578125">
        <ele>933</ele>
        <time>2019-10-27T09:49:07.000Z</time>
      </trkpt>
      <trkpt lat="37.62721426784992218017578125" lon="-1.98864868842065334320068359375">
        <ele>933.20001220703125</ele>
        <time>2019-10-27T09:49:12.000Z</time>
      </trkpt>
      <trkpt lat="37.6272261701524257659912109375" lon="-1.98891364037990570068359375">
        <ele>932.20001220703125</ele>
        <time>2019-10-27T09:49:17.000Z</time>
      </trkpt>
      <trkpt lat="37.62725793756544589996337890625" lon="-1.989166438579559326171875">
        <ele>931.4000244140625</ele>
        <time>2019-10-27T09:49:22.000Z</time>
      </trkpt>
      <trkpt lat="37.62729062698781490325927734375" lon="-1.9894197396934032440185546875">
        <ele>931.20001220703125</ele>
        <time>2019-10-27T09:49:27.000Z</time>
      </trkpt>
      <trkpt lat="37.62731191702187061309814453125" lon="-1.98959098197519779205322265625">
        <ele>930.4000244140625</ele>
        <time>2019-10-27T09:49:30.000Z</time>
      </trkpt>
      <trkpt lat="37.62734301388263702392578125" lon="-1.98983154259622097015380859375">
        <ele>928.20001220703125</ele>
        <time>2019-10-27T09:49:34.000Z</time>
      </trkpt>
      <trkpt lat="37.62739129364490509033203125" lon="-1.99012859724462032318115234375">
        <ele>925</ele>
        <time>2019-10-27T09:49:38.000Z</time>
      </trkpt>
      <trkpt lat="37.627523057162761688232421875" lon="-1.990409307181835174560546875">
        <ele>922</ele>
        <time>2019-10-27T09:49:41.000Z</time>
      </trkpt>
      <trkpt lat="37.62758365832269191741943359375" lon="-1.99050645343959331512451171875">
        <ele>921.5999755859375</ele>
        <time>2019-10-27T09:49:42.000Z</time>
      </trkpt>
      <trkpt lat="37.627694047987461090087890625" lon="-1.990709714591503143310546875">
        <ele>920.4000244140625</ele>
        <time>2019-10-27T09:49:44.000Z</time>
      </trkpt>
      <trkpt lat="37.62781600467860698699951171875" lon="-1.99100551195442676544189453125">
        <ele>920</ele>
        <time>2019-10-27T09:49:47.000Z</time>
      </trkpt>
      <trkpt lat="37.62791440822184085845947265625" lon="-1.99127658270299434661865234375">
        <ele>920.4000244140625</ele>
        <time>2019-10-27T09:49:50.000Z</time>
      </trkpt>
      <trkpt lat="37.62801784090697765350341796875" lon="-1.99153038673102855682373046875">
        <ele>920</ele>
        <time>2019-10-27T09:49:53.000Z</time>
      </trkpt>
      <trkpt lat="37.62810199521481990814208984375" lon="-1.991758458316326141357421875">
        <ele>920</ele>
        <time>2019-10-27T09:49:56.000Z</time>
      </trkpt>
      <trkpt lat="37.62819671072065830230712890625" lon="-1.9920248351991176605224609375">
        <ele>919.5999755859375</ele>
        <time>2019-10-27T09:50:00.000Z</time>
      </trkpt>
      <trkpt lat="37.6282665319740772247314453125" lon="-1.99218920432031154632568359375">
        <ele>919.4000244140625</ele>
        <time>2019-10-27T09:50:03.000Z</time>
      </trkpt>
      <trkpt lat="37.628373317420482635498046875" lon="-1.99241065420210361480712890625">
        <ele>920</ele>
        <time>2019-10-27T09:50:07.000Z</time>
      </trkpt>
      <trkpt lat="37.6284004747867584228515625" lon="-1.992470920085906982421875">
        <ele>920</ele>
        <time>2019-10-27T09:50:08.000Z</time>
      </trkpt>
      <trkpt lat="37.6284935139119625091552734375" lon="-1.9927007518708705902099609375">
        <ele>920</ele>
        <time>2019-10-27T09:50:12.000Z</time>
      </trkpt>
      <trkpt lat="37.6285828649997711181640625" lon="-1.9929201900959014892578125">
        <ele>920</ele>
        <time>2019-10-27T09:50:16.000Z</time>
      </trkpt>
      <trkpt lat="37.628621421754360198974609375" lon="-1.9930172525346279144287109375">
        <ele>920.4000244140625</ele>
        <time>2019-10-27T09:50:18.000Z</time>
      </trkpt>
      <trkpt lat="37.6287080906331539154052734375" lon="-1.99327214621007442474365234375">
        <ele>921.5999755859375</ele>
        <time>2019-10-27T09:50:23.000Z</time>
      </trkpt>
      <trkpt lat="37.6288147084414958953857421875" lon="-1.99350466020405292510986328125">
        <ele>922.79998779296875</ele>
        <time>2019-10-27T09:50:28.000Z</time>
      </trkpt>
      <trkpt lat="37.62889861129224300384521484375" lon="-1.99374287389218807220458984375">
        <ele>924.79998779296875</ele>
        <time>2019-10-27T09:50:33.000Z</time>
      </trkpt>
      <trkpt lat="37.62895929627120494842529296875" lon="-1.993994750082492828369140625">
        <ele>926</ele>
        <time>2019-10-27T09:50:38.000Z</time>
      </trkpt>
      <trkpt lat="37.629002630710601806640625" lon="-1.994101367890834808349609375">
        <ele>926</ele>
        <time>2019-10-27T09:50:40.000Z</time>
      </trkpt>
      <trkpt lat="37.62904244475066661834716796875" lon="-1.994376964867115020751953125">
        <ele>925.79998779296875</ele>
        <time>2019-10-27T09:50:45.000Z</time>
      </trkpt>
      <trkpt lat="37.62907505035400390625" lon="-1.99464661069214344024658203125">
        <ele>925.79998779296875</ele>
        <time>2019-10-27T09:50:50.000Z</time>
      </trkpt>
      <trkpt lat="37.6291459612548351287841796875" lon="-1.99492790736258029937744140625">
        <ele>925.5999755859375</ele>
        <time>2019-10-27T09:50:55.000Z</time>
      </trkpt>
      <trkpt lat="37.62916213832795619964599609375" lon="-1.99499152600765228271484375">
        <ele>925.4000244140625</ele>
        <time>2019-10-27T09:50:56.000Z</time>
      </trkpt>
      <trkpt lat="37.62919767759740352630615234375" lon="-1.995223872363567352294921875">
        <ele>924.5999755859375</ele>
        <time>2019-10-27T09:51:01.000Z</time>
      </trkpt>
      <trkpt lat="37.62924176640808582305908203125" lon="-1.99546183459460735321044921875">
        <ele>924.20001220703125</ele>
        <time>2019-10-27T09:51:06.000Z</time>
      </trkpt>
      <trkpt lat="37.62927244417369365692138671875" lon="-1.99564707465469837188720703125">
        <ele>924.5999755859375</ele>
        <time>2019-10-27T09:51:10.000Z</time>
      </trkpt>
      <trkpt lat="37.62932608835399150848388671875" lon="-1.9958788342773914337158203125">
        <ele>925.4000244140625</ele>
        <time>2019-10-27T09:51:15.000Z</time>
      </trkpt>
      <trkpt lat="37.62938660569489002227783203125" lon="-1.99611361138522624969482421875">
        <ele>925.5999755859375</ele>
        <time>2019-10-27T09:51:20.000Z</time>
      </trkpt>
      <trkpt lat="37.62942281551659107208251953125" lon="-1.99624973349273204803466796875">
        <ele>925.79998779296875</ele>
        <time>2019-10-27T09:51:23.000Z</time>
      </trkpt>
      <trkpt lat="37.62949607335031032562255859375" lon="-1.9964655674993991851806640625">
        <ele>926.20001220703125</ele>
        <time>2019-10-27T09:51:29.000Z</time>
      </trkpt>
      <trkpt lat="37.6295670680701732635498046875" lon="-1.9966645538806915283203125">
        <ele>926.5999755859375</ele>
        <time>2019-10-27T09:51:35.000Z</time>
      </trkpt>
      <trkpt lat="37.62964225374162197113037109375" lon="-1.9968756102025508880615234375">
        <ele>927.20001220703125</ele>
        <time>2019-10-27T09:51:41.000Z</time>
      </trkpt>
      <trkpt lat="37.6296877674758434295654296875" lon="-1.99711608700454235076904296875">
        <ele>927.4000244140625</ele>
        <time>2019-10-27T09:51:47.000Z</time>
      </trkpt>
      <trkpt lat="37.6297380588948726654052734375" lon="-1.99735363014042377471923828125">
        <ele>927</ele>
        <time>2019-10-27T09:51:52.000Z</time>
      </trkpt>
      <trkpt lat="37.62978860177099704742431640625" lon="-1.9976061768829822540283203125">
        <ele>927.4000244140625</ele>
        <time>2019-10-27T09:51:57.000Z</time>
      </trkpt>
      <trkpt lat="37.62984107248485088348388671875" lon="-1.9978646747767925262451171875">
        <ele>927</ele>
        <time>2019-10-27T09:52:02.000Z</time>
      </trkpt>
      <trkpt lat="37.62987828813493251800537109375" lon="-1.99809215962886810302734375">
        <ele>926.20001220703125</ele>
        <time>2019-10-27T09:52:06.000Z</time>
      </trkpt>
      <trkpt lat="37.62991500087082386016845703125" lon="-1.998372115194797515869140625">
        <ele>925.79998779296875</ele>
        <time>2019-10-27T09:52:10.000Z</time>
      </trkpt>
      <trkpt lat="37.62995548546314239501953125" lon="-1.998645365238189697265625">
        <ele>924.4000244140625</ele>
        <time>2019-10-27T09:52:13.000Z</time>
      </trkpt>
      <trkpt lat="37.630012147128582000732421875" lon="-1.99897418729960918426513671875">
        <ele>924</ele>
        <time>2019-10-27T09:52:16.000Z</time>
      </trkpt>
      <trkpt lat="37.63006101362407207489013671875" lon="-1.99920066632330417633056640625">
        <ele>924</ele>
        <time>2019-10-27T09:52:18.000Z</time>
      </trkpt>
      <trkpt lat="37.63012354262173175811767578125" lon="-1.99941448867321014404296875">
        <ele>924.4000244140625</ele>
        <time>2019-10-27T09:52:20.000Z</time>
      </trkpt>
      <trkpt lat="37.6302040927112102508544921875" lon="-1.99971598573029041290283203125">
        <ele>923.5999755859375</ele>
        <time>2019-10-27T09:52:23.000Z</time>
      </trkpt>
      <trkpt lat="37.63022965751588344573974609375" lon="-1.99996828101575374603271484375">
        <ele>922.5999755859375</ele>
        <time>2019-10-27T09:52:26.000Z</time>
      </trkpt>
      <trkpt lat="37.63024189509451389312744140625" lon="-2.00004455633461475372314453125">
        <ele>922</ele>
        <time>2019-10-27T09:52:27.000Z</time>
      </trkpt>
      <trkpt lat="37.6303033344447612762451171875" lon="-2.00029416941106319427490234375">
        <ele>921</ele>
        <time>2019-10-27T09:52:30.000Z</time>
      </trkpt>
      <trkpt lat="37.630368210375308990478515625" lon="-2.00058217160403728485107421875">
        <ele>921</ele>
        <time>2019-10-27T09:52:33.000Z</time>
      </trkpt>
      <trkpt lat="37.630434595048427581787109375" lon="-2.00087335892021656036376953125">
        <ele>920</ele>
        <time>2019-10-27T09:52:36.000Z</time>
      </trkpt>
      <trkpt lat="37.63049771077930927276611328125" lon="-2.00116152875125408172607421875">
        <ele>918.5999755859375</ele>
        <time>2019-10-27T09:52:39.000Z</time>
      </trkpt>
      <trkpt lat="37.6305542886257171630859375" lon="-2.001456320285797119140625">
        <ele>918.79998779296875</ele>
        <time>2019-10-27T09:52:42.000Z</time>
      </trkpt>
      <trkpt lat="37.63058471493422985076904296875" lon="-2.0017190091311931610107421875">
        <ele>919.79998779296875</ele>
        <time>2019-10-27T09:52:45.000Z</time>
      </trkpt>
      <trkpt lat="37.630611956119537353515625" lon="-2.001964934170246124267578125">
        <ele>920.5999755859375</ele>
        <time>2019-10-27T09:52:49.000Z</time>
      </trkpt>
      <trkpt lat="37.63065009377896785736083984375" lon="-2.00223407708108425140380859375">
        <ele>921.5999755859375</ele>
        <time>2019-10-27T09:52:54.000Z</time>
      </trkpt>
      <trkpt lat="37.63070809654891490936279296875" lon="-2.002496682107448577880859375">
        <ele>921.5999755859375</ele>
        <time>2019-10-27T09:52:59.000Z</time>
      </trkpt>
      <trkpt lat="37.63074447400867938995361328125" lon="-2.0026551000773906707763671875">
        <ele>922</ele>
        <time>2019-10-27T09:53:02.000Z</time>
      </trkpt>
      <trkpt lat="37.6308287121355533599853515625" lon="-2.00286515057086944580078125">
        <ele>921.20001220703125</ele>
        <time>2019-10-27T09:53:06.000Z</time>
      </trkpt>
      <trkpt lat="37.63087975792586803436279296875" lon="-2.0029985904693603515625">
        <ele>920.79998779296875</ele>
        <time>2019-10-27T09:53:08.000Z</time>
      </trkpt>
      <trkpt lat="37.63092217035591602325439453125" lon="-2.003253735601902008056640625">
        <ele>920.4000244140625</ele>
        <time>2019-10-27T09:53:12.000Z</time>
      </trkpt>
      <trkpt lat="37.63095729053020477294921875" lon="-2.0034956373274326324462890625">
        <ele>920.5999755859375</ele>
        <time>2019-10-27T09:53:17.000Z</time>
      </trkpt>
      <trkpt lat="37.6310268603265285491943359375" lon="-2.00372748076915740966796875">
        <ele>921.5999755859375</ele>
        <time>2019-10-27T09:53:23.000Z</time>
      </trkpt>
      <trkpt lat="37.63108612038195133209228515625" lon="-2.00384893454611301422119140625">
        <ele>922.4000244140625</ele>
        <time>2019-10-27T09:53:27.000Z</time>
      </trkpt>
      <trkpt lat="37.631115205585956573486328125" lon="-2.003961168229579925537109375">
        <ele>923.20001220703125</ele>
        <time>2019-10-27T09:53:31.000Z</time>
      </trkpt>
      <trkpt lat="37.6311980187892913818359375" lon="-2.0041661895811557769775390625">
        <ele>924.20001220703125</ele>
        <time>2019-10-27T09:53:39.000Z</time>
      </trkpt>
      <trkpt lat="37.63129214756190776824951171875" lon="-2.00438654981553554534912109375">
        <ele>924.79998779296875</ele>
        <time>2019-10-27T09:53:48.000Z</time>
      </trkpt>
      <trkpt lat="37.63135517947375774383544921875" lon="-2.00461068190634250640869140625">
        <ele>924.79998779296875</ele>
        <time>2019-10-27T09:53:57.000Z</time>
      </trkpt>
      <trkpt lat="37.63139926828444004058837890625" lon="-2.00484621338546276092529296875">
        <ele>923.79998779296875</ele>
        <time>2019-10-27T09:54:07.000Z</time>
      </trkpt>
      <trkpt lat="37.63141636736690998077392578125" lon="-2.00507654808461666107177734375">
        <ele>922.4000244140625</ele>
        <time>2019-10-27T09:54:14.000Z</time>
      </trkpt>
      <trkpt lat="37.6314305327832698822021484375" lon="-2.00531266629695892333984375">
        <ele>920.20001220703125</ele>
        <time>2019-10-27T09:54:21.000Z</time>
      </trkpt>
      <trkpt lat="37.63146481476724147796630859375" lon="-2.00549446977674961090087890625">
        <ele>919.20001220703125</ele>
        <time>2019-10-27T09:54:25.000Z</time>
      </trkpt>
      <trkpt lat="37.6315589435398578643798828125" lon="-2.00569546781480312347412109375">
        <ele>919.4000244140625</ele>
        <time>2019-10-27T09:54:28.000Z</time>
      </trkpt>
      <trkpt lat="37.63158400543034076690673828125" lon="-2.0057760179042816162109375">
        <ele>919.4000244140625</ele>
        <time>2019-10-27T09:54:29.000Z</time>
      </trkpt>
      <trkpt lat="37.63152684085071086883544921875" lon="-2.0060558058321475982666015625">
        <ele>917.79998779296875</ele>
        <time>2019-10-27T09:54:33.000Z</time>
      </trkpt>
      <trkpt lat="37.631523907184600830078125" lon="-2.0063243620097637176513671875">
        <ele>916.79998779296875</ele>
        <time>2019-10-27T09:54:37.000Z</time>
      </trkpt>
      <trkpt lat="37.63155542314052581787109375" lon="-2.00657858513295650482177734375">
        <ele>916.20001220703125</ele>
        <time>2019-10-27T09:54:40.000Z</time>
      </trkpt>
      <trkpt lat="37.63160713948309421539306640625" lon="-2.00687563978135585784912109375">
        <ele>915.4000244140625</ele>
        <time>2019-10-27T09:54:43.000Z</time>
      </trkpt>
      <trkpt lat="37.63165642507374286651611328125" lon="-2.007164396345615386962890625">
        <ele>915</ele>
        <time>2019-10-27T09:54:46.000Z</time>
      </trkpt>
      <trkpt lat="37.6317054592072963714599609375" lon="-2.00742884539067745208740234375">
        <ele>913.79998779296875</ele>
        <time>2019-10-27T09:54:49.000Z</time>
      </trkpt>
      <trkpt lat="37.6317505538463592529296875" lon="-2.0076963119208812713623046875">
        <ele>913.20001220703125</ele>
        <time>2019-10-27T09:54:52.000Z</time>
      </trkpt>
      <trkpt lat="37.63179472647607326507568359375" lon="-2.0079782791435718536376953125">
        <ele>912.5999755859375</ele>
        <time>2019-10-27T09:54:55.000Z</time>
      </trkpt>
      <trkpt lat="37.63183898292481899261474609375" lon="-2.0082957856357097625732421875">
        <ele>911.79998779296875</ele>
        <time>2019-10-27T09:54:58.000Z</time>
      </trkpt>
      <trkpt lat="37.6318700797855854034423828125" lon="-2.008527629077434539794921875">
        <ele>910.4000244140625</ele>
        <time>2019-10-27T09:55:00.000Z</time>
      </trkpt>
      <trkpt lat="37.6319019310176372528076171875" lon="-2.0087693631649017333984375">
        <ele>909.5999755859375</ele>
        <time>2019-10-27T09:55:02.000Z</time>
      </trkpt>
      <trkpt lat="37.63193453662097454071044921875" lon="-2.00901621021330356597900390625">
        <ele>908.20001220703125</ele>
        <time>2019-10-27T09:55:04.000Z</time>
      </trkpt>
      <trkpt lat="37.631984241306781768798828125" lon="-2.009263895452022552490234375">
        <ele>908</ele>
        <time>2019-10-27T09:55:06.000Z</time>
      </trkpt>
      <trkpt lat="37.6320521347224712371826171875" lon="-2.009503282606601715087890625">
        <ele>908.20001220703125</ele>
        <time>2019-10-27T09:55:08.000Z</time>
      </trkpt>
      <trkpt lat="37.63212664984166622161865234375" lon="-2.0097376406192779541015625">
        <ele>908</ele>
        <time>2019-10-27T09:55:10.000Z</time>
      </trkpt>
      <trkpt lat="37.63221113942563533782958984375" lon="-2.00996738858520984649658203125">
        <ele>907</ele>
        <time>2019-10-27T09:55:12.000Z</time>
      </trkpt>
      <trkpt lat="37.63230719603598117828369140625" lon="-2.01018934138119220733642578125">
        <ele>907</ele>
        <time>2019-10-27T09:55:14.000Z</time>
      </trkpt>
      <trkpt lat="37.63241834007203578948974609375" lon="-2.01039050705730915069580078125">
        <ele>907.4000244140625</ele>
        <time>2019-10-27T09:55:16.000Z</time>
      </trkpt>
      <trkpt lat="37.6325352676212787628173828125" lon="-2.01058463193476200103759765625">
        <ele>907.5999755859375</ele>
        <time>2019-10-27T09:55:18.000Z</time>
      </trkpt>
      <trkpt lat="37.63265018351376056671142578125" lon="-2.01078127138316631317138671875">
        <ele>908</ele>
        <time>2019-10-27T09:55:20.000Z</time>
      </trkpt>
      <trkpt lat="37.632815055549144744873046875" lon="-2.01103289611637592315673828125">
        <ele>908.79998779296875</ele>
        <time>2019-10-27T09:55:23.000Z</time>
      </trkpt>
      <trkpt lat="37.63299199752509593963623046875" lon="-2.01121126301586627960205078125">
        <ele>907</ele>
        <time>2019-10-27T09:55:26.000Z</time>
      </trkpt>
      <trkpt lat="37.63316969387233257293701171875" lon="-2.011309750378131866455078125">
        <ele>905.5999755859375</ele>
        <time>2019-10-27T09:55:29.000Z</time>
      </trkpt>
      <trkpt lat="37.6333630643784999847412109375" lon="-2.0114245824515819549560546875">
        <ele>905</ele>
        <time>2019-10-27T09:55:33.000Z</time>
      </trkpt>
      <trkpt lat="37.633398436009883880615234375" lon="-2.0114557631313800811767578125">
        <ele>905</ele>
        <time>2019-10-27T09:55:34.000Z</time>
      </trkpt>
      <trkpt lat="37.63349063694477081298828125" lon="-2.01153539121150970458984375">
        <ele>905.4000244140625</ele>
        <time>2019-10-27T09:55:37.000Z</time>
      </trkpt>
      <trkpt lat="37.63360823504626750946044921875" lon="-2.011619545519351959228515625">
        <ele>906</ele>
        <time>2019-10-27T09:55:41.000Z</time>
      </trkpt>
      <trkpt lat="37.63374133966863155364990234375" lon="-2.01176815666258335113525390625">
        <ele>907.4000244140625</ele>
        <time>2019-10-27T09:55:47.000Z</time>
      </trkpt>
      <trkpt lat="37.6336173713207244873046875" lon="-2.0119348727166652679443359375">
        <ele>907.20001220703125</ele>
        <time>2019-10-27T09:55:54.000Z</time>
      </trkpt>
      <trkpt lat="37.6334244199097156524658203125" lon="-2.0119160972535610198974609375">
        <ele>905.79998779296875</ele>
        <time>2019-10-27T09:55:59.000Z</time>
      </trkpt>
      <trkpt lat="37.63339030556380748748779296875" lon="-2.0118922926485538482666015625">
        <ele>905.4000244140625</ele>
        <time>2019-10-27T09:56:00.000Z</time>
      </trkpt>
      <trkpt lat="37.63320037163794040679931640625" lon="-2.0117829926311969757080078125">
        <ele>904.4000244140625</ele>
        <time>2019-10-27T09:56:05.000Z</time>
      </trkpt>
      <trkpt lat="37.633154690265655517578125" lon="-2.011769749224185943603515625">
        <ele>904.20001220703125</ele>
        <time>2019-10-27T09:56:06.000Z</time>
      </trkpt>
      <trkpt lat="37.63298193924129009246826171875" lon="-2.01182297430932521820068359375">
        <ele>904.4000244140625</ele>
        <time>2019-10-27T09:56:10.000Z</time>
      </trkpt>
      <trkpt lat="37.63291019015014171600341796875" lon="-2.0119571685791015625">
        <ele>904.5999755859375</ele>
        <time>2019-10-27T09:56:13.000Z</time>
      </trkpt>
      <trkpt lat="37.6328946836292743682861328125" lon="-2.011999748647212982177734375">
        <ele>904.79998779296875</ele>
        <time>2019-10-27T09:56:14.000Z</time>
      </trkpt>
      <trkpt lat="37.6328234374523162841796875" lon="-2.0122413150966167449951171875">
        <ele>905.5999755859375</ele>
        <time>2019-10-27T09:56:20.000Z</time>
      </trkpt>
      <trkpt lat="37.63280089013278484344482421875" lon="-2.01232186518609523773193359375">
        <ele>905.79998779296875</ele>
        <time>2019-10-27T09:56:22.000Z</time>
      </trkpt>
      <trkpt lat="37.632729895412921905517578125" lon="-2.0125618390738964080810546875">
        <ele>905.4000244140625</ele>
        <time>2019-10-27T09:56:28.000Z</time>
      </trkpt>
      <trkpt lat="37.63269812799990177154541015625" lon="-2.0127951912581920623779296875">
        <ele>905.20001220703125</ele>
        <time>2019-10-27T09:56:34.000Z</time>
      </trkpt>
      <trkpt lat="37.6326958648860454559326171875" lon="-2.01305829919874668121337890625">
        <ele>905.79998779296875</ele>
        <time>2019-10-27T09:56:41.000Z</time>
      </trkpt>
      <trkpt lat="37.632707096636295318603515625" lon="-2.0132937468588352203369140625">
        <ele>905.79998779296875</ele>
        <time>2019-10-27T09:56:47.000Z</time>
      </trkpt>
      <trkpt lat="37.632721848785877227783203125" lon="-2.0135557651519775390625">
        <ele>905.79998779296875</ele>
        <time>2019-10-27T09:56:53.000Z</time>
      </trkpt>
      <trkpt lat="37.63273567892611026763916015625" lon="-2.01381853781640529632568359375">
        <ele>905</ele>
        <time>2019-10-27T09:56:58.000Z</time>
      </trkpt>
      <trkpt lat="37.63275076635181903839111328125" lon="-2.0140715874731540679931640625">
        <ele>904.20001220703125</ele>
        <time>2019-10-27T09:57:02.000Z</time>
      </trkpt>
      <trkpt lat="37.632780857384204864501953125" lon="-2.01430183835327625274658203125">
        <ele>902.79998779296875</ele>
        <time>2019-10-27T09:57:05.000Z</time>
      </trkpt>
      <trkpt lat="37.63280089013278484344482421875" lon="-2.0145946182310581207275390625">
        <ele>901.79998779296875</ele>
        <time>2019-10-27T09:57:08.000Z</time>
      </trkpt>
      <trkpt lat="37.6328138820827007293701171875" lon="-2.01483090408146381378173828125">
        <ele>900.20001220703125</ele>
        <time>2019-10-27T09:57:10.000Z</time>
      </trkpt>
      <trkpt lat="37.632828466594219207763671875" lon="-2.01508739031851291656494140625">
        <ele>899.4000244140625</ele>
        <time>2019-10-27T09:57:12.000Z</time>
      </trkpt>
      <trkpt lat="37.63285973109304904937744140625" lon="-2.015355527400970458984375">
        <ele>898.79998779296875</ele>
        <time>2019-10-27T09:57:14.000Z</time>
      </trkpt>
      <trkpt lat="37.63290029950439929962158203125" lon="-2.01562584377825260162353515625">
        <ele>898.20001220703125</ele>
        <time>2019-10-27T09:57:16.000Z</time>
      </trkpt>
      <trkpt lat="37.63295285403728485107421875" lon="-2.01589666306972503662109375">
        <ele>897.20001220703125</ele>
        <time>2019-10-27T09:57:18.000Z</time>
      </trkpt>
      <trkpt lat="37.6330073364078998565673828125" lon="-2.01615373603999614715576171875">
        <ele>896.79998779296875</ele>
        <time>2019-10-27T09:57:20.000Z</time>
      </trkpt>
      <trkpt lat="37.6330475695431232452392578125" lon="-2.0163910277187824249267578125">
        <ele>896.20001220703125</ele>
        <time>2019-10-27T09:57:22.000Z</time>
      </trkpt>
      <trkpt lat="37.6330782473087310791015625" lon="-2.01662681065499782562255859375">
        <ele>895.5999755859375</ele>
        <time>2019-10-27T09:57:24.000Z</time>
      </trkpt>
      <trkpt lat="37.63311068527400493621826171875" lon="-2.0168630965054035186767578125">
        <ele>895</ele>
        <time>2019-10-27T09:57:26.000Z</time>
      </trkpt>
      <trkpt lat="37.63313717208802700042724609375" lon="-2.01710239984095096588134765625">
        <ele>894.4000244140625</ele>
        <time>2019-10-27T09:57:28.000Z</time>
      </trkpt>
      <trkpt lat="37.633166424930095672607421875" lon="-2.017348743975162506103515625">
        <ele>893</ele>
        <time>2019-10-27T09:57:30.000Z</time>
      </trkpt>
      <trkpt lat="37.6331947557628154754638671875" lon="-2.0176064036786556243896484375">
        <ele>892</ele>
        <time>2019-10-27T09:57:32.000Z</time>
      </trkpt>
      <trkpt lat="37.63321311213076114654541015625" lon="-2.01787873171269893646240234375">
        <ele>890.20001220703125</ele>
        <time>2019-10-27T09:57:34.000Z</time>
      </trkpt>
      <trkpt lat="37.6332279480993747711181640625" lon="-2.0181597769260406494140625">
        <ele>888.20001220703125</ele>
        <time>2019-10-27T09:57:36.000Z</time>
      </trkpt>
      <trkpt lat="37.63326935470104217529296875" lon="-2.0184440910816192626953125">
        <ele>885.5999755859375</ele>
        <time>2019-10-27T09:57:38.000Z</time>
      </trkpt>
      <trkpt lat="37.6333372481167316436767578125" lon="-2.01871591620147228240966796875">
        <ele>884</ele>
        <time>2019-10-27T09:57:40.000Z</time>
      </trkpt>
      <trkpt lat="37.6333573646843433380126953125" lon="-2.0188516192138195037841796875">
        <ele>883.20001220703125</ele>
        <time>2019-10-27T09:57:41.000Z</time>
      </trkpt>
      <trkpt lat="37.633385024964809417724609375" lon="-2.01911263167858123779296875">
        <ele>881.79998779296875</ele>
        <time>2019-10-27T09:57:43.000Z</time>
      </trkpt>
      <trkpt lat="37.6334349811077117919921875" lon="-2.0193736441433429718017578125">
        <ele>880.79998779296875</ele>
        <time>2019-10-27T09:57:45.000Z</time>
      </trkpt>
      <trkpt lat="37.63353983871638774871826171875" lon="-2.0196401886641979217529296875">
        <ele>878.79998779296875</ele>
        <time>2019-10-27T09:57:47.000Z</time>
      </trkpt>
      <trkpt lat="37.6336792297661304473876953125" lon="-2.019910924136638641357421875">
        <ele>875.79998779296875</ele>
        <time>2019-10-27T09:57:49.000Z</time>
      </trkpt>
      <trkpt lat="37.63376732356846332550048828125" lon="-2.02020152471959590911865234375">
        <ele>874.79998779296875</ele>
        <time>2019-10-27T09:57:51.000Z</time>
      </trkpt>
      <trkpt lat="37.63379749841988086700439453125" lon="-2.0204448513686656951904296875">
        <ele>874.4000244140625</ele>
        <time>2019-10-27T09:57:53.000Z</time>
      </trkpt>
      <trkpt lat="37.6338197104632854461669921875" lon="-2.020541913807392120361328125">
        <ele>873.79998779296875</ele>
        <time>2019-10-27T09:57:54.000Z</time>
      </trkpt>
      <trkpt lat="37.6339974068105220794677734375" lon="-2.020689435303211212158203125">
        <ele>872.20001220703125</ele>
        <time>2019-10-27T09:57:57.000Z</time>
      </trkpt>
      <trkpt lat="37.634208463132381439208984375" lon="-2.02085615135729312896728515625">
        <ele>870</ele>
        <time>2019-10-27T09:58:00.000Z</time>
      </trkpt>
      <trkpt lat="37.63443452306091785430908203125" lon="-2.02104113996028900146484375">
        <ele>868.5999755859375</ele>
        <time>2019-10-27T09:58:03.000Z</time>
      </trkpt>
      <trkpt lat="37.63459159992635250091552734375" lon="-2.02116829343140125274658203125">
        <ele>867.20001220703125</ele>
        <time>2019-10-27T09:58:05.000Z</time>
      </trkpt>
      <trkpt lat="37.63475655578076839447021484375" lon="-2.02130810357630252838134765625">
        <ele>865</ele>
        <time>2019-10-27T09:58:07.000Z</time>
      </trkpt>
      <trkpt lat="37.6349190808832645416259765625" lon="-2.0214588940143585205078125">
        <ele>863.79998779296875</ele>
        <time>2019-10-27T09:58:09.000Z</time>
      </trkpt>
      <trkpt lat="37.63499795459210872650146484375" lon="-2.021545730531215667724609375">
        <ele>863.20001220703125</ele>
        <time>2019-10-27T09:58:10.000Z</time>
      </trkpt>
      <trkpt lat="37.63512284494936466217041015625" lon="-2.02175904996693134307861328125">
        <ele>862.4000244140625</ele>
        <time>2019-10-27T09:58:12.000Z</time>
      </trkpt>
      <trkpt lat="37.6352154649794101715087890625" lon="-2.02200816012918949127197265625">
        <ele>860.4000244140625</ele>
        <time>2019-10-27T09:58:14.000Z</time>
      </trkpt>
      <trkpt lat="37.6352533511817455291748046875" lon="-2.02213992364704608917236328125">
        <ele>859.79998779296875</ele>
        <time>2019-10-27T09:58:15.000Z</time>
      </trkpt>
      <trkpt lat="37.6353177241981029510498046875" lon="-2.02241082675755023956298828125">
        <ele>859.79998779296875</ele>
        <time>2019-10-27T09:58:17.000Z</time>
      </trkpt>
      <trkpt lat="37.63535745441913604736328125" lon="-2.02253387309610843658447265625">
        <ele>858.79998779296875</ele>
        <time>2019-10-27T09:58:18.000Z</time>
      </trkpt>
      <trkpt lat="37.6354109309613704681396484375" lon="-2.0226502977311611175537109375">
        <ele>858</ele>
        <time>2019-10-27T09:58:19.000Z</time>
      </trkpt>
      <trkpt lat="37.63556532561779022216796875" lon="-2.0228668861091136932373046875">
        <ele>855.5999755859375</ele>
        <time>2019-10-27T09:58:21.000Z</time>
      </trkpt>
      <trkpt lat="37.63577395118772983551025390625" lon="-2.02303930185735225677490234375">
        <ele>853.20001220703125</ele>
        <time>2019-10-27T09:58:23.000Z</time>
      </trkpt>
      <trkpt lat="37.6360130868852138519287109375" lon="-2.0231860689818859100341796875">
        <ele>851.4000244140625</ele>
        <time>2019-10-27T09:58:25.000Z</time>
      </trkpt>
      <trkpt lat="37.63626731000840663909912109375" lon="-2.023298554122447967529296875">
        <ele>849.4000244140625</ele>
        <time>2019-10-27T09:58:27.000Z</time>
      </trkpt>
      <trkpt lat="37.63653217814862728118896484375" lon="-2.02340156771242618560791015625">
        <ele>848.5999755859375</ele>
        <time>2019-10-27T09:58:29.000Z</time>
      </trkpt>
      <trkpt lat="37.63676955364644527435302734375" lon="-2.02350617386400699615478515625">
        <ele>847.20001220703125</ele>
        <time>2019-10-27T09:58:31.000Z</time>
      </trkpt>
      <trkpt lat="37.63687499798834323883056640625" lon="-2.0235669426620006561279296875">
        <ele>847.5999755859375</ele>
        <time>2019-10-27T09:58:32.000Z</time>
      </trkpt>
      <trkpt lat="37.6370648480951786041259765625" lon="-2.02370868064463138580322265625">
        <ele>846.4000244140625</ele>
        <time>2019-10-27T09:58:34.000Z</time>
      </trkpt>
      <trkpt lat="37.637236677110195159912109375" lon="-2.0238723792135715484619140625">
        <ele>845.4000244140625</ele>
        <time>2019-10-27T09:58:36.000Z</time>
      </trkpt>
      <trkpt lat="37.63739534653723239898681640625" lon="-2.0240544341504573822021484375">
        <ele>844</ele>
        <time>2019-10-27T09:58:38.000Z</time>
      </trkpt>
      <trkpt lat="37.63756164349615573883056640625" lon="-2.024226598441600799560546875">
        <ele>843.5999755859375</ele>
        <time>2019-10-27T09:58:40.000Z</time>
      </trkpt>
      <trkpt lat="37.63765099458396434783935546875" lon="-2.02429725788533687591552734375">
        <ele>842.79998779296875</ele>
        <time>2019-10-27T09:58:41.000Z</time>
      </trkpt>
      <trkpt lat="37.63784327544271945953369140625" lon="-2.02441074885427951812744140625">
        <ele>841.5999755859375</ele>
        <time>2019-10-27T09:58:43.000Z</time>
      </trkpt>
      <trkpt lat="37.6379419304430484771728515625" lon="-2.02447629533708095550537109375">
        <ele>841.5999755859375</ele>
        <time>2019-10-27T09:58:44.000Z</time>
      </trkpt>
      <trkpt lat="37.63810127042233943939208984375" lon="-2.0246344618499279022216796875">
        <ele>841.20001220703125</ele>
        <time>2019-10-27T09:58:46.000Z</time>
      </trkpt>
      <trkpt lat="37.6382798887789249420166015625" lon="-2.0248738490045070648193359375">
        <ele>841.4000244140625</ele>
        <time>2019-10-27T09:58:49.000Z</time>
      </trkpt>
      <trkpt lat="37.6384656317532062530517578125" lon="-2.02511063776910305023193359375">
        <ele>840.4000244140625</ele>
        <time>2019-10-27T09:58:52.000Z</time>
      </trkpt>
      <trkpt lat="37.6385955512523651123046875" lon="-2.0252791978418827056884765625">
        <ele>839.20001220703125</ele>
        <time>2019-10-27T09:58:54.000Z</time>
      </trkpt>
      <trkpt lat="37.63872941024601459503173828125" lon="-2.02545228414237499237060546875">
        <ele>837.79998779296875</ele>
        <time>2019-10-27T09:58:56.000Z</time>
      </trkpt>
      <trkpt lat="37.638865448534488677978515625" lon="-2.025634087622165679931640625">
        <ele>837</ele>
        <time>2019-10-27T09:58:58.000Z</time>
      </trkpt>
      <trkpt lat="37.6389997266232967376708984375" lon="-2.025825865566730499267578125">
        <ele>836</ele>
        <time>2019-10-27T09:59:00.000Z</time>
      </trkpt>
      <trkpt lat="37.63911514542996883392333984375" lon="-2.02603365294635295867919921875">
        <ele>835.4000244140625</ele>
        <time>2019-10-27T09:59:02.000Z</time>
      </trkpt>
      <trkpt lat="37.63921321369707584381103515625" lon="-2.0262478105723857879638671875">
        <ele>833</ele>
        <time>2019-10-27T09:59:04.000Z</time>
      </trkpt>
      <trkpt lat="37.639296613633632659912109375" lon="-2.0264657400548458099365234375">
        <ele>833</ele>
        <time>2019-10-27T09:59:06.000Z</time>
      </trkpt>
      <trkpt lat="37.639371044933795928955078125" lon="-2.026691548526287078857421875">
        <ele>831.4000244140625</ele>
        <time>2019-10-27T09:59:08.000Z</time>
      </trkpt>
      <trkpt lat="37.639454193413257598876953125" lon="-2.0269223861396312713623046875">
        <ele>829.79998779296875</ele>
        <time>2019-10-27T09:59:10.000Z</time>
      </trkpt>
      <trkpt lat="37.63954848982393741607666015625" lon="-2.0271505415439605712890625">
        <ele>830</ele>
        <time>2019-10-27T09:59:12.000Z</time>
      </trkpt>
      <trkpt lat="37.6396442949771881103515625" lon="-2.02735899947583675384521484375">
        <ele>830.4000244140625</ele>
        <time>2019-10-27T09:59:14.000Z</time>
      </trkpt>
      <trkpt lat="37.63977077789604663848876953125" lon="-2.02759914100170135498046875">
        <ele>830</ele>
        <time>2019-10-27T09:59:17.000Z</time>
      </trkpt>
      <trkpt lat="37.63988946564495563507080078125" lon="-2.0278118737041950225830078125">
        <ele>830.4000244140625</ele>
        <time>2019-10-27T09:59:21.000Z</time>
      </trkpt>
      <trkpt lat="37.63999541290104389190673828125" lon="-2.02802561223506927490234375">
        <ele>830</ele>
        <time>2019-10-27T09:59:25.000Z</time>
      </trkpt>
      <trkpt lat="37.64001385308802127838134765625" lon="-2.0280893146991729736328125">
        <ele>830.4000244140625</ele>
        <time>2019-10-27T09:59:26.000Z</time>
      </trkpt>
      <trkpt lat="37.64008727855980396270751953125" lon="-2.0283575356006622314453125">
        <ele>831.4000244140625</ele>
        <time>2019-10-27T09:59:30.000Z</time>
      </trkpt>
      <trkpt lat="37.64016137458384037017822265625" lon="-2.02863623388111591339111328125">
        <ele>832.79998779296875</ele>
        <time>2019-10-27T09:59:34.000Z</time>
      </trkpt>
      <trkpt lat="37.64021418057382106781005859375" lon="-2.02893144451081752777099609375">
        <ele>833.79998779296875</ele>
        <time>2019-10-27T09:59:38.000Z</time>
      </trkpt>
      <trkpt lat="37.64021988026797771453857421875" lon="-2.02901140786707401275634765625">
        <ele>834</ele>
        <time>2019-10-27T09:59:39.000Z</time>
      </trkpt>
      <trkpt lat="37.64021015726029872894287109375" lon="-2.029263116419315338134765625">
        <ele>833.4000244140625</ele>
        <time>2019-10-27T09:59:42.000Z</time>
      </trkpt>
      <trkpt lat="37.64019255526363849639892578125" lon="-2.029530666768550872802734375">
        <ele>831.5999755859375</ele>
        <time>2019-10-27T09:59:45.000Z</time>
      </trkpt>
      <trkpt lat="37.64017830602824687957763671875" lon="-2.029807269573211669921875">
        <ele>829.20001220703125</ele>
        <time>2019-10-27T09:59:48.000Z</time>
      </trkpt>
      <trkpt lat="37.64018652029335498809814453125" lon="-2.03008898533880710601806640625">
        <ele>827.4000244140625</ele>
        <time>2019-10-27T09:59:51.000Z</time>
      </trkpt>
      <trkpt lat="37.64020244590938091278076171875" lon="-2.030371539294719696044921875">
        <ele>826.4000244140625</ele>
        <time>2019-10-27T09:59:54.000Z</time>
      </trkpt>
      <trkpt lat="37.64021853916347026824951171875" lon="-2.03066448681056499481201171875">
        <ele>825.20001220703125</ele>
        <time>2019-10-27T09:59:57.000Z</time>
      </trkpt>
      <trkpt lat="37.64022172428667545318603515625" lon="-2.03096070326864719390869140625">
        <ele>823.20001220703125</ele>
        <time>2019-10-27T10:00:00.000Z</time>
      </trkpt>
      <trkpt lat="37.64021225273609161376953125" lon="-2.0310590229928493499755859375">
        <ele>822.79998779296875</ele>
        <time>2019-10-27T10:00:01.000Z</time>
      </trkpt>
      <trkpt lat="37.6401604525744915008544921875" lon="-2.03135549090802669525146484375">
        <ele>821.5999755859375</ele>
        <time>2019-10-27T10:00:04.000Z</time>
      </trkpt>
      <trkpt lat="37.6400783099234104156494140625" lon="-2.03165036626160144805908203125">
        <ele>820.4000244140625</ele>
        <time>2019-10-27T10:00:07.000Z</time>
      </trkpt>
      <trkpt lat="37.6399646513164043426513671875" lon="-2.03193048946559429168701171875">
        <ele>820.20001220703125</ele>
        <time>2019-10-27T10:00:10.000Z</time>
      </trkpt>
      <trkpt lat="37.63983699493110179901123046875" lon="-2.032199464738368988037109375">
        <ele>820.20001220703125</ele>
        <time>2019-10-27T10:00:13.000Z</time>
      </trkpt>
      <trkpt lat="37.6397048123180866241455078125" lon="-2.03247866593301296234130859375">
        <ele>819.4000244140625</ele>
        <time>2019-10-27T10:00:16.000Z</time>
      </trkpt>
      <trkpt lat="37.639576233923435211181640625" lon="-2.03275694511830806732177734375">
        <ele>818.4000244140625</ele>
        <time>2019-10-27T10:00:19.000Z</time>
      </trkpt>
      <trkpt lat="37.63945025391876697540283203125" lon="-2.03302969224750995635986328125">
        <ele>817.79998779296875</ele>
        <time>2019-10-27T10:00:22.000Z</time>
      </trkpt>
      <trkpt lat="37.63931983150541782379150390625" lon="-2.03327980823814868927001953125">
        <ele>817.4000244140625</ele>
        <time>2019-10-27T10:00:25.000Z</time>
      </trkpt>
      <trkpt lat="37.63920047320425510406494140625" lon="-2.0335216261446475982666015625">
        <ele>818.20001220703125</ele>
        <time>2019-10-27T10:00:28.000Z</time>
      </trkpt>
      <trkpt lat="37.63908497057855129241943359375" lon="-2.03377618454396724700927734375">
        <ele>818.20001220703125</ele>
        <time>2019-10-27T10:00:31.000Z</time>
      </trkpt>
      <trkpt lat="37.63896963559091091156005859375" lon="-2.0340453274548053741455078125">
        <ele>817.20001220703125</ele>
        <time>2019-10-27T10:00:34.000Z</time>
      </trkpt>
      <trkpt lat="37.6388341002166271209716796875" lon="-2.034324109554290771484375">
        <ele>815</ele>
        <time>2019-10-27T10:00:37.000Z</time>
      </trkpt>
      <trkpt lat="37.63873343355953693389892578125" lon="-2.03451664187014102935791015625">
        <ele>814.5999755859375</ele>
        <time>2019-10-27T10:00:39.000Z</time>
      </trkpt>
      <trkpt lat="37.63862312771379947662353515625" lon="-2.03471772372722625732421875">
        <ele>814.20001220703125</ele>
        <time>2019-10-27T10:00:41.000Z</time>
      </trkpt>
      <trkpt lat="37.63851382769644260406494140625" lon="-2.0349307917058467864990234375">
        <ele>813.5999755859375</ele>
        <time>2019-10-27T10:00:43.000Z</time>
      </trkpt>
      <trkpt lat="37.63840016908943653106689453125" lon="-2.035143859684467315673828125">
        <ele>812.20001220703125</ele>
        <time>2019-10-27T10:00:45.000Z</time>
      </trkpt>
      <trkpt lat="37.63835071586072444915771484375" lon="-2.03525508753955364227294921875">
        <ele>811.79998779296875</ele>
        <time>2019-10-27T10:00:46.000Z</time>
      </trkpt>
      <trkpt lat="37.63826035894453525543212890625" lon="-2.03547955490648746490478515625">
        <ele>810.79998779296875</ele>
        <time>2019-10-27T10:00:48.000Z</time>
      </trkpt>
      <trkpt lat="37.63818944804370403289794921875" lon="-2.03571416437625885009765625">
        <ele>810</ele>
        <time>2019-10-27T10:00:50.000Z</time>
      </trkpt>
      <trkpt lat="37.6381310261785984039306640625" lon="-2.03596989624202251434326171875">
        <ele>808.4000244140625</ele>
        <time>2019-10-27T10:00:52.000Z</time>
      </trkpt>
      <trkpt lat="37.63806422241032123565673828125" lon="-2.0362485945224761962890625">
        <ele>806.79998779296875</ele>
        <time>2019-10-27T10:00:54.000Z</time>
      </trkpt>
      <trkpt lat="37.63800303451716899871826171875" lon="-2.03654271550476551055908203125">
        <ele>805.4000244140625</ele>
        <time>2019-10-27T10:00:56.000Z</time>
      </trkpt>
      <trkpt lat="37.6379650644958019256591796875" lon="-2.03679886646568775177001953125">
        <ele>805</ele>
        <time>2019-10-27T10:00:58.000Z</time>
      </trkpt>
      <trkpt lat="37.6379281841218471527099609375" lon="-2.03709558583796024322509765625">
        <ele>804.4000244140625</ele>
        <time>2019-10-27T10:01:01.000Z</time>
      </trkpt>
      <trkpt lat="37.63790144585072994232177734375" lon="-2.0373719371855258941650390625">
        <ele>804</ele>
        <time>2019-10-27T10:01:04.000Z</time>
      </trkpt>
      <trkpt lat="37.6378591172397136688232421875" lon="-2.03766086138784885406494140625">
        <ele>803</ele>
        <time>2019-10-27T10:01:07.000Z</time>
      </trkpt>
      <trkpt lat="37.63779851607978343963623046875" lon="-2.0379630289971828460693359375">
        <ele>801</ele>
        <time>2019-10-27T10:01:10.000Z</time>
      </trkpt>
      <trkpt lat="37.63773120939731597900390625" lon="-2.03828464262187480926513671875">
        <ele>800.4000244140625</ele>
        <time>2019-10-27T10:01:13.000Z</time>
      </trkpt>
      <trkpt lat="37.6376924850046634674072265625" lon="-2.0385095290839672088623046875">
        <ele>799.4000244140625</ele>
        <time>2019-10-27T10:01:15.000Z</time>
      </trkpt>
      <trkpt lat="37.637683264911174774169921875" lon="-2.03862461261451244354248046875">
        <ele>798.5999755859375</ele>
        <time>2019-10-27T10:01:16.000Z</time>
      </trkpt>
      <trkpt lat="37.63769499957561492919921875" lon="-2.0388535223901271820068359375">
        <ele>797.4000244140625</ele>
        <time>2019-10-27T10:01:18.000Z</time>
      </trkpt>
      <trkpt lat="37.637709416449069976806640625" lon="-2.03908075578510761260986328125">
        <ele>796</ele>
        <time>2019-10-27T10:01:20.000Z</time>
      </trkpt>
      <trkpt lat="37.63772978447377681732177734375" lon="-2.03931075520813465118408203125">
        <ele>795.4000244140625</ele>
        <time>2019-10-27T10:01:22.000Z</time>
      </trkpt>
      <trkpt lat="37.63775828294456005096435546875" lon="-2.03954695723950862884521484375">
        <ele>794.5999755859375</ele>
        <time>2019-10-27T10:01:24.000Z</time>
      </trkpt>
      <trkpt lat="37.63779784552752971649169921875" lon="-2.0397929660975933074951171875">
        <ele>793.4000244140625</ele>
        <time>2019-10-27T10:01:26.000Z</time>
      </trkpt>
      <trkpt lat="37.63784629292786121368408203125" lon="-2.04005272127687931060791015625">
        <ele>790.79998779296875</ele>
        <time>2019-10-27T10:01:28.000Z</time>
      </trkpt>
      <trkpt lat="37.63789691962301731109619140625" lon="-2.04032530076801776885986328125">
        <ele>787.5999755859375</ele>
        <time>2019-10-27T10:01:30.000Z</time>
      </trkpt>
      <trkpt lat="37.637954168021678924560546875" lon="-2.04059486277401447296142578125">
        <ele>784.79998779296875</ele>
        <time>2019-10-27T10:01:32.000Z</time>
      </trkpt>
      <trkpt lat="37.6380150206387042999267578125" lon="-2.04084967263042926788330078125">
        <ele>782.4000244140625</ele>
        <time>2019-10-27T10:01:34.000Z</time>
      </trkpt>
      <trkpt lat="37.63809272088110446929931640625" lon="-2.04108671285212039947509765625">
        <ele>780.5999755859375</ele>
        <time>2019-10-27T10:01:36.000Z</time>
      </trkpt>
      <trkpt lat="37.63814066536724567413330078125" lon="-2.04119282774627208709716796875">
        <ele>780.4000244140625</ele>
        <time>2019-10-27T10:01:37.000Z</time>
      </trkpt>
      <trkpt lat="37.6382446847856044769287109375" lon="-2.041384018957614898681640625">
        <ele>779.20001220703125</ele>
        <time>2019-10-27T10:01:39.000Z</time>
      </trkpt>
      <trkpt lat="37.6382870972156524658203125" lon="-2.041475214064121246337890625">
        <ele>779</ele>
        <time>2019-10-27T10:01:40.000Z</time>
      </trkpt>
      <trkpt lat="37.63835406862199306488037109375" lon="-2.04174385406076908111572265625">
        <ele>777.5999755859375</ele>
        <time>2019-10-27T10:01:43.000Z</time>
      </trkpt>
      <trkpt lat="37.63835842721164226531982421875" lon="-2.04187561757862567901611328125">
        <ele>776.79998779296875</ele>
        <time>2019-10-27T10:01:45.000Z</time>
      </trkpt>
      <trkpt lat="37.63836496509611606597900390625" lon="-2.0419223047792911529541015625">
        <ele>776.5999755859375</ele>
        <time>2019-10-27T10:01:46.000Z</time>
      </trkpt>
      <trkpt lat="37.63846068643033504486083984375" lon="-2.04211299307644367218017578125">
        <ele>775.4000244140625</ele>
        <time>2019-10-27T10:01:50.000Z</time>
      </trkpt>
      <trkpt lat="37.6384971477091312408447265625" lon="-2.042161189019680023193359375">
        <ele>775</ele>
        <time>2019-10-27T10:01:51.000Z</time>
      </trkpt>
      <trkpt lat="37.63865196146070957183837890625" lon="-2.0423554815351963043212890625">
        <ele>774</ele>
        <time>2019-10-27T10:01:55.000Z</time>
      </trkpt>
      <trkpt lat="37.63877769000828266143798828125" lon="-2.0425526238977909088134765625">
        <ele>774.4000244140625</ele>
        <time>2019-10-27T10:01:59.000Z</time>
      </trkpt>
      <trkpt lat="37.63887114822864532470703125" lon="-2.04275429248809814453125">
        <ele>773.79998779296875</ele>
        <time>2019-10-27T10:02:03.000Z</time>
      </trkpt>
      <trkpt lat="37.63897717930376529693603515625" lon="-2.04299258999526500701904296875">
        <ele>773.20001220703125</ele>
        <time>2019-10-27T10:02:08.000Z</time>
      </trkpt>
      <trkpt lat="37.6390607468783855438232421875" lon="-2.0432392694056034088134765625">
        <ele>773</ele>
        <time>2019-10-27T10:02:13.000Z</time>
      </trkpt>
      <trkpt lat="37.639132328331470489501953125" lon="-2.04347622580826282501220703125">
        <ele>773.79998779296875</ele>
        <time>2019-10-27T10:02:18.000Z</time>
      </trkpt>
      <trkpt lat="37.63919544406235218048095703125" lon="-2.04371930100023746490478515625">
        <ele>774</ele>
        <time>2019-10-27T10:02:23.000Z</time>
      </trkpt>
      <trkpt lat="37.6392421312630176544189453125" lon="-2.0439597778022289276123046875">
        <ele>775</ele>
        <time>2019-10-27T10:02:28.000Z</time>
      </trkpt>
      <trkpt lat="37.63931379653513431549072265625" lon="-2.0442075468599796295166015625">
        <ele>775.5999755859375</ele>
        <time>2019-10-27T10:02:33.000Z</time>
      </trkpt>
      <trkpt lat="37.63935905881226062774658203125" lon="-2.04429916106164455413818359375">
        <ele>775.4000244140625</ele>
        <time>2019-10-27T10:02:35.000Z</time>
      </trkpt>
      <trkpt lat="37.6394959352910518646240234375" lon="-2.04451491124927997589111328125">
        <ele>775</ele>
        <time>2019-10-27T10:02:40.000Z</time>
      </trkpt>
      <trkpt lat="37.63965276069939136505126953125" lon="-2.0446960441768169403076171875">
        <ele>773.20001220703125</ele>
        <time>2019-10-27T10:02:45.000Z</time>
      </trkpt>
      <trkpt lat="37.6398348994553089141845703125" lon="-2.044843398034572601318359375">
        <ele>770.4000244140625</ele>
        <time>2019-10-27T10:02:50.000Z</time>
      </trkpt>
      <trkpt lat="37.64001703821122646331787109375" lon="-2.0449448190629482269287109375">
        <ele>768.20001220703125</ele>
        <time>2019-10-27T10:02:55.000Z</time>
      </trkpt>
      <trkpt lat="37.64020018279552459716796875" lon="-2.045027129352092742919921875">
        <ele>767.79998779296875</ele>
        <time>2019-10-27T10:03:00.000Z</time>
      </trkpt>
      <trkpt lat="37.6403019391000270843505859375" lon="-2.0450809411704540252685546875">
        <ele>767.4000244140625</ele>
        <time>2019-10-27T10:03:03.000Z</time>
      </trkpt>
      <trkpt lat="37.6403646357357501983642578125" lon="-2.04528520815074443817138671875">
        <ele>766.5999755859375</ele>
        <time>2019-10-27T10:03:08.000Z</time>
      </trkpt>
      <trkpt lat="37.640238739550113677978515625" lon="-2.0453478209674358367919921875">
        <ele>766.79998779296875</ele>
        <time>2019-10-27T10:03:14.000Z</time>
      </trkpt>
      <trkpt lat="37.64004553668200969696044921875" lon="-2.04530465416610240936279296875">
        <ele>768</ele>
        <time>2019-10-27T10:03:24.000Z</time>
      </trkpt>
      <trkpt lat="37.64000329189002513885498046875" lon="-2.0453015528619289398193359375">
        <ele>768.20001220703125</ele>
        <time>2019-10-27T10:03:26.000Z</time>
      </trkpt>
      <trkpt lat="37.63982878066599369049072265625" lon="-2.0452656783163547515869140625">
        <ele>769.4000244140625</ele>
        <time>2019-10-27T10:03:35.000Z</time>
      </trkpt>
      <trkpt lat="37.63965125195682048797607421875" lon="-2.04532451927661895751953125">
        <ele>770.5999755859375</ele>
        <time>2019-10-27T10:03:43.000Z</time>
      </trkpt>
      <trkpt lat="37.6395160518586635589599609375" lon="-2.04548411071300506591796875">
        <ele>770.4000244140625</ele>
        <time>2019-10-27T10:03:52.000Z</time>
      </trkpt>
      <trkpt lat="37.6394724659621715545654296875" lon="-2.0457297004759311676025390625">
        <ele>769</ele>
        <time>2019-10-27T10:03:59.000Z</time>
      </trkpt>
      <trkpt lat="37.6394533552229404449462890625" lon="-2.04599968157708644866943359375">
        <ele>768.4000244140625</ele>
        <time>2019-10-27T10:04:05.000Z</time>
      </trkpt>
      <trkpt lat="37.6394466497004032135009765625" lon="-2.04626195132732391357421875">
        <ele>769.20001220703125</ele>
        <time>2019-10-27T10:04:09.000Z</time>
      </trkpt>
      <trkpt lat="37.639502473175525665283203125" lon="-2.0464892685413360595703125">
        <ele>768.79998779296875</ele>
        <time>2019-10-27T10:04:13.000Z</time>
      </trkpt>
      <trkpt lat="37.63962526805698871612548828125" lon="-2.04669236205518245697021484375">
        <ele>768.4000244140625</ele>
        <time>2019-10-27T10:04:18.000Z</time>
      </trkpt>
      <trkpt lat="37.63976574875414371490478515625" lon="-2.04690375365316867828369140625">
        <ele>768</ele>
        <time>2019-10-27T10:04:23.000Z</time>
      </trkpt>
      <trkpt lat="37.63988410122692584991455078125" lon="-2.0470858924090862274169921875">
        <ele>767</ele>
        <time>2019-10-27T10:04:27.000Z</time>
      </trkpt>
      <trkpt lat="37.63996289111673831939697265625" lon="-2.04729502089321613311767578125">
        <ele>766.5999755859375</ele>
        <time>2019-10-27T10:04:31.000Z</time>
      </trkpt>
      <trkpt lat="37.64000094495713710784912109375" lon="-2.04753809608519077301025390625">
        <ele>766.4000244140625</ele>
        <time>2019-10-27T10:04:35.000Z</time>
      </trkpt>
      <trkpt lat="37.640010081231594085693359375" lon="-2.0477993600070476531982421875">
        <ele>766.4000244140625</ele>
        <time>2019-10-27T10:04:39.000Z</time>
      </trkpt>
      <trkpt lat="37.64001737348735332489013671875" lon="-2.04807654954493045806884765625">
        <ele>765.79998779296875</ele>
        <time>2019-10-27T10:04:43.000Z</time>
      </trkpt>
      <trkpt lat="37.64000815339386463165283203125" lon="-2.04835516400635242462158203125">
        <ele>765.5999755859375</ele>
        <time>2019-10-27T10:04:47.000Z</time>
      </trkpt>
      <trkpt lat="37.6400146074593067169189453125" lon="-2.048486508429050445556640625">
        <ele>765.4000244140625</ele>
        <time>2019-10-27T10:04:49.000Z</time>
      </trkpt>
      <trkpt lat="37.64008308760821819305419921875" lon="-2.04873167909681797027587890625">
        <ele>765.4000244140625</ele>
        <time>2019-10-27T10:04:53.000Z</time>
      </trkpt>
      <trkpt lat="37.64012508094310760498046875" lon="-2.04885321669280529022216796875">
        <ele>765.79998779296875</ele>
        <time>2019-10-27T10:04:55.000Z</time>
      </trkpt>
      <trkpt lat="37.640223987400531768798828125" lon="-2.049077935516834259033203125">
        <ele>766.20001220703125</ele>
        <time>2019-10-27T10:04:59.000Z</time>
      </trkpt>
      <trkpt lat="37.6403361372649669647216796875" lon="-2.04929997213184833526611328125">
        <ele>766.79998779296875</ele>
        <time>2019-10-27T10:05:03.000Z</time>
      </trkpt>
      <trkpt lat="37.640478126704692840576171875" lon="-2.0494904927909374237060546875">
        <ele>765.4000244140625</ele>
        <time>2019-10-27T10:05:07.000Z</time>
      </trkpt>
      <trkpt lat="37.6406107284128665924072265625" lon="-2.04966408200562000274658203125">
        <ele>765.20001220703125</ele>
        <time>2019-10-27T10:05:11.000Z</time>
      </trkpt>
      <trkpt lat="37.64073251746594905853271484375" lon="-2.0498421974480152130126953125">
        <ele>764.79998779296875</ele>
        <time>2019-10-27T10:05:15.000Z</time>
      </trkpt>
      <trkpt lat="37.6408470980823040008544921875" lon="-2.05002509057521820068359375">
        <ele>764.20001220703125</ele>
        <time>2019-10-27T10:05:19.000Z</time>
      </trkpt>
      <trkpt lat="37.640899904072284698486328125" lon="-2.05012030899524688720703125">
        <ele>763.79998779296875</ele>
        <time>2019-10-27T10:05:21.000Z</time>
      </trkpt>
      <trkpt lat="37.6410211063921451568603515625" lon="-2.05034418962895870208740234375">
        <ele>763.5999755859375</ele>
        <time>2019-10-27T10:05:26.000Z</time>
      </trkpt>
      <trkpt lat="37.64112194068729877471923828125" lon="-2.05054719932377338409423828125">
        <ele>763.20001220703125</ele>
        <time>2019-10-27T10:05:31.000Z</time>
      </trkpt>
      <trkpt lat="37.64122000895440578460693359375" lon="-2.05077066086232662200927734375">
        <ele>763.4000244140625</ele>
        <time>2019-10-27T10:05:36.000Z</time>
      </trkpt>
      <trkpt lat="37.64131464064121246337890625" lon="-2.05101708881556987762451171875">
        <ele>763.79998779296875</ele>
        <time>2019-10-27T10:05:41.000Z</time>
      </trkpt>
      <trkpt lat="37.64137976802885532379150390625" lon="-2.0512349344789981842041015625">
        <ele>764</ele>
        <time>2019-10-27T10:05:45.000Z</time>
      </trkpt>
      <trkpt lat="37.641449086368083953857421875" lon="-2.0514977909624576568603515625">
        <ele>764.4000244140625</ele>
        <time>2019-10-27T10:05:50.000Z</time>
      </trkpt>
      <trkpt lat="37.6415059156715869903564453125" lon="-2.05171354115009307861328125">
        <ele>764.20001220703125</ele>
        <time>2019-10-27T10:05:54.000Z</time>
      </trkpt>
      <trkpt lat="37.64156836085021495819091796875" lon="-2.05193356610834598541259765625">
        <ele>764.20001220703125</ele>
        <time>2019-10-27T10:05:58.000Z</time>
      </trkpt>
      <trkpt lat="37.64163172803819179534912109375" lon="-2.052150070667266845703125">
        <ele>764.79998779296875</ele>
        <time>2019-10-27T10:06:02.000Z</time>
      </trkpt>
      <trkpt lat="37.64169945381581783294677734375" lon="-2.05239457078278064727783203125">
        <ele>766.20001220703125</ele>
        <time>2019-10-27T10:06:07.000Z</time>
      </trkpt>
      <trkpt lat="37.6417721249163150787353515625" lon="-2.0526454411447048187255859375">
        <ele>768</ele>
        <time>2019-10-27T10:06:13.000Z</time>
      </trkpt>
      <trkpt lat="37.64185284264385700225830078125" lon="-2.05289714969694614410400390625">
        <ele>768.5999755859375</ele>
        <time>2019-10-27T10:06:19.000Z</time>
      </trkpt>
      <trkpt lat="37.6419370807707309722900390625" lon="-2.05308289267122745513916015625">
        <ele>769</ele>
        <time>2019-10-27T10:06:23.000Z</time>
      </trkpt>
      <trkpt lat="37.64199265278875827789306640625" lon="-2.0531634427607059478759765625">
        <ele>769.4000244140625</ele>
        <time>2019-10-27T10:06:25.000Z</time>
      </trkpt>
      <trkpt lat="37.64205534942448139190673828125" lon="-2.05323443748056888580322265625">
        <ele>769.4000244140625</ele>
        <time>2019-10-27T10:06:27.000Z</time>
      </trkpt>
      <trkpt lat="37.642247043550014495849609375" lon="-2.0533481799066066741943359375">
        <ele>768.5999755859375</ele>
        <time>2019-10-27T10:06:32.000Z</time>
      </trkpt>
      <trkpt lat="37.64235927723348140716552734375" lon="-2.05339101143181324005126953125">
        <ele>768</ele>
        <time>2019-10-27T10:06:35.000Z</time>
      </trkpt>
      <trkpt lat="37.64256027527153491973876953125" lon="-2.0534856431186199188232421875">
        <ele>767.79998779296875</ele>
        <time>2019-10-27T10:06:40.000Z</time>
      </trkpt>
      <trkpt lat="37.642719782888889312744140625" lon="-2.05359418876469135284423828125">
        <ele>767.5999755859375</ele>
        <time>2019-10-27T10:06:44.000Z</time>
      </trkpt>
      <trkpt lat="37.6428790390491485595703125" lon="-2.0537210069596767425537109375">
        <ele>767.5999755859375</ele>
        <time>2019-10-27T10:06:48.000Z</time>
      </trkpt>
      <trkpt lat="37.64303452335298061370849609375" lon="-2.05386157147586345672607421875">
        <ele>767.5999755859375</ele>
        <time>2019-10-27T10:06:52.000Z</time>
      </trkpt>
      <trkpt lat="37.6431901752948760986328125" lon="-2.054001800715923309326171875">
        <ele>768</ele>
        <time>2019-10-27T10:06:56.000Z</time>
      </trkpt>
      <trkpt lat="37.64336309395730495452880859375" lon="-2.05417237244546413421630859375">
        <ele>769.4000244140625</ele>
        <time>2019-10-27T10:07:01.000Z</time>
      </trkpt>
      <trkpt lat="37.6435262896120548248291015625" lon="-2.05435040406882762908935546875">
        <ele>769</ele>
        <time>2019-10-27T10:07:06.000Z</time>
      </trkpt>
      <trkpt lat="37.64359191991388797760009765625" lon="-2.05443003214895725250244140625">
        <ele>768.79998779296875</ele>
        <time>2019-10-27T10:07:08.000Z</time>
      </trkpt>
      <trkpt lat="37.6437244378030300140380859375" lon="-2.054594568908214569091796875">
        <ele>769</ele>
        <time>2019-10-27T10:07:12.000Z</time>
      </trkpt>
      <trkpt lat="37.6438632421195507049560546875" lon="-2.05476111732423305511474609375">
        <ele>767.79998779296875</ele>
        <time>2019-10-27T10:07:16.000Z</time>
      </trkpt>
      <trkpt lat="37.6439608074724674224853515625" lon="-2.05488785170018672943115234375">
        <ele>767.79998779296875</ele>
        <time>2019-10-27T10:07:19.000Z</time>
      </trkpt>
      <trkpt lat="37.64408762566745281219482421875" lon="-2.055058591067790985107421875">
        <ele>768.20001220703125</ele>
        <time>2019-10-27T10:07:23.000Z</time>
      </trkpt>
      <trkpt lat="37.6442260108888149261474609375" lon="-2.055276520550251007080078125">
        <ele>769</ele>
        <time>2019-10-27T10:07:28.000Z</time>
      </trkpt>
      <trkpt lat="37.64424822293221950531005859375" lon="-2.0553229562938213348388671875">
        <ele>769.4000244140625</ele>
        <time>2019-10-27T10:07:29.000Z</time>
      </trkpt>
      <trkpt lat="37.6443596184253692626953125" lon="-2.0555489324033260345458984375">
        <ele>771.4000244140625</ele>
        <time>2019-10-27T10:07:34.000Z</time>
      </trkpt>
      <trkpt lat="37.64442600309848785400390625" lon="-2.05569033510982990264892578125">
        <ele>772</ele>
        <time>2019-10-27T10:07:37.000Z</time>
      </trkpt>
      <trkpt lat="37.64452348463237285614013671875" lon="-2.0559413731098175048828125">
        <ele>771</ele>
        <time>2019-10-27T10:07:42.000Z</time>
      </trkpt>
      <trkpt lat="37.6445934735238552093505859375" lon="-2.05608428455889225006103515625">
        <ele>770</ele>
        <time>2019-10-27T10:07:45.000Z</time>
      </trkpt>
      <trkpt lat="37.64463119208812713623046875" lon="-2.05619744025170803070068359375">
        <ele>769.5999755859375</ele>
        <time>2019-10-27T10:07:47.000Z</time>
      </trkpt>
      <trkpt lat="37.64467905275523662567138671875" lon="-2.0564437843859195709228515625">
        <ele>768.5999755859375</ele>
        <time>2019-10-27T10:07:51.000Z</time>
      </trkpt>
      <trkpt lat="37.6446910388767719268798828125" lon="-2.05669448710978031158447265625">
        <ele>768.20001220703125</ele>
        <time>2019-10-27T10:07:55.000Z</time>
      </trkpt>
      <trkpt lat="37.64468575827777385711669921875" lon="-2.05675735138356685638427734375">
        <ele>768.4000244140625</ele>
        <time>2019-10-27T10:07:56.000Z</time>
      </trkpt>
      <trkpt lat="37.6446387358009815216064453125" lon="-2.0569946430623531341552734375">
        <ele>768.5999755859375</ele>
        <time>2019-10-27T10:08:00.000Z</time>
      </trkpt>
      <trkpt lat="37.64454393647611141204833984375" lon="-2.0572336949408054351806640625">
        <ele>769</ele>
        <time>2019-10-27T10:08:05.000Z</time>
      </trkpt>
      <trkpt lat="37.6445285975933074951171875" lon="-2.05726948566734790802001953125">
        <ele>769</ele>
        <time>2019-10-27T10:08:06.000Z</time>
      </trkpt>
      <trkpt lat="37.6444721035659313201904296875" lon="-2.0574600063264369964599609375">
        <ele>768.4000244140625</ele>
        <time>2019-10-27T10:09:56.000Z</time>
      </trkpt>
      <trkpt lat="37.64441602863371372222900390625" lon="-2.05767869018018245697021484375">
        <ele>767</ele>
        <time>2019-10-27T10:10:01.000Z</time>
      </trkpt>
      <trkpt lat="37.64439457096159458160400390625" lon="-2.05794339068233966827392578125">
        <ele>764</ele>
        <time>2019-10-27T10:10:06.000Z</time>
      </trkpt>
      <trkpt lat="37.64440119266510009765625" lon="-2.05820473842322826385498046875">
        <ele>762.4000244140625</ele>
        <time>2019-10-27T10:10:11.000Z</time>
      </trkpt>
      <trkpt lat="37.64440915547311305999755859375" lon="-2.0584319718182086944580078125">
        <ele>762</ele>
        <time>2019-10-27T10:10:15.000Z</time>
      </trkpt>
      <trkpt lat="37.6444184593856334686279296875" lon="-2.0586664974689483642578125">
        <ele>762.20001220703125</ele>
        <time>2019-10-27T10:10:19.000Z</time>
      </trkpt>
      <trkpt lat="37.64442600309848785400390625" lon="-2.05890362150967121124267578125">
        <ele>762.20001220703125</ele>
        <time>2019-10-27T10:10:23.000Z</time>
      </trkpt>
      <trkpt lat="37.64442742802202701568603515625" lon="-2.0591412484645843505859375">
        <ele>762.4000244140625</ele>
        <time>2019-10-27T10:10:27.000Z</time>
      </trkpt>
      <trkpt lat="37.64443631283938884735107421875" lon="-2.05940368585288524627685546875">
        <ele>762.79998779296875</ele>
        <time>2019-10-27T10:10:32.000Z</time>
      </trkpt>
      <trkpt lat="37.64443807303905487060546875" lon="-2.05944609828293323516845703125">
        <ele>763</ele>
        <time>2019-10-27T10:10:33.000Z</time>
      </trkpt>
      <trkpt lat="37.64445684850215911865234375" lon="-2.05969420261681079864501953125">
        <ele>764.4000244140625</ele>
        <time>2019-10-27T10:10:40.000Z</time>
      </trkpt>
      <trkpt lat="37.644443772733211517333984375" lon="-2.05993794836103916168212890625">
        <ele>765.5999755859375</ele>
        <time>2019-10-27T10:10:46.000Z</time>
      </trkpt>
      <trkpt lat="37.6443944871425628662109375" lon="-2.060197703540325164794921875">
        <ele>767.5999755859375</ele>
        <time>2019-10-27T10:10:52.000Z</time>
      </trkpt>
      <trkpt lat="37.64432466588914394378662109375" lon="-2.060430049896240234375">
        <ele>769.20001220703125</ele>
        <time>2019-10-27T10:10:58.000Z</time>
      </trkpt>
      <trkpt lat="37.6442389190196990966796875" lon="-2.06066180951893329620361328125">
        <ele>770.5999755859375</ele>
        <time>2019-10-27T10:11:04.000Z</time>
      </trkpt>
      <trkpt lat="37.64415501616895198822021484375" lon="-2.06088937819004058837890625">
        <ele>772.20001220703125</ele>
        <time>2019-10-27T10:11:10.000Z</time>
      </trkpt>
      <trkpt lat="37.64407907612621784210205078125" lon="-2.061098255217075347900390625">
        <ele>774.20001220703125</ele>
        <time>2019-10-27T10:11:16.000Z</time>
      </trkpt>
      <trkpt lat="37.643988467752933502197265625" lon="-2.06132381223142147064208984375">
        <ele>776.79998779296875</ele>
        <time>2019-10-27T10:11:23.000Z</time>
      </trkpt>
      <trkpt lat="37.64390741474926471710205078125" lon="-2.0615497045218944549560546875">
        <ele>779.20001220703125</ele>
        <time>2019-10-27T10:11:30.000Z</time>
      </trkpt>
      <trkpt lat="37.64382476918399333953857421875" lon="-2.0617763511836528778076171875">
        <ele>780.20001220703125</ele>
        <time>2019-10-27T10:11:37.000Z</time>
      </trkpt>
      <trkpt lat="37.6437338255345821380615234375" lon="-2.0620097033679485321044921875">
        <ele>780.4000244140625</ele>
        <time>2019-10-27T10:11:44.000Z</time>
      </trkpt>
      <trkpt lat="37.6436674408614635467529296875" lon="-2.0622252859175205230712890625">
        <ele>780.79998779296875</ele>
        <time>2019-10-27T10:11:50.000Z</time>
      </trkpt>
      <trkpt lat="37.64362980611622333526611328125" lon="-2.06246073357760906219482421875">
        <ele>781.20001220703125</ele>
        <time>2019-10-27T10:11:56.000Z</time>
      </trkpt>
      <trkpt lat="37.64363902620971202850341796875" lon="-2.06269525922834873199462890625">
        <ele>781</ele>
        <time>2019-10-27T10:12:02.000Z</time>
      </trkpt>
      <trkpt lat="37.64368043281137943267822265625" lon="-2.06294663250446319580078125">
        <ele>781.20001220703125</ele>
        <time>2019-10-27T10:12:09.000Z</time>
      </trkpt>
      <trkpt lat="37.643710859119892120361328125" lon="-2.06320353783667087554931640625">
        <ele>782</ele>
        <time>2019-10-27T10:12:16.000Z</time>
      </trkpt>
      <trkpt lat="37.64373759739100933074951171875" lon="-2.06345717422664165496826171875">
        <ele>781.5999755859375</ele>
        <time>2019-10-27T10:12:23.000Z</time>
      </trkpt>
      <trkpt lat="37.64374664984643459320068359375" lon="-2.06371642649173736572265625">
        <ele>782.5999755859375</ele>
        <time>2019-10-27T10:12:30.000Z</time>
      </trkpt>
      <trkpt lat="37.64374245889484882354736328125" lon="-2.063973583281040191650390625">
        <ele>783.4000244140625</ele>
        <time>2019-10-27T10:12:37.000Z</time>
      </trkpt>
      <trkpt lat="37.64373374171555042266845703125" lon="-2.0642255432903766632080078125">
        <ele>785.20001220703125</ele>
        <time>2019-10-27T10:12:44.000Z</time>
      </trkpt>
      <trkpt lat="37.64372435398399829864501953125" lon="-2.064483873546123504638671875">
        <ele>787</ele>
        <time>2019-10-27T10:12:51.000Z</time>
      </trkpt>
      <trkpt lat="37.64370557852089405059814453125" lon="-2.0647438801825046539306640625">
        <ele>788.79998779296875</ele>
        <time>2019-10-27T10:12:59.000Z</time>
      </trkpt>
      <trkpt lat="37.6436905749142169952392578125" lon="-2.06497044302523136138916015625">
        <ele>790.20001220703125</ele>
        <time>2019-10-27T10:13:06.000Z</time>
      </trkpt>
      <trkpt lat="37.64367238618433475494384765625" lon="-2.065227515995502471923828125">
        <ele>791.79998779296875</ele>
        <time>2019-10-27T10:13:14.000Z</time>
      </trkpt>
      <trkpt lat="37.64365478418767452239990234375" lon="-2.0654573477804660797119140625">
        <ele>793.20001220703125</ele>
        <time>2019-10-27T10:13:21.000Z</time>
      </trkpt>
      <trkpt lat="37.64362561516463756561279296875" lon="-2.06568625755608081817626953125">
        <ele>794.4000244140625</ele>
        <time>2019-10-27T10:13:28.000Z</time>
      </trkpt>
      <trkpt lat="37.64361941255629062652587890625" lon="-2.06591558642685413360595703125">
        <ele>796.5999755859375</ele>
        <time>2019-10-27T10:13:35.000Z</time>
      </trkpt>
      <trkpt lat="37.64360751025378704071044921875" lon="-2.06614726223051548004150390625">
        <ele>798.4000244140625</ele>
        <time>2019-10-27T10:13:42.000Z</time>
      </trkpt>
      <trkpt lat="37.64358940534293651580810546875" lon="-2.0663817040622234344482421875">
        <ele>799.79998779296875</ele>
        <time>2019-10-27T10:13:49.000Z</time>
      </trkpt>
      <trkpt lat="37.64356794767081737518310546875" lon="-2.06661480478942394256591796875">
        <ele>800.79998779296875</ele>
        <time>2019-10-27T10:13:56.000Z</time>
      </trkpt>
      <trkpt lat="37.64357171952724456787109375" lon="-2.0668551139533519744873046875">
        <ele>801.5999755859375</ele>
        <time>2019-10-27T10:14:03.000Z</time>
      </trkpt>
      <trkpt lat="37.6436158083379268646240234375" lon="-2.06708419136703014373779296875">
        <ele>802.4000244140625</ele>
        <time>2019-10-27T10:14:10.000Z</time>
      </trkpt>
      <trkpt lat="37.6437127031385898590087890625" lon="-2.06729055382311344146728515625">
        <ele>804.4000244140625</ele>
        <time>2019-10-27T10:14:17.000Z</time>
      </trkpt>
      <trkpt lat="37.6438501663506031036376953125" lon="-2.0674802362918853759765625">
        <ele>806.20001220703125</ele>
        <time>2019-10-27T10:14:25.000Z</time>
      </trkpt>
      <trkpt lat="37.643974721431732177734375" lon="-2.06765365786850452423095703125">
        <ele>808</ele>
        <time>2019-10-27T10:14:32.000Z</time>
      </trkpt>
      <trkpt lat="37.64409550465643405914306640625" lon="-2.06782129593193531036376953125">
        <ele>809.20001220703125</ele>
        <time>2019-10-27T10:14:39.000Z</time>
      </trkpt>
      <trkpt lat="37.64421352185308933258056640625" lon="-2.0679967291653156280517578125">
        <ele>810</ele>
        <time>2019-10-27T10:14:46.000Z</time>
      </trkpt>
      <trkpt lat="37.64432550407946109771728515625" lon="-2.068207450211048126220703125">
        <ele>809.5999755859375</ele>
        <time>2019-10-27T10:14:54.000Z</time>
      </trkpt>
      <trkpt lat="37.6444187946617603302001953125" lon="-2.068411298096179962158203125">
        <ele>809</ele>
        <time>2019-10-27T10:15:01.000Z</time>
      </trkpt>
      <trkpt lat="37.64452449046075344085693359375" lon="-2.06859829835593700408935546875">
        <ele>808</ele>
        <time>2019-10-27T10:15:09.000Z</time>
      </trkpt>
      <trkpt lat="37.64455818571150302886962890625" lon="-2.068651020526885986328125">
        <ele>807.5999755859375</ele>
        <time>2019-10-27T10:15:14.000Z</time>
      </trkpt>
      <trkpt lat="37.644647620618343353271484375" lon="-2.06875520758330821990966796875">
        <ele>807.5999755859375</ele>
        <time>2019-10-27T10:16:09.000Z</time>
      </trkpt>
      <trkpt lat="37.64475717209279537200927734375" lon="-2.0689586363732814788818359375">
        <ele>808</ele>
        <time>2019-10-27T10:16:17.000Z</time>
      </trkpt>
      <trkpt lat="37.6449237205088138580322265625" lon="-2.0690592192113399505615234375">
        <ele>808</ele>
        <time>2019-10-27T10:16:24.000Z</time>
      </trkpt>
      <trkpt lat="37.64506570994853973388671875" lon="-2.06925309263169765472412109375">
        <ele>808.79998779296875</ele>
        <time>2019-10-27T10:16:30.000Z</time>
      </trkpt>
      <trkpt lat="37.64506570994853973388671875" lon="-2.06951360218226909637451171875">
        <ele>810.4000244140625</ele>
        <time>2019-10-27T10:16:37.000Z</time>
      </trkpt>
      <trkpt lat="37.6451426558196544647216796875" lon="-2.0696928910911083221435546875">
        <ele>811.20001220703125</ele>
        <time>2019-10-27T10:16:42.000Z</time>
      </trkpt>
      <trkpt lat="37.64525388367474079132080078125" lon="-2.06989288330078125">
        <ele>812.4000244140625</ele>
        <time>2019-10-27T10:16:48.000Z</time>
      </trkpt>
      <trkpt lat="37.6453646086156368255615234375" lon="-2.07008776254951953887939453125">
        <ele>814.20001220703125</ele>
        <time>2019-10-27T10:16:54.000Z</time>
      </trkpt>
      <trkpt lat="37.6454668678343296051025390625" lon="-2.07028909586369991302490234375">
        <ele>815.4000244140625</ele>
        <time>2019-10-27T10:17:00.000Z</time>
      </trkpt>
      <trkpt lat="37.64558781869709491729736328125" lon="-2.07049093209207057952880859375">
        <ele>815</ele>
        <time>2019-10-27T10:17:06.000Z</time>
      </trkpt>
      <trkpt lat="37.64565655030310153961181640625" lon="-2.070705927908420562744140625">
        <ele>815</ele>
        <time>2019-10-27T10:17:12.000Z</time>
      </trkpt>
      <trkpt lat="37.64571002684533596038818359375" lon="-2.07095445133745670318603515625">
        <ele>815</ele>
        <time>2019-10-27T10:17:19.000Z</time>
      </trkpt>
      <trkpt lat="37.645747661590576171875" lon="-2.0711922459304332733154296875">
        <ele>815</ele>
        <time>2019-10-27T10:17:25.000Z</time>
      </trkpt>
      <trkpt lat="37.6457629166543483734130859375" lon="-2.0714406855404376983642578125">
        <ele>816</ele>
        <time>2019-10-27T10:17:31.000Z</time>
      </trkpt>
      <trkpt lat="37.64577724970877170562744140625" lon="-2.071690969169139862060546875">
        <ele>817.5999755859375</ele>
        <time>2019-10-27T10:17:37.000Z</time>
      </trkpt>
      <trkpt lat="37.6457699574530124664306640625" lon="-2.0719392411410808563232421875">
        <ele>819.79998779296875</ele>
        <time>2019-10-27T10:17:43.000Z</time>
      </trkpt>
      <trkpt lat="37.645779512822628021240234375" lon="-2.07218541763722896575927734375">
        <ele>822</ele>
        <time>2019-10-27T10:17:49.000Z</time>
      </trkpt>
      <trkpt lat="37.645784877240657806396484375" lon="-2.0724146626889705657958984375">
        <ele>822.5999755859375</ele>
        <time>2019-10-27T10:17:55.000Z</time>
      </trkpt>
      <trkpt lat="37.6457823626697063446044921875" lon="-2.07267039455473423004150390625">
        <ele>822.5999755859375</ele>
        <time>2019-10-27T10:18:02.000Z</time>
      </trkpt>
      <trkpt lat="37.645803987979888916015625" lon="-2.0728977955877780914306640625">
        <ele>823.4000244140625</ele>
        <time>2019-10-27T10:18:08.000Z</time>
      </trkpt>
      <trkpt lat="37.64582100324332714080810546875" lon="-2.0731643401086330413818359375">
        <ele>824.20001220703125</ele>
        <time>2019-10-27T10:18:15.000Z</time>
      </trkpt>
      <trkpt lat="37.64583575539290904998779296875" lon="-2.0734211616218090057373046875">
        <ele>824.79998779296875</ele>
        <time>2019-10-27T10:18:21.000Z</time>
      </trkpt>
      <trkpt lat="37.645840533077716827392578125" lon="-2.07365828566253185272216796875">
        <ele>825.4000244140625</ele>
        <time>2019-10-27T10:18:27.000Z</time>
      </trkpt>
      <trkpt lat="37.6458249427378177642822265625" lon="-2.07391527481377124786376953125">
        <ele>826.20001220703125</ele>
        <time>2019-10-27T10:18:34.000Z</time>
      </trkpt>
      <trkpt lat="37.64584765769541263580322265625" lon="-2.07416689954698085784912109375">
        <ele>827.5999755859375</ele>
        <time>2019-10-27T10:18:41.000Z</time>
      </trkpt>
      <trkpt lat="37.64590431936085224151611328125" lon="-2.0743917860090732574462890625">
        <ele>829.20001220703125</ele>
        <time>2019-10-27T10:18:48.000Z</time>
      </trkpt>
      <trkpt lat="37.646013535559177398681640625" lon="-2.07459370605647563934326171875">
        <ele>829.5999755859375</ele>
        <time>2019-10-27T10:18:56.000Z</time>
      </trkpt>
      <trkpt lat="37.6461860351264476776123046875" lon="-2.0747082866728305816650390625">
        <ele>829.79998779296875</ele>
        <time>2019-10-27T10:19:04.000Z</time>
      </trkpt>
      <trkpt lat="37.64629340730607509613037109375" lon="-2.0749206840991973876953125">
        <ele>829.4000244140625</ele>
        <time>2019-10-27T10:19:10.000Z</time>
      </trkpt>
      <trkpt lat="37.6464552618563175201416015625" lon="-2.07508237101137638092041015625">
        <ele>829.4000244140625</ele>
        <time>2019-10-27T10:19:16.000Z</time>
      </trkpt>
      <trkpt lat="37.64659783802926540374755859375" lon="-2.07522419281303882598876953125">
        <ele>830</ele>
        <time>2019-10-27T10:19:21.000Z</time>
      </trkpt>
      <trkpt lat="37.646764218807220458984375" lon="-2.07538546063005924224853515625">
        <ele>830.5999755859375</ele>
        <time>2019-10-27T10:19:27.000Z</time>
      </trkpt>
      <trkpt lat="37.64690662734210491180419921875" lon="-2.0755458064377307891845703125">
        <ele>831.4000244140625</ele>
        <time>2019-10-27T10:19:31.000Z</time>
      </trkpt>
      <trkpt lat="37.6470674760639667510986328125" lon="-2.0757174678146839141845703125">
        <ele>830.5999755859375</ele>
        <time>2019-10-27T10:19:35.000Z</time>
      </trkpt>
      <trkpt lat="37.6472455076873302459716796875" lon="-2.07587085664272308349609375">
        <ele>829.4000244140625</ele>
        <time>2019-10-27T10:19:39.000Z</time>
      </trkpt>
      <trkpt lat="37.6474175043404102325439453125" lon="-2.07604260183870792388916015625">
        <ele>829.20001220703125</ele>
        <time>2019-10-27T10:19:43.000Z</time>
      </trkpt>
      <trkpt lat="37.64759897254407405853271484375" lon="-2.07619045861065387725830078125">
        <ele>829</ele>
        <time>2019-10-27T10:19:47.000Z</time>
      </trkpt>
      <trkpt lat="37.647752277553081512451171875" lon="-2.07633596844971179962158203125">
        <ele>829.20001220703125</ele>
        <time>2019-10-27T10:19:51.000Z</time>
      </trkpt>
      <trkpt lat="37.64791144989430904388427734375" lon="-2.0765110664069652557373046875">
        <ele>828.5999755859375</ele>
        <time>2019-10-27T10:19:56.000Z</time>
      </trkpt>
      <trkpt lat="37.64807607047259807586669921875" lon="-2.0766538940370082855224609375">
        <ele>828.20001220703125</ele>
        <time>2019-10-27T10:20:01.000Z</time>
      </trkpt>
      <trkpt lat="37.64814228750765323638916015625" lon="-2.07670762203633785247802734375">
        <ele>828</ele>
        <time>2019-10-27T10:20:03.000Z</time>
      </trkpt>
      <trkpt lat="37.6482744701206684112548828125" lon="-2.07673528231680393218994140625">
        <ele>828.20001220703125</ele>
        <time>2019-10-27T10:20:08.000Z</time>
      </trkpt>
      <trkpt lat="37.64829299412667751312255859375" lon="-2.07674257457256317138671875">
        <ele>828.4000244140625</ele>
        <time>2019-10-27T10:20:09.000Z</time>
      </trkpt>
      <trkpt lat="37.648389972746372222900390625" lon="-2.0767955482006072998046875">
        <ele>828.20001220703125</ele>
        <time>2019-10-27T10:20:25.000Z</time>
      </trkpt>
      <trkpt lat="37.6483887992799282073974609375" lon="-2.07692270167171955108642578125">
        <ele>827.5999755859375</ele>
        <time>2019-10-27T10:20:29.000Z</time>
      </trkpt>
      <trkpt lat="37.64832803048193454742431640625" lon="-2.0771363563835620880126953125">
        <ele>827</ele>
        <time>2019-10-27T10:20:34.000Z</time>
      </trkpt>
      <trkpt lat="37.64832216314971446990966796875" lon="-2.07736560143530368804931640625">
        <ele>827</ele>
        <time>2019-10-27T10:20:40.000Z</time>
      </trkpt>
      <trkpt lat="37.64833666384220123291015625" lon="-2.07740533165633678436279296875">
        <ele>827</ele>
        <time>2019-10-27T10:20:42.000Z</time>
      </trkpt>
      <trkpt lat="37.64828779734671115875244140625" lon="-2.0773883163928985595703125">
        <ele>827</ele>
        <time>2019-10-27T10:21:32.000Z</time>
      </trkpt>
      <trkpt lat="37.64826566912233829498291015625" lon="-2.0774075947701930999755859375">
        <ele>827</ele>
        <time>2019-10-27T10:21:51.000Z</time>
      </trkpt>
      <trkpt lat="37.6483492366969585418701171875" lon="-2.0780120976269245147705078125">
        <ele>829.20001220703125</ele>
        <time>2019-10-27T10:47:12.000Z</time>
      </trkpt>
      <trkpt lat="37.64837530441582202911376953125" lon="-2.0781847648322582244873046875">
        <ele>829.79998779296875</ele>
        <time>2019-10-27T10:47:18.000Z</time>
      </trkpt>
      <trkpt lat="37.6483700238168239593505859375" lon="-2.0784093998372554779052734375">
        <ele>830.5999755859375</ele>
        <time>2019-10-27T10:47:24.000Z</time>
      </trkpt>
      <trkpt lat="37.6484250091016292572021484375" lon="-2.07848869264125823974609375">
        <ele>831.20001220703125</ele>
        <time>2019-10-27T10:47:28.000Z</time>
      </trkpt>
      <trkpt lat="37.6484380848705768585205078125" lon="-2.078725397586822509765625">
        <ele>832</ele>
        <time>2019-10-27T10:47:34.000Z</time>
      </trkpt>
      <trkpt lat="37.6484687626361846923828125" lon="-2.0789626054465770721435546875">
        <ele>833</ele>
        <time>2019-10-27T10:47:41.000Z</time>
      </trkpt>
      <trkpt lat="37.64848611317574977874755859375" lon="-2.079213224351406097412109375">
        <ele>834</ele>
        <time>2019-10-27T10:47:48.000Z</time>
      </trkpt>
      <trkpt lat="37.64848795719444751739501953125" lon="-2.07925337366759777069091796875">
        <ele>834.20001220703125</ele>
        <time>2019-10-27T10:47:49.000Z</time>
      </trkpt>
      <trkpt lat="37.648494243621826171875" lon="-2.07949661649763584136962890625">
        <ele>834.4000244140625</ele>
        <time>2019-10-27T10:47:55.000Z</time>
      </trkpt>
      <trkpt lat="37.64848058111965656280517578125" lon="-2.0797434635460376739501953125">
        <ele>834.20001220703125</ele>
        <time>2019-10-27T10:48:01.000Z</time>
      </trkpt>
      <trkpt lat="37.64848527498543262481689453125" lon="-2.079969942569732666015625">
        <ele>834.5999755859375</ele>
        <time>2019-10-27T10:48:07.000Z</time>
      </trkpt>
      <trkpt lat="37.64850287698209285736083984375" lon="-2.08011017180979251861572265625">
        <ele>835</ele>
        <time>2019-10-27T10:48:13.000Z</time>
      </trkpt>
      <trkpt lat="37.64863095246255397796630859375" lon="-2.08028602413833141326904296875">
        <ele>836</ele>
        <time>2019-10-27T10:48:51.000Z</time>
      </trkpt>
      <trkpt lat="37.6488005183637142181396484375" lon="-2.0803975872695446014404296875">
        <ele>836.5999755859375</ele>
        <time>2019-10-27T10:48:59.000Z</time>
      </trkpt>
      <trkpt lat="37.6489751972258090972900390625" lon="-2.08048962056636810302734375">
        <ele>837</ele>
        <time>2019-10-27T10:49:06.000Z</time>
      </trkpt>
      <trkpt lat="37.6491334475576877593994140625" lon="-2.0806014351546764373779296875">
        <ele>837.20001220703125</ele>
        <time>2019-10-27T10:49:12.000Z</time>
      </trkpt>
      <trkpt lat="37.64931692741811275482177734375" lon="-2.0806922949850559234619140625">
        <ele>837.4000244140625</ele>
        <time>2019-10-27T10:49:19.000Z</time>
      </trkpt>
      <trkpt lat="37.6494321785867214202880859375" lon="-2.08061526529490947723388671875">
        <ele>838.20001220703125</ele>
        <time>2019-10-27T10:49:23.000Z</time>
      </trkpt>
      <trkpt lat="37.64959059655666351318359375" lon="-2.08046120591461658477783203125">
        <ele>839</ele>
        <time>2019-10-27T10:49:29.000Z</time>
      </trkpt>
      <trkpt lat="37.6497553847730159759521484375" lon="-2.08032776601612567901611328125">
        <ele>839</ele>
        <time>2019-10-27T10:49:36.000Z</time>
      </trkpt>
      <trkpt lat="37.64992696233093738555908203125" lon="-2.0802497304975986480712890625">
        <ele>839</ele>
        <time>2019-10-27T10:49:44.000Z</time>
      </trkpt>
      <trkpt lat="37.6501181535422801971435546875" lon="-2.08013649098575115203857421875">
        <ele>838.4000244140625</ele>
        <time>2019-10-27T10:49:53.000Z</time>
      </trkpt>
      <trkpt lat="37.65018629841506481170654296875" lon="-2.08004294894635677337646484375">
        <ele>838</ele>
        <time>2019-10-27T10:49:56.000Z</time>
      </trkpt>
      <trkpt lat="37.65023441053926944732666015625" lon="-2.07981613464653491973876953125">
        <ele>837</ele>
        <time>2019-10-27T10:50:01.000Z</time>
      </trkpt>
      <trkpt lat="37.65024497173726558685302734375" lon="-2.07953609526157379150390625">
        <ele>836</ele>
        <time>2019-10-27T10:50:06.000Z</time>
      </trkpt>
      <trkpt lat="37.65025452710688114166259765625" lon="-2.07928354851901531219482421875">
        <ele>834.4000244140625</ele>
        <time>2019-10-27T10:50:10.000Z</time>
      </trkpt>
      <trkpt lat="37.65026140026748180389404296875" lon="-2.0790299959480762481689453125">
        <ele>832.5999755859375</ele>
        <time>2019-10-27T10:50:14.000Z</time>
      </trkpt>
      <trkpt lat="37.65028554014861583709716796875" lon="-2.07874408923089504241943359375">
        <ele>831.20001220703125</ele>
        <time>2019-10-27T10:50:18.000Z</time>
      </trkpt>
      <trkpt lat="37.6502931676805019378662109375" lon="-2.07845189608633518218994140625">
        <ele>831</ele>
        <time>2019-10-27T10:50:22.000Z</time>
      </trkpt>
      <trkpt lat="37.65031269751489162445068359375" lon="-2.07819499075412750244140625">
        <ele>831</ele>
        <time>2019-10-27T10:50:26.000Z</time>
      </trkpt>
      <trkpt lat="37.6503206603229045867919921875" lon="-2.07813506014645099639892578125">
        <ele>831</ele>
        <time>2019-10-27T10:50:27.000Z</time>
      </trkpt>
      <trkpt lat="37.65033666975796222686767578125" lon="-2.0778645761311054229736328125">
        <ele>831.20001220703125</ele>
        <time>2019-10-27T10:50:31.000Z</time>
      </trkpt>
      <trkpt lat="37.65034387819468975067138671875" lon="-2.0776345767080783843994140625">
        <ele>832</ele>
        <time>2019-10-27T10:50:35.000Z</time>
      </trkpt>
      <trkpt lat="37.6503451354801654815673828125" lon="-2.0774840377271175384521484375">
        <ele>832</ele>
        <time>2019-10-27T10:50:38.000Z</time>
      </trkpt>
      <trkpt lat="37.650358714163303375244140625" lon="-2.07734582014381885528564453125">
        <ele>832.20001220703125</ele>
        <time>2019-10-27T10:50:42.000Z</time>
      </trkpt>
      <trkpt lat="37.65051327645778656005859375" lon="-2.077220343053340911865234375">
        <ele>832.5999755859375</ele>
        <time>2019-10-27T10:50:51.000Z</time>
      </trkpt>
      <trkpt lat="37.65069206245243549346923828125" lon="-2.077164351940155029296875">
        <ele>832.20001220703125</ele>
        <time>2019-10-27T10:50:56.000Z</time>
      </trkpt>
      <trkpt lat="37.65089440159499645233154296875" lon="-2.07710006274282932281494140625">
        <ele>831</ele>
        <time>2019-10-27T10:51:02.000Z</time>
      </trkpt>
      <trkpt lat="37.65110344626009464263916015625" lon="-2.0770666189491748809814453125">
        <ele>830.4000244140625</ele>
        <time>2019-10-27T10:51:08.000Z</time>
      </trkpt>
      <trkpt lat="37.6512850821018218994140625" lon="-2.07715387456119060516357421875">
        <ele>830.5999755859375</ele>
        <time>2019-10-27T10:51:13.000Z</time>
      </trkpt>
      <trkpt lat="37.65147241763770580291748046875" lon="-2.0772838778793811798095703125">
        <ele>830.79998779296875</ele>
        <time>2019-10-27T10:51:18.000Z</time>
      </trkpt>
      <trkpt lat="37.65165648423135280609130859375" lon="-2.0774545334279537200927734375">
        <ele>831.20001220703125</ele>
        <time>2019-10-27T10:51:23.000Z</time>
      </trkpt>
      <trkpt lat="37.65180836431682109832763671875" lon="-2.07758671604096889495849609375">
        <ele>831.4000244140625</ele>
        <time>2019-10-27T10:51:27.000Z</time>
      </trkpt>
      <trkpt lat="37.65196577645838260650634765625" lon="-2.07774731330573558807373046875">
        <ele>831.4000244140625</ele>
        <time>2019-10-27T10:51:32.000Z</time>
      </trkpt>
      <trkpt lat="37.6521527767181396484375" lon="-2.0778496563434600830078125">
        <ele>832.20001220703125</ele>
        <time>2019-10-27T10:51:38.000Z</time>
      </trkpt>
      <trkpt lat="37.65233374200761318206787109375" lon="-2.0778991095721721649169921875">
        <ele>832.79998779296875</ele>
        <time>2019-10-27T10:51:44.000Z</time>
      </trkpt>
      <trkpt lat="37.65253121964633464813232421875" lon="-2.0779366604983806610107421875">
        <ele>833</ele>
        <time>2019-10-27T10:51:50.000Z</time>
      </trkpt>
      <trkpt lat="37.6527172140777111053466796875" lon="-2.0779879577457904815673828125">
        <ele>832.4000244140625</ele>
        <time>2019-10-27T10:51:56.000Z</time>
      </trkpt>
      <trkpt lat="37.65291980467736721038818359375" lon="-2.07803498022258281707763671875">
        <ele>832</ele>
        <time>2019-10-27T10:52:02.000Z</time>
      </trkpt>
      <trkpt lat="37.6531228981912136077880859375" lon="-2.07808007486164569854736328125">
        <ele>832.20001220703125</ele>
        <time>2019-10-27T10:52:07.000Z</time>
      </trkpt>
      <trkpt lat="37.6533183641731739044189453125" lon="-2.07811720669269561767578125">
        <ele>833.5999755859375</ele>
        <time>2019-10-27T10:52:12.000Z</time>
      </trkpt>
      <trkpt lat="37.65349857509136199951171875" lon="-2.07815743982791900634765625">
        <ele>834.20001220703125</ele>
        <time>2019-10-27T10:52:17.000Z</time>
      </trkpt>
      <trkpt lat="37.65369010157883167266845703125" lon="-2.078188620507717132568359375">
        <ele>835</ele>
        <time>2019-10-27T10:52:22.000Z</time>
      </trkpt>
      <trkpt lat="37.65388741157948970794677734375" lon="-2.07824754528701305389404296875">
        <ele>835.79998779296875</ele>
        <time>2019-10-27T10:52:28.000Z</time>
      </trkpt>
      <trkpt lat="37.654086649417877197265625" lon="-2.07832365296781063079833984375">
        <ele>836.5999755859375</ele>
        <time>2019-10-27T10:52:34.000Z</time>
      </trkpt>
      <trkpt lat="37.654255963861942291259765625" lon="-2.07837796770036220550537109375">
        <ele>837.20001220703125</ele>
        <time>2019-10-27T10:52:39.000Z</time>
      </trkpt>
      <trkpt lat="37.65445034019649028778076171875" lon="-2.078446112573146820068359375">
        <ele>837.79998779296875</ele>
        <time>2019-10-27T10:52:45.000Z</time>
      </trkpt>
      <trkpt lat="37.654627449810504913330078125" lon="-2.07852884195744991302490234375">
        <ele>838.4000244140625</ele>
        <time>2019-10-27T10:52:51.000Z</time>
      </trkpt>
      <trkpt lat="37.65480455942451953887939453125" lon="-2.0785951428115367889404296875">
        <ele>839.20001220703125</ele>
        <time>2019-10-27T10:52:57.000Z</time>
      </trkpt>
      <trkpt lat="37.65499499626457691192626953125" lon="-2.078661024570465087890625">
        <ele>840.20001220703125</ele>
        <time>2019-10-27T10:53:03.000Z</time>
      </trkpt>
      <trkpt lat="37.65518610365688800811767578125" lon="-2.07873947918415069580078125">
        <ele>841</ele>
        <time>2019-10-27T10:53:09.000Z</time>
      </trkpt>
      <trkpt lat="37.65537033788859844207763671875" lon="-2.07881349138915538787841796875">
        <ele>841.20001220703125</ele>
        <time>2019-10-27T10:53:15.000Z</time>
      </trkpt>
      <trkpt lat="37.65554401092231273651123046875" lon="-2.078883312642574310302734375">
        <ele>841.79998779296875</ele>
        <time>2019-10-27T10:53:21.000Z</time>
      </trkpt>
      <trkpt lat="37.65574450604617595672607421875" lon="-2.07895715720951557159423828125">
        <ele>842.20001220703125</ele>
        <time>2019-10-27T10:53:29.000Z</time>
      </trkpt>
      <trkpt lat="37.65594148077070713043212890625" lon="-2.0790196023881435394287109375">
        <ele>843</ele>
        <time>2019-10-27T10:53:36.000Z</time>
      </trkpt>
      <trkpt lat="37.6561417244374752044677734375" lon="-2.079084813594818115234375">
        <ele>843.20001220703125</ele>
        <time>2019-10-27T10:53:43.000Z</time>
      </trkpt>
      <trkpt lat="37.65632830560207366943359375" lon="-2.07914927043020725250244140625">
        <ele>844</ele>
        <time>2019-10-27T10:53:50.000Z</time>
      </trkpt>
      <trkpt lat="37.65650667250156402587890625" lon="-2.0792100392282009124755859375">
        <ele>844.20001220703125</ele>
        <time>2019-10-27T10:53:57.000Z</time>
      </trkpt>
      <trkpt lat="37.65669870190322399139404296875" lon="-2.0792579837143421173095703125">
        <ele>845</ele>
        <time>2019-10-27T10:54:04.000Z</time>
      </trkpt>
      <trkpt lat="37.6568753086030483245849609375" lon="-2.079317159950733184814453125">
        <ele>846.20001220703125</ele>
        <time>2019-10-27T10:54:10.000Z</time>
      </trkpt>
      <trkpt lat="37.65706247650086879730224609375" lon="-2.079398632049560546875">
        <ele>847.79998779296875</ele>
        <time>2019-10-27T10:54:17.000Z</time>
      </trkpt>
      <trkpt lat="37.6572478003799915313720703125" lon="-2.079481445252895355224609375">
        <ele>848.4000244140625</ele>
        <time>2019-10-27T10:54:24.000Z</time>
      </trkpt>
      <trkpt lat="37.65743094496428966522216796875" lon="-2.079565264284610748291015625">
        <ele>849.4000244140625</ele>
        <time>2019-10-27T10:54:31.000Z</time>
      </trkpt>
      <trkpt lat="37.65760981477797031402587890625" lon="-2.07967079244554042816162109375">
        <ele>851</ele>
        <time>2019-10-27T10:54:38.000Z</time>
      </trkpt>
      <trkpt lat="37.6577758602797985076904296875" lon="-2.0797806791961193084716796875">
        <ele>852.79998779296875</ele>
        <time>2019-10-27T10:54:45.000Z</time>
      </trkpt>
      <trkpt lat="37.65794006176292896270751953125" lon="-2.07991504110395908355712890625">
        <ele>854.20001220703125</ele>
        <time>2019-10-27T10:54:53.000Z</time>
      </trkpt>
      <trkpt lat="37.65809194184839725494384765625" lon="-2.08004177547991275787353515625">
        <ele>855.4000244140625</ele>
        <time>2019-10-27T10:55:00.000Z</time>
      </trkpt>
      <trkpt lat="37.65825740061700344085693359375" lon="-2.08018410019576549530029296875">
        <ele>856</ele>
        <time>2019-10-27T10:55:08.000Z</time>
      </trkpt>
      <trkpt lat="37.6584148965775966644287109375" lon="-2.080329358577728271484375">
        <ele>857</ele>
        <time>2019-10-27T10:55:16.000Z</time>
      </trkpt>
      <trkpt lat="37.6585567183792591094970703125" lon="-2.08047227002680301666259765625">
        <ele>857.79998779296875</ele>
        <time>2019-10-27T10:55:23.000Z</time>
      </trkpt>
      <trkpt lat="37.65870340168476104736328125" lon="-2.080622725188732147216796875">
        <ele>859</ele>
        <time>2019-10-27T10:55:31.000Z</time>
      </trkpt>
      <trkpt lat="37.65886433422565460205078125" lon="-2.08077904768288135528564453125">
        <ele>860</ele>
        <time>2019-10-27T10:55:39.000Z</time>
      </trkpt>
      <trkpt lat="37.659028954803943634033203125" lon="-2.0809300057590007781982421875">
        <ele>861.5999755859375</ele>
        <time>2019-10-27T10:55:47.000Z</time>
      </trkpt>
      <trkpt lat="37.65918209217488765716552734375" lon="-2.08105246536433696746826171875">
        <ele>863.4000244140625</ele>
        <time>2019-10-27T10:55:54.000Z</time>
      </trkpt>
      <trkpt lat="37.65933481045067310333251953125" lon="-2.08117333240807056427001953125">
        <ele>865</ele>
        <time>2019-10-27T10:56:01.000Z</time>
      </trkpt>
      <trkpt lat="37.6595102436840534210205078125" lon="-2.08129704929888248443603515625">
        <ele>866.20001220703125</ele>
        <time>2019-10-27T10:56:09.000Z</time>
      </trkpt>
      <trkpt lat="37.6596803963184356689453125" lon="-2.08141892217099666595458984375">
        <ele>867.4000244140625</ele>
        <time>2019-10-27T10:56:17.000Z</time>
      </trkpt>
      <trkpt lat="37.65985934995114803314208984375" lon="-2.08151095546782016754150390625">
        <ele>868</ele>
        <time>2019-10-27T10:56:25.000Z</time>
      </trkpt>
      <trkpt lat="37.6600453443825244903564453125" lon="-2.08158521912992000579833984375">
        <ele>868.79998779296875</ele>
        <time>2019-10-27T10:56:33.000Z</time>
      </trkpt>
      <trkpt lat="37.6602434925734996795654296875" lon="-2.0816409587860107421875">
        <ele>870.4000244140625</ele>
        <time>2019-10-27T10:56:41.000Z</time>
      </trkpt>
      <trkpt lat="37.660437114536762237548828125" lon="-2.08168831653892993927001953125">
        <ele>872.20001220703125</ele>
        <time>2019-10-27T10:56:49.000Z</time>
      </trkpt>
      <trkpt lat="37.660632915794849395751953125" lon="-2.081716060638427734375">
        <ele>873.4000244140625</ele>
        <time>2019-10-27T10:56:57.000Z</time>
      </trkpt>
      <trkpt lat="37.6608352549374103546142578125" lon="-2.0817219279706478118896484375">
        <ele>874.79998779296875</ele>
        <time>2019-10-27T10:57:05.000Z</time>
      </trkpt>
      <trkpt lat="37.66103147529065608978271484375" lon="-2.08171765320003032684326171875">
        <ele>876</ele>
        <time>2019-10-27T10:57:13.000Z</time>
      </trkpt>
      <trkpt lat="37.66123138368129730224609375" lon="-2.08169317804276943206787109375">
        <ele>877.5999755859375</ele>
        <time>2019-10-27T10:57:21.000Z</time>
      </trkpt>
      <trkpt lat="37.66142911277711391448974609375" lon="-2.081652693450450897216796875">
        <ele>878.79998779296875</ele>
        <time>2019-10-27T10:57:29.000Z</time>
      </trkpt>
      <trkpt lat="37.6616053842008113861083984375" lon="-2.08160181529819965362548828125">
        <ele>880.5999755859375</ele>
        <time>2019-10-27T10:57:36.000Z</time>
      </trkpt>
      <trkpt lat="37.66178551129996776580810546875" lon="-2.08154280669987201690673828125">
        <ele>882.4000244140625</ele>
        <time>2019-10-27T10:57:43.000Z</time>
      </trkpt>
      <trkpt lat="37.66195717267692089080810546875" lon="-2.08147206343710422515869140625">
        <ele>883.79998779296875</ele>
        <time>2019-10-27T10:57:50.000Z</time>
      </trkpt>
      <trkpt lat="37.66212967224419116973876953125" lon="-2.08138053305447101593017578125">
        <ele>884.79998779296875</ele>
        <time>2019-10-27T10:57:57.000Z</time>
      </trkpt>
      <trkpt lat="37.66228876076638698577880859375" lon="-2.08127148449420928955078125">
        <ele>886</ele>
        <time>2019-10-27T10:58:04.000Z</time>
      </trkpt>
      <trkpt lat="37.6624475978314876556396484375" lon="-2.0811506174504756927490234375">
        <ele>886.79998779296875</ele>
        <time>2019-10-27T10:58:11.000Z</time>
      </trkpt>
      <trkpt lat="37.66253954730927944183349609375" lon="-2.0810808800160884857177734375">
        <ele>887.4000244140625</ele>
        <time>2019-10-27T10:58:15.000Z</time>
      </trkpt>
      <trkpt lat="37.6626871526241302490234375" lon="-2.08094400353729724884033203125">
        <ele>888.79998779296875</ele>
        <time>2019-10-27T10:58:22.000Z</time>
      </trkpt>
      <trkpt lat="37.662844397127628326416015625" lon="-2.08078038878738880157470703125">
        <ele>890.4000244140625</ele>
        <time>2019-10-27T10:58:30.000Z</time>
      </trkpt>
      <trkpt lat="37.662981860339641571044921875" lon="-2.0806302689015865325927734375">
        <ele>891</ele>
        <time>2019-10-27T10:58:37.000Z</time>
      </trkpt>
      <trkpt lat="37.663107924163341522216796875" lon="-2.08046489395201206207275390625">
        <ele>891.79998779296875</ele>
        <time>2019-10-27T10:58:44.000Z</time>
      </trkpt>
      <trkpt lat="37.6632289588451385498046875" lon="-2.0802896283566951751708984375">
        <ele>892.20001220703125</ele>
        <time>2019-10-27T10:58:51.000Z</time>
      </trkpt>
      <trkpt lat="37.6633431203663349151611328125" lon="-2.0800985209643840789794921875">
        <ele>892.79998779296875</ele>
        <time>2019-10-27T10:58:58.000Z</time>
      </trkpt>
      <trkpt lat="37.66344596631824970245361328125" lon="-2.0799122750759124755859375">
        <ele>893</ele>
        <time>2019-10-27T10:59:05.000Z</time>
      </trkpt>
      <trkpt lat="37.66354076564311981201171875" lon="-2.07971513271331787109375">
        <ele>894</ele>
        <time>2019-10-27T10:59:12.000Z</time>
      </trkpt>
      <trkpt lat="37.663626261055469512939453125" lon="-2.0795054174959659576416015625">
        <ele>894.79998779296875</ele>
        <time>2019-10-27T10:59:19.000Z</time>
      </trkpt>
      <trkpt lat="37.663705386221408843994140625" lon="-2.07928740419447422027587890625">
        <ele>896</ele>
        <time>2019-10-27T10:59:26.000Z</time>
      </trkpt>
      <trkpt lat="37.66377973370254039764404296875" lon="-2.07906679250299930572509765625">
        <ele>897</ele>
        <time>2019-10-27T10:59:33.000Z</time>
      </trkpt>
      <trkpt lat="37.66384519636631011962890625" lon="-2.07884500734508037567138671875">
        <ele>898</ele>
        <time>2019-10-27T10:59:40.000Z</time>
      </trkpt>
      <trkpt lat="37.66391853801906108856201171875" lon="-2.0786290057003498077392578125">
        <ele>898.5999755859375</ele>
        <time>2019-10-27T10:59:47.000Z</time>
      </trkpt>
      <trkpt lat="37.66401015222072601318359375" lon="-2.07842675037682056427001953125">
        <ele>899</ele>
        <time>2019-10-27T10:59:54.000Z</time>
      </trkpt>
      <trkpt lat="37.66412146389484405517578125" lon="-2.0782387442886829376220703125">
        <ele>899.20001220703125</ele>
        <time>2019-10-27T11:00:01.000Z</time>
      </trkpt>
      <trkpt lat="37.66424476169049739837646484375" lon="-2.07807236351072788238525390625">
        <ele>900.4000244140625</ele>
        <time>2019-10-27T11:00:08.000Z</time>
      </trkpt>
      <trkpt lat="37.66439110971987247467041015625" lon="-2.07793188281357288360595703125">
        <ele>900.79998779296875</ele>
        <time>2019-10-27T11:00:15.000Z</time>
      </trkpt>
      <trkpt lat="37.6645459234714508056640625" lon="-2.0778132788836956024169921875">
        <ele>900.5999755859375</ele>
        <time>2019-10-27T11:00:22.000Z</time>
      </trkpt>
      <trkpt lat="37.66473694704473018646240234375" lon="-2.0777194015681743621826171875">
        <ele>900.5999755859375</ele>
        <time>2019-10-27T11:00:30.000Z</time>
      </trkpt>
      <trkpt lat="37.66491749323904514312744140625" lon="-2.077665589749813079833984375">
        <ele>902</ele>
        <time>2019-10-27T11:00:37.000Z</time>
      </trkpt>
      <trkpt lat="37.6650982908904552459716796875" lon="-2.077631391584873199462890625">
        <ele>903.5999755859375</ele>
        <time>2019-10-27T11:00:44.000Z</time>
      </trkpt>
      <trkpt lat="37.6652863807976245880126953125" lon="-2.077636756002902984619140625">
        <ele>905.5999755859375</ele>
        <time>2019-10-27T11:00:51.000Z</time>
      </trkpt>
      <trkpt lat="37.6654741354286670684814453125" lon="-2.0776798389852046966552734375">
        <ele>907</ele>
        <time>2019-10-27T11:00:58.000Z</time>
      </trkpt>
      <trkpt lat="37.66566582955420017242431640625" lon="-2.07775619812309741973876953125">
        <ele>908</ele>
        <time>2019-10-27T11:01:05.000Z</time>
      </trkpt>
      <trkpt lat="37.6658513210713863372802734375" lon="-2.0778657495975494384765625">
        <ele>908.5999755859375</ele>
        <time>2019-10-27T11:01:12.000Z</time>
      </trkpt>
      <trkpt lat="37.6660184562206268310546875" lon="-2.0780077390372753143310546875">
        <ele>909.5999755859375</ele>
        <time>2019-10-27T11:01:19.000Z</time>
      </trkpt>
      <trkpt lat="37.6661691628396511077880859375" lon="-2.0781710185110569000244140625">
        <ele>910.4000244140625</ele>
        <time>2019-10-27T11:01:26.000Z</time>
      </trkpt>
      <trkpt lat="37.66632414422929286956787109375" lon="-2.07834561355412006378173828125">
        <ele>909</ele>
        <time>2019-10-27T11:01:33.000Z</time>
      </trkpt>
      <trkpt lat="37.66645993106067180633544921875" lon="-2.0784975774586200714111328125">
        <ele>907.4000244140625</ele>
        <time>2019-10-27T11:01:39.000Z</time>
      </trkpt>
      <trkpt lat="37.6666147448122501373291015625" lon="-2.07866395823657512664794921875">
        <ele>907.20001220703125</ele>
        <time>2019-10-27T11:01:46.000Z</time>
      </trkpt>
      <trkpt lat="37.66676821745932102203369140625" lon="-2.07883662544190883636474609375">
        <ele>906.79998779296875</ele>
        <time>2019-10-27T11:01:53.000Z</time>
      </trkpt>
      <trkpt lat="37.66692495904862880706787109375" lon="-2.07900627516210079193115234375">
        <ele>908.20001220703125</ele>
        <time>2019-10-27T11:02:00.000Z</time>
      </trkpt>
      <trkpt lat="37.66707616858184337615966796875" lon="-2.07918179221451282501220703125">
        <ele>910.5999755859375</ele>
        <time>2019-10-27T11:02:07.000Z</time>
      </trkpt>
      <trkpt lat="37.6672308146953582763671875" lon="-2.079352699220180511474609375">
        <ele>912</ele>
        <time>2019-10-27T11:02:14.000Z</time>
      </trkpt>
      <trkpt lat="37.6673979498445987701416015625" lon="-2.07951153628528118133544921875">
        <ele>911.20001220703125</ele>
        <time>2019-10-27T11:02:21.000Z</time>
      </trkpt>
      <trkpt lat="37.6675729639828205108642578125" lon="-2.0796467363834381103515625">
        <ele>911.5999755859375</ele>
        <time>2019-10-27T11:02:28.000Z</time>
      </trkpt>
      <trkpt lat="37.6677536778151988983154296875" lon="-2.07975327037274837493896484375">
        <ele>910.79998779296875</ele>
        <time>2019-10-27T11:02:35.000Z</time>
      </trkpt>
      <trkpt lat="37.6679317094385623931884765625" lon="-2.079839520156383514404296875">
        <ele>911</ele>
        <time>2019-10-27T11:02:42.000Z</time>
      </trkpt>
      <trkpt lat="37.66812876798212528228759765625" lon="-2.0799100957810878753662109375">
        <ele>912</ele>
        <time>2019-10-27T11:02:49.000Z</time>
      </trkpt>
      <trkpt lat="37.6683156006038188934326171875" lon="-2.07999181933701038360595703125">
        <ele>913</ele>
        <time>2019-10-27T11:02:56.000Z</time>
      </trkpt>
      <trkpt lat="37.6684996671974658966064453125" lon="-2.08008502610027790069580078125">
        <ele>915.20001220703125</ele>
        <time>2019-10-27T11:03:03.000Z</time>
      </trkpt>
      <trkpt lat="37.66866303049027919769287109375" lon="-2.0802024565637111663818359375">
        <ele>917</ele>
        <time>2019-10-27T11:03:10.000Z</time>
      </trkpt>
      <trkpt lat="37.66883083619177341461181640625" lon="-2.08035190589725971221923828125">
        <ele>918.20001220703125</ele>
        <time>2019-10-27T11:03:18.000Z</time>
      </trkpt>
      <trkpt lat="37.66896695829927921295166015625" lon="-2.080504037439823150634765625">
        <ele>919.4000244140625</ele>
        <time>2019-10-27T11:03:25.000Z</time>
      </trkpt>
      <trkpt lat="37.6691029965877532958984375" lon="-2.08069187588989734649658203125">
        <ele>921.20001220703125</ele>
        <time>2019-10-27T11:03:33.000Z</time>
      </trkpt>
      <trkpt lat="37.6692121289670467376708984375" lon="-2.08089706487953662872314453125">
        <ele>922.5999755859375</ele>
        <time>2019-10-27T11:03:41.000Z</time>
      </trkpt>
      <trkpt lat="37.66925797797739505767822265625" lon="-2.0810101367533206939697265625">
        <ele>923.20001220703125</ele>
        <time>2019-10-27T11:03:45.000Z</time>
      </trkpt>
      <trkpt lat="37.66936384141445159912109375" lon="-2.0812267251312732696533203125">
        <ele>924</ele>
        <time>2019-10-27T11:03:53.000Z</time>
      </trkpt>
      <trkpt lat="37.66946635209023952484130859375" lon="-2.0814503543078899383544921875">
        <ele>925.4000244140625</ele>
        <time>2019-10-27T11:04:01.000Z</time>
      </trkpt>
      <trkpt lat="37.66955302096903324127197265625" lon="-2.08165227435529232025146484375">
        <ele>927.20001220703125</ele>
        <time>2019-10-27T11:04:10.000Z</time>
      </trkpt>
      <trkpt lat="37.66966802068054676055908203125" lon="-2.0818577148020267486572265625">
        <ele>929.5999755859375</ele>
        <time>2019-10-27T11:04:19.000Z</time>
      </trkpt>
      <trkpt lat="37.6697686873376369476318359375" lon="-2.0820588804781436920166015625">
        <ele>932.4000244140625</ele>
        <time>2019-10-27T11:04:28.000Z</time>
      </trkpt>
      <trkpt lat="37.66989248804748058319091796875" lon="-2.08223615773022174835205078125">
        <ele>934.79998779296875</ele>
        <time>2019-10-27T11:04:37.000Z</time>
      </trkpt>
      <trkpt lat="37.6700214855372905731201171875" lon="-2.082396335899829864501953125">
        <ele>937</ele>
        <time>2019-10-27T11:04:45.000Z</time>
      </trkpt>
      <trkpt lat="37.670154087245464324951171875" lon="-2.0825571008026599884033203125">
        <ele>938</ele>
        <time>2019-10-27T11:04:53.000Z</time>
      </trkpt>
      <trkpt lat="37.67030789516866207122802734375" lon="-2.0827062986791133880615234375">
        <ele>941</ele>
        <time>2019-10-27T11:05:01.000Z</time>
      </trkpt>
      <trkpt lat="37.67046648077666759490966796875" lon="-2.08283680491149425506591796875">
        <ele>943.20001220703125</ele>
        <time>2019-10-27T11:05:09.000Z</time>
      </trkpt>
      <trkpt lat="37.6706276647746562957763671875" lon="-2.08295012824237346649169921875">
        <ele>945.20001220703125</ele>
        <time>2019-10-27T11:05:18.000Z</time>
      </trkpt>
      <trkpt lat="37.6706290058791637420654296875" lon="-2.08295063115656375885009765625">
        <ele>945.20001220703125</ele>
        <time>2019-10-27T11:05:19.000Z</time>
      </trkpt>
      <trkpt lat="37.670690529048442840576171875" lon="-2.0829614438116550445556640625">
        <ele>945.5999755859375</ele>
        <time>2019-10-27T11:09:45.000Z</time>
      </trkpt>
      <trkpt lat="37.67086428590118885040283203125" lon="-2.08305724896490573883056640625">
        <ele>946.5999755859375</ele>
        <time>2019-10-27T11:09:54.000Z</time>
      </trkpt>
      <trkpt lat="37.67103209160268306732177734375" lon="-2.083167135715484619140625">
        <ele>947.20001220703125</ele>
        <time>2019-10-27T11:10:03.000Z</time>
      </trkpt>
      <trkpt lat="37.67119503580033779144287109375" lon="-2.08327467553317546844482421875">
        <ele>947.5999755859375</ele>
        <time>2019-10-27T11:10:12.000Z</time>
      </trkpt>
      <trkpt lat="37.6713682897388935089111328125" lon="-2.08337324671447277069091796875">
        <ele>948.20001220703125</ele>
        <time>2019-10-27T11:10:21.000Z</time>
      </trkpt>
      <trkpt lat="37.67154808156192302703857421875" lon="-2.0834754221141338348388671875">
        <ele>950</ele>
        <time>2019-10-27T11:10:30.000Z</time>
      </trkpt>
      <trkpt lat="37.67173265106976032257080078125" lon="-2.08357474766671657562255859375">
        <ele>952.4000244140625</ele>
        <time>2019-10-27T11:10:39.000Z</time>
      </trkpt>
      <trkpt lat="37.6719131134450435638427734375" lon="-2.0836839638650417327880859375">
        <ele>954.5999755859375</ele>
        <time>2019-10-27T11:10:48.000Z</time>
      </trkpt>
      <trkpt lat="37.67207882367074489593505859375" lon="-2.0837808586657047271728515625">
        <ele>957.20001220703125</ele>
        <time>2019-10-27T11:10:56.000Z</time>
      </trkpt>
      <trkpt lat="37.67225258052349090576171875" lon="-2.0838891528546810150146484375">
        <ele>958.79998779296875</ele>
        <time>2019-10-27T11:11:05.000Z</time>
      </trkpt>
      <trkpt lat="37.67243052832782268524169921875" lon="-2.0840024761855602264404296875">
        <ele>960.79998779296875</ele>
        <time>2019-10-27T11:11:14.000Z</time>
      </trkpt>
      <trkpt lat="37.672598250210285186767578125" lon="-2.08412124775350093841552734375">
        <ele>962</ele>
        <time>2019-10-27T11:11:23.000Z</time>
      </trkpt>
      <trkpt lat="37.6727687381207942962646484375" lon="-2.08424949087202548980712890625">
        <ele>963.5999755859375</ele>
        <time>2019-10-27T11:11:32.000Z</time>
      </trkpt>
      <trkpt lat="37.6729434169828891754150390625" lon="-2.08437454886734485626220703125">
        <ele>966.20001220703125</ele>
        <time>2019-10-27T11:11:41.000Z</time>
      </trkpt>
      <trkpt lat="37.673117257654666900634765625" lon="-2.08449725992977619171142578125">
        <ele>968.4000244140625</ele>
        <time>2019-10-27T11:11:50.000Z</time>
      </trkpt>
      <trkpt lat="37.67328799702227115631103515625" lon="-2.08460010588169097900390625">
        <ele>970.4000244140625</ele>
        <time>2019-10-27T11:11:58.000Z</time>
      </trkpt>
      <trkpt lat="37.6734513603150844573974609375" lon="-2.0847223140299320220947265625">
        <ele>971.4000244140625</ele>
        <time>2019-10-27T11:12:07.000Z</time>
      </trkpt>
      <trkpt lat="37.6736109517514705657958984375" lon="-2.0848306082189083099365234375">
        <ele>972.79998779296875</ele>
        <time>2019-10-27T11:12:15.000Z</time>
      </trkpt>
      <trkpt lat="37.67378948628902435302734375" lon="-2.084947787225246429443359375">
        <ele>973.4000244140625</ele>
        <time>2019-10-27T11:12:24.000Z</time>
      </trkpt>
      <trkpt lat="37.6739717088639736175537109375" lon="-2.08505582995712757110595703125">
        <ele>973.79998779296875</ele>
        <time>2019-10-27T11:12:33.000Z</time>
      </trkpt>
      <trkpt lat="37.67415887676179409027099609375" lon="-2.085141576826572418212890625">
        <ele>974.5999755859375</ele>
        <time>2019-10-27T11:12:42.000Z</time>
      </trkpt>
      <trkpt lat="37.674339674413204193115234375" lon="-2.08519027568399906158447265625">
        <ele>976</ele>
        <time>2019-10-27T11:12:50.000Z</time>
      </trkpt>
      <trkpt lat="37.67451963387429714202880859375" lon="-2.0852128230035305023193359375">
        <ele>977.5999755859375</ele>
        <time>2019-10-27T11:12:58.000Z</time>
      </trkpt>
      <trkpt lat="37.67471409402787685394287109375" lon="-2.085231430828571319580078125">
        <ele>980.20001220703125</ele>
        <time>2019-10-27T11:13:07.000Z</time>
      </trkpt>
      <trkpt lat="37.67491006292402744293212890625" lon="-2.0852686464786529541015625">
        <ele>982.4000244140625</ele>
        <time>2019-10-27T11:13:16.000Z</time>
      </trkpt>
      <trkpt lat="37.675104774534702301025390625" lon="-2.085315920412540435791015625">
        <ele>984.4000244140625</ele>
        <time>2019-10-27T11:13:25.000Z</time>
      </trkpt>
      <trkpt lat="37.67529554665088653564453125" lon="-2.0853700675070285797119140625">
        <ele>986.4000244140625</ele>
        <time>2019-10-27T11:13:34.000Z</time>
      </trkpt>
      <trkpt lat="37.67546963877975940704345703125" lon="-2.0854501985013484954833984375">
        <ele>987.4000244140625</ele>
        <time>2019-10-27T11:13:42.000Z</time>
      </trkpt>
      <trkpt lat="37.67563761211931705474853515625" lon="-2.08554147742688655853271484375">
        <ele>988</ele>
        <time>2019-10-27T11:13:50.000Z</time>
      </trkpt>
      <trkpt lat="37.67581933178007602691650390625" lon="-2.08565144799649715423583984375">
        <ele>988.79998779296875</ele>
        <time>2019-10-27T11:13:59.000Z</time>
      </trkpt>
      <trkpt lat="37.675983868539333343505859375" lon="-2.085749767720699310302734375">
        <ele>990.4000244140625</ele>
        <time>2019-10-27T11:14:07.000Z</time>
      </trkpt>
      <trkpt lat="37.67616399563848972320556640625" lon="-2.08585781045258045196533203125">
        <ele>992</ele>
        <time>2019-10-27T11:14:16.000Z</time>
      </trkpt>
      <trkpt lat="37.676343955099582672119140625" lon="-2.08597146905958652496337890625">
        <ele>993.5999755859375</ele>
        <time>2019-10-27T11:14:25.000Z</time>
      </trkpt>
      <trkpt lat="37.67652676440775394439697265625" lon="-2.0860801823437213897705078125">
        <ele>995.4000244140625</ele>
        <time>2019-10-27T11:14:34.000Z</time>
      </trkpt>
      <trkpt lat="37.6766884513199329376220703125" lon="-2.086187638342380523681640625">
        <ele>996.79998779296875</ele>
        <time>2019-10-27T11:14:42.000Z</time>
      </trkpt>
      <trkpt lat="37.67681057564914226531982421875" lon="-2.08627355284988880157470703125">
        <ele>998.4000244140625</ele>
        <time>2019-10-27T11:14:48.000Z</time>
      </trkpt>
      <trkpt lat="37.67698408104479312896728515625" lon="-2.086404226720333099365234375">
        <ele>1001.4000244140625</ele>
        <time>2019-10-27T11:14:57.000Z</time>
      </trkpt>
      <trkpt lat="37.677137553691864013671875" lon="-2.08652995526790618896484375">
        <ele>1002.4000244140625</ele>
        <time>2019-10-27T11:15:05.000Z</time>
      </trkpt>
      <trkpt lat="37.67729823477566242218017578125" lon="-2.086682505905628204345703125">
        <ele>1003.4000244140625</ele>
        <time>2019-10-27T11:15:14.000Z</time>
      </trkpt>
      <trkpt lat="37.67744776792824268341064453125" lon="-2.0868412591516971588134765625">
        <ele>1003.79998779296875</ele>
        <time>2019-10-27T11:15:23.000Z</time>
      </trkpt>
      <trkpt lat="37.6776064373552799224853515625" lon="-2.0870015211403369903564453125">
        <ele>1005.20001220703125</ele>
        <time>2019-10-27T11:15:32.000Z</time>
      </trkpt>
      <trkpt lat="37.6777408830821514129638671875" lon="-2.087154574692249298095703125">
        <ele>1007</ele>
        <time>2019-10-27T11:15:40.000Z</time>
      </trkpt>
      <trkpt lat="37.6778827048838138580322265625" lon="-2.087335623800754547119140625">
        <ele>1008.5999755859375</ele>
        <time>2019-10-27T11:15:49.000Z</time>
      </trkpt>
      <trkpt lat="37.67799317836761474609375" lon="-2.08751709200441837310791015625">
        <ele>1008.79998779296875</ele>
        <time>2019-10-27T11:15:57.000Z</time>
      </trkpt>
      <trkpt lat="37.678101472556591033935546875" lon="-2.08770082332193851470947265625">
        <ele>1010.5999755859375</ele>
        <time>2019-10-27T11:16:05.000Z</time>
      </trkpt>
      <trkpt lat="37.67820029519498348236083984375" lon="-2.087901569902896881103515625">
        <ele>1010.79998779296875</ele>
        <time>2019-10-27T11:16:13.000Z</time>
      </trkpt>
      <trkpt lat="37.6782806776463985443115234375" lon="-2.08811379969120025634765625">
        <ele>1013.20001220703125</ele>
        <time>2019-10-27T11:16:21.000Z</time>
      </trkpt>
      <trkpt lat="37.67835033126175403594970703125" lon="-2.0883305557072162628173828125">
        <ele>1014.20001220703125</ele>
        <time>2019-10-27T11:16:29.000Z</time>
      </trkpt>
      <trkpt lat="37.67843532375991344451904296875" lon="-2.0885464735329151153564453125">
        <ele>1017</ele>
        <time>2019-10-27T11:16:37.000Z</time>
      </trkpt>
      <trkpt lat="37.67849148251116275787353515625" lon="-2.08877203054726123809814453125">
        <ele>1019.79998779296875</ele>
        <time>2019-10-27T11:16:45.000Z</time>
      </trkpt>
      <trkpt lat="37.678534984588623046875" lon="-2.08899557590484619140625">
        <ele>1022.79998779296875</ele>
        <time>2019-10-27T11:16:53.000Z</time>
      </trkpt>
      <trkpt lat="37.678564824163913726806640625" lon="-2.08922649733722209930419921875">
        <ele>1024.5999755859375</ele>
        <time>2019-10-27T11:17:01.000Z</time>
      </trkpt>
      <trkpt lat="37.6785894669592380523681640625" lon="-2.08946471102535724639892578125">
        <ele>1026.199951171875</ele>
        <time>2019-10-27T11:17:09.000Z</time>
      </trkpt>
      <trkpt lat="37.67860941588878631591796875" lon="-2.08969454281032085418701171875">
        <ele>1028</ele>
        <time>2019-10-27T11:17:17.000Z</time>
      </trkpt>
      <trkpt lat="37.6786327175796031951904296875" lon="-2.08992420695722103118896484375">
        <ele>1030.4000244140625</ele>
        <time>2019-10-27T11:17:25.000Z</time>
      </trkpt>
      <trkpt lat="37.678649313747882843017578125" lon="-2.090150602161884307861328125">
        <ele>1031.5999755859375</ele>
        <time>2019-10-27T11:17:33.000Z</time>
      </trkpt>
      <trkpt lat="37.678670100867748260498046875" lon="-2.09038018248975276947021484375">
        <ele>1031.4000244140625</ele>
        <time>2019-10-27T11:17:41.000Z</time>
      </trkpt>
      <trkpt lat="37.678693234920501708984375" lon="-2.09060884080827236175537109375">
        <ele>1030.4000244140625</ele>
        <time>2019-10-27T11:17:49.000Z</time>
      </trkpt>
      <trkpt lat="37.6787222363054752349853515625" lon="-2.09083867259323596954345703125">
        <ele>1030.199951171875</ele>
        <time>2019-10-27T11:17:57.000Z</time>
      </trkpt>
      <trkpt lat="37.67877571284770965576171875" lon="-2.09106733091175556182861328125">
        <ele>1030</ele>
        <time>2019-10-27T11:18:05.000Z</time>
      </trkpt>
      <trkpt lat="37.6788476295769214630126953125" lon="-2.09128551185131072998046875">
        <ele>1031.4000244140625</ele>
        <time>2019-10-27T11:18:13.000Z</time>
      </trkpt>
      <trkpt lat="37.67893957905471324920654296875" lon="-2.09149179048836231231689453125">
        <ele>1032.4000244140625</ele>
        <time>2019-10-27T11:18:21.000Z</time>
      </trkpt>
      <trkpt lat="37.6790508069097995758056640625" lon="-2.09168205969035625457763671875">
        <ele>1034.199951171875</ele>
        <time>2019-10-27T11:18:29.000Z</time>
      </trkpt>
      <trkpt lat="37.67917946912348270416259765625" lon="-2.09185254760086536407470703125">
        <ele>1034.800048828125</ele>
        <time>2019-10-27T11:18:37.000Z</time>
      </trkpt>
      <trkpt lat="37.6793173514306545257568359375" lon="-2.09200702607631683349609375">
        <ele>1035</ele>
        <time>2019-10-27T11:18:45.000Z</time>
      </trkpt>
      <trkpt lat="37.67946730367839336395263671875" lon="-2.09214021451771259307861328125">
        <ele>1036.800048828125</ele>
        <time>2019-10-27T11:18:53.000Z</time>
      </trkpt>
      <trkpt lat="37.67962622456252574920654296875" lon="-2.09228656254708766937255859375">
        <ele>1038.4000244140625</ele>
        <time>2019-10-27T11:19:02.000Z</time>
      </trkpt>
      <trkpt lat="37.67979620955884456634521484375" lon="-2.09239603020250797271728515625">
        <ele>1041.800048828125</ele>
        <time>2019-10-27T11:19:11.000Z</time>
      </trkpt>
      <trkpt lat="37.6799503527581691741943359375" lon="-2.0925466530025005340576171875">
        <ele>1045.800048828125</ele>
        <time>2019-10-27T11:19:20.000Z</time>
      </trkpt>
      <trkpt lat="37.6800760813057422637939453125" lon="-2.09273952059447765350341796875">
        <ele>1049.800048828125</ele>
        <time>2019-10-27T11:19:29.000Z</time>
      </trkpt>
      <trkpt lat="37.6801702938973903656005859375" lon="-2.09292358718812465667724609375">
        <ele>1052.199951171875</ele>
        <time>2019-10-27T11:19:39.000Z</time>
      </trkpt>
      <trkpt lat="37.68015981651842594146728515625" lon="-2.092920653522014617919921875">
        <ele>1052</ele>
        <time>2019-10-27T11:24:19.000Z</time>
      </trkpt>
      <trkpt lat="37.680161409080028533935546875" lon="-2.09288352169096469879150390625">
        <ele>1052.199951171875</ele>
        <time>2019-10-27T11:28:08.000Z</time>
      </trkpt>
      <trkpt lat="37.68001087009906768798828125" lon="-2.092685289680957794189453125">
        <ele>1047.5999755859375</ele>
        <time>2019-10-27T11:28:15.000Z</time>
      </trkpt>
      <trkpt lat="37.67986628226935863494873046875" lon="-2.09249292500317096710205078125">
        <ele>1043.199951171875</ele>
        <time>2019-10-27T11:28:20.000Z</time>
      </trkpt>
      <trkpt lat="37.679684646427631378173828125" lon="-2.0923952758312225341796875">
        <ele>1038.5999755859375</ele>
        <time>2019-10-27T11:28:27.000Z</time>
      </trkpt>
      <trkpt lat="37.679487504065036773681640625" lon="-2.09224431775510311126708984375">
        <ele>1035.800048828125</ele>
        <time>2019-10-27T11:28:31.000Z</time>
      </trkpt>
      <trkpt lat="37.6793160103261470794677734375" lon="-2.0920910127460956573486328125">
        <ele>1033.800048828125</ele>
        <time>2019-10-27T11:28:34.000Z</time>
      </trkpt>
      <trkpt lat="37.6791306026279926300048828125" lon="-2.09189571440219879150390625">
        <ele>1033</ele>
        <time>2019-10-27T11:28:37.000Z</time>
      </trkpt>
      <trkpt lat="37.67895315773785114288330078125" lon="-2.09163956344127655029296875">
        <ele>1031.5999755859375</ele>
        <time>2019-10-27T11:28:40.000Z</time>
      </trkpt>
      <trkpt lat="37.67884419299662113189697265625" lon="-2.0914377272129058837890625">
        <ele>1030.199951171875</ele>
        <time>2019-10-27T11:28:42.000Z</time>
      </trkpt>
      <trkpt lat="37.6787487231194972991943359375" lon="-2.09121267311275005340576171875">
        <ele>1028.5999755859375</ele>
        <time>2019-10-27T11:28:44.000Z</time>
      </trkpt>
      <trkpt lat="37.67870907671749591827392578125" lon="-2.09109197370707988739013671875">
        <ele>1028.4000244140625</ele>
        <time>2019-10-27T11:28:45.000Z</time>
      </trkpt>
      <trkpt lat="37.67864705063402652740478515625" lon="-2.0908347330987453460693359375">
        <ele>1028.199951171875</ele>
        <time>2019-10-27T11:28:47.000Z</time>
      </trkpt>
      <trkpt lat="37.67860732041299343109130859375" lon="-2.09056341089308261871337890625">
        <ele>1029</ele>
        <time>2019-10-27T11:28:49.000Z</time>
      </trkpt>
      <trkpt lat="37.67858116887509822845458984375" lon="-2.0902771688997745513916015625">
        <ele>1029.5999755859375</ele>
        <time>2019-10-27T11:28:51.000Z</time>
      </trkpt>
      <trkpt lat="37.67855443060398101806640625" lon="-2.0899834670126438140869140625">
        <ele>1028.199951171875</ele>
        <time>2019-10-27T11:28:53.000Z</time>
      </trkpt>
      <trkpt lat="37.6785291172564029693603515625" lon="-2.08968213759362697601318359375">
        <ele>1025.199951171875</ele>
        <time>2019-10-27T11:28:55.000Z</time>
      </trkpt>
      <trkpt lat="37.678503133356571197509765625" lon="-2.08937443792819976806640625">
        <ele>1023</ele>
        <time>2019-10-27T11:28:57.000Z</time>
      </trkpt>
      <trkpt lat="37.67847438342869281768798828125" lon="-2.0890591107308864593505859375">
        <ele>1021</ele>
        <time>2019-10-27T11:28:59.000Z</time>
      </trkpt>
      <trkpt lat="37.6784275285899639129638671875" lon="-2.08874168805778026580810546875">
        <ele>1017.4000244140625</ele>
        <time>2019-10-27T11:29:01.000Z</time>
      </trkpt>
      <trkpt lat="37.67834186553955078125" lon="-2.0884309709072113037109375">
        <ele>1014.20001220703125</ele>
        <time>2019-10-27T11:29:03.000Z</time>
      </trkpt>
      <trkpt lat="37.6782380975782871246337890625" lon="-2.08812494762241840362548828125">
        <ele>1012.20001220703125</ele>
        <time>2019-10-27T11:29:05.000Z</time>
      </trkpt>
      <trkpt lat="37.67811044119298458099365234375" lon="-2.087825126945972442626953125">
        <ele>1009.4000244140625</ele>
        <time>2019-10-27T11:29:07.000Z</time>
      </trkpt>
      <trkpt lat="37.67795688472688198089599609375" lon="-2.08753989078104496002197265625">
        <ele>1007.5999755859375</ele>
        <time>2019-10-27T11:29:09.000Z</time>
      </trkpt>
      <trkpt lat="37.67777969129383563995361328125" lon="-2.08727468736469745635986328125">
        <ele>1006.79998779296875</ele>
        <time>2019-10-27T11:29:11.000Z</time>
      </trkpt>
      <trkpt lat="37.6775833033025264739990234375" lon="-2.08703211508691310882568359375">
        <ele>1004.79998779296875</ele>
        <time>2019-10-27T11:29:13.000Z</time>
      </trkpt>
      <trkpt lat="37.677373252809047698974609375" lon="-2.08680546842515468597412109375">
        <ele>1003.20001220703125</ele>
        <time>2019-10-27T11:29:15.000Z</time>
      </trkpt>
      <trkpt lat="37.67715523950755596160888671875" lon="-2.08658971823751926422119140625">
        <ele>1001.79998779296875</ele>
        <time>2019-10-27T11:29:17.000Z</time>
      </trkpt>
      <trkpt lat="37.6769281737506389617919921875" lon="-2.08639207296073436737060546875">
        <ele>1000</ele>
        <time>2019-10-27T11:29:19.000Z</time>
      </trkpt>
      <trkpt lat="37.6766901277005672454833984375" lon="-2.086211778223514556884765625">
        <ele>996.4000244140625</ele>
        <time>2019-10-27T11:29:21.000Z</time>
      </trkpt>
      <trkpt lat="37.67644512467086315155029296875" lon="-2.08604581654071807861328125">
        <ele>994.4000244140625</ele>
        <time>2019-10-27T11:29:23.000Z</time>
      </trkpt>
      <trkpt lat="37.67619609832763671875" lon="-2.0858882367610931396484375">
        <ele>992</ele>
        <time>2019-10-27T11:29:25.000Z</time>
      </trkpt>
      <trkpt lat="37.67594170756638050079345703125" lon="-2.08573141135275363922119140625">
        <ele>990</ele>
        <time>2019-10-27T11:29:27.000Z</time>
      </trkpt>
      <trkpt lat="37.6756866462528705596923828125" lon="-2.0855739153921604156494140625">
        <ele>988</ele>
        <time>2019-10-27T11:29:29.000Z</time>
      </trkpt>
      <trkpt lat="37.6754249632358551025390625" lon="-2.08543167449533939361572265625">
        <ele>987.20001220703125</ele>
        <time>2019-10-27T11:29:31.000Z</time>
      </trkpt>
      <trkpt lat="37.67515850253403186798095703125" lon="-2.08531164564192295074462890625">
        <ele>985</ele>
        <time>2019-10-27T11:29:33.000Z</time>
      </trkpt>
      <trkpt lat="37.67488491721451282501220703125" lon="-2.08524190820753574371337890625">
        <ele>982.5999755859375</ele>
        <time>2019-10-27T11:29:35.000Z</time>
      </trkpt>
      <trkpt lat="37.6745949871838092803955078125" lon="-2.08521441556513309478759765625">
        <ele>978.79998779296875</ele>
        <time>2019-10-27T11:29:37.000Z</time>
      </trkpt>
      <trkpt lat="37.6743039675056934356689453125" lon="-2.0851816423237323760986328125">
        <ele>975.79998779296875</ele>
        <time>2019-10-27T11:29:39.000Z</time>
      </trkpt>
      <trkpt lat="37.67415870912373065948486328125" lon="-2.0851494558155536651611328125">
        <ele>974.5999755859375</ele>
        <time>2019-10-27T11:29:40.000Z</time>
      </trkpt>
      <trkpt lat="37.67387858591973781585693359375" lon="-2.08503621630370616912841796875">
        <ele>973.20001220703125</ele>
        <time>2019-10-27T11:29:42.000Z</time>
      </trkpt>
      <trkpt lat="37.67360969446599483489990234375" lon="-2.08487763069570064544677734375">
        <ele>972.20001220703125</ele>
        <time>2019-10-27T11:29:44.000Z</time>
      </trkpt>
      <trkpt lat="37.673343233764171600341796875" lon="-2.0847028680145740509033203125">
        <ele>970</ele>
        <time>2019-10-27T11:29:46.000Z</time>
      </trkpt>
      <trkpt lat="37.67307861708104610443115234375" lon="-2.084515951573848724365234375">
        <ele>967.5999755859375</ele>
        <time>2019-10-27T11:29:48.000Z</time>
      </trkpt>
      <trkpt lat="37.6728098094463348388671875" lon="-2.0843317173421382904052734375">
        <ele>963.79998779296875</ele>
        <time>2019-10-27T11:29:50.000Z</time>
      </trkpt>
      <trkpt lat="37.672676034271717071533203125" lon="-2.08423758856952190399169921875">
        <ele>962</ele>
        <time>2019-10-27T11:29:51.000Z</time>
      </trkpt>
      <trkpt lat="37.672406472265720367431640625" lon="-2.08405083976686000823974609375">
        <ele>960</ele>
        <time>2019-10-27T11:29:53.000Z</time>
      </trkpt>
      <trkpt lat="37.6721365749835968017578125" lon="-2.083868198096752166748046875">
        <ele>957</ele>
        <time>2019-10-27T11:29:55.000Z</time>
      </trkpt>
      <trkpt lat="37.6718634925782680511474609375" lon="-2.08369846455752849578857421875">
        <ele>953.4000244140625</ele>
        <time>2019-10-27T11:29:57.000Z</time>
      </trkpt>
      <trkpt lat="37.6715840399265289306640625" lon="-2.0835424773395061492919921875">
        <ele>950.4000244140625</ele>
        <time>2019-10-27T11:29:59.000Z</time>
      </trkpt>
      <trkpt lat="37.6713050901889801025390625" lon="-2.08338799886405467987060546875">
        <ele>947.4000244140625</ele>
        <time>2019-10-27T11:30:01.000Z</time>
      </trkpt>
      <trkpt lat="37.67102840356528759002685546875" lon="-2.083225809037685394287109375">
        <ele>947</ele>
        <time>2019-10-27T11:30:03.000Z</time>
      </trkpt>
      <trkpt lat="37.67074425704777240753173828125" lon="-2.08306814543902873992919921875">
        <ele>946</ele>
        <time>2019-10-27T11:30:05.000Z</time>
      </trkpt>
      <trkpt lat="37.67046564258635044097900390625" lon="-2.0828876830637454986572265625">
        <ele>943.4000244140625</ele>
        <time>2019-10-27T11:30:07.000Z</time>
      </trkpt>
      <trkpt lat="37.67020144499838352203369140625" lon="-2.0826784707605838775634765625">
        <ele>939.79998779296875</ele>
        <time>2019-10-27T11:30:09.000Z</time>
      </trkpt>
      <trkpt lat="37.66995803453028202056884765625" lon="-2.082433216273784637451171875">
        <ele>936.79998779296875</ele>
        <time>2019-10-27T11:30:11.000Z</time>
      </trkpt>
      <trkpt lat="37.66973666846752166748046875" lon="-2.08216021768748760223388671875">
        <ele>933.20001220703125</ele>
        <time>2019-10-27T11:30:13.000Z</time>
      </trkpt>
      <trkpt lat="37.66963767819106578826904296875" lon="-2.0820119418203830718994140625">
        <ele>931</ele>
        <time>2019-10-27T11:30:14.000Z</time>
      </trkpt>
      <trkpt lat="37.6694689504802227020263671875" lon="-2.0816860534250736236572265625">
        <ele>926.79998779296875</ele>
        <time>2019-10-27T11:30:16.000Z</time>
      </trkpt>
      <trkpt lat="37.66931329853832721710205078125" lon="-2.08134683780372142791748046875">
        <ele>923.79998779296875</ele>
        <time>2019-10-27T11:30:18.000Z</time>
      </trkpt>
      <trkpt lat="37.66915722750127315521240234375" lon="-2.08100996911525726318359375">
        <ele>922.4000244140625</ele>
        <time>2019-10-27T11:30:20.000Z</time>
      </trkpt>
      <trkpt lat="37.668983638286590576171875" lon="-2.080686427652835845947265625">
        <ele>920.20001220703125</ele>
        <time>2019-10-27T11:30:22.000Z</time>
      </trkpt>
      <trkpt lat="37.66888464801013469696044921875" lon="-2.0805370621383190155029296875">
        <ele>918.5999755859375</ele>
        <time>2019-10-27T11:30:23.000Z</time>
      </trkpt>
      <trkpt lat="37.66865766607224941253662109375" lon="-2.08027747459709644317626953125">
        <ele>917</ele>
        <time>2019-10-27T11:30:25.000Z</time>
      </trkpt>
      <trkpt lat="37.66840453259646892547607421875" lon="-2.080072201788425445556640625">
        <ele>914.20001220703125</ele>
        <time>2019-10-27T11:30:27.000Z</time>
      </trkpt>
      <trkpt lat="37.66813832335174083709716796875" lon="-2.07992593757808208465576171875">
        <ele>912</ele>
        <time>2019-10-27T11:30:29.000Z</time>
      </trkpt>
      <trkpt lat="37.6680024527013301849365234375" lon="-2.07987137138843536376953125">
        <ele>911.4000244140625</ele>
        <time>2019-10-27T11:30:30.000Z</time>
      </trkpt>
      <trkpt lat="37.6677406020462512969970703125" lon="-2.07975997589528560638427734375">
        <ele>910.79998779296875</ele>
        <time>2019-10-27T11:30:32.000Z</time>
      </trkpt>
      <trkpt lat="37.66749995760619640350341796875" lon="-2.07962821237742900848388671875">
        <ele>911</ele>
        <time>2019-10-27T11:30:34.000Z</time>
      </trkpt>
      <trkpt lat="37.6672832854092121124267578125" lon="-2.07946501672267913818359375">
        <ele>910.5999755859375</ele>
        <time>2019-10-27T11:30:36.000Z</time>
      </trkpt>
      <trkpt lat="37.667185552418231964111328125" lon="-2.07937457598745822906494140625">
        <ele>910.79998779296875</ele>
        <time>2019-10-27T11:30:37.000Z</time>
      </trkpt>
      <trkpt lat="37.6670073531568050384521484375" lon="-2.0791842229664325714111328125">
        <ele>909</ele>
        <time>2019-10-27T11:30:39.000Z</time>
      </trkpt>
      <trkpt lat="37.666835524141788482666015625" lon="-2.07899705506861209869384765625">
        <ele>906.79998779296875</ele>
        <time>2019-10-27T11:30:41.000Z</time>
      </trkpt>
      <trkpt lat="37.66667048446834087371826171875" lon="-2.0788164250552654266357421875">
        <ele>905.4000244140625</ele>
        <time>2019-10-27T11:30:43.000Z</time>
      </trkpt>
      <trkpt lat="37.66651122830808162689208984375" lon="-2.07863931544125080108642578125">
        <ele>906.20001220703125</ele>
        <time>2019-10-27T11:30:45.000Z</time>
      </trkpt>
      <trkpt lat="37.66635683365166187286376953125" lon="-2.078470252454280853271484375">
        <ele>906.5999755859375</ele>
        <time>2019-10-27T11:30:47.000Z</time>
      </trkpt>
      <trkpt lat="37.66620193608105182647705078125" lon="-2.0783074758946895599365234375">
        <ele>908.5999755859375</ele>
        <time>2019-10-27T11:30:49.000Z</time>
      </trkpt>
      <trkpt lat="37.66605156473815441131591796875" lon="-2.07814595662057399749755859375">
        <ele>909</ele>
        <time>2019-10-27T11:30:51.000Z</time>
      </trkpt>
      <trkpt lat="37.6659032888710498809814453125" lon="-2.07799005322158336639404296875">
        <ele>908</ele>
        <time>2019-10-27T11:30:53.000Z</time>
      </trkpt>
      <trkpt lat="37.66582324169576168060302734375" lon="-2.07792065106332302093505859375">
        <ele>907.79998779296875</ele>
        <time>2019-10-27T11:30:54.000Z</time>
      </trkpt>
      <trkpt lat="37.66564873047173023223876953125" lon="-2.0778109319508075714111328125">
        <ele>907.4000244140625</ele>
        <time>2019-10-27T11:30:56.000Z</time>
      </trkpt>
      <trkpt lat="37.66555535607039928436279296875" lon="-2.07776927389204502105712890625">
        <ele>906.79998779296875</ele>
        <time>2019-10-27T11:30:57.000Z</time>
      </trkpt>
      <trkpt lat="37.66536290757358074188232421875" lon="-2.07771143876016139984130859375">
        <ele>906</ele>
        <time>2019-10-27T11:30:59.000Z</time>
      </trkpt>
      <trkpt lat="37.66526483930647373199462890625" lon="-2.077697105705738067626953125">
        <ele>905.20001220703125</ele>
        <time>2019-10-27T11:31:00.000Z</time>
      </trkpt>
      <trkpt lat="37.665061242878437042236328125" lon="-2.07769752480089664459228515625">
        <ele>902.79998779296875</ele>
        <time>2019-10-27T11:31:02.000Z</time>
      </trkpt>
      <trkpt lat="37.66485898755490779876708984375" lon="-2.07773742265999317169189453125">
        <ele>901.20001220703125</ele>
        <time>2019-10-27T11:31:04.000Z</time>
      </trkpt>
      <trkpt lat="37.66466184519231319427490234375" lon="-2.0778173021972179412841796875">
        <ele>900.20001220703125</ele>
        <time>2019-10-27T11:31:06.000Z</time>
      </trkpt>
      <trkpt lat="37.66447744332253932952880859375" lon="-2.0779349841177463531494140625">
        <ele>900.20001220703125</ele>
        <time>2019-10-27T11:31:08.000Z</time>
      </trkpt>
      <trkpt lat="37.66430511139333248138427734375" lon="-2.07809784449636936187744140625">
        <ele>899.5999755859375</ele>
        <time>2019-10-27T11:31:10.000Z</time>
      </trkpt>
      <trkpt lat="37.664224393665790557861328125" lon="-2.07819054834544658660888671875">
        <ele>899.20001220703125</ele>
        <time>2019-10-27T11:31:11.000Z</time>
      </trkpt>
      <trkpt lat="37.66407947055995464324951171875" lon="-2.07839389331638813018798828125">
        <ele>898.5999755859375</ele>
        <time>2019-10-27T11:31:13.000Z</time>
      </trkpt>
      <trkpt lat="37.66396212391555309295654296875" lon="-2.0786239765584468841552734375">
        <ele>898.4000244140625</ele>
        <time>2019-10-27T11:31:15.000Z</time>
      </trkpt>
      <trkpt lat="37.66386841423809528350830078125" lon="-2.07888205535709857940673828125">
        <ele>897.5999755859375</ele>
        <time>2019-10-27T11:31:17.000Z</time>
      </trkpt>
      <trkpt lat="37.66378794796764850616455078125" lon="-2.0791470073163509368896484375">
        <ele>896.4000244140625</ele>
        <time>2019-10-27T11:31:19.000Z</time>
      </trkpt>
      <trkpt lat="37.6637079007923603057861328125" lon="-2.079413048923015594482421875">
        <ele>894.79998779296875</ele>
        <time>2019-10-27T11:31:21.000Z</time>
      </trkpt>
      <trkpt lat="37.66361653804779052734375" lon="-2.0796681940555572509765625">
        <ele>893.79998779296875</ele>
        <time>2019-10-27T11:31:23.000Z</time>
      </trkpt>
      <trkpt lat="37.663511931896209716796875" lon="-2.0799214951694011688232421875">
        <ele>892.20001220703125</ele>
        <time>2019-10-27T11:31:25.000Z</time>
      </trkpt>
      <trkpt lat="37.6633934117853641510009765625" lon="-2.08016566000878810882568359375">
        <ele>891.79998779296875</ele>
        <time>2019-10-27T11:31:27.000Z</time>
      </trkpt>
      <trkpt lat="37.66325351782143115997314453125" lon="-2.0803972519934177398681640625">
        <ele>891.20001220703125</ele>
        <time>2019-10-27T11:31:29.000Z</time>
      </trkpt>
      <trkpt lat="37.66310130245983600616455078125" lon="-2.080611325800418853759765625">
        <ele>890.79998779296875</ele>
        <time>2019-10-27T11:31:31.000Z</time>
      </trkpt>
      <trkpt lat="37.66293701715767383575439453125" lon="-2.08080871962010860443115234375">
        <ele>890</ele>
        <time>2019-10-27T11:31:33.000Z</time>
      </trkpt>
      <trkpt lat="37.66276015900075435638427734375" lon="-2.08099429495632648468017578125">
        <ele>888.79998779296875</ele>
        <time>2019-10-27T11:31:35.000Z</time>
      </trkpt>
      <trkpt lat="37.66257072798907756805419921875" lon="-2.08116645924746990203857421875">
        <ele>886.79998779296875</ele>
        <time>2019-10-27T11:31:37.000Z</time>
      </trkpt>
      <trkpt lat="37.66236671246588230133056640625" lon="-2.08132454194128513336181640625">
        <ele>885.5999755859375</ele>
        <time>2019-10-27T11:31:39.000Z</time>
      </trkpt>
      <trkpt lat="37.66214911825954914093017578125" lon="-2.0814630948007106781005859375">
        <ele>884.20001220703125</ele>
        <time>2019-10-27T11:31:41.000Z</time>
      </trkpt>
      <trkpt lat="37.66191710717976093292236328125" lon="-2.0815848000347614288330078125">
        <ele>882.20001220703125</ele>
        <time>2019-10-27T11:31:43.000Z</time>
      </trkpt>
      <trkpt lat="37.6616680808365345001220703125" lon="-2.081684209406375885009765625">
        <ele>880</ele>
        <time>2019-10-27T11:31:45.000Z</time>
      </trkpt>
      <trkpt lat="37.661407403647899627685546875" lon="-2.08175688050687313079833984375">
        <ele>877.5999755859375</ele>
        <time>2019-10-27T11:31:47.000Z</time>
      </trkpt>
      <trkpt lat="37.661135829985141754150390625" lon="-2.08180214278399944305419921875">
        <ele>876</ele>
        <time>2019-10-27T11:31:49.000Z</time>
      </trkpt>
      <trkpt lat="37.66085294075310230255126953125" lon="-2.081817649304866790771484375">
        <ele>874</ele>
        <time>2019-10-27T11:31:51.000Z</time>
      </trkpt>
      <trkpt lat="37.66056711785495281219482421875" lon="-2.08180717192590236663818359375">
        <ele>872</ele>
        <time>2019-10-27T11:31:53.000Z</time>
      </trkpt>
      <trkpt lat="37.66027945093810558319091796875" lon="-2.081763334572315216064453125">
        <ele>870</ele>
        <time>2019-10-27T11:31:55.000Z</time>
      </trkpt>
      <trkpt lat="37.659996561706066131591796875" lon="-2.08167926408350467681884765625">
        <ele>867.79998779296875</ele>
        <time>2019-10-27T11:31:57.000Z</time>
      </trkpt>
      <trkpt lat="37.65972155146300792694091796875" lon="-2.0815556310117244720458984375">
        <ele>866.5999755859375</ele>
        <time>2019-10-27T11:31:59.000Z</time>
      </trkpt>
      <trkpt lat="37.65945886261761188507080078125" lon="-2.08139897324144840240478515625">
        <ele>865.20001220703125</ele>
        <time>2019-10-27T11:32:01.000Z</time>
      </trkpt>
      <trkpt lat="37.65920924954116344451904296875" lon="-2.08120920695364475250244140625">
        <ele>863.20001220703125</ele>
        <time>2019-10-27T11:32:03.000Z</time>
      </trkpt>
      <trkpt lat="37.658965252339839935302734375" lon="-2.080994211137294769287109375">
        <ele>860.4000244140625</ele>
        <time>2019-10-27T11:32:05.000Z</time>
      </trkpt>
      <trkpt lat="37.658733911812305450439453125" lon="-2.08076999522745609283447265625">
        <ele>858.5999755859375</ele>
        <time>2019-10-27T11:32:07.000Z</time>
      </trkpt>
      <trkpt lat="37.6585010625422000885009765625" lon="-2.08054988645017147064208984375">
        <ele>857</ele>
        <time>2019-10-27T11:32:09.000Z</time>
      </trkpt>
      <trkpt lat="37.65827332623302936553955078125" lon="-2.080329358577728271484375">
        <ele>855.5999755859375</ele>
        <time>2019-10-27T11:32:11.000Z</time>
      </trkpt>
      <trkpt lat="37.65804131515324115753173828125" lon="-2.08011142909526824951171875">
        <ele>854.79998779296875</ele>
        <time>2019-10-27T11:32:13.000Z</time>
      </trkpt>
      <trkpt lat="37.6578055322170257568359375" lon="-2.0799087546765804290771484375">
        <ele>852.79998779296875</ele>
        <time>2019-10-27T11:32:15.000Z</time>
      </trkpt>
      <trkpt lat="37.65756052918732166290283203125" lon="-2.0797313936054706573486328125">
        <ele>850.20001220703125</ele>
        <time>2019-10-27T11:32:17.000Z</time>
      </trkpt>
      <trkpt lat="37.6573026180267333984375" lon="-2.07958496175706386566162109375">
        <ele>848.4000244140625</ele>
        <time>2019-10-27T11:32:19.000Z</time>
      </trkpt>
      <trkpt lat="37.6570384204387664794921875" lon="-2.0794574730098247528076171875">
        <ele>847.79998779296875</ele>
        <time>2019-10-27T11:32:21.000Z</time>
      </trkpt>
      <trkpt lat="37.65677782706916332244873046875" lon="-2.07935730926692485809326171875">
        <ele>845.5999755859375</ele>
        <time>2019-10-27T11:32:23.000Z</time>
      </trkpt>
      <trkpt lat="37.65653550624847412109375" lon="-2.0792700536549091339111328125">
        <ele>844.4000244140625</ele>
        <time>2019-10-27T11:32:25.000Z</time>
      </trkpt>
      <trkpt lat="37.6563190855085849761962890625" lon="-2.0791939459741115570068359375">
        <ele>844</ele>
        <time>2019-10-27T11:32:27.000Z</time>
      </trkpt>
      <trkpt lat="37.6561296544969081878662109375" lon="-2.07913368009030818939208984375">
        <ele>843.4000244140625</ele>
        <time>2019-10-27T11:32:29.000Z</time>
      </trkpt>
      <trkpt lat="37.65587878413498401641845703125" lon="-2.0790360309183597564697265625">
        <ele>843</ele>
        <time>2019-10-27T11:32:32.000Z</time>
      </trkpt>
      <trkpt lat="37.65562514774501323699951171875" lon="-2.07893586717545986175537109375">
        <ele>842</ele>
        <time>2019-10-27T11:32:35.000Z</time>
      </trkpt>
      <trkpt lat="37.6553709246218204498291015625" lon="-2.078839726746082305908203125">
        <ele>841.20001220703125</ele>
        <time>2019-10-27T11:32:38.000Z</time>
      </trkpt>
      <trkpt lat="37.65511594712734222412109375" lon="-2.0787446759641170501708984375">
        <ele>841</ele>
        <time>2019-10-27T11:32:41.000Z</time>
      </trkpt>
      <trkpt lat="37.65485719777643680572509765625" lon="-2.0786518044769763946533203125">
        <ele>839.4000244140625</ele>
        <time>2019-10-27T11:32:44.000Z</time>
      </trkpt>
      <trkpt lat="37.654601968824863433837890625" lon="-2.07855314947664737701416015625">
        <ele>838.20001220703125</ele>
        <time>2019-10-27T11:32:47.000Z</time>
      </trkpt>
      <trkpt lat="37.6543614082038402557373046875" lon="-2.07845650613307952880859375">
        <ele>837.5999755859375</ele>
        <time>2019-10-27T11:32:50.000Z</time>
      </trkpt>
      <trkpt lat="37.65417658723890781402587890625" lon="-2.07838467322289943695068359375">
        <ele>836.79998779296875</ele>
        <time>2019-10-27T11:32:53.000Z</time>
      </trkpt>
      <trkpt lat="37.6541247032582759857177734375" lon="-2.07837629131972789764404296875">
        <ele>836.5999755859375</ele>
        <time>2019-10-27T11:32:54.000Z</time>
      </trkpt>
      <trkpt lat="37.65405018813908100128173828125" lon="-2.07853688858449459075927734375">
        <ele>836.20001220703125</ele>
        <time>2019-10-27T11:32:58.000Z</time>
      </trkpt>
      <trkpt lat="37.65402889810502529144287109375" lon="-2.0786256529390811920166015625">
        <ele>835.79998779296875</ele>
        <time>2019-10-27T11:33:00.000Z</time>
      </trkpt>
      <trkpt lat="37.65400174073874950408935546875" lon="-2.07871005870401859283447265625">
        <ele>835.4000244140625</ele>
        <time>2019-10-27T11:33:02.000Z</time>
      </trkpt>
      <trkpt lat="37.65397324226796627044677734375" lon="-2.0787922851741313934326171875">
        <ele>835</ele>
        <time>2019-10-27T11:33:04.000Z</time>
      </trkpt>
      <trkpt lat="37.65394474379718303680419921875" lon="-2.07891792990267276763916015625">
        <ele>835</ele>
        <time>2019-10-27T11:33:07.000Z</time>
      </trkpt>
      <trkpt lat="37.65380711294710636138916015625" lon="-2.07895715720951557159423828125">
        <ele>835.4000244140625</ele>
        <time>2019-10-27T11:33:12.000Z</time>
      </trkpt>
      <trkpt lat="37.6536328531801700592041015625" lon="-2.07888968288898468017578125">
        <ele>835.4000244140625</ele>
        <time>2019-10-27T11:33:16.000Z</time>
      </trkpt>
      <trkpt lat="37.65359270386397838592529296875" lon="-2.07887501455843448638916015625">
        <ele>835.4000244140625</ele>
        <time>2019-10-27T11:33:17.000Z</time>
      </trkpt>
      <trkpt lat="37.6534095592796802520751953125" lon="-2.07883092574775218963623046875">
        <ele>835.20001220703125</ele>
        <time>2019-10-27T11:33:23.000Z</time>
      </trkpt>
      <trkpt lat="37.65336873941123485565185546875" lon="-2.07881751470267772674560546875">
        <ele>835.20001220703125</ele>
        <time>2019-10-27T11:33:24.000Z</time>
      </trkpt>
      <trkpt lat="37.653189115226268768310546875" lon="-2.07874660380184650421142578125">
        <ele>835</ele>
        <time>2019-10-27T11:33:28.000Z</time>
      </trkpt>
      <trkpt lat="37.65299121849238872528076171875" lon="-2.0786903612315654754638671875">
        <ele>834.79998779296875</ele>
        <time>2019-10-27T11:33:32.000Z</time>
      </trkpt>
      <trkpt lat="37.6527825929224491119384765625" lon="-2.0786152593791484832763671875">
        <ele>834.79998779296875</ele>
        <time>2019-10-27T11:33:36.000Z</time>
      </trkpt>
      <trkpt lat="37.6525805890560150146484375" lon="-2.07856723107397556304931640625">
        <ele>835.20001220703125</ele>
        <time>2019-10-27T11:33:40.000Z</time>
      </trkpt>
      <trkpt lat="37.65240532346069812774658203125" lon="-2.07850805483758449554443359375">
        <ele>835</ele>
        <time>2019-10-27T11:33:44.000Z</time>
      </trkpt>
      <trkpt lat="37.6523244380950927734375" lon="-2.07865607924759387969970703125">
        <ele>835.5999755859375</ele>
        <time>2019-10-27T11:33:49.000Z</time>
      </trkpt>
      <trkpt lat="37.652285881340503692626953125" lon="-2.07887652330100536346435546875">
        <ele>836.4000244140625</ele>
        <time>2019-10-27T11:33:54.000Z</time>
      </trkpt>
      <trkpt lat="37.65226878225803375244140625" lon="-2.078953050076961517333984375">
        <ele>836.5999755859375</ele>
        <time>2019-10-27T11:33:56.000Z</time>
      </trkpt>
      <trkpt lat="37.65208966098725795745849609375" lon="-2.078982889652252197265625">
        <ele>836.20001220703125</ele>
        <time>2019-10-27T11:34:03.000Z</time>
      </trkpt>
      <trkpt lat="37.6520614139735698699951171875" lon="-2.07896805368363857269287109375">
        <ele>836</ele>
        <time>2019-10-27T11:34:04.000Z</time>
      </trkpt>
      <trkpt lat="37.65191347338259220123291015625" lon="-2.07902035675942897796630859375">
        <ele>835.5999755859375</ele>
        <time>2019-10-27T11:34:10.000Z</time>
      </trkpt>
      <trkpt lat="37.6518783532083034515380859375" lon="-2.0791600830852985382080078125">
        <ele>836</ele>
        <time>2019-10-27T11:34:13.000Z</time>
      </trkpt>
      <trkpt lat="37.651829905807971954345703125" lon="-2.0793833769857883453369140625">
        <ele>836.5999755859375</ele>
        <time>2019-10-27T11:34:18.000Z</time>
      </trkpt>
      <trkpt lat="37.6517891697585582733154296875" lon="-2.0796090178191661834716796875">
        <ele>837.5999755859375</ele>
        <time>2019-10-27T11:34:23.000Z</time>
      </trkpt>
      <trkpt lat="37.6517435722053050994873046875" lon="-2.07984027452766895294189453125">
        <ele>839</ele>
        <time>2019-10-27T11:34:28.000Z</time>
      </trkpt>
      <trkpt lat="37.65169638209044933319091796875" lon="-2.080095000565052032470703125">
        <ele>840.4000244140625</ele>
        <time>2019-10-27T11:34:34.000Z</time>
      </trkpt>
      <trkpt lat="37.65163603238761425018310546875" lon="-2.0802872814238071441650390625">
        <ele>842</ele>
        <time>2019-10-27T11:34:39.000Z</time>
      </trkpt>
      <trkpt lat="37.6515514589846134185791015625" lon="-2.08051887340843677520751953125">
        <ele>843</ele>
        <time>2019-10-27T11:34:45.000Z</time>
      </trkpt>
      <trkpt lat="37.651416175067424774169921875" lon="-2.0807217992842197418212890625">
        <ele>843</ele>
        <time>2019-10-27T11:34:51.000Z</time>
      </trkpt>
      <trkpt lat="37.6513623632490634918212890625" lon="-2.0807834900915622711181640625">
        <ele>843</ele>
        <time>2019-10-27T11:34:53.000Z</time>
      </trkpt>
      <trkpt lat="37.65121626667678356170654296875" lon="-2.0809610188007354736328125">
        <ele>843</ele>
        <time>2019-10-27T11:34:59.000Z</time>
      </trkpt>
      <trkpt lat="37.65105868689715862274169921875" lon="-2.08112932741641998291015625">
        <ele>843.79998779296875</ele>
        <time>2019-10-27T11:35:05.000Z</time>
      </trkpt>
      <trkpt lat="37.6509083993732929229736328125" lon="-2.08128112368285655975341796875">
        <ele>844.79998779296875</ele>
        <time>2019-10-27T11:35:11.000Z</time>
      </trkpt>
      <trkpt lat="37.65074118040502071380615234375" lon="-2.08144037984311580657958984375">
        <ele>845</ele>
        <time>2019-10-27T11:35:17.000Z</time>
      </trkpt>
      <trkpt lat="37.65058343298733234405517578125" lon="-2.08161874674260616302490234375">
        <ele>844.79998779296875</ele>
        <time>2019-10-27T11:35:22.000Z</time>
      </trkpt>
      <trkpt lat="37.65043457038700580596923828125" lon="-2.08176827989518642425537109375">
        <ele>844.20001220703125</ele>
        <time>2019-10-27T11:35:26.000Z</time>
      </trkpt>
      <trkpt lat="37.650272548198699951171875" lon="-2.0819132030010223388671875">
        <ele>843.79998779296875</ele>
        <time>2019-10-27T11:35:30.000Z</time>
      </trkpt>
      <trkpt lat="37.65009778551757335662841796875" lon="-2.0820608921349048614501953125">
        <ele>844</ele>
        <time>2019-10-27T11:35:34.000Z</time>
      </trkpt>
      <trkpt lat="37.6499166525900363922119140625" lon="-2.0822191424667835235595703125">
        <ele>843.20001220703125</ele>
        <time>2019-10-27T11:35:38.000Z</time>
      </trkpt>
      <trkpt lat="37.6497537083923816680908203125" lon="-2.08235769532620906829833984375">
        <ele>842</ele>
        <time>2019-10-27T11:35:42.000Z</time>
      </trkpt>
      <trkpt lat="37.64959587715566158294677734375" lon="-2.08247604779899120330810546875">
        <ele>841.5999755859375</ele>
        <time>2019-10-27T11:35:46.000Z</time>
      </trkpt>
      <trkpt lat="37.64956109225749969482421875" lon="-2.08250588737428188323974609375">
        <ele>841.5999755859375</ele>
        <time>2019-10-27T11:35:47.000Z</time>
      </trkpt>
      <trkpt lat="37.64939169399440288543701171875" lon="-2.08264519460499286651611328125">
        <ele>841.4000244140625</ele>
        <time>2019-10-27T11:35:52.000Z</time>
      </trkpt>
      <trkpt lat="37.6492048613727092742919921875" lon="-2.0827663131058216094970703125">
        <ele>842.4000244140625</ele>
        <time>2019-10-27T11:35:57.000Z</time>
      </trkpt>
      <trkpt lat="37.64903512783348560333251953125" lon="-2.08289715461432933807373046875">
        <ele>843.4000244140625</ele>
        <time>2019-10-27T11:36:02.000Z</time>
      </trkpt>
      <trkpt lat="37.64893471263349056243896484375" lon="-2.08297829143702983856201171875">
        <ele>844.20001220703125</ele>
        <time>2019-10-27T11:36:05.000Z</time>
      </trkpt>
      <trkpt lat="37.6488025300204753875732421875" lon="-2.08310016430914402008056640625">
        <ele>845</ele>
        <time>2019-10-27T11:36:09.000Z</time>
      </trkpt>
      <trkpt lat="37.64865182340145111083984375" lon="-2.0832437463104724884033203125">
        <ele>846</ele>
        <time>2019-10-27T11:36:14.000Z</time>
      </trkpt>
      <trkpt lat="37.6485255919396877288818359375" lon="-2.08336134441196918487548828125">
        <ele>846.5999755859375</ele>
        <time>2019-10-27T11:36:18.000Z</time>
      </trkpt>
      <trkpt lat="37.6484146155416965484619140625" lon="-2.0835796929895877838134765625">
        <ele>847.4000244140625</ele>
        <time>2019-10-27T11:36:23.000Z</time>
      </trkpt>
      <trkpt lat="37.648361138999462127685546875" lon="-2.08365454338490962982177734375">
        <ele>847.4000244140625</ele>
        <time>2019-10-27T11:36:25.000Z</time>
      </trkpt>
      <trkpt lat="37.6483307965099811553955078125" lon="-2.08368815481662750244140625">
        <ele>847.4000244140625</ele>
        <time>2019-10-27T11:36:26.000Z</time>
      </trkpt>
      <trkpt lat="37.64819760806858539581298828125" lon="-2.0838995464146137237548828125">
        <ele>847.20001220703125</ele>
        <time>2019-10-27T11:36:31.000Z</time>
      </trkpt>
      <trkpt lat="37.648108005523681640625" lon="-2.0841067470610141754150390625">
        <ele>847.20001220703125</ele>
        <time>2019-10-27T11:36:35.000Z</time>
      </trkpt>
      <trkpt lat="37.64801605604588985443115234375" lon="-2.0843649096786975860595703125">
        <ele>847.20001220703125</ele>
        <time>2019-10-27T11:36:40.000Z</time>
      </trkpt>
      <trkpt lat="37.647946737706661224365234375" lon="-2.08457739092409610748291015625">
        <ele>848.20001220703125</ele>
        <time>2019-10-27T11:36:44.000Z</time>
      </trkpt>
      <trkpt lat="37.647883705794811248779296875" lon="-2.08481007255613803863525390625">
        <ele>849.20001220703125</ele>
        <time>2019-10-27T11:36:48.000Z</time>
      </trkpt>
      <trkpt lat="37.64780466444790363311767578125" lon="-2.08504476584494113922119140625">
        <ele>850</ele>
        <time>2019-10-27T11:36:52.000Z</time>
      </trkpt>
      <trkpt lat="37.64772788621485233306884765625" lon="-2.08529387600719928741455078125">
        <ele>849.5999755859375</ele>
        <time>2019-10-27T11:36:56.000Z</time>
      </trkpt>
      <trkpt lat="37.64763987623155117034912109375" lon="-2.08554022014141082763671875">
        <ele>848.4000244140625</ele>
        <time>2019-10-27T11:37:00.000Z</time>
      </trkpt>
      <trkpt lat="37.6475522853434085845947265625" lon="-2.085788659751415252685546875">
        <ele>847.79998779296875</ele>
        <time>2019-10-27T11:37:04.000Z</time>
      </trkpt>
      <trkpt lat="37.6474667899310588836669921875" lon="-2.08604338578879833221435546875">
        <ele>848.20001220703125</ele>
        <time>2019-10-27T11:37:08.000Z</time>
      </trkpt>
      <trkpt lat="37.64737752266228199005126953125" lon="-2.08628981374204158782958984375">
        <ele>847.79998779296875</ele>
        <time>2019-10-27T11:37:12.000Z</time>
      </trkpt>
      <trkpt lat="37.6472934521734714508056640625" lon="-2.08654479123651981353759765625">
        <ele>848.20001220703125</ele>
        <time>2019-10-27T11:37:16.000Z</time>
      </trkpt>
      <trkpt lat="37.64720879495143890380859375" lon="-2.0867983438074588775634765625">
        <ele>847.4000244140625</ele>
        <time>2019-10-27T11:37:20.000Z</time>
      </trkpt>
      <trkpt lat="37.6471288315951824188232421875" lon="-2.087045274674892425537109375">
        <ele>847.79998779296875</ele>
        <time>2019-10-27T11:37:24.000Z</time>
      </trkpt>
      <trkpt lat="37.6470523886382579803466796875" lon="-2.087292373180389404296875">
        <ele>848.20001220703125</ele>
        <time>2019-10-27T11:37:28.000Z</time>
      </trkpt>
      <trkpt lat="37.646985836327075958251953125" lon="-2.08754525519907474517822265625">
        <ele>848.5999755859375</ele>
        <time>2019-10-27T11:37:32.000Z</time>
      </trkpt>
      <trkpt lat="37.6469199545681476593017578125" lon="-2.08778933621942996978759765625">
        <ele>848.79998779296875</ele>
        <time>2019-10-27T11:37:36.000Z</time>
      </trkpt>
      <trkpt lat="37.6468629576265811920166015625" lon="-2.08801581524312496185302734375">
        <ele>849</ele>
        <time>2019-10-27T11:37:40.000Z</time>
      </trkpt>
      <trkpt lat="37.6468176953494548797607421875" lon="-2.08823743276298046112060546875">
        <ele>849.20001220703125</ele>
        <time>2019-10-27T11:37:44.000Z</time>
      </trkpt>
      <trkpt lat="37.6467724330723285675048828125" lon="-2.08849526010453701019287109375">
        <ele>849.5999755859375</ele>
        <time>2019-10-27T11:37:49.000Z</time>
      </trkpt>
      <trkpt lat="37.64672390185296535491943359375" lon="-2.08874856121838092803955078125">
        <ele>850</ele>
        <time>2019-10-27T11:37:54.000Z</time>
      </trkpt>
      <trkpt lat="37.6466809026896953582763671875" lon="-2.0889994315803050994873046875">
        <ele>850</ele>
        <time>2019-10-27T11:37:59.000Z</time>
      </trkpt>
      <trkpt lat="37.64663455076515674591064453125" lon="-2.08924208767712116241455078125">
        <ele>849.79998779296875</ele>
        <time>2019-10-27T11:38:04.000Z</time>
      </trkpt>
      <trkpt lat="37.6465830020606517791748046875" lon="-2.08948566578328609466552734375">
        <ele>850.5999755859375</ele>
        <time>2019-10-27T11:38:09.000Z</time>
      </trkpt>
      <trkpt lat="37.64652910642325878143310546875" lon="-2.089729495346546173095703125">
        <ele>852.20001220703125</ele>
        <time>2019-10-27T11:38:14.000Z</time>
      </trkpt>
      <trkpt lat="37.64651938341557979583740234375" lon="-2.0897792838513851165771484375">
        <ele>852.5999755859375</ele>
        <time>2019-10-27T11:38:15.000Z</time>
      </trkpt>
      <trkpt lat="37.64646314084529876708984375" lon="-2.09001020528376102447509765625">
        <ele>854.5999755859375</ele>
        <time>2019-10-27T11:38:20.000Z</time>
      </trkpt>
      <trkpt lat="37.64640002511441707611083984375" lon="-2.09024053998291492462158203125">
        <ele>856.5999755859375</ele>
        <time>2019-10-27T11:38:25.000Z</time>
      </trkpt>
      <trkpt lat="37.6463417708873748779296875" lon="-2.09042720496654510498046875">
        <ele>858.5999755859375</ele>
        <time>2019-10-27T11:38:29.000Z</time>
      </trkpt>
      <trkpt lat="37.6462728716433048248291015625" lon="-2.090656869113445281982421875">
        <ele>859</ele>
        <time>2019-10-27T11:38:34.000Z</time>
      </trkpt>
      <trkpt lat="37.6462027989327907562255859375" lon="-2.09089466370642185211181640625">
        <ele>859.20001220703125</ele>
        <time>2019-10-27T11:38:39.000Z</time>
      </trkpt>
      <trkpt lat="37.646130882203578948974609375" lon="-2.09112416021525859832763671875">
        <ele>858.79998779296875</ele>
        <time>2019-10-27T11:38:44.000Z</time>
      </trkpt>
      <trkpt lat="37.64606441371142864227294921875" lon="-2.091355584561824798583984375">
        <ele>858.5999755859375</ele>
        <time>2019-10-27T11:38:49.000Z</time>
      </trkpt>
      <trkpt lat="37.6459955982863903045654296875" lon="-2.09158482961356639862060546875">
        <ele>859.5999755859375</ele>
        <time>2019-10-27T11:38:54.000Z</time>
      </trkpt>
      <trkpt lat="37.64594002626836299896240234375" lon="-2.0918078720569610595703125">
        <ele>860.4000244140625</ele>
        <time>2019-10-27T11:38:59.000Z</time>
      </trkpt>
      <trkpt lat="37.6458799280226230621337890625" lon="-2.0920492708683013916015625">
        <ele>861.5999755859375</ele>
        <time>2019-10-27T11:39:05.000Z</time>
      </trkpt>
      <trkpt lat="37.64583609066903591156005859375" lon="-2.09228823892772197723388671875">
        <ele>862.5999755859375</ele>
        <time>2019-10-27T11:39:12.000Z</time>
      </trkpt>
      <trkpt lat="37.6458008028566837310791015625" lon="-2.09251438267529010772705078125">
        <ele>863.20001220703125</ele>
        <time>2019-10-27T11:39:19.000Z</time>
      </trkpt>
      <trkpt lat="37.64577892608940601348876953125" lon="-2.0927421189844608306884765625">
        <ele>863.5999755859375</ele>
        <time>2019-10-27T11:39:26.000Z</time>
      </trkpt>
      <trkpt lat="37.6457619108259677886962890625" lon="-2.09298410452902317047119140625">
        <ele>865</ele>
        <time>2019-10-27T11:39:33.000Z</time>
      </trkpt>
      <trkpt lat="37.64573819003999233245849609375" lon="-2.09321460686624050140380859375">
        <ele>865.5999755859375</ele>
        <time>2019-10-27T11:39:40.000Z</time>
      </trkpt>
      <trkpt lat="37.64572377316653728485107421875" lon="-2.0934555865824222564697265625">
        <ele>866.79998779296875</ele>
        <time>2019-10-27T11:39:47.000Z</time>
      </trkpt>
      <trkpt lat="37.64570181258022785186767578125" lon="-2.09369002841413021087646484375">
        <ele>867.4000244140625</ele>
        <time>2019-10-27T11:39:54.000Z</time>
      </trkpt>
      <trkpt lat="37.64566979371011257171630859375" lon="-2.0939276553690433502197265625">
        <ele>868</ele>
        <time>2019-10-27T11:40:01.000Z</time>
      </trkpt>
      <trkpt lat="37.64563836157321929931640625" lon="-2.094153799116611480712890625">
        <ele>868.5999755859375</ele>
        <time>2019-10-27T11:40:08.000Z</time>
      </trkpt>
      <trkpt lat="37.64559754170477390289306640625" lon="-2.09439528174698352813720703125">
        <ele>869</ele>
        <time>2019-10-27T11:40:15.000Z</time>
      </trkpt>
      <trkpt lat="37.6455423049628734588623046875" lon="-2.0946327410638332366943359375">
        <ele>869.20001220703125</ele>
        <time>2019-10-27T11:40:23.000Z</time>
      </trkpt>
      <trkpt lat="37.64554716646671295166015625" lon="-2.0946940965950489044189453125">
        <ele>868.79998779296875</ele>
        <time>2019-10-27T11:40:25.000Z</time>
      </trkpt>
      <trkpt lat="37.6456291414797306060791015625" lon="-2.09489635191857814788818359375">
        <ele>867.79998779296875</ele>
        <time>2019-10-27T11:40:33.000Z</time>
      </trkpt>
      <trkpt lat="37.64561480842530727386474609375" lon="-2.09499626420438289642333984375">
        <ele>867.5999755859375</ele>
        <time>2019-10-27T11:44:10.000Z</time>
      </trkpt>
      <trkpt lat="37.64550567604601383209228515625" lon="-2.09519910626113414764404296875">
        <ele>867.20001220703125</ele>
        <time>2019-10-27T11:44:16.000Z</time>
      </trkpt>
      <trkpt lat="37.6453300751745700836181640625" lon="-2.09525409154593944549560546875">
        <ele>867.5999755859375</ele>
        <time>2019-10-27T11:44:21.000Z</time>
      </trkpt>
      <trkpt lat="37.645168304443359375" lon="-2.095128111541271209716796875">
        <ele>868.5999755859375</ele>
        <time>2019-10-27T11:44:26.000Z</time>
      </trkpt>
      <trkpt lat="37.64509144239127635955810546875" lon="-2.09491194225847721099853515625">
        <ele>869.79998779296875</ele>
        <time>2019-10-27T11:44:31.000Z</time>
      </trkpt>
      <trkpt lat="37.64494509436190128326416015625" lon="-2.09477774798870086669921875">
        <ele>870.4000244140625</ele>
        <time>2019-10-27T11:44:36.000Z</time>
      </trkpt>
      <trkpt lat="37.6447498798370361328125" lon="-2.0946769975125789642333984375">
        <ele>871</ele>
        <time>2019-10-27T11:44:42.000Z</time>
      </trkpt>
      <trkpt lat="37.64456950128078460693359375" lon="-2.0945774205029010772705078125">
        <ele>870.79998779296875</ele>
        <time>2019-10-27T11:44:48.000Z</time>
      </trkpt>
      <trkpt lat="37.64436573721468448638916015625" lon="-2.0944781787693500518798828125">
        <ele>871.4000244140625</ele>
        <time>2019-10-27T11:44:54.000Z</time>
      </trkpt>
      <trkpt lat="37.64417521655559539794921875" lon="-2.094552777707576751708984375">
        <ele>872.20001220703125</ele>
        <time>2019-10-27T11:44:59.000Z</time>
      </trkpt>
      <trkpt lat="37.64405041001737117767333984375" lon="-2.0947440527379512786865234375">
        <ele>874</ele>
        <time>2019-10-27T11:45:04.000Z</time>
      </trkpt>
      <trkpt lat="37.64403297565877437591552734375" lon="-2.09500229917466640472412109375">
        <ele>875</ele>
        <time>2019-10-27T11:45:10.000Z</time>
      </trkpt>
      <trkpt lat="37.64399257488548755645751953125" lon="-2.0952395908534526824951171875">
        <ele>876.4000244140625</ele>
        <time>2019-10-27T11:45:16.000Z</time>
      </trkpt>
      <trkpt lat="37.6439373381435871124267578125" lon="-2.09546950645744800567626953125">
        <ele>877.5999755859375</ele>
        <time>2019-10-27T11:45:22.000Z</time>
      </trkpt>
      <trkpt lat="37.643867768347263336181640625" lon="-2.09571207873523235321044921875">
        <ele>877.4000244140625</ele>
        <time>2019-10-27T11:45:29.000Z</time>
      </trkpt>
      <trkpt lat="37.64378185383975505828857421875" lon="-2.095929421484470367431640625">
        <ele>877.20001220703125</ele>
        <time>2019-10-27T11:45:36.000Z</time>
      </trkpt>
      <trkpt lat="37.6437143795192241668701171875" lon="-2.09615397267043590545654296875">
        <ele>877.79998779296875</ele>
        <time>2019-10-27T11:45:43.000Z</time>
      </trkpt>
      <trkpt lat="37.64366249553859233856201171875" lon="-2.09637165069580078125">
        <ele>878.79998779296875</ele>
        <time>2019-10-27T11:45:49.000Z</time>
      </trkpt>
      <trkpt lat="37.64360834844410419464111328125" lon="-2.0966309867799282073974609375">
        <ele>879.4000244140625</ele>
        <time>2019-10-27T11:45:55.000Z</time>
      </trkpt>
      <trkpt lat="37.64355369843542575836181640625" lon="-2.09691471420228481292724609375">
        <ele>880</ele>
        <time>2019-10-27T11:46:00.000Z</time>
      </trkpt>
      <trkpt lat="37.643491588532924652099609375" lon="-2.09720506332814693450927734375">
        <ele>880</ele>
        <time>2019-10-27T11:46:04.000Z</time>
      </trkpt>
      <trkpt lat="37.64342998154461383819580078125" lon="-2.0974953286349773406982421875">
        <ele>880</ele>
        <time>2019-10-27T11:46:08.000Z</time>
      </trkpt>
      <trkpt lat="37.64336544089019298553466796875" lon="-2.09777654148638248443603515625">
        <ele>879.5999755859375</ele>
        <time>2019-10-27T11:46:12.000Z</time>
      </trkpt>
      <trkpt lat="37.64335043728351593017578125" lon="-2.097845859825611114501953125">
        <ele>879.4000244140625</ele>
        <time>2019-10-27T11:46:13.000Z</time>
      </trkpt>
      <trkpt lat="37.64328204095363616943359375" lon="-2.09812656976282596588134765625">
        <ele>878</ele>
        <time>2019-10-27T11:46:17.000Z</time>
      </trkpt>
      <trkpt lat="37.64322378672659397125244140625" lon="-2.09834718145430088043212890625">
        <ele>877.5999755859375</ele>
        <time>2019-10-27T11:46:20.000Z</time>
      </trkpt>
      <trkpt lat="37.64315606094896793365478515625" lon="-2.09857349283993244171142578125">
        <ele>877.5999755859375</ele>
        <time>2019-10-27T11:46:23.000Z</time>
      </trkpt>
      <trkpt lat="37.643089927732944488525390625" lon="-2.0988086052238941192626953125">
        <ele>876.79998779296875</ele>
        <time>2019-10-27T11:46:26.000Z</time>
      </trkpt>
      <trkpt lat="37.64301692135632038116455078125" lon="-2.09905344061553478240966796875">
        <ele>875</ele>
        <time>2019-10-27T11:46:29.000Z</time>
      </trkpt>
      <trkpt lat="37.64294047839939594268798828125" lon="-2.0993041433393955230712890625">
        <ele>875</ele>
        <time>2019-10-27T11:46:32.000Z</time>
      </trkpt>
      <trkpt lat="37.642865292727947235107421875" lon="-2.099549733102321624755859375">
        <ele>875</ele>
        <time>2019-10-27T11:46:35.000Z</time>
      </trkpt>
      <trkpt lat="37.6427772827446460723876953125" lon="-2.09979607723653316497802734375">
        <ele>874.79998779296875</ele>
        <time>2019-10-27T11:46:38.000Z</time>
      </trkpt>
      <trkpt lat="37.6427011750638484954833984375" lon="-2.1000558324158191680908203125">
        <ele>873.5999755859375</ele>
        <time>2019-10-27T11:46:41.000Z</time>
      </trkpt>
      <trkpt lat="37.64262263663113117218017578125" lon="-2.100324891507625579833984375">
        <ele>872</ele>
        <time>2019-10-27T11:46:44.000Z</time>
      </trkpt>
      <trkpt lat="37.64255239628255367279052734375" lon="-2.100600488483905792236328125">
        <ele>871</ele>
        <time>2019-10-27T11:46:47.000Z</time>
      </trkpt>
      <trkpt lat="37.6424928009510040283203125" lon="-2.10087533108890056610107421875">
        <ele>870.79998779296875</ele>
        <time>2019-10-27T11:46:50.000Z</time>
      </trkpt>
      <trkpt lat="37.64243421144783496856689453125" lon="-2.10115930996835231781005859375">
        <ele>870</ele>
        <time>2019-10-27T11:46:53.000Z</time>
      </trkpt>
      <trkpt lat="37.64236732386052608489990234375" lon="-2.10145552642643451690673828125">
        <ele>868.79998779296875</ele>
        <time>2019-10-27T11:46:56.000Z</time>
      </trkpt>
      <trkpt lat="37.64229171909391880035400390625" lon="-2.10178527049720287322998046875">
        <ele>867.20001220703125</ele>
        <time>2019-10-27T11:46:59.000Z</time>
      </trkpt>
      <trkpt lat="37.64224595390260219573974609375" lon="-2.10203186608850955963134765625">
        <ele>866.20001220703125</ele>
        <time>2019-10-27T11:47:01.000Z</time>
      </trkpt>
      <trkpt lat="37.6422019489109516143798828125" lon="-2.10228701122105121612548828125">
        <ele>865.5999755859375</ele>
        <time>2019-10-27T11:47:03.000Z</time>
      </trkpt>
      <trkpt lat="37.64216096140444278717041015625" lon="-2.10255154408514499664306640625">
        <ele>865.4000244140625</ele>
        <time>2019-10-27T11:47:05.000Z</time>
      </trkpt>
      <trkpt lat="37.64212357811629772186279296875" lon="-2.102824039757251739501953125">
        <ele>865.4000244140625</ele>
        <time>2019-10-27T11:47:07.000Z</time>
      </trkpt>
      <trkpt lat="37.642086446285247802734375" lon="-2.10310575552284717559814453125">
        <ele>865.5999755859375</ele>
        <time>2019-10-27T11:47:09.000Z</time>
      </trkpt>
      <trkpt lat="37.6420638151466846466064453125" lon="-2.10338755510747432708740234375">
        <ele>865.20001220703125</ele>
        <time>2019-10-27T11:47:11.000Z</time>
      </trkpt>
      <trkpt lat="37.6420379988849163055419921875" lon="-2.1036687679588794708251953125">
        <ele>863.5999755859375</ele>
        <time>2019-10-27T11:47:13.000Z</time>
      </trkpt>
      <trkpt lat="37.6420207321643829345703125" lon="-2.1039443649351596832275390625">
        <ele>861.79998779296875</ele>
        <time>2019-10-27T11:47:15.000Z</time>
      </trkpt>
      <trkpt lat="37.64198829419910907745361328125" lon="-2.10420965217053890228271484375">
        <ele>860.4000244140625</ele>
        <time>2019-10-27T11:47:17.000Z</time>
      </trkpt>
      <trkpt lat="37.641958706080913543701171875" lon="-2.1043373085558414459228515625">
        <ele>860</ele>
        <time>2019-10-27T11:47:18.000Z</time>
      </trkpt>
      <trkpt lat="37.64187295921146869659423828125" lon="-2.104578875005245208740234375">
        <ele>858.79998779296875</ele>
        <time>2019-10-27T11:47:20.000Z</time>
      </trkpt>
      <trkpt lat="37.64176617376506328582763671875" lon="-2.10480510257184505462646484375">
        <ele>858.20001220703125</ele>
        <time>2019-10-27T11:47:22.000Z</time>
      </trkpt>
      <trkpt lat="37.64164765365421772003173828125" lon="-2.10502269677817821502685546875">
        <ele>858</ele>
        <time>2019-10-27T11:47:24.000Z</time>
      </trkpt>
      <trkpt lat="37.6415245234966278076171875" lon="-2.1052405424416065216064453125">
        <ele>857.5999755859375</ele>
        <time>2019-10-27T11:47:26.000Z</time>
      </trkpt>
      <trkpt lat="37.64139502309262752532958984375" lon="-2.1054551191627979278564453125">
        <ele>856.5999755859375</ele>
        <time>2019-10-27T11:47:28.000Z</time>
      </trkpt>
      <trkpt lat="37.64126393012702465057373046875" lon="-2.1056603081524372100830078125">
        <ele>855.20001220703125</ele>
        <time>2019-10-27T11:47:30.000Z</time>
      </trkpt>
      <trkpt lat="37.6411449909210205078125" lon="-2.105871029198169708251953125">
        <ele>854.4000244140625</ele>
        <time>2019-10-27T11:47:32.000Z</time>
      </trkpt>
      <trkpt lat="37.64104063622653484344482421875" lon="-2.10608384571969509124755859375">
        <ele>854.20001220703125</ele>
        <time>2019-10-27T11:47:34.000Z</time>
      </trkpt>
      <trkpt lat="37.64095011167228221893310546875" lon="-2.106306888163089752197265625">
        <ele>853.79998779296875</ele>
        <time>2019-10-27T11:47:36.000Z</time>
      </trkpt>
      <trkpt lat="37.6408766023814678192138671875" lon="-2.10653127171099185943603515625">
        <ele>853</ele>
        <time>2019-10-27T11:47:38.000Z</time>
      </trkpt>
      <trkpt lat="37.6408486068248748779296875" lon="-2.10664174519479274749755859375">
        <ele>852.4000244140625</ele>
        <time>2019-10-27T11:47:39.000Z</time>
      </trkpt>
      <trkpt lat="37.640811391174793243408203125" lon="-2.10686487145721912384033203125">
        <ele>851</ele>
        <time>2019-10-27T11:47:41.000Z</time>
      </trkpt>
      <trkpt lat="37.640802673995494842529296875" lon="-2.107194699347019195556640625">
        <ele>850.4000244140625</ele>
        <time>2019-10-27T11:47:44.000Z</time>
      </trkpt>
      <trkpt lat="37.6407976448535919189453125" lon="-2.10750675760209560394287109375">
        <ele>850.4000244140625</ele>
        <time>2019-10-27T11:47:47.000Z</time>
      </trkpt>
      <trkpt lat="37.64080309309065341949462890625" lon="-2.107805907726287841796875">
        <ele>850.79998779296875</ele>
        <time>2019-10-27T11:47:50.000Z</time>
      </trkpt>
      <trkpt lat="37.64081365428864955902099609375" lon="-2.10808879695832729339599609375">
        <ele>851.20001220703125</ele>
        <time>2019-10-27T11:47:53.000Z</time>
      </trkpt>
      <trkpt lat="37.64081901870667934417724609375" lon="-2.10834980942308902740478515625">
        <ele>851.4000244140625</ele>
        <time>2019-10-27T11:47:56.000Z</time>
      </trkpt>
      <trkpt lat="37.6408269815146923065185546875" lon="-2.1085171960294246673583984375">
        <ele>852.20001220703125</ele>
        <time>2019-10-27T11:47:58.000Z</time>
      </trkpt>
      <trkpt lat="37.640822790563106536865234375" lon="-2.10875742137432098388671875">
        <ele>851.4000244140625</ele>
        <time>2019-10-27T11:48:01.000Z</time>
      </trkpt>
      <trkpt lat="37.64082673005759716033935546875" lon="-2.10898683406412601470947265625">
        <ele>852.5999755859375</ele>
        <time>2019-10-27T11:48:04.000Z</time>
      </trkpt>
      <trkpt lat="37.6408212818205356597900390625" lon="-2.10914374329149723052978515625">
        <ele>853.20001220703125</ele>
        <time>2019-10-27T11:48:06.000Z</time>
      </trkpt>
      <trkpt lat="37.6408008299767971038818359375" lon="-2.1094217710196971893310546875">
        <ele>852.79998779296875</ele>
        <time>2019-10-27T11:48:10.000Z</time>
      </trkpt>
      <trkpt lat="37.64077208004891872406005859375" lon="-2.10967163555324077606201171875">
        <ele>852</ele>
        <time>2019-10-27T11:48:14.000Z</time>
      </trkpt>
      <trkpt lat="37.6407304219901561737060546875" lon="-2.10992284119129180908203125">
        <ele>850.4000244140625</ele>
        <time>2019-10-27T11:48:18.000Z</time>
      </trkpt>
      <trkpt lat="37.6406747661530971527099609375" lon="-2.11014990694820880889892578125">
        <ele>849.20001220703125</ele>
        <time>2019-10-27T11:48:22.000Z</time>
      </trkpt>
      <trkpt lat="37.6405956409871578216552734375" lon="-2.11036951281130313873291015625">
        <ele>849.4000244140625</ele>
        <time>2019-10-27T11:48:26.000Z</time>
      </trkpt>
      <trkpt lat="37.64049966819584369659423828125" lon="-2.11056933738291263580322265625">
        <ele>850.79998779296875</ele>
        <time>2019-10-27T11:48:30.000Z</time>
      </trkpt>
      <trkpt lat="37.64040646143257617950439453125" lon="-2.11077435873448848724365234375">
        <ele>852.4000244140625</ele>
        <time>2019-10-27T11:48:34.000Z</time>
      </trkpt>
      <trkpt lat="37.640330605208873748779296875" lon="-2.11092305369675159454345703125">
        <ele>853.20001220703125</ele>
        <time>2019-10-27T11:48:37.000Z</time>
      </trkpt>
      <trkpt lat="37.64021032489836215972900390625" lon="-2.1111051924526691436767578125">
        <ele>854.4000244140625</ele>
        <time>2019-10-27T11:48:41.000Z</time>
      </trkpt>
      <trkpt lat="37.64008476398885250091552734375" lon="-2.11126922629773616790771484375">
        <ele>855.20001220703125</ele>
        <time>2019-10-27T11:48:45.000Z</time>
      </trkpt>
      <trkpt lat="37.63994009234011173248291015625" lon="-2.11145748384296894073486328125">
        <ele>855.79998779296875</ele>
        <time>2019-10-27T11:48:49.000Z</time>
      </trkpt>
      <trkpt lat="37.63980044983327388763427734375" lon="-2.11164523847401142120361328125">
        <ele>856</ele>
        <time>2019-10-27T11:48:53.000Z</time>
      </trkpt>
      <trkpt lat="37.6396682672202587127685546875" lon="-2.1118278801441192626953125">
        <ele>856.20001220703125</ele>
        <time>2019-10-27T11:48:57.000Z</time>
      </trkpt>
      <trkpt lat="37.6396055705845355987548828125" lon="-2.1119085140526294708251953125">
        <ele>856.4000244140625</ele>
        <time>2019-10-27T11:48:59.000Z</time>
      </trkpt>
      <trkpt lat="37.63953675515949726104736328125" lon="-2.1119879744946956634521484375">
        <ele>856.4000244140625</ele>
        <time>2019-10-27T11:49:01.000Z</time>
      </trkpt>
      <trkpt lat="37.6394000463187694549560546875" lon="-2.11217497475445270538330078125">
        <ele>856.5999755859375</ele>
        <time>2019-10-27T11:49:05.000Z</time>
      </trkpt>
      <trkpt lat="37.63926417566835880279541015625" lon="-2.112351916730403900146484375">
        <ele>856.4000244140625</ele>
        <time>2019-10-27T11:49:09.000Z</time>
      </trkpt>
      <trkpt lat="37.63913341797888278961181640625" lon="-2.1125493943691253662109375">
        <ele>855.20001220703125</ele>
        <time>2019-10-27T11:49:13.000Z</time>
      </trkpt>
      <trkpt lat="37.63899964280426502227783203125" lon="-2.11272264830768108367919921875">
        <ele>854.20001220703125</ele>
        <time>2019-10-27T11:49:17.000Z</time>
      </trkpt>
      <trkpt lat="37.63885379768908023834228515625" lon="-2.112887687981128692626953125">
        <ele>853.79998779296875</ele>
        <time>2019-10-27T11:49:21.000Z</time>
      </trkpt>
      <trkpt lat="37.63873309828341007232666015625" lon="-2.1129897795617580413818359375">
        <ele>853.4000244140625</ele>
        <time>2019-10-27T11:49:24.000Z</time>
      </trkpt>
      <trkpt lat="37.6385621912777423858642578125" lon="-2.11310016922652721405029296875">
        <ele>853</ele>
        <time>2019-10-27T11:49:27.000Z</time>
      </trkpt>
      <trkpt lat="37.638363204896450042724609375" lon="-2.113257162272930145263671875">
        <ele>853.20001220703125</ele>
        <time>2019-10-27T11:49:30.000Z</time>
      </trkpt>
      <trkpt lat="37.63817419297993183135986328125" lon="-2.11341616697609424591064453125">
        <ele>853.5999755859375</ele>
        <time>2019-10-27T11:49:33.000Z</time>
      </trkpt>
      <trkpt lat="37.63799012638628482818603515625" lon="-2.11355949752032756805419921875">
        <ele>853.5999755859375</ele>
        <time>2019-10-27T11:49:36.000Z</time>
      </trkpt>
      <trkpt lat="37.6377920620143413543701171875" lon="-2.1137242019176483154296875">
        <ele>853.5999755859375</ele>
        <time>2019-10-27T11:49:39.000Z</time>
      </trkpt>
      <trkpt lat="37.637597434222698211669921875" lon="-2.113902233541011810302734375">
        <ele>853.5999755859375</ele>
        <time>2019-10-27T11:49:42.000Z</time>
      </trkpt>
      <trkpt lat="37.6374587975442409515380859375" lon="-2.11406878195703029632568359375">
        <ele>854</ele>
        <time>2019-10-27T11:49:46.000Z</time>
      </trkpt>
      <trkpt lat="37.63736047782003879547119140625" lon="-2.1141669340431690216064453125">
        <ele>854</ele>
        <time>2019-10-27T11:49:50.000Z</time>
      </trkpt>
      <trkpt lat="37.63728797435760498046875" lon="-2.11423273198306560516357421875">
        <ele>854</ele>
        <time>2019-10-27T11:49:53.000Z</time>
      </trkpt>
      <trkpt lat="37.637217901647090911865234375" lon="-2.11431495845317840576171875">
        <ele>853.79998779296875</ele>
        <time>2019-10-27T11:49:56.000Z</time>
      </trkpt>
      <trkpt lat="37.63714036904275417327880859375" lon="-2.11439584381878376007080078125">
        <ele>853.79998779296875</ele>
        <time>2019-10-27T11:49:59.000Z</time>
      </trkpt>
      <trkpt lat="37.63698823750019073486328125" lon="-2.11452961899340152740478515625">
        <ele>853.79998779296875</ele>
        <time>2019-10-27T11:50:04.000Z</time>
      </trkpt>
      <trkpt lat="37.63686644844710826873779296875" lon="-2.11463824845850467681884765625">
        <ele>854.20001220703125</ele>
        <time>2019-10-27T11:50:08.000Z</time>
      </trkpt>
      <trkpt lat="37.63669277541339397430419921875" lon="-2.1147808246314525604248046875">
        <ele>855.20001220703125</ele>
        <time>2019-10-27T11:50:14.000Z</time>
      </trkpt>
      <trkpt lat="37.63666461221873760223388671875" lon="-2.11480789817869663238525390625">
        <ele>855.5999755859375</ele>
        <time>2019-10-27T11:50:15.000Z</time>
      </trkpt>
      <trkpt lat="37.63650652952492237091064453125" lon="-2.11497168056666851043701171875">
        <ele>857.5999755859375</ele>
        <time>2019-10-27T11:50:21.000Z</time>
      </trkpt>
      <trkpt lat="37.6364281587302684783935546875" lon="-2.1150470338761806488037109375">
        <ele>858.5999755859375</ele>
        <time>2019-10-27T11:50:24.000Z</time>
      </trkpt>
      <trkpt lat="37.636259682476520538330078125" lon="-2.1151861734688282012939453125">
        <ele>859.5999755859375</ele>
        <time>2019-10-27T11:50:30.000Z</time>
      </trkpt>
      <trkpt lat="37.6360788010060787200927734375" lon="-2.1153226308524608612060546875">
        <ele>859.5999755859375</ele>
        <time>2019-10-27T11:50:36.000Z</time>
      </trkpt>
      <trkpt lat="37.63591979630291461944580078125" lon="-2.11544215679168701171875">
        <ele>859.4000244140625</ele>
        <time>2019-10-27T11:50:41.000Z</time>
      </trkpt>
      <trkpt lat="37.635755427181720733642578125" lon="-2.11558037437498569488525390625">
        <ele>860</ele>
        <time>2019-10-27T11:50:46.000Z</time>
      </trkpt>
      <trkpt lat="37.63558720238506793975830078125" lon="-2.1157138980925083160400390625">
        <ele>860.79998779296875</ele>
        <time>2019-10-27T11:50:51.000Z</time>
      </trkpt>
      <trkpt lat="37.63542811386287212371826171875" lon="-2.11585060693323612213134765625">
        <ele>861.79998779296875</ele>
        <time>2019-10-27T11:50:56.000Z</time>
      </trkpt>
      <trkpt lat="37.635271288454532623291015625" lon="-2.1159826219081878662109375">
        <ele>862.79998779296875</ele>
        <time>2019-10-27T11:51:01.000Z</time>
      </trkpt>
      <trkpt lat="37.6351091824471950531005859375" lon="-2.11611337959766387939453125">
        <ele>863.79998779296875</ele>
        <time>2019-10-27T11:51:06.000Z</time>
      </trkpt>
      <trkpt lat="37.63494632206857204437255859375" lon="-2.1162550337612628936767578125">
        <ele>864.79998779296875</ele>
        <time>2019-10-27T11:51:11.000Z</time>
      </trkpt>
      <trkpt lat="37.6348761655390262603759765625" lon="-2.11630607955157756805419921875">
        <ele>865</ele>
        <time>2019-10-27T11:51:13.000Z</time>
      </trkpt>
      <trkpt lat="37.6347102038562297821044921875" lon="-2.11644169874489307403564453125">
        <ele>865.4000244140625</ele>
        <time>2019-10-27T11:51:18.000Z</time>
      </trkpt>
      <trkpt lat="37.6345529593527317047119140625" lon="-2.1165745519101619720458984375">
        <ele>865.4000244140625</ele>
        <time>2019-10-27T11:51:23.000Z</time>
      </trkpt>
      <trkpt lat="37.63438515365123748779296875" lon="-2.11670371703803539276123046875">
        <ele>865.20001220703125</ele>
        <time>2019-10-27T11:51:28.000Z</time>
      </trkpt>
      <trkpt lat="37.63421910814940929412841796875" lon="-2.11682693101465702056884765625">
        <ele>865</ele>
        <time>2019-10-27T11:51:33.000Z</time>
      </trkpt>
      <trkpt lat="37.63404560275375843048095703125" lon="-2.116949558258056640625">
        <ele>865.5999755859375</ele>
        <time>2019-10-27T11:51:39.000Z</time>
      </trkpt>
      <trkpt lat="37.6338860951364040374755859375" lon="-2.11708433926105499267578125">
        <ele>866.20001220703125</ele>
        <time>2019-10-27T11:51:46.000Z</time>
      </trkpt>
      <trkpt lat="37.6337342150509357452392578125" lon="-2.11721115745604038238525390625">
        <ele>867</ele>
        <time>2019-10-27T11:51:53.000Z</time>
      </trkpt>
      <trkpt lat="37.633566074073314666748046875" lon="-2.11735180579125881195068359375">
        <ele>867.79998779296875</ele>
        <time>2019-10-27T11:52:01.000Z</time>
      </trkpt>
      <trkpt lat="37.6333949156105518341064453125" lon="-2.11749136447906494140625">
        <ele>868.4000244140625</ele>
        <time>2019-10-27T11:52:09.000Z</time>
      </trkpt>
      <trkpt lat="37.63323926366865634918212890625" lon="-2.11760929785668849945068359375">
        <ele>869.20001220703125</ele>
        <time>2019-10-27T11:52:16.000Z</time>
      </trkpt>
      <trkpt lat="37.633057124912738800048828125" lon="-2.1177272312343120574951171875">
        <ele>870.4000244140625</ele>
        <time>2019-10-27T11:52:24.000Z</time>
      </trkpt>
      <trkpt lat="37.63288177549839019775390625" lon="-2.1178107149899005889892578125">
        <ele>871.20001220703125</ele>
        <time>2019-10-27T11:52:31.000Z</time>
      </trkpt>
      <trkpt lat="37.63276317156851291656494140625" lon="-2.1179196797311305999755859375">
        <ele>871.79998779296875</ele>
        <time>2019-10-27T11:52:37.000Z</time>
      </trkpt>
      <trkpt lat="37.63287900947034358978271484375" lon="-2.1181181631982326507568359375">
        <ele>872</ele>
        <time>2019-10-27T11:52:45.000Z</time>
      </trkpt>
      <trkpt lat="37.63300641439855098724365234375" lon="-2.11829627864062786102294921875">
        <ele>871.5999755859375</ele>
        <time>2019-10-27T11:52:52.000Z</time>
      </trkpt>
      <trkpt lat="37.63304270803928375244140625" lon="-2.118340618908405303955078125">
        <ele>871.5999755859375</ele>
        <time>2019-10-27T11:52:56.000Z</time>
      </trkpt>
      <trkpt lat="37.63314035721123218536376953125" lon="-2.1185033954679965972900390625">
        <ele>872</ele>
        <time>2019-10-27T11:53:37.000Z</time>
      </trkpt>
      <trkpt lat="37.63322400860488414764404296875" lon="-2.11870280094444751739501953125">
        <ele>872.20001220703125</ele>
        <time>2019-10-27T11:53:42.000Z</time>
      </trkpt>
      <trkpt lat="37.63308822177350521087646484375" lon="-2.11888770572841167449951171875">
        <ele>872.4000244140625</ele>
        <time>2019-10-27T11:53:47.000Z</time>
      </trkpt>
      <trkpt lat="37.63304580934345722198486328125" lon="-2.11891134269535541534423828125">
        <ele>872.20001220703125</ele>
        <time>2019-10-27T11:53:48.000Z</time>
      </trkpt>
      <trkpt lat="37.6328457333147525787353515625" lon="-2.11901293136179447174072265625">
        <ele>871</ele>
        <time>2019-10-27T11:53:52.000Z</time>
      </trkpt>
      <trkpt lat="37.6326599903404712677001953125" lon="-2.11911016143858432769775390625">
        <ele>870.5999755859375</ele>
        <time>2019-10-27T11:53:55.000Z</time>
      </trkpt>
      <trkpt lat="37.63259670697152614593505859375" lon="-2.11915676482021808624267578125">
        <ele>870.5999755859375</ele>
        <time>2019-10-27T11:53:56.000Z</time>
      </trkpt>
      <trkpt lat="37.63241733424365520477294921875" lon="-2.1193519793450832366943359375">
        <ele>870.5999755859375</ele>
        <time>2019-10-27T11:53:59.000Z</time>
      </trkpt>
      <trkpt lat="37.63230904005467891693115234375" lon="-2.11952791549265384674072265625">
        <ele>870.79998779296875</ele>
        <time>2019-10-27T11:54:01.000Z</time>
      </trkpt>
      <trkpt lat="37.632184065878391265869140625" lon="-2.11968633346259593963623046875">
        <ele>871.20001220703125</ele>
        <time>2019-10-27T11:54:03.000Z</time>
      </trkpt>
      <trkpt lat="37.63201248832046985626220703125" lon="-2.11983955465257167816162109375">
        <ele>871.79998779296875</ele>
        <time>2019-10-27T11:54:06.000Z</time>
      </trkpt>
      <trkpt lat="37.6318502984941005706787109375" lon="-2.12001054547727108001708984375">
        <ele>872.79998779296875</ele>
        <time>2019-10-27T11:54:11.000Z</time>
      </trkpt>
      <trkpt lat="37.631713338196277618408203125" lon="-2.12018740363419055938720703125">
        <ele>874.20001220703125</ele>
        <time>2019-10-27T11:54:17.000Z</time>
      </trkpt>
      <trkpt lat="37.63157193548977375030517578125" lon="-2.120374739170074462890625">
        <ele>875</ele>
        <time>2019-10-27T11:54:23.000Z</time>
      </trkpt>
      <trkpt lat="37.6314367353916168212890625" lon="-2.1205334924161434173583984375">
        <ele>876</ele>
        <time>2019-10-27T11:54:28.000Z</time>
      </trkpt>
      <trkpt lat="37.6312749646604061126708984375" lon="-2.12071160785853862762451171875">
        <ele>876.79998779296875</ele>
        <time>2019-10-27T11:54:33.000Z</time>
      </trkpt>
      <trkpt lat="37.63111160136759281158447265625" lon="-2.12089718319475650787353515625">
        <ele>876.4000244140625</ele>
        <time>2019-10-27T11:54:38.000Z</time>
      </trkpt>
      <trkpt lat="37.63098084367811679840087890625" lon="-2.121075130999088287353515625">
        <ele>876.4000244140625</ele>
        <time>2019-10-27T11:54:42.000Z</time>
      </trkpt>
      <trkpt lat="37.63087405823171138763427734375" lon="-2.12125961668789386749267578125">
        <ele>876</ele>
        <time>2019-10-27T11:54:45.000Z</time>
      </trkpt>
      <trkpt lat="37.63078034855425357818603515625" lon="-2.121388614177703857421875">
        <ele>876</ele>
        <time>2019-10-27T11:54:47.000Z</time>
      </trkpt>
      <trkpt lat="37.6305990479886531829833984375" lon="-2.1215534023940563201904296875">
        <ele>876</ele>
        <time>2019-10-27T11:54:51.000Z</time>
      </trkpt>
      <trkpt lat="37.63043819926679134368896484375" lon="-2.121694050729274749755859375">
        <ele>876.5999755859375</ele>
        <time>2019-10-27T11:54:57.000Z</time>
      </trkpt>
      <trkpt lat="37.63029017485678195953369140625" lon="-2.1218566596508026123046875">
        <ele>877.20001220703125</ele>
        <time>2019-10-27T11:55:04.000Z</time>
      </trkpt>
      <trkpt lat="37.63019596226513385772705078125" lon="-2.1219735033810138702392578125">
        <ele>878</ele>
        <time>2019-10-27T11:55:08.000Z</time>
      </trkpt>
      <trkpt lat="37.6301367022097110748291015625" lon="-2.122032009065151214599609375">
        <ele>878.4000244140625</ele>
        <time>2019-10-27T11:55:10.000Z</time>
      </trkpt>
      <trkpt lat="37.63001876883208751678466796875" lon="-2.12220559827983379364013671875">
        <ele>879</ele>
        <time>2019-10-27T11:55:15.000Z</time>
      </trkpt>
      <trkpt lat="37.62990544550120830535888671875" lon="-2.122404165565967559814453125">
        <ele>878.5999755859375</ele>
        <time>2019-10-27T11:55:22.000Z</time>
      </trkpt>
      <trkpt lat="37.6297937147319316864013671875" lon="-2.122605331242084503173828125">
        <ele>879.5999755859375</ele>
        <time>2019-10-27T11:55:29.000Z</time>
      </trkpt>
      <trkpt lat="37.6296629570424556732177734375" lon="-2.12279853411018848419189453125">
        <ele>880.20001220703125</ele>
        <time>2019-10-27T11:55:36.000Z</time>
      </trkpt>
      <trkpt lat="37.6295295171439647674560546875" lon="-2.122976817190647125244140625">
        <ele>880.20001220703125</ele>
        <time>2019-10-27T11:55:42.000Z</time>
      </trkpt>
      <trkpt lat="37.629403956234455108642578125" lon="-2.12314403615891933441162109375">
        <ele>879.79998779296875</ele>
        <time>2019-10-27T11:55:47.000Z</time>
      </trkpt>
      <trkpt lat="37.6292696781456470489501953125" lon="-2.12333212606608867645263671875">
        <ele>879.20001220703125</ele>
        <time>2019-10-27T11:55:51.000Z</time>
      </trkpt>
      <trkpt lat="37.629131712019443511962890625" lon="-2.1235519833862781524658203125">
        <ele>879.20001220703125</ele>
        <time>2019-10-27T11:55:55.000Z</time>
      </trkpt>
      <trkpt lat="37.6290021277964115142822265625" lon="-2.12375641800463199615478515625">
        <ele>879.79998779296875</ele>
        <time>2019-10-27T11:55:59.000Z</time>
      </trkpt>
      <trkpt lat="37.62887514196336269378662109375" lon="-2.1239814721047878265380859375">
        <ele>880.79998779296875</ele>
        <time>2019-10-27T11:56:03.000Z</time>
      </trkpt>
      <trkpt lat="37.6287597231566905975341796875" lon="-2.1241994015872478485107421875">
        <ele>881.4000244140625</ele>
        <time>2019-10-27T11:56:07.000Z</time>
      </trkpt>
      <trkpt lat="37.6286634989082813262939453125" lon="-2.1243918500840663909912109375">
        <ele>882.20001220703125</ele>
        <time>2019-10-27T11:56:11.000Z</time>
      </trkpt>
      <trkpt lat="37.62862502597272396087646484375" lon="-2.1244840510189533233642578125">
        <ele>882.5999755859375</ele>
        <time>2019-10-27T11:56:13.000Z</time>
      </trkpt>
      <trkpt lat="37.6285367645323276519775390625" lon="-2.12470323778688907623291015625">
        <ele>883</ele>
        <time>2019-10-27T11:56:18.000Z</time>
      </trkpt>
      <trkpt lat="37.62845604680478572845458984375" lon="-2.1248996257781982421875">
        <ele>883</ele>
        <time>2019-10-27T11:56:23.000Z</time>
      </trkpt>
      <trkpt lat="37.62835999019443988800048828125" lon="-2.125119902193546295166015625">
        <ele>883.79998779296875</ele>
        <time>2019-10-27T11:56:29.000Z</time>
      </trkpt>
      <trkpt lat="37.628292851150035858154296875" lon="-2.12533808313310146331787109375">
        <ele>884.4000244140625</ele>
        <time>2019-10-27T11:56:35.000Z</time>
      </trkpt>
      <trkpt lat="37.62823258526623249053955078125" lon="-2.1255616284906864166259765625">
        <ele>885</ele>
        <time>2019-10-27T11:56:42.000Z</time>
      </trkpt>
      <trkpt lat="37.6281518675386905670166015625" lon="-2.1258093975484371185302734375">
        <ele>885.79998779296875</ele>
        <time>2019-10-27T11:56:49.000Z</time>
      </trkpt>
      <trkpt lat="37.6280720718204975128173828125" lon="-2.12605088017880916595458984375">
        <ele>886.20001220703125</ele>
        <time>2019-10-27T11:56:55.000Z</time>
      </trkpt>
      <trkpt lat="37.6280061900615692138671875" lon="-2.1262750960886478424072265625">
        <ele>887.4000244140625</ele>
        <time>2019-10-27T11:57:01.000Z</time>
      </trkpt>
      <trkpt lat="37.62794927693903446197509765625" lon="-2.1264970488846302032470703125">
        <ele>888.20001220703125</ele>
        <time>2019-10-27T11:57:07.000Z</time>
      </trkpt>
      <trkpt lat="37.62790703214704990386962890625" lon="-2.126737274229526519775390625">
        <ele>889</ele>
        <time>2019-10-27T11:57:14.000Z</time>
      </trkpt>
      <trkpt lat="37.6278534717857837677001953125" lon="-2.12698898278176784515380859375">
        <ele>890.4000244140625</ele>
        <time>2019-10-27T11:57:21.000Z</time>
      </trkpt>
      <trkpt lat="37.62779555283486843109130859375" lon="-2.12724379263818264007568359375">
        <ele>891</ele>
        <time>2019-10-27T11:57:27.000Z</time>
      </trkpt>
      <trkpt lat="37.627720534801483154296875" lon="-2.127511762082576751708984375">
        <ele>890.5999755859375</ele>
        <time>2019-10-27T11:57:32.000Z</time>
      </trkpt>
      <trkpt lat="37.6276704110205173492431640625" lon="-2.12774612009525299072265625">
        <ele>890</ele>
        <time>2019-10-27T11:57:36.000Z</time>
      </trkpt>
      <trkpt lat="37.62762129306793212890625" lon="-2.12797804735600948333740234375">
        <ele>890</ele>
        <time>2019-10-27T11:57:40.000Z</time>
      </trkpt>
      <trkpt lat="37.6275743544101715087890625" lon="-2.12820569984614849090576171875">
        <ele>891</ele>
        <time>2019-10-27T11:57:44.000Z</time>
      </trkpt>
      <trkpt lat="37.62754149734973907470703125" lon="-2.1284500323235988616943359375">
        <ele>891.79998779296875</ele>
        <time>2019-10-27T11:57:49.000Z</time>
      </trkpt>
      <trkpt lat="37.6275260746479034423828125" lon="-2.128700315952301025390625">
        <ele>892.5999755859375</ele>
        <time>2019-10-27T11:57:55.000Z</time>
      </trkpt>
      <trkpt lat="37.62750872410833835601806640625" lon="-2.12894062511622905731201171875">
        <ele>892.79998779296875</ele>
        <time>2019-10-27T11:58:01.000Z</time>
      </trkpt>
      <trkpt lat="37.62748156674206256866455078125" lon="-2.129182778298854827880859375">
        <ele>892.5999755859375</ele>
        <time>2019-10-27T11:58:07.000Z</time>
      </trkpt>
      <trkpt lat="37.62745440937578678131103515625" lon="-2.129413783550262451171875">
        <ele>892.4000244140625</ele>
        <time>2019-10-27T11:58:12.000Z</time>
      </trkpt>
      <trkpt lat="37.62743043713271617889404296875" lon="-2.129643447697162628173828125">
        <ele>892.20001220703125</ele>
        <time>2019-10-27T11:58:17.000Z</time>
      </trkpt>
      <trkpt lat="37.62739959172904491424560546875" lon="-2.12988358922302722930908203125">
        <ele>892.4000244140625</ele>
        <time>2019-10-27T11:58:22.000Z</time>
      </trkpt>
      <trkpt lat="37.6273619569838047027587890625" lon="-2.13014527224004268646240234375">
        <ele>891</ele>
        <time>2019-10-27T11:58:27.000Z</time>
      </trkpt>
      <trkpt lat="37.62732021510601043701171875" lon="-2.13045272044837474822998046875">
        <ele>890</ele>
        <time>2019-10-27T11:58:31.000Z</time>
      </trkpt>
      <trkpt lat="37.6272659003734588623046875" lon="-2.1307543851435184478759765625">
        <ele>889.20001220703125</ele>
        <time>2019-10-27T11:58:34.000Z</time>
      </trkpt>
      <trkpt lat="37.6272315345704555511474609375" lon="-2.13096317835152149200439453125">
        <ele>889.79998779296875</ele>
        <time>2019-10-27T11:58:36.000Z</time>
      </trkpt>
      <trkpt lat="37.6272030360996723175048828125" lon="-2.131250090897083282470703125">
        <ele>890</ele>
        <time>2019-10-27T11:58:39.000Z</time>
      </trkpt>
      <trkpt lat="37.62718099169433116912841796875" lon="-2.1314832754433155059814453125">
        <ele>890</ele>
        <time>2019-10-27T11:58:42.000Z</time>
      </trkpt>
      <trkpt lat="37.62717193923890590667724609375" lon="-2.13175065815448760986328125">
        <ele>889.5999755859375</ele>
        <time>2019-10-27T11:58:47.000Z</time>
      </trkpt>
      <trkpt lat="37.62715299613773822784423828125" lon="-2.13201628066599369049072265625">
        <ele>889.79998779296875</ele>
        <time>2019-10-27T11:58:53.000Z</time>
      </trkpt>
      <trkpt lat="37.62712634168565273284912109375" lon="-2.132284753024578094482421875">
        <ele>891.20001220703125</ele>
        <time>2019-10-27T11:58:59.000Z</time>
      </trkpt>
      <trkpt lat="37.6271031238138675689697265625" lon="-2.13253059424459934234619140625">
        <ele>892.4000244140625</ele>
        <time>2019-10-27T11:59:04.000Z</time>
      </trkpt>
      <trkpt lat="37.62707940302789211273193359375" lon="-2.13278674520552158355712890625">
        <ele>892.79998779296875</ele>
        <time>2019-10-27T11:59:09.000Z</time>
      </trkpt>
      <trkpt lat="37.6270558498799800872802734375" lon="-2.13305261917412281036376953125">
        <ele>892.79998779296875</ele>
        <time>2019-10-27T11:59:14.000Z</time>
      </trkpt>
      <trkpt lat="37.62702341191470623016357421875" lon="-2.1333008073270320892333984375">
        <ele>892.79998779296875</ele>
        <time>2019-10-27T11:59:19.000Z</time>
      </trkpt>
      <trkpt lat="37.62699273414909839630126953125" lon="-2.13357246480882167816162109375">
        <ele>893.4000244140625</ele>
        <time>2019-10-27T11:59:24.000Z</time>
      </trkpt>
      <trkpt lat="37.62695987708866596221923828125" lon="-2.133798189461231231689453125">
        <ele>893.79998779296875</ele>
        <time>2019-10-27T11:59:28.000Z</time>
      </trkpt>
      <trkpt lat="37.62692266143858432769775390625" lon="-2.134028859436511993408203125">
        <ele>893.5999755859375</ele>
        <time>2019-10-27T11:59:32.000Z</time>
      </trkpt>
      <trkpt lat="37.626876644790172576904296875" lon="-2.1342915482819080352783203125">
        <ele>892.79998779296875</ele>
        <time>2019-10-27T11:59:36.000Z</time>
      </trkpt>
      <trkpt lat="37.62686532922089099884033203125" lon="-2.13436438702046871185302734375">
        <ele>892.79998779296875</ele>
        <time>2019-10-27T11:59:37.000Z</time>
      </trkpt>
      <trkpt lat="37.6268070749938488006591796875" lon="-2.134617604315280914306640625">
        <ele>891.79998779296875</ele>
        <time>2019-10-27T11:59:40.000Z</time>
      </trkpt>
      <trkpt lat="37.62674211524426937103271484375" lon="-2.13490887545049190521240234375">
        <ele>891.4000244140625</ele>
        <time>2019-10-27T11:59:43.000Z</time>
      </trkpt>
      <trkpt lat="37.626694254577159881591796875" lon="-2.1352060139179229736328125">
        <ele>893</ele>
        <time>2019-10-27T11:59:46.000Z</time>
      </trkpt>
      <trkpt lat="37.6266396045684814453125" lon="-2.13546819984912872314453125">
        <ele>893.5999755859375</ele>
        <time>2019-10-27T11:59:49.000Z</time>
      </trkpt>
      <trkpt lat="37.6265881396830081939697265625" lon="-2.13569057174026966094970703125">
        <ele>894</ele>
        <time>2019-10-27T11:59:52.000Z</time>
      </trkpt>
      <trkpt lat="37.626527957618236541748046875" lon="-2.1359531767666339874267578125">
        <ele>894</ele>
        <time>2019-10-27T11:59:56.000Z</time>
      </trkpt>
      <trkpt lat="37.62645117938518524169921875" lon="-2.136189378798007965087890625">
        <ele>893.20001220703125</ele>
        <time>2019-10-27T12:00:00.000Z</time>
      </trkpt>
      <trkpt lat="37.626416981220245361328125" lon="-2.13631234131753444671630859375">
        <ele>893</ele>
        <time>2019-10-27T12:00:02.000Z</time>
      </trkpt>
      <trkpt lat="37.6263510994613170623779296875" lon="-2.13656388223171234130859375">
        <ele>892.79998779296875</ele>
        <time>2019-10-27T12:00:06.000Z</time>
      </trkpt>
      <trkpt lat="37.626288235187530517578125" lon="-2.1368292532861232757568359375">
        <ele>893</ele>
        <time>2019-10-27T12:00:10.000Z</time>
      </trkpt>
      <trkpt lat="37.6262216828763484954833984375" lon="-2.13710971176624298095703125">
        <ele>893.5999755859375</ele>
        <time>2019-10-27T12:00:14.000Z</time>
      </trkpt>
      <trkpt lat="37.6261646859347820281982421875" lon="-2.1373556368052959442138671875">
        <ele>894</ele>
        <time>2019-10-27T12:00:17.000Z</time>
      </trkpt>
      <trkpt lat="37.62608430348336696624755859375" lon="-2.13756090961396694183349609375">
        <ele>894.20001220703125</ele>
        <time>2019-10-27T12:00:20.000Z</time>
      </trkpt>
      <trkpt lat="37.6260312460362911224365234375" lon="-2.13775671087205410003662109375">
        <ele>894.4000244140625</ele>
        <time>2019-10-27T12:00:24.000Z</time>
      </trkpt>
      <trkpt lat="37.6259843073785305023193359375" lon="-2.13799492456018924713134765625">
        <ele>895.5999755859375</ele>
        <time>2019-10-27T12:00:31.000Z</time>
      </trkpt>
      <trkpt lat="37.62597684748470783233642578125" lon="-2.13802593760192394256591796875">
        <ele>896</ele>
        <time>2019-10-27T12:00:32.000Z</time>
      </trkpt>
      <trkpt lat="37.6259222812950611114501953125" lon="-2.138243280351161956787109375">
        <ele>897.5999755859375</ele>
        <time>2019-10-27T12:00:39.000Z</time>
      </trkpt>
      <trkpt lat="37.6259048469364643096923828125" lon="-2.13830891065299510955810546875">
        <ele>898</ele>
        <time>2019-10-27T12:00:41.000Z</time>
      </trkpt>
      <trkpt lat="37.6258699782192707061767578125" lon="-2.13844821788370609283447265625">
        <ele>898.5999755859375</ele>
        <time>2019-10-27T12:00:45.000Z</time>
      </trkpt>
      <trkpt lat="37.6258019171655178070068359375" lon="-2.13868676684796810150146484375">
        <ele>899.79998779296875</ele>
        <time>2019-10-27T12:00:51.000Z</time>
      </trkpt>
      <trkpt lat="37.62575925327837467193603515625" lon="-2.13886630721390247344970703125">
        <ele>900.4000244140625</ele>
        <time>2019-10-27T12:00:56.000Z</time>
      </trkpt>
      <trkpt lat="37.62574047781527042388916015625" lon="-2.13893135078251361846923828125">
        <ele>900.5999755859375</ele>
        <time>2019-10-27T12:00:58.000Z</time>
      </trkpt>
      <trkpt lat="37.6257033459842205047607421875" lon="-2.1391537226736545562744140625">
        <ele>901.79998779296875</ele>
        <time>2019-10-27T12:01:06.000Z</time>
      </trkpt>
      <trkpt lat="37.62567677535116672515869140625" lon="-2.13940056972205638885498046875">
        <ele>903.5999755859375</ele>
        <time>2019-10-27T12:01:16.000Z</time>
      </trkpt>
      <trkpt lat="37.6256312616169452667236328125" lon="-2.139634676277637481689453125">
        <ele>904.5999755859375</ele>
        <time>2019-10-27T12:01:25.000Z</time>
      </trkpt>
      <trkpt lat="37.62551684863865375518798828125" lon="-2.13986978866159915924072265625">
        <ele>903.79998779296875</ele>
        <time>2019-10-27T12:01:31.000Z</time>
      </trkpt>
      <trkpt lat="37.62537988834083080291748046875" lon="-2.14012292213737964630126953125">
        <ele>903.5999755859375</ele>
        <time>2019-10-27T12:01:35.000Z</time>
      </trkpt>
      <trkpt lat="37.62535491026937961578369140625" lon="-2.1402021311223506927490234375">
        <ele>903.79998779296875</ele>
        <time>2019-10-27T12:01:36.000Z</time>
      </trkpt>
      <trkpt lat="37.6252810657024383544921875" lon="-2.14044126681983470916748046875">
        <ele>904.4000244140625</ele>
        <time>2019-10-27T12:01:39.000Z</time>
      </trkpt>
      <trkpt lat="37.6252128370106220245361328125" lon="-2.140673361718654632568359375">
        <ele>904.4000244140625</ele>
        <time>2019-10-27T12:01:42.000Z</time>
      </trkpt>
      <trkpt lat="37.62515977956354618072509765625" lon="-2.1408944763243198394775390625">
        <ele>904.4000244140625</ele>
        <time>2019-10-27T12:01:45.000Z</time>
      </trkpt>
      <trkpt lat="37.6251350529491901397705078125" lon="-2.14115221984684467315673828125">
        <ele>904.5999755859375</ele>
        <time>2019-10-27T12:01:50.000Z</time>
      </trkpt>
      <trkpt lat="37.625083588063716888427734375" lon="-2.141403257846832275390625">
        <ele>904.5999755859375</ele>
        <time>2019-10-27T12:01:56.000Z</time>
      </trkpt>
      <trkpt lat="37.62499733828008174896240234375" lon="-2.141630239784717559814453125">
        <ele>903.4000244140625</ele>
        <time>2019-10-27T12:02:00.000Z</time>
      </trkpt>
      <trkpt lat="37.6249124296009540557861328125" lon="-2.14187356643378734588623046875">
        <ele>901.5999755859375</ele>
        <time>2019-10-27T12:02:03.000Z</time>
      </trkpt>
      <trkpt lat="37.62489172630012035369873046875" lon="-2.141972221434116363525390625">
        <ele>901.4000244140625</ele>
        <time>2019-10-27T12:02:04.000Z</time>
      </trkpt>
      <trkpt lat="37.62487596832215785980224609375" lon="-2.14220180176198482513427734375">
        <ele>901.20001220703125</ele>
        <time>2019-10-27T12:02:06.000Z</time>
      </trkpt>
      <trkpt lat="37.62485685758292675018310546875" lon="-2.1424558572471141815185546875">
        <ele>901.79998779296875</ele>
        <time>2019-10-27T12:02:08.000Z</time>
      </trkpt>
      <trkpt lat="37.624777816236019134521484375" lon="-2.14274042285978794097900390625">
        <ele>903.20001220703125</ele>
        <time>2019-10-27T12:02:11.000Z</time>
      </trkpt>
      <trkpt lat="37.62475778348743915557861328125" lon="-2.1428105793893337249755859375">
        <ele>903.4000244140625</ele>
        <time>2019-10-27T12:02:12.000Z</time>
      </trkpt>
      <trkpt lat="37.62472040019929409027099609375" lon="-2.14305172674357891082763671875">
        <ele>903.79998779296875</ele>
        <time>2019-10-27T12:02:17.000Z</time>
      </trkpt>
      <trkpt lat="37.624681256711483001708984375" lon="-2.14330117218196392059326171875">
        <ele>904</ele>
        <time>2019-10-27T12:02:22.000Z</time>
      </trkpt>
      <trkpt lat="37.62465803883969783782958984375" lon="-2.1435557305812835693359375">
        <ele>904.20001220703125</ele>
        <time>2019-10-27T12:02:25.000Z</time>
      </trkpt>
      <trkpt lat="37.62462534941732883453369140625" lon="-2.1437838859856128692626953125">
        <ele>905</ele>
        <time>2019-10-27T12:02:28.000Z</time>
      </trkpt>
      <trkpt lat="37.6245788298547267913818359375" lon="-2.14401380158960819244384765625">
        <ele>905.20001220703125</ele>
        <time>2019-10-27T12:02:33.000Z</time>
      </trkpt>
      <trkpt lat="37.62457036413252353668212890625" lon="-2.14412544853985309600830078125">
        <ele>905.5999755859375</ele>
        <time>2019-10-27T12:02:36.000Z</time>
      </trkpt>
      <trkpt lat="37.6245530135929584503173828125" lon="-2.1443416178226470947265625">
        <ele>906.5999755859375</ele>
        <time>2019-10-27T12:02:43.000Z</time>
      </trkpt>
      <trkpt lat="37.6245439611375331878662109375" lon="-2.144459299743175506591796875">
        <ele>906.79998779296875</ele>
        <time>2019-10-27T12:02:47.000Z</time>
      </trkpt>
      <trkpt lat="37.624555528163909912109375" lon="-2.144550494849681854248046875">
        <ele>907.4000244140625</ele>
        <time>2019-10-27T12:02:50.000Z</time>
      </trkpt>
      <trkpt lat="37.6245597191154956817626953125" lon="-2.14477705769240856170654296875">
        <ele>909</ele>
        <time>2019-10-27T12:02:58.000Z</time>
      </trkpt>
      <trkpt lat="37.6245488226413726806640625" lon="-2.1450130082666873931884765625">
        <ele>910.5999755859375</ele>
        <time>2019-10-27T12:03:06.000Z</time>
      </trkpt>
      <trkpt lat="37.62453029863536357879638671875" lon="-2.1451910398900508880615234375">
        <ele>911.5999755859375</ele>
        <time>2019-10-27T12:03:12.000Z</time>
      </trkpt>
      <trkpt lat="37.62448905967175960540771484375" lon="-2.14543453417718410491943359375">
        <ele>912</ele>
        <time>2019-10-27T12:03:20.000Z</time>
      </trkpt>
      <trkpt lat="37.62448453344404697418212890625" lon="-2.1456892602145671844482421875">
        <ele>912.79998779296875</ele>
        <time>2019-10-27T12:03:28.000Z</time>
      </trkpt>
      <trkpt lat="37.62446366250514984130859375" lon="-2.14592956937849521636962890625">
        <ele>913.4000244140625</ele>
        <time>2019-10-27T12:03:36.000Z</time>
      </trkpt>
      <trkpt lat="37.62441043742001056671142578125" lon="-2.14617691934108734130859375">
        <ele>913.5999755859375</ele>
        <time>2019-10-27T12:03:44.000Z</time>
      </trkpt>
      <trkpt lat="37.62433030642569065093994140625" lon="-2.14642376638948917388916015625">
        <ele>913.4000244140625</ele>
        <time>2019-10-27T12:03:50.000Z</time>
      </trkpt>
      <trkpt lat="37.62425336055457592010498046875" lon="-2.14663716964423656463623046875">
        <ele>912.79998779296875</ele>
        <time>2019-10-27T12:03:53.000Z</time>
      </trkpt>
      <trkpt lat="37.62420482933521270751953125" lon="-2.14692114852368831634521484375">
        <ele>913</ele>
        <time>2019-10-27T12:03:56.000Z</time>
      </trkpt>
      <trkpt lat="37.624174654483795166015625" lon="-2.1471990086138248443603515625">
        <ele>913</ele>
        <time>2019-10-27T12:03:59.000Z</time>
      </trkpt>
      <trkpt lat="37.6241654343903064727783203125" lon="-2.1474762819707393646240234375">
        <ele>913.20001220703125</ele>
        <time>2019-10-27T12:04:02.000Z</time>
      </trkpt>
      <trkpt lat="37.62418764643371105194091796875" lon="-2.1477372944355010986328125">
        <ele>914.20001220703125</ele>
        <time>2019-10-27T12:04:05.000Z</time>
      </trkpt>
      <trkpt lat="37.62421865947544574737548828125" lon="-2.147977687418460845947265625">
        <ele>915</ele>
        <time>2019-10-27T12:04:08.000Z</time>
      </trkpt>
      <trkpt lat="37.6242640055716037750244140625" lon="-2.14820911176502704620361328125">
        <ele>915.4000244140625</ele>
        <time>2019-10-27T12:04:12.000Z</time>
      </trkpt>
      <trkpt lat="37.62430264614522457122802734375" lon="-2.148331068456172943115234375">
        <ele>916</ele>
        <time>2019-10-27T12:04:16.000Z</time>
      </trkpt>
      <trkpt lat="37.624336592853069305419921875" lon="-2.14844279922544956207275390625">
        <ele>916.4000244140625</ele>
        <time>2019-10-27T12:04:20.000Z</time>
      </trkpt>
      <trkpt lat="37.62434271164238452911376953125" lon="-2.148532569408416748046875">
        <ele>916.5999755859375</ele>
        <time>2019-10-27T12:04:23.000Z</time>
      </trkpt>
      <trkpt lat="37.62433164753019809722900390625" lon="-2.14858897961676120758056640625">
        <ele>916.4000244140625</ele>
        <time>2019-10-27T12:04:25.000Z</time>
      </trkpt>
      <trkpt lat="37.6242016442120075225830078125" lon="-2.14864279143512248992919921875">
        <ele>916</ele>
        <time>2019-10-27T12:04:31.000Z</time>
      </trkpt>
      <trkpt lat="37.6239801943302154541015625" lon="-2.14865318499505519866943359375">
        <ele>914.5999755859375</ele>
        <time>2019-10-27T12:04:36.000Z</time>
      </trkpt>
      <trkpt lat="37.623794116079807281494140625" lon="-2.14882853440940380096435546875">
        <ele>914.79998779296875</ele>
        <time>2019-10-27T12:04:40.000Z</time>
      </trkpt>
      <trkpt lat="37.623723708093166351318359375" lon="-2.1490393392741680145263671875">
        <ele>915.79998779296875</ele>
        <time>2019-10-27T12:04:44.000Z</time>
      </trkpt>
      <trkpt lat="37.623657323420047760009765625" lon="-2.149256430566310882568359375">
        <ele>916.5999755859375</ele>
        <time>2019-10-27T12:04:51.000Z</time>
      </trkpt>
      <trkpt lat="37.62355129234492778778076171875" lon="-2.14944913052022457122802734375">
        <ele>916.79998779296875</ele>
        <time>2019-10-27T12:04:58.000Z</time>
      </trkpt>
      <trkpt lat="37.62341089546680450439453125" lon="-2.1496569178998470306396484375">
        <ele>916.5999755859375</ele>
        <time>2019-10-27T12:05:04.000Z</time>
      </trkpt>
      <trkpt lat="37.62324384413659572601318359375" lon="-2.1498678065836429595947265625">
        <ele>915</ele>
        <time>2019-10-27T12:05:08.000Z</time>
      </trkpt>
      <trkpt lat="37.62307293713092803955078125" lon="-2.15007106773555278778076171875">
        <ele>912.79998779296875</ele>
        <time>2019-10-27T12:05:11.000Z</time>
      </trkpt>
      <trkpt lat="37.62295315973460674285888671875" lon="-2.15024306438863277435302734375">
        <ele>911.5999755859375</ele>
        <time>2019-10-27T12:05:13.000Z</time>
      </trkpt>
      <trkpt lat="37.62285760603845119476318359375" lon="-2.15046602301299571990966796875">
        <ele>910.4000244140625</ele>
        <time>2019-10-27T12:05:15.000Z</time>
      </trkpt>
      <trkpt lat="37.622770182788372039794921875" lon="-2.15073055587708950042724609375">
        <ele>911</ele>
        <time>2019-10-27T12:05:17.000Z</time>
      </trkpt>
      <trkpt lat="37.62271461077034473419189453125" lon="-2.15085259638726711273193359375">
        <ele>912.20001220703125</ele>
        <time>2019-10-27T12:05:18.000Z</time>
      </trkpt>
      <trkpt lat="37.622588463127613067626953125" lon="-2.15103213675320148468017578125">
        <ele>914.20001220703125</ele>
        <time>2019-10-27T12:05:20.000Z</time>
      </trkpt>
      <trkpt lat="37.62254110537469387054443359375" lon="-2.151109166443347930908203125">
        <ele>915</ele>
        <time>2019-10-27T12:05:21.000Z</time>
      </trkpt>
      <trkpt lat="37.622455023229122161865234375" lon="-2.151360623538494110107421875">
        <ele>917</ele>
        <time>2019-10-27T12:05:25.000Z</time>
      </trkpt>
      <trkpt lat="37.6223827712237834930419921875" lon="-2.15157981030642986297607421875">
        <ele>918.4000244140625</ele>
        <time>2019-10-27T12:05:32.000Z</time>
      </trkpt>
      <trkpt lat="37.62227104045450687408447265625" lon="-2.15180243365466594696044921875">
        <ele>918</ele>
        <time>2019-10-27T12:05:39.000Z</time>
      </trkpt>
      <trkpt lat="37.622138522565364837646484375" lon="-2.15199530124664306640625">
        <ele>917</ele>
        <time>2019-10-27T12:05:45.000Z</time>
      </trkpt>
      <trkpt lat="37.6220847107470035552978515625" lon="-2.1520628593862056732177734375">
        <ele>916.4000244140625</ele>
        <time>2019-10-27T12:05:47.000Z</time>
      </trkpt>
      <trkpt lat="37.6219291426241397857666015625" lon="-2.15225622989237308502197265625">
        <ele>914.79998779296875</ele>
        <time>2019-10-27T12:05:51.000Z</time>
      </trkpt>
      <trkpt lat="37.62179486453533172607421875" lon="-2.1524527855217456817626953125">
        <ele>913.5999755859375</ele>
        <time>2019-10-27T12:05:54.000Z</time>
      </trkpt>
      <trkpt lat="37.621652372181415557861328125" lon="-2.1526425518095493316650390625">
        <ele>912.4000244140625</ele>
        <time>2019-10-27T12:05:57.000Z</time>
      </trkpt>
      <trkpt lat="37.62151599861681461334228515625" lon="-2.152844555675983428955078125">
        <ele>912.20001220703125</ele>
        <time>2019-10-27T12:06:00.000Z</time>
      </trkpt>
      <trkpt lat="37.6214748434722423553466796875" lon="-2.1529174782335758209228515625">
        <ele>912.20001220703125</ele>
        <time>2019-10-27T12:06:01.000Z</time>
      </trkpt>
      <trkpt lat="37.621376775205135345458984375" lon="-2.15316181071102619171142578125">
        <ele>913</ele>
        <time>2019-10-27T12:06:04.000Z</time>
      </trkpt>
      <trkpt lat="37.6212954707443714141845703125" lon="-2.15337638743221759796142578125">
        <ele>914</ele>
        <time>2019-10-27T12:06:07.000Z</time>
      </trkpt>
      <trkpt lat="37.62123352847993373870849609375" lon="-2.15359029360115528106689453125">
        <ele>914.79998779296875</ele>
        <time>2019-10-27T12:06:12.000Z</time>
      </trkpt>
      <trkpt lat="37.62116253376007080078125" lon="-2.153741084039211273193359375">
        <ele>915.5999755859375</ele>
        <time>2019-10-27T12:06:17.000Z</time>
      </trkpt>
      <trkpt lat="37.621122300624847412109375" lon="-2.15382196940481662750244140625">
        <ele>916.4000244140625</ele>
        <time>2019-10-27T12:06:20.000Z</time>
      </trkpt>
      <trkpt lat="37.62097285129129886627197265625" lon="-2.15399648062884807586669921875">
        <ele>918.20001220703125</ele>
        <time>2019-10-27T12:06:28.000Z</time>
      </trkpt>
      <trkpt lat="37.6209514774382114410400390625" lon="-2.15401827357709407806396484375">
        <ele>918.4000244140625</ele>
        <time>2019-10-27T12:06:29.000Z</time>
      </trkpt>
      <trkpt lat="37.620857097208499908447265625" lon="-2.15411282144486904144287109375">
        <ele>919.4000244140625</ele>
        <time>2019-10-27T12:06:33.000Z</time>
      </trkpt>
      <trkpt lat="37.62071552686393260955810546875" lon="-2.15431650169193744659423828125">
        <ele>921.20001220703125</ele>
        <time>2019-10-27T12:06:38.000Z</time>
      </trkpt>
      <trkpt lat="37.62060974724590778350830078125" lon="-2.1545348502695560455322265625">
        <ele>923.79998779296875</ele>
        <time>2019-10-27T12:06:45.000Z</time>
      </trkpt>
      <trkpt lat="37.62052349746227264404296875" lon="-2.1547460742294788360595703125">
        <ele>925.5999755859375</ele>
        <time>2019-10-27T12:06:52.000Z</time>
      </trkpt>
      <trkpt lat="37.62041763402521610260009765625" lon="-2.1549710445106029510498046875">
        <ele>926.5999755859375</ele>
        <time>2019-10-27T12:06:59.000Z</time>
      </trkpt>
      <trkpt lat="37.62029659934341907501220703125" lon="-2.15515804477035999298095703125">
        <ele>926.5999755859375</ele>
        <time>2019-10-27T12:07:05.000Z</time>
      </trkpt>
      <trkpt lat="37.62017422355711460113525390625" lon="-2.15532727539539337158203125">
        <ele>925</ele>
        <time>2019-10-27T12:07:10.000Z</time>
      </trkpt>
      <trkpt lat="37.6200368441641330718994140625" lon="-2.15552886016666889190673828125">
        <ele>923.79998779296875</ele>
        <time>2019-10-27T12:07:15.000Z</time>
      </trkpt>
      <trkpt lat="37.61992268264293670654296875" lon="-2.1557153575122356414794921875">
        <ele>924.20001220703125</ele>
        <time>2019-10-27T12:07:19.000Z</time>
      </trkpt>
      <trkpt lat="37.61979787610471248626708984375" lon="-2.15593747794628143310546875">
        <ele>924</ele>
        <time>2019-10-27T12:07:24.000Z</time>
      </trkpt>
      <trkpt lat="37.6196898333728313446044921875" lon="-2.15614845044910907745361328125">
        <ele>924.20001220703125</ele>
        <time>2019-10-27T12:07:29.000Z</time>
      </trkpt>
      <trkpt lat="37.619581036269664764404296875" lon="-2.15637275017797946929931640625">
        <ele>924.20001220703125</ele>
        <time>2019-10-27T12:07:34.000Z</time>
      </trkpt>
      <trkpt lat="37.61947617866098880767822265625" lon="-2.15656855143606662750244140625">
        <ele>923</ele>
        <time>2019-10-27T12:07:38.000Z</time>
      </trkpt>
      <trkpt lat="37.61934055946767330169677734375" lon="-2.156820930540561676025390625">
        <ele>923</ele>
        <time>2019-10-27T12:07:42.000Z</time>
      </trkpt>
      <trkpt lat="37.619216926395893096923828125" lon="-2.15709258802235126495361328125">
        <ele>923</ele>
        <time>2019-10-27T12:07:45.000Z</time>
      </trkpt>
      <trkpt lat="37.6191493682563304901123046875" lon="-2.1572586335241794586181640625">
        <ele>923.5999755859375</ele>
        <time>2019-10-27T12:07:47.000Z</time>
      </trkpt>
      <trkpt lat="37.6190980710089206695556640625" lon="-2.15749743394553661346435546875">
        <ele>924.20001220703125</ele>
        <time>2019-10-27T12:07:51.000Z</time>
      </trkpt>
      <trkpt lat="37.619086168706417083740234375" lon="-2.15754169039428234100341796875">
        <ele>924.20001220703125</ele>
        <time>2019-10-27T12:07:52.000Z</time>
      </trkpt>
      <trkpt lat="37.61905624531209468841552734375" lon="-2.157702036201953887939453125">
        <ele>924</ele>
        <time>2019-10-27T12:07:56.000Z</time>
      </trkpt>
      <trkpt lat="37.6189790479838848114013671875" lon="-2.15795374475419521331787109375">
        <ele>923.4000244140625</ele>
        <time>2019-10-27T12:08:02.000Z</time>
      </trkpt>
      <trkpt lat="37.61889279820024967193603515625" lon="-2.15819296427071094512939453125">
        <ele>922.79998779296875</ele>
        <time>2019-10-27T12:08:07.000Z</time>
      </trkpt>
      <trkpt lat="37.6187983341515064239501953125" lon="-2.1584354527294635772705078125">
        <ele>922.79998779296875</ele>
        <time>2019-10-27T12:08:11.000Z</time>
      </trkpt>
      <trkpt lat="37.61874343268573284149169921875" lon="-2.15871683321893215179443359375">
        <ele>922.79998779296875</ele>
        <time>2019-10-27T12:08:14.000Z</time>
      </trkpt>
      <trkpt lat="37.61869096197187900543212890625" lon="-2.15902931056916713714599609375">
        <ele>924.20001220703125</ele>
        <time>2019-10-27T12:08:17.000Z</time>
      </trkpt>
      <trkpt lat="37.618648968636989593505859375" lon="-2.15923248790204524993896484375">
        <ele>924.5999755859375</ele>
        <time>2019-10-27T12:08:19.000Z</time>
      </trkpt>
      <trkpt lat="37.618591301143169403076171875" lon="-2.1594665944576263427734375">
        <ele>925.4000244140625</ele>
        <time>2019-10-27T12:08:22.000Z</time>
      </trkpt>
      <trkpt lat="37.618567161262035369873046875" lon="-2.159711681306362152099609375">
        <ele>927.20001220703125</ele>
        <time>2019-10-27T12:08:27.000Z</time>
      </trkpt>
      <trkpt lat="37.61855869553983211517333984375" lon="-2.1597839333117008209228515625">
        <ele>927.5999755859375</ele>
        <time>2019-10-27T12:08:29.000Z</time>
      </trkpt>
      <trkpt lat="37.6185648143291473388671875" lon="-2.15994243510067462921142578125">
        <ele>928.5999755859375</ele>
        <time>2019-10-27T12:08:34.000Z</time>
      </trkpt>
      <trkpt lat="37.61855903081595897674560546875" lon="-2.159997336566448211669921875">
        <ele>928.4000244140625</ele>
        <time>2019-10-27T12:08:36.000Z</time>
      </trkpt>
      <trkpt lat="37.61856422759592533111572265625" lon="-2.16010160744190216064453125">
        <ele>929</ele>
        <time>2019-10-27T12:08:40.000Z</time>
      </trkpt>
      <trkpt lat="37.61856322176754474639892578125" lon="-2.16015256941318511962890625">
        <ele>929.20001220703125</ele>
        <time>2019-10-27T12:08:42.000Z</time>
      </trkpt>
      <trkpt lat="37.61856858618557453155517578125" lon="-2.16023026965558528900146484375">
        <ele>929.5999755859375</ele>
        <time>2019-10-27T12:08:45.000Z</time>
      </trkpt>
      <trkpt lat="37.61856892146170139312744140625" lon="-2.16027921997010707855224609375">
        <ele>929.79998779296875</ele>
        <time>2019-10-27T12:08:47.000Z</time>
      </trkpt>
      <trkpt lat="37.618563473224639892578125" lon="-2.16043294407427310943603515625">
        <ele>930.79998779296875</ele>
        <time>2019-10-27T12:08:53.000Z</time>
      </trkpt>
      <trkpt lat="37.61853790841996669769287109375" lon="-2.16067962348461151123046875">
        <ele>930.79998779296875</ele>
        <time>2019-10-27T12:09:01.000Z</time>
      </trkpt>
      <trkpt lat="37.61851293034851551055908203125" lon="-2.16092010028660297393798828125">
        <ele>930</ele>
        <time>2019-10-27T12:09:07.000Z</time>
      </trkpt>
      <trkpt lat="37.6184902153909206390380859375" lon="-2.16118010692298412322998046875">
        <ele>928.5999755859375</ele>
        <time>2019-10-27T12:09:12.000Z</time>
      </trkpt>
      <trkpt lat="37.61845693923532962799072265625" lon="-2.1614056639373302459716796875">
        <ele>927</ele>
        <time>2019-10-27T12:09:16.000Z</time>
      </trkpt>
      <trkpt lat="37.618408240377902984619140625" lon="-2.16169157065451145172119140625">
        <ele>926</ele>
        <time>2019-10-27T12:09:20.000Z</time>
      </trkpt>
      <trkpt lat="37.618394158780574798583984375" lon="-2.16199927031993865966796875">
        <ele>926.20001220703125</ele>
        <time>2019-10-27T12:09:23.000Z</time>
      </trkpt>
      <trkpt lat="37.6183829270303249359130859375" lon="-2.1622998453676700592041015625">
        <ele>926.79998779296875</ele>
        <time>2019-10-27T12:09:26.000Z</time>
      </trkpt>
      <trkpt lat="37.6183815859258174896240234375" lon="-2.16253730468451976776123046875">
        <ele>928.20001220703125</ele>
        <time>2019-10-27T12:09:30.000Z</time>
      </trkpt>
      <trkpt lat="37.6183758862316608428955078125" lon="-2.16277115978300571441650390625">
        <ele>929</ele>
        <time>2019-10-27T12:09:37.000Z</time>
      </trkpt>
      <trkpt lat="37.61835417710244655609130859375" lon="-2.16299914754927158355712890625">
        <ele>929</ele>
        <time>2019-10-27T12:09:42.000Z</time>
      </trkpt>
      <trkpt lat="37.61833808384835720062255859375" lon="-2.163245491683483123779296875">
        <ele>929.5999755859375</ele>
        <time>2019-10-27T12:09:47.000Z</time>
      </trkpt>
      <trkpt lat="37.618326433002948760986328125" lon="-2.16350457631051540374755859375">
        <ele>930.5999755859375</ele>
        <time>2019-10-27T12:09:53.000Z</time>
      </trkpt>
      <trkpt lat="37.6183054782450199127197265625" lon="-2.16375502757728099822998046875">
        <ele>930.5999755859375</ele>
        <time>2019-10-27T12:09:59.000Z</time>
      </trkpt>
      <trkpt lat="37.618294246494770050048828125" lon="-2.163986451923847198486328125">
        <ele>930.4000244140625</ele>
        <time>2019-10-27T12:10:04.000Z</time>
      </trkpt>
      <trkpt lat="37.61828997172415256500244140625" lon="-2.1642427705228328704833984375">
        <ele>930.79998779296875</ele>
        <time>2019-10-27T12:10:08.000Z</time>
      </trkpt>
      <trkpt lat="37.61828393675386905670166015625" lon="-2.16453471221029758453369140625">
        <ele>931.4000244140625</ele>
        <time>2019-10-27T12:10:12.000Z</time>
      </trkpt>
      <trkpt lat="37.61828125454485416412353515625" lon="-2.16479220427572727203369140625">
        <ele>932.20001220703125</ele>
        <time>2019-10-27T12:10:16.000Z</time>
      </trkpt>
      <trkpt lat="37.61829189956188201904296875" lon="-2.16502622701227664947509765625">
        <ele>933</ele>
        <time>2019-10-27T12:10:20.000Z</time>
      </trkpt>
      <trkpt lat="37.61830824427306652069091796875" lon="-2.16516603715717792510986328125">
        <ele>933</ele>
        <time>2019-10-27T12:10:22.000Z</time>
      </trkpt>
      <trkpt lat="37.618332803249359130859375" lon="-2.16542855836451053619384765625">
        <ele>933.79998779296875</ele>
        <time>2019-10-27T12:10:25.000Z</time>
      </trkpt>
      <trkpt lat="37.6183319650590419769287109375" lon="-2.16551430523395538330078125">
        <ele>934.20001220703125</ele>
        <time>2019-10-27T12:10:26.000Z</time>
      </trkpt>
      <trkpt lat="37.6182994432747364044189453125" lon="-2.1657671034336090087890625">
        <ele>934.4000244140625</ele>
        <time>2019-10-27T12:10:30.000Z</time>
      </trkpt>
      <trkpt lat="37.61828376911580562591552734375" lon="-2.16588101349771022796630859375">
        <ele>934.79998779296875</ele>
        <time>2019-10-27T12:10:33.000Z</time>
      </trkpt>
      <trkpt lat="37.6182535104453563690185546875" lon="-2.16601428575813770294189453125">
        <ele>935.4000244140625</ele>
        <time>2019-10-27T12:10:38.000Z</time>
      </trkpt>
      <trkpt lat="37.61824630200862884521484375" lon="-2.1660378389060497283935546875">
        <ele>935.5999755859375</ele>
        <time>2019-10-27T12:10:39.000Z</time>
      </trkpt>
      <trkpt lat="37.61821411550045013427734375" lon="-2.1661330573260784149169921875">
        <ele>936</ele>
        <time>2019-10-27T12:10:43.000Z</time>
      </trkpt>
      <trkpt lat="37.61820967309176921844482421875" lon="-2.166155688464641571044921875">
        <ele>936</ele>
        <time>2019-10-27T12:10:44.000Z</time>
      </trkpt>
      <trkpt lat="37.6181812584400177001953125" lon="-2.1662980131804943084716796875">
        <ele>936.5999755859375</ele>
        <time>2019-10-27T12:10:50.000Z</time>
      </trkpt>
      <trkpt lat="37.6181874610483646392822265625" lon="-2.166468165814876556396484375">
        <ele>937.79998779296875</ele>
        <time>2019-10-27T12:10:57.000Z</time>
      </trkpt>
      <trkpt lat="37.61820866726338863372802734375" lon="-2.16669506393373012542724609375">
        <ele>939</ele>
        <time>2019-10-27T12:11:06.000Z</time>
      </trkpt>
      <trkpt lat="37.6182107627391815185546875" lon="-2.16693453490734100341796875">
        <ele>939.5999755859375</ele>
        <time>2019-10-27T12:11:14.000Z</time>
      </trkpt>
      <trkpt lat="37.61821503750979900360107421875" lon="-2.1671864949166774749755859375">
        <ele>939.5999755859375</ele>
        <time>2019-10-27T12:11:22.000Z</time>
      </trkpt>
      <trkpt lat="37.6182189770042896270751953125" lon="-2.167439796030521392822265625">
        <ele>940.20001220703125</ele>
        <time>2019-10-27T12:11:30.000Z</time>
      </trkpt>
      <trkpt lat="37.61822576634585857391357421875" lon="-2.16768957674503326416015625">
        <ele>941</ele>
        <time>2019-10-27T12:11:38.000Z</time>
      </trkpt>
      <trkpt lat="37.61824906803667545318603515625" lon="-2.16793675906956195831298828125">
        <ele>940.5999755859375</ele>
        <time>2019-10-27T12:11:46.000Z</time>
      </trkpt>
      <trkpt lat="37.61826641857624053955078125" lon="-2.1681681834161281585693359375">
        <ele>941</ele>
        <time>2019-10-27T12:11:53.000Z</time>
      </trkpt>
      <trkpt lat="37.6182826794683933258056640625" lon="-2.16841083951294422149658203125">
        <ele>941</ele>
        <time>2019-10-27T12:12:01.000Z</time>
      </trkpt>
      <trkpt lat="37.61830673553049564361572265625" lon="-2.1686482988297939300537109375">
        <ele>941.79998779296875</ele>
        <time>2019-10-27T12:12:09.000Z</time>
      </trkpt>
      <trkpt lat="37.61833691038191318511962890625" lon="-2.1688967384397983551025390625">
        <ele>943.20001220703125</ele>
        <time>2019-10-27T12:12:17.000Z</time>
      </trkpt>
      <trkpt lat="37.61835895478725433349609375" lon="-2.16912715695798397064208984375">
        <ele>944.20001220703125</ele>
        <time>2019-10-27T12:12:24.000Z</time>
      </trkpt>
      <trkpt lat="37.618378065526485443115234375" lon="-2.16935279779136180877685546875">
        <ele>945</ele>
        <time>2019-10-27T12:12:30.000Z</time>
      </trkpt>
      <trkpt lat="37.61840212158858776092529296875" lon="-2.1695884130895137786865234375">
        <ele>945.20001220703125</ele>
        <time>2019-10-27T12:12:36.000Z</time>
      </trkpt>
      <trkpt lat="37.61842877604067325592041015625" lon="-2.1698425523936748504638671875">
        <ele>945.4000244140625</ele>
        <time>2019-10-27T12:12:42.000Z</time>
      </trkpt>
      <trkpt lat="37.618453837931156158447265625" lon="-2.1700774133205413818359375">
        <ele>945</ele>
        <time>2019-10-27T12:12:47.000Z</time>
      </trkpt>
      <trkpt lat="37.61847051791846752166748046875" lon="-2.1703243441879749298095703125">
        <ele>945.5999755859375</ele>
        <time>2019-10-27T12:12:52.000Z</time>
      </trkpt>
      <trkpt lat="37.6184843480587005615234375" lon="-2.17058761976659297943115234375">
        <ele>944.79998779296875</ele>
        <time>2019-10-27T12:12:57.000Z</time>
      </trkpt>
      <trkpt lat="37.618496082723140716552734375" lon="-2.17084117233753204345703125">
        <ele>944.79998779296875</ele>
        <time>2019-10-27T12:13:01.000Z</time>
      </trkpt>
      <trkpt lat="37.618527598679065704345703125" lon="-2.1711132489144802093505859375">
        <ele>944.79998779296875</ele>
        <time>2019-10-27T12:13:06.000Z</time>
      </trkpt>
      <trkpt lat="37.61856674216687679290771484375" lon="-2.17135121114552021026611328125">
        <ele>945.4000244140625</ele>
        <time>2019-10-27T12:13:11.000Z</time>
      </trkpt>
      <trkpt lat="37.61859507299959659576416015625" lon="-2.171599902212619781494140625">
        <ele>946.5999755859375</ele>
        <time>2019-10-27T12:13:17.000Z</time>
      </trkpt>
      <trkpt lat="37.61863161809742450714111328125" lon="-2.171841971576213836669921875">
        <ele>947.79998779296875</ele>
        <time>2019-10-27T12:13:23.000Z</time>
      </trkpt>
      <trkpt lat="37.61866204440593719482421875" lon="-2.17210575006902217864990234375">
        <ele>948.20001220703125</ele>
        <time>2019-10-27T12:13:29.000Z</time>
      </trkpt>
      <trkpt lat="37.61869079433381557464599609375" lon="-2.17235553078353404998779296875">
        <ele>946.79998779296875</ele>
        <time>2019-10-27T12:13:34.000Z</time>
      </trkpt>
      <trkpt lat="37.618715353310108184814453125" lon="-2.17260296456515789031982421875">
        <ele>946.4000244140625</ele>
        <time>2019-10-27T12:13:39.000Z</time>
      </trkpt>
      <trkpt lat="37.61872180737555027008056640625" lon="-2.17283715493977069854736328125">
        <ele>945.20001220703125</ele>
        <time>2019-10-27T12:13:43.000Z</time>
      </trkpt>
      <trkpt lat="37.6187225617468357086181640625" lon="-2.17307603918015956878662109375">
        <ele>944.4000244140625</ele>
        <time>2019-10-27T12:13:46.000Z</time>
      </trkpt>
      <trkpt lat="37.61872775852680206298828125" lon="-2.173167653381824493408203125">
        <ele>944.20001220703125</ele>
        <time>2019-10-27T12:13:47.000Z</time>
      </trkpt>
      <trkpt lat="37.61876539327204227447509765625" lon="-2.17346169054508209228515625">
        <ele>943.5999755859375</ele>
        <time>2019-10-27T12:13:50.000Z</time>
      </trkpt>
      <trkpt lat="37.61882163584232330322265625" lon="-2.17379520647227764129638671875">
        <ele>943.20001220703125</ele>
        <time>2019-10-27T12:13:53.000Z</time>
      </trkpt>
      <trkpt lat="37.618839740753173828125" lon="-2.1740274690091609954833984375">
        <ele>944.20001220703125</ele>
        <time>2019-10-27T12:13:55.000Z</time>
      </trkpt>
      <trkpt lat="37.6188573427498340606689453125" lon="-2.17433231882750988006591796875">
        <ele>945.20001220703125</ele>
        <time>2019-10-27T12:13:58.000Z</time>
      </trkpt>
      <trkpt lat="37.61886631138622760772705078125" lon="-2.17458830215036869049072265625">
        <ele>946</ele>
        <time>2019-10-27T12:14:02.000Z</time>
      </trkpt>
      <trkpt lat="37.61887687258422374725341796875" lon="-2.17481763102114200592041015625">
        <ele>946.4000244140625</ele>
        <time>2019-10-27T12:14:08.000Z</time>
      </trkpt>
      <trkpt lat="37.6189290918409824371337890625" lon="-2.1750681661069393157958984375">
        <ele>947</ele>
        <time>2019-10-27T12:14:14.000Z</time>
      </trkpt>
      <trkpt lat="37.61896102689206600189208984375" lon="-2.175176627933979034423828125">
        <ele>947.4000244140625</ele>
        <time>2019-10-27T12:14:16.000Z</time>
      </trkpt>
      <trkpt lat="37.61898131109774112701416015625" lon="-2.1753105707466602325439453125">
        <ele>947.20001220703125</ele>
        <time>2019-10-27T12:14:18.000Z</time>
      </trkpt>
      <trkpt lat="37.61898818425834178924560546875" lon="-2.17543839477002620697021484375">
        <ele>946.79998779296875</ele>
        <time>2019-10-27T12:14:20.000Z</time>
      </trkpt>
      <trkpt lat="37.61898131109774112701416015625" lon="-2.175699658691883087158203125">
        <ele>946.5999755859375</ele>
        <time>2019-10-27T12:14:25.000Z</time>
      </trkpt>
      <trkpt lat="37.618982233107089996337890625" lon="-2.17574181966483592987060546875">
        <ele>946.5999755859375</ele>
        <time>2019-10-27T12:14:26.000Z</time>
      </trkpt>
      <trkpt lat="37.618988938629627227783203125" lon="-2.1758802048861980438232421875">
        <ele>947.20001220703125</ele>
        <time>2019-10-27T12:14:30.000Z</time>
      </trkpt>
      <trkpt lat="37.61898986063897609710693359375" lon="-2.17596494592726230621337890625">
        <ele>947.5999755859375</ele>
        <time>2019-10-27T12:14:33.000Z</time>
      </trkpt>
      <trkpt lat="37.6189981587231159210205078125" lon="-2.17610978521406650543212890625">
        <ele>947.79998779296875</ele>
        <time>2019-10-27T12:14:38.000Z</time>
      </trkpt>
      <trkpt lat="37.61904870159924030303955078125" lon="-2.176350094377994537353515625">
        <ele>949.20001220703125</ele>
        <time>2019-10-27T12:14:47.000Z</time>
      </trkpt>
      <trkpt lat="37.61910594999790191650390625" lon="-2.1765752322971820831298828125">
        <ele>951.5999755859375</ele>
        <time>2019-10-27T12:14:55.000Z</time>
      </trkpt>
      <trkpt lat="37.619137801229953765869140625" lon="-2.17681445181369781494140625">
        <ele>953.20001220703125</ele>
        <time>2019-10-27T12:15:04.000Z</time>
      </trkpt>
      <trkpt lat="37.61912472546100616455078125" lon="-2.177039086818695068359375">
        <ele>953.5999755859375</ele>
        <time>2019-10-27T12:15:13.000Z</time>
      </trkpt>
      <trkpt lat="37.61912631802260875701904296875" lon="-2.17705694027245044708251953125">
        <ele>953.5999755859375</ele>
        <time>2019-10-27T12:15:15.000Z</time>
      </trkpt>
      <trkpt lat="37.6191533915698528289794921875" lon="-2.17703799717128276824951171875">
        <ele>954</ele>
        <time>2019-10-27T12:17:17.000Z</time>
      </trkpt>
      <trkpt lat="37.619135119020938873291015625" lon="-2.17699558474123477935791015625">
        <ele>953.5999755859375</ele>
        <time>2019-10-27T12:19:39.000Z</time>
      </trkpt>
      <trkpt lat="37.61910460889339447021484375" lon="-2.17700916342437267303466796875">
        <ele>953.20001220703125</ele>
        <time>2019-10-27T12:21:47.000Z</time>
      </trkpt>
      <trkpt lat="37.61911265552043914794921875" lon="-2.177012600004673004150390625">
        <ele>953.4000244140625</ele>
        <time>2019-10-27T12:23:42.000Z</time>
      </trkpt>
      <trkpt lat="37.61912866495549678802490234375" lon="-2.17707387171685695648193359375">
        <ele>953.79998779296875</ele>
        <time>2019-10-27T12:25:31.000Z</time>
      </trkpt>
      <trkpt lat="37.6191118173301219940185546875" lon="-2.17730605043470859527587890625">
        <ele>953.79998779296875</ele>
        <time>2019-10-27T12:25:36.000Z</time>
      </trkpt>
      <trkpt lat="37.6190878450870513916015625" lon="-2.1775388158857822418212890625">
        <ele>953.4000244140625</ele>
        <time>2019-10-27T12:25:39.000Z</time>
      </trkpt>
      <trkpt lat="37.61913218535482883453369140625" lon="-2.1778284944593906402587890625">
        <ele>953</ele>
        <time>2019-10-27T12:25:42.000Z</time>
      </trkpt>
      <trkpt lat="37.6190923713147640228271484375" lon="-2.1781185083091259002685546875">
        <ele>952.79998779296875</ele>
        <time>2019-10-27T12:25:45.000Z</time>
      </trkpt>
      <trkpt lat="37.61905238963663578033447265625" lon="-2.17832746915519237518310546875">
        <ele>953</ele>
        <time>2019-10-27T12:25:49.000Z</time>
      </trkpt>
      <trkpt lat="37.61902556754648685455322265625" lon="-2.17855922877788543701171875">
        <ele>954.4000244140625</ele>
        <time>2019-10-27T12:25:57.000Z</time>
      </trkpt>
      <trkpt lat="37.6190020143985748291015625" lon="-2.17879735864698886871337890625">
        <ele>955.79998779296875</ele>
        <time>2019-10-27T12:26:05.000Z</time>
      </trkpt>
      <trkpt lat="37.618956081569194793701171875" lon="-2.1790455467998981475830078125">
        <ele>957.20001220703125</ele>
        <time>2019-10-27T12:26:11.000Z</time>
      </trkpt>
      <trkpt lat="37.61893068440258502960205078125" lon="-2.17929289676249027252197265625">
        <ele>957.79998779296875</ele>
        <time>2019-10-27T12:26:17.000Z</time>
      </trkpt>
      <trkpt lat="37.6188888587057590484619140625" lon="-2.179519794881343841552734375">
        <ele>958.20001220703125</ele>
        <time>2019-10-27T12:26:24.000Z</time>
      </trkpt>
      <trkpt lat="37.61886329390108585357666015625" lon="-2.17977150343358516693115234375">
        <ele>958.5999755859375</ele>
        <time>2019-10-27T12:26:32.000Z</time>
      </trkpt>
      <trkpt lat="37.618858851492404937744140625" lon="-2.1800104714930057525634765625">
        <ele>958.5999755859375</ele>
        <time>2019-10-27T12:26:40.000Z</time>
      </trkpt>
      <trkpt lat="37.61884552426636219024658203125" lon="-2.18024323694407939910888671875">
        <ele>959.20001220703125</ele>
        <time>2019-10-27T12:26:48.000Z</time>
      </trkpt>
      <trkpt lat="37.618794143199920654296875" lon="-2.18050022609531879425048828125">
        <ele>958.79998779296875</ele>
        <time>2019-10-27T12:26:55.000Z</time>
      </trkpt>
      <trkpt lat="37.61872549541294574737548828125" lon="-2.1807272918522357940673828125">
        <ele>958.4000244140625</ele>
        <time>2019-10-27T12:26:59.000Z</time>
      </trkpt>
      <trkpt lat="37.61865525506436824798583984375" lon="-2.18096056021749973297119140625">
        <ele>957.20001220703125</ele>
        <time>2019-10-27T12:27:02.000Z</time>
      </trkpt>
      <trkpt lat="37.618581913411617279052734375" lon="-2.18118779361248016357421875">
        <ele>957.20001220703125</ele>
        <time>2019-10-27T12:27:05.000Z</time>
      </trkpt>
      <trkpt lat="37.6185138523578643798828125" lon="-2.1814709343016147613525390625">
        <ele>958.20001220703125</ele>
        <time>2019-10-27T12:27:09.000Z</time>
      </trkpt>
      <trkpt lat="37.61848040856420993804931640625" lon="-2.1817217208445072174072265625">
        <ele>959.4000244140625</ele>
        <time>2019-10-27T12:27:13.000Z</time>
      </trkpt>
      <trkpt lat="37.61846624314785003662109375" lon="-2.18195633031427860260009765625">
        <ele>961</ele>
        <time>2019-10-27T12:27:18.000Z</time>
      </trkpt>
      <trkpt lat="37.61846045963466167449951171875" lon="-2.18199220485985279083251953125">
        <ele>961.20001220703125</ele>
        <time>2019-10-27T12:27:19.000Z</time>
      </trkpt>
      <trkpt lat="37.61843162588775157928466796875" lon="-2.18212648294866085052490234375">
        <ele>961.4000244140625</ele>
        <time>2019-10-27T12:27:23.000Z</time>
      </trkpt>
      <trkpt lat="37.6183561049401760101318359375" lon="-2.18229688704013824462890625">
        <ele>960.79998779296875</ele>
        <time>2019-10-27T12:27:28.000Z</time>
      </trkpt>
      <trkpt lat="37.61825342662632465362548828125" lon="-2.1825320832431316375732421875">
        <ele>959.79998779296875</ele>
        <time>2019-10-27T12:27:32.000Z</time>
      </trkpt>
      <trkpt lat="37.6181475631892681121826171875" lon="-2.18278010375797748565673828125">
        <ele>959</ele>
        <time>2019-10-27T12:27:35.000Z</time>
      </trkpt>
      <trkpt lat="37.61810339055955410003662109375" lon="-2.18302887864410877227783203125">
        <ele>959.5999755859375</ele>
        <time>2019-10-27T12:27:38.000Z</time>
      </trkpt>
      <trkpt lat="37.6180764846503734588623046875" lon="-2.18325535766780376434326171875">
        <ele>961</ele>
        <time>2019-10-27T12:27:42.000Z</time>
      </trkpt>
      <trkpt lat="37.61804019100964069366455078125" lon="-2.18344981782138347625732421875">
        <ele>962</ele>
        <time>2019-10-27T12:27:47.000Z</time>
      </trkpt>
      <trkpt lat="37.617998532950878143310546875" lon="-2.18362801708281040191650390625">
        <ele>962.79998779296875</ele>
        <time>2019-10-27T12:27:52.000Z</time>
      </trkpt>
      <trkpt lat="37.6179023087024688720703125" lon="-2.183844856917858123779296875">
        <ele>963.4000244140625</ele>
        <time>2019-10-27T12:27:58.000Z</time>
      </trkpt>
      <trkpt lat="37.61779409833252429962158203125" lon="-2.1840609423816204071044921875">
        <ele>963.5999755859375</ele>
        <time>2019-10-27T12:28:03.000Z</time>
      </trkpt>
      <trkpt lat="37.6176942698657512664794921875" lon="-2.1842507086694240570068359375">
        <ele>962.4000244140625</ele>
        <time>2019-10-27T12:28:07.000Z</time>
      </trkpt>
      <trkpt lat="37.61757365427911281585693359375" lon="-2.18444340862333774566650390625">
        <ele>960.5999755859375</ele>
        <time>2019-10-27T12:28:10.000Z</time>
      </trkpt>
      <trkpt lat="37.61742764152586460113525390625" lon="-2.18469344079494476318359375">
        <ele>959</ele>
        <time>2019-10-27T12:28:13.000Z</time>
      </trkpt>
      <trkpt lat="37.61730727739632129669189453125" lon="-2.18495990149676799774169921875">
        <ele>958.4000244140625</ele>
        <time>2019-10-27T12:28:16.000Z</time>
      </trkpt>
      <trkpt lat="37.617203257977962493896484375" lon="-2.1851743943989276885986328125">
        <ele>957.5999755859375</ele>
        <time>2019-10-27T12:28:19.000Z</time>
      </trkpt>
      <trkpt lat="37.61708800680935382843017578125" lon="-2.18538939021527767181396484375">
        <ele>957.5999755859375</ele>
        <time>2019-10-27T12:28:22.000Z</time>
      </trkpt>
      <trkpt lat="37.6169814728200435638427734375" lon="-2.1856058947741985321044921875">
        <ele>959</ele>
        <time>2019-10-27T12:28:25.000Z</time>
      </trkpt>
      <trkpt lat="37.61689287610352039337158203125" lon="-2.185812927782535552978515625">
        <ele>961.4000244140625</ele>
        <time>2019-10-27T12:28:29.000Z</time>
      </trkpt>
      <trkpt lat="37.616865970194339752197265625" lon="-2.18587604351341724395751953125">
        <ele>962.20001220703125</ele>
        <time>2019-10-27T12:28:31.000Z</time>
      </trkpt>
      <trkpt lat="37.6168426685035228729248046875" lon="-2.18592968769371509552001953125">
        <ele>963</ele>
        <time>2019-10-27T12:28:33.000Z</time>
      </trkpt>
      <trkpt lat="37.6168026030063629150390625" lon="-2.18603395856916904449462890625">
        <ele>964.5999755859375</ele>
        <time>2019-10-27T12:28:37.000Z</time>
      </trkpt>
      <trkpt lat="37.6167846657335758209228515625" lon="-2.1860839985311031341552734375">
        <ele>964.79998779296875</ele>
        <time>2019-10-27T12:28:39.000Z</time>
      </trkpt>
      <trkpt lat="37.61673814617097377777099609375" lon="-2.18621349893510341644287109375">
        <ele>965.5999755859375</ele>
        <time>2019-10-27T12:28:44.000Z</time>
      </trkpt>
      <trkpt lat="37.616715766489505767822265625" lon="-2.186265550553798675537109375">
        <ele>965.79998779296875</ele>
        <time>2019-10-27T12:28:46.000Z</time>
      </trkpt>
      <trkpt lat="37.61663161218166351318359375" lon="-2.18647769652307033538818359375">
        <ele>966.20001220703125</ele>
        <time>2019-10-27T12:28:54.000Z</time>
      </trkpt>
      <trkpt lat="37.6166210509836673736572265625" lon="-2.18650368042290210723876953125">
        <ele>966.4000244140625</ele>
        <time>2019-10-27T12:28:55.000Z</time>
      </trkpt>
      <trkpt lat="37.61654217727482318878173828125" lon="-2.18671674840152263641357421875">
        <ele>966.20001220703125</ele>
        <time>2019-10-27T12:29:03.000Z</time>
      </trkpt>
      <trkpt lat="37.6164443604648113250732421875" lon="-2.18691674061119556427001953125">
        <ele>965.4000244140625</ele>
        <time>2019-10-27T12:29:10.000Z</time>
      </trkpt>
      <trkpt lat="37.616309411823749542236328125" lon="-2.187086977064609527587890625">
        <ele>965</ele>
        <time>2019-10-27T12:29:15.000Z</time>
      </trkpt>
      <trkpt lat="37.6161530055105686187744140625" lon="-2.18722217716276645660400390625">
        <ele>963.79998779296875</ele>
        <time>2019-10-27T12:29:18.000Z</time>
      </trkpt>
      <trkpt lat="37.61595997028052806854248046875" lon="-2.18741831369698047637939453125">
        <ele>961</ele>
        <time>2019-10-27T12:29:21.000Z</time>
      </trkpt>
      <trkpt lat="37.6158318109810352325439453125" lon="-2.18760338611900806427001953125">
        <ele>960.4000244140625</ele>
        <time>2019-10-27T12:29:23.000Z</time>
      </trkpt>
      <trkpt lat="37.615699879825115203857421875" lon="-2.18780212104320526123046875">
        <ele>960.20001220703125</ele>
        <time>2019-10-27T12:29:25.000Z</time>
      </trkpt>
      <trkpt lat="37.61555730365216732025146484375" lon="-2.1879866905510425567626953125">
        <ele>960.20001220703125</ele>
        <time>2019-10-27T12:29:27.000Z</time>
      </trkpt>
      <trkpt lat="37.61538228951394557952880859375" lon="-2.18819062225520610809326171875">
        <ele>962.4000244140625</ele>
        <time>2019-10-27T12:29:30.000Z</time>
      </trkpt>
      <trkpt lat="37.61534725315868854522705078125" lon="-2.18824460171163082122802734375">
        <ele>962.79998779296875</ele>
        <time>2019-10-27T12:29:31.000Z</time>
      </trkpt>
      <trkpt lat="37.61525404639542102813720703125" lon="-2.188401259481906890869140625">
        <ele>964.5999755859375</ele>
        <time>2019-10-27T12:29:36.000Z</time>
      </trkpt>
      <trkpt lat="37.615223787724971771240234375" lon="-2.1884507127106189727783203125">
        <ele>965.20001220703125</ele>
        <time>2019-10-27T12:29:38.000Z</time>
      </trkpt>
      <trkpt lat="37.615195624530315399169921875" lon="-2.18849589116871356964111328125">
        <ele>965.5999755859375</ele>
        <time>2019-10-27T12:29:40.000Z</time>
      </trkpt>
      <trkpt lat="37.615157067775726318359375" lon="-2.18859010376036167144775390625">
        <ele>966.4000244140625</ele>
        <time>2019-10-27T12:29:44.000Z</time>
      </trkpt>
      <trkpt lat="37.61511205695569515228271484375" lon="-2.1886837296187877655029296875">
        <ele>967.20001220703125</ele>
        <time>2019-10-27T12:29:48.000Z</time>
      </trkpt>
      <trkpt lat="37.61509713716804981231689453125" lon="-2.188705690205097198486328125">
        <ele>967.4000244140625</ele>
        <time>2019-10-27T12:29:49.000Z</time>
      </trkpt>
      <trkpt lat="37.61499202810227870941162109375" lon="-2.18889168463647365570068359375">
        <ele>968</ele>
        <time>2019-10-27T12:29:57.000Z</time>
      </trkpt>
      <trkpt lat="37.61488373391330242156982421875" lon="-2.1890967898070812225341796875">
        <ele>968</ele>
        <time>2019-10-27T12:30:05.000Z</time>
      </trkpt>
      <trkpt lat="37.61477611027657985687255859375" lon="-2.18928714282810688018798828125">
        <ele>968.5999755859375</ele>
        <time>2019-10-27T12:30:12.000Z</time>
      </trkpt>
      <trkpt lat="37.61461484245955944061279296875" lon="-2.1895024739205837249755859375">
        <ele>968</ele>
        <time>2019-10-27T12:30:18.000Z</time>
      </trkpt>
      <trkpt lat="37.614466063678264617919921875" lon="-2.18969584442675113677978515625">
        <ele>966.5999755859375</ele>
        <time>2019-10-27T12:30:21.000Z</time>
      </trkpt>
      <trkpt lat="37.61429415084421634674072265625" lon="-2.189970351755619049072265625">
        <ele>964</ele>
        <time>2019-10-27T12:30:24.000Z</time>
      </trkpt>
      <trkpt lat="37.6141970045864582061767578125" lon="-2.190199680626392364501953125">
        <ele>963</ele>
        <time>2019-10-27T12:30:26.000Z</time>
      </trkpt>
      <trkpt lat="37.6141346432268619537353515625" lon="-2.19041367061436176300048828125">
        <ele>963</ele>
        <time>2019-10-27T12:30:28.000Z</time>
      </trkpt>
      <trkpt lat="37.61408812366425991058349609375" lon="-2.19063453376293182373046875">
        <ele>963.5999755859375</ele>
        <time>2019-10-27T12:30:31.000Z</time>
      </trkpt>
      <trkpt lat="37.61405937373638153076171875" lon="-2.19073402695357799530029296875">
        <ele>964</ele>
        <time>2019-10-27T12:30:33.000Z</time>
      </trkpt>
      <trkpt lat="37.6139911450445652008056640625" lon="-2.19093569554388523101806640625">
        <ele>964.5999755859375</ele>
        <time>2019-10-27T12:30:38.000Z</time>
      </trkpt>
      <trkpt lat="37.61392165906727313995361328125" lon="-2.191194109618663787841796875">
        <ele>965</ele>
        <time>2019-10-27T12:30:43.000Z</time>
      </trkpt>
      <trkpt lat="37.61385275982320308685302734375" lon="-2.1914272941648960113525390625">
        <ele>964.79998779296875</ele>
        <time>2019-10-27T12:30:47.000Z</time>
      </trkpt>
      <trkpt lat="37.613780088722705841064453125" lon="-2.1916723810136318206787109375">
        <ele>965.20001220703125</ele>
        <time>2019-10-27T12:30:51.000Z</time>
      </trkpt>
      <trkpt lat="37.61376793496310710906982421875" lon="-2.19173247925937175750732421875">
        <ele>965.4000244140625</ele>
        <time>2019-10-27T12:30:52.000Z</time>
      </trkpt>
      <trkpt lat="37.61371898464858531951904296875" lon="-2.192005477845668792724609375">
        <ele>966</ele>
        <time>2019-10-27T12:30:57.000Z</time>
      </trkpt>
      <trkpt lat="37.613676153123378753662109375" lon="-2.192264311015605926513671875">
        <ele>966.79998779296875</ele>
        <time>2019-10-27T12:31:02.000Z</time>
      </trkpt>
      <trkpt lat="37.61363768018782138824462890625" lon="-2.19250361435115337371826171875">
        <ele>967.20001220703125</ele>
        <time>2019-10-27T12:31:07.000Z</time>
      </trkpt>
      <trkpt lat="37.6135871373116970062255859375" lon="-2.19276194460690021514892578125">
        <ele>967.4000244140625</ele>
        <time>2019-10-27T12:31:13.000Z</time>
      </trkpt>
      <trkpt lat="37.61355805210769176483154296875" lon="-2.1928904391825199127197265625">
        <ele>966.5999755859375</ele>
        <time>2019-10-27T12:31:16.000Z</time>
      </trkpt>
      <trkpt lat="37.61348663829267024993896484375" lon="-2.19315991736948490142822265625">
        <ele>965.4000244140625</ele>
        <time>2019-10-27T12:31:20.000Z</time>
      </trkpt>
      <trkpt lat="37.6134412921965122222900390625" lon="-2.19347390346229076385498046875">
        <ele>965.4000244140625</ele>
        <time>2019-10-27T12:31:23.000Z</time>
      </trkpt>
      <trkpt lat="37.613397538661956787109375" lon="-2.19371764920651912689208984375">
        <ele>966.4000244140625</ele>
        <time>2019-10-27T12:31:25.000Z</time>
      </trkpt>
      <trkpt lat="37.61336577124893665313720703125" lon="-2.19381622038781642913818359375">
        <ele>967</ele>
        <time>2019-10-27T12:31:26.000Z</time>
      </trkpt>
      <trkpt lat="37.61327507905662059783935546875" lon="-2.194064073264598846435546875">
        <ele>967.5999755859375</ele>
        <time>2019-10-27T12:31:30.000Z</time>
      </trkpt>
      <trkpt lat="37.61321959085762500762939453125" lon="-2.19426884315907955169677734375">
        <ele>968.4000244140625</ele>
        <time>2019-10-27T12:31:35.000Z</time>
      </trkpt>
      <trkpt lat="37.61319209821522235870361328125" lon="-2.19440496526658535003662109375">
        <ele>969</ele>
        <time>2019-10-27T12:31:39.000Z</time>
      </trkpt>
      <trkpt lat="37.61316427029669284820556640625" lon="-2.1946410834789276123046875">
        <ele>970.20001220703125</ele>
        <time>2019-10-27T12:31:47.000Z</time>
      </trkpt>
      <trkpt lat="37.61312537826597690582275390625" lon="-2.1948742680251598358154296875">
        <ele>971.20001220703125</ele>
        <time>2019-10-27T12:31:54.000Z</time>
      </trkpt>
      <trkpt lat="37.61302764527499675750732421875" lon="-2.1951305866241455078125">
        <ele>971.20001220703125</ele>
        <time>2019-10-27T12:31:59.000Z</time>
      </trkpt>
      <trkpt lat="37.612957656383514404296875" lon="-2.19536670483648777008056640625">
        <ele>971.20001220703125</ele>
        <time>2019-10-27T12:32:03.000Z</time>
      </trkpt>
      <trkpt lat="37.61289353482425212860107421875" lon="-2.1955813653767108917236328125">
        <ele>971</ele>
        <time>2019-10-27T12:32:07.000Z</time>
      </trkpt>
      <trkpt lat="37.61283226311206817626953125" lon="-2.19574548304080963134765625">
        <ele>970.20001220703125</ele>
        <time>2019-10-27T12:32:10.000Z</time>
      </trkpt>
      <trkpt lat="37.61273360811173915863037109375" lon="-2.195991240441799163818359375">
        <ele>969.4000244140625</ele>
        <time>2019-10-27T12:32:14.000Z</time>
      </trkpt>
      <trkpt lat="37.61263939552009105682373046875" lon="-2.19624043442308902740478515625">
        <ele>969.5999755859375</ele>
        <time>2019-10-27T12:32:18.000Z</time>
      </trkpt>
      <trkpt lat="37.612544260919094085693359375" lon="-2.1964685060083866119384765625">
        <ele>969</ele>
        <time>2019-10-27T12:32:22.000Z</time>
      </trkpt>
      <trkpt lat="37.612500004470348358154296875" lon="-2.19657788984477519989013671875">
        <ele>968.79998779296875</ele>
        <time>2019-10-27T12:32:24.000Z</time>
      </trkpt>
      <trkpt lat="37.6124029420316219329833984375" lon="-2.196788527071475982666015625">
        <ele>968.79998779296875</ele>
        <time>2019-10-27T12:32:28.000Z</time>
      </trkpt>
      <trkpt lat="37.6123000122606754302978515625" lon="-2.197000086307525634765625">
        <ele>969.4000244140625</ele>
        <time>2019-10-27T12:32:32.000Z</time>
      </trkpt>
      <trkpt lat="37.6121985912322998046875" lon="-2.1972294151782989501953125">
        <ele>970</ele>
        <time>2019-10-27T12:32:36.000Z</time>
      </trkpt>
      <trkpt lat="37.61209339834749698638916015625" lon="-2.1974619291722774505615234375">
        <ele>969.79998779296875</ele>
        <time>2019-10-27T12:32:40.000Z</time>
      </trkpt>
      <trkpt lat="37.61200002394616603851318359375" lon="-2.1977100335061550140380859375">
        <ele>969.20001220703125</ele>
        <time>2019-10-27T12:32:44.000Z</time>
      </trkpt>
      <trkpt lat="37.6119221560657024383544921875" lon="-2.1979376859962940216064453125">
        <ele>969.5999755859375</ele>
        <time>2019-10-27T12:32:47.000Z</time>
      </trkpt>
      <trkpt lat="37.6118524186313152313232421875" lon="-2.19809585250914096832275390625">
        <ele>970.4000244140625</ele>
        <time>2019-10-27T12:32:49.000Z</time>
      </trkpt>
      <trkpt lat="37.6117333956062793731689453125" lon="-2.19827346503734588623046875">
        <ele>971</ele>
        <time>2019-10-27T12:32:52.000Z</time>
      </trkpt>
      <trkpt lat="37.611628957092761993408203125" lon="-2.19841855578124523162841796875">
        <ele>971.4000244140625</ele>
        <time>2019-10-27T12:32:56.000Z</time>
      </trkpt>
      <trkpt lat="37.6115533523261547088623046875" lon="-2.198577560484409332275390625">
        <ele>971.5999755859375</ele>
        <time>2019-10-27T12:33:02.000Z</time>
      </trkpt>
      <trkpt lat="37.61154019273817539215087890625" lon="-2.1986236609518527984619140625">
        <ele>971.79998779296875</ele>
        <time>2019-10-27T12:33:04.000Z</time>
      </trkpt>
      <trkpt lat="37.6115017198026180267333984375" lon="-2.198739163577556610107421875">
        <ele>972</ele>
        <time>2019-10-27T12:33:09.000Z</time>
      </trkpt>
      <trkpt lat="37.61141496710479259490966796875" lon="-2.1989572606980800628662109375">
        <ele>973</ele>
        <time>2019-10-27T12:33:18.000Z</time>
      </trkpt>
      <trkpt lat="37.6112982071936130523681640625" lon="-2.19916689209640026092529296875">
        <ele>974.20001220703125</ele>
        <time>2019-10-27T12:33:25.000Z</time>
      </trkpt>
      <trkpt lat="37.61118563823401927947998046875" lon="-2.199354730546474456787109375">
        <ele>975</ele>
        <time>2019-10-27T12:33:30.000Z</time>
      </trkpt>
      <trkpt lat="37.61107566766440868377685546875" lon="-2.1995577402412891387939453125">
        <ele>975.4000244140625</ele>
        <time>2019-10-27T12:33:34.000Z</time>
      </trkpt>
      <trkpt lat="37.6109589077532291412353515625" lon="-2.1997649408876895904541015625">
        <ele>975.4000244140625</ele>
        <time>2019-10-27T12:33:38.000Z</time>
      </trkpt>
      <trkpt lat="37.6108509488403797149658203125" lon="-2.19997775740921497344970703125">
        <ele>975.20001220703125</ele>
        <time>2019-10-27T12:33:43.000Z</time>
      </trkpt>
      <trkpt lat="37.61074424721300601959228515625" lon="-2.20018965192139148712158203125">
        <ele>975.5999755859375</ele>
        <time>2019-10-27T12:33:48.000Z</time>
      </trkpt>
      <trkpt lat="37.61064064688980579376220703125" lon="-2.2004046477377414703369140625">
        <ele>976.79998779296875</ele>
        <time>2019-10-27T12:33:54.000Z</time>
      </trkpt>
      <trkpt lat="37.610531263053417205810546875" lon="-2.20062517561018466949462890625">
        <ele>977.5999755859375</ele>
        <time>2019-10-27T12:34:01.000Z</time>
      </trkpt>
      <trkpt lat="37.61043344624340534210205078125" lon="-2.20081963576376438140869140625">
        <ele>977.79998779296875</ele>
        <time>2019-10-27T12:34:07.000Z</time>
      </trkpt>
      <trkpt lat="37.61033806018531322479248046875" lon="-2.20102767460048198699951171875">
        <ele>978.20001220703125</ele>
        <time>2019-10-27T12:34:13.000Z</time>
      </trkpt>
      <trkpt lat="37.610209397971630096435546875" lon="-2.20125339925289154052734375">
        <ele>977.20001220703125</ele>
        <time>2019-10-27T12:34:19.000Z</time>
      </trkpt>
      <trkpt lat="37.61007227003574371337890625" lon="-2.20147610642015933990478515625">
        <ele>976.4000244140625</ele>
        <time>2019-10-27T12:34:23.000Z</time>
      </trkpt>
      <trkpt lat="37.6099576056003570556640625" lon="-2.20171029679477214813232421875">
        <ele>976.4000244140625</ele>
        <time>2019-10-27T12:34:27.000Z</time>
      </trkpt>
      <trkpt lat="37.60985626839101314544677734375" lon="-2.20191858708858489990234375">
        <ele>977.20001220703125</ele>
        <time>2019-10-27T12:34:33.000Z</time>
      </trkpt>
      <trkpt lat="37.60975970886647701263427734375" lon="-2.20212000422179698944091796875">
        <ele>978</ele>
        <time>2019-10-27T12:34:39.000Z</time>
      </trkpt>
      <trkpt lat="37.60965493507683277130126953125" lon="-2.2023482434451580047607421875">
        <ele>978</ele>
        <time>2019-10-27T12:34:46.000Z</time>
      </trkpt>
      <trkpt lat="37.609553597867488861083984375" lon="-2.20256290398538112640380859375">
        <ele>978</ele>
        <time>2019-10-27T12:34:52.000Z</time>
      </trkpt>
      <trkpt lat="37.60943750850856304168701171875" lon="-2.20276893116533756256103515625">
        <ele>978.20001220703125</ele>
        <time>2019-10-27T12:34:58.000Z</time>
      </trkpt>
      <trkpt lat="37.609338350594043731689453125" lon="-2.20298216678202152252197265625">
        <ele>978.5999755859375</ele>
        <time>2019-10-27T12:35:04.000Z</time>
      </trkpt>
      <trkpt lat="37.6092468202114105224609375" lon="-2.20320470631122589111328125">
        <ele>979.79998779296875</ele>
        <time>2019-10-27T12:35:11.000Z</time>
      </trkpt>
      <trkpt lat="37.6091641746461391448974609375" lon="-2.2034409083425998687744140625">
        <ele>980.5999755859375</ele>
        <time>2019-10-27T12:35:19.000Z</time>
      </trkpt>
      <trkpt lat="37.609055042266845703125" lon="-2.20364433713257312774658203125">
        <ele>980</ele>
        <time>2019-10-27T12:35:26.000Z</time>
      </trkpt>
      <trkpt lat="37.6089115440845489501953125" lon="-2.20385489054024219512939453125">
        <ele>978.79998779296875</ele>
        <time>2019-10-27T12:35:32.000Z</time>
      </trkpt>
      <trkpt lat="37.60879109613597393035888671875" lon="-2.20406812615692615509033203125">
        <ele>977.5999755859375</ele>
        <time>2019-10-27T12:35:36.000Z</time>
      </trkpt>
      <trkpt lat="37.60864575393497943878173828125" lon="-2.20431673340499401092529296875">
        <ele>977</ele>
        <time>2019-10-27T12:35:39.000Z</time>
      </trkpt>
      <trkpt lat="37.60852220468223094940185546875" lon="-2.20454656518995761871337890625">
        <ele>977.5999755859375</ele>
        <time>2019-10-27T12:35:42.000Z</time>
      </trkpt>
      <trkpt lat="37.6084258966147899627685546875" lon="-2.204772792756557464599609375">
        <ele>978.4000244140625</ele>
        <time>2019-10-27T12:35:47.000Z</time>
      </trkpt>
      <trkpt lat="37.60833294130861759185791015625" lon="-2.20500371418893337249755859375">
        <ele>979.5999755859375</ele>
        <time>2019-10-27T12:35:54.000Z</time>
      </trkpt>
      <trkpt lat="37.60831936262547969818115234375" lon="-2.2050374932587146759033203125">
        <ele>979.79998779296875</ele>
        <time>2019-10-27T12:35:55.000Z</time>
      </trkpt>
      <trkpt lat="37.6082200370728969573974609375" lon="-2.20525718294084072113037109375">
        <ele>981</ele>
        <time>2019-10-27T12:36:02.000Z</time>
      </trkpt>
      <trkpt lat="37.6081757806241512298583984375" lon="-2.2053519822657108306884765625">
        <ele>981.4000244140625</ele>
        <time>2019-10-27T12:36:05.000Z</time>
      </trkpt>
      <trkpt lat="37.6080778799951076507568359375" lon="-2.20558072440326213836669921875">
        <ele>983</ele>
        <time>2019-10-27T12:36:11.000Z</time>
      </trkpt>
      <trkpt lat="37.6079846732318401336669921875" lon="-2.20581340603530406951904296875">
        <ele>984.4000244140625</ele>
        <time>2019-10-27T12:36:18.000Z</time>
      </trkpt>
      <trkpt lat="37.60790294967591762542724609375" lon="-2.20604474656283855438232421875">
        <ele>985.20001220703125</ele>
        <time>2019-10-27T12:36:26.000Z</time>
      </trkpt>
      <trkpt lat="37.60784695856273174285888671875" lon="-2.206264436244964599609375">
        <ele>986.20001220703125</ele>
        <time>2019-10-27T12:36:33.000Z</time>
      </trkpt>
      <trkpt lat="37.6077687554061412811279296875" lon="-2.20649787224829196929931640625">
        <ele>987</ele>
        <time>2019-10-27T12:36:40.000Z</time>
      </trkpt>
      <trkpt lat="37.60765417478978633880615234375" lon="-2.2066961042582988739013671875">
        <ele>986.4000244140625</ele>
        <time>2019-10-27T12:36:46.000Z</time>
      </trkpt>
      <trkpt lat="37.607512772083282470703125" lon="-2.20692283473908901214599609375">
        <ele>984.5999755859375</ele>
        <time>2019-10-27T12:36:50.000Z</time>
      </trkpt>
      <trkpt lat="37.6073691062629222869873046875" lon="-2.20718376338481903076171875">
        <ele>982.79998779296875</ele>
        <time>2019-10-27T12:36:53.000Z</time>
      </trkpt>
      <trkpt lat="37.60727740824222564697265625" lon="-2.2074057161808013916015625">
        <ele>982.20001220703125</ele>
        <time>2019-10-27T12:36:55.000Z</time>
      </trkpt>
      <trkpt lat="37.6072048209607601165771484375" lon="-2.20765507780015468597412109375">
        <ele>982</ele>
        <time>2019-10-27T12:36:57.000Z</time>
      </trkpt>
      <trkpt lat="37.6071448065340518951416015625" lon="-2.20790653489530086517333984375">
        <ele>982.79998779296875</ele>
        <time>2019-10-27T12:36:59.000Z</time>
      </trkpt>
      <trkpt lat="37.60709191672503948211669921875" lon="-2.2081364504992961883544921875">
        <ele>984.20001220703125</ele>
        <time>2019-10-27T12:37:01.000Z</time>
      </trkpt>
      <trkpt lat="37.607029639184474945068359375" lon="-2.208411879837512969970703125">
        <ele>985.4000244140625</ele>
        <time>2019-10-27T12:37:04.000Z</time>
      </trkpt>
      <trkpt lat="37.60697239078581333160400390625" lon="-2.20865252427756786346435546875">
        <ele>986.4000244140625</ele>
        <time>2019-10-27T12:37:09.000Z</time>
      </trkpt>
      <trkpt lat="37.60692696087062358856201171875" lon="-2.20886810682713985443115234375">
        <ele>986.79998779296875</ele>
        <time>2019-10-27T12:37:15.000Z</time>
      </trkpt>
      <trkpt lat="37.60687373578548431396484375" lon="-2.20908788032829761505126953125">
        <ele>987</ele>
        <time>2019-10-27T12:37:21.000Z</time>
      </trkpt>
      <trkpt lat="37.606852613389492034912109375" lon="-2.20923020504415035247802734375">
        <ele>987.79998779296875</ele>
        <time>2019-10-27T12:37:25.000Z</time>
      </trkpt>
      <trkpt lat="37.60679067112505435943603515625" lon="-2.2094534151256084442138671875">
        <ele>989.5999755859375</ele>
        <time>2019-10-27T12:37:33.000Z</time>
      </trkpt>
      <trkpt lat="37.606719173491001129150390625" lon="-2.20966505818068981170654296875">
        <ele>991.5999755859375</ele>
        <time>2019-10-27T12:37:42.000Z</time>
      </trkpt>
      <trkpt lat="37.606643401086330413818359375" lon="-2.209882400929927825927734375">
        <ele>992.5999755859375</ele>
        <time>2019-10-27T12:37:50.000Z</time>
      </trkpt>
      <trkpt lat="37.60657441802322864532470703125" lon="-2.2101303376257419586181640625">
        <ele>992.20001220703125</ele>
        <time>2019-10-27T12:37:57.000Z</time>
      </trkpt>
      <trkpt lat="37.606495209038257598876953125" lon="-2.210357822477817535400390625">
        <ele>991.20001220703125</ele>
        <time>2019-10-27T12:38:03.000Z</time>
      </trkpt>
      <trkpt lat="37.60642907582223415374755859375" lon="-2.2105729021131992340087890625">
        <ele>990.20001220703125</ele>
        <time>2019-10-27T12:38:08.000Z</time>
      </trkpt>
      <trkpt lat="37.60637476108968257904052734375" lon="-2.2108216769993305206298828125">
        <ele>989.5999755859375</ele>
        <time>2019-10-27T12:38:13.000Z</time>
      </trkpt>
      <trkpt lat="37.606307454407215118408203125" lon="-2.21104421652853488922119140625">
        <ele>988.79998779296875</ele>
        <time>2019-10-27T12:38:18.000Z</time>
      </trkpt>
      <trkpt lat="37.60622204281389713287353515625" lon="-2.211286537349224090576171875">
        <ele>987.5999755859375</ele>
        <time>2019-10-27T12:38:24.000Z</time>
      </trkpt>
      <trkpt lat="37.60611810721457004547119140625" lon="-2.21148041076958179473876953125">
        <ele>986.79998779296875</ele>
        <time>2019-10-27T12:38:28.000Z</time>
      </trkpt>
      <trkpt lat="37.606031186878681182861328125" lon="-2.21171401441097259521484375">
        <ele>987.5999755859375</ele>
        <time>2019-10-27T12:38:31.000Z</time>
      </trkpt>
      <trkpt lat="37.60600361041724681854248046875" lon="-2.21180428750813007354736328125">
        <ele>988</ele>
        <time>2019-10-27T12:38:32.000Z</time>
      </trkpt>
      <trkpt lat="37.60594963096082210540771484375" lon="-2.21209547482430934906005859375">
        <ele>989.20001220703125</ele>
        <time>2019-10-27T12:38:35.000Z</time>
      </trkpt>
      <trkpt lat="37.6059166900813579559326171875" lon="-2.2123636119067668914794921875">
        <ele>991</ele>
        <time>2019-10-27T12:38:39.000Z</time>
      </trkpt>
      <trkpt lat="37.60587327182292938232421875" lon="-2.21259704791009426116943359375">
        <ele>991.79998779296875</ele>
        <time>2019-10-27T12:38:45.000Z</time>
      </trkpt>
      <trkpt lat="37.60585575364530086517333984375" lon="-2.212666533887386322021484375">
        <ele>991.79998779296875</ele>
        <time>2019-10-27T12:38:47.000Z</time>
      </trkpt>
      <trkpt lat="37.60579741559922695159912109375" lon="-2.21290332265198230743408203125">
        <ele>991.79998779296875</ele>
        <time>2019-10-27T12:38:52.000Z</time>
      </trkpt>
      <trkpt lat="37.605750560760498046875" lon="-2.2131354175508022308349609375">
        <ele>992.4000244140625</ele>
        <time>2019-10-27T12:38:56.000Z</time>
      </trkpt>
      <trkpt lat="37.6056967489421367645263671875" lon="-2.21336030401289463043212890625">
        <ele>992.20001220703125</ele>
        <time>2019-10-27T12:39:00.000Z</time>
      </trkpt>
      <trkpt lat="37.60566095821559429168701171875" lon="-2.2135685943067073822021484375">
        <ele>991.79998779296875</ele>
        <time>2019-10-27T12:39:04.000Z</time>
      </trkpt>
      <trkpt lat="37.6056219823658466339111328125" lon="-2.21379230730235576629638671875">
        <ele>991.4000244140625</ele>
        <time>2019-10-27T12:39:08.000Z</time>
      </trkpt>
      <trkpt lat="37.6055829226970672607421875" lon="-2.2140510566532611846923828125">
        <ele>991</ele>
        <time>2019-10-27T12:39:12.000Z</time>
      </trkpt>
      <trkpt lat="37.60553221218287944793701171875" lon="-2.21431198529899120330810546875">
        <ele>991.20001220703125</ele>
        <time>2019-10-27T12:39:16.000Z</time>
      </trkpt>
      <trkpt lat="37.605508826673030853271484375" lon="-2.21455723978579044342041015625">
        <ele>991.79998779296875</ele>
        <time>2019-10-27T12:39:20.000Z</time>
      </trkpt>
      <trkpt lat="37.60547605343163013458251953125" lon="-2.2148456610739231109619140625">
        <ele>992</ele>
        <time>2019-10-27T12:39:25.000Z</time>
      </trkpt>
      <trkpt lat="37.60545275174081325531005859375" lon="-2.2149856388568878173828125">
        <ele>992</ele>
        <time>2019-10-27T12:39:27.000Z</time>
      </trkpt>
      <trkpt lat="37.60540313087403774261474609375" lon="-2.21521052531898021697998046875">
        <ele>992</ele>
        <time>2019-10-27T12:39:32.000Z</time>
      </trkpt>
      <trkpt lat="37.6053737103939056396484375" lon="-2.2153730504214763641357421875">
        <ele>992</ele>
        <time>2019-10-27T12:39:36.000Z</time>
      </trkpt>
      <trkpt lat="37.60534546338021755218505859375" lon="-2.21562995575368404388427734375">
        <ele>992.20001220703125</ele>
        <time>2019-10-27T12:39:42.000Z</time>
      </trkpt>
      <trkpt lat="37.605313360691070556640625" lon="-2.21585291437804698944091796875">
        <ele>992.4000244140625</ele>
        <time>2019-10-27T12:39:47.000Z</time>
      </trkpt>
      <trkpt lat="37.60529466904699802398681640625" lon="-2.215982414782047271728515625">
        <ele>992.79998779296875</ele>
        <time>2019-10-27T12:39:50.000Z</time>
      </trkpt>
      <trkpt lat="37.6052877120673656463623046875" lon="-2.21602306701242923736572265625">
        <ele>992.79998779296875</ele>
        <time>2019-10-27T12:39:51.000Z</time>
      </trkpt>
      <trkpt lat="37.6052369177341461181640625" lon="-2.216270081698894500732421875">
        <ele>993</ele>
        <time>2019-10-27T12:39:57.000Z</time>
      </trkpt>
      <trkpt lat="37.6051940023899078369140625" lon="-2.21651022322475910186767578125">
        <ele>993</ele>
        <time>2019-10-27T12:40:03.000Z</time>
      </trkpt>
      <trkpt lat="37.60514128021895885467529296875" lon="-2.21673804335296154022216796875">
        <ele>993.5999755859375</ele>
        <time>2019-10-27T12:40:09.000Z</time>
      </trkpt>
      <trkpt lat="37.60508394800126552581787109375" lon="-2.216963432729244232177734375">
        <ele>993.79998779296875</ele>
        <time>2019-10-27T12:40:15.000Z</time>
      </trkpt>
      <trkpt lat="37.6050308905541896820068359375" lon="-2.2171957790851593017578125">
        <ele>994.20001220703125</ele>
        <time>2019-10-27T12:40:21.000Z</time>
      </trkpt>
      <trkpt lat="37.6049702055752277374267578125" lon="-2.2174303047358989715576171875">
        <ele>994.79998779296875</ele>
        <time>2019-10-27T12:40:27.000Z</time>
      </trkpt>
      <trkpt lat="37.60490231215953826904296875" lon="-2.2176646627485752105712890625">
        <ele>995.79998779296875</ele>
        <time>2019-10-27T12:40:33.000Z</time>
      </trkpt>
      <trkpt lat="37.604824863374233245849609375" lon="-2.2178877890110015869140625">
        <ele>996.5999755859375</ele>
        <time>2019-10-27T12:40:39.000Z</time>
      </trkpt>
      <trkpt lat="37.6047514379024505615234375" lon="-2.21811669878661632537841796875">
        <ele>997</ele>
        <time>2019-10-27T12:40:45.000Z</time>
      </trkpt>
      <trkpt lat="37.60467742569744586944580078125" lon="-2.21833982504904270172119140625">
        <ele>997</ele>
        <time>2019-10-27T12:40:51.000Z</time>
      </trkpt>
      <trkpt lat="37.60459612123668193817138671875" lon="-2.21857585944235324859619140625">
        <ele>997.4000244140625</ele>
        <time>2019-10-27T12:40:57.000Z</time>
      </trkpt>
      <trkpt lat="37.6045202650129795074462890625" lon="-2.218788675963878631591796875">
        <ele>997.20001220703125</ele>
        <time>2019-10-27T12:41:02.000Z</time>
      </trkpt>
      <trkpt lat="37.60444189421832561492919921875" lon="-2.2190081141889095306396484375">
        <ele>997.5999755859375</ele>
        <time>2019-10-27T12:41:07.000Z</time>
      </trkpt>
      <trkpt lat="37.6043573208153247833251953125" lon="-2.21924833953380584716796875">
        <ele>997.79998779296875</ele>
        <time>2019-10-27T12:41:13.000Z</time>
      </trkpt>
      <trkpt lat="37.60427073575556278228759765625" lon="-2.21945730037987232208251953125">
        <ele>998.20001220703125</ele>
        <time>2019-10-27T12:41:19.000Z</time>
      </trkpt>
      <trkpt lat="37.6041826419532299041748046875" lon="-2.2196672670543193817138671875">
        <ele>999</ele>
        <time>2019-10-27T12:41:25.000Z</time>
      </trkpt>
      <trkpt lat="37.60406772606074810028076171875" lon="-2.21989550627768039703369140625">
        <ele>999.4000244140625</ele>
        <time>2019-10-27T12:41:30.000Z</time>
      </trkpt>
      <trkpt lat="37.603977955877780914306640625" lon="-2.2201014496386051177978515625">
        <ele>999.20001220703125</ele>
        <time>2019-10-27T12:41:33.000Z</time>
      </trkpt>
      <trkpt lat="37.6039057038724422454833984375" lon="-2.22035164944827556610107421875">
        <ele>998.4000244140625</ele>
        <time>2019-10-27T12:41:37.000Z</time>
      </trkpt>
      <trkpt lat="37.60377846658229827880859375" lon="-2.2205480374395847320556640625">
        <ele>998.5999755859375</ele>
        <time>2019-10-27T12:41:42.000Z</time>
      </trkpt>
      <trkpt lat="37.6036488823592662811279296875" lon="-2.22071642987430095672607421875">
        <ele>999</ele>
        <time>2019-10-27T12:41:47.000Z</time>
      </trkpt>
      <trkpt lat="37.6035563461482524871826171875" lon="-2.2209401428699493408203125">
        <ele>1000</ele>
        <time>2019-10-27T12:41:53.000Z</time>
      </trkpt>
      <trkpt lat="37.60345618240535259246826171875" lon="-2.22116754390299320220947265625">
        <ele>1000.5999755859375</ele>
        <time>2019-10-27T12:41:59.000Z</time>
      </trkpt>
      <trkpt lat="37.6033565215766429901123046875" lon="-2.22138932906091213226318359375">
        <ele>1001.20001220703125</ele>
        <time>2019-10-27T12:42:05.000Z</time>
      </trkpt>
      <trkpt lat="37.60325484909117221832275390625" lon="-2.22160197794437408447265625">
        <ele>1002</ele>
        <time>2019-10-27T12:42:11.000Z</time>
      </trkpt>
      <trkpt lat="37.60315510444343090057373046875" lon="-2.22180582582950592041015625">
        <ele>1002</ele>
        <time>2019-10-27T12:42:17.000Z</time>
      </trkpt>
      <trkpt lat="37.60305250994861125946044921875" lon="-2.22201428376138210296630859375">
        <ele>1002.5999755859375</ele>
        <time>2019-10-27T12:42:23.000Z</time>
      </trkpt>
      <trkpt lat="37.6029498316347599029541015625" lon="-2.22221008501946926116943359375">
        <ele>1003.4000244140625</ele>
        <time>2019-10-27T12:42:29.000Z</time>
      </trkpt>
      <trkpt lat="37.60284530930221080780029296875" lon="-2.222405634820461273193359375">
        <ele>1004.79998779296875</ele>
        <time>2019-10-27T12:42:35.000Z</time>
      </trkpt>
      <trkpt lat="37.60274187661707401275634765625" lon="-2.22264678217470645904541015625">
        <ele>1005</ele>
        <time>2019-10-27T12:42:41.000Z</time>
      </trkpt>
      <trkpt lat="37.60263609699904918670654296875" lon="-2.22284794785082340240478515625">
        <ele>1005.5999755859375</ele>
        <time>2019-10-27T12:42:45.000Z</time>
      </trkpt>
      <trkpt lat="37.6025193370878696441650390625" lon="-2.2230542264878749847412109375">
        <ele>1005.79998779296875</ele>
        <time>2019-10-27T12:42:49.000Z</time>
      </trkpt>
      <trkpt lat="37.602397464215755462646484375" lon="-2.22328883595764636993408203125">
        <ele>1005</ele>
        <time>2019-10-27T12:42:54.000Z</time>
      </trkpt>
      <trkpt lat="37.6023034192621707916259765625" lon="-2.223520092666149139404296875">
        <ele>1005</ele>
        <time>2019-10-27T12:42:59.000Z</time>
      </trkpt>
      <trkpt lat="37.60222622193396091461181640625" lon="-2.2237516008317470550537109375">
        <ele>1005</ele>
        <time>2019-10-27T12:43:05.000Z</time>
      </trkpt>
      <trkpt lat="37.6021522097289562225341796875" lon="-2.22396525554358959197998046875">
        <ele>1005.79998779296875</ele>
        <time>2019-10-27T12:43:12.000Z</time>
      </trkpt>
      <trkpt lat="37.60207593441009521484375" lon="-2.22417932935059070587158203125">
        <ele>1006.20001220703125</ele>
        <time>2019-10-27T12:43:19.000Z</time>
      </trkpt>
      <trkpt lat="37.6019989885389804840087890625" lon="-2.22439206205308437347412109375">
        <ele>1007.20001220703125</ele>
        <time>2019-10-27T12:43:26.000Z</time>
      </trkpt>
      <trkpt lat="37.60192774236202239990234375" lon="-2.224617786705493927001953125">
        <ele>1009.5999755859375</ele>
        <time>2019-10-27T12:43:34.000Z</time>
      </trkpt>
      <trkpt lat="37.6018642075359821319580078125" lon="-2.2248454391956329345703125">
        <ele>1011</ele>
        <time>2019-10-27T12:43:42.000Z</time>
      </trkpt>
      <trkpt lat="37.6018036901950836181640625" lon="-2.2249461896717548370361328125">
        <ele>1011.5999755859375</ele>
        <time>2019-10-27T12:43:46.000Z</time>
      </trkpt>
      <trkpt lat="37.60165893472731113433837890625" lon="-2.22487888298928737640380859375">
        <ele>1010.5999755859375</ele>
        <time>2019-10-27T12:43:51.000Z</time>
      </trkpt>
      <trkpt lat="37.601493895053863525390625" lon="-2.2247569262981414794921875">
        <ele>1009.4000244140625</ele>
        <time>2019-10-27T12:43:57.000Z</time>
      </trkpt>
      <trkpt lat="37.60131594724953174591064453125" lon="-2.22462692297995090484619140625">
        <ele>1009</ele>
        <time>2019-10-27T12:44:03.000Z</time>
      </trkpt>
      <trkpt lat="37.6011899672448635101318359375" lon="-2.2245428524911403656005859375">
        <ele>1008.79998779296875</ele>
        <time>2019-10-27T12:44:07.000Z</time>
      </trkpt>
      <trkpt lat="37.60109768249094486236572265625" lon="-2.22474996931850910186767578125">
        <ele>1008.79998779296875</ele>
        <time>2019-10-27T12:44:12.000Z</time>
      </trkpt>
      <trkpt lat="37.60106247849762439727783203125" lon="-2.22487804479897022247314453125">
        <ele>1008.4000244140625</ele>
        <time>2019-10-27T12:44:14.000Z</time>
      </trkpt>
      <trkpt lat="37.60099290870130062103271484375" lon="-2.225106619298458099365234375">
        <ele>1008</ele>
        <time>2019-10-27T12:44:17.000Z</time>
      </trkpt>
      <trkpt lat="37.600898779928684234619140625" lon="-2.22535195760428905487060546875">
        <ele>1007.20001220703125</ele>
        <time>2019-10-27T12:44:20.000Z</time>
      </trkpt>
      <trkpt lat="37.6007924973964691162109375" lon="-2.225616239011287689208984375">
        <ele>1006.79998779296875</ele>
        <time>2019-10-27T12:44:23.000Z</time>
      </trkpt>
      <trkpt lat="37.60068395175039768218994140625" lon="-2.22589015960693359375">
        <ele>1005.79998779296875</ele>
        <time>2019-10-27T12:44:26.000Z</time>
      </trkpt>
      <trkpt lat="37.600559480488300323486328125" lon="-2.22617723979055881500244140625">
        <ele>1004.4000244140625</ele>
        <time>2019-10-27T12:44:29.000Z</time>
      </trkpt>
      <trkpt lat="37.6004500128328800201416015625" lon="-2.22636180929839611053466796875">
        <ele>1003.5999755859375</ele>
        <time>2019-10-27T12:44:31.000Z</time>
      </trkpt>
      <trkpt lat="37.60033124126493930816650390625" lon="-2.2265585325658321380615234375">
        <ele>1003</ele>
        <time>2019-10-27T12:44:33.000Z</time>
      </trkpt>
      <trkpt lat="37.600219510495662689208984375" lon="-2.22677989862859249114990234375">
        <ele>1003</ele>
        <time>2019-10-27T12:44:35.000Z</time>
      </trkpt>
      <trkpt lat="37.6001247949898242950439453125" lon="-2.22700671292841434478759765625">
        <ele>1003.5999755859375</ele>
        <time>2019-10-27T12:44:37.000Z</time>
      </trkpt>
      <trkpt lat="37.600011639297008514404296875" lon="-2.22729722969233989715576171875">
        <ele>1004.4000244140625</ele>
        <time>2019-10-27T12:44:40.000Z</time>
      </trkpt>
      <trkpt lat="37.59992907755076885223388671875" lon="-2.2275222837924957275390625">
        <ele>1004.5999755859375</ele>
        <time>2019-10-27T12:44:43.000Z</time>
      </trkpt>
      <trkpt lat="37.59981323964893817901611328125" lon="-2.227762676775455474853515625">
        <ele>1004.5999755859375</ele>
        <time>2019-10-27T12:44:47.000Z</time>
      </trkpt>
      <trkpt lat="37.599700503051280975341796875" lon="-2.2279841266572475433349609375">
        <ele>1004.5999755859375</ele>
        <time>2019-10-27T12:44:51.000Z</time>
      </trkpt>
      <trkpt lat="37.59961509145796298980712890625" lon="-2.22818369977176189422607421875">
        <ele>1005</ele>
        <time>2019-10-27T12:44:55.000Z</time>
      </trkpt>
      <trkpt lat="37.599508054554462432861328125" lon="-2.22836709581315517425537109375">
        <ele>1004.4000244140625</ele>
        <time>2019-10-27T12:44:59.000Z</time>
      </trkpt>
      <trkpt lat="37.59937235154211521148681640625" lon="-2.22861872054636478424072265625">
        <ele>1003.20001220703125</ele>
        <time>2019-10-27T12:45:03.000Z</time>
      </trkpt>
      <trkpt lat="37.59925735183060169219970703125" lon="-2.228821814060211181640625">
        <ele>1002.4000244140625</ele>
        <time>2019-10-27T12:45:06.000Z</time>
      </trkpt>
      <trkpt lat="37.59913145564496517181396484375" lon="-2.2290618717670440673828125">
        <ele>1002.4000244140625</ele>
        <time>2019-10-27T12:45:09.000Z</time>
      </trkpt>
      <trkpt lat="37.599027268588542938232421875" lon="-2.2292957268655300140380859375">
        <ele>1003.20001220703125</ele>
        <time>2019-10-27T12:45:12.000Z</time>
      </trkpt>
      <trkpt lat="37.5989043898880481719970703125" lon="-2.2295284084975719451904296875">
        <ele>1003.4000244140625</ele>
        <time>2019-10-27T12:45:15.000Z</time>
      </trkpt>
      <trkpt lat="37.5987877137959003448486328125" lon="-2.229755222797393798828125">
        <ele>1003.4000244140625</ele>
        <time>2019-10-27T12:45:18.000Z</time>
      </trkpt>
      <trkpt lat="37.5986804254353046417236328125" lon="-2.22997055388987064361572265625">
        <ele>1003.20001220703125</ele>
        <time>2019-10-27T12:45:21.000Z</time>
      </trkpt>
      <trkpt lat="37.5985902361571788787841796875" lon="-2.23016870208084583282470703125">
        <ele>1003</ele>
        <time>2019-10-27T12:45:24.000Z</time>
      </trkpt>
      <trkpt lat="37.598473727703094482421875" lon="-2.23042233847081661224365234375">
        <ele>1003.79998779296875</ele>
        <time>2019-10-27T12:45:28.000Z</time>
      </trkpt>
      <trkpt lat="37.59838161058723926544189453125" lon="-2.2306415252387523651123046875">
        <ele>1004.5999755859375</ele>
        <time>2019-10-27T12:45:33.000Z</time>
      </trkpt>
      <trkpt lat="37.5982953608036041259765625" lon="-2.230845205485820770263671875">
        <ele>1005</ele>
        <time>2019-10-27T12:45:39.000Z</time>
      </trkpt>
      <trkpt lat="37.598223276436328887939453125" lon="-2.23101443611085414886474609375">
        <ele>1005.4000244140625</ele>
        <time>2019-10-27T12:45:44.000Z</time>
      </trkpt>
      <trkpt lat="37.59820056147873401641845703125" lon="-2.23108601756393909454345703125">
        <ele>1005.5999755859375</ele>
        <time>2019-10-27T12:45:46.000Z</time>
      </trkpt>
      <trkpt lat="37.59810836054384708404541015625" lon="-2.23132498562335968017578125">
        <ele>1006</ele>
        <time>2019-10-27T12:45:53.000Z</time>
      </trkpt>
      <trkpt lat="37.5980789400637149810791015625" lon="-2.23139849491417407989501953125">
        <ele>1006</ele>
        <time>2019-10-27T12:45:55.000Z</time>
      </trkpt>
      <trkpt lat="37.59803644381463527679443359375" lon="-2.231509722769260406494140625">
        <ele>1005.79998779296875</ele>
        <time>2019-10-27T12:45:58.000Z</time>
      </trkpt>
      <trkpt lat="37.597940303385257720947265625" lon="-2.2317278198897838592529296875">
        <ele>1006</ele>
        <time>2019-10-27T12:46:04.000Z</time>
      </trkpt>
      <trkpt lat="37.59784952737390995025634765625" lon="-2.2319667041301727294921875">
        <ele>1006</ele>
        <time>2019-10-27T12:46:10.000Z</time>
      </trkpt>
      <trkpt lat="37.59776621125638484954833984375" lon="-2.2321703843772411346435546875">
        <ele>1006</ele>
        <time>2019-10-27T12:46:15.000Z</time>
      </trkpt>
      <trkpt lat="37.5976699031889438629150390625" lon="-2.23240633495151996612548828125">
        <ele>1006.79998779296875</ele>
        <time>2019-10-27T12:46:21.000Z</time>
      </trkpt>
      <trkpt lat="37.5975921191275119781494140625" lon="-2.23263113759458065032958984375">
        <ele>1006.4000244140625</ele>
        <time>2019-10-27T12:46:27.000Z</time>
      </trkpt>
      <trkpt lat="37.59753570891916751861572265625" lon="-2.23285091109573841094970703125">
        <ele>1006</ele>
        <time>2019-10-27T12:46:33.000Z</time>
      </trkpt>
      <trkpt lat="37.59747234173119068145751953125" lon="-2.23306917585432529449462890625">
        <ele>1005.79998779296875</ele>
        <time>2019-10-27T12:46:39.000Z</time>
      </trkpt>
      <trkpt lat="37.5974063761532306671142578125" lon="-2.23328961990773677825927734375">
        <ele>1005.5999755859375</ele>
        <time>2019-10-27T12:46:45.000Z</time>
      </trkpt>
      <trkpt lat="37.59733311831951141357421875" lon="-2.2335165180265903472900390625">
        <ele>1006.20001220703125</ele>
        <time>2019-10-27T12:46:51.000Z</time>
      </trkpt>
      <trkpt lat="37.597257681190967559814453125" lon="-2.23373520188033580780029296875">
        <ele>1006.79998779296875</ele>
        <time>2019-10-27T12:46:57.000Z</time>
      </trkpt>
      <trkpt lat="37.59718450717628002166748046875" lon="-2.2339530475437641143798828125">
        <ele>1007.20001220703125</ele>
        <time>2019-10-27T12:47:03.000Z</time>
      </trkpt>
      <trkpt lat="37.59711845777928829193115234375" lon="-2.23418229259550571441650390625">
        <ele>1008.20001220703125</ele>
        <time>2019-10-27T12:47:09.000Z</time>
      </trkpt>
      <trkpt lat="37.5970426015555858612060546875" lon="-2.23441765643656253814697265625">
        <ele>1009.4000244140625</ele>
        <time>2019-10-27T12:47:15.000Z</time>
      </trkpt>
      <trkpt lat="37.5969688408076763153076171875" lon="-2.23464983515441417694091796875">
        <ele>1011</ele>
        <time>2019-10-27T12:47:21.000Z</time>
      </trkpt>
      <trkpt lat="37.5969086587429046630859375" lon="-2.23484161309897899627685546875">
        <ele>1012.4000244140625</ele>
        <time>2019-10-27T12:47:26.000Z</time>
      </trkpt>
      <trkpt lat="37.59685568511486053466796875" lon="-2.235097177326679229736328125">
        <ele>1014</ele>
        <time>2019-10-27T12:47:32.000Z</time>
      </trkpt>
      <trkpt lat="37.59680346585810184478759765625" lon="-2.23533262498676776885986328125">
        <ele>1014.5999755859375</ele>
        <time>2019-10-27T12:47:38.000Z</time>
      </trkpt>
      <trkpt lat="37.59675870649516582489013671875" lon="-2.235579304397106170654296875">
        <ele>1014.4000244140625</ele>
        <time>2019-10-27T12:47:44.000Z</time>
      </trkpt>
      <trkpt lat="37.5967090018093585968017578125" lon="-2.2358292527496814727783203125">
        <ele>1014.20001220703125</ele>
        <time>2019-10-27T12:47:50.000Z</time>
      </trkpt>
      <trkpt lat="37.59666264988481998443603515625" lon="-2.23606872372329235076904296875">
        <ele>1015.20001220703125</ele>
        <time>2019-10-27T12:47:56.000Z</time>
      </trkpt>
      <trkpt lat="37.596618644893169403076171875" lon="-2.2363083623349666595458984375">
        <ele>1016</ele>
        <time>2019-10-27T12:48:02.000Z</time>
      </trkpt>
      <trkpt lat="37.596581764519214630126953125" lon="-2.23654992878437042236328125">
        <ele>1016.79998779296875</ele>
        <time>2019-10-27T12:48:08.000Z</time>
      </trkpt>
      <trkpt lat="37.59654547087848186492919921875" lon="-2.23678470589220523834228515625">
        <ele>1017.5999755859375</ele>
        <time>2019-10-27T12:48:14.000Z</time>
      </trkpt>
      <trkpt lat="37.59651043452322483062744140625" lon="-2.237024009227752685546875">
        <ele>1017.5999755859375</ele>
        <time>2019-10-27T12:48:20.000Z</time>
      </trkpt>
      <trkpt lat="37.5964768230915069580078125" lon="-2.23727010190486907958984375">
        <ele>1018</ele>
        <time>2019-10-27T12:48:26.000Z</time>
      </trkpt>
      <trkpt lat="37.59644262492656707763671875" lon="-2.23751024343073368072509765625">
        <ele>1018</ele>
        <time>2019-10-27T12:48:32.000Z</time>
      </trkpt>
      <trkpt lat="37.596404738724231719970703125" lon="-2.23775088787078857421875">
        <ele>1018.20001220703125</ele>
        <time>2019-10-27T12:48:38.000Z</time>
      </trkpt>
      <trkpt lat="37.596373222768306732177734375" lon="-2.23799169994890689849853515625">
        <ele>1019</ele>
        <time>2019-10-27T12:48:44.000Z</time>
      </trkpt>
      <trkpt lat="37.59632905013859272003173828125" lon="-2.23823125474154949188232421875">
        <ele>1020.79998779296875</ele>
        <time>2019-10-27T12:48:50.000Z</time>
      </trkpt>
      <trkpt lat="37.5962872244417667388916015625" lon="-2.23846410401165485382080078125">
        <ele>1021.20001220703125</ele>
        <time>2019-10-27T12:48:56.000Z</time>
      </trkpt>
      <trkpt lat="37.596249841153621673583984375" lon="-2.2386982105672359466552734375">
        <ele>1021.4000244140625</ele>
        <time>2019-10-27T12:49:02.000Z</time>
      </trkpt>
      <trkpt lat="37.59621866047382354736328125" lon="-2.23892913199961185455322265625">
        <ele>1021.5999755859375</ele>
        <time>2019-10-27T12:49:08.000Z</time>
      </trkpt>
      <trkpt lat="37.596186809241771697998046875" lon="-2.23919047974050045013427734375">
        <ele>1022.5999755859375</ele>
        <time>2019-10-27T12:49:15.000Z</time>
      </trkpt>
      <trkpt lat="37.5961956940591335296630859375" lon="-2.2394452057778835296630859375">
        <ele>1023.79998779296875</ele>
        <time>2019-10-27T12:49:22.000Z</time>
      </trkpt>
      <trkpt lat="37.59619594551622867584228515625" lon="-2.23967193625867366790771484375">
        <ele>1024.199951171875</ele>
        <time>2019-10-27T12:49:28.000Z</time>
      </trkpt>
      <trkpt lat="37.59615805931389331817626953125" lon="-2.23989925347268581390380859375">
        <ele>1023.79998779296875</ele>
        <time>2019-10-27T12:49:34.000Z</time>
      </trkpt>
      <trkpt lat="37.59611665271222591400146484375" lon="-2.2401341982185840606689453125">
        <ele>1024.800048828125</ele>
        <time>2019-10-27T12:49:40.000Z</time>
      </trkpt>
      <trkpt lat="37.59608044289052486419677734375" lon="-2.24037685431540012359619140625">
        <ele>1025.199951171875</ele>
        <time>2019-10-27T12:49:46.000Z</time>
      </trkpt>
      <trkpt lat="37.59603937156498432159423828125" lon="-2.24062227644026279449462890625">
        <ele>1025.5999755859375</ele>
        <time>2019-10-27T12:49:52.000Z</time>
      </trkpt>
      <trkpt lat="37.596001736819744110107421875" lon="-2.2408811934292316436767578125">
        <ele>1027</ele>
        <time>2019-10-27T12:49:58.000Z</time>
      </trkpt>
      <trkpt lat="37.5959670357406139373779296875" lon="-2.24110943265259265899658203125">
        <ele>1026.5999755859375</ele>
        <time>2019-10-27T12:50:03.000Z</time>
      </trkpt>
      <trkpt lat="37.59593023918569087982177734375" lon="-2.24135217256844043731689453125">
        <ele>1027</ele>
        <time>2019-10-27T12:50:08.000Z</time>
      </trkpt>
      <trkpt lat="37.59588363580405712127685546875" lon="-2.24160731770098209381103515625">
        <ele>1026.800048828125</ele>
        <time>2019-10-27T12:50:13.000Z</time>
      </trkpt>
      <trkpt lat="37.5958359427750110626220703125" lon="-2.24186715669929981231689453125">
        <ele>1026.199951171875</ele>
        <time>2019-10-27T12:50:18.000Z</time>
      </trkpt>
      <trkpt lat="37.5957900099456310272216796875" lon="-2.24212565459311008453369140625">
        <ele>1026.199951171875</ele>
        <time>2019-10-27T12:50:23.000Z</time>
      </trkpt>
      <trkpt lat="37.595752291381359100341796875" lon="-2.2423817217350006103515625">
        <ele>1026.800048828125</ele>
        <time>2019-10-27T12:50:28.000Z</time>
      </trkpt>
      <trkpt lat="37.5957150757312774658203125" lon="-2.24265673197805881500244140625">
        <ele>1027</ele>
        <time>2019-10-27T12:50:33.000Z</time>
      </trkpt>
      <trkpt lat="37.59568431414663791656494140625" lon="-2.242886312305927276611328125">
        <ele>1027</ele>
        <time>2019-10-27T12:50:37.000Z</time>
      </trkpt>
      <trkpt lat="37.595651037991046905517578125" lon="-2.243120335042476654052734375">
        <ele>1027</ele>
        <time>2019-10-27T12:50:41.000Z</time>
      </trkpt>
      <trkpt lat="37.595613487064838409423828125" lon="-2.24335259757936000823974609375">
        <ele>1027.4000244140625</ele>
        <time>2019-10-27T12:50:45.000Z</time>
      </trkpt>
      <trkpt lat="37.5955707393586635589599609375" lon="-2.243626601994037628173828125">
        <ele>1028.199951171875</ele>
        <time>2019-10-27T12:50:50.000Z</time>
      </trkpt>
      <trkpt lat="37.5955090485513210296630859375" lon="-2.24389088340103626251220703125">
        <ele>1028.4000244140625</ele>
        <time>2019-10-27T12:50:55.000Z</time>
      </trkpt>
      <trkpt lat="37.59546018205583095550537109375" lon="-2.244168408215045928955078125">
        <ele>1027.5999755859375</ele>
        <time>2019-10-27T12:51:00.000Z</time>
      </trkpt>
      <trkpt lat="37.5954255647957324981689453125" lon="-2.24439807236194610595703125">
        <ele>1028</ele>
        <time>2019-10-27T12:51:04.000Z</time>
      </trkpt>
      <trkpt lat="37.5953905284404754638671875" lon="-2.2446315921843051910400390625">
        <ele>1028.5999755859375</ele>
        <time>2019-10-27T12:51:08.000Z</time>
      </trkpt>
      <trkpt lat="37.59535071440041065216064453125" lon="-2.2448632679879665374755859375">
        <ele>1029</ele>
        <time>2019-10-27T12:51:12.000Z</time>
      </trkpt>
      <trkpt lat="37.59531743824481964111328125" lon="-2.2450446523725986480712890625">
        <ele>1029.199951171875</ele>
        <time>2019-10-27T12:51:15.000Z</time>
      </trkpt>
      <trkpt lat="37.59528231807053089141845703125" lon="-2.245288230478763580322265625">
        <ele>1029</ele>
        <time>2019-10-27T12:51:19.000Z</time>
      </trkpt>
      <trkpt lat="37.5952441804111003875732421875" lon="-2.2455281205475330352783203125">
        <ele>1029.5999755859375</ele>
        <time>2019-10-27T12:51:23.000Z</time>
      </trkpt>
      <trkpt lat="37.5952180288732051849365234375" lon="-2.245771028101444244384765625">
        <ele>1029.4000244140625</ele>
        <time>2019-10-27T12:51:27.000Z</time>
      </trkpt>
      <trkpt lat="37.5952046178281307220458984375" lon="-2.24595182575285434722900390625">
        <ele>1029</ele>
        <time>2019-10-27T12:51:30.000Z</time>
      </trkpt>
      <trkpt lat="37.59519430808722972869873046875" lon="-2.24619657732546329498291015625">
        <ele>1028.5999755859375</ele>
        <time>2019-10-27T12:51:34.000Z</time>
      </trkpt>
      <trkpt lat="37.59518139995634555816650390625" lon="-2.24644468165934085845947265625">
        <ele>1028.199951171875</ele>
        <time>2019-10-27T12:51:38.000Z</time>
      </trkpt>
      <trkpt lat="37.5951777957379817962646484375" lon="-2.24671089090406894683837890625">
        <ele>1029</ele>
        <time>2019-10-27T12:51:42.000Z</time>
      </trkpt>
      <trkpt lat="37.5951818190515041351318359375" lon="-2.246973998844623565673828125">
        <ele>1030</ele>
        <time>2019-10-27T12:51:46.000Z</time>
      </trkpt>
      <trkpt lat="37.5951952300965785980224609375" lon="-2.24723316729068756103515625">
        <ele>1030.800048828125</ele>
        <time>2019-10-27T12:51:50.000Z</time>
      </trkpt>
      <trkpt lat="37.59521610103547573089599609375" lon="-2.2474884800612926483154296875">
        <ele>1031</ele>
        <time>2019-10-27T12:51:54.000Z</time>
      </trkpt>
      <trkpt lat="37.59524543769657611846923828125" lon="-2.24775091744959354400634765625">
        <ele>1030.199951171875</ele>
        <time>2019-10-27T12:51:58.000Z</time>
      </trkpt>
      <trkpt lat="37.5952676497399806976318359375" lon="-2.2480118460953235626220703125">
        <ele>1029.5999755859375</ele>
        <time>2019-10-27T12:52:02.000Z</time>
      </trkpt>
      <trkpt lat="37.595279552042484283447265625" lon="-2.24828350357711315155029296875">
        <ele>1027.800048828125</ele>
        <time>2019-10-27T12:52:06.000Z</time>
      </trkpt>
      <trkpt lat="37.59528164751827716827392578125" lon="-2.2483514808118343353271484375">
        <ele>1027.800048828125</ele>
        <time>2019-10-27T12:52:07.000Z</time>
      </trkpt>
      <trkpt lat="37.5952931307256221771240234375" lon="-2.248620875179767608642578125">
        <ele>1028</ele>
        <time>2019-10-27T12:52:11.000Z</time>
      </trkpt>
      <trkpt lat="37.595316432416439056396484375" lon="-2.2488807141780853271484375">
        <ele>1028.199951171875</ele>
        <time>2019-10-27T12:52:15.000Z</time>
      </trkpt>
      <trkpt lat="37.595335207879543304443359375" lon="-2.24914315156638622283935546875">
        <ele>1028.5999755859375</ele>
        <time>2019-10-27T12:52:19.000Z</time>
      </trkpt>
      <trkpt lat="37.59535406716167926788330078125" lon="-2.2494029067456722259521484375">
        <ele>1029.5999755859375</ele>
        <time>2019-10-27T12:52:23.000Z</time>
      </trkpt>
      <trkpt lat="37.595376111567020416259765625" lon="-2.2496666014194488525390625">
        <ele>1030.800048828125</ele>
        <time>2019-10-27T12:52:27.000Z</time>
      </trkpt>
      <trkpt lat="37.59539212100207805633544921875" lon="-2.24993121810257434844970703125">
        <ele>1031</ele>
        <time>2019-10-27T12:52:31.000Z</time>
      </trkpt>
      <trkpt lat="37.59540268220007419586181640625" lon="-2.25017479620873928070068359375">
        <ele>1032</ele>
        <time>2019-10-27T12:52:35.000Z</time>
      </trkpt>
      <trkpt lat="37.59542363695800304412841796875" lon="-2.25040647201240062713623046875">
        <ele>1033</ele>
        <time>2019-10-27T12:52:39.000Z</time>
      </trkpt>
      <trkpt lat="37.5954473577439785003662109375" lon="-2.25066949613392353057861328125">
        <ele>1033.5999755859375</ele>
        <time>2019-10-27T12:52:44.000Z</time>
      </trkpt>
      <trkpt lat="37.5954711623489856719970703125" lon="-2.250916846096515655517578125">
        <ele>1033.199951171875</ele>
        <time>2019-10-27T12:52:49.000Z</time>
      </trkpt>
      <trkpt lat="37.5954748503863811492919921875" lon="-2.25096814334392547607421875">
        <ele>1033.199951171875</ele>
        <time>2019-10-27T12:52:50.000Z</time>
      </trkpt>
      <trkpt lat="37.59549823589622974395751953125" lon="-2.25122965872287750244140625">
        <ele>1032.800048828125</ele>
        <time>2019-10-27T12:52:55.000Z</time>
      </trkpt>
      <trkpt lat="37.59550041519105434417724609375" lon="-2.2512824647128582000732421875">
        <ele>1032.5999755859375</ele>
        <time>2019-10-27T12:52:56.000Z</time>
      </trkpt>
      <trkpt lat="37.5955184362828731536865234375" lon="-2.2514859773218631744384765625">
        <ele>1032</ele>
        <time>2019-10-27T12:53:00.000Z</time>
      </trkpt>
      <trkpt lat="37.5955338589847087860107421875" lon="-2.25173332728445529937744140625">
        <ele>1031.5999755859375</ele>
        <time>2019-10-27T12:53:05.000Z</time>
      </trkpt>
      <trkpt lat="37.59555925615131855010986328125" lon="-2.2519932501018047332763671875">
        <ele>1031.800048828125</ele>
        <time>2019-10-27T12:53:10.000Z</time>
      </trkpt>
      <trkpt lat="37.59558021090924739837646484375" lon="-2.252226769924163818359375">
        <ele>1031.800048828125</ele>
        <time>2019-10-27T12:53:14.000Z</time>
      </trkpt>
      <trkpt lat="37.59560368023812770843505859375" lon="-2.25246439687907695770263671875">
        <ele>1031</ele>
        <time>2019-10-27T12:53:18.000Z</time>
      </trkpt>
      <trkpt lat="37.59561122395098209381103515625" lon="-2.2527150996029376983642578125">
        <ele>1030.199951171875</ele>
        <time>2019-10-27T12:53:22.000Z</time>
      </trkpt>
      <trkpt lat="37.595630921423435211181640625" lon="-2.25296462886035442352294921875">
        <ele>1030.199951171875</ele>
        <time>2019-10-27T12:53:26.000Z</time>
      </trkpt>
      <trkpt lat="37.5956512056291103363037109375" lon="-2.2532250545918941497802734375">
        <ele>1030.4000244140625</ele>
        <time>2019-10-27T12:53:30.000Z</time>
      </trkpt>
      <trkpt lat="37.5956612639129161834716796875" lon="-2.25349285639822483062744140625">
        <ele>1030.5999755859375</ele>
        <time>2019-10-27T12:53:34.000Z</time>
      </trkpt>
      <trkpt lat="37.59569101966917514801025390625" lon="-2.253754623234272003173828125">
        <ele>1031.4000244140625</ele>
        <time>2019-10-27T12:53:38.000Z</time>
      </trkpt>
      <trkpt lat="37.595718093216419219970703125" lon="-2.25400934927165508270263671875">
        <ele>1032.4000244140625</ele>
        <time>2019-10-27T12:53:42.000Z</time>
      </trkpt>
      <trkpt lat="37.59573276154696941375732421875" lon="-2.25425678305327892303466796875">
        <ele>1032.5999755859375</ele>
        <time>2019-10-27T12:53:46.000Z</time>
      </trkpt>
      <trkpt lat="37.59574600495398044586181640625" lon="-2.25449566729366779327392578125">
        <ele>1032.800048828125</ele>
        <time>2019-10-27T12:53:50.000Z</time>
      </trkpt>
      <trkpt lat="37.5957675464451313018798828125" lon="-2.25473874248564243316650390625">
        <ele>1032.4000244140625</ele>
        <time>2019-10-27T12:53:54.000Z</time>
      </trkpt>
      <trkpt lat="37.595790512859821319580078125" lon="-2.25498416461050510406494140625">
        <ele>1032.4000244140625</ele>
        <time>2019-10-27T12:53:58.000Z</time>
      </trkpt>
      <trkpt lat="37.5958181731402873992919921875" lon="-2.25525858812034130096435546875">
        <ele>1032.5999755859375</ele>
        <time>2019-10-27T12:54:03.000Z</time>
      </trkpt>
      <trkpt lat="37.5958349369466304779052734375" lon="-2.2554016672074794769287109375">
        <ele>1032.199951171875</ele>
        <time>2019-10-27T12:54:06.000Z</time>
      </trkpt>
      <trkpt lat="37.59584558196365833282470703125" lon="-2.2554633580148220062255859375">
        <ele>1032</ele>
        <time>2019-10-27T12:54:08.000Z</time>
      </trkpt>
      <trkpt lat="37.59590685367584228515625" lon="-2.25542907603085041046142578125">
        <ele>1032.5999755859375</ele>
        <time>2019-10-27T12:55:31.000Z</time>
      </trkpt>
      <trkpt lat="37.5959184207022190093994140625" lon="-2.25546344183385372161865234375">
        <ele>1032.5999755859375</ele>
        <time>2019-10-27T12:58:32.000Z</time>
      </trkpt>
      <trkpt lat="37.5958818756043910980224609375" lon="-2.25560777820646762847900390625">
        <ele>1032.199951171875</ele>
        <time>2019-10-27T13:00:27.000Z</time>
      </trkpt>
      <trkpt lat="37.5958698056638240814208984375" lon="-2.2558552958071231842041015625">
        <ele>1032</ele>
        <time>2019-10-27T13:00:33.000Z</time>
      </trkpt>
      <trkpt lat="37.59587810374796390533447265625" lon="-2.2561201639473438262939453125">
        <ele>1032.4000244140625</ele>
        <time>2019-10-27T13:00:39.000Z</time>
      </trkpt>
      <trkpt lat="37.59588933549821376800537109375" lon="-2.25637958385050296783447265625">
        <ele>1033.199951171875</ele>
        <time>2019-10-27T13:00:45.000Z</time>
      </trkpt>
      <trkpt lat="37.59590081870555877685546875" lon="-2.25663296878337860107421875">
        <ele>1033.199951171875</ele>
        <time>2019-10-27T13:00:51.000Z</time>
      </trkpt>
      <trkpt lat="37.595905847847461700439453125" lon="-2.2568772174417972564697265625">
        <ele>1033.199951171875</ele>
        <time>2019-10-27T13:00:57.000Z</time>
      </trkpt>
      <trkpt lat="37.59593241848051548004150390625" lon="-2.25713445805013179779052734375">
        <ele>1033.199951171875</ele>
        <time>2019-10-27T13:01:03.000Z</time>
      </trkpt>
      <trkpt lat="37.5959667004644870758056640625" lon="-2.25739077664911746978759765625">
        <ele>1034.199951171875</ele>
        <time>2019-10-27T13:01:09.000Z</time>
      </trkpt>
      <trkpt lat="37.59598086588084697723388671875" lon="-2.2576595842838287353515625">
        <ele>1035.199951171875</ele>
        <time>2019-10-27T13:01:15.000Z</time>
      </trkpt>
      <trkpt lat="37.59599511511623859405517578125" lon="-2.25788547657430171966552734375">
        <ele>1035.5999755859375</ele>
        <time>2019-10-27T13:01:20.000Z</time>
      </trkpt>
      <trkpt lat="37.596014477312564849853515625" lon="-2.25811480544507503509521484375">
        <ele>1036.199951171875</ele>
        <time>2019-10-27T13:01:25.000Z</time>
      </trkpt>
      <trkpt lat="37.5960340909659862518310546875" lon="-2.25835452787578105926513671875">
        <ele>1036.5999755859375</ele>
        <time>2019-10-27T13:01:30.000Z</time>
      </trkpt>
      <trkpt lat="37.5960552133619785308837890625" lon="-2.258600704371929168701171875">
        <ele>1036.800048828125</ele>
        <time>2019-10-27T13:01:35.000Z</time>
      </trkpt>
      <trkpt lat="37.59607222862541675567626953125" lon="-2.25885811261832714080810546875">
        <ele>1037.5999755859375</ele>
        <time>2019-10-27T13:01:40.000Z</time>
      </trkpt>
      <trkpt lat="37.5960827060043811798095703125" lon="-2.2591034509241580963134765625">
        <ele>1037.5999755859375</ele>
        <time>2019-10-27T13:01:45.000Z</time>
      </trkpt>
      <trkpt lat="37.59610307402908802032470703125" lon="-2.25933336652815341949462890625">
        <ele>1037.800048828125</ele>
        <time>2019-10-27T13:01:50.000Z</time>
      </trkpt>
      <trkpt lat="37.59611028246581554412841796875" lon="-2.25957962684333324432373046875">
        <ele>1037.800048828125</ele>
        <time>2019-10-27T13:01:55.000Z</time>
      </trkpt>
      <trkpt lat="37.59613425470888614654541015625" lon="-2.25983024574816226959228515625">
        <ele>1038</ele>
        <time>2019-10-27T13:02:00.000Z</time>
      </trkpt>
      <trkpt lat="37.5961618311703205108642578125" lon="-2.26007759571075439453125">
        <ele>1038.199951171875</ele>
        <time>2019-10-27T13:02:05.000Z</time>
      </trkpt>
      <trkpt lat="37.5961876474320888519287109375" lon="-2.2603221796452999114990234375">
        <ele>1038.199951171875</ele>
        <time>2019-10-27T13:02:10.000Z</time>
      </trkpt>
      <trkpt lat="37.5962097756564617156982421875" lon="-2.2605632431805133819580078125">
        <ele>1038.199951171875</ele>
        <time>2019-10-27T13:02:15.000Z</time>
      </trkpt>
      <trkpt lat="37.59624590165913105010986328125" lon="-2.2607952542603015899658203125">
        <ele>1038.4000244140625</ele>
        <time>2019-10-27T13:02:21.000Z</time>
      </trkpt>
      <trkpt lat="37.59629770182073116302490234375" lon="-2.260635830461978912353515625">
        <ele>1038.5999755859375</ele>
        <time>2019-10-27T13:02:39.000Z</time>
      </trkpt>
      <trkpt lat="37.59627574123442173004150390625" lon="-2.26073565892875194549560546875">
        <ele>1038.4000244140625</ele>
        <time>2019-10-27T13:04:02.000Z</time>
      </trkpt>
      <trkpt lat="37.59627859108150005340576171875" lon="-2.26097940467298030853271484375">
        <ele>1038.5999755859375</ele>
        <time>2019-10-27T13:04:09.000Z</time>
      </trkpt>
      <trkpt lat="37.59627456776797771453857421875" lon="-2.26121552288532257080078125">
        <ele>1039.5999755859375</ele>
        <time>2019-10-27T13:04:15.000Z</time>
      </trkpt>
      <trkpt lat="37.596290744841098785400390625" lon="-2.2614674828946590423583984375">
        <ele>1040</ele>
        <time>2019-10-27T13:04:21.000Z</time>
      </trkpt>
      <trkpt lat="37.5963053293526172637939453125" lon="-2.26172422058880329132080078125">
        <ele>1040.199951171875</ele>
        <time>2019-10-27T13:04:27.000Z</time>
      </trkpt>
      <trkpt lat="37.59631195105612277984619140625" lon="-2.26198657415807247161865234375">
        <ele>1039.5999755859375</ele>
        <time>2019-10-27T13:04:33.000Z</time>
      </trkpt>
      <trkpt lat="37.59633324109017848968505859375" lon="-2.26225596852600574493408203125">
        <ele>1039.5999755859375</ele>
        <time>2019-10-27T13:04:39.000Z</time>
      </trkpt>
      <trkpt lat="37.5963479094207286834716796875" lon="-2.26249585859477519989013671875">
        <ele>1039</ele>
        <time>2019-10-27T13:04:44.000Z</time>
      </trkpt>
      <trkpt lat="37.596363835036754608154296875" lon="-2.26272854022681713104248046875">
        <ele>1039.800048828125</ele>
        <time>2019-10-27T13:04:49.000Z</time>
      </trkpt>
      <trkpt lat="37.5963841192424297332763671875" lon="-2.26296239532530307769775390625">
        <ele>1039</ele>
        <time>2019-10-27T13:04:54.000Z</time>
      </trkpt>
      <trkpt lat="37.59640197269618511199951171875" lon="-2.2631978429853916168212890625">
        <ele>1039.5999755859375</ele>
        <time>2019-10-27T13:04:59.000Z</time>
      </trkpt>
      <trkpt lat="37.59641538374125957489013671875" lon="-2.2634322009980678558349609375">
        <ele>1040</ele>
        <time>2019-10-27T13:05:04.000Z</time>
      </trkpt>
      <trkpt lat="37.59643281809985637664794921875" lon="-2.2636930458247661590576171875">
        <ele>1040.800048828125</ele>
        <time>2019-10-27T13:05:10.000Z</time>
      </trkpt>
      <trkpt lat="37.5964411161839962005615234375" lon="-2.26395816542208194732666015625">
        <ele>1041.199951171875</ele>
        <time>2019-10-27T13:05:16.000Z</time>
      </trkpt>
      <trkpt lat="37.59646533988416194915771484375" lon="-2.26422554813325405120849609375">
        <ele>1041.5999755859375</ele>
        <time>2019-10-27T13:05:22.000Z</time>
      </trkpt>
      <trkpt lat="37.59650071151554584503173828125" lon="-2.26446325890719890594482421875">
        <ele>1042</ele>
        <time>2019-10-27T13:05:27.000Z</time>
      </trkpt>
      <trkpt lat="37.59653423912823200225830078125" lon="-2.2647032327950000762939453125">
        <ele>1042</ele>
        <time>2019-10-27T13:05:32.000Z</time>
      </trkpt>
      <trkpt lat="37.5965658389031887054443359375" lon="-2.264934740960597991943359375">
        <ele>1042.5999755859375</ele>
        <time>2019-10-27T13:05:37.000Z</time>
      </trkpt>
      <trkpt lat="37.59659794159233570098876953125" lon="-2.26517873816192150115966796875">
        <ele>1043.5999755859375</ele>
        <time>2019-10-27T13:05:42.000Z</time>
      </trkpt>
      <trkpt lat="37.59661621414124965667724609375" lon="-2.26542198099195957183837890625">
        <ele>1044.4000244140625</ele>
        <time>2019-10-27T13:05:47.000Z</time>
      </trkpt>
      <trkpt lat="37.59663465432822704315185546875" lon="-2.26566120050847530364990234375">
        <ele>1044.800048828125</ele>
        <time>2019-10-27T13:05:52.000Z</time>
      </trkpt>
      <trkpt lat="37.59662996046245098114013671875" lon="-2.2658917866647243499755859375">
        <ele>1045.199951171875</ele>
        <time>2019-10-27T13:05:57.000Z</time>
      </trkpt>
      <trkpt lat="37.59664454497396945953369140625" lon="-2.2661422379314899444580078125">
        <ele>1046.199951171875</ele>
        <time>2019-10-27T13:06:03.000Z</time>
      </trkpt>
      <trkpt lat="37.59665074758231639862060546875" lon="-2.2664134763181209564208984375">
        <ele>1047</ele>
        <time>2019-10-27T13:06:09.000Z</time>
      </trkpt>
      <trkpt lat="37.596649825572967529296875" lon="-2.26667222566902637481689453125">
        <ele>1047</ele>
        <time>2019-10-27T13:06:15.000Z</time>
      </trkpt>
      <trkpt lat="37.59665259160101413726806640625" lon="-2.26691010408103466033935546875">
        <ele>1048</ele>
        <time>2019-10-27T13:06:20.000Z</time>
      </trkpt>
      <trkpt lat="37.5966556929051876068115234375" lon="-2.26714764721691608428955078125">
        <ele>1048</ele>
        <time>2019-10-27T13:06:25.000Z</time>
      </trkpt>
      <trkpt lat="37.59664152748882770538330078125" lon="-2.2673696838319301605224609375">
        <ele>1048.5999755859375</ele>
        <time>2019-10-27T13:06:30.000Z</time>
      </trkpt>
      <trkpt lat="37.59660892188549041748046875" lon="-2.26762323640286922454833984375">
        <ele>1049.4000244140625</ele>
        <time>2019-10-27T13:06:36.000Z</time>
      </trkpt>
      <trkpt lat="37.59657832793891429901123046875" lon="-2.26789061911404132843017578125">
        <ele>1049.800048828125</ele>
        <time>2019-10-27T13:06:42.000Z</time>
      </trkpt>
      <trkpt lat="37.596553601324558258056640625" lon="-2.2681565769016742706298828125">
        <ele>1050.5999755859375</ele>
        <time>2019-10-27T13:06:48.000Z</time>
      </trkpt>
      <trkpt lat="37.59652501903474330902099609375" lon="-2.268418930470943450927734375">
        <ele>1051.4000244140625</ele>
        <time>2019-10-27T13:06:54.000Z</time>
      </trkpt>
      <trkpt lat="37.59649501182138919830322265625" lon="-2.26866728626191616058349609375">
        <ele>1052</ele>
        <time>2019-10-27T13:07:00.000Z</time>
      </trkpt>
      <trkpt lat="37.59645695798099040985107421875" lon="-2.26891756989061832427978515625">
        <ele>1052.4000244140625</ele>
        <time>2019-10-27T13:07:06.000Z</time>
      </trkpt>
      <trkpt lat="37.5964365899562835693359375" lon="-2.26914471946656703948974609375">
        <ele>1053.199951171875</ele>
        <time>2019-10-27T13:07:11.000Z</time>
      </trkpt>
      <trkpt lat="37.5964132882654666900634765625" lon="-2.2693742997944355010986328125">
        <ele>1054</ele>
        <time>2019-10-27T13:07:16.000Z</time>
      </trkpt>
      <trkpt lat="37.5963868014514446258544921875" lon="-2.2696356475353240966796875">
        <ele>1054.800048828125</ele>
        <time>2019-10-27T13:07:22.000Z</time>
      </trkpt>
      <trkpt lat="37.59637934155762195587158203125" lon="-2.269702367484569549560546875">
        <ele>1054.800048828125</ele>
        <time>2019-10-27T13:07:25.000Z</time>
      </trkpt>
      <trkpt lat="37.59637959301471710205078125" lon="-2.2699355520308017730712890625">
        <ele>1055.800048828125</ele>
        <time>2019-10-27T13:07:54.000Z</time>
      </trkpt>
      <trkpt lat="37.59635268710553646087646484375" lon="-2.2701742686331272125244140625">
        <ele>1056.4000244140625</ele>
        <time>2019-10-27T13:08:00.000Z</time>
      </trkpt>
      <trkpt lat="37.59632552973926067352294921875" lon="-2.27042446844279766082763671875">
        <ele>1056.5999755859375</ele>
        <time>2019-10-27T13:08:06.000Z</time>
      </trkpt>
      <trkpt lat="37.5963314808905124664306640625" lon="-2.27046084590256214141845703125">
        <ele>1056.5999755859375</ele>
        <time>2019-10-27T13:08:07.000Z</time>
      </trkpt>
      <trkpt lat="37.59643047116696834564208984375" lon="-2.27052303962409496307373046875">
        <ele>1057.199951171875</ele>
        <time>2019-10-27T13:08:11.000Z</time>
      </trkpt>
      <trkpt lat="37.59660967625677585601806640625" lon="-2.27056377567350864410400390625">
        <ele>1058</ele>
        <time>2019-10-27T13:08:17.000Z</time>
      </trkpt>
      <trkpt lat="37.5967636518180370330810546875" lon="-2.27069319225847721099853515625">
        <ele>1057.800048828125</ele>
        <time>2019-10-27T13:08:23.000Z</time>
      </trkpt>
      <trkpt lat="37.59672601707279682159423828125" lon="-2.2709397040307521820068359375">
        <ele>1057.199951171875</ele>
        <time>2019-10-27T13:08:29.000Z</time>
      </trkpt>
      <trkpt lat="37.5967002846300601959228515625" lon="-2.27121077477931976318359375">
        <ele>1057</ele>
        <time>2019-10-27T13:08:35.000Z</time>
      </trkpt>
      <trkpt lat="37.5966919027268886566162109375" lon="-2.27145896293222904205322265625">
        <ele>1057.4000244140625</ele>
        <time>2019-10-27T13:08:40.000Z</time>
      </trkpt>
      <trkpt lat="37.59667932987213134765625" lon="-2.27171964012086391448974609375">
        <ele>1058.4000244140625</ele>
        <time>2019-10-27T13:08:45.000Z</time>
      </trkpt>
      <trkpt lat="37.596643455326557159423828125" lon="-2.2719825804233551025390625">
        <ele>1059</ele>
        <time>2019-10-27T13:08:50.000Z</time>
      </trkpt>
      <trkpt lat="37.5966111011803150177001953125" lon="-2.2722355462610721588134765625">
        <ele>1059.5999755859375</ele>
        <time>2019-10-27T13:08:55.000Z</time>
      </trkpt>
      <trkpt lat="37.59659660048782825469970703125" lon="-2.27248423732817173004150390625">
        <ele>1058.800048828125</ele>
        <time>2019-10-27T13:09:00.000Z</time>
      </trkpt>
      <trkpt lat="37.596645466983318328857421875" lon="-2.27258549071848392486572265625">
        <ele>1058.800048828125</ele>
        <time>2019-10-27T13:09:03.000Z</time>
      </trkpt>
      <trkpt lat="37.596768848598003387451171875" lon="-2.27275715209543704986572265625">
        <ele>1059.199951171875</ele>
        <time>2019-10-27T13:09:10.000Z</time>
      </trkpt>
      <trkpt lat="37.5967670045793056488037109375" lon="-2.2728021629154682159423828125">
        <ele>1059.199951171875</ele>
        <time>2019-10-27T13:09:11.000Z</time>
      </trkpt>
      <trkpt lat="37.5967435352504253387451171875" lon="-2.27304808795452117919921875">
        <ele>1059.199951171875</ele>
        <time>2019-10-27T13:09:16.000Z</time>
      </trkpt>
      <trkpt lat="37.59671394713222980499267578125" lon="-2.27328688837587833404541015625">
        <ele>1059</ele>
        <time>2019-10-27T13:09:21.000Z</time>
      </trkpt>
      <trkpt lat="37.59668997488915920257568359375" lon="-2.2735367529094219207763671875">
        <ele>1059</ele>
        <time>2019-10-27T13:09:27.000Z</time>
      </trkpt>
      <trkpt lat="37.5967214070260524749755859375" lon="-2.2738016210496425628662109375">
        <ele>1059.199951171875</ele>
        <time>2019-10-27T13:09:33.000Z</time>
      </trkpt>
      <trkpt lat="37.59677614085376262664794921875" lon="-2.27402885444462299346923828125">
        <ele>1059.5999755859375</ele>
        <time>2019-10-27T13:09:38.000Z</time>
      </trkpt>
      <trkpt lat="37.59683162905275821685791015625" lon="-2.2742522321641445159912109375">
        <ele>1060.4000244140625</ele>
        <time>2019-10-27T13:09:44.000Z</time>
      </trkpt>
      <trkpt lat="37.5969024561345577239990234375" lon="-2.27449388243257999420166015625">
        <ele>1061.199951171875</ele>
        <time>2019-10-27T13:09:52.000Z</time>
      </trkpt>
      <trkpt lat="37.59698049165308475494384765625" lon="-2.27469923906028270721435546875">
        <ele>1060.800048828125</ele>
        <time>2019-10-27T13:09:58.000Z</time>
      </trkpt>
      <trkpt lat="37.59709113277494907379150390625" lon="-2.27489219047129154205322265625">
        <ele>1060.199951171875</ele>
        <time>2019-10-27T13:10:04.000Z</time>
      </trkpt>
      <trkpt lat="37.5971830822527408599853515625" lon="-2.2751014865934848785400390625">
        <ele>1061</ele>
        <time>2019-10-27T13:10:10.000Z</time>
      </trkpt>
      <trkpt lat="37.59729095734655857086181640625" lon="-2.27531991899013519287109375">
        <ele>1062.199951171875</ele>
        <time>2019-10-27T13:10:17.000Z</time>
      </trkpt>
      <trkpt lat="37.597381733357906341552734375" lon="-2.27554212324321269989013671875">
        <ele>1063.4000244140625</ele>
        <time>2019-10-27T13:10:24.000Z</time>
      </trkpt>
      <trkpt lat="37.5974895246326923370361328125" lon="-2.27576390840113162994384765625">
        <ele>1063.800048828125</ele>
        <time>2019-10-27T13:10:31.000Z</time>
      </trkpt>
      <trkpt lat="37.5975746847689151763916015625" lon="-2.27596909739077091217041015625">
        <ele>1064.199951171875</ele>
        <time>2019-10-27T13:10:37.000Z</time>
      </trkpt>
      <trkpt lat="37.5976658798754215240478515625" lon="-2.2762028686702251434326171875">
        <ele>1064.4000244140625</ele>
        <time>2019-10-27T13:10:44.000Z</time>
      </trkpt>
      <trkpt lat="37.597780711948871612548828125" lon="-2.27641551755368709564208984375">
        <ele>1064.5999755859375</ele>
        <time>2019-10-27T13:10:51.000Z</time>
      </trkpt>
      <trkpt lat="37.59790333919227123260498046875" lon="-2.27662070654332637786865234375">
        <ele>1064.4000244140625</ele>
        <time>2019-10-27T13:10:58.000Z</time>
      </trkpt>
      <trkpt lat="37.59803527034819126129150390625" lon="-2.27681457996368408203125">
        <ele>1065</ele>
        <time>2019-10-27T13:11:05.000Z</time>
      </trkpt>
      <trkpt lat="37.59818363003432750701904296875" lon="-2.27699403651058673858642578125">
        <ele>1065.4000244140625</ele>
        <time>2019-10-27T13:11:12.000Z</time>
      </trkpt>
      <trkpt lat="37.5983287207782268524169921875" lon="-2.2771349363029003143310546875">
        <ele>1065.800048828125</ele>
        <time>2019-10-27T13:11:18.000Z</time>
      </trkpt>
      <trkpt lat="37.59849443100392818450927734375" lon="-2.2772348485887050628662109375">
        <ele>1067</ele>
        <time>2019-10-27T13:11:24.000Z</time>
      </trkpt>
      <trkpt lat="37.59859534911811351776123046875" lon="-2.27731388993561267852783203125">
        <ele>1067.5999755859375</ele>
        <time>2019-10-27T13:11:28.000Z</time>
      </trkpt>
      <trkpt lat="37.5987447984516620635986328125" lon="-2.27749309502542018890380859375">
        <ele>1068</ele>
        <time>2019-10-27T13:11:35.000Z</time>
      </trkpt>
      <trkpt lat="37.5988326407968997955322265625" lon="-2.27771672420203685760498046875">
        <ele>1068</ele>
        <time>2019-10-27T13:11:41.000Z</time>
      </trkpt>
      <trkpt lat="37.59889374487102031707763671875" lon="-2.2779486514627933502197265625">
        <ele>1068</ele>
        <time>2019-10-27T13:11:47.000Z</time>
      </trkpt>
      <trkpt lat="37.5989204831421375274658203125" lon="-2.27818108163774013519287109375">
        <ele>1068</ele>
        <time>2019-10-27T13:11:54.000Z</time>
      </trkpt>
      <trkpt lat="37.5989793241024017333984375" lon="-2.27837319485843181610107421875">
        <ele>1068.199951171875</ele>
        <time>2019-10-27T13:12:21.000Z</time>
      </trkpt>
      <trkpt lat="37.5990706868469715118408203125" lon="-2.2785726003348827362060546875">
        <ele>1069.199951171875</ele>
        <time>2019-10-27T13:12:27.000Z</time>
      </trkpt>
      <trkpt lat="37.5991987623274326324462890625" lon="-2.2787523083388805389404296875">
        <ele>1070.800048828125</ele>
        <time>2019-10-27T13:12:34.000Z</time>
      </trkpt>
      <trkpt lat="37.599324323236942291259765625" lon="-2.27895221672952175140380859375">
        <ele>1071.4000244140625</ele>
        <time>2019-10-27T13:12:41.000Z</time>
      </trkpt>
      <trkpt lat="37.59941258467733860015869140625" lon="-2.279165871441364288330078125">
        <ele>1072</ele>
        <time>2019-10-27T13:12:48.000Z</time>
      </trkpt>
      <trkpt lat="37.59962431155145168304443359375" lon="-2.27925337851047515869140625">
        <ele>1072.4000244140625</ele>
        <time>2019-10-27T13:12:54.000Z</time>
      </trkpt>
      <trkpt lat="37.59976194240152835845947265625" lon="-2.2794413007795810699462890625">
        <ele>1072</ele>
        <time>2019-10-27T13:13:00.000Z</time>
      </trkpt>
      <trkpt lat="37.599929831922054290771484375" lon="-2.2795879840850830078125">
        <ele>1072</ele>
        <time>2019-10-27T13:13:07.000Z</time>
      </trkpt>
      <trkpt lat="37.60011431761085987091064453125" lon="-2.27965411730110645294189453125">
        <ele>1072.5999755859375</ele>
        <time>2019-10-27T13:13:14.000Z</time>
      </trkpt>
      <trkpt lat="37.6002109609544277191162109375" lon="-2.27971061132848262786865234375">
        <ele>1073.4000244140625</ele>
        <time>2019-10-27T13:13:18.000Z</time>
      </trkpt>
      <trkpt lat="37.60006419382989406585693359375" lon="-2.2798044048249721527099609375">
        <ele>1072.199951171875</ele>
        <time>2019-10-27T13:13:25.000Z</time>
      </trkpt>
      <trkpt lat="37.60003016330301761627197265625" lon="-2.27978671900928020477294921875">
        <ele>1072</ele>
        <time>2019-10-27T13:13:26.000Z</time>
      </trkpt>
      <trkpt lat="37.599849365651607513427734375" lon="-2.27971337735652923583984375">
        <ele>1072.199951171875</ele>
        <time>2019-10-27T13:13:31.000Z</time>
      </trkpt>
      <trkpt lat="37.5996587611734867095947265625" lon="-2.27958153001964092254638671875">
        <ele>1072</ele>
        <time>2019-10-27T13:13:36.000Z</time>
      </trkpt>
      <trkpt lat="37.599498666822910308837890625" lon="-2.2794446535408496856689453125">
        <ele>1072</ele>
        <time>2019-10-27T13:13:40.000Z</time>
      </trkpt>
      <trkpt lat="37.5993201322853565216064453125" lon="-2.27946636267006397247314453125">
        <ele>1072</ele>
        <time>2019-10-27T13:13:44.000Z</time>
      </trkpt>
      <trkpt lat="37.59918786585330963134765625" lon="-2.2796297259628772735595703125">
        <ele>1072</ele>
        <time>2019-10-27T13:13:49.000Z</time>
      </trkpt>
      <trkpt lat="37.59905107319355010986328125" lon="-2.2798033989965915679931640625">
        <ele>1072</ele>
        <time>2019-10-27T13:13:54.000Z</time>
      </trkpt>
      <trkpt lat="37.59892609901726245880126953125" lon="-2.2799720428884029388427734375">
        <ele>1072</ele>
        <time>2019-10-27T13:13:58.000Z</time>
      </trkpt>
      <trkpt lat="37.59879902936518192291259765625" lon="-2.28015719912946224212646484375">
        <ele>1072</ele>
        <time>2019-10-27T13:14:02.000Z</time>
      </trkpt>
      <trkpt lat="37.59865486063063144683837890625" lon="-2.2803663276135921478271484375">
        <ele>1071.4000244140625</ele>
        <time>2019-10-27T13:14:07.000Z</time>
      </trkpt>
      <trkpt lat="37.598518989980220794677734375" lon="-2.280561961233615875244140625">
        <ele>1071</ele>
        <time>2019-10-27T13:14:12.000Z</time>
      </trkpt>
      <trkpt lat="37.598410360515117645263671875" lon="-2.2807428427040576934814453125">
        <ele>1071</ele>
        <time>2019-10-27T13:14:16.000Z</time>
      </trkpt>
      <trkpt lat="37.59829242713749408721923828125" lon="-2.280944846570491790771484375">
        <ele>1070.4000244140625</ele>
        <time>2019-10-27T13:14:20.000Z</time>
      </trkpt>
      <trkpt lat="37.59816996753215789794921875" lon="-2.2811599262058734893798828125">
        <ele>1070</ele>
        <time>2019-10-27T13:14:24.000Z</time>
      </trkpt>
      <trkpt lat="37.59804180823266506195068359375" lon="-2.28139906190335750579833984375">
        <ele>1069.800048828125</ele>
        <time>2019-10-27T13:14:28.000Z</time>
      </trkpt>
      <trkpt lat="37.59794089011847972869873046875" lon="-2.28160995058715343475341796875">
        <ele>1069.4000244140625</ele>
        <time>2019-10-27T13:14:31.000Z</time>
      </trkpt>
      <trkpt lat="37.5978405587375164031982421875" lon="-2.28184615261852741241455078125">
        <ele>1069.199951171875</ele>
        <time>2019-10-27T13:14:34.000Z</time>
      </trkpt>
      <trkpt lat="37.59777476079761981964111328125" lon="-2.2820054925978183746337890625">
        <ele>1068.5999755859375</ele>
        <time>2019-10-27T13:14:36.000Z</time>
      </trkpt>
      <trkpt lat="37.5976873375475406646728515625" lon="-2.28221160359680652618408203125">
        <ele>1067.800048828125</ele>
        <time>2019-10-27T13:14:39.000Z</time>
      </trkpt>
      <trkpt lat="37.5976062007248401641845703125" lon="-2.28241813369095325469970703125">
        <ele>1067.199951171875</ele>
        <time>2019-10-27T13:14:43.000Z</time>
      </trkpt>
      <trkpt lat="37.59752967394888401031494140625" lon="-2.28266506455838680267333984375">
        <ele>1067</ele>
        <time>2019-10-27T13:14:47.000Z</time>
      </trkpt>
      <trkpt lat="37.59749949909746646881103515625" lon="-2.28290411643683910369873046875">
        <ele>1066.199951171875</ele>
        <time>2019-10-27T13:14:50.000Z</time>
      </trkpt>
      <trkpt lat="37.59752548299729824066162109375" lon="-2.2831888496875762939453125">
        <ele>1065.199951171875</ele>
        <time>2019-10-27T13:14:54.000Z</time>
      </trkpt>
      <trkpt lat="37.59757543914020061492919921875" lon="-2.28344458155333995819091796875">
        <ele>1065.4000244140625</ele>
        <time>2019-10-27T13:14:59.000Z</time>
      </trkpt>
      <trkpt lat="37.59762757457792758941650390625" lon="-2.28368547745048999786376953125">
        <ele>1066</ele>
        <time>2019-10-27T13:15:04.000Z</time>
      </trkpt>
      <trkpt lat="37.59768155403435230255126953125" lon="-2.2839058376848697662353515625">
        <ele>1066.199951171875</ele>
        <time>2019-10-27T13:15:09.000Z</time>
      </trkpt>
      <trkpt lat="37.59762145578861236572265625" lon="-2.28416718542575836181640625">
        <ele>1065.5999755859375</ele>
        <time>2019-10-27T13:15:13.000Z</time>
      </trkpt>
      <trkpt lat="37.59747016243636608123779296875" lon="-2.28433004580438137054443359375">
        <ele>1064.5999755859375</ele>
        <time>2019-10-27T13:15:15.000Z</time>
      </trkpt>
      <trkpt lat="37.5973919592797756195068359375" lon="-2.2843946702778339385986328125">
        <ele>1064.199951171875</ele>
        <time>2019-10-27T13:15:16.000Z</time>
      </trkpt>
      <trkpt lat="37.5972236506640911102294921875" lon="-2.28451989591121673583984375">
        <ele>1063.800048828125</ele>
        <time>2019-10-27T13:15:19.000Z</time>
      </trkpt>
      <trkpt lat="37.59713337756693363189697265625" lon="-2.2846498154103755950927734375">
        <ele>1064.4000244140625</ele>
        <time>2019-10-27T13:15:23.000Z</time>
      </trkpt>
      <trkpt lat="37.59700848720967769622802734375" lon="-2.28481552563607692718505859375">
        <ele>1064.5999755859375</ele>
        <time>2019-10-27T13:15:28.000Z</time>
      </trkpt>
      <trkpt lat="37.59691796265542507171630859375" lon="-2.28491577319800853729248046875">
        <ele>1065</ele>
        <time>2019-10-27T13:15:31.000Z</time>
      </trkpt>
      <trkpt lat="37.5968310423195362091064453125" lon="-2.28501744568347930908203125">
        <ele>1064.800048828125</ele>
        <time>2019-10-27T13:15:34.000Z</time>
      </trkpt>
      <trkpt lat="37.596696428954601287841796875" lon="-2.285180725157260894775390625">
        <ele>1064.199951171875</ele>
        <time>2019-10-27T13:15:39.000Z</time>
      </trkpt>
      <trkpt lat="37.59655150584876537322998046875" lon="-2.2853515483438968658447265625">
        <ele>1063.4000244140625</ele>
        <time>2019-10-27T13:15:43.000Z</time>
      </trkpt>
      <trkpt lat="37.59642074815928936004638671875" lon="-2.28553117252886295318603515625">
        <ele>1062.800048828125</ele>
        <time>2019-10-27T13:15:46.000Z</time>
      </trkpt>
      <trkpt lat="37.5963811017572879791259765625" lon="-2.285602502524852752685546875">
        <ele>1062.800048828125</ele>
        <time>2019-10-27T13:15:47.000Z</time>
      </trkpt>
      <trkpt lat="37.5963274575769901275634765625" lon="-2.28584180586040019989013671875">
        <ele>1062.4000244140625</ele>
        <time>2019-10-27T13:15:50.000Z</time>
      </trkpt>
      <trkpt lat="37.596273981034755706787109375" lon="-2.28608429431915283203125">
        <ele>1062.5999755859375</ele>
        <time>2019-10-27T13:15:53.000Z</time>
      </trkpt>
      <trkpt lat="37.5961571373045444488525390625" lon="-2.28629241697490215301513671875">
        <ele>1063</ele>
        <time>2019-10-27T13:15:56.000Z</time>
      </trkpt>
      <trkpt lat="37.596121095120906829833984375" lon="-2.2863580472767353057861328125">
        <ele>1063</ele>
        <time>2019-10-27T13:15:57.000Z</time>
      </trkpt>
      <trkpt lat="37.59600064717233180999755859375" lon="-2.28661344386637210845947265625">
        <ele>1063</ele>
        <time>2019-10-27T13:16:01.000Z</time>
      </trkpt>
      <trkpt lat="37.59593945927917957305908203125" lon="-2.28678141720592975616455078125">
        <ele>1062.4000244140625</ele>
        <time>2019-10-27T13:16:04.000Z</time>
      </trkpt>
      <trkpt lat="37.595875672996044158935546875" lon="-2.2870185412466526031494140625">
        <ele>1062.4000244140625</ele>
        <time>2019-10-27T13:16:09.000Z</time>
      </trkpt>
      <trkpt lat="37.59582580067217350006103515625" lon="-2.28724367916584014892578125">
        <ele>1063.199951171875</ele>
        <time>2019-10-27T13:16:14.000Z</time>
      </trkpt>
      <trkpt lat="37.5957833044230937957763671875" lon="-2.28747175075113773345947265625">
        <ele>1063.199951171875</ele>
        <time>2019-10-27T13:16:19.000Z</time>
      </trkpt>
      <trkpt lat="37.59573586285114288330078125" lon="-2.2876911051571369171142578125">
        <ele>1062.5999755859375</ele>
        <time>2019-10-27T13:16:24.000Z</time>
      </trkpt>
      <trkpt lat="37.595711052417755126953125" lon="-2.28777014650404453277587890625">
        <ele>1062.4000244140625</ele>
        <time>2019-10-27T13:16:26.000Z</time>
      </trkpt>
      <trkpt lat="37.5956669636070728302001953125" lon="-2.28803090751171112060546875">
        <ele>1062.5999755859375</ele>
        <time>2019-10-27T13:16:32.000Z</time>
      </trkpt>
      <trkpt lat="37.59563125669956207275390625" lon="-2.28829099796712398529052734375">
        <ele>1063.800048828125</ele>
        <time>2019-10-27T13:16:38.000Z</time>
      </trkpt>
      <trkpt lat="37.59559697471559047698974609375" lon="-2.288555614650249481201171875">
        <ele>1065</ele>
        <time>2019-10-27T13:16:44.000Z</time>
      </trkpt>
      <trkpt lat="37.5955688953399658203125" lon="-2.28879760019481182098388671875">
        <ele>1066</ele>
        <time>2019-10-27T13:16:49.000Z</time>
      </trkpt>
      <trkpt lat="37.59553335607051849365234375" lon="-2.28906732983887195587158203125">
        <ele>1067</ele>
        <time>2019-10-27T13:16:54.000Z</time>
      </trkpt>
      <trkpt lat="37.59549840353429317474365234375" lon="-2.28930420242249965667724609375">
        <ele>1067.800048828125</ele>
        <time>2019-10-27T13:16:59.000Z</time>
      </trkpt>
      <trkpt lat="37.59546286426484584808349609375" lon="-2.28953805752098560333251953125">
        <ele>1068</ele>
        <time>2019-10-27T13:17:04.000Z</time>
      </trkpt>
      <trkpt lat="37.5954349525272846221923828125" lon="-2.2897701524198055267333984375">
        <ele>1068</ele>
        <time>2019-10-27T13:17:09.000Z</time>
      </trkpt>
      <trkpt lat="37.59540419094264507293701171875" lon="-2.2900239564478397369384765625">
        <ele>1068.4000244140625</ele>
        <time>2019-10-27T13:17:15.000Z</time>
      </trkpt>
      <trkpt lat="37.5954064540565013885498046875" lon="-2.29025445878505706787109375">
        <ele>1068.800048828125</ele>
        <time>2019-10-27T13:17:20.000Z</time>
      </trkpt>
      <trkpt lat="37.595417015254497528076171875" lon="-2.29051924310624599456787109375">
        <ele>1068.800048828125</ele>
        <time>2019-10-27T13:17:26.000Z</time>
      </trkpt>
      <trkpt lat="37.59544023312628269195556640625" lon="-2.290791571140289306640625">
        <ele>1069.4000244140625</ele>
        <time>2019-10-27T13:17:32.000Z</time>
      </trkpt>
      <trkpt lat="37.5954450108110904693603515625" lon="-2.29102182202041149139404296875">
        <ele>1070</ele>
        <time>2019-10-27T13:17:37.000Z</time>
      </trkpt>
      <trkpt lat="37.59544073604047298431396484375" lon="-2.29125198908150196075439453125">
        <ele>1070</ele>
        <time>2019-10-27T13:17:42.000Z</time>
      </trkpt>
      <trkpt lat="37.59543947875499725341796875" lon="-2.2914929687976837158203125">
        <ele>1070</ele>
        <time>2019-10-27T13:17:47.000Z</time>
      </trkpt>
      <trkpt lat="37.59543587453663349151611328125" lon="-2.2917211242020130157470703125">
        <ele>1069</ele>
        <time>2019-10-27T13:17:52.000Z</time>
      </trkpt>
      <trkpt lat="37.5954326055943965911865234375" lon="-2.29195908643305301666259765625">
        <ele>1069</ele>
        <time>2019-10-27T13:17:57.000Z</time>
      </trkpt>
      <trkpt lat="37.5954413227736949920654296875" lon="-2.29220517911016941070556640625">
        <ele>1068.5999755859375</ele>
        <time>2019-10-27T13:18:02.000Z</time>
      </trkpt>
      <trkpt lat="37.5954513810575008392333984375" lon="-2.29244389571249485015869140625">
        <ele>1069.5999755859375</ele>
        <time>2019-10-27T13:18:07.000Z</time>
      </trkpt>
      <trkpt lat="37.59546604938805103302001953125" lon="-2.29267322458326816558837890625">
        <ele>1071.199951171875</ele>
        <time>2019-10-27T13:18:12.000Z</time>
      </trkpt>
      <trkpt lat="37.59547443129122257232666015625" lon="-2.2929029725492000579833984375">
        <ele>1072.199951171875</ele>
        <time>2019-10-27T13:18:17.000Z</time>
      </trkpt>
      <trkpt lat="37.595475353300571441650390625" lon="-2.29313003830611705780029296875">
        <ele>1072.5999755859375</ele>
        <time>2019-10-27T13:18:22.000Z</time>
      </trkpt>
      <trkpt lat="37.5954852439463138580322265625" lon="-2.29340027086436748504638671875">
        <ele>1072.199951171875</ele>
        <time>2019-10-27T13:18:28.000Z</time>
      </trkpt>
      <trkpt lat="37.59549312293529510498046875" lon="-2.2936523146927356719970703125">
        <ele>1071.4000244140625</ele>
        <time>2019-10-27T13:18:34.000Z</time>
      </trkpt>
      <trkpt lat="37.59551248513162136077880859375" lon="-2.2939128242433071136474609375">
        <ele>1071</ele>
        <time>2019-10-27T13:18:39.000Z</time>
      </trkpt>
      <trkpt lat="37.5955177657306194305419921875" lon="-2.2941592521965503692626953125">
        <ele>1071</ele>
        <time>2019-10-27T13:18:42.000Z</time>
      </trkpt>
      <trkpt lat="37.59551298804581165313720703125" lon="-2.29439788497984409332275390625">
        <ele>1071.800048828125</ele>
        <time>2019-10-27T13:18:45.000Z</time>
      </trkpt>
      <trkpt lat="37.595504187047481536865234375" lon="-2.29454406537115573883056640625">
        <ele>1072.199951171875</ele>
        <time>2019-10-27T13:18:48.000Z</time>
      </trkpt>
      <trkpt lat="37.59551013819873332977294921875" lon="-2.29480021633207798004150390625">
        <ele>1073.199951171875</ele>
        <time>2019-10-27T13:18:55.000Z</time>
      </trkpt>
      <trkpt lat="37.5955110602080821990966796875" lon="-2.29502954520285129547119140625">
        <ele>1073.800048828125</ele>
        <time>2019-10-27T13:19:02.000Z</time>
      </trkpt>
      <trkpt lat="37.59552589617669582366943359375" lon="-2.29528225958347320556640625">
        <ele>1073.800048828125</ele>
        <time>2019-10-27T13:19:09.000Z</time>
      </trkpt>
      <trkpt lat="37.59553737938404083251953125" lon="-2.29554268531501293182373046875">
        <ele>1074</ele>
        <time>2019-10-27T13:19:16.000Z</time>
      </trkpt>
      <trkpt lat="37.5955499522387981414794921875" lon="-2.295743934810161590576171875">
        <ele>1074</ele>
        <time>2019-10-27T13:19:22.000Z</time>
      </trkpt>
      <trkpt lat="37.5955573283135890960693359375" lon="-2.29599748738110065460205078125">
        <ele>1073.199951171875</ele>
        <time>2019-10-27T13:19:29.000Z</time>
      </trkpt>
      <trkpt lat="37.59557367302477359771728515625" lon="-2.29624743573367595672607421875">
        <ele>1073.5999755859375</ele>
        <time>2019-10-27T13:19:36.000Z</time>
      </trkpt>
      <trkpt lat="37.59558456949889659881591796875" lon="-2.296499647200107574462890625">
        <ele>1074</ele>
        <time>2019-10-27T13:19:43.000Z</time>
      </trkpt>
      <trkpt lat="37.5955782830715179443359375" lon="-2.2967459075152873992919921875">
        <ele>1074</ele>
        <time>2019-10-27T13:19:49.000Z</time>
      </trkpt>
      <trkpt lat="37.595579624176025390625" lon="-2.297013960778713226318359375">
        <ele>1074</ele>
        <time>2019-10-27T13:19:55.000Z</time>
      </trkpt>
      <trkpt lat="37.5955782830715179443359375" lon="-2.29725711978971958160400390625">
        <ele>1074</ele>
        <time>2019-10-27T13:20:00.000Z</time>
      </trkpt>
      <trkpt lat="37.5955687277019023895263671875" lon="-2.2975096665322780609130859375">
        <ele>1074.4000244140625</ele>
        <time>2019-10-27T13:20:06.000Z</time>
      </trkpt>
      <trkpt lat="37.59556847624480724334716796875" lon="-2.29775886051356792449951171875">
        <ele>1076.199951171875</ele>
        <time>2019-10-27T13:20:12.000Z</time>
      </trkpt>
      <trkpt lat="37.595583982765674591064453125" lon="-2.29800470173358917236328125">
        <ele>1078</ele>
        <time>2019-10-27T13:20:18.000Z</time>
      </trkpt>
      <trkpt lat="37.59558691643178462982177734375" lon="-2.298249788582324981689453125">
        <ele>1079</ele>
        <time>2019-10-27T13:20:24.000Z</time>
      </trkpt>
      <trkpt lat="37.5956046022474765777587890625" lon="-2.298505604267120361328125">
        <ele>1079.800048828125</ele>
        <time>2019-10-27T13:20:30.000Z</time>
      </trkpt>
      <trkpt lat="37.59561206214129924774169921875" lon="-2.2987706400454044342041015625">
        <ele>1079.199951171875</ele>
        <time>2019-10-27T13:20:36.000Z</time>
      </trkpt>
      <trkpt lat="37.5956280715763568878173828125" lon="-2.2990204207599163055419921875">
        <ele>1078.4000244140625</ele>
        <time>2019-10-27T13:20:42.000Z</time>
      </trkpt>
      <trkpt lat="37.59563653729856014251708984375" lon="-2.29927263222634792327880859375">
        <ele>1078.199951171875</ele>
        <time>2019-10-27T13:20:48.000Z</time>
      </trkpt>
      <trkpt lat="37.59564693085849285125732421875" lon="-2.2995183058083057403564453125">
        <ele>1079</ele>
        <time>2019-10-27T13:20:54.000Z</time>
      </trkpt>
      <trkpt lat="37.59565413929522037506103515625" lon="-2.2997546754777431488037109375">
        <ele>1079.199951171875</ele>
        <time>2019-10-27T13:21:00.000Z</time>
      </trkpt>
      <trkpt lat="37.5956602580845355987548828125" lon="-2.3000047914683818817138671875">
        <ele>1079.199951171875</ele>
        <time>2019-10-27T13:21:06.000Z</time>
      </trkpt>
      <trkpt lat="37.595663778483867645263671875" lon="-2.300249040126800537109375">
        <ele>1079.4000244140625</ele>
        <time>2019-10-27T13:21:12.000Z</time>
      </trkpt>
      <trkpt lat="37.595673836767673492431640625" lon="-2.3004963062703609466552734375">
        <ele>1080</ele>
        <time>2019-10-27T13:21:18.000Z</time>
      </trkpt>
      <trkpt lat="37.59567274712026119232177734375" lon="-2.3007514514029026031494140625">
        <ele>1081</ele>
        <time>2019-10-27T13:21:24.000Z</time>
      </trkpt>
      <trkpt lat="37.59567685425281524658203125" lon="-2.30100785382091999053955078125">
        <ele>1081.199951171875</ele>
        <time>2019-10-27T13:21:30.000Z</time>
      </trkpt>
      <trkpt lat="37.595673501491546630859375" lon="-2.301245816051959991455078125">
        <ele>1081.4000244140625</ele>
        <time>2019-10-27T13:21:36.000Z</time>
      </trkpt>
      <trkpt lat="37.59567685425281524658203125" lon="-2.30148009024560451507568359375">
        <ele>1081.4000244140625</ele>
        <time>2019-10-27T13:21:42.000Z</time>
      </trkpt>
      <trkpt lat="37.59568481706082820892333984375" lon="-2.3017106764018535614013671875">
        <ele>1081.800048828125</ele>
        <time>2019-10-27T13:21:48.000Z</time>
      </trkpt>
      <trkpt lat="37.5956874154508113861083984375" lon="-2.30196489952504634857177734375">
        <ele>1082.4000244140625</ele>
        <time>2019-10-27T13:21:54.000Z</time>
      </trkpt>
      <trkpt lat="37.595699317753314971923828125" lon="-2.3022125847637653350830078125">
        <ele>1082.800048828125</ele>
        <time>2019-10-27T13:22:00.000Z</time>
      </trkpt>
      <trkpt lat="37.59571901522576808929443359375" lon="-2.3024479486048221588134765625">
        <ele>1083</ele>
        <time>2019-10-27T13:22:06.000Z</time>
      </trkpt>
      <trkpt lat="37.5957239605486392974853515625" lon="-2.30270016007125377655029296875">
        <ele>1082.5999755859375</ele>
        <time>2019-10-27T13:22:12.000Z</time>
      </trkpt>
      <trkpt lat="37.595728822052478790283203125" lon="-2.30295513756573200225830078125">
        <ele>1082</ele>
        <time>2019-10-27T13:22:16.000Z</time>
      </trkpt>
      <trkpt lat="37.5957477651536464691162109375" lon="-2.30323693715035915374755859375">
        <ele>1083.4000244140625</ele>
        <time>2019-10-27T13:22:19.000Z</time>
      </trkpt>
      <trkpt lat="37.5957460887730121612548828125" lon="-2.3033250309526920318603515625">
        <ele>1083.800048828125</ele>
        <time>2019-10-27T13:22:20.000Z</time>
      </trkpt>
      <trkpt lat="37.59573628194630146026611328125" lon="-2.30349560268223285675048828125">
        <ele>1084.4000244140625</ele>
        <time>2019-10-27T13:22:23.000Z</time>
      </trkpt>
      <trkpt lat="37.59576176293194293975830078125" lon="-2.303742952644824981689453125">
        <ele>1086</ele>
        <time>2019-10-27T13:22:32.000Z</time>
      </trkpt>
      <trkpt lat="37.5957497768104076385498046875" lon="-2.30398443527519702911376953125">
        <ele>1087.5999755859375</ele>
        <time>2019-10-27T13:22:40.000Z</time>
      </trkpt>
      <trkpt lat="37.59577031247317790985107421875" lon="-2.30423279106616973876953125">
        <ele>1088.4000244140625</ele>
        <time>2019-10-27T13:22:47.000Z</time>
      </trkpt>
      <trkpt lat="37.5957812927663326263427734375" lon="-2.30447276495397090911865234375">
        <ele>1088.800048828125</ele>
        <time>2019-10-27T13:22:54.000Z</time>
      </trkpt>
      <trkpt lat="37.5957794487476348876953125" lon="-2.3046969808638095855712890625">
        <ele>1088.5999755859375</ele>
        <time>2019-10-27T13:23:03.000Z</time>
      </trkpt>
      <trkpt lat="37.59579227305948734283447265625" lon="-2.3048320971429347991943359375">
        <ele>1088.199951171875</ele>
        <time>2019-10-27T13:24:47.000Z</time>
      </trkpt>
      <trkpt lat="37.59579679928719997406005859375" lon="-2.30509470216929912567138671875">
        <ele>1087</ele>
        <time>2019-10-27T13:24:54.000Z</time>
      </trkpt>
      <trkpt lat="37.5958010740578174591064453125" lon="-2.30534397996962070465087890625">
        <ele>1086.5999755859375</ele>
        <time>2019-10-27T13:25:00.000Z</time>
      </trkpt>
      <trkpt lat="37.59580987505614757537841796875" lon="-2.3055985383689403533935546875">
        <ele>1086.800048828125</ele>
        <time>2019-10-27T13:25:06.000Z</time>
      </trkpt>
      <trkpt lat="37.59581171907484531402587890625" lon="-2.30585829354822635650634765625">
        <ele>1087</ele>
        <time>2019-10-27T13:25:12.000Z</time>
      </trkpt>
      <trkpt lat="37.5958156585693359375" lon="-2.3061054758727550506591796875">
        <ele>1087.5999755859375</ele>
        <time>2019-10-27T13:25:18.000Z</time>
      </trkpt>
      <trkpt lat="37.59581557475030422210693359375" lon="-2.30635936371982097625732421875">
        <ele>1087.5999755859375</ele>
        <time>2019-10-27T13:25:24.000Z</time>
      </trkpt>
      <trkpt lat="37.59581658057868480682373046875" lon="-2.30658785440027713775634765625">
        <ele>1088.4000244140625</ele>
        <time>2019-10-27T13:25:29.000Z</time>
      </trkpt>
      <trkpt lat="37.595823369920253753662109375" lon="-2.3068192787468433380126953125">
        <ele>1088.800048828125</ele>
        <time>2019-10-27T13:25:34.000Z</time>
      </trkpt>
      <trkpt lat="37.59582705795764923095703125" lon="-2.3069473542273044586181640625">
        <ele>1088.800048828125</ele>
        <time>2019-10-27T13:25:37.000Z</time>
      </trkpt>
      <trkpt lat="37.59582974016666412353515625" lon="-2.30719168670475482940673828125">
        <ele>1089</ele>
        <time>2019-10-27T13:25:43.000Z</time>
      </trkpt>
      <trkpt lat="37.595839463174343109130859375" lon="-2.30743710882961750030517578125">
        <ele>1089.800048828125</ele>
        <time>2019-10-27T13:25:49.000Z</time>
      </trkpt>
      <trkpt lat="37.59584491141140460968017578125" lon="-2.307674400508403778076171875">
        <ele>1090.800048828125</ele>
        <time>2019-10-27T13:25:55.000Z</time>
      </trkpt>
      <trkpt lat="37.59585681371390819549560546875" lon="-2.30792007409036159515380859375">
        <ele>1091</ele>
        <time>2019-10-27T13:26:01.000Z</time>
      </trkpt>
      <trkpt lat="37.59586368687450885772705078125" lon="-2.308147139847278594970703125">
        <ele>1091</ele>
        <time>2019-10-27T13:26:06.000Z</time>
      </trkpt>
      <trkpt lat="37.59586921893060207366943359375" lon="-2.30838753283023834228515625">
        <ele>1091</ele>
        <time>2019-10-27T13:26:10.000Z</time>
      </trkpt>
      <trkpt lat="37.59586100466549396514892578125" lon="-2.308624573051929473876953125">
        <ele>1091.199951171875</ele>
        <time>2019-10-27T13:26:14.000Z</time>
      </trkpt>
      <trkpt lat="37.595886401832103729248046875" lon="-2.3088751919567584991455078125">
        <ele>1092.199951171875</ele>
        <time>2019-10-27T13:26:21.000Z</time>
      </trkpt>
      <trkpt lat="37.5958909280598163604736328125" lon="-2.3091303370893001556396484375">
        <ele>1093</ele>
        <time>2019-10-27T13:26:28.000Z</time>
      </trkpt>
      <trkpt lat="37.59589989669620990753173828125" lon="-2.30938707478344440460205078125">
        <ele>1093</ele>
        <time>2019-10-27T13:26:35.000Z</time>
      </trkpt>
      <trkpt lat="37.59590224362909793853759765625" lon="-2.3096488416194915771484375">
        <ele>1093</ele>
        <time>2019-10-27T13:26:42.000Z</time>
      </trkpt>
      <trkpt lat="37.5959055125713348388671875" lon="-2.3098880611360073089599609375">
        <ele>1093</ele>
        <time>2019-10-27T13:26:48.000Z</time>
      </trkpt>
      <trkpt lat="37.59590945206582546234130859375" lon="-2.31012350879609584808349609375">
        <ele>1093.199951171875</ele>
        <time>2019-10-27T13:26:53.000Z</time>
      </trkpt>
      <trkpt lat="37.59591733105480670928955078125" lon="-2.3103792406618595123291015625">
        <ele>1093.199951171875</ele>
        <time>2019-10-27T13:26:59.000Z</time>
      </trkpt>
      <trkpt lat="37.59593258611857891082763671875" lon="-2.31064804829657077789306640625">
        <ele>1093.5999755859375</ele>
        <time>2019-10-27T13:27:05.000Z</time>
      </trkpt>
      <trkpt lat="37.59599276818335056304931640625" lon="-2.31091325171291828155517578125">
        <ele>1094</ele>
        <time>2019-10-27T13:27:09.000Z</time>
      </trkpt>
      <trkpt lat="37.59604188613593578338623046875" lon="-2.3110487870872020721435546875">
        <ele>1093.5999755859375</ele>
        <time>2019-10-27T13:27:11.000Z</time>
      </trkpt>
      <trkpt lat="37.5960263796150684356689453125" lon="-2.31127518229186534881591796875">
        <ele>1093.5999755859375</ele>
        <time>2019-10-27T13:27:16.000Z</time>
      </trkpt>
      <trkpt lat="37.596002407371997833251953125" lon="-2.31131994165480136871337890625">
        <ele>1093.5999755859375</ele>
        <time>2019-10-27T13:27:18.000Z</time>
      </trkpt>
      <trkpt lat="37.59594951756298542022705078125" lon="-2.3115403018891811370849609375">
        <ele>1094</ele>
        <time>2019-10-27T13:27:27.000Z</time>
      </trkpt>
      <trkpt lat="37.595956139266490936279296875" lon="-2.311772815883159637451171875">
        <ele>1094.5999755859375</ele>
        <time>2019-10-27T13:27:35.000Z</time>
      </trkpt>
      <trkpt lat="37.59598488919436931610107421875" lon="-2.3120177350938320159912109375">
        <ele>1095.4000244140625</ele>
        <time>2019-10-27T13:27:43.000Z</time>
      </trkpt>
      <trkpt lat="37.59598396718502044677734375" lon="-2.312251590192317962646484375">
        <ele>1095.4000244140625</ele>
        <time>2019-10-27T13:27:50.000Z</time>
      </trkpt>
      <trkpt lat="37.59598505683243274688720703125" lon="-2.31250011362135410308837890625">
        <ele>1096</ele>
        <time>2019-10-27T13:27:57.000Z</time>
      </trkpt>
      <trkpt lat="37.59598807431757450103759765625" lon="-2.312753498554229736328125">
        <ele>1096</ele>
        <time>2019-10-27T13:28:04.000Z</time>
      </trkpt>
      <trkpt lat="37.59598908014595508575439453125" lon="-2.312985174357891082763671875">
        <ele>1096</ele>
        <time>2019-10-27T13:28:10.000Z</time>
      </trkpt>
      <trkpt lat="37.59599276818335056304931640625" lon="-2.31322715990245342254638671875">
        <ele>1096.199951171875</ele>
        <time>2019-10-27T13:28:16.000Z</time>
      </trkpt>
      <trkpt lat="37.5959965400397777557373046875" lon="-2.31345690786838531494140625">
        <ele>1097.5999755859375</ele>
        <time>2019-10-27T13:28:22.000Z</time>
      </trkpt>
      <trkpt lat="37.5960032455623149871826171875" lon="-2.31369168497622013092041015625">
        <ele>1098.5999755859375</ele>
        <time>2019-10-27T13:28:28.000Z</time>
      </trkpt>
      <trkpt lat="37.5960076041519641876220703125" lon="-2.3139184154570102691650390625">
        <ele>1100.199951171875</ele>
        <time>2019-10-27T13:28:34.000Z</time>
      </trkpt>
      <trkpt lat="37.59601573459804058074951171875" lon="-2.31418504379689693450927734375">
        <ele>1101.199951171875</ele>
        <time>2019-10-27T13:28:41.000Z</time>
      </trkpt>
      <trkpt lat="37.5960243679583072662353515625" lon="-2.314428202807903289794921875">
        <ele>1101.4000244140625</ele>
        <time>2019-10-27T13:28:47.000Z</time>
      </trkpt>
      <trkpt lat="37.59602428413927555084228515625" lon="-2.3146999441087245941162109375">
        <ele>1101.4000244140625</ele>
        <time>2019-10-27T13:28:53.000Z</time>
      </trkpt>
      <trkpt lat="37.59602914564311504364013671875" lon="-2.31495282612740993499755859375">
        <ele>1101.199951171875</ele>
        <time>2019-10-27T13:28:58.000Z</time>
      </trkpt>
      <trkpt lat="37.5960314087569713592529296875" lon="-2.31520461849868297576904296875">
        <ele>1100.4000244140625</ele>
        <time>2019-10-27T13:29:03.000Z</time>
      </trkpt>
      <trkpt lat="37.5960300676524639129638671875" lon="-2.3154580034315586090087890625">
        <ele>1100.5999755859375</ele>
        <time>2019-10-27T13:29:09.000Z</time>
      </trkpt>
      <trkpt lat="37.59604205377399921417236328125" lon="-2.3156980611383914947509765625">
        <ele>1101.5999755859375</ele>
        <time>2019-10-27T13:29:15.000Z</time>
      </trkpt>
      <trkpt lat="37.59604808874428272247314453125" lon="-2.3159508593380451202392578125">
        <ele>1102.4000244140625</ele>
        <time>2019-10-27T13:29:21.000Z</time>
      </trkpt>
      <trkpt lat="37.59605705738067626953125" lon="-2.31621044687926769256591796875">
        <ele>1102.5999755859375</ele>
        <time>2019-10-27T13:29:27.000Z</time>
      </trkpt>
      <trkpt lat="37.59606552310287952423095703125" lon="-2.31646525673568248748779296875">
        <ele>1103.4000244140625</ele>
        <time>2019-10-27T13:29:33.000Z</time>
      </trkpt>
      <trkpt lat="37.59607692249119281768798828125" lon="-2.31670548208057880401611328125">
        <ele>1103.800048828125</ele>
        <time>2019-10-27T13:29:39.000Z</time>
      </trkpt>
      <trkpt lat="37.59607725776731967926025390625" lon="-2.31697269715368747711181640625">
        <ele>1103.5999755859375</ele>
        <time>2019-10-27T13:29:45.000Z</time>
      </trkpt>
      <trkpt lat="37.59609997272491455078125" lon="-2.31723505072295665740966796875">
        <ele>1103.800048828125</ele>
        <time>2019-10-27T13:29:51.000Z</time>
      </trkpt>
      <trkpt lat="37.59613811038434505462646484375" lon="-2.3174639604985713958740234375">
        <ele>1104</ele>
        <time>2019-10-27T13:29:56.000Z</time>
      </trkpt>
      <trkpt lat="37.59609385393559932708740234375" lon="-2.3176874220371246337890625">
        <ele>1103.5999755859375</ele>
        <time>2019-10-27T13:30:00.000Z</time>
      </trkpt>
      <trkpt lat="37.5960501842200756072998046875" lon="-2.317930497229099273681640625">
        <ele>1104.199951171875</ele>
        <time>2019-10-27T13:30:06.000Z</time>
      </trkpt>
      <trkpt lat="37.5960664451122283935546875" lon="-2.31817751191556453704833984375">
        <ele>1104.800048828125</ele>
        <time>2019-10-27T13:30:12.000Z</time>
      </trkpt>
      <trkpt lat="37.59606317616999149322509765625" lon="-2.31841052882373332977294921875">
        <ele>1105</ele>
        <time>2019-10-27T13:30:17.000Z</time>
      </trkpt>
      <trkpt lat="37.59605848230421543121337890625" lon="-2.31868109665811061859130859375">
        <ele>1105.800048828125</ele>
        <time>2019-10-27T13:30:22.000Z</time>
      </trkpt>
      <trkpt lat="37.59605915285646915435791015625" lon="-2.31892048381268978118896484375">
        <ele>1105.800048828125</ele>
        <time>2019-10-27T13:30:27.000Z</time>
      </trkpt>
      <trkpt lat="37.59606233797967433929443359375" lon="-2.31916858814656734466552734375">
        <ele>1105.5999755859375</ele>
        <time>2019-10-27T13:30:33.000Z</time>
      </trkpt>
      <trkpt lat="37.596063427627086639404296875" lon="-2.3194147646427154541015625">
        <ele>1105.5999755859375</ele>
        <time>2019-10-27T13:30:39.000Z</time>
      </trkpt>
      <trkpt lat="37.59606636129319667816162109375" lon="-2.3196824826300144195556640625">
        <ele>1105.800048828125</ele>
        <time>2019-10-27T13:30:45.000Z</time>
      </trkpt>
      <trkpt lat="37.5960763357579708099365234375" lon="-2.3199538886547088623046875">
        <ele>1105.800048828125</ele>
        <time>2019-10-27T13:30:51.000Z</time>
      </trkpt>
      <trkpt lat="37.59607675485312938690185546875" lon="-2.32021800242364406585693359375">
        <ele>1105.5999755859375</ele>
        <time>2019-10-27T13:30:56.000Z</time>
      </trkpt>
      <trkpt lat="37.59607256390154361724853515625" lon="-2.32045336626470088958740234375">
        <ele>1104.800048828125</ele>
        <time>2019-10-27T13:31:00.000Z</time>
      </trkpt>
      <trkpt lat="37.5960716418921947479248046875" lon="-2.3207275383174419403076171875">
        <ele>1103.800048828125</ele>
        <time>2019-10-27T13:31:05.000Z</time>
      </trkpt>
      <trkpt lat="37.59607541374862194061279296875" lon="-2.320995591580867767333984375">
        <ele>1103.4000244140625</ele>
        <time>2019-10-27T13:31:10.000Z</time>
      </trkpt>
      <trkpt lat="37.596084885299205780029296875" lon="-2.32122969813644886016845703125">
        <ele>1104</ele>
        <time>2019-10-27T13:31:14.000Z</time>
      </trkpt>
      <trkpt lat="37.59611698798835277557373046875" lon="-2.32149817049503326416015625">
        <ele>1104.800048828125</ele>
        <time>2019-10-27T13:31:18.000Z</time>
      </trkpt>
      <trkpt lat="37.59609653614461421966552734375" lon="-2.3217357136309146881103515625">
        <ele>1104.5999755859375</ele>
        <time>2019-10-27T13:31:22.000Z</time>
      </trkpt>
      <trkpt lat="37.5960578955709934234619140625" lon="-2.32198574580252170562744140625">
        <ele>1104.199951171875</ele>
        <time>2019-10-27T13:31:27.000Z</time>
      </trkpt>
      <trkpt lat="37.5960542075335979461669921875" lon="-2.3220384679734706878662109375">
        <ele>1104</ele>
        <time>2019-10-27T13:31:28.000Z</time>
      </trkpt>
      <trkpt lat="37.5960428081452846527099609375" lon="-2.32231867499649524688720703125">
        <ele>1104.4000244140625</ele>
        <time>2019-10-27T13:31:33.000Z</time>
      </trkpt>
      <trkpt lat="37.59603098966181278228759765625" lon="-2.3225583136081695556640625">
        <ele>1104.199951171875</ele>
        <time>2019-10-27T13:31:37.000Z</time>
      </trkpt>
      <trkpt lat="37.59602378122508525848388671875" lon="-2.3228310607373714447021484375">
        <ele>1104.199951171875</ele>
        <time>2019-10-27T13:31:41.000Z</time>
      </trkpt>
      <trkpt lat="37.596017159521579742431640625" lon="-2.323085367679595947265625">
        <ele>1104.199951171875</ele>
        <time>2019-10-27T13:31:44.000Z</time>
      </trkpt>
      <trkpt lat="37.5960076041519641876220703125" lon="-2.32334897853434085845947265625">
        <ele>1103.800048828125</ele>
        <time>2019-10-27T13:31:47.000Z</time>
      </trkpt>
      <trkpt lat="37.59600081481039524078369140625" lon="-2.32360948808491230010986328125">
        <ele>1103.5999755859375</ele>
        <time>2019-10-27T13:31:51.000Z</time>
      </trkpt>
      <trkpt lat="37.595997042953968048095703125" lon="-2.32384116388857364654541015625">
        <ele>1103.4000244140625</ele>
        <time>2019-10-27T13:31:55.000Z</time>
      </trkpt>
      <trkpt lat="37.59599930606782436370849609375" lon="-2.32407703064382076263427734375">
        <ele>1103.199951171875</ele>
        <time>2019-10-27T13:31:59.000Z</time>
      </trkpt>
      <trkpt lat="37.59600282646715641021728515625" lon="-2.32430820353329181671142578125">
        <ele>1103.5999755859375</ele>
        <time>2019-10-27T13:32:03.000Z</time>
      </trkpt>
      <trkpt lat="37.59599712677299976348876953125" lon="-2.3245672881603240966796875">
        <ele>1103</ele>
        <time>2019-10-27T13:32:08.000Z</time>
      </trkpt>
      <trkpt lat="37.5959874875843524932861328125" lon="-2.32483525760471820831298828125">
        <ele>1102.800048828125</ele>
        <time>2019-10-27T13:32:13.000Z</time>
      </trkpt>
      <trkpt lat="37.5959811173379421234130859375" lon="-2.3251042328774929046630859375">
        <ele>1102.4000244140625</ele>
        <time>2019-10-27T13:32:18.000Z</time>
      </trkpt>
      <trkpt lat="37.595978938043117523193359375" lon="-2.325360216200351715087890625">
        <ele>1102.800048828125</ele>
        <time>2019-10-27T13:32:23.000Z</time>
      </trkpt>
      <trkpt lat="37.59597784839570522308349609375" lon="-2.32563011348247528076171875">
        <ele>1103.199951171875</ele>
        <time>2019-10-27T13:32:28.000Z</time>
      </trkpt>
      <trkpt lat="37.59597851894795894622802734375" lon="-2.32589724473655223846435546875">
        <ele>1103.800048828125</ele>
        <time>2019-10-27T13:32:33.000Z</time>
      </trkpt>
      <trkpt lat="37.59597751311957836151123046875" lon="-2.325952313840389251708984375">
        <ele>1104</ele>
        <time>2019-10-27T13:32:34.000Z</time>
      </trkpt>
      <trkpt lat="37.5959791056811809539794921875" lon="-2.3261067084968090057373046875">
        <ele>1104.5999755859375</ele>
        <time>2019-10-27T13:32:37.000Z</time>
      </trkpt>
      <trkpt lat="37.59599964134395122528076171875" lon="-2.32621014118194580078125">
        <ele>1105</ele>
        <time>2019-10-27T13:32:39.000Z</time>
      </trkpt>
      <trkpt lat="37.59613006375730037689208984375" lon="-2.32639110647141933441162109375">
        <ele>1106.199951171875</ele>
        <time>2019-10-27T13:32:44.000Z</time>
      </trkpt>
      <trkpt lat="37.596312202513217926025390625" lon="-2.32643335126340389251708984375">
        <ele>1107.5999755859375</ele>
        <time>2019-10-27T13:32:50.000Z</time>
      </trkpt>
      <trkpt lat="37.59648310951888561248779296875" lon="-2.32647777535021305084228515625">
        <ele>1108.199951171875</ele>
        <time>2019-10-27T13:32:57.000Z</time>
      </trkpt>
      <trkpt lat="37.59661889635026454925537109375" lon="-2.3265144042670726776123046875">
        <ele>1108.800048828125</ele>
        <time>2019-10-27T13:33:03.000Z</time>
      </trkpt>
      <trkpt lat="37.596747390925884246826171875" lon="-2.32659076340496540069580078125">
        <ele>1109.199951171875</ele>
        <time>2019-10-27T13:33:09.000Z</time>
      </trkpt>
      <trkpt lat="37.596723251044750213623046875" lon="-2.326710708439350128173828125">
        <ele>1108.800048828125</ele>
        <time>2019-10-27T13:33:14.000Z</time>
      </trkpt>
      <trkpt lat="37.59652267210185527801513671875" lon="-2.32677214778959751129150390625">
        <ele>1107.800048828125</ele>
        <time>2019-10-27T13:33:22.000Z</time>
      </trkpt>
      <trkpt lat="37.59629786945879459381103515625" lon="-2.32677952386438846588134765625">
        <ele>1107.4000244140625</ele>
        <time>2019-10-27T13:33:27.000Z</time>
      </trkpt>
      <trkpt lat="37.5960941053926944732666015625" lon="-2.32679880224168300628662109375">
        <ele>1106.800048828125</ele>
        <time>2019-10-27T13:33:31.000Z</time>
      </trkpt>
      <trkpt lat="37.595949433743953704833984375" lon="-2.32697213999927043914794921875">
        <ele>1106.4000244140625</ele>
        <time>2019-10-27T13:33:35.000Z</time>
      </trkpt>
      <trkpt lat="37.5959271378815174102783203125" lon="-2.32727355323731899261474609375">
        <ele>1106.199951171875</ele>
        <time>2019-10-27T13:33:39.000Z</time>
      </trkpt>
      <trkpt lat="37.5959162414073944091796875" lon="-2.32741554267704486846923828125">
        <ele>1106.199951171875</ele>
        <time>2019-10-27T13:33:41.000Z</time>
      </trkpt>
      <trkpt lat="37.59591582231223583221435546875" lon="-2.32760178856551647186279296875">
        <ele>1105.4000244140625</ele>
        <time>2019-10-27T13:33:44.000Z</time>
      </trkpt>
      <trkpt lat="37.59591615758836269378662109375" lon="-2.327844612300395965576171875">
        <ele>1105</ele>
        <time>2019-10-27T13:33:49.000Z</time>
      </trkpt>
      <trkpt lat="37.5959204323589801788330078125" lon="-2.3279812373220920562744140625">
        <ele>1105</ele>
        <time>2019-10-27T13:33:52.000Z</time>
      </trkpt>
      <trkpt lat="37.5959194265305995941162109375" lon="-2.32823495753109455108642578125">
        <ele>1105</ele>
        <time>2019-10-27T13:33:57.000Z</time>
      </trkpt>
      <trkpt lat="37.595925293862819671630859375" lon="-2.32847434468567371368408203125">
        <ele>1105</ele>
        <time>2019-10-27T13:34:02.000Z</time>
      </trkpt>
      <trkpt lat="37.5959291495382785797119140625" lon="-2.32873736880719661712646484375">
        <ele>1104.199951171875</ele>
        <time>2019-10-27T13:34:08.000Z</time>
      </trkpt>
      <trkpt lat="37.595931328833103179931640625" lon="-2.32889679260551929473876953125">
        <ele>1104.4000244140625</ele>
        <time>2019-10-27T13:34:12.000Z</time>
      </trkpt>
      <trkpt lat="37.5959325022995471954345703125" lon="-2.3291446454823017120361328125">
        <ele>1105.199951171875</ele>
        <time>2019-10-27T13:34:18.000Z</time>
      </trkpt>
      <trkpt lat="37.59592353366315364837646484375" lon="-2.329387553036212921142578125">
        <ele>1105.4000244140625</ele>
        <time>2019-10-27T13:34:24.000Z</time>
      </trkpt>
      <trkpt lat="37.5959207676351070404052734375" lon="-2.32963104732334613800048828125">
        <ele>1106.199951171875</ele>
        <time>2019-10-27T13:34:30.000Z</time>
      </trkpt>
      <trkpt lat="37.59590123780071735382080078125" lon="-2.3298735357820987701416015625">
        <ele>1106.800048828125</ele>
        <time>2019-10-27T13:34:36.000Z</time>
      </trkpt>
      <trkpt lat="37.5959040038287639617919921875" lon="-2.33010940253734588623046875">
        <ele>1107.800048828125</ele>
        <time>2019-10-27T13:34:42.000Z</time>
      </trkpt>
      <trkpt lat="37.59590241126716136932373046875" lon="-2.3303744383156299591064453125">
        <ele>1107.4000244140625</ele>
        <time>2019-10-27T13:34:48.000Z</time>
      </trkpt>
      <trkpt lat="37.59589637629687786102294921875" lon="-2.33064140193164348602294921875">
        <ele>1107.5999755859375</ele>
        <time>2019-10-27T13:34:54.000Z</time>
      </trkpt>
      <trkpt lat="37.59589285589754581451416015625" lon="-2.33089520595967769622802734375">
        <ele>1108</ele>
        <time>2019-10-27T13:35:00.000Z</time>
      </trkpt>
      <trkpt lat="37.59589335881173610687255859375" lon="-2.33114934526383876800537109375">
        <ele>1108</ele>
        <time>2019-10-27T13:35:06.000Z</time>
      </trkpt>
      <trkpt lat="37.5958768464624881744384765625" lon="-2.3313987068831920623779296875">
        <ele>1108.199951171875</ele>
        <time>2019-10-27T13:35:12.000Z</time>
      </trkpt>
      <trkpt lat="37.595862261950969696044921875" lon="-2.33166684396564960479736328125">
        <ele>1109.199951171875</ele>
        <time>2019-10-27T13:35:18.000Z</time>
      </trkpt>
      <trkpt lat="37.59584709070622920989990234375" lon="-2.3319381661713123321533203125">
        <ele>1110</ele>
        <time>2019-10-27T13:35:24.000Z</time>
      </trkpt>
      <trkpt lat="37.595839798450469970703125" lon="-2.33217914588749408721923828125">
        <ele>1110</ele>
        <time>2019-10-27T13:35:29.000Z</time>
      </trkpt>
      <trkpt lat="37.59583351202309131622314453125" lon="-2.33243395574390888214111328125">
        <ele>1110.800048828125</ele>
        <time>2019-10-27T13:35:35.000Z</time>
      </trkpt>
      <trkpt lat="37.595826052129268646240234375" lon="-2.33269773423671722412109375">
        <ele>1110.800048828125</ele>
        <time>2019-10-27T13:35:41.000Z</time>
      </trkpt>
      <trkpt lat="37.5958205200731754302978515625" lon="-2.33296738006174564361572265625">
        <ele>1110.800048828125</ele>
        <time>2019-10-27T13:35:47.000Z</time>
      </trkpt>
      <trkpt lat="37.59581440128386020660400390625" lon="-2.33324088156223297119140625">
        <ele>1110.5999755859375</ele>
        <time>2019-10-27T13:35:53.000Z</time>
      </trkpt>
      <trkpt lat="37.59580719284713268280029296875" lon="-2.33348228037357330322265625">
        <ele>1110.5999755859375</ele>
        <time>2019-10-27T13:35:58.000Z</time>
      </trkpt>
      <trkpt lat="37.5957970507442951202392578125" lon="-2.3337171413004398345947265625">
        <ele>1110.199951171875</ele>
        <time>2019-10-27T13:36:03.000Z</time>
      </trkpt>
      <trkpt lat="37.59581205435097217559814453125" lon="-2.33396516181528568267822265625">
        <ele>1109.5999755859375</ele>
        <time>2019-10-27T13:36:08.000Z</time>
      </trkpt>
      <trkpt lat="37.59583485312759876251220703125" lon="-2.334190718829631805419921875">
        <ele>1110</ele>
        <time>2019-10-27T13:36:13.000Z</time>
      </trkpt>
      <trkpt lat="37.59580668993294239044189453125" lon="-2.33441946096718311309814453125">
        <ele>1110.5999755859375</ele>
        <time>2019-10-27T13:36:19.000Z</time>
      </trkpt>
      <trkpt lat="37.59579445235431194305419921875" lon="-2.33464770019054412841796875">
        <ele>1111.4000244140625</ele>
        <time>2019-10-27T13:36:25.000Z</time>
      </trkpt>
      <trkpt lat="37.5957848131656646728515625" lon="-2.33487677760422229766845703125">
        <ele>1112.4000244140625</ele>
        <time>2019-10-27T13:36:31.000Z</time>
      </trkpt>
      <trkpt lat="37.5957765989005565643310546875" lon="-2.33511080034077167510986328125">
        <ele>1113</ele>
        <time>2019-10-27T13:36:37.000Z</time>
      </trkpt>
      <trkpt lat="37.59577265940606594085693359375" lon="-2.33535043895244598388671875">
        <ele>1112.5999755859375</ele>
        <time>2019-10-27T13:36:43.000Z</time>
      </trkpt>
      <trkpt lat="37.5957688875496387481689453125" lon="-2.33558018691837787628173828125">
        <ele>1112.5999755859375</ele>
        <time>2019-10-27T13:36:49.000Z</time>
      </trkpt>
      <trkpt lat="37.595771066844463348388671875" lon="-2.33582518994808197021484375">
        <ele>1112.800048828125</ele>
        <time>2019-10-27T13:36:55.000Z</time>
      </trkpt>
      <trkpt lat="37.59576427750289440155029296875" lon="-2.3360902257263660430908203125">
        <ele>1113.5999755859375</ele>
        <time>2019-10-27T13:37:01.000Z</time>
      </trkpt>
      <trkpt lat="37.5957579910755157470703125" lon="-2.3363571055233478546142578125">
        <ele>1114.199951171875</ele>
        <time>2019-10-27T13:37:07.000Z</time>
      </trkpt>
      <trkpt lat="37.5957511179149150848388671875" lon="-2.33663010410964488983154296875">
        <ele>1114.199951171875</ele>
        <time>2019-10-27T13:37:13.000Z</time>
      </trkpt>
      <trkpt lat="37.59574851952493190765380859375" lon="-2.3368932120501995086669921875">
        <ele>1114.199951171875</ele>
        <time>2019-10-27T13:37:18.000Z</time>
      </trkpt>
      <trkpt lat="37.59574013762176036834716796875" lon="-2.3371356166899204254150390625">
        <ele>1114.199951171875</ele>
        <time>2019-10-27T13:37:22.000Z</time>
      </trkpt>
      <trkpt lat="37.5957320071756839752197265625" lon="-2.33744415454566478729248046875">
        <ele>1113.5999755859375</ele>
        <time>2019-10-27T13:37:26.000Z</time>
      </trkpt>
      <trkpt lat="37.5957192666828632354736328125" lon="-2.33770667575299739837646484375">
        <ele>1114</ele>
        <time>2019-10-27T13:37:30.000Z</time>
      </trkpt>
      <trkpt lat="37.595716081559658050537109375" lon="-2.3379412852227687835693359375">
        <ele>1115</ele>
        <time>2019-10-27T13:37:36.000Z</time>
      </trkpt>
      <trkpt lat="37.59571415372192859649658203125" lon="-2.338197939097881317138671875">
        <ele>1116.199951171875</ele>
        <time>2019-10-27T13:37:43.000Z</time>
      </trkpt>
      <trkpt lat="37.59570300579071044921875" lon="-2.33843338675796985626220703125">
        <ele>1117</ele>
        <time>2019-10-27T13:37:49.000Z</time>
      </trkpt>
      <trkpt lat="37.59569588117301464080810546875" lon="-2.33869917690753936767578125">
        <ele>1117.800048828125</ele>
        <time>2019-10-27T13:37:56.000Z</time>
      </trkpt>
      <trkpt lat="37.5956823863089084625244140625" lon="-2.338936887681484222412109375">
        <ele>1117.800048828125</ele>
        <time>2019-10-27T13:38:02.000Z</time>
      </trkpt>
      <trkpt lat="37.59567257948219776153564453125" lon="-2.3391744308173656463623046875">
        <ele>1117.800048828125</ele>
        <time>2019-10-27T13:38:08.000Z</time>
      </trkpt>
      <trkpt lat="37.59566922672092914581298828125" lon="-2.33928280882537364959716796875">
        <ele>1118.199951171875</ele>
        <time>2019-10-27T13:38:11.000Z</time>
      </trkpt>
      <trkpt lat="37.59566436521708965301513671875" lon="-2.339532338082790374755859375">
        <ele>1118.199951171875</ele>
        <time>2019-10-27T13:38:17.000Z</time>
      </trkpt>
      <trkpt lat="37.5956716574728488922119140625" lon="-2.3397671990096569061279296875">
        <ele>1118.4000244140625</ele>
        <time>2019-10-27T13:38:22.000Z</time>
      </trkpt>
      <trkpt lat="37.595663107931613922119140625" lon="-2.34002460725605487823486328125">
        <ele>1118.5999755859375</ele>
        <time>2019-10-27T13:38:27.000Z</time>
      </trkpt>
      <trkpt lat="37.59564894251525402069091796875" lon="-2.34028109349310398101806640625">
        <ele>1118.4000244140625</ele>
        <time>2019-10-27T13:38:32.000Z</time>
      </trkpt>
      <trkpt lat="37.5956408120691776275634765625" lon="-2.34053246676921844482421875">
        <ele>1118.4000244140625</ele>
        <time>2019-10-27T13:38:37.000Z</time>
      </trkpt>
      <trkpt lat="37.595632933080196380615234375" lon="-2.34085307456552982330322265625">
        <ele>1119.199951171875</ele>
        <time>2019-10-27T13:38:41.000Z</time>
      </trkpt>
      <trkpt lat="37.59563301689922809600830078125" lon="-2.34108525328338146209716796875">
        <ele>1119.199951171875</ele>
        <time>2019-10-27T13:38:44.000Z</time>
      </trkpt>
      <trkpt lat="37.59562044404447078704833984375" lon="-2.34135230071842670440673828125">
        <ele>1120</ele>
        <time>2019-10-27T13:38:50.000Z</time>
      </trkpt>
      <trkpt lat="37.5956163369119167327880859375" lon="-2.34158095903694629669189453125">
        <ele>1120</ele>
        <time>2019-10-27T13:38:55.000Z</time>
      </trkpt>
      <trkpt lat="37.5956136547029018402099609375" lon="-2.34181883744895458221435546875">
        <ele>1120</ele>
        <time>2019-10-27T13:39:00.000Z</time>
      </trkpt>
      <trkpt lat="37.59560870938003063201904296875" lon="-2.34204682521522045135498046875">
        <ele>1120</ele>
        <time>2019-10-27T13:39:05.000Z</time>
      </trkpt>
      <trkpt lat="37.59561290033161640167236328125" lon="-2.34229207970201969146728515625">
        <ele>1120.5999755859375</ele>
        <time>2019-10-27T13:39:10.000Z</time>
      </trkpt>
      <trkpt lat="37.5956109724938869476318359375" lon="-2.34253280796110630035400390625">
        <ele>1121.199951171875</ele>
        <time>2019-10-27T13:39:15.000Z</time>
      </trkpt>
      <trkpt lat="37.595597393810749053955078125" lon="-2.34276699833571910858154296875">
        <ele>1121</ele>
        <time>2019-10-27T13:39:20.000Z</time>
      </trkpt>
      <trkpt lat="37.59558557532727718353271484375" lon="-2.34301828779280185699462890625">
        <ele>1121</ele>
        <time>2019-10-27T13:39:25.000Z</time>
      </trkpt>
      <trkpt lat="37.5955782830715179443359375" lon="-2.3432587645947933197021484375">
        <ele>1121</ele>
        <time>2019-10-27T13:39:30.000Z</time>
      </trkpt>
      <trkpt lat="37.59557719342410564422607421875" lon="-2.343505360186100006103515625">
        <ele>1121</ele>
        <time>2019-10-27T13:39:35.000Z</time>
      </trkpt>
      <trkpt lat="37.595583982765674591064453125" lon="-2.34374164603650569915771484375">
        <ele>1121.5999755859375</ele>
        <time>2019-10-27T13:39:40.000Z</time>
      </trkpt>
      <trkpt lat="37.595585994422435760498046875" lon="-2.344006262719631195068359375">
        <ele>1123.199951171875</ele>
        <time>2019-10-27T13:39:46.000Z</time>
      </trkpt>
      <trkpt lat="37.59559077210724353790283203125" lon="-2.3442371003329753875732421875">
        <ele>1124</ele>
        <time>2019-10-27T13:39:51.000Z</time>
      </trkpt>
      <trkpt lat="37.59558406658470630645751953125" lon="-2.34448461793363094329833984375">
        <ele>1124</ele>
        <time>2019-10-27T13:39:56.000Z</time>
      </trkpt>
      <trkpt lat="37.595593370497226715087890625" lon="-2.34473272226750850677490234375">
        <ele>1124</ele>
        <time>2019-10-27T13:40:01.000Z</time>
      </trkpt>
      <trkpt lat="37.595590017735958099365234375" lon="-2.34501033090054988861083984375">
        <ele>1124</ele>
        <time>2019-10-27T13:40:06.000Z</time>
      </trkpt>
      <trkpt lat="37.59557954035699367523193359375" lon="-2.34523865394294261932373046875">
        <ele>1124</ele>
        <time>2019-10-27T13:40:10.000Z</time>
      </trkpt>
      <trkpt lat="37.59556797333061695098876953125" lon="-2.34549178741872310638427734375">
        <ele>1123.800048828125</ele>
        <time>2019-10-27T13:40:15.000Z</time>
      </trkpt>
      <trkpt lat="37.595556490123271942138671875" lon="-2.34573150984942913055419921875">
        <ele>1124</ele>
        <time>2019-10-27T13:40:20.000Z</time>
      </trkpt>
      <trkpt lat="37.59555372409522533416748046875" lon="-2.345968969166278839111328125">
        <ele>1125</ele>
        <time>2019-10-27T13:40:25.000Z</time>
      </trkpt>
      <trkpt lat="37.5955487787723541259765625" lon="-2.34622369520366191864013671875">
        <ele>1125.800048828125</ele>
        <time>2019-10-27T13:40:30.000Z</time>
      </trkpt>
      <trkpt lat="37.59554542601108551025390625" lon="-2.3465005494654178619384765625">
        <ele>1126.199951171875</ele>
        <time>2019-10-27T13:40:35.000Z</time>
      </trkpt>
      <trkpt lat="37.5955398939549922943115234375" lon="-2.34677120111882686614990234375">
        <ele>1126.4000244140625</ele>
        <time>2019-10-27T13:40:40.000Z</time>
      </trkpt>
      <trkpt lat="37.5955345295369625091552734375" lon="-2.34704361297190189361572265625">
        <ele>1125.800048828125</ele>
        <time>2019-10-27T13:40:45.000Z</time>
      </trkpt>
      <trkpt lat="37.59552991949021816253662109375" lon="-2.347304038703441619873046875">
        <ele>1126</ele>
        <time>2019-10-27T13:40:50.000Z</time>
      </trkpt>
      <trkpt lat="37.59552455507218837738037109375" lon="-2.3475502990186214447021484375">
        <ele>1126</ele>
        <time>2019-10-27T13:40:55.000Z</time>
      </trkpt>
      <trkpt lat="37.5955191068351268768310546875" lon="-2.34780351631343364715576171875">
        <ele>1126</ele>
        <time>2019-10-27T13:41:00.000Z</time>
      </trkpt>
      <trkpt lat="37.59551189839839935302734375" lon="-2.34806084074079990386962890625">
        <ele>1126.800048828125</ele>
        <time>2019-10-27T13:41:05.000Z</time>
      </trkpt>
      <trkpt lat="37.5955058634281158447265625" lon="-2.3482986353337764739990234375">
        <ele>1127.4000244140625</ele>
        <time>2019-10-27T13:41:10.000Z</time>
      </trkpt>
      <trkpt lat="37.5954989902675151824951171875" lon="-2.34856643714010715484619140625">
        <ele>1128.4000244140625</ele>
        <time>2019-10-27T13:41:16.000Z</time>
      </trkpt>
      <trkpt lat="37.59549706242978572845458984375" lon="-2.34883901663124561309814453125">
        <ele>1129.4000244140625</ele>
        <time>2019-10-27T13:41:22.000Z</time>
      </trkpt>
      <trkpt lat="37.5954926200211048126220703125" lon="-2.3490828461945056915283203125">
        <ele>1129.4000244140625</ele>
        <time>2019-10-27T13:41:27.000Z</time>
      </trkpt>
      <trkpt lat="37.5954879261553287506103515625" lon="-2.34933757223188877105712890625">
        <ele>1128.800048828125</ele>
        <time>2019-10-27T13:41:32.000Z</time>
      </trkpt>
      <trkpt lat="37.5954822264611721038818359375" lon="-2.34959456138312816619873046875">
        <ele>1128.199951171875</ele>
        <time>2019-10-27T13:41:37.000Z</time>
      </trkpt>
      <trkpt lat="37.59547845460474491119384765625" lon="-2.34985389746725559234619140625">
        <ele>1128.5999755859375</ele>
        <time>2019-10-27T13:41:42.000Z</time>
      </trkpt>
      <trkpt lat="37.5954763591289520263671875" lon="-2.3500823043286800384521484375">
        <ele>1128.199951171875</ele>
        <time>2019-10-27T13:41:47.000Z</time>
      </trkpt>
      <trkpt lat="37.5954661332070827484130859375" lon="-2.35032663680613040924072265625">
        <ele>1128.4000244140625</ele>
        <time>2019-10-27T13:41:53.000Z</time>
      </trkpt>
      <trkpt lat="37.59546152316033840179443359375" lon="-2.35058999620378017425537109375">
        <ele>1128.5999755859375</ele>
        <time>2019-10-27T13:41:59.000Z</time>
      </trkpt>
      <trkpt lat="37.5954523868858814239501953125" lon="-2.35084715299308300018310546875">
        <ele>1129.199951171875</ele>
        <time>2019-10-27T13:42:04.000Z</time>
      </trkpt>
      <trkpt lat="37.59544475935399532318115234375" lon="-2.3510996997356414794921875">
        <ele>1130</ele>
        <time>2019-10-27T13:42:09.000Z</time>
      </trkpt>
      <trkpt lat="37.59543771855533123016357421875" lon="-2.35135291703045368194580078125">
        <ele>1129.4000244140625</ele>
        <time>2019-10-27T13:42:14.000Z</time>
      </trkpt>
      <trkpt lat="37.595427744090557098388671875" lon="-2.351607643067836761474609375">
        <ele>1128.800048828125</ele>
        <time>2019-10-27T13:42:19.000Z</time>
      </trkpt>
      <trkpt lat="37.59541609324514865875244140625" lon="-2.35187351703643798828125">
        <ele>1128.5999755859375</ele>
        <time>2019-10-27T13:42:24.000Z</time>
      </trkpt>
      <trkpt lat="37.59540586732327938079833984375" lon="-2.352112233638763427734375">
        <ele>1128.4000244140625</ele>
        <time>2019-10-27T13:42:28.000Z</time>
      </trkpt>
      <trkpt lat="37.59539681486785411834716796875" lon="-2.352368049323558807373046875">
        <ele>1128.4000244140625</ele>
        <time>2019-10-27T13:42:32.000Z</time>
      </trkpt>
      <trkpt lat="37.5953863374888896942138671875" lon="-2.35262746922671794891357421875">
        <ele>1126.800048828125</ele>
        <time>2019-10-27T13:42:36.000Z</time>
      </trkpt>
      <trkpt lat="37.5953759439289569854736328125" lon="-2.35288160853087902069091796875">
        <ele>1126.199951171875</ele>
        <time>2019-10-27T13:42:40.000Z</time>
      </trkpt>
      <trkpt lat="37.59537099860608577728271484375" lon="-2.3531125299632549285888671875">
        <ele>1126.199951171875</ele>
        <time>2019-10-27T13:42:44.000Z</time>
      </trkpt>
      <trkpt lat="37.59536496363580226898193359375" lon="-2.3533857800066471099853515625">
        <ele>1126.800048828125</ele>
        <time>2019-10-27T13:42:49.000Z</time>
      </trkpt>
      <trkpt lat="37.59535607881844043731689453125" lon="-2.353665567934513092041015625">
        <ele>1127.4000244140625</ele>
        <time>2019-10-27T13:42:54.000Z</time>
      </trkpt>
      <trkpt lat="37.59535004384815692901611328125" lon="-2.35394292511045932769775390625">
        <ele>1127</ele>
        <time>2019-10-27T13:42:59.000Z</time>
      </trkpt>
      <trkpt lat="37.595352642238140106201171875" lon="-2.3542115651071071624755859375">
        <ele>1126</ele>
        <time>2019-10-27T13:43:04.000Z</time>
      </trkpt>
      <trkpt lat="37.59538306854665279388427734375" lon="-2.35448154620826244354248046875">
        <ele>1125.5999755859375</ele>
        <time>2019-10-27T13:43:09.000Z</time>
      </trkpt>
      <trkpt lat="37.595385499298572540283203125" lon="-2.3545371182262897491455078125">
        <ele>1125.5999755859375</ele>
        <time>2019-10-27T13:43:10.000Z</time>
      </trkpt>
      <trkpt lat="37.595351301133632659912109375" lon="-2.35476669855415821075439453125">
        <ele>1126</ele>
        <time>2019-10-27T13:43:14.000Z</time>
      </trkpt>
      <trkpt lat="37.595327831804752349853515625" lon="-2.354933582246303558349609375">
        <ele>1127</ele>
        <time>2019-10-27T13:43:17.000Z</time>
      </trkpt>
      <trkpt lat="37.59532204829156398773193359375" lon="-2.355188392102718353271484375">
        <ele>1127.800048828125</ele>
        <time>2019-10-27T13:43:22.000Z</time>
      </trkpt>
      <trkpt lat="37.5953119061887264251708984375" lon="-2.35543993301689624786376953125">
        <ele>1128</ele>
        <time>2019-10-27T13:43:27.000Z</time>
      </trkpt>
      <trkpt lat="37.5953075475990772247314453125" lon="-2.35570027492940425872802734375">
        <ele>1127.4000244140625</ele>
        <time>2019-10-27T13:43:32.000Z</time>
      </trkpt>
      <trkpt lat="37.59529807604849338531494140625" lon="-2.35598140396177768707275390625">
        <ele>1127</ele>
        <time>2019-10-27T13:43:37.000Z</time>
      </trkpt>
      <trkpt lat="37.59529623202979564666748046875" lon="-2.35621609725058078765869140625">
        <ele>1126.4000244140625</ele>
        <time>2019-10-27T13:43:41.000Z</time>
      </trkpt>
      <trkpt lat="37.59531618095934391021728515625" lon="-2.3564827255904674530029296875">
        <ele>1126</ele>
        <time>2019-10-27T13:43:45.000Z</time>
      </trkpt>
      <trkpt lat="37.5953125767409801483154296875" lon="-2.35663820989429950714111328125">
        <ele>1126</ele>
        <time>2019-10-27T13:43:47.000Z</time>
      </trkpt>
      <trkpt lat="37.5953072123229503631591796875" lon="-2.35690140165388584136962890625">
        <ele>1127</ele>
        <time>2019-10-27T13:43:52.000Z</time>
      </trkpt>
      <trkpt lat="37.59533395059406757354736328125" lon="-2.3571512661874294281005859375">
        <ele>1127</ele>
        <time>2019-10-27T13:43:57.000Z</time>
      </trkpt>
      <trkpt lat="37.59536932222545146942138671875" lon="-2.35739392228424549102783203125">
        <ele>1127.199951171875</ele>
        <time>2019-10-27T13:44:02.000Z</time>
      </trkpt>
      <trkpt lat="37.59540670551359653472900390625" lon="-2.35765912570059299468994140625">
        <ele>1127.4000244140625</ele>
        <time>2019-10-27T13:44:08.000Z</time>
      </trkpt>
      <trkpt lat="37.59543017484247684478759765625" lon="-2.35790622420608997344970703125">
        <ele>1128.5999755859375</ele>
        <time>2019-10-27T13:44:14.000Z</time>
      </trkpt>
      <trkpt lat="37.59546973742544651031494140625" lon="-2.3581671528518199920654296875">
        <ele>1130.199951171875</ele>
        <time>2019-10-27T13:44:20.000Z</time>
      </trkpt>
      <trkpt lat="37.595506869256496429443359375" lon="-2.3584038577973842620849609375">
        <ele>1131.199951171875</ele>
        <time>2019-10-27T13:44:25.000Z</time>
      </trkpt>
      <trkpt lat="37.59554366581141948699951171875" lon="-2.35864944756031036376953125">
        <ele>1131</ele>
        <time>2019-10-27T13:44:30.000Z</time>
      </trkpt>
      <trkpt lat="37.5955750979483127593994140625" lon="-2.3588834702968597412109375">
        <ele>1131</ele>
        <time>2019-10-27T13:44:35.000Z</time>
      </trkpt>
      <trkpt lat="37.59561725892126560211181640625" lon="-2.359138615429401397705078125">
        <ele>1131.199951171875</ele>
        <time>2019-10-27T13:44:41.000Z</time>
      </trkpt>
      <trkpt lat="37.59566570632159709930419921875" lon="-2.35938998870551586151123046875">
        <ele>1131.4000244140625</ele>
        <time>2019-10-27T13:44:47.000Z</time>
      </trkpt>
      <trkpt lat="37.5957082025706768035888671875" lon="-2.3596021346747875213623046875">
        <ele>1132.199951171875</ele>
        <time>2019-10-27T13:44:55.000Z</time>
      </trkpt>
      <trkpt lat="37.59579244069755077362060546875" lon="-2.359624765813350677490234375">
        <ele>1132.5999755859375</ele>
        <time>2019-10-27T13:46:55.000Z</time>
      </trkpt>
      <trkpt lat="37.59598321281373500823974609375" lon="-2.3596809245645999908447265625">
        <ele>1133</ele>
        <time>2019-10-27T13:47:03.000Z</time>
      </trkpt>
      <trkpt lat="37.59616225026547908782958984375" lon="-2.3597831837832927703857421875">
        <ele>1133</ele>
        <time>2019-10-27T13:47:11.000Z</time>
      </trkpt>
      <trkpt lat="37.5963180698454380035400390625" lon="-2.359939925372600555419921875">
        <ele>1133.5999755859375</ele>
        <time>2019-10-27T13:47:19.000Z</time>
      </trkpt>
      <trkpt lat="37.5963626615703105926513671875" lon="-2.3599535040557384490966796875">
        <ele>1133.800048828125</ele>
        <time>2019-10-27T13:47:21.000Z</time>
      </trkpt>
      <trkpt lat="37.59647883474826812744140625" lon="-2.3597600497305393218994140625">
        <ele>1133.5999755859375</ele>
        <time>2019-10-27T13:47:28.000Z</time>
      </trkpt>
      <trkpt lat="37.5964622385799884796142578125" lon="-2.35964463092386722564697265625">
        <ele>1133.199951171875</ele>
        <time>2019-10-27T13:47:31.000Z</time>
      </trkpt>
      <trkpt lat="37.59639861993491649627685546875" lon="-2.3594220913946628570556640625">
        <ele>1134</ele>
        <time>2019-10-27T13:47:37.000Z</time>
      </trkpt>
      <trkpt lat="37.5963854603469371795654296875" lon="-2.35938747413456439971923828125">
        <ele>1133.800048828125</ele>
        <time>2019-10-27T13:47:40.000Z</time>
      </trkpt>
      <trkpt lat="37.59639107622206211090087890625" lon="-2.35940306447446346282958984375">
        <ele>1134</ele>
        <time>2019-10-27T13:47:45.000Z</time>
      </trkpt>
      <trkpt lat="37.5965644977986812591552734375" lon="-2.3593191616237163543701171875">
        <ele>1133.5999755859375</ele>
        <time>2019-10-27T14:57:41.000Z</time>
      </trkpt>
      <trkpt lat="37.59651638567447662353515625" lon="-2.35933098010718822479248046875">
        <ele>1133.800048828125</ele>
        <time>2019-10-27T14:57:46.000Z</time>
      </trkpt>
      <trkpt lat="37.59653859771788120269775390625" lon="-2.35936434008181095123291015625">
        <ele>1133.800048828125</ele>
        <time>2019-10-27T14:57:48.000Z</time>
      </trkpt>
      <trkpt lat="37.5965480692684650421142578125" lon="-2.3593184910714626312255859375">
        <ele>1133.5999755859375</ele>
        <time>2019-10-27T14:58:03.000Z</time>
      </trkpt>
      <trkpt lat="37.5964473187923431396484375" lon="-2.3594056628644466400146484375">
        <ele>1134</ele>
        <time>2019-10-27T14:58:33.000Z</time>
      </trkpt>
      <trkpt lat="37.59643550030887126922607421875" lon="-2.359515130519866943359375">
        <ele>1133.5999755859375</ele>
        <time>2019-10-27T14:58:44.000Z</time>
      </trkpt>
      <trkpt lat="37.5965138711035251617431640625" lon="-2.35973699949681758880615234375">
        <ele>1133.5999755859375</ele>
        <time>2019-10-27T14:58:52.000Z</time>
      </trkpt>
      <trkpt lat="37.596489228308200836181640625" lon="-2.3599635623395442962646484375">
        <ele>1134.199951171875</ele>
        <time>2019-10-27T14:58:58.000Z</time>
      </trkpt>
      <trkpt lat="37.59648411534726619720458984375" lon="-2.36021527089178562164306640625">
        <ele>1134.4000244140625</ele>
        <time>2019-10-27T14:59:06.000Z</time>
      </trkpt>
      <trkpt lat="37.596361823379993438720703125" lon="-2.36037603579461574554443359375">
        <ele>1134.199951171875</ele>
        <time>2019-10-27T14:59:13.000Z</time>
      </trkpt>
      <trkpt lat="37.596206925809383392333984375" lon="-2.36050478182733058929443359375">
        <ele>1133.4000244140625</ele>
        <time>2019-10-27T14:59:18.000Z</time>
      </trkpt>
      <trkpt lat="37.59608698077499866485595703125" lon="-2.3605732619762420654296875">
        <ele>1133</ele>
        <time>2019-10-27T14:59:21.000Z</time>
      </trkpt>
      <trkpt lat="37.59590676985681056976318359375" lon="-2.36057334579527378082275390625">
        <ele>1133</ele>
        <time>2019-10-27T14:59:25.000Z</time>
      </trkpt>
      <trkpt lat="37.5958652794361114501953125" lon="-2.3605526424944400787353515625">
        <ele>1133</ele>
        <time>2019-10-27T14:59:26.000Z</time>
      </trkpt>
      <trkpt lat="37.5956850685179233551025390625" lon="-2.360545098781585693359375">
        <ele>1133</ele>
        <time>2019-10-27T14:59:30.000Z</time>
      </trkpt>
      <trkpt lat="37.5955583341419696807861328125" lon="-2.36069974489510059356689453125">
        <ele>1133</ele>
        <time>2019-10-27T14:59:34.000Z</time>
      </trkpt>
      <trkpt lat="37.59549186564981937408447265625" lon="-2.36093259416520595550537109375">
        <ele>1132.5999755859375</ele>
        <time>2019-10-27T14:59:41.000Z</time>
      </trkpt>
      <trkpt lat="37.5954389758408069610595703125" lon="-2.3611849732697010040283203125">
        <ele>1132.4000244140625</ele>
        <time>2019-10-27T14:59:47.000Z</time>
      </trkpt>
      <trkpt lat="37.59537653066217899322509765625" lon="-2.36140080727636814117431640625">
        <ele>1132.199951171875</ele>
        <time>2019-10-27T14:59:52.000Z</time>
      </trkpt>
      <trkpt lat="37.59532556869089603424072265625" lon="-2.36162762157618999481201171875">
        <ele>1132</ele>
        <time>2019-10-27T14:59:57.000Z</time>
      </trkpt>
      <trkpt lat="37.595265805721282958984375" lon="-2.3618796654045581817626953125">
        <ele>1131.800048828125</ele>
        <time>2019-10-27T15:00:03.000Z</time>
      </trkpt>
      <trkpt lat="37.5952240638434886932373046875" lon="-2.3621230758726596832275390625">
        <ele>1131.199951171875</ele>
        <time>2019-10-27T15:00:09.000Z</time>
      </trkpt>
      <trkpt lat="37.59518777020275592803955078125" lon="-2.36238953657448291778564453125">
        <ele>1131.4000244140625</ele>
        <time>2019-10-27T15:00:15.000Z</time>
      </trkpt>
      <trkpt lat="37.59516094811260700225830078125" lon="-2.36262037418782711029052734375">
        <ele>1131.5999755859375</ele>
        <time>2019-10-27T15:00:20.000Z</time>
      </trkpt>
      <trkpt lat="37.5951446034014225006103515625" lon="-2.36286110244691371917724609375">
        <ele>1132.199951171875</ele>
        <time>2019-10-27T15:00:25.000Z</time>
      </trkpt>
      <trkpt lat="37.59513412602245807647705078125" lon="-2.36313099972903728485107421875">
        <ele>1132.800048828125</ele>
        <time>2019-10-27T15:00:30.000Z</time>
      </trkpt>
      <trkpt lat="37.59511920623481273651123046875" lon="-2.3633867315948009490966796875">
        <ele>1132.4000244140625</ele>
        <time>2019-10-27T15:00:35.000Z</time>
      </trkpt>
      <trkpt lat="37.5951020233333110809326171875" lon="-2.36365654505789279937744140625">
        <ele>1131.5999755859375</ele>
        <time>2019-10-27T15:00:41.000Z</time>
      </trkpt>
      <trkpt lat="37.59509691037237644195556640625" lon="-2.363887466490268707275390625">
        <ele>1131.199951171875</ele>
        <time>2019-10-27T15:00:46.000Z</time>
      </trkpt>
      <trkpt lat="37.5951214693486690521240234375" lon="-2.36413364298641681671142578125">
        <ele>1131.4000244140625</ele>
        <time>2019-10-27T15:00:51.000Z</time>
      </trkpt>
      <trkpt lat="37.5951140932738780975341796875" lon="-2.36440320499241352081298828125">
        <ele>1131.4000244140625</ele>
        <time>2019-10-27T15:00:56.000Z</time>
      </trkpt>
      <trkpt lat="37.5950634665787220001220703125" lon="-2.36466036178171634674072265625">
        <ele>1131.199951171875</ele>
        <time>2019-10-27T15:01:02.000Z</time>
      </trkpt>
      <trkpt lat="37.59505868889391422271728515625" lon="-2.36493310891091823577880859375">
        <ele>1131.199951171875</ele>
        <time>2019-10-27T15:01:08.000Z</time>
      </trkpt>
      <trkpt lat="37.5950460322201251983642578125" lon="-2.3652025870978832244873046875">
        <ele>1132</ele>
        <time>2019-10-27T15:01:14.000Z</time>
      </trkpt>
      <trkpt lat="37.59503304027020931243896484375" lon="-2.36546686850488185882568359375">
        <ele>1132.800048828125</ele>
        <time>2019-10-27T15:01:20.000Z</time>
      </trkpt>
      <trkpt lat="37.59502868168056011199951171875" lon="-2.3657169006764888763427734375">
        <ele>1133</ele>
        <time>2019-10-27T15:01:26.000Z</time>
      </trkpt>
      <trkpt lat="37.595025412738323211669921875" lon="-2.36596760340034961700439453125">
        <ele>1133</ele>
        <time>2019-10-27T15:01:32.000Z</time>
      </trkpt>
      <trkpt lat="37.595020048320293426513671875" lon="-2.3662204854190349578857421875">
        <ele>1133.4000244140625</ele>
        <time>2019-10-27T15:01:38.000Z</time>
      </trkpt>
      <trkpt lat="37.59502080269157886505126953125" lon="-2.36648015677928924560546875">
        <ele>1134</ele>
        <time>2019-10-27T15:01:44.000Z</time>
      </trkpt>
      <trkpt lat="37.5950161926448345184326171875" lon="-2.36672750674188137054443359375">
        <ele>1134</ele>
        <time>2019-10-27T15:01:50.000Z</time>
      </trkpt>
      <trkpt lat="37.59501376189291477203369140625" lon="-2.3669875971972942352294921875">
        <ele>1134</ele>
        <time>2019-10-27T15:01:57.000Z</time>
      </trkpt>
      <trkpt lat="37.59500772692263126373291015625" lon="-2.3672276549041271209716796875">
        <ele>1134</ele>
        <time>2019-10-27T15:02:03.000Z</time>
      </trkpt>
      <trkpt lat="37.59500672109425067901611328125" lon="-2.36747064627707004547119140625">
        <ele>1134</ele>
        <time>2019-10-27T15:02:09.000Z</time>
      </trkpt>
      <trkpt lat="37.5950024463236331939697265625" lon="-2.36771690659224987030029296875">
        <ele>1135</ele>
        <time>2019-10-27T15:02:15.000Z</time>
      </trkpt>
      <trkpt lat="37.5950004346668720245361328125" lon="-2.36796601675450801849365234375">
        <ele>1135</ele>
        <time>2019-10-27T15:02:21.000Z</time>
      </trkpt>
      <trkpt lat="37.59499632753431797027587890625" lon="-2.3682175576686859130859375">
        <ele>1135.5999755859375</ele>
        <time>2019-10-27T15:02:27.000Z</time>
      </trkpt>
      <trkpt lat="37.59499020874500274658203125" lon="-2.368463985621929168701171875">
        <ele>1135.800048828125</ele>
        <time>2019-10-27T15:02:33.000Z</time>
      </trkpt>
      <trkpt lat="37.59498526342213153839111328125" lon="-2.368697337806224822998046875">
        <ele>1136</ele>
        <time>2019-10-27T15:02:39.000Z</time>
      </trkpt>
      <trkpt lat="37.59497788734734058380126953125" lon="-2.36895943991839885711669921875">
        <ele>1136.4000244140625</ele>
        <time>2019-10-27T15:02:46.000Z</time>
      </trkpt>
      <trkpt lat="37.5949632190167903900146484375" lon="-2.3691819794476032257080078125">
        <ele>1137.199951171875</ele>
        <time>2019-10-27T15:02:55.000Z</time>
      </trkpt>
      <trkpt lat="37.59494100697338581085205078125" lon="-2.369400076568126678466796875">
        <ele>1137.4000244140625</ele>
        <time>2019-10-27T15:03:41.000Z</time>
      </trkpt>
      <trkpt lat="37.59492206387221813201904296875" lon="-2.3696681298315525054931640625">
        <ele>1137</ele>
        <time>2019-10-27T15:03:47.000Z</time>
      </trkpt>
      <trkpt lat="37.594917118549346923828125" lon="-2.3698109574615955352783203125">
        <ele>1137</ele>
        <time>2019-10-27T15:03:50.000Z</time>
      </trkpt>
      <trkpt lat="37.5949156098067760467529296875" lon="-2.3700600676238536834716796875">
        <ele>1137</ele>
        <time>2019-10-27T15:03:55.000Z</time>
      </trkpt>
      <trkpt lat="37.59491887874901294708251953125" lon="-2.37029920332133769989013671875">
        <ele>1137.5999755859375</ele>
        <time>2019-10-27T15:04:00.000Z</time>
      </trkpt>
      <trkpt lat="37.5949266739189624786376953125" lon="-2.37056004814803600311279296875">
        <ele>1136.800048828125</ele>
        <time>2019-10-27T15:04:05.000Z</time>
      </trkpt>
      <trkpt lat="37.5949347205460071563720703125" lon="-2.37079725600779056549072265625">
        <ele>1136</ele>
        <time>2019-10-27T15:04:09.000Z</time>
      </trkpt>
      <trkpt lat="37.59493279270827770233154296875" lon="-2.37104401923716068267822265625">
        <ele>1135.4000244140625</ele>
        <time>2019-10-27T15:04:13.000Z</time>
      </trkpt>
      <trkpt lat="37.59492726065218448638916015625" lon="-2.3712761141359806060791015625">
        <ele>1134.5999755859375</ele>
        <time>2019-10-27T15:04:17.000Z</time>
      </trkpt>
      <trkpt lat="37.59493027813732624053955078125" lon="-2.371445260941982269287109375">
        <ele>1134.4000244140625</ele>
        <time>2019-10-27T15:04:20.000Z</time>
      </trkpt>
      <trkpt lat="37.5949605368077754974365234375" lon="-2.37167182378470897674560546875">
        <ele>1134.199951171875</ele>
        <time>2019-10-27T15:04:24.000Z</time>
      </trkpt>
      <trkpt lat="37.59501032531261444091796875" lon="-2.37193920649588108062744140625">
        <ele>1134.199951171875</ele>
        <time>2019-10-27T15:04:29.000Z</time>
      </trkpt>
      <trkpt lat="37.59504075162112712860107421875" lon="-2.37219334580004215240478515625">
        <ele>1135</ele>
        <time>2019-10-27T15:04:34.000Z</time>
      </trkpt>
      <trkpt lat="37.59504863061010837554931640625" lon="-2.37242083065211772918701171875">
        <ele>1135.800048828125</ele>
        <time>2019-10-27T15:04:38.000Z</time>
      </trkpt>
      <trkpt lat="37.59506656788289546966552734375" lon="-2.372593916952610015869140625">
        <ele>1136</ele>
        <time>2019-10-27T15:04:41.000Z</time>
      </trkpt>
      <trkpt lat="37.59519883431494235992431640625" lon="-2.372791729867458343505859375">
        <ele>1136</ele>
        <time>2019-10-27T15:04:46.000Z</time>
      </trkpt>
      <trkpt lat="37.59530930779874324798583984375" lon="-2.37287479452788829803466796875">
        <ele>1136</ele>
        <time>2019-10-27T15:04:49.000Z</time>
      </trkpt>
      <trkpt lat="37.5954792089760303497314453125" lon="-2.3729950748383998870849609375">
        <ele>1136.5999755859375</ele>
        <time>2019-10-27T15:04:54.000Z</time>
      </trkpt>
      <trkpt lat="37.59566687978804111480712890625" lon="-2.37309582531452178955078125">
        <ele>1137</ele>
        <time>2019-10-27T15:04:59.000Z</time>
      </trkpt>
      <trkpt lat="37.595846168696880340576171875" lon="-2.37315156497061252593994140625">
        <ele>1136.5999755859375</ele>
        <time>2019-10-27T15:05:04.000Z</time>
      </trkpt>
      <trkpt lat="37.59597198106348514556884765625" lon="-2.3731831647455692291259765625">
        <ele>1136.4000244140625</ele>
        <time>2019-10-27T15:05:08.000Z</time>
      </trkpt>
      <trkpt lat="37.59616409428417682647705078125" lon="-2.37325147725641727447509765625">
        <ele>1137.199951171875</ele>
        <time>2019-10-27T15:05:14.000Z</time>
      </trkpt>
      <trkpt lat="37.59635151363909244537353515625" lon="-2.37332247197628021240234375">
        <ele>1138.5999755859375</ele>
        <time>2019-10-27T15:05:20.000Z</time>
      </trkpt>
      <trkpt lat="37.59653910063207149505615234375" lon="-2.37338307313621044158935546875">
        <ele>1139.4000244140625</ele>
        <time>2019-10-27T15:05:26.000Z</time>
      </trkpt>
      <trkpt lat="37.5966882146894931793212890625" lon="-2.373520620167255401611328125">
        <ele>1140</ele>
        <time>2019-10-27T15:05:32.000Z</time>
      </trkpt>
      <trkpt lat="37.59668226353824138641357421875" lon="-2.3737900145351886749267578125">
        <ele>1140.5999755859375</ele>
        <time>2019-10-27T15:05:38.000Z</time>
      </trkpt>
      <trkpt lat="37.5965544395148754119873046875" lon="-2.3740191757678985595703125">
        <ele>1140</ele>
        <time>2019-10-27T15:05:43.000Z</time>
      </trkpt>
      <trkpt lat="37.5963854603469371795654296875" lon="-2.37420768477022647857666015625">
        <ele>1138.800048828125</ele>
        <time>2019-10-27T15:05:48.000Z</time>
      </trkpt>
      <trkpt lat="37.596265263855457305908203125" lon="-2.3744094371795654296875">
        <ele>1138.4000244140625</ele>
        <time>2019-10-27T15:05:52.000Z</time>
      </trkpt>
      <trkpt lat="37.59613006375730037689208984375" lon="-2.3746127821505069732666015625">
        <ele>1138</ele>
        <time>2019-10-27T15:05:56.000Z</time>
      </trkpt>
      <trkpt lat="37.5959323346614837646484375" lon="-2.37473473884165287017822265625">
        <ele>1138</ele>
        <time>2019-10-27T15:06:00.000Z</time>
      </trkpt>
      <trkpt lat="37.59582261554896831512451171875" lon="-2.37475904636085033416748046875">
        <ele>1137.800048828125</ele>
        <time>2019-10-27T15:06:02.000Z</time>
      </trkpt>
      <trkpt lat="37.59559932164847850799560546875" lon="-2.37471009604632854461669921875">
        <ele>1135.199951171875</ele>
        <time>2019-10-27T15:06:06.000Z</time>
      </trkpt>
      <trkpt lat="37.5953932106494903564453125" lon="-2.37462074495851993560791015625">
        <ele>1135</ele>
        <time>2019-10-27T15:06:10.000Z</time>
      </trkpt>
      <trkpt lat="37.59518760256469249725341796875" lon="-2.37453290261328220367431640625">
        <ele>1135.5999755859375</ele>
        <time>2019-10-27T15:06:14.000Z</time>
      </trkpt>
      <trkpt lat="37.595039494335651397705078125" lon="-2.37448395229876041412353515625">
        <ele>1135.800048828125</ele>
        <time>2019-10-27T15:06:17.000Z</time>
      </trkpt>
      <trkpt lat="37.594909407198429107666015625" lon="-2.3746168054640293121337890625">
        <ele>1134.800048828125</ele>
        <time>2019-10-27T15:06:21.000Z</time>
      </trkpt>
      <trkpt lat="37.59490245021879673004150390625" lon="-2.37467757426202297210693359375">
        <ele>1134.5999755859375</ele>
        <time>2019-10-27T15:06:22.000Z</time>
      </trkpt>
      <trkpt lat="37.59488761425018310546875" lon="-2.37492266111075878143310546875">
        <ele>1134.5999755859375</ele>
        <time>2019-10-27T15:06:26.000Z</time>
      </trkpt>
      <trkpt lat="37.59487311355769634246826171875" lon="-2.375183589756488800048828125">
        <ele>1134.199951171875</ele>
        <time>2019-10-27T15:06:30.000Z</time>
      </trkpt>
      <trkpt lat="37.5948621332645416259765625" lon="-2.37546010874211788177490234375">
        <ele>1134</ele>
        <time>2019-10-27T15:06:34.000Z</time>
      </trkpt>
      <trkpt lat="37.5948592834174633026123046875" lon="-2.37575498409569263458251953125">
        <ele>1133</ele>
        <time>2019-10-27T15:06:38.000Z</time>
      </trkpt>
      <trkpt lat="37.59485609829425811767578125" lon="-2.3759827204048633575439453125">
        <ele>1131.4000244140625</ele>
        <time>2019-10-27T15:06:41.000Z</time>
      </trkpt>
      <trkpt lat="37.594843693077564239501953125" lon="-2.37621146254241466522216796875">
        <ele>1131</ele>
        <time>2019-10-27T15:06:44.000Z</time>
      </trkpt>
      <trkpt lat="37.594833634793758392333984375" lon="-2.3764413781464099884033203125">
        <ele>1131</ele>
        <time>2019-10-27T15:06:47.000Z</time>
      </trkpt>
      <trkpt lat="37.59482684545218944549560546875" lon="-2.3766700364649295806884765625">
        <ele>1131.800048828125</ele>
        <time>2019-10-27T15:06:50.000Z</time>
      </trkpt>
      <trkpt lat="37.59482064284384250640869140625" lon="-2.37697186879813671112060546875">
        <ele>1131.5999755859375</ele>
        <time>2019-10-27T15:06:54.000Z</time>
      </trkpt>
      <trkpt lat="37.59481527842581272125244140625" lon="-2.37726020626723766326904296875">
        <ele>1131</ele>
        <time>2019-10-27T15:06:58.000Z</time>
      </trkpt>
      <trkpt lat="37.5948140211403369903564453125" lon="-2.37752054817974567413330078125">
        <ele>1130.800048828125</ele>
        <time>2019-10-27T15:07:02.000Z</time>
      </trkpt>
      <trkpt lat="37.59482047520577907562255859375" lon="-2.37776882015168666839599609375">
        <ele>1130.800048828125</ele>
        <time>2019-10-27T15:07:06.000Z</time>
      </trkpt>
      <trkpt lat="37.59481645189225673675537109375" lon="-2.37800083123147487640380859375">
        <ele>1130.800048828125</ele>
        <time>2019-10-27T15:07:10.000Z</time>
      </trkpt>
      <trkpt lat="37.59481410495936870574951171875" lon="-2.37820987589657306671142578125">
        <ele>1130.800048828125</ele>
        <time>2019-10-27T15:07:16.000Z</time>
      </trkpt>
      <trkpt lat="37.59483472444117069244384765625" lon="-2.37825212068855762481689453125">
        <ele>1130.5999755859375</ele>
        <time>2019-10-27T15:08:43.000Z</time>
      </trkpt>
      <trkpt lat="37.5948334671556949615478515625" lon="-2.37848983146250247955322265625">
        <ele>1130.5999755859375</ele>
        <time>2019-10-27T15:08:57.000Z</time>
      </trkpt>
      <trkpt lat="37.5948567688465118408203125" lon="-2.37874212674796581268310546875">
        <ele>1130</ele>
        <time>2019-10-27T15:09:02.000Z</time>
      </trkpt>
      <trkpt lat="37.59487696923315525054931640625" lon="-2.37901185639202594757080078125">
        <ele>1131</ele>
        <time>2019-10-27T15:09:07.000Z</time>
      </trkpt>
      <trkpt lat="37.59489364922046661376953125" lon="-2.379248142242431640625">
        <ele>1131</ele>
        <time>2019-10-27T15:09:11.000Z</time>
      </trkpt>
      <trkpt lat="37.59491217322647571563720703125" lon="-2.37949197180569171905517578125">
        <ele>1130.4000244140625</ele>
        <time>2019-10-27T15:09:15.000Z</time>
      </trkpt>
      <trkpt lat="37.5949291884899139404296875" lon="-2.3797381483018398284912109375">
        <ele>1130.4000244140625</ele>
        <time>2019-10-27T15:09:19.000Z</time>
      </trkpt>
      <trkpt lat="37.59494637139141559600830078125" lon="-2.3799942992627620697021484375">
        <ele>1130.199951171875</ele>
        <time>2019-10-27T15:09:23.000Z</time>
      </trkpt>
      <trkpt lat="37.594957686960697174072265625" lon="-2.3802514560520648956298828125">
        <ele>1129.199951171875</ele>
        <time>2019-10-27T15:09:27.000Z</time>
      </trkpt>
      <trkpt lat="37.59497453458607196807861328125" lon="-2.38052847795188426971435546875">
        <ele>1129</ele>
        <time>2019-10-27T15:09:31.000Z</time>
      </trkpt>
      <trkpt lat="37.594995237886905670166015625" lon="-2.38080994226038455963134765625">
        <ele>1129</ele>
        <time>2019-10-27T15:09:35.000Z</time>
      </trkpt>
      <trkpt lat="37.5950171984732151031494140625" lon="-2.381098531186580657958984375">
        <ele>1129</ele>
        <time>2019-10-27T15:09:39.000Z</time>
      </trkpt>
      <trkpt lat="37.5950322858989238739013671875" lon="-2.381382174789905548095703125">
        <ele>1129</ele>
        <time>2019-10-27T15:09:43.000Z</time>
      </trkpt>
      <trkpt lat="37.595050893723964691162109375" lon="-2.38165098242461681365966796875">
        <ele>1128.800048828125</ele>
        <time>2019-10-27T15:09:47.000Z</time>
      </trkpt>
      <trkpt lat="37.59506874717772006988525390625" lon="-2.38191802985966205596923828125">
        <ele>1128</ele>
        <time>2019-10-27T15:09:51.000Z</time>
      </trkpt>
      <trkpt lat="37.5950785540044307708740234375" lon="-2.3819865100085735321044921875">
        <ele>1128</ele>
        <time>2019-10-27T15:09:52.000Z</time>
      </trkpt>
      <trkpt lat="37.5950996764004230499267578125" lon="-2.38225565291941165924072265625">
        <ele>1128</ele>
        <time>2019-10-27T15:09:56.000Z</time>
      </trkpt>
      <trkpt lat="37.595108561217784881591796875" lon="-2.3825236223638057708740234375">
        <ele>1128</ele>
        <time>2019-10-27T15:10:00.000Z</time>
      </trkpt>
      <trkpt lat="37.59512289427220821380615234375" lon="-2.38279527984559535980224609375">
        <ele>1128</ele>
        <time>2019-10-27T15:10:04.000Z</time>
      </trkpt>
      <trkpt lat="37.595142759382724761962890625" lon="-2.383059225976467132568359375">
        <ele>1128</ele>
        <time>2019-10-27T15:10:08.000Z</time>
      </trkpt>
      <trkpt lat="37.59515390731394290924072265625" lon="-2.3833145387470722198486328125">
        <ele>1128</ele>
        <time>2019-10-27T15:10:12.000Z</time>
      </trkpt>
      <trkpt lat="37.595178969204425811767578125" lon="-2.38357789814472198486328125">
        <ele>1128</ele>
        <time>2019-10-27T15:10:16.000Z</time>
      </trkpt>
      <trkpt lat="37.59519129060208797454833984375" lon="-2.38383782096207141876220703125">
        <ele>1127.5999755859375</ele>
        <time>2019-10-27T15:10:20.000Z</time>
      </trkpt>
      <trkpt lat="37.59520755149424076080322265625" lon="-2.38410453312098979949951171875">
        <ele>1127.5999755859375</ele>
        <time>2019-10-27T15:10:24.000Z</time>
      </trkpt>
      <trkpt lat="37.59522448293864727020263671875" lon="-2.3843657970428466796875">
        <ele>1127.800048828125</ele>
        <time>2019-10-27T15:10:28.000Z</time>
      </trkpt>
      <trkpt lat="37.5952418334782123565673828125" lon="-2.3846150748431682586669921875">
        <ele>1128.800048828125</ele>
        <time>2019-10-27T15:10:32.000Z</time>
      </trkpt>
      <trkpt lat="37.5952676497399806976318359375" lon="-2.384866364300251007080078125">
        <ele>1129.5999755859375</ele>
        <time>2019-10-27T15:10:36.000Z</time>
      </trkpt>
      <trkpt lat="37.595309726893901824951171875" lon="-2.38510885275900363922119140625">
        <ele>1130</ele>
        <time>2019-10-27T15:10:40.000Z</time>
      </trkpt>
      <trkpt lat="37.5953621976077556610107421875" lon="-2.385339103639125823974609375">
        <ele>1129.5999755859375</ele>
        <time>2019-10-27T15:10:44.000Z</time>
      </trkpt>
      <trkpt lat="37.5953900255262851715087890625" lon="-2.38551420159637928009033203125">
        <ele>1129</ele>
        <time>2019-10-27T15:10:47.000Z</time>
      </trkpt>
      <trkpt lat="37.59538155980408191680908203125" lon="-2.38577638752758502960205078125">
        <ele>1127.5999755859375</ele>
        <time>2019-10-27T15:10:51.000Z</time>
      </trkpt>
      <trkpt lat="37.5953906960785388946533203125" lon="-2.38590328954160213470458984375">
        <ele>1127.199951171875</ele>
        <time>2019-10-27T15:10:53.000Z</time>
      </trkpt>
      <trkpt lat="37.595450878143310546875" lon="-2.386145107448101043701171875">
        <ele>1127</ele>
        <time>2019-10-27T15:10:57.000Z</time>
      </trkpt>
      <trkpt lat="37.595549114048480987548828125" lon="-2.38638441078364849090576171875">
        <ele>1127</ele>
        <time>2019-10-27T15:11:01.000Z</time>
      </trkpt>
      <trkpt lat="37.5956756807863712310791015625" lon="-2.386615164577960968017578125">
        <ele>1127.4000244140625</ele>
        <time>2019-10-27T15:11:05.000Z</time>
      </trkpt>
      <trkpt lat="37.59582513011991977691650390625" lon="-2.38681121729314327239990234375">
        <ele>1128</ele>
        <time>2019-10-27T15:11:09.000Z</time>
      </trkpt>
      <trkpt lat="37.59597348980605602264404296875" lon="-2.38700768910348415374755859375">
        <ele>1128.800048828125</ele>
        <time>2019-10-27T15:11:13.000Z</time>
      </trkpt>
      <trkpt lat="37.59611128829419612884521484375" lon="-2.3871926777064800262451171875">
        <ele>1129</ele>
        <time>2019-10-27T15:11:17.000Z</time>
      </trkpt>
      <trkpt lat="37.59622528217732906341552734375" lon="-2.387379594147205352783203125">
        <ele>1129.4000244140625</ele>
        <time>2019-10-27T15:11:21.000Z</time>
      </trkpt>
      <trkpt lat="37.59632955305278301239013671875" lon="-2.38757011480629444122314453125">
        <ele>1130</ele>
        <time>2019-10-27T15:11:25.000Z</time>
      </trkpt>
      <trkpt lat="37.59643566794693470001220703125" lon="-2.38780975341796875">
        <ele>1130</ele>
        <time>2019-10-27T15:11:30.000Z</time>
      </trkpt>
      <trkpt lat="37.59653910063207149505615234375" lon="-2.3880479671061038970947265625">
        <ele>1130.4000244140625</ele>
        <time>2019-10-27T15:11:35.000Z</time>
      </trkpt>
      <trkpt lat="37.59657111950218677520751953125" lon="-2.38815584219992160797119140625">
        <ele>1130</ele>
        <time>2019-10-27T15:11:37.000Z</time>
      </trkpt>
      <trkpt lat="37.596609927713871002197265625" lon="-2.3883946426212787628173828125">
        <ele>1130</ele>
        <time>2019-10-27T15:11:41.000Z</time>
      </trkpt>
      <trkpt lat="37.59661403484642505645751953125" lon="-2.38846077583730220794677734375">
        <ele>1130</ele>
        <time>2019-10-27T15:11:42.000Z</time>
      </trkpt>
      <trkpt lat="37.59661319665610790252685546875" lon="-2.38871558569371700286865234375">
        <ele>1130</ele>
        <time>2019-10-27T15:11:46.000Z</time>
      </trkpt>
      <trkpt lat="37.5965815968811511993408203125" lon="-2.38895799033343791961669921875">
        <ele>1130.4000244140625</ele>
        <time>2019-10-27T15:11:50.000Z</time>
      </trkpt>
      <trkpt lat="37.59652686305344104766845703125" lon="-2.38920542411506175994873046875">
        <ele>1131</ele>
        <time>2019-10-27T15:11:54.000Z</time>
      </trkpt>
      <trkpt lat="37.596503309905529022216796875" lon="-2.3893345892429351806640625">
        <ele>1131</ele>
        <time>2019-10-27T15:11:56.000Z</time>
      </trkpt>
      <trkpt lat="37.59652317501604557037353515625" lon="-2.38960188813507556915283203125">
        <ele>1131.4000244140625</ele>
        <time>2019-10-27T15:12:00.000Z</time>
      </trkpt>
      <trkpt lat="37.5966027192771434783935546875" lon="-2.389868684113025665283203125">
        <ele>1130</ele>
        <time>2019-10-27T15:12:04.000Z</time>
      </trkpt>
      <trkpt lat="37.5966965965926647186279296875" lon="-2.3901290260255336761474609375">
        <ele>1129.4000244140625</ele>
        <time>2019-10-27T15:12:08.000Z</time>
      </trkpt>
      <trkpt lat="37.5967986881732940673828125" lon="-2.3903573490679264068603515625">
        <ele>1129.4000244140625</ele>
        <time>2019-10-27T15:12:12.000Z</time>
      </trkpt>
      <trkpt lat="37.59688912890851497650146484375" lon="-2.3905655555427074432373046875">
        <ele>1129.800048828125</ele>
        <time>2019-10-27T15:12:16.000Z</time>
      </trkpt>
      <trkpt lat="37.59700111113488674163818359375" lon="-2.39080846309661865234375">
        <ele>1129.199951171875</ele>
        <time>2019-10-27T15:12:21.000Z</time>
      </trkpt>
      <trkpt lat="37.5971156917512416839599609375" lon="-2.39104910753667354583740234375">
        <ele>1130</ele>
        <time>2019-10-27T15:12:26.000Z</time>
      </trkpt>
      <trkpt lat="37.59722356684505939483642578125" lon="-2.39128790795803070068359375">
        <ele>1131.4000244140625</ele>
        <time>2019-10-27T15:12:31.000Z</time>
      </trkpt>
      <trkpt lat="37.59732565842568874359130859375" lon="-2.39153056405484676361083984375">
        <ele>1132</ele>
        <time>2019-10-27T15:12:36.000Z</time>
      </trkpt>
      <trkpt lat="37.5974184460937976837158203125" lon="-2.3917923308908939361572265625">
        <ele>1132.199951171875</ele>
        <time>2019-10-27T15:12:41.000Z</time>
      </trkpt>
      <trkpt lat="37.59749648161232471466064453125" lon="-2.39200179465115070343017578125">
        <ele>1132.800048828125</ele>
        <time>2019-10-27T15:12:45.000Z</time>
      </trkpt>
      <trkpt lat="37.5975743494927883148193359375" lon="-2.39225685596466064453125">
        <ele>1133.4000244140625</ele>
        <time>2019-10-27T15:12:50.000Z</time>
      </trkpt>
      <trkpt lat="37.59764467366039752960205078125" lon="-2.39249766804277896881103515625">
        <ele>1134</ele>
        <time>2019-10-27T15:12:55.000Z</time>
      </trkpt>
      <trkpt lat="37.59771876968443393707275390625" lon="-2.39270654506981372833251953125">
        <ele>1135.199951171875</ele>
        <time>2019-10-27T15:13:00.000Z</time>
      </trkpt>
      <trkpt lat="37.5977450050413608551025390625" lon="-2.3927897773683071136474609375">
        <ele>1135.4000244140625</ele>
        <time>2019-10-27T15:13:02.000Z</time>
      </trkpt>
      <trkpt lat="37.5978187657892704010009765625" lon="-2.39304433576762676239013671875">
        <ele>1135</ele>
        <time>2019-10-27T15:13:08.000Z</time>
      </trkpt>
      <trkpt lat="37.5978697277605533599853515625" lon="-2.3932712338864803314208984375">
        <ele>1134.4000244140625</ele>
        <time>2019-10-27T15:13:13.000Z</time>
      </trkpt>
      <trkpt lat="37.59792429395020008087158203125" lon="-2.3935079388320446014404296875">
        <ele>1134.4000244140625</ele>
        <time>2019-10-27T15:13:18.000Z</time>
      </trkpt>
      <trkpt lat="37.597986571490764617919921875" lon="-2.3937389440834522247314453125">
        <ele>1134.800048828125</ele>
        <time>2019-10-27T15:13:23.000Z</time>
      </trkpt>
      <trkpt lat="37.59802370332181453704833984375" lon="-2.3938286304473876953125">
        <ele>1135.4000244140625</ele>
        <time>2019-10-27T15:13:25.000Z</time>
      </trkpt>
      <trkpt lat="37.598146833479404449462890625" lon="-2.39401730708777904510498046875">
        <ele>1136</ele>
        <time>2019-10-27T15:13:30.000Z</time>
      </trkpt>
      <trkpt lat="37.5981587357819080352783203125" lon="-2.39420615136623382568359375">
        <ele>1135.800048828125</ele>
        <time>2019-10-27T15:13:34.000Z</time>
      </trkpt>
      <trkpt lat="37.59815546683967113494873046875" lon="-2.39435258321464061737060546875">
        <ele>1135.199951171875</ele>
        <time>2019-10-27T15:13:37.000Z</time>
      </trkpt>
      <trkpt lat="37.5981577299535274505615234375" lon="-2.39444755017757415771484375">
        <ele>1135.5999755859375</ele>
        <time>2019-10-27T15:13:39.000Z</time>
      </trkpt>
      <trkpt lat="37.59818798862397670745849609375" lon="-2.39467645995318889617919921875">
        <ele>1135.800048828125</ele>
        <time>2019-10-27T15:13:44.000Z</time>
      </trkpt>
      <trkpt lat="37.59822671301662921905517578125" lon="-2.39490947686135768890380859375">
        <ele>1136.5999755859375</ele>
        <time>2019-10-27T15:13:49.000Z</time>
      </trkpt>
      <trkpt lat="37.59826728142797946929931640625" lon="-2.395151294767856597900390625">
        <ele>1136.5999755859375</ele>
        <time>2019-10-27T15:13:54.000Z</time>
      </trkpt>
      <trkpt lat="37.598294354975223541259765625" lon="-2.39538892172276973724365234375">
        <ele>1136.800048828125</ele>
        <time>2019-10-27T15:13:59.000Z</time>
      </trkpt>
      <trkpt lat="37.5983300618827342987060546875" lon="-2.39565915428102016448974609375">
        <ele>1137.199951171875</ele>
        <time>2019-10-27T15:14:05.000Z</time>
      </trkpt>
      <trkpt lat="37.59834690950810909271240234375" lon="-2.3959044925868511199951171875">
        <ele>1138.199951171875</ele>
        <time>2019-10-27T15:14:10.000Z</time>
      </trkpt>
      <trkpt lat="37.59836887009441852569580078125" lon="-2.396164499223232269287109375">
        <ele>1139</ele>
        <time>2019-10-27T15:14:15.000Z</time>
      </trkpt>
      <trkpt lat="37.5983894057571887969970703125" lon="-2.39642299711704254150390625">
        <ele>1138.800048828125</ele>
        <time>2019-10-27T15:14:20.000Z</time>
      </trkpt>
      <trkpt lat="37.5984155572950839996337890625" lon="-2.396686859428882598876953125">
        <ele>1138</ele>
        <time>2019-10-27T15:14:25.000Z</time>
      </trkpt>
      <trkpt lat="37.598425783216953277587890625" lon="-2.39696220494806766510009765625">
        <ele>1137</ele>
        <time>2019-10-27T15:14:30.000Z</time>
      </trkpt>
      <trkpt lat="37.5984309799969196319580078125" lon="-2.397200167179107666015625">
        <ele>1136.199951171875</ele>
        <time>2019-10-27T15:14:34.000Z</time>
      </trkpt>
      <trkpt lat="37.59845822118222713470458984375" lon="-2.39744491875171661376953125">
        <ele>1136</ele>
        <time>2019-10-27T15:14:38.000Z</time>
      </trkpt>
      <trkpt lat="37.59849510155618190765380859375" lon="-2.39760182797908782958984375">
        <ele>1136.4000244140625</ele>
        <time>2019-10-27T15:14:41.000Z</time>
      </trkpt>
      <trkpt lat="37.5985647551715373992919921875" lon="-2.3977233655750751495361328125">
        <ele>1137</ele>
        <time>2019-10-27T15:14:44.000Z</time>
      </trkpt>
      <trkpt lat="37.59866575710475444793701171875" lon="-2.39785957150161266326904296875">
        <ele>1137</ele>
        <time>2019-10-27T15:14:48.000Z</time>
      </trkpt>
      <trkpt lat="37.59883641265332698822021484375" lon="-2.39801933057606220245361328125">
        <ele>1137</ele>
        <time>2019-10-27T15:14:54.000Z</time>
      </trkpt>
      <trkpt lat="37.598889805376529693603515625" lon="-2.3980720527470111846923828125">
        <ele>1137</ele>
        <time>2019-10-27T15:14:56.000Z</time>
      </trkpt>
      <trkpt lat="37.599066160619258880615234375" lon="-2.39822099916636943817138671875">
        <ele>1138.800048828125</ele>
        <time>2019-10-27T15:15:02.000Z</time>
      </trkpt>
      <trkpt lat="37.59924075566232204437255859375" lon="-2.39835242740809917449951171875">
        <ele>1140</ele>
        <time>2019-10-27T15:15:08.000Z</time>
      </trkpt>
      <trkpt lat="37.5994059629738330841064453125" lon="-2.39848427474498748779296875">
        <ele>1139.5999755859375</ele>
        <time>2019-10-27T15:15:14.000Z</time>
      </trkpt>
      <trkpt lat="37.5995031930506229400634765625" lon="-2.398580498993396759033203125">
        <ele>1139</ele>
        <time>2019-10-27T15:15:18.000Z</time>
      </trkpt>
      <trkpt lat="37.5995586812496185302734375" lon="-2.398712597787380218505859375">
        <ele>1139</ele>
        <time>2019-10-27T15:15:22.000Z</time>
      </trkpt>
      <trkpt lat="37.599376626312732696533203125" lon="-2.39883162081241607666015625">
        <ele>1139</ele>
        <time>2019-10-27T15:15:28.000Z</time>
      </trkpt>
      <trkpt lat="37.59928937070071697235107421875" lon="-2.39885844290256500244140625">
        <ele>1139</ele>
        <time>2019-10-27T15:15:30.000Z</time>
      </trkpt>
      <trkpt lat="37.59908552281558513641357421875" lon="-2.39888853393495082855224609375">
        <ele>1139</ele>
        <time>2019-10-27T15:15:34.000Z</time>
      </trkpt>
      <trkpt lat="37.59890078566968441009521484375" lon="-2.39891435019671916961669921875">
        <ele>1138.800048828125</ele>
        <time>2019-10-27T15:15:37.000Z</time>
      </trkpt>
      <trkpt lat="37.59870129637420177459716796875" lon="-2.3989826627075672149658203125">
        <ele>1137.4000244140625</ele>
        <time>2019-10-27T15:15:40.000Z</time>
      </trkpt>
      <trkpt lat="37.5985399447381496429443359375" lon="-2.39911752752959728240966796875">
        <ele>1136.199951171875</ele>
        <time>2019-10-27T15:15:43.000Z</time>
      </trkpt>
      <trkpt lat="37.5984641723334789276123046875" lon="-2.3992505483329296112060546875">
        <ele>1135.4000244140625</ele>
        <time>2019-10-27T15:15:45.000Z</time>
      </trkpt>
      <trkpt lat="37.5984348356723785400390625" lon="-2.39932154305279254913330078125">
        <ele>1134.800048828125</ele>
        <time>2019-10-27T15:15:46.000Z</time>
      </trkpt>
      <trkpt lat="37.59838454425334930419921875" lon="-2.39954098127782344818115234375">
        <ele>1133.800048828125</ele>
        <time>2019-10-27T15:15:49.000Z</time>
      </trkpt>
      <trkpt lat="37.5983766652643680572509765625" lon="-2.39961256273090839385986328125">
        <ele>1133.4000244140625</ele>
        <time>2019-10-27T15:15:50.000Z</time>
      </trkpt>
      <trkpt lat="37.5983542017638683319091796875" lon="-2.39988631568849086761474609375">
        <ele>1133</ele>
        <time>2019-10-27T15:15:54.000Z</time>
      </trkpt>
      <trkpt lat="37.5983310677111148834228515625" lon="-2.40015453658998012542724609375">
        <ele>1132.800048828125</ele>
        <time>2019-10-27T15:15:58.000Z</time>
      </trkpt>
      <trkpt lat="37.59830416180193424224853515625" lon="-2.40044119767844676971435546875">
        <ele>1133</ele>
        <time>2019-10-27T15:16:02.000Z</time>
      </trkpt>
      <trkpt lat="37.59827264584600925445556640625" lon="-2.4007339775562286376953125">
        <ele>1133</ele>
        <time>2019-10-27T15:16:06.000Z</time>
      </trkpt>
      <trkpt lat="37.59823174215853214263916015625" lon="-2.40103363059461116790771484375">
        <ele>1132.5999755859375</ele>
        <time>2019-10-27T15:16:10.000Z</time>
      </trkpt>
      <trkpt lat="37.5981922633945941925048828125" lon="-2.40127243101596832275390625">
        <ele>1132.199951171875</ele>
        <time>2019-10-27T15:16:13.000Z</time>
      </trkpt>
      <trkpt lat="37.59814725257456302642822265625" lon="-2.40152212791144847869873046875">
        <ele>1131.4000244140625</ele>
        <time>2019-10-27T15:16:16.000Z</time>
      </trkpt>
      <trkpt lat="37.5980977155268192291259765625" lon="-2.401779033243656158447265625">
        <ele>1131.5999755859375</ele>
        <time>2019-10-27T15:16:19.000Z</time>
      </trkpt>
      <trkpt lat="37.59803451597690582275390625" lon="-2.4020348489284515380859375">
        <ele>1131.4000244140625</ele>
        <time>2019-10-27T15:16:22.000Z</time>
      </trkpt>
      <trkpt lat="37.59795941412448883056640625" lon="-2.40228672511875629425048828125">
        <ele>1130.5999755859375</ele>
        <time>2019-10-27T15:16:25.000Z</time>
      </trkpt>
      <trkpt lat="37.597881294786930084228515625" lon="-2.40253332071006298065185546875">
        <ele>1130.199951171875</ele>
        <time>2019-10-27T15:16:28.000Z</time>
      </trkpt>
      <trkpt lat="37.5977979786694049835205078125" lon="-2.40277522243559360504150390625">
        <ele>1129.800048828125</ele>
        <time>2019-10-27T15:16:31.000Z</time>
      </trkpt>
      <trkpt lat="37.5977037660777568817138671875" lon="-2.40302433259785175323486328125">
        <ele>1128.5999755859375</ele>
        <time>2019-10-27T15:16:34.000Z</time>
      </trkpt>
      <trkpt lat="37.59760804474353790283203125" lon="-2.40325885824859142303466796875">
        <ele>1127.4000244140625</ele>
        <time>2019-10-27T15:16:37.000Z</time>
      </trkpt>
      <trkpt lat="37.59751282632350921630859375" lon="-2.4034824036061763763427734375">
        <ele>1126.800048828125</ele>
        <time>2019-10-27T15:16:40.000Z</time>
      </trkpt>
      <trkpt lat="37.5974103994667530059814453125" lon="-2.40369941107928752899169921875">
        <ele>1126.199951171875</ele>
        <time>2019-10-27T15:16:43.000Z</time>
      </trkpt>
      <trkpt lat="37.597298920154571533203125" lon="-2.4039179272949695587158203125">
        <ele>1125.199951171875</ele>
        <time>2019-10-27T15:16:46.000Z</time>
      </trkpt>
      <trkpt lat="37.59718148969113826751708984375" lon="-2.4041375331580638885498046875">
        <ele>1124.5999755859375</ele>
        <time>2019-10-27T15:16:49.000Z</time>
      </trkpt>
      <trkpt lat="37.5970526598393917083740234375" lon="-2.40436325781047344207763671875">
        <ele>1123.4000244140625</ele>
        <time>2019-10-27T15:16:52.000Z</time>
      </trkpt>
      <trkpt lat="37.596918381750583648681640625" lon="-2.40459166467189788818359375">
        <ele>1122.4000244140625</ele>
        <time>2019-10-27T15:16:55.000Z</time>
      </trkpt>
      <trkpt lat="37.59678368456661701202392578125" lon="-2.40482426248490810394287109375">
        <ele>1122</ele>
        <time>2019-10-27T15:16:58.000Z</time>
      </trkpt>
      <trkpt lat="37.5966684333980083465576171875" lon="-2.4050585366785526275634765625">
        <ele>1122</ele>
        <time>2019-10-27T15:17:01.000Z</time>
      </trkpt>
      <trkpt lat="37.5966404378414154052734375" lon="-2.40513891912996768951416015625">
        <ele>1122</ele>
        <time>2019-10-27T15:17:02.000Z</time>
      </trkpt>
      <trkpt lat="37.59660221636295318603515625" lon="-2.40538534708321094512939453125">
        <ele>1121.199951171875</ele>
        <time>2019-10-27T15:17:05.000Z</time>
      </trkpt>
      <trkpt lat="37.59660330601036548614501953125" lon="-2.4054638855159282684326171875">
        <ele>1121</ele>
        <time>2019-10-27T15:17:06.000Z</time>
      </trkpt>
      <trkpt lat="37.5966174714267253875732421875" lon="-2.40576052106916904449462890625">
        <ele>1119.4000244140625</ele>
        <time>2019-10-27T15:17:10.000Z</time>
      </trkpt>
      <trkpt lat="37.59661001153290271759033203125" lon="-2.40590393543243408203125">
        <ele>1118.4000244140625</ele>
        <time>2019-10-27T15:17:12.000Z</time>
      </trkpt>
      <trkpt lat="37.59656273759901523590087890625" lon="-2.4061971344053745269775390625">
        <ele>1115.199951171875</ele>
        <time>2019-10-27T15:17:16.000Z</time>
      </trkpt>
      <trkpt lat="37.596501298248767852783203125" lon="-2.40643643774092197418212890625">
        <ele>1114.4000244140625</ele>
        <time>2019-10-27T15:17:19.000Z</time>
      </trkpt>
      <trkpt lat="37.59642527438700199127197265625" lon="-2.40671019069850444793701171875">
        <ele>1115.5999755859375</ele>
        <time>2019-10-27T15:17:22.000Z</time>
      </trkpt>
      <trkpt lat="37.5963864661753177642822265625" lon="-2.40680121816694736480712890625">
        <ele>1116</ele>
        <time>2019-10-27T15:17:23.000Z</time>
      </trkpt>
      <trkpt lat="37.59622377343475818634033203125" lon="-2.4070222489535808563232421875">
        <ele>1116.4000244140625</ele>
        <time>2019-10-27T15:17:26.000Z</time>
      </trkpt>
      <trkpt lat="37.5960565544664859771728515625" lon="-2.4072130210697650909423828125">
        <ele>1116.4000244140625</ele>
        <time>2019-10-27T15:17:29.000Z</time>
      </trkpt>
      <trkpt lat="37.59589687921106815338134765625" lon="-2.40740270353853702545166015625">
        <ele>1115.199951171875</ele>
        <time>2019-10-27T15:17:32.000Z</time>
      </trkpt>
      <trkpt lat="37.59574164636433124542236328125" lon="-2.40759783424437046051025390625">
        <ele>1114.199951171875</ele>
        <time>2019-10-27T15:17:35.000Z</time>
      </trkpt>
      <trkpt lat="37.5956035964190959930419921875" lon="-2.40779824554920196533203125">
        <ele>1113.4000244140625</ele>
        <time>2019-10-27T15:17:38.000Z</time>
      </trkpt>
      <trkpt lat="37.5955600105226039886474609375" lon="-2.40786806680262088775634765625">
        <ele>1113.4000244140625</ele>
        <time>2019-10-27T15:17:39.000Z</time>
      </trkpt>
      <trkpt lat="37.59544551372528076171875" lon="-2.40809069015085697174072265625">
        <ele>1113.5999755859375</ele>
        <time>2019-10-27T15:17:42.000Z</time>
      </trkpt>
      <trkpt lat="37.5953648798167705535888671875" lon="-2.40833225660026073455810546875">
        <ele>1113.199951171875</ele>
        <time>2019-10-27T15:17:45.000Z</time>
      </trkpt>
      <trkpt lat="37.59531618095934391021728515625" lon="-2.408582456409931182861328125">
        <ele>1113</ele>
        <time>2019-10-27T15:17:48.000Z</time>
      </trkpt>
      <trkpt lat="37.59528416208922863006591796875" lon="-2.40883223712444305419921875">
        <ele>1113</ele>
        <time>2019-10-27T15:17:51.000Z</time>
      </trkpt>
      <trkpt lat="37.59525834582746028900146484375" lon="-2.40908511914312839508056640625">
        <ele>1112.199951171875</ele>
        <time>2019-10-27T15:17:54.000Z</time>
      </trkpt>
      <trkpt lat="37.59524811990559101104736328125" lon="-2.40934076718986034393310546875">
        <ele>1111.800048828125</ele>
        <time>2019-10-27T15:17:57.000Z</time>
      </trkpt>
      <trkpt lat="37.59522330947220325469970703125" lon="-2.4095029570162296295166015625">
        <ele>1111.5999755859375</ele>
        <time>2019-10-27T15:17:59.000Z</time>
      </trkpt>
      <trkpt lat="37.5951707549393177032470703125" lon="-2.40972004830837249755859375">
        <ele>1111</ele>
        <time>2019-10-27T15:18:02.000Z</time>
      </trkpt>
      <trkpt lat="37.5951571762561798095703125" lon="-2.4097879417240619659423828125">
        <ele>1111</ele>
        <time>2019-10-27T15:18:03.000Z</time>
      </trkpt>
      <trkpt lat="37.59511761367321014404296875" lon="-2.4100578390061855316162109375">
        <ele>1111.4000244140625</ele>
        <time>2019-10-27T15:18:07.000Z</time>
      </trkpt>
      <trkpt lat="37.59509154595434665679931640625" lon="-2.41035564802587032318115234375">
        <ele>1111.199951171875</ele>
        <time>2019-10-27T15:18:11.000Z</time>
      </trkpt>
      <trkpt lat="37.5950812362134456634521484375" lon="-2.41058682091534137725830078125">
        <ele>1111.199951171875</ele>
        <time>2019-10-27T15:18:14.000Z</time>
      </trkpt>
      <trkpt lat="37.595052234828472137451171875" lon="-2.41088454611599445343017578125">
        <ele>1111</ele>
        <time>2019-10-27T15:18:18.000Z</time>
      </trkpt>
      <trkpt lat="37.59504008106887340545654296875" lon="-2.41110633127391338348388671875">
        <ele>1111</ele>
        <time>2019-10-27T15:18:21.000Z</time>
      </trkpt>
      <trkpt lat="37.5950161926448345184326171875" lon="-2.411396764218807220458984375">
        <ele>1111</ele>
        <time>2019-10-27T15:18:25.000Z</time>
      </trkpt>
      <trkpt lat="37.59498693980276584625244140625" lon="-2.4116641469299793243408203125">
        <ele>1110.800048828125</ele>
        <time>2019-10-27T15:18:29.000Z</time>
      </trkpt>
      <trkpt lat="37.5949618779122829437255859375" lon="-2.41192088462412357330322265625">
        <ele>1109.800048828125</ele>
        <time>2019-10-27T15:18:33.000Z</time>
      </trkpt>
      <trkpt lat="37.594944946467876434326171875" lon="-2.4120155163109302520751953125">
        <ele>1109.800048828125</ele>
        <time>2019-10-27T15:18:35.000Z</time>
      </trkpt>
      <trkpt lat="37.5949461199343204498291015625" lon="-2.41209958679974079132080078125">
        <ele>1109.800048828125</ele>
        <time>2019-10-27T15:18:39.000Z</time>
      </trkpt>
      <trkpt lat="37.59498425759375095367431640625" lon="-2.41221374832093715667724609375">
        <ele>1110</ele>
        <time>2019-10-27T15:19:52.000Z</time>
      </trkpt>
      <trkpt lat="37.5949605368077754974365234375" lon="-2.41247006691992282867431640625">
        <ele>1110.800048828125</ele>
        <time>2019-10-27T15:19:58.000Z</time>
      </trkpt>
      <trkpt lat="37.59493966586887836456298828125" lon="-2.412705682218074798583984375">
        <ele>1109.800048828125</ele>
        <time>2019-10-27T15:20:02.000Z</time>
      </trkpt>
      <trkpt lat="37.59493547491729259490966796875" lon="-2.41283568553626537322998046875">
        <ele>1109.4000244140625</ele>
        <time>2019-10-27T15:20:04.000Z</time>
      </trkpt>
      <trkpt lat="37.594926171004772186279296875" lon="-2.4131061695516109466552734375">
        <ele>1108.5999755859375</ele>
        <time>2019-10-27T15:20:08.000Z</time>
      </trkpt>
      <trkpt lat="37.59491284377872943878173828125" lon="-2.4133805930614471435546875">
        <ele>1108.5999755859375</ele>
        <time>2019-10-27T15:20:12.000Z</time>
      </trkpt>
      <trkpt lat="37.59488803334534168243408203125" lon="-2.413654513657093048095703125">
        <ele>1108.5999755859375</ele>
        <time>2019-10-27T15:20:16.000Z</time>
      </trkpt>
      <trkpt lat="37.5948690064251422882080078125" lon="-2.41393455304205417633056640625">
        <ele>1107.4000244140625</ele>
        <time>2019-10-27T15:20:20.000Z</time>
      </trkpt>
      <trkpt lat="37.5948433578014373779296875" lon="-2.41422238759696483612060546875">
        <ele>1106.5999755859375</ele>
        <time>2019-10-27T15:20:24.000Z</time>
      </trkpt>
      <trkpt lat="37.59482659399509429931640625" lon="-2.414509467780590057373046875">
        <ele>1106.199951171875</ele>
        <time>2019-10-27T15:20:28.000Z</time>
      </trkpt>
      <trkpt lat="37.594809830188751220703125" lon="-2.41479353047907352447509765625">
        <ele>1106.199951171875</ele>
        <time>2019-10-27T15:20:32.000Z</time>
      </trkpt>
      <trkpt lat="37.59479683823883533477783203125" lon="-2.41508287377655506134033203125">
        <ele>1106.199951171875</ele>
        <time>2019-10-27T15:20:36.000Z</time>
      </trkpt>
      <trkpt lat="37.594772279262542724609375" lon="-2.415355034172534942626953125">
        <ele>1106</ele>
        <time>2019-10-27T15:20:40.000Z</time>
      </trkpt>
      <trkpt lat="37.59474788792431354522705078125" lon="-2.41564077325165271759033203125">
        <ele>1106</ele>
        <time>2019-10-27T15:20:44.000Z</time>
      </trkpt>
      <trkpt lat="37.5947268493473529815673828125" lon="-2.41594118066132068634033203125">
        <ele>1105.4000244140625</ele>
        <time>2019-10-27T15:20:48.000Z</time>
      </trkpt>
      <trkpt lat="37.59471930563449859619140625" lon="-2.41617185063660144805908203125">
        <ele>1104.5999755859375</ele>
        <time>2019-10-27T15:20:51.000Z</time>
      </trkpt>
      <trkpt lat="37.594721317291259765625" lon="-2.41632138378918170928955078125">
        <ele>1104.199951171875</ele>
        <time>2019-10-27T15:20:53.000Z</time>
      </trkpt>
      <trkpt lat="37.59469625540077686309814453125" lon="-2.4166118167340755462646484375">
        <ele>1104</ele>
        <time>2019-10-27T15:20:57.000Z</time>
      </trkpt>
      <trkpt lat="37.5946504063904285430908203125" lon="-2.41683552972972393035888671875">
        <ele>1104</ele>
        <time>2019-10-27T15:21:00.000Z</time>
      </trkpt>
      <trkpt lat="37.59462517686188220977783203125" lon="-2.41707005538046360015869140625">
        <ele>1104</ele>
        <time>2019-10-27T15:21:03.000Z</time>
      </trkpt>
      <trkpt lat="37.5946118496358394622802734375" lon="-2.41731279529631137847900390625">
        <ele>1103.5999755859375</ele>
        <time>2019-10-27T15:21:06.000Z</time>
      </trkpt>
      <trkpt lat="37.59460606612265110015869140625" lon="-2.41747925989329814910888671875">
        <ele>1103.4000244140625</ele>
        <time>2019-10-27T15:21:08.000Z</time>
      </trkpt>
      <trkpt lat="37.5945944152772426605224609375" lon="-2.41773306392133235931396484375">
        <ele>1103</ele>
        <time>2019-10-27T15:21:11.000Z</time>
      </trkpt>
      <trkpt lat="37.59457907639443874359130859375" lon="-2.4179886281490325927734375">
        <ele>1103</ele>
        <time>2019-10-27T15:21:14.000Z</time>
      </trkpt>
      <trkpt lat="37.5945669226348400115966796875" lon="-2.418243773281574249267578125">
        <ele>1102.4000244140625</ele>
        <time>2019-10-27T15:21:17.000Z</time>
      </trkpt>
      <trkpt lat="37.59455309249460697174072265625" lon="-2.41850637830793857574462890625">
        <ele>1102.199951171875</ele>
        <time>2019-10-27T15:21:20.000Z</time>
      </trkpt>
      <trkpt lat="37.59454496204853057861328125" lon="-2.418778203427791595458984375">
        <ele>1102.199951171875</ele>
        <time>2019-10-27T15:21:23.000Z</time>
      </trkpt>
      <trkpt lat="37.594539932906627655029296875" lon="-2.41896159946918487548828125">
        <ele>1102.199951171875</ele>
        <time>2019-10-27T15:21:25.000Z</time>
      </trkpt>
      <trkpt lat="37.59452945552766323089599609375" lon="-2.41923660971224308013916015625">
        <ele>1101.800048828125</ele>
        <time>2019-10-27T15:21:28.000Z</time>
      </trkpt>
      <trkpt lat="37.59451520629227161407470703125" lon="-2.41951472125947475433349609375">
        <ele>1101</ele>
        <time>2019-10-27T15:21:31.000Z</time>
      </trkpt>
      <trkpt lat="37.594502381980419158935546875" lon="-2.4197962693870067596435546875">
        <ele>1100.4000244140625</ele>
        <time>2019-10-27T15:21:34.000Z</time>
      </trkpt>
      <trkpt lat="37.59448419325053691864013671875" lon="-2.42006289772689342498779296875">
        <ele>1100.199951171875</ele>
        <time>2019-10-27T15:21:37.000Z</time>
      </trkpt>
      <trkpt lat="37.5944690220057964324951171875" lon="-2.42030949331820011138916015625">
        <ele>1100</ele>
        <time>2019-10-27T15:21:40.000Z</time>
      </trkpt>
      <trkpt lat="37.59445787407457828521728515625" lon="-2.4205519817769527435302734375">
        <ele>1100</ele>
        <time>2019-10-27T15:21:43.000Z</time>
      </trkpt>
      <trkpt lat="37.5944663397967815399169921875" lon="-2.4208091385662555694580078125">
        <ele>1100</ele>
        <time>2019-10-27T15:21:46.000Z</time>
      </trkpt>
      <trkpt lat="37.59448251686990261077880859375" lon="-2.42105414159595966339111328125">
        <ele>1100</ele>
        <time>2019-10-27T15:21:49.000Z</time>
      </trkpt>
      <trkpt lat="37.59450296871364116668701171875" lon="-2.4212862364947795867919921875">
        <ele>1100.199951171875</ele>
        <time>2019-10-27T15:21:52.000Z</time>
      </trkpt>
      <trkpt lat="37.59452107362449169158935546875" lon="-2.4215152300894260406494140625">
        <ele>1099.4000244140625</ele>
        <time>2019-10-27T15:21:55.000Z</time>
      </trkpt>
      <trkpt lat="37.594533227384090423583984375" lon="-2.42175537161529064178466796875">
        <ele>1098.800048828125</ele>
        <time>2019-10-27T15:21:58.000Z</time>
      </trkpt>
      <trkpt lat="37.59454001672565937042236328125" lon="-2.42183952592313289642333984375">
        <ele>1098.5999755859375</ele>
        <time>2019-10-27T15:21:59.000Z</time>
      </trkpt>
      <trkpt lat="37.59456776082515716552734375" lon="-2.422087378799915313720703125">
        <ele>1099.199951171875</ele>
        <time>2019-10-27T15:22:02.000Z</time>
      </trkpt>
      <trkpt lat="37.5945984385907649993896484375" lon="-2.422324754297733306884765625">
        <ele>1099.4000244140625</ele>
        <time>2019-10-27T15:22:05.000Z</time>
      </trkpt>
      <trkpt lat="37.59463205002248287200927734375" lon="-2.4225864373147487640380859375">
        <ele>1100.199951171875</ele>
        <time>2019-10-27T15:22:09.000Z</time>
      </trkpt>
      <trkpt lat="37.59466222487390041351318359375" lon="-2.42281585000455379486083984375">
        <ele>1100.199951171875</ele>
        <time>2019-10-27T15:22:13.000Z</time>
      </trkpt>
      <trkpt lat="37.59469022043049335479736328125" lon="-2.4229240603744983673095703125">
        <ele>1100</ele>
        <time>2019-10-27T15:22:15.000Z</time>
      </trkpt>
      <trkpt lat="37.59481251239776611328125" lon="-2.4231480248272418975830078125">
        <ele>1099.800048828125</ele>
        <time>2019-10-27T15:22:20.000Z</time>
      </trkpt>
      <trkpt lat="37.59484176523983478546142578125" lon="-2.42318867705762386322021484375">
        <ele>1099.800048828125</ele>
        <time>2019-10-27T15:22:21.000Z</time>
      </trkpt>
      <trkpt lat="37.59499196894466876983642578125" lon="-2.423319853842258453369140625">
        <ele>1100.800048828125</ele>
        <time>2019-10-27T15:22:26.000Z</time>
      </trkpt>
      <trkpt lat="37.59502013213932514190673828125" lon="-2.42334558628499507904052734375">
        <ele>1100.800048828125</ele>
        <time>2019-10-27T15:22:27.000Z</time>
      </trkpt>
      <trkpt lat="37.5950753688812255859375" lon="-2.4234092049300670623779296875">
        <ele>1100.5999755859375</ele>
        <time>2019-10-27T15:22:29.000Z</time>
      </trkpt>
      <trkpt lat="37.59512524120509624481201171875" lon="-2.423486150801181793212890625">
        <ele>1100.4000244140625</ele>
        <time>2019-10-27T15:22:31.000Z</time>
      </trkpt>
      <trkpt lat="37.59516396559774875640869140625" lon="-2.4235634319484233856201171875">
        <ele>1100.4000244140625</ele>
        <time>2019-10-27T15:22:33.000Z</time>
      </trkpt>
      <trkpt lat="37.5951885245740413665771484375" lon="-2.4237337522208690643310546875">
        <ele>1100.5999755859375</ele>
        <time>2019-10-27T15:22:37.000Z</time>
      </trkpt>
      <trkpt lat="37.5951442681252956390380859375" lon="-2.42396182380616664886474609375">
        <ele>1100.4000244140625</ele>
        <time>2019-10-27T15:22:42.000Z</time>
      </trkpt>
      <trkpt lat="37.59505734778940677642822265625" lon="-2.4241655878722667694091796875">
        <ele>1100.199951171875</ele>
        <time>2019-10-27T15:22:46.000Z</time>
      </trkpt>
      <trkpt lat="37.59502482600510120391845703125" lon="-2.424211688339710235595703125">
        <ele>1099.800048828125</ele>
        <time>2019-10-27T15:22:47.000Z</time>
      </trkpt>
      <trkpt lat="37.59484939277172088623046875" lon="-2.42437002249062061309814453125">
        <ele>1098.5999755859375</ele>
        <time>2019-10-27T15:22:51.000Z</time>
      </trkpt>
      <trkpt lat="37.59473833255469799041748046875" lon="-2.424606643617153167724609375">
        <ele>1097.4000244140625</ele>
        <time>2019-10-27T15:22:55.000Z</time>
      </trkpt>
      <trkpt lat="37.59472475387156009674072265625" lon="-2.42474217899143695831298828125">
        <ele>1096.800048828125</ele>
        <time>2019-10-27T15:22:57.000Z</time>
      </trkpt>
      <trkpt lat="37.59469072334468364715576171875" lon="-2.42502179928123950958251953125">
        <ele>1095.5999755859375</ele>
        <time>2019-10-27T15:23:01.000Z</time>
      </trkpt>
      <trkpt lat="37.59465736337006092071533203125" lon="-2.4252461828291416168212890625">
        <ele>1095.4000244140625</ele>
        <time>2019-10-27T15:23:04.000Z</time>
      </trkpt>
      <trkpt lat="37.5946048088371753692626953125" lon="-2.42549118585884571075439453125">
        <ele>1094.5999755859375</ele>
        <time>2019-10-27T15:23:07.000Z</time>
      </trkpt>
      <trkpt lat="37.5945404358208179473876953125" lon="-2.4257460795342922210693359375">
        <ele>1093.5999755859375</ele>
        <time>2019-10-27T15:23:10.000Z</time>
      </trkpt>
      <trkpt lat="37.594478242099285125732421875" lon="-2.42601237259805202484130859375">
        <ele>1093</ele>
        <time>2019-10-27T15:23:13.000Z</time>
      </trkpt>
      <trkpt lat="37.59441713802516460418701171875" lon="-2.42625578306615352630615234375">
        <ele>1093.199951171875</ele>
        <time>2019-10-27T15:23:16.000Z</time>
      </trkpt>
      <trkpt lat="37.5943453051149845123291015625" lon="-2.42653213441371917724609375">
        <ele>1094.199951171875</ele>
        <time>2019-10-27T15:23:20.000Z</time>
      </trkpt>
      <trkpt lat="37.59427380748093128204345703125" lon="-2.42679239250719547271728515625">
        <ele>1095.199951171875</ele>
        <time>2019-10-27T15:23:24.000Z</time>
      </trkpt>
      <trkpt lat="37.5942021422088146209716796875" lon="-2.42705248296260833740234375">
        <ele>1095.5999755859375</ele>
        <time>2019-10-27T15:23:28.000Z</time>
      </trkpt>
      <trkpt lat="37.59413282386958599090576171875" lon="-2.42731844075024127960205078125">
        <ele>1095.5999755859375</ele>
        <time>2019-10-27T15:23:32.000Z</time>
      </trkpt>
      <trkpt lat="37.594071216881275177001953125" lon="-2.42760644294321537017822265625">
        <ele>1095</ele>
        <time>2019-10-27T15:23:36.000Z</time>
      </trkpt>
      <trkpt lat="37.59400608949363231658935546875" lon="-2.42789695970714092254638671875">
        <ele>1094.199951171875</ele>
        <time>2019-10-27T15:23:40.000Z</time>
      </trkpt>
      <trkpt lat="37.5939557142555713653564453125" lon="-2.42813408374786376953125">
        <ele>1094</ele>
        <time>2019-10-27T15:23:43.000Z</time>
      </trkpt>
      <trkpt lat="37.59390885941684246063232421875" lon="-2.4284063279628753662109375">
        <ele>1094</ele>
        <time>2019-10-27T15:23:46.000Z</time>
      </trkpt>
      <trkpt lat="37.59387248195707798004150390625" lon="-2.42867999710142612457275390625">
        <ele>1093.5999755859375</ele>
        <time>2019-10-27T15:23:49.000Z</time>
      </trkpt>
      <trkpt lat="37.59385203011333942413330078125" lon="-2.428953163325786590576171875">
        <ele>1093.199951171875</ele>
        <time>2019-10-27T15:23:52.000Z</time>
      </trkpt>
      <trkpt lat="37.59383895434439182281494140625" lon="-2.4292136728763580322265625">
        <ele>1091.4000244140625</ele>
        <time>2019-10-27T15:23:55.000Z</time>
      </trkpt>
      <trkpt lat="37.59382068179547786712646484375" lon="-2.429456412792205810546875">
        <ele>1091.4000244140625</ele>
        <time>2019-10-27T15:23:58.000Z</time>
      </trkpt>
      <trkpt lat="37.59380861185491085052490234375" lon="-2.42961759679019451141357421875">
        <ele>1091.199951171875</ele>
        <time>2019-10-27T15:24:00.000Z</time>
      </trkpt>
      <trkpt lat="37.593788914382457733154296875" lon="-2.42986050434410572052001953125">
        <ele>1091.5999755859375</ele>
        <time>2019-10-27T15:24:03.000Z</time>
      </trkpt>
      <trkpt lat="37.5937652774155139923095703125" lon="-2.430107854306697845458984375">
        <ele>1092</ele>
        <time>2019-10-27T15:24:06.000Z</time>
      </trkpt>
      <trkpt lat="37.59374055080115795135498046875" lon="-2.430357970297336578369140625">
        <ele>1092.199951171875</ele>
        <time>2019-10-27T15:24:09.000Z</time>
      </trkpt>
      <trkpt lat="37.59371741674840450286865234375" lon="-2.43060649372637271881103515625">
        <ele>1092.4000244140625</ele>
        <time>2019-10-27T15:24:12.000Z</time>
      </trkpt>
      <trkpt lat="37.59370836429297924041748046875" lon="-2.43069131858646869659423828125">
        <ele>1092</ele>
        <time>2019-10-27T15:24:13.000Z</time>
      </trkpt>
      <trkpt lat="37.5936861522495746612548828125" lon="-2.43097227998077869415283203125">
        <ele>1090.800048828125</ele>
        <time>2019-10-27T15:24:16.000Z</time>
      </trkpt>
      <trkpt lat="37.59366561658680438995361328125" lon="-2.43124787695705890655517578125">
        <ele>1090.199951171875</ele>
        <time>2019-10-27T15:24:19.000Z</time>
      </trkpt>
      <trkpt lat="37.59364767931401729583740234375" lon="-2.43150905705988407135009765625">
        <ele>1090</ele>
        <time>2019-10-27T15:24:22.000Z</time>
      </trkpt>
      <trkpt lat="37.59363158605992794036865234375" lon="-2.4317522160708904266357421875">
        <ele>1090</ele>
        <time>2019-10-27T15:24:25.000Z</time>
      </trkpt>
      <trkpt lat="37.59361130185425281524658203125" lon="-2.43199218995869159698486328125">
        <ele>1089.5999755859375</ele>
        <time>2019-10-27T15:24:28.000Z</time>
      </trkpt>
      <trkpt lat="37.59358816780149936676025390625" lon="-2.43224817328155040740966796875">
        <ele>1088.5999755859375</ele>
        <time>2019-10-27T15:24:31.000Z</time>
      </trkpt>
      <trkpt lat="37.593571655452251434326171875" lon="-2.43251170031726360321044921875">
        <ele>1087.5999755859375</ele>
        <time>2019-10-27T15:24:34.000Z</time>
      </trkpt>
      <trkpt lat="37.593556232750415802001953125" lon="-2.4327781610190868377685546875">
        <ele>1086.4000244140625</ele>
        <time>2019-10-27T15:24:37.000Z</time>
      </trkpt>
      <trkpt lat="37.59353787638247013092041015625" lon="-2.4330413527786731719970703125">
        <ele>1085.4000244140625</ele>
        <time>2019-10-27T15:24:40.000Z</time>
      </trkpt>
      <trkpt lat="37.59352345950901508331298828125" lon="-2.43329532444477081298828125">
        <ele>1086.199951171875</ele>
        <time>2019-10-27T15:24:43.000Z</time>
      </trkpt>
      <trkpt lat="37.59351993910968303680419921875" lon="-2.43354585953056812286376953125">
        <ele>1087</ele>
        <time>2019-10-27T15:24:46.000Z</time>
      </trkpt>
      <trkpt lat="37.59352128021419048309326171875" lon="-2.4338037706911563873291015625">
        <ele>1087.199951171875</ele>
        <time>2019-10-27T15:24:49.000Z</time>
      </trkpt>
      <trkpt lat="37.59350988082587718963623046875" lon="-2.43388541042804718017578125">
        <ele>1087</ele>
        <time>2019-10-27T15:24:50.000Z</time>
      </trkpt>
      <trkpt lat="37.59347652085125446319580078125" lon="-2.4341222830116748809814453125">
        <ele>1086.800048828125</ele>
        <time>2019-10-27T15:24:53.000Z</time>
      </trkpt>
      <trkpt lat="37.593463025987148284912109375" lon="-2.43436493910849094390869140625">
        <ele>1086.5999755859375</ele>
        <time>2019-10-27T15:24:56.000Z</time>
      </trkpt>
      <trkpt lat="37.59344433434307575225830078125" lon="-2.43461455218493938446044921875">
        <ele>1085.5999755859375</ele>
        <time>2019-10-27T15:24:59.000Z</time>
      </trkpt>
      <trkpt lat="37.5934273190796375274658203125" lon="-2.43488545529544353485107421875">
        <ele>1085.199951171875</ele>
        <time>2019-10-27T15:25:02.000Z</time>
      </trkpt>
      <trkpt lat="37.59341231547296047210693359375" lon="-2.4351696856319904327392578125">
        <ele>1085</ele>
        <time>2019-10-27T15:25:05.000Z</time>
      </trkpt>
      <trkpt lat="37.593395300209522247314453125" lon="-2.435470931231975555419921875">
        <ele>1085</ele>
        <time>2019-10-27T15:25:08.000Z</time>
      </trkpt>
      <trkpt lat="37.5933656282722949981689453125" lon="-2.43575113825500011444091796875">
        <ele>1084.199951171875</ele>
        <time>2019-10-27T15:25:11.000Z</time>
      </trkpt>
      <trkpt lat="37.5933408178389072418212890625" lon="-2.43601064197719097137451171875">
        <ele>1083.199951171875</ele>
        <time>2019-10-27T15:25:14.000Z</time>
      </trkpt>
      <trkpt lat="37.593319527804851531982421875" lon="-2.4362767674028873443603515625">
        <ele>1082</ele>
        <time>2019-10-27T15:25:17.000Z</time>
      </trkpt>
      <trkpt lat="37.59329974651336669921875" lon="-2.43654909543693065643310546875">
        <ele>1081.199951171875</ele>
        <time>2019-10-27T15:25:20.000Z</time>
      </trkpt>
      <trkpt lat="37.59328298270702362060546875" lon="-2.436830811202526092529296875">
        <ele>1080.800048828125</ele>
        <time>2019-10-27T15:25:23.000Z</time>
      </trkpt>
      <trkpt lat="37.593262530863285064697265625" lon="-2.4371042288839817047119140625">
        <ele>1080.5999755859375</ele>
        <time>2019-10-27T15:25:26.000Z</time>
      </trkpt>
      <trkpt lat="37.593242414295673370361328125" lon="-2.437375299632549285888671875">
        <ele>1080.199951171875</ele>
        <time>2019-10-27T15:25:29.000Z</time>
      </trkpt>
      <trkpt lat="37.59322741068899631500244140625" lon="-2.43765483610332012176513671875">
        <ele>1079.4000244140625</ele>
        <time>2019-10-27T15:25:32.000Z</time>
      </trkpt>
      <trkpt lat="37.593209557235240936279296875" lon="-2.437937892973423004150390625">
        <ele>1079.5999755859375</ele>
        <time>2019-10-27T15:25:35.000Z</time>
      </trkpt>
      <trkpt lat="37.59318784810602664947509765625" lon="-2.43821273557841777801513671875">
        <ele>1080</ele>
        <time>2019-10-27T15:25:38.000Z</time>
      </trkpt>
      <trkpt lat="37.59317980147898197174072265625" lon="-2.4385130591690540313720703125">
        <ele>1080.199951171875</ele>
        <time>2019-10-27T15:25:41.000Z</time>
      </trkpt>
      <trkpt lat="37.59316069073975086212158203125" lon="-2.438833750784397125244140625">
        <ele>1079.199951171875</ele>
        <time>2019-10-27T15:25:44.000Z</time>
      </trkpt>
      <trkpt lat="37.59312196634709835052490234375" lon="-2.43909023702144622802734375">
        <ele>1079.199951171875</ele>
        <time>2019-10-27T15:25:47.000Z</time>
      </trkpt>
      <trkpt lat="37.59311526082456111907958984375" lon="-2.43917061947286128997802734375">
        <ele>1079.199951171875</ele>
        <time>2019-10-27T15:25:48.000Z</time>
      </trkpt>
      <trkpt lat="37.5931012630462646484375" lon="-2.43941746652126312255859375">
        <ele>1079</ele>
        <time>2019-10-27T15:25:51.000Z</time>
      </trkpt>
      <trkpt lat="37.59308592416346073150634765625" lon="-2.4396741203963756561279296875">
        <ele>1079</ele>
        <time>2019-10-27T15:25:54.000Z</time>
      </trkpt>
      <trkpt lat="37.5930662266910076141357421875" lon="-2.43993119336664676666259765625">
        <ele>1078.199951171875</ele>
        <time>2019-10-27T15:25:57.000Z</time>
      </trkpt>
      <trkpt lat="37.59305004961788654327392578125" lon="-2.4401891045272350311279296875">
        <ele>1078.5999755859375</ele>
        <time>2019-10-27T15:26:00.000Z</time>
      </trkpt>
      <trkpt lat="37.5930363871157169342041015625" lon="-2.4404499493539333343505859375">
        <ele>1078.800048828125</ele>
        <time>2019-10-27T15:26:03.000Z</time>
      </trkpt>
      <trkpt lat="37.593027167022228240966796875" lon="-2.4407071061432361602783203125">
        <ele>1079.199951171875</ele>
        <time>2019-10-27T15:26:06.000Z</time>
      </trkpt>
      <trkpt lat="37.59301601909101009368896484375" lon="-2.440882287919521331787109375">
        <ele>1079.800048828125</ele>
        <time>2019-10-27T15:26:08.000Z</time>
      </trkpt>
      <trkpt lat="37.59300042875111103057861328125" lon="-2.44114841334521770477294921875">
        <ele>1079.800048828125</ele>
        <time>2019-10-27T15:26:11.000Z</time>
      </trkpt>
      <trkpt lat="37.592978887259960174560546875" lon="-2.44141512550413608551025390625">
        <ele>1079.4000244140625</ele>
        <time>2019-10-27T15:26:14.000Z</time>
      </trkpt>
      <trkpt lat="37.5929575972259044647216796875" lon="-2.4416805803775787353515625">
        <ele>1079.199951171875</ele>
        <time>2019-10-27T15:26:17.000Z</time>
      </trkpt>
      <trkpt lat="37.592938654124736785888671875" lon="-2.4419452808797359466552734375">
        <ele>1078.4000244140625</ele>
        <time>2019-10-27T15:26:20.000Z</time>
      </trkpt>
      <trkpt lat="37.5929264165461063385009765625" lon="-2.4422081373631954193115234375">
        <ele>1078.4000244140625</ele>
        <time>2019-10-27T15:26:23.000Z</time>
      </trkpt>
      <trkpt lat="37.59291124530136585235595703125" lon="-2.4424679763615131378173828125">
        <ele>1078.4000244140625</ele>
        <time>2019-10-27T15:26:26.000Z</time>
      </trkpt>
      <trkpt lat="37.59289632551372051239013671875" lon="-2.44272622279822826385498046875">
        <ele>1078.199951171875</ele>
        <time>2019-10-27T15:26:29.000Z</time>
      </trkpt>
      <trkpt lat="37.5928778015077114105224609375" lon="-2.44298279285430908203125">
        <ele>1077.199951171875</ele>
        <time>2019-10-27T15:26:32.000Z</time>
      </trkpt>
      <trkpt lat="37.5928684137761592864990234375" lon="-2.4432434700429439544677734375">
        <ele>1078</ele>
        <time>2019-10-27T15:26:35.000Z</time>
      </trkpt>
      <trkpt lat="37.59283815510571002960205078125" lon="-2.4435502476990222930908203125">
        <ele>1078</ele>
        <time>2019-10-27T15:26:38.000Z</time>
      </trkpt>
      <trkpt lat="37.5928167812526226043701171875" lon="-2.44381050579249858856201171875">
        <ele>1077.199951171875</ele>
        <time>2019-10-27T15:26:41.000Z</time>
      </trkpt>
      <trkpt lat="37.59281250648200511932373046875" lon="-2.444049306213855743408203125">
        <ele>1076.4000244140625</ele>
        <time>2019-10-27T15:26:44.000Z</time>
      </trkpt>
      <trkpt lat="37.5928006879985332489013671875" lon="-2.4442851729691028594970703125">
        <ele>1076.4000244140625</ele>
        <time>2019-10-27T15:26:47.000Z</time>
      </trkpt>
      <trkpt lat="37.5927913002669811248779296875" lon="-2.44444468058645725250244140625">
        <ele>1077</ele>
        <time>2019-10-27T15:26:49.000Z</time>
      </trkpt>
      <trkpt lat="37.59277545846998691558837890625" lon="-2.44468205608427524566650390625">
        <ele>1076.800048828125</ele>
        <time>2019-10-27T15:26:52.000Z</time>
      </trkpt>
      <trkpt lat="37.59275316260755062103271484375" lon="-2.44491574354469776153564453125">
        <ele>1077.5999755859375</ele>
        <time>2019-10-27T15:26:55.000Z</time>
      </trkpt>
      <trkpt lat="37.592731453478336334228515625" lon="-2.445153705775737762451171875">
        <ele>1078</ele>
        <time>2019-10-27T15:26:58.000Z</time>
      </trkpt>
      <trkpt lat="37.59271712042391300201416015625" lon="-2.44539703242480754852294921875">
        <ele>1078.4000244140625</ele>
        <time>2019-10-27T15:27:01.000Z</time>
      </trkpt>
      <trkpt lat="37.592701949179172515869140625" lon="-2.4456420354545116424560546875">
        <ele>1078.199951171875</ele>
        <time>2019-10-27T15:27:04.000Z</time>
      </trkpt>
      <trkpt lat="37.59268862195312976837158203125" lon="-2.44589307345449924468994140625">
        <ele>1078.4000244140625</ele>
        <time>2019-10-27T15:27:07.000Z</time>
      </trkpt>
      <trkpt lat="37.59267236106097698211669921875" lon="-2.4461422674357891082763671875">
        <ele>1079.199951171875</ele>
        <time>2019-10-27T15:27:10.000Z</time>
      </trkpt>
      <trkpt lat="37.5926558487117290496826171875" lon="-2.44638157077133655548095703125">
        <ele>1079.4000244140625</ele>
        <time>2019-10-27T15:27:13.000Z</time>
      </trkpt>
      <trkpt lat="37.592638917267322540283203125" lon="-2.446608133614063262939453125">
        <ele>1079.4000244140625</ele>
        <time>2019-10-27T15:27:16.000Z</time>
      </trkpt>
      <trkpt lat="37.59261134080588817596435546875" lon="-2.446900494396686553955078125">
        <ele>1078.199951171875</ele>
        <time>2019-10-27T15:27:20.000Z</time>
      </trkpt>
      <trkpt lat="37.59259005077183246612548828125" lon="-2.44719360955059528350830078125">
        <ele>1077.199951171875</ele>
        <time>2019-10-27T15:27:24.000Z</time>
      </trkpt>
      <trkpt lat="37.59256993420422077178955078125" lon="-2.4474843777716159820556640625">
        <ele>1078</ele>
        <time>2019-10-27T15:27:28.000Z</time>
      </trkpt>
      <trkpt lat="37.59254763834178447723388671875" lon="-2.44776726700365543365478515625">
        <ele>1078</ele>
        <time>2019-10-27T15:27:32.000Z</time>
      </trkpt>
      <trkpt lat="37.5925391726195812225341796875" lon="-2.44804772548377513885498046875">
        <ele>1078.199951171875</ele>
        <time>2019-10-27T15:27:36.000Z</time>
      </trkpt>
      <trkpt lat="37.5925361551344394683837890625" lon="-2.44811578653752803802490234375">
        <ele>1078.4000244140625</ele>
        <time>2019-10-27T15:27:37.000Z</time>
      </trkpt>
      <trkpt lat="37.59252266027033329010009765625" lon="-2.44837143458425998687744140625">
        <ele>1078.800048828125</ele>
        <time>2019-10-27T15:27:41.000Z</time>
      </trkpt>
      <trkpt lat="37.592506147921085357666015625" lon="-2.44861610233783721923828125">
        <ele>1078</ele>
        <time>2019-10-27T15:27:45.000Z</time>
      </trkpt>
      <trkpt lat="37.5924865342676639556884765625" lon="-2.44873604737222194671630859375">
        <ele>1078.199951171875</ele>
        <time>2019-10-27T15:27:47.000Z</time>
      </trkpt>
      <trkpt lat="37.59247161448001861572265625" lon="-2.44899337179958820343017578125">
        <ele>1078.800048828125</ele>
        <time>2019-10-27T15:27:51.000Z</time>
      </trkpt>
      <trkpt lat="37.5924615561962127685546875" lon="-2.4492578208446502685546875">
        <ele>1078.800048828125</ele>
        <time>2019-10-27T15:27:55.000Z</time>
      </trkpt>
      <trkpt lat="37.5924540124833583831787109375" lon="-2.44952126406133174896240234375">
        <ele>1078.800048828125</ele>
        <time>2019-10-27T15:27:59.000Z</time>
      </trkpt>
      <trkpt lat="37.59243330918252468109130859375" lon="-2.44977272115647792816162109375">
        <ele>1078.800048828125</ele>
        <time>2019-10-27T15:28:03.000Z</time>
      </trkpt>
      <trkpt lat="37.5924147851765155792236328125" lon="-2.450011856853961944580078125">
        <ele>1079.5999755859375</ele>
        <time>2019-10-27T15:28:07.000Z</time>
      </trkpt>
      <trkpt lat="37.59238536469638347625732421875" lon="-2.45024160481989383697509765625">
        <ele>1080.4000244140625</ele>
        <time>2019-10-27T15:28:11.000Z</time>
      </trkpt>
      <trkpt lat="37.59236424230039119720458984375" lon="-2.45047227479517459869384765625">
        <ele>1080.4000244140625</ele>
        <time>2019-10-27T15:28:15.000Z</time>
      </trkpt>
      <trkpt lat="37.59233188815414905548095703125" lon="-2.450734712183475494384765625">
        <ele>1080.4000244140625</ele>
        <time>2019-10-27T15:28:19.000Z</time>
      </trkpt>
      <trkpt lat="37.59230707772076129913330078125" lon="-2.45101056061685085296630859375">
        <ele>1081</ele>
        <time>2019-10-27T15:28:23.000Z</time>
      </trkpt>
      <trkpt lat="37.59228645823895931243896484375" lon="-2.451275847852230072021484375">
        <ele>1081.800048828125</ele>
        <time>2019-10-27T15:28:27.000Z</time>
      </trkpt>
      <trkpt lat="37.59227447211742401123046875" lon="-2.45153627358376979827880859375">
        <ele>1082</ele>
        <time>2019-10-27T15:28:31.000Z</time>
      </trkpt>
      <trkpt lat="37.59226114489138126373291015625" lon="-2.45179510675370693206787109375">
        <ele>1082</ele>
        <time>2019-10-27T15:28:35.000Z</time>
      </trkpt>
      <trkpt lat="37.5922407768666744232177734375" lon="-2.45204991661012172698974609375">
        <ele>1082</ele>
        <time>2019-10-27T15:28:39.000Z</time>
      </trkpt>
      <trkpt lat="37.59223029948770999908447265625" lon="-2.452180087566375732421875">
        <ele>1081.800048828125</ele>
        <time>2019-10-27T15:28:41.000Z</time>
      </trkpt>
      <trkpt lat="37.59221722371876239776611328125" lon="-2.45244503952562808990478515625">
        <ele>1081</ele>
        <time>2019-10-27T15:28:45.000Z</time>
      </trkpt>
      <trkpt lat="37.59221504442393779754638671875" lon="-2.4527086503803730010986328125">
        <ele>1080.5999755859375</ele>
        <time>2019-10-27T15:28:49.000Z</time>
      </trkpt>
      <trkpt lat="37.59221185930073261260986328125" lon="-2.45297930203378200531005859375">
        <ele>1079.800048828125</ele>
        <time>2019-10-27T15:28:54.000Z</time>
      </trkpt>
      <trkpt lat="37.59218621067702770233154296875" lon="-2.45320628397166728973388671875">
        <ele>1079.199951171875</ele>
        <time>2019-10-27T15:28:58.000Z</time>
      </trkpt>
      <trkpt lat="37.59216123260557651519775390625" lon="-2.453467883169651031494140625">
        <ele>1078.4000244140625</ele>
        <time>2019-10-27T15:29:02.000Z</time>
      </trkpt>
      <trkpt lat="37.59214044548571109771728515625" lon="-2.4537567235529422760009765625">
        <ele>1078.199951171875</ele>
        <time>2019-10-27T15:29:06.000Z</time>
      </trkpt>
      <trkpt lat="37.59212586097419261932373046875" lon="-2.454053275287151336669921875">
        <ele>1079</ele>
        <time>2019-10-27T15:29:10.000Z</time>
      </trkpt>
      <trkpt lat="37.59209468029439449310302734375" lon="-2.4543498270213603973388671875">
        <ele>1079</ele>
        <time>2019-10-27T15:29:14.000Z</time>
      </trkpt>
      <trkpt lat="37.59207473136484622955322265625" lon="-2.45458376593887805938720703125">
        <ele>1078.4000244140625</ele>
        <time>2019-10-27T15:29:17.000Z</time>
      </trkpt>
      <trkpt lat="37.5920587219297885894775390625" lon="-2.454829774796962738037109375">
        <ele>1077.5999755859375</ele>
        <time>2019-10-27T15:29:20.000Z</time>
      </trkpt>
      <trkpt lat="37.5920379348099231719970703125" lon="-2.45508919470012187957763671875">
        <ele>1076.5999755859375</ele>
        <time>2019-10-27T15:29:23.000Z</time>
      </trkpt>
      <trkpt lat="37.59202343411743640899658203125" lon="-2.45535741560161113739013671875">
        <ele>1075.800048828125</ele>
        <time>2019-10-27T15:29:26.000Z</time>
      </trkpt>
      <trkpt lat="37.59200633503496646881103515625" lon="-2.45562731288373470306396484375">
        <ele>1075</ele>
        <time>2019-10-27T15:29:29.000Z</time>
      </trkpt>
      <trkpt lat="37.59198538027703762054443359375" lon="-2.45589922182261943817138671875">
        <ele>1074.199951171875</ele>
        <time>2019-10-27T15:29:32.000Z</time>
      </trkpt>
      <trkpt lat="37.5919742323458194732666015625" lon="-2.4561727233231067657470703125">
        <ele>1074.199951171875</ele>
        <time>2019-10-27T15:29:35.000Z</time>
      </trkpt>
      <trkpt lat="37.59196308441460132598876953125" lon="-2.45644538663327693939208984375">
        <ele>1075</ele>
        <time>2019-10-27T15:29:38.000Z</time>
      </trkpt>
      <trkpt lat="37.5919477455317974090576171875" lon="-2.4567034654319286346435546875">
        <ele>1075</ele>
        <time>2019-10-27T15:29:41.000Z</time>
      </trkpt>
      <trkpt lat="37.59192503057420253753662109375" lon="-2.45695115067064762115478515625">
        <ele>1075.5999755859375</ele>
        <time>2019-10-27T15:29:44.000Z</time>
      </trkpt>
      <trkpt lat="37.59190910495817661285400390625" lon="-2.4571953155100345611572265625">
        <ele>1075.4000244140625</ele>
        <time>2019-10-27T15:29:47.000Z</time>
      </trkpt>
      <trkpt lat="37.59190072305500507354736328125" lon="-2.45743394829332828521728515625">
        <ele>1075.199951171875</ele>
        <time>2019-10-27T15:29:50.000Z</time>
      </trkpt>
      <trkpt lat="37.59189016185700893402099609375" lon="-2.457592450082302093505859375">
        <ele>1075.199951171875</ele>
        <time>2019-10-27T15:29:52.000Z</time>
      </trkpt>
      <trkpt lat="37.59188027121126651763916015625" lon="-2.45783342979848384857177734375">
        <ele>1075</ele>
        <time>2019-10-27T15:29:55.000Z</time>
      </trkpt>
      <trkpt lat="37.591863758862018585205078125" lon="-2.45807700790464878082275390625">
        <ele>1074</ele>
        <time>2019-10-27T15:29:58.000Z</time>
      </trkpt>
      <trkpt lat="37.59183819405734539031982421875" lon="-2.45834019966423511505126953125">
        <ele>1072.5999755859375</ele>
        <time>2019-10-27T15:30:01.000Z</time>
      </trkpt>
      <trkpt lat="37.59181539528071880340576171875" lon="-2.45862250216305255889892578125">
        <ele>1071.800048828125</ele>
        <time>2019-10-27T15:30:04.000Z</time>
      </trkpt>
      <trkpt lat="37.59178991429507732391357421875" lon="-2.4589189700782299041748046875">
        <ele>1071</ele>
        <time>2019-10-27T15:30:07.000Z</time>
      </trkpt>
      <trkpt lat="37.59176510386168956756591796875" lon="-2.4592240713536739349365234375">
        <ele>1070.800048828125</ele>
        <time>2019-10-27T15:30:10.000Z</time>
      </trkpt>
      <trkpt lat="37.5917346775531768798828125" lon="-2.4595288373529911041259765625">
        <ele>1070.4000244140625</ele>
        <time>2019-10-27T15:30:13.000Z</time>
      </trkpt>
      <trkpt lat="37.59170710109174251556396484375" lon="-2.45983033441007137298583984375">
        <ele>1070.199951171875</ele>
        <time>2019-10-27T15:30:16.000Z</time>
      </trkpt>
      <trkpt lat="37.59168212302029132843017578125" lon="-2.4601289816200733184814453125">
        <ele>1069.800048828125</ele>
        <time>2019-10-27T15:30:19.000Z</time>
      </trkpt>
      <trkpt lat="37.591663263738155364990234375" lon="-2.46042394079267978668212890625">
        <ele>1069.199951171875</ele>
        <time>2019-10-27T15:30:22.000Z</time>
      </trkpt>
      <trkpt lat="37.5916419737040996551513671875" lon="-2.4607121944427490234375">
        <ele>1068.5999755859375</ele>
        <time>2019-10-27T15:30:25.000Z</time>
      </trkpt>
      <trkpt lat="37.59162562899291515350341796875" lon="-2.4609879590570926666259765625">
        <ele>1068.199951171875</ele>
        <time>2019-10-27T15:30:28.000Z</time>
      </trkpt>
      <trkpt lat="37.59161121211946010589599609375" lon="-2.46124955825507640838623046875">
        <ele>1067.199951171875</ele>
        <time>2019-10-27T15:30:31.000Z</time>
      </trkpt>
      <trkpt lat="37.59159981273114681243896484375" lon="-2.46152096427977085113525390625">
        <ele>1066.4000244140625</ele>
        <time>2019-10-27T15:30:34.000Z</time>
      </trkpt>
      <trkpt lat="37.5915950350463390350341796875" lon="-2.46180393733084201812744140625">
        <ele>1065.5999755859375</ele>
        <time>2019-10-27T15:30:37.000Z</time>
      </trkpt>
      <trkpt lat="37.59159713052213191986083984375" lon="-2.46209084987640380859375">
        <ele>1065</ele>
        <time>2019-10-27T15:30:40.000Z</time>
      </trkpt>
      <trkpt lat="37.59161372669041156768798828125" lon="-2.46237608604133129119873046875">
        <ele>1064.800048828125</ele>
        <time>2019-10-27T15:30:43.000Z</time>
      </trkpt>
      <trkpt lat="37.5916515290737152099609375" lon="-2.4625570513308048248291015625">
        <ele>1064.800048828125</ele>
        <time>2019-10-27T15:30:45.000Z</time>
      </trkpt>
      <trkpt lat="37.59175772778689861297607421875" lon="-2.46277523227035999298095703125">
        <ele>1065.199951171875</ele>
        <time>2019-10-27T15:30:48.000Z</time>
      </trkpt>
      <trkpt lat="37.59184523485600948333740234375" lon="-2.46288469992578029632568359375">
        <ele>1065.5999755859375</ele>
        <time>2019-10-27T15:30:50.000Z</time>
      </trkpt>
      <trkpt lat="37.59202024899423122406005859375" lon="-2.46306843124330043792724609375">
        <ele>1066.5999755859375</ele>
        <time>2019-10-27T15:30:54.000Z</time>
      </trkpt>
      <trkpt lat="37.59212334640324115753173828125" lon="-2.46318376623094081878662109375">
        <ele>1068.199951171875</ele>
        <time>2019-10-27T15:30:57.000Z</time>
      </trkpt>
      <trkpt lat="37.59222485125064849853515625" lon="-2.46332374401390552520751953125">
        <ele>1068.800048828125</ele>
        <time>2019-10-27T15:31:01.000Z</time>
      </trkpt>
      <trkpt lat="37.59232032112777233123779296875" lon="-2.46353211812674999237060546875">
        <ele>1069.800048828125</ele>
        <time>2019-10-27T15:31:08.000Z</time>
      </trkpt>
      <trkpt lat="37.5923604704439640045166015625" lon="-2.46366991661489009857177734375">
        <ele>1070</ele>
        <time>2019-10-27T15:31:12.000Z</time>
      </trkpt>
      <trkpt lat="37.59239793755114078521728515625" lon="-2.46392942033708095550537109375">
        <ele>1069.5999755859375</ele>
        <time>2019-10-27T15:31:17.000Z</time>
      </trkpt>
      <trkpt lat="37.59242878295481204986572265625" lon="-2.464204095304012298583984375">
        <ele>1069.199951171875</ele>
        <time>2019-10-27T15:31:21.000Z</time>
      </trkpt>
      <trkpt lat="37.5924749672412872314453125" lon="-2.4644862301647663116455078125">
        <ele>1067.5999755859375</ele>
        <time>2019-10-27T15:31:25.000Z</time>
      </trkpt>
      <trkpt lat="37.592514865100383758544921875" lon="-2.46458320878446102142333984375">
        <ele>1067.4000244140625</ele>
        <time>2019-10-27T15:31:27.000Z</time>
      </trkpt>
      <trkpt lat="37.59259860031306743621826171875" lon="-2.46470441110432147979736328125">
        <ele>1067.4000244140625</ele>
        <time>2019-10-27T15:31:31.000Z</time>
      </trkpt>
      <trkpt lat="37.59263380430638790130615234375" lon="-2.46478705666959285736083984375">
        <ele>1067.199951171875</ele>
        <time>2019-10-27T15:31:34.000Z</time>
      </trkpt>
      <trkpt lat="37.5927537493407726287841796875" lon="-2.4649951793253421783447265625">
        <ele>1066.800048828125</ele>
        <time>2019-10-27T15:31:44.000Z</time>
      </trkpt>
      <trkpt lat="37.59272885508835315704345703125" lon="-2.4652734585106372833251953125">
        <ele>1066.800048828125</ele>
        <time>2019-10-27T15:31:48.000Z</time>
      </trkpt>
      <trkpt lat="37.5926940701901912689208984375" lon="-2.46550865471363067626953125">
        <ele>1066.5999755859375</ele>
        <time>2019-10-27T15:31:51.000Z</time>
      </trkpt>
      <trkpt lat="37.59265425615012645721435546875" lon="-2.46573756448924541473388671875">
        <ele>1066.4000244140625</ele>
        <time>2019-10-27T15:31:54.000Z</time>
      </trkpt>
      <trkpt lat="37.59258938021957874298095703125" lon="-2.465951554477214813232421875">
        <ele>1065.5999755859375</ele>
        <time>2019-10-27T15:31:57.000Z</time>
      </trkpt>
      <trkpt lat="37.5924375839531421661376953125" lon="-2.4661753512918949127197265625">
        <ele>1064.4000244140625</ele>
        <time>2019-10-27T15:32:01.000Z</time>
      </trkpt>
      <trkpt lat="37.5923945009708404541015625" lon="-2.46622103266417980194091796875">
        <ele>1064</ele>
        <time>2019-10-27T15:32:02.000Z</time>
      </trkpt>
      <trkpt lat="37.59230506606400012969970703125" lon="-2.46630032546818256378173828125">
        <ele>1063.4000244140625</ele>
        <time>2019-10-27T15:32:04.000Z</time>
      </trkpt>
      <trkpt lat="37.59212703444063663482666015625" lon="-2.4663862399756908416748046875">
        <ele>1062.5999755859375</ele>
        <time>2019-10-27T15:32:08.000Z</time>
      </trkpt>
      <trkpt lat="37.5920520164072513580322265625" lon="-2.4664107151329517364501953125">
        <ele>1062.199951171875</ele>
        <time>2019-10-27T15:32:10.000Z</time>
      </trkpt>
      <trkpt lat="37.591915391385555267333984375" lon="-2.46636696159839630126953125">
        <ele>1062</ele>
        <time>2019-10-27T15:32:14.000Z</time>
      </trkpt>
      <trkpt lat="37.591703496873378753662109375" lon="-2.46631742455065250396728515625">
        <ele>1062.199951171875</ele>
        <time>2019-10-27T15:32:19.000Z</time>
      </trkpt>
      <trkpt lat="37.59165798313915729522705078125" lon="-2.46631465852260589599609375">
        <ele>1062.199951171875</ele>
        <time>2019-10-27T15:32:20.000Z</time>
      </trkpt>
      <trkpt lat="37.59149235673248767852783203125" lon="-2.46630669571459293365478515625">
        <ele>1062.199951171875</ele>
        <time>2019-10-27T15:32:24.000Z</time>
      </trkpt>
      <trkpt lat="37.5913683883845806121826171875" lon="-2.46627098880708217620849609375">
        <ele>1062.199951171875</ele>
        <time>2019-10-27T15:32:27.000Z</time>
      </trkpt>
      <trkpt lat="37.59124877862632274627685546875" lon="-2.46644013561308383941650390625">
        <ele>1061.4000244140625</ele>
        <time>2019-10-27T15:32:32.000Z</time>
      </trkpt>
      <trkpt lat="37.59124224074184894561767578125" lon="-2.46649797074496746063232421875">
        <ele>1061.4000244140625</ele>
        <time>2019-10-27T15:32:33.000Z</time>
      </trkpt>
      <trkpt lat="37.5912188552320003509521484375" lon="-2.4667573906481266021728515625">
        <ele>1060.5999755859375</ele>
        <time>2019-10-27T15:32:37.000Z</time>
      </trkpt>
      <trkpt lat="37.59120351634919643402099609375" lon="-2.46698780916631221771240234375">
        <ele>1060</ele>
        <time>2019-10-27T15:32:40.000Z</time>
      </trkpt>
      <trkpt lat="37.59118390269577503204345703125" lon="-2.4672465585172176361083984375">
        <ele>1060</ele>
        <time>2019-10-27T15:32:43.000Z</time>
      </trkpt>
      <trkpt lat="37.5911668874323368072509765625" lon="-2.46753430925309658050537109375">
        <ele>1060</ele>
        <time>2019-10-27T15:32:47.000Z</time>
      </trkpt>
      <trkpt lat="37.59115356020629405975341796875" lon="-2.46776615269482135772705078125">
        <ele>1060</ele>
        <time>2019-10-27T15:32:51.000Z</time>
      </trkpt>
      <trkpt lat="37.591140903532505035400390625" lon="-2.468004114925861358642578125">
        <ele>1060</ele>
        <time>2019-10-27T15:32:55.000Z</time>
      </trkpt>
      <trkpt lat="37.59113512001931667327880859375" lon="-2.468247525393962860107421875">
        <ele>1059.199951171875</ele>
        <time>2019-10-27T15:32:59.000Z</time>
      </trkpt>
      <trkpt lat="37.59112137369811534881591796875" lon="-2.46850593946874141693115234375">
        <ele>1058.199951171875</ele>
        <time>2019-10-27T15:33:03.000Z</time>
      </trkpt>
      <trkpt lat="37.59110511280596256256103515625" lon="-2.4687703885138034820556640625">
        <ele>1058.4000244140625</ele>
        <time>2019-10-27T15:33:07.000Z</time>
      </trkpt>
      <trkpt lat="37.59108700789511203765869140625" lon="-2.4690412916243076324462890625">
        <ele>1059</ele>
        <time>2019-10-27T15:33:11.000Z</time>
      </trkpt>
      <trkpt lat="37.59105113334953784942626953125" lon="-2.46932250447571277618408203125">
        <ele>1058.4000244140625</ele>
        <time>2019-10-27T15:33:15.000Z</time>
      </trkpt>
      <trkpt lat="37.5910150073468685150146484375" lon="-2.46955133043229579925537109375">
        <ele>1058</ele>
        <time>2019-10-27T15:33:18.000Z</time>
      </trkpt>
      <trkpt lat="37.59099111892282962799072265625" lon="-2.46978987939655780792236328125">
        <ele>1057.199951171875</ele>
        <time>2019-10-27T15:33:21.000Z</time>
      </trkpt>
      <trkpt lat="37.59098231792449951171875" lon="-2.47003245167434215545654296875">
        <ele>1056.5999755859375</ele>
        <time>2019-10-27T15:33:24.000Z</time>
      </trkpt>
      <trkpt lat="37.59096664376556873321533203125" lon="-2.47027016244828701019287109375">
        <ele>1056.5999755859375</ele>
        <time>2019-10-27T15:33:27.000Z</time>
      </trkpt>
      <trkpt lat="37.59094518609344959259033203125" lon="-2.47053788043558597564697265625">
        <ele>1057</ele>
        <time>2019-10-27T15:33:31.000Z</time>
      </trkpt>
      <trkpt lat="37.59093680419027805328369140625" lon="-2.47080308385193347930908203125">
        <ele>1058</ele>
        <time>2019-10-27T15:33:35.000Z</time>
      </trkpt>
      <trkpt lat="37.590918280184268951416015625" lon="-2.47107951901853084564208984375">
        <ele>1057.199951171875</ele>
        <time>2019-10-27T15:33:39.000Z</time>
      </trkpt>
      <trkpt lat="37.590899504721164703369140625" lon="-2.47136735357344150543212890625">
        <ele>1057</ele>
        <time>2019-10-27T15:33:43.000Z</time>
      </trkpt>
      <trkpt lat="37.59088550694286823272705078125" lon="-2.47159735299646854400634765625">
        <ele>1055.4000244140625</ele>
        <time>2019-10-27T15:33:46.000Z</time>
      </trkpt>
      <trkpt lat="37.59087846614420413970947265625" lon="-2.47183606959879398345947265625">
        <ele>1055</ele>
        <time>2019-10-27T15:33:49.000Z</time>
      </trkpt>
      <trkpt lat="37.5908631272614002227783203125" lon="-2.47207931242883205413818359375">
        <ele>1055.4000244140625</ele>
        <time>2019-10-27T15:33:52.000Z</time>
      </trkpt>
      <trkpt lat="37.590847872197628021240234375" lon="-2.472320459783077239990234375">
        <ele>1056.4000244140625</ele>
        <time>2019-10-27T15:33:55.000Z</time>
      </trkpt>
      <trkpt lat="37.5908339582383632659912109375" lon="-2.47255590744316577911376953125">
        <ele>1057</ele>
        <time>2019-10-27T15:33:58.000Z</time>
      </trkpt>
      <trkpt lat="37.5908128358423709869384765625" lon="-2.4727873317897319793701171875">
        <ele>1057</ele>
        <time>2019-10-27T15:34:01.000Z</time>
      </trkpt>
      <trkpt lat="37.59080369956791400909423828125" lon="-2.4730168282985687255859375">
        <ele>1056.800048828125</ele>
        <time>2019-10-27T15:34:04.000Z</time>
      </trkpt>
      <trkpt lat="37.59081308729946613311767578125" lon="-2.47309234924614429473876953125">
        <ele>1056.5999755859375</ele>
        <time>2019-10-27T15:34:05.000Z</time>
      </trkpt>
      <trkpt lat="37.59086254052817821502685546875" lon="-2.47331614606082439422607421875">
        <ele>1055</ele>
        <time>2019-10-27T15:34:08.000Z</time>
      </trkpt>
      <trkpt lat="37.59091316722333431243896484375" lon="-2.4735463969409465789794921875">
        <ele>1054.199951171875</ele>
        <time>2019-10-27T15:34:11.000Z</time>
      </trkpt>
      <trkpt lat="37.5909871794283390045166015625" lon="-2.4737656675279140472412109375">
        <ele>1053.4000244140625</ele>
        <time>2019-10-27T15:34:14.000Z</time>
      </trkpt>
      <trkpt lat="37.59107979945838451385498046875" lon="-2.47396440245211124420166015625">
        <ele>1053.800048828125</ele>
        <time>2019-10-27T15:34:17.000Z</time>
      </trkpt>
      <trkpt lat="37.591220699250698089599609375" lon="-2.47420169413089752197265625">
        <ele>1054.4000244140625</ele>
        <time>2019-10-27T15:34:21.000Z</time>
      </trkpt>
      <trkpt lat="37.59137635119259357452392578125" lon="-2.474405877292156219482421875">
        <ele>1053.4000244140625</ele>
        <time>2019-10-27T15:34:25.000Z</time>
      </trkpt>
      <trkpt lat="37.591537199914455413818359375" lon="-2.474603019654750823974609375">
        <ele>1052.800048828125</ele>
        <time>2019-10-27T15:34:29.000Z</time>
      </trkpt>
      <trkpt lat="37.591690085828304290771484375" lon="-2.47481935657560825347900390625">
        <ele>1051.199951171875</ele>
        <time>2019-10-27T15:34:33.000Z</time>
      </trkpt>
      <trkpt lat="37.59184825234115123748779296875" lon="-2.47503208927810192108154296875">
        <ele>1050.199951171875</ele>
        <time>2019-10-27T15:34:37.000Z</time>
      </trkpt>
      <trkpt lat="37.59199862368404865264892578125" lon="-2.47527323663234710693359375">
        <ele>1049</ele>
        <time>2019-10-27T15:34:41.000Z</time>
      </trkpt>
      <trkpt lat="37.5921066664159297943115234375" lon="-2.47547096572816371917724609375">
        <ele>1047.5999755859375</ele>
        <time>2019-10-27T15:34:44.000Z</time>
      </trkpt>
      <trkpt lat="37.59220833890140056610107421875" lon="-2.47567146085202693939208984375">
        <ele>1046.5999755859375</ele>
        <time>2019-10-27T15:34:47.000Z</time>
      </trkpt>
      <trkpt lat="37.59231696836650371551513671875" lon="-2.47589341364800930023193359375">
        <ele>1045.199951171875</ele>
        <time>2019-10-27T15:34:50.000Z</time>
      </trkpt>
      <trkpt lat="37.59241822175681591033935546875" lon="-2.47612123377621173858642578125">
        <ele>1043.800048828125</ele>
        <time>2019-10-27T15:34:53.000Z</time>
      </trkpt>
      <trkpt lat="37.59251159615814685821533203125" lon="-2.47635995037853717803955078125">
        <ele>1041.199951171875</ele>
        <time>2019-10-27T15:34:56.000Z</time>
      </trkpt>
      <trkpt lat="37.592575214803218841552734375" lon="-2.476502694189548492431640625">
        <ele>1041.4000244140625</ele>
        <time>2019-10-27T15:34:58.000Z</time>
      </trkpt>
      <trkpt lat="37.59271862916648387908935546875" lon="-2.47671148739755153656005859375">
        <ele>1041</ele>
        <time>2019-10-27T15:35:02.000Z</time>
      </trkpt>
      <trkpt lat="37.592750228941440582275390625" lon="-2.47699647210538387298583984375">
        <ele>1042</ele>
        <time>2019-10-27T15:35:06.000Z</time>
      </trkpt>
      <trkpt lat="37.592722065746784210205078125" lon="-2.47715438716113567352294921875">
        <ele>1042.4000244140625</ele>
        <time>2019-10-27T15:35:09.000Z</time>
      </trkpt>
      <trkpt lat="37.5926856882870197296142578125" lon="-2.47722261585295200347900390625">
        <ele>1042.5999755859375</ele>
        <time>2019-10-27T15:35:12.000Z</time>
      </trkpt>
      <trkpt lat="37.5927520729601383209228515625" lon="-2.47701390646398067474365234375">
        <ele>1042</ele>
        <time>2019-10-27T15:35:39.000Z</time>
      </trkpt>
      <trkpt lat="37.59275584481656551361083984375" lon="-2.47678440995514392852783203125">
        <ele>1041.199951171875</ele>
        <time>2019-10-27T15:35:43.000Z</time>
      </trkpt>
      <trkpt lat="37.592716030776500701904296875" lon="-2.47668114490807056427001953125">
        <ele>1041</ele>
        <time>2019-10-27T15:35:46.000Z</time>
      </trkpt>
      <trkpt lat="37.5924935750663280487060546875" lon="-2.4767040275037288665771484375">
        <ele>1040.800048828125</ele>
        <time>2019-10-27T15:35:52.000Z</time>
      </trkpt>
      <trkpt lat="37.59227740578353404998779296875" lon="-2.4766322784125804901123046875">
        <ele>1040.199951171875</ele>
        <time>2019-10-27T15:35:57.000Z</time>
      </trkpt>
      <trkpt lat="37.59209082461893558502197265625" lon="-2.476556338369846343994140625">
        <ele>1040.800048828125</ele>
        <time>2019-10-27T15:36:02.000Z</time>
      </trkpt>
      <trkpt lat="37.591871134936809539794921875" lon="-2.47660227119922637939453125">
        <ele>1040.4000244140625</ele>
        <time>2019-10-27T15:36:07.000Z</time>
      </trkpt>
      <trkpt lat="37.5916983000934123992919921875" lon="-2.476638816297054290771484375">
        <ele>1040.199951171875</ele>
        <time>2019-10-27T15:36:11.000Z</time>
      </trkpt>
      <trkpt lat="37.59150073863565921783447265625" lon="-2.47680603526532649993896484375">
        <ele>1039</ele>
        <time>2019-10-27T15:36:15.000Z</time>
      </trkpt>
      <trkpt lat="37.591353468596935272216796875" lon="-2.4769544787704944610595703125">
        <ele>1038</ele>
        <time>2019-10-27T15:36:18.000Z</time>
      </trkpt>
      <trkpt lat="37.5913087092339992523193359375" lon="-2.4770014174282550811767578125">
        <ele>1037.800048828125</ele>
        <time>2019-10-27T15:36:19.000Z</time>
      </trkpt>
      <trkpt lat="37.5911886803805828094482421875" lon="-2.47722999192774295806884765625">
        <ele>1037</ele>
        <time>2019-10-27T15:36:23.000Z</time>
      </trkpt>
      <trkpt lat="37.59108088910579681396484375" lon="-2.477434091269969940185546875">
        <ele>1036.5999755859375</ele>
        <time>2019-10-27T15:36:27.000Z</time>
      </trkpt>
      <trkpt lat="37.590977288782596588134765625" lon="-2.47766870073974132537841796875">
        <ele>1036.5999755859375</ele>
        <time>2019-10-27T15:36:32.000Z</time>
      </trkpt>
      <trkpt lat="37.59094602428376674652099609375" lon="-2.4777578003704547882080078125">
        <ele>1036.5999755859375</ele>
        <time>2019-10-27T15:36:34.000Z</time>
      </trkpt>
      <trkpt lat="37.590866982936859130859375" lon="-2.47789719142019748687744140625">
        <ele>1036.5999755859375</ele>
        <time>2019-10-27T15:36:38.000Z</time>
      </trkpt>
      <trkpt lat="37.59084560908377170562744140625" lon="-2.47793088667094707489013671875">
        <ele>1036.4000244140625</ele>
        <time>2019-10-27T15:36:39.000Z</time>
      </trkpt>
      <trkpt lat="37.59077352471649646759033203125" lon="-2.47804664075374603271484375">
        <ele>1036.4000244140625</ele>
        <time>2019-10-27T15:36:42.000Z</time>
      </trkpt>
      <trkpt lat="37.59068702347576618194580078125" lon="-2.47816264629364013671875">
        <ele>1036.199951171875</ele>
        <time>2019-10-27T15:36:45.000Z</time>
      </trkpt>
      <trkpt lat="37.5905734486877918243408203125" lon="-2.4783612973988056182861328125">
        <ele>1036</ele>
        <time>2019-10-27T15:36:50.000Z</time>
      </trkpt>
      <trkpt lat="37.59045987389981746673583984375" lon="-2.47850119136273860931396484375">
        <ele>1035.5999755859375</ele>
        <time>2019-10-27T15:36:54.000Z</time>
      </trkpt>
      <trkpt lat="37.59040371514856815338134765625" lon="-2.47857159934937953948974609375">
        <ele>1035.4000244140625</ele>
        <time>2019-10-27T15:36:56.000Z</time>
      </trkpt>
      <trkpt lat="37.59023976512253284454345703125" lon="-2.47871442697942256927490234375">
        <ele>1035</ele>
        <time>2019-10-27T15:37:01.000Z</time>
      </trkpt>
      <trkpt lat="37.5900165550410747528076171875" lon="-2.47885138727724552154541015625">
        <ele>1035.199951171875</ele>
        <time>2019-10-27T15:37:06.000Z</time>
      </trkpt>
      <trkpt lat="37.58986442349851131439208984375" lon="-2.47904651798307895660400390625">
        <ele>1035</ele>
        <time>2019-10-27T15:37:11.000Z</time>
      </trkpt>
      <trkpt lat="37.58977607823908329010009765625" lon="-2.479253970086574554443359375">
        <ele>1035</ele>
        <time>2019-10-27T15:37:15.000Z</time>
      </trkpt>
      <trkpt lat="37.58975110016763210296630859375" lon="-2.4794774316251277923583984375">
        <ele>1035</ele>
        <time>2019-10-27T15:37:20.000Z</time>
      </trkpt>
      <trkpt lat="37.5897516869008541107177734375" lon="-2.47970634140074253082275390625">
        <ele>1035</ele>
        <time>2019-10-27T15:37:26.000Z</time>
      </trkpt>
      <trkpt lat="37.5897503457963466644287109375" lon="-2.47981077991425991058349609375">
        <ele>1035</ele>
        <time>2019-10-27T15:37:29.000Z</time>
      </trkpt>
      <trkpt lat="37.58975319564342498779296875" lon="-2.48004362918436527252197265625">
        <ele>1035</ele>
        <time>2019-10-27T15:37:36.000Z</time>
      </trkpt>
      <trkpt lat="37.589734755456447601318359375" lon="-2.4802847765386104583740234375">
        <ele>1035</ele>
        <time>2019-10-27T15:37:43.000Z</time>
      </trkpt>
      <trkpt lat="37.58973953314125537872314453125" lon="-2.4805141054093837738037109375">
        <ele>1035.800048828125</ele>
        <time>2019-10-27T15:37:51.000Z</time>
      </trkpt>
      <trkpt lat="37.58974171243607997894287109375" lon="-2.4807417578995227813720703125">
        <ele>1036.5999755859375</ele>
        <time>2019-10-27T15:38:00.000Z</time>
      </trkpt>
      <trkpt lat="37.5897265411913394927978515625" lon="-2.480971924960613250732421875">
        <ele>1036.800048828125</ele>
        <time>2019-10-27T15:38:07.000Z</time>
      </trkpt>
      <trkpt lat="37.58969628252089023590087890625" lon="-2.48125053942203521728515625">
        <ele>1036.5999755859375</ele>
        <time>2019-10-27T15:38:12.000Z</time>
      </trkpt>
      <trkpt lat="37.5896812789142131805419921875" lon="-2.4814914353191852569580078125">
        <ele>1036.5999755859375</ele>
        <time>2019-10-27T15:38:15.000Z</time>
      </trkpt>
      <trkpt lat="37.589660324156284332275390625" lon="-2.48173308558762073516845703125">
        <ele>1036.800048828125</ele>
        <time>2019-10-27T15:38:21.000Z</time>
      </trkpt>
      <trkpt lat="37.58964590728282928466796875" lon="-2.48197632841765880584716796875">
        <ele>1037</ele>
        <time>2019-10-27T15:38:28.000Z</time>
      </trkpt>
      <trkpt lat="37.58963325060904026031494140625" lon="-2.48224086128175258636474609375">
        <ele>1037</ele>
        <time>2019-10-27T15:38:35.000Z</time>
      </trkpt>
      <trkpt lat="37.58961497806012630462646484375" lon="-2.4825069867074489593505859375">
        <ele>1036</ele>
        <time>2019-10-27T15:38:41.000Z</time>
      </trkpt>
      <trkpt lat="37.5895937718451023101806640625" lon="-2.48277210630476474761962890625">
        <ele>1036</ele>
        <time>2019-10-27T15:38:46.000Z</time>
      </trkpt>
      <trkpt lat="37.58957239799201488494873046875" lon="-2.48305122368037700653076171875">
        <ele>1036</ele>
        <time>2019-10-27T15:38:51.000Z</time>
      </trkpt>
      <trkpt lat="37.58956275880336761474609375" lon="-2.48328474350273609161376953125">
        <ele>1036</ele>
        <time>2019-10-27T15:38:55.000Z</time>
      </trkpt>
      <trkpt lat="37.589547336101531982421875" lon="-2.483524046838283538818359375">
        <ele>1036</ele>
        <time>2019-10-27T15:38:59.000Z</time>
      </trkpt>
      <trkpt lat="37.5895267166197299957275390625" lon="-2.48376837931573390960693359375">
        <ele>1036.800048828125</ele>
        <time>2019-10-27T15:39:03.000Z</time>
      </trkpt>
      <trkpt lat="37.58950316347181797027587890625" lon="-2.48402335681021213531494140625">
        <ele>1037</ele>
        <time>2019-10-27T15:39:07.000Z</time>
      </trkpt>
      <trkpt lat="37.5894931890070438385009765625" lon="-2.484279088675975799560546875">
        <ele>1037</ele>
        <time>2019-10-27T15:39:11.000Z</time>
      </trkpt>
      <trkpt lat="37.58947516791522502899169921875" lon="-2.48452794738113880157470703125">
        <ele>1037</ele>
        <time>2019-10-27T15:39:15.000Z</time>
      </trkpt>
      <trkpt lat="37.58945924229919910430908203125" lon="-2.48476557433605194091796875">
        <ele>1036.800048828125</ele>
        <time>2019-10-27T15:39:19.000Z</time>
      </trkpt>
      <trkpt lat="37.58944868110120296478271484375" lon="-2.485013343393802642822265625">
        <ele>1036</ele>
        <time>2019-10-27T15:39:23.000Z</time>
      </trkpt>
      <trkpt lat="37.58943761698901653289794921875" lon="-2.48526203446090221405029296875">
        <ele>1036.199951171875</ele>
        <time>2019-10-27T15:39:27.000Z</time>
      </trkpt>
      <trkpt lat="37.58942889980971813201904296875" lon="-2.48550879769027233123779296875">
        <ele>1036.199951171875</ele>
        <time>2019-10-27T15:39:31.000Z</time>
      </trkpt>
      <trkpt lat="37.58941465057432651519775390625" lon="-2.4857712350785732269287109375">
        <ele>1036.4000244140625</ele>
        <time>2019-10-27T15:39:35.000Z</time>
      </trkpt>
      <trkpt lat="37.589398808777332305908203125" lon="-2.48604909516870975494384765625">
        <ele>1036.199951171875</ele>
        <time>2019-10-27T15:39:39.000Z</time>
      </trkpt>
      <trkpt lat="37.589380033314228057861328125" lon="-2.4863214232027530670166015625">
        <ele>1035.800048828125</ele>
        <time>2019-10-27T15:39:43.000Z</time>
      </trkpt>
      <trkpt lat="37.5893574021756649017333984375" lon="-2.48659106902778148651123046875">
        <ele>1036</ele>
        <time>2019-10-27T15:39:47.000Z</time>
      </trkpt>
      <trkpt lat="37.58933451958000659942626953125" lon="-2.48683355748653411865234375">
        <ele>1036</ele>
        <time>2019-10-27T15:39:51.000Z</time>
      </trkpt>
      <trkpt lat="37.5893168337643146514892578125" lon="-2.48706699348986148834228515625">
        <ele>1035.800048828125</ele>
        <time>2019-10-27T15:39:55.000Z</time>
      </trkpt>
      <trkpt lat="37.58930032141506671905517578125" lon="-2.48731694184243679046630859375">
        <ele>1034.800048828125</ele>
        <time>2019-10-27T15:39:59.000Z</time>
      </trkpt>
      <trkpt lat="37.58929227478802204132080078125" lon="-2.487386427819728851318359375">
        <ele>1034.4000244140625</ele>
        <time>2019-10-27T15:40:00.000Z</time>
      </trkpt>
      <trkpt lat="37.589270733296871185302734375" lon="-2.4876725859940052032470703125">
        <ele>1032.5999755859375</ele>
        <time>2019-10-27T15:40:04.000Z</time>
      </trkpt>
      <trkpt lat="37.58925271220505237579345703125" lon="-2.4879629351198673248291015625">
        <ele>1031</ele>
        <time>2019-10-27T15:40:08.000Z</time>
      </trkpt>
      <trkpt lat="37.589243240654468536376953125" lon="-2.4881818704307079315185546875">
        <ele>1030.199951171875</ele>
        <time>2019-10-27T15:40:11.000Z</time>
      </trkpt>
      <trkpt lat="37.58922086097300052642822265625" lon="-2.48843475244939327239990234375">
        <ele>1029.5999755859375</ele>
        <time>2019-10-27T15:40:14.000Z</time>
      </trkpt>
      <trkpt lat="37.589193619787693023681640625" lon="-2.488685287535190582275390625">
        <ele>1028.800048828125</ele>
        <time>2019-10-27T15:40:17.000Z</time>
      </trkpt>
      <trkpt lat="37.58916839025914669036865234375" lon="-2.48897287063300609588623046875">
        <ele>1028</ele>
        <time>2019-10-27T15:40:21.000Z</time>
      </trkpt>
      <trkpt lat="37.58915632031857967376708984375" lon="-2.489216029644012451171875">
        <ele>1028</ele>
        <time>2019-10-27T15:40:25.000Z</time>
      </trkpt>
      <trkpt lat="37.5891418196260929107666015625" lon="-2.4894669838249683380126953125">
        <ele>1027.800048828125</ele>
        <time>2019-10-27T15:40:31.000Z</time>
      </trkpt>
      <trkpt lat="37.58911156095564365386962890625" lon="-2.48970779590308666229248046875">
        <ele>1027.4000244140625</ele>
        <time>2019-10-27T15:40:38.000Z</time>
      </trkpt>
      <trkpt lat="37.5890968926250934600830078125" lon="-2.4899541400372982025146484375">
        <ele>1027.800048828125</ele>
        <time>2019-10-27T15:40:46.000Z</time>
      </trkpt>
      <trkpt lat="37.58907317183911800384521484375" lon="-2.4902052618563175201416015625">
        <ele>1028.4000244140625</ele>
        <time>2019-10-27T15:40:55.000Z</time>
      </trkpt>
      <trkpt lat="37.589052803814411163330078125" lon="-2.4904458224773406982421875">
        <ele>1029.5999755859375</ele>
        <time>2019-10-27T15:41:02.000Z</time>
      </trkpt>
      <trkpt lat="37.589032351970672607421875" lon="-2.4906773306429386138916015625">
        <ele>1030.4000244140625</ele>
        <time>2019-10-27T15:41:08.000Z</time>
      </trkpt>
      <trkpt lat="37.58900393731892108917236328125" lon="-2.4909205734729766845703125">
        <ele>1030.4000244140625</ele>
        <time>2019-10-27T15:41:14.000Z</time>
      </trkpt>
      <trkpt lat="37.588993795216083526611328125" lon="-2.491089887917041778564453125">
        <ele>1030.199951171875</ele>
        <time>2019-10-27T15:41:18.000Z</time>
      </trkpt>
      <trkpt lat="37.58897946216166019439697265625" lon="-2.49135768972337245941162109375">
        <ele>1030.199951171875</ele>
        <time>2019-10-27T15:41:24.000Z</time>
      </trkpt>
      <trkpt lat="37.5889654643833637237548828125" lon="-2.49162758700549602508544921875">
        <ele>1029.4000244140625</ele>
        <time>2019-10-27T15:41:30.000Z</time>
      </trkpt>
      <trkpt lat="37.58894987404346466064453125" lon="-2.4918625317513942718505859375">
        <ele>1028.4000244140625</ele>
        <time>2019-10-27T15:41:35.000Z</time>
      </trkpt>
      <trkpt lat="37.58893646299839019775390625" lon="-2.4921310879290103912353515625">
        <ele>1028</ele>
        <time>2019-10-27T15:41:41.000Z</time>
      </trkpt>
      <trkpt lat="37.58891760371625423431396484375" lon="-2.49237340874969959259033203125">
        <ele>1028</ele>
        <time>2019-10-27T15:41:46.000Z</time>
      </trkpt>
      <trkpt lat="37.58889799006283283233642578125" lon="-2.49263207428157329559326171875">
        <ele>1028</ele>
        <time>2019-10-27T15:41:51.000Z</time>
      </trkpt>
      <trkpt lat="37.588891200721263885498046875" lon="-2.49289962463080883026123046875">
        <ele>1028</ele>
        <time>2019-10-27T15:41:56.000Z</time>
      </trkpt>
      <trkpt lat="37.58887208998203277587890625" lon="-2.49317538924515247344970703125">
        <ele>1027.5999755859375</ele>
        <time>2019-10-27T15:42:01.000Z</time>
      </trkpt>
      <trkpt lat="37.58885960094630718231201171875" lon="-2.493401952087879180908203125">
        <ele>1026.800048828125</ele>
        <time>2019-10-27T15:42:05.000Z</time>
      </trkpt>
      <trkpt lat="37.58884258568286895751953125" lon="-2.49364041723310947418212890625">
        <ele>1025.800048828125</ele>
        <time>2019-10-27T15:42:09.000Z</time>
      </trkpt>
      <trkpt lat="37.5888253189623355865478515625" lon="-2.49388483352959156036376953125">
        <ele>1025</ele>
        <time>2019-10-27T15:42:13.000Z</time>
      </trkpt>
      <trkpt lat="37.58881081826984882354736328125" lon="-2.4941383861005306243896484375">
        <ele>1025</ele>
        <time>2019-10-27T15:42:17.000Z</time>
      </trkpt>
      <trkpt lat="37.5887854211032390594482421875" lon="-2.49439864419400691986083984375">
        <ele>1024.5999755859375</ele>
        <time>2019-10-27T15:42:21.000Z</time>
      </trkpt>
      <trkpt lat="37.58876622654497623443603515625" lon="-2.49466267414391040802001953125">
        <ele>1024.5999755859375</ele>
        <time>2019-10-27T15:42:25.000Z</time>
      </trkpt>
      <trkpt lat="37.58875667117536067962646484375" lon="-2.49485713429749011993408203125">
        <ele>1024</ele>
        <time>2019-10-27T15:42:28.000Z</time>
      </trkpt>
      <trkpt lat="37.5887394882738590240478515625" lon="-2.4950962699949741363525390625">
        <ele>1024</ele>
        <time>2019-10-27T15:42:32.000Z</time>
      </trkpt>
      <trkpt lat="37.58873068727552890777587890625" lon="-2.4953274428844451904296875">
        <ele>1023.79998779296875</ele>
        <time>2019-10-27T15:42:36.000Z</time>
      </trkpt>
      <trkpt lat="37.58871409110724925994873046875" lon="-2.49560480006039142608642578125">
        <ele>1023.79998779296875</ele>
        <time>2019-10-27T15:42:41.000Z</time>
      </trkpt>
      <trkpt lat="37.588692046701908111572265625" lon="-2.49588022939860820770263671875">
        <ele>1024.4000244140625</ele>
        <time>2019-10-27T15:42:46.000Z</time>
      </trkpt>
      <trkpt lat="37.58867704309523105621337890625" lon="-2.4961279146373271942138671875">
        <ele>1024.199951171875</ele>
        <time>2019-10-27T15:42:50.000Z</time>
      </trkpt>
      <trkpt lat="37.58865726180374622344970703125" lon="-2.49638515524566173553466796875">
        <ele>1024</ele>
        <time>2019-10-27T15:42:54.000Z</time>
      </trkpt>
      <trkpt lat="37.5886420905590057373046875" lon="-2.496575005352497100830078125">
        <ele>1024</ele>
        <time>2019-10-27T15:42:57.000Z</time>
      </trkpt>
      <trkpt lat="37.58863362483680248260498046875" lon="-2.49676711857318878173828125">
        <ele>1023.5999755859375</ele>
        <time>2019-10-27T15:43:00.000Z</time>
      </trkpt>
      <trkpt lat="37.58861300535500049591064453125" lon="-2.49701044522225856781005859375">
        <ele>1022.79998779296875</ele>
        <time>2019-10-27T15:43:04.000Z</time>
      </trkpt>
      <trkpt lat="37.58858978748321533203125" lon="-2.4972443841397762298583984375">
        <ele>1021.79998779296875</ele>
        <time>2019-10-27T15:43:08.000Z</time>
      </trkpt>
      <trkpt lat="37.5885785557329654693603515625" lon="-2.49748469330370426177978515625">
        <ele>1020.79998779296875</ele>
        <time>2019-10-27T15:43:12.000Z</time>
      </trkpt>
      <trkpt lat="37.58856237865984439849853515625" lon="-2.497733719646930694580078125">
        <ele>1019.79998779296875</ele>
        <time>2019-10-27T15:43:16.000Z</time>
      </trkpt>
      <trkpt lat="37.58854796178638935089111328125" lon="-2.4979890324175357818603515625">
        <ele>1019.5999755859375</ele>
        <time>2019-10-27T15:43:20.000Z</time>
      </trkpt>
      <trkpt lat="37.588530443608760833740234375" lon="-2.498255074024200439453125">
        <ele>1020</ele>
        <time>2019-10-27T15:43:24.000Z</time>
      </trkpt>
      <trkpt lat="37.5885195471346378326416015625" lon="-2.4985204450786113739013671875">
        <ele>1020</ele>
        <time>2019-10-27T15:43:28.000Z</time>
      </trkpt>
      <trkpt lat="37.5885106623172760009765625" lon="-2.498791180551052093505859375">
        <ele>1020</ele>
        <time>2019-10-27T15:43:32.000Z</time>
      </trkpt>
      <trkpt lat="37.5884970836341381072998046875" lon="-2.49906920827925205230712890625">
        <ele>1019.5999755859375</ele>
        <time>2019-10-27T15:43:36.000Z</time>
      </trkpt>
      <trkpt lat="37.588485516607761383056640625" lon="-2.4992074258625507354736328125">
        <ele>1019.4000244140625</ele>
        <time>2019-10-27T15:43:38.000Z</time>
      </trkpt>
      <trkpt lat="37.5884719379246234893798828125" lon="-2.4994793348014354705810546875">
        <ele>1018.79998779296875</ele>
        <time>2019-10-27T15:43:42.000Z</time>
      </trkpt>
      <trkpt lat="37.58845324628055095672607421875" lon="-2.49975132755935192108154296875">
        <ele>1018.20001220703125</ele>
        <time>2019-10-27T15:43:46.000Z</time>
      </trkpt>
      <trkpt lat="37.58842944167554378509521484375" lon="-2.50002197921276092529296875">
        <ele>1018.79998779296875</ele>
        <time>2019-10-27T15:43:50.000Z</time>
      </trkpt>
      <trkpt lat="37.58841468952596187591552734375" lon="-2.5002913735806941986083984375">
        <ele>1018.79998779296875</ele>
        <time>2019-10-27T15:43:54.000Z</time>
      </trkpt>
      <trkpt lat="37.58839004673063755035400390625" lon="-2.50055842101573944091796875">
        <ele>1019</ele>
        <time>2019-10-27T15:43:58.000Z</time>
      </trkpt>
      <trkpt lat="37.58836590684950351715087890625" lon="-2.50080577097833156585693359375">
        <ele>1018.20001220703125</ele>
        <time>2019-10-27T15:44:02.000Z</time>
      </trkpt>
      <trkpt lat="37.58834411390125751495361328125" lon="-2.501040212810039520263671875">
        <ele>1017.20001220703125</ele>
        <time>2019-10-27T15:44:06.000Z</time>
      </trkpt>
      <trkpt lat="37.58833103813230991363525390625" lon="-2.50126962549984455108642578125">
        <ele>1017</ele>
        <time>2019-10-27T15:44:10.000Z</time>
      </trkpt>
      <trkpt lat="37.58831578306853771209716796875" lon="-2.50151555053889751434326171875">
        <ele>1017</ele>
        <time>2019-10-27T15:44:14.000Z</time>
      </trkpt>
      <trkpt lat="37.5883068144321441650390625" lon="-2.50176466070115566253662109375">
        <ele>1017</ele>
        <time>2019-10-27T15:44:18.000Z</time>
      </trkpt>
      <trkpt lat="37.58829482831060886383056640625" lon="-2.50202232040464878082275390625">
        <ele>1017</ele>
        <time>2019-10-27T15:44:22.000Z</time>
      </trkpt>
      <trkpt lat="37.588277645409107208251953125" lon="-2.50228584744036197662353515625">
        <ele>1017</ele>
        <time>2019-10-27T15:44:26.000Z</time>
      </trkpt>
      <trkpt lat="37.5882664136588573455810546875" lon="-2.50241844914853572845458984375">
        <ele>1017</ele>
        <time>2019-10-27T15:44:28.000Z</time>
      </trkpt>
      <trkpt lat="37.58824168704450130462646484375" lon="-2.50268734060227870941162109375">
        <ele>1016.5999755859375</ele>
        <time>2019-10-27T15:44:32.000Z</time>
      </trkpt>
      <trkpt lat="37.5882154516875743865966796875" lon="-2.5029501132667064666748046875">
        <ele>1016.4000244140625</ele>
        <time>2019-10-27T15:44:36.000Z</time>
      </trkpt>
      <trkpt lat="37.5882084108889102935791015625" lon="-2.50301322899758815765380859375">
        <ele>1016.20001220703125</ele>
        <time>2019-10-27T15:44:37.000Z</time>
      </trkpt>
      <trkpt lat="37.58817831985652446746826171875" lon="-2.5032431446015834808349609375">
        <ele>1016</ele>
        <time>2019-10-27T15:44:41.000Z</time>
      </trkpt>
      <trkpt lat="37.588164322078227996826171875" lon="-2.5033487565815448760986328125">
        <ele>1016</ele>
        <time>2019-10-27T15:44:43.000Z</time>
      </trkpt>
      <trkpt lat="37.58814479224383831024169921875" lon="-2.50360541045665740966796875">
        <ele>1016</ele>
        <time>2019-10-27T15:44:48.000Z</time>
      </trkpt>
      <trkpt lat="37.5881297886371612548828125" lon="-2.50375234521925449371337890625">
        <ele>1016.5999755859375</ele>
        <time>2019-10-27T15:44:51.000Z</time>
      </trkpt>
      <trkpt lat="37.58799634873867034912109375" lon="-2.5038989447057247161865234375">
        <ele>1017</ele>
        <time>2019-10-27T15:44:56.000Z</time>
      </trkpt>
      <trkpt lat="37.587955780327320098876953125" lon="-2.503903806209564208984375">
        <ele>1017</ele>
        <time>2019-10-27T15:44:57.000Z</time>
      </trkpt>
      <trkpt lat="37.587843798100948333740234375" lon="-2.503936327993869781494140625">
        <ele>1017.20001220703125</ele>
        <time>2019-10-27T15:45:00.000Z</time>
      </trkpt>
      <trkpt lat="37.587749250233173370361328125" lon="-2.50400916673243045806884765625">
        <ele>1017.20001220703125</ele>
        <time>2019-10-27T15:45:03.000Z</time>
      </trkpt>
      <trkpt lat="37.58765243925154209136962890625" lon="-2.50421267934143543243408203125">
        <ele>1017.4000244140625</ele>
        <time>2019-10-27T15:45:08.000Z</time>
      </trkpt>
      <trkpt lat="37.5876387767493724822998046875" lon="-2.5044172815978527069091796875">
        <ele>1017.4000244140625</ele>
        <time>2019-10-27T15:45:12.000Z</time>
      </trkpt>
      <trkpt lat="37.58765579201281070709228515625" lon="-2.5046776235103607177734375">
        <ele>1016.5999755859375</ele>
        <time>2019-10-27T15:45:17.000Z</time>
      </trkpt>
      <trkpt lat="37.5876672752201557159423828125" lon="-2.5049537234008312225341796875">
        <ele>1016.20001220703125</ele>
        <time>2019-10-27T15:45:22.000Z</time>
      </trkpt>
      <trkpt lat="37.587683536112308502197265625" lon="-2.50517961569130420684814453125">
        <ele>1015.4000244140625</ele>
        <time>2019-10-27T15:45:26.000Z</time>
      </trkpt>
      <trkpt lat="37.58770273067057132720947265625" lon="-2.5054244510829448699951171875">
        <ele>1015</ele>
        <time>2019-10-27T15:45:30.000Z</time>
      </trkpt>
      <trkpt lat="37.5877153873443603515625" lon="-2.50566937029361724853515625">
        <ele>1015</ele>
        <time>2019-10-27T15:45:34.000Z</time>
      </trkpt>
      <trkpt lat="37.58773189969360828399658203125" lon="-2.5059045664966106414794921875">
        <ele>1015</ele>
        <time>2019-10-27T15:45:38.000Z</time>
      </trkpt>
      <trkpt lat="37.58775587193667888641357421875" lon="-2.50613934360444545745849609375">
        <ele>1015</ele>
        <time>2019-10-27T15:45:42.000Z</time>
      </trkpt>
      <trkpt lat="37.58776777423918247222900390625" lon="-2.50638091005384922027587890625">
        <ele>1015</ele>
        <time>2019-10-27T15:45:46.000Z</time>
      </trkpt>
      <trkpt lat="37.58778353221714496612548828125" lon="-2.5066168606281280517578125">
        <ele>1014.20001220703125</ele>
        <time>2019-10-27T15:45:50.000Z</time>
      </trkpt>
      <trkpt lat="37.58779845200479030609130859375" lon="-2.50686270184814929962158203125">
        <ele>1014</ele>
        <time>2019-10-27T15:45:54.000Z</time>
      </trkpt>
      <trkpt lat="37.5877970270812511444091796875" lon="-2.50698574818670749664306640625">
        <ele>1014</ele>
        <time>2019-10-27T15:45:56.000Z</time>
      </trkpt>
      <trkpt lat="37.58776324801146984100341796875" lon="-2.50722211785614490509033203125">
        <ele>1014</ele>
        <time>2019-10-27T15:46:00.000Z</time>
      </trkpt>
      <trkpt lat="37.5877475738525390625" lon="-2.50727911479771137237548828125">
        <ele>1013.79998779296875</ele>
        <time>2019-10-27T15:46:01.000Z</time>
      </trkpt>
      <trkpt lat="37.5876577198505401611328125" lon="-2.50749402679502964019775390625">
        <ele>1013.4000244140625</ele>
        <time>2019-10-27T15:46:05.000Z</time>
      </trkpt>
      <trkpt lat="37.58757515810430049896240234375" lon="-2.5076899118721485137939453125">
        <ele>1013.20001220703125</ele>
        <time>2019-10-27T15:46:09.000Z</time>
      </trkpt>
      <trkpt lat="37.58756007067859172821044921875" lon="-2.50783659517765045166015625">
        <ele>1013</ele>
        <time>2019-10-27T15:46:12.000Z</time>
      </trkpt>
      <trkpt lat="37.58749184198677539825439453125" lon="-2.50810883939266204833984375">
        <ele>1013.20001220703125</ele>
        <time>2019-10-27T15:46:17.000Z</time>
      </trkpt>
      <trkpt lat="37.5874164886772632598876953125" lon="-2.50831939280033111572265625">
        <ele>1013.4000244140625</ele>
        <time>2019-10-27T15:46:21.000Z</time>
      </trkpt>
      <trkpt lat="37.5873460806906223297119140625" lon="-2.50853774137794971466064453125">
        <ele>1013</ele>
        <time>2019-10-27T15:46:25.000Z</time>
      </trkpt>
      <trkpt lat="37.5872776843607425689697265625" lon="-2.50875751487910747528076171875">
        <ele>1013</ele>
        <time>2019-10-27T15:46:29.000Z</time>
      </trkpt>
      <trkpt lat="37.5872069410979747772216796875" lon="-2.5089797191321849822998046875">
        <ele>1013.20001220703125</ele>
        <time>2019-10-27T15:46:33.000Z</time>
      </trkpt>
      <trkpt lat="37.58713209070265293121337890625" lon="-2.5092043541371822357177734375">
        <ele>1013.4000244140625</ele>
        <time>2019-10-27T15:46:37.000Z</time>
      </trkpt>
      <trkpt lat="37.5870600901544094085693359375" lon="-2.50942974351346492767333984375">
        <ele>1014</ele>
        <time>2019-10-27T15:46:41.000Z</time>
      </trkpt>
      <trkpt lat="37.58700015954673290252685546875" lon="-2.5096583180129528045654296875">
        <ele>1014</ele>
        <time>2019-10-27T15:46:45.000Z</time>
      </trkpt>
      <trkpt lat="37.5869427435100078582763671875" lon="-2.50989158637821674346923828125">
        <ele>1013.4000244140625</ele>
        <time>2019-10-27T15:46:49.000Z</time>
      </trkpt>
      <trkpt lat="37.58687761612236499786376953125" lon="-2.51012108288705348968505859375">
        <ele>1012.4000244140625</ele>
        <time>2019-10-27T15:46:53.000Z</time>
      </trkpt>
      <trkpt lat="37.58686487562954425811767578125" lon="-2.51017573289573192596435546875">
        <ele>1012.20001220703125</ele>
        <time>2019-10-27T15:46:54.000Z</time>
      </trkpt>
      <trkpt lat="37.586801089346408843994140625" lon="-2.5104311294853687286376953125">
        <ele>1011.5999755859375</ele>
        <time>2019-10-27T15:46:59.000Z</time>
      </trkpt>
      <trkpt lat="37.58679094724357128143310546875" lon="-2.51048033125698566436767578125">
        <ele>1011.5999755859375</ele>
        <time>2019-10-27T15:47:00.000Z</time>
      </trkpt>
      <trkpt lat="37.58672942407429218292236328125" lon="-2.5107372365891933441162109375">
        <ele>1011.79998779296875</ele>
        <time>2019-10-27T15:47:05.000Z</time>
      </trkpt>
      <trkpt lat="37.5866896100342273712158203125" lon="-2.5108814053237438201904296875">
        <ele>1012</ele>
        <time>2019-10-27T15:47:08.000Z</time>
      </trkpt>
      <trkpt lat="37.58667293004691600799560546875" lon="-2.51115524210035800933837890625">
        <ele>1012</ele>
        <time>2019-10-27T15:47:13.000Z</time>
      </trkpt>
      <trkpt lat="37.58665599860250949859619140625" lon="-2.51139228232204914093017578125">
        <ele>1012</ele>
        <time>2019-10-27T15:47:17.000Z</time>
      </trkpt>
      <trkpt lat="37.58663051761686801910400390625" lon="-2.51164575107395648956298828125">
        <ele>1012</ele>
        <time>2019-10-27T15:47:21.000Z</time>
      </trkpt>
      <trkpt lat="37.5866004265844821929931640625" lon="-2.511918246746063232421875">
        <ele>1012.79998779296875</ele>
        <time>2019-10-27T15:47:25.000Z</time>
      </trkpt>
      <trkpt lat="37.58655943907797336578369140625" lon="-2.5121983699500560760498046875">
        <ele>1013</ele>
        <time>2019-10-27T15:47:29.000Z</time>
      </trkpt>
      <trkpt lat="37.58649188093841075897216796875" lon="-2.51248075626790523529052734375">
        <ele>1013</ele>
        <time>2019-10-27T15:47:33.000Z</time>
      </trkpt>
      <trkpt lat="37.58642868138849735260009765625" lon="-2.51269533298909664154052734375">
        <ele>1013</ele>
        <time>2019-10-27T15:47:36.000Z</time>
      </trkpt>
      <trkpt lat="37.58635911159217357635498046875" lon="-2.51291611231863498687744140625">
        <ele>1012.4000244140625</ele>
        <time>2019-10-27T15:47:39.000Z</time>
      </trkpt>
      <trkpt lat="37.58633740246295928955078125" lon="-2.51298953779041767120361328125">
        <ele>1012</ele>
        <time>2019-10-27T15:47:40.000Z</time>
      </trkpt>
      <trkpt lat="37.5862685032188892364501953125" lon="-2.51320897601544857025146484375">
        <ele>1011</ele>
        <time>2019-10-27T15:47:43.000Z</time>
      </trkpt>
      <trkpt lat="37.5862041302025318145751953125" lon="-2.51343294046819210052490234375">
        <ele>1010.20001220703125</ele>
        <time>2019-10-27T15:47:46.000Z</time>
      </trkpt>
      <trkpt lat="37.58614537306129932403564453125" lon="-2.5136598385870456695556640625">
        <ele>1010</ele>
        <time>2019-10-27T15:47:49.000Z</time>
      </trkpt>
      <trkpt lat="37.586088292300701141357421875" lon="-2.5138891674578189849853515625">
        <ele>1010</ele>
        <time>2019-10-27T15:47:52.000Z</time>
      </trkpt>
      <trkpt lat="37.58602752350270748138427734375" lon="-2.5141201727092266082763671875">
        <ele>1009.20001220703125</ele>
        <time>2019-10-27T15:47:55.000Z</time>
      </trkpt>
      <trkpt lat="37.585958875715732574462890625" lon="-2.514346651732921600341796875">
        <ele>1009</ele>
        <time>2019-10-27T15:47:58.000Z</time>
      </trkpt>
      <trkpt lat="37.5858713686466217041015625" lon="-2.51456625759601593017578125">
        <ele>1008.5999755859375</ele>
        <time>2019-10-27T15:48:01.000Z</time>
      </trkpt>
      <trkpt lat="37.58577321656048297882080078125" lon="-2.514780499041080474853515625">
        <ele>1008.20001220703125</ele>
        <time>2019-10-27T15:48:04.000Z</time>
      </trkpt>
      <trkpt lat="37.58567129261791706085205078125" lon="-2.514989711344242095947265625">
        <ele>1008</ele>
        <time>2019-10-27T15:48:07.000Z</time>
      </trkpt>
      <trkpt lat="37.58557339198887348175048828125" lon="-2.51519682817161083221435546875">
        <ele>1008</ele>
        <time>2019-10-27T15:48:10.000Z</time>
      </trkpt>
      <trkpt lat="37.585486806929111480712890625" lon="-2.51539967022836208343505859375">
        <ele>1008</ele>
        <time>2019-10-27T15:48:13.000Z</time>
      </trkpt>
      <trkpt lat="37.58545386604964733123779296875" lon="-2.515459097921848297119140625">
        <ele>1008</ele>
        <time>2019-10-27T15:48:14.000Z</time>
      </trkpt>
      <trkpt lat="37.5853371061384677886962890625" lon="-2.5156708247959613800048828125">
        <ele>1008</ele>
        <time>2019-10-27T15:48:18.000Z</time>
      </trkpt>
      <trkpt lat="37.585295699536800384521484375" lon="-2.5158501975238323211669921875">
        <ele>1008</ele>
        <time>2019-10-27T15:48:21.000Z</time>
      </trkpt>
      <trkpt lat="37.58522587828338146209716796875" lon="-2.5160929374396800994873046875">
        <ele>1008.20001220703125</ele>
        <time>2019-10-27T15:48:25.000Z</time>
      </trkpt>
      <trkpt lat="37.58511858992278575897216796875" lon="-2.5163192488253116607666015625">
        <ele>1008</ele>
        <time>2019-10-27T15:48:29.000Z</time>
      </trkpt>
      <trkpt lat="37.58500761352479457855224609375" lon="-2.51655167900025844573974609375">
        <ele>1008</ele>
        <time>2019-10-27T15:48:33.000Z</time>
      </trkpt>
      <trkpt lat="37.58491180837154388427734375" lon="-2.51671378500759601593017578125">
        <ele>1007.79998779296875</ele>
        <time>2019-10-27T15:48:36.000Z</time>
      </trkpt>
      <trkpt lat="37.5848033465445041656494140625" lon="-2.51695535145699977874755859375">
        <ele>1007.20001220703125</ele>
        <time>2019-10-27T15:48:40.000Z</time>
      </trkpt>
      <trkpt lat="37.58468625135719776153564453125" lon="-2.517214603722095489501953125">
        <ele>1005.79998779296875</ele>
        <time>2019-10-27T15:48:44.000Z</time>
      </trkpt>
      <trkpt lat="37.5845924578607082366943359375" lon="-2.51742255873978137969970703125">
        <ele>1005.4000244140625</ele>
        <time>2019-10-27T15:48:47.000Z</time>
      </trkpt>
      <trkpt lat="37.58449732325971126556396484375" lon="-2.5176402367651462554931640625">
        <ele>1005.5999755859375</ele>
        <time>2019-10-27T15:48:50.000Z</time>
      </trkpt>
      <trkpt lat="37.58440076373517513275146484375" lon="-2.517862021923065185546875">
        <ele>1006.20001220703125</ele>
        <time>2019-10-27T15:48:53.000Z</time>
      </trkpt>
      <trkpt lat="37.584302611649036407470703125" lon="-2.518086992204189300537109375">
        <ele>1007</ele>
        <time>2019-10-27T15:48:56.000Z</time>
      </trkpt>
      <trkpt lat="37.58419775404036045074462890625" lon="-2.5183030776679515838623046875">
        <ele>1007.79998779296875</ele>
        <time>2019-10-27T15:48:59.000Z</time>
      </trkpt>
      <trkpt lat="37.584097087383270263671875" lon="-2.5185099430382251739501953125">
        <ele>1008</ele>
        <time>2019-10-27T15:49:02.000Z</time>
      </trkpt>
      <trkpt lat="37.5840667448937892913818359375" lon="-2.51857993192970752716064453125">
        <ele>1008</ele>
        <time>2019-10-27T15:49:03.000Z</time>
      </trkpt>
      <trkpt lat="37.58397110737860202789306640625" lon="-2.5187831930816173553466796875">
        <ele>1007.4000244140625</ele>
        <time>2019-10-27T15:49:06.000Z</time>
      </trkpt>
      <trkpt lat="37.583851329982280731201171875" lon="-2.51903741620481014251708984375">
        <ele>1006</ele>
        <time>2019-10-27T15:49:10.000Z</time>
      </trkpt>
      <trkpt lat="37.5837428681552410125732421875" lon="-2.5192753784358501434326171875">
        <ele>1005</ele>
        <time>2019-10-27T15:49:14.000Z</time>
      </trkpt>
      <trkpt lat="37.58363834582269191741943359375" lon="-2.51950328238308429718017578125">
        <ele>1005.20001220703125</ele>
        <time>2019-10-27T15:49:18.000Z</time>
      </trkpt>
      <trkpt lat="37.5835410319268703460693359375" lon="-2.5197420828044414520263671875">
        <ele>1005.5999755859375</ele>
        <time>2019-10-27T15:49:22.000Z</time>
      </trkpt>
      <trkpt lat="37.583444975316524505615234375" lon="-2.5200032629072666168212890625">
        <ele>1005.4000244140625</ele>
        <time>2019-10-27T15:49:26.000Z</time>
      </trkpt>
      <trkpt lat="37.58335486985743045806884765625" lon="-2.5202791951596736907958984375">
        <ele>1006</ele>
        <time>2019-10-27T15:49:30.000Z</time>
      </trkpt>
      <trkpt lat="37.5832992978394031524658203125" lon="-2.52049586735665798187255859375">
        <ele>1006.5999755859375</ele>
        <time>2019-10-27T15:49:33.000Z</time>
      </trkpt>
      <trkpt lat="37.58324489928781986236572265625" lon="-2.520713545382022857666015625">
        <ele>1006.5999755859375</ele>
        <time>2019-10-27T15:49:36.000Z</time>
      </trkpt>
      <trkpt lat="37.583192847669124603271484375" lon="-2.520939521491527557373046875">
        <ele>1006.79998779296875</ele>
        <time>2019-10-27T15:49:39.000Z</time>
      </trkpt>
      <trkpt lat="37.5831397064030170440673828125" lon="-2.5211770646274089813232421875">
        <ele>1007</ele>
        <time>2019-10-27T15:49:42.000Z</time>
      </trkpt>
      <trkpt lat="37.58308731950819492340087890625" lon="-2.521408237516880035400390625">
        <ele>1007</ele>
        <time>2019-10-27T15:49:45.000Z</time>
      </trkpt>
      <trkpt lat="37.58302780799567699432373046875" lon="-2.52163077704608440399169921875">
        <ele>1006.79998779296875</ele>
        <time>2019-10-27T15:49:48.000Z</time>
      </trkpt>
      <trkpt lat="37.5829589925706386566162109375" lon="-2.52184233628213405609130859375">
        <ele>1006.5999755859375</ele>
        <time>2019-10-27T15:49:51.000Z</time>
      </trkpt>
      <trkpt lat="37.582857906818389892578125" lon="-2.522115670144557952880859375">
        <ele>1006.20001220703125</ele>
        <time>2019-10-27T15:49:55.000Z</time>
      </trkpt>
      <trkpt lat="37.58278909139335155487060546875" lon="-2.5223277322947978973388671875">
        <ele>1006</ele>
        <time>2019-10-27T15:49:58.000Z</time>
      </trkpt>
      <trkpt lat="37.58277333341538906097412109375" lon="-2.52240090630948543548583984375">
        <ele>1006</ele>
        <time>2019-10-27T15:49:59.000Z</time>
      </trkpt>
      <trkpt lat="37.58276260457932949066162109375" lon="-2.52263057045638561248779296875">
        <ele>1006.20001220703125</ele>
        <time>2019-10-27T15:50:02.000Z</time>
      </trkpt>
      <trkpt lat="37.58273930288851261138916015625" lon="-2.52285688184201717376708984375">
        <ele>1006.5999755859375</ele>
        <time>2019-10-27T15:50:05.000Z</time>
      </trkpt>
      <trkpt lat="37.58269236423075199127197265625" lon="-2.52308168448507785797119140625">
        <ele>1006.20001220703125</ele>
        <time>2019-10-27T15:50:08.000Z</time>
      </trkpt>
      <trkpt lat="37.582663111388683319091796875" lon="-2.52323272638022899627685546875">
        <ele>1005.79998779296875</ele>
        <time>2019-10-27T15:50:10.000Z</time>
      </trkpt>
      <trkpt lat="37.5826297514140605926513671875" lon="-2.52346540801227092742919921875">
        <ele>1005.4000244140625</ele>
        <time>2019-10-27T15:50:13.000Z</time>
      </trkpt>
      <trkpt lat="37.5825915299355983734130859375" lon="-2.5236963294446468353271484375">
        <ele>1004.4000244140625</ele>
        <time>2019-10-27T15:50:16.000Z</time>
      </trkpt>
      <trkpt lat="37.58255188353359699249267578125" lon="-2.52392850816249847412109375">
        <ele>1003.79998779296875</ele>
        <time>2019-10-27T15:50:19.000Z</time>
      </trkpt>
      <trkpt lat="37.582530342042446136474609375" lon="-2.5241625308990478515625">
        <ele>1004</ele>
        <time>2019-10-27T15:50:22.000Z</time>
      </trkpt>
      <trkpt lat="37.5825331918895244598388671875" lon="-2.52440032549202442169189453125">
        <ele>1003.20001220703125</ele>
        <time>2019-10-27T15:50:25.000Z</time>
      </trkpt>
      <trkpt lat="37.58254115469753742218017578125" lon="-2.52455857582390308380126953125">
        <ele>1003</ele>
        <time>2019-10-27T15:50:27.000Z</time>
      </trkpt>
      <trkpt lat="37.5825352035462856292724609375" lon="-2.52479846589267253875732421875">
        <ele>1003</ele>
        <time>2019-10-27T15:50:30.000Z</time>
      </trkpt>
      <trkpt lat="37.58253394626080989837646484375" lon="-2.52504019998013973236083984375">
        <ele>1003</ele>
        <time>2019-10-27T15:50:33.000Z</time>
      </trkpt>
      <trkpt lat="37.58251684717833995819091796875" lon="-2.52528034150600433349609375">
        <ele>1003</ele>
        <time>2019-10-27T15:50:36.000Z</time>
      </trkpt>
      <trkpt lat="37.58251123130321502685546875" lon="-2.5255195610225200653076171875">
        <ele>1003.79998779296875</ele>
        <time>2019-10-27T15:50:39.000Z</time>
      </trkpt>
      <trkpt lat="37.58250645361840724945068359375" lon="-2.5257582776248455047607421875">
        <ele>1004</ele>
        <time>2019-10-27T15:50:42.000Z</time>
      </trkpt>
      <trkpt lat="37.58251014165580272674560546875" lon="-2.52599892206490039825439453125">
        <ele>1004</ele>
        <time>2019-10-27T15:50:45.000Z</time>
      </trkpt>
      <trkpt lat="37.58250653743743896484375" lon="-2.5262504629790782928466796875">
        <ele>1004.4000244140625</ele>
        <time>2019-10-27T15:50:48.000Z</time>
      </trkpt>
      <trkpt lat="37.58249606005847454071044921875" lon="-2.52650066278874874114990234375">
        <ele>1005</ele>
        <time>2019-10-27T15:50:51.000Z</time>
      </trkpt>
      <trkpt lat="37.58248432539403438568115234375" lon="-2.5267473421990871429443359375">
        <ele>1005</ele>
        <time>2019-10-27T15:50:54.000Z</time>
      </trkpt>
      <trkpt lat="37.5824671424925327301025390625" lon="-2.5269910879433155059814453125">
        <ele>1004.79998779296875</ele>
        <time>2019-10-27T15:50:57.000Z</time>
      </trkpt>
      <trkpt lat="37.58245331235229969024658203125" lon="-2.5272371806204319000244140625">
        <ele>1003</ele>
        <time>2019-10-27T15:51:00.000Z</time>
      </trkpt>
      <trkpt lat="37.58245163597166538238525390625" lon="-2.5273199938237667083740234375">
        <ele>1002.4000244140625</ele>
        <time>2019-10-27T15:51:01.000Z</time>
      </trkpt>
      <trkpt lat="37.58246068842709064483642578125" lon="-2.52753482200205326080322265625">
        <ele>1001</ele>
        <time>2019-10-27T15:51:04.000Z</time>
      </trkpt>
      <trkpt lat="37.58258490823209285736083984375" lon="-2.5276361592113971710205078125">
        <ele>1001.20001220703125</ele>
        <time>2019-10-27T15:51:38.000Z</time>
      </trkpt>
      <trkpt lat="37.58279554545879364013671875" lon="-2.52760321833193302154541015625">
        <ele>1001.5999755859375</ele>
        <time>2019-10-27T15:51:46.000Z</time>
      </trkpt>
      <trkpt lat="37.5830015726387500762939453125" lon="-2.527580671012401580810546875">
        <ele>1001</ele>
        <time>2019-10-27T15:51:51.000Z</time>
      </trkpt>
      <trkpt lat="37.58321086876094341278076171875" lon="-2.5275327265262603759765625">
        <ele>1000</ele>
        <time>2019-10-27T15:51:56.000Z</time>
      </trkpt>
      <trkpt lat="37.583343051373958587646484375" lon="-2.52750523388385772705078125">
        <ele>999.20001220703125</ele>
        <time>2019-10-27T15:51:59.000Z</time>
      </trkpt>
      <trkpt lat="37.58355486206710338592529296875" lon="-2.5274916552007198333740234375">
        <ele>997.5999755859375</ele>
        <time>2019-10-27T15:52:04.000Z</time>
      </trkpt>
      <trkpt lat="37.5837653316557407379150390625" lon="-2.527450583875179290771484375">
        <ele>997</ele>
        <time>2019-10-27T15:52:09.000Z</time>
      </trkpt>
      <trkpt lat="37.583801038563251495361328125" lon="-2.5274577923119068145751953125">
        <ele>996.79998779296875</ele>
        <time>2019-10-27T15:52:10.000Z</time>
      </trkpt>
      <trkpt lat="37.58391201496124267578125" lon="-2.5275743007659912109375">
        <ele>995.79998779296875</ele>
        <time>2019-10-27T15:52:15.000Z</time>
      </trkpt>
      <trkpt lat="37.58400396443903446197509765625" lon="-2.52777387388050556182861328125">
        <ele>995.4000244140625</ele>
        <time>2019-10-27T15:52:21.000Z</time>
      </trkpt>
      <trkpt lat="37.5840707682073116302490234375" lon="-2.52798442728817462921142578125">
        <ele>996</ele>
        <time>2019-10-27T15:52:26.000Z</time>
      </trkpt>
      <trkpt lat="37.58413220755755901336669921875" lon="-2.52823923714458942413330078125">
        <ele>996.20001220703125</ele>
        <time>2019-10-27T15:52:32.000Z</time>
      </trkpt>
      <trkpt lat="37.5841857679188251495361328125" lon="-2.52835943363606929779052734375">
        <ele>996</ele>
        <time>2019-10-27T15:52:38.000Z</time>
      </trkpt>
      <trkpt lat="37.584366984665393829345703125" lon="-2.52841718494892120361328125">
        <ele>995.5999755859375</ele>
        <time>2019-10-27T15:52:53.000Z</time>
      </trkpt>
      <trkpt lat="37.58447485975921154022216796875" lon="-2.52860737033188343048095703125">
        <ele>996</ele>
        <time>2019-10-27T15:53:05.000Z</time>
      </trkpt>
      <trkpt lat="37.584534622728824615478515625" lon="-2.528824545443058013916015625">
        <ele>997.20001220703125</ele>
        <time>2019-10-27T15:53:19.000Z</time>
      </trkpt>
      <trkpt lat="37.584620453417301177978515625" lon="-2.5290293991565704345703125">
        <ele>997</ele>
        <time>2019-10-27T15:53:33.000Z</time>
      </trkpt>
      <trkpt lat="37.58477635681629180908203125" lon="-2.52914951182901859283447265625">
        <ele>996.79998779296875</ele>
        <time>2019-10-27T15:53:49.000Z</time>
      </trkpt>
      <trkpt lat="37.58485414087772369384765625" lon="-2.529139034450054168701171875">
        <ele>996.20001220703125</ele>
        <time>2019-10-27T15:53:56.000Z</time>
      </trkpt>
      <trkpt lat="37.58487618528306484222412109375" lon="-2.52916753292083740234375">
        <ele>996</ele>
        <time>2019-10-27T15:54:05.000Z</time>
      </trkpt>
      <trkpt lat="37.5812913291156291961669921875" lon="-2.52772090025246143341064453125">
        <ele>1003</ele>
        <time>2019-10-28T07:26:25.000Z</time>
      </trkpt>
      <trkpt lat="37.58147589862346649169921875" lon="-2.52769122831523418426513671875">
        <ele>1002.79998779296875</ele>
        <time>2019-10-28T07:26:46.000Z</time>
      </trkpt>
      <trkpt lat="37.5816587917506694793701171875" lon="-2.527667842805385589599609375">
        <ele>1002.20001220703125</ele>
        <time>2019-10-28T07:26:51.000Z</time>
      </trkpt>
      <trkpt lat="37.581852413713932037353515625" lon="-2.52763708122074604034423828125">
        <ele>1001.4000244140625</ele>
        <time>2019-10-28T07:26:56.000Z</time>
      </trkpt>
      <trkpt lat="37.5820396654307842254638671875" lon="-2.5276066549122333526611328125">
        <ele>1001</ele>
        <time>2019-10-28T07:27:01.000Z</time>
      </trkpt>
      <trkpt lat="37.5822529010474681854248046875" lon="-2.52757019363343715667724609375">
        <ele>1001</ele>
        <time>2019-10-28T07:27:07.000Z</time>
      </trkpt>
      <trkpt lat="37.5824440084397792816162109375" lon="-2.527555525302886962890625">
        <ele>1001</ele>
        <time>2019-10-28T07:27:12.000Z</time>
      </trkpt>
      <trkpt lat="37.5825254805386066436767578125" lon="-2.5276505760848522186279296875">
        <ele>1001</ele>
        <time>2019-10-28T07:27:15.000Z</time>
      </trkpt>
      <trkpt lat="37.582553811371326446533203125" lon="-2.52783187665045261383056640625">
        <ele>1001</ele>
        <time>2019-10-28T07:27:19.000Z</time>
      </trkpt>
      <trkpt lat="37.58260787464678287506103515625" lon="-2.52807922661304473876953125">
        <ele>1001</ele>
        <time>2019-10-28T07:27:24.000Z</time>
      </trkpt>
      <trkpt lat="37.58266721852123737335205078125" lon="-2.5283472798764705657958984375">
        <ele>1000.4000244140625</ele>
        <time>2019-10-28T07:27:29.000Z</time>
      </trkpt>
      <trkpt lat="37.58271549828350543975830078125" lon="-2.5285772792994976043701171875">
        <ele>1000</ele>
        <time>2019-10-28T07:27:33.000Z</time>
      </trkpt>
      <trkpt lat="37.58275824598968029022216796875" lon="-2.528799064457416534423828125">
        <ele>1000.20001220703125</ele>
        <time>2019-10-28T07:27:37.000Z</time>
      </trkpt>
      <trkpt lat="37.582801915705204010009765625" lon="-2.52906166948378086090087890625">
        <ele>1001.20001220703125</ele>
        <time>2019-10-28T07:27:42.000Z</time>
      </trkpt>
      <trkpt lat="37.5828377902507781982421875" lon="-2.52931170165538787841796875">
        <ele>1001.79998779296875</ele>
        <time>2019-10-28T07:27:47.000Z</time>
      </trkpt>
      <trkpt lat="37.5828731618821620941162109375" lon="-2.529571540653705596923828125">
        <ele>1000.79998779296875</ele>
        <time>2019-10-28T07:27:52.000Z</time>
      </trkpt>
      <trkpt lat="37.5829046778380870819091796875" lon="-2.52985241822898387908935546875">
        <ele>999.20001220703125</ele>
        <time>2019-10-28T07:27:57.000Z</time>
      </trkpt>
      <trkpt lat="37.5829278118908405303955078125" lon="-2.53007948398590087890625">
        <ele>998.20001220703125</ele>
        <time>2019-10-28T07:28:01.000Z</time>
      </trkpt>
      <trkpt lat="37.58295714855194091796875" lon="-2.53034912981092929840087890625">
        <ele>997.4000244140625</ele>
        <time>2019-10-28T07:28:06.000Z</time>
      </trkpt>
      <trkpt lat="37.58298070169985294342041015625" lon="-2.530574686825275421142578125">
        <ele>997.4000244140625</ele>
        <time>2019-10-28T07:28:10.000Z</time>
      </trkpt>
      <trkpt lat="37.5829874910414218902587890625" lon="-2.53081147558987140655517578125">
        <ele>997.79998779296875</ele>
        <time>2019-10-28T07:28:14.000Z</time>
      </trkpt>
      <trkpt lat="37.58298774249851703643798828125" lon="-2.53105513751506805419921875">
        <ele>998</ele>
        <time>2019-10-28T07:28:18.000Z</time>
      </trkpt>
      <trkpt lat="37.5829821266233921051025390625" lon="-2.5313057564198970794677734375">
        <ele>998</ele>
        <time>2019-10-28T07:28:22.000Z</time>
      </trkpt>
      <trkpt lat="37.5829683803021907806396484375" lon="-2.53155830316245555877685546875">
        <ele>997.79998779296875</ele>
        <time>2019-10-28T07:28:26.000Z</time>
      </trkpt>
      <trkpt lat="37.5829425640404224395751953125" lon="-2.53180355764925479888916015625">
        <ele>997.4000244140625</ele>
        <time>2019-10-28T07:28:30.000Z</time>
      </trkpt>
      <trkpt lat="37.5828862376511096954345703125" lon="-2.53203405998647212982177734375">
        <ele>997.5999755859375</ele>
        <time>2019-10-28T07:28:34.000Z</time>
      </trkpt>
      <trkpt lat="37.58280853740870952606201171875" lon="-2.5322804041206836700439453125">
        <ele>998</ele>
        <time>2019-10-28T07:28:38.000Z</time>
      </trkpt>
      <trkpt lat="37.58273745886981487274169921875" lon="-2.532542757689952850341796875">
        <ele>997.79998779296875</ele>
        <time>2019-10-28T07:28:42.000Z</time>
      </trkpt>
      <trkpt lat="37.5826669670641422271728515625" lon="-2.5328027643263339996337890625">
        <ele>997</ele>
        <time>2019-10-28T07:28:46.000Z</time>
      </trkpt>
      <trkpt lat="37.58259345777332782745361328125" lon="-2.533066459000110626220703125">
        <ele>996.79998779296875</ele>
        <time>2019-10-28T07:28:50.000Z</time>
      </trkpt>
      <trkpt lat="37.5825197808444499969482421875" lon="-2.5333247892558574676513671875">
        <ele>996</ele>
        <time>2019-10-28T07:28:54.000Z</time>
      </trkpt>
      <trkpt lat="37.582460604608058929443359375" lon="-2.53358311951160430908203125">
        <ele>994.20001220703125</ele>
        <time>2019-10-28T07:28:58.000Z</time>
      </trkpt>
      <trkpt lat="37.58241894654929637908935546875" lon="-2.53384337760508060455322265625">
        <ele>994</ele>
        <time>2019-10-28T07:29:02.000Z</time>
      </trkpt>
      <trkpt lat="37.58240997791290283203125" lon="-2.5341100059449672698974609375">
        <ele>994</ele>
        <time>2019-10-28T07:29:06.000Z</time>
      </trkpt>
      <trkpt lat="37.58241894654929637908935546875" lon="-2.53437680192291736602783203125">
        <ele>994</ele>
        <time>2019-10-28T07:29:10.000Z</time>
      </trkpt>
      <trkpt lat="37.5824396498501300811767578125" lon="-2.53463412635028362274169921875">
        <ele>994.20001220703125</ele>
        <time>2019-10-28T07:29:14.000Z</time>
      </trkpt>
      <trkpt lat="37.58245289325714111328125" lon="-2.5348737649619579315185546875">
        <ele>994</ele>
        <time>2019-10-28T07:29:18.000Z</time>
      </trkpt>
      <trkpt lat="37.58246890269219875335693359375" lon="-2.53504064865410327911376953125">
        <ele>994.20001220703125</ele>
        <time>2019-10-28T07:29:21.000Z</time>
      </trkpt>
      <trkpt lat="37.58247527293860912322998046875" lon="-2.535309456288814544677734375">
        <ele>994.20001220703125</ele>
        <time>2019-10-28T07:29:26.000Z</time>
      </trkpt>
      <trkpt lat="37.58247644640505313873291015625" lon="-2.53554339520633220672607421875">
        <ele>994.20001220703125</ele>
        <time>2019-10-28T07:29:30.000Z</time>
      </trkpt>
      <trkpt lat="37.5824701599776744842529296875" lon="-2.535782866179943084716796875">
        <ele>994.20001220703125</ele>
        <time>2019-10-28T07:29:34.000Z</time>
      </trkpt>
      <trkpt lat="37.5824520550668239593505859375" lon="-2.536030299961566925048828125">
        <ele>993.79998779296875</ele>
        <time>2019-10-28T07:29:38.000Z</time>
      </trkpt>
      <trkpt lat="37.58241408504545688629150390625" lon="-2.5362819246947765350341796875">
        <ele>993</ele>
        <time>2019-10-28T07:29:42.000Z</time>
      </trkpt>
      <trkpt lat="37.5823849998414516448974609375" lon="-2.53654302097856998443603515625">
        <ele>992</ele>
        <time>2019-10-28T07:29:46.000Z</time>
      </trkpt>
      <trkpt lat="37.582361698150634765625" lon="-2.53680252470076084136962890625">
        <ele>991</ele>
        <time>2019-10-28T07:29:50.000Z</time>
      </trkpt>
      <trkpt lat="37.58232875727117061614990234375" lon="-2.5369772873818874359130859375">
        <ele>990.5999755859375</ele>
        <time>2019-10-28T07:29:53.000Z</time>
      </trkpt>
      <trkpt lat="37.58224879391491413116455078125" lon="-2.537179291248321533203125">
        <ele>989.20001220703125</ele>
        <time>2019-10-28T07:29:57.000Z</time>
      </trkpt>
      <trkpt lat="37.58217553608119487762451171875" lon="-2.537392862141132354736328125">
        <ele>988.20001220703125</ele>
        <time>2019-10-28T07:30:01.000Z</time>
      </trkpt>
      <trkpt lat="37.58211870677769184112548828125" lon="-2.53762923181056976318359375">
        <ele>987.5999755859375</ele>
        <time>2019-10-28T07:30:05.000Z</time>
      </trkpt>
      <trkpt lat="37.58207730017602443695068359375" lon="-2.5378645956516265869140625">
        <ele>987.20001220703125</ele>
        <time>2019-10-28T07:30:09.000Z</time>
      </trkpt>
      <trkpt lat="37.582029439508914947509765625" lon="-2.53809702582657337188720703125">
        <ele>986.79998779296875</ele>
        <time>2019-10-28T07:30:13.000Z</time>
      </trkpt>
      <trkpt lat="37.58200303651392459869384765625" lon="-2.538334317505359649658203125">
        <ele>988.20001220703125</ele>
        <time>2019-10-28T07:30:17.000Z</time>
      </trkpt>
      <trkpt lat="37.58198996074497699737548828125" lon="-2.5385726988315582275390625">
        <ele>989</ele>
        <time>2019-10-28T07:30:21.000Z</time>
      </trkpt>
      <trkpt lat="37.58199113421142101287841796875" lon="-2.53881216980516910552978515625">
        <ele>989</ele>
        <time>2019-10-28T07:30:25.000Z</time>
      </trkpt>
      <trkpt lat="37.5819960795342922210693359375" lon="-2.53898668102920055389404296875">
        <ele>989.4000244140625</ele>
        <time>2019-10-28T07:30:28.000Z</time>
      </trkpt>
      <trkpt lat="37.58200337179005146026611328125" lon="-2.5390965677797794342041015625">
        <ele>989.79998779296875</ele>
        <time>2019-10-28T07:30:30.000Z</time>
      </trkpt>
      <trkpt lat="37.582020722329616546630859375" lon="-2.53937241621315479278564453125">
        <ele>989.20001220703125</ele>
        <time>2019-10-28T07:30:35.000Z</time>
      </trkpt>
      <trkpt lat="37.58204075507819652557373046875" lon="-2.53963007591664791107177734375">
        <ele>988.4000244140625</ele>
        <time>2019-10-28T07:30:40.000Z</time>
      </trkpt>
      <trkpt lat="37.582046203315258026123046875" lon="-2.53986510448157787322998046875">
        <ele>987</ele>
        <time>2019-10-28T07:30:45.000Z</time>
      </trkpt>
      <trkpt lat="37.58204913698136806488037109375" lon="-2.54010247997939586639404296875">
        <ele>986</ele>
        <time>2019-10-28T07:30:50.000Z</time>
      </trkpt>
      <trkpt lat="37.5820492208003997802734375" lon="-2.5403858721256256103515625">
        <ele>986</ele>
        <time>2019-10-28T07:30:55.000Z</time>
      </trkpt>
      <trkpt lat="37.58204963989555835723876953125" lon="-2.5406328029930591583251953125">
        <ele>986.4000244140625</ele>
        <time>2019-10-28T07:30:59.000Z</time>
      </trkpt>
      <trkpt lat="37.58204947225749492645263671875" lon="-2.5408718548715114593505859375">
        <ele>987.79998779296875</ele>
        <time>2019-10-28T07:31:03.000Z</time>
      </trkpt>
      <trkpt lat="37.58204528130590915679931640625" lon="-2.54110311158001422882080078125">
        <ele>987.79998779296875</ele>
        <time>2019-10-28T07:31:07.000Z</time>
      </trkpt>
      <trkpt lat="37.5820430181920528411865234375" lon="-2.5413781218230724334716796875">
        <ele>987</ele>
        <time>2019-10-28T07:31:12.000Z</time>
      </trkpt>
      <trkpt lat="37.5820426829159259796142578125" lon="-2.54148432053625583648681640625">
        <ele>986.5999755859375</ele>
        <time>2019-10-28T07:31:14.000Z</time>
      </trkpt>
      <trkpt lat="37.58205391466617584228515625" lon="-2.54175505600869655609130859375">
        <ele>986</ele>
        <time>2019-10-28T07:31:19.000Z</time>
      </trkpt>
      <trkpt lat="37.58209020830690860748291015625" lon="-2.54200994968414306640625">
        <ele>985.79998779296875</ele>
        <time>2019-10-28T07:31:24.000Z</time>
      </trkpt>
      <trkpt lat="37.5821204669773578643798828125" lon="-2.5421039946377277374267578125">
        <ele>985.5999755859375</ele>
        <time>2019-10-28T07:31:26.000Z</time>
      </trkpt>
      <trkpt lat="37.582227252423763275146484375" lon="-2.54232821054756641387939453125">
        <ele>985.79998779296875</ele>
        <time>2019-10-28T07:31:31.000Z</time>
      </trkpt>
      <trkpt lat="37.5823296792805194854736328125" lon="-2.5425395183265209197998046875">
        <ele>986.5999755859375</ele>
        <time>2019-10-28T07:31:36.000Z</time>
      </trkpt>
      <trkpt lat="37.582428753376007080078125" lon="-2.542759291827678680419921875">
        <ele>987.79998779296875</ele>
        <time>2019-10-28T07:31:41.000Z</time>
      </trkpt>
      <trkpt lat="37.58250997401773929595947265625" lon="-2.5429384969174861907958984375">
        <ele>988.4000244140625</ele>
        <time>2019-10-28T07:31:45.000Z</time>
      </trkpt>
      <trkpt lat="37.582620196044445037841796875" lon="-2.54316304810345172882080078125">
        <ele>987.5999755859375</ele>
        <time>2019-10-28T07:31:50.000Z</time>
      </trkpt>
      <trkpt lat="37.5827098824083805084228515625" lon="-2.5433850847184658050537109375">
        <ele>986.5999755859375</ele>
        <time>2019-10-28T07:31:54.000Z</time>
      </trkpt>
      <trkpt lat="37.58282312192022800445556640625" lon="-2.54362455569207668304443359375">
        <ele>985.79998779296875</ele>
        <time>2019-10-28T07:31:58.000Z</time>
      </trkpt>
      <trkpt lat="37.58295052684843540191650390625" lon="-2.543857656419277191162109375">
        <ele>985.4000244140625</ele>
        <time>2019-10-28T07:32:02.000Z</time>
      </trkpt>
      <trkpt lat="37.583091259002685546875" lon="-2.5440757535398006439208984375">
        <ele>985.5999755859375</ele>
        <time>2019-10-28T07:32:06.000Z</time>
      </trkpt>
      <trkpt lat="37.5832181610167026519775390625" lon="-2.54431790672242641448974609375">
        <ele>984.5999755859375</ele>
        <time>2019-10-28T07:32:10.000Z</time>
      </trkpt>
      <trkpt lat="37.5832389481365680694580078125" lon="-2.5443818606436252593994140625">
        <ele>984.79998779296875</ele>
        <time>2019-10-28T07:32:11.000Z</time>
      </trkpt>
      <trkpt lat="37.58329636417329311370849609375" lon="-2.54463574849069118499755859375">
        <ele>984</ele>
        <time>2019-10-28T07:32:15.000Z</time>
      </trkpt>
      <trkpt lat="37.583304159343242645263671875" lon="-2.54476147703826427459716796875">
        <ele>983</ele>
        <time>2019-10-28T07:32:17.000Z</time>
      </trkpt>
      <trkpt lat="37.58325663395226001739501953125" lon="-2.54498996771872043609619140625">
        <ele>981.5999755859375</ele>
        <time>2019-10-28T07:32:21.000Z</time>
      </trkpt>
      <trkpt lat="37.58316694758832454681396484375" lon="-2.54520253278315067291259765625">
        <ele>980.4000244140625</ele>
        <time>2019-10-28T07:32:25.000Z</time>
      </trkpt>
      <trkpt lat="37.58308916352689266204833984375" lon="-2.54541878588497638702392578125">
        <ele>979.4000244140625</ele>
        <time>2019-10-28T07:32:29.000Z</time>
      </trkpt>
      <trkpt lat="37.58305597119033336639404296875" lon="-2.545625232160091400146484375">
        <ele>979</ele>
        <time>2019-10-28T07:32:33.000Z</time>
      </trkpt>
      <trkpt lat="37.58307307027280330657958984375" lon="-2.5457605160772800445556640625">
        <ele>979</ele>
        <time>2019-10-28T07:32:37.000Z</time>
      </trkpt>
      <trkpt lat="37.5831266306340694427490234375" lon="-2.5459241308271884918212890625">
        <ele>978.79998779296875</ele>
        <time>2019-10-28T07:32:43.000Z</time>
      </trkpt>
      <trkpt lat="37.58314423263072967529296875" lon="-2.54601591266691684722900390625">
        <ele>978.4000244140625</ele>
        <time>2019-10-28T07:32:46.000Z</time>
      </trkpt>
      <trkpt lat="37.583176083862781524658203125" lon="-2.54612873308360576629638671875">
        <ele>978</ele>
        <time>2019-10-28T07:32:50.000Z</time>
      </trkpt>
      <trkpt lat="37.58318035863339900970458984375" lon="-2.5461397133767604827880859375">
        <ele>978</ele>
        <time>2019-10-28T07:32:51.000Z</time>
      </trkpt>
      <trkpt lat="37.58334514684975147247314453125" lon="-2.54603661596775054931640625">
        <ele>978.4000244140625</ele>
        <time>2019-10-28T07:33:09.000Z</time>
      </trkpt>
      <trkpt lat="37.58337582461535930633544921875" lon="-2.54603686742484569549560546875">
        <ele>978.4000244140625</ele>
        <time>2019-10-28T07:33:10.000Z</time>
      </trkpt>
      <trkpt lat="37.583484537899494171142578125" lon="-2.5461246259510517120361328125">
        <ele>978.4000244140625</ele>
        <time>2019-10-28T07:33:14.000Z</time>
      </trkpt>
      <trkpt lat="37.5836469791829586029052734375" lon="-2.5462791882455348968505859375">
        <ele>977.79998779296875</ele>
        <time>2019-10-28T07:33:20.000Z</time>
      </trkpt>
      <trkpt lat="37.583807073533535003662109375" lon="-2.54642377607524394989013671875">
        <ele>976.20001220703125</ele>
        <time>2019-10-28T07:33:26.000Z</time>
      </trkpt>
      <trkpt lat="37.58397747762501239776611328125" lon="-2.546570040285587310791015625">
        <ele>975</ele>
        <time>2019-10-28T07:33:32.000Z</time>
      </trkpt>
      <trkpt lat="37.5841520726680755615234375" lon="-2.54672066308557987213134765625">
        <ele>973.79998779296875</ele>
        <time>2019-10-28T07:33:38.000Z</time>
      </trkpt>
      <trkpt lat="37.584328763186931610107421875" lon="-2.5468753091990947723388671875">
        <ele>974.20001220703125</ele>
        <time>2019-10-28T07:33:44.000Z</time>
      </trkpt>
      <trkpt lat="37.58435918949544429779052734375" lon="-2.5469031371176242828369140625">
        <ele>974.4000244140625</ele>
        <time>2019-10-28T07:33:45.000Z</time>
      </trkpt>
      <trkpt lat="37.5845113210380077362060546875" lon="-2.54703582264482975006103515625">
        <ele>975.4000244140625</ele>
        <time>2019-10-28T07:33:50.000Z</time>
      </trkpt>
      <trkpt lat="37.58465607650578022003173828125" lon="-2.54717119038105010986328125">
        <ele>976.4000244140625</ele>
        <time>2019-10-28T07:33:55.000Z</time>
      </trkpt>
      <trkpt lat="37.5847872532904148101806640625" lon="-2.5473453663289546966552734375">
        <ele>976.4000244140625</ele>
        <time>2019-10-28T07:34:00.000Z</time>
      </trkpt>
      <trkpt lat="37.58490200154483318328857421875" lon="-2.54755700938403606414794921875">
        <ele>974.79998779296875</ele>
        <time>2019-10-28T07:34:04.000Z</time>
      </trkpt>
      <trkpt lat="37.58498112671077251434326171875" lon="-2.547761611640453338623046875">
        <ele>973.4000244140625</ele>
        <time>2019-10-28T07:34:07.000Z</time>
      </trkpt>
      <trkpt lat="37.5850331783294677734375" lon="-2.54799152724444866180419921875">
        <ele>973</ele>
        <time>2019-10-28T07:34:10.000Z</time>
      </trkpt>
      <trkpt lat="37.585037536919116973876953125" lon="-2.54807299934327602386474609375">
        <ele>972.79998779296875</ele>
        <time>2019-10-28T07:34:11.000Z</time>
      </trkpt>
      <trkpt lat="37.5850296579301357269287109375" lon="-2.5483397953212261199951171875">
        <ele>972</ele>
        <time>2019-10-28T07:34:14.000Z</time>
      </trkpt>
      <trkpt lat="37.58499587886035442352294921875" lon="-2.5486334972083568572998046875">
        <ele>972.20001220703125</ele>
        <time>2019-10-28T07:34:17.000Z</time>
      </trkpt>
      <trkpt lat="37.584930248558521270751953125" lon="-2.54892661236226558685302734375">
        <ele>971.5999755859375</ele>
        <time>2019-10-28T07:34:20.000Z</time>
      </trkpt>
      <trkpt lat="37.5848660431802272796630859375" lon="-2.549214027822017669677734375">
        <ele>971.5999755859375</ele>
        <time>2019-10-28T07:34:23.000Z</time>
      </trkpt>
      <trkpt lat="37.58480544202029705047607421875" lon="-2.54950127564370632171630859375">
        <ele>971.5999755859375</ele>
        <time>2019-10-28T07:34:26.000Z</time>
      </trkpt>
      <trkpt lat="37.58475347422063350677490234375" lon="-2.549790702760219573974609375">
        <ele>970.79998779296875</ele>
        <time>2019-10-28T07:34:29.000Z</time>
      </trkpt>
      <trkpt lat="37.5847118161618709564208984375" lon="-2.55007979460060596466064453125">
        <ele>970.20001220703125</ele>
        <time>2019-10-28T07:34:32.000Z</time>
      </trkpt>
      <trkpt lat="37.58468004874885082244873046875" lon="-2.5503665395081043243408203125">
        <ele>970</ele>
        <time>2019-10-28T07:34:35.000Z</time>
      </trkpt>
      <trkpt lat="37.58465859107673168182373046875" lon="-2.5506481714546680450439453125">
        <ele>969.4000244140625</ele>
        <time>2019-10-28T07:34:38.000Z</time>
      </trkpt>
      <trkpt lat="37.584660686552524566650390625" lon="-2.55073056556284427642822265625">
        <ele>969</ele>
        <time>2019-10-28T07:34:39.000Z</time>
      </trkpt>
      <trkpt lat="37.5846992433071136474609375" lon="-2.5509606488049030303955078125">
        <ele>967.79998779296875</ele>
        <time>2019-10-28T07:34:42.000Z</time>
      </trkpt>
      <trkpt lat="37.58474241010844707489013671875" lon="-2.5511906482279300689697265625">
        <ele>966.79998779296875</ele>
        <time>2019-10-28T07:34:45.000Z</time>
      </trkpt>
      <trkpt lat="37.58478549309074878692626953125" lon="-2.55143766291439533233642578125">
        <ele>965.4000244140625</ele>
        <time>2019-10-28T07:34:48.000Z</time>
      </trkpt>
      <trkpt lat="37.5848298333585262298583984375" lon="-2.55169884301722049713134765625">
        <ele>963.5999755859375</ele>
        <time>2019-10-28T07:34:51.000Z</time>
      </trkpt>
      <trkpt lat="37.584885321557521820068359375" lon="-2.55197142250835895538330078125">
        <ele>961.4000244140625</ele>
        <time>2019-10-28T07:34:54.000Z</time>
      </trkpt>
      <trkpt lat="37.5849391333758831024169921875" lon="-2.5522613525390625">
        <ele>959.5999755859375</ele>
        <time>2019-10-28T07:34:57.000Z</time>
      </trkpt>
      <trkpt lat="37.58499135263264179229736328125" lon="-2.5525528751313686370849609375">
        <ele>958.4000244140625</ele>
        <time>2019-10-28T07:35:00.000Z</time>
      </trkpt>
      <trkpt lat="37.58500459603965282440185546875" lon="-2.552742473781108856201171875">
        <ele>958.20001220703125</ele>
        <time>2019-10-28T07:35:02.000Z</time>
      </trkpt>
      <trkpt lat="37.5849669612944126129150390625" lon="-2.552998624742031097412109375">
        <ele>959.20001220703125</ele>
        <time>2019-10-28T07:35:05.000Z</time>
      </trkpt>
      <trkpt lat="37.58494189940392971038818359375" lon="-2.5530738942325115203857421875">
        <ele>959.5999755859375</ele>
        <time>2019-10-28T07:35:06.000Z</time>
      </trkpt>
      <trkpt lat="37.58489529602229595184326171875" lon="-2.5532143749296665191650390625">
        <ele>960</ele>
        <time>2019-10-28T07:35:08.000Z</time>
      </trkpt>
      <trkpt lat="37.5848807953298091888427734375" lon="-2.55344311706721782684326171875">
        <ele>960.4000244140625</ele>
        <time>2019-10-28T07:35:11.000Z</time>
      </trkpt>
      <trkpt lat="37.58489915169775485992431640625" lon="-2.55359868519008159637451171875">
        <ele>960.79998779296875</ele>
        <time>2019-10-28T07:35:13.000Z</time>
      </trkpt>
      <trkpt lat="37.58494106121361255645751953125" lon="-2.5538249127566814422607421875">
        <ele>961</ele>
        <time>2019-10-28T07:35:16.000Z</time>
      </trkpt>
      <trkpt lat="37.58498984389007091522216796875" lon="-2.554047368466854095458984375">
        <ele>960.79998779296875</ele>
        <time>2019-10-28T07:35:19.000Z</time>
      </trkpt>
      <trkpt lat="37.5850331783294677734375" lon="-2.55427208729088306427001953125">
        <ele>960</ele>
        <time>2019-10-28T07:35:22.000Z</time>
      </trkpt>
      <trkpt lat="37.58507299236953258514404296875" lon="-2.55449554882943630218505859375">
        <ele>959.4000244140625</ele>
        <time>2019-10-28T07:35:25.000Z</time>
      </trkpt>
      <trkpt lat="37.58511775173246860504150390625" lon="-2.55472160875797271728515625">
        <ele>957.79998779296875</ele>
        <time>2019-10-28T07:35:28.000Z</time>
      </trkpt>
      <trkpt lat="37.58516636677086353302001953125" lon="-2.55495303310453891754150390625">
        <ele>956</ele>
        <time>2019-10-28T07:35:31.000Z</time>
      </trkpt>
      <trkpt lat="37.5852224417030811309814453125" lon="-2.555190660059452056884765625">
        <ele>955</ele>
        <time>2019-10-28T07:35:34.000Z</time>
      </trkpt>
      <trkpt lat="37.58529360406100749969482421875" lon="-2.5554278679192066192626953125">
        <ele>955</ele>
        <time>2019-10-28T07:35:37.000Z</time>
      </trkpt>
      <trkpt lat="37.58538144640624523162841796875" lon="-2.5556565262377262115478515625">
        <ele>954.79998779296875</ele>
        <time>2019-10-28T07:35:40.000Z</time>
      </trkpt>
      <trkpt lat="37.5854681991040706634521484375" lon="-2.555890046060085296630859375">
        <ele>955</ele>
        <time>2019-10-28T07:35:43.000Z</time>
      </trkpt>
      <trkpt lat="37.5855570472776889801025390625" lon="-2.5561342947185039520263671875">
        <ele>955.79998779296875</ele>
        <time>2019-10-28T07:35:46.000Z</time>
      </trkpt>
      <trkpt lat="37.58560691960155963897705078125" lon="-2.55630587227642536163330078125">
        <ele>955.79998779296875</ele>
        <time>2019-10-28T07:35:48.000Z</time>
      </trkpt>
      <trkpt lat="37.5856257788836956024169921875" lon="-2.55657845176756381988525390625">
        <ele>954.4000244140625</ele>
        <time>2019-10-28T07:35:51.000Z</time>
      </trkpt>
      <trkpt lat="37.5855808518826961517333984375" lon="-2.55685438401997089385986328125">
        <ele>952.79998779296875</ele>
        <time>2019-10-28T07:35:54.000Z</time>
      </trkpt>
      <trkpt lat="37.58553097955882549285888671875" lon="-2.5571384467184543609619140625">
        <ele>951.5999755859375</ele>
        <time>2019-10-28T07:35:57.000Z</time>
      </trkpt>
      <trkpt lat="37.58551924489438533782958984375" lon="-2.557457797229290008544921875">
        <ele>951</ele>
        <time>2019-10-28T07:36:00.000Z</time>
      </trkpt>
      <trkpt lat="37.585518322885036468505859375" lon="-2.55757137201726436614990234375">
        <ele>950.79998779296875</ele>
        <time>2019-10-28T07:36:01.000Z</time>
      </trkpt>
      <trkpt lat="37.5855151377618312835693359375" lon="-2.5578006170690059661865234375">
        <ele>950</ele>
        <time>2019-10-28T07:36:03.000Z</time>
      </trkpt>
      <trkpt lat="37.58550667203962802886962890625" lon="-2.55791570059955120086669921875">
        <ele>949.79998779296875</ele>
        <time>2019-10-28T07:36:04.000Z</time>
      </trkpt>
      <trkpt lat="37.58547197096049785614013671875" lon="-2.558141089975833892822265625">
        <ele>949.5999755859375</ele>
        <time>2019-10-28T07:36:06.000Z</time>
      </trkpt>
      <trkpt lat="37.58539259433746337890625" lon="-2.558464296162128448486328125">
        <ele>948.5999755859375</ele>
        <time>2019-10-28T07:36:09.000Z</time>
      </trkpt>
      <trkpt lat="37.58529628627002239227294921875" lon="-2.5587724149227142333984375">
        <ele>948.5999755859375</ele>
        <time>2019-10-28T07:36:12.000Z</time>
      </trkpt>
      <trkpt lat="37.58520978502929210662841796875" lon="-2.5590776838362216949462890625">
        <ele>949</ele>
        <time>2019-10-28T07:36:15.000Z</time>
      </trkpt>
      <trkpt lat="37.58516184054315090179443359375" lon="-2.5593891553580760955810546875">
        <ele>947.79998779296875</ele>
        <time>2019-10-28T07:36:18.000Z</time>
      </trkpt>
      <trkpt lat="37.58513820357620716094970703125" lon="-2.5596962682902812957763671875">
        <ele>946.4000244140625</ele>
        <time>2019-10-28T07:36:21.000Z</time>
      </trkpt>
      <trkpt lat="37.58515547029674053192138671875" lon="-2.55999407730996608734130859375">
        <ele>945</ele>
        <time>2019-10-28T07:36:24.000Z</time>
      </trkpt>
      <trkpt lat="37.58518648333847522735595703125" lon="-2.5602823309600353240966796875">
        <ele>945</ele>
        <time>2019-10-28T07:36:27.000Z</time>
      </trkpt>
      <trkpt lat="37.5852147303521633148193359375" lon="-2.56056304089725017547607421875">
        <ele>944.4000244140625</ele>
        <time>2019-10-28T07:36:30.000Z</time>
      </trkpt>
      <trkpt lat="37.585232667624950408935546875" lon="-2.5608430802822113037109375">
        <ele>944</ele>
        <time>2019-10-28T07:36:33.000Z</time>
      </trkpt>
      <trkpt lat="37.58524733595550060272216796875" lon="-2.56112379021942615509033203125">
        <ele>944</ele>
        <time>2019-10-28T07:36:36.000Z</time>
      </trkpt>
      <trkpt lat="37.5852760858833789825439453125" lon="-2.56139804609119892120361328125">
        <ele>944</ele>
        <time>2019-10-28T07:36:39.000Z</time>
      </trkpt>
      <trkpt lat="37.5853350944817066192626953125" lon="-2.5616576336324214935302734375">
        <ele>944</ele>
        <time>2019-10-28T07:36:42.000Z</time>
      </trkpt>
      <trkpt lat="37.58540357463061809539794921875" lon="-2.5619074143469333648681640625">
        <ele>943.4000244140625</ele>
        <time>2019-10-28T07:36:45.000Z</time>
      </trkpt>
      <trkpt lat="37.5854502618312835693359375" lon="-2.56216314621269702911376953125">
        <ele>943.5999755859375</ele>
        <time>2019-10-28T07:36:48.000Z</time>
      </trkpt>
      <trkpt lat="37.5854806043207645416259765625" lon="-2.5624197162687778472900390625">
        <ele>944</ele>
        <time>2019-10-28T07:36:51.000Z</time>
      </trkpt>
      <trkpt lat="37.58552880026400089263916015625" lon="-2.5626564212143421173095703125">
        <ele>944.5999755859375</ele>
        <time>2019-10-28T07:36:54.000Z</time>
      </trkpt>
      <trkpt lat="37.58558646775782108306884765625" lon="-2.56287795491516590118408203125">
        <ele>944.5999755859375</ele>
        <time>2019-10-28T07:36:57.000Z</time>
      </trkpt>
      <trkpt lat="37.5856837816536426544189453125" lon="-2.56313326768577098846435546875">
        <ele>943.5999755859375</ele>
        <time>2019-10-28T07:37:01.000Z</time>
      </trkpt>
      <trkpt lat="37.58578059263527393341064453125" lon="-2.56336393766105175018310546875">
        <ele>942.5999755859375</ele>
        <time>2019-10-28T07:37:05.000Z</time>
      </trkpt>
      <trkpt lat="37.58587229065597057342529296875" lon="-2.56359645165503025054931640625">
        <ele>943</ele>
        <time>2019-10-28T07:37:09.000Z</time>
      </trkpt>
      <trkpt lat="37.58596859872341156005859375" lon="-2.5638412870466709136962890625">
        <ele>942.4000244140625</ele>
        <time>2019-10-28T07:37:13.000Z</time>
      </trkpt>
      <trkpt lat="37.5860515795648097991943359375" lon="-2.56411336362361907958984375">
        <ele>942.5999755859375</ele>
        <time>2019-10-28T07:37:17.000Z</time>
      </trkpt>
      <trkpt lat="37.586100362241268157958984375" lon="-2.56439960561692714691162109375">
        <ele>942.5999755859375</ele>
        <time>2019-10-28T07:37:21.000Z</time>
      </trkpt>
      <trkpt lat="37.58610270917415618896484375" lon="-2.56463211961090564727783203125">
        <ele>942.79998779296875</ele>
        <time>2019-10-28T07:37:24.000Z</time>
      </trkpt>
      <trkpt lat="37.5860851071774959564208984375" lon="-2.56487200967967510223388671875">
        <ele>942.79998779296875</ele>
        <time>2019-10-28T07:37:27.000Z</time>
      </trkpt>
      <trkpt lat="37.58606406860053539276123046875" lon="-2.5651153363287448883056640625">
        <ele>942.4000244140625</ele>
        <time>2019-10-28T07:37:30.000Z</time>
      </trkpt>
      <trkpt lat="37.586033307015895843505859375" lon="-2.56536335684359073638916015625">
        <ele>941.5999755859375</ele>
        <time>2019-10-28T07:37:33.000Z</time>
      </trkpt>
      <trkpt lat="37.5860120169818401336669921875" lon="-2.5656118802726268768310546875">
        <ele>941.5999755859375</ele>
        <time>2019-10-28T07:37:36.000Z</time>
      </trkpt>
      <trkpt lat="37.586017884314060211181640625" lon="-2.56584783084690570831298828125">
        <ele>941</ele>
        <time>2019-10-28T07:37:39.000Z</time>
      </trkpt>
      <trkpt lat="37.5860361568629741668701171875" lon="-2.5660735554993152618408203125">
        <ele>940.5999755859375</ele>
        <time>2019-10-28T07:37:42.000Z</time>
      </trkpt>
      <trkpt lat="37.58604696951806545257568359375" lon="-2.5663053989410400390625">
        <ele>940</ele>
        <time>2019-10-28T07:37:45.000Z</time>
      </trkpt>
      <trkpt lat="37.58600673638284206390380859375" lon="-2.566553838551044464111328125">
        <ele>939.4000244140625</ele>
        <time>2019-10-28T07:37:48.000Z</time>
      </trkpt>
      <trkpt lat="37.58598335087299346923828125" lon="-2.566638998687267303466796875">
        <ele>939.5999755859375</ele>
        <time>2019-10-28T07:37:49.000Z</time>
      </trkpt>
      <trkpt lat="37.58588737808167934417724609375" lon="-2.56689657457172870635986328125">
        <ele>939.79998779296875</ele>
        <time>2019-10-28T07:37:52.000Z</time>
      </trkpt>
      <trkpt lat="37.58578696288168430328369140625" lon="-2.56716194562613964080810546875">
        <ele>939</ele>
        <time>2019-10-28T07:37:55.000Z</time>
      </trkpt>
      <trkpt lat="37.58570917882025241851806640625" lon="-2.56743737496435642242431640625">
        <ele>937.79998779296875</ele>
        <time>2019-10-28T07:37:58.000Z</time>
      </trkpt>
      <trkpt lat="37.58566525764763355255126953125" lon="-2.5677167437970638275146484375">
        <ele>936.5999755859375</ele>
        <time>2019-10-28T07:38:01.000Z</time>
      </trkpt>
      <trkpt lat="37.58564245887100696563720703125" lon="-2.5679966993629932403564453125">
        <ele>935.5999755859375</ele>
        <time>2019-10-28T07:38:04.000Z</time>
      </trkpt>
      <trkpt lat="37.58563357405364513397216796875" lon="-2.5682709552347660064697265625">
        <ele>936</ele>
        <time>2019-10-28T07:38:07.000Z</time>
      </trkpt>
      <trkpt lat="37.58562183938920497894287109375" lon="-2.568447478115558624267578125">
        <ele>936</ele>
        <time>2019-10-28T07:38:09.000Z</time>
      </trkpt>
      <trkpt lat="37.58561060763895511627197265625" lon="-2.5685311295092105865478515625">
        <ele>936</ele>
        <time>2019-10-28T07:38:10.000Z</time>
      </trkpt>
      <trkpt lat="37.58556333370506763458251953125" lon="-2.5688117556273937225341796875">
        <ele>936</ele>
        <time>2019-10-28T07:38:14.000Z</time>
      </trkpt>
      <trkpt lat="37.585516981780529022216796875" lon="-2.5690394081175327301025390625">
        <ele>935.5999755859375</ele>
        <time>2019-10-28T07:38:18.000Z</time>
      </trkpt>
      <trkpt lat="37.58549711667001247406005859375" lon="-2.56927619688212871551513671875">
        <ele>935</ele>
        <time>2019-10-28T07:38:22.000Z</time>
      </trkpt>
      <trkpt lat="37.5855158083140850067138671875" lon="-2.569457329809665679931640625">
        <ele>935</ele>
        <time>2019-10-28T07:38:25.000Z</time>
      </trkpt>
      <trkpt lat="37.58557640947401523590087890625" lon="-2.5696744211018085479736328125">
        <ele>935.79998779296875</ele>
        <time>2019-10-28T07:38:29.000Z</time>
      </trkpt>
      <trkpt lat="37.58564312942326068878173828125" lon="-2.56992210634052753448486328125">
        <ele>936.79998779296875</ele>
        <time>2019-10-28T07:38:34.000Z</time>
      </trkpt>
      <trkpt lat="37.5856653414666652679443359375" lon="-2.57001162506639957427978515625">
        <ele>937.79998779296875</ele>
        <time>2019-10-28T07:38:36.000Z</time>
      </trkpt>
      <trkpt lat="37.58573164232075214385986328125" lon="-2.570261992514133453369140625">
        <ele>939.20001220703125</ele>
        <time>2019-10-28T07:38:42.000Z</time>
      </trkpt>
      <trkpt lat="37.5858068279922008514404296875" lon="-2.57050381042063236236572265625">
        <ele>940.79998779296875</ele>
        <time>2019-10-28T07:38:48.000Z</time>
      </trkpt>
      <trkpt lat="37.585875727236270904541015625" lon="-2.57072023116052150726318359375">
        <ele>941.4000244140625</ele>
        <time>2019-10-28T07:38:53.000Z</time>
      </trkpt>
      <trkpt lat="37.58593968115746974945068359375" lon="-2.5709491409361362457275390625">
        <ele>940.79998779296875</ele>
        <time>2019-10-28T07:38:58.000Z</time>
      </trkpt>
      <trkpt lat="37.5859828479588031768798828125" lon="-2.57119682617485523223876953125">
        <ele>939.5999755859375</ele>
        <time>2019-10-28T07:39:03.000Z</time>
      </trkpt>
      <trkpt lat="37.5860291160643100738525390625" lon="-2.57145188748836517333984375">
        <ele>938.5999755859375</ele>
        <time>2019-10-28T07:39:07.000Z</time>
      </trkpt>
      <trkpt lat="37.586101032793521881103515625" lon="-2.5717356987297534942626953125">
        <ele>935.20001220703125</ele>
        <time>2019-10-28T07:39:11.000Z</time>
      </trkpt>
      <trkpt lat="37.58614562451839447021484375" lon="-2.5719371996819972991943359375">
        <ele>934.20001220703125</ele>
        <time>2019-10-28T07:39:14.000Z</time>
      </trkpt>
      <trkpt lat="37.5861583650112152099609375" lon="-2.57220785133540630340576171875">
        <ele>932.4000244140625</ele>
        <time>2019-10-28T07:39:18.000Z</time>
      </trkpt>
      <trkpt lat="37.58606725372374057769775390625" lon="-2.57246618159115314483642578125">
        <ele>930.5999755859375</ele>
        <time>2019-10-28T07:39:22.000Z</time>
      </trkpt>
      <trkpt lat="37.5859275273978710174560546875" lon="-2.57265460677444934844970703125">
        <ele>929</ele>
        <time>2019-10-28T07:39:26.000Z</time>
      </trkpt>
      <trkpt lat="37.5858658365905284881591796875" lon="-2.5727264396846294403076171875">
        <ele>928.4000244140625</ele>
        <time>2019-10-28T07:39:28.000Z</time>
      </trkpt>
      <trkpt lat="37.58575343526899814605712890625" lon="-2.572929449379444122314453125">
        <ele>927.79998779296875</ele>
        <time>2019-10-28T07:39:32.000Z</time>
      </trkpt>
      <trkpt lat="37.58568386547267436981201171875" lon="-2.57314193062484264373779296875">
        <ele>927.4000244140625</ele>
        <time>2019-10-28T07:39:36.000Z</time>
      </trkpt>
      <trkpt lat="37.5856435485184192657470703125" lon="-2.57328911684453487396240234375">
        <ele>927.4000244140625</ele>
        <time>2019-10-28T07:39:40.000Z</time>
      </trkpt>
      <trkpt lat="37.5855972804129123687744140625" lon="-2.57345306687057018280029296875">
        <ele>927.4000244140625</ele>
        <time>2019-10-28T07:39:44.000Z</time>
      </trkpt>
      <trkpt lat="37.58554288186132907867431640625" lon="-2.57369010709226131439208984375">
        <ele>928</ele>
        <time>2019-10-28T07:39:50.000Z</time>
      </trkpt>
      <trkpt lat="37.58550968952476978302001953125" lon="-2.57393024861812591552734375">
        <ele>928.79998779296875</ele>
        <time>2019-10-28T07:39:55.000Z</time>
      </trkpt>
      <trkpt lat="37.58549409918487071990966796875" lon="-2.57414038293063640594482421875">
        <ele>928.20001220703125</ele>
        <time>2019-10-28T07:39:59.000Z</time>
      </trkpt>
      <trkpt lat="37.58547867648303508758544921875" lon="-2.5743694603443145751953125">
        <ele>927</ele>
        <time>2019-10-28T07:40:03.000Z</time>
      </trkpt>
      <trkpt lat="37.58546778000891208648681640625" lon="-2.5745640881359577178955078125">
        <ele>925.4000244140625</ele>
        <time>2019-10-28T07:40:06.000Z</time>
      </trkpt>
      <trkpt lat="37.585484124720096588134765625" lon="-2.57479836232960224151611328125">
        <ele>923</ele>
        <time>2019-10-28T07:40:10.000Z</time>
      </trkpt>
      <trkpt lat="37.5855282135307788848876953125" lon="-2.5750643201172351837158203125">
        <ele>920.79998779296875</ele>
        <time>2019-10-28T07:40:16.000Z</time>
      </trkpt>
      <trkpt lat="37.58554556407034397125244140625" lon="-2.5751729495823383331298828125">
        <ele>920.4000244140625</ele>
        <time>2019-10-28T07:40:18.000Z</time>
      </trkpt>
      <trkpt lat="37.58555126376450061798095703125" lon="-2.5753526575863361358642578125">
        <ele>919.79998779296875</ele>
        <time>2019-10-28T07:40:21.000Z</time>
      </trkpt>
      <trkpt lat="37.58555646054446697235107421875" lon="-2.57559983991086483001708984375">
        <ele>919</ele>
        <time>2019-10-28T07:40:25.000Z</time>
      </trkpt>
      <trkpt lat="37.58555511943995952606201171875" lon="-2.5757100619375705718994140625">
        <ele>918.5999755859375</ele>
        <time>2019-10-28T07:40:27.000Z</time>
      </trkpt>
      <trkpt lat="37.5854822807013988494873046875" lon="-2.57591642439365386962890625">
        <ele>918</ele>
        <time>2019-10-28T07:40:31.000Z</time>
      </trkpt>
      <trkpt lat="37.58542184717953205108642578125" lon="-2.57602027617394924163818359375">
        <ele>918</ele>
        <time>2019-10-28T07:40:34.000Z</time>
      </trkpt>
      <trkpt lat="37.58522403426468372344970703125" lon="-2.57602379657328128814697265625">
        <ele>916.5999755859375</ele>
        <time>2019-10-28T07:40:40.000Z</time>
      </trkpt>
      <trkpt lat="37.58506930433213710784912109375" lon="-2.57613862864673137664794921875">
        <ele>913.79998779296875</ele>
        <time>2019-10-28T07:40:45.000Z</time>
      </trkpt>
      <trkpt lat="37.58498347364366054534912109375" lon="-2.576291598379611968994140625">
        <ele>912</ele>
        <time>2019-10-28T07:40:49.000Z</time>
      </trkpt>
      <trkpt lat="37.58496670983731746673583984375" lon="-2.57632420398294925689697265625">
        <ele>911.5999755859375</ele>
        <time>2019-10-28T07:40:50.000Z</time>
      </trkpt>
      <trkpt lat="37.58491759188473224639892578125" lon="-2.576409615576267242431640625">
        <ele>910.4000244140625</ele>
        <time>2019-10-28T07:40:53.000Z</time>
      </trkpt>
      <trkpt lat="37.58489345200359821319580078125" lon="-2.576435096561908721923828125">
        <ele>909.79998779296875</ele>
        <time>2019-10-28T07:40:57.000Z</time>
      </trkpt>
      <trkpt lat="37.5849672965705394744873046875" lon="-2.5765304826200008392333984375">
        <ele>911.79998779296875</ele>
        <time>2019-10-28T07:42:20.000Z</time>
      </trkpt>
      <trkpt lat="37.58502169512212276458740234375" lon="-2.57655386812984943389892578125">
        <ele>913</ele>
        <time>2019-10-28T07:44:13.000Z</time>
      </trkpt>
      <trkpt lat="37.58502135984599590301513671875" lon="-2.576527297496795654296875">
        <ele>913</ele>
        <time>2019-10-28T07:44:28.000Z</time>
      </trkpt>
      <trkpt lat="37.58503946475684642791748046875" lon="-2.5765133835375308990478515625">
        <ele>913.20001220703125</ele>
        <time>2019-10-28T07:44:33.000Z</time>
      </trkpt>
      <trkpt lat="37.585084140300750732421875" lon="-2.5764483399689197540283203125">
        <ele>914</ele>
        <time>2019-10-28T07:45:40.000Z</time>
      </trkpt>
      <trkpt lat="37.58516661822795867919921875" lon="-2.5764372758567333221435546875">
        <ele>915.5999755859375</ele>
        <time>2019-10-28T07:47:18.000Z</time>
      </trkpt>
      <trkpt lat="37.58501448668539524078369140625" lon="-2.5764895789325237274169921875">
        <ele>912.79998779296875</ele>
        <time>2019-10-28T08:05:26.000Z</time>
      </trkpt>
      <trkpt lat="37.5849555619060993194580078125" lon="-2.5764966197311878204345703125">
        <ele>911.5999755859375</ele>
        <time>2019-10-28T08:05:35.000Z</time>
      </trkpt>
      <trkpt lat="37.58494642563164234161376953125" lon="-2.57650977931916713714599609375">
        <ele>911.4000244140625</ele>
        <time>2019-10-28T08:05:37.000Z</time>
      </trkpt>
      <trkpt lat="37.58491893298923969268798828125" lon="-2.576461918652057647705078125">
        <ele>910.5999755859375</ele>
        <time>2019-10-28T08:05:38.000Z</time>
      </trkpt>
      <trkpt lat="37.58499654941260814666748046875" lon="-2.57650927640497684478759765625">
        <ele>912.4000244140625</ele>
        <time>2019-10-28T08:06:10.000Z</time>
      </trkpt>
      <trkpt lat="37.58494273759424686431884765625" lon="-2.5766609050333499908447265625">
        <ele>911.20001220703125</ele>
        <time>2019-10-28T08:06:56.000Z</time>
      </trkpt>
      <trkpt lat="37.58499839343130588531494140625" lon="-2.5768845342099666595458984375">
        <ele>911.79998779296875</ele>
        <time>2019-10-28T08:07:02.000Z</time>
      </trkpt>
      <trkpt lat="37.5850303284823894500732421875" lon="-2.57713238708674907684326171875">
        <ele>911.4000244140625</ele>
        <time>2019-10-28T08:07:08.000Z</time>
      </trkpt>
      <trkpt lat="37.58511356078088283538818359375" lon="-2.5773529149591922760009765625">
        <ele>910.5999755859375</ele>
        <time>2019-10-28T08:07:14.000Z</time>
      </trkpt>
      <trkpt lat="37.585219256579875946044921875" lon="-2.57754477672278881072998046875">
        <ele>909.20001220703125</ele>
        <time>2019-10-28T08:07:19.000Z</time>
      </trkpt>
      <trkpt lat="37.58524431847035884857177734375" lon="-2.577579058706760406494140625">
        <ele>909</ele>
        <time>2019-10-28T08:07:20.000Z</time>
      </trkpt>
      <trkpt lat="37.5852951966226100921630859375" lon="-2.5778000056743621826171875">
        <ele>908</ele>
        <time>2019-10-28T08:07:24.000Z</time>
      </trkpt>
      <trkpt lat="37.58526124991476535797119140625" lon="-2.5780244730412960052490234375">
        <ele>906.5999755859375</ele>
        <time>2019-10-28T08:07:28.000Z</time>
      </trkpt>
      <trkpt lat="37.58518363349139690399169921875" lon="-2.57826863788068294525146484375">
        <ele>905.5999755859375</ele>
        <time>2019-10-28T08:07:33.000Z</time>
      </trkpt>
      <trkpt lat="37.5851305760443210601806640625" lon="-2.578515820205211639404296875">
        <ele>903.79998779296875</ele>
        <time>2019-10-28T08:07:38.000Z</time>
      </trkpt>
      <trkpt lat="37.585085816681385040283203125" lon="-2.57875244133174419403076171875">
        <ele>902.20001220703125</ele>
        <time>2019-10-28T08:07:42.000Z</time>
      </trkpt>
      <trkpt lat="37.58508439175784587860107421875" lon="-2.57903046905994415283203125">
        <ele>899.79998779296875</ele>
        <time>2019-10-28T08:07:46.000Z</time>
      </trkpt>
      <trkpt lat="37.585116326808929443359375" lon="-2.57925041019916534423828125">
        <ele>897.79998779296875</ele>
        <time>2019-10-28T08:07:49.000Z</time>
      </trkpt>
      <trkpt lat="37.58519151248037815093994140625" lon="-2.57951997220516204833984375">
        <ele>895.5999755859375</ele>
        <time>2019-10-28T08:07:53.000Z</time>
      </trkpt>
      <trkpt lat="37.58523099124431610107421875" lon="-2.57964394055306911468505859375">
        <ele>894.4000244140625</ele>
        <time>2019-10-28T08:07:55.000Z</time>
      </trkpt>
      <trkpt lat="37.58525420911610126495361328125" lon="-2.57988517172634601593017578125">
        <ele>892.79998779296875</ele>
        <time>2019-10-28T08:07:59.000Z</time>
      </trkpt>
      <trkpt lat="37.5851996429264545440673828125" lon="-2.58014434017241001129150390625">
        <ele>892</ele>
        <time>2019-10-28T08:08:03.000Z</time>
      </trkpt>
      <trkpt lat="37.585164606571197509765625" lon="-2.58041390217840671539306640625">
        <ele>890.5999755859375</ele>
        <time>2019-10-28T08:08:07.000Z</time>
      </trkpt>
      <trkpt lat="37.58513711392879486083984375" lon="-2.58064138703048229217529296875">
        <ele>889</ele>
        <time>2019-10-28T08:08:10.000Z</time>
      </trkpt>
      <trkpt lat="37.58511037565767765045166015625" lon="-2.58080801926553249359130859375">
        <ele>887.4000244140625</ele>
        <time>2019-10-28T08:08:13.000Z</time>
      </trkpt>
      <trkpt lat="37.5851101242005825042724609375" lon="-2.58088965900242328643798828125">
        <ele>886.79998779296875</ele>
        <time>2019-10-28T08:08:15.000Z</time>
      </trkpt>
      <trkpt lat="37.58521112613379955291748046875" lon="-2.58096911944448947906494140625">
        <ele>886.20001220703125</ele>
        <time>2019-10-28T08:08:19.000Z</time>
      </trkpt>
      <trkpt lat="37.5852365233004093170166015625" lon="-2.580986805260181427001953125">
        <ele>886</ele>
        <time>2019-10-28T08:08:20.000Z</time>
      </trkpt>
      <trkpt lat="37.5853122957050800323486328125" lon="-2.581105493009090423583984375">
        <ele>885.20001220703125</ele>
        <time>2019-10-28T08:08:24.000Z</time>
      </trkpt>
      <trkpt lat="37.58536082692444324493408203125" lon="-2.58121353574097156524658203125">
        <ele>884.79998779296875</ele>
        <time>2019-10-28T08:08:27.000Z</time>
      </trkpt>
      <trkpt lat="37.58537826128304004669189453125" lon="-2.58134731091558933258056640625">
        <ele>884</ele>
        <time>2019-10-28T08:08:31.000Z</time>
      </trkpt>
      <trkpt lat="37.58538429625332355499267578125" lon="-2.58137874305248260498046875">
        <ele>884</ele>
        <time>2019-10-28T08:08:32.000Z</time>
      </trkpt>
      <trkpt lat="37.58544330485165119171142578125" lon="-2.5816196389496326446533203125">
        <ele>883.79998779296875</ele>
        <time>2019-10-28T08:08:39.000Z</time>
      </trkpt>
      <trkpt lat="37.58554615080356597900390625" lon="-2.58183195255696773529052734375">
        <ele>884.20001220703125</ele>
        <time>2019-10-28T08:08:45.000Z</time>
      </trkpt>
      <trkpt lat="37.5855493359267711639404296875" lon="-2.581870593130588531494140625">
        <ele>884</ele>
        <time>2019-10-28T08:08:46.000Z</time>
      </trkpt>
      <trkpt lat="37.5854487530887126922607421875" lon="-2.58201065473258495330810546875">
        <ele>882.4000244140625</ele>
        <time>2019-10-28T08:08:50.000Z</time>
      </trkpt>
      <trkpt lat="37.5854034908115863800048828125" lon="-2.5820655561983585357666015625">
        <ele>881.79998779296875</ele>
        <time>2019-10-28T08:08:53.000Z</time>
      </trkpt>
      <trkpt lat="37.58525571785867214202880859375" lon="-2.5820809789001941680908203125">
        <ele>880.20001220703125</ele>
        <time>2019-10-28T08:09:02.000Z</time>
      </trkpt>
      <trkpt lat="37.58519033901393413543701171875" lon="-2.58208726532757282257080078125">
        <ele>879.79998779296875</ele>
        <time>2019-10-28T08:09:05.000Z</time>
      </trkpt>
      <trkpt lat="37.585035525262355804443359375" lon="-2.58223998360335826873779296875">
        <ele>878.20001220703125</ele>
        <time>2019-10-28T08:09:12.000Z</time>
      </trkpt>
      <trkpt lat="37.5849833898246288299560546875" lon="-2.58229044266045093536376953125">
        <ele>877.5999755859375</ele>
        <time>2019-10-28T08:09:14.000Z</time>
      </trkpt>
      <trkpt lat="37.584949024021625518798828125" lon="-2.58252731524407863616943359375">
        <ele>877.20001220703125</ele>
        <time>2019-10-28T08:09:19.000Z</time>
      </trkpt>
      <trkpt lat="37.584936283528804779052734375" lon="-2.58273283950984477996826171875">
        <ele>876.79998779296875</ele>
        <time>2019-10-28T08:09:26.000Z</time>
      </trkpt>
      <trkpt lat="37.5847486965358257293701171875" lon="-2.58270836435258388519287109375">
        <ele>874.4000244140625</ele>
        <time>2019-10-28T08:09:32.000Z</time>
      </trkpt>
      <trkpt lat="37.58466906845569610595703125" lon="-2.5826727412641048431396484375">
        <ele>873.4000244140625</ele>
        <time>2019-10-28T08:09:34.000Z</time>
      </trkpt>
      <trkpt lat="37.58448290638625621795654296875" lon="-2.58262705989181995391845703125">
        <ele>871.4000244140625</ele>
        <time>2019-10-28T08:09:38.000Z</time>
      </trkpt>
      <trkpt lat="37.58437410928308963775634765625" lon="-2.58263267576694488525390625">
        <ele>870.20001220703125</ele>
        <time>2019-10-28T08:09:40.000Z</time>
      </trkpt>
      <trkpt lat="37.58414980955421924591064453125" lon="-2.58272713981568813323974609375">
        <ele>867.79998779296875</ele>
        <time>2019-10-28T08:09:44.000Z</time>
      </trkpt>
      <trkpt lat="37.5839946605265140533447265625" lon="-2.5828759185969829559326171875">
        <ele>866.4000244140625</ele>
        <time>2019-10-28T08:09:47.000Z</time>
      </trkpt>
      <trkpt lat="37.583941854536533355712890625" lon="-2.58293853141367435455322265625">
        <ele>866</ele>
        <time>2019-10-28T08:09:48.000Z</time>
      </trkpt>
      <trkpt lat="37.58377731777727603912353515625" lon="-2.58313416503369808197021484375">
        <ele>864.20001220703125</ele>
        <time>2019-10-28T08:09:51.000Z</time>
      </trkpt>
      <trkpt lat="37.58359710685908794403076171875" lon="-2.5833442993462085723876953125">
        <ele>862</ele>
        <time>2019-10-28T08:09:54.000Z</time>
      </trkpt>
      <trkpt lat="37.58340951986610889434814453125" lon="-2.58356499485671520233154296875">
        <ele>861.20001220703125</ele>
        <time>2019-10-28T08:09:57.000Z</time>
      </trkpt>
      <trkpt lat="37.58321505971252918243408203125" lon="-2.5837893784046173095703125">
        <ele>860.4000244140625</ele>
        <time>2019-10-28T08:10:00.000Z</time>
      </trkpt>
      <trkpt lat="37.58303384296596050262451171875" lon="-2.5840047933161258697509765625">
        <ele>860.20001220703125</ele>
        <time>2019-10-28T08:10:03.000Z</time>
      </trkpt>
      <trkpt lat="37.582868970930576324462890625" lon="-2.58419933728873729705810546875">
        <ele>860.79998779296875</ele>
        <time>2019-10-28T08:10:06.000Z</time>
      </trkpt>
      <trkpt lat="37.58272304199635982513427734375" lon="-2.58439715020358562469482421875">
        <ele>861.5999755859375</ele>
        <time>2019-10-28T08:10:09.000Z</time>
      </trkpt>
      <trkpt lat="37.58259915746748447418212890625" lon="-2.58460803888738155364990234375">
        <ele>862.4000244140625</ele>
        <time>2019-10-28T08:10:12.000Z</time>
      </trkpt>
      <trkpt lat="37.58250963874161243438720703125" lon="-2.58483879268169403076171875">
        <ele>863.79998779296875</ele>
        <time>2019-10-28T08:10:15.000Z</time>
      </trkpt>
      <trkpt lat="37.58249002508819103240966796875" lon="-2.5849184207618236541748046875">
        <ele>864.79998779296875</ele>
        <time>2019-10-28T08:10:16.000Z</time>
      </trkpt>
      <trkpt lat="37.58244819939136505126953125" lon="-2.5851410441100597381591796875">
        <ele>866.4000244140625</ele>
        <time>2019-10-28T08:10:19.000Z</time>
      </trkpt>
      <trkpt lat="37.58240997791290283203125" lon="-2.5854040682315826416015625">
        <ele>867</ele>
        <time>2019-10-28T08:10:23.000Z</time>
      </trkpt>
      <trkpt lat="37.5823786295950412750244140625" lon="-2.58566902019083499908447265625">
        <ele>868</ele>
        <time>2019-10-28T08:10:27.000Z</time>
      </trkpt>
      <trkpt lat="37.582355998456478118896484375" lon="-2.585943527519702911376953125">
        <ele>867.4000244140625</ele>
        <time>2019-10-28T08:10:31.000Z</time>
      </trkpt>
      <trkpt lat="37.5823233090341091156005859375" lon="-2.586228512227535247802734375">
        <ele>866.20001220703125</ele>
        <time>2019-10-28T08:10:35.000Z</time>
      </trkpt>
      <trkpt lat="37.58229129016399383544921875" lon="-2.58652313612401485443115234375">
        <ele>864.79998779296875</ele>
        <time>2019-10-28T08:10:39.000Z</time>
      </trkpt>
      <trkpt lat="37.5822589360177516937255859375" lon="-2.586819939315319061279296875">
        <ele>863.79998779296875</ele>
        <time>2019-10-28T08:10:43.000Z</time>
      </trkpt>
      <trkpt lat="37.58223957382142543792724609375" lon="-2.58695949800312519073486328125">
        <ele>864</ele>
        <time>2019-10-28T08:10:45.000Z</time>
      </trkpt>
      <trkpt lat="37.58221794851124286651611328125" lon="-2.58724548853933811187744140625">
        <ele>862.4000244140625</ele>
        <time>2019-10-28T08:10:49.000Z</time>
      </trkpt>
      <trkpt lat="37.582190372049808502197265625" lon="-2.58751387707889080047607421875">
        <ele>861.5999755859375</ele>
        <time>2019-10-28T08:10:53.000Z</time>
      </trkpt>
      <trkpt lat="37.5821600295603275299072265625" lon="-2.58778125979006290435791015625">
        <ele>862</ele>
        <time>2019-10-28T08:10:57.000Z</time>
      </trkpt>
      <trkpt lat="37.5821322016417980194091796875" lon="-2.5880217365920543670654296875">
        <ele>863.4000244140625</ele>
        <time>2019-10-28T08:11:01.000Z</time>
      </trkpt>
      <trkpt lat="37.58210915140807628631591796875" lon="-2.588203959167003631591796875">
        <ele>864.4000244140625</ele>
        <time>2019-10-28T08:11:06.000Z</time>
      </trkpt>
      <trkpt lat="37.58209389634430408477783203125" lon="-2.58837687782943248748779296875">
        <ele>865.20001220703125</ele>
        <time>2019-10-28T08:11:35.000Z</time>
      </trkpt>
      <trkpt lat="37.58205450139939785003662109375" lon="-2.5886307656764984130859375">
        <ele>865.4000244140625</ele>
        <time>2019-10-28T08:11:41.000Z</time>
      </trkpt>
      <trkpt lat="37.58201762102544307708740234375" lon="-2.5888802111148834228515625">
        <ele>865.20001220703125</ele>
        <time>2019-10-28T08:11:46.000Z</time>
      </trkpt>
      <trkpt lat="37.5819628871977329254150390625" lon="-2.5891348533332347869873046875">
        <ele>865.20001220703125</ele>
        <time>2019-10-28T08:11:51.000Z</time>
      </trkpt>
      <trkpt lat="37.58189843036234378814697265625" lon="-2.5893469154834747314453125">
        <ele>864.4000244140625</ele>
        <time>2019-10-28T08:11:55.000Z</time>
      </trkpt>
      <trkpt lat="37.5817885436117649078369140625" lon="-2.58955654688179492950439453125">
        <ele>863.5999755859375</ele>
        <time>2019-10-28T08:11:59.000Z</time>
      </trkpt>
      <trkpt lat="37.58164663799107074737548828125" lon="-2.58973156102001667022705078125">
        <ele>863.20001220703125</ele>
        <time>2019-10-28T08:12:03.000Z</time>
      </trkpt>
      <trkpt lat="37.5814623199403285980224609375" lon="-2.58985678665339946746826171875">
        <ele>863</ele>
        <time>2019-10-28T08:12:07.000Z</time>
      </trkpt>
      <trkpt lat="37.58125687949359416961669921875" lon="-2.5899230875074863433837890625">
        <ele>862.79998779296875</ele>
        <time>2019-10-28T08:12:11.000Z</time>
      </trkpt>
      <trkpt lat="37.58103962056338787078857421875" lon="-2.58996591903269290924072265625">
        <ele>862</ele>
        <time>2019-10-28T08:12:15.000Z</time>
      </trkpt>
      <trkpt lat="37.580809034407138824462890625" lon="-2.5900082476437091827392578125">
        <ele>861.20001220703125</ele>
        <time>2019-10-28T08:12:19.000Z</time>
      </trkpt>
      <trkpt lat="37.580581046640872955322265625" lon="-2.5900585390627384185791015625">
        <ele>861</ele>
        <time>2019-10-28T08:12:23.000Z</time>
      </trkpt>
      <trkpt lat="37.580357752740383148193359375" lon="-2.5901038013398647308349609375">
        <ele>862.4000244140625</ele>
        <time>2019-10-28T08:12:27.000Z</time>
      </trkpt>
      <trkpt lat="37.58015155792236328125" lon="-2.59014596231281757354736328125">
        <ele>863.5999755859375</ele>
        <time>2019-10-28T08:12:31.000Z</time>
      </trkpt>
      <trkpt lat="37.57993924431502819061279296875" lon="-2.59019658900797367095947265625">
        <ele>865</ele>
        <time>2019-10-28T08:12:36.000Z</time>
      </trkpt>
      <trkpt lat="37.57975551299750804901123046875" lon="-2.59024855680763721466064453125">
        <ele>866</ele>
        <time>2019-10-28T08:12:41.000Z</time>
      </trkpt>
      <trkpt lat="37.5795690156519412994384765625" lon="-2.5903016142547130584716796875">
        <ele>866.5999755859375</ele>
        <time>2019-10-28T08:12:47.000Z</time>
      </trkpt>
      <trkpt lat="37.57954043336212635040283203125" lon="-2.59031477384269237518310546875">
        <ele>866.79998779296875</ele>
        <time>2019-10-28T08:12:48.000Z</time>
      </trkpt>
      <trkpt lat="37.5793527625501155853271484375" lon="-2.59040295146405696868896484375">
        <ele>867.79998779296875</ele>
        <time>2019-10-28T08:12:55.000Z</time>
      </trkpt>
      <trkpt lat="37.5791807658970355987548828125" lon="-2.5905192084610462188720703125">
        <ele>869.20001220703125</ele>
        <time>2019-10-28T08:13:02.000Z</time>
      </trkpt>
      <trkpt lat="37.57902762852609157562255859375" lon="-2.5906576775014400482177734375">
        <ele>869.79998779296875</ele>
        <time>2019-10-28T08:13:09.000Z</time>
      </trkpt>
      <trkpt lat="37.57888622581958770751953125" lon="-2.5908199511468410491943359375">
        <ele>870.5999755859375</ele>
        <time>2019-10-28T08:13:16.000Z</time>
      </trkpt>
      <trkpt lat="37.57875773124396800994873046875" lon="-2.590990103781223297119140625">
        <ele>873.4000244140625</ele>
        <time>2019-10-28T08:13:23.000Z</time>
      </trkpt>
      <trkpt lat="37.57863502018153667449951171875" lon="-2.59117023088037967681884765625">
        <ele>876.20001220703125</ele>
        <time>2019-10-28T08:13:30.000Z</time>
      </trkpt>
      <trkpt lat="37.57851851172745227813720703125" lon="-2.59135463275015354156494140625">
        <ele>879.20001220703125</ele>
        <time>2019-10-28T08:13:37.000Z</time>
      </trkpt>
      <trkpt lat="37.57840133272111415863037109375" lon="-2.5915371067821979522705078125">
        <ele>882.20001220703125</ele>
        <time>2019-10-28T08:13:44.000Z</time>
      </trkpt>
      <trkpt lat="37.57827937602996826171875" lon="-2.59171706624329090118408203125">
        <ele>884.5999755859375</ele>
        <time>2019-10-28T08:13:51.000Z</time>
      </trkpt>
      <trkpt lat="37.57815021090209484100341796875" lon="-2.59188520722091197967529296875">
        <ele>886.20001220703125</ele>
        <time>2019-10-28T08:13:58.000Z</time>
      </trkpt>
      <trkpt lat="37.57801090367138385772705078125" lon="-2.59203490801155567169189453125">
        <ele>887.20001220703125</ele>
        <time>2019-10-28T08:14:05.000Z</time>
      </trkpt>
      <trkpt lat="37.5778463669121265411376953125" lon="-2.59216256439685821533203125">
        <ele>888</ele>
        <time>2019-10-28T08:14:12.000Z</time>
      </trkpt>
      <trkpt lat="37.57766908966004848480224609375" lon="-2.59228267706930637359619140625">
        <ele>887.79998779296875</ele>
        <time>2019-10-28T08:14:19.000Z</time>
      </trkpt>
      <trkpt lat="37.57749818265438079833984375" lon="-2.5923880375921726226806640625">
        <ele>887.5999755859375</ele>
        <time>2019-10-28T08:14:26.000Z</time>
      </trkpt>
      <trkpt lat="37.5773219950497150421142578125" lon="-2.59249926544725894927978515625">
        <ele>887.79998779296875</ele>
        <time>2019-10-28T08:14:33.000Z</time>
      </trkpt>
      <trkpt lat="37.57714035920798778533935546875" lon="-2.5926069729030132293701171875">
        <ele>888</ele>
        <time>2019-10-28T08:14:40.000Z</time>
      </trkpt>
      <trkpt lat="37.57697775028645992279052734375" lon="-2.59270663373172283172607421875">
        <ele>888</ele>
        <time>2019-10-28T08:14:46.000Z</time>
      </trkpt>
      <trkpt lat="37.57679603062570095062255859375" lon="-2.5928124971687793731689453125">
        <ele>888</ele>
        <time>2019-10-28T08:14:53.000Z</time>
      </trkpt>
      <trkpt lat="37.57661414332687854766845703125" lon="-2.59291852824389934539794921875">
        <ele>887.79998779296875</ele>
        <time>2019-10-28T08:15:00.000Z</time>
      </trkpt>
      <trkpt lat="37.57643879391252994537353515625" lon="-2.5930240564048290252685546875">
        <ele>887.20001220703125</ele>
        <time>2019-10-28T08:15:07.000Z</time>
      </trkpt>
      <trkpt lat="37.57629529573023319244384765625" lon="-2.59320326149463653564453125">
        <ele>887</ele>
        <time>2019-10-28T08:15:15.000Z</time>
      </trkpt>
      <trkpt lat="37.57610452361404895782470703125" lon="-2.5933526270091533660888671875">
        <ele>887.20001220703125</ele>
        <time>2019-10-28T08:15:20.000Z</time>
      </trkpt>
      <trkpt lat="37.5760650448501110076904296875" lon="-2.593394704163074493408203125">
        <ele>887.5999755859375</ele>
        <time>2019-10-28T08:15:21.000Z</time>
      </trkpt>
      <trkpt lat="37.57591567933559417724609375" lon="-2.593553960323333740234375">
        <ele>888.5999755859375</ele>
        <time>2019-10-28T08:15:25.000Z</time>
      </trkpt>
      <trkpt lat="37.575844936072826385498046875" lon="-2.5936134718358516693115234375">
        <ele>889.20001220703125</ele>
        <time>2019-10-28T08:15:27.000Z</time>
      </trkpt>
      <trkpt lat="37.57578332908451557159423828125" lon="-2.5936513580381870269775390625">
        <ele>889.4000244140625</ele>
        <time>2019-10-28T08:15:29.000Z</time>
      </trkpt>
      <trkpt lat="37.5756784714758396148681640625" lon="-2.59373207576572895050048828125">
        <ele>890</ele>
        <time>2019-10-28T08:15:33.000Z</time>
      </trkpt>
      <trkpt lat="37.57551410235464572906494140625" lon="-2.59387121535837650299072265625">
        <ele>890.5999755859375</ele>
        <time>2019-10-28T08:15:40.000Z</time>
      </trkpt>
      <trkpt lat="37.5753646530210971832275390625" lon="-2.594006247818470001220703125">
        <ele>891.79998779296875</ele>
        <time>2019-10-28T08:15:47.000Z</time>
      </trkpt>
      <trkpt lat="37.5752050615847110748291015625" lon="-2.59411211125552654266357421875">
        <ele>892.79998779296875</ele>
        <time>2019-10-28T08:15:55.000Z</time>
      </trkpt>
      <trkpt lat="37.57502728141844272613525390625" lon="-2.59421713650226593017578125">
        <ele>893</ele>
        <time>2019-10-28T08:16:05.000Z</time>
      </trkpt>
      <trkpt lat="37.57487204857170581817626953125" lon="-2.5942880474030971527099609375">
        <ele>892.79998779296875</ele>
        <time>2019-10-28T08:16:16.000Z</time>
      </trkpt>
      <trkpt lat="37.57477783598005771636962890625" lon="-2.59431512095034122467041015625">
        <ele>893</ele>
        <time>2019-10-28T08:17:09.000Z</time>
      </trkpt>
      <trkpt lat="37.574601732194423675537109375" lon="-2.59439961053431034088134765625">
        <ele>892</ele>
        <time>2019-10-28T08:17:15.000Z</time>
      </trkpt>
      <trkpt lat="37.574387155473232269287109375" lon="-2.59445861913263797760009765625">
        <ele>890.79998779296875</ele>
        <time>2019-10-28T08:17:20.000Z</time>
      </trkpt>
      <trkpt lat="37.57418355904519557952880859375" lon="-2.59452148340642452239990234375">
        <ele>889.79998779296875</ele>
        <time>2019-10-28T08:17:24.000Z</time>
      </trkpt>
      <trkpt lat="37.57409454323351383209228515625" lon="-2.59456993080675601959228515625">
        <ele>890</ele>
        <time>2019-10-28T08:17:26.000Z</time>
      </trkpt>
      <trkpt lat="37.573892958462238311767578125" lon="-2.594680152833461761474609375">
        <ele>890.4000244140625</ele>
        <time>2019-10-28T08:17:31.000Z</time>
      </trkpt>
      <trkpt lat="37.5737177766859531402587890625" lon="-2.59473287500441074371337890625">
        <ele>890.79998779296875</ele>
        <time>2019-10-28T08:17:37.000Z</time>
      </trkpt>
      <trkpt lat="37.57366019301116466522216796875" lon="-2.59477235376834869384765625">
        <ele>890.79998779296875</ele>
        <time>2019-10-28T08:17:40.000Z</time>
      </trkpt>
      <trkpt lat="37.5736523978412151336669921875" lon="-2.59481853805482387542724609375">
        <ele>891</ele>
        <time>2019-10-28T08:17:42.000Z</time>
      </trkpt>
      <trkpt lat="37.57371450774371623992919921875" lon="-2.59493554942309856414794921875">
        <ele>890.79998779296875</ele>
        <time>2019-10-28T08:17:46.000Z</time>
      </trkpt>
      <trkpt lat="37.5738416612148284912109375" lon="-2.59514392353594303131103515625">
        <ele>890</ele>
        <time>2019-10-28T08:17:52.000Z</time>
      </trkpt>
      <trkpt lat="37.57392346858978271484375" lon="-2.595350705087184906005859375">
        <ele>889.79998779296875</ele>
        <time>2019-10-28T08:17:57.000Z</time>
      </trkpt>
      <trkpt lat="37.57401826791465282440185546875" lon="-2.5955751724541187286376953125">
        <ele>889.20001220703125</ele>
        <time>2019-10-28T08:18:04.000Z</time>
      </trkpt>
      <trkpt lat="37.574039138853549957275390625" lon="-2.59568162262439727783203125">
        <ele>888.79998779296875</ele>
        <time>2019-10-28T08:18:10.000Z</time>
      </trkpt>
      <trkpt lat="37.5739796273410320281982421875" lon="-2.59548313915729522705078125">
        <ele>889.4000244140625</ele>
        <time>2019-10-28T08:18:24.000Z</time>
      </trkpt>
      <trkpt lat="37.57389421574771404266357421875" lon="-2.59527769871056079864501953125">
        <ele>890</ele>
        <time>2019-10-28T08:18:29.000Z</time>
      </trkpt>
      <trkpt lat="37.57378541864454746246337890625" lon="-2.5950484536588191986083984375">
        <ele>890</ele>
        <time>2019-10-28T08:18:34.000Z</time>
      </trkpt>
      <trkpt lat="37.57366807200014591217041015625" lon="-2.594868242740631103515625">
        <ele>890.79998779296875</ele>
        <time>2019-10-28T08:18:40.000Z</time>
      </trkpt>
      <trkpt lat="37.57358140312135219573974609375" lon="-2.59483010508120059967041015625">
        <ele>891.20001220703125</ele>
        <time>2019-10-28T08:18:45.000Z</time>
      </trkpt>
      <trkpt lat="37.57349557243287563323974609375" lon="-2.59489313699305057525634765625">
        <ele>891.4000244140625</ele>
        <time>2019-10-28T08:18:50.000Z</time>
      </trkpt>
      <trkpt lat="37.57336682640016078948974609375" lon="-2.5950689055025577545166015625">
        <ele>892.20001220703125</ele>
        <time>2019-10-28T08:19:00.000Z</time>
      </trkpt>
      <trkpt lat="37.573284097015857696533203125" lon="-2.59529144503176212310791015625">
        <ele>893.4000244140625</ele>
        <time>2019-10-28T08:19:10.000Z</time>
      </trkpt>
      <trkpt lat="37.5732416845858097076416015625" lon="-2.59554239921271800994873046875">
        <ele>893.79998779296875</ele>
        <time>2019-10-28T08:19:17.000Z</time>
      </trkpt>
      <trkpt lat="37.5732167065143585205078125" lon="-2.5957783497869968414306640625">
        <ele>893.79998779296875</ele>
        <time>2019-10-28T08:19:23.000Z</time>
      </trkpt>
      <trkpt lat="37.573194243013858795166015625" lon="-2.59602452628314495086669921875">
        <ele>893.79998779296875</ele>
        <time>2019-10-28T08:19:29.000Z</time>
      </trkpt>
      <trkpt lat="37.57317052222788333892822265625" lon="-2.59627112187445163726806640625">
        <ele>894</ele>
        <time>2019-10-28T08:19:35.000Z</time>
      </trkpt>
      <trkpt lat="37.57313556969165802001953125" lon="-2.5965042226016521453857421875">
        <ele>894.79998779296875</ele>
        <time>2019-10-28T08:19:41.000Z</time>
      </trkpt>
      <trkpt lat="37.57305719889700412750244140625" lon="-2.5967191345989704132080078125">
        <ele>896</ele>
        <time>2019-10-28T08:19:48.000Z</time>
      </trkpt>
      <trkpt lat="37.57298494689166545867919921875" lon="-2.5969293527305126190185546875">
        <ele>896.4000244140625</ele>
        <time>2019-10-28T08:19:55.000Z</time>
      </trkpt>
      <trkpt lat="37.57292526774108409881591796875" lon="-2.5971707515418529510498046875">
        <ele>896</ele>
        <time>2019-10-28T08:20:00.000Z</time>
      </trkpt>
      <trkpt lat="37.57288821972906589508056640625" lon="-2.59740770794451236724853515625">
        <ele>895.4000244140625</ele>
        <time>2019-10-28T08:20:04.000Z</time>
      </trkpt>
      <trkpt lat="37.57284413091838359832763671875" lon="-2.5976287387311458587646484375">
        <ele>895</ele>
        <time>2019-10-28T08:20:08.000Z</time>
      </trkpt>
      <trkpt lat="37.57278394885361194610595703125" lon="-2.5978584028780460357666015625">
        <ele>895</ele>
        <time>2019-10-28T08:20:13.000Z</time>
      </trkpt>
      <trkpt lat="37.57273499853909015655517578125" lon="-2.59809024631977081298828125">
        <ele>894.4000244140625</ele>
        <time>2019-10-28T08:20:18.000Z</time>
      </trkpt>
      <trkpt lat="37.57269409485161304473876953125" lon="-2.59833566844463348388671875">
        <ele>893.79998779296875</ele>
        <time>2019-10-28T08:20:23.000Z</time>
      </trkpt>
      <trkpt lat="37.57266408763825893402099609375" lon="-2.59858519770205020904541015625">
        <ele>892.5999755859375</ele>
        <time>2019-10-28T08:20:28.000Z</time>
      </trkpt>
      <trkpt lat="37.57261798717081546783447265625" lon="-2.5988233275711536407470703125">
        <ele>892</ele>
        <time>2019-10-28T08:20:33.000Z</time>
      </trkpt>
      <trkpt lat="37.57254682481288909912109375" lon="-2.5990734435617923736572265625">
        <ele>892</ele>
        <time>2019-10-28T08:20:38.000Z</time>
      </trkpt>
      <trkpt lat="37.5724603235721588134765625" lon="-2.59932314045727252960205078125">
        <ele>892.5999755859375</ele>
        <time>2019-10-28T08:20:43.000Z</time>
      </trkpt>
      <trkpt lat="37.57239167578518390655517578125" lon="-2.59956185705959796905517578125">
        <ele>893.4000244140625</ele>
        <time>2019-10-28T08:20:48.000Z</time>
      </trkpt>
      <trkpt lat="37.572381198406219482421875" lon="-2.5996092148125171661376953125">
        <ele>893.5999755859375</ele>
        <time>2019-10-28T08:20:49.000Z</time>
      </trkpt>
      <trkpt lat="37.5723334215581417083740234375" lon="-2.5998415611684322357177734375">
        <ele>893.4000244140625</ele>
        <time>2019-10-28T08:20:54.000Z</time>
      </trkpt>
      <trkpt lat="37.57229360751807689666748046875" lon="-2.60008002631366252899169921875">
        <ele>892.79998779296875</ele>
        <time>2019-10-28T08:20:59.000Z</time>
      </trkpt>
      <trkpt lat="37.5722502730786800384521484375" lon="-2.600318491458892822265625">
        <ele>892</ele>
        <time>2019-10-28T08:21:04.000Z</time>
      </trkpt>
      <trkpt lat="37.5722036696970462799072265625" lon="-2.6005506701767444610595703125">
        <ele>892.4000244140625</ele>
        <time>2019-10-28T08:21:09.000Z</time>
      </trkpt>
      <trkpt lat="37.5721496902406215667724609375" lon="-2.60077740065753459930419921875">
        <ele>893.5999755859375</ele>
        <time>2019-10-28T08:21:14.000Z</time>
      </trkpt>
      <trkpt lat="37.57206679321825504302978515625" lon="-2.60099885053932666778564453125">
        <ele>895.4000244140625</ele>
        <time>2019-10-28T08:21:20.000Z</time>
      </trkpt>
      <trkpt lat="37.57195933721959590911865234375" lon="-2.601193897426128387451171875">
        <ele>897</ele>
        <time>2019-10-28T08:21:28.000Z</time>
      </trkpt>
      <trkpt lat="37.5718415714800357818603515625" lon="-2.60138668119907379150390625">
        <ele>896.5999755859375</ele>
        <time>2019-10-28T08:21:35.000Z</time>
      </trkpt>
      <trkpt lat="37.5717232190072536468505859375" lon="-2.60157980024814605712890625">
        <ele>895</ele>
        <time>2019-10-28T08:21:39.000Z</time>
      </trkpt>
      <trkpt lat="37.57163579575717449188232421875" lon="-2.60176612995564937591552734375">
        <ele>894</ele>
        <time>2019-10-28T08:21:42.000Z</time>
      </trkpt>
      <trkpt lat="37.571560442447662353515625" lon="-2.60198523290455341339111328125">
        <ele>893.4000244140625</ele>
        <time>2019-10-28T08:21:45.000Z</time>
      </trkpt>
      <trkpt lat="37.5715290941298007965087890625" lon="-2.602054886519908905029296875">
        <ele>893.20001220703125</ele>
        <time>2019-10-28T08:21:46.000Z</time>
      </trkpt>
      <trkpt lat="37.5714181177318096160888671875" lon="-2.602247335016727447509765625">
        <ele>893</ele>
        <time>2019-10-28T08:21:49.000Z</time>
      </trkpt>
      <trkpt lat="37.571313679218292236328125" lon="-2.60243299417197704315185546875">
        <ele>892</ele>
        <time>2019-10-28T08:21:52.000Z</time>
      </trkpt>
      <trkpt lat="37.57118937559425830841064453125" lon="-2.60265377350151538848876953125">
        <ele>891.4000244140625</ele>
        <time>2019-10-28T08:21:56.000Z</time>
      </trkpt>
      <trkpt lat="37.571073286235332489013671875" lon="-2.602865584194660186767578125">
        <ele>891</ele>
        <time>2019-10-28T08:22:00.000Z</time>
      </trkpt>
      <trkpt lat="37.57096256129443645477294921875" lon="-2.6030628941953182220458984375">
        <ele>890.5999755859375</ele>
        <time>2019-10-28T08:22:04.000Z</time>
      </trkpt>
      <trkpt lat="37.57081151939928531646728515625" lon="-2.6032461225986480712890625">
        <ele>890.79998779296875</ele>
        <time>2019-10-28T08:22:09.000Z</time>
      </trkpt>
      <trkpt lat="37.57068394683301448822021484375" lon="-2.603443600237369537353515625">
        <ele>890.5999755859375</ele>
        <time>2019-10-28T08:22:14.000Z</time>
      </trkpt>
      <trkpt lat="37.57059023715555667877197265625" lon="-2.6036633737385272979736328125">
        <ele>890</ele>
        <time>2019-10-28T08:22:19.000Z</time>
      </trkpt>
      <trkpt lat="37.57053240202367305755615234375" lon="-2.60383763350546360015869140625">
        <ele>890</ele>
        <time>2019-10-28T08:22:23.000Z</time>
      </trkpt>
      <trkpt lat="37.5704803504049777984619140625" lon="-2.6039614342153072357177734375">
        <ele>890</ele>
        <time>2019-10-28T08:22:27.000Z</time>
      </trkpt>
      <trkpt lat="37.57043919526040554046630859375" lon="-2.604034356772899627685546875">
        <ele>890</ele>
        <time>2019-10-28T08:22:29.000Z</time>
      </trkpt>
      <trkpt lat="37.570322938263416290283203125" lon="-2.604223787784576416015625">
        <ele>889.79998779296875</ele>
        <time>2019-10-28T08:22:33.000Z</time>
      </trkpt>
      <trkpt lat="37.57021129131317138671875" lon="-2.60441648773849010467529296875">
        <ele>888.79998779296875</ele>
        <time>2019-10-28T08:22:37.000Z</time>
      </trkpt>
      <trkpt lat="37.57015270181000232696533203125" lon="-2.60459200479090213775634765625">
        <ele>887.5999755859375</ele>
        <time>2019-10-28T08:22:40.000Z</time>
      </trkpt>
      <trkpt lat="37.5700984708964824676513671875" lon="-2.60484027676284313201904296875">
        <ele>887</ele>
        <time>2019-10-28T08:22:44.000Z</time>
      </trkpt>
      <trkpt lat="37.57006268016993999481201171875" lon="-2.6049625687301158905029296875">
        <ele>886.4000244140625</ele>
        <time>2019-10-28T08:22:46.000Z</time>
      </trkpt>
      <trkpt lat="37.56995991803705692291259765625" lon="-2.60518644936382770538330078125">
        <ele>886.5999755859375</ele>
        <time>2019-10-28T08:22:50.000Z</time>
      </trkpt>
      <trkpt lat="37.5698684714734554290771484375" lon="-2.6053987629711627960205078125">
        <ele>887.4000244140625</ele>
        <time>2019-10-28T08:22:54.000Z</time>
      </trkpt>
      <trkpt lat="37.5697915256023406982421875" lon="-2.60561375878751277923583984375">
        <ele>887.79998779296875</ele>
        <time>2019-10-28T08:22:58.000Z</time>
      </trkpt>
      <trkpt lat="37.56973209790885448455810546875" lon="-2.60580453090369701385498046875">
        <ele>888</ele>
        <time>2019-10-28T08:23:01.000Z</time>
      </trkpt>
      <trkpt lat="37.56971952505409717559814453125" lon="-2.60599329136312007904052734375">
        <ele>887.5999755859375</ele>
        <time>2019-10-28T08:23:04.000Z</time>
      </trkpt>
      <trkpt lat="37.5697581656277179718017578125" lon="-2.6062309183180332183837890625">
        <ele>886.79998779296875</ele>
        <time>2019-10-28T08:23:08.000Z</time>
      </trkpt>
      <trkpt lat="37.56978188641369342803955078125" lon="-2.60640149004757404327392578125">
        <ele>886.20001220703125</ele>
        <time>2019-10-28T08:23:11.000Z</time>
      </trkpt>
      <trkpt lat="37.56979730911552906036376953125" lon="-2.606659568846225738525390625">
        <ele>885.4000244140625</ele>
        <time>2019-10-28T08:23:16.000Z</time>
      </trkpt>
      <trkpt lat="37.56980719976127147674560546875" lon="-2.60688923299312591552734375">
        <ele>885.20001220703125</ele>
        <time>2019-10-28T08:23:20.000Z</time>
      </trkpt>
      <trkpt lat="37.56983620114624500274658203125" lon="-2.607143707573413848876953125">
        <ele>884.79998779296875</ele>
        <time>2019-10-28T08:23:24.000Z</time>
      </trkpt>
      <trkpt lat="37.569877691566944122314453125" lon="-2.6073986850678920745849609375">
        <ele>884.4000244140625</ele>
        <time>2019-10-28T08:23:28.000Z</time>
      </trkpt>
      <trkpt lat="37.56992471404373645782470703125" lon="-2.60764670558273792266845703125">
        <ele>883.4000244140625</ele>
        <time>2019-10-28T08:23:32.000Z</time>
      </trkpt>
      <trkpt lat="37.56996930576860904693603515625" lon="-2.6079015992581844329833984375">
        <ele>881.5999755859375</ele>
        <time>2019-10-28T08:23:36.000Z</time>
      </trkpt>
      <trkpt lat="37.57002144120633602142333984375" lon="-2.608061023056507110595703125">
        <ele>881</ele>
        <time>2019-10-28T08:23:39.000Z</time>
      </trkpt>
      <trkpt lat="37.57005832158029079437255859375" lon="-2.60815531946718692779541015625">
        <ele>880.79998779296875</ele>
        <time>2019-10-28T08:23:41.000Z</time>
      </trkpt>
      <trkpt lat="37.57006871514022350311279296875" lon="-2.60840577073395252227783203125">
        <ele>880.20001220703125</ele>
        <time>2019-10-28T08:23:46.000Z</time>
      </trkpt>
      <trkpt lat="37.570076175034046173095703125" lon="-2.6086693815886974334716796875">
        <ele>880.20001220703125</ele>
        <time>2019-10-28T08:23:51.000Z</time>
      </trkpt>
      <trkpt lat="37.570084221661090850830078125" lon="-2.60872185230255126953125">
        <ele>880.20001220703125</ele>
        <time>2019-10-28T08:23:52.000Z</time>
      </trkpt>
      <trkpt lat="37.5701155699789524078369140625" lon="-2.60893978178501129150390625">
        <ele>880</ele>
        <time>2019-10-28T08:23:56.000Z</time>
      </trkpt>
      <trkpt lat="37.57017583586275577545166015625" lon="-2.60920071043074131011962890625">
        <ele>879.5999755859375</ele>
        <time>2019-10-28T08:24:01.000Z</time>
      </trkpt>
      <trkpt lat="37.5702500157058238983154296875" lon="-2.60943791829049587249755859375">
        <ele>879</ele>
        <time>2019-10-28T08:24:06.000Z</time>
      </trkpt>
      <trkpt lat="37.5702634267508983612060546875" lon="-2.60948561131954193115234375">
        <ele>878.79998779296875</ele>
        <time>2019-10-28T08:24:07.000Z</time>
      </trkpt>
      <trkpt lat="37.57029804401099681854248046875" lon="-2.60974754579365253448486328125">
        <ele>879</ele>
        <time>2019-10-28T08:24:12.000Z</time>
      </trkpt>
      <trkpt lat="37.5703117065131664276123046875" lon="-2.6099028624594211578369140625">
        <ele>878.4000244140625</ele>
        <time>2019-10-28T08:24:15.000Z</time>
      </trkpt>
      <trkpt lat="37.5703096948564052581787109375" lon="-2.60995474644005298614501953125">
        <ele>878.20001220703125</ele>
        <time>2019-10-28T08:24:16.000Z</time>
      </trkpt>
      <trkpt lat="37.57029267959296703338623046875" lon="-2.61020503006875514984130859375">
        <ele>878</ele>
        <time>2019-10-28T08:24:21.000Z</time>
      </trkpt>
      <trkpt lat="37.5702858902513980865478515625" lon="-2.6103658787906169891357421875">
        <ele>878</ele>
        <time>2019-10-28T08:24:24.000Z</time>
      </trkpt>
      <trkpt lat="37.57029687054455280303955078125" lon="-2.61059395037591457366943359375">
        <ele>878</ele>
        <time>2019-10-28T08:24:28.000Z</time>
      </trkpt>
      <trkpt lat="37.57033073343336582183837890625" lon="-2.61081464588642120361328125">
        <ele>877.4000244140625</ele>
        <time>2019-10-28T08:24:32.000Z</time>
      </trkpt>
      <trkpt lat="37.5703522749245166778564453125" lon="-2.61091145686805248260498046875">
        <ele>876.79998779296875</ele>
        <time>2019-10-28T08:24:34.000Z</time>
      </trkpt>
      <trkpt lat="37.57022931240499019622802734375" lon="-2.6110578887164592742919921875">
        <ele>875.5999755859375</ele>
        <time>2019-10-28T08:24:40.000Z</time>
      </trkpt>
      <trkpt lat="37.57016845978796482086181640625" lon="-2.61106853373348712921142578125">
        <ele>875.5999755859375</ele>
        <time>2019-10-28T08:24:42.000Z</time>
      </trkpt>
      <trkpt lat="37.57014029659330844879150390625" lon="-2.61107808910310268402099609375">
        <ele>875.4000244140625</ele>
        <time>2019-10-28T08:24:43.000Z</time>
      </trkpt>
      <trkpt lat="37.57004893384873867034912109375" lon="-2.61112050153315067291259765625">
        <ele>875.20001220703125</ele>
        <time>2019-10-28T08:24:46.000Z</time>
      </trkpt>
      <trkpt lat="37.56987073458731174468994140625" lon="-2.61122074909508228302001953125">
        <ele>874.4000244140625</ele>
        <time>2019-10-28T08:24:52.000Z</time>
      </trkpt>
      <trkpt lat="37.56970259360969066619873046875" lon="-2.61133365333080291748046875">
        <ele>874</ele>
        <time>2019-10-28T08:24:58.000Z</time>
      </trkpt>
      <trkpt lat="37.5695100612938404083251953125" lon="-2.61142124421894550323486328125">
        <ele>874.5999755859375</ele>
        <time>2019-10-28T08:25:05.000Z</time>
      </trkpt>
      <trkpt lat="37.5693206302821636199951171875" lon="-2.61151294223964214324951171875">
        <ele>876</ele>
        <time>2019-10-28T08:25:12.000Z</time>
      </trkpt>
      <trkpt lat="37.569144107401371002197265625" lon="-2.611602880060672760009765625">
        <ele>877.20001220703125</ele>
        <time>2019-10-28T08:25:19.000Z</time>
      </trkpt>
      <trkpt lat="37.5689628906548023223876953125" lon="-2.61168577708303928375244140625">
        <ele>877.79998779296875</ele>
        <time>2019-10-28T08:25:26.000Z</time>
      </trkpt>
      <trkpt lat="37.56878695450723171234130859375" lon="-2.61174864135682582855224609375">
        <ele>878.20001220703125</ele>
        <time>2019-10-28T08:25:33.000Z</time>
      </trkpt>
      <trkpt lat="37.56858495064079761505126953125" lon="-2.61182961054146289825439453125">
        <ele>878.5999755859375</ele>
        <time>2019-10-28T08:25:41.000Z</time>
      </trkpt>
      <trkpt lat="37.56842535920441150665283203125" lon="-2.6119413413107395172119140625">
        <ele>878.20001220703125</ele>
        <time>2019-10-28T08:25:45.000Z</time>
      </trkpt>
      <trkpt lat="37.5682544521987438201904296875" lon="-2.6120690815150737762451171875">
        <ele>877</ele>
        <time>2019-10-28T08:25:49.000Z</time>
      </trkpt>
      <trkpt lat="37.56806745193898677825927734375" lon="-2.6122072152793407440185546875">
        <ele>875.4000244140625</ele>
        <time>2019-10-28T08:25:53.000Z</time>
      </trkpt>
      <trkpt lat="37.56790333427488803863525390625" lon="-2.61227686889469623565673828125">
        <ele>874.20001220703125</ele>
        <time>2019-10-28T08:25:56.000Z</time>
      </trkpt>
      <trkpt lat="37.5677206926047801971435546875" lon="-2.61231802403926849365234375">
        <ele>873.4000244140625</ele>
        <time>2019-10-28T08:25:59.000Z</time>
      </trkpt>
      <trkpt lat="37.567531764507293701171875" lon="-2.6123510487377643585205078125">
        <ele>872.5999755859375</ele>
        <time>2019-10-28T08:26:02.000Z</time>
      </trkpt>
      <trkpt lat="37.5673465244472026824951171875" lon="-2.6123570837080478668212890625">
        <ele>872</ele>
        <time>2019-10-28T08:26:05.000Z</time>
      </trkpt>
      <trkpt lat="37.56713337264955043792724609375" lon="-2.6123698242008686065673828125">
        <ele>872</ele>
        <time>2019-10-28T08:26:09.000Z</time>
      </trkpt>
      <trkpt lat="37.566937990486621856689453125" lon="-2.612483985722064971923828125">
        <ele>872.5999755859375</ele>
        <time>2019-10-28T08:26:14.000Z</time>
      </trkpt>
      <trkpt lat="37.56675719283521175384521484375" lon="-2.61259538121521472930908203125">
        <ele>873.79998779296875</ele>
        <time>2019-10-28T08:26:20.000Z</time>
      </trkpt>
      <trkpt lat="37.56673791445791721343994140625" lon="-2.6126041822135448455810546875">
        <ele>874</ele>
        <time>2019-10-28T08:26:21.000Z</time>
      </trkpt>
      <trkpt lat="37.566602714359760284423828125" lon="-2.61271373368799686431884765625">
        <ele>874.20001220703125</ele>
        <time>2019-10-28T08:27:16.000Z</time>
      </trkpt>
      <trkpt lat="37.5664677657186985015869140625" lon="-2.61288321577012538909912109375">
        <ele>874.20001220703125</ele>
        <time>2019-10-28T08:27:24.000Z</time>
      </trkpt>
      <trkpt lat="37.5663282908499240875244140625" lon="-2.61305437423288822174072265625">
        <ele>874.5999755859375</ele>
        <time>2019-10-28T08:27:32.000Z</time>
      </trkpt>
      <trkpt lat="37.5661973655223846435546875" lon="-2.613230645656585693359375">
        <ele>875.5999755859375</ele>
        <time>2019-10-28T08:27:40.000Z</time>
      </trkpt>
      <trkpt lat="37.5660821981728076934814453125" lon="-2.61340825818479061126708984375">
        <ele>876.5999755859375</ele>
        <time>2019-10-28T08:27:48.000Z</time>
      </trkpt>
      <trkpt lat="37.56596677936613559722900390625" lon="-2.61358729563653469085693359375">
        <ele>877.79998779296875</ele>
        <time>2019-10-28T08:27:56.000Z</time>
      </trkpt>
      <trkpt lat="37.56585563533008098602294921875" lon="-2.6137840189039707183837890625">
        <ele>879</ele>
        <time>2019-10-28T08:28:04.000Z</time>
      </trkpt>
      <trkpt lat="37.56573937833309173583984375" lon="-2.61397219263017177581787109375">
        <ele>879.79998779296875</ele>
        <time>2019-10-28T08:28:11.000Z</time>
      </trkpt>
      <trkpt lat="37.56563343107700347900390625" lon="-2.6141565106809139251708984375">
        <ele>880.5999755859375</ele>
        <time>2019-10-28T08:28:17.000Z</time>
      </trkpt>
      <trkpt lat="37.5655496120452880859375" lon="-2.61436211876571178436279296875">
        <ele>881</ele>
        <time>2019-10-28T08:28:23.000Z</time>
      </trkpt>
      <trkpt lat="37.5653948821127414703369140625" lon="-2.61450243182480335235595703125">
        <ele>881.5999755859375</ele>
        <time>2019-10-28T08:28:30.000Z</time>
      </trkpt>
      <trkpt lat="37.56525255739688873291015625" lon="-2.61464710347354412078857421875">
        <ele>881.5999755859375</ele>
        <time>2019-10-28T08:28:36.000Z</time>
      </trkpt>
      <trkpt lat="37.56510830484330654144287109375" lon="-2.61481759138405323028564453125">
        <ele>881.4000244140625</ele>
        <time>2019-10-28T08:28:42.000Z</time>
      </trkpt>
      <trkpt lat="37.56497494876384735107421875" lon="-2.6149926893413066864013671875">
        <ele>881.20001220703125</ele>
        <time>2019-10-28T08:28:48.000Z</time>
      </trkpt>
      <trkpt lat="37.5648634694516658782958984375" lon="-2.6151905022561550140380859375">
        <ele>881</ele>
        <time>2019-10-28T08:28:54.000Z</time>
      </trkpt>
      <trkpt lat="37.56478224880993366241455078125" lon="-2.61541270650923252105712890625">
        <ele>880.5999755859375</ele>
        <time>2019-10-28T08:29:00.000Z</time>
      </trkpt>
      <trkpt lat="37.56470848806202411651611328125" lon="-2.61563164182007312774658203125">
        <ele>880</ele>
        <time>2019-10-28T08:29:06.000Z</time>
      </trkpt>
      <trkpt lat="37.5645667500793933868408203125" lon="-2.6157986931502819061279296875">
        <ele>879.79998779296875</ele>
        <time>2019-10-28T08:29:13.000Z</time>
      </trkpt>
      <trkpt lat="37.56438813172280788421630859375" lon="-2.6159183867275714874267578125">
        <ele>879.5999755859375</ele>
        <time>2019-10-28T08:29:19.000Z</time>
      </trkpt>
      <trkpt lat="37.56424731574952602386474609375" lon="-2.6160719431936740875244140625">
        <ele>878.5999755859375</ele>
        <time>2019-10-28T08:29:25.000Z</time>
      </trkpt>
      <trkpt lat="37.56412644870579242706298828125" lon="-2.616261877119541168212890625">
        <ele>877.4000244140625</ele>
        <time>2019-10-28T08:29:32.000Z</time>
      </trkpt>
      <trkpt lat="37.5640329904854297637939453125" lon="-2.6164595223963260650634765625">
        <ele>876.4000244140625</ele>
        <time>2019-10-28T08:29:39.000Z</time>
      </trkpt>
      <trkpt lat="37.56401513703167438507080078125" lon="-2.61652640998363494873046875">
        <ele>876</ele>
        <time>2019-10-28T08:29:41.000Z</time>
      </trkpt>
      <trkpt lat="37.56400457583367824554443359375" lon="-2.61677443049848079681396484375">
        <ele>875.4000244140625</ele>
        <time>2019-10-28T08:29:48.000Z</time>
      </trkpt>
      <trkpt lat="37.56410968489944934844970703125" lon="-2.61697123758494853973388671875">
        <ele>877.20001220703125</ele>
        <time>2019-10-28T08:29:55.000Z</time>
      </trkpt>
      <trkpt lat="37.5642284564673900604248046875" lon="-2.61717106215655803680419921875">
        <ele>878.79998779296875</ele>
        <time>2019-10-28T08:30:04.000Z</time>
      </trkpt>
      <trkpt lat="37.564222924411296844482421875" lon="-2.6173947751522064208984375">
        <ele>879.20001220703125</ele>
        <time>2019-10-28T08:30:11.000Z</time>
      </trkpt>
      <trkpt lat="37.5642009638249874114990234375" lon="-2.61765561997890472412109375">
        <ele>879.20001220703125</ele>
        <time>2019-10-28T08:30:18.000Z</time>
      </trkpt>
      <trkpt lat="37.5641536898910999298095703125" lon="-2.61788402684032917022705078125">
        <ele>878.79998779296875</ele>
        <time>2019-10-28T08:30:25.000Z</time>
      </trkpt>
      <trkpt lat="37.5641535222530364990234375" lon="-2.6179387606680393218994140625">
        <ele>879</ele>
        <time>2019-10-28T08:32:31.000Z</time>
      </trkpt>
      <trkpt lat="37.56397314369678497314453125" lon="-2.61797538958489894866943359375">
        <ele>876</ele>
        <time>2019-10-28T08:32:38.000Z</time>
      </trkpt>
      <trkpt lat="37.5637900829315185546875" lon="-2.61800942011177539825439453125">
        <ele>873.79998779296875</ele>
        <time>2019-10-28T08:32:43.000Z</time>
      </trkpt>
      <trkpt lat="37.5635947845876216888427734375" lon="-2.61804160661995410919189453125">
        <ele>871.5999755859375</ele>
        <time>2019-10-28T08:32:49.000Z</time>
      </trkpt>
      <trkpt lat="37.5634053535759449005126953125" lon="-2.61803942732512950897216796875">
        <ele>869.5999755859375</ele>
        <time>2019-10-28T08:32:53.000Z</time>
      </trkpt>
      <trkpt lat="37.5631884299218654632568359375" lon="-2.6180916465818881988525390625">
        <ele>868.4000244140625</ele>
        <time>2019-10-28T08:32:57.000Z</time>
      </trkpt>
      <trkpt lat="37.5629879347980022430419921875" lon="-2.6181405968964099884033203125">
        <ele>868</ele>
        <time>2019-10-28T08:33:01.000Z</time>
      </trkpt>
      <trkpt lat="37.562773860991001129150390625" lon="-2.61817471124231815338134765625">
        <ele>868</ele>
        <time>2019-10-28T08:33:05.000Z</time>
      </trkpt>
      <trkpt lat="37.56259314715862274169921875" lon="-2.618193067610263824462890625">
        <ele>868</ele>
        <time>2019-10-28T08:33:08.000Z</time>
      </trkpt>
      <trkpt lat="37.56237932480871677398681640625" lon="-2.61821812950074672698974609375">
        <ele>868</ele>
        <time>2019-10-28T08:33:12.000Z</time>
      </trkpt>
      <trkpt lat="37.5621712021529674530029296875" lon="-2.61824897490441799163818359375">
        <ele>869</ele>
        <time>2019-10-28T08:33:17.000Z</time>
      </trkpt>
      <trkpt lat="37.56204706616699695587158203125" lon="-2.6182817481458187103271484375">
        <ele>869.5999755859375</ele>
        <time>2019-10-28T08:33:21.000Z</time>
      </trkpt>
      <trkpt lat="37.56194145418703556060791015625" lon="-2.61833664961159229278564453125">
        <ele>870.20001220703125</ele>
        <time>2019-10-28T08:33:25.000Z</time>
      </trkpt>
      <trkpt lat="37.56185076199471950531005859375" lon="-2.6184140145778656005859375">
        <ele>870.79998779296875</ele>
        <time>2019-10-28T08:33:29.000Z</time>
      </trkpt>
      <trkpt lat="37.561781108379364013671875" lon="-2.61849523521959781646728515625">
        <ele>871.20001220703125</ele>
        <time>2019-10-28T08:33:33.000Z</time>
      </trkpt>
      <trkpt lat="37.56172318942844867706298828125" lon="-2.6185990869998931884765625">
        <ele>871.79998779296875</ele>
        <time>2019-10-28T08:33:38.000Z</time>
      </trkpt>
      <trkpt lat="37.56159008480608463287353515625" lon="-2.61875876225531101226806640625">
        <ele>872.5999755859375</ele>
        <time>2019-10-28T08:33:47.000Z</time>
      </trkpt>
      <trkpt lat="37.56145178340375423431396484375" lon="-2.6189274899661540985107421875">
        <ele>873.5999755859375</ele>
        <time>2019-10-28T08:33:55.000Z</time>
      </trkpt>
      <trkpt lat="37.56128934212028980255126953125" lon="-2.6190719939768314361572265625">
        <ele>874.4000244140625</ele>
        <time>2019-10-28T08:34:04.000Z</time>
      </trkpt>
      <trkpt lat="37.5611278228461742401123046875" lon="-2.6192186772823333740234375">
        <ele>875</ele>
        <time>2019-10-28T08:34:14.000Z</time>
      </trkpt>
      <trkpt lat="37.5610326044261455535888671875" lon="-2.6194119639694690704345703125">
        <ele>873.79998779296875</ele>
        <time>2019-10-28T08:34:23.000Z</time>
      </trkpt>
      <trkpt lat="37.56111768074333667755126953125" lon="-2.6196433044970035552978515625">
        <ele>873.79998779296875</ele>
        <time>2019-10-28T08:34:30.000Z</time>
      </trkpt>
      <trkpt lat="37.56120518781244754791259765625" lon="-2.61986576020717620849609375">
        <ele>873</ele>
        <time>2019-10-28T08:34:36.000Z</time>
      </trkpt>
      <trkpt lat="37.5612864084541797637939453125" lon="-2.62007899582386016845703125">
        <ele>872.4000244140625</ele>
        <time>2019-10-28T08:34:41.000Z</time>
      </trkpt>
      <trkpt lat="37.56130727939307689666748046875" lon="-2.62030522339046001434326171875">
        <ele>871.5999755859375</ele>
        <time>2019-10-28T08:34:48.000Z</time>
      </trkpt>
      <trkpt lat="37.56118507124483585357666015625" lon="-2.62036406435072422027587890625">
        <ele>870.5999755859375</ele>
        <time>2019-10-28T08:34:53.000Z</time>
      </trkpt>
      <trkpt lat="37.5610108114778995513916015625" lon="-2.620448805391788482666015625">
        <ele>869</ele>
        <time>2019-10-28T08:34:57.000Z</time>
      </trkpt>
      <trkpt lat="37.56082230247557163238525390625" lon="-2.62055374681949615478515625">
        <ele>867</ele>
        <time>2019-10-28T08:35:00.000Z</time>
      </trkpt>
      <trkpt lat="37.56063739769160747528076171875" lon="-2.62065441347658634185791015625">
        <ele>866</ele>
        <time>2019-10-28T08:35:04.000Z</time>
      </trkpt>
      <trkpt lat="37.56061526946723461151123046875" lon="-2.6206751167774200439453125">
        <ele>865.79998779296875</ele>
        <time>2019-10-28T08:35:05.000Z</time>
      </trkpt>
      <trkpt lat="37.56044344045221805572509765625" lon="-2.62076723389327526092529296875">
        <ele>865.79998779296875</ele>
        <time>2019-10-28T08:35:13.000Z</time>
      </trkpt>
      <trkpt lat="37.56042432971298694610595703125" lon="-2.6207743585109710693359375">
        <ele>865.79998779296875</ele>
        <time>2019-10-28T08:35:14.000Z</time>
      </trkpt>
      <trkpt lat="37.56024730391800403594970703125" lon="-2.62085658498108386993408203125">
        <ele>866.20001220703125</ele>
        <time>2019-10-28T08:35:23.000Z</time>
      </trkpt>
      <trkpt lat="37.56007949821650981903076171875" lon="-2.62094425968825817108154296875">
        <ele>866.4000244140625</ele>
        <time>2019-10-28T08:35:30.000Z</time>
      </trkpt>
      <trkpt lat="37.55990800447762012481689453125" lon="-2.62103260494768619537353515625">
        <ele>866.4000244140625</ele>
        <time>2019-10-28T08:35:36.000Z</time>
      </trkpt>
      <trkpt lat="37.55973701365292072296142578125" lon="-2.62110552750527858734130859375">
        <ele>866.20001220703125</ele>
        <time>2019-10-28T08:35:42.000Z</time>
      </trkpt>
      <trkpt lat="37.55954825319349765777587890625" lon="-2.62119747698307037353515625">
        <ele>866.4000244140625</ele>
        <time>2019-10-28T08:35:49.000Z</time>
      </trkpt>
      <trkpt lat="37.5593649409711360931396484375" lon="-2.62127601541578769683837890625">
        <ele>867.5999755859375</ele>
        <time>2019-10-28T08:35:57.000Z</time>
      </trkpt>
      <trkpt lat="37.5593143142759799957275390625" lon="-2.6212955452501773834228515625">
        <ele>868</ele>
        <time>2019-10-28T08:36:01.000Z</time>
      </trkpt>
      <trkpt lat="37.55915321409702301025390625" lon="-2.621373496949672698974609375">
        <ele>869.20001220703125</ele>
        <time>2019-10-28T08:36:26.000Z</time>
      </trkpt>
      <trkpt lat="37.5589840672910213470458984375" lon="-2.6214564777910709381103515625">
        <ele>871.20001220703125</ele>
        <time>2019-10-28T08:36:42.000Z</time>
      </trkpt>
      <trkpt lat="37.55883612670004367828369140625" lon="-2.6215879060328006744384765625">
        <ele>873</ele>
        <time>2019-10-28T08:37:05.000Z</time>
      </trkpt>
      <trkpt lat="37.55866999737918376922607421875" lon="-2.62167264707386493682861328125">
        <ele>874.5999755859375</ele>
        <time>2019-10-28T08:37:13.000Z</time>
      </trkpt>
      <trkpt lat="37.55850956775248050689697265625" lon="-2.62157239951193332672119140625">
        <ele>875</ele>
        <time>2019-10-28T08:37:20.000Z</time>
      </trkpt>
      <trkpt lat="37.55839155055582523345947265625" lon="-2.6213964633643627166748046875">
        <ele>875.5999755859375</ele>
        <time>2019-10-28T08:37:27.000Z</time>
      </trkpt>
      <trkpt lat="37.5583711825311183929443359375" lon="-2.6213429868221282958984375">
        <ele>875.79998779296875</ele>
        <time>2019-10-28T08:37:31.000Z</time>
      </trkpt>
      <trkpt lat="37.55837713368237018585205078125" lon="-2.621315158903598785400390625">
        <ele>875.79998779296875</ele>
        <time>2019-10-28T08:37:51.000Z</time>
      </trkpt>
      <trkpt lat="37.55832835100591182708740234375" lon="-2.62107535265386104583740234375">
        <ele>876</ele>
        <time>2019-10-28T08:38:01.000Z</time>
      </trkpt>
      <trkpt lat="37.55835349671542644500732421875" lon="-2.620842419564723968505859375">
        <ele>874.79998779296875</ele>
        <time>2019-10-28T08:38:06.000Z</time>
      </trkpt>
      <trkpt lat="37.55834813229739665985107421875" lon="-2.6206675730645656585693359375">
        <ele>874.4000244140625</ele>
        <time>2019-10-28T08:38:09.000Z</time>
      </trkpt>
      <trkpt lat="37.5583366490900516510009765625" lon="-2.6204122602939605712890625">
        <ele>874.20001220703125</ele>
        <time>2019-10-28T08:38:15.000Z</time>
      </trkpt>
      <trkpt lat="37.55834545008838176727294921875" lon="-2.62016910128295421600341796875">
        <ele>874</ele>
        <time>2019-10-28T08:38:22.000Z</time>
      </trkpt>
      <trkpt lat="37.55827009677886962890625" lon="-2.61994128115475177764892578125">
        <ele>874.79998779296875</ele>
        <time>2019-10-28T08:38:29.000Z</time>
      </trkpt>
      <trkpt lat="37.55817060358822345733642578125" lon="-2.6197375170886516571044921875">
        <ele>875.20001220703125</ele>
        <time>2019-10-28T08:38:35.000Z</time>
      </trkpt>
      <trkpt lat="37.5580576993525028228759765625" lon="-2.61953291483223438262939453125">
        <ele>876.20001220703125</ele>
        <time>2019-10-28T08:38:41.000Z</time>
      </trkpt>
      <trkpt lat="37.5579269416630268096923828125" lon="-2.61936930008232593536376953125">
        <ele>877.4000244140625</ele>
        <time>2019-10-28T08:38:48.000Z</time>
      </trkpt>
      <trkpt lat="37.55780565552413463592529296875" lon="-2.61919361539185047149658203125">
        <ele>877.79998779296875</ele>
        <time>2019-10-28T08:38:56.000Z</time>
      </trkpt>
      <trkpt lat="37.5576627440750598907470703125" lon="-2.6190572418272495269775390625">
        <ele>877.79998779296875</ele>
        <time>2019-10-28T08:39:04.000Z</time>
      </trkpt>
      <trkpt lat="37.5575370155274868011474609375" lon="-2.61886353604495525360107421875">
        <ele>878.4000244140625</ele>
        <time>2019-10-28T08:39:11.000Z</time>
      </trkpt>
      <trkpt lat="37.5573948584496974945068359375" lon="-2.61873261071741580963134765625">
        <ele>878</ele>
        <time>2019-10-28T08:39:17.000Z</time>
      </trkpt>
      <trkpt lat="37.5571980513632297515869140625" lon="-2.61865801177918910980224609375">
        <ele>878.20001220703125</ele>
        <time>2019-10-28T08:39:23.000Z</time>
      </trkpt>
      <trkpt lat="37.55706511437892913818359375" lon="-2.61845399625599384307861328125">
        <ele>876.5999755859375</ele>
        <time>2019-10-28T08:39:30.000Z</time>
      </trkpt>
      <trkpt lat="37.55699462257325649261474609375" lon="-2.61823832988739013671875">
        <ele>875.79998779296875</ele>
        <time>2019-10-28T08:39:35.000Z</time>
      </trkpt>
      <trkpt lat="37.5568580813705921173095703125" lon="-2.61806054972112178802490234375">
        <ele>876.79998779296875</ele>
        <time>2019-10-28T08:39:41.000Z</time>
      </trkpt>
      <trkpt lat="37.55673478357493877410888671875" lon="-2.61787287890911102294921875">
        <ele>878.4000244140625</ele>
        <time>2019-10-28T08:39:48.000Z</time>
      </trkpt>
      <trkpt lat="37.55663520656526088714599609375" lon="-2.61766861192882061004638671875">
        <ele>878.79998779296875</ele>
        <time>2019-10-28T08:39:55.000Z</time>
      </trkpt>
      <trkpt lat="37.55650528706610202789306640625" lon="-2.61750214733183383941650390625">
        <ele>880</ele>
        <time>2019-10-28T08:40:02.000Z</time>
      </trkpt>
      <trkpt lat="37.55639146082103252410888671875" lon="-2.61730483733117580413818359375">
        <ele>880.20001220703125</ele>
        <time>2019-10-28T08:40:08.000Z</time>
      </trkpt>
      <trkpt lat="37.55626606754958629608154296875" lon="-2.617108114063739776611328125">
        <ele>881.4000244140625</ele>
        <time>2019-10-28T08:40:16.000Z</time>
      </trkpt>
      <trkpt lat="37.55613036453723907470703125" lon="-2.61692429892718791961669921875">
        <ele>882.20001220703125</ele>
        <time>2019-10-28T08:40:25.000Z</time>
      </trkpt>
      <trkpt lat="37.55604243837296962738037109375" lon="-2.6167196966707706451416015625">
        <ele>883.20001220703125</ele>
        <time>2019-10-28T08:40:33.000Z</time>
      </trkpt>
      <trkpt lat="37.55595107562839984893798828125" lon="-2.61649849824607372283935546875">
        <ele>885</ele>
        <time>2019-10-28T08:40:42.000Z</time>
      </trkpt>
      <trkpt lat="37.55587714724242687225341796875" lon="-2.6162655651569366455078125">
        <ele>886.20001220703125</ele>
        <time>2019-10-28T08:40:51.000Z</time>
      </trkpt>
      <trkpt lat="37.55571437068283557891845703125" lon="-2.6161674968898296356201171875">
        <ele>887</ele>
        <time>2019-10-28T08:41:00.000Z</time>
      </trkpt>
      <trkpt lat="37.55553533323109149932861328125" lon="-2.61609298177063465118408203125">
        <ele>887.4000244140625</ele>
        <time>2019-10-28T08:41:09.000Z</time>
      </trkpt>
      <trkpt lat="37.5553800165653228759765625" lon="-2.61596138589084148406982421875">
        <ele>888.5999755859375</ele>
        <time>2019-10-28T08:41:18.000Z</time>
      </trkpt>
      <trkpt lat="37.555326037108898162841796875" lon="-2.61594411917030811309814453125">
        <ele>888.79998779296875</ele>
        <time>2019-10-28T08:41:21.000Z</time>
      </trkpt>
      <trkpt lat="37.55524498410522937774658203125" lon="-2.615978233516216278076171875">
        <ele>889</ele>
        <time>2019-10-28T08:41:25.000Z</time>
      </trkpt>
      <trkpt lat="37.555081956088542938232421875" lon="-2.616122066974639892578125">
        <ele>889</ele>
        <time>2019-10-28T08:41:35.000Z</time>
      </trkpt>
      <trkpt lat="37.55495564080774784088134765625" lon="-2.6162466220557689666748046875">
        <ele>889.20001220703125</ele>
        <time>2019-10-28T08:42:05.000Z</time>
      </trkpt>
      <trkpt lat="37.55477853119373321533203125" lon="-2.6163076423108577728271484375">
        <ele>889</ele>
        <time>2019-10-28T08:42:13.000Z</time>
      </trkpt>
      <trkpt lat="37.5545580871403217315673828125" lon="-2.616350390017032623291015625">
        <ele>889</ele>
        <time>2019-10-28T08:42:18.000Z</time>
      </trkpt>
      <trkpt lat="37.55437745712697505950927734375" lon="-2.61638333089649677276611328125">
        <ele>889</ele>
        <time>2019-10-28T08:42:22.000Z</time>
      </trkpt>
      <trkpt lat="37.55419515073299407958984375" lon="-2.61641467921435832977294921875">
        <ele>889</ele>
        <time>2019-10-28T08:42:27.000Z</time>
      </trkpt>
      <trkpt lat="37.55400848574936389923095703125" lon="-2.616448961198329925537109375">
        <ele>889</ele>
        <time>2019-10-28T08:42:33.000Z</time>
      </trkpt>
      <trkpt lat="37.5538328848779201507568359375" lon="-2.6165230572223663330078125">
        <ele>889</ele>
        <time>2019-10-28T08:42:39.000Z</time>
      </trkpt>
      <trkpt lat="37.55378552712500095367431640625" lon="-2.6167401485145092010498046875">
        <ele>888.79998779296875</ele>
        <time>2019-10-28T08:42:46.000Z</time>
      </trkpt>
      <trkpt lat="37.553746886551380157470703125" lon="-2.61697358451783657073974609375">
        <ele>888</ele>
        <time>2019-10-28T08:42:53.000Z</time>
      </trkpt>
      <trkpt lat="37.55364001728594303131103515625" lon="-2.61703661642968654632568359375">
        <ele>888</ele>
        <time>2019-10-28T08:42:57.000Z</time>
      </trkpt>
      <trkpt lat="37.55352904088795185089111328125" lon="-2.61692865751683712005615234375">
        <ele>888.5999755859375</ele>
        <time>2019-10-28T08:43:02.000Z</time>
      </trkpt>
      <trkpt lat="37.55346232093870639801025390625" lon="-2.6167129911482334136962890625">
        <ele>889.5999755859375</ele>
        <time>2019-10-28T08:43:09.000Z</time>
      </trkpt>
      <trkpt lat="37.5534104369580745697021484375" lon="-2.61647234670817852020263671875">
        <ele>889.79998779296875</ele>
        <time>2019-10-28T08:43:16.000Z</time>
      </trkpt>
      <trkpt lat="37.55333240143954753875732421875" lon="-2.61625525541603565216064453125">
        <ele>890.5999755859375</ele>
        <time>2019-10-28T08:43:23.000Z</time>
      </trkpt>
      <trkpt lat="37.55322712473571300506591796875" lon="-2.61604939587414264678955078125">
        <ele>891.79998779296875</ele>
        <time>2019-10-28T08:43:33.000Z</time>
      </trkpt>
      <trkpt lat="37.5531542859971523284912109375" lon="-2.61580816470086574554443359375">
        <ele>892</ele>
        <time>2019-10-28T08:43:41.000Z</time>
      </trkpt>
      <trkpt lat="37.553121931850910186767578125" lon="-2.61563055217266082763671875">
        <ele>892</ele>
        <time>2019-10-28T08:43:46.000Z</time>
      </trkpt>
      <trkpt lat="37.55305479280650615692138671875" lon="-2.61538655497133731842041015625">
        <ele>892.5999755859375</ele>
        <time>2019-10-28T08:43:53.000Z</time>
      </trkpt>
      <trkpt lat="37.5529365241527557373046875" lon="-2.6152052544057369232177734375">
        <ele>893.20001220703125</ele>
        <time>2019-10-28T08:43:59.000Z</time>
      </trkpt>
      <trkpt lat="37.55280367098748683929443359375" lon="-2.61501054279506206512451171875">
        <ele>893</ele>
        <time>2019-10-28T08:44:04.000Z</time>
      </trkpt>
      <trkpt lat="37.5527422316372394561767578125" lon="-2.6147945411503314971923828125">
        <ele>893</ele>
        <time>2019-10-28T08:44:09.000Z</time>
      </trkpt>
      <trkpt lat="37.5527177564799785614013671875" lon="-2.61463168077170848846435546875">
        <ele>893</ele>
        <time>2019-10-28T08:44:14.000Z</time>
      </trkpt>
      <trkpt lat="37.5525628589093685150146484375" lon="-2.61462748982012271881103515625">
        <ele>893</ele>
        <time>2019-10-28T08:44:21.000Z</time>
      </trkpt>
      <trkpt lat="37.552406452596187591552734375" lon="-2.61474081315100193023681640625">
        <ele>893.4000244140625</ele>
        <time>2019-10-28T08:44:29.000Z</time>
      </trkpt>
      <trkpt lat="37.5522471964359283447265625" lon="-2.61487961746752262115478515625">
        <ele>894</ele>
        <time>2019-10-28T08:44:38.000Z</time>
      </trkpt>
      <trkpt lat="37.5521625392138957977294921875" lon="-2.61499243788421154022216796875">
        <ele>894.20001220703125</ele>
        <time>2019-10-28T08:44:44.000Z</time>
      </trkpt>
      <trkpt lat="37.5521213002502918243408203125" lon="-2.6150054298341274261474609375">
        <ele>894.4000244140625</ele>
        <time>2019-10-28T08:47:07.000Z</time>
      </trkpt>
      <trkpt lat="37.55198140628635883331298828125" lon="-2.6151854731142520904541015625">
        <ele>895</ele>
        <time>2019-10-28T08:47:17.000Z</time>
      </trkpt>
      <trkpt lat="37.55185115151107311248779296875" lon="-2.6153732277452945709228515625">
        <ele>894.79998779296875</ele>
        <time>2019-10-28T08:47:24.000Z</time>
      </trkpt>
      <trkpt lat="37.5517350621521472930908203125" lon="-2.6155515946447849273681640625">
        <ele>894.20001220703125</ele>
        <time>2019-10-28T08:47:30.000Z</time>
      </trkpt>
      <trkpt lat="37.55161595530807971954345703125" lon="-2.61574588716030120849609375">
        <ele>893.79998779296875</ele>
        <time>2019-10-28T08:47:37.000Z</time>
      </trkpt>
      <trkpt lat="37.551497519016265869140625" lon="-2.61594646610319614410400390625">
        <ele>893.4000244140625</ele>
        <time>2019-10-28T08:47:43.000Z</time>
      </trkpt>
      <trkpt lat="37.5513773225247859954833984375" lon="-2.61616489849984645843505859375">
        <ele>893.20001220703125</ele>
        <time>2019-10-28T08:47:50.000Z</time>
      </trkpt>
      <trkpt lat="37.55126207135617733001708984375" lon="-2.61637059040367603302001953125">
        <ele>894</ele>
        <time>2019-10-28T08:47:56.000Z</time>
      </trkpt>
      <trkpt lat="37.55114874802529811859130859375" lon="-2.616577036678791046142578125">
        <ele>894.79998779296875</ele>
        <time>2019-10-28T08:48:03.000Z</time>
      </trkpt>
      <trkpt lat="37.55104263313114643096923828125" lon="-2.6167706586420536041259765625">
        <ele>895.5999755859375</ele>
        <time>2019-10-28T08:48:10.000Z</time>
      </trkpt>
      <trkpt lat="37.5509471632540225982666015625" lon="-2.61697660200297832489013671875">
        <ele>896.5999755859375</ele>
        <time>2019-10-28T08:48:16.000Z</time>
      </trkpt>
      <trkpt lat="37.5508294813334941864013671875" lon="-2.61719964444637298583984375">
        <ele>897</ele>
        <time>2019-10-28T08:48:22.000Z</time>
      </trkpt>
      <trkpt lat="37.5507064349949359893798828125" lon="-2.61742092669010162353515625">
        <ele>897</ele>
        <time>2019-10-28T08:48:28.000Z</time>
      </trkpt>
      <trkpt lat="37.55058489739894866943359375" lon="-2.61762904934585094451904296875">
        <ele>896.5999755859375</ele>
        <time>2019-10-28T08:48:33.000Z</time>
      </trkpt>
      <trkpt lat="37.5504677183926105499267578125" lon="-2.617859132587909698486328125">
        <ele>895.5999755859375</ele>
        <time>2019-10-28T08:48:37.000Z</time>
      </trkpt>
      <trkpt lat="37.55035079084336757659912109375" lon="-2.6181067340075969696044921875">
        <ele>894.79998779296875</ele>
        <time>2019-10-28T08:48:41.000Z</time>
      </trkpt>
      <trkpt lat="37.5502521358430385589599609375" lon="-2.61829943396151065826416015625">
        <ele>893.4000244140625</ele>
        <time>2019-10-28T08:48:44.000Z</time>
      </trkpt>
      <trkpt lat="37.5501478649675846099853515625" lon="-2.61849322356283664703369140625">
        <ele>893</ele>
        <time>2019-10-28T08:48:47.000Z</time>
      </trkpt>
      <trkpt lat="37.5500171072781085968017578125" lon="-2.6187333650887012481689453125">
        <ele>893</ele>
        <time>2019-10-28T08:48:51.000Z</time>
      </trkpt>
      <trkpt lat="37.54990235902369022369384765625" lon="-2.61893763206899166107177734375">
        <ele>893.79998779296875</ele>
        <time>2019-10-28T08:48:55.000Z</time>
      </trkpt>
      <trkpt lat="37.5498303584754467010498046875" lon="-2.6190626062452793121337890625">
        <ele>894.4000244140625</ele>
        <time>2019-10-28T08:48:58.000Z</time>
      </trkpt>
      <trkpt lat="37.5497312843799591064453125" lon="-2.61925664730370044708251953125">
        <ele>894.5999755859375</ele>
        <time>2019-10-28T08:49:03.000Z</time>
      </trkpt>
      <trkpt lat="37.5497103296220302581787109375" lon="-2.61929252184927463531494140625">
        <ele>894.4000244140625</ele>
        <time>2019-10-28T08:49:04.000Z</time>
      </trkpt>
      <trkpt lat="37.549670599400997161865234375" lon="-2.6193650253117084503173828125">
        <ele>894</ele>
        <time>2019-10-28T08:49:06.000Z</time>
      </trkpt>
      <trkpt lat="37.5495483912527561187744140625" lon="-2.6195822842419147491455078125">
        <ele>893.20001220703125</ele>
        <time>2019-10-28T08:49:12.000Z</time>
      </trkpt>
      <trkpt lat="37.5494464673101902008056640625" lon="-2.61976920068264007568359375">
        <ele>893</ele>
        <time>2019-10-28T08:49:17.000Z</time>
      </trkpt>
      <trkpt lat="37.54934043623507022857666015625" lon="-2.619968689978122711181640625">
        <ele>893</ele>
        <time>2019-10-28T08:49:22.000Z</time>
      </trkpt>
      <trkpt lat="37.5492345727980136871337890625" lon="-2.6201579533517360687255859375">
        <ele>893.5999755859375</ele>
        <time>2019-10-28T08:49:27.000Z</time>
      </trkpt>
      <trkpt lat="37.54911504685878753662109375" lon="-2.620370350778102874755859375">
        <ele>894.20001220703125</ele>
        <time>2019-10-28T08:49:33.000Z</time>
      </trkpt>
      <trkpt lat="37.54900851286947727203369140625" lon="-2.6205606199800968170166015625">
        <ele>894.4000244140625</ele>
        <time>2019-10-28T08:49:39.000Z</time>
      </trkpt>
      <trkpt lat="37.5489029847085475921630859375" lon="-2.620746195316314697265625">
        <ele>894.4000244140625</ele>
        <time>2019-10-28T08:49:45.000Z</time>
      </trkpt>
      <trkpt lat="37.5487920083105564117431640625" lon="-2.6209317706525325775146484375">
        <ele>894.20001220703125</ele>
        <time>2019-10-28T08:49:51.000Z</time>
      </trkpt>
      <trkpt lat="37.54867223091423511505126953125" lon="-2.62113670818507671356201171875">
        <ele>894</ele>
        <time>2019-10-28T08:49:58.000Z</time>
      </trkpt>
      <trkpt lat="37.548554800450801849365234375" lon="-2.621325887739658355712890625">
        <ele>894.5999755859375</ele>
        <time>2019-10-28T08:50:05.000Z</time>
      </trkpt>
      <trkpt lat="37.5484403036534786224365234375" lon="-2.62152797542512416839599609375">
        <ele>895.4000244140625</ele>
        <time>2019-10-28T08:50:12.000Z</time>
      </trkpt>
      <trkpt lat="37.5483209453523159027099609375" lon="-2.62174062430858612060546875">
        <ele>896.20001220703125</ele>
        <time>2019-10-28T08:50:19.000Z</time>
      </trkpt>
      <trkpt lat="37.5482116453349590301513671875" lon="-2.6219406165182590484619140625">
        <ele>897.4000244140625</ele>
        <time>2019-10-28T08:50:25.000Z</time>
      </trkpt>
      <trkpt lat="37.54810829646885395050048828125" lon="-2.6221300475299358367919921875">
        <ele>897.79998779296875</ele>
        <time>2019-10-28T08:50:31.000Z</time>
      </trkpt>
      <trkpt lat="37.54800905473530292510986328125" lon="-2.6223530061542987823486328125">
        <ele>898</ele>
        <time>2019-10-28T08:50:37.000Z</time>
      </trkpt>
      <trkpt lat="37.54796714521944522857666015625" lon="-2.6224431954324245452880859375">
        <ele>898</ele>
        <time>2019-10-28T08:50:39.000Z</time>
      </trkpt>
      <trkpt lat="37.54785499535501003265380859375" lon="-2.62267059646546840667724609375">
        <ele>897.5999755859375</ele>
        <time>2019-10-28T08:50:44.000Z</time>
      </trkpt>
      <trkpt lat="37.54774854518473148345947265625" lon="-2.62287662364542484283447265625">
        <ele>897</ele>
        <time>2019-10-28T08:50:49.000Z</time>
      </trkpt>
      <trkpt lat="37.5476383231580257415771484375" lon="-2.6230792142450809478759765625">
        <ele>897.20001220703125</ele>
        <time>2019-10-28T08:50:54.000Z</time>
      </trkpt>
      <trkpt lat="37.54753715358674526214599609375" lon="-2.62327007018029689788818359375">
        <ele>897.20001220703125</ele>
        <time>2019-10-28T08:51:00.000Z</time>
      </trkpt>
      <trkpt lat="37.54742500372231006622314453125" lon="-2.6234688051044940948486328125">
        <ele>897.5999755859375</ele>
        <time>2019-10-28T08:51:07.000Z</time>
      </trkpt>
      <trkpt lat="37.54732090048491954803466796875" lon="-2.623660080134868621826171875">
        <ele>898.4000244140625</ele>
        <time>2019-10-28T08:51:14.000Z</time>
      </trkpt>
      <trkpt lat="37.54721294157207012176513671875" lon="-2.62386937625706195831298828125">
        <ele>898.4000244140625</ele>
        <time>2019-10-28T08:51:20.000Z</time>
      </trkpt>
      <trkpt lat="37.54709961824119091033935546875" lon="-2.624096609652042388916015625">
        <ele>899</ele>
        <time>2019-10-28T08:51:25.000Z</time>
      </trkpt>
      <trkpt lat="37.5469902344048023223876953125" lon="-2.6243029721081256866455078125">
        <ele>899.79998779296875</ele>
        <time>2019-10-28T08:51:30.000Z</time>
      </trkpt>
      <trkpt lat="37.54687749780714511871337890625" lon="-2.62451268732547760009765625">
        <ele>900.4000244140625</ele>
        <time>2019-10-28T08:51:36.000Z</time>
      </trkpt>
      <trkpt lat="37.5467659346759319305419921875" lon="-2.624718882143497467041015625">
        <ele>901.20001220703125</ele>
        <time>2019-10-28T08:51:42.000Z</time>
      </trkpt>
      <trkpt lat="37.54669561050832271575927734375" lon="-2.62494678609073162078857421875">
        <ele>902.5999755859375</ele>
        <time>2019-10-28T08:51:48.000Z</time>
      </trkpt>
      <trkpt lat="37.54670935682952404022216796875" lon="-2.62520444579422473907470703125">
        <ele>903.20001220703125</ele>
        <time>2019-10-28T08:51:54.000Z</time>
      </trkpt>
      <trkpt lat="37.5467847101390361785888671875" lon="-2.62544567696750164031982421875">
        <ele>904.20001220703125</ele>
        <time>2019-10-28T08:52:01.000Z</time>
      </trkpt>
      <trkpt lat="37.54682242870330810546875" lon="-2.62569311074912548065185546875">
        <ele>905</ele>
        <time>2019-10-28T08:52:08.000Z</time>
      </trkpt>
      <trkpt lat="37.54678294993937015533447265625" lon="-2.62591992504894733428955078125">
        <ele>905.20001220703125</ele>
        <time>2019-10-28T08:52:15.000Z</time>
      </trkpt>
      <trkpt lat="37.54670214839279651641845703125" lon="-2.62613316066563129425048828125">
        <ele>905.79998779296875</ele>
        <time>2019-10-28T08:52:22.000Z</time>
      </trkpt>
      <trkpt lat="37.54659938625991344451904296875" lon="-2.62634019367396831512451171875">
        <ele>905.5999755859375</ele>
        <time>2019-10-28T08:52:30.000Z</time>
      </trkpt>
      <trkpt lat="37.5464839674532413482666015625" lon="-2.626538090407848358154296875">
        <ele>905.79998779296875</ele>
        <time>2019-10-28T08:52:38.000Z</time>
      </trkpt>
      <trkpt lat="37.54639335907995700836181640625" lon="-2.62655359692871570587158203125">
        <ele>906</ele>
        <time>2019-10-28T08:52:42.000Z</time>
      </trkpt>
      <trkpt lat="37.54636134020984172821044921875" lon="-2.6263525150716304779052734375">
        <ele>906.20001220703125</ele>
        <time>2019-10-28T08:52:49.000Z</time>
      </trkpt>
      <trkpt lat="37.5464092008769512176513671875" lon="-2.62612695805728435516357421875">
        <ele>907</ele>
        <time>2019-10-28T08:52:54.000Z</time>
      </trkpt>
      <trkpt lat="37.5464725680649280548095703125" lon="-2.6258973777294158935546875">
        <ele>906.79998779296875</ele>
        <time>2019-10-28T08:52:58.000Z</time>
      </trkpt>
      <trkpt lat="37.54646460525691509246826171875" lon="-2.6256712339818477630615234375">
        <ele>906.20001220703125</ele>
        <time>2019-10-28T08:53:02.000Z</time>
      </trkpt>
      <trkpt lat="37.54630803130567073822021484375" lon="-2.62554709799587726593017578125">
        <ele>905.5999755859375</ele>
        <time>2019-10-28T08:53:07.000Z</time>
      </trkpt>
      <trkpt lat="37.5462014973163604736328125" lon="-2.62564918957650661468505859375">
        <ele>905.20001220703125</ele>
        <time>2019-10-28T08:53:11.000Z</time>
      </trkpt>
      <trkpt lat="37.54609353840351104736328125" lon="-2.6258544623851776123046875">
        <ele>904.79998779296875</ele>
        <time>2019-10-28T08:53:17.000Z</time>
      </trkpt>
      <trkpt lat="37.5459820590913295745849609375" lon="-2.62605965137481689453125">
        <ele>904.5999755859375</ele>
        <time>2019-10-28T08:53:23.000Z</time>
      </trkpt>
      <trkpt lat="37.545874603092670440673828125" lon="-2.62627230025827884674072265625">
        <ele>904.20001220703125</ele>
        <time>2019-10-28T08:53:29.000Z</time>
      </trkpt>
      <trkpt lat="37.5457694940268993377685546875" lon="-2.62648084200918674468994140625">
        <ele>904.20001220703125</ele>
        <time>2019-10-28T08:53:35.000Z</time>
      </trkpt>
      <trkpt lat="37.54566748626530170440673828125" lon="-2.62667396105825901031494140625">
        <ele>904.79998779296875</ele>
        <time>2019-10-28T08:53:41.000Z</time>
      </trkpt>
      <trkpt lat="37.54554879851639270782470703125" lon="-2.626887448132038116455078125">
        <ele>905.5999755859375</ele>
        <time>2019-10-28T08:53:48.000Z</time>
      </trkpt>
      <trkpt lat="37.5454469583928585052490234375" lon="-2.62707662768661975860595703125">
        <ele>906.4000244140625</ele>
        <time>2019-10-28T08:53:54.000Z</time>
      </trkpt>
      <trkpt lat="37.54533153958618640899658203125" lon="-2.627296149730682373046875">
        <ele>907</ele>
        <time>2019-10-28T08:54:00.000Z</time>
      </trkpt>
      <trkpt lat="37.54522207193076610565185546875" lon="-2.62750603258609771728515625">
        <ele>906.79998779296875</ele>
        <time>2019-10-28T08:54:05.000Z</time>
      </trkpt>
      <trkpt lat="37.54510514438152313232421875" lon="-2.62773360125720500946044921875">
        <ele>905.5999755859375</ele>
        <time>2019-10-28T08:54:10.000Z</time>
      </trkpt>
      <trkpt lat="37.54498310387134552001953125" lon="-2.62796561233699321746826171875">
        <ele>904.4000244140625</ele>
        <time>2019-10-28T08:54:15.000Z</time>
      </trkpt>
      <trkpt lat="37.54486433230340480804443359375" lon="-2.62819125317037105560302734375">
        <ele>903.5999755859375</ele>
        <time>2019-10-28T08:54:20.000Z</time>
      </trkpt>
      <trkpt lat="37.54474799148738384246826171875" lon="-2.62840549461543560028076171875">
        <ele>902.79998779296875</ele>
        <time>2019-10-28T08:54:25.000Z</time>
      </trkpt>
      <trkpt lat="37.54463919438421726226806640625" lon="-2.628609426319599151611328125">
        <ele>902.4000244140625</ele>
        <time>2019-10-28T08:54:30.000Z</time>
      </trkpt>
      <trkpt lat="37.544533498585224151611328125" lon="-2.62880346737802028656005859375">
        <ele>902.79998779296875</ele>
        <time>2019-10-28T08:54:35.000Z</time>
      </trkpt>
      <trkpt lat="37.54441807977855205535888671875" lon="-2.62901536189019680023193359375">
        <ele>902.79998779296875</ele>
        <time>2019-10-28T08:54:40.000Z</time>
      </trkpt>
      <trkpt lat="37.54431414417922496795654296875" lon="-2.629206217825412750244140625">
        <ele>902.5999755859375</ele>
        <time>2019-10-28T08:54:44.000Z</time>
      </trkpt>
      <trkpt lat="37.54420752637088298797607421875" lon="-2.62940101325511932373046875">
        <ele>902.20001220703125</ele>
        <time>2019-10-28T08:54:48.000Z</time>
      </trkpt>
      <trkpt lat="37.544099986553192138671875" lon="-2.62959354557096958160400390625">
        <ele>902.20001220703125</ele>
        <time>2019-10-28T08:54:52.000Z</time>
      </trkpt>
      <trkpt lat="37.5439895130693912506103515625" lon="-2.62979001738131046295166015625">
        <ele>902.5999755859375</ele>
        <time>2019-10-28T08:54:56.000Z</time>
      </trkpt>
      <trkpt lat="37.5439082086086273193359375" lon="-2.6299372874200344085693359375">
        <ele>903</ele>
        <time>2019-10-28T08:54:59.000Z</time>
      </trkpt>
      <trkpt lat="37.54380033351480960845947265625" lon="-2.63013317249715328216552734375">
        <ele>902.20001220703125</ele>
        <time>2019-10-28T08:55:03.000Z</time>
      </trkpt>
      <trkpt lat="37.54369237460196018218994140625" lon="-2.630327045917510986328125">
        <ele>901.20001220703125</ele>
        <time>2019-10-28T08:55:07.000Z</time>
      </trkpt>
      <trkpt lat="37.54358391277492046356201171875" lon="-2.63052661903202533721923828125">
        <ele>901.20001220703125</ele>
        <time>2019-10-28T08:55:11.000Z</time>
      </trkpt>
      <trkpt lat="37.5434683263301849365234375" lon="-2.6307439617812633514404296875">
        <ele>902.20001220703125</ele>
        <time>2019-10-28T08:55:15.000Z</time>
      </trkpt>
      <trkpt lat="37.54334921948611736297607421875" lon="-2.63096683658659458160400390625">
        <ele>903</ele>
        <time>2019-10-28T08:55:19.000Z</time>
      </trkpt>
      <trkpt lat="37.5432296097278594970703125" lon="-2.63119415380060672760009765625">
        <ele>902.20001220703125</ele>
        <time>2019-10-28T08:55:23.000Z</time>
      </trkpt>
      <trkpt lat="37.54310966469347476959228515625" lon="-2.6314128376543521881103515625">
        <ele>900.20001220703125</ele>
        <time>2019-10-28T08:55:27.000Z</time>
      </trkpt>
      <trkpt lat="37.5429950840771198272705078125" lon="-2.63162347488105297088623046875">
        <ele>899</ele>
        <time>2019-10-28T08:55:31.000Z</time>
      </trkpt>
      <trkpt lat="37.542887292802333831787109375" lon="-2.63181894086301326751708984375">
        <ele>898.79998779296875</ele>
        <time>2019-10-28T08:55:35.000Z</time>
      </trkpt>
      <trkpt lat="37.54286206327378749847412109375" lon="-2.63186085037887096405029296875">
        <ele>899</ele>
        <time>2019-10-28T08:55:36.000Z</time>
      </trkpt>
      <trkpt lat="37.542742788791656494140625" lon="-2.63207425363361835479736328125">
        <ele>898.79998779296875</ele>
        <time>2019-10-28T08:55:41.000Z</time>
      </trkpt>
      <trkpt lat="37.54261932335793972015380859375" lon="-2.63229419477283954620361328125">
        <ele>898.4000244140625</ele>
        <time>2019-10-28T08:55:46.000Z</time>
      </trkpt>
      <trkpt lat="37.5425142981112003326416015625" lon="-2.63248412869870662689208984375">
        <ele>898.20001220703125</ele>
        <time>2019-10-28T08:55:50.000Z</time>
      </trkpt>
      <trkpt lat="37.54241128452122211456298828125" lon="-2.6326831988990306854248046875">
        <ele>898</ele>
        <time>2019-10-28T08:55:54.000Z</time>
      </trkpt>
      <trkpt lat="37.54228438250720500946044921875" lon="-2.63291562907397747039794921875">
        <ele>897.5999755859375</ele>
        <time>2019-10-28T08:55:59.000Z</time>
      </trkpt>
      <trkpt lat="37.54217977635562419891357421875" lon="-2.6331086643040180206298828125">
        <ele>897</ele>
        <time>2019-10-28T08:56:03.000Z</time>
      </trkpt>
      <trkpt lat="37.54207500256597995758056640625" lon="-2.63330320827662944793701171875">
        <ele>896.20001220703125</ele>
        <time>2019-10-28T08:56:07.000Z</time>
      </trkpt>
      <trkpt lat="37.541967295110225677490234375" lon="-2.63348869979381561279296875">
        <ele>895.5999755859375</ele>
        <time>2019-10-28T08:56:11.000Z</time>
      </trkpt>
      <trkpt lat="37.54185439087450504302978515625" lon="-2.6336823217570781707763671875">
        <ele>894.79998779296875</ele>
        <time>2019-10-28T08:56:15.000Z</time>
      </trkpt>
      <trkpt lat="37.54174475558102130889892578125" lon="-2.63387887738645076751708984375">
        <ele>894.20001220703125</ele>
        <time>2019-10-28T08:56:19.000Z</time>
      </trkpt>
      <trkpt lat="37.5416355393826961517333984375" lon="-2.634079791605472564697265625">
        <ele>893.4000244140625</ele>
        <time>2019-10-28T08:56:23.000Z</time>
      </trkpt>
      <trkpt lat="37.541525401175022125244140625" lon="-2.63428774662315845489501953125">
        <ele>893</ele>
        <time>2019-10-28T08:56:27.000Z</time>
      </trkpt>
      <trkpt lat="37.5414052046835422515869140625" lon="-2.63450617901980876922607421875">
        <ele>892.79998779296875</ele>
        <time>2019-10-28T08:56:31.000Z</time>
      </trkpt>
      <trkpt lat="37.54128056578338146209716796875" lon="-2.63473601080477237701416015625">
        <ele>892.5999755859375</ele>
        <time>2019-10-28T08:56:35.000Z</time>
      </trkpt>
      <trkpt lat="37.54115684889256954193115234375" lon="-2.63496131636202335357666015625">
        <ele>892.79998779296875</ele>
        <time>2019-10-28T08:56:39.000Z</time>
      </trkpt>
      <trkpt lat="37.5410310365259647369384765625" lon="-2.63519349507987499237060546875">
        <ele>893</ele>
        <time>2019-10-28T08:56:43.000Z</time>
      </trkpt>
      <trkpt lat="37.54092693328857421875" lon="-2.6353821717202663421630859375">
        <ele>892.79998779296875</ele>
        <time>2019-10-28T08:56:47.000Z</time>
      </trkpt>
      <trkpt lat="37.54079659469425678253173828125" lon="-2.6356131769716739654541015625">
        <ele>891.5999755859375</ele>
        <time>2019-10-28T08:56:52.000Z</time>
      </trkpt>
      <trkpt lat="37.54068042151629924774169921875" lon="-2.63581476174294948577880859375">
        <ele>890</ele>
        <time>2019-10-28T08:56:56.000Z</time>
      </trkpt>
      <trkpt lat="37.54056558944284915924072265625" lon="-2.63602632097899913787841796875">
        <ele>889.5999755859375</ele>
        <time>2019-10-28T08:57:00.000Z</time>
      </trkpt>
      <trkpt lat="37.5404523499310016632080078125" lon="-2.6362391375005245208740234375">
        <ele>890</ele>
        <time>2019-10-28T08:57:04.000Z</time>
      </trkpt>
      <trkpt lat="37.5403517670929431915283203125" lon="-2.63643384911119937896728515625">
        <ele>890.20001220703125</ele>
        <time>2019-10-28T08:57:08.000Z</time>
      </trkpt>
      <trkpt lat="37.54023249261081218719482421875" lon="-2.636659406125545501708984375">
        <ele>890.4000244140625</ele>
        <time>2019-10-28T08:57:13.000Z</time>
      </trkpt>
      <trkpt lat="37.54011883400380611419677734375" lon="-2.63687071390450000762939453125">
        <ele>889.20001220703125</ele>
        <time>2019-10-28T08:57:18.000Z</time>
      </trkpt>
      <trkpt lat="37.5399943627417087554931640625" lon="-2.6370984502136707305908203125">
        <ele>888</ele>
        <time>2019-10-28T08:57:23.000Z</time>
      </trkpt>
      <trkpt lat="37.5398890860378742218017578125" lon="-2.6372992806136608123779296875">
        <ele>888</ele>
        <time>2019-10-28T08:57:27.000Z</time>
      </trkpt>
      <trkpt lat="37.53977685235440731048583984375" lon="-2.63750522397458553314208984375">
        <ele>888</ele>
        <time>2019-10-28T08:57:31.000Z</time>
      </trkpt>
      <trkpt lat="37.53966026008129119873046875" lon="-2.63770186342298984527587890625">
        <ele>888</ele>
        <time>2019-10-28T08:57:35.000Z</time>
      </trkpt>
      <trkpt lat="37.53954333253204822540283203125" lon="-2.63790722005069255828857421875">
        <ele>887.5999755859375</ele>
        <time>2019-10-28T08:57:39.000Z</time>
      </trkpt>
      <trkpt lat="37.53942296840250492095947265625" lon="-2.63812280260026454925537109375">
        <ele>886.79998779296875</ele>
        <time>2019-10-28T08:57:43.000Z</time>
      </trkpt>
      <trkpt lat="37.53930528648197650909423828125" lon="-2.63835313729941844940185546875">
        <ele>886.4000244140625</ele>
        <time>2019-10-28T08:57:47.000Z</time>
      </trkpt>
      <trkpt lat="37.53918274305760860443115234375" lon="-2.6385820470750331878662109375">
        <ele>886</ele>
        <time>2019-10-28T08:57:51.000Z</time>
      </trkpt>
      <trkpt lat="37.53905315883457660675048828125" lon="-2.63881799764931201934814453125">
        <ele>885.5999755859375</ele>
        <time>2019-10-28T08:57:55.000Z</time>
      </trkpt>
      <trkpt lat="37.538943774998188018798828125" lon="-2.63899284414947032928466796875">
        <ele>885.20001220703125</ele>
        <time>2019-10-28T08:57:58.000Z</time>
      </trkpt>
      <trkpt lat="37.53884210251271724700927734375" lon="-2.63918143697082996368408203125">
        <ele>884.5999755859375</ele>
        <time>2019-10-28T08:58:01.000Z</time>
      </trkpt>
      <trkpt lat="37.53880790434777736663818359375" lon="-2.6392452232539653778076171875">
        <ele>884.20001220703125</ele>
        <time>2019-10-28T08:58:02.000Z</time>
      </trkpt>
      <trkpt lat="37.53870246000587940216064453125" lon="-2.63943842612206935882568359375">
        <ele>882.79998779296875</ele>
        <time>2019-10-28T08:58:05.000Z</time>
      </trkpt>
      <trkpt lat="37.538595087826251983642578125" lon="-2.639643363654613494873046875">
        <ele>882</ele>
        <time>2019-10-28T08:58:08.000Z</time>
      </trkpt>
      <trkpt lat="37.53848813474178314208984375" lon="-2.63986565172672271728515625">
        <ele>881.5999755859375</ele>
        <time>2019-10-28T08:58:11.000Z</time>
      </trkpt>
      <trkpt lat="37.53837673924863338470458984375" lon="-2.6400713436305522918701171875">
        <ele>880.79998779296875</ele>
        <time>2019-10-28T08:58:14.000Z</time>
      </trkpt>
      <trkpt lat="37.538267187774181365966796875" lon="-2.64029220677912235260009765625">
        <ele>879.4000244140625</ele>
        <time>2019-10-28T08:58:17.000Z</time>
      </trkpt>
      <trkpt lat="37.53813852556049823760986328125" lon="-2.64050829224288463592529296875">
        <ele>879</ele>
        <time>2019-10-28T08:58:21.000Z</time>
      </trkpt>
      <trkpt lat="37.53803174011409282684326171875" lon="-2.6406924426555633544921875">
        <ele>879.4000244140625</ele>
        <time>2019-10-28T08:58:26.000Z</time>
      </trkpt>
      <trkpt lat="37.53791908733546733856201171875" lon="-2.64089352451264858245849609375">
        <ele>880</ele>
        <time>2019-10-28T08:58:31.000Z</time>
      </trkpt>
      <trkpt lat="37.53779419697821140289306640625" lon="-2.64112788252532482147216796875">
        <ele>880</ele>
        <time>2019-10-28T08:58:36.000Z</time>
      </trkpt>
      <trkpt lat="37.53768556751310825347900390625" lon="-2.64132485724985599517822265625">
        <ele>880</ele>
        <time>2019-10-28T08:58:40.000Z</time>
      </trkpt>
      <trkpt lat="37.53757207654416561126708984375" lon="-2.64153071679174900054931640625">
        <ele>879.5999755859375</ele>
        <time>2019-10-28T08:58:44.000Z</time>
      </trkpt>
      <trkpt lat="37.53745221532881259918212890625" lon="-2.6417437009513378143310546875">
        <ele>878.79998779296875</ele>
        <time>2019-10-28T08:58:48.000Z</time>
      </trkpt>
      <trkpt lat="37.537334449589252471923828125" lon="-2.64196607284247875213623046875">
        <ele>878.5999755859375</ele>
        <time>2019-10-28T08:58:52.000Z</time>
      </trkpt>
      <trkpt lat="37.5372109003365039825439453125" lon="-2.64218433760106563568115234375">
        <ele>878</ele>
        <time>2019-10-28T08:58:56.000Z</time>
      </trkpt>
      <trkpt lat="37.5370868481695652008056640625" lon="-2.64241668395698070526123046875">
        <ele>877.4000244140625</ele>
        <time>2019-10-28T08:59:00.000Z</time>
      </trkpt>
      <trkpt lat="37.53695952706038951873779296875" lon="-2.64265489764511585235595703125">
        <ele>877</ele>
        <time>2019-10-28T08:59:04.000Z</time>
      </trkpt>
      <trkpt lat="37.53683899529278278350830078125" lon="-2.64287718571722507476806640625">
        <ele>876.5999755859375</ele>
        <time>2019-10-28T08:59:08.000Z</time>
      </trkpt>
      <trkpt lat="37.53672483377158641815185546875" lon="-2.6430931873619556427001953125">
        <ele>876</ele>
        <time>2019-10-28T08:59:12.000Z</time>
      </trkpt>
      <trkpt lat="37.53660388290882110595703125" lon="-2.6433342508971691131591796875">
        <ele>874.5999755859375</ele>
        <time>2019-10-28T08:59:16.000Z</time>
      </trkpt>
      <trkpt lat="37.53650338388979434967041015625" lon="-2.64353030361235141754150390625">
        <ele>873.20001220703125</ele>
        <time>2019-10-28T08:59:19.000Z</time>
      </trkpt>
      <trkpt lat="37.536397688090801239013671875" lon="-2.6437379233539104461669921875">
        <ele>872</ele>
        <time>2019-10-28T08:59:22.000Z</time>
      </trkpt>
      <trkpt lat="37.53628495149314403533935546875" lon="-2.64394168742001056671142578125">
        <ele>872.4000244140625</ele>
        <time>2019-10-28T08:59:25.000Z</time>
      </trkpt>
      <trkpt lat="37.53617565147578716278076171875" lon="-2.64413304626941680908203125">
        <ele>872.79998779296875</ele>
        <time>2019-10-28T08:59:28.000Z</time>
      </trkpt>
      <trkpt lat="37.536055035889148712158203125" lon="-2.6443474553525447845458984375">
        <ele>872.4000244140625</ele>
        <time>2019-10-28T08:59:32.000Z</time>
      </trkpt>
      <trkpt lat="37.535947076976299285888671875" lon="-2.6445439271628856658935546875">
        <ele>872.20001220703125</ele>
        <time>2019-10-28T08:59:36.000Z</time>
      </trkpt>
      <trkpt lat="37.535844147205352783203125" lon="-2.64473813585937023162841796875">
        <ele>873</ele>
        <time>2019-10-28T08:59:40.000Z</time>
      </trkpt>
      <trkpt lat="37.535804249346256256103515625" lon="-2.64482614584267139434814453125">
        <ele>873.20001220703125</ele>
        <time>2019-10-28T08:59:42.000Z</time>
      </trkpt>
      <trkpt lat="37.53579796291887760162353515625" lon="-2.64507986605167388916015625">
        <ele>873.20001220703125</ele>
        <time>2019-10-28T08:59:47.000Z</time>
      </trkpt>
      <trkpt lat="37.53589049912989139556884765625" lon="-2.645280025899410247802734375">
        <ele>872.4000244140625</ele>
        <time>2019-10-28T08:59:51.000Z</time>
      </trkpt>
      <trkpt lat="37.53594783134758472442626953125" lon="-2.64540064148604869842529296875">
        <ele>871.5999755859375</ele>
        <time>2019-10-28T08:59:53.000Z</time>
      </trkpt>
      <trkpt lat="37.5359834544360637664794921875" lon="-2.6456920802593231201171875">
        <ele>869.79998779296875</ele>
        <time>2019-10-28T08:59:57.000Z</time>
      </trkpt>
      <trkpt lat="37.5359589792788028717041015625" lon="-2.6458407752215862274169921875">
        <ele>869</ele>
        <time>2019-10-28T08:59:59.000Z</time>
      </trkpt>
      <trkpt lat="37.53590508364140987396240234375" lon="-2.6460506580770015716552734375">
        <ele>868</ele>
        <time>2019-10-28T09:00:02.000Z</time>
      </trkpt>
      <trkpt lat="37.53581908531486988067626953125" lon="-2.6462866924703121185302734375">
        <ele>868.20001220703125</ele>
        <time>2019-10-28T09:00:06.000Z</time>
      </trkpt>
      <trkpt lat="37.5357360206544399261474609375" lon="-2.64654259197413921356201171875">
        <ele>868.79998779296875</ele>
        <time>2019-10-28T09:00:11.000Z</time>
      </trkpt>
      <trkpt lat="37.53566066734492778778076171875" lon="-2.64678315259516239166259765625">
        <ele>868.20001220703125</ele>
        <time>2019-10-28T09:00:16.000Z</time>
      </trkpt>
      <trkpt lat="37.53557718358933925628662109375" lon="-2.64699035324156284332275390625">
        <ele>866.79998779296875</ele>
        <time>2019-10-28T09:00:21.000Z</time>
      </trkpt>
      <trkpt lat="37.5355489365756511688232421875" lon="-2.64706872403621673583984375">
        <ele>866.4000244140625</ele>
        <time>2019-10-28T09:00:23.000Z</time>
      </trkpt>
      <trkpt lat="37.5355397164821624755859375" lon="-2.647256143391132354736328125">
        <ele>865</ele>
        <time>2019-10-28T09:00:27.000Z</time>
      </trkpt>
      <trkpt lat="37.53554952330887317657470703125" lon="-2.64749645255506038665771484375">
        <ele>864.20001220703125</ele>
        <time>2019-10-28T09:00:32.000Z</time>
      </trkpt>
      <trkpt lat="37.53556184470653533935546875" lon="-2.64774187467992305755615234375">
        <ele>863.20001220703125</ele>
        <time>2019-10-28T09:00:36.000Z</time>
      </trkpt>
      <trkpt lat="37.53557031042873859405517578125" lon="-2.64791470952332019805908203125">
        <ele>862.20001220703125</ele>
        <time>2019-10-28T09:00:38.000Z</time>
      </trkpt>
      <trkpt lat="37.5355090387165546417236328125" lon="-2.6481650769710540771484375">
        <ele>861</ele>
        <time>2019-10-28T09:00:41.000Z</time>
      </trkpt>
      <trkpt lat="37.53547375090420246124267578125" lon="-2.6482353173196315765380859375">
        <ele>860.79998779296875</ele>
        <time>2019-10-28T09:00:42.000Z</time>
      </trkpt>
      <trkpt lat="37.53536445088684558868408203125" lon="-2.64843103475868701934814453125">
        <ele>860.79998779296875</ele>
        <time>2019-10-28T09:00:45.000Z</time>
      </trkpt>
      <trkpt lat="37.5352837331593036651611328125" lon="-2.64854435808956623077392578125">
        <ele>861</ele>
        <time>2019-10-28T09:00:47.000Z</time>
      </trkpt>
      <trkpt lat="37.5351025164127349853515625" lon="-2.64873881824314594268798828125">
        <ele>861.79998779296875</ele>
        <time>2019-10-28T09:00:51.000Z</time>
      </trkpt>
      <trkpt lat="37.53494200296700000762939453125" lon="-2.64891852624714374542236328125">
        <ele>861.4000244140625</ele>
        <time>2019-10-28T09:00:55.000Z</time>
      </trkpt>
      <trkpt lat="37.5347860157489776611328125" lon="-2.64910846017301082611083984375">
        <ele>861.79998779296875</ele>
        <time>2019-10-28T09:01:00.000Z</time>
      </trkpt>
      <trkpt lat="37.53471024334430694580078125" lon="-2.64920686371624469757080078125">
        <ele>862.20001220703125</ele>
        <time>2019-10-28T09:01:03.000Z</time>
      </trkpt>
      <trkpt lat="37.5345742888748645782470703125" lon="-2.64937751926481723785400390625">
        <ele>862.5999755859375</ele>
        <time>2019-10-28T09:01:08.000Z</time>
      </trkpt>
      <trkpt lat="37.53443942405283451080322265625" lon="-2.6495499350130558013916015625">
        <ele>862.5999755859375</ele>
        <time>2019-10-28T09:01:13.000Z</time>
      </trkpt>
      <trkpt lat="37.53431922756135463714599609375" lon="-2.6496713049709796905517578125">
        <ele>862.20001220703125</ele>
        <time>2019-10-28T09:01:17.000Z</time>
      </trkpt>
      <trkpt lat="37.53425535745918750762939453125" lon="-2.64972587116062641143798828125">
        <ele>862</ele>
        <time>2019-10-28T09:01:19.000Z</time>
      </trkpt>
      <trkpt lat="37.53410247154533863067626953125" lon="-2.64988697133958339691162109375">
        <ele>861.20001220703125</ele>
        <time>2019-10-28T09:01:24.000Z</time>
      </trkpt>
      <trkpt lat="37.5339486636221408843994140625" lon="-2.650074474513530731201171875">
        <ele>860</ele>
        <time>2019-10-28T09:01:28.000Z</time>
      </trkpt>
      <trkpt lat="37.53381899558007717132568359375" lon="-2.6502456329762935638427734375">
        <ele>860</ele>
        <time>2019-10-28T09:01:31.000Z</time>
      </trkpt>
      <trkpt lat="37.53369980491697788238525390625" lon="-2.6504166238009929656982421875">
        <ele>859.5999755859375</ele>
        <time>2019-10-28T09:01:34.000Z</time>
      </trkpt>
      <trkpt lat="37.53354641608893871307373046875" lon="-2.6506312005221843719482421875">
        <ele>858.79998779296875</ele>
        <time>2019-10-28T09:01:38.000Z</time>
      </trkpt>
      <trkpt lat="37.5334100425243377685546875" lon="-2.6508367247879505157470703125">
        <ele>858</ele>
        <time>2019-10-28T09:01:42.000Z</time>
      </trkpt>
      <trkpt lat="37.53327869810163974761962890625" lon="-2.6510028541088104248046875">
        <ele>858.20001220703125</ele>
        <time>2019-10-28T09:01:46.000Z</time>
      </trkpt>
      <trkpt lat="37.53325103782117366790771484375" lon="-2.65103445388376712799072265625">
        <ele>858.4000244140625</ele>
        <time>2019-10-28T09:01:47.000Z</time>
      </trkpt>
      <trkpt lat="37.5330923683941364288330078125" lon="-2.6512139104306697845458984375">
        <ele>859.4000244140625</ele>
        <time>2019-10-28T09:01:53.000Z</time>
      </trkpt>
      <trkpt lat="37.53293772228062152862548828125" lon="-2.65136922709643840789794921875">
        <ele>861</ele>
        <time>2019-10-28T09:02:00.000Z</time>
      </trkpt>
      <trkpt lat="37.5327909551560878753662109375" lon="-2.65151406638324260711669921875">
        <ele>863</ele>
        <time>2019-10-28T09:02:07.000Z</time>
      </trkpt>
      <trkpt lat="37.53265273757278919219970703125" lon="-2.65166879631578922271728515625">
        <ele>864</ele>
        <time>2019-10-28T09:02:14.000Z</time>
      </trkpt>
      <trkpt lat="37.5324954092502593994140625" lon="-2.6518288068473339080810546875">
        <ele>865</ele>
        <time>2019-10-28T09:02:22.000Z</time>
      </trkpt>
      <trkpt lat="37.53233053721487522125244140625" lon="-2.65196233056485652923583984375">
        <ele>865.5999755859375</ele>
        <time>2019-10-28T09:02:30.000Z</time>
      </trkpt>
      <trkpt lat="37.53215082921087741851806640625" lon="-2.65207230113446712493896484375">
        <ele>866.20001220703125</ele>
        <time>2019-10-28T09:02:39.000Z</time>
      </trkpt>
      <trkpt lat="37.53196902573108673095703125" lon="-2.65212024562060832977294921875">
        <ele>867</ele>
        <time>2019-10-28T09:02:48.000Z</time>
      </trkpt>
      <trkpt lat="37.53179644234478473663330078125" lon="-2.65220859088003635406494140625">
        <ele>867</ele>
        <time>2019-10-28T09:02:59.000Z</time>
      </trkpt>
      <trkpt lat="37.53170491196215152740478515625" lon="-2.6524165458977222442626953125">
        <ele>867.5999755859375</ele>
        <time>2019-10-28T09:03:08.000Z</time>
      </trkpt>
      <trkpt lat="37.53161908127367496490478515625" lon="-2.65263338573276996612548828125">
        <ele>868.5999755859375</ele>
        <time>2019-10-28T09:03:17.000Z</time>
      </trkpt>
      <trkpt lat="37.53150693140923976898193359375" lon="-2.6528259180486202239990234375">
        <ele>870</ele>
        <time>2019-10-28T09:03:26.000Z</time>
      </trkpt>
      <trkpt lat="37.53140953369438648223876953125" lon="-2.65302515588700771331787109375">
        <ele>870.79998779296875</ele>
        <time>2019-10-28T09:03:35.000Z</time>
      </trkpt>
      <trkpt lat="37.5312999822199344635009765625" lon="-2.65323319472372531890869140625">
        <ele>871.20001220703125</ele>
        <time>2019-10-28T09:03:44.000Z</time>
      </trkpt>
      <trkpt lat="37.5311920233070850372314453125" lon="-2.653432600200176239013671875">
        <ele>871.20001220703125</ele>
        <time>2019-10-28T09:03:52.000Z</time>
      </trkpt>
      <trkpt lat="37.53107853233814239501953125" lon="-2.6536335982382297515869140625">
        <ele>871.4000244140625</ele>
        <time>2019-10-28T09:04:00.000Z</time>
      </trkpt>
      <trkpt lat="37.5309569947421550750732421875" lon="-2.653834261000156402587890625">
        <ele>872.20001220703125</ele>
        <time>2019-10-28T09:04:09.000Z</time>
      </trkpt>
      <trkpt lat="37.53084911964833736419677734375" lon="-2.65401874668896198272705078125">
        <ele>873</ele>
        <time>2019-10-28T09:04:16.000Z</time>
      </trkpt>
      <trkpt lat="37.53071618266403675079345703125" lon="-2.65421136282384395599365234375">
        <ele>873.4000244140625</ele>
        <time>2019-10-28T09:04:22.000Z</time>
      </trkpt>
      <trkpt lat="37.5305855087935924530029296875" lon="-2.6544473133981227874755859375">
        <ele>874</ele>
        <time>2019-10-28T09:04:27.000Z</time>
      </trkpt>
      <trkpt lat="37.53046757541596889495849609375" lon="-2.65465401113033294677734375">
        <ele>873.5999755859375</ele>
        <time>2019-10-28T09:04:31.000Z</time>
      </trkpt>
      <trkpt lat="37.53035358153283596038818359375" lon="-2.65486498363316059112548828125">
        <ele>872.79998779296875</ele>
        <time>2019-10-28T09:04:35.000Z</time>
      </trkpt>
      <trkpt lat="37.5302274338901042938232421875" lon="-2.65511727891862392425537109375">
        <ele>871.4000244140625</ele>
        <time>2019-10-28T09:04:39.000Z</time>
      </trkpt>
      <trkpt lat="37.53011469729244709014892578125" lon="-2.6553254015743732452392578125">
        <ele>870.5999755859375</ele>
        <time>2019-10-28T09:04:42.000Z</time>
      </trkpt>
      <trkpt lat="37.5299924053251743316650390625" lon="-2.65554760582745075225830078125">
        <ele>869.5999755859375</ele>
        <time>2019-10-28T09:04:45.000Z</time>
      </trkpt>
      <trkpt lat="37.5298519246280193328857421875" lon="-2.65577844344079494476318359375">
        <ele>868.4000244140625</ele>
        <time>2019-10-28T09:04:48.000Z</time>
      </trkpt>
      <trkpt lat="37.52970255911350250244140625" lon="-2.65599704347550868988037109375">
        <ele>866.5999755859375</ele>
        <time>2019-10-28T09:04:51.000Z</time>
      </trkpt>
      <trkpt lat="37.529546320438385009765625" lon="-2.656217403709888458251953125">
        <ele>865</ele>
        <time>2019-10-28T09:04:54.000Z</time>
      </trkpt>
      <trkpt lat="37.52940743230283260345458984375" lon="-2.6563942618668079376220703125">
        <ele>863.5999755859375</ele>
        <time>2019-10-28T09:04:57.000Z</time>
      </trkpt>
      <trkpt lat="37.52929209731519222259521484375" lon="-2.65659316442906856536865234375">
        <ele>862.79998779296875</ele>
        <time>2019-10-28T09:05:01.000Z</time>
      </trkpt>
      <trkpt lat="37.529206015169620513916015625" lon="-2.65679231844842433929443359375">
        <ele>862.4000244140625</ele>
        <time>2019-10-28T09:05:05.000Z</time>
      </trkpt>
      <trkpt lat="37.5291801989078521728515625" lon="-2.65684126876294612884521484375">
        <ele>862</ele>
        <time>2019-10-28T09:05:06.000Z</time>
      </trkpt>
      <trkpt lat="37.52910786308348178863525390625" lon="-2.6569488085806369781494140625">
        <ele>861.20001220703125</ele>
        <time>2019-10-28T09:05:08.000Z</time>
      </trkpt>
      <trkpt lat="37.52894106321036815643310546875" lon="-2.65713396482169628143310546875">
        <ele>858.4000244140625</ele>
        <time>2019-10-28T09:05:11.000Z</time>
      </trkpt>
      <trkpt lat="37.5287766940891742706298828125" lon="-2.6572907902300357818603515625">
        <ele>857.20001220703125</ele>
        <time>2019-10-28T09:05:14.000Z</time>
      </trkpt>
      <trkpt lat="37.52863378264009952545166015625" lon="-2.65745851211249828338623046875">
        <ele>856.5999755859375</ele>
        <time>2019-10-28T09:05:19.000Z</time>
      </trkpt>
      <trkpt lat="37.52850352786481380462646484375" lon="-2.6576696522533893585205078125">
        <ele>856.79998779296875</ele>
        <time>2019-10-28T09:05:25.000Z</time>
      </trkpt>
      <trkpt lat="37.52836371771991252899169921875" lon="-2.65785212628543376922607421875">
        <ele>857.5999755859375</ele>
        <time>2019-10-28T09:05:30.000Z</time>
      </trkpt>
      <trkpt lat="37.5282456167042255401611328125" lon="-2.6580475084483623504638671875">
        <ele>857</ele>
        <time>2019-10-28T09:05:34.000Z</time>
      </trkpt>
      <trkpt lat="37.52813572995364665985107421875" lon="-2.65825328417122364044189453125">
        <ele>856.4000244140625</ele>
        <time>2019-10-28T09:05:38.000Z</time>
      </trkpt>
      <trkpt lat="37.52802592702209949493408203125" lon="-2.65847741626203060150146484375">
        <ele>855.5999755859375</ele>
        <time>2019-10-28T09:05:42.000Z</time>
      </trkpt>
      <trkpt lat="37.52791444770991802215576171875" lon="-2.6587163843214511871337890625">
        <ele>855</ele>
        <time>2019-10-28T09:05:46.000Z</time>
      </trkpt>
      <trkpt lat="37.5277993641793727874755859375" lon="-2.6589567773044109344482421875">
        <ele>853.79998779296875</ele>
        <time>2019-10-28T09:05:50.000Z</time>
      </trkpt>
      <trkpt lat="37.52767573110759258270263671875" lon="-2.65921418555080890655517578125">
        <ele>853</ele>
        <time>2019-10-28T09:05:54.000Z</time>
      </trkpt>
      <trkpt lat="37.52759006805717945098876953125" lon="-2.65943597070872783660888671875">
        <ele>850.5999755859375</ele>
        <time>2019-10-28T09:05:57.000Z</time>
      </trkpt>
      <trkpt lat="37.5275225937366485595703125" lon="-2.65971240587532520294189453125">
        <ele>849.20001220703125</ele>
        <time>2019-10-28T09:06:00.000Z</time>
      </trkpt>
      <trkpt lat="37.52743651159107685089111328125" lon="-2.66001851297914981842041015625">
        <ele>847.4000244140625</ele>
        <time>2019-10-28T09:06:03.000Z</time>
      </trkpt>
      <trkpt lat="37.5274013914167881011962890625" lon="-2.66011306084692478179931640625">
        <ele>847.5999755859375</ele>
        <time>2019-10-28T09:06:04.000Z</time>
      </trkpt>
      <trkpt lat="37.527304999530315399169921875" lon="-2.6603488437831401824951171875">
        <ele>849</ele>
        <time>2019-10-28T09:06:08.000Z</time>
      </trkpt>
      <trkpt lat="37.52724641002714633941650390625" lon="-2.660588733851909637451171875">
        <ele>849.79998779296875</ele>
        <time>2019-10-28T09:06:14.000Z</time>
      </trkpt>
      <trkpt lat="37.52718371339142322540283203125" lon="-2.66081881709396839141845703125">
        <ele>849.4000244140625</ele>
        <time>2019-10-28T09:06:21.000Z</time>
      </trkpt>
      <trkpt lat="37.52713501453399658203125" lon="-2.66106708906590938568115234375">
        <ele>849.4000244140625</ele>
        <time>2019-10-28T09:06:28.000Z</time>
      </trkpt>
      <trkpt lat="37.52709201537072658538818359375" lon="-2.66130345873534679412841796875">
        <ele>849</ele>
        <time>2019-10-28T09:06:34.000Z</time>
      </trkpt>
      <trkpt lat="37.5270651094615459442138671875" lon="-2.6615323685109615325927734375">
        <ele>849</ele>
        <time>2019-10-28T09:06:40.000Z</time>
      </trkpt>
      <trkpt lat="37.52706100232899188995361328125" lon="-2.66176597215235233306884765625">
        <ele>848.79998779296875</ele>
        <time>2019-10-28T09:06:47.000Z</time>
      </trkpt>
      <trkpt lat="37.52707927487790584564208984375" lon="-2.6620186865329742431640625">
        <ele>848</ele>
        <time>2019-10-28T09:06:52.000Z</time>
      </trkpt>
      <trkpt lat="37.52709352411329746246337890625" lon="-2.66225933097302913665771484375">
        <ele>848</ele>
        <time>2019-10-28T09:06:56.000Z</time>
      </trkpt>
      <trkpt lat="37.52711045555770397186279296875" lon="-2.66250760294497013092041015625">
        <ele>847.5999755859375</ele>
        <time>2019-10-28T09:07:00.000Z</time>
      </trkpt>
      <trkpt lat="37.52713241614401340484619140625" lon="-2.662765681743621826171875">
        <ele>846.5999755859375</ele>
        <time>2019-10-28T09:07:04.000Z</time>
      </trkpt>
      <trkpt lat="37.5271469168365001678466796875" lon="-2.6630337350070476531982421875">
        <ele>845.5999755859375</ele>
        <time>2019-10-28T09:07:08.000Z</time>
      </trkpt>
      <trkpt lat="37.527165524661540985107421875" lon="-2.66331545077264308929443359375">
        <ele>844.20001220703125</ele>
        <time>2019-10-28T09:07:12.000Z</time>
      </trkpt>
      <trkpt lat="37.52716644667088985443115234375" lon="-2.6636177860200405120849609375">
        <ele>843.20001220703125</ele>
        <time>2019-10-28T09:07:16.000Z</time>
      </trkpt>
      <trkpt lat="37.52717633731663227081298828125" lon="-2.66386463306844234466552734375">
        <ele>842.20001220703125</ele>
        <time>2019-10-28T09:07:19.000Z</time>
      </trkpt>
      <trkpt lat="37.52718740142881870269775390625" lon="-2.664109133183956146240234375">
        <ele>842</ele>
        <time>2019-10-28T09:07:22.000Z</time>
      </trkpt>
      <trkpt lat="37.52720533870160579681396484375" lon="-2.66434558667242527008056640625">
        <ele>841.5999755859375</ele>
        <time>2019-10-28T09:07:25.000Z</time>
      </trkpt>
      <trkpt lat="37.5272310711443424224853515625" lon="-2.66463794745504856109619140625">
        <ele>841</ele>
        <time>2019-10-28T09:07:29.000Z</time>
      </trkpt>
      <trkpt lat="37.5272615812718868255615234375" lon="-2.6649146340787410736083984375">
        <ele>839.79998779296875</ele>
        <time>2019-10-28T09:07:33.000Z</time>
      </trkpt>
      <trkpt lat="37.5272904150187969207763671875" lon="-2.66518612392246723175048828125">
        <ele>838</ele>
        <time>2019-10-28T09:07:37.000Z</time>
      </trkpt>
      <trkpt lat="37.52733014523983001708984375" lon="-2.66546641476452350616455078125">
        <ele>836.79998779296875</ele>
        <time>2019-10-28T09:07:41.000Z</time>
      </trkpt>
      <trkpt lat="37.5273675285279750823974609375" lon="-2.66573916189372539520263671875">
        <ele>836</ele>
        <time>2019-10-28T09:07:45.000Z</time>
      </trkpt>
      <trkpt lat="37.52738923765718936920166015625" lon="-2.66600687988102436065673828125">
        <ele>835.5999755859375</ele>
        <time>2019-10-28T09:07:49.000Z</time>
      </trkpt>
      <trkpt lat="37.52739795483648777008056640625" lon="-2.66626621596515178680419921875">
        <ele>835.5999755859375</ele>
        <time>2019-10-28T09:07:53.000Z</time>
      </trkpt>
      <trkpt lat="37.52740323543548583984375" lon="-2.6664937846362590789794921875">
        <ele>835.79998779296875</ele>
        <time>2019-10-28T09:07:57.000Z</time>
      </trkpt>
      <trkpt lat="37.5274275429546833038330078125" lon="-2.6667019911110401153564453125">
        <ele>836</ele>
        <time>2019-10-28T09:08:02.000Z</time>
      </trkpt>
      <trkpt lat="37.52749853767454624176025390625" lon="-2.66679343767464160919189453125">
        <ele>836.20001220703125</ele>
        <time>2019-10-28T09:08:06.000Z</time>
      </trkpt>
      <trkpt lat="37.52751387655735015869140625" lon="-2.66680886037647724151611328125">
        <ele>836.4000244140625</ele>
        <time>2019-10-28T09:08:07.000Z</time>
      </trkpt>
      <trkpt lat="37.52752418629825115203857421875" lon="-2.6668225228786468505859375">
        <ele>836.20001220703125</ele>
        <time>2019-10-28T09:08:09.000Z</time>
      </trkpt>
      <trkpt lat="37.52756056375801563262939453125" lon="-2.66681120730936527252197265625">
        <ele>836</ele>
        <time>2019-10-28T09:09:51.000Z</time>
      </trkpt>
      <trkpt lat="37.527507841587066650390625" lon="-2.66683551482856273651123046875">
        <ele>836.4000244140625</ele>
        <time>2019-10-28T09:11:26.000Z</time>
      </trkpt>
      <trkpt lat="37.52753189764916896820068359375" lon="-2.6669410429894924163818359375">
        <ele>836.5999755859375</ele>
        <time>2019-10-28T09:12:56.000Z</time>
      </trkpt>
      <trkpt lat="37.52755603753030300140380859375" lon="-2.667069621384143829345703125">
        <ele>836.20001220703125</ele>
        <time>2019-10-28T09:13:09.000Z</time>
      </trkpt>
      <trkpt lat="37.5276339054107666015625" lon="-2.66730464994907379150390625">
        <ele>835</ele>
        <time>2019-10-28T09:13:17.000Z</time>
      </trkpt>
      <trkpt lat="37.52772769890725612640380859375" lon="-2.667531631886959075927734375">
        <ele>834.20001220703125</ele>
        <time>2019-10-28T09:13:24.000Z</time>
      </trkpt>
      <trkpt lat="37.527815960347652435302734375" lon="-2.6677396707236766815185546875">
        <ele>833</ele>
        <time>2019-10-28T09:13:29.000Z</time>
      </trkpt>
      <trkpt lat="37.52792148850858211517333984375" lon="-2.66797679476439952850341796875">
        <ele>832</ele>
        <time>2019-10-28T09:13:34.000Z</time>
      </trkpt>
      <trkpt lat="37.528009079396724700927734375" lon="-2.66820260323584079742431640625">
        <ele>830.79998779296875</ele>
        <time>2019-10-28T09:13:38.000Z</time>
      </trkpt>
      <trkpt lat="37.52808124758303165435791015625" lon="-2.6684782840311527252197265625">
        <ele>830.5999755859375</ele>
        <time>2019-10-28T09:13:42.000Z</time>
      </trkpt>
      <trkpt lat="37.52812617458403110504150390625" lon="-2.6687344349920749664306640625">
        <ele>829.79998779296875</ele>
        <time>2019-10-28T09:13:46.000Z</time>
      </trkpt>
      <trkpt lat="37.52814511768519878387451171875" lon="-2.66903693787753582000732421875">
        <ele>829.4000244140625</ele>
        <time>2019-10-28T09:13:50.000Z</time>
      </trkpt>
      <trkpt lat="37.52815215848386287689208984375" lon="-2.66929225064814090728759765625">
        <ele>829</ele>
        <time>2019-10-28T09:13:53.000Z</time>
      </trkpt>
      <trkpt lat="37.52815760672092437744140625" lon="-2.6695639081299304962158203125">
        <ele>827.79998779296875</ele>
        <time>2019-10-28T09:13:56.000Z</time>
      </trkpt>
      <trkpt lat="37.52816087566316127777099609375" lon="-2.6698515750467777252197265625">
        <ele>826.79998779296875</ele>
        <time>2019-10-28T09:13:59.000Z</time>
      </trkpt>
      <trkpt lat="37.528161294758319854736328125" lon="-2.67015038989484310150146484375">
        <ele>824.20001220703125</ele>
        <time>2019-10-28T09:14:02.000Z</time>
      </trkpt>
      <trkpt lat="37.5281725265085697174072265625" lon="-2.6704544015228748321533203125">
        <ele>822</ele>
        <time>2019-10-28T09:14:05.000Z</time>
      </trkpt>
      <trkpt lat="37.5281770527362823486328125" lon="-2.67072270624339580535888671875">
        <ele>820.5999755859375</ele>
        <time>2019-10-28T09:14:08.000Z</time>
      </trkpt>
      <trkpt lat="37.5281782262027263641357421875" lon="-2.67099880613386631011962890625">
        <ele>818.79998779296875</ele>
        <time>2019-10-28T09:14:12.000Z</time>
      </trkpt>
      <trkpt lat="37.52817898057401180267333984375" lon="-2.6711048372089862823486328125">
        <ele>818.20001220703125</ele>
        <time>2019-10-28T09:14:15.000Z</time>
      </trkpt>
      <trkpt lat="37.5281664915382862091064453125" lon="-2.671269960701465606689453125">
        <ele>817.4000244140625</ele>
        <time>2019-10-28T09:15:01.000Z</time>
      </trkpt>
      <trkpt lat="37.52813992090523242950439453125" lon="-2.67155569978058338165283203125">
        <ele>815.5999755859375</ele>
        <time>2019-10-28T09:15:06.000Z</time>
      </trkpt>
      <trkpt lat="37.52810874022543430328369140625" lon="-2.67178821377456188201904296875">
        <ele>814.20001220703125</ele>
        <time>2019-10-28T09:15:09.000Z</time>
      </trkpt>
      <trkpt lat="37.52806507050991058349609375" lon="-2.6720570214092731475830078125">
        <ele>813</ele>
        <time>2019-10-28T09:15:12.000Z</time>
      </trkpt>
      <trkpt lat="37.52801603637635707855224609375" lon="-2.67237075604498386383056640625">
        <ele>812</ele>
        <time>2019-10-28T09:15:15.000Z</time>
      </trkpt>
      <trkpt lat="37.52797597087919712066650390625" lon="-2.672601677477359771728515625">
        <ele>810.4000244140625</ele>
        <time>2019-10-28T09:15:17.000Z</time>
      </trkpt>
      <trkpt lat="37.527938671410083770751953125" lon="-2.67284098081290721893310546875">
        <ele>808.79998779296875</ele>
        <time>2019-10-28T09:15:19.000Z</time>
      </trkpt>
      <trkpt lat="37.5279083289206027984619140625" lon="-2.67309428192675113677978515625">
        <ele>807.20001220703125</ele>
        <time>2019-10-28T09:15:21.000Z</time>
      </trkpt>
      <trkpt lat="37.52788980491459369659423828125" lon="-2.67335814423859119415283203125">
        <ele>805.4000244140625</ele>
        <time>2019-10-28T09:15:23.000Z</time>
      </trkpt>
      <trkpt lat="37.527877651154994964599609375" lon="-2.67363240011036396026611328125">
        <ele>803.4000244140625</ele>
        <time>2019-10-28T09:15:25.000Z</time>
      </trkpt>
      <trkpt lat="37.52787924371659755706787109375" lon="-2.673919312655925750732421875">
        <ele>801.20001220703125</ele>
        <time>2019-10-28T09:15:27.000Z</time>
      </trkpt>
      <trkpt lat="37.52789349295198917388916015625" lon="-2.67421376891434192657470703125">
        <ele>799.79998779296875</ele>
        <time>2019-10-28T09:15:29.000Z</time>
      </trkpt>
      <trkpt lat="37.5279115140438079833984375" lon="-2.6745099015533924102783203125">
        <ele>799.20001220703125</ele>
        <time>2019-10-28T09:15:31.000Z</time>
      </trkpt>
      <trkpt lat="37.5279195606708526611328125" lon="-2.67479245550930500030517578125">
        <ele>798.79998779296875</ele>
        <time>2019-10-28T09:15:33.000Z</time>
      </trkpt>
      <trkpt lat="37.5279106758534908294677734375" lon="-2.67492975108325481414794921875">
        <ele>797.5999755859375</ele>
        <time>2019-10-28T09:15:34.000Z</time>
      </trkpt>
      <trkpt lat="37.52786633558571338653564453125" lon="-2.6751963794231414794921875">
        <ele>796</ele>
        <time>2019-10-28T09:15:36.000Z</time>
      </trkpt>
      <trkpt lat="37.52778050489723682403564453125" lon="-2.67544917762279510498046875">
        <ele>794</ele>
        <time>2019-10-28T09:15:38.000Z</time>
      </trkpt>
      <trkpt lat="37.5276669301092624664306640625" lon="-2.67568747512996196746826171875">
        <ele>793.5999755859375</ele>
        <time>2019-10-28T09:15:40.000Z</time>
      </trkpt>
      <trkpt lat="37.5276018865406513214111328125" lon="-2.6758025586605072021484375">
        <ele>793.20001220703125</ele>
        <time>2019-10-28T09:15:41.000Z</time>
      </trkpt>
      <trkpt lat="37.52747020684182643890380859375" lon="-2.67602962441742420196533203125">
        <ele>792.20001220703125</ele>
        <time>2019-10-28T09:15:43.000Z</time>
      </trkpt>
      <trkpt lat="37.52733861096203327178955078125" lon="-2.67625476233661174774169921875">
        <ele>791.5999755859375</ele>
        <time>2019-10-28T09:15:45.000Z</time>
      </trkpt>
      <trkpt lat="37.527222521603107452392578125" lon="-2.67648358829319477081298828125">
        <ele>791</ele>
        <time>2019-10-28T09:15:47.000Z</time>
      </trkpt>
      <trkpt lat="37.5271757505834102630615234375" lon="-2.6766013540327548980712890625">
        <ele>791.20001220703125</ele>
        <time>2019-10-28T09:15:48.000Z</time>
      </trkpt>
      <trkpt lat="37.52710995264351367950439453125" lon="-2.67684769816696643829345703125">
        <ele>791.79998779296875</ele>
        <time>2019-10-28T09:15:50.000Z</time>
      </trkpt>
      <trkpt lat="37.5270912609994411468505859375" lon="-2.67709915526211261749267578125">
        <ele>791.5999755859375</ele>
        <time>2019-10-28T09:15:52.000Z</time>
      </trkpt>
      <trkpt lat="37.52708866260945796966552734375" lon="-2.6772232912480831146240234375">
        <ele>791.5999755859375</ele>
        <time>2019-10-28T09:15:53.000Z</time>
      </trkpt>
      <trkpt lat="37.5270961225032806396484375" lon="-2.67734541557729244232177734375">
        <ele>791.20001220703125</ele>
        <time>2019-10-28T09:15:54.000Z</time>
      </trkpt>
      <trkpt lat="37.527129985392093658447265625" lon="-2.67758212052285671234130859375">
        <ele>790</ele>
        <time>2019-10-28T09:15:56.000Z</time>
      </trkpt>
      <trkpt lat="37.5271673686802387237548828125" lon="-2.6778184063732624053955078125">
        <ele>788</ele>
        <time>2019-10-28T09:15:58.000Z</time>
      </trkpt>
      <trkpt lat="37.52718673087656497955322265625" lon="-2.6779354177415370941162109375">
        <ele>787.5999755859375</ele>
        <time>2019-10-28T09:15:59.000Z</time>
      </trkpt>
      <trkpt lat="37.52722629345953464508056640625" lon="-2.6781640760600566864013671875">
        <ele>787</ele>
        <time>2019-10-28T09:16:01.000Z</time>
      </trkpt>
      <trkpt lat="37.5272770039737224578857421875" lon="-2.678493149578571319580078125">
        <ele>787.20001220703125</ele>
        <time>2019-10-28T09:16:04.000Z</time>
      </trkpt>
      <trkpt lat="37.52731673419475555419921875" lon="-2.678813673555850982666015625">
        <ele>787.4000244140625</ele>
        <time>2019-10-28T09:16:07.000Z</time>
      </trkpt>
      <trkpt lat="37.5273309834301471710205078125" lon="-2.6791256479918956756591796875">
        <ele>787</ele>
        <time>2019-10-28T09:16:10.000Z</time>
      </trkpt>
      <trkpt lat="37.52732235006988048553466796875" lon="-2.67943250946700572967529296875">
        <ele>785.20001220703125</ele>
        <time>2019-10-28T09:16:13.000Z</time>
      </trkpt>
      <trkpt lat="37.52729485742747783660888671875" lon="-2.67973375506699085235595703125">
        <ele>783.79998779296875</ele>
        <time>2019-10-28T09:16:16.000Z</time>
      </trkpt>
      <trkpt lat="37.52726334147155284881591796875" lon="-2.68003047443926334381103515625">
        <ele>781.79998779296875</ele>
        <time>2019-10-28T09:16:19.000Z</time>
      </trkpt>
      <trkpt lat="37.52723953686654567718505859375" lon="-2.6803212426602840423583984375">
        <ele>781</ele>
        <time>2019-10-28T09:16:22.000Z</time>
      </trkpt>
      <trkpt lat="37.52721254713833332061767578125" lon="-2.68060798756778240203857421875">
        <ele>780.20001220703125</ele>
        <time>2019-10-28T09:16:25.000Z</time>
      </trkpt>
      <trkpt lat="37.52718455158174037933349609375" lon="-2.68089531920850276947021484375">
        <ele>779.4000244140625</ele>
        <time>2019-10-28T09:16:28.000Z</time>
      </trkpt>
      <trkpt lat="37.527166195213794708251953125" lon="-2.6811879314482212066650390625">
        <ele>779.4000244140625</ele>
        <time>2019-10-28T09:16:31.000Z</time>
      </trkpt>
      <trkpt lat="37.52716527320444583892822265625" lon="-2.681463025510311126708984375">
        <ele>779.4000244140625</ele>
        <time>2019-10-28T09:16:34.000Z</time>
      </trkpt>
      <trkpt lat="37.527184970676898956298828125" lon="-2.68173099495470523834228515625">
        <ele>778.5999755859375</ele>
        <time>2019-10-28T09:16:37.000Z</time>
      </trkpt>
      <trkpt lat="37.52721078693866729736328125" lon="-2.681991755962371826171875">
        <ele>778.20001220703125</ele>
        <time>2019-10-28T09:16:40.000Z</time>
      </trkpt>
      <trkpt lat="37.52724557183682918548583984375" lon="-2.6822586357593536376953125">
        <ele>776.79998779296875</ele>
        <time>2019-10-28T09:16:43.000Z</time>
      </trkpt>
      <trkpt lat="37.52727038227021694183349609375" lon="-2.6825280301272869110107421875">
        <ele>775.79998779296875</ele>
        <time>2019-10-28T09:16:46.000Z</time>
      </trkpt>
      <trkpt lat="37.5272840447723865509033203125" lon="-2.6827959157526493072509765625">
        <ele>775.79998779296875</ele>
        <time>2019-10-28T09:16:49.000Z</time>
      </trkpt>
      <trkpt lat="37.5272887386381626129150390625" lon="-2.68305902369320392608642578125">
        <ele>776.4000244140625</ele>
        <time>2019-10-28T09:16:52.000Z</time>
      </trkpt>
      <trkpt lat="37.5272758305072784423828125" lon="-2.68331383354961872100830078125">
        <ele>777.20001220703125</ele>
        <time>2019-10-28T09:16:55.000Z</time>
      </trkpt>
      <trkpt lat="37.5272629223763942718505859375" lon="-2.683477364480495452880859375">
        <ele>778</ele>
        <time>2019-10-28T09:16:57.000Z</time>
      </trkpt>
      <trkpt lat="37.52725060097873210906982421875" lon="-2.6837226189672946929931640625">
        <ele>778.20001220703125</ele>
        <time>2019-10-28T09:17:00.000Z</time>
      </trkpt>
      <trkpt lat="37.527240626513957977294921875" lon="-2.683966197073459625244140625">
        <ele>776.5999755859375</ele>
        <time>2019-10-28T09:17:03.000Z</time>
      </trkpt>
      <trkpt lat="37.52724171616137027740478515625" lon="-2.6842091046273708343505859375">
        <ele>773.79998779296875</ele>
        <time>2019-10-28T09:17:06.000Z</time>
      </trkpt>
      <trkpt lat="37.52726501785218715667724609375" lon="-2.68444337882101535797119140625">
        <ele>773.4000244140625</ele>
        <time>2019-10-28T09:17:09.000Z</time>
      </trkpt>
      <trkpt lat="37.52728614024817943572998046875" lon="-2.68467522226274013519287109375">
        <ele>773.20001220703125</ele>
        <time>2019-10-28T09:17:12.000Z</time>
      </trkpt>
      <trkpt lat="37.52731363289058208465576171875" lon="-2.68490128219127655029296875">
        <ele>772.79998779296875</ele>
        <time>2019-10-28T09:17:15.000Z</time>
      </trkpt>
      <trkpt lat="37.52735051326453685760498046875" lon="-2.6851260848343372344970703125">
        <ele>772</ele>
        <time>2019-10-28T09:17:18.000Z</time>
      </trkpt>
      <trkpt lat="37.52737213857471942901611328125" lon="-2.68542121164500713348388671875">
        <ele>771.4000244140625</ele>
        <time>2019-10-28T09:17:22.000Z</time>
      </trkpt>
      <trkpt lat="37.527381442487239837646484375" lon="-2.6856947131454944610595703125">
        <ele>770.5999755859375</ele>
        <time>2019-10-28T09:17:26.000Z</time>
      </trkpt>
      <trkpt lat="37.52734984271228313446044921875" lon="-2.68593284301459789276123046875">
        <ele>770</ele>
        <time>2019-10-28T09:17:30.000Z</time>
      </trkpt>
      <trkpt lat="37.52730592153966426849365234375" lon="-2.6861811988055706024169921875">
        <ele>769.79998779296875</ele>
        <time>2019-10-28T09:17:35.000Z</time>
      </trkpt>
      <trkpt lat="37.52725479193031787872314453125" lon="-2.6864031516015529632568359375">
        <ele>770</ele>
        <time>2019-10-28T09:17:40.000Z</time>
      </trkpt>
      <trkpt lat="37.5272428058087825775146484375" lon="-2.68644900061190128326416015625">
        <ele>770</ele>
        <time>2019-10-28T09:17:41.000Z</time>
      </trkpt>
      <trkpt lat="37.52721137367188930511474609375" lon="-2.68661512993276119232177734375">
        <ele>770.20001220703125</ele>
        <time>2019-10-28T09:17:45.000Z</time>
      </trkpt>
      <trkpt lat="37.52715672366321086883544921875" lon="-2.68685200251638889312744140625">
        <ele>770.79998779296875</ele>
        <time>2019-10-28T09:17:51.000Z</time>
      </trkpt>
      <trkpt lat="37.52713694237172603607177734375" lon="-2.686929367482662200927734375">
        <ele>771</ele>
        <time>2019-10-28T09:17:53.000Z</time>
      </trkpt>
      <trkpt lat="37.52709536813199520111083984375" lon="-2.68708602525293827056884765625">
        <ele>771.79998779296875</ele>
        <time>2019-10-28T09:17:57.000Z</time>
      </trkpt>
      <trkpt lat="37.5270644389092922210693359375" lon="-2.68723304383456707000732421875">
        <ele>772.5999755859375</ele>
        <time>2019-10-28T09:18:01.000Z</time>
      </trkpt>
      <trkpt lat="37.52699210308492183685302734375" lon="-2.687466479837894439697265625">
        <ele>775</ele>
        <time>2019-10-28T09:18:07.000Z</time>
      </trkpt>
      <trkpt lat="37.52690099179744720458984375" lon="-2.68766504712402820587158203125">
        <ele>776.5999755859375</ele>
        <time>2019-10-28T09:18:12.000Z</time>
      </trkpt>
      <trkpt lat="37.526751793920993804931640625" lon="-2.68784425221383571624755859375">
        <ele>778.20001220703125</ele>
        <time>2019-10-28T09:18:18.000Z</time>
      </trkpt>
      <trkpt lat="37.52660770900547504425048828125" lon="-2.68798540346324443817138671875">
        <ele>778.5999755859375</ele>
        <time>2019-10-28T09:18:24.000Z</time>
      </trkpt>
      <trkpt lat="37.5264492072165012359619140625" lon="-2.68811331130564212799072265625">
        <ele>778.79998779296875</ele>
        <time>2019-10-28T09:18:31.000Z</time>
      </trkpt>
      <trkpt lat="37.52629774622619152069091796875" lon="-2.688240297138690948486328125">
        <ele>779.5999755859375</ele>
        <time>2019-10-28T09:18:38.000Z</time>
      </trkpt>
      <trkpt lat="37.5261251628398895263671875" lon="-2.6883789338171482086181640625">
        <ele>781</ele>
        <time>2019-10-28T09:18:46.000Z</time>
      </trkpt>
      <trkpt lat="37.5260435231029987335205078125" lon="-2.68845143727958202362060546875">
        <ele>782</ele>
        <time>2019-10-28T09:18:50.000Z</time>
      </trkpt>
      <trkpt lat="37.52588954754173755645751953125" lon="-2.6886189915239810943603515625">
        <ele>784.4000244140625</ele>
        <time>2019-10-28T09:18:58.000Z</time>
      </trkpt>
      <trkpt lat="37.52577991224825382232666015625" lon="-2.68881035037338733673095703125">
        <ele>785.20001220703125</ele>
        <time>2019-10-28T09:19:05.000Z</time>
      </trkpt>
      <trkpt lat="37.52569223754107952117919921875" lon="-2.6890236698091030120849609375">
        <ele>785.5999755859375</ele>
        <time>2019-10-28T09:19:12.000Z</time>
      </trkpt>
      <trkpt lat="37.5256370007991790771484375" lon="-2.68924922682344913482666015625">
        <ele>785.79998779296875</ele>
        <time>2019-10-28T09:19:19.000Z</time>
      </trkpt>
      <trkpt lat="37.5255875475704669952392578125" lon="-2.6894938945770263671875">
        <ele>786</ele>
        <time>2019-10-28T09:19:26.000Z</time>
      </trkpt>
      <trkpt lat="37.52553482539951801300048828125" lon="-2.6897193677723407745361328125">
        <ele>786</ele>
        <time>2019-10-28T09:19:32.000Z</time>
      </trkpt>
      <trkpt lat="37.52548369579017162322998046875" lon="-2.68997744657099246978759765625">
        <ele>785</ele>
        <time>2019-10-28T09:19:38.000Z</time>
      </trkpt>
      <trkpt lat="37.525423429906368255615234375" lon="-2.69020727835595607757568359375">
        <ele>784</ele>
        <time>2019-10-28T09:19:43.000Z</time>
      </trkpt>
      <trkpt lat="37.5253602303564548492431640625" lon="-2.69045555032789707183837890625">
        <ele>782.79998779296875</ele>
        <time>2019-10-28T09:19:48.000Z</time>
      </trkpt>
      <trkpt lat="37.52525704912841320037841796875" lon="-2.69069292582571506500244140625">
        <ele>781.5999755859375</ele>
        <time>2019-10-28T09:19:53.000Z</time>
      </trkpt>
      <trkpt lat="37.52510935999453067779541015625" lon="-2.69088654778897762298583984375">
        <ele>780.4000244140625</ele>
        <time>2019-10-28T09:19:58.000Z</time>
      </trkpt>
      <trkpt lat="37.52495706081390380859375" lon="-2.69104580394923686981201171875">
        <ele>780.20001220703125</ele>
        <time>2019-10-28T09:20:03.000Z</time>
      </trkpt>
      <trkpt lat="37.52481012605130672454833984375" lon="-2.69118511117994785308837890625">
        <ele>780.79998779296875</ele>
        <time>2019-10-28T09:20:08.000Z</time>
      </trkpt>
      <trkpt lat="37.52466713078320026397705078125" lon="-2.691341936588287353515625">
        <ele>782.79998779296875</ele>
        <time>2019-10-28T09:20:14.000Z</time>
      </trkpt>
      <trkpt lat="37.52451659180223941802978515625" lon="-2.69151628017425537109375">
        <ele>784.79998779296875</ele>
        <time>2019-10-28T09:20:20.000Z</time>
      </trkpt>
      <trkpt lat="37.524367310106754302978515625" lon="-2.69168031401932239532470703125">
        <ele>786.4000244140625</ele>
        <time>2019-10-28T09:20:26.000Z</time>
      </trkpt>
      <trkpt lat="37.524235211312770843505859375" lon="-2.691864632070064544677734375">
        <ele>787</ele>
        <time>2019-10-28T09:20:32.000Z</time>
      </trkpt>
      <trkpt lat="37.5241361372172832489013671875" lon="-2.69205800257623195648193359375">
        <ele>787.4000244140625</ele>
        <time>2019-10-28T09:20:37.000Z</time>
      </trkpt>
      <trkpt lat="37.52406950108706951141357421875" lon="-2.69227006472647190093994140625">
        <ele>787.5999755859375</ele>
        <time>2019-10-28T09:20:42.000Z</time>
      </trkpt>
      <trkpt lat="37.52402993850409984588623046875" lon="-2.69253124482929706573486328125">
        <ele>788</ele>
        <time>2019-10-28T09:20:48.000Z</time>
      </trkpt>
      <trkpt lat="37.5240080617368221282958984375" lon="-2.69275856204330921173095703125">
        <ele>788.4000244140625</ele>
        <time>2019-10-28T09:20:53.000Z</time>
      </trkpt>
      <trkpt lat="37.52398534677922725677490234375" lon="-2.69298621453344821929931640625">
        <ele>788.79998779296875</ele>
        <time>2019-10-28T09:20:58.000Z</time>
      </trkpt>
      <trkpt lat="37.52395366318523883819580078125" lon="-2.69322493113577365875244140625">
        <ele>789.20001220703125</ele>
        <time>2019-10-28T09:21:03.000Z</time>
      </trkpt>
      <trkpt lat="37.52392650581896305084228515625" lon="-2.69346557557582855224609375">
        <ele>789.4000244140625</ele>
        <time>2019-10-28T09:21:08.000Z</time>
      </trkpt>
      <trkpt lat="37.5239042937755584716796875" lon="-2.6937044598162174224853515625">
        <ele>788.79998779296875</ele>
        <time>2019-10-28T09:21:13.000Z</time>
      </trkpt>
      <trkpt lat="37.52387369982898235321044921875" lon="-2.69393990747630596160888671875">
        <ele>788</ele>
        <time>2019-10-28T09:21:18.000Z</time>
      </trkpt>
      <trkpt lat="37.52383782528340816497802734375" lon="-2.694206200540065765380859375">
        <ele>788.20001220703125</ele>
        <time>2019-10-28T09:21:24.000Z</time>
      </trkpt>
      <trkpt lat="37.52379373647272586822509765625" lon="-2.6944346912205219268798828125">
        <ele>790</ele>
        <time>2019-10-28T09:21:29.000Z</time>
      </trkpt>
      <trkpt lat="37.5237455405294895172119140625" lon="-2.69467533566057682037353515625">
        <ele>791.20001220703125</ele>
        <time>2019-10-28T09:21:33.000Z</time>
      </trkpt>
      <trkpt lat="37.5236932374536991119384765625" lon="-2.69490717910230159759521484375">
        <ele>792</ele>
        <time>2019-10-28T09:21:36.000Z</time>
      </trkpt>
      <trkpt lat="37.5236184708774089813232421875" lon="-2.69516735337674617767333984375">
        <ele>790.4000244140625</ele>
        <time>2019-10-28T09:21:39.000Z</time>
      </trkpt>
      <trkpt lat="37.52353557385504245758056640625" lon="-2.695460803806781768798828125">
        <ele>786.4000244140625</ele>
        <time>2019-10-28T09:21:42.000Z</time>
      </trkpt>
      <trkpt lat="37.52343599684536457061767578125" lon="-2.6957768015563488006591796875">
        <ele>782.5999755859375</ele>
        <time>2019-10-28T09:21:45.000Z</time>
      </trkpt>
      <trkpt lat="37.5233673490583896636962890625" lon="-2.69599950872361660003662109375">
        <ele>780.20001220703125</ele>
        <time>2019-10-28T09:21:47.000Z</time>
      </trkpt>
      <trkpt lat="37.52329400740563869476318359375" lon="-2.696232609450817108154296875">
        <ele>778.20001220703125</ele>
        <time>2019-10-28T09:21:49.000Z</time>
      </trkpt>
      <trkpt lat="37.52321890555322170257568359375" lon="-2.69647367298603057861328125">
        <ele>775.4000244140625</ele>
        <time>2019-10-28T09:21:51.000Z</time>
      </trkpt>
      <trkpt lat="37.52313793636858463287353515625" lon="-2.69671800546348094940185546875">
        <ele>773.20001220703125</ele>
        <time>2019-10-28T09:21:53.000Z</time>
      </trkpt>
      <trkpt lat="37.5230478309094905853271484375" lon="-2.696960829198360443115234375">
        <ele>773</ele>
        <time>2019-10-28T09:21:55.000Z</time>
      </trkpt>
      <trkpt lat="37.52294339239597320556640625" lon="-2.697195522487163543701171875">
        <ele>774</ele>
        <time>2019-10-28T09:21:57.000Z</time>
      </trkpt>
      <trkpt lat="37.52281808294355869293212890625" lon="-2.6974203251302242279052734375">
        <ele>774.20001220703125</ele>
        <time>2019-10-28T09:21:59.000Z</time>
      </trkpt>
      <trkpt lat="37.522666789591312408447265625" lon="-2.69762660376727581024169921875">
        <ele>772</ele>
        <time>2019-10-28T09:22:01.000Z</time>
      </trkpt>
      <trkpt lat="37.522488422691822052001953125" lon="-2.69781067036092281341552734375">
        <ele>768.79998779296875</ele>
        <time>2019-10-28T09:22:03.000Z</time>
      </trkpt>
      <trkpt lat="37.5222907774150371551513671875" lon="-2.69797730259597301483154296875">
        <ele>766.20001220703125</ele>
        <time>2019-10-28T09:22:05.000Z</time>
      </trkpt>
      <trkpt lat="37.52208164893090724945068359375" lon="-2.69813018850982189178466796875">
        <ele>764</ele>
        <time>2019-10-28T09:22:07.000Z</time>
      </trkpt>
      <trkpt lat="37.52186707220971584320068359375" lon="-2.698270417749881744384765625">
        <ele>763</ele>
        <time>2019-10-28T09:22:09.000Z</time>
      </trkpt>
      <trkpt lat="37.52165861427783966064453125" lon="-2.69840561784803867340087890625">
        <ele>762.79998779296875</ele>
        <time>2019-10-28T09:22:11.000Z</time>
      </trkpt>
      <trkpt lat="37.521457113325595855712890625" lon="-2.6985331065952777862548828125">
        <ele>761.79998779296875</ele>
        <time>2019-10-28T09:22:13.000Z</time>
      </trkpt>
      <trkpt lat="37.5212675146758556365966796875" lon="-2.6986511237919330596923828125">
        <ele>760.5999755859375</ele>
        <time>2019-10-28T09:22:15.000Z</time>
      </trkpt>
      <trkpt lat="37.52109308727085590362548828125" lon="-2.69875631667673587799072265625">
        <ele>759.79998779296875</ele>
        <time>2019-10-28T09:22:17.000Z</time>
      </trkpt>
      <trkpt lat="37.52086644060909748077392578125" lon="-2.69890869967639446258544921875">
        <ele>760</ele>
        <time>2019-10-28T09:22:20.000Z</time>
      </trkpt>
      <trkpt lat="37.52067633904516696929931640625" lon="-2.69904934801161289215087890625">
        <ele>760.5999755859375</ele>
        <time>2019-10-28T09:22:23.000Z</time>
      </trkpt>
      <trkpt lat="37.52051322720944881439208984375" lon="-2.6992016471922397613525390625">
        <ele>761.5999755859375</ele>
        <time>2019-10-28T09:22:26.000Z</time>
      </trkpt>
      <trkpt lat="37.52042320556938648223876953125" lon="-2.69930541515350341796875">
        <ele>762.4000244140625</ele>
        <time>2019-10-28T09:22:28.000Z</time>
      </trkpt>
      <trkpt lat="37.5202797912061214447021484375" lon="-2.69952912814915180206298828125">
        <ele>764.20001220703125</ele>
        <time>2019-10-28T09:22:32.000Z</time>
      </trkpt>
      <trkpt lat="37.520253472030162811279296875" lon="-2.699588723480701446533203125">
        <ele>765</ele>
        <time>2019-10-28T09:22:33.000Z</time>
      </trkpt>
      <trkpt lat="37.52017669379711151123046875" lon="-2.69982836209237575531005859375">
        <ele>767.20001220703125</ele>
        <time>2019-10-28T09:22:37.000Z</time>
      </trkpt>
      <trkpt lat="37.52014576457440853118896484375" lon="-2.70010546781122684478759765625">
        <ele>768</ele>
        <time>2019-10-28T09:22:42.000Z</time>
      </trkpt>
      <trkpt lat="37.5201429985463619232177734375" lon="-2.7003368921577930450439453125">
        <ele>769</ele>
        <time>2019-10-28T09:22:46.000Z</time>
      </trkpt>
      <trkpt lat="37.52015330828726291656494140625" lon="-2.70057066343724727630615234375">
        <ele>769</ele>
        <time>2019-10-28T09:22:50.000Z</time>
      </trkpt>
      <trkpt lat="37.52016990445554256439208984375" lon="-2.70080275833606719970703125">
        <ele>768.5999755859375</ele>
        <time>2019-10-28T09:22:54.000Z</time>
      </trkpt>
      <trkpt lat="37.52018884755671024322509765625" lon="-2.70103619433939456939697265625">
        <ele>768.5999755859375</ele>
        <time>2019-10-28T09:22:58.000Z</time>
      </trkpt>
      <trkpt lat="37.520202510058879852294921875" lon="-2.70126300863921642303466796875">
        <ele>768.4000244140625</ele>
        <time>2019-10-28T09:23:02.000Z</time>
      </trkpt>
      <trkpt lat="37.52021583728492259979248046875" lon="-2.7014959417283535003662109375">
        <ele>767.5999755859375</ele>
        <time>2019-10-28T09:23:06.000Z</time>
      </trkpt>
      <trkpt lat="37.52023679204285144805908203125" lon="-2.7016682736575603485107421875">
        <ele>767</ele>
        <time>2019-10-28T09:23:09.000Z</time>
      </trkpt>
      <trkpt lat="37.5202533043920993804931640625" lon="-2.70189978182315826416015625">
        <ele>766.79998779296875</ele>
        <time>2019-10-28T09:23:13.000Z</time>
      </trkpt>
      <trkpt lat="37.52026252448558807373046875" lon="-2.702141515910625457763671875">
        <ele>766.5999755859375</ele>
        <time>2019-10-28T09:23:17.000Z</time>
      </trkpt>
      <trkpt lat="37.52028289251029491424560546875" lon="-2.70239775069057941436767578125">
        <ele>765.5999755859375</ele>
        <time>2019-10-28T09:23:21.000Z</time>
      </trkpt>
      <trkpt lat="37.5203089602291584014892578125" lon="-2.70266689360141754150390625">
        <ele>764.5999755859375</ele>
        <time>2019-10-28T09:23:25.000Z</time>
      </trkpt>
      <trkpt lat="37.52033301629126071929931640625" lon="-2.70295028574764728546142578125">
        <ele>763.79998779296875</ele>
        <time>2019-10-28T09:23:29.000Z</time>
      </trkpt>
      <trkpt lat="37.52035564742982387542724609375" lon="-2.7032524533569812774658203125">
        <ele>762</ele>
        <time>2019-10-28T09:23:33.000Z</time>
      </trkpt>
      <trkpt lat="37.520368807017803192138671875" lon="-2.7034931816160678863525390625">
        <ele>761</ele>
        <time>2019-10-28T09:23:36.000Z</time>
      </trkpt>
      <trkpt lat="37.5203900970518589019775390625" lon="-2.7037406153976917266845703125">
        <ele>759.79998779296875</ele>
        <time>2019-10-28T09:23:39.000Z</time>
      </trkpt>
      <trkpt lat="37.52041214145720005035400390625" lon="-2.7039903961122035980224609375">
        <ele>759</ele>
        <time>2019-10-28T09:23:42.000Z</time>
      </trkpt>
      <trkpt lat="37.5204273127019405364990234375" lon="-2.704249732196331024169921875">
        <ele>759</ele>
        <time>2019-10-28T09:23:45.000Z</time>
      </trkpt>
      <trkpt lat="37.520452626049518585205078125" lon="-2.70451149903237819671630859375">
        <ele>758</ele>
        <time>2019-10-28T09:23:48.000Z</time>
      </trkpt>
      <trkpt lat="37.52047115005552768707275390625" lon="-2.70477519370615482330322265625">
        <ele>758.5999755859375</ele>
        <time>2019-10-28T09:23:51.000Z</time>
      </trkpt>
      <trkpt lat="37.52048858441412448883056640625" lon="-2.705046348273754119873046875">
        <ele>759.79998779296875</ele>
        <time>2019-10-28T09:23:54.000Z</time>
      </trkpt>
      <trkpt lat="37.52051004208624362945556640625" lon="-2.70531984977424144744873046875">
        <ele>759.79998779296875</ele>
        <time>2019-10-28T09:23:57.000Z</time>
      </trkpt>
      <trkpt lat="37.52052814699709415435791015625" lon="-2.70559712313115596771240234375">
        <ele>759</ele>
        <time>2019-10-28T09:24:00.000Z</time>
      </trkpt>
      <trkpt lat="37.52054281532764434814453125" lon="-2.7058763243257999420166015625">
        <ele>757</ele>
        <time>2019-10-28T09:24:03.000Z</time>
      </trkpt>
      <trkpt lat="37.52056687138974666595458984375" lon="-2.70615636371076107025146484375">
        <ele>755</ele>
        <time>2019-10-28T09:24:06.000Z</time>
      </trkpt>
      <trkpt lat="37.5205892510712146759033203125" lon="-2.70644386298954486846923828125">
        <ele>754</ele>
        <time>2019-10-28T09:24:09.000Z</time>
      </trkpt>
      <trkpt lat="37.5206100381910800933837890625" lon="-2.7067403309047222137451171875">
        <ele>753.79998779296875</ele>
        <time>2019-10-28T09:24:12.000Z</time>
      </trkpt>
      <trkpt lat="37.52063761465251445770263671875" lon="-2.70704266615211963653564453125">
        <ele>753.5999755859375</ele>
        <time>2019-10-28T09:24:15.000Z</time>
      </trkpt>
      <trkpt lat="37.5206616707146167755126953125" lon="-2.7073558978736400604248046875">
        <ele>752.79998779296875</ele>
        <time>2019-10-28T09:24:18.000Z</time>
      </trkpt>
      <trkpt lat="37.5206807814538478851318359375" lon="-2.707678936421871185302734375">
        <ele>750.5999755859375</ele>
        <time>2019-10-28T09:24:21.000Z</time>
      </trkpt>
      <trkpt lat="37.5207082740962505340576171875" lon="-2.70801077596843242645263671875">
        <ele>749.5999755859375</ele>
        <time>2019-10-28T09:24:24.000Z</time>
      </trkpt>
      <trkpt lat="37.5207196734845638275146484375" lon="-2.70812342874705791473388671875">
        <ele>749.5999755859375</ele>
        <time>2019-10-28T09:24:25.000Z</time>
      </trkpt>
      <trkpt lat="37.52073870040476322174072265625" lon="-2.70835585892200469970703125">
        <ele>748.79998779296875</ele>
        <time>2019-10-28T09:24:27.000Z</time>
      </trkpt>
      <trkpt lat="37.52074389718472957611083984375" lon="-2.7085900492966175079345703125">
        <ele>748</ele>
        <time>2019-10-28T09:24:29.000Z</time>
      </trkpt>
      <trkpt lat="37.52073719166219234466552734375" lon="-2.70882197655737400054931640625">
        <ele>747</ele>
        <time>2019-10-28T09:24:31.000Z</time>
      </trkpt>
      <trkpt lat="37.5207186676561832427978515625" lon="-2.70905046723783016204833984375">
        <ele>745.79998779296875</ele>
        <time>2019-10-28T09:24:33.000Z</time>
      </trkpt>
      <trkpt lat="37.52070282585918903350830078125" lon="-2.7091606892645359039306640625">
        <ele>745</ele>
        <time>2019-10-28T09:24:34.000Z</time>
      </trkpt>
      <trkpt lat="37.52063593827188014984130859375" lon="-2.70947526209056377410888671875">
        <ele>741.5999755859375</ele>
        <time>2019-10-28T09:24:37.000Z</time>
      </trkpt>
      <trkpt lat="37.52055094577372074127197265625" lon="-2.70976913161575794219970703125">
        <ele>740.20001220703125</ele>
        <time>2019-10-28T09:24:40.000Z</time>
      </trkpt>
      <trkpt lat="37.52045941539108753204345703125" lon="-2.71003626286983489990234375">
        <ele>739.4000244140625</ele>
        <time>2019-10-28T09:24:43.000Z</time>
      </trkpt>
      <trkpt lat="37.52037241123616695404052734375" lon="-2.71028143353760242462158203125">
        <ele>739.5999755859375</ele>
        <time>2019-10-28T09:24:46.000Z</time>
      </trkpt>
      <trkpt lat="37.52028909511864185333251953125" lon="-2.7105049788951873779296875">
        <ele>741.20001220703125</ele>
        <time>2019-10-28T09:24:49.000Z</time>
      </trkpt>
      <trkpt lat="37.52021022140979766845703125" lon="-2.7107093296945095062255859375">
        <ele>742.20001220703125</ele>
        <time>2019-10-28T09:24:52.000Z</time>
      </trkpt>
      <trkpt lat="37.52019052393734455108642578125" lon="-2.71076875738799571990966796875">
        <ele>742.5999755859375</ele>
        <time>2019-10-28T09:24:53.000Z</time>
      </trkpt>
      <trkpt lat="37.5200833193957805633544921875" lon="-2.71088920533657073974609375">
        <ele>742.79998779296875</ele>
        <time>2019-10-28T09:25:12.000Z</time>
      </trkpt>
      <trkpt lat="37.52007686533033847808837890625" lon="-2.71102624945342540740966796875">
        <ele>743.20001220703125</ele>
        <time>2019-10-28T09:27:09.000Z</time>
      </trkpt>
      <trkpt lat="37.52000662498176097869873046875" lon="-2.71127133630216121673583984375">
        <ele>743.4000244140625</ele>
        <time>2019-10-28T09:27:15.000Z</time>
      </trkpt>
      <trkpt lat="37.519910819828510284423828125" lon="-2.711492367088794708251953125">
        <ele>743.20001220703125</ele>
        <time>2019-10-28T09:27:20.000Z</time>
      </trkpt>
      <trkpt lat="37.519902102649211883544921875" lon="-2.71172462962567806243896484375">
        <ele>743.20001220703125</ele>
        <time>2019-10-28T09:27:25.000Z</time>
      </trkpt>
      <trkpt lat="37.51991576515138149261474609375" lon="-2.711986564099788665771484375">
        <ele>743.5999755859375</ele>
        <time>2019-10-28T09:27:30.000Z</time>
      </trkpt>
      <trkpt lat="37.51986958086490631103515625" lon="-2.712252102792263031005859375">
        <ele>743.20001220703125</ele>
        <time>2019-10-28T09:27:35.000Z</time>
      </trkpt>
      <trkpt lat="37.51977394334971904754638671875" lon="-2.7125064097344875335693359375">
        <ele>742.20001220703125</ele>
        <time>2019-10-28T09:27:40.000Z</time>
      </trkpt>
      <trkpt lat="37.51966749317944049835205078125" lon="-2.71275610662996768951416015625">
        <ele>740.79998779296875</ele>
        <time>2019-10-28T09:27:45.000Z</time>
      </trkpt>
      <trkpt lat="37.51955836080014705657958984375" lon="-2.71299884654581546783447265625">
        <ele>741.20001220703125</ele>
        <time>2019-10-28T09:27:50.000Z</time>
      </trkpt>
      <trkpt lat="37.519459538161754608154296875" lon="-2.7132461965084075927734375">
        <ele>742</ele>
        <time>2019-10-28T09:27:55.000Z</time>
      </trkpt>
      <trkpt lat="37.51935367472469806671142578125" lon="-2.71349019370973110198974609375">
        <ele>742.4000244140625</ele>
        <time>2019-10-28T09:28:00.000Z</time>
      </trkpt>
      <trkpt lat="37.51926901750266551971435546875" lon="-2.71369186230003833770751953125">
        <ele>743</ele>
        <time>2019-10-28T09:28:04.000Z</time>
      </trkpt>
      <trkpt lat="37.5191609747707843780517578125" lon="-2.71393217146396636962890625">
        <ele>744</ele>
        <time>2019-10-28T09:28:09.000Z</time>
      </trkpt>
      <trkpt lat="37.5191192328929901123046875" lon="-2.71402227692306041717529296875">
        <ele>744</ele>
        <time>2019-10-28T09:28:11.000Z</time>
      </trkpt>
      <trkpt lat="37.5190245173871517181396484375" lon="-2.71423601545393466949462890625">
        <ele>744</ele>
        <time>2019-10-28T09:28:16.000Z</time>
      </trkpt>
      <trkpt lat="37.51900188624858856201171875" lon="-2.7142753265798091888427734375">
        <ele>743.79998779296875</ele>
        <time>2019-10-28T09:28:17.000Z</time>
      </trkpt>
      <trkpt lat="37.51894899643957614898681640625" lon="-2.7143480814993381500244140625">
        <ele>743.5999755859375</ele>
        <time>2019-10-28T09:28:19.000Z</time>
      </trkpt>
      <trkpt lat="37.51885235309600830078125" lon="-2.71444556303322315216064453125">
        <ele>743.20001220703125</ele>
        <time>2019-10-28T09:28:22.000Z</time>
      </trkpt>
      <trkpt lat="37.5186942704021930694580078125" lon="-2.71451010368764400482177734375">
        <ele>743</ele>
        <time>2019-10-28T09:28:26.000Z</time>
      </trkpt>
      <trkpt lat="37.51850056461989879608154296875" lon="-2.7145529352128505706787109375">
        <ele>743.4000244140625</ele>
        <time>2019-10-28T09:28:31.000Z</time>
      </trkpt>
      <trkpt lat="37.518320269882678985595703125" lon="-2.714578248560428619384765625">
        <ele>744</ele>
        <time>2019-10-28T09:28:36.000Z</time>
      </trkpt>
      <trkpt lat="37.51811717636883258819580078125" lon="-2.71461621858179569244384765625">
        <ele>744.4000244140625</ele>
        <time>2019-10-28T09:28:42.000Z</time>
      </trkpt>
      <trkpt lat="37.51792908646166324615478515625" lon="-2.7146756462752819061279296875">
        <ele>744.5999755859375</ele>
        <time>2019-10-28T09:28:48.000Z</time>
      </trkpt>
      <trkpt lat="37.51779229380190372467041015625" lon="-2.7148281969130039215087890625">
        <ele>745.5999755859375</ele>
        <time>2019-10-28T09:28:54.000Z</time>
      </trkpt>
      <trkpt lat="37.51768550835549831390380859375" lon="-2.7150514908134937286376953125">
        <ele>747.5999755859375</ele>
        <time>2019-10-28T09:29:01.000Z</time>
      </trkpt>
      <trkpt lat="37.517582662403583526611328125" lon="-2.71525022573769092559814453125">
        <ele>749.4000244140625</ele>
        <time>2019-10-28T09:29:08.000Z</time>
      </trkpt>
      <trkpt lat="37.5174681656062602996826171875" lon="-2.71546044386923313140869140625">
        <ele>750.20001220703125</ele>
        <time>2019-10-28T09:29:16.000Z</time>
      </trkpt>
      <trkpt lat="37.51735945232212543487548828125" lon="-2.71566085517406463623046875">
        <ele>750</ele>
        <time>2019-10-28T09:29:23.000Z</time>
      </trkpt>
      <trkpt lat="37.5172435306012630462646484375" lon="-2.7158819697797298431396484375">
        <ele>749.20001220703125</ele>
        <time>2019-10-28T09:29:30.000Z</time>
      </trkpt>
      <trkpt lat="37.5171637348830699920654296875" lon="-2.71609864197671413421630859375">
        <ele>749.20001220703125</ele>
        <time>2019-10-28T09:29:36.000Z</time>
      </trkpt>
      <trkpt lat="37.51716281287372112274169921875" lon="-2.71633467637002468109130859375">
        <ele>750.79998779296875</ele>
        <time>2019-10-28T09:29:42.000Z</time>
      </trkpt>
      <trkpt lat="37.51715929247438907623291015625" lon="-2.71658345125615596771240234375">
        <ele>752</ele>
        <time>2019-10-28T09:29:51.000Z</time>
      </trkpt>
      <trkpt lat="37.51713431440293788909912109375" lon="-2.71683909930288791656494140625">
        <ele>752.5999755859375</ele>
        <time>2019-10-28T09:29:58.000Z</time>
      </trkpt>
      <trkpt lat="37.5170722045004367828369140625" lon="-2.7170755527913570404052734375">
        <ele>752.4000244140625</ele>
        <time>2019-10-28T09:30:04.000Z</time>
      </trkpt>
      <trkpt lat="37.51700925640761852264404296875" lon="-2.71730278618633747100830078125">
        <ele>752.20001220703125</ele>
        <time>2019-10-28T09:30:10.000Z</time>
      </trkpt>
      <trkpt lat="37.51699819229543209075927734375" lon="-2.71733983419835567474365234375">
        <ele>752.20001220703125</ele>
        <time>2019-10-28T09:30:11.000Z</time>
      </trkpt>
      <trkpt lat="37.516924850642681121826171875" lon="-2.71757938899099826812744140625">
        <ele>752</ele>
        <time>2019-10-28T09:30:17.000Z</time>
      </trkpt>
      <trkpt lat="37.5168616510927677154541015625" lon="-2.7177967317402362823486328125">
        <ele>752</ele>
        <time>2019-10-28T09:30:22.000Z</time>
      </trkpt>
      <trkpt lat="37.5168137066066265106201171875" lon="-2.718020863831043243408203125">
        <ele>752.5999755859375</ele>
        <time>2019-10-28T09:30:27.000Z</time>
      </trkpt>
      <trkpt lat="37.51677540130913257598876953125" lon="-2.718255221843719482421875">
        <ele>754</ele>
        <time>2019-10-28T09:30:36.000Z</time>
      </trkpt>
      <trkpt lat="37.5166034884750843048095703125" lon="-2.7183730714023113250732421875">
        <ele>754.20001220703125</ele>
        <time>2019-10-28T09:30:45.000Z</time>
      </trkpt>
      <trkpt lat="37.516426630318164825439453125" lon="-2.71851765923202037811279296875">
        <ele>753.20001220703125</ele>
        <time>2019-10-28T09:30:52.000Z</time>
      </trkpt>
      <trkpt lat="37.51624323427677154541015625" lon="-2.718555964529514312744140625">
        <ele>752.5999755859375</ele>
        <time>2019-10-28T09:30:58.000Z</time>
      </trkpt>
      <trkpt lat="37.51604148186743259429931640625" lon="-2.71858446300029754638671875">
        <ele>752.4000244140625</ele>
        <time>2019-10-28T09:31:04.000Z</time>
      </trkpt>
      <trkpt lat="37.51587099395692348480224609375" lon="-2.71866015158593654632568359375">
        <ele>753</ele>
        <time>2019-10-28T09:31:09.000Z</time>
      </trkpt>
      <trkpt lat="37.515672259032726287841796875" lon="-2.71867959760129451751708984375">
        <ele>753</ele>
        <time>2019-10-28T09:31:15.000Z</time>
      </trkpt>
      <trkpt lat="37.51552968285977840423583984375" lon="-2.7188139595091342926025390625">
        <ele>754</ele>
        <time>2019-10-28T09:31:19.000Z</time>
      </trkpt>
      <trkpt lat="37.51541099511086940765380859375" lon="-2.71901152096688747406005859375">
        <ele>755.4000244140625</ele>
        <time>2019-10-28T09:31:23.000Z</time>
      </trkpt>
      <trkpt lat="37.51528711058199405670166015625" lon="-2.719201035797595977783203125">
        <ele>756.79998779296875</ele>
        <time>2019-10-28T09:31:28.000Z</time>
      </trkpt>
      <trkpt lat="37.51516993157565593719482421875" lon="-2.71940479986369609832763671875">
        <ele>757.79998779296875</ele>
        <time>2019-10-28T09:31:34.000Z</time>
      </trkpt>
      <trkpt lat="37.5150769762694835662841796875" lon="-2.7196139283478260040283203125">
        <ele>759</ele>
        <time>2019-10-28T09:31:40.000Z</time>
      </trkpt>
      <trkpt lat="37.51497932709753513336181640625" lon="-2.7198211289942264556884765625">
        <ele>760</ele>
        <time>2019-10-28T09:31:47.000Z</time>
      </trkpt>
      <trkpt lat="37.51487069763243198394775390625" lon="-2.72002204321324825286865234375">
        <ele>760</ele>
        <time>2019-10-28T09:31:53.000Z</time>
      </trkpt>
      <trkpt lat="37.514762990176677703857421875" lon="-2.72021248005330562591552734375">
        <ele>760</ele>
        <time>2019-10-28T09:31:58.000Z</time>
      </trkpt>
      <trkpt lat="37.51464195549488067626953125" lon="-2.7204296551644802093505859375">
        <ele>760</ele>
        <time>2019-10-28T09:32:04.000Z</time>
      </trkpt>
      <trkpt lat="37.51453039236366748809814453125" lon="-2.7206314913928508758544921875">
        <ele>760</ele>
        <time>2019-10-28T09:32:10.000Z</time>
      </trkpt>
      <trkpt lat="37.51441128551959991455078125" lon="-2.72084447555243968963623046875">
        <ele>759.79998779296875</ele>
        <time>2019-10-28T09:32:17.000Z</time>
      </trkpt>
      <trkpt lat="37.51430139876902103424072265625" lon="-2.72104698233306407928466796875">
        <ele>760</ele>
        <time>2019-10-28T09:32:23.000Z</time>
      </trkpt>
      <trkpt lat="37.51418589614331722259521484375" lon="-2.72126692347228527069091796875">
        <ele>760.79998779296875</ele>
        <time>2019-10-28T09:32:29.000Z</time>
      </trkpt>
      <trkpt lat="37.51407844014465808868408203125" lon="-2.72146113216876983642578125">
        <ele>761.79998779296875</ele>
        <time>2019-10-28T09:32:34.000Z</time>
      </trkpt>
      <trkpt lat="37.51396109350025653839111328125" lon="-2.7216589450836181640625">
        <ele>762</ele>
        <time>2019-10-28T09:32:39.000Z</time>
      </trkpt>
      <trkpt lat="37.51385363750159740447998046875" lon="-2.72185198031365871429443359375">
        <ele>762.4000244140625</ele>
        <time>2019-10-28T09:32:44.000Z</time>
      </trkpt>
      <trkpt lat="37.51376344822347164154052734375" lon="-2.7220550738275051116943359375">
        <ele>763.20001220703125</ele>
        <time>2019-10-28T09:32:49.000Z</time>
      </trkpt>
      <trkpt lat="37.5136617757380008697509765625" lon="-2.72225062362849712371826171875">
        <ele>763.79998779296875</ele>
        <time>2019-10-28T09:32:54.000Z</time>
      </trkpt>
      <trkpt lat="37.5135343708097934722900390625" lon="-2.72243955172598361968994140625">
        <ele>763.79998779296875</ele>
        <time>2019-10-28T09:32:59.000Z</time>
      </trkpt>
      <trkpt lat="37.51341543160378932952880859375" lon="-2.72264323197305202484130859375">
        <ele>763.20001220703125</ele>
        <time>2019-10-28T09:33:04.000Z</time>
      </trkpt>
      <trkpt lat="37.5133107416331768035888671875" lon="-2.722831405699253082275390625">
        <ele>763</ele>
        <time>2019-10-28T09:33:09.000Z</time>
      </trkpt>
      <trkpt lat="37.51320035196840763092041015625" lon="-2.72301723249256610870361328125">
        <ele>762.5999755859375</ele>
        <time>2019-10-28T09:33:14.000Z</time>
      </trkpt>
      <trkpt lat="37.513093650341033935546875" lon="-2.72322309203445911407470703125">
        <ele>762.5999755859375</ele>
        <time>2019-10-28T09:33:19.000Z</time>
      </trkpt>
      <trkpt lat="37.51298510469496250152587890625" lon="-2.7234112657606601715087890625">
        <ele>763</ele>
        <time>2019-10-28T09:33:24.000Z</time>
      </trkpt>
      <trkpt lat="37.51286658458411693572998046875" lon="-2.7236338891088962554931640625">
        <ele>763.79998779296875</ele>
        <time>2019-10-28T09:33:30.000Z</time>
      </trkpt>
      <trkpt lat="37.512752674520015716552734375" lon="-2.72383631207048892974853515625">
        <ele>764.5999755859375</ele>
        <time>2019-10-28T09:33:35.000Z</time>
      </trkpt>
      <trkpt lat="37.51264027319848537445068359375" lon="-2.72402205504477024078369140625">
        <ele>766</ele>
        <time>2019-10-28T09:33:40.000Z</time>
      </trkpt>
      <trkpt lat="37.5125315599143505096435546875" lon="-2.72421919740736484527587890625">
        <ele>767.79998779296875</ele>
        <time>2019-10-28T09:33:45.000Z</time>
      </trkpt>
      <trkpt lat="37.51243039034307003021240234375" lon="-2.72441013716161251068115234375">
        <ele>769.5999755859375</ele>
        <time>2019-10-28T09:33:51.000Z</time>
      </trkpt>
      <trkpt lat="37.51231857575476169586181640625" lon="-2.72461230866611003875732421875">
        <ele>771</ele>
        <time>2019-10-28T09:33:58.000Z</time>
      </trkpt>
      <trkpt lat="37.51220776699483394622802734375" lon="-2.72482059895992279052734375">
        <ele>772</ele>
        <time>2019-10-28T09:34:05.000Z</time>
      </trkpt>
      <trkpt lat="37.51208245754241943359375" lon="-2.72503324784338474273681640625">
        <ele>772.5999755859375</ele>
        <time>2019-10-28T09:34:12.000Z</time>
      </trkpt>
      <trkpt lat="37.51197315752506256103515625" lon="-2.72523106075823307037353515625">
        <ele>773</ele>
        <time>2019-10-28T09:34:18.000Z</time>
      </trkpt>
      <trkpt lat="37.5118589960038661956787109375" lon="-2.7254376746714115142822265625">
        <ele>773</ele>
        <time>2019-10-28T09:34:24.000Z</time>
      </trkpt>
      <trkpt lat="37.51173469237983226776123046875" lon="-2.725651748478412628173828125">
        <ele>772.79998779296875</ele>
        <time>2019-10-28T09:34:30.000Z</time>
      </trkpt>
      <trkpt lat="37.51161365769803524017333984375" lon="-2.7258606255054473876953125">
        <ele>772.5999755859375</ele>
        <time>2019-10-28T09:34:36.000Z</time>
      </trkpt>
      <trkpt lat="37.51159169711172580718994140625" lon="-2.725895829498767852783203125">
        <ele>772.5999755859375</ele>
        <time>2019-10-28T09:34:37.000Z</time>
      </trkpt>
      <trkpt lat="37.511461861431598663330078125" lon="-2.7260938100516796112060546875">
        <ele>773.4000244140625</ele>
        <time>2019-10-28T09:34:43.000Z</time>
      </trkpt>
      <trkpt lat="37.51133688725531101226806640625" lon="-2.72631685249507427215576171875">
        <ele>774.4000244140625</ele>
        <time>2019-10-28T09:34:49.000Z</time>
      </trkpt>
      <trkpt lat="37.51122557558119297027587890625" lon="-2.7265447564423084259033203125">
        <ele>775.20001220703125</ele>
        <time>2019-10-28T09:34:55.000Z</time>
      </trkpt>
      <trkpt lat="37.5111073069274425506591796875" lon="-2.726769559085369110107421875">
        <ele>775.79998779296875</ele>
        <time>2019-10-28T09:35:01.000Z</time>
      </trkpt>
      <trkpt lat="37.510996498167514801025390625" lon="-2.72698556073009967803955078125">
        <ele>775.5999755859375</ele>
        <time>2019-10-28T09:35:07.000Z</time>
      </trkpt>
      <trkpt lat="37.51088392920792102813720703125" lon="-2.7272042445838451385498046875">
        <ele>775.79998779296875</ele>
        <time>2019-10-28T09:35:13.000Z</time>
      </trkpt>
      <trkpt lat="37.5107837654650211334228515625" lon="-2.727395854890346527099609375">
        <ele>775.79998779296875</ele>
        <time>2019-10-28T09:35:18.000Z</time>
      </trkpt>
      <trkpt lat="37.51068108715116977691650390625" lon="-2.72759945131838321685791015625">
        <ele>775.4000244140625</ele>
        <time>2019-10-28T09:35:23.000Z</time>
      </trkpt>
      <trkpt lat="37.5105631537735462188720703125" lon="-2.7277810871601104736328125">
        <ele>775.20001220703125</ele>
        <time>2019-10-28T09:35:28.000Z</time>
      </trkpt>
      <trkpt lat="37.51044773496687412261962890625" lon="-2.727974541485309600830078125">
        <ele>775</ele>
        <time>2019-10-28T09:35:33.000Z</time>
      </trkpt>
      <trkpt lat="37.510331310331821441650390625" lon="-2.7281748689711093902587890625">
        <ele>775</ele>
        <time>2019-10-28T09:35:38.000Z</time>
      </trkpt>
      <trkpt lat="37.51022226177155971527099609375" lon="-2.72836840711534023284912109375">
        <ele>775</ele>
        <time>2019-10-28T09:35:43.000Z</time>
      </trkpt>
      <trkpt lat="37.5101169012486934661865234375" lon="-2.7285678125917911529541015625">
        <ele>775</ele>
        <time>2019-10-28T09:35:48.000Z</time>
      </trkpt>
      <trkpt lat="37.51001087017357349395751953125" lon="-2.72875632159411907196044921875">
        <ele>775.20001220703125</ele>
        <time>2019-10-28T09:35:53.000Z</time>
      </trkpt>
      <trkpt lat="37.5099009834229946136474609375" lon="-2.72894642315804958343505859375">
        <ele>776.4000244140625</ele>
        <time>2019-10-28T09:35:58.000Z</time>
      </trkpt>
      <trkpt lat="37.5097930245101451873779296875" lon="-2.7291428111493587493896484375">
        <ele>777.4000244140625</ele>
        <time>2019-10-28T09:36:03.000Z</time>
      </trkpt>
      <trkpt lat="37.50967978499829769134521484375" lon="-2.729339785873889923095703125">
        <ele>778.20001220703125</ele>
        <time>2019-10-28T09:36:08.000Z</time>
      </trkpt>
      <trkpt lat="37.50956864096224308013916015625" lon="-2.7295676060020923614501953125">
        <ele>778.4000244140625</ele>
        <time>2019-10-28T09:36:14.000Z</time>
      </trkpt>
      <trkpt lat="37.50946235843002796173095703125" lon="-2.72976650856435298919677734375">
        <ele>778</ele>
        <time>2019-10-28T09:36:19.000Z</time>
      </trkpt>
      <trkpt lat="37.50934970565140247344970703125" lon="-2.7299541793763637542724609375">
        <ele>778</ele>
        <time>2019-10-28T09:36:24.000Z</time>
      </trkpt>
      <trkpt lat="37.50922950915992259979248046875" lon="-2.73017219267785549163818359375">
        <ele>778</ele>
        <time>2019-10-28T09:36:30.000Z</time>
      </trkpt>
      <trkpt lat="37.5091040320694446563720703125" lon="-2.73039330728352069854736328125">
        <ele>778.4000244140625</ele>
        <time>2019-10-28T09:36:36.000Z</time>
      </trkpt>
      <trkpt lat="37.5089870207011699676513671875" lon="-2.730590365827083587646484375">
        <ele>779.4000244140625</ele>
        <time>2019-10-28T09:36:41.000Z</time>
      </trkpt>
      <trkpt lat="37.5088690035045146942138671875" lon="-2.73078843019902706146240234375">
        <ele>780</ele>
        <time>2019-10-28T09:36:46.000Z</time>
      </trkpt>
      <trkpt lat="37.5087570212781429290771484375" lon="-2.7309921942651271820068359375">
        <ele>779.5999755859375</ele>
        <time>2019-10-28T09:36:51.000Z</time>
      </trkpt>
      <trkpt lat="37.50864990055561065673828125" lon="-2.73119277320802211761474609375">
        <ele>778.79998779296875</ele>
        <time>2019-10-28T09:36:56.000Z</time>
      </trkpt>
      <trkpt lat="37.50853531993925571441650390625" lon="-2.73138673044741153717041015625">
        <ele>778.5999755859375</ele>
        <time>2019-10-28T09:37:01.000Z</time>
      </trkpt>
      <trkpt lat="37.508425600826740264892578125" lon="-2.73159560747444629669189453125">
        <ele>779.20001220703125</ele>
        <time>2019-10-28T09:37:06.000Z</time>
      </trkpt>
      <trkpt lat="37.508316971361637115478515625" lon="-2.731799371540546417236328125">
        <ele>780.20001220703125</ele>
        <time>2019-10-28T09:37:11.000Z</time>
      </trkpt>
      <trkpt lat="37.50820473767817020416259765625" lon="-2.7320020459592342376708984375">
        <ele>781</ele>
        <time>2019-10-28T09:37:16.000Z</time>
      </trkpt>
      <trkpt lat="37.50809468328952789306640625" lon="-2.73221067152917385101318359375">
        <ele>781</ele>
        <time>2019-10-28T09:37:21.000Z</time>
      </trkpt>
      <trkpt lat="37.508011870086193084716796875" lon="-2.73242373950779438018798828125">
        <ele>781.5999755859375</ele>
        <time>2019-10-28T09:37:26.000Z</time>
      </trkpt>
      <trkpt lat="37.50798982568085193634033203125" lon="-2.732677794992923736572265625">
        <ele>782.5999755859375</ele>
        <time>2019-10-28T09:37:31.000Z</time>
      </trkpt>
      <trkpt lat="37.50800508074462413787841796875" lon="-2.7329297550022602081298828125">
        <ele>783.4000244140625</ele>
        <time>2019-10-28T09:37:36.000Z</time>
      </trkpt>
      <trkpt lat="37.50798462890088558197021484375" lon="-2.73318012244999408721923828125">
        <ele>783.5999755859375</ele>
        <time>2019-10-28T09:37:41.000Z</time>
      </trkpt>
      <trkpt lat="37.50792411155998706817626953125" lon="-2.73343811742961406707763671875">
        <ele>783.79998779296875</ele>
        <time>2019-10-28T09:37:46.000Z</time>
      </trkpt>
      <trkpt lat="37.507859654724597930908203125" lon="-2.73367214016616344451904296875">
        <ele>784</ele>
        <time>2019-10-28T09:37:51.000Z</time>
      </trkpt>
      <trkpt lat="37.5077922642230987548828125" lon="-2.73390918038785457611083984375">
        <ele>784</ele>
        <time>2019-10-28T09:37:57.000Z</time>
      </trkpt>
      <trkpt lat="37.50773124396800994873046875" lon="-2.734135575592517852783203125">
        <ele>783.20001220703125</ele>
        <time>2019-10-28T09:38:02.000Z</time>
      </trkpt>
      <trkpt lat="37.5076767615973949432373046875" lon="-2.73436725139617919921875">
        <ele>782.79998779296875</ele>
        <time>2019-10-28T09:38:07.000Z</time>
      </trkpt>
      <trkpt lat="37.5076234526932239532470703125" lon="-2.7345890365540981292724609375">
        <ele>782.20001220703125</ele>
        <time>2019-10-28T09:38:12.000Z</time>
      </trkpt>
      <trkpt lat="37.5075631029903888702392578125" lon="-2.73481945507228374481201171875">
        <ele>782</ele>
        <time>2019-10-28T09:38:17.000Z</time>
      </trkpt>
      <trkpt lat="37.5074957124888896942138671875" lon="-2.735043503344058990478515625">
        <ele>782</ele>
        <time>2019-10-28T09:38:22.000Z</time>
      </trkpt>
      <trkpt lat="37.5074071995913982391357421875" lon="-2.735285572707653045654296875">
        <ele>782.4000244140625</ele>
        <time>2019-10-28T09:38:28.000Z</time>
      </trkpt>
      <trkpt lat="37.50736084766685962677001953125" lon="-2.735512554645538330078125">
        <ele>783.79998779296875</ele>
        <time>2019-10-28T09:38:33.000Z</time>
      </trkpt>
      <trkpt lat="37.5073223747313022613525390625" lon="-2.735651694238185882568359375">
        <ele>785</ele>
        <time>2019-10-28T09:38:36.000Z</time>
      </trkpt>
      <trkpt lat="37.5072315149009227752685546875" lon="-2.73586518131196498870849609375">
        <ele>787.5999755859375</ele>
        <time>2019-10-28T09:38:41.000Z</time>
      </trkpt>
      <trkpt lat="37.5071497075259685516357421875" lon="-2.73608386516571044921875">
        <ele>788.5999755859375</ele>
        <time>2019-10-28T09:38:46.000Z</time>
      </trkpt>
      <trkpt lat="37.50713319517672061920166015625" lon="-2.73632182739675045013427734375">
        <ele>788.4000244140625</ele>
        <time>2019-10-28T09:38:51.000Z</time>
      </trkpt>
      <trkpt lat="37.5071088038384914398193359375" lon="-2.7365705184638500213623046875">
        <ele>787.5999755859375</ele>
        <time>2019-10-28T09:38:56.000Z</time>
      </trkpt>
      <trkpt lat="37.5071480311453342437744140625" lon="-2.73683530278503894805908203125">
        <ele>787</ele>
        <time>2019-10-28T09:39:01.000Z</time>
      </trkpt>
      <trkpt lat="37.50723729841411113739013671875" lon="-2.7370808087289333343505859375">
        <ele>788.20001220703125</ele>
        <time>2019-10-28T09:39:06.000Z</time>
      </trkpt>
      <trkpt lat="37.5073092989623546600341796875" lon="-2.73729060776531696319580078125">
        <ele>788.4000244140625</ele>
        <time>2019-10-28T09:39:11.000Z</time>
      </trkpt>
      <trkpt lat="37.5073481909930706024169921875" lon="-2.7375401370227336883544921875">
        <ele>788.4000244140625</ele>
        <time>2019-10-28T09:39:17.000Z</time>
      </trkpt>
      <trkpt lat="37.507361434400081634521484375" lon="-2.73777726106345653533935546875">
        <ele>786.79998779296875</ele>
        <time>2019-10-28T09:39:24.000Z</time>
      </trkpt>
      <trkpt lat="37.50736369751393795013427734375" lon="-2.73790332488715648651123046875">
        <ele>786.20001220703125</ele>
        <time>2019-10-28T09:39:30.000Z</time>
      </trkpt>
      <trkpt lat="37.50748003832995891571044921875" lon="-2.7379790134727954864501953125">
        <ele>784.79998779296875</ele>
        <time>2019-10-28T09:39:35.000Z</time>
      </trkpt>
      <trkpt lat="37.50765957869589328765869140625" lon="-2.73803793825209140777587890625">
        <ele>784</ele>
        <time>2019-10-28T09:39:40.000Z</time>
      </trkpt>
      <trkpt lat="37.50785789452493190765380859375" lon="-2.73805486969649791717529296875">
        <ele>784</ele>
        <time>2019-10-28T09:39:46.000Z</time>
      </trkpt>
      <trkpt lat="37.508046738803386688232421875" lon="-2.7380593121051788330078125">
        <ele>784.79998779296875</ele>
        <time>2019-10-28T09:39:53.000Z</time>
      </trkpt>
      <trkpt lat="37.50822477042675018310546875" lon="-2.7381536923348903656005859375">
        <ele>783.79998779296875</ele>
        <time>2019-10-28T09:40:01.000Z</time>
      </trkpt>
      <trkpt lat="37.5083989463746547698974609375" lon="-2.73821228183805942535400390625">
        <ele>782.4000244140625</ele>
        <time>2019-10-28T09:40:07.000Z</time>
      </trkpt>
      <trkpt lat="37.50853766687214374542236328125" lon="-2.7383598871529102325439453125">
        <ele>780.79998779296875</ele>
        <time>2019-10-28T09:40:15.000Z</time>
      </trkpt>
      <trkpt lat="37.508545629680156707763671875" lon="-2.73847647942602634429931640625">
        <ele>780.79998779296875</ele>
        <time>2019-10-28T09:40:22.000Z</time>
      </trkpt>
      <trkpt lat="37.50856675207614898681640625" lon="-2.73843037895858287811279296875">
        <ele>780.5999755859375</ele>
        <time>2019-10-28T09:40:49.000Z</time>
      </trkpt>
      <trkpt lat="37.508502043783664703369140625" lon="-2.73853548802435398101806640625">
        <ele>781.20001220703125</ele>
        <time>2019-10-28T09:41:23.000Z</time>
      </trkpt>
      <trkpt lat="37.50864428468048572540283203125" lon="-2.73843993432819843292236328125">
        <ele>780</ele>
        <time>2019-10-28T10:20:32.000Z</time>
      </trkpt>
      <trkpt lat="37.50851855613291263580322265625" lon="-2.73850229568779468536376953125">
        <ele>781</ele>
        <time>2019-10-28T10:20:49.000Z</time>
      </trkpt>
      <trkpt lat="37.50840791501104831695556640625" lon="-2.73848301731050014495849609375">
        <ele>782.20001220703125</ele>
        <time>2019-10-28T10:20:53.000Z</time>
      </trkpt>
      <trkpt lat="37.50823893584311008453369140625" lon="-2.73839903064072132110595703125">
        <ele>783.5999755859375</ele>
        <time>2019-10-28T10:20:59.000Z</time>
      </trkpt>
      <trkpt lat="37.5080579705536365509033203125" lon="-2.7383141219615936279296875">
        <ele>785</ele>
        <time>2019-10-28T10:21:05.000Z</time>
      </trkpt>
      <trkpt lat="37.50787247903645038604736328125" lon="-2.738244049251079559326171875">
        <ele>784.79998779296875</ele>
        <time>2019-10-28T10:21:11.000Z</time>
      </trkpt>
      <trkpt lat="37.50768137164413928985595703125" lon="-2.73817665874958038330078125">
        <ele>784</ele>
        <time>2019-10-28T10:21:17.000Z</time>
      </trkpt>
      <trkpt lat="37.5074846483767032623291015625" lon="-2.738099880516529083251953125">
        <ele>784.20001220703125</ele>
        <time>2019-10-28T10:21:24.000Z</time>
      </trkpt>
      <trkpt lat="37.5073776952922344207763671875" lon="-2.7380807697772979736328125">
        <ele>785.4000244140625</ele>
        <time>2019-10-28T10:21:29.000Z</time>
      </trkpt>
      <trkpt lat="37.50732430256903171539306640625" lon="-2.73818210698664188385009765625">
        <ele>785.20001220703125</ele>
        <time>2019-10-28T10:21:33.000Z</time>
      </trkpt>
      <trkpt lat="37.50720678828656673431396484375" lon="-2.7383967675268650054931640625">
        <ele>784.20001220703125</ele>
        <time>2019-10-28T10:21:40.000Z</time>
      </trkpt>
      <trkpt lat="37.50709463842213153839111328125" lon="-2.7385835163295269012451171875">
        <ele>783.79998779296875</ele>
        <time>2019-10-28T10:21:46.000Z</time>
      </trkpt>
      <trkpt lat="37.506981231272220611572265625" lon="-2.73879482410848140716552734375">
        <ele>783.79998779296875</ele>
        <time>2019-10-28T10:21:52.000Z</time>
      </trkpt>
      <trkpt lat="37.5069106556475162506103515625" lon="-2.73901325650513172149658203125">
        <ele>784</ele>
        <time>2019-10-28T10:21:58.000Z</time>
      </trkpt>
      <trkpt lat="37.506841756403446197509765625" lon="-2.73924962617456912994384765625">
        <ele>784</ele>
        <time>2019-10-28T10:22:04.000Z</time>
      </trkpt>
      <trkpt lat="37.5067768804728984832763671875" lon="-2.7394679747521877288818359375">
        <ele>784</ele>
        <time>2019-10-28T10:22:10.000Z</time>
      </trkpt>
      <trkpt lat="37.50671309418976306915283203125" lon="-2.7397123910486698150634765625">
        <ele>784</ele>
        <time>2019-10-28T10:22:16.000Z</time>
      </trkpt>
      <trkpt lat="37.50663246028125286102294921875" lon="-2.73995018564164638519287109375">
        <ele>784</ele>
        <time>2019-10-28T10:22:22.000Z</time>
      </trkpt>
      <trkpt lat="37.50648192130029201507568359375" lon="-2.7400966174900531768798828125">
        <ele>784.20001220703125</ele>
        <time>2019-10-28T10:22:28.000Z</time>
      </trkpt>
      <trkpt lat="37.5063051469624042510986328125" lon="-2.740196697413921356201171875">
        <ele>784.4000244140625</ele>
        <time>2019-10-28T10:22:34.000Z</time>
      </trkpt>
      <trkpt lat="37.506133653223514556884765625" lon="-2.74026383645832538604736328125">
        <ele>784.79998779296875</ele>
        <time>2019-10-28T10:22:39.000Z</time>
      </trkpt>
      <trkpt lat="37.50592569820582866668701171875" lon="-2.74028495885431766510009765625">
        <ele>784.79998779296875</ele>
        <time>2019-10-28T10:22:45.000Z</time>
      </trkpt>
      <trkpt lat="37.50573861412703990936279296875" lon="-2.74032603017985820770263671875">
        <ele>785.20001220703125</ele>
        <time>2019-10-28T10:22:51.000Z</time>
      </trkpt>
      <trkpt lat="37.50557986088097095489501953125" lon="-2.74045142345130443572998046875">
        <ele>786.4000244140625</ele>
        <time>2019-10-28T10:22:57.000Z</time>
      </trkpt>
      <trkpt lat="37.50555739738047122955322265625" lon="-2.74068729020655155181884765625">
        <ele>787</ele>
        <time>2019-10-28T10:23:03.000Z</time>
      </trkpt>
      <trkpt lat="37.5055574811995029449462890625" lon="-2.74095299653708934783935546875">
        <ele>786.79998779296875</ele>
        <time>2019-10-28T10:23:09.000Z</time>
      </trkpt>
      <trkpt lat="37.50556276179850101470947265625" lon="-2.74120646528899669647216796875">
        <ele>786</ele>
        <time>2019-10-28T10:23:15.000Z</time>
      </trkpt>
      <trkpt lat="37.505567371845245361328125" lon="-2.74146127514541149139404296875">
        <ele>786</ele>
        <time>2019-10-28T10:23:21.000Z</time>
      </trkpt>
      <trkpt lat="37.5055822916328907012939453125" lon="-2.74172530509531497955322265625">
        <ele>785</ele>
        <time>2019-10-28T10:23:26.000Z</time>
      </trkpt>
      <trkpt lat="37.5055943615734577178955078125" lon="-2.74196770973503589630126953125">
        <ele>785.79998779296875</ele>
        <time>2019-10-28T10:23:31.000Z</time>
      </trkpt>
      <trkpt lat="37.5055970437824726104736328125" lon="-2.74200978688895702362060546875">
        <ele>785.79998779296875</ele>
        <time>2019-10-28T10:23:32.000Z</time>
      </trkpt>
      <trkpt lat="37.50560802407562732696533203125" lon="-2.7422527782618999481201171875">
        <ele>785.79998779296875</ele>
        <time>2019-10-28T10:23:38.000Z</time>
      </trkpt>
      <trkpt lat="37.50563249923288822174072265625" lon="-2.74251890368759632110595703125">
        <ele>786.79998779296875</ele>
        <time>2019-10-28T10:23:44.000Z</time>
      </trkpt>
      <trkpt lat="37.5056612491607666015625" lon="-2.74274420924484729766845703125">
        <ele>787.5999755859375</ele>
        <time>2019-10-28T10:23:49.000Z</time>
      </trkpt>
      <trkpt lat="37.50568010844290256500244140625" lon="-2.74301259778439998626708984375">
        <ele>789.5999755859375</ele>
        <time>2019-10-28T10:23:55.000Z</time>
      </trkpt>
      <trkpt lat="37.50569670461118221282958984375" lon="-2.743238322436809539794921875">
        <ele>789.4000244140625</ele>
        <time>2019-10-28T10:24:00.000Z</time>
      </trkpt>
      <trkpt lat="37.505719922482967376708984375" lon="-2.74350578896701335906982421875">
        <ele>789</ele>
        <time>2019-10-28T10:24:06.000Z</time>
      </trkpt>
      <trkpt lat="37.50574800185859203338623046875" lon="-2.7437336929142475128173828125">
        <ele>788.20001220703125</ele>
        <time>2019-10-28T10:24:11.000Z</time>
      </trkpt>
      <trkpt lat="37.5057754106819629669189453125" lon="-2.7439749240875244140625">
        <ele>786.4000244140625</ele>
        <time>2019-10-28T10:24:16.000Z</time>
      </trkpt>
      <trkpt lat="37.5057967007160186767578125" lon="-2.74420886300504207611083984375">
        <ele>787.79998779296875</ele>
        <time>2019-10-28T10:24:21.000Z</time>
      </trkpt>
      <trkpt lat="37.50582645647227764129638671875" lon="-2.74447624571621417999267578125">
        <ele>788.79998779296875</ele>
        <time>2019-10-28T10:24:27.000Z</time>
      </trkpt>
      <trkpt lat="37.50584925524890422821044921875" lon="-2.7447147108614444732666015625">
        <ele>788.79998779296875</ele>
        <time>2019-10-28T10:24:32.000Z</time>
      </trkpt>
      <trkpt lat="37.50588856637477874755859375" lon="-2.74495803751051425933837890625">
        <ele>787.79998779296875</ele>
        <time>2019-10-28T10:24:37.000Z</time>
      </trkpt>
      <trkpt lat="37.5059299729764461517333984375" lon="-2.74520211853086948394775390625">
        <ele>787.5999755859375</ele>
        <time>2019-10-28T10:24:42.000Z</time>
      </trkpt>
      <trkpt lat="37.50596366822719573974609375" lon="-2.74544519372284412384033203125">
        <ele>787.5999755859375</ele>
        <time>2019-10-28T10:24:47.000Z</time>
      </trkpt>
      <trkpt lat="37.50597733072936534881591796875" lon="-2.74569849483668804168701171875">
        <ele>787.4000244140625</ele>
        <time>2019-10-28T10:24:52.000Z</time>
      </trkpt>
      <trkpt lat="37.5059829466044902801513671875" lon="-2.7459505386650562286376953125">
        <ele>788</ele>
        <time>2019-10-28T10:24:57.000Z</time>
      </trkpt>
      <trkpt lat="37.50600649975240230560302734375" lon="-2.74620828218758106231689453125">
        <ele>787.79998779296875</ele>
        <time>2019-10-28T10:25:02.000Z</time>
      </trkpt>
      <trkpt lat="37.50603047199547290802001953125" lon="-2.74647030048072338104248046875">
        <ele>786.5999755859375</ele>
        <time>2019-10-28T10:25:07.000Z</time>
      </trkpt>
      <trkpt lat="37.50604212284088134765625" lon="-2.74673759937286376953125">
        <ele>785.79998779296875</ele>
        <time>2019-10-28T10:25:12.000Z</time>
      </trkpt>
      <trkpt lat="37.50604555942118167877197265625" lon="-2.74699215777218341827392578125">
        <ele>785.79998779296875</ele>
        <time>2019-10-28T10:25:17.000Z</time>
      </trkpt>
      <trkpt lat="37.506051845848560333251953125" lon="-2.7472483925521373748779296875">
        <ele>786</ele>
        <time>2019-10-28T10:25:22.000Z</time>
      </trkpt>
      <trkpt lat="37.50606022775173187255859375" lon="-2.7475001849234104156494140625">
        <ele>785.20001220703125</ele>
        <time>2019-10-28T10:25:27.000Z</time>
      </trkpt>
      <trkpt lat="37.5060614012181758880615234375" lon="-2.74774636141955852508544921875">
        <ele>784.4000244140625</ele>
        <time>2019-10-28T10:25:32.000Z</time>
      </trkpt>
      <trkpt lat="37.50606559216976165771484375" lon="-2.74798843078315258026123046875">
        <ele>783.79998779296875</ele>
        <time>2019-10-28T10:25:37.000Z</time>
      </trkpt>
      <trkpt lat="37.5060754828155040740966796875" lon="-2.7482334338128566741943359375">
        <ele>784.4000244140625</ele>
        <time>2019-10-28T10:25:42.000Z</time>
      </trkpt>
      <trkpt lat="37.50606919638812541961669921875" lon="-2.7485073544085025787353515625">
        <ele>785.5999755859375</ele>
        <time>2019-10-28T10:25:47.000Z</time>
      </trkpt>
      <trkpt lat="37.506067268550395965576171875" lon="-2.7487350068986415863037109375">
        <ele>787.4000244140625</ele>
        <time>2019-10-28T10:25:51.000Z</time>
      </trkpt>
      <trkpt lat="37.50606634654104709625244140625" lon="-2.749006748199462890625">
        <ele>788.20001220703125</ele>
        <time>2019-10-28T10:25:56.000Z</time>
      </trkpt>
      <trkpt lat="37.50605997629463672637939453125" lon="-2.74926583282649517059326171875">
        <ele>787</ele>
        <time>2019-10-28T10:26:01.000Z</time>
      </trkpt>
      <trkpt lat="37.506059892475605010986328125" lon="-2.7494917251169681549072265625">
        <ele>785.4000244140625</ele>
        <time>2019-10-28T10:26:07.000Z</time>
      </trkpt>
      <trkpt lat="37.50605863519012928009033203125" lon="-2.7496747858822345733642578125">
        <ele>784.5999755859375</ele>
        <time>2019-10-28T10:27:54.000Z</time>
      </trkpt>
      <trkpt lat="37.50604673288762569427490234375" lon="-2.7499294281005859375">
        <ele>784</ele>
        <time>2019-10-28T10:27:59.000Z</time>
      </trkpt>
      <trkpt lat="37.50602644868195056915283203125" lon="-2.7502075396478176116943359375">
        <ele>783.4000244140625</ele>
        <time>2019-10-28T10:28:04.000Z</time>
      </trkpt>
      <trkpt lat="37.50601203180849552154541015625" lon="-2.75045271031558513641357421875">
        <ele>782.79998779296875</ele>
        <time>2019-10-28T10:28:09.000Z</time>
      </trkpt>
      <trkpt lat="37.505988813936710357666015625" lon="-2.75069545023143291473388671875">
        <ele>783.20001220703125</ele>
        <time>2019-10-28T10:28:14.000Z</time>
      </trkpt>
      <trkpt lat="37.50598118640482425689697265625" lon="-2.750966437160968780517578125">
        <ele>783.4000244140625</ele>
        <time>2019-10-28T10:28:19.000Z</time>
      </trkpt>
      <trkpt lat="37.505973391234874725341796875" lon="-2.75123071856796741485595703125">
        <ele>784.20001220703125</ele>
        <time>2019-10-28T10:28:23.000Z</time>
      </trkpt>
      <trkpt lat="37.5059571303427219390869140625" lon="-2.75147412903606891632080078125">
        <ele>784.5999755859375</ele>
        <time>2019-10-28T10:28:27.000Z</time>
      </trkpt>
      <trkpt lat="37.50593575648963451385498046875" lon="-2.75174419395625591278076171875">
        <ele>785.20001220703125</ele>
        <time>2019-10-28T10:28:32.000Z</time>
      </trkpt>
      <trkpt lat="37.5059128738939762115478515625" lon="-2.751970924437046051025390625">
        <ele>784.79998779296875</ele>
        <time>2019-10-28T10:28:36.000Z</time>
      </trkpt>
      <trkpt lat="37.50588529743254184722900390625" lon="-2.75221131742000579833984375">
        <ele>782.5999755859375</ele>
        <time>2019-10-28T10:28:40.000Z</time>
      </trkpt>
      <trkpt lat="37.5058530271053314208984375" lon="-2.7524562366306781768798828125">
        <ele>781.4000244140625</ele>
        <time>2019-10-28T10:28:44.000Z</time>
      </trkpt>
      <trkpt lat="37.5058250315487384796142578125" lon="-2.752697803080081939697265625">
        <ele>780.5999755859375</ele>
        <time>2019-10-28T10:28:48.000Z</time>
      </trkpt>
      <trkpt lat="37.50579745508730411529541015625" lon="-2.7529333345592021942138671875">
        <ele>781</ele>
        <time>2019-10-28T10:28:52.000Z</time>
      </trkpt>
      <trkpt lat="37.5057794339954853057861328125" lon="-2.75317247025668621063232421875">
        <ele>783</ele>
        <time>2019-10-28T10:28:56.000Z</time>
      </trkpt>
      <trkpt lat="37.5057754106819629669189453125" lon="-2.7532310597598552703857421875">
        <ele>783.5999755859375</ele>
        <time>2019-10-28T10:28:57.000Z</time>
      </trkpt>
      <trkpt lat="37.50574850477278232574462890625" lon="-2.7534684352576732635498046875">
        <ele>785.79998779296875</ele>
        <time>2019-10-28T10:29:01.000Z</time>
      </trkpt>
      <trkpt lat="37.50572537072002887725830078125" lon="-2.75371544994413852691650390625">
        <ele>787.4000244140625</ele>
        <time>2019-10-28T10:29:05.000Z</time>
      </trkpt>
      <trkpt lat="37.50568874180316925048828125" lon="-2.753957770764827728271484375">
        <ele>787.5999755859375</ele>
        <time>2019-10-28T10:29:09.000Z</time>
      </trkpt>
      <trkpt lat="37.5056409649550914764404296875" lon="-2.754197828471660614013671875">
        <ele>786.5999755859375</ele>
        <time>2019-10-28T10:29:13.000Z</time>
      </trkpt>
      <trkpt lat="37.50559947453439235687255859375" lon="-2.7544363774359226226806640625">
        <ele>786</ele>
        <time>2019-10-28T10:29:17.000Z</time>
      </trkpt>
      <trkpt lat="37.50555035658180713653564453125" lon="-2.75466210208833217620849609375">
        <ele>786</ele>
        <time>2019-10-28T10:29:21.000Z</time>
      </trkpt>
      <trkpt lat="37.5055219419300556182861328125" lon="-2.75481767021119594573974609375">
        <ele>786</ele>
        <time>2019-10-28T10:29:24.000Z</time>
      </trkpt>
      <trkpt lat="37.5055075250566005706787109375" lon="-2.7550955303013324737548828125">
        <ele>786</ele>
        <time>2019-10-28T10:29:29.000Z</time>
      </trkpt>
      <trkpt lat="37.505487240850925445556640625" lon="-2.7553476579487323760986328125">
        <ele>785</ele>
        <time>2019-10-28T10:29:33.000Z</time>
      </trkpt>
      <trkpt lat="37.50544826500117778778076171875" lon="-2.7555860392749309539794921875">
        <ele>784.5999755859375</ele>
        <time>2019-10-28T10:29:37.000Z</time>
      </trkpt>
      <trkpt lat="37.505379952490329742431640625" lon="-2.755844704806804656982421875">
        <ele>783.79998779296875</ele>
        <time>2019-10-28T10:29:42.000Z</time>
      </trkpt>
      <trkpt lat="37.50532354228198528289794921875" lon="-2.7561077289283275604248046875">
        <ele>783.79998779296875</ele>
        <time>2019-10-28T10:29:47.000Z</time>
      </trkpt>
      <trkpt lat="37.505269981920719146728515625" lon="-2.756378464400768280029296875">
        <ele>784</ele>
        <time>2019-10-28T10:29:52.000Z</time>
      </trkpt>
      <trkpt lat="37.5052329339087009429931640625" lon="-2.75660083629190921783447265625">
        <ele>784.79998779296875</ele>
        <time>2019-10-28T10:29:56.000Z</time>
      </trkpt>
      <trkpt lat="37.50522698275744915008544921875" lon="-2.75671047158539295196533203125">
        <ele>785.20001220703125</ele>
        <time>2019-10-28T10:29:58.000Z</time>
      </trkpt>
      <trkpt lat="37.5053824670612812042236328125" lon="-2.7568862400949001312255859375">
        <ele>785.5999755859375</ele>
        <time>2019-10-28T10:30:03.000Z</time>
      </trkpt>
      <trkpt lat="37.5054833851754665374755859375" lon="-2.75690979324281215667724609375">
        <ele>785.20001220703125</ele>
        <time>2019-10-28T10:30:05.000Z</time>
      </trkpt>
      <trkpt lat="37.5056842155754566192626953125" lon="-2.756911218166351318359375">
        <ele>785.4000244140625</ele>
        <time>2019-10-28T10:30:09.000Z</time>
      </trkpt>
      <trkpt lat="37.50587188638746738433837890625" lon="-2.7568500302731990814208984375">
        <ele>786</ele>
        <time>2019-10-28T10:30:13.000Z</time>
      </trkpt>
      <trkpt lat="37.50591161660850048065185546875" lon="-2.7568282373249530792236328125">
        <ele>786</ele>
        <time>2019-10-28T10:30:14.000Z</time>
      </trkpt>
      <trkpt lat="37.50609082169830799102783203125" lon="-2.75671608746051788330078125">
        <ele>786</ele>
        <time>2019-10-28T10:30:19.000Z</time>
      </trkpt>
      <trkpt lat="37.50613273121416568756103515625" lon="-2.756865285336971282958984375">
        <ele>786</ele>
        <time>2019-10-28T10:30:25.000Z</time>
      </trkpt>
      <trkpt lat="37.50610440038144588470458984375" lon="-2.7568825520575046539306640625">
        <ele>786</ele>
        <time>2019-10-28T10:30:26.000Z</time>
      </trkpt>
      <trkpt lat="37.50602812506258487701416015625" lon="-2.75693896226584911346435546875">
        <ele>786</ele>
        <time>2019-10-28T10:30:29.000Z</time>
      </trkpt>
      <trkpt lat="37.5059252791106700897216796875" lon="-2.756991684436798095703125">
        <ele>786</ele>
        <time>2019-10-28T10:30:33.000Z</time>
      </trkpt>
      <trkpt lat="37.505782283842563629150390625" lon="-2.75707273744046688079833984375">
        <ele>785.79998779296875</ele>
        <time>2019-10-28T10:30:39.000Z</time>
      </trkpt>
      <trkpt lat="37.5056114606559276580810546875" lon="-2.75710165500640869140625">
        <ele>785.20001220703125</ele>
        <time>2019-10-28T10:30:46.000Z</time>
      </trkpt>
      <trkpt lat="37.50541515648365020751953125" lon="-2.757104001939296722412109375">
        <ele>785.20001220703125</ele>
        <time>2019-10-28T10:30:53.000Z</time>
      </trkpt>
      <trkpt lat="37.5052329339087009429931640625" lon="-2.7570753358304500579833984375">
        <ele>786</ele>
        <time>2019-10-28T10:30:59.000Z</time>
      </trkpt>
      <trkpt lat="37.5050435028970241546630859375" lon="-2.75702646933495998382568359375">
        <ele>787.5999755859375</ele>
        <time>2019-10-28T10:31:06.000Z</time>
      </trkpt>
      <trkpt lat="37.5050213746726512908935546875" lon="-2.7570183388888835906982421875">
        <ele>787.79998779296875</ele>
        <time>2019-10-28T10:31:08.000Z</time>
      </trkpt>
      <trkpt lat="37.5048711709678173065185546875" lon="-2.75698740966618061065673828125">
        <ele>787.79998779296875</ele>
        <time>2019-10-28T10:31:43.000Z</time>
      </trkpt>
      <trkpt lat="37.504691295325756072998046875" lon="-2.75695036165416240692138671875">
        <ele>788.20001220703125</ele>
        <time>2019-10-28T10:31:48.000Z</time>
      </trkpt>
      <trkpt lat="37.5044936500489711761474609375" lon="-2.7568857371807098388671875">
        <ele>789</ele>
        <time>2019-10-28T10:31:53.000Z</time>
      </trkpt>
      <trkpt lat="37.50436373054981231689453125" lon="-2.756862938404083251953125">
        <ele>788.79998779296875</ele>
        <time>2019-10-28T10:31:56.000Z</time>
      </trkpt>
      <trkpt lat="37.504219226539134979248046875" lon="-2.75700735859572887420654296875">
        <ele>790</ele>
        <time>2019-10-28T10:32:00.000Z</time>
      </trkpt>
      <trkpt lat="37.5041927397251129150390625" lon="-2.75716225616633892059326171875">
        <ele>790.5999755859375</ele>
        <time>2019-10-28T10:32:02.000Z</time>
      </trkpt>
      <trkpt lat="37.50417320989072322845458984375" lon="-2.757396362721920013427734375">
        <ele>791</ele>
        <time>2019-10-28T10:32:05.000Z</time>
      </trkpt>
      <trkpt lat="37.504165582358837127685546875" lon="-2.7576260268688201904296875">
        <ele>790.79998779296875</ele>
        <time>2019-10-28T10:32:08.000Z</time>
      </trkpt>
      <trkpt lat="37.50416046939790248870849609375" lon="-2.75787220336496829986572265625">
        <ele>789.79998779296875</ele>
        <time>2019-10-28T10:32:11.000Z</time>
      </trkpt>
      <trkpt lat="37.50415393151342868804931640625" lon="-2.75814377702772617340087890625">
        <ele>787</ele>
        <time>2019-10-28T10:32:14.000Z</time>
      </trkpt>
      <trkpt lat="37.5041278637945652008056640625" lon="-2.75833656080067157745361328125">
        <ele>786.79998779296875</ele>
        <time>2019-10-28T10:32:16.000Z</time>
      </trkpt>
      <trkpt lat="37.50400993041694164276123046875" lon="-2.75857578031718730926513671875">
        <ele>786.4000244140625</ele>
        <time>2019-10-28T10:32:19.000Z</time>
      </trkpt>
      <trkpt lat="37.50390683300793170928955078125" lon="-2.75870167650282382965087890625">
        <ele>786</ele>
        <time>2019-10-28T10:32:21.000Z</time>
      </trkpt>
      <trkpt lat="37.50374573282897472381591796875" lon="-2.75886596180498600006103515625">
        <ele>787.5999755859375</ele>
        <time>2019-10-28T10:32:24.000Z</time>
      </trkpt>
      <trkpt lat="37.5035887397825717926025390625" lon="-2.759003341197967529296875">
        <ele>789</ele>
        <time>2019-10-28T10:32:27.000Z</time>
      </trkpt>
      <trkpt lat="37.5033986382186412811279296875" lon="-2.75916720740497112274169921875">
        <ele>789.79998779296875</ele>
        <time>2019-10-28T10:32:31.000Z</time>
      </trkpt>
      <trkpt lat="37.50323896296322345733642578125" lon="-2.75932394899427890777587890625">
        <ele>789.4000244140625</ele>
        <time>2019-10-28T10:32:35.000Z</time>
      </trkpt>
      <trkpt lat="37.503078281879425048828125" lon="-2.75949795730412006378173828125">
        <ele>788.20001220703125</ele>
        <time>2019-10-28T10:32:40.000Z</time>
      </trkpt>
      <trkpt lat="37.5029148347675800323486328125" lon="-2.75966190733015537261962890625">
        <ele>786</ele>
        <time>2019-10-28T10:32:46.000Z</time>
      </trkpt>
      <trkpt lat="37.502799667418003082275390625" lon="-2.7597733028233051300048828125">
        <ele>784.4000244140625</ele>
        <time>2019-10-28T10:32:50.000Z</time>
      </trkpt>
      <trkpt lat="37.50270503573119640350341796875" lon="-2.75987246073782444000244140625">
        <ele>784</ele>
        <time>2019-10-28T10:32:53.000Z</time>
      </trkpt>
      <trkpt lat="37.50255214981734752655029296875" lon="-2.76004244573414325714111328125">
        <ele>784</ele>
        <time>2019-10-28T10:32:58.000Z</time>
      </trkpt>
      <trkpt lat="37.50239741988480091094970703125" lon="-2.7602336369454860687255859375">
        <ele>784.79998779296875</ele>
        <time>2019-10-28T10:33:03.000Z</time>
      </trkpt>
      <trkpt lat="37.502242438495159149169921875" lon="-2.76042155921459197998046875">
        <ele>785.5999755859375</ele>
        <time>2019-10-28T10:33:08.000Z</time>
      </trkpt>
      <trkpt lat="37.502084188163280487060546875" lon="-2.7606128342449665069580078125">
        <ele>786.79998779296875</ele>
        <time>2019-10-28T10:33:13.000Z</time>
      </trkpt>
      <trkpt lat="37.5019297935068607330322265625" lon="-2.7608083002269268035888671875">
        <ele>787.79998779296875</ele>
        <time>2019-10-28T10:33:18.000Z</time>
      </trkpt>
      <trkpt lat="37.5017809309065341949462890625" lon="-2.76100217364728450775146484375">
        <ele>788.20001220703125</ele>
        <time>2019-10-28T10:33:23.000Z</time>
      </trkpt>
      <trkpt lat="37.50162678770720958709716796875" lon="-2.761185653507709503173828125">
        <ele>788.20001220703125</ele>
        <time>2019-10-28T10:33:28.000Z</time>
      </trkpt>
      <trkpt lat="37.50144389458000659942626953125" lon="-2.761339880526065826416015625">
        <ele>788.20001220703125</ele>
        <time>2019-10-28T10:33:33.000Z</time>
      </trkpt>
      <trkpt lat="37.5012773461639881134033203125" lon="-2.7615179121494293212890625">
        <ele>788.5999755859375</ele>
        <time>2019-10-28T10:33:38.000Z</time>
      </trkpt>
      <trkpt lat="37.50112873502075672149658203125" lon="-2.76172335259616374969482421875">
        <ele>789</ele>
        <time>2019-10-28T10:33:43.000Z</time>
      </trkpt>
      <trkpt lat="37.50098590739071369171142578125" lon="-2.76192870922386646270751953125">
        <ele>789</ele>
        <time>2019-10-28T10:33:48.000Z</time>
      </trkpt>
      <trkpt lat="37.500822208821773529052734375" lon="-2.76211244054138660430908203125">
        <ele>788.4000244140625</ele>
        <time>2019-10-28T10:33:53.000Z</time>
      </trkpt>
      <trkpt lat="37.5006621144711971282958984375" lon="-2.76230438612401485443115234375">
        <ele>787.5999755859375</ele>
        <time>2019-10-28T10:33:58.000Z</time>
      </trkpt>
      <trkpt lat="37.50057972036302089691162109375" lon="-2.76242273859679698944091796875">
        <ele>787.4000244140625</ele>
        <time>2019-10-28T10:34:01.000Z</time>
      </trkpt>
      <trkpt lat="37.50047377310693264007568359375" lon="-2.7626077271997928619384765625">
        <ele>787.79998779296875</ele>
        <time>2019-10-28T10:34:05.000Z</time>
      </trkpt>
      <trkpt lat="37.5003717653453350067138671875" lon="-2.7628011815249919891357421875">
        <ele>789.20001220703125</ele>
        <time>2019-10-28T10:34:09.000Z</time>
      </trkpt>
      <trkpt lat="37.50026053749024868011474609375" lon="-2.76298784650862216949462890625">
        <ele>790.4000244140625</ele>
        <time>2019-10-28T10:34:13.000Z</time>
      </trkpt>
      <trkpt lat="37.5001592002809047698974609375" lon="-2.7632363699376583099365234375">
        <ele>791</ele>
        <time>2019-10-28T10:34:18.000Z</time>
      </trkpt>
      <trkpt lat="37.5001206435263156890869140625" lon="-2.76333846151828765869140625">
        <ele>791.20001220703125</ele>
        <time>2019-10-28T10:34:20.000Z</time>
      </trkpt>
      <trkpt lat="37.500053755939006805419921875" lon="-2.763548679649829864501953125">
        <ele>790.5999755859375</ele>
        <time>2019-10-28T10:34:24.000Z</time>
      </trkpt>
      <trkpt lat="37.50004160217940807342529296875" lon="-2.76378043927252292633056640625">
        <ele>790.20001220703125</ele>
        <time>2019-10-28T10:34:28.000Z</time>
      </trkpt>
      <trkpt lat="37.50003397464752197265625" lon="-2.7640594728291034698486328125">
        <ele>790.79998779296875</ele>
        <time>2019-10-28T10:34:33.000Z</time>
      </trkpt>
      <trkpt lat="37.49992333352565765380859375" lon="-2.76428502984344959259033203125">
        <ele>792.4000244140625</ele>
        <time>2019-10-28T10:34:38.000Z</time>
      </trkpt>
      <trkpt lat="37.49976776540279388427734375" lon="-2.76436918415129184722900390625">
        <ele>793</ele>
        <time>2019-10-28T10:34:42.000Z</time>
      </trkpt>
      <trkpt lat="37.49961161054670810699462890625" lon="-2.7644054777920246124267578125">
        <ele>793.20001220703125</ele>
        <time>2019-10-28T10:34:46.000Z</time>
      </trkpt>
      <trkpt lat="37.499408014118671417236328125" lon="-2.764406315982341766357421875">
        <ele>793</ele>
        <time>2019-10-28T10:34:51.000Z</time>
      </trkpt>
      <trkpt lat="37.49920860864222049713134765625" lon="-2.7644242532551288604736328125">
        <ele>792</ele>
        <time>2019-10-28T10:34:56.000Z</time>
      </trkpt>
      <trkpt lat="37.4990440718829631805419921875" lon="-2.7645238302648067474365234375">
        <ele>792</ele>
        <time>2019-10-28T10:35:01.000Z</time>
      </trkpt>
      <trkpt lat="37.4990145675837993621826171875" lon="-2.76456096209585666656494140625">
        <ele>791.79998779296875</ele>
        <time>2019-10-28T10:35:02.000Z</time>
      </trkpt>
      <trkpt lat="37.49886914156377315521240234375" lon="-2.76473899371922016143798828125">
        <ele>791.4000244140625</ele>
        <time>2019-10-28T10:35:07.000Z</time>
      </trkpt>
      <trkpt lat="37.49872849322855472564697265625" lon="-2.7649211324751377105712890625">
        <ele>792.20001220703125</ele>
        <time>2019-10-28T10:35:12.000Z</time>
      </trkpt>
      <trkpt lat="37.49858683906495571136474609375" lon="-2.76510025374591350555419921875">
        <ele>793.20001220703125</ele>
        <time>2019-10-28T10:35:17.000Z</time>
      </trkpt>
      <trkpt lat="37.49845675192773342132568359375" lon="-2.76527996174991130828857421875">
        <ele>794.20001220703125</ele>
        <time>2019-10-28T10:35:22.000Z</time>
      </trkpt>
      <trkpt lat="37.49840478412806987762451171875" lon="-2.7653549797832965850830078125">
        <ele>794.4000244140625</ele>
        <time>2019-10-28T10:35:24.000Z</time>
      </trkpt>
      <trkpt lat="37.4982799775898456573486328125" lon="-2.765546254813671112060546875">
        <ele>796</ele>
        <time>2019-10-28T10:35:29.000Z</time>
      </trkpt>
      <trkpt lat="37.4981733597815036773681640625" lon="-2.76573099195957183837890625">
        <ele>797.5999755859375</ele>
        <time>2019-10-28T10:35:34.000Z</time>
      </trkpt>
      <trkpt lat="37.4980479665100574493408203125" lon="-2.7659373544156551361083984375">
        <ele>799.20001220703125</ele>
        <time>2019-10-28T10:35:40.000Z</time>
      </trkpt>
      <trkpt lat="37.4979168735444545745849609375" lon="-2.76612586341798305511474609375">
        <ele>799.79998779296875</ele>
        <time>2019-10-28T10:35:46.000Z</time>
      </trkpt>
      <trkpt lat="37.4977773986756801605224609375" lon="-2.76630490086972713470458984375">
        <ele>800</ele>
        <time>2019-10-28T10:35:52.000Z</time>
      </trkpt>
      <trkpt lat="37.49764706008136272430419921875" lon="-2.7664828486740589141845703125">
        <ele>800</ele>
        <time>2019-10-28T10:35:58.000Z</time>
      </trkpt>
      <trkpt lat="37.49752032570540904998779296875" lon="-2.76666632853448390960693359375">
        <ele>800.79998779296875</ele>
        <time>2019-10-28T10:36:04.000Z</time>
      </trkpt>
      <trkpt lat="37.49738872982561588287353515625" lon="-2.766840420663356781005859375">
        <ele>801</ele>
        <time>2019-10-28T10:36:10.000Z</time>
      </trkpt>
      <trkpt lat="37.497264929115772247314453125" lon="-2.767038904130458831787109375">
        <ele>801.20001220703125</ele>
        <time>2019-10-28T10:36:16.000Z</time>
      </trkpt>
      <trkpt lat="37.49715638346970081329345703125" lon="-2.7672551572322845458984375">
        <ele>802</ele>
        <time>2019-10-28T10:36:22.000Z</time>
      </trkpt>
      <trkpt lat="37.49705848284065723419189453125" lon="-2.7674652077257633209228515625">
        <ele>803.79998779296875</ele>
        <time>2019-10-28T10:36:28.000Z</time>
      </trkpt>
      <trkpt lat="37.49699109233915805816650390625" lon="-2.76768137700855731964111328125">
        <ele>805.4000244140625</ele>
        <time>2019-10-28T10:36:34.000Z</time>
      </trkpt>
      <trkpt lat="37.49696024693548679351806640625" lon="-2.76792109943926334381103515625">
        <ele>806</ele>
        <time>2019-10-28T10:36:40.000Z</time>
      </trkpt>
      <trkpt lat="37.4969319999217987060546875" lon="-2.76815981604158878326416015625">
        <ele>806.20001220703125</ele>
        <time>2019-10-28T10:36:46.000Z</time>
      </trkpt>
      <trkpt lat="37.49687542207539081573486328125" lon="-2.768414877355098724365234375">
        <ele>807</ele>
        <time>2019-10-28T10:36:52.000Z</time>
      </trkpt>
      <trkpt lat="37.49677718617022037506103515625" lon="-2.768648229539394378662109375">
        <ele>808.79998779296875</ele>
        <time>2019-10-28T10:36:58.000Z</time>
      </trkpt>
      <trkpt lat="37.49664307571947574615478515625" lon="-2.768840678036212921142578125">
        <ele>809.5999755859375</ele>
        <time>2019-10-28T10:37:04.000Z</time>
      </trkpt>
      <trkpt lat="37.4964708276093006134033203125" lon="-2.7689303644001483917236328125">
        <ele>809.79998779296875</ele>
        <time>2019-10-28T10:37:10.000Z</time>
      </trkpt>
      <trkpt lat="37.49626857228577136993408203125" lon="-2.7689484693109989166259765625">
        <ele>810.4000244140625</ele>
        <time>2019-10-28T10:37:16.000Z</time>
      </trkpt>
      <trkpt lat="37.4960631318390369415283203125" lon="-2.76899549178779125213623046875">
        <ele>811</ele>
        <time>2019-10-28T10:37:22.000Z</time>
      </trkpt>
      <trkpt lat="37.49590538442134857177734375" lon="-2.76913069188594818115234375">
        <ele>811</ele>
        <time>2019-10-28T10:37:28.000Z</time>
      </trkpt>
      <trkpt lat="37.49583019874989986419677734375" lon="-2.769354321062564849853515625">
        <ele>810.5999755859375</ele>
        <time>2019-10-28T10:37:34.000Z</time>
      </trkpt>
      <trkpt lat="37.49578258953988552093505859375" lon="-2.7695618569850921630859375">
        <ele>810.20001220703125</ele>
        <time>2019-10-28T10:37:42.000Z</time>
      </trkpt>
      <trkpt lat="37.4956949986517429351806640625" lon="-2.76975966989994049072265625">
        <ele>810.79998779296875</ele>
        <time>2019-10-28T10:37:50.000Z</time>
      </trkpt>
      <trkpt lat="37.4956480599939823150634765625" lon="-2.7698614262044429779052734375">
        <ele>811.20001220703125</ele>
        <time>2019-10-28T10:37:53.000Z</time>
      </trkpt>
      <trkpt lat="37.49555024318397045135498046875" lon="-2.7700649388134479522705078125">
        <ele>812</ele>
        <time>2019-10-28T10:37:59.000Z</time>
      </trkpt>
      <trkpt lat="37.495422922074794769287109375" lon="-2.77022243477404117584228515625">
        <ele>813.5999755859375</ele>
        <time>2019-10-28T10:38:05.000Z</time>
      </trkpt>
      <trkpt lat="37.49522670172154903411865234375" lon="-2.77019142173230648040771484375">
        <ele>814</ele>
        <time>2019-10-28T10:38:11.000Z</time>
      </trkpt>
      <trkpt lat="37.49504431150853633880615234375" lon="-2.77014431543648242950439453125">
        <ele>815</ele>
        <time>2019-10-28T10:38:17.000Z</time>
      </trkpt>
      <trkpt lat="37.49485420994460582733154296875" lon="-2.77009318582713603973388671875">
        <ele>814.20001220703125</ele>
        <time>2019-10-28T10:38:23.000Z</time>
      </trkpt>
      <trkpt lat="37.49464717693626880645751953125" lon="-2.77003400959074497222900390625">
        <ele>813.20001220703125</ele>
        <time>2019-10-28T10:38:29.000Z</time>
      </trkpt>
      <trkpt lat="37.4944494478404521942138671875" lon="-2.76995706371963024139404296875">
        <ele>813.20001220703125</ele>
        <time>2019-10-28T10:38:35.000Z</time>
      </trkpt>
      <trkpt lat="37.494250796735286712646484375" lon="-2.769979275763034820556640625">
        <ele>814.79998779296875</ele>
        <time>2019-10-28T10:38:41.000Z</time>
      </trkpt>
      <trkpt lat="37.49406429938971996307373046875" lon="-2.7700733207166194915771484375">
        <ele>817.4000244140625</ele>
        <time>2019-10-28T10:38:47.000Z</time>
      </trkpt>
      <trkpt lat="37.49387889169156551361083984375" lon="-2.770169712603092193603515625">
        <ele>820</ele>
        <time>2019-10-28T10:38:53.000Z</time>
      </trkpt>
      <trkpt lat="37.49368585646152496337890625" lon="-2.77026484720408916473388671875">
        <ele>822.20001220703125</ele>
        <time>2019-10-28T10:39:00.000Z</time>
      </trkpt>
      <trkpt lat="37.49350522644817829132080078125" lon="-2.7703298069536685943603515625">
        <ele>823.79998779296875</ele>
        <time>2019-10-28T10:39:07.000Z</time>
      </trkpt>
      <trkpt lat="37.4933567829430103302001953125" lon="-2.77046416886150836944580078125">
        <ele>824.4000244140625</ele>
        <time>2019-10-28T10:40:14.000Z</time>
      </trkpt>
      <trkpt lat="37.49330624006688594818115234375" lon="-2.7704335749149322509765625">
        <ele>824.79998779296875</ele>
        <time>2019-10-28T10:44:01.000Z</time>
      </trkpt>
      <trkpt lat="37.49331445433199405670166015625" lon="-2.77040071785449981689453125">
        <ele>825</ele>
        <time>2019-10-28T10:46:28.000Z</time>
      </trkpt>
      <trkpt lat="37.493295930325984954833984375" lon="-2.77042946778237819671630859375">
        <ele>825</ele>
        <time>2019-10-28T10:48:26.000Z</time>
      </trkpt>
      <trkpt lat="37.49314279295504093170166015625" lon="-2.77057598344981670379638671875">
        <ele>825.5999755859375</ele>
        <time>2019-10-28T10:48:35.000Z</time>
      </trkpt>
      <trkpt lat="37.49310591258108615875244140625" lon="-2.77081939391791820526123046875">
        <ele>825.5999755859375</ele>
        <time>2019-10-28T10:48:43.000Z</time>
      </trkpt>
      <trkpt lat="37.49304019846022129058837890625" lon="-2.771063558757305145263671875">
        <ele>826</ele>
        <time>2019-10-28T10:48:51.000Z</time>
      </trkpt>
      <trkpt lat="37.4929594807326793670654296875" lon="-2.7712323702871799468994140625">
        <ele>826.79998779296875</ele>
        <time>2019-10-28T10:48:57.000Z</time>
      </trkpt>
      <trkpt lat="37.49307054094970226287841796875" lon="-2.77143294923007488250732421875">
        <ele>826</ele>
        <time>2019-10-28T10:49:05.000Z</time>
      </trkpt>
      <trkpt lat="37.49300834722816944122314453125" lon="-2.77156119234859943389892578125">
        <ele>826.5999755859375</ele>
        <time>2019-10-28T10:49:10.000Z</time>
      </trkpt>
      <trkpt lat="37.49288630671799182891845703125" lon="-2.77174911461770534515380859375">
        <ele>828.20001220703125</ele>
        <time>2019-10-28T10:49:18.000Z</time>
      </trkpt>
      <trkpt lat="37.4927995540201663970947265625" lon="-2.77197190560400485992431640625">
        <ele>829.5999755859375</ele>
        <time>2019-10-28T10:49:27.000Z</time>
      </trkpt>
      <trkpt lat="37.49265295453369617462158203125" lon="-2.772127725183963775634765625">
        <ele>831.79998779296875</ele>
        <time>2019-10-28T10:49:35.000Z</time>
      </trkpt>
      <trkpt lat="37.49251783825457096099853515625" lon="-2.77229611761868000030517578125">
        <ele>833.79998779296875</ele>
        <time>2019-10-28T10:49:43.000Z</time>
      </trkpt>
      <trkpt lat="37.492440305650234222412109375" lon="-2.77238949202001094818115234375">
        <ele>835.20001220703125</ele>
        <time>2019-10-28T10:49:48.000Z</time>
      </trkpt>
      <trkpt lat="37.49238875694572925567626953125" lon="-2.77251429855823516845703125">
        <ele>836.4000244140625</ele>
        <time>2019-10-28T10:49:53.000Z</time>
      </trkpt>
      <trkpt lat="37.49228264205157756805419921875" lon="-2.77266542427241802215576171875">
        <ele>838.4000244140625</ele>
        <time>2019-10-28T10:50:02.000Z</time>
      </trkpt>
      <trkpt lat="37.49225229956209659576416015625" lon="-2.77270205318927764892578125">
        <ele>839</ele>
        <time>2019-10-28T10:50:04.000Z</time>
      </trkpt>
      <trkpt lat="37.49207963235676288604736328125" lon="-2.7727119438350200653076171875">
        <ele>841.4000244140625</ele>
        <time>2019-10-28T10:50:12.000Z</time>
      </trkpt>
      <trkpt lat="37.492018528282642364501953125" lon="-2.77286658994853496551513671875">
        <ele>843</ele>
        <time>2019-10-28T10:50:17.000Z</time>
      </trkpt>
      <trkpt lat="37.4919616989791393280029296875" lon="-2.77297471649944782257080078125">
        <ele>843.79998779296875</ele>
        <time>2019-10-28T10:50:21.000Z</time>
      </trkpt>
      <trkpt lat="37.4918943084776401519775390625" lon="-2.7732004411518573760986328125">
        <ele>844.4000244140625</ele>
        <time>2019-10-28T10:50:28.000Z</time>
      </trkpt>
      <trkpt lat="37.491822056472301483154296875" lon="-2.77342817746102809906005859375">
        <ele>844.79998779296875</ele>
        <time>2019-10-28T10:50:35.000Z</time>
      </trkpt>
      <trkpt lat="37.4917246587574481964111328125" lon="-2.77361392043530941009521484375">
        <ele>844.79998779296875</ele>
        <time>2019-10-28T10:50:41.000Z</time>
      </trkpt>
      <trkpt lat="37.491638660430908203125" lon="-2.77368801645934581756591796875">
        <ele>845.20001220703125</ele>
        <time>2019-10-28T10:50:44.000Z</time>
      </trkpt>
      <trkpt lat="37.49142953194677829742431640625" lon="-2.77373336255550384521484375">
        <ele>846.5999755859375</ele>
        <time>2019-10-28T10:50:52.000Z</time>
      </trkpt>
      <trkpt lat="37.491398938000202178955078125" lon="-2.77373981662094593048095703125">
        <ele>846.79998779296875</ele>
        <time>2019-10-28T10:50:53.000Z</time>
      </trkpt>
      <trkpt lat="37.49129374511539936065673828125" lon="-2.7737603522837162017822265625">
        <ele>846.5999755859375</ele>
        <time>2019-10-28T10:50:58.000Z</time>
      </trkpt>
      <trkpt lat="37.49128720723092555999755859375" lon="-2.7738495357334613800048828125">
        <ele>846.4000244140625</ele>
        <time>2019-10-28T10:51:02.000Z</time>
      </trkpt>
      <trkpt lat="37.491279579699039459228515625" lon="-2.7740282379090785980224609375">
        <ele>846.20001220703125</ele>
        <time>2019-10-28T10:51:12.000Z</time>
      </trkpt>
      <trkpt lat="37.4912720359861850738525390625" lon="-2.7741147391498088836669921875">
        <ele>846.20001220703125</ele>
        <time>2019-10-28T10:51:21.000Z</time>
      </trkpt>
      <trkpt lat="37.491327188909053802490234375" lon="-2.77425765059888362884521484375">
        <ele>845.4000244140625</ele>
        <time>2019-10-28T10:53:23.000Z</time>
      </trkpt>
      <trkpt lat="37.49131478369235992431640625" lon="-2.77420945465564727783203125">
        <ele>845.5999755859375</ele>
        <time>2019-10-28T10:53:28.000Z</time>
      </trkpt>
      <trkpt lat="37.49121956527233123779296875" lon="-2.77432001195847988128662109375">
        <ele>846.4000244140625</ele>
        <time>2019-10-28T10:54:19.000Z</time>
      </trkpt>
      <trkpt lat="37.49121042899787425994873046875" lon="-2.77455680072307586669921875">
        <ele>848</ele>
        <time>2019-10-28T10:54:28.000Z</time>
      </trkpt>
      <trkpt lat="37.49115242622792720794677734375" lon="-2.77478956617414951324462890625">
        <ele>850.5999755859375</ele>
        <time>2019-10-28T10:54:37.000Z</time>
      </trkpt>
      <trkpt lat="37.4910360015928745269775390625" lon="-2.7749800868332386016845703125">
        <ele>852.20001220703125</ele>
        <time>2019-10-28T10:54:48.000Z</time>
      </trkpt>
      <trkpt lat="37.4910380132496356964111328125" lon="-2.7749945037066936492919921875">
        <ele>852.20001220703125</ele>
        <time>2019-10-28T10:54:50.000Z</time>
      </trkpt>
      <trkpt lat="37.490909434854984283447265625" lon="-2.775037586688995361328125">
        <ele>853.20001220703125</ele>
        <time>2019-10-28T10:55:05.000Z</time>
      </trkpt>
      <trkpt lat="37.49088403768837451934814453125" lon="-2.77508125640451908111572265625">
        <ele>853.5999755859375</ele>
        <time>2019-10-28T10:55:11.000Z</time>
      </trkpt>
      <trkpt lat="37.49089241959154605865478515625" lon="-2.77516339905560016632080078125">
        <ele>854.20001220703125</ele>
        <time>2019-10-28T10:55:23.000Z</time>
      </trkpt>
      <trkpt lat="37.4907868914306163787841796875" lon="-2.77514948509633541107177734375">
        <ele>855</ele>
        <time>2019-10-28T10:56:21.000Z</time>
      </trkpt>
      <trkpt lat="37.49077004380524158477783203125" lon="-2.7751309610903263092041015625">
        <ele>855</ele>
        <time>2019-10-28T10:56:22.000Z</time>
      </trkpt>
      <trkpt lat="37.4906799383461475372314453125" lon="-2.7750226669013500213623046875">
        <ele>854.5999755859375</ele>
        <time>2019-10-28T10:56:26.000Z</time>
      </trkpt>
      <trkpt lat="37.49052261002361774444580078125" lon="-2.7748831920325756072998046875">
        <ele>853.5999755859375</ele>
        <time>2019-10-28T10:56:34.000Z</time>
      </trkpt>
      <trkpt lat="37.49046628363430500030517578125" lon="-2.77486969716846942901611328125">
        <ele>854</ele>
        <time>2019-10-28T10:56:37.000Z</time>
      </trkpt>
      <trkpt lat="37.49038313515484333038330078125" lon="-2.7748077549040317535400390625">
        <ele>854</ele>
        <time>2019-10-28T10:56:42.000Z</time>
      </trkpt>
      <trkpt lat="37.490354217588901519775390625" lon="-2.774697281420230865478515625">
        <ele>853.4000244140625</ele>
        <time>2019-10-28T10:56:45.000Z</time>
      </trkpt>
      <trkpt lat="37.49032664112746715545654296875" lon="-2.77454850263893604278564453125">
        <ele>852.5999755859375</ele>
        <time>2019-10-28T10:56:54.000Z</time>
      </trkpt>
      <trkpt lat="37.4902983941137790679931640625" lon="-2.7745757438242435455322265625">
        <ele>853.20001220703125</ele>
        <time>2019-10-28T10:56:57.000Z</time>
      </trkpt>
      <trkpt lat="37.4902635253965854644775390625" lon="-2.77439964003860950469970703125">
        <ele>851.79998779296875</ele>
        <time>2019-10-28T10:57:07.000Z</time>
      </trkpt>
      <trkpt lat="37.49026796780526638031005859375" lon="-2.7743853069841861724853515625">
        <ele>851.5999755859375</ele>
        <time>2019-10-28T10:57:08.000Z</time>
      </trkpt>
      <trkpt lat="37.49028473161160945892333984375" lon="-2.7743611671030521392822265625">
        <ele>851.20001220703125</ele>
        <time>2019-10-28T10:57:10.000Z</time>
      </trkpt>
      <trkpt lat="37.49036394059658050537109375" lon="-2.7742827124893665313720703125">
        <ele>849.4000244140625</ele>
        <time>2019-10-28T10:58:00.000Z</time>
      </trkpt>
      <trkpt lat="37.4902935326099395751953125" lon="-2.77427743189036846160888671875">
        <ele>850.20001220703125</ele>
        <time>2019-10-28T10:59:12.000Z</time>
      </trkpt>
      <trkpt lat="37.49027718789875507354736328125" lon="-2.77429034002125263214111328125">
        <ele>850.4000244140625</ele>
        <time>2019-10-28T10:59:13.000Z</time>
      </trkpt>
      <trkpt lat="37.490124218165874481201171875" lon="-2.77442780323326587677001953125">
        <ele>853.5999755859375</ele>
        <time>2019-10-28T10:59:27.000Z</time>
      </trkpt>
      <trkpt lat="37.48994023539125919342041015625" lon="-2.77450910769402980804443359375">
        <ele>856</ele>
        <time>2019-10-28T10:59:37.000Z</time>
      </trkpt>
      <trkpt lat="37.48975063674151897430419921875" lon="-2.774576246738433837890625">
        <ele>857.4000244140625</ele>
        <time>2019-10-28T10:59:46.000Z</time>
      </trkpt>
      <trkpt lat="37.48955064453184604644775390625" lon="-2.77461673133075237274169921875">
        <ele>858.20001220703125</ele>
        <time>2019-10-28T10:59:55.000Z</time>
      </trkpt>
      <trkpt lat="37.48936347663402557373046875" lon="-2.7745619975030422210693359375">
        <ele>858.20001220703125</ele>
        <time>2019-10-28T11:00:02.000Z</time>
      </trkpt>
      <trkpt lat="37.48917974531650543212890625" lon="-2.77453592978417873382568359375">
        <ele>858.20001220703125</ele>
        <time>2019-10-28T11:00:10.000Z</time>
      </trkpt>
      <trkpt lat="37.48899945057928562164306640625" lon="-2.77458102442324161529541015625">
        <ele>857.79998779296875</ele>
        <time>2019-10-28T11:00:17.000Z</time>
      </trkpt>
      <trkpt lat="37.48882234096527099609375" lon="-2.77467775158584117889404296875">
        <ele>857.5999755859375</ele>
        <time>2019-10-28T11:00:24.000Z</time>
      </trkpt>
      <trkpt lat="37.48868110589683055877685546875" lon="-2.77484119869768619537353515625">
        <ele>857.5999755859375</ele>
        <time>2019-10-28T11:00:32.000Z</time>
      </trkpt>
      <trkpt lat="37.4885918386280536651611328125" lon="-2.775049321353435516357421875">
        <ele>858</ele>
        <time>2019-10-28T11:00:39.000Z</time>
      </trkpt>
      <trkpt lat="37.4884976260364055633544921875" lon="-2.775253169238567352294921875">
        <ele>858.20001220703125</ele>
        <time>2019-10-28T11:00:47.000Z</time>
      </trkpt>
      <trkpt lat="37.4883987195789813995361328125" lon="-2.77544268406927585601806640625">
        <ele>858.79998779296875</ele>
        <time>2019-10-28T11:00:55.000Z</time>
      </trkpt>
      <trkpt lat="37.48823904432356357574462890625" lon="-2.77558383531868457794189453125">
        <ele>860</ele>
        <time>2019-10-28T11:01:03.000Z</time>
      </trkpt>
      <trkpt lat="37.48808817006647586822509765625" lon="-2.77570889331400394439697265625">
        <ele>861.20001220703125</ele>
        <time>2019-10-28T11:01:11.000Z</time>
      </trkpt>
      <trkpt lat="37.48799177818000316619873046875" lon="-2.77577075175940990447998046875">
        <ele>862</ele>
        <time>2019-10-28T11:01:17.000Z</time>
      </trkpt>
      <trkpt lat="37.48780234716832637786865234375" lon="-2.7757418341934680938720703125">
        <ele>863.20001220703125</ele>
        <time>2019-10-28T11:01:26.000Z</time>
      </trkpt>
      <trkpt lat="37.48761811293661594390869140625" lon="-2.7756633795797824859619140625">
        <ele>863.20001220703125</ele>
        <time>2019-10-28T11:01:35.000Z</time>
      </trkpt>
      <trkpt lat="37.4874475412070751190185546875" lon="-2.77556673623621463775634765625">
        <ele>862.79998779296875</ele>
        <time>2019-10-28T11:01:42.000Z</time>
      </trkpt>
      <trkpt lat="37.48726791702210903167724609375" lon="-2.7754518203437328338623046875">
        <ele>862.79998779296875</ele>
        <time>2019-10-28T11:01:49.000Z</time>
      </trkpt>
      <trkpt lat="37.48708653263747692108154296875" lon="-2.77536741457879543304443359375">
        <ele>864</ele>
        <time>2019-10-28T11:01:56.000Z</time>
      </trkpt>
      <trkpt lat="37.48691503889858722686767578125" lon="-2.775273956358432769775390625">
        <ele>864.4000244140625</ele>
        <time>2019-10-28T11:02:03.000Z</time>
      </trkpt>
      <trkpt lat="37.486739940941333770751953125" lon="-2.7751825936138629913330078125">
        <ele>864.4000244140625</ele>
        <time>2019-10-28T11:02:10.000Z</time>
      </trkpt>
      <trkpt lat="37.48656115494668483734130859375" lon="-2.7750696055591106414794921875">
        <ele>865</ele>
        <time>2019-10-28T11:02:17.000Z</time>
      </trkpt>
      <trkpt lat="37.486375831067562103271484375" lon="-2.77496189810335636138916015625">
        <ele>865.20001220703125</ele>
        <time>2019-10-28T11:02:24.000Z</time>
      </trkpt>
      <trkpt lat="37.48619285412132740020751953125" lon="-2.77487464249134063720703125">
        <ele>867</ele>
        <time>2019-10-28T11:02:31.000Z</time>
      </trkpt>
      <trkpt lat="37.48610015027225017547607421875" lon="-2.77486818842589855194091796875">
        <ele>868.20001220703125</ele>
        <time>2019-10-28T11:02:35.000Z</time>
      </trkpt>
      <trkpt lat="37.48604885302484035491943359375" lon="-2.77510120533406734466552734375">
        <ele>868.79998779296875</ele>
        <time>2019-10-28T11:02:45.000Z</time>
      </trkpt>
      <trkpt lat="37.4860541336238384246826171875" lon="-2.77518904767930507659912109375">
        <ele>869</ele>
        <time>2019-10-28T11:02:49.000Z</time>
      </trkpt>
      <trkpt lat="37.48611406423151493072509765625" lon="-2.77525811456143856048583984375">
        <ele>868.5999755859375</ele>
        <time>2019-10-28T11:02:54.000Z</time>
      </trkpt>
      <trkpt lat="37.48611926101148128509521484375" lon="-2.77544033713638782501220703125">
        <ele>869.4000244140625</ele>
        <time>2019-10-28T11:03:01.000Z</time>
      </trkpt>
      <trkpt lat="37.48603351414203643798828125" lon="-2.77565608732402324676513671875">
        <ele>871.79998779296875</ele>
        <time>2019-10-28T11:03:13.000Z</time>
      </trkpt>
      <trkpt lat="37.48598992824554443359375" lon="-2.77587938122451305389404296875">
        <ele>873.20001220703125</ele>
        <time>2019-10-28T11:03:22.000Z</time>
      </trkpt>
      <trkpt lat="37.4859263934195041656494140625" lon="-2.7761092968285083770751953125">
        <ele>874</ele>
        <time>2019-10-28T11:03:28.000Z</time>
      </trkpt>
      <trkpt lat="37.4859153293073177337646484375" lon="-2.77613737620413303375244140625">
        <ele>874</ele>
        <time>2019-10-28T11:03:29.000Z</time>
      </trkpt>
      <trkpt lat="37.48588020913302898406982421875" lon="-2.7762125618755817413330078125">
        <ele>874.5999755859375</ele>
        <time>2019-10-28T11:03:33.000Z</time>
      </trkpt>
      <trkpt lat="37.48593435622751712799072265625" lon="-2.77636989019811153411865234375">
        <ele>874.4000244140625</ele>
        <time>2019-10-28T11:03:40.000Z</time>
      </trkpt>
      <trkpt lat="37.48606025241315364837646484375" lon="-2.7765867300331592559814453125">
        <ele>872.20001220703125</ele>
        <time>2019-10-28T11:03:47.000Z</time>
      </trkpt>
      <trkpt lat="37.486196793615818023681640625" lon="-2.77678906917572021484375">
        <ele>870</ele>
        <time>2019-10-28T11:03:53.000Z</time>
      </trkpt>
      <trkpt lat="37.4863350950181484222412109375" lon="-2.77698042802512645721435546875">
        <ele>869.20001220703125</ele>
        <time>2019-10-28T11:03:59.000Z</time>
      </trkpt>
      <trkpt lat="37.486352361738681793212890625" lon="-2.77720372192561626434326171875">
        <ele>871</ele>
        <time>2019-10-28T11:04:05.000Z</time>
      </trkpt>
      <trkpt lat="37.48623669147491455078125" lon="-2.777402959764003753662109375">
        <ele>873.20001220703125</ele>
        <time>2019-10-28T11:04:13.000Z</time>
      </trkpt>
      <trkpt lat="37.486142478883266448974609375" lon="-2.77761359699070453643798828125">
        <ele>875.20001220703125</ele>
        <time>2019-10-28T11:04:22.000Z</time>
      </trkpt>
      <trkpt lat="37.48605170287191867828369140625" lon="-2.7777789719402790069580078125">
        <ele>876.5999755859375</ele>
        <time>2019-10-28T11:04:29.000Z</time>
      </trkpt>
      <trkpt lat="37.48593955300748348236083984375" lon="-2.77770479209721088409423828125">
        <ele>876.5999755859375</ele>
        <time>2019-10-28T11:04:34.000Z</time>
      </trkpt>
      <trkpt lat="37.485807202756404876708984375" lon="-2.77754134498536586761474609375">
        <ele>877</ele>
        <time>2019-10-28T11:04:40.000Z</time>
      </trkpt>
      <trkpt lat="37.4856829829514026641845703125" lon="-2.77736683376133441925048828125">
        <ele>876.79998779296875</ele>
        <time>2019-10-28T11:04:46.000Z</time>
      </trkpt>
      <trkpt lat="37.48556722886860370635986328125" lon="-2.77746272273361682891845703125">
        <ele>878.4000244140625</ele>
        <time>2019-10-28T11:04:52.000Z</time>
      </trkpt>
      <trkpt lat="37.48542775399982929229736328125" lon="-2.777610160410404205322265625">
        <ele>879.4000244140625</ele>
        <time>2019-10-28T11:04:59.000Z</time>
      </trkpt>
      <trkpt lat="37.48527201823890209197998046875" lon="-2.7777601964771747589111328125">
        <ele>880</ele>
        <time>2019-10-28T11:05:07.000Z</time>
      </trkpt>
      <trkpt lat="37.4851066432893276214599609375" lon="-2.777889110147953033447265625">
        <ele>880.20001220703125</ele>
        <time>2019-10-28T11:05:15.000Z</time>
      </trkpt>
      <trkpt lat="37.4849363230168819427490234375" lon="-2.77796127833425998687744140625">
        <ele>881.20001220703125</ele>
        <time>2019-10-28T11:05:22.000Z</time>
      </trkpt>
      <trkpt lat="37.48476424254477024078369140625" lon="-2.7780455164611339569091796875">
        <ele>883</ele>
        <time>2019-10-28T11:05:30.000Z</time>
      </trkpt>
      <trkpt lat="37.48458973132073879241943359375" lon="-2.7781390585005283355712890625">
        <ele>885</ele>
        <time>2019-10-28T11:05:38.000Z</time>
      </trkpt>
      <trkpt lat="37.48442410491406917572021484375" lon="-2.7782587520778179168701171875">
        <ele>887.4000244140625</ele>
        <time>2019-10-28T11:05:47.000Z</time>
      </trkpt>
      <trkpt lat="37.4842691235244274139404296875" lon="-2.778385989367961883544921875">
        <ele>889.4000244140625</ele>
        <time>2019-10-28T11:05:56.000Z</time>
      </trkpt>
      <trkpt lat="37.48409938998520374298095703125" lon="-2.77851800434291362762451171875">
        <ele>891.4000244140625</ele>
        <time>2019-10-28T11:06:06.000Z</time>
      </trkpt>
      <trkpt lat="37.48393812216818332672119140625" lon="-2.7786369435489177703857421875">
        <ele>893.20001220703125</ele>
        <time>2019-10-28T11:06:14.000Z</time>
      </trkpt>
      <trkpt lat="37.483820021152496337890625" lon="-2.778816483914852142333984375">
        <ele>895</ele>
        <time>2019-10-28T11:06:23.000Z</time>
      </trkpt>
      <trkpt lat="37.4837569892406463623046875" lon="-2.77904086746275424957275390625">
        <ele>896</ele>
        <time>2019-10-28T11:06:31.000Z</time>
      </trkpt>
      <trkpt lat="37.4837072007358074188232421875" lon="-2.7792821824550628662109375">
        <ele>897.20001220703125</ele>
        <time>2019-10-28T11:06:39.000Z</time>
      </trkpt>
      <trkpt lat="37.48366621322929859161376953125" lon="-2.779527939856052398681640625">
        <ele>899</ele>
        <time>2019-10-28T11:06:48.000Z</time>
      </trkpt>
      <trkpt lat="37.48362220823764801025390625" lon="-2.779758609831333160400390625">
        <ele>900.79998779296875</ele>
        <time>2019-10-28T11:06:57.000Z</time>
      </trkpt>
      <trkpt lat="37.4835238046944141387939453125" lon="-2.779942341148853302001953125">
        <ele>902.5999755859375</ele>
        <time>2019-10-28T11:07:06.000Z</time>
      </trkpt>
      <trkpt lat="37.4833598546683788299560546875" lon="-2.78008994646370410919189453125">
        <ele>904.79998779296875</ele>
        <time>2019-10-28T11:07:14.000Z</time>
      </trkpt>
      <trkpt lat="37.48319800011813640594482421875" lon="-2.78023428283631801605224609375">
        <ele>906</ele>
        <time>2019-10-28T11:07:23.000Z</time>
      </trkpt>
      <trkpt lat="37.4831311963498592376708984375" lon="-2.7803099714219570159912109375">
        <ele>906.4000244140625</ele>
        <time>2019-10-28T11:07:28.000Z</time>
      </trkpt>
      <trkpt lat="37.4831669032573699951171875" lon="-2.780380882322788238525390625">
        <ele>906</ele>
        <time>2019-10-28T11:07:33.000Z</time>
      </trkpt>
      <trkpt lat="37.483273185789585113525390625" lon="-2.780570648610591888427734375">
        <ele>905.20001220703125</ele>
        <time>2019-10-28T11:07:42.000Z</time>
      </trkpt>
      <trkpt lat="37.483261115849018096923828125" lon="-2.78058347292244434356689453125">
        <ele>905.20001220703125</ele>
        <time>2019-10-28T11:07:43.000Z</time>
      </trkpt>
      <trkpt lat="37.48322750441730022430419921875" lon="-2.7808102034032344818115234375">
        <ele>906.20001220703125</ele>
        <time>2019-10-28T11:07:51.000Z</time>
      </trkpt>
      <trkpt lat="37.4831855110824108123779296875" lon="-2.781048081815242767333984375">
        <ele>908</ele>
        <time>2019-10-28T11:08:00.000Z</time>
      </trkpt>
      <trkpt lat="37.4831583537161350250244140625" lon="-2.78127883560955524444580078125">
        <ele>909.20001220703125</ele>
        <time>2019-10-28T11:08:09.000Z</time>
      </trkpt>
      <trkpt lat="37.4832098186016082763671875" lon="-2.7815008722245693206787109375">
        <ele>910</ele>
        <time>2019-10-28T11:08:17.000Z</time>
      </trkpt>
      <trkpt lat="37.4832552485167980194091796875" lon="-2.781723327934741973876953125">
        <ele>910</ele>
        <time>2019-10-28T11:08:26.000Z</time>
      </trkpt>
      <trkpt lat="37.4832559190690517425537109375" lon="-2.7817312069237232208251953125">
        <ele>910</ele>
        <time>2019-10-28T11:08:27.000Z</time>
      </trkpt>
      <trkpt lat="37.4832663126289844512939453125" lon="-2.78178107924759387969970703125">
        <ele>910.20001220703125</ele>
        <time>2019-10-28T11:08:35.000Z</time>
      </trkpt>
      <trkpt lat="37.483259774744510650634765625" lon="-2.7819876931607723236083984375">
        <ele>912</ele>
        <time>2019-10-28T11:08:51.000Z</time>
      </trkpt>
      <trkpt lat="37.4832539074122905731201171875" lon="-2.78197553940117359161376953125">
        <ele>912</ele>
        <time>2019-10-28T11:11:08.000Z</time>
      </trkpt>
      <trkpt lat="37.48325265012681484222412109375" lon="-2.78205499984323978424072265625">
        <ele>912.5999755859375</ele>
        <time>2019-10-28T11:12:58.000Z</time>
      </trkpt>
      <trkpt lat="37.48316313140094280242919921875" lon="-2.782259769737720489501953125">
        <ele>915.5999755859375</ele>
        <time>2019-10-28T11:13:12.000Z</time>
      </trkpt>
      <trkpt lat="37.48308040201663970947265625" lon="-2.7824600972235202789306640625">
        <ele>918.5999755859375</ele>
        <time>2019-10-28T11:13:26.000Z</time>
      </trkpt>
      <trkpt lat="37.48292910866439342498779296875" lon="-2.78260049410164356231689453125">
        <ele>922.20001220703125</ele>
        <time>2019-10-28T11:13:42.000Z</time>
      </trkpt>
      <trkpt lat="37.4827483110129833221435546875" lon="-2.78257652185857295989990234375">
        <ele>925</ele>
        <time>2019-10-28T11:13:59.000Z</time>
      </trkpt>
      <trkpt lat="37.48270497657358646392822265625" lon="-2.7825650386512279510498046875">
        <ele>925.20001220703125</ele>
        <time>2019-10-28T11:14:03.000Z</time>
      </trkpt>
      <trkpt lat="37.48254538513720035552978515625" lon="-2.78267048299312591552734375">
        <ele>926.4000244140625</ele>
        <time>2019-10-28T11:14:17.000Z</time>
      </trkpt>
      <trkpt lat="37.48238864354789257049560546875" lon="-2.78279797174036502838134765625">
        <ele>927.5999755859375</ele>
        <time>2019-10-28T11:14:30.000Z</time>
      </trkpt>
      <trkpt lat="37.482388727366924285888671875" lon="-2.78299368917942047119140625">
        <ele>928.4000244140625</ele>
        <time>2019-10-28T11:14:45.000Z</time>
      </trkpt>
      <trkpt lat="37.48249207623302936553955078125" lon="-2.78316979296505451202392578125">
        <ele>929.20001220703125</ele>
        <time>2019-10-28T11:15:04.000Z</time>
      </trkpt>
      <trkpt lat="37.4825813435018062591552734375" lon="-2.78338721953332424163818359375">
        <ele>929.5999755859375</ele>
        <time>2019-10-28T11:15:13.000Z</time>
      </trkpt>
      <trkpt lat="37.48265066184103488922119140625" lon="-2.78359626419842243194580078125">
        <ele>929.79998779296875</ele>
        <time>2019-10-28T11:15:22.000Z</time>
      </trkpt>
      <trkpt lat="37.4827372469007968902587890625" lon="-2.7838183008134365081787109375">
        <ele>932.20001220703125</ele>
        <time>2019-10-28T11:15:32.000Z</time>
      </trkpt>
      <trkpt lat="37.48282835818827152252197265625" lon="-2.78401569463312625885009765625">
        <ele>934.20001220703125</ele>
        <time>2019-10-28T11:15:41.000Z</time>
      </trkpt>
      <trkpt lat="37.4829162843525409698486328125" lon="-2.78421484865248203277587890625">
        <ele>936.4000244140625</ele>
        <time>2019-10-28T11:15:50.000Z</time>
      </trkpt>
      <trkpt lat="37.48294117860496044158935546875" lon="-2.78426111675798892974853515625">
        <ele>936.79998779296875</ele>
        <time>2019-10-28T11:15:53.000Z</time>
      </trkpt>
      <trkpt lat="37.48302097432315349578857421875" lon="-2.78444476425647735595703125">
        <ele>937.79998779296875</ele>
        <time>2019-10-28T11:16:21.000Z</time>
      </trkpt>
      <trkpt lat="37.4830695055425167083740234375" lon="-2.78464727103710174560546875">
        <ele>939.5999755859375</ele>
        <time>2019-10-28T11:17:12.000Z</time>
      </trkpt>
      <trkpt lat="37.48302047140896320343017578125" lon="-2.78487668372690677642822265625">
        <ele>944.79998779296875</ele>
        <time>2019-10-28T11:17:30.000Z</time>
      </trkpt>
      <trkpt lat="37.4831010214984416961669921875" lon="-2.78508522547781467437744140625">
        <ele>945.5999755859375</ele>
        <time>2019-10-28T11:17:47.000Z</time>
      </trkpt>
      <trkpt lat="37.48313144780695438385009765625" lon="-2.785170637071132659912109375">
        <ele>945.5999755859375</ele>
        <time>2019-10-28T11:17:53.000Z</time>
      </trkpt>
      <trkpt lat="37.4832089804112911224365234375" lon="-2.785387225449085235595703125">
        <ele>946.4000244140625</ele>
        <time>2019-10-28T11:18:08.000Z</time>
      </trkpt>
      <trkpt lat="37.48323337174952030181884765625" lon="-2.78544656932353973388671875">
        <ele>947.4000244140625</ele>
        <time>2019-10-28T11:18:13.000Z</time>
      </trkpt>
      <trkpt lat="37.483271844685077667236328125" lon="-2.78567044995725154876708984375">
        <ele>948.5999755859375</ele>
        <time>2019-10-28T11:18:34.000Z</time>
      </trkpt>
      <trkpt lat="37.48329095542430877685546875" lon="-2.78588200919330120086669921875">
        <ele>950.79998779296875</ele>
        <time>2019-10-28T11:19:13.000Z</time>
      </trkpt>
      <trkpt lat="37.48332473449409008026123046875" lon="-2.78610312379896640777587890625">
        <ele>954.79998779296875</ele>
        <time>2019-10-28T11:19:36.000Z</time>
      </trkpt>
      <trkpt lat="37.483394555747509002685546875" lon="-2.786319293081760406494140625">
        <ele>957.79998779296875</ele>
        <time>2019-10-28T11:19:51.000Z</time>
      </trkpt>
      <trkpt lat="37.483337558805942535400390625" lon="-2.78653143905103206634521484375">
        <ele>964.20001220703125</ele>
        <time>2019-10-28T11:20:14.000Z</time>
      </trkpt>
      <trkpt lat="37.48324661515653133392333984375" lon="-2.78673260472714900970458984375">
        <ele>970</ele>
        <time>2019-10-28T11:20:37.000Z</time>
      </trkpt>
      <trkpt lat="37.48319431208074092864990234375" lon="-2.7869605086743831634521484375">
        <ele>976</ele>
        <time>2019-10-28T11:20:59.000Z</time>
      </trkpt>
      <trkpt lat="37.48324544169008731842041015625" lon="-2.78703971765935420989990234375">
        <ele>975.5999755859375</ele>
        <time>2019-10-28T11:21:07.000Z</time>
      </trkpt>
      <trkpt lat="37.483394555747509002685546875" lon="-2.78717248700559139251708984375">
        <ele>974</ele>
        <time>2019-10-28T11:21:21.000Z</time>
      </trkpt>
      <trkpt lat="37.48351399786770343780517578125" lon="-2.78734666295349597930908203125">
        <ele>974.5999755859375</ele>
        <time>2019-10-28T11:21:35.000Z</time>
      </trkpt>
      <trkpt lat="37.4835234694182872772216796875" lon="-2.78737683780491352081298828125">
        <ele>975</ele>
        <time>2019-10-28T11:21:38.000Z</time>
      </trkpt>
      <trkpt lat="37.483550794422626495361328125" lon="-2.787577919661998748779296875">
        <ele>976.20001220703125</ele>
        <time>2019-10-28T11:22:05.000Z</time>
      </trkpt>
      <trkpt lat="37.48358356766402721405029296875" lon="-2.78765897266566753387451171875">
        <ele>976.4000244140625</ele>
        <time>2019-10-28T11:24:16.000Z</time>
      </trkpt>
      <trkpt lat="37.4836327694356441497802734375" lon="-2.78787841089069843292236328125">
        <ele>978.79998779296875</ele>
        <time>2019-10-28T11:24:30.000Z</time>
      </trkpt>
      <trkpt lat="37.48368012718856334686279296875" lon="-2.7880967594683170318603515625">
        <ele>980.5999755859375</ele>
        <time>2019-10-28T11:24:46.000Z</time>
      </trkpt>
      <trkpt lat="37.48368130065500736236572265625" lon="-2.788323573768138885498046875">
        <ele>984.5999755859375</ele>
        <time>2019-10-28T11:25:06.000Z</time>
      </trkpt>
      <trkpt lat="37.48369596898555755615234375" lon="-2.78855013661086559295654296875">
        <ele>988</ele>
        <time>2019-10-28T11:25:21.000Z</time>
      </trkpt>
      <trkpt lat="37.48378322459757328033447265625" lon="-2.78875641524791717529296875">
        <ele>990.20001220703125</ele>
        <time>2019-10-28T11:25:35.000Z</time>
      </trkpt>
      <trkpt lat="37.48387341387569904327392578125" lon="-2.78895355761051177978515625">
        <ele>992</ele>
        <time>2019-10-28T11:25:50.000Z</time>
      </trkpt>
      <trkpt lat="37.48399612493813037872314453125" lon="-2.7891260571777820587158203125">
        <ele>995</ele>
        <time>2019-10-28T11:26:09.000Z</time>
      </trkpt>
      <trkpt lat="37.48408882878720760345458984375" lon="-2.789326049387454986572265625">
        <ele>996.5999755859375</ele>
        <time>2019-10-28T11:26:28.000Z</time>
      </trkpt>
      <trkpt lat="37.48415018431842327117919921875" lon="-2.78953920118510723114013671875">
        <ele>997.4000244140625</ele>
        <time>2019-10-28T11:26:47.000Z</time>
      </trkpt>
      <trkpt lat="37.48418471775949001312255859375" lon="-2.78976333327591419219970703125">
        <ele>999.79998779296875</ele>
        <time>2019-10-28T11:27:05.000Z</time>
      </trkpt>
      <trkpt lat="37.484200894832611083984375" lon="-2.7899981103837490081787109375">
        <ele>1001.5999755859375</ele>
        <time>2019-10-28T11:27:22.000Z</time>
      </trkpt>
      <trkpt lat="37.48423953540623188018798828125" lon="-2.79021981172263622283935546875">
        <ele>1003</ele>
        <time>2019-10-28T11:27:45.000Z</time>
      </trkpt>
      <trkpt lat="37.48431597836315631866455078125" lon="-2.7904242463409900665283203125">
        <ele>1005</ele>
        <time>2019-10-28T11:28:06.000Z</time>
      </trkpt>
      <trkpt lat="37.4843901582062244415283203125" lon="-2.79063396155834197998046875">
        <ele>1008</ele>
        <time>2019-10-28T11:28:23.000Z</time>
      </trkpt>
      <trkpt lat="37.48444589786231517791748046875" lon="-2.79071174561977386474609375">
        <ele>1009.20001220703125</ele>
        <time>2019-10-28T11:28:30.000Z</time>
      </trkpt>
      <trkpt lat="37.48449769802391529083251953125" lon="-2.7907137572765350341796875">
        <ele>1009.79998779296875</ele>
        <time>2019-10-28T11:28:35.000Z</time>
      </trkpt>
      <trkpt lat="37.4846265278756618499755859375" lon="-2.79056246392428874969482421875">
        <ele>1009.20001220703125</ele>
        <time>2019-10-28T11:28:51.000Z</time>
      </trkpt>
      <trkpt lat="37.48474898748099803924560546875" lon="-2.7905955724418163299560546875">
        <ele>1011</ele>
        <time>2019-10-28T11:29:09.000Z</time>
      </trkpt>
      <trkpt lat="37.4847720377147197723388671875" lon="-2.79082314111292362213134765625">
        <ele>1012</ele>
        <time>2019-10-28T11:29:26.000Z</time>
      </trkpt>
      <trkpt lat="37.484770528972148895263671875" lon="-2.79089136980473995208740234375">
        <ele>1012.20001220703125</ele>
        <time>2019-10-28T11:29:31.000Z</time>
      </trkpt>
      <trkpt lat="37.48476491309702396392822265625" lon="-2.790951468050479888916015625">
        <ele>1012.4000244140625</ele>
        <time>2019-10-28T11:29:36.000Z</time>
      </trkpt>
      <trkpt lat="37.4847708642482757568359375" lon="-2.79116830788552761077880859375">
        <ele>1013.79998779296875</ele>
        <time>2019-10-28T11:29:51.000Z</time>
      </trkpt>
      <trkpt lat="37.48476759530603885650634765625" lon="-2.7911735884845256805419921875">
        <ele>1013.79998779296875</ele>
        <time>2019-10-28T11:29:52.000Z</time>
      </trkpt>
      <trkpt lat="37.48472551815211772918701171875" lon="-2.7911769412457942962646484375">
        <ele>1014</ele>
        <time>2019-10-28T11:32:06.000Z</time>
      </trkpt>
      <trkpt lat="37.4847774021327495574951171875" lon="-2.79119328595697879791259765625">
        <ele>1013.79998779296875</ele>
        <time>2019-10-28T11:36:16.000Z</time>
      </trkpt>
      <trkpt lat="37.4848354049026966094970703125" lon="-2.791251204907894134521484375">
        <ele>1014.20001220703125</ele>
        <time>2019-10-28T11:36:23.000Z</time>
      </trkpt>
      <trkpt lat="37.4849505722522735595703125" lon="-2.79142747633159160614013671875">
        <ele>1015</ele>
        <time>2019-10-28T11:36:46.000Z</time>
      </trkpt>
      <trkpt lat="37.4849651567637920379638671875" lon="-2.7914458326995372772216796875">
        <ele>1015</ele>
        <time>2019-10-28T11:36:49.000Z</time>
      </trkpt>
      <trkpt lat="37.4849993549287319183349609375" lon="-2.79148447327315807342529296875">
        <ele>1015.20001220703125</ele>
        <time>2019-10-28T11:36:56.000Z</time>
      </trkpt>
      <trkpt lat="37.48507454060018062591552734375" lon="-2.7916047535836696624755859375">
        <ele>1016.4000244140625</ele>
        <time>2019-10-28T11:37:02.000Z</time>
      </trkpt>
      <trkpt lat="37.48517093248665332794189453125" lon="-2.7918233536183834075927734375">
        <ele>1018</ele>
        <time>2019-10-28T11:37:09.000Z</time>
      </trkpt>
      <trkpt lat="37.4852477945387363433837890625" lon="-2.79204824008047580718994140625">
        <ele>1019.20001220703125</ele>
        <time>2019-10-28T11:37:16.000Z</time>
      </trkpt>
      <trkpt lat="37.48527118004858493804931640625" lon="-2.79209702275693416595458984375">
        <ele>1019.20001220703125</ele>
        <time>2019-10-28T11:37:18.000Z</time>
      </trkpt>
      <trkpt lat="37.48534929938614368438720703125" lon="-2.7923311293125152587890625">
        <ele>1019.20001220703125</ele>
        <time>2019-10-28T11:37:25.000Z</time>
      </trkpt>
      <trkpt lat="37.48539221473038196563720703125" lon="-2.7925649844110012054443359375">
        <ele>1019.5999755859375</ele>
        <time>2019-10-28T11:37:31.000Z</time>
      </trkpt>
      <trkpt lat="37.48537276871502399444580078125" lon="-2.79282088391482830047607421875">
        <ele>1020</ele>
        <time>2019-10-28T11:37:37.000Z</time>
      </trkpt>
      <trkpt lat="37.4853792227804660797119140625" lon="-2.79307468794286251068115234375">
        <ele>1019.79998779296875</ele>
        <time>2019-10-28T11:37:43.000Z</time>
      </trkpt>
      <trkpt lat="37.48545139096677303314208984375" lon="-2.7932885102927684783935546875">
        <ele>1018.5999755859375</ele>
        <time>2019-10-28T11:37:49.000Z</time>
      </trkpt>
      <trkpt lat="37.485554404556751251220703125" lon="-2.7935086190700531005859375">
        <ele>1018.5999755859375</ele>
        <time>2019-10-28T11:37:56.000Z</time>
      </trkpt>
      <trkpt lat="37.48562523163855075836181640625" lon="-2.79375496320426464080810546875">
        <ele>1019.4000244140625</ele>
        <time>2019-10-28T11:38:03.000Z</time>
      </trkpt>
      <trkpt lat="37.48567736707627773284912109375" lon="-2.794009856879711151123046875">
        <ele>1020.79998779296875</ele>
        <time>2019-10-28T11:38:10.000Z</time>
      </trkpt>
      <trkpt lat="37.485730089247226715087890625" lon="-2.79426424764096736907958984375">
        <ele>1021.20001220703125</ele>
        <time>2019-10-28T11:38:17.000Z</time>
      </trkpt>
      <trkpt lat="37.48580359853804111480712890625" lon="-2.794488966464996337890625">
        <ele>1020.4000244140625</ele>
        <time>2019-10-28T11:38:23.000Z</time>
      </trkpt>
      <trkpt lat="37.48590367846190929412841796875" lon="-2.79472391121089458465576171875">
        <ele>1019.5999755859375</ele>
        <time>2019-10-28T11:38:29.000Z</time>
      </trkpt>
      <trkpt lat="37.48599956743419170379638671875" lon="-2.7949504740536212921142578125">
        <ele>1018.4000244140625</ele>
        <time>2019-10-28T11:38:35.000Z</time>
      </trkpt>
      <trkpt lat="37.48608539812266826629638671875" lon="-2.7951841615140438079833984375">
        <ele>1018</ele>
        <time>2019-10-28T11:38:41.000Z</time>
      </trkpt>
      <trkpt lat="37.48615262098610401153564453125" lon="-2.795399241149425506591796875">
        <ele>1018.79998779296875</ele>
        <time>2019-10-28T11:38:46.000Z</time>
      </trkpt>
      <trkpt lat="37.486212216317653656005859375" lon="-2.7956302464008331298828125">
        <ele>1020.5999755859375</ele>
        <time>2019-10-28T11:38:51.000Z</time>
      </trkpt>
      <trkpt lat="37.48628589324653148651123046875" lon="-2.7958810329437255859375">
        <ele>1022.20001220703125</ele>
        <time>2019-10-28T11:38:56.000Z</time>
      </trkpt>
      <trkpt lat="37.486381195485591888427734375" lon="-2.79611128382384777069091796875">
        <ele>1022.79998779296875</ele>
        <time>2019-10-28T11:39:02.000Z</time>
      </trkpt>
      <trkpt lat="37.4864782579243183135986328125" lon="-2.7963059954345226287841796875">
        <ele>1023.79998779296875</ele>
        <time>2019-10-28T11:39:08.000Z</time>
      </trkpt>
      <trkpt lat="37.4865654297173023223876953125" lon="-2.79653658159077167510986328125">
        <ele>1024.199951171875</ele>
        <time>2019-10-28T11:39:15.000Z</time>
      </trkpt>
      <trkpt lat="37.486673556268215179443359375" lon="-2.79676037840545177459716796875">
        <ele>1025</ele>
        <time>2019-10-28T11:39:22.000Z</time>
      </trkpt>
      <trkpt lat="37.48678863979876041412353515625" lon="-2.7969775535166263580322265625">
        <ele>1025</ele>
        <time>2019-10-28T11:39:29.000Z</time>
      </trkpt>
      <trkpt lat="37.486877739429473876953125" lon="-2.7972095645964145660400390625">
        <ele>1025.199951171875</ele>
        <time>2019-10-28T11:39:36.000Z</time>
      </trkpt>
      <trkpt lat="37.48694169335067272186279296875" lon="-2.79743671417236328125">
        <ele>1026</ele>
        <time>2019-10-28T11:39:43.000Z</time>
      </trkpt>
      <trkpt lat="37.4869986064732074737548828125" lon="-2.7976526319980621337890625">
        <ele>1027</ele>
        <time>2019-10-28T11:39:50.000Z</time>
      </trkpt>
      <trkpt lat="37.48705199919641017913818359375" lon="-2.79790249653160572052001953125">
        <ele>1028.800048828125</ele>
        <time>2019-10-28T11:39:58.000Z</time>
      </trkpt>
      <trkpt lat="37.487091980874538421630859375" lon="-2.79812528751790523529052734375">
        <ele>1030.4000244140625</ele>
        <time>2019-10-28T11:40:05.000Z</time>
      </trkpt>
      <trkpt lat="37.4871045537292957305908203125" lon="-2.7982120402157306671142578125">
        <ele>1031.199951171875</ele>
        <time>2019-10-28T11:40:08.000Z</time>
      </trkpt>
      <trkpt lat="37.48713833279907703399658203125" lon="-2.79834774322807788848876953125">
        <ele>1031.199951171875</ele>
        <time>2019-10-28T11:40:13.000Z</time>
      </trkpt>
      <trkpt lat="37.4871739558875560760498046875" lon="-2.79857338406145572662353515625">
        <ele>1031.199951171875</ele>
        <time>2019-10-28T11:40:21.000Z</time>
      </trkpt>
      <trkpt lat="37.4872101657092571258544921875" lon="-2.79881310649216175079345703125">
        <ele>1031</ele>
        <time>2019-10-28T11:40:30.000Z</time>
      </trkpt>
      <trkpt lat="37.487222068011760711669921875" lon="-2.79904578812420368194580078125">
        <ele>1031.199951171875</ele>
        <time>2019-10-28T11:40:38.000Z</time>
      </trkpt>
      <trkpt lat="37.4872403405606746673583984375" lon="-2.79927729628980159759521484375">
        <ele>1032.199951171875</ele>
        <time>2019-10-28T11:40:46.000Z</time>
      </trkpt>
      <trkpt lat="37.4872735328972339630126953125" lon="-2.799514420330524444580078125">
        <ele>1034</ele>
        <time>2019-10-28T11:40:54.000Z</time>
      </trkpt>
      <trkpt lat="37.487309239804744720458984375" lon="-2.79974483884871006011962890625">
        <ele>1034.800048828125</ele>
        <time>2019-10-28T11:41:02.000Z</time>
      </trkpt>
      <trkpt lat="37.4873358942568302154541015625" lon="-2.799976430833339691162109375">
        <ele>1035.5999755859375</ele>
        <time>2019-10-28T11:41:10.000Z</time>
      </trkpt>
      <trkpt lat="37.48739012517035007476806640625" lon="-2.8001955337822437286376953125">
        <ele>1036.800048828125</ele>
        <time>2019-10-28T11:41:18.000Z</time>
      </trkpt>
      <trkpt lat="37.48745986260473728179931640625" lon="-2.8004319034516811370849609375">
        <ele>1037.5999755859375</ele>
        <time>2019-10-28T11:41:27.000Z</time>
      </trkpt>
      <trkpt lat="37.487513758242130279541015625" lon="-2.80067472718656063079833984375">
        <ele>1039.199951171875</ele>
        <time>2019-10-28T11:41:36.000Z</time>
      </trkpt>
      <trkpt lat="37.48752842657268047332763671875" lon="-2.80092249624431133270263671875">
        <ele>1040.800048828125</ele>
        <time>2019-10-28T11:41:45.000Z</time>
      </trkpt>
      <trkpt lat="37.48754066415131092071533203125" lon="-2.80117546208202838897705078125">
        <ele>1041.5999755859375</ele>
        <time>2019-10-28T11:41:54.000Z</time>
      </trkpt>
      <trkpt lat="37.48754971660673618316650390625" lon="-2.80140629969537258148193359375">
        <ele>1042.4000244140625</ele>
        <time>2019-10-28T11:42:02.000Z</time>
      </trkpt>
      <trkpt lat="37.48754217289388179779052734375" lon="-2.80165591277182102203369140625">
        <ele>1043.4000244140625</ele>
        <time>2019-10-28T11:42:11.000Z</time>
      </trkpt>
      <trkpt lat="37.4875464476644992828369140625" lon="-2.8018903546035289764404296875">
        <ele>1045</ele>
        <time>2019-10-28T11:42:19.000Z</time>
      </trkpt>
      <trkpt lat="37.48755658976733684539794921875" lon="-2.8021185100078582763671875">
        <ele>1046.800048828125</ele>
        <time>2019-10-28T11:42:27.000Z</time>
      </trkpt>
      <trkpt lat="37.48754418455064296722412109375" lon="-2.8023491799831390380859375">
        <ele>1049</ele>
        <time>2019-10-28T11:42:35.000Z</time>
      </trkpt>
      <trkpt lat="37.48751434497535228729248046875" lon="-2.8025699593126773834228515625">
        <ele>1049.800048828125</ele>
        <time>2019-10-28T11:42:43.000Z</time>
      </trkpt>
      <trkpt lat="37.48748752288520336151123046875" lon="-2.802729047834873199462890625">
        <ele>1050.5999755859375</ele>
        <time>2019-10-28T11:42:49.000Z</time>
      </trkpt>
      <trkpt lat="37.48747075907886028289794921875" lon="-2.80280725099146366119384765625">
        <ele>1050.800048828125</ele>
        <time>2019-10-28T11:42:52.000Z</time>
      </trkpt>
      <trkpt lat="37.48742046765983104705810546875" lon="-2.8030269406735897064208984375">
        <ele>1051.5999755859375</ele>
        <time>2019-10-28T11:43:00.000Z</time>
      </trkpt>
      <trkpt lat="37.48735927976667881011962890625" lon="-2.8032592870295047760009765625">
        <ele>1052.4000244140625</ele>
        <time>2019-10-28T11:43:09.000Z</time>
      </trkpt>
      <trkpt lat="37.487291134893894195556640625" lon="-2.8034849278628826141357421875">
        <ele>1053.800048828125</ele>
        <time>2019-10-28T11:43:18.000Z</time>
      </trkpt>
      <trkpt lat="37.4872249178588390350341796875" lon="-2.80370964668691158294677734375">
        <ele>1055</ele>
        <time>2019-10-28T11:43:28.000Z</time>
      </trkpt>
      <trkpt lat="37.48716448433697223663330078125" lon="-2.8039315156638622283935546875">
        <ele>1055.5999755859375</ele>
        <time>2019-10-28T11:43:38.000Z</time>
      </trkpt>
      <trkpt lat="37.48709298670291900634765625" lon="-2.8041635267436504364013671875">
        <ele>1056.199951171875</ele>
        <time>2019-10-28T11:43:48.000Z</time>
      </trkpt>
      <trkpt lat="37.4870173819363117218017578125" lon="-2.80439226888120174407958984375">
        <ele>1057.199951171875</ele>
        <time>2019-10-28T11:43:57.000Z</time>
      </trkpt>
      <trkpt lat="37.4869895540177822113037109375" lon="-2.804628722369670867919921875">
        <ele>1058</ele>
        <time>2019-10-28T11:44:06.000Z</time>
      </trkpt>
      <trkpt lat="37.48696164228022098541259765625" lon="-2.80485612340271472930908203125">
        <ele>1059.199951171875</ele>
        <time>2019-10-28T11:44:15.000Z</time>
      </trkpt>
      <trkpt lat="37.486947141587734222412109375" lon="-2.80508838593959808349609375">
        <ele>1061</ele>
        <time>2019-10-28T11:44:24.000Z</time>
      </trkpt>
      <trkpt lat="37.4869271926581859588623046875" lon="-2.8053403459489345550537109375">
        <ele>1062</ele>
        <time>2019-10-28T11:44:33.000Z</time>
      </trkpt>
      <trkpt lat="37.48690749518573284149169921875" lon="-2.80556975863873958587646484375">
        <ele>1063</ele>
        <time>2019-10-28T11:44:41.000Z</time>
      </trkpt>
      <trkpt lat="37.48687681742012500762939453125" lon="-2.8058090619742870330810546875">
        <ele>1062.800048828125</ele>
        <time>2019-10-28T11:44:49.000Z</time>
      </trkpt>
      <trkpt lat="37.48682283796370029449462890625" lon="-2.8060533106327056884765625">
        <ele>1062.800048828125</ele>
        <time>2019-10-28T11:44:57.000Z</time>
      </trkpt>
      <trkpt lat="37.48674471862614154815673828125" lon="-2.8062868304550647735595703125">
        <ele>1063.4000244140625</ele>
        <time>2019-10-28T11:45:05.000Z</time>
      </trkpt>
      <trkpt lat="37.48667213134467601776123046875" lon="-2.80652479268610477447509765625">
        <ele>1064.199951171875</ele>
        <time>2019-10-28T11:45:12.000Z</time>
      </trkpt>
      <trkpt lat="37.48662267811596393585205078125" lon="-2.8067468293011188507080078125">
        <ele>1065.4000244140625</ele>
        <time>2019-10-28T11:45:18.000Z</time>
      </trkpt>
      <trkpt lat="37.4865724705159664154052734375" lon="-2.80696601606905460357666015625">
        <ele>1066</ele>
        <time>2019-10-28T11:45:24.000Z</time>
      </trkpt>
      <trkpt lat="37.4865295551717281341552734375" lon="-2.80721764080226421356201171875">
        <ele>1066.4000244140625</ele>
        <time>2019-10-28T11:45:31.000Z</time>
      </trkpt>
      <trkpt lat="37.48647850938141345977783203125" lon="-2.80744210816919803619384765625">
        <ele>1066.5999755859375</ele>
        <time>2019-10-28T11:45:38.000Z</time>
      </trkpt>
      <trkpt lat="37.4864514358341693878173828125" lon="-2.80767428688704967498779296875">
        <ele>1066.199951171875</ele>
        <time>2019-10-28T11:45:45.000Z</time>
      </trkpt>
      <trkpt lat="37.48643542639911174774169921875" lon="-2.80791685916483402252197265625">
        <ele>1066</ele>
        <time>2019-10-28T11:45:52.000Z</time>
      </trkpt>
      <trkpt lat="37.4864189140498638153076171875" lon="-2.8081627003848552703857421875">
        <ele>1066.4000244140625</ele>
        <time>2019-10-28T11:45:59.000Z</time>
      </trkpt>
      <trkpt lat="37.48640826903283596038818359375" lon="-2.80840753577649593353271484375">
        <ele>1067.5999755859375</ele>
        <time>2019-10-28T11:46:06.000Z</time>
      </trkpt>
      <trkpt lat="37.4863962829113006591796875" lon="-2.80864088796079158782958984375">
        <ele>1068.5999755859375</ele>
        <time>2019-10-28T11:46:13.000Z</time>
      </trkpt>
      <trkpt lat="37.48639318160712718963623046875" lon="-2.80887608416378498077392578125">
        <ele>1069.5999755859375</ele>
        <time>2019-10-28T11:46:20.000Z</time>
      </trkpt>
      <trkpt lat="37.486393935978412628173828125" lon="-2.80913047492504119873046875">
        <ele>1070.4000244140625</ele>
        <time>2019-10-28T11:46:28.000Z</time>
      </trkpt>
      <trkpt lat="37.4863748252391815185546875" lon="-2.80936424620449542999267578125">
        <ele>1070.800048828125</ele>
        <time>2019-10-28T11:46:34.000Z</time>
      </trkpt>
      <trkpt lat="37.4863525293767452239990234375" lon="-2.80960380099713802337646484375">
        <ele>1070.199951171875</ele>
        <time>2019-10-28T11:46:41.000Z</time>
      </trkpt>
      <trkpt lat="37.48632931150496006011962890625" lon="-2.8098571859300136566162109375">
        <ele>1070.199951171875</ele>
        <time>2019-10-28T11:46:48.000Z</time>
      </trkpt>
      <trkpt lat="37.4863273836672306060791015625" lon="-2.8101317770779132843017578125">
        <ele>1069.199951171875</ele>
        <time>2019-10-28T11:46:54.000Z</time>
      </trkpt>
      <trkpt lat="37.4863531999289989471435546875" lon="-2.810392118990421295166015625">
        <ele>1068.199951171875</ele>
        <time>2019-10-28T11:46:59.000Z</time>
      </trkpt>
      <trkpt lat="37.48638094402849674224853515625" lon="-2.81063628382980823516845703125">
        <ele>1066</ele>
        <time>2019-10-28T11:47:04.000Z</time>
      </trkpt>
      <trkpt lat="37.486419416964054107666015625" lon="-2.81086108647286891937255859375">
        <ele>1065.800048828125</ele>
        <time>2019-10-28T11:47:09.000Z</time>
      </trkpt>
      <trkpt lat="37.486428804695606231689453125" lon="-2.81111472286283969879150390625">
        <ele>1065.5999755859375</ele>
        <time>2019-10-28T11:47:15.000Z</time>
      </trkpt>
      <trkpt lat="37.4864293076097965240478515625" lon="-2.81135075725615024566650390625">
        <ele>1065.800048828125</ele>
        <time>2019-10-28T11:47:20.000Z</time>
      </trkpt>
      <trkpt lat="37.48647213913500308990478515625" lon="-2.811619900166988372802734375">
        <ele>1064.5999755859375</ele>
        <time>2019-10-28T11:47:25.000Z</time>
      </trkpt>
      <trkpt lat="37.48648236505687236785888671875" lon="-2.811851240694522857666015625">
        <ele>1064.800048828125</ele>
        <time>2019-10-28T11:47:29.000Z</time>
      </trkpt>
      <trkpt lat="37.48649728484451770782470703125" lon="-2.81212256290018558502197265625">
        <ele>1064.4000244140625</ele>
        <time>2019-10-28T11:47:34.000Z</time>
      </trkpt>
      <trkpt lat="37.4865196645259857177734375" lon="-2.81239497475326061248779296875">
        <ele>1064.199951171875</ele>
        <time>2019-10-28T11:47:39.000Z</time>
      </trkpt>
      <trkpt lat="37.48651891015470027923583984375" lon="-2.8126381337642669677734375">
        <ele>1064.5999755859375</ele>
        <time>2019-10-28T11:47:43.000Z</time>
      </trkpt>
      <trkpt lat="37.4864537827670574188232421875" lon="-2.81286134384572505950927734375">
        <ele>1065</ele>
        <time>2019-10-28T11:47:47.000Z</time>
      </trkpt>
      <trkpt lat="37.4863292276859283447265625" lon="-2.81308111734688282012939453125">
        <ele>1064</ele>
        <time>2019-10-28T11:47:52.000Z</time>
      </trkpt>
      <trkpt lat="37.4862006492912769317626953125" lon="-2.8132780082523822784423828125">
        <ele>1063.4000244140625</ele>
        <time>2019-10-28T11:47:58.000Z</time>
      </trkpt>
      <trkpt lat="37.486139126121997833251953125" lon="-2.8134982846677303314208984375">
        <ele>1063.199951171875</ele>
        <time>2019-10-28T11:48:05.000Z</time>
      </trkpt>
      <trkpt lat="37.4861490167677402496337890625" lon="-2.813740856945514678955078125">
        <ele>1064</ele>
        <time>2019-10-28T11:48:13.000Z</time>
      </trkpt>
      <trkpt lat="37.48614960350096225738525390625" lon="-2.81376910395920276641845703125">
        <ele>1064</ele>
        <time>2019-10-28T11:48:14.000Z</time>
      </trkpt>
      <trkpt lat="37.48613719828426837921142578125" lon="-2.814021147787570953369140625">
        <ele>1064.199951171875</ele>
        <time>2019-10-28T11:48:21.000Z</time>
      </trkpt>
      <trkpt lat="37.48613920994102954864501953125" lon="-2.81428509391844272613525390625">
        <ele>1065.199951171875</ele>
        <time>2019-10-28T11:48:27.000Z</time>
      </trkpt>
      <trkpt lat="37.48614172451198101043701171875" lon="-2.81454241834580898284912109375">
        <ele>1065.800048828125</ele>
        <time>2019-10-28T11:48:33.000Z</time>
      </trkpt>
      <trkpt lat="37.4861468374729156494140625" lon="-2.81481005251407623291015625">
        <ele>1065.800048828125</ele>
        <time>2019-10-28T11:48:39.000Z</time>
      </trkpt>
      <trkpt lat="37.48613652773201465606689453125" lon="-2.81507827341556549072265625">
        <ele>1065.800048828125</ele>
        <time>2019-10-28T11:48:45.000Z</time>
      </trkpt>
      <trkpt lat="37.4861138127744197845458984375" lon="-2.81534356065094470977783203125">
        <ele>1065</ele>
        <time>2019-10-28T11:48:51.000Z</time>
      </trkpt>
      <trkpt lat="37.48608975671231746673583984375" lon="-2.81557925976812839508056640625">
        <ele>1065.199951171875</ele>
        <time>2019-10-28T11:48:56.000Z</time>
      </trkpt>
      <trkpt lat="37.4860688857734203338623046875" lon="-2.81581914983689785003662109375">
        <ele>1065.199951171875</ele>
        <time>2019-10-28T11:49:01.000Z</time>
      </trkpt>
      <trkpt lat="37.48603996820747852325439453125" lon="-2.81606541015207767486572265625">
        <ele>1065.800048828125</ele>
        <time>2019-10-28T11:49:06.000Z</time>
      </trkpt>
      <trkpt lat="37.48600057326257228851318359375" lon="-2.81633128412067890167236328125">
        <ele>1066.4000244140625</ele>
        <time>2019-10-28T11:49:11.000Z</time>
      </trkpt>
      <trkpt lat="37.48595614917576313018798828125" lon="-2.81658626161515712738037109375">
        <ele>1066.199951171875</ele>
        <time>2019-10-28T11:49:16.000Z</time>
      </trkpt>
      <trkpt lat="37.48592094518244266510009765625" lon="-2.816853225231170654296875">
        <ele>1065.4000244140625</ele>
        <time>2019-10-28T11:49:22.000Z</time>
      </trkpt>
      <trkpt lat="37.4859247170388698577880859375" lon="-2.8170897625386714935302734375">
        <ele>1064.5999755859375</ele>
        <time>2019-10-28T11:49:27.000Z</time>
      </trkpt>
      <trkpt lat="37.4859361164271831512451171875" lon="-2.81735387630760669708251953125">
        <ele>1064.199951171875</ele>
        <time>2019-10-28T11:49:33.000Z</time>
      </trkpt>
      <trkpt lat="37.48592396266758441925048828125" lon="-2.81761807389557361602783203125">
        <ele>1064.4000244140625</ele>
        <time>2019-10-28T11:49:39.000Z</time>
      </trkpt>
      <trkpt lat="37.4859119765460491180419921875" lon="-2.8178639151155948638916015625">
        <ele>1065.199951171875</ele>
        <time>2019-10-28T11:49:45.000Z</time>
      </trkpt>
      <trkpt lat="37.485912479460239410400390625" lon="-2.818090729415416717529296875">
        <ele>1065.199951171875</ele>
        <time>2019-10-28T11:49:51.000Z</time>
      </trkpt>
      <trkpt lat="37.485888339579105377197265625" lon="-2.81834277324378490447998046875">
        <ele>1065.5999755859375</ele>
        <time>2019-10-28T11:49:59.000Z</time>
      </trkpt>
      <trkpt lat="37.48586327768862247467041015625" lon="-2.81858232803642749786376953125">
        <ele>1065.800048828125</ele>
        <time>2019-10-28T11:50:06.000Z</time>
      </trkpt>
      <trkpt lat="37.48586059547960758209228515625" lon="-2.81884736381471157073974609375">
        <ele>1066.4000244140625</ele>
        <time>2019-10-28T11:50:13.000Z</time>
      </trkpt>
      <trkpt lat="37.4858734197914600372314453125" lon="-2.8190923668444156646728515625">
        <ele>1067.199951171875</ele>
        <time>2019-10-28T11:50:19.000Z</time>
      </trkpt>
      <trkpt lat="37.4858690612018108367919921875" lon="-2.81933636404573917388916015625">
        <ele>1068.199951171875</ele>
        <time>2019-10-28T11:50:25.000Z</time>
      </trkpt>
      <trkpt lat="37.485863864421844482421875" lon="-2.81959352083504199981689453125">
        <ele>1068.5999755859375</ele>
        <time>2019-10-28T11:50:32.000Z</time>
      </trkpt>
      <trkpt lat="37.4858590029180049896240234375" lon="-2.819851934909820556640625">
        <ele>1067.800048828125</ele>
        <time>2019-10-28T11:50:38.000Z</time>
      </trkpt>
      <trkpt lat="37.4858571588993072509765625" lon="-2.82008335925638675689697265625">
        <ele>1067</ele>
        <time>2019-10-28T11:50:43.000Z</time>
      </trkpt>
      <trkpt lat="37.48585254885256290435791015625" lon="-2.82031604088842868804931640625">
        <ele>1067</ele>
        <time>2019-10-28T11:50:48.000Z</time>
      </trkpt>
      <trkpt lat="37.4858556501567363739013671875" lon="-2.82054687850177288055419921875">
        <ele>1067</ele>
        <time>2019-10-28T11:50:53.000Z</time>
      </trkpt>
      <trkpt lat="37.485860846936702728271484375" lon="-2.8208188712596893310546875">
        <ele>1066.199951171875</ele>
        <time>2019-10-28T11:50:59.000Z</time>
      </trkpt>
      <trkpt lat="37.4858650378882884979248046875" lon="-2.821062617003917694091796875">
        <ele>1065.800048828125</ele>
        <time>2019-10-28T11:51:04.000Z</time>
      </trkpt>
      <trkpt lat="37.48586612753570079803466796875" lon="-2.82131952233612537384033203125">
        <ele>1065.800048828125</ele>
        <time>2019-10-28T11:51:09.000Z</time>
      </trkpt>
      <trkpt lat="37.48588272370398044586181640625" lon="-2.82157466746866703033447265625">
        <ele>1065.5999755859375</ele>
        <time>2019-10-28T11:51:14.000Z</time>
      </trkpt>
      <trkpt lat="37.4858945421874523162841796875" lon="-2.8218265436589717864990234375">
        <ele>1065.800048828125</ele>
        <time>2019-10-28T11:51:19.000Z</time>
      </trkpt>
      <trkpt lat="37.48588674701750278472900390625" lon="-2.82206475734710693359375">
        <ele>1066.5999755859375</ele>
        <time>2019-10-28T11:51:24.000Z</time>
      </trkpt>
      <trkpt lat="37.4858476035296916961669921875" lon="-2.8222905658185482025146484375">
        <ele>1066.800048828125</ele>
        <time>2019-10-28T11:51:30.000Z</time>
      </trkpt>
      <trkpt lat="37.48585657216608524322509765625" lon="-2.8225537575781345367431640625">
        <ele>1067.5999755859375</ele>
        <time>2019-10-28T11:51:36.000Z</time>
      </trkpt>
      <trkpt lat="37.4858191050589084625244140625" lon="-2.82281720079481601715087890625">
        <ele>1067.199951171875</ele>
        <time>2019-10-28T11:51:42.000Z</time>
      </trkpt>
      <trkpt lat="37.48576470650732517242431640625" lon="-2.82306279055774211883544921875">
        <ele>1068</ele>
        <time>2019-10-28T11:51:48.000Z</time>
      </trkpt>
      <trkpt lat="37.48571190051734447479248046875" lon="-2.82328943721950054168701171875">
        <ele>1069</ele>
        <time>2019-10-28T11:51:54.000Z</time>
      </trkpt>
      <trkpt lat="37.48565121553838253021240234375" lon="-2.823517508804798126220703125">
        <ele>1070</ele>
        <time>2019-10-28T11:52:01.000Z</time>
      </trkpt>
      <trkpt lat="37.48560545034706592559814453125" lon="-2.82373988069593906402587890625">
        <ele>1070.5999755859375</ele>
        <time>2019-10-28T11:52:08.000Z</time>
      </trkpt>
      <trkpt lat="37.48556169681251049041748046875" lon="-2.82398178242146968841552734375">
        <ele>1071</ele>
        <time>2019-10-28T11:52:16.000Z</time>
      </trkpt>
      <trkpt lat="37.48552984558045864105224609375" lon="-2.8242291323840618133544921875">
        <ele>1072</ele>
        <time>2019-10-28T11:52:24.000Z</time>
      </trkpt>
      <trkpt lat="37.48551224358379840850830078125" lon="-2.82445586286485195159912109375">
        <ele>1072.199951171875</ele>
        <time>2019-10-28T11:52:31.000Z</time>
      </trkpt>
      <trkpt lat="37.4854707531630992889404296875" lon="-2.82468058168888092041015625">
        <ele>1072.5999755859375</ele>
        <time>2019-10-28T11:52:38.000Z</time>
      </trkpt>
      <trkpt lat="37.48543378897011280059814453125" lon="-2.8249198012053966522216796875">
        <ele>1072.4000244140625</ele>
        <time>2019-10-28T11:52:46.000Z</time>
      </trkpt>
      <trkpt lat="37.48542909510433673858642578125" lon="-2.8249493055045604705810546875">
        <ele>1072.4000244140625</ele>
        <time>2019-10-28T11:52:47.000Z</time>
      </trkpt>
      <trkpt lat="37.4853748641908168792724609375" lon="-2.82519062049686908721923828125">
        <ele>1072.5999755859375</ele>
        <time>2019-10-28T11:52:55.000Z</time>
      </trkpt>
      <trkpt lat="37.4853584356606006622314453125" lon="-2.82543419860303401947021484375">
        <ele>1072.5999755859375</ele>
        <time>2019-10-28T11:53:03.000Z</time>
      </trkpt>
      <trkpt lat="37.48534712009131908416748046875" lon="-2.82569051720201969146728515625">
        <ele>1073.4000244140625</ele>
        <time>2019-10-28T11:53:11.000Z</time>
      </trkpt>
      <trkpt lat="37.485329769551753997802734375" lon="-2.8259216062724590301513671875">
        <ele>1074.800048828125</ele>
        <time>2019-10-28T11:53:18.000Z</time>
      </trkpt>
      <trkpt lat="37.48534862883388996124267578125" lon="-2.82616895623505115509033203125">
        <ele>1075.4000244140625</ele>
        <time>2019-10-28T11:53:25.000Z</time>
      </trkpt>
      <trkpt lat="37.4853507243096828460693359375" lon="-2.82641940750181674957275390625">
        <ele>1075.4000244140625</ele>
        <time>2019-10-28T11:53:32.000Z</time>
      </trkpt>
      <trkpt lat="37.4853363074362277984619140625" lon="-2.8266565315425395965576171875">
        <ele>1075</ele>
        <time>2019-10-28T11:53:38.000Z</time>
      </trkpt>
      <trkpt lat="37.4853145144879817962646484375" lon="-2.8269063122570514678955078125">
        <ele>1074.800048828125</ele>
        <time>2019-10-28T11:53:44.000Z</time>
      </trkpt>
      <trkpt lat="37.48528760857880115509033203125" lon="-2.8271381556987762451171875">
        <ele>1074.800048828125</ele>
        <time>2019-10-28T11:53:50.000Z</time>
      </trkpt>
      <trkpt lat="37.48526698909699916839599609375" lon="-2.82739690504968166351318359375">
        <ele>1075.4000244140625</ele>
        <time>2019-10-28T11:53:57.000Z</time>
      </trkpt>
      <trkpt lat="37.48528358526527881622314453125" lon="-2.82762640155851840972900390625">
        <ele>1076</ele>
        <time>2019-10-28T11:54:04.000Z</time>
      </trkpt>
      <trkpt lat="37.4853101558983325958251953125" lon="-2.8278578259050846099853515625">
        <ele>1077</ele>
        <time>2019-10-28T11:54:11.000Z</time>
      </trkpt>
      <trkpt lat="37.48530336655676364898681640625" lon="-2.82808925025165081024169921875">
        <ele>1077.800048828125</ele>
        <time>2019-10-28T11:54:18.000Z</time>
      </trkpt>
      <trkpt lat="37.48527738265693187713623046875" lon="-2.8283188305795192718505859375">
        <ele>1078</ele>
        <time>2019-10-28T11:54:25.000Z</time>
      </trkpt>
      <trkpt lat="37.48523731715977191925048828125" lon="-2.82854740507900714874267578125">
        <ele>1078.199951171875</ele>
        <time>2019-10-28T11:54:31.000Z</time>
      </trkpt>
      <trkpt lat="37.4852162785828113555908203125" lon="-2.8287764824926853179931640625">
        <ele>1078.5999755859375</ele>
        <time>2019-10-28T11:54:37.000Z</time>
      </trkpt>
      <trkpt lat="37.4852203018963336944580078125" lon="-2.82901695929467678070068359375">
        <ele>1080.199951171875</ele>
        <time>2019-10-28T11:54:44.000Z</time>
      </trkpt>
      <trkpt lat="37.48526598326861858367919921875" lon="-2.82924570143222808837890625">
        <ele>1081</ele>
        <time>2019-10-28T11:54:52.000Z</time>
      </trkpt>
      <trkpt lat="37.48535634018480777740478515625" lon="-2.82945650629699230194091796875">
        <ele>1080.5999755859375</ele>
        <time>2019-10-28T11:54:59.000Z</time>
      </trkpt>
      <trkpt lat="37.48544150032103061676025390625" lon="-2.82969002611935138702392578125">
        <ele>1079.800048828125</ele>
        <time>2019-10-28T11:55:05.000Z</time>
      </trkpt>
      <trkpt lat="37.4855022691190242767333984375" lon="-2.82993511296808719635009765625">
        <ele>1079.5999755859375</ele>
        <time>2019-10-28T11:55:11.000Z</time>
      </trkpt>
      <trkpt lat="37.48554107733070850372314453125" lon="-2.83018556423485279083251953125">
        <ele>1079.4000244140625</ele>
        <time>2019-10-28T11:55:17.000Z</time>
      </trkpt>
      <trkpt lat="37.48556454665958881378173828125" lon="-2.83041623421013355255126953125">
        <ele>1079.5999755859375</ele>
        <time>2019-10-28T11:55:22.000Z</time>
      </trkpt>
      <trkpt lat="37.4855622835457324981689453125" lon="-2.8306691162288188934326171875">
        <ele>1078</ele>
        <time>2019-10-28T11:55:27.000Z</time>
      </trkpt>
      <trkpt lat="37.48556085862219333648681640625" lon="-2.830929122865200042724609375">
        <ele>1078</ele>
        <time>2019-10-28T11:55:32.000Z</time>
      </trkpt>
      <trkpt lat="37.48557594604790210723876953125" lon="-2.8311775624752044677734375">
        <ele>1077</ele>
        <time>2019-10-28T11:55:37.000Z</time>
      </trkpt>
      <trkpt lat="37.48560369014739990234375" lon="-2.83140731044113636016845703125">
        <ele>1074.800048828125</ele>
        <time>2019-10-28T11:55:42.000Z</time>
      </trkpt>
      <trkpt lat="37.48562539927661418914794921875" lon="-2.83165055327117443084716796875">
        <ele>1073</ele>
        <time>2019-10-28T11:55:47.000Z</time>
      </trkpt>
      <trkpt lat="37.4856440909206867218017578125" lon="-2.83188893459737300872802734375">
        <ele>1072.4000244140625</ele>
        <time>2019-10-28T11:55:52.000Z</time>
      </trkpt>
      <trkpt lat="37.48567049391567707061767578125" lon="-2.83213217742741107940673828125">
        <ele>1072.199951171875</ele>
        <time>2019-10-28T11:55:58.000Z</time>
      </trkpt>
      <trkpt lat="37.485681809484958648681640625" lon="-2.83236443996429443359375">
        <ele>1072.800048828125</ele>
        <time>2019-10-28T11:56:04.000Z</time>
      </trkpt>
      <trkpt lat="37.4857096374034881591796875" lon="-2.8326044976711273193359375">
        <ele>1072.800048828125</ele>
        <time>2019-10-28T11:56:10.000Z</time>
      </trkpt>
      <trkpt lat="37.485739476978778839111328125" lon="-2.83283826895058155059814453125">
        <ele>1073.199951171875</ele>
        <time>2019-10-28T11:56:15.000Z</time>
      </trkpt>
      <trkpt lat="37.48573754914104938507080078125" lon="-2.8331002034246921539306640625">
        <ele>1074.199951171875</ele>
        <time>2019-10-28T11:56:20.000Z</time>
      </trkpt>
      <trkpt lat="37.48573989607393741607666015625" lon="-2.83335107378661632537841796875">
        <ele>1073.5999755859375</ele>
        <time>2019-10-28T11:56:25.000Z</time>
      </trkpt>
      <trkpt lat="37.48576738871634006500244140625" lon="-2.83359917812049388885498046875">
        <ele>1071.4000244140625</ele>
        <time>2019-10-28T11:56:30.000Z</time>
      </trkpt>
      <trkpt lat="37.4858006648719310760498046875" lon="-2.83384979702532291412353515625">
        <ele>1070.800048828125</ele>
        <time>2019-10-28T11:56:35.000Z</time>
      </trkpt>
      <trkpt lat="37.48586327768862247467041015625" lon="-2.8340818919241428375244140625">
        <ele>1071.4000244140625</ele>
        <time>2019-10-28T11:56:41.000Z</time>
      </trkpt>
      <trkpt lat="37.4859076179563999176025390625" lon="-2.83433058299124240875244140625">
        <ele>1072.5999755859375</ele>
        <time>2019-10-28T11:56:48.000Z</time>
      </trkpt>
      <trkpt lat="37.4859510362148284912109375" lon="-2.8345797769725322723388671875">
        <ele>1073.5999755859375</ele>
        <time>2019-10-28T11:56:55.000Z</time>
      </trkpt>
      <trkpt lat="37.4859709851443767547607421875" lon="-2.83481388352811336517333984375">
        <ele>1075</ele>
        <time>2019-10-28T11:57:00.000Z</time>
      </trkpt>
      <trkpt lat="37.48599286191165447235107421875" lon="-2.8350414521992206573486328125">
        <ele>1074.800048828125</ele>
        <time>2019-10-28T11:57:05.000Z</time>
      </trkpt>
      <trkpt lat="37.48604164458811283111572265625" lon="-2.8352935798466205596923828125">
        <ele>1075.4000244140625</ele>
        <time>2019-10-28T11:57:12.000Z</time>
      </trkpt>
      <trkpt lat="37.486109621822834014892578125" lon="-2.83554361201822757720947265625">
        <ele>1075</ele>
        <time>2019-10-28T11:57:19.000Z</time>
      </trkpt>
      <trkpt lat="37.48616754077374935150146484375" lon="-2.835767157375812530517578125">
        <ele>1074.4000244140625</ele>
        <time>2019-10-28T11:57:25.000Z</time>
      </trkpt>
      <trkpt lat="37.48622135259211063385009765625" lon="-2.8359926305711269378662109375">
        <ele>1074.199951171875</ele>
        <time>2019-10-28T11:57:31.000Z</time>
      </trkpt>
      <trkpt lat="37.48623199760913848876953125" lon="-2.8360727615654468536376953125">
        <ele>1074.199951171875</ele>
        <time>2019-10-28T11:57:33.000Z</time>
      </trkpt>
      <trkpt lat="37.48626359738409519195556640625" lon="-2.83633117564022541046142578125">
        <ele>1074.800048828125</ele>
        <time>2019-10-28T11:57:40.000Z</time>
      </trkpt>
      <trkpt lat="37.4862957000732421875" lon="-2.83659000881016254425048828125">
        <ele>1075</ele>
        <time>2019-10-28T11:57:47.000Z</time>
      </trkpt>
      <trkpt lat="37.4863099493086338043212890625" lon="-2.8368254564702510833740234375">
        <ele>1074.800048828125</ele>
        <time>2019-10-28T11:57:53.000Z</time>
      </trkpt>
      <trkpt lat="37.486299388110637664794921875" lon="-2.83705788664519786834716796875">
        <ele>1075.199951171875</ele>
        <time>2019-10-28T11:58:00.000Z</time>
      </trkpt>
      <trkpt lat="37.486281953752040863037109375" lon="-2.8372867964208126068115234375">
        <ele>1077.800048828125</ele>
        <time>2019-10-28T11:58:08.000Z</time>
      </trkpt>
      <trkpt lat="37.48627533204853534698486328125" lon="-2.8375214897096157073974609375">
        <ele>1079.5999755859375</ele>
        <time>2019-10-28T11:58:16.000Z</time>
      </trkpt>
      <trkpt lat="37.48626963235437870025634765625" lon="-2.83757236786186695098876953125">
        <ele>1080</ele>
        <time>2019-10-28T11:58:21.000Z</time>
      </trkpt>
      <trkpt lat="37.486213557422161102294921875" lon="-2.8377612121403217315673828125">
        <ele>1080.800048828125</ele>
        <time>2019-10-28T11:58:48.000Z</time>
      </trkpt>
      <trkpt lat="37.4862036667764186859130859375" lon="-2.83799297176301479339599609375">
        <ele>1081.4000244140625</ele>
        <time>2019-10-28T11:59:03.000Z</time>
      </trkpt>
      <trkpt lat="37.48620576225221157073974609375" lon="-2.8380421735346317291259765625">
        <ele>1081.5999755859375</ele>
        <time>2019-10-28T11:59:08.000Z</time>
      </trkpt>
      <trkpt lat="37.486191429197788238525390625" lon="-2.8382854163646697998046875">
        <ele>1082.800048828125</ele>
        <time>2019-10-28T11:59:26.000Z</time>
      </trkpt>
      <trkpt lat="37.4861562252044677734375" lon="-2.83851449377834796905517578125">
        <ele>1084.199951171875</ele>
        <time>2019-10-28T11:59:33.000Z</time>
      </trkpt>
      <trkpt lat="37.4861280620098114013671875" lon="-2.8387268073856830596923828125">
        <ele>1084.800048828125</ele>
        <time>2019-10-28T11:59:51.000Z</time>
      </trkpt>
      <trkpt lat="37.48607852496206760406494140625" lon="-2.8389465808868408203125">
        <ele>1085.4000244140625</ele>
        <time>2019-10-28T12:00:06.000Z</time>
      </trkpt>
      <trkpt lat="37.48604415915906429290771484375" lon="-2.83917046152055263519287109375">
        <ele>1087</ele>
        <time>2019-10-28T12:00:21.000Z</time>
      </trkpt>
      <trkpt lat="37.48600526712834835052490234375" lon="-2.83939660526812076568603515625">
        <ele>1088.800048828125</ele>
        <time>2019-10-28T12:00:39.000Z</time>
      </trkpt>
      <trkpt lat="37.48604265041649341583251953125" lon="-2.8396213240921497344970703125">
        <ele>1090.800048828125</ele>
        <time>2019-10-28T12:00:57.000Z</time>
      </trkpt>
      <trkpt lat="37.4860608391463756561279296875" lon="-2.8398499824106693267822265625">
        <ele>1092.5999755859375</ele>
        <time>2019-10-28T12:01:13.000Z</time>
      </trkpt>
      <trkpt lat="37.48610819689929485321044921875" lon="-2.840070761740207672119140625">
        <ele>1093.800048828125</ele>
        <time>2019-10-28T12:01:32.000Z</time>
      </trkpt>
      <trkpt lat="37.48615982942283153533935546875" lon="-2.84028835594654083251953125">
        <ele>1095.5999755859375</ele>
        <time>2019-10-28T12:01:51.000Z</time>
      </trkpt>
      <trkpt lat="37.48617022298276424407958984375" lon="-2.84051659516990184783935546875">
        <ele>1096.5999755859375</ele>
        <time>2019-10-28T12:02:12.000Z</time>
      </trkpt>
      <trkpt lat="37.4861641041934490203857421875" lon="-2.84074827097356319427490234375">
        <ele>1098.4000244140625</ele>
        <time>2019-10-28T12:02:30.000Z</time>
      </trkpt>
      <trkpt lat="37.486153207719326019287109375" lon="-2.84085103310644626617431640625">
        <ele>1099.5999755859375</ele>
        <time>2019-10-28T12:02:39.000Z</time>
      </trkpt>
      <trkpt lat="37.48606838285923004150390625" lon="-2.84103375859558582305908203125">
        <ele>1101.4000244140625</ele>
        <time>2019-10-28T12:02:58.000Z</time>
      </trkpt>
      <trkpt lat="37.48598313890397548675537109375" lon="-2.84116183407604694366455078125">
        <ele>1102.4000244140625</ele>
        <time>2019-10-28T12:04:22.000Z</time>
      </trkpt>
      <trkpt lat="37.48583109118044376373291015625" lon="-2.84127666614949703216552734375">
        <ele>1104</ele>
        <time>2019-10-28T12:04:44.000Z</time>
      </trkpt>
      <trkpt lat="37.48568826355040073394775390625" lon="-2.841416560113430023193359375">
        <ele>1104</ele>
        <time>2019-10-28T12:05:02.000Z</time>
      </trkpt>
      <trkpt lat="37.485555745661258697509765625" lon="-2.8414532728493213653564453125">
        <ele>1105.4000244140625</ele>
        <time>2019-10-28T12:05:47.000Z</time>
      </trkpt>
      <trkpt lat="37.48540185391902923583984375" lon="-2.8415689431130886077880859375">
        <ele>1106.800048828125</ele>
        <time>2019-10-28T12:06:05.000Z</time>
      </trkpt>
      <trkpt lat="37.48532080091536045074462890625" lon="-2.841768600046634674072265625">
        <ele>1106.199951171875</ele>
        <time>2019-10-28T12:06:21.000Z</time>
      </trkpt>
      <trkpt lat="37.48519398272037506103515625" lon="-2.84193523228168487548828125">
        <ele>1108</ele>
        <time>2019-10-28T12:06:37.000Z</time>
      </trkpt>
      <trkpt lat="37.48516690917313098907470703125" lon="-2.84199717454612255096435546875">
        <ele>1108.4000244140625</ele>
        <time>2019-10-28T12:06:43.000Z</time>
      </trkpt>
      <trkpt lat="37.48516892082989215850830078125" lon="-2.8419934026896953582763671875">
        <ele>1108.4000244140625</ele>
        <time>2019-10-28T12:09:19.000Z</time>
      </trkpt>
      <trkpt lat="37.48514260165393352508544921875" lon="-2.84206992946565151214599609375">
        <ele>1108.5999755859375</ele>
        <time>2019-10-28T12:09:33.000Z</time>
      </trkpt>
      <trkpt lat="37.48512826859951019287109375" lon="-2.84210664220154285430908203125">
        <ele>1108.5999755859375</ele>
        <time>2019-10-28T12:11:39.000Z</time>
      </trkpt>
      <trkpt lat="37.48507060110569000244140625" lon="-2.84232256002724170684814453125">
        <ele>1109</ele>
        <time>2019-10-28T12:11:47.000Z</time>
      </trkpt>
      <trkpt lat="37.48504587449133396148681640625" lon="-2.8425627015531063079833984375">
        <ele>1109.4000244140625</ele>
        <time>2019-10-28T12:11:54.000Z</time>
      </trkpt>
      <trkpt lat="37.4850006960332393646240234375" lon="-2.84280384890735149383544921875">
        <ele>1108.4000244140625</ele>
        <time>2019-10-28T12:12:02.000Z</time>
      </trkpt>
      <trkpt lat="37.48499742709100246429443359375" lon="-2.84304843284189701080322265625">
        <ele>1106.800048828125</ele>
        <time>2019-10-28T12:12:08.000Z</time>
      </trkpt>
      <trkpt lat="37.4849224090576171875" lon="-2.84328815527260303497314453125">
        <ele>1104.800048828125</ele>
        <time>2019-10-28T12:12:15.000Z</time>
      </trkpt>
      <trkpt lat="37.48478402383625507354736328125" lon="-2.8434615768492221832275390625">
        <ele>1103.5999755859375</ele>
        <time>2019-10-28T12:12:22.000Z</time>
      </trkpt>
      <trkpt lat="37.484673298895359039306640625" lon="-2.84365846775472164154052734375">
        <ele>1102.5999755859375</ele>
        <time>2019-10-28T12:12:30.000Z</time>
      </trkpt>
      <trkpt lat="37.48461328446865081787109375" lon="-2.8438858687877655029296875">
        <ele>1102.800048828125</ele>
        <time>2019-10-28T12:12:36.000Z</time>
      </trkpt>
      <trkpt lat="37.4845738895237445831298828125" lon="-2.84414428286254405975341796875">
        <ele>1102.4000244140625</ele>
        <time>2019-10-28T12:12:42.000Z</time>
      </trkpt>
      <trkpt lat="37.48447037301957607269287109375" lon="-2.84435383044183254241943359375">
        <ele>1102.4000244140625</ele>
        <time>2019-10-28T12:12:48.000Z</time>
      </trkpt>
      <trkpt lat="37.48432536609470844268798828125" lon="-2.84452532418072223663330078125">
        <ele>1103.199951171875</ele>
        <time>2019-10-28T12:12:54.000Z</time>
      </trkpt>
      <trkpt lat="37.4841705523431301116943359375" lon="-2.844670750200748443603515625">
        <ele>1104.4000244140625</ele>
        <time>2019-10-28T12:13:00.000Z</time>
      </trkpt>
      <trkpt lat="37.484046332538127899169921875" lon="-2.84486353397369384765625">
        <ele>1104.5999755859375</ele>
        <time>2019-10-28T12:13:06.000Z</time>
      </trkpt>
      <trkpt lat="37.48392823152244091033935546875" lon="-2.8450836427509784698486328125">
        <ele>1104.800048828125</ele>
        <time>2019-10-28T12:13:12.000Z</time>
      </trkpt>
      <trkpt lat="37.48381205834448337554931640625" lon="-2.8453129716217517852783203125">
        <ele>1103.4000244140625</ele>
        <time>2019-10-28T12:13:18.000Z</time>
      </trkpt>
      <trkpt lat="37.4837350286543369293212890625" lon="-2.845466025173664093017578125">
        <ele>1103</ele>
        <time>2019-10-28T12:13:22.000Z</time>
      </trkpt>
      <trkpt lat="37.48364592902362346649169921875" lon="-2.84566752612590789794921875">
        <ele>1103</ele>
        <time>2019-10-28T12:13:27.000Z</time>
      </trkpt>
      <trkpt lat="37.48357149772346019744873046875" lon="-2.845869027078151702880859375">
        <ele>1102.4000244140625</ele>
        <time>2019-10-28T12:13:34.000Z</time>
      </trkpt>
      <trkpt lat="37.4835261516273021697998046875" lon="-2.84601084887981414794921875">
        <ele>1102.199951171875</ele>
        <time>2019-10-28T12:14:15.000Z</time>
      </trkpt>
      <trkpt lat="37.48342037200927734375" lon="-2.84623573534190654754638671875">
        <ele>1102.5999755859375</ele>
        <time>2019-10-28T12:14:22.000Z</time>
      </trkpt>
      <trkpt lat="37.48332892544567584991455078125" lon="-2.84644268453121185302734375">
        <ele>1103</ele>
        <time>2019-10-28T12:14:28.000Z</time>
      </trkpt>
      <trkpt lat="37.48323672451078891754150390625" lon="-2.84663957543671131134033203125">
        <ele>1103.4000244140625</ele>
        <time>2019-10-28T12:14:33.000Z</time>
      </trkpt>
      <trkpt lat="37.4831218086183071136474609375" lon="-2.84682221710681915283203125">
        <ele>1104</ele>
        <time>2019-10-28T12:14:38.000Z</time>
      </trkpt>
      <trkpt lat="37.483000271022319793701171875" lon="-2.8469906933605670928955078125">
        <ele>1104.5999755859375</ele>
        <time>2019-10-28T12:14:43.000Z</time>
      </trkpt>
      <trkpt lat="37.48287932015955448150634765625" lon="-2.8472149930894374847412109375">
        <ele>1104</ele>
        <time>2019-10-28T12:14:48.000Z</time>
      </trkpt>
      <trkpt lat="37.4827627278864383697509765625" lon="-2.8473886661231517791748046875">
        <ele>1103.4000244140625</ele>
        <time>2019-10-28T12:14:52.000Z</time>
      </trkpt>
      <trkpt lat="37.48259383253753185272216796875" lon="-2.847525961697101593017578125">
        <ele>1103</ele>
        <time>2019-10-28T12:14:57.000Z</time>
      </trkpt>
      <trkpt lat="37.48239149339497089385986328125" lon="-2.84762461669743061065673828125">
        <ele>1103.800048828125</ele>
        <time>2019-10-28T12:15:03.000Z</time>
      </trkpt>
      <trkpt lat="37.48219938017427921295166015625" lon="-2.84770776517689228057861328125">
        <ele>1105</ele>
        <time>2019-10-28T12:15:08.000Z</time>
      </trkpt>
      <trkpt lat="37.482038699090480804443359375" lon="-2.8478319011628627777099609375">
        <ele>1104.800048828125</ele>
        <time>2019-10-28T12:15:13.000Z</time>
      </trkpt>
      <trkpt lat="37.48185957781970500946044921875" lon="-2.84796425141394138336181640625">
        <ele>1105</ele>
        <time>2019-10-28T12:15:18.000Z</time>
      </trkpt>
      <trkpt lat="37.481832839548587799072265625" lon="-2.84800146706402301788330078125">
        <ele>1104.800048828125</ele>
        <time>2019-10-28T12:15:19.000Z</time>
      </trkpt>
      <trkpt lat="37.4816824682056903839111328125" lon="-2.84816927276551723480224609375">
        <ele>1104.800048828125</ele>
        <time>2019-10-28T12:15:23.000Z</time>
      </trkpt>
      <trkpt lat="37.4815446697175502777099609375" lon="-2.848274298012256622314453125">
        <ele>1104.199951171875</ele>
        <time>2019-10-28T12:15:29.000Z</time>
      </trkpt>
      <trkpt lat="37.48142388649284839630126953125" lon="-2.84838200546801090240478515625">
        <ele>1103.4000244140625</ele>
        <time>2019-10-28T12:15:54.000Z</time>
      </trkpt>
      <trkpt lat="37.481317184865474700927734375" lon="-2.84856489859521389007568359375">
        <ele>1103.199951171875</ele>
        <time>2019-10-28T12:16:11.000Z</time>
      </trkpt>
      <trkpt lat="37.48116572387516498565673828125" lon="-2.84869599156081676483154296875">
        <ele>1103.800048828125</ele>
        <time>2019-10-28T12:16:26.000Z</time>
      </trkpt>
      <trkpt lat="37.481007389724254608154296875" lon="-2.8488243184983730316162109375">
        <ele>1104.800048828125</ele>
        <time>2019-10-28T12:16:42.000Z</time>
      </trkpt>
      <trkpt lat="37.480866573750972747802734375" lon="-2.84898231737315654754638671875">
        <ele>1105.800048828125</ele>
        <time>2019-10-28T12:16:56.000Z</time>
      </trkpt>
      <trkpt lat="37.480731122195720672607421875" lon="-2.84914727322757244110107421875">
        <ele>1106</ele>
        <time>2019-10-28T12:17:03.000Z</time>
      </trkpt>
      <trkpt lat="37.480601370334625244140625" lon="-2.84931273199617862701416015625">
        <ele>1106</ele>
        <time>2019-10-28T12:17:09.000Z</time>
      </trkpt>
      <trkpt lat="37.48047606088221073150634765625" lon="-2.8495009057223796844482421875">
        <ele>1105.800048828125</ele>
        <time>2019-10-28T12:17:15.000Z</time>
      </trkpt>
      <trkpt lat="37.48035402037203311920166015625" lon="-2.8496906720101833343505859375">
        <ele>1105.800048828125</ele>
        <time>2019-10-28T12:17:21.000Z</time>
      </trkpt>
      <trkpt lat="37.48023181222379207611083984375" lon="-2.84986694343388080596923828125">
        <ele>1107</ele>
        <time>2019-10-28T12:17:27.000Z</time>
      </trkpt>
      <trkpt lat="37.4800877273082733154296875" lon="-2.85002552904188632965087890625">
        <ele>1110.199951171875</ele>
        <time>2019-10-28T12:17:34.000Z</time>
      </trkpt>
      <trkpt lat="37.47992168180644512176513671875" lon="-2.85014304332435131072998046875">
        <ele>1112.5999755859375</ele>
        <time>2019-10-28T12:17:42.000Z</time>
      </trkpt>
      <trkpt lat="37.4797985516488552093505859375" lon="-2.850310094654560089111328125">
        <ele>1114.199951171875</ele>
        <time>2019-10-28T12:17:51.000Z</time>
      </trkpt>
      <trkpt lat="37.47967190109193325042724609375" lon="-2.85049709491431713104248046875">
        <ele>1114.800048828125</ele>
        <time>2019-10-28T12:17:59.000Z</time>
      </trkpt>
      <trkpt lat="37.47950728051364421844482421875" lon="-2.850634641945362091064453125">
        <ele>1114.199951171875</ele>
        <time>2019-10-28T12:18:07.000Z</time>
      </trkpt>
      <trkpt lat="37.47934953309595584869384765625" lon="-2.850762717425823211669921875">
        <ele>1113.199951171875</ele>
        <time>2019-10-28T12:18:14.000Z</time>
      </trkpt>
      <trkpt lat="37.47917854227125644683837890625" lon="-2.85089808516204357147216796875">
        <ele>1112.199951171875</ele>
        <time>2019-10-28T12:18:21.000Z</time>
      </trkpt>
      <trkpt lat="37.479005120694637298583984375" lon="-2.851027585566043853759765625">
        <ele>1111.4000244140625</ele>
        <time>2019-10-28T12:18:27.000Z</time>
      </trkpt>
      <trkpt lat="37.47886824421584606170654296875" lon="-2.851184494793415069580078125">
        <ele>1111</ele>
        <time>2019-10-28T12:18:32.000Z</time>
      </trkpt>
      <trkpt lat="37.478761710226535797119140625" lon="-2.85136881284415721893310546875">
        <ele>1111.800048828125</ele>
        <time>2019-10-28T12:18:37.000Z</time>
      </trkpt>
      <trkpt lat="37.478634975850582122802734375" lon="-2.8515769354999065399169921875">
        <ele>1112.4000244140625</ele>
        <time>2019-10-28T12:18:43.000Z</time>
      </trkpt>
      <trkpt lat="37.47849047183990478515625" lon="-2.851780615746974945068359375">
        <ele>1113</ele>
        <time>2019-10-28T12:18:49.000Z</time>
      </trkpt>
      <trkpt lat="37.47832425870001316070556640625" lon="-2.85193442367017269134521484375">
        <ele>1113.5999755859375</ele>
        <time>2019-10-28T12:18:54.000Z</time>
      </trkpt>
      <trkpt lat="37.4781587161123752593994140625" lon="-2.8520838730037212371826171875">
        <ele>1114.199951171875</ele>
        <time>2019-10-28T12:18:59.000Z</time>
      </trkpt>
      <trkpt lat="37.47798009775578975677490234375" lon="-2.85225075669586658477783203125">
        <ele>1114.5999755859375</ele>
        <time>2019-10-28T12:19:04.000Z</time>
      </trkpt>
      <trkpt lat="37.47784816659986972808837890625" lon="-2.852413617074489593505859375">
        <ele>1114</ele>
        <time>2019-10-28T12:19:08.000Z</time>
      </trkpt>
      <trkpt lat="37.47773752547800540924072265625" lon="-2.8526132740080356597900390625">
        <ele>1113</ele>
        <time>2019-10-28T12:19:13.000Z</time>
      </trkpt>
      <trkpt lat="37.4776045046746730804443359375" lon="-2.8527892939746379852294921875">
        <ele>1114.199951171875</ele>
        <time>2019-10-28T12:19:19.000Z</time>
      </trkpt>
      <trkpt lat="37.47743242420256137847900390625" lon="-2.8529280982911586761474609375">
        <ele>1115.4000244140625</ele>
        <time>2019-10-28T12:19:26.000Z</time>
      </trkpt>
      <trkpt lat="37.47738179750740528106689453125" lon="-2.85296824760735034942626953125">
        <ele>1115.5999755859375</ele>
        <time>2019-10-28T12:19:28.000Z</time>
      </trkpt>
      <trkpt lat="37.47724031098186969757080078125" lon="-2.85313873551785945892333984375">
        <ele>1117</ele>
        <time>2019-10-28T12:19:34.000Z</time>
      </trkpt>
      <trkpt lat="37.47725673951208591461181640625" lon="-2.8533981554210186004638671875">
        <ele>1117.199951171875</ele>
        <time>2019-10-28T12:19:40.000Z</time>
      </trkpt>
      <trkpt lat="37.47719001956284046173095703125" lon="-2.85364265553653240203857421875">
        <ele>1114.4000244140625</ele>
        <time>2019-10-28T12:19:45.000Z</time>
      </trkpt>
      <trkpt lat="37.4770621955394744873046875" lon="-2.85382806323468685150146484375">
        <ele>1112</ele>
        <time>2019-10-28T12:19:50.000Z</time>
      </trkpt>
      <trkpt lat="37.47691593132913112640380859375" lon="-2.8539865650236606597900390625">
        <ele>1110</ele>
        <time>2019-10-28T12:19:55.000Z</time>
      </trkpt>
      <trkpt lat="37.47677913866937160491943359375" lon="-2.8541394509375095367431640625">
        <ele>1109.4000244140625</ele>
        <time>2019-10-28T12:20:00.000Z</time>
      </trkpt>
      <trkpt lat="37.4766503088176250457763671875" lon="-2.85430382005870342254638671875">
        <ele>1109</ele>
        <time>2019-10-28T12:20:06.000Z</time>
      </trkpt>
      <trkpt lat="37.4766504764556884765625" lon="-2.85431572236120700836181640625">
        <ele>1109</ele>
        <time>2019-10-28T12:20:07.000Z</time>
      </trkpt>
      <trkpt lat="37.47672918252646923065185546875" lon="-2.8545163013041019439697265625">
        <ele>1109.199951171875</ele>
        <time>2019-10-28T12:20:17.000Z</time>
      </trkpt>
      <trkpt lat="37.47681115753948688507080078125" lon="-2.8547597117722034454345703125">
        <ele>1109</ele>
        <time>2019-10-28T12:20:24.000Z</time>
      </trkpt>
      <trkpt lat="37.47692414559423923492431640625" lon="-2.85498292185366153717041015625">
        <ele>1110</ele>
        <time>2019-10-28T12:20:29.000Z</time>
      </trkpt>
      <trkpt lat="37.47700595296919345855712890625" lon="-2.85516112111508846282958984375">
        <ele>1109.800048828125</ele>
        <time>2019-10-28T12:20:34.000Z</time>
      </trkpt>
      <trkpt lat="37.47686631046235561370849609375" lon="-2.85529489628970623016357421875">
        <ele>1110</ele>
        <time>2019-10-28T12:20:40.000Z</time>
      </trkpt>
      <trkpt lat="37.4766915477812290191650390625" lon="-2.85543386824429035186767578125">
        <ele>1108.4000244140625</ele>
        <time>2019-10-28T12:20:46.000Z</time>
      </trkpt>
      <trkpt lat="37.47652952559292316436767578125" lon="-2.85554836504161357879638671875">
        <ele>1108</ele>
        <time>2019-10-28T12:20:51.000Z</time>
      </trkpt>
      <trkpt lat="37.47636725194752216339111328125" lon="-2.85565246827900409698486328125">
        <ele>1108</ele>
        <time>2019-10-28T12:20:56.000Z</time>
      </trkpt>
      <trkpt lat="37.476156614720821380615234375" lon="-2.8557546436786651611328125">
        <ele>1106.800048828125</ele>
        <time>2019-10-28T12:21:01.000Z</time>
      </trkpt>
      <trkpt lat="37.4759871326386928558349609375" lon="-2.8558778576552867889404296875">
        <ele>1105.800048828125</ele>
        <time>2019-10-28T12:21:05.000Z</time>
      </trkpt>
      <trkpt lat="37.47581086121499538421630859375" lon="-2.8560009039938449859619140625">
        <ele>1105</ele>
        <time>2019-10-28T12:21:09.000Z</time>
      </trkpt>
      <trkpt lat="37.4756220169365406036376953125" lon="-2.85611347295343875885009765625">
        <ele>1105</ele>
        <time>2019-10-28T12:21:13.000Z</time>
      </trkpt>
      <trkpt lat="37.4754567258059978485107421875" lon="-2.85621640272438526153564453125">
        <ele>1105.199951171875</ele>
        <time>2019-10-28T12:21:17.000Z</time>
      </trkpt>
      <trkpt lat="37.47527609579265117645263671875" lon="-2.85632662475109100341796875">
        <ele>1105.199951171875</ele>
        <time>2019-10-28T12:21:23.000Z</time>
      </trkpt>
      <trkpt lat="37.47512404806911945343017578125" lon="-2.85645210184156894683837890625">
        <ele>1105.800048828125</ele>
        <time>2019-10-28T12:21:29.000Z</time>
      </trkpt>
      <trkpt lat="37.47497283853590488433837890625" lon="-2.856577076017856597900390625">
        <ele>1106.5999755859375</ele>
        <time>2019-10-28T12:21:36.000Z</time>
      </trkpt>
      <trkpt lat="37.4747999198734760284423828125" lon="-2.8566945903003215789794921875">
        <ele>1108.199951171875</ele>
        <time>2019-10-28T12:21:44.000Z</time>
      </trkpt>
      <trkpt lat="37.47462130151689052581787109375" lon="-2.85680900327861309051513671875">
        <ele>1109.5999755859375</ele>
        <time>2019-10-28T12:21:52.000Z</time>
      </trkpt>
      <trkpt lat="37.4744616262614727020263671875" lon="-2.85691813565790653228759765625">
        <ele>1110.800048828125</ele>
        <time>2019-10-28T12:22:00.000Z</time>
      </trkpt>
      <trkpt lat="37.4742929823696613311767578125" lon="-2.85703950561583042144775390625">
        <ele>1112.5999755859375</ele>
        <time>2019-10-28T12:22:09.000Z</time>
      </trkpt>
      <trkpt lat="37.47411109507083892822265625" lon="-2.857146374881267547607421875">
        <ele>1113.5999755859375</ele>
        <time>2019-10-28T12:22:17.000Z</time>
      </trkpt>
      <trkpt lat="37.47395125217735767364501953125" lon="-2.85726564936339855194091796875">
        <ele>1114</ele>
        <time>2019-10-28T12:22:25.000Z</time>
      </trkpt>
      <trkpt lat="37.4737893976271152496337890625" lon="-2.85737377591431140899658203125">
        <ele>1113.800048828125</ele>
        <time>2019-10-28T12:22:33.000Z</time>
      </trkpt>
      <trkpt lat="37.473625279963016510009765625" lon="-2.8574824891984462738037109375">
        <ele>1113.4000244140625</ele>
        <time>2019-10-28T12:22:41.000Z</time>
      </trkpt>
      <trkpt lat="37.4734581448137760162353515625" lon="-2.85757653415203094482421875">
        <ele>1113.5999755859375</ele>
        <time>2019-10-28T12:22:49.000Z</time>
      </trkpt>
      <trkpt lat="37.47327483259141445159912109375" lon="-2.8576823137700557708740234375">
        <ele>1114</ele>
        <time>2019-10-28T12:22:58.000Z</time>
      </trkpt>
      <trkpt lat="37.47310065664350986480712890625" lon="-2.85780862905085086822509765625">
        <ele>1114.800048828125</ele>
        <time>2019-10-28T12:23:07.000Z</time>
      </trkpt>
      <trkpt lat="37.4729424901306629180908203125" lon="-2.8579193539917469024658203125">
        <ele>1115.5999755859375</ele>
        <time>2019-10-28T12:23:15.000Z</time>
      </trkpt>
      <trkpt lat="37.47277007438242435455322265625" lon="-2.8580494411289691925048828125">
        <ele>1116.4000244140625</ele>
        <time>2019-10-28T12:23:24.000Z</time>
      </trkpt>
      <trkpt lat="37.47260947711765766143798828125" lon="-2.8581701405346393585205078125">
        <ele>1117</ele>
        <time>2019-10-28T12:23:32.000Z</time>
      </trkpt>
      <trkpt lat="37.472446449100971221923828125" lon="-2.85826896317303180694580078125">
        <ele>1117.5999755859375</ele>
        <time>2019-10-28T12:23:40.000Z</time>
      </trkpt>
      <trkpt lat="37.47227512300014495849609375" lon="-2.858370132744312286376953125">
        <ele>1118</ele>
        <time>2019-10-28T12:23:48.000Z</time>
      </trkpt>
      <trkpt lat="37.4721106700599193572998046875" lon="-2.8584762476384639739990234375">
        <ele>1119</ele>
        <time>2019-10-28T12:23:56.000Z</time>
      </trkpt>
      <trkpt lat="37.4719266034662723541259765625" lon="-2.85858479328453540802001953125">
        <ele>1120.5999755859375</ele>
        <time>2019-10-28T12:24:05.000Z</time>
      </trkpt>
      <trkpt lat="37.47175217606127262115478515625" lon="-2.85869945771992206573486328125">
        <ele>1122</ele>
        <time>2019-10-28T12:24:12.000Z</time>
      </trkpt>
      <trkpt lat="37.47156760655343532562255859375" lon="-2.85881437361240386962890625">
        <ele>1121.4000244140625</ele>
        <time>2019-10-28T12:24:18.000Z</time>
      </trkpt>
      <trkpt lat="37.47139125131070613861083984375" lon="-2.8589261882007122039794921875">
        <ele>1120</ele>
        <time>2019-10-28T12:24:23.000Z</time>
      </trkpt>
      <trkpt lat="37.47121833264827728271484375" lon="-2.8590435348451137542724609375">
        <ele>1119</ele>
        <time>2019-10-28T12:24:29.000Z</time>
      </trkpt>
      <trkpt lat="37.47104004956781864166259765625" lon="-2.8591756336390972137451171875">
        <ele>1118.4000244140625</ele>
        <time>2019-10-28T12:24:36.000Z</time>
      </trkpt>
      <trkpt lat="37.47096964158117771148681640625" lon="-2.8592259250581264495849609375">
        <ele>1118.4000244140625</ele>
        <time>2019-10-28T12:24:39.000Z</time>
      </trkpt>
      <trkpt lat="37.47080334462225437164306640625" lon="-2.8593436069786548614501953125">
        <ele>1118.199951171875</ele>
        <time>2019-10-28T12:24:47.000Z</time>
      </trkpt>
      <trkpt lat="37.4706394784152507781982421875" lon="-2.85947713069617748260498046875">
        <ele>1117.4000244140625</ele>
        <time>2019-10-28T12:24:55.000Z</time>
      </trkpt>
      <trkpt lat="37.4704854190349578857421875" lon="-2.85960218869149684906005859375">
        <ele>1117.5999755859375</ele>
        <time>2019-10-28T12:25:01.000Z</time>
      </trkpt>
      <trkpt lat="37.47033228166401386260986328125" lon="-2.85972992889583110809326171875">
        <ele>1119.4000244140625</ele>
        <time>2019-10-28T12:25:08.000Z</time>
      </trkpt>
      <trkpt lat="37.47017788700759410858154296875" lon="-2.85987652838230133056640625">
        <ele>1120.800048828125</ele>
        <time>2019-10-28T12:25:16.000Z</time>
      </trkpt>
      <trkpt lat="37.47001192532479763031005859375" lon="-2.8600118122994899749755859375">
        <ele>1122</ele>
        <time>2019-10-28T12:25:22.000Z</time>
      </trkpt>
      <trkpt lat="37.46986138634383678436279296875" lon="-2.8601583279669284820556640625">
        <ele>1123</ele>
        <time>2019-10-28T12:25:28.000Z</time>
      </trkpt>
      <trkpt lat="37.4697161279618740081787109375" lon="-2.860316075384616851806640625">
        <ele>1123.800048828125</ele>
        <time>2019-10-28T12:25:34.000Z</time>
      </trkpt>
      <trkpt lat="37.46957036666572093963623046875" lon="-2.8604828752577304840087890625">
        <ele>1124.4000244140625</ele>
        <time>2019-10-28T12:25:40.000Z</time>
      </trkpt>
      <trkpt lat="37.46940742246806621551513671875" lon="-2.8606525249779224395751953125">
        <ele>1125.4000244140625</ele>
        <time>2019-10-28T12:25:47.000Z</time>
      </trkpt>
      <trkpt lat="37.46927884407341480255126953125" lon="-2.86083080805838108062744140625">
        <ele>1124.4000244140625</ele>
        <time>2019-10-28T12:25:53.000Z</time>
      </trkpt>
      <trkpt lat="37.4691156484186649322509765625" lon="-2.86102585494518280029296875">
        <ele>1122.800048828125</ele>
        <time>2019-10-28T12:25:58.000Z</time>
      </trkpt>
      <trkpt lat="37.468966953456401824951171875" lon="-2.86120422184467315673828125">
        <ele>1120.800048828125</ele>
        <time>2019-10-28T12:26:02.000Z</time>
      </trkpt>
      <trkpt lat="37.46882311999797821044921875" lon="-2.861386947333812713623046875">
        <ele>1120.199951171875</ele>
        <time>2019-10-28T12:26:06.000Z</time>
      </trkpt>
      <trkpt lat="37.46869881637394428253173828125" lon="-2.86155559122562408447265625">
        <ele>1120</ele>
        <time>2019-10-28T12:26:10.000Z</time>
      </trkpt>
      <trkpt lat="37.46854727156460285186767578125" lon="-2.86175197921693325042724609375">
        <ele>1120.199951171875</ele>
        <time>2019-10-28T12:26:15.000Z</time>
      </trkpt>
      <trkpt lat="37.468394301831722259521484375" lon="-2.8619537316262722015380859375">
        <ele>1120</ele>
        <time>2019-10-28T12:26:20.000Z</time>
      </trkpt>
      <trkpt lat="37.4682536534965038299560546875" lon="-2.8621129877865314483642578125">
        <ele>1119.199951171875</ele>
        <time>2019-10-28T12:26:24.000Z</time>
      </trkpt>
      <trkpt lat="37.4680873565375804901123046875" lon="-2.862305939197540283203125">
        <ele>1117.4000244140625</ele>
        <time>2019-10-28T12:26:28.000Z</time>
      </trkpt>
      <trkpt lat="37.467920891940593719482421875" lon="-2.862497381865978240966796875">
        <ele>1115.199951171875</ele>
        <time>2019-10-28T12:26:32.000Z</time>
      </trkpt>
      <trkpt lat="37.46774193830788135528564453125" lon="-2.86269695498049259185791015625">
        <ele>1113.199951171875</ele>
        <time>2019-10-28T12:26:36.000Z</time>
      </trkpt>
      <trkpt lat="37.46759458445012569427490234375" lon="-2.8628432191908359527587890625">
        <ele>1113.199951171875</ele>
        <time>2019-10-28T12:26:39.000Z</time>
      </trkpt>
      <trkpt lat="37.46744723059237003326416015625" lon="-2.86299861967563629150390625">
        <ele>1113.5999755859375</ele>
        <time>2019-10-28T12:26:42.000Z</time>
      </trkpt>
      <trkpt lat="37.4673041515052318572998046875" lon="-2.86315687000751495361328125">
        <ele>1114</ele>
        <time>2019-10-28T12:26:45.000Z</time>
      </trkpt>
      <trkpt lat="37.46715738438069820404052734375" lon="-2.86331973038613796234130859375">
        <ele>1114</ele>
        <time>2019-10-28T12:26:48.000Z</time>
      </trkpt>
      <trkpt lat="37.46699293144047260284423828125" lon="-2.863525338470935821533203125">
        <ele>1113.800048828125</ele>
        <time>2019-10-28T12:26:52.000Z</time>
      </trkpt>
      <trkpt lat="37.46687022037804126739501953125" lon="-2.86370110698044300079345703125">
        <ele>1114.199951171875</ele>
        <time>2019-10-28T12:26:56.000Z</time>
      </trkpt>
      <trkpt lat="37.4667920172214508056640625" lon="-2.8638031147420406341552734375">
        <ele>1114.199951171875</ele>
        <time>2019-10-28T12:26:59.000Z</time>
      </trkpt>
      <trkpt lat="37.46666268445551395416259765625" lon="-2.8640029393136501312255859375">
        <ele>1114</ele>
        <time>2019-10-28T12:27:05.000Z</time>
      </trkpt>
      <trkpt lat="37.4665967188775539398193359375" lon="-2.8640911169350147247314453125">
        <ele>1113.5999755859375</ele>
        <time>2019-10-28T12:27:08.000Z</time>
      </trkpt>
      <trkpt lat="37.46647593565285205841064453125" lon="-2.86425733007490634918212890625">
        <ele>1113</ele>
        <time>2019-10-28T12:27:14.000Z</time>
      </trkpt>
      <trkpt lat="37.46633042581379413604736328125" lon="-2.86443200893700122833251953125">
        <ele>1113.199951171875</ele>
        <time>2019-10-28T12:27:21.000Z</time>
      </trkpt>
      <trkpt lat="37.4662155099213123321533203125" lon="-2.864564359188079833984375">
        <ele>1113.5999755859375</ele>
        <time>2019-10-28T12:27:27.000Z</time>
      </trkpt>
      <trkpt lat="37.46612657792866230010986328125" lon="-2.8647123835980892181396484375">
        <ele>1113.4000244140625</ele>
        <time>2019-10-28T12:27:32.000Z</time>
      </trkpt>
      <trkpt lat="37.46602901257574558258056640625" lon="-2.86484607495367527008056640625">
        <ele>1113.5999755859375</ele>
        <time>2019-10-28T12:27:37.000Z</time>
      </trkpt>
      <trkpt lat="37.46589423157274723052978515625" lon="-2.86500952206552028656005859375">
        <ele>1114.4000244140625</ele>
        <time>2019-10-28T12:27:43.000Z</time>
      </trkpt>
      <trkpt lat="37.46576464734971523284912109375" lon="-2.865168191492557525634765625">
        <ele>1115.199951171875</ele>
        <time>2019-10-28T12:27:49.000Z</time>
      </trkpt>
      <trkpt lat="37.46561947278678417205810546875" lon="-2.86534362472593784332275390625">
        <ele>1115.800048828125</ele>
        <time>2019-10-28T12:27:55.000Z</time>
      </trkpt>
      <trkpt lat="37.465472035109996795654296875" lon="-2.865520231425762176513671875">
        <ele>1116.800048828125</ele>
        <time>2019-10-28T12:28:01.000Z</time>
      </trkpt>
      <trkpt lat="37.4653266929090023040771484375" lon="-2.865683846175670623779296875">
        <ele>1117.800048828125</ele>
        <time>2019-10-28T12:28:07.000Z</time>
      </trkpt>
      <trkpt lat="37.46517405845224857330322265625" lon="-2.86586548201739788055419921875">
        <ele>1118.4000244140625</ele>
        <time>2019-10-28T12:28:13.000Z</time>
      </trkpt>
      <trkpt lat="37.46503944508731365203857421875" lon="-2.8660176135599613189697265625">
        <ele>1118.199951171875</ele>
        <time>2019-10-28T12:28:18.000Z</time>
      </trkpt>
      <trkpt lat="37.464900054037570953369140625" lon="-2.8661616146564483642578125">
        <ele>1117.5999755859375</ele>
        <time>2019-10-28T12:28:23.000Z</time>
      </trkpt>
      <trkpt lat="37.46474540792405605316162109375" lon="-2.866296730935573577880859375">
        <ele>1117</ele>
        <time>2019-10-28T12:28:28.000Z</time>
      </trkpt>
      <trkpt lat="37.46455840766429901123046875" lon="-2.8664380498230457305908203125">
        <ele>1117.199951171875</ele>
        <time>2019-10-28T12:28:33.000Z</time>
      </trkpt>
      <trkpt lat="37.4643865786492824554443359375" lon="-2.8665547259151935577392578125">
        <ele>1117.4000244140625</ele>
        <time>2019-10-28T12:28:38.000Z</time>
      </trkpt>
      <trkpt lat="37.464255988597869873046875" lon="-2.86664650775492191314697265625">
        <ele>1117</ele>
        <time>2019-10-28T12:28:42.000Z</time>
      </trkpt>
      <trkpt lat="37.46409363113343715667724609375" lon="-2.8667736612260341644287109375">
        <ele>1115.800048828125</ele>
        <time>2019-10-28T12:28:47.000Z</time>
      </trkpt>
      <trkpt lat="37.4640548229217529296875" lon="-2.86695353686809539794921875">
        <ele>1114</ele>
        <time>2019-10-28T12:28:54.000Z</time>
      </trkpt>
      <trkpt lat="37.46420033276081085205078125" lon="-2.86711354739964008331298828125">
        <ele>1113</ele>
        <time>2019-10-28T12:28:59.000Z</time>
      </trkpt>
      <trkpt lat="37.46435078792273998260498046875" lon="-2.8673074208199977874755859375">
        <ele>1112.800048828125</ele>
        <time>2019-10-28T12:29:03.000Z</time>
      </trkpt>
      <trkpt lat="37.4645066075026988983154296875" lon="-2.86750280298292636871337890625">
        <ele>1111.800048828125</ele>
        <time>2019-10-28T12:29:07.000Z</time>
      </trkpt>
      <trkpt lat="37.46460727415978908538818359375" lon="-2.86772333085536956787109375">
        <ele>1110.199951171875</ele>
        <time>2019-10-28T12:29:11.000Z</time>
      </trkpt>
      <trkpt lat="37.46451842598617076873779296875" lon="-2.8679219819605350494384765625">
        <ele>1109.4000244140625</ele>
        <time>2019-10-28T12:29:15.000Z</time>
      </trkpt>
      <trkpt lat="37.4643527157604694366455078125" lon="-2.86804695613682270050048828125">
        <ele>1109.199951171875</ele>
        <time>2019-10-28T12:29:20.000Z</time>
      </trkpt>
      <trkpt lat="37.4641679786145687103271484375" lon="-2.868164218962192535400390625">
        <ele>1110</ele>
        <time>2019-10-28T12:29:26.000Z</time>
      </trkpt>
      <trkpt lat="37.46398734860122203826904296875" lon="-2.86827879957854747772216796875">
        <ele>1112.800048828125</ele>
        <time>2019-10-28T12:29:34.000Z</time>
      </trkpt>
      <trkpt lat="37.46383697725832462310791015625" lon="-2.86844945512712001800537109375">
        <ele>1115.5999755859375</ele>
        <time>2019-10-28T12:29:42.000Z</time>
      </trkpt>
      <trkpt lat="37.46368308551609516143798828125" lon="-2.86861692555248737335205078125">
        <ele>1117.800048828125</ele>
        <time>2019-10-28T12:29:50.000Z</time>
      </trkpt>
      <trkpt lat="37.46354143135249614715576171875" lon="-2.86876394413411617279052734375">
        <ele>1119</ele>
        <time>2019-10-28T12:29:57.000Z</time>
      </trkpt>
      <trkpt lat="37.463389970362186431884765625" lon="-2.86894507706165313720703125">
        <ele>1119</ele>
        <time>2019-10-28T12:30:04.000Z</time>
      </trkpt>
      <trkpt lat="37.463252842426300048828125" lon="-2.8691249527037143707275390625">
        <ele>1119</ele>
        <time>2019-10-28T12:30:11.000Z</time>
      </trkpt>
      <trkpt lat="37.46312233619391918182373046875" lon="-2.8692832030355930328369140625">
        <ele>1119.4000244140625</ele>
        <time>2019-10-28T12:30:17.000Z</time>
      </trkpt>
      <trkpt lat="37.4629725515842437744140625" lon="-2.86945872008800506591796875">
        <ele>1120.5999755859375</ele>
        <time>2019-10-28T12:30:24.000Z</time>
      </trkpt>
      <trkpt lat="37.46283835731446743011474609375" lon="-2.869609929621219635009765625">
        <ele>1121</ele>
        <time>2019-10-28T12:30:30.000Z</time>
      </trkpt>
      <trkpt lat="37.46269804425537586212158203125" lon="-2.86976524628698825836181640625">
        <ele>1120.5999755859375</ele>
        <time>2019-10-28T12:30:36.000Z</time>
      </trkpt>
      <trkpt lat="37.46255806647241115570068359375" lon="-2.86991561762988567352294921875">
        <ele>1120.4000244140625</ele>
        <time>2019-10-28T12:30:42.000Z</time>
      </trkpt>
      <trkpt lat="37.4624201841652393341064453125" lon="-2.870075292885303497314453125">
        <ele>1120</ele>
        <time>2019-10-28T12:30:48.000Z</time>
      </trkpt>
      <trkpt lat="37.46229001320898532867431640625" lon="-2.870234213769435882568359375">
        <ele>1120</ele>
        <time>2019-10-28T12:30:54.000Z</time>
      </trkpt>
      <trkpt lat="37.4621442519128322601318359375" lon="-2.87041962146759033203125">
        <ele>1120.199951171875</ele>
        <time>2019-10-28T12:31:01.000Z</time>
      </trkpt>
      <trkpt lat="37.46201324276626110076904296875" lon="-2.87057627923786640167236328125">
        <ele>1121.4000244140625</ele>
        <time>2019-10-28T12:31:07.000Z</time>
      </trkpt>
      <trkpt lat="37.46186815202236175537109375" lon="-2.87074207328259944915771484375">
        <ele>1122.199951171875</ele>
        <time>2019-10-28T12:31:14.000Z</time>
      </trkpt>
      <trkpt lat="37.4617368914186954498291015625" lon="-2.870901413261890411376953125">
        <ele>1122.800048828125</ele>
        <time>2019-10-28T12:31:20.000Z</time>
      </trkpt>
      <trkpt lat="37.4615819938480854034423828125" lon="-2.871066033840179443359375">
        <ele>1123</ele>
        <time>2019-10-28T12:31:26.000Z</time>
      </trkpt>
      <trkpt lat="37.4614401720464229583740234375" lon="-2.87122872658073902130126953125">
        <ele>1123.5999755859375</ele>
        <time>2019-10-28T12:31:32.000Z</time>
      </trkpt>
      <trkpt lat="37.4612936563789844512939453125" lon="-2.8713726438581943511962890625">
        <ele>1125</ele>
        <time>2019-10-28T12:31:39.000Z</time>
      </trkpt>
      <trkpt lat="37.46116784401237964630126953125" lon="-2.871549837291240692138671875">
        <ele>1126</ele>
        <time>2019-10-28T12:31:46.000Z</time>
      </trkpt>
      <trkpt lat="37.46102736331522464752197265625" lon="-2.87173013202846050262451171875">
        <ele>1126.199951171875</ele>
        <time>2019-10-28T12:31:54.000Z</time>
      </trkpt>
      <trkpt lat="37.4608804285526275634765625" lon="-2.87190296687185764312744140625">
        <ele>1125.5999755859375</ele>
        <time>2019-10-28T12:32:02.000Z</time>
      </trkpt>
      <trkpt lat="37.46073600836098194122314453125" lon="-2.87207429297268390655517578125">
        <ele>1125.4000244140625</ele>
        <time>2019-10-28T12:32:10.000Z</time>
      </trkpt>
      <trkpt lat="37.46059971861541271209716796875" lon="-2.8722671605646610260009765625">
        <ele>1125.800048828125</ele>
        <time>2019-10-28T12:32:18.000Z</time>
      </trkpt>
      <trkpt lat="37.46046342886984348297119140625" lon="-2.8724371455609798431396484375">
        <ele>1126</ele>
        <time>2019-10-28T12:32:25.000Z</time>
      </trkpt>
      <trkpt lat="37.460328228771686553955078125" lon="-2.87260117940604686737060546875">
        <ele>1126.4000244140625</ele>
        <time>2019-10-28T12:32:32.000Z</time>
      </trkpt>
      <trkpt lat="37.4601905979216098785400390625" lon="-2.8727653808891773223876953125">
        <ele>1127.5999755859375</ele>
        <time>2019-10-28T12:32:39.000Z</time>
      </trkpt>
      <trkpt lat="37.4600454233586788177490234375" lon="-2.8729507885873317718505859375">
        <ele>1129</ele>
        <time>2019-10-28T12:32:46.000Z</time>
      </trkpt>
      <trkpt lat="37.45991894043982028961181640625" lon="-2.873113565146923065185546875">
        <ele>1129.5999755859375</ele>
        <time>2019-10-28T12:32:52.000Z</time>
      </trkpt>
      <trkpt lat="37.45976085774600505828857421875" lon="-2.8732843883335590362548828125">
        <ele>1129.199951171875</ele>
        <time>2019-10-28T12:32:59.000Z</time>
      </trkpt>
      <trkpt lat="37.4596239812672138214111328125" lon="-2.873444147408008575439453125">
        <ele>1128.800048828125</ele>
        <time>2019-10-28T12:33:05.000Z</time>
      </trkpt>
      <trkpt lat="37.4594838358461856842041015625" lon="-2.8736062534153461456298828125">
        <ele>1129.199951171875</ele>
        <time>2019-10-28T12:33:11.000Z</time>
      </trkpt>
      <trkpt lat="37.45934209786355495452880859375" lon="-2.87377975881099700927734375">
        <ele>1128.5999755859375</ele>
        <time>2019-10-28T12:33:17.000Z</time>
      </trkpt>
      <trkpt lat="37.4592053890228271484375" lon="-2.87395636551082134246826171875">
        <ele>1127.4000244140625</ele>
        <time>2019-10-28T12:33:23.000Z</time>
      </trkpt>
      <trkpt lat="37.45906834490597248077392578125" lon="-2.87410673685371875762939453125">
        <ele>1127.5999755859375</ele>
        <time>2019-10-28T12:33:29.000Z</time>
      </trkpt>
      <trkpt lat="37.4589842744171619415283203125" lon="-2.874182425439357757568359375">
        <ele>1127.800048828125</ele>
        <time>2019-10-28T12:33:35.000Z</time>
      </trkpt>
      <trkpt lat="37.4590109288692474365234375" lon="-2.87421570159494876861572265625">
        <ele>1128</ele>
        <time>2019-10-28T12:35:48.000Z</time>
      </trkpt>
      <trkpt lat="37.4589963443577289581298828125" lon="-2.8742483071982860565185546875">
        <ele>1128.199951171875</ele>
        <time>2019-10-28T12:36:38.000Z</time>
      </trkpt>
      <trkpt lat="37.45900833047926425933837890625" lon="-2.87435987032949924468994140625">
        <ele>1129.4000244140625</ele>
        <time>2019-10-28T12:36:47.000Z</time>
      </trkpt>
      <trkpt lat="37.4590002000331878662109375" lon="-2.8744146041572093963623046875">
        <ele>1130</ele>
        <time>2019-10-28T12:40:10.000Z</time>
      </trkpt>
      <trkpt lat="37.459007240831851959228515625" lon="-2.87438199855387210845947265625">
        <ele>1129.5999755859375</ele>
        <time>2019-10-28T12:44:47.000Z</time>
      </trkpt>
      <trkpt lat="37.4589889682829380035400390625" lon="-2.87442374043166637420654296875">
        <ele>1130</ele>
        <time>2019-10-28T12:47:45.000Z</time>
      </trkpt>
      <trkpt lat="37.4589908123016357421875" lon="-2.87439121864736080169677734375">
        <ele>1129.800048828125</ele>
        <time>2019-10-28T12:51:47.000Z</time>
      </trkpt>
      <trkpt lat="37.45898754335939884185791015625" lon="-2.8742241673171520233154296875">
        <ele>1128</ele>
        <time>2019-10-28T12:52:28.000Z</time>
      </trkpt>
      <trkpt lat="37.458962313830852508544921875" lon="-2.8742610476911067962646484375">
        <ele>1128.199951171875</ele>
        <time>2019-10-28T12:54:23.000Z</time>
      </trkpt>
      <trkpt lat="37.45881873182952404022216796875" lon="-2.87444033659994602203369140625">
        <ele>1130</ele>
        <time>2019-10-28T12:54:32.000Z</time>
      </trkpt>
      <trkpt lat="37.4586704559624195098876953125" lon="-2.874622978270053863525390625">
        <ele>1132.199951171875</ele>
        <time>2019-10-28T12:54:39.000Z</time>
      </trkpt>
      <trkpt lat="37.4585356749594211578369140625" lon="-2.87479187361896038055419921875">
        <ele>1133.5999755859375</ele>
        <time>2019-10-28T12:54:45.000Z</time>
      </trkpt>
      <trkpt lat="37.45838672854006290435791015625" lon="-2.874979712069034576416015625">
        <ele>1132.5999755859375</ele>
        <time>2019-10-28T12:54:51.000Z</time>
      </trkpt>
      <trkpt lat="37.45825228281319141387939453125" lon="-2.87518397904932498931884765625">
        <ele>1132</ele>
        <time>2019-10-28T12:54:56.000Z</time>
      </trkpt>
      <trkpt lat="37.45810090564191341400146484375" lon="-2.87539402954280376434326171875">
        <ele>1131.800048828125</ele>
        <time>2019-10-28T12:55:00.000Z</time>
      </trkpt>
      <trkpt lat="37.457949109375476837158203125" lon="-2.8755895793437957763671875">
        <ele>1132</ele>
        <time>2019-10-28T12:55:04.000Z</time>
      </trkpt>
      <trkpt lat="37.4578051082789897918701171875" lon="-2.87575210444629192352294921875">
        <ele>1132.800048828125</ele>
        <time>2019-10-28T12:55:08.000Z</time>
      </trkpt>
      <trkpt lat="37.45765716768801212310791015625" lon="-2.87589023821055889129638671875">
        <ele>1133.4000244140625</ele>
        <time>2019-10-28T12:55:13.000Z</time>
      </trkpt>
      <trkpt lat="37.4575124122202396392822265625" lon="-2.8760460577905178070068359375">
        <ele>1134</ele>
        <time>2019-10-28T12:55:19.000Z</time>
      </trkpt>
      <trkpt lat="37.45738509111106395721435546875" lon="-2.87621294148266315460205078125">
        <ele>1134</ele>
        <time>2019-10-28T12:55:25.000Z</time>
      </trkpt>
      <trkpt lat="37.45726355351507663726806640625" lon="-2.87639231421053409576416015625">
        <ele>1133.4000244140625</ele>
        <time>2019-10-28T12:55:30.000Z</time>
      </trkpt>
      <trkpt lat="37.45713296346366405487060546875" lon="-2.8765513189136981964111328125">
        <ele>1133.4000244140625</ele>
        <time>2019-10-28T12:55:34.000Z</time>
      </trkpt>
      <trkpt lat="37.4569803290069103240966796875" lon="-2.87673647515475749969482421875">
        <ele>1133.800048828125</ele>
        <time>2019-10-28T12:55:39.000Z</time>
      </trkpt>
      <trkpt lat="37.45682048611342906951904296875" lon="-2.87688533775508403778076171875">
        <ele>1134.4000244140625</ele>
        <time>2019-10-28T12:55:45.000Z</time>
      </trkpt>
      <trkpt lat="37.45667045004665851593017578125" lon="-2.877049706876277923583984375">
        <ele>1134.800048828125</ele>
        <time>2019-10-28T12:55:53.000Z</time>
      </trkpt>
      <trkpt lat="37.456546314060688018798828125" lon="-2.87721835076808929443359375">
        <ele>1135.800048828125</ele>
        <time>2019-10-28T12:56:00.000Z</time>
      </trkpt>
      <trkpt lat="37.45639954693615436553955078125" lon="-2.877376265823841094970703125">
        <ele>1137</ele>
        <time>2019-10-28T12:56:07.000Z</time>
      </trkpt>
      <trkpt lat="37.45625965297222137451171875" lon="-2.8775289840996265411376953125">
        <ele>1139</ele>
        <time>2019-10-28T12:56:14.000Z</time>
      </trkpt>
      <trkpt lat="37.4561297334730625152587890625" lon="-2.8776922635734081268310546875">
        <ele>1140.4000244140625</ele>
        <time>2019-10-28T12:56:21.000Z</time>
      </trkpt>
      <trkpt lat="37.4560090340673923492431640625" lon="-2.87786342203617095947265625">
        <ele>1140</ele>
        <time>2019-10-28T12:56:28.000Z</time>
      </trkpt>
      <trkpt lat="37.45588104240596294403076171875" lon="-2.87803164683282375335693359375">
        <ele>1140</ele>
        <time>2019-10-28T12:56:35.000Z</time>
      </trkpt>
      <trkpt lat="37.45574324391782283782958984375" lon="-2.87819090299308300018310546875">
        <ele>1140.5999755859375</ele>
        <time>2019-10-28T12:56:42.000Z</time>
      </trkpt>
      <trkpt lat="37.4556045234203338623046875" lon="-2.87835082970559597015380859375">
        <ele>1142.199951171875</ele>
        <time>2019-10-28T12:56:49.000Z</time>
      </trkpt>
      <trkpt lat="37.4554585106670856475830078125" lon="-2.87853053770959377288818359375">
        <ele>1143.199951171875</ele>
        <time>2019-10-28T12:56:56.000Z</time>
      </trkpt>
      <trkpt lat="37.455313168466091156005859375" lon="-2.87869985215365886688232421875">
        <ele>1143.800048828125</ele>
        <time>2019-10-28T12:57:03.000Z</time>
      </trkpt>
      <trkpt lat="37.45518215931951999664306640625" lon="-2.878858856856822967529296875">
        <ele>1144</ele>
        <time>2019-10-28T12:57:10.000Z</time>
      </trkpt>
      <trkpt lat="37.45503681711852550506591796875" lon="-2.8790370561182498931884765625">
        <ele>1144.4000244140625</ele>
        <time>2019-10-28T12:57:18.000Z</time>
      </trkpt>
      <trkpt lat="37.45488703250885009765625" lon="-2.879209555685520172119140625">
        <ele>1144.5999755859375</ele>
        <time>2019-10-28T12:57:26.000Z</time>
      </trkpt>
      <trkpt lat="37.45473724789917469024658203125" lon="-2.87938264198601245880126953125">
        <ele>1145</ele>
        <time>2019-10-28T12:57:33.000Z</time>
      </trkpt>
      <trkpt lat="37.4545933306217193603515625" lon="-2.87957073189318180084228515625">
        <ele>1146.199951171875</ele>
        <time>2019-10-28T12:57:40.000Z</time>
      </trkpt>
      <trkpt lat="37.45445259846746921539306640625" lon="-2.879750691354274749755859375">
        <ele>1147</ele>
        <time>2019-10-28T12:57:46.000Z</time>
      </trkpt>
      <trkpt lat="37.45430960319936275482177734375" lon="-2.87993819452822208404541015625">
        <ele>1146.5999755859375</ele>
        <time>2019-10-28T12:57:51.000Z</time>
      </trkpt>
      <trkpt lat="37.45417934842407703399658203125" lon="-2.8800998814404010772705078125">
        <ele>1146</ele>
        <time>2019-10-28T12:57:55.000Z</time>
      </trkpt>
      <trkpt lat="37.454040460288524627685546875" lon="-2.88026374764740467071533203125">
        <ele>1145.199951171875</ele>
        <time>2019-10-28T12:58:01.000Z</time>
      </trkpt>
      <trkpt lat="37.45390643365681171417236328125" lon="-2.880422584712505340576171875">
        <ele>1144.800048828125</ele>
        <time>2019-10-28T12:58:07.000Z</time>
      </trkpt>
      <trkpt lat="37.453763186931610107421875" lon="-2.8805830143392086029052734375">
        <ele>1145</ele>
        <time>2019-10-28T12:58:13.000Z</time>
      </trkpt>
      <trkpt lat="37.45361876673996448516845703125" lon="-2.8807486407458782196044921875">
        <ele>1145.800048828125</ele>
        <time>2019-10-28T12:58:19.000Z</time>
      </trkpt>
      <trkpt lat="37.4534723348915576934814453125" lon="-2.88092575035989284515380859375">
        <ele>1146.4000244140625</ele>
        <time>2019-10-28T12:58:25.000Z</time>
      </trkpt>
      <trkpt lat="37.45333378203213214874267578125" lon="-2.881093136966228485107421875">
        <ele>1145.800048828125</ele>
        <time>2019-10-28T12:58:30.000Z</time>
      </trkpt>
      <trkpt lat="37.45318190194666385650634765625" lon="-2.88127326406538486480712890625">
        <ele>1144.800048828125</ele>
        <time>2019-10-28T12:58:35.000Z</time>
      </trkpt>
      <trkpt lat="37.4530508928000926971435546875" lon="-2.8814299218356609344482421875">
        <ele>1144.199951171875</ele>
        <time>2019-10-28T12:58:40.000Z</time>
      </trkpt>
      <trkpt lat="37.452895157039165496826171875" lon="-2.88161180913448333740234375">
        <ele>1145.4000244140625</ele>
        <time>2019-10-28T12:58:46.000Z</time>
      </trkpt>
      <trkpt lat="37.45274486951529979705810546875" lon="-2.88180719129741191864013671875">
        <ele>1147.199951171875</ele>
        <time>2019-10-28T12:58:52.000Z</time>
      </trkpt>
      <trkpt lat="37.452593743801116943359375" lon="-2.8819958679378032684326171875">
        <ele>1148.4000244140625</ele>
        <time>2019-10-28T12:58:58.000Z</time>
      </trkpt>
      <trkpt lat="37.452461980283260345458984375" lon="-2.88215252570807933807373046875">
        <ele>1148.199951171875</ele>
        <time>2019-10-28T12:59:03.000Z</time>
      </trkpt>
      <trkpt lat="37.45232778601348400115966796875" lon="-2.88230960257351398468017578125">
        <ele>1147.199951171875</ele>
        <time>2019-10-28T12:59:08.000Z</time>
      </trkpt>
      <trkpt lat="37.45218261145055294036865234375" lon="-2.882479839026927947998046875">
        <ele>1146.5999755859375</ele>
        <time>2019-10-28T12:59:13.000Z</time>
      </trkpt>
      <trkpt lat="37.45204095728695392608642578125" lon="-2.8826473094522953033447265625">
        <ele>1146.5999755859375</ele>
        <time>2019-10-28T12:59:18.000Z</time>
      </trkpt>
      <trkpt lat="37.45190952904522418975830078125" lon="-2.8828239999711513519287109375">
        <ele>1147.199951171875</ele>
        <time>2019-10-28T12:59:23.000Z</time>
      </trkpt>
      <trkpt lat="37.45177567005157470703125" lon="-2.8830085694789886474609375">
        <ele>1148.199951171875</ele>
        <time>2019-10-28T12:59:28.000Z</time>
      </trkpt>
      <trkpt lat="37.45161750353872776031494140625" lon="-2.88318584673106670379638671875">
        <ele>1149</ele>
        <time>2019-10-28T12:59:33.000Z</time>
      </trkpt>
      <trkpt lat="37.4514633603394031524658203125" lon="-2.88336538709700107574462890625">
        <ele>1149</ele>
        <time>2019-10-28T12:59:38.000Z</time>
      </trkpt>
      <trkpt lat="37.45132765732705593109130859375" lon="-2.88353629410266876220703125">
        <ele>1148.5999755859375</ele>
        <time>2019-10-28T12:59:43.000Z</time>
      </trkpt>
      <trkpt lat="37.4511837400496006011962890625" lon="-2.88371273316442966461181640625">
        <ele>1148</ele>
        <time>2019-10-28T12:59:48.000Z</time>
      </trkpt>
      <trkpt lat="37.45103202760219573974609375" lon="-2.88389948196709156036376953125">
        <ele>1147.4000244140625</ele>
        <time>2019-10-28T12:59:53.000Z</time>
      </trkpt>
      <trkpt lat="37.4508581869304180145263671875" lon="-2.88407868705689907073974609375">
        <ele>1146.800048828125</ele>
        <time>2019-10-28T12:59:58.000Z</time>
      </trkpt>
      <trkpt lat="37.4507217295467853546142578125" lon="-2.88423358462750911712646484375">
        <ele>1146.4000244140625</ele>
        <time>2019-10-28T13:00:02.000Z</time>
      </trkpt>
      <trkpt lat="37.4505721963942050933837890625" lon="-2.88441580720245838165283203125">
        <ele>1146.800048828125</ele>
        <time>2019-10-28T13:00:07.000Z</time>
      </trkpt>
      <trkpt lat="37.45043934322893619537353515625" lon="-2.88458813913166522979736328125">
        <ele>1147.5999755859375</ele>
        <time>2019-10-28T13:00:12.000Z</time>
      </trkpt>
      <trkpt lat="37.4502992816269397735595703125" lon="-2.88476767949759960174560546875">
        <ele>1148</ele>
        <time>2019-10-28T13:00:17.000Z</time>
      </trkpt>
      <trkpt lat="37.450159303843975067138671875" lon="-2.88494420237839221954345703125">
        <ele>1148.4000244140625</ele>
        <time>2019-10-28T13:00:22.000Z</time>
      </trkpt>
      <trkpt lat="37.45002242736518383026123046875" lon="-2.8851206414401531219482421875">
        <ele>1148.800048828125</ele>
        <time>2019-10-28T13:00:27.000Z</time>
      </trkpt>
      <trkpt lat="37.4498929269611835479736328125" lon="-2.8852869383990764617919921875">
        <ele>1148.5999755859375</ele>
        <time>2019-10-28T13:00:32.000Z</time>
      </trkpt>
      <trkpt lat="37.449762336909770965576171875" lon="-2.8854482062160968780517578125">
        <ele>1148.5999755859375</ele>
        <time>2019-10-28T13:00:37.000Z</time>
      </trkpt>
      <trkpt lat="37.44962059892714023590087890625" lon="-2.88561726920306682586669921875">
        <ele>1148.800048828125</ele>
        <time>2019-10-28T13:00:42.000Z</time>
      </trkpt>
      <trkpt lat="37.4494714848697185516357421875" lon="-2.88580812513828277587890625">
        <ele>1149.199951171875</ele>
        <time>2019-10-28T13:00:47.000Z</time>
      </trkpt>
      <trkpt lat="37.44933846406638622283935546875" lon="-2.88597031496465206146240234375">
        <ele>1148.800048828125</ele>
        <time>2019-10-28T13:00:51.000Z</time>
      </trkpt>
      <trkpt lat="37.449201755225658416748046875" lon="-2.88614097051322460174560546875">
        <ele>1147.5999755859375</ele>
        <time>2019-10-28T13:00:55.000Z</time>
      </trkpt>
      <trkpt lat="37.44905834086239337921142578125" lon="-2.88631062023341655731201171875">
        <ele>1146</ele>
        <time>2019-10-28T13:00:59.000Z</time>
      </trkpt>
      <trkpt lat="37.44889833033084869384765625" lon="-2.88648135960102081298828125">
        <ele>1144.199951171875</ele>
        <time>2019-10-28T13:01:03.000Z</time>
      </trkpt>
      <trkpt lat="37.448775954544544219970703125" lon="-2.8866072557866573333740234375">
        <ele>1145.4000244140625</ele>
        <time>2019-10-28T13:01:06.000Z</time>
      </trkpt>
      <trkpt lat="37.44863321073353290557861328125" lon="-2.88680029101669788360595703125">
        <ele>1147.5999755859375</ele>
        <time>2019-10-28T13:01:10.000Z</time>
      </trkpt>
      <trkpt lat="37.448485605418682098388671875" lon="-2.88698955439031124114990234375">
        <ele>1148.800048828125</ele>
        <time>2019-10-28T13:01:14.000Z</time>
      </trkpt>
      <trkpt lat="37.448344118893146514892578125" lon="-2.88718770258128643035888671875">
        <ele>1149.4000244140625</ele>
        <time>2019-10-28T13:01:18.000Z</time>
      </trkpt>
      <trkpt lat="37.4482125230133533477783203125" lon="-2.8873773850500583648681640625">
        <ele>1148.5999755859375</ele>
        <time>2019-10-28T13:01:22.000Z</time>
      </trkpt>
      <trkpt lat="37.44807933457195758819580078125" lon="-2.88755684159696102142333984375">
        <ele>1147.4000244140625</ele>
        <time>2019-10-28T13:01:26.000Z</time>
      </trkpt>
      <trkpt lat="37.448045723140239715576171875" lon="-2.8875993378460407257080078125">
        <ele>1147</ele>
        <time>2019-10-28T13:01:27.000Z</time>
      </trkpt>
      <trkpt lat="37.44791085831820964813232421875" lon="-2.88779295980930328369140625">
        <ele>1145.5999755859375</ele>
        <time>2019-10-28T13:01:31.000Z</time>
      </trkpt>
      <trkpt lat="37.44777850806713104248046875" lon="-2.88801767863333225250244140625">
        <ele>1145</ele>
        <time>2019-10-28T13:01:35.000Z</time>
      </trkpt>
      <trkpt lat="37.4476888217031955718994140625" lon="-2.88816788233816623687744140625">
        <ele>1145.199951171875</ele>
        <time>2019-10-28T13:01:38.000Z</time>
      </trkpt>
      <trkpt lat="37.4475533701479434967041015625" lon="-2.8883627615869045257568359375">
        <ele>1145.800048828125</ele>
        <time>2019-10-28T13:01:43.000Z</time>
      </trkpt>
      <trkpt lat="37.4475322477519512176513671875" lon="-2.88840542547404766082763671875">
        <ele>1145.800048828125</ele>
        <time>2019-10-28T13:01:44.000Z</time>
      </trkpt>
      <trkpt lat="37.44743158109486103057861328125" lon="-2.88862201385200023651123046875">
        <ele>1145.5999755859375</ele>
        <time>2019-10-28T13:01:49.000Z</time>
      </trkpt>
      <trkpt lat="37.44736838154494762420654296875" lon="-2.8888351656496524810791015625">
        <ele>1145.4000244140625</ele>
        <time>2019-10-28T13:01:53.000Z</time>
      </trkpt>
      <trkpt lat="37.4473129771649837493896484375" lon="-2.88908318616449832916259765625">
        <ele>1145.199951171875</ele>
        <time>2019-10-28T13:01:57.000Z</time>
      </trkpt>
      <trkpt lat="37.447266876697540283203125" lon="-2.88936180062592029571533203125">
        <ele>1145</ele>
        <time>2019-10-28T13:02:01.000Z</time>
      </trkpt>
      <trkpt lat="37.4472499452531337738037109375" lon="-2.88943204097449779510498046875">
        <ele>1145</ele>
        <time>2019-10-28T13:02:02.000Z</time>
      </trkpt>
      <trkpt lat="37.44712078012526035308837890625" lon="-2.8896257467567920684814453125">
        <ele>1145.800048828125</ele>
        <time>2019-10-28T13:02:06.000Z</time>
      </trkpt>
      <trkpt lat="37.4470799602568149566650390625" lon="-2.88966086693108081817626953125">
        <ele>1146</ele>
        <time>2019-10-28T13:02:07.000Z</time>
      </trkpt>
      <trkpt lat="37.447008378803730010986328125" lon="-2.889738567173480987548828125">
        <ele>1146.5999755859375</ele>
        <time>2019-10-28T13:02:09.000Z</time>
      </trkpt>
      <trkpt lat="37.44687468744814395904541015625" lon="-2.88990880362689495086669921875">
        <ele>1147.199951171875</ele>
        <time>2019-10-28T13:02:13.000Z</time>
      </trkpt>
      <trkpt lat="37.446715347468852996826171875" lon="-2.89005096070468425750732421875">
        <ele>1147.800048828125</ele>
        <time>2019-10-28T13:02:18.000Z</time>
      </trkpt>
      <trkpt lat="37.4465797282755374908447265625" lon="-2.89015196263790130615234375">
        <ele>1148.199951171875</ele>
        <time>2019-10-28T13:02:23.000Z</time>
      </trkpt>
      <trkpt lat="37.446481324732303619384765625" lon="-2.8902215324342250823974609375">
        <ele>1148.4000244140625</ele>
        <time>2019-10-28T13:02:27.000Z</time>
      </trkpt>
      <trkpt lat="37.4463160336017608642578125" lon="-2.89035036228597164154052734375">
        <ele>1148.5999755859375</ele>
        <time>2019-10-28T13:02:34.000Z</time>
      </trkpt>
      <trkpt lat="37.4462704360485076904296875" lon="-2.89039260707795619964599609375">
        <ele>1148.800048828125</ele>
        <time>2019-10-28T13:02:36.000Z</time>
      </trkpt>
      <trkpt lat="37.4462233297526836395263671875" lon="-2.89043736644089221954345703125">
        <ele>1149</ele>
        <time>2019-10-28T13:02:38.000Z</time>
      </trkpt>
      <trkpt lat="37.446131296455860137939453125" lon="-2.8905216045677661895751953125">
        <ele>1149.800048828125</ele>
        <time>2019-10-28T13:02:42.000Z</time>
      </trkpt>
      <trkpt lat="37.446093745529651641845703125" lon="-2.89056292735040187835693359375">
        <ele>1150</ele>
        <time>2019-10-28T13:02:44.000Z</time>
      </trkpt>
      <trkpt lat="37.44593826122581958770751953125" lon="-2.89071262814104557037353515625">
        <ele>1150.199951171875</ele>
        <time>2019-10-28T13:02:52.000Z</time>
      </trkpt>
      <trkpt lat="37.44576324708759784698486328125" lon="-2.89075822569429874420166015625">
        <ele>1150.800048828125</ele>
        <time>2019-10-28T13:02:59.000Z</time>
      </trkpt>
      <trkpt lat="37.445566691458225250244140625" lon="-2.89076224900782108306884765625">
        <ele>1152.800048828125</ele>
        <time>2019-10-28T13:03:05.000Z</time>
      </trkpt>
      <trkpt lat="37.44537265039980411529541015625" lon="-2.89082243107259273529052734375">
        <ele>1154.199951171875</ele>
        <time>2019-10-28T13:03:12.000Z</time>
      </trkpt>
      <trkpt lat="37.44523166678845882415771484375" lon="-2.89099308662116527557373046875">
        <ele>1155.199951171875</ele>
        <time>2019-10-28T13:03:21.000Z</time>
      </trkpt>
      <trkpt lat="37.44509227573871612548828125" lon="-2.8911660052835941314697265625">
        <ele>1155.5999755859375</ele>
        <time>2019-10-28T13:03:30.000Z</time>
      </trkpt>
      <trkpt lat="37.44494651444256305694580078125" lon="-2.89133272133767604827880859375">
        <ele>1156.5999755859375</ele>
        <time>2019-10-28T13:03:39.000Z</time>
      </trkpt>
      <trkpt lat="37.44480150751769542694091796875" lon="-2.89149197749793529510498046875">
        <ele>1157.5999755859375</ele>
        <time>2019-10-28T13:03:48.000Z</time>
      </trkpt>
      <trkpt lat="37.44465935043990612030029296875" lon="-2.891637571156024932861328125">
        <ele>1158.4000244140625</ele>
        <time>2019-10-28T13:03:56.000Z</time>
      </trkpt>
      <trkpt lat="37.4445120804011821746826171875" lon="-2.89179523475468158721923828125">
        <ele>1159.4000244140625</ele>
        <time>2019-10-28T13:04:05.000Z</time>
      </trkpt>
      <trkpt lat="37.4443726055324077606201171875" lon="-2.8919549100100994110107421875">
        <ele>1161</ele>
        <time>2019-10-28T13:04:13.000Z</time>
      </trkpt>
      <trkpt lat="37.44422684423625469207763671875" lon="-2.89210787974298000335693359375">
        <ele>1162.4000244140625</ele>
        <time>2019-10-28T13:04:21.000Z</time>
      </trkpt>
      <trkpt lat="37.44409994222223758697509765625" lon="-2.89226830936968326568603515625">
        <ele>1163.4000244140625</ele>
        <time>2019-10-28T13:04:29.000Z</time>
      </trkpt>
      <trkpt lat="37.44396750815212726593017578125" lon="-2.89242639206349849700927734375">
        <ele>1164.4000244140625</ele>
        <time>2019-10-28T13:04:37.000Z</time>
      </trkpt>
      <trkpt lat="37.44381696917116641998291015625" lon="-2.8925949521362781524658203125">
        <ele>1165</ele>
        <time>2019-10-28T13:04:46.000Z</time>
      </trkpt>
      <trkpt lat="37.44368067942559719085693359375" lon="-2.89276401512324810028076171875">
        <ele>1165</ele>
        <time>2019-10-28T13:04:54.000Z</time>
      </trkpt>
      <trkpt lat="37.443543970584869384765625" lon="-2.89293450303375720977783203125">
        <ele>1165.199951171875</ele>
        <time>2019-10-28T13:05:02.000Z</time>
      </trkpt>
      <trkpt lat="37.44339183904230594635009765625" lon="-2.893097363412380218505859375">
        <ele>1165.800048828125</ele>
        <time>2019-10-28T13:05:11.000Z</time>
      </trkpt>
      <trkpt lat="37.443351186811923980712890625" lon="-2.8931253589689731597900390625">
        <ele>1165.800048828125</ele>
        <time>2019-10-28T13:05:14.000Z</time>
      </trkpt>
      <trkpt lat="37.44335898198187351226806640625" lon="-2.89319903589785099029541015625">
        <ele>1165.800048828125</ele>
        <time>2019-10-28T13:06:29.000Z</time>
      </trkpt>
      <trkpt lat="37.44333542883396148681640625" lon="-2.89316651411354541778564453125">
        <ele>1166</ele>
        <time>2019-10-28T13:08:49.000Z</time>
      </trkpt>
      <trkpt lat="37.44323509745299816131591796875" lon="-2.8933208249509334564208984375">
        <ele>1165.800048828125</ele>
        <time>2019-10-28T13:09:25.000Z</time>
      </trkpt>
      <trkpt lat="37.4430938623845577239990234375" lon="-2.89348536171019077301025390625">
        <ele>1166</ele>
        <time>2019-10-28T13:09:33.000Z</time>
      </trkpt>
      <trkpt lat="37.442960254848003387451171875" lon="-2.89363749325275421142578125">
        <ele>1166.800048828125</ele>
        <time>2019-10-28T13:09:40.000Z</time>
      </trkpt>
      <trkpt lat="37.4428279884159564971923828125" lon="-2.89379733614623546600341796875">
        <ele>1167.5999755859375</ele>
        <time>2019-10-28T13:09:47.000Z</time>
      </trkpt>
      <trkpt lat="37.44276604615151882171630859375" lon="-2.89389657787978649139404296875">
        <ele>1168.199951171875</ele>
        <time>2019-10-28T13:09:51.000Z</time>
      </trkpt>
      <trkpt lat="37.4426512978971004486083984375" lon="-2.89403404109179973602294921875">
        <ele>1169.5999755859375</ele>
        <time>2019-10-28T13:09:57.000Z</time>
      </trkpt>
      <trkpt lat="37.44251810945570468902587890625" lon="-2.8942005895078182220458984375">
        <ele>1170.5999755859375</ele>
        <time>2019-10-28T13:10:04.000Z</time>
      </trkpt>
      <trkpt lat="37.4423710070550441741943359375" lon="-2.89437602274119853973388671875">
        <ele>1171</ele>
        <time>2019-10-28T13:10:11.000Z</time>
      </trkpt>
      <trkpt lat="37.442227341234683990478515625" lon="-2.89454273879528045654296875">
        <ele>1171</ele>
        <time>2019-10-28T13:10:18.000Z</time>
      </trkpt>
      <trkpt lat="37.4420917220413684844970703125" lon="-2.894701659679412841796875">
        <ele>1172.4000244140625</ele>
        <time>2019-10-28T13:10:25.000Z</time>
      </trkpt>
      <trkpt lat="37.441943027079105377197265625" lon="-2.89487759582698345184326171875">
        <ele>1174</ele>
        <time>2019-10-28T13:10:33.000Z</time>
      </trkpt>
      <trkpt lat="37.441808246076107025146484375" lon="-2.895052693784236907958984375">
        <ele>1176</ele>
        <time>2019-10-28T13:10:41.000Z</time>
      </trkpt>
      <trkpt lat="37.4416612274944782257080078125" lon="-2.89522795937955379486083984375">
        <ele>1178.4000244140625</ele>
        <time>2019-10-28T13:10:49.000Z</time>
      </trkpt>
      <trkpt lat="37.4415254406630992889404296875" lon="-2.895391993224620819091796875">
        <ele>1180.800048828125</ele>
        <time>2019-10-28T13:10:57.000Z</time>
      </trkpt>
      <trkpt lat="37.4413903243839740753173828125" lon="-2.8955551050603389739990234375">
        <ele>1182.199951171875</ele>
        <time>2019-10-28T13:11:05.000Z</time>
      </trkpt>
      <trkpt lat="37.44123794138431549072265625" lon="-2.89572299458086490631103515625">
        <ele>1182.800048828125</ele>
        <time>2019-10-28T13:11:13.000Z</time>
      </trkpt>
      <trkpt lat="37.44109846651554107666015625" lon="-2.8959027864038944244384765625">
        <ele>1183.199951171875</ele>
        <time>2019-10-28T13:11:21.000Z</time>
      </trkpt>
      <trkpt lat="37.4409615062177181243896484375" lon="-2.896063886582851409912109375">
        <ele>1183.5999755859375</ele>
        <time>2019-10-28T13:11:28.000Z</time>
      </trkpt>
      <trkpt lat="37.44094197638332843780517578125" lon="-2.89608777500689029693603515625">
        <ele>1183.5999755859375</ele>
        <time>2019-10-28T13:11:29.000Z</time>
      </trkpt>
      <trkpt lat="37.44080602191388607025146484375" lon="-2.896252311766147613525390625">
        <ele>1184</ele>
        <time>2019-10-28T13:11:36.000Z</time>
      </trkpt>
      <trkpt lat="37.44065900333225727081298828125" lon="-2.89643310941755771636962890625">
        <ele>1184.5999755859375</ele>
        <time>2019-10-28T13:11:44.000Z</time>
      </trkpt>
      <trkpt lat="37.4405290000140666961669921875" lon="-2.8965911082923412322998046875">
        <ele>1184.4000244140625</ele>
        <time>2019-10-28T13:11:51.000Z</time>
      </trkpt>
      <trkpt lat="37.4403962306678295135498046875" lon="-2.89674592204391956329345703125">
        <ele>1184.800048828125</ele>
        <time>2019-10-28T13:11:58.000Z</time>
      </trkpt>
      <trkpt lat="37.440259270370006561279296875" lon="-2.89690786041319370269775390625">
        <ele>1185.5999755859375</ele>
        <time>2019-10-28T13:12:05.000Z</time>
      </trkpt>
      <trkpt lat="37.44012054987251758575439453125" lon="-2.897062338888645172119140625">
        <ele>1186.5999755859375</ele>
        <time>2019-10-28T13:12:12.000Z</time>
      </trkpt>
      <trkpt lat="37.43998593650758266448974609375" lon="-2.897220589220523834228515625">
        <ele>1188.5999755859375</ele>
        <time>2019-10-28T13:12:20.000Z</time>
      </trkpt>
      <trkpt lat="37.439842186868190765380859375" lon="-2.8973857127130031585693359375">
        <ele>1190.800048828125</ele>
        <time>2019-10-28T13:12:28.000Z</time>
      </trkpt>
      <trkpt lat="37.43970061652362346649169921875" lon="-2.897563241422176361083984375">
        <ele>1192.199951171875</ele>
        <time>2019-10-28T13:12:36.000Z</time>
      </trkpt>
      <trkpt lat="37.4395526759326457977294921875" lon="-2.89773783646523952484130859375">
        <ele>1192.5999755859375</ele>
        <time>2019-10-28T13:12:43.000Z</time>
      </trkpt>
      <trkpt lat="37.43942032568156719207763671875" lon="-2.8979204781353473663330078125">
        <ele>1192.800048828125</ele>
        <time>2019-10-28T13:12:50.000Z</time>
      </trkpt>
      <trkpt lat="37.439283616840839385986328125" lon="-2.8980817459523677825927734375">
        <ele>1192.199951171875</ele>
        <time>2019-10-28T13:12:57.000Z</time>
      </trkpt>
      <trkpt lat="37.43916668929159641265869140625" lon="-2.89826103486120700836181640625">
        <ele>1191.5999755859375</ele>
        <time>2019-10-28T13:13:03.000Z</time>
      </trkpt>
      <trkpt lat="37.43902168236672878265380859375" lon="-2.89846437983214855194091796875">
        <ele>1191.4000244140625</ele>
        <time>2019-10-28T13:13:08.000Z</time>
      </trkpt>
      <trkpt lat="37.43887935765087604522705078125" lon="-2.898636795580387115478515625">
        <ele>1191.199951171875</ele>
        <time>2019-10-28T13:13:13.000Z</time>
      </trkpt>
      <trkpt lat="37.43874482810497283935546875" lon="-2.89880611002445220947265625">
        <ele>1192.5999755859375</ele>
        <time>2019-10-28T13:13:19.000Z</time>
      </trkpt>
      <trkpt lat="37.43861231021583080291748046875" lon="-2.89897508919239044189453125">
        <ele>1193.800048828125</ele>
        <time>2019-10-28T13:13:27.000Z</time>
      </trkpt>
      <trkpt lat="37.438470907509326934814453125" lon="-2.8991207666695117950439453125">
        <ele>1195.4000244140625</ele>
        <time>2019-10-28T13:13:35.000Z</time>
      </trkpt>
      <trkpt lat="37.4383270740509033203125" lon="-2.89925940334796905517578125">
        <ele>1196.800048828125</ele>
        <time>2019-10-28T13:13:43.000Z</time>
      </trkpt>
      <trkpt lat="37.43817896582186222076416015625" lon="-2.8994168154895305633544921875">
        <ele>1198</ele>
        <time>2019-10-28T13:13:52.000Z</time>
      </trkpt>
      <trkpt lat="37.438037060201168060302734375" lon="-2.899576239287853240966796875">
        <ele>1199</ele>
        <time>2019-10-28T13:14:01.000Z</time>
      </trkpt>
      <trkpt lat="37.4379044584929943084716796875" lon="-2.8997306339442729949951171875">
        <ele>1200</ele>
        <time>2019-10-28T13:14:09.000Z</time>
      </trkpt>
      <trkpt lat="37.4377549253404140472412109375" lon="-2.8998945839703083038330078125">
        <ele>1200.800048828125</ele>
        <time>2019-10-28T13:14:18.000Z</time>
      </trkpt>
      <trkpt lat="37.437624000012874603271484375" lon="-2.900061048567295074462890625">
        <ele>1200.199951171875</ele>
        <time>2019-10-28T13:14:26.000Z</time>
      </trkpt>
      <trkpt lat="37.43748863227665424346923828125" lon="-2.90024151094257831573486328125">
        <ele>1199.5999755859375</ele>
        <time>2019-10-28T13:14:34.000Z</time>
      </trkpt>
      <trkpt lat="37.4373440444469451904296875" lon="-2.900415770709514617919921875">
        <ele>1200</ele>
        <time>2019-10-28T13:14:41.000Z</time>
      </trkpt>
      <trkpt lat="37.43721060454845428466796875" lon="-2.90057477541267871856689453125">
        <ele>1201</ele>
        <time>2019-10-28T13:14:47.000Z</time>
      </trkpt>
      <trkpt lat="37.4370759911835193634033203125" lon="-2.9007411561906337738037109375">
        <ele>1201</ele>
        <time>2019-10-28T13:14:53.000Z</time>
      </trkpt>
      <trkpt lat="37.436925284564495086669921875" lon="-2.900917343795299530029296875">
        <ele>1200.199951171875</ele>
        <time>2019-10-28T13:14:59.000Z</time>
      </trkpt>
      <trkpt lat="37.4367816187441349029541015625" lon="-2.90109998546540737152099609375">
        <ele>1198.800048828125</ele>
        <time>2019-10-28T13:15:05.000Z</time>
      </trkpt>
      <trkpt lat="37.43664876557886600494384765625" lon="-2.901262678205966949462890625">
        <ele>1197.800048828125</ele>
        <time>2019-10-28T13:15:11.000Z</time>
      </trkpt>
      <trkpt lat="37.43651834316551685333251953125" lon="-2.90144213475286960601806640625">
        <ele>1197.800048828125</ele>
        <time>2019-10-28T13:15:17.000Z</time>
      </trkpt>
      <trkpt lat="37.4363772757351398468017578125" lon="-2.90163441561162471771240234375">
        <ele>1198.4000244140625</ele>
        <time>2019-10-28T13:15:22.000Z</time>
      </trkpt>
      <trkpt lat="37.43624190799891948699951171875" lon="-2.90179920382797718048095703125">
        <ele>1199.4000244140625</ele>
        <time>2019-10-28T13:15:26.000Z</time>
      </trkpt>
      <trkpt lat="37.4361006729304790496826171875" lon="-2.90196063928306102752685546875">
        <ele>1201.5999755859375</ele>
        <time>2019-10-28T13:15:31.000Z</time>
      </trkpt>
      <trkpt lat="37.4359538219869136810302734375" lon="-2.902112267911434173583984375">
        <ele>1203</ele>
        <time>2019-10-28T13:15:38.000Z</time>
      </trkpt>
      <trkpt lat="37.435791380703449249267578125" lon="-2.902265824377536773681640625">
        <ele>1204</ele>
        <time>2019-10-28T13:15:46.000Z</time>
      </trkpt>
      <trkpt lat="37.43564913980662822723388671875" lon="-2.90243069641292095184326171875">
        <ele>1204.5999755859375</ele>
        <time>2019-10-28T13:15:54.000Z</time>
      </trkpt>
      <trkpt lat="37.43550614453852176666259765625" lon="-2.9026046209037303924560546875">
        <ele>1205</ele>
        <time>2019-10-28T13:16:02.000Z</time>
      </trkpt>
      <trkpt lat="37.43537253700196743011474609375" lon="-2.90276513434946537017822265625">
        <ele>1205.5999755859375</ele>
        <time>2019-10-28T13:16:09.000Z</time>
      </trkpt>
      <trkpt lat="37.4352269433438777923583984375" lon="-2.90294651873409748077392578125">
        <ele>1206.199951171875</ele>
        <time>2019-10-28T13:16:16.000Z</time>
      </trkpt>
      <trkpt lat="37.43508067913353443145751953125" lon="-2.9031340219080448150634765625">
        <ele>1206.800048828125</ele>
        <time>2019-10-28T13:16:23.000Z</time>
      </trkpt>
      <trkpt lat="37.4349436350166797637939453125" lon="-2.9033174179494380950927734375">
        <ele>1207</ele>
        <time>2019-10-28T13:16:29.000Z</time>
      </trkpt>
      <trkpt lat="37.4348105303943157196044921875" lon="-2.90350575931370258331298828125">
        <ele>1206.800048828125</ele>
        <time>2019-10-28T13:16:35.000Z</time>
      </trkpt>
      <trkpt lat="37.4346801079809665679931640625" lon="-2.90368479676544666290283203125">
        <ele>1206.4000244140625</ele>
        <time>2019-10-28T13:16:41.000Z</time>
      </trkpt>
      <trkpt lat="37.43455496616661548614501953125" lon="-2.9038488306105136871337890625">
        <ele>1206.199951171875</ele>
        <time>2019-10-28T13:16:47.000Z</time>
      </trkpt>
      <trkpt lat="37.4344906769692897796630859375" lon="-2.90393457747995853424072265625">
        <ele>1206</ele>
        <time>2019-10-28T13:16:50.000Z</time>
      </trkpt>
      <trkpt lat="37.43436251766979694366455078125" lon="-2.90415016002953052520751953125">
        <ele>1205.199951171875</ele>
        <time>2019-10-28T13:16:56.000Z</time>
      </trkpt>
      <trkpt lat="37.4344504438340663909912109375" lon="-2.9043862782418727874755859375">
        <ele>1203.5999755859375</ele>
        <time>2019-10-28T13:17:01.000Z</time>
      </trkpt>
      <trkpt lat="37.43464649654924869537353515625" lon="-2.904534302651882171630859375">
        <ele>1202.199951171875</ele>
        <time>2019-10-28T13:17:05.000Z</time>
      </trkpt>
      <trkpt lat="37.43469460867345333099365234375" lon="-2.9045788943767547607421875">
        <ele>1202.199951171875</ele>
        <time>2019-10-28T13:17:06.000Z</time>
      </trkpt>
      <trkpt lat="37.4348209239542484283447265625" lon="-2.90481082163751125335693359375">
        <ele>1202.199951171875</ele>
        <time>2019-10-28T13:17:10.000Z</time>
      </trkpt>
      <trkpt lat="37.43485403247177600860595703125" lon="-2.9050434194505214691162109375">
        <ele>1202.5999755859375</ele>
        <time>2019-10-28T13:17:16.000Z</time>
      </trkpt>
      <trkpt lat="37.434786893427371978759765625" lon="-2.90525740943849086761474609375">
        <ele>1204.4000244140625</ele>
        <time>2019-10-28T13:17:22.000Z</time>
      </trkpt>
      <trkpt lat="37.4347092770040035247802734375" lon="-2.90547047741711139678955078125">
        <ele>1205.5999755859375</ele>
        <time>2019-10-28T13:17:28.000Z</time>
      </trkpt>
      <trkpt lat="37.4346231110394001007080078125" lon="-2.90571640245616436004638671875">
        <ele>1205.199951171875</ele>
        <time>2019-10-28T13:17:34.000Z</time>
      </trkpt>
      <trkpt lat="37.43456686846911907196044921875" lon="-2.9059362597763538360595703125">
        <ele>1204.5999755859375</ele>
        <time>2019-10-28T13:17:39.000Z</time>
      </trkpt>
      <trkpt lat="37.4344896711409091949462890625" lon="-2.90617757476866245269775390625">
        <ele>1204</ele>
        <time>2019-10-28T13:17:44.000Z</time>
      </trkpt>
      <trkpt lat="37.4344172514975070953369140625" lon="-2.9064110107719898223876953125">
        <ele>1204</ele>
        <time>2019-10-28T13:17:49.000Z</time>
      </trkpt>
      <trkpt lat="37.4343377910554409027099609375" lon="-2.90664729662239551544189453125">
        <ele>1204.4000244140625</ele>
        <time>2019-10-28T13:17:54.000Z</time>
      </trkpt>
      <trkpt lat="37.43423947133123874664306640625" lon="-2.9068455286324024200439453125">
        <ele>1204.4000244140625</ele>
        <time>2019-10-28T13:17:59.000Z</time>
      </trkpt>
      <trkpt lat="37.4341213703155517578125" lon="-2.90704661048948764801025390625">
        <ele>1204.199951171875</ele>
        <time>2019-10-28T13:18:05.000Z</time>
      </trkpt>
      <trkpt lat="37.4339998327195644378662109375" lon="-2.90724844671785831451416015625">
        <ele>1204.5999755859375</ele>
        <time>2019-10-28T13:18:11.000Z</time>
      </trkpt>
      <trkpt lat="37.43385977111756801605224609375" lon="-2.90741264820098876953125">
        <ele>1205</ele>
        <time>2019-10-28T13:18:17.000Z</time>
      </trkpt>
      <trkpt lat="37.4337701685726642608642578125" lon="-2.90741357021033763885498046875">
        <ele>1205.5999755859375</ele>
        <time>2019-10-28T13:18:21.000Z</time>
      </trkpt>
      <trkpt lat="37.4336534924805164337158203125" lon="-2.907236628234386444091796875">
        <ele>1207.800048828125</ele>
        <time>2019-10-28T13:19:16.000Z</time>
      </trkpt>
      <trkpt lat="37.43350387550890445709228515625" lon="-2.90708206593990325927734375">
        <ele>1210.4000244140625</ele>
        <time>2019-10-28T13:19:23.000Z</time>
      </trkpt>
      <trkpt lat="37.4333467148244380950927734375" lon="-2.90692825801670551300048828125">
        <ele>1212.199951171875</ele>
        <time>2019-10-28T13:19:31.000Z</time>
      </trkpt>
      <trkpt lat="37.43319005705416202545166015625" lon="-2.906771264970302581787109375">
        <ele>1213</ele>
        <time>2019-10-28T13:19:39.000Z</time>
      </trkpt>
      <trkpt lat="37.4330375902354717254638671875" lon="-2.9066172055900096893310546875">
        <ele>1213</ele>
        <time>2019-10-28T13:19:47.000Z</time>
      </trkpt>
      <trkpt lat="37.43287573568522930145263671875" lon="-2.90648971684277057647705078125">
        <ele>1213</ele>
        <time>2019-10-28T13:19:55.000Z</time>
      </trkpt>
      <trkpt lat="37.43270558305084705352783203125" lon="-2.9064458794891834259033203125">
        <ele>1213.4000244140625</ele>
        <time>2019-10-28T13:20:02.000Z</time>
      </trkpt>
      <trkpt lat="37.43256761692464351654052734375" lon="-2.9066115058958530426025390625">
        <ele>1213.199951171875</ele>
        <time>2019-10-28T13:20:09.000Z</time>
      </trkpt>
      <trkpt lat="37.43243652395904064178466796875" lon="-2.90679649449884891510009765625">
        <ele>1213.199951171875</ele>
        <time>2019-10-28T13:20:16.000Z</time>
      </trkpt>
      <trkpt lat="37.43231046013534069061279296875" lon="-2.90696245618164539337158203125">
        <ele>1213</ele>
        <time>2019-10-28T13:20:22.000Z</time>
      </trkpt>
      <trkpt lat="37.4321819655597209930419921875" lon="-2.9071296751499176025390625">
        <ele>1213</ele>
        <time>2019-10-28T13:20:28.000Z</time>
      </trkpt>
      <trkpt lat="37.43205212987959384918212890625" lon="-2.90730200707912445068359375">
        <ele>1213.5999755859375</ele>
        <time>2019-10-28T13:20:34.000Z</time>
      </trkpt>
      <trkpt lat="37.43190879933536052703857421875" lon="-2.907490767538547515869140625">
        <ele>1213.5999755859375</ele>
        <time>2019-10-28T13:20:40.000Z</time>
      </trkpt>
      <trkpt lat="37.43176463060081005096435546875" lon="-2.90766536258161067962646484375">
        <ele>1214.4000244140625</ele>
        <time>2019-10-28T13:20:45.000Z</time>
      </trkpt>
      <trkpt lat="37.43159531615674495697021484375" lon="-2.907836437225341796875">
        <ele>1214.800048828125</ele>
        <time>2019-10-28T13:20:50.000Z</time>
      </trkpt>
      <trkpt lat="37.4314269237220287322998046875" lon="-2.9079826176166534423828125">
        <ele>1215</ele>
        <time>2019-10-28T13:20:55.000Z</time>
      </trkpt>
      <trkpt lat="37.43125450797379016876220703125" lon="-2.90812008082866668701171875">
        <ele>1214.800048828125</ele>
        <time>2019-10-28T13:21:00.000Z</time>
      </trkpt>
      <trkpt lat="37.43107949383556842803955078125" lon="-2.90824287571012973785400390625">
        <ele>1214.199951171875</ele>
        <time>2019-10-28T13:21:05.000Z</time>
      </trkpt>
      <trkpt lat="37.4309012107551097869873046875" lon="-2.90837011300027370452880859375">
        <ele>1213.5999755859375</ele>
        <time>2019-10-28T13:21:10.000Z</time>
      </trkpt>
      <trkpt lat="37.43071789853274822235107421875" lon="-2.9084840230643749237060546875">
        <ele>1213</ele>
        <time>2019-10-28T13:21:15.000Z</time>
      </trkpt>
      <trkpt lat="37.430539615452289581298828125" lon="-2.90859038941562175750732421875">
        <ele>1212.4000244140625</ele>
        <time>2019-10-28T13:21:20.000Z</time>
      </trkpt>
      <trkpt lat="37.43037189356982707977294921875" lon="-2.9086905531585216522216796875">
        <ele>1212</ele>
        <time>2019-10-28T13:21:25.000Z</time>
      </trkpt>
      <trkpt lat="37.4301988072693347930908203125" lon="-2.90879222564399242401123046875">
        <ele>1211</ele>
        <time>2019-10-28T13:21:30.000Z</time>
      </trkpt>
      <trkpt lat="37.43002773262560367584228515625" lon="-2.90889448486268520355224609375">
        <ele>1209.4000244140625</ele>
        <time>2019-10-28T13:21:35.000Z</time>
      </trkpt>
      <trkpt lat="37.42983176372945308685302734375" lon="-2.90903999470174312591552734375">
        <ele>1209.800048828125</ele>
        <time>2019-10-28T13:21:40.000Z</time>
      </trkpt>
      <trkpt lat="37.42965389974415302276611328125" lon="-2.90920377708971500396728515625">
        <ele>1211</ele>
        <time>2019-10-28T13:21:43.000Z</time>
      </trkpt>
      <trkpt lat="37.4295295961201190948486328125" lon="-2.909303605556488037109375">
        <ele>1211.5999755859375</ele>
        <time>2019-10-28T13:21:45.000Z</time>
      </trkpt>
      <trkpt lat="37.42937528528273105621337890625" lon="-2.9094221256673336029052734375">
        <ele>1212.199951171875</ele>
        <time>2019-10-28T13:21:48.000Z</time>
      </trkpt>
      <trkpt lat="37.42926799692213535308837890625" lon="-2.90950502268970012664794921875">
        <ele>1212.800048828125</ele>
        <time>2019-10-28T13:21:51.000Z</time>
      </trkpt>
      <trkpt lat="37.429097257554531097412109375" lon="-2.90964902378618717193603515625">
        <ele>1214</ele>
        <time>2019-10-28T13:21:57.000Z</time>
      </trkpt>
      <trkpt lat="37.42907403968274593353271484375" lon="-2.90967266075313091278076171875">
        <ele>1214.199951171875</ele>
        <time>2019-10-28T13:21:58.000Z</time>
      </trkpt>
      <trkpt lat="37.42894177325069904327392578125" lon="-2.90980794467031955718994140625">
        <ele>1215.199951171875</ele>
        <time>2019-10-28T13:22:04.000Z</time>
      </trkpt>
      <trkpt lat="37.42889969609677791595458984375" lon="-2.90984918363392353057861328125">
        <ele>1215.4000244140625</ele>
        <time>2019-10-28T13:22:06.000Z</time>
      </trkpt>
      <trkpt lat="37.42885728366672992706298828125" lon="-2.90988388471305370330810546875">
        <ele>1215.800048828125</ele>
        <time>2019-10-28T13:22:08.000Z</time>
      </trkpt>
      <trkpt lat="37.42870758287608623504638671875" lon="-2.91005303151905536651611328125">
        <ele>1215.5999755859375</ele>
        <time>2019-10-28T13:22:16.000Z</time>
      </trkpt>
      <trkpt lat="37.42857313714921474456787109375" lon="-2.910233326256275177001953125">
        <ele>1215.5999755859375</ele>
        <time>2019-10-28T13:22:23.000Z</time>
      </trkpt>
      <trkpt lat="37.4284624122083187103271484375" lon="-2.91041680611670017242431640625">
        <ele>1215.5999755859375</ele>
        <time>2019-10-28T13:22:29.000Z</time>
      </trkpt>
      <trkpt lat="37.42835151962935924530029296875" lon="-2.91062928736209869384765625">
        <ele>1216.800048828125</ele>
        <time>2019-10-28T13:22:35.000Z</time>
      </trkpt>
      <trkpt lat="37.4282367713749408721923828125" lon="-2.910848222672939300537109375">
        <ele>1217.199951171875</ele>
        <time>2019-10-28T13:22:40.000Z</time>
      </trkpt>
      <trkpt lat="37.428134344518184661865234375" lon="-2.91104075498878955841064453125">
        <ele>1218.199951171875</ele>
        <time>2019-10-28T13:22:45.000Z</time>
      </trkpt>
      <trkpt lat="37.42802814580500125885009765625" lon="-2.9112346284091472625732421875">
        <ele>1220</ele>
        <time>2019-10-28T13:22:51.000Z</time>
      </trkpt>
      <trkpt lat="37.4278981424868106842041015625" lon="-2.9114280827343463897705078125">
        <ele>1220.800048828125</ele>
        <time>2019-10-28T13:22:58.000Z</time>
      </trkpt>
      <trkpt lat="37.427791021764278411865234375" lon="-2.91162497363984584808349609375">
        <ele>1221.5999755859375</ele>
        <time>2019-10-28T13:23:06.000Z</time>
      </trkpt>
      <trkpt lat="37.4276758544147014617919921875" lon="-2.91183150373399257659912109375">
        <ele>1222.4000244140625</ele>
        <time>2019-10-28T13:23:15.000Z</time>
      </trkpt>
      <trkpt lat="37.42754719220101833343505859375" lon="-2.91202579624950885772705078125">
        <ele>1223.5999755859375</ele>
        <time>2019-10-28T13:23:23.000Z</time>
      </trkpt>
      <trkpt lat="37.4274254031479358673095703125" lon="-2.9122055880725383758544921875">
        <ele>1224.5999755859375</ele>
        <time>2019-10-28T13:23:31.000Z</time>
      </trkpt>
      <trkpt lat="37.42729338817298412322998046875" lon="-2.9123913310468196868896484375">
        <ele>1225.800048828125</ele>
        <time>2019-10-28T13:23:40.000Z</time>
      </trkpt>
      <trkpt lat="37.427158690989017486572265625" lon="-2.91257849894464015960693359375">
        <ele>1226.5999755859375</ele>
        <time>2019-10-28T13:23:49.000Z</time>
      </trkpt>
      <trkpt lat="37.42703556083142757415771484375" lon="-2.912743203341960906982421875">
        <ele>1226.800048828125</ele>
        <time>2019-10-28T13:23:57.000Z</time>
      </trkpt>
      <trkpt lat="37.4269030429422855377197265625" lon="-2.91291645728051662445068359375">
        <ele>1227.199951171875</ele>
        <time>2019-10-28T13:24:05.000Z</time>
      </trkpt>
      <trkpt lat="37.42676608264446258544921875" lon="-2.9130769707262516021728515625">
        <ele>1228.199951171875</ele>
        <time>2019-10-28T13:24:13.000Z</time>
      </trkpt>
      <trkpt lat="37.42662048898637294769287109375" lon="-2.91323647834360599517822265625">
        <ele>1229.199951171875</ele>
        <time>2019-10-28T13:24:21.000Z</time>
      </trkpt>
      <trkpt lat="37.426461987197399139404296875" lon="-2.91339053772389888763427734375">
        <ele>1230.4000244140625</ele>
        <time>2019-10-28T13:24:29.000Z</time>
      </trkpt>
      <trkpt lat="37.4263002164661884307861328125" lon="-2.913546524941921234130859375">
        <ele>1231.199951171875</ele>
        <time>2019-10-28T13:24:37.000Z</time>
      </trkpt>
      <trkpt lat="37.42615110240876674652099609375" lon="-2.9136787913739681243896484375">
        <ele>1231.800048828125</ele>
        <time>2019-10-28T13:24:44.000Z</time>
      </trkpt>
      <trkpt lat="37.4259830452501773834228515625" lon="-2.913820445537567138671875">
        <ele>1232.5999755859375</ele>
        <time>2019-10-28T13:24:52.000Z</time>
      </trkpt>
      <trkpt lat="37.425809539854526519775390625" lon="-2.9139567352831363677978515625">
        <ele>1233.5999755859375</ele>
        <time>2019-10-28T13:25:00.000Z</time>
      </trkpt>
      <trkpt lat="37.42564097978174686431884765625" lon="-2.9140928573906421661376953125">
        <ele>1234.4000244140625</ele>
        <time>2019-10-28T13:25:08.000Z</time>
      </trkpt>
      <trkpt lat="37.42547837086021900177001953125" lon="-2.914230488240718841552734375">
        <ele>1234.800048828125</ele>
        <time>2019-10-28T13:25:16.000Z</time>
      </trkpt>
      <trkpt lat="37.42531039752066135406494140625" lon="-2.914363257586956024169921875">
        <ele>1234.800048828125</ele>
        <time>2019-10-28T13:25:24.000Z</time>
      </trkpt>
      <trkpt lat="37.4251480400562286376953125" lon="-2.91449963115155696868896484375">
        <ele>1233.4000244140625</ele>
        <time>2019-10-28T13:25:31.000Z</time>
      </trkpt>
      <trkpt lat="37.42497797124087810516357421875" lon="-2.91465620510280132293701171875">
        <ele>1232</ele>
        <time>2019-10-28T13:25:38.000Z</time>
      </trkpt>
      <trkpt lat="37.42481737397611141204833984375" lon="-2.9148130305111408233642578125">
        <ele>1232.5999755859375</ele>
        <time>2019-10-28T13:25:44.000Z</time>
      </trkpt>
      <trkpt lat="37.424661219120025634765625" lon="-2.9149401001632213592529296875">
        <ele>1232.5999755859375</ele>
        <time>2019-10-28T13:25:50.000Z</time>
      </trkpt>
      <trkpt lat="37.42449936456978321075439453125" lon="-2.91508099995553493499755859375">
        <ele>1232.199951171875</ele>
        <time>2019-10-28T13:25:57.000Z</time>
      </trkpt>
      <trkpt lat="37.42434932850301265716552734375" lon="-2.9152341373264789581298828125">
        <ele>1231.800048828125</ele>
        <time>2019-10-28T13:26:04.000Z</time>
      </trkpt>
      <trkpt lat="37.424207590520381927490234375" lon="-2.915376126766204833984375">
        <ele>1231.199951171875</ele>
        <time>2019-10-28T13:26:11.000Z</time>
      </trkpt>
      <trkpt lat="37.42406602017581462860107421875" lon="-2.91552037931978702545166015625">
        <ele>1232</ele>
        <time>2019-10-28T13:26:18.000Z</time>
      </trkpt>
      <trkpt lat="37.42391162551939487457275390625" lon="-2.9156743548810482025146484375">
        <ele>1233.5999755859375</ele>
        <time>2019-10-28T13:26:26.000Z</time>
      </trkpt>
      <trkpt lat="37.423763684928417205810546875" lon="-2.91581936180591583251953125">
        <ele>1235.5999755859375</ele>
        <time>2019-10-28T13:26:33.000Z</time>
      </trkpt>
      <trkpt lat="37.42360702715814113616943359375" lon="-2.91597367264330387115478515625">
        <ele>1237.5999755859375</ele>
        <time>2019-10-28T13:26:41.000Z</time>
      </trkpt>
      <trkpt lat="37.4234570749104022979736328125" lon="-2.91612219996750354766845703125">
        <ele>1237.5999755859375</ele>
        <time>2019-10-28T13:26:49.000Z</time>
      </trkpt>
      <trkpt lat="37.42330024950206279754638671875" lon="-2.916276343166828155517578125">
        <ele>1237.800048828125</ele>
        <time>2019-10-28T13:26:57.000Z</time>
      </trkpt>
      <trkpt lat="37.4231606908142566680908203125" lon="-2.91643618606030941009521484375">
        <ele>1238.5999755859375</ele>
        <time>2019-10-28T13:27:04.000Z</time>
      </trkpt>
      <trkpt lat="37.42301710881292819976806640625" lon="-2.91659653186798095703125">
        <ele>1240.199951171875</ele>
        <time>2019-10-28T13:27:11.000Z</time>
      </trkpt>
      <trkpt lat="37.422881908714771270751953125" lon="-2.91674883104860782623291015625">
        <ele>1242.199951171875</ele>
        <time>2019-10-28T13:27:18.000Z</time>
      </trkpt>
      <trkpt lat="37.4227449484169483184814453125" lon="-2.91689702309668064117431640625">
        <ele>1243.5999755859375</ele>
        <time>2019-10-28T13:27:25.000Z</time>
      </trkpt>
      <trkpt lat="37.422647885978221893310546875" lon="-2.9170064069330692291259765625">
        <ele>1244</ele>
        <time>2019-10-28T13:27:30.000Z</time>
      </trkpt>
      <trkpt lat="37.422503717243671417236328125" lon="-2.91715350933372974395751953125">
        <ele>1243.800048828125</ele>
        <time>2019-10-28T13:27:37.000Z</time>
      </trkpt>
      <trkpt lat="37.4223375879228115081787109375" lon="-2.91729482822120189666748046875">
        <ele>1243.4000244140625</ele>
        <time>2019-10-28T13:27:45.000Z</time>
      </trkpt>
      <trkpt lat="37.42215695790946483612060546875" lon="-2.91741125285625457763671875">
        <ele>1243.800048828125</ele>
        <time>2019-10-28T13:27:52.000Z</time>
      </trkpt>
      <trkpt lat="37.42199166677892208099365234375" lon="-2.9175079800188541412353515625">
        <ele>1245</ele>
        <time>2019-10-28T13:27:59.000Z</time>
      </trkpt>
      <trkpt lat="37.42183878086507320404052734375" lon="-2.91762809269130229949951171875">
        <ele>1246</ele>
        <time>2019-10-28T13:28:07.000Z</time>
      </trkpt>
      <trkpt lat="37.42171414196491241455078125" lon="-2.91779338382184505462646484375">
        <ele>1246</ele>
        <time>2019-10-28T13:28:14.000Z</time>
      </trkpt>
      <trkpt lat="37.421557903289794921875" lon="-2.91789681650698184967041015625">
        <ele>1246.5999755859375</ele>
        <time>2019-10-28T13:28:22.000Z</time>
      </trkpt>
      <trkpt lat="37.4213813804090023040771484375" lon="-2.9178331978619098663330078125">
        <ele>1248.4000244140625</ele>
        <time>2019-10-28T13:28:30.000Z</time>
      </trkpt>
      <trkpt lat="37.4212040193378925323486328125" lon="-2.91778416372835636138916015625">
        <ele>1248.199951171875</ele>
        <time>2019-10-28T13:28:38.000Z</time>
      </trkpt>
      <trkpt lat="37.42102087475359439849853515625" lon="-2.917868904769420623779296875">
        <ele>1247.199951171875</ele>
        <time>2019-10-28T13:28:47.000Z</time>
      </trkpt>
      <trkpt lat="37.42084803991019725799560546875" lon="-2.917931936681270599365234375">
        <ele>1247</ele>
        <time>2019-10-28T13:28:55.000Z</time>
      </trkpt>
      <trkpt lat="37.42067344486713409423828125" lon="-2.91788223199546337127685546875">
        <ele>1248</ele>
        <time>2019-10-28T13:29:03.000Z</time>
      </trkpt>
      <trkpt lat="37.4205244146287441253662109375" lon="-2.91775298304855823516845703125">
        <ele>1249</ele>
        <time>2019-10-28T13:29:11.000Z</time>
      </trkpt>
      <trkpt lat="37.42035090923309326171875" lon="-2.91762943379580974578857421875">
        <ele>1250.4000244140625</ele>
        <time>2019-10-28T13:29:20.000Z</time>
      </trkpt>
      <trkpt lat="37.42016508243978023529052734375" lon="-2.9175822436809539794921875">
        <ele>1252</ele>
        <time>2019-10-28T13:29:30.000Z</time>
      </trkpt>
      <trkpt lat="37.4199883081018924713134765625" lon="-2.91762582957744598388671875">
        <ele>1253.800048828125</ele>
        <time>2019-10-28T13:29:38.000Z</time>
      </trkpt>
      <trkpt lat="37.41980097256600856781005859375" lon="-2.91767318733036518096923828125">
        <ele>1255</ele>
        <time>2019-10-28T13:29:45.000Z</time>
      </trkpt>
      <trkpt lat="37.41959519684314727783203125" lon="-2.9177118279039859771728515625">
        <ele>1255.5999755859375</ele>
        <time>2019-10-28T13:29:51.000Z</time>
      </trkpt>
      <trkpt lat="37.41939478553831577301025390625" lon="-2.9177592694759368896484375">
        <ele>1255.4000244140625</ele>
        <time>2019-10-28T13:29:56.000Z</time>
      </trkpt>
      <trkpt lat="37.4192000739276409149169921875" lon="-2.917809896171092987060546875">
        <ele>1254.4000244140625</ele>
        <time>2019-10-28T13:30:01.000Z</time>
      </trkpt>
      <trkpt lat="37.41901542060077190399169921875" lon="-2.91786680929362773895263671875">
        <ele>1254</ele>
        <time>2019-10-28T13:30:06.000Z</time>
      </trkpt>
      <trkpt lat="37.41880335845053195953369140625" lon="-2.917930595576763153076171875">
        <ele>1254.4000244140625</ele>
        <time>2019-10-28T13:30:12.000Z</time>
      </trkpt>
      <trkpt lat="37.41861426271498203277587890625" lon="-2.917990945279598236083984375">
        <ele>1255.4000244140625</ele>
        <time>2019-10-28T13:30:17.000Z</time>
      </trkpt>
      <trkpt lat="37.41841108538210391998291015625" lon="-2.9180548153817653656005859375">
        <ele>1256.5999755859375</ele>
        <time>2019-10-28T13:30:22.000Z</time>
      </trkpt>
      <trkpt lat="37.41823506541550159454345703125" lon="-2.91811776347458362579345703125">
        <ele>1257.4000244140625</ele>
        <time>2019-10-28T13:30:26.000Z</time>
      </trkpt>
      <trkpt lat="37.41805988363921642303466796875" lon="-2.91817140765488147735595703125">
        <ele>1258</ele>
        <time>2019-10-28T13:30:30.000Z</time>
      </trkpt>
      <trkpt lat="37.417859472334384918212890625" lon="-2.9182355292141437530517578125">
        <ele>1257.5999755859375</ele>
        <time>2019-10-28T13:30:35.000Z</time>
      </trkpt>
      <trkpt lat="37.4176759086549282073974609375" lon="-2.91828674264252185821533203125">
        <ele>1257.4000244140625</ele>
        <time>2019-10-28T13:30:40.000Z</time>
      </trkpt>
      <trkpt lat="37.4174784310162067413330078125" lon="-2.9183337651193141937255859375">
        <ele>1257.800048828125</ele>
        <time>2019-10-28T13:30:46.000Z</time>
      </trkpt>
      <trkpt lat="37.41730056703090667724609375" lon="-2.91838699020445346832275390625">
        <ele>1258</ele>
        <time>2019-10-28T13:30:52.000Z</time>
      </trkpt>
      <trkpt lat="37.41711147129535675048828125" lon="-2.9184387065470218658447265625">
        <ele>1258.4000244140625</ele>
        <time>2019-10-28T13:30:58.000Z</time>
      </trkpt>
      <trkpt lat="37.416921369731426239013671875" lon="-2.9185027442872524261474609375">
        <ele>1258.800048828125</ele>
        <time>2019-10-28T13:31:04.000Z</time>
      </trkpt>
      <trkpt lat="37.41672095842659473419189453125" lon="-2.91856351308524608612060546875">
        <ele>1259</ele>
        <time>2019-10-28T13:31:10.000Z</time>
      </trkpt>
      <trkpt lat="37.4165282584726810455322265625" lon="-2.91862369515001773834228515625">
        <ele>1259.5999755859375</ele>
        <time>2019-10-28T13:31:16.000Z</time>
      </trkpt>
      <trkpt lat="37.4163394980132579803466796875" lon="-2.91868664324283599853515625">
        <ele>1260.4000244140625</ele>
        <time>2019-10-28T13:31:22.000Z</time>
      </trkpt>
      <trkpt lat="37.41615526378154754638671875" lon="-2.9187578894197940826416015625">
        <ele>1261.4000244140625</ele>
        <time>2019-10-28T13:31:28.000Z</time>
      </trkpt>
      <trkpt lat="37.41596960462629795074462890625" lon="-2.91881413199007511138916015625">
        <ele>1261.800048828125</ele>
        <time>2019-10-28T13:31:34.000Z</time>
      </trkpt>
      <trkpt lat="37.4157844483852386474609375" lon="-2.9188950173556804656982421875">
        <ele>1261.800048828125</ele>
        <time>2019-10-28T13:31:40.000Z</time>
      </trkpt>
      <trkpt lat="37.415595352649688720703125" lon="-2.9189694486558437347412109375">
        <ele>1262</ele>
        <time>2019-10-28T13:31:46.000Z</time>
      </trkpt>
      <trkpt lat="37.4154158122837543487548828125" lon="-2.91905435733497142791748046875">
        <ele>1263.199951171875</ele>
        <time>2019-10-28T13:31:52.000Z</time>
      </trkpt>
      <trkpt lat="37.41523392498493194580078125" lon="-2.91915745474398136138916015625">
        <ele>1265.199951171875</ele>
        <time>2019-10-28T13:31:58.000Z</time>
      </trkpt>
      <trkpt lat="37.4150522053241729736328125" lon="-2.919205315411090850830078125">
        <ele>1266.4000244140625</ele>
        <time>2019-10-28T13:32:04.000Z</time>
      </trkpt>
      <trkpt lat="37.41484391503036022186279296875" lon="-2.9192215763032436370849609375">
        <ele>1267.4000244140625</ele>
        <time>2019-10-28T13:32:11.000Z</time>
      </trkpt>
      <trkpt lat="37.41466403938829898834228515625" lon="-2.919244877994060516357421875">
        <ele>1268.199951171875</ele>
        <time>2019-10-28T13:32:19.000Z</time>
      </trkpt>
      <trkpt lat="37.4145923741161823272705078125" lon="-2.91913457214832305908203125">
        <ele>1268.5999755859375</ele>
        <time>2019-10-28T13:32:26.000Z</time>
      </trkpt>
      <trkpt lat="37.4144901148974895477294921875" lon="-2.91918545030057430267333984375">
        <ele>1268.4000244140625</ele>
        <time>2019-10-28T13:33:09.000Z</time>
      </trkpt>
      <trkpt lat="37.41450126282870769500732421875" lon="-2.9192212410271167755126953125">
        <ele>1268.199951171875</ele>
        <time>2019-10-28T13:34:02.000Z</time>
      </trkpt>
      <trkpt lat="37.41446547210216522216796875" lon="-2.91916684247553348541259765625">
        <ele>1268.5999755859375</ele>
        <time>2019-10-28T13:35:04.000Z</time>
      </trkpt>
      <trkpt lat="37.41452657617628574371337890625" lon="-2.9192162118852138519287109375">
        <ele>1268.199951171875</ele>
        <time>2019-10-28T13:36:24.000Z</time>
      </trkpt>
      <trkpt lat="37.4145886860787868499755859375" lon="-2.91933112777769565582275390625">
        <ele>1267.800048828125</ele>
        <time>2019-10-28T13:37:24.000Z</time>
      </trkpt>
      <trkpt lat="37.41451567970216274261474609375" lon="-2.9193659126758575439453125">
        <ele>1267.800048828125</ele>
        <time>2019-10-28T13:38:22.000Z</time>
      </trkpt>
      <trkpt lat="37.41461190395057201385498046875" lon="-2.9193848557770252227783203125">
        <ele>1267.5999755859375</ele>
        <time>2019-10-28T13:39:12.000Z</time>
      </trkpt>
      <trkpt lat="37.414575777947902679443359375" lon="-2.9194217361509799957275390625">
        <ele>1267.5999755859375</ele>
        <time>2019-10-28T13:40:10.000Z</time>
      </trkpt>
      <trkpt lat="37.41441425867378711700439453125" lon="-2.9191582091152667999267578125">
        <ele>1268.800048828125</ele>
        <time>2019-10-28T14:29:42.000Z</time>
      </trkpt>
      <trkpt lat="37.41458474658429622650146484375" lon="-2.91912191547453403472900390625">
        <ele>1268.5999755859375</ele>
        <time>2019-10-28T14:29:49.000Z</time>
      </trkpt>
      <trkpt lat="37.41470494307577610015869140625" lon="-2.91924680583178997039794921875">
        <ele>1268</ele>
        <time>2019-10-28T14:29:57.000Z</time>
      </trkpt>
      <trkpt lat="37.41471382789313793182373046875" lon="-2.9193551838397979736328125">
        <ele>1267.5999755859375</ele>
        <time>2019-10-28T14:30:01.000Z</time>
      </trkpt>
      <trkpt lat="37.414728663861751556396484375" lon="-2.91937739588320255279541015625">
        <ele>1267.5999755859375</ele>
        <time>2019-10-28T14:30:02.000Z</time>
      </trkpt>
      <trkpt lat="37.41474769078195095062255859375" lon="-2.91949977166950702667236328125">
        <ele>1267</ele>
        <time>2019-10-28T14:30:06.000Z</time>
      </trkpt>
      <trkpt lat="37.414793036878108978271484375" lon="-2.919724993407726287841796875">
        <ele>1265.4000244140625</ele>
        <time>2019-10-28T14:30:13.000Z</time>
      </trkpt>
      <trkpt lat="37.414772920310497283935546875" lon="-2.9199695773422718048095703125">
        <ele>1263.800048828125</ele>
        <time>2019-10-28T14:30:20.000Z</time>
      </trkpt>
      <trkpt lat="37.41473176516592502593994140625" lon="-2.9202253930270671844482421875">
        <ele>1261.800048828125</ele>
        <time>2019-10-28T14:30:27.000Z</time>
      </trkpt>
      <trkpt lat="37.4145559966564178466796875" lon="-2.9202411510050296783447265625">
        <ele>1261.5999755859375</ele>
        <time>2019-10-28T14:30:32.000Z</time>
      </trkpt>
      <trkpt lat="37.41439380683004856109619140625" lon="-2.92013461701571941375732421875">
        <ele>1262.800048828125</ele>
        <time>2019-10-28T14:30:37.000Z</time>
      </trkpt>
      <trkpt lat="37.414253242313861846923828125" lon="-2.9199720919132232666015625">
        <ele>1263.4000244140625</ele>
        <time>2019-10-28T14:30:42.000Z</time>
      </trkpt>
      <trkpt lat="37.41411251015961170196533203125" lon="-2.919824235141277313232421875">
        <ele>1263.5999755859375</ele>
        <time>2019-10-28T14:30:46.000Z</time>
      </trkpt>
      <trkpt lat="37.41395576857030391693115234375" lon="-2.91965785436332225799560546875">
        <ele>1263</ele>
        <time>2019-10-28T14:30:50.000Z</time>
      </trkpt>
      <trkpt lat="37.41379450075328350067138671875" lon="-2.91949507780373096466064453125">
        <ele>1262.800048828125</ele>
        <time>2019-10-28T14:30:54.000Z</time>
      </trkpt>
      <trkpt lat="37.4136381782591342926025390625" lon="-2.91940002702176570892333984375">
        <ele>1262.199951171875</ele>
        <time>2019-10-28T14:30:58.000Z</time>
      </trkpt>
      <trkpt lat="37.413420416414737701416015625" lon="-2.919380329549312591552734375">
        <ele>1261.800048828125</ele>
        <time>2019-10-28T14:31:03.000Z</time>
      </trkpt>
      <trkpt lat="37.41328102536499500274658203125" lon="-2.91940958239138126373291015625">
        <ele>1261.4000244140625</ele>
        <time>2019-10-28T14:31:07.000Z</time>
      </trkpt>
      <trkpt lat="37.4131972901523113250732421875" lon="-2.919439338147640228271484375">
        <ele>1262.4000244140625</ele>
        <time>2019-10-28T14:31:11.000Z</time>
      </trkpt>
      <trkpt lat="37.413014061748981475830078125" lon="-2.91950982995331287384033203125">
        <ele>1264.5999755859375</ele>
        <time>2019-10-28T14:31:21.000Z</time>
      </trkpt>
      <trkpt lat="37.41283678449690341949462890625" lon="-2.9195990972220897674560546875">
        <ele>1265.800048828125</ele>
        <time>2019-10-28T14:31:31.000Z</time>
      </trkpt>
      <trkpt lat="37.4126497842371463775634765625" lon="-2.91961845941841602325439453125">
        <ele>1266.5999755859375</ele>
        <time>2019-10-28T14:31:41.000Z</time>
      </trkpt>
      <trkpt lat="37.4124653823673725128173828125" lon="-2.9195960797369480133056640625">
        <ele>1266</ele>
        <time>2019-10-28T14:31:51.000Z</time>
      </trkpt>
      <trkpt lat="37.412290535867214202880859375" lon="-2.9195001907646656036376953125">
        <ele>1266.199951171875</ele>
        <time>2019-10-28T14:32:00.000Z</time>
      </trkpt>
      <trkpt lat="37.412272430956363677978515625" lon="-2.919486947357654571533203125">
        <ele>1266.199951171875</ele>
        <time>2019-10-28T14:32:01.000Z</time>
      </trkpt>
      <trkpt lat="37.4121894501149654388427734375" lon="-2.91944746859371662139892578125">
        <ele>1266.4000244140625</ele>
        <time>2019-10-28T14:32:05.000Z</time>
      </trkpt>
      <trkpt lat="37.4120087362825870513916015625" lon="-2.91935090906918048858642578125">
        <ele>1267.4000244140625</ele>
        <time>2019-10-28T14:32:13.000Z</time>
      </trkpt>
      <trkpt lat="37.4118255078792572021484375" lon="-2.91926943697035312652587890625">
        <ele>1267.4000244140625</ele>
        <time>2019-10-28T14:32:19.000Z</time>
      </trkpt>
      <trkpt lat="37.41161906160414218902587890625" lon="-2.919212691485881805419921875">
        <ele>1266.4000244140625</ele>
        <time>2019-10-28T14:32:24.000Z</time>
      </trkpt>
      <trkpt lat="37.4114364199340343475341796875" lon="-2.9191515035927295684814453125">
        <ele>1265.4000244140625</ele>
        <time>2019-10-28T14:32:28.000Z</time>
      </trkpt>
      <trkpt lat="37.41122511215507984161376953125" lon="-2.91910246945917606353759765625">
        <ele>1264.4000244140625</ele>
        <time>2019-10-28T14:32:32.000Z</time>
      </trkpt>
      <trkpt lat="37.41102545522153377532958984375" lon="-2.9190961830317974090576171875">
        <ele>1263.800048828125</ele>
        <time>2019-10-28T14:32:35.000Z</time>
      </trkpt>
      <trkpt lat="37.41080266423523426055908203125" lon="-2.91909827850759029388427734375">
        <ele>1263</ele>
        <time>2019-10-28T14:32:38.000Z</time>
      </trkpt>
      <trkpt lat="37.41060099564492702484130859375" lon="-2.919120155274868011474609375">
        <ele>1261.199951171875</ele>
        <time>2019-10-28T14:32:41.000Z</time>
      </trkpt>
      <trkpt lat="37.410370744764804840087890625" lon="-2.91917606256902217864990234375">
        <ele>1259</ele>
        <time>2019-10-28T14:32:45.000Z</time>
      </trkpt>
      <trkpt lat="37.41030913777649402618408203125" lon="-2.91918746195733547210693359375">
        <ele>1258.199951171875</ele>
        <time>2019-10-28T14:32:46.000Z</time>
      </trkpt>
      <trkpt lat="37.4101305194199085235595703125" lon="-2.9191478155553340911865234375">
        <ele>1258</ele>
        <time>2019-10-28T14:32:49.000Z</time>
      </trkpt>
      <trkpt lat="37.41002901457250118255615234375" lon="-2.91907799430191516876220703125">
        <ele>1258.5999755859375</ele>
        <time>2019-10-28T14:32:51.000Z</time>
      </trkpt>
      <trkpt lat="37.40985584445297718048095703125" lon="-2.9189474880695343017578125">
        <ele>1260.199951171875</ele>
        <time>2019-10-28T14:32:55.000Z</time>
      </trkpt>
      <trkpt lat="37.4096904695034027099609375" lon="-2.91882150806486606597900390625">
        <ele>1261.800048828125</ele>
        <time>2019-10-28T14:33:00.000Z</time>
      </trkpt>
      <trkpt lat="37.4095699377357959747314453125" lon="-2.91868287138640880584716796875">
        <ele>1263.199951171875</ele>
        <time>2019-10-28T14:33:08.000Z</time>
      </trkpt>
      <trkpt lat="37.409563399851322174072265625" lon="-2.918667532503604888916015625">
        <ele>1263.4000244140625</ele>
        <time>2019-10-28T14:33:09.000Z</time>
      </trkpt>
      <trkpt lat="37.40952459163963794708251953125" lon="-2.91860123164951801300048828125">
        <ele>1264</ele>
        <time>2019-10-28T14:33:13.000Z</time>
      </trkpt>
      <trkpt lat="37.4093439616262912750244140625" lon="-2.91856200434267520904541015625">
        <ele>1264.5999755859375</ele>
        <time>2019-10-28T14:33:23.000Z</time>
      </trkpt>
      <trkpt lat="37.40914992056787014007568359375" lon="-2.91857759468257427215576171875">
        <ele>1264.5999755859375</ele>
        <time>2019-10-28T14:33:36.000Z</time>
      </trkpt>
      <trkpt lat="37.4089590646326541900634765625" lon="-2.91853912174701690673828125">
        <ele>1264.4000244140625</ele>
        <time>2019-10-28T14:33:46.000Z</time>
      </trkpt>
      <trkpt lat="37.40879553370177745819091796875" lon="-2.91864951141178607940673828125">
        <ele>1263.800048828125</ele>
        <time>2019-10-28T14:33:54.000Z</time>
      </trkpt>
      <trkpt lat="37.40863703191280364990234375" lon="-2.9187951050698757171630859375">
        <ele>1263.199951171875</ele>
        <time>2019-10-28T14:34:00.000Z</time>
      </trkpt>
      <trkpt lat="37.40847081877291202545166015625" lon="-2.91896198876202106475830078125">
        <ele>1263</ele>
        <time>2019-10-28T14:34:06.000Z</time>
      </trkpt>
      <trkpt lat="37.40832413546741008758544921875" lon="-2.91912996210157871246337890625">
        <ele>1263</ele>
        <time>2019-10-28T14:34:11.000Z</time>
      </trkpt>
      <trkpt lat="37.4081959761679172515869140625" lon="-2.91931704618036746978759765625">
        <ele>1263.199951171875</ele>
        <time>2019-10-28T14:34:16.000Z</time>
      </trkpt>
      <trkpt lat="37.40805155597627162933349609375" lon="-2.9195028729736804962158203125">
        <ele>1262.4000244140625</ele>
        <time>2019-10-28T14:34:21.000Z</time>
      </trkpt>
      <trkpt lat="37.4078610353171825408935546875" lon="-2.9196094907820224761962890625">
        <ele>1262</ele>
        <time>2019-10-28T14:34:26.000Z</time>
      </trkpt>
      <trkpt lat="37.4076640605926513671875" lon="-2.91957177221775054931640625">
        <ele>1262.5999755859375</ele>
        <time>2019-10-28T14:34:31.000Z</time>
      </trkpt>
      <trkpt lat="37.407482676208019256591796875" lon="-2.91950999759137630462646484375">
        <ele>1262.5999755859375</ele>
        <time>2019-10-28T14:34:37.000Z</time>
      </trkpt>
      <trkpt lat="37.40726684220135211944580078125" lon="-2.91948384605348110198974609375">
        <ele>1262</ele>
        <time>2019-10-28T14:34:43.000Z</time>
      </trkpt>
      <trkpt lat="37.407044470310211181640625" lon="-2.91944428347051143646240234375">
        <ele>1262.199951171875</ele>
        <time>2019-10-28T14:34:48.000Z</time>
      </trkpt>
      <trkpt lat="37.4068334139883518218994140625" lon="-2.9194163717329502105712890625">
        <ele>1262.5999755859375</ele>
        <time>2019-10-28T14:34:52.000Z</time>
      </trkpt>
      <trkpt lat="37.40659394301474094390869140625" lon="-2.91938711889088153839111328125">
        <ele>1262.199951171875</ele>
        <time>2019-10-28T14:34:56.000Z</time>
      </trkpt>
      <trkpt lat="37.406412474811077117919921875" lon="-2.9193821735680103302001953125">
        <ele>1262.800048828125</ele>
        <time>2019-10-28T14:34:59.000Z</time>
      </trkpt>
      <trkpt lat="37.4061920307576656341552734375" lon="-2.91934889741241931915283203125">
        <ele>1263</ele>
        <time>2019-10-28T14:35:03.000Z</time>
      </trkpt>
      <trkpt lat="37.406142242252826690673828125" lon="-2.91934504173696041107177734375">
        <ele>1263.199951171875</ele>
        <time>2019-10-28T14:35:04.000Z</time>
      </trkpt>
      <trkpt lat="37.4059382267296314239501953125" lon="-2.91933498345315456390380859375">
        <ele>1261.5999755859375</ele>
        <time>2019-10-28T14:35:09.000Z</time>
      </trkpt>
      <trkpt lat="37.4057296849787235260009765625" lon="-2.91932408697903156280517578125">
        <ele>1260</ele>
        <time>2019-10-28T14:35:15.000Z</time>
      </trkpt>
      <trkpt lat="37.40565768443048000335693359375" lon="-2.9193110950291156768798828125">
        <ele>1259.5999755859375</ele>
        <time>2019-10-28T14:35:17.000Z</time>
      </trkpt>
      <trkpt lat="37.40546171553432941436767578125" lon="-2.91928972117602825164794921875">
        <ele>1259.4000244140625</ele>
        <time>2019-10-28T14:35:23.000Z</time>
      </trkpt>
      <trkpt lat="37.4053883738815784454345703125" lon="-2.91931335814297199249267578125">
        <ele>1259.4000244140625</ele>
        <time>2019-10-28T14:35:26.000Z</time>
      </trkpt>
      <trkpt lat="37.4053692631423473358154296875" lon="-2.91932509280741214752197265625">
        <ele>1259.4000244140625</ele>
        <time>2019-10-28T14:35:27.000Z</time>
      </trkpt>
      <trkpt lat="37.405317127704620361328125" lon="-2.9194046370685100555419921875">
        <ele>1258.4000244140625</ele>
        <time>2019-10-28T14:35:31.000Z</time>
      </trkpt>
      <trkpt lat="37.40525208413600921630859375" lon="-2.91962482966482639312744140625">
        <ele>1255.800048828125</ele>
        <time>2019-10-28T14:35:40.000Z</time>
      </trkpt>
      <trkpt lat="37.40524378605186939239501953125" lon="-2.91977151297032833099365234375">
        <ele>1255.199951171875</ele>
        <time>2019-10-28T14:35:49.000Z</time>
      </trkpt>
      <trkpt lat="37.4052629806101322174072265625" lon="-2.9198019392788410186767578125">
        <ele>1255.199951171875</ele>
        <time>2019-10-28T14:36:48.000Z</time>
      </trkpt>
      <trkpt lat="37.4052331410348415374755859375" lon="-2.9198911227285861968994140625">
        <ele>1255</ele>
        <time>2019-10-28T14:38:34.000Z</time>
      </trkpt>
      <trkpt lat="37.40518963895738124847412109375" lon="-2.92013637721538543701171875">
        <ele>1254.800048828125</ele>
        <time>2019-10-28T14:38:51.000Z</time>
      </trkpt>
      <trkpt lat="37.40518343634903430938720703125" lon="-2.9203685559332370758056640625">
        <ele>1256.800048828125</ele>
        <time>2019-10-28T14:38:57.000Z</time>
      </trkpt>
      <trkpt lat="37.405274212360382080078125" lon="-2.92058455757796764373779296875">
        <ele>1257.800048828125</ele>
        <time>2019-10-28T14:39:05.000Z</time>
      </trkpt>
      <trkpt lat="37.40542047657072544097900390625" lon="-2.92071598581969738006591796875">
        <ele>1257.4000244140625</ele>
        <time>2019-10-28T14:39:13.000Z</time>
      </trkpt>
      <trkpt lat="37.405526340007781982421875" lon="-2.92090357281267642974853515625">
        <ele>1258.4000244140625</ele>
        <time>2019-10-28T14:39:21.000Z</time>
      </trkpt>
      <trkpt lat="37.40558610297739505767822265625" lon="-2.9211308062076568603515625">
        <ele>1261</ele>
        <time>2019-10-28T14:39:29.000Z</time>
      </trkpt>
      <trkpt lat="37.405620552599430084228515625" lon="-2.9213529266417026519775390625">
        <ele>1264.199951171875</ele>
        <time>2019-10-28T14:39:38.000Z</time>
      </trkpt>
      <trkpt lat="37.4056403338909149169921875" lon="-2.92153338901698589324951171875">
        <ele>1265.800048828125</ele>
        <time>2019-10-28T14:39:49.000Z</time>
      </trkpt>
      <trkpt lat="37.4056361429393291473388671875" lon="-2.92156733572483062744140625">
        <ele>1265.800048828125</ele>
        <time>2019-10-28T14:39:51.000Z</time>
      </trkpt>
      <trkpt lat="37.40567428059875965118408203125" lon="-2.92172818444669246673583984375">
        <ele>1265.800048828125</ele>
        <time>2019-10-28T14:40:00.000Z</time>
      </trkpt>
      <trkpt lat="37.40556724369525909423828125" lon="-2.9217029549181461334228515625">
        <ele>1266.5999755859375</ele>
        <time>2019-10-28T14:40:31.000Z</time>
      </trkpt>
      <trkpt lat="37.4055097438395023345947265625" lon="-2.92185433208942413330078125">
        <ele>1267.800048828125</ele>
        <time>2019-10-28T14:40:38.000Z</time>
      </trkpt>
      <trkpt lat="37.4055080674588680267333984375" lon="-2.922088019549846649169921875">
        <ele>1269.4000244140625</ele>
        <time>2019-10-28T14:40:48.000Z</time>
      </trkpt>
      <trkpt lat="37.4055151082575321197509765625" lon="-2.9223419912159442901611328125">
        <ele>1271.199951171875</ele>
        <time>2019-10-28T14:40:58.000Z</time>
      </trkpt>
      <trkpt lat="37.40552592091262340545654296875" lon="-2.9225961305201053619384765625">
        <ele>1272</ele>
        <time>2019-10-28T14:41:06.000Z</time>
      </trkpt>
      <trkpt lat="37.4054715223610401153564453125" lon="-2.92283727787435054779052734375">
        <ele>1272.5999755859375</ele>
        <time>2019-10-28T14:41:12.000Z</time>
      </trkpt>
      <trkpt lat="37.40537974052131175994873046875" lon="-2.92306023649871349334716796875">
        <ele>1273</ele>
        <time>2019-10-28T14:41:17.000Z</time>
      </trkpt>
      <trkpt lat="37.405275218188762664794921875" lon="-2.923271544277667999267578125">
        <ele>1273.4000244140625</ele>
        <time>2019-10-28T14:41:22.000Z</time>
      </trkpt>
      <trkpt lat="37.4051526747643947601318359375" lon="-2.9234535992145538330078125">
        <ele>1273.4000244140625</ele>
        <time>2019-10-28T14:41:28.000Z</time>
      </trkpt>
      <trkpt lat="37.40497757680714130401611328125" lon="-2.92352727614343166351318359375">
        <ele>1274</ele>
        <time>2019-10-28T14:41:34.000Z</time>
      </trkpt>
      <trkpt lat="37.40479518659412860870361328125" lon="-2.9234199039638042449951171875">
        <ele>1274.199951171875</ele>
        <time>2019-10-28T14:41:40.000Z</time>
      </trkpt>
      <trkpt lat="37.40462386049330234527587890625" lon="-2.9233082570135593414306640625">
        <ele>1275</ele>
        <time>2019-10-28T14:41:46.000Z</time>
      </trkpt>
      <trkpt lat="37.4044762551784515380859375" lon="-2.9231744818389415740966796875">
        <ele>1275.800048828125</ele>
        <time>2019-10-28T14:41:52.000Z</time>
      </trkpt>
      <trkpt lat="37.40431155078113079071044921875" lon="-2.92305537499487400054931640625">
        <ele>1276.800048828125</ele>
        <time>2019-10-28T14:41:58.000Z</time>
      </trkpt>
      <trkpt lat="37.4041391350328922271728515625" lon="-2.92308940552175045013427734375">
        <ele>1277</ele>
        <time>2019-10-28T14:42:04.000Z</time>
      </trkpt>
      <trkpt lat="37.40400619804859161376953125" lon="-2.92327724397182464599609375">
        <ele>1277</ele>
        <time>2019-10-28T14:42:09.000Z</time>
      </trkpt>
      <trkpt lat="37.40395129658281803131103515625" lon="-2.92335502803325653076171875">
        <ele>1277</ele>
        <time>2019-10-28T14:42:11.000Z</time>
      </trkpt>
      <trkpt lat="37.40381366573274135589599609375" lon="-2.9235493205487728118896484375">
        <ele>1276.5999755859375</ele>
        <time>2019-10-28T14:42:16.000Z</time>
      </trkpt>
      <trkpt lat="37.4036801420152187347412109375" lon="-2.92374704964458942413330078125">
        <ele>1276</ele>
        <time>2019-10-28T14:42:21.000Z</time>
      </trkpt>
      <trkpt lat="37.40354645065963268280029296875" lon="-2.92395374737679958343505859375">
        <ele>1275.800048828125</ele>
        <time>2019-10-28T14:42:26.000Z</time>
      </trkpt>
      <trkpt lat="37.40340496413409709930419921875" lon="-2.9241643846035003662109375">
        <ele>1275.4000244140625</ele>
        <time>2019-10-28T14:42:31.000Z</time>
      </trkpt>
      <trkpt lat="37.40327529609203338623046875" lon="-2.924368567764759063720703125">
        <ele>1274.5999755859375</ele>
        <time>2019-10-28T14:42:36.000Z</time>
      </trkpt>
      <trkpt lat="37.403323240578174591064453125" lon="-2.92460720054805278778076171875">
        <ele>1272.800048828125</ele>
        <time>2019-10-28T14:42:41.000Z</time>
      </trkpt>
      <trkpt lat="37.4034591950476169586181640625" lon="-2.92479646392166614532470703125">
        <ele>1272.199951171875</ele>
        <time>2019-10-28T14:42:45.000Z</time>
      </trkpt>
      <trkpt lat="37.40358567796647548675537109375" lon="-2.92496276088058948516845703125">
        <ele>1272</ele>
        <time>2019-10-28T14:42:48.000Z</time>
      </trkpt>
      <trkpt lat="37.4036248214542865753173828125" lon="-2.92502227239310741424560546875">
        <ele>1272</ele>
        <time>2019-10-28T14:42:49.000Z</time>
      </trkpt>
      <trkpt lat="37.4037009291350841522216796875" lon="-2.92515051551163196563720703125">
        <ele>1272.5999755859375</ele>
        <time>2019-10-28T14:42:51.000Z</time>
      </trkpt>
      <trkpt lat="37.40375197492539882659912109375" lon="-2.92537297122180461883544921875">
        <ele>1273.5999755859375</ele>
        <time>2019-10-28T14:42:54.000Z</time>
      </trkpt>
      <trkpt lat="37.40366287529468536376953125" lon="-2.9255931638181209564208984375">
        <ele>1273.199951171875</ele>
        <time>2019-10-28T14:42:57.000Z</time>
      </trkpt>
      <trkpt lat="37.40362524054944515228271484375" lon="-2.925657369196414947509765625">
        <ele>1273</ele>
        <time>2019-10-28T14:42:58.000Z</time>
      </trkpt>
      <trkpt lat="37.40350973792374134063720703125" lon="-2.9258488118648529052734375">
        <ele>1272</ele>
        <time>2019-10-28T14:43:01.000Z</time>
      </trkpt>
      <trkpt lat="37.4034008570015430450439453125" lon="-2.92603765614330768585205078125">
        <ele>1271</ele>
        <time>2019-10-28T14:43:04.000Z</time>
      </trkpt>
      <trkpt lat="37.40327722392976284027099609375" lon="-2.92621367610991001129150390625">
        <ele>1270.199951171875</ele>
        <time>2019-10-28T14:43:07.000Z</time>
      </trkpt>
      <trkpt lat="37.4031507410109043121337890625" lon="-2.92640746571123600006103515625">
        <ele>1269.800048828125</ele>
        <time>2019-10-28T14:43:10.000Z</time>
      </trkpt>
      <trkpt lat="37.40301973186433315277099609375" lon="-2.92659807018935680389404296875">
        <ele>1269.199951171875</ele>
        <time>2019-10-28T14:43:13.000Z</time>
      </trkpt>
      <trkpt lat="37.40288436412811279296875" lon="-2.9267941229045391082763671875">
        <ele>1268.4000244140625</ele>
        <time>2019-10-28T14:43:16.000Z</time>
      </trkpt>
      <trkpt lat="37.4027551151812076568603515625" lon="-2.92698883451521396636962890625">
        <ele>1266.199951171875</ele>
        <time>2019-10-28T14:43:19.000Z</time>
      </trkpt>
      <trkpt lat="37.4026052467525005340576171875" lon="-2.92718580923974514007568359375">
        <ele>1266.4000244140625</ele>
        <time>2019-10-28T14:43:22.000Z</time>
      </trkpt>
      <trkpt lat="37.4024285562336444854736328125" lon="-2.9274207539856433868408203125">
        <ele>1266.4000244140625</ele>
        <time>2019-10-28T14:43:25.000Z</time>
      </trkpt>
      <trkpt lat="37.4023028276860713958740234375" lon="-2.9276041500270366668701171875">
        <ele>1265.4000244140625</ele>
        <time>2019-10-28T14:43:27.000Z</time>
      </trkpt>
      <trkpt lat="37.40217936225235462188720703125" lon="-2.92779131792485713958740234375">
        <ele>1265.4000244140625</ele>
        <time>2019-10-28T14:43:29.000Z</time>
      </trkpt>
      <trkpt lat="37.4020657874643802642822265625" lon="-2.9279696010053157806396484375">
        <ele>1265.4000244140625</ele>
        <time>2019-10-28T14:43:31.000Z</time>
      </trkpt>
      <trkpt lat="37.40190359763801097869873046875" lon="-2.92820823378860950469970703125">
        <ele>1266.199951171875</ele>
        <time>2019-10-28T14:43:34.000Z</time>
      </trkpt>
      <trkpt lat="37.40177703090012073516845703125" lon="-2.928400598466396331787109375">
        <ele>1267.4000244140625</ele>
        <time>2019-10-28T14:43:37.000Z</time>
      </trkpt>
      <trkpt lat="37.40167192183434963226318359375" lon="-2.928591035306453704833984375">
        <ele>1268.4000244140625</ele>
        <time>2019-10-28T14:43:42.000Z</time>
      </trkpt>
      <trkpt lat="37.4016430042684078216552734375" lon="-2.9286622814834117889404296875">
        <ele>1268.800048828125</ele>
        <time>2019-10-28T14:43:44.000Z</time>
      </trkpt>
      <trkpt lat="37.4015531502664089202880859375" lon="-2.9288979806005954742431640625">
        <ele>1268.800048828125</ele>
        <time>2019-10-28T14:43:50.000Z</time>
      </trkpt>
      <trkpt lat="37.401479892432689666748046875" lon="-2.929161004722118377685546875">
        <ele>1267</ele>
        <time>2019-10-28T14:43:55.000Z</time>
      </trkpt>
      <trkpt lat="37.40143588744103908538818359375" lon="-2.9293995536863803863525390625">
        <ele>1265.199951171875</ele>
        <time>2019-10-28T14:43:59.000Z</time>
      </trkpt>
      <trkpt lat="37.4013997614383697509765625" lon="-2.929653190076351165771484375">
        <ele>1263.5999755859375</ele>
        <time>2019-10-28T14:44:03.000Z</time>
      </trkpt>
      <trkpt lat="37.4013648927211761474609375" lon="-2.9298863746225833892822265625">
        <ele>1263.199951171875</ele>
        <time>2019-10-28T14:44:07.000Z</time>
      </trkpt>
      <trkpt lat="37.40132574923336505889892578125" lon="-2.93013003654778003692626953125">
        <ele>1264.199951171875</ele>
        <time>2019-10-28T14:44:12.000Z</time>
      </trkpt>
      <trkpt lat="37.40128031931817531585693359375" lon="-2.93036825023591518402099609375">
        <ele>1265.800048828125</ele>
        <time>2019-10-28T14:44:17.000Z</time>
      </trkpt>
      <trkpt lat="37.40124343894422054290771484375" lon="-2.93062222190201282501220703125">
        <ele>1266</ele>
        <time>2019-10-28T14:44:22.000Z</time>
      </trkpt>
      <trkpt lat="37.40121041424572467803955078125" lon="-2.930903099477291107177734375">
        <ele>1265.199951171875</ele>
        <time>2019-10-28T14:44:27.000Z</time>
      </trkpt>
      <trkpt lat="37.40118510089814662933349609375" lon="-2.93114189989864826202392578125">
        <ele>1264</ele>
        <time>2019-10-28T14:44:31.000Z</time>
      </trkpt>
      <trkpt lat="37.4011682532727718353271484375" lon="-2.9314009845256805419921875">
        <ele>1262.199951171875</ele>
        <time>2019-10-28T14:44:35.000Z</time>
      </trkpt>
      <trkpt lat="37.40114738233387470245361328125" lon="-2.931705750524997711181640625">
        <ele>1261.800048828125</ele>
        <time>2019-10-28T14:44:39.000Z</time>
      </trkpt>
      <trkpt lat="37.401127181947231292724609375" lon="-2.9319925792515277862548828125">
        <ele>1261</ele>
        <time>2019-10-28T14:44:42.000Z</time>
      </trkpt>
      <trkpt lat="37.40110002458095550537109375" lon="-2.93228351511061191558837890625">
        <ele>1261</ele>
        <time>2019-10-28T14:44:45.000Z</time>
      </trkpt>
      <trkpt lat="37.4010783992707729339599609375" lon="-2.932523824274539947509765625">
        <ele>1261.5999755859375</ele>
        <time>2019-10-28T14:44:48.000Z</time>
      </trkpt>
      <trkpt lat="37.4010550975799560546875" lon="-2.93277268297970294952392578125">
        <ele>1262.199951171875</ele>
        <time>2019-10-28T14:44:52.000Z</time>
      </trkpt>
      <trkpt lat="37.4010349810123443603515625" lon="-2.9329481162130832672119140625">
        <ele>1262.4000244140625</ele>
        <time>2019-10-28T14:44:55.000Z</time>
      </trkpt>
      <trkpt lat="37.4010197259485721588134765625" lon="-2.93313008733093738555908203125">
        <ele>1261.800048828125</ele>
        <time>2019-10-28T14:44:58.000Z</time>
      </trkpt>
      <trkpt lat="37.40100438706576824188232421875" lon="-2.93340048752725124359130859375">
        <ele>1260.800048828125</ele>
        <time>2019-10-28T14:45:02.000Z</time>
      </trkpt>
      <trkpt lat="37.40098309703171253204345703125" lon="-2.93370944447815418243408203125">
        <ele>1259.4000244140625</ele>
        <time>2019-10-28T14:45:06.000Z</time>
      </trkpt>
      <trkpt lat="37.4009674228727817535400390625" lon="-2.9339961893856525421142578125">
        <ele>1258</ele>
        <time>2019-10-28T14:45:09.000Z</time>
      </trkpt>
      <trkpt lat="37.4009464681148529052734375" lon="-2.934278659522533416748046875">
        <ele>1258.4000244140625</ele>
        <time>2019-10-28T14:45:12.000Z</time>
      </trkpt>
      <trkpt lat="37.40092257969081401824951171875" lon="-2.93453925289213657379150390625">
        <ele>1260</ele>
        <time>2019-10-28T14:45:16.000Z</time>
      </trkpt>
      <trkpt lat="37.4009070731699466705322265625" lon="-2.9348092339932918548583984375">
        <ele>1262.5999755859375</ele>
        <time>2019-10-28T14:45:21.000Z</time>
      </trkpt>
      <trkpt lat="37.40090413950383663177490234375" lon="-2.93486547656357288360595703125">
        <ele>1263</ele>
        <time>2019-10-28T14:45:22.000Z</time>
      </trkpt>
      <trkpt lat="37.40089123137295246124267578125" lon="-2.93509899638593196868896484375">
        <ele>1263.4000244140625</ele>
        <time>2019-10-28T14:45:26.000Z</time>
      </trkpt>
      <trkpt lat="37.40087463520467281341552734375" lon="-2.93535363860428333282470703125">
        <ele>1262.5999755859375</ele>
        <time>2019-10-28T14:45:30.000Z</time>
      </trkpt>
      <trkpt lat="37.40085854195058345794677734375" lon="-2.9356061853468418121337890625">
        <ele>1261.800048828125</ele>
        <time>2019-10-28T14:45:34.000Z</time>
      </trkpt>
      <trkpt lat="37.40085284225642681121826171875" lon="-2.93578304350376129150390625">
        <ele>1262</ele>
        <time>2019-10-28T14:45:37.000Z</time>
      </trkpt>
      <trkpt lat="37.40083339624106884002685546875" lon="-2.93605671264231204986572265625">
        <ele>1262.4000244140625</ele>
        <time>2019-10-28T14:45:42.000Z</time>
      </trkpt>
      <trkpt lat="37.400822080671787261962890625" lon="-2.93628419749438762664794921875">
        <ele>1262.800048828125</ele>
        <time>2019-10-28T14:45:46.000Z</time>
      </trkpt>
      <trkpt lat="37.40080296993255615234375" lon="-2.9365328885614871978759765625">
        <ele>1262</ele>
        <time>2019-10-28T14:45:50.000Z</time>
      </trkpt>
      <trkpt lat="37.40077975206077098846435546875" lon="-2.93682575225830078125">
        <ele>1261.199951171875</ele>
        <time>2019-10-28T14:45:54.000Z</time>
      </trkpt>
      <trkpt lat="37.40075728856027126312255859375" lon="-2.9370586015284061431884765625">
        <ele>1260.800048828125</ele>
        <time>2019-10-28T14:45:57.000Z</time>
      </trkpt>
      <trkpt lat="37.40073046647012233734130859375" lon="-2.937285415828227996826171875">
        <ele>1261.4000244140625</ele>
        <time>2019-10-28T14:46:00.000Z</time>
      </trkpt>
      <trkpt lat="37.40070900879800319671630859375" lon="-2.937548272311687469482421875">
        <ele>1260.5999755859375</ele>
        <time>2019-10-28T14:46:04.000Z</time>
      </trkpt>
      <trkpt lat="37.40068268962204456329345703125" lon="-2.9378213547170162200927734375">
        <ele>1259.800048828125</ele>
        <time>2019-10-28T14:46:09.000Z</time>
      </trkpt>
      <trkpt lat="37.4006616510450839996337890625" lon="-2.938082702457904815673828125">
        <ele>1259.800048828125</ele>
        <time>2019-10-28T14:46:14.000Z</time>
      </trkpt>
      <trkpt lat="37.4006525985896587371826171875" lon="-2.93831781484186649322509765625">
        <ele>1259.5999755859375</ele>
        <time>2019-10-28T14:46:18.000Z</time>
      </trkpt>
      <trkpt lat="37.4006445519626140594482421875" lon="-2.93858285062015056610107421875">
        <ele>1258.800048828125</ele>
        <time>2019-10-28T14:46:22.000Z</time>
      </trkpt>
      <trkpt lat="37.40064145065844058990478515625" lon="-2.93880916200578212738037109375">
        <ele>1258</ele>
        <time>2019-10-28T14:46:25.000Z</time>
      </trkpt>
      <trkpt lat="37.40064212121069431304931640625" lon="-2.93910772539675235748291015625">
        <ele>1255.5999755859375</ele>
        <time>2019-10-28T14:46:28.000Z</time>
      </trkpt>
      <trkpt lat="37.400634326040744781494140625" lon="-2.939219288527965545654296875">
        <ele>1254.4000244140625</ele>
        <time>2019-10-28T14:46:29.000Z</time>
      </trkpt>
      <trkpt lat="37.400584034621715545654296875" lon="-2.9394583404064178466796875">
        <ele>1252.800048828125</ele>
        <time>2019-10-28T14:46:31.000Z</time>
      </trkpt>
      <trkpt lat="37.400516979396343231201171875" lon="-2.93972597457468509674072265625">
        <ele>1251.4000244140625</ele>
        <time>2019-10-28T14:46:33.000Z</time>
      </trkpt>
      <trkpt lat="37.4005121178925037384033203125" lon="-2.93987483717501163482666015625">
        <ele>1251</ele>
        <time>2019-10-28T14:46:34.000Z</time>
      </trkpt>
      <trkpt lat="37.400523684918880462646484375" lon="-2.94012478552758693695068359375">
        <ele>1251</ele>
        <time>2019-10-28T14:46:36.000Z</time>
      </trkpt>
      <trkpt lat="37.400532066822052001953125" lon="-2.940436340868473052978515625">
        <ele>1252.199951171875</ele>
        <time>2019-10-28T14:46:39.000Z</time>
      </trkpt>
      <trkpt lat="37.40053080953657627105712890625" lon="-2.94070464558899402618408203125">
        <ele>1254.199951171875</ele>
        <time>2019-10-28T14:46:42.000Z</time>
      </trkpt>
      <trkpt lat="37.400539778172969818115234375" lon="-2.9409628920257091522216796875">
        <ele>1256</ele>
        <time>2019-10-28T14:46:46.000Z</time>
      </trkpt>
      <trkpt lat="37.40052695386111736297607421875" lon="-2.94119968079030513763427734375">
        <ele>1256.800048828125</ele>
        <time>2019-10-28T14:46:50.000Z</time>
      </trkpt>
      <trkpt lat="37.4005077593028545379638671875" lon="-2.9414406605064868927001953125">
        <ele>1255.5999755859375</ele>
        <time>2019-10-28T14:46:54.000Z</time>
      </trkpt>
      <trkpt lat="37.40046945400536060333251953125" lon="-2.9416911117732524871826171875">
        <ele>1255</ele>
        <time>2019-10-28T14:46:58.000Z</time>
      </trkpt>
      <trkpt lat="37.4004239402711391448974609375" lon="-2.941910214722156524658203125">
        <ele>1255</ele>
        <time>2019-10-28T14:47:01.000Z</time>
      </trkpt>
      <trkpt lat="37.400388903915882110595703125" lon="-2.9421668685972690582275390625">
        <ele>1254.5999755859375</ele>
        <time>2019-10-28T14:47:04.000Z</time>
      </trkpt>
      <trkpt lat="37.400383539497852325439453125" lon="-2.9424320720136165618896484375">
        <ele>1254.5999755859375</ele>
        <time>2019-10-28T14:47:09.000Z</time>
      </trkpt>
      <trkpt lat="37.40037490613758563995361328125" lon="-2.942635081708431243896484375">
        <ele>1255</ele>
        <time>2019-10-28T14:47:14.000Z</time>
      </trkpt>
      <trkpt lat="37.40035973489284515380859375" lon="-2.9427891410887241363525390625">
        <ele>1255</ele>
        <time>2019-10-28T14:47:18.000Z</time>
      </trkpt>
      <trkpt lat="37.40034758113324642181396484375" lon="-2.94304705224931240081787109375">
        <ele>1255</ele>
        <time>2019-10-28T14:47:24.000Z</time>
      </trkpt>
      <trkpt lat="37.40033182315528392791748046875" lon="-2.94317898340523242950439453125">
        <ele>1255</ele>
        <time>2019-10-28T14:47:27.000Z</time>
      </trkpt>
      <trkpt lat="37.40032712928950786590576171875" lon="-2.9433153569698333740234375">
        <ele>1255.4000244140625</ele>
        <time>2019-10-28T14:47:30.000Z</time>
      </trkpt>
      <trkpt lat="37.40031204186379909515380859375" lon="-2.9435589350759983062744140625">
        <ele>1256.199951171875</ele>
        <time>2019-10-28T14:47:35.000Z</time>
      </trkpt>
      <trkpt lat="37.4002891592681407928466796875" lon="-2.9438249766826629638671875">
        <ele>1256.4000244140625</ele>
        <time>2019-10-28T14:47:40.000Z</time>
      </trkpt>
      <trkpt lat="37.400274239480495452880859375" lon="-2.94405355118215084075927734375">
        <ele>1255.5999755859375</ele>
        <time>2019-10-28T14:47:44.000Z</time>
      </trkpt>
      <trkpt lat="37.40025320090353488922119140625" lon="-2.94433836825191974639892578125">
        <ele>1255.199951171875</ele>
        <time>2019-10-28T14:47:48.000Z</time>
      </trkpt>
      <trkpt lat="37.40021489560604095458984375" lon="-2.94461379759013652801513671875">
        <ele>1256.5999755859375</ele>
        <time>2019-10-28T14:47:52.000Z</time>
      </trkpt>
      <trkpt lat="37.4001874029636383056640625" lon="-2.94485586695373058319091796875">
        <ele>1257.5999755859375</ele>
        <time>2019-10-28T14:47:57.000Z</time>
      </trkpt>
      <trkpt lat="37.40016259253025054931640625" lon="-2.945102714002132415771484375">
        <ele>1257</ele>
        <time>2019-10-28T14:48:02.000Z</time>
      </trkpt>
      <trkpt lat="37.40013845264911651611328125" lon="-2.94538392685353755950927734375">
        <ele>1255.800048828125</ele>
        <time>2019-10-28T14:48:06.000Z</time>
      </trkpt>
      <trkpt lat="37.400124035775661468505859375" lon="-2.94546606950461864471435546875">
        <ele>1255</ele>
        <time>2019-10-28T14:48:07.000Z</time>
      </trkpt>
      <trkpt lat="37.40001750178635120391845703125" lon="-2.94573135673999786376953125">
        <ele>1252.199951171875</ele>
        <time>2019-10-28T14:48:10.000Z</time>
      </trkpt>
      <trkpt lat="37.39992345683276653289794921875" lon="-2.94604727067053318023681640625">
        <ele>1249.800048828125</ele>
        <time>2019-10-28T14:48:13.000Z</time>
      </trkpt>
      <trkpt lat="37.39992278628051280975341796875" lon="-2.9463447444140911102294921875">
        <ele>1250</ele>
        <time>2019-10-28T14:48:16.000Z</time>
      </trkpt>
      <trkpt lat="37.3999190144240856170654296875" lon="-2.9464010708034038543701171875">
        <ele>1250.199951171875</ele>
        <time>2019-10-28T14:48:17.000Z</time>
      </trkpt>
      <trkpt lat="37.39988758228719234466552734375" lon="-2.94665462337434291839599609375">
        <ele>1250.5999755859375</ele>
        <time>2019-10-28T14:48:24.000Z</time>
      </trkpt>
      <trkpt lat="37.39984617568552494049072265625" lon="-2.94688546098768711090087890625">
        <ele>1250.800048828125</ele>
        <time>2019-10-28T14:48:31.000Z</time>
      </trkpt>
      <trkpt lat="37.39977576769888401031494140625" lon="-2.9471168853342533111572265625">
        <ele>1251.4000244140625</ele>
        <time>2019-10-28T14:48:38.000Z</time>
      </trkpt>
      <trkpt lat="37.39970393478870391845703125" lon="-2.947348393499851226806640625">
        <ele>1252</ele>
        <time>2019-10-28T14:48:45.000Z</time>
      </trkpt>
      <trkpt lat="37.399633191525936126708984375" lon="-2.9475758783519268035888671875">
        <ele>1253</ele>
        <time>2019-10-28T14:48:52.000Z</time>
      </trkpt>
      <trkpt lat="37.39956102333962917327880859375" lon="-2.94779338873922824859619140625">
        <ele>1254</ele>
        <time>2019-10-28T14:48:59.000Z</time>
      </trkpt>
      <trkpt lat="37.3994811438024044036865234375" lon="-2.94800025410950183868408203125">
        <ele>1255.199951171875</ele>
        <time>2019-10-28T14:49:07.000Z</time>
      </trkpt>
      <trkpt lat="37.39940411411225795745849609375" lon="-2.94820745475590229034423828125">
        <ele>1256.199951171875</ele>
        <time>2019-10-28T14:49:15.000Z</time>
      </trkpt>
      <trkpt lat="37.39932280965149402618408203125" lon="-2.94842337258160114288330078125">
        <ele>1257.5999755859375</ele>
        <time>2019-10-28T14:49:23.000Z</time>
      </trkpt>
      <trkpt lat="37.399225495755672454833984375" lon="-2.94862009584903717041015625">
        <ele>1259</ele>
        <time>2019-10-28T14:49:30.000Z</time>
      </trkpt>
      <trkpt lat="37.39912784658372402191162109375" lon="-2.94883073307573795318603515625">
        <ele>1260.800048828125</ele>
        <time>2019-10-28T14:49:38.000Z</time>
      </trkpt>
      <trkpt lat="37.3990157805383205413818359375" lon="-2.94904388487339019775390625">
        <ele>1263.5999755859375</ele>
        <time>2019-10-28T14:49:46.000Z</time>
      </trkpt>
      <trkpt lat="37.3989041335880756378173828125" lon="-2.94922518543899059295654296875">
        <ele>1266</ele>
        <time>2019-10-28T14:49:53.000Z</time>
      </trkpt>
      <trkpt lat="37.39875116385519504547119140625" lon="-2.949386537075042724609375">
        <ele>1267</ele>
        <time>2019-10-28T14:50:01.000Z</time>
      </trkpt>
      <trkpt lat="37.398587130010128021240234375" lon="-2.94949742965400218963623046875">
        <ele>1267.199951171875</ele>
        <time>2019-10-28T14:50:08.000Z</time>
      </trkpt>
      <trkpt lat="37.3984156362712383270263671875" lon="-2.94960580766201019287109375">
        <ele>1267</ele>
        <time>2019-10-28T14:50:15.000Z</time>
      </trkpt>
      <trkpt lat="37.39824959076941013336181640625" lon="-2.949716784060001373291015625">
        <ele>1267.199951171875</ele>
        <time>2019-10-28T14:50:22.000Z</time>
      </trkpt>
      <trkpt lat="37.39808832295238971710205078125" lon="-2.949831783771514892578125">
        <ele>1267.800048828125</ele>
        <time>2019-10-28T14:50:29.000Z</time>
      </trkpt>
      <trkpt lat="37.39791951142251491546630859375" lon="-2.94992540962994098663330078125">
        <ele>1268</ele>
        <time>2019-10-28T14:50:36.000Z</time>
      </trkpt>
      <trkpt lat="37.39773946814239025115966796875" lon="-2.95003772713243961334228515625">
        <ele>1268</ele>
        <time>2019-10-28T14:50:44.000Z</time>
      </trkpt>
      <trkpt lat="37.39755305461585521697998046875" lon="-2.9501471109688282012939453125">
        <ele>1268.5999755859375</ele>
        <time>2019-10-28T14:50:52.000Z</time>
      </trkpt>
      <trkpt lat="37.3973873443901538848876953125" lon="-2.9502433352172374725341796875">
        <ele>1269.199951171875</ele>
        <time>2019-10-28T14:50:59.000Z</time>
      </trkpt>
      <trkpt lat="37.3972193710505962371826171875" lon="-2.9503373801708221435546875">
        <ele>1270</ele>
        <time>2019-10-28T14:51:06.000Z</time>
      </trkpt>
      <trkpt lat="37.39715541712939739227294921875" lon="-2.9504983127117156982421875">
        <ele>1269.4000244140625</ele>
        <time>2019-10-28T14:51:13.000Z</time>
      </trkpt>
      <trkpt lat="37.39719447679817676544189453125" lon="-2.95057081617414951324462890625">
        <ele>1268.800048828125</ele>
        <time>2019-10-28T14:51:17.000Z</time>
      </trkpt>
      <trkpt lat="37.3973729275166988372802734375" lon="-2.950571738183498382568359375">
        <ele>1268</ele>
        <time>2019-10-28T14:51:36.000Z</time>
      </trkpt>
      <trkpt lat="37.3975673876702785491943359375" lon="-2.95065027661621570587158203125">
        <ele>1267.800048828125</ele>
        <time>2019-10-28T14:51:42.000Z</time>
      </trkpt>
      <trkpt lat="37.3977705650031566619873046875" lon="-2.95071146450936794281005859375">
        <ele>1267.199951171875</ele>
        <time>2019-10-28T14:51:47.000Z</time>
      </trkpt>
      <trkpt lat="37.397950105369091033935546875" lon="-2.95074784196913242340087890625">
        <ele>1268</ele>
        <time>2019-10-28T14:51:51.000Z</time>
      </trkpt>
      <trkpt lat="37.3981698788702487945556640625" lon="-2.95078354887664318084716796875">
        <ele>1266.5999755859375</ele>
        <time>2019-10-28T14:51:55.000Z</time>
      </trkpt>
      <trkpt lat="37.39827306009829044342041015625" lon="-2.95081011950969696044921875">
        <ele>1265.800048828125</ele>
        <time>2019-10-28T14:51:57.000Z</time>
      </trkpt>
      <trkpt lat="37.39840038120746612548828125" lon="-2.95097951777279376983642578125">
        <ele>1264.199951171875</ele>
        <time>2019-10-28T14:52:01.000Z</time>
      </trkpt>
      <trkpt lat="37.39835922606289386749267578125" lon="-2.9511599801480770111083984375">
        <ele>1263.800048828125</ele>
        <time>2019-10-28T14:52:04.000Z</time>
      </trkpt>
      <trkpt lat="37.39828328602015972137451171875" lon="-2.95140850357711315155029296875">
        <ele>1264.5999755859375</ele>
        <time>2019-10-28T14:52:08.000Z</time>
      </trkpt>
      <trkpt lat="37.39819142036139965057373046875" lon="-2.95160497538745403289794921875">
        <ele>1265.800048828125</ele>
        <time>2019-10-28T14:52:11.000Z</time>
      </trkpt>
      <trkpt lat="37.3981578089296817779541015625" lon="-2.95167236588895320892333984375">
        <ele>1266</ele>
        <time>2019-10-28T14:52:12.000Z</time>
      </trkpt>
      <trkpt lat="37.39809251390397548675537109375" lon="-2.9518831707537174224853515625">
        <ele>1267</ele>
        <time>2019-10-28T14:52:15.000Z</time>
      </trkpt>
      <trkpt lat="37.3980511911213397979736328125" lon="-2.95204301364719867706298828125">
        <ele>1267.800048828125</ele>
        <time>2019-10-28T14:52:18.000Z</time>
      </trkpt>
      <trkpt lat="37.3979519493877887725830078125" lon="-2.95224619098007678985595703125">
        <ele>1267.4000244140625</ele>
        <time>2019-10-28T14:52:24.000Z</time>
      </trkpt>
      <trkpt lat="37.39785329438745975494384765625" lon="-2.95244115404784679412841796875">
        <ele>1267.4000244140625</ele>
        <time>2019-10-28T14:52:31.000Z</time>
      </trkpt>
      <trkpt lat="37.39783979952335357666015625" lon="-2.95246772468090057373046875">
        <ele>1267.4000244140625</ele>
        <time>2019-10-28T14:52:32.000Z</time>
      </trkpt>
      <trkpt lat="37.39774215035140514373779296875" lon="-2.95266889035701751708984375">
        <ele>1268</ele>
        <time>2019-10-28T14:52:39.000Z</time>
      </trkpt>
      <trkpt lat="37.3976374603807926177978515625" lon="-2.9528843052685260772705078125">
        <ele>1268.4000244140625</ele>
        <time>2019-10-28T14:52:46.000Z</time>
      </trkpt>
      <trkpt lat="37.39754341542720794677734375" lon="-2.9530839622020721435546875">
        <ele>1270</ele>
        <time>2019-10-28T14:52:52.000Z</time>
      </trkpt>
      <trkpt lat="37.3974369652569293975830078125" lon="-2.9532899893820285797119140625">
        <ele>1270.800048828125</ele>
        <time>2019-10-28T14:52:58.000Z</time>
      </trkpt>
      <trkpt lat="37.3973340354859828948974609375" lon="-2.9534770734608173370361328125">
        <ele>1270.5999755859375</ele>
        <time>2019-10-28T14:53:04.000Z</time>
      </trkpt>
      <trkpt lat="37.397225238382816314697265625" lon="-2.953685112297534942626953125">
        <ele>1270.199951171875</ele>
        <time>2019-10-28T14:53:11.000Z</time>
      </trkpt>
      <trkpt lat="37.39711292088031768798828125" lon="-2.95388233847916126251220703125">
        <ele>1270</ele>
        <time>2019-10-28T14:53:18.000Z</time>
      </trkpt>
      <trkpt lat="37.396985180675983428955078125" lon="-2.954084090888500213623046875">
        <ele>1270.199951171875</ele>
        <time>2019-10-28T14:53:25.000Z</time>
      </trkpt>
      <trkpt lat="37.39685769192874431610107421875" lon="-2.95428089797496795654296875">
        <ele>1271.4000244140625</ele>
        <time>2019-10-28T14:53:31.000Z</time>
      </trkpt>
      <trkpt lat="37.396723330020904541015625" lon="-2.95448918826878070831298828125">
        <ele>1271</ele>
        <time>2019-10-28T14:53:37.000Z</time>
      </trkpt>
      <trkpt lat="37.39660858176648616790771484375" lon="-2.95468566007912158966064453125">
        <ele>1270.4000244140625</ele>
        <time>2019-10-28T14:53:42.000Z</time>
      </trkpt>
      <trkpt lat="37.3964995332062244415283203125" lon="-2.95486737973988056182861328125">
        <ele>1270.4000244140625</ele>
        <time>2019-10-28T14:53:47.000Z</time>
      </trkpt>
      <trkpt lat="37.39637422375380992889404296875" lon="-2.9550672881305217742919921875">
        <ele>1271</ele>
        <time>2019-10-28T14:53:53.000Z</time>
      </trkpt>
      <trkpt lat="37.3962517641484737396240234375" lon="-2.95526451431214809417724609375">
        <ele>1270.5999755859375</ele>
        <time>2019-10-28T14:53:59.000Z</time>
      </trkpt>
      <trkpt lat="37.396118827164173126220703125" lon="-2.95544103719294071197509765625">
        <ele>1270.199951171875</ele>
        <time>2019-10-28T14:54:05.000Z</time>
      </trkpt>
      <trkpt lat="37.3959811963140964508056640625" lon="-2.9556184820830821990966796875">
        <ele>1271.199951171875</ele>
        <time>2019-10-28T14:54:11.000Z</time>
      </trkpt>
      <trkpt lat="37.39584448747336864471435546875" lon="-2.9557747207581996917724609375">
        <ele>1272.199951171875</ele>
        <time>2019-10-28T14:54:17.000Z</time>
      </trkpt>
      <trkpt lat="37.39570518024265766143798828125" lon="-2.95592299662530422210693359375">
        <ele>1272.800048828125</ele>
        <time>2019-10-28T14:54:23.000Z</time>
      </trkpt>
      <trkpt lat="37.395559251308441162109375" lon="-2.95606800355017185211181640625">
        <ele>1272.5999755859375</ele>
        <time>2019-10-28T14:54:29.000Z</time>
      </trkpt>
      <trkpt lat="37.39539898931980133056640625" lon="-2.95622549951076507568359375">
        <ele>1271.199951171875</ele>
        <time>2019-10-28T14:54:35.000Z</time>
      </trkpt>
      <trkpt lat="37.39523679949343204498291015625" lon="-2.95637897215783596038818359375">
        <ele>1269</ele>
        <time>2019-10-28T14:54:41.000Z</time>
      </trkpt>
      <trkpt lat="37.39507972262799739837646484375" lon="-2.9565119929611682891845703125">
        <ele>1268</ele>
        <time>2019-10-28T14:54:47.000Z</time>
      </trkpt>
      <trkpt lat="37.3949180357158184051513671875" lon="-2.95663721859455108642578125">
        <ele>1268.4000244140625</ele>
        <time>2019-10-28T14:54:53.000Z</time>
      </trkpt>
      <trkpt lat="37.39475081674754619598388671875" lon="-2.9567486979067325592041015625">
        <ele>1269.5999755859375</ele>
        <time>2019-10-28T14:54:59.000Z</time>
      </trkpt>
      <trkpt lat="37.39458234049379825592041015625" lon="-2.956852801144123077392578125">
        <ele>1271</ele>
        <time>2019-10-28T14:55:05.000Z</time>
      </trkpt>
      <trkpt lat="37.394415624439716339111328125" lon="-2.95697341673076152801513671875">
        <ele>1272.4000244140625</ele>
        <time>2019-10-28T14:55:11.000Z</time>
      </trkpt>
      <trkpt lat="37.394235245883464813232421875" lon="-2.95709881000220775604248046875">
        <ele>1272</ele>
        <time>2019-10-28T14:55:17.000Z</time>
      </trkpt>
      <trkpt lat="37.39406500943005084991455078125" lon="-2.95721791684627532958984375">
        <ele>1272</ele>
        <time>2019-10-28T14:55:23.000Z</time>
      </trkpt>
      <trkpt lat="37.393884547054767608642578125" lon="-2.9573511891067028045654296875">
        <ele>1272</ele>
        <time>2019-10-28T14:55:29.000Z</time>
      </trkpt>
      <trkpt lat="37.39371447823941707611083984375" lon="-2.9574953578412532806396484375">
        <ele>1273</ele>
        <time>2019-10-28T14:55:34.000Z</time>
      </trkpt>
      <trkpt lat="37.39354281686246395111083984375" lon="-2.957652769982814788818359375">
        <ele>1274</ele>
        <time>2019-10-28T14:55:39.000Z</time>
      </trkpt>
      <trkpt lat="37.3933700658380985260009765625" lon="-2.95783323235809803009033203125">
        <ele>1273.199951171875</ele>
        <time>2019-10-28T14:55:44.000Z</time>
      </trkpt>
      <trkpt lat="37.393213994801044464111328125" lon="-2.95800874941051006317138671875">
        <ele>1272.199951171875</ele>
        <time>2019-10-28T14:55:49.000Z</time>
      </trkpt>
      <trkpt lat="37.39307996816933155059814453125" lon="-2.9581625573337078094482421875">
        <ele>1271</ele>
        <time>2019-10-28T14:55:54.000Z</time>
      </trkpt>
      <trkpt lat="37.3929254896938800811767578125" lon="-2.958355508744716644287109375">
        <ele>1271.199951171875</ele>
        <time>2019-10-28T14:56:00.000Z</time>
      </trkpt>
      <trkpt lat="37.39278576336801052093505859375" lon="-2.9585464484989643096923828125">
        <ele>1272.4000244140625</ele>
        <time>2019-10-28T14:56:05.000Z</time>
      </trkpt>
      <trkpt lat="37.39264662377536296844482421875" lon="-2.9587714187800884246826171875">
        <ele>1274</ele>
        <time>2019-10-28T14:56:10.000Z</time>
      </trkpt>
      <trkpt lat="37.39252894185483455657958984375" lon="-2.95898306183516979217529296875">
        <ele>1274.5999755859375</ele>
        <time>2019-10-28T14:56:14.000Z</time>
      </trkpt>
      <trkpt lat="37.3924115113914012908935546875" lon="-2.959210462868213653564453125">
        <ele>1274.800048828125</ele>
        <time>2019-10-28T14:56:18.000Z</time>
      </trkpt>
      <trkpt lat="37.39231470040977001190185546875" lon="-2.95942076481878757476806640625">
        <ele>1273.800048828125</ele>
        <time>2019-10-28T14:56:22.000Z</time>
      </trkpt>
      <trkpt lat="37.3922292888164520263671875" lon="-2.9596428014338016510009765625">
        <ele>1272</ele>
        <time>2019-10-28T14:56:27.000Z</time>
      </trkpt>
      <trkpt lat="37.3921580426394939422607421875" lon="-2.95985410921275615692138671875">
        <ele>1270</ele>
        <time>2019-10-28T14:56:31.000Z</time>
      </trkpt>
      <trkpt lat="37.39207933656871318817138671875" lon="-2.96011663042008876800537109375">
        <ele>1268</ele>
        <time>2019-10-28T14:56:35.000Z</time>
      </trkpt>
      <trkpt lat="37.39200574345886707305908203125" lon="-2.9603633098304271697998046875">
        <ele>1266.4000244140625</ele>
        <time>2019-10-28T14:56:38.000Z</time>
      </trkpt>
      <trkpt lat="37.39194388501346111297607421875" lon="-2.9606580175459384918212890625">
        <ele>1266.199951171875</ele>
        <time>2019-10-28T14:56:41.000Z</time>
      </trkpt>
      <trkpt lat="37.3918988741934299468994140625" lon="-2.9608905315399169921875">
        <ele>1266.5999755859375</ele>
        <time>2019-10-28T14:56:43.000Z</time>
      </trkpt>
      <trkpt lat="37.3918350040912628173828125" lon="-2.96115464530885219573974609375">
        <ele>1266.4000244140625</ele>
        <time>2019-10-28T14:56:45.000Z</time>
      </trkpt>
      <trkpt lat="37.39177708514034748077392578125" lon="-2.9614579863846302032470703125">
        <ele>1266.5999755859375</ele>
        <time>2019-10-28T14:56:47.000Z</time>
      </trkpt>
      <trkpt lat="37.39175914786756038665771484375" lon="-2.9616048373281955718994140625">
        <ele>1266.4000244140625</ele>
        <time>2019-10-28T14:56:48.000Z</time>
      </trkpt>
      <trkpt lat="37.39174791611731052398681640625" lon="-2.96186886727809906005859375">
        <ele>1266</ele>
        <time>2019-10-28T14:56:50.000Z</time>
      </trkpt>
      <trkpt lat="37.39174171350896358489990234375" lon="-2.96213448978960514068603515625">
        <ele>1265.199951171875</ele>
        <time>2019-10-28T14:56:53.000Z</time>
      </trkpt>
      <trkpt lat="37.391744814813137054443359375" lon="-2.9622502438724040985107421875">
        <ele>1265.199951171875</ele>
        <time>2019-10-28T14:56:55.000Z</time>
      </trkpt>
      <trkpt lat="37.39175294525921344757080078125" lon="-2.96253028325736522674560546875">
        <ele>1264.800048828125</ele>
        <time>2019-10-28T14:57:00.000Z</time>
      </trkpt>
      <trkpt lat="37.39176903851330280303955078125" lon="-2.9627721011638641357421875">
        <ele>1264.5999755859375</ele>
        <time>2019-10-28T14:57:04.000Z</time>
      </trkpt>
      <trkpt lat="37.39178932271897792816162109375" lon="-2.96303001232445240020751953125">
        <ele>1264</ele>
        <time>2019-10-28T14:57:08.000Z</time>
      </trkpt>
      <trkpt lat="37.39182737655937671661376953125" lon="-2.96331130899488925933837890625">
        <ele>1263.4000244140625</ele>
        <time>2019-10-28T14:57:12.000Z</time>
      </trkpt>
      <trkpt lat="37.3918589763343334197998046875" lon="-2.963538877665996551513671875">
        <ele>1261.5999755859375</ele>
        <time>2019-10-28T14:57:15.000Z</time>
      </trkpt>
      <trkpt lat="37.3919035680592060089111328125" lon="-2.9637814499437808990478515625">
        <ele>1260</ele>
        <time>2019-10-28T14:57:18.000Z</time>
      </trkpt>
      <trkpt lat="37.39196400158107280731201171875" lon="-2.9640298895537853240966796875">
        <ele>1260.199951171875</ele>
        <time>2019-10-28T14:57:21.000Z</time>
      </trkpt>
      <trkpt lat="37.39203172735869884490966796875" lon="-2.96427740715444087982177734375">
        <ele>1261.5999755859375</ele>
        <time>2019-10-28T14:57:24.000Z</time>
      </trkpt>
      <trkpt lat="37.39210515283048152923583984375" lon="-2.96452567912638187408447265625">
        <ele>1262.199951171875</ele>
        <time>2019-10-28T14:57:27.000Z</time>
      </trkpt>
      <trkpt lat="37.39218528382480144500732421875" lon="-2.96477914787828922271728515625">
        <ele>1262.800048828125</ele>
        <time>2019-10-28T14:57:30.000Z</time>
      </trkpt>
      <trkpt lat="37.39221964962780475616455078125" lon="-2.96494829468429088592529296875">
        <ele>1262.199951171875</ele>
        <time>2019-10-28T14:57:32.000Z</time>
      </trkpt>
      <trkpt lat="37.39217774011194705963134765625" lon="-2.96519639901816844940185546875">
        <ele>1261.4000244140625</ele>
        <time>2019-10-28T14:57:35.000Z</time>
      </trkpt>
      <trkpt lat="37.39214823581278324127197265625" lon="-2.96527602709829807281494140625">
        <ele>1260.800048828125</ele>
        <time>2019-10-28T14:57:36.000Z</time>
      </trkpt>
      <trkpt lat="37.39205452613532543182373046875" lon="-2.9655094631016254425048828125">
        <ele>1258.800048828125</ele>
        <time>2019-10-28T14:57:39.000Z</time>
      </trkpt>
      <trkpt lat="37.3919649235904216766357421875" lon="-2.9657582379877567291259765625">
        <ele>1257</ele>
        <time>2019-10-28T14:57:42.000Z</time>
      </trkpt>
      <trkpt lat="37.3918712139129638671875" lon="-2.966016232967376708984375">
        <ele>1255.5999755859375</ele>
        <time>2019-10-28T14:57:45.000Z</time>
      </trkpt>
      <trkpt lat="37.3918281309306621551513671875" lon="-2.966099046170711517333984375">
        <ele>1255.199951171875</ele>
        <time>2019-10-28T14:57:46.000Z</time>
      </trkpt>
      <trkpt lat="37.39169091917574405670166015625" lon="-2.9663459770381450653076171875">
        <ele>1253.800048828125</ele>
        <time>2019-10-28T14:57:49.000Z</time>
      </trkpt>
      <trkpt lat="37.39165822975337505340576171875" lon="-2.96642568893730640411376953125">
        <ele>1253.4000244140625</ele>
        <time>2019-10-28T14:57:50.000Z</time>
      </trkpt>
      <trkpt lat="37.39159603603184223175048828125" lon="-2.966654263436794281005859375">
        <ele>1252</ele>
        <time>2019-10-28T14:57:53.000Z</time>
      </trkpt>
      <trkpt lat="37.39168681204319000244140625" lon="-2.966815531253814697265625">
        <ele>1251</ele>
        <time>2019-10-28T14:58:00.000Z</time>
      </trkpt>
      <trkpt lat="37.3917040787637233734130859375" lon="-2.9668485559523105621337890625">
        <ele>1250.800048828125</ele>
        <time>2019-10-28T14:58:03.000Z</time>
      </trkpt>
      <trkpt lat="37.39170583896338939666748046875" lon="-2.96684830449521541595458984375">
        <ele>1250.800048828125</ele>
        <time>2019-10-28T14:58:04.000Z</time>
      </trkpt>
      <trkpt lat="37.39183777011930942535400390625" lon="-2.96669709496200084686279296875">
        <ele>1252</ele>
        <time>2019-10-28T14:58:29.000Z</time>
      </trkpt>
      <trkpt lat="37.391912452876567840576171875" lon="-2.96647950075566768646240234375">
        <ele>1253.199951171875</ele>
        <time>2019-10-28T14:58:44.000Z</time>
      </trkpt>
      <trkpt lat="37.391931898891925811767578125" lon="-2.96643826179206371307373046875">
        <ele>1253.5999755859375</ele>
        <time>2019-10-28T14:58:47.000Z</time>
      </trkpt>
      <trkpt lat="37.39201915450394153594970703125" lon="-2.966221086680889129638671875">
        <ele>1255.4000244140625</ele>
        <time>2019-10-28T14:59:02.000Z</time>
      </trkpt>
      <trkpt lat="37.39209274761378765106201171875" lon="-2.96604515053331851959228515625">
        <ele>1256.4000244140625</ele>
        <time>2019-10-28T14:59:15.000Z</time>
      </trkpt>
      <trkpt lat="37.39219098351895809173583984375" lon="-2.96583979390561580657958984375">
        <ele>1257.4000244140625</ele>
        <time>2019-10-28T14:59:32.000Z</time>
      </trkpt>
      <trkpt lat="37.39226809702813625335693359375" lon="-2.9656281508505344390869140625">
        <ele>1258.199951171875</ele>
        <time>2019-10-28T14:59:39.000Z</time>
      </trkpt>
      <trkpt lat="37.39240086637437343597412109375" lon="-2.96545975841581821441650390625">
        <ele>1258.800048828125</ele>
        <time>2019-10-28T14:59:46.000Z</time>
      </trkpt>
      <trkpt lat="37.392489127814769744873046875" lon="-2.96547635458409786224365234375">
        <ele>1258.5999755859375</ele>
        <time>2019-10-28T14:59:49.000Z</time>
      </trkpt>
      <trkpt lat="37.392603456974029541015625" lon="-2.96570803038775920867919921875">
        <ele>1258</ele>
        <time>2019-10-28T14:59:55.000Z</time>
      </trkpt>
      <trkpt lat="37.392697669565677642822265625" lon="-2.9659134708344936370849609375">
        <ele>1257.199951171875</ele>
        <time>2019-10-28T14:59:59.000Z</time>
      </trkpt>
      <trkpt lat="37.3928078077733516693115234375" lon="-2.9661320708692073822021484375">
        <ele>1256.800048828125</ele>
        <time>2019-10-28T15:00:03.000Z</time>
      </trkpt>
      <trkpt lat="37.3929187841713428497314453125" lon="-2.96636282466351985931396484375">
        <ele>1256</ele>
        <time>2019-10-28T15:00:07.000Z</time>
      </trkpt>
      <trkpt lat="37.39304442889988422393798828125" lon="-2.96661436557769775390625">
        <ele>1254.4000244140625</ele>
        <time>2019-10-28T15:00:11.000Z</time>
      </trkpt>
      <trkpt lat="37.3931397311389446258544921875" lon="-2.96681678853929042816162109375">
        <ele>1252.5999755859375</ele>
        <time>2019-10-28T15:00:14.000Z</time>
      </trkpt>
      <trkpt lat="37.39324894733726978302001953125" lon="-2.967088781297206878662109375">
        <ele>1251.4000244140625</ele>
        <time>2019-10-28T15:00:18.000Z</time>
      </trkpt>
      <trkpt lat="37.3933236300945281982421875" lon="-2.9673103988170623779296875">
        <ele>1250</ele>
        <time>2019-10-28T15:00:21.000Z</time>
      </trkpt>
      <trkpt lat="37.3933504521846771240234375" lon="-2.9673799686133861541748046875">
        <ele>1249.800048828125</ele>
        <time>2019-10-28T15:00:22.000Z</time>
      </trkpt>
      <trkpt lat="37.39342949353158473968505859375" lon="-2.967617511749267578125">
        <ele>1248.5999755859375</ele>
        <time>2019-10-28T15:00:26.000Z</time>
      </trkpt>
      <trkpt lat="37.3935216106474399566650390625" lon="-2.96783669851720333099365234375">
        <ele>1247.199951171875</ele>
        <time>2019-10-28T15:00:30.000Z</time>
      </trkpt>
      <trkpt lat="37.39359746687114238739013671875" lon="-2.9680324159562587738037109375">
        <ele>1246.5999755859375</ele>
        <time>2019-10-28T15:00:34.000Z</time>
      </trkpt>
      <trkpt lat="37.39367139525711536407470703125" lon="-2.9682775028049945831298828125">
        <ele>1245.4000244140625</ele>
        <time>2019-10-28T15:00:39.000Z</time>
      </trkpt>
      <trkpt lat="37.39368463866412639617919921875" lon="-2.96833056025207042694091796875">
        <ele>1245</ele>
        <time>2019-10-28T15:00:40.000Z</time>
      </trkpt>
      <trkpt lat="37.39372420124709606170654296875" lon="-2.9685370065271854400634765625">
        <ele>1243.4000244140625</ele>
        <time>2019-10-28T15:00:44.000Z</time>
      </trkpt>
      <trkpt lat="37.39377348683774471282958984375" lon="-2.9686476476490497589111328125">
        <ele>1243</ele>
        <time>2019-10-28T15:00:47.000Z</time>
      </trkpt>
      <trkpt lat="37.39382319152355194091796875" lon="-2.96873305924236774444580078125">
        <ele>1243.5999755859375</ele>
        <time>2019-10-28T15:00:50.000Z</time>
      </trkpt>
      <trkpt lat="37.39390994422137737274169921875" lon="-2.96895031817257404327392578125">
        <ele>1243.800048828125</ele>
        <time>2019-10-28T15:00:58.000Z</time>
      </trkpt>
      <trkpt lat="37.3939896561205387115478515625" lon="-2.96916590072214603424072265625">
        <ele>1244.800048828125</ele>
        <time>2019-10-28T15:01:06.000Z</time>
      </trkpt>
      <trkpt lat="37.394046820700168609619140625" lon="-2.969382070004940032958984375">
        <ele>1245</ele>
        <time>2019-10-28T15:01:14.000Z</time>
      </trkpt>
      <trkpt lat="37.39407154731452465057373046875" lon="-2.96962338499724864959716796875">
        <ele>1243.800048828125</ele>
        <time>2019-10-28T15:01:22.000Z</time>
      </trkpt>
      <trkpt lat="37.3940969444811344146728515625" lon="-2.96986042521893978118896484375">
        <ele>1243</ele>
        <time>2019-10-28T15:01:29.000Z</time>
      </trkpt>
      <trkpt lat="37.39413675852119922637939453125" lon="-2.97012202441692352294921875">
        <ele>1242</ele>
        <time>2019-10-28T15:01:36.000Z</time>
      </trkpt>
      <trkpt lat="37.39417682401835918426513671875" lon="-2.9703478328883647918701171875">
        <ele>1241</ele>
        <time>2019-10-28T15:01:41.000Z</time>
      </trkpt>
      <trkpt lat="37.39421571604907512664794921875" lon="-2.97060758806765079498291015625">
        <ele>1240.800048828125</ele>
        <time>2019-10-28T15:01:45.000Z</time>
      </trkpt>
      <trkpt lat="37.39425142295658588409423828125" lon="-2.97083457000553607940673828125">
        <ele>1239.5999755859375</ele>
        <time>2019-10-28T15:01:48.000Z</time>
      </trkpt>
      <trkpt lat="37.3942920751869678497314453125" lon="-2.97112056054174900054931640625">
        <ele>1238</ele>
        <time>2019-10-28T15:01:52.000Z</time>
      </trkpt>
      <trkpt lat="37.39431311376392841339111328125" lon="-2.97141912393271923065185546875">
        <ele>1236.4000244140625</ele>
        <time>2019-10-28T15:01:56.000Z</time>
      </trkpt>
      <trkpt lat="37.394328452646732330322265625" lon="-2.97165281139314174652099609375">
        <ele>1234.800048828125</ele>
        <time>2019-10-28T15:01:59.000Z</time>
      </trkpt>
      <trkpt lat="37.394352257251739501953125" lon="-2.97192706726491451263427734375">
        <ele>1233</ele>
        <time>2019-10-28T15:02:02.000Z</time>
      </trkpt>
      <trkpt lat="37.39437966607511043548583984375" lon="-2.97221657820045948028564453125">
        <ele>1231.4000244140625</ele>
        <time>2019-10-28T15:02:05.000Z</time>
      </trkpt>
      <trkpt lat="37.39441537298262119293212890625" lon="-2.972523607313632965087890625">
        <ele>1229.800048828125</ele>
        <time>2019-10-28T15:02:08.000Z</time>
      </trkpt>
      <trkpt lat="37.3944513313472270965576171875" lon="-2.9727458953857421875">
        <ele>1229.199951171875</ele>
        <time>2019-10-28T15:02:10.000Z</time>
      </trkpt>
      <trkpt lat="37.394491732120513916015625" lon="-2.97297379933297634124755859375">
        <ele>1228.5999755859375</ele>
        <time>2019-10-28T15:02:12.000Z</time>
      </trkpt>
      <trkpt lat="37.39456222392618656158447265625" lon="-2.97328392975032329559326171875">
        <ele>1227.4000244140625</ele>
        <time>2019-10-28T15:02:15.000Z</time>
      </trkpt>
      <trkpt lat="37.39461687393486499786376953125" lon="-2.97353773377835750579833984375">
        <ele>1225.4000244140625</ele>
        <time>2019-10-28T15:02:18.000Z</time>
      </trkpt>
      <trkpt lat="37.39462408237159252166748046875" lon="-2.97360797412693500518798828125">
        <ele>1225.199951171875</ele>
        <time>2019-10-28T15:02:19.000Z</time>
      </trkpt>
      <trkpt lat="37.39463564939796924591064453125" lon="-2.97376907430589199066162109375">
        <ele>1224.800048828125</ele>
        <time>2019-10-28T15:02:22.000Z</time>
      </trkpt>
      <trkpt lat="37.39464419893920421600341796875" lon="-2.9738732613623142242431640625">
        <ele>1224.800048828125</ele>
        <time>2019-10-28T15:02:25.000Z</time>
      </trkpt>
      <trkpt lat="37.394722402095794677734375" lon="-2.97407233156263828277587890625">
        <ele>1224.800048828125</ele>
        <time>2019-10-28T15:02:45.000Z</time>
      </trkpt>
      <trkpt lat="37.3947356455028057098388671875" lon="-2.9741126485168933868408203125">
        <ele>1224.5999755859375</ele>
        <time>2019-10-28T15:02:48.000Z</time>
      </trkpt>
      <trkpt lat="37.3948147706687450408935546875" lon="-2.9743181727826595306396484375">
        <ele>1224.4000244140625</ele>
        <time>2019-10-28T15:03:01.000Z</time>
      </trkpt>
      <trkpt lat="37.3948677442967891693115234375" lon="-2.97452076338231563568115234375">
        <ele>1224.199951171875</ele>
        <time>2019-10-28T15:03:25.000Z</time>
      </trkpt>
      <trkpt lat="37.39490755833685398101806640625" lon="-2.974657975137233734130859375">
        <ele>1223.5999755859375</ele>
        <time>2019-10-28T15:04:29.000Z</time>
      </trkpt>
      <trkpt lat="37.39497712813317775726318359375" lon="-2.9748985357582569122314453125">
        <ele>1221.800048828125</ele>
        <time>2019-10-28T15:04:36.000Z</time>
      </trkpt>
      <trkpt lat="37.39504837431013584136962890625" lon="-2.97512241639196872711181640625">
        <ele>1220.4000244140625</ele>
        <time>2019-10-28T15:04:42.000Z</time>
      </trkpt>
      <trkpt lat="37.39511308260262012481689453125" lon="-2.97534990124404430389404296875">
        <ele>1219.800048828125</ele>
        <time>2019-10-28T15:04:48.000Z</time>
      </trkpt>
      <trkpt lat="37.39517502486705780029296875" lon="-2.9756012745201587677001953125">
        <ele>1221.199951171875</ele>
        <time>2019-10-28T15:04:54.000Z</time>
      </trkpt>
      <trkpt lat="37.39524417556822299957275390625" lon="-2.9758425056934356689453125">
        <ele>1222.5999755859375</ele>
        <time>2019-10-28T15:04:59.000Z</time>
      </trkpt>
      <trkpt lat="37.3953190259635448455810546875" lon="-2.9760758578777313232421875">
        <ele>1223.199951171875</ele>
        <time>2019-10-28T15:05:04.000Z</time>
      </trkpt>
      <trkpt lat="37.39538867957890033721923828125" lon="-2.97628599219024181365966796875">
        <ele>1221.5999755859375</ele>
        <time>2019-10-28T15:05:09.000Z</time>
      </trkpt>
      <trkpt lat="37.3954685591161251068115234375" lon="-2.97653510235249996185302734375">
        <ele>1220.4000244140625</ele>
        <time>2019-10-28T15:05:15.000Z</time>
      </trkpt>
      <trkpt lat="37.3954960517585277557373046875" lon="-2.976779602468013763427734375">
        <ele>1221.199951171875</ele>
        <time>2019-10-28T15:05:22.000Z</time>
      </trkpt>
      <trkpt lat="37.395452298223972320556640625" lon="-2.977005578577518463134765625">
        <ele>1223.4000244140625</ele>
        <time>2019-10-28T15:05:30.000Z</time>
      </trkpt>
      <trkpt lat="37.395418770611286163330078125" lon="-2.97714798711240291595458984375">
        <ele>1225.199951171875</ele>
        <time>2019-10-28T15:05:36.000Z</time>
      </trkpt>
      <trkpt lat="37.39537241868674755096435546875" lon="-2.9773333109915256500244140625">
        <ele>1226.5999755859375</ele>
        <time>2019-10-28T15:05:59.000Z</time>
      </trkpt>
      <trkpt lat="37.395350039005279541015625" lon="-2.9775653220713138580322265625">
        <ele>1229</ele>
        <time>2019-10-28T15:06:17.000Z</time>
      </trkpt>
      <trkpt lat="37.3953894339501857757568359375" lon="-2.97779205255210399627685546875">
        <ele>1230.5999755859375</ele>
        <time>2019-10-28T15:06:34.000Z</time>
      </trkpt>
      <trkpt lat="37.39544634707272052764892578125" lon="-2.97801668755710124969482421875">
        <ele>1230.199951171875</ele>
        <time>2019-10-28T15:06:50.000Z</time>
      </trkpt>
      <trkpt lat="37.39549764432013034820556640625" lon="-2.97824048437178134918212890625">
        <ele>1230.4000244140625</ele>
        <time>2019-10-28T15:07:06.000Z</time>
      </trkpt>
      <trkpt lat="37.39556721411645412445068359375" lon="-2.9784635268151760101318359375">
        <ele>1229.5999755859375</ele>
        <time>2019-10-28T15:07:21.000Z</time>
      </trkpt>
      <trkpt lat="37.395586408674716949462890625" lon="-2.97852940857410430908203125">
        <ele>1229.800048828125</ele>
        <time>2019-10-28T15:07:28.000Z</time>
      </trkpt>
      <trkpt lat="37.39563502371311187744140625" lon="-2.97866980545222759246826171875">
        <ele>1230</ele>
        <time>2019-10-28T15:07:41.000Z</time>
      </trkpt>
      <trkpt lat="37.3957062698900699615478515625" lon="-2.97887968830764293670654296875">
        <ele>1230.4000244140625</ele>
        <time>2019-10-28T15:07:47.000Z</time>
      </trkpt>
      <trkpt lat="37.3957890830934047698974609375" lon="-2.97913097776472568511962890625">
        <ele>1229.800048828125</ele>
        <time>2019-10-28T15:07:53.000Z</time>
      </trkpt>
      <trkpt lat="37.3958568088710308074951171875" lon="-2.97934077680110931396484375">
        <ele>1227.800048828125</ele>
        <time>2019-10-28T15:07:57.000Z</time>
      </trkpt>
      <trkpt lat="37.39593207836151123046875" lon="-2.97958058305084705352783203125">
        <ele>1226.800048828125</ele>
        <time>2019-10-28T15:08:01.000Z</time>
      </trkpt>
      <trkpt lat="37.39595345221459865570068359375" lon="-2.9796445369720458984375">
        <ele>1226.5999755859375</ele>
        <time>2019-10-28T15:08:02.000Z</time>
      </trkpt>
      <trkpt lat="37.39605168811976909637451171875" lon="-2.9798934794962406158447265625">
        <ele>1226.4000244140625</ele>
        <time>2019-10-28T15:08:06.000Z</time>
      </trkpt>
      <trkpt lat="37.396145649254322052001953125" lon="-2.98012825660407543182373046875">
        <ele>1225.5999755859375</ele>
        <time>2019-10-28T15:08:10.000Z</time>
      </trkpt>
      <trkpt lat="37.39626660011708736419677734375" lon="-2.98034216277301311492919921875">
        <ele>1222.800048828125</ele>
        <time>2019-10-28T15:08:14.000Z</time>
      </trkpt>
      <trkpt lat="37.396415211260318756103515625" lon="-2.9805444180965423583984375">
        <ele>1221</ele>
        <time>2019-10-28T15:08:19.000Z</time>
      </trkpt>
      <trkpt lat="37.39657253958284854888916015625" lon="-2.98071498982608318328857421875">
        <ele>1219.5999755859375</ele>
        <time>2019-10-28T15:08:24.000Z</time>
      </trkpt>
      <trkpt lat="37.39672274328768253326416015625" lon="-2.98089738003909587860107421875">
        <ele>1218</ele>
        <time>2019-10-28T15:08:29.000Z</time>
      </trkpt>
      <trkpt lat="37.3967932350933551788330078125" lon="-2.98101858235895633697509765625">
        <ele>1217</ele>
        <time>2019-10-28T15:08:31.000Z</time>
      </trkpt>
      <trkpt lat="37.39684947766363620758056640625" lon="-2.98126752488315105438232421875">
        <ele>1217.5999755859375</ele>
        <time>2019-10-28T15:08:35.000Z</time>
      </trkpt>
      <trkpt lat="37.39685534499585628509521484375" lon="-2.981343381106853485107421875">
        <ele>1217.800048828125</ele>
        <time>2019-10-28T15:08:37.000Z</time>
      </trkpt>
      <trkpt lat="37.39687043242156505584716796875" lon="-2.9815946705639362335205078125">
        <ele>1218.4000244140625</ele>
        <time>2019-10-28T15:08:46.000Z</time>
      </trkpt>
      <trkpt lat="37.39688602276146411895751953125" lon="-2.9818427748978137969970703125">
        <ele>1219</ele>
        <time>2019-10-28T15:08:55.000Z</time>
      </trkpt>
      <trkpt lat="37.3969474621117115020751953125" lon="-2.98209381289780139923095703125">
        <ele>1218.800048828125</ele>
        <time>2019-10-28T15:09:03.000Z</time>
      </trkpt>
      <trkpt lat="37.39703035913407802581787109375" lon="-2.98232280649244785308837890625">
        <ele>1218.4000244140625</ele>
        <time>2019-10-28T15:09:09.000Z</time>
      </trkpt>
      <trkpt lat="37.397104538977146148681640625" lon="-2.98255817033350467681884765625">
        <ele>1217.5999755859375</ele>
        <time>2019-10-28T15:09:14.000Z</time>
      </trkpt>
      <trkpt lat="37.397201098501682281494140625" lon="-2.98278833739459514617919921875">
        <ele>1216.199951171875</ele>
        <time>2019-10-28T15:09:19.000Z</time>
      </trkpt>
      <trkpt lat="37.397291623055934906005859375" lon="-2.9830081947147846221923828125">
        <ele>1215</ele>
        <time>2019-10-28T15:09:23.000Z</time>
      </trkpt>
      <trkpt lat="37.3973880149424076080322265625" lon="-2.9832532815635204315185546875">
        <ele>1215</ele>
        <time>2019-10-28T15:09:27.000Z</time>
      </trkpt>
      <trkpt lat="37.39749136380851268768310546875" lon="-2.98350063152611255645751953125">
        <ele>1214.199951171875</ele>
        <time>2019-10-28T15:09:31.000Z</time>
      </trkpt>
      <trkpt lat="37.39759429357945919036865234375" lon="-2.98376432619988918304443359375">
        <ele>1209.800048828125</ele>
        <time>2019-10-28T15:09:35.000Z</time>
      </trkpt>
      <trkpt lat="37.39765581674873828887939453125" lon="-2.98399097286164760589599609375">
        <ele>1206.4000244140625</ele>
        <time>2019-10-28T15:09:38.000Z</time>
      </trkpt>
      <trkpt lat="37.39774323999881744384765625" lon="-2.98427713103592395782470703125">
        <ele>1205</ele>
        <time>2019-10-28T15:09:41.000Z</time>
      </trkpt>
      <trkpt lat="37.3978124745190143585205078125" lon="-2.98453328199684619903564453125">
        <ele>1206</ele>
        <time>2019-10-28T15:09:45.000Z</time>
      </trkpt>
      <trkpt lat="37.39782865159213542938232421875" lon="-2.98472321592271327972412109375">
        <ele>1208</ele>
        <time>2019-10-28T15:10:07.000Z</time>
      </trkpt>
      <trkpt lat="37.39785857498645782470703125" lon="-2.98495329916477203369140625">
        <ele>1210.199951171875</ele>
        <time>2019-10-28T15:10:32.000Z</time>
      </trkpt>
      <trkpt lat="37.3978701420128345489501953125" lon="-2.98519025556743144989013671875">
        <ele>1212.800048828125</ele>
        <time>2019-10-28T15:10:52.000Z</time>
      </trkpt>
      <trkpt lat="37.3979075253009796142578125" lon="-2.98542394302785396575927734375">
        <ele>1215.199951171875</ele>
        <time>2019-10-28T15:11:09.000Z</time>
      </trkpt>
      <trkpt lat="37.3979485966265201568603515625" lon="-2.98552067019045352935791015625">
        <ele>1214.800048828125</ele>
        <time>2019-10-28T15:11:17.000Z</time>
      </trkpt>
      <trkpt lat="37.39802889525890350341796875" lon="-2.98573172651231288909912109375">
        <ele>1214</ele>
        <time>2019-10-28T15:11:39.000Z</time>
      </trkpt>
      <trkpt lat="37.3981105349957942962646484375" lon="-2.9859787411987781524658203125">
        <ele>1212.800048828125</ele>
        <time>2019-10-28T15:11:44.000Z</time>
      </trkpt>
      <trkpt lat="37.398184798657894134521484375" lon="-2.986196838319301605224609375">
        <ele>1211.199951171875</ele>
        <time>2019-10-28T15:11:48.000Z</time>
      </trkpt>
      <trkpt lat="37.39826451055705547332763671875" lon="-2.9864347167313098907470703125">
        <ele>1209.5999755859375</ele>
        <time>2019-10-28T15:11:52.000Z</time>
      </trkpt>
      <trkpt lat="37.39836107008159160614013671875" lon="-2.9867046140134334564208984375">
        <ele>1208.800048828125</ele>
        <time>2019-10-28T15:11:56.000Z</time>
      </trkpt>
      <trkpt lat="37.3984206654131412506103515625" lon="-2.9869414865970611572265625">
        <ele>1209</ele>
        <time>2019-10-28T15:11:59.000Z</time>
      </trkpt>
      <trkpt lat="37.39847003482282161712646484375" lon="-2.98721096478402614593505859375">
        <ele>1209</ele>
        <time>2019-10-28T15:12:02.000Z</time>
      </trkpt>
      <trkpt lat="37.39851563237607479095458984375" lon="-2.9874599911272525787353515625">
        <ele>1210</ele>
        <time>2019-10-28T15:12:05.000Z</time>
      </trkpt>
      <trkpt lat="37.39854077808558940887451171875" lon="-2.98761673271656036376953125">
        <ele>1210</ele>
        <time>2019-10-28T15:12:07.000Z</time>
      </trkpt>
      <trkpt lat="37.3985051549971103668212890625" lon="-2.9878904856741428375244140625">
        <ele>1211</ele>
        <time>2019-10-28T15:12:11.000Z</time>
      </trkpt>
      <trkpt lat="37.398452349007129669189453125" lon="-2.98813397996127605438232421875">
        <ele>1211.800048828125</ele>
        <time>2019-10-28T15:12:16.000Z</time>
      </trkpt>
      <trkpt lat="37.398402392864227294921875" lon="-2.988385856151580810546875">
        <ele>1212</ele>
        <time>2019-10-28T15:12:22.000Z</time>
      </trkpt>
      <trkpt lat="37.3983405344188213348388671875" lon="-2.98862985335290431976318359375">
        <ele>1212</ele>
        <time>2019-10-28T15:12:28.000Z</time>
      </trkpt>
      <trkpt lat="37.3982899077236652374267578125" lon="-2.98878240399062633514404296875">
        <ele>1212.199951171875</ele>
        <time>2019-10-28T15:12:32.000Z</time>
      </trkpt>
      <trkpt lat="37.3982127942144870758056640625" lon="-2.9889898560941219329833984375">
        <ele>1213.800048828125</ele>
        <time>2019-10-28T15:12:37.000Z</time>
      </trkpt>
      <trkpt lat="37.398107685148715972900390625" lon="-2.98918574117124080657958984375">
        <ele>1214.5999755859375</ele>
        <time>2019-10-28T15:12:42.000Z</time>
      </trkpt>
      <trkpt lat="37.3979586549103260040283203125" lon="-2.9893351905047893524169921875">
        <ele>1214.800048828125</ele>
        <time>2019-10-28T15:12:47.000Z</time>
      </trkpt>
      <trkpt lat="37.39777282811701297760009765625" lon="-2.9894662834703922271728515625">
        <ele>1214</ele>
        <time>2019-10-28T15:12:53.000Z</time>
      </trkpt>
      <trkpt lat="37.39760569296777248382568359375" lon="-2.989589832723140716552734375">
        <ele>1213.4000244140625</ele>
        <time>2019-10-28T15:12:59.000Z</time>
      </trkpt>
      <trkpt lat="37.39744995720684528350830078125" lon="-2.98975889571011066436767578125">
        <ele>1213</ele>
        <time>2019-10-28T15:13:06.000Z</time>
      </trkpt>
      <trkpt lat="37.39748063497245311737060546875" lon="-2.98998218961060047149658203125">
        <ele>1214.800048828125</ele>
        <time>2019-10-28T15:13:13.000Z</time>
      </trkpt>
      <trkpt lat="37.3974822275340557098388671875" lon="-2.99000783823430538177490234375">
        <ele>1215.199951171875</ele>
        <time>2019-10-28T15:13:14.000Z</time>
      </trkpt>
      <trkpt lat="37.39737284369766712188720703125" lon="-2.99021252430975437164306640625">
        <ele>1216.800048828125</ele>
        <time>2019-10-28T15:13:22.000Z</time>
      </trkpt>
      <trkpt lat="37.39729204215109348297119140625" lon="-2.9904617182910442352294921875">
        <ele>1217.5999755859375</ele>
        <time>2019-10-28T15:13:29.000Z</time>
      </trkpt>
      <trkpt lat="37.39722079597413539886474609375" lon="-2.990688867866992950439453125">
        <ele>1216.199951171875</ele>
        <time>2019-10-28T15:13:34.000Z</time>
      </trkpt>
      <trkpt lat="37.39718190394341945648193359375" lon="-2.9909109883010387420654296875">
        <ele>1216</ele>
        <time>2019-10-28T15:13:38.000Z</time>
      </trkpt>
      <trkpt lat="37.3971942253410816192626953125" lon="-2.9911641217768192291259765625">
        <ele>1216.800048828125</ele>
        <time>2019-10-28T15:13:42.000Z</time>
      </trkpt>
      <trkpt lat="37.39724929444491863250732421875" lon="-2.9914149083197116851806640625">
        <ele>1216.199951171875</ele>
        <time>2019-10-28T15:13:46.000Z</time>
      </trkpt>
      <trkpt lat="37.3973347060382366180419921875" lon="-2.9916469193994998931884765625">
        <ele>1215.5999755859375</ele>
        <time>2019-10-28T15:13:50.000Z</time>
      </trkpt>
      <trkpt lat="37.39744559861719608306884765625" lon="-2.99187549389898777008056640625">
        <ele>1214.5999755859375</ele>
        <time>2019-10-28T15:13:54.000Z</time>
      </trkpt>
      <trkpt lat="37.39753075875341892242431640625" lon="-2.992052100598812103271484375">
        <ele>1214.199951171875</ele>
        <time>2019-10-28T15:13:57.000Z</time>
      </trkpt>
      <trkpt lat="37.3975271545350551605224609375" lon="-2.99227916635572910308837890625">
        <ele>1214</ele>
        <time>2019-10-28T15:14:02.000Z</time>
      </trkpt>
      <trkpt lat="37.39750242792069911956787109375" lon="-2.9922494105994701385498046875">
        <ele>1214</ele>
        <time>2019-10-28T15:14:32.000Z</time>
      </trkpt>
      <trkpt lat="37.39751994609832763671875" lon="-2.99218453466892242431640625">
        <ele>1214</ele>
        <time>2019-10-28T15:14:36.000Z</time>
      </trkpt>
      <trkpt lat="37.39749647676944732666015625" lon="-2.9919433034956455230712890625">
        <ele>1214.4000244140625</ele>
        <time>2019-10-28T15:14:44.000Z</time>
      </trkpt>
      <trkpt lat="37.39740469492971897125244140625" lon="-2.99172612838447093963623046875">
        <ele>1215.199951171875</ele>
        <time>2019-10-28T15:14:50.000Z</time>
      </trkpt>
      <trkpt lat="37.39730335772037506103515625" lon="-2.99149646423757076263427734375">
        <ele>1216</ele>
        <time>2019-10-28T15:14:56.000Z</time>
      </trkpt>
      <trkpt lat="37.39724175073206424713134765625" lon="-2.9912586696445941925048828125">
        <ele>1216.800048828125</ele>
        <time>2019-10-28T15:15:02.000Z</time>
      </trkpt>
      <trkpt lat="37.3972163535654544830322265625" lon="-2.991010732948780059814453125">
        <ele>1216.199951171875</ele>
        <time>2019-10-28T15:15:08.000Z</time>
      </trkpt>
      <trkpt lat="37.39722867496311664581298828125" lon="-2.990753240883350372314453125">
        <ele>1216.199951171875</ele>
        <time>2019-10-28T15:15:14.000Z</time>
      </trkpt>
      <trkpt lat="37.39729606546461582183837890625" lon="-2.990509159862995147705078125">
        <ele>1217.4000244140625</ele>
        <time>2019-10-28T15:15:20.000Z</time>
      </trkpt>
      <trkpt lat="37.3973789624869823455810546875" lon="-2.9902862012386322021484375">
        <ele>1217.4000244140625</ele>
        <time>2019-10-28T15:15:26.000Z</time>
      </trkpt>
      <trkpt lat="37.39747560583055019378662109375" lon="-2.9900617338716983795166015625">
        <ele>1216</ele>
        <time>2019-10-28T15:15:32.000Z</time>
      </trkpt>
      <trkpt lat="37.3975400626659393310546875" lon="-2.99003214575350284576416015625">
        <ele>1215.800048828125</ele>
        <time>2019-10-28T15:15:35.000Z</time>
      </trkpt>
      <trkpt lat="37.39759278483688831329345703125" lon="-2.99015276134014129638671875">
        <ele>1216.5999755859375</ele>
        <time>2019-10-28T15:15:40.000Z</time>
      </trkpt>
      <trkpt lat="37.39750720560550689697265625" lon="-2.990374378859996795654296875">
        <ele>1218.5999755859375</ele>
        <time>2019-10-28T15:15:46.000Z</time>
      </trkpt>
      <trkpt lat="37.3974193632602691650390625" lon="-2.99062105827033519744873046875">
        <ele>1217.800048828125</ele>
        <time>2019-10-28T15:15:52.000Z</time>
      </trkpt>
      <trkpt lat="37.3973906971514225006103515625" lon="-2.9908503033220767974853515625">
        <ele>1217.199951171875</ele>
        <time>2019-10-28T15:15:57.000Z</time>
      </trkpt>
      <trkpt lat="37.397395558655261993408203125" lon="-2.99111424945294857025146484375">
        <ele>1216.800048828125</ele>
        <time>2019-10-28T15:16:03.000Z</time>
      </trkpt>
      <trkpt lat="37.397461943328380584716796875" lon="-2.9913716576993465423583984375">
        <ele>1216</ele>
        <time>2019-10-28T15:16:09.000Z</time>
      </trkpt>
      <trkpt lat="37.39756529219448566436767578125" lon="-2.9916058480739593505859375">
        <ele>1215.4000244140625</ele>
        <time>2019-10-28T15:16:15.000Z</time>
      </trkpt>
      <trkpt lat="37.397679202258586883544921875" lon="-2.99179033376276493072509765625">
        <ele>1215</ele>
        <time>2019-10-28T15:16:20.000Z</time>
      </trkpt>
      <trkpt lat="37.3978332616388797760009765625" lon="-2.99197540618479251861572265625">
        <ele>1213.800048828125</ele>
        <time>2019-10-28T15:16:25.000Z</time>
      </trkpt>
      <trkpt lat="37.3979918472468852996826171875" lon="-2.992161400616168975830078125">
        <ele>1214.199951171875</ele>
        <time>2019-10-28T15:16:30.000Z</time>
      </trkpt>
      <trkpt lat="37.398153282701969146728515625" lon="-2.99233649857342243194580078125">
        <ele>1214.4000244140625</ele>
        <time>2019-10-28T15:16:35.000Z</time>
      </trkpt>
      <trkpt lat="37.39830784499645233154296875" lon="-2.9925072379410266876220703125">
        <ele>1214.5999755859375</ele>
        <time>2019-10-28T15:16:40.000Z</time>
      </trkpt>
      <trkpt lat="37.398449666798114776611328125" lon="-2.99265216104686260223388671875">
        <ele>1214</ele>
        <time>2019-10-28T15:16:44.000Z</time>
      </trkpt>
      <trkpt lat="37.39863247610628604888916015625" lon="-2.99281896091997623443603515625">
        <ele>1212.800048828125</ele>
        <time>2019-10-28T15:16:48.000Z</time>
      </trkpt>
      <trkpt lat="37.39879994653165340423583984375" lon="-2.99297084100544452667236328125">
        <ele>1211.5999755859375</ele>
        <time>2019-10-28T15:16:51.000Z</time>
      </trkpt>
      <trkpt lat="37.398976720869541168212890625" lon="-2.9931362159550189971923828125">
        <ele>1211</ele>
        <time>2019-10-28T15:16:54.000Z</time>
      </trkpt>
      <trkpt lat="37.3990315385162830352783203125" lon="-2.9932012595236301422119140625">
        <ele>1211</ele>
        <time>2019-10-28T15:16:55.000Z</time>
      </trkpt>
      <trkpt lat="37.399110496044158935546875" lon="-2.99345363862812519073486328125">
        <ele>1212</ele>
        <time>2019-10-28T15:16:58.000Z</time>
      </trkpt>
      <trkpt lat="37.39911544136703014373779296875" lon="-2.99354349263012409210205078125">
        <ele>1212</ele>
        <time>2019-10-28T15:16:59.000Z</time>
      </trkpt>
      <trkpt lat="37.399126924574375152587890625" lon="-2.99382545985281467437744140625">
        <ele>1211.800048828125</ele>
        <time>2019-10-28T15:17:02.000Z</time>
      </trkpt>
      <trkpt lat="37.399143688380718231201171875" lon="-2.9941215924918651580810546875">
        <ele>1210.5999755859375</ele>
        <time>2019-10-28T15:17:05.000Z</time>
      </trkpt>
      <trkpt lat="37.3991627991199493408203125" lon="-2.99443230964243412017822265625">
        <ele>1209.5999755859375</ele>
        <time>2019-10-28T15:17:08.000Z</time>
      </trkpt>
      <trkpt lat="37.3992025293409824371337890625" lon="-2.99475300125777721405029296875">
        <ele>1208.4000244140625</ele>
        <time>2019-10-28T15:17:11.000Z</time>
      </trkpt>
      <trkpt lat="37.39922943525016307830810546875" lon="-2.994857691228389739990234375">
        <ele>1207.5999755859375</ele>
        <time>2019-10-28T15:17:12.000Z</time>
      </trkpt>
      <trkpt lat="37.3993202112615108489990234375" lon="-2.99505307339131832122802734375">
        <ele>1206</ele>
        <time>2019-10-28T15:17:14.000Z</time>
      </trkpt>
      <trkpt lat="37.39944518543779850006103515625" lon="-2.99522775225341320037841796875">
        <ele>1205.4000244140625</ele>
        <time>2019-10-28T15:17:16.000Z</time>
      </trkpt>
      <trkpt lat="37.3995951376855373382568359375" lon="-2.99537611193954944610595703125">
        <ele>1204.800048828125</ele>
        <time>2019-10-28T15:17:18.000Z</time>
      </trkpt>
      <trkpt lat="37.39976637996733188629150390625" lon="-2.99549010582268238067626953125">
        <ele>1204.4000244140625</ele>
        <time>2019-10-28T15:17:20.000Z</time>
      </trkpt>
      <trkpt lat="37.39995296113193035125732421875" lon="-2.9955696500837802886962890625">
        <ele>1204</ele>
        <time>2019-10-28T15:17:22.000Z</time>
      </trkpt>
      <trkpt lat="37.40014960058033466339111328125" lon="-2.9956320114433765411376953125">
        <ele>1202.4000244140625</ele>
        <time>2019-10-28T15:17:24.000Z</time>
      </trkpt>
      <trkpt lat="37.400350682437419891357421875" lon="-2.9956943728029727935791015625">
        <ele>1200.5999755859375</ele>
        <time>2019-10-28T15:17:26.000Z</time>
      </trkpt>
      <trkpt lat="37.4005526863038539886474609375" lon="-2.9957620985805988311767578125">
        <ele>1199.199951171875</ele>
        <time>2019-10-28T15:17:28.000Z</time>
      </trkpt>
      <trkpt lat="37.40075536072254180908203125" lon="-2.99584097228944301605224609375">
        <ele>1198.4000244140625</ele>
        <time>2019-10-28T15:17:30.000Z</time>
      </trkpt>
      <trkpt lat="37.400955855846405029296875" lon="-2.99593166448175907135009765625">
        <ele>1197.4000244140625</ele>
        <time>2019-10-28T15:17:32.000Z</time>
      </trkpt>
      <trkpt lat="37.4010522477328777313232421875" lon="-2.99599000252783298492431640625">
        <ele>1196.800048828125</ele>
        <time>2019-10-28T15:17:33.000Z</time>
      </trkpt>
      <trkpt lat="37.4012393318116664886474609375" lon="-2.9961168207228183746337890625">
        <ele>1195.4000244140625</ele>
        <time>2019-10-28T15:17:35.000Z</time>
      </trkpt>
      <trkpt lat="37.40141644142568111419677734375" lon="-2.99626006744801998138427734375">
        <ele>1192.5999755859375</ele>
        <time>2019-10-28T15:17:37.000Z</time>
      </trkpt>
      <trkpt lat="37.40159497596323490142822265625" lon="-2.99641706049442291259765625">
        <ele>1190.800048828125</ele>
        <time>2019-10-28T15:17:39.000Z</time>
      </trkpt>
      <trkpt lat="37.4017787910997867584228515625" lon="-2.996570952236652374267578125">
        <ele>1188.800048828125</ele>
        <time>2019-10-28T15:17:41.000Z</time>
      </trkpt>
      <trkpt lat="37.4019605107605457305908203125" lon="-2.99670162610709667205810546875">
        <ele>1189.199951171875</ele>
        <time>2019-10-28T15:17:43.000Z</time>
      </trkpt>
      <trkpt lat="37.402132339775562286376953125" lon="-2.99680170603096485137939453125">
        <ele>1188.5999755859375</ele>
        <time>2019-10-28T15:17:45.000Z</time>
      </trkpt>
      <trkpt lat="37.4023170769214630126953125" lon="-2.9969154484570026397705078125">
        <ele>1186.5999755859375</ele>
        <time>2019-10-28T15:17:48.000Z</time>
      </trkpt>
      <trkpt lat="37.40241833031177520751953125" lon="-2.996994070708751678466796875">
        <ele>1185.5999755859375</ele>
        <time>2019-10-28T15:17:54.000Z</time>
      </trkpt>
      <trkpt lat="37.4023822881281375885009765625" lon="-2.9969885386526584625244140625">
        <ele>1185.4000244140625</ele>
        <time>2019-10-28T15:20:45.000Z</time>
      </trkpt>
      <trkpt lat="37.40251354873180389404296875" lon="-2.99715894274413585662841796875">
        <ele>1184</ele>
        <time>2019-10-28T15:20:52.000Z</time>
      </trkpt>
      <trkpt lat="37.40264363586902618408203125" lon="-2.9973171092569828033447265625">
        <ele>1184.4000244140625</ele>
        <time>2019-10-28T15:20:56.000Z</time>
      </trkpt>
      <trkpt lat="37.402794845402240753173828125" lon="-2.99751450307667255401611328125">
        <ele>1184.800048828125</ele>
        <time>2019-10-28T15:21:00.000Z</time>
      </trkpt>
      <trkpt lat="37.40292333997786045074462890625" lon="-2.997684068977832794189453125">
        <ele>1185.5999755859375</ele>
        <time>2019-10-28T15:21:03.000Z</time>
      </trkpt>
      <trkpt lat="37.40305292420089244842529296875" lon="-2.99787760712206363677978515625">
        <ele>1186</ele>
        <time>2019-10-28T15:21:06.000Z</time>
      </trkpt>
      <trkpt lat="37.4031594581902027130126953125" lon="-2.99811699427664279937744140625">
        <ele>1186.199951171875</ele>
        <time>2019-10-28T15:21:09.000Z</time>
      </trkpt>
      <trkpt lat="37.4032476358115673065185546875" lon="-2.99839979968965053558349609375">
        <ele>1186</ele>
        <time>2019-10-28T15:21:12.000Z</time>
      </trkpt>
      <trkpt lat="37.40332332439720630645751953125" lon="-2.998705320060253143310546875">
        <ele>1185.4000244140625</ele>
        <time>2019-10-28T15:21:15.000Z</time>
      </trkpt>
      <trkpt lat="37.40337453782558441162109375" lon="-2.9989294521510601043701171875">
        <ele>1183.800048828125</ele>
        <time>2019-10-28T15:21:17.000Z</time>
      </trkpt>
      <trkpt lat="37.40342474542558193206787109375" lon="-2.99915400333702564239501953125">
        <ele>1181</ele>
        <time>2019-10-28T15:21:19.000Z</time>
      </trkpt>
      <trkpt lat="37.4034997634589672088623046875" lon="-2.99936941824853420257568359375">
        <ele>1180.800048828125</ele>
        <time>2019-10-28T15:21:21.000Z</time>
      </trkpt>
      <trkpt lat="37.403616607189178466796875" lon="-2.99955432303249835968017578125">
        <ele>1178.800048828125</ele>
        <time>2019-10-28T15:21:23.000Z</time>
      </trkpt>
      <trkpt lat="37.4037689901888370513916015625" lon="-2.999701760709285736083984375">
        <ele>1178</ele>
        <time>2019-10-28T15:21:25.000Z</time>
      </trkpt>
      <trkpt lat="37.4039543978869915008544921875" lon="-2.99980293028056621551513671875">
        <ele>1176.800048828125</ele>
        <time>2019-10-28T15:21:27.000Z</time>
      </trkpt>
      <trkpt lat="37.4041337706148624420166015625" lon="-2.99991189502179622650146484375">
        <ele>1177</ele>
        <time>2019-10-28T15:21:29.000Z</time>
      </trkpt>
      <trkpt lat="37.4043094553053379058837890625" lon="-3.00004608929157257080078125">
        <ele>1175.4000244140625</ele>
        <time>2019-10-28T15:21:31.000Z</time>
      </trkpt>
      <trkpt lat="37.404491342604160308837890625" lon="-3.000164441764354705810546875">
        <ele>1168.4000244140625</ele>
        <time>2019-10-28T15:21:33.000Z</time>
      </trkpt>
      <trkpt lat="37.40466509945690631866455078125" lon="-3.00029142759740352630615234375">
        <ele>1168.4000244140625</ele>
        <time>2019-10-28T15:21:35.000Z</time>
      </trkpt>
      <trkpt lat="37.4048257805407047271728515625" lon="-3.00043442286550998687744140625">
        <ele>1167.800048828125</ele>
        <time>2019-10-28T15:21:37.000Z</time>
      </trkpt>
      <trkpt lat="37.40489828400313854217529296875" lon="-3.0005188286304473876953125">
        <ele>1167.199951171875</ele>
        <time>2019-10-28T15:21:38.000Z</time>
      </trkpt>
      <trkpt lat="37.404996939003467559814453125" lon="-3.00072577781975269317626953125">
        <ele>1164.800048828125</ele>
        <time>2019-10-28T15:21:40.000Z</time>
      </trkpt>
      <trkpt lat="37.40502543747425079345703125" lon="-3.00096876919269561767578125">
        <ele>1162.199951171875</ele>
        <time>2019-10-28T15:21:42.000Z</time>
      </trkpt>
      <trkpt lat="37.404984869062900543212890625" lon="-3.0012113414704799652099609375">
        <ele>1157.800048828125</ele>
        <time>2019-10-28T15:21:44.000Z</time>
      </trkpt>
      <trkpt lat="37.404844723641872406005859375" lon="-3.0014012753963470458984375">
        <ele>1156</ele>
        <time>2019-10-28T15:21:46.000Z</time>
      </trkpt>
      <trkpt lat="37.4046467430889606475830078125" lon="-3.00149758346378803253173828125">
        <ele>1155.4000244140625</ele>
        <time>2019-10-28T15:21:48.000Z</time>
      </trkpt>
      <trkpt lat="37.40443057380616664886474609375" lon="-3.00150076858699321746826171875">
        <ele>1155.199951171875</ele>
        <time>2019-10-28T15:21:50.000Z</time>
      </trkpt>
      <trkpt lat="37.40424080751836299896240234375" lon="-3.0014218948781490325927734375">
        <ele>1155.5999755859375</ele>
        <time>2019-10-28T15:21:52.000Z</time>
      </trkpt>
      <trkpt lat="37.4041528813540935516357421875" lon="-3.00136615522205829620361328125">
        <ele>1155.800048828125</ele>
        <time>2019-10-28T15:21:53.000Z</time>
      </trkpt>
      <trkpt lat="37.4039775319397449493408203125" lon="-3.001249730587005615234375">
        <ele>1154.5999755859375</ele>
        <time>2019-10-28T15:21:55.000Z</time>
      </trkpt>
      <trkpt lat="37.4038057029247283935546875" lon="-3.0011208169162273406982421875">
        <ele>1153.800048828125</ele>
        <time>2019-10-28T15:21:57.000Z</time>
      </trkpt>
      <trkpt lat="37.4036358855664730072021484375" lon="-3.00100137479603290557861328125">
        <ele>1151.800048828125</ele>
        <time>2019-10-28T15:21:59.000Z</time>
      </trkpt>
      <trkpt lat="37.403464727103710174560546875" lon="-3.000874556601047515869140625">
        <ele>1152.4000244140625</ele>
        <time>2019-10-28T15:22:01.000Z</time>
      </trkpt>
      <trkpt lat="37.40328912623226642608642578125" lon="-3.00074480473995208740234375">
        <ele>1152.199951171875</ele>
        <time>2019-10-28T15:22:03.000Z</time>
      </trkpt>
      <trkpt lat="37.403106652200222015380859375" lon="-3.000620417296886444091796875">
        <ele>1152.199951171875</ele>
        <time>2019-10-28T15:22:05.000Z</time>
      </trkpt>
      <trkpt lat="37.4029177241027355194091796875" lon="-3.00050382502377033233642578125">
        <ele>1151.800048828125</ele>
        <time>2019-10-28T15:22:07.000Z</time>
      </trkpt>
      <trkpt lat="37.4027168937027454376220703125" lon="-3.000409193336963653564453125">
        <ele>1150.800048828125</ele>
        <time>2019-10-28T15:22:09.000Z</time>
      </trkpt>
      <trkpt lat="37.40250273607671260833740234375" lon="-3.00035412423312664031982421875">
        <ele>1149</ele>
        <time>2019-10-28T15:22:11.000Z</time>
      </trkpt>
      <trkpt lat="37.40227885544300079345703125" lon="-3.00034741871058940887451171875">
        <ele>1147.4000244140625</ele>
        <time>2019-10-28T15:22:13.000Z</time>
      </trkpt>
      <trkpt lat="37.40205329842865467071533203125" lon="-3.00037139095366001129150390625">
        <ele>1145.4000244140625</ele>
        <time>2019-10-28T15:22:15.000Z</time>
      </trkpt>
      <trkpt lat="37.40182648412883281707763671875" lon="-3.00040257163345813751220703125">
        <ele>1143.5999755859375</ele>
        <time>2019-10-28T15:22:17.000Z</time>
      </trkpt>
      <trkpt lat="37.4015990830957889556884765625" lon="-3.00042235292494297027587890625">
        <ele>1142.199951171875</ele>
        <time>2019-10-28T15:22:19.000Z</time>
      </trkpt>
      <trkpt lat="37.4013660661876201629638671875" lon="-3.00039687193930149078369140625">
        <ele>1143.199951171875</ele>
        <time>2019-10-28T15:22:21.000Z</time>
      </trkpt>
      <trkpt lat="37.40113967098295688629150390625" lon="-3.00031892023980617523193359375">
        <ele>1144.4000244140625</ele>
        <time>2019-10-28T15:22:23.000Z</time>
      </trkpt>
      <trkpt lat="37.40091185085475444793701171875" lon="-3.000241219997406005859375">
        <ele>1144</ele>
        <time>2019-10-28T15:22:25.000Z</time>
      </trkpt>
      <trkpt lat="37.4006807617843151092529296875" lon="-3.00019889138638973236083984375">
        <ele>1143.4000244140625</ele>
        <time>2019-10-28T15:22:27.000Z</time>
      </trkpt>
      <trkpt lat="37.4004433862864971160888671875" lon="-3.00021381117403507232666015625">
        <ele>1142.4000244140625</ele>
        <time>2019-10-28T15:22:29.000Z</time>
      </trkpt>
      <trkpt lat="37.40021028555929660797119140625" lon="-3.0002906732261180877685546875">
        <ele>1140.800048828125</ele>
        <time>2019-10-28T15:22:31.000Z</time>
      </trkpt>
      <trkpt lat="37.40009444765746593475341796875" lon="-3.00033970735967159271240234375">
        <ele>1140.4000244140625</ele>
        <time>2019-10-28T15:22:32.000Z</time>
      </trkpt>
      <trkpt lat="37.39986746571958065032958984375" lon="-3.00044431351125240325927734375">
        <ele>1138.5999755859375</ele>
        <time>2019-10-28T15:22:34.000Z</time>
      </trkpt>
      <trkpt lat="37.399645932018756866455078125" lon="-3.00056132487952709197998046875">
        <ele>1135.5999755859375</ele>
        <time>2019-10-28T15:22:36.000Z</time>
      </trkpt>
      <trkpt lat="37.39942288957536220550537109375" lon="-3.0006819404661655426025390625">
        <ele>1133.199951171875</ele>
        <time>2019-10-28T15:22:38.000Z</time>
      </trkpt>
      <trkpt lat="37.39919993095099925994873046875" lon="-3.0007999576628208160400390625">
        <ele>1131.800048828125</ele>
        <time>2019-10-28T15:22:40.000Z</time>
      </trkpt>
      <trkpt lat="37.39897345192730426788330078125" lon="-3.0009273625910282135009765625">
        <ele>1130</ele>
        <time>2019-10-28T15:22:42.000Z</time>
      </trkpt>
      <trkpt lat="37.398748733103275299072265625" lon="-3.00104789435863494873046875">
        <ele>1128.800048828125</ele>
        <time>2019-10-28T15:22:44.000Z</time>
      </trkpt>
      <trkpt lat="37.39852569065988063812255859375" lon="-3.0011707730591297149658203125">
        <ele>1128.199951171875</ele>
        <time>2019-10-28T15:22:46.000Z</time>
      </trkpt>
      <trkpt lat="37.39831446669995784759521484375" lon="-3.00128283910453319549560546875">
        <ele>1127.5999755859375</ele>
        <time>2019-10-28T15:22:48.000Z</time>
      </trkpt>
      <trkpt lat="37.39811229519546031951904296875" lon="-3.0013598687946796417236328125">
        <ele>1124.800048828125</ele>
        <time>2019-10-28T15:22:50.000Z</time>
      </trkpt>
      <trkpt lat="37.39790442399680614471435546875" lon="-3.00135659985244274139404296875">
        <ele>1123</ele>
        <time>2019-10-28T15:22:52.000Z</time>
      </trkpt>
      <trkpt lat="37.3977117240428924560546875" lon="-3.00124906003475189208984375">
        <ele>1121.4000244140625</ele>
        <time>2019-10-28T15:22:54.000Z</time>
      </trkpt>
      <trkpt lat="37.3975593410432338714599609375" lon="-3.00105870701372623443603515625">
        <ele>1120.199951171875</ele>
        <time>2019-10-28T15:22:56.000Z</time>
      </trkpt>
      <trkpt lat="37.3974486999213695526123046875" lon="-3.000851757824420928955078125">
        <ele>1120</ele>
        <time>2019-10-28T15:22:58.000Z</time>
      </trkpt>
      <trkpt lat="37.3973035253584384918212890625" lon="-3.000576160848140716552734375">
        <ele>1121.5999755859375</ele>
        <time>2019-10-28T15:23:01.000Z</time>
      </trkpt>
      <trkpt lat="37.39716748706996440887451171875" lon="-3.00035546533763408660888671875">
        <ele>1121.199951171875</ele>
        <time>2019-10-28T15:23:04.000Z</time>
      </trkpt>
      <trkpt lat="37.3971201293170452117919921875" lon="-3.00030291080474853515625">
        <ele>1121.199951171875</ele>
        <time>2019-10-28T15:23:05.000Z</time>
      </trkpt>
      <trkpt lat="37.3969566822052001953125" lon="-3.000206016004085540771484375">
        <ele>1119.199951171875</ele>
        <time>2019-10-28T15:23:08.000Z</time>
      </trkpt>
      <trkpt lat="37.39674746990203857421875" lon="-3.00020207650959491729736328125">
        <ele>1117.4000244140625</ele>
        <time>2019-10-28T15:23:12.000Z</time>
      </trkpt>
      <trkpt lat="37.39661109633743762969970703125" lon="-3.000284470617771148681640625">
        <ele>1116</ele>
        <time>2019-10-28T15:23:15.000Z</time>
      </trkpt>
      <trkpt lat="37.39643038250505924224853515625" lon="-3.00040818750858306884765625">
        <ele>1115.800048828125</ele>
        <time>2019-10-28T15:23:19.000Z</time>
      </trkpt>
      <trkpt lat="37.39627330563962459564208984375" lon="-3.00054774619638919830322265625">
        <ele>1115.5999755859375</ele>
        <time>2019-10-28T15:23:23.000Z</time>
      </trkpt>
      <trkpt lat="37.39608831703662872314453125" lon="-3.0006738938391208648681640625">
        <ele>1116</ele>
        <time>2019-10-28T15:23:28.000Z</time>
      </trkpt>
      <trkpt lat="37.39601723849773406982421875" lon="-3.00072326324880123138427734375">
        <ele>1116.199951171875</ele>
        <time>2019-10-28T15:23:30.000Z</time>
      </trkpt>
      <trkpt lat="37.3959188349545001983642578125" lon="-3.00079903565347194671630859375">
        <ele>1116</ele>
        <time>2019-10-28T15:23:33.000Z</time>
      </trkpt>
      <trkpt lat="37.39585840143263339996337890625" lon="-3.00085988827049732208251953125">
        <ele>1115.800048828125</ele>
        <time>2019-10-28T15:23:35.000Z</time>
      </trkpt>
      <trkpt lat="37.39576402120292186737060546875" lon="-3.000951670110225677490234375">
        <ele>1115.800048828125</ele>
        <time>2019-10-28T15:23:38.000Z</time>
      </trkpt>
      <trkpt lat="37.3956579901278018951416015625" lon="-3.00116993486881256103515625">
        <ele>1115.800048828125</ele>
        <time>2019-10-28T15:23:43.000Z</time>
      </trkpt>
      <trkpt lat="37.3956372030079364776611328125" lon="-3.00126917660236358642578125">
        <ele>1116</ele>
        <time>2019-10-28T15:23:45.000Z</time>
      </trkpt>
      <trkpt lat="37.39563108421862125396728515625" lon="-3.00131888128817081451416015625">
        <ele>1116.4000244140625</ele>
        <time>2019-10-28T15:23:46.000Z</time>
      </trkpt>
      <trkpt lat="37.3956157453358173370361328125" lon="-3.00156296230852603912353515625">
        <ele>1117.5999755859375</ele>
        <time>2019-10-28T15:23:51.000Z</time>
      </trkpt>
      <trkpt lat="37.39562756381928920745849609375" lon="-3.00179354846477508544921875">
        <ele>1119</ele>
        <time>2019-10-28T15:23:56.000Z</time>
      </trkpt>
      <trkpt lat="37.39565924741327762603759765625" lon="-3.002032935619354248046875">
        <ele>1120</ele>
        <time>2019-10-28T15:24:01.000Z</time>
      </trkpt>
      <trkpt lat="37.39566226489841938018798828125" lon="-3.0022728256881237030029296875">
        <ele>1120</ele>
        <time>2019-10-28T15:24:06.000Z</time>
      </trkpt>
      <trkpt lat="37.39563493989408016204833984375" lon="-3.00253476016223430633544921875">
        <ele>1118.4000244140625</ele>
        <time>2019-10-28T15:24:12.000Z</time>
      </trkpt>
      <trkpt lat="37.3956123925745487213134765625" lon="-3.0026184953749179840087890625">
        <ele>1118.800048828125</ele>
        <time>2019-10-28T15:24:14.000Z</time>
      </trkpt>
      <trkpt lat="37.3955552279949188232421875" lon="-3.00278018228709697723388671875">
        <ele>1119</ele>
        <time>2019-10-28T15:24:18.000Z</time>
      </trkpt>
      <trkpt lat="37.395450286567211151123046875" lon="-3.0029872991144657135009765625">
        <ele>1119.800048828125</ele>
        <time>2019-10-28T15:24:24.000Z</time>
      </trkpt>
      <trkpt lat="37.39535464905202388763427734375" lon="-3.00313758663833141326904296875">
        <ele>1120.5999755859375</ele>
        <time>2019-10-28T15:24:29.000Z</time>
      </trkpt>
      <trkpt lat="37.395316846668720245361328125" lon="-3.003190644085407257080078125">
        <ele>1121</ele>
        <time>2019-10-28T15:24:31.000Z</time>
      </trkpt>
      <trkpt lat="37.39521115086972713470458984375" lon="-3.00332249142229557037353515625">
        <ele>1122.199951171875</ele>
        <time>2019-10-28T15:24:36.000Z</time>
      </trkpt>
      <trkpt lat="37.39509095437824726104736328125" lon="-3.00349884666502475738525390625">
        <ele>1123</ele>
        <time>2019-10-28T15:24:42.000Z</time>
      </trkpt>
      <trkpt lat="37.395050637423992156982421875" lon="-3.0035559274256229400634765625">
        <ele>1123.199951171875</ele>
        <time>2019-10-28T15:24:44.000Z</time>
      </trkpt>
      <trkpt lat="37.3949425108730792999267578125" lon="-3.00373655743896961212158203125">
        <ele>1123.4000244140625</ele>
        <time>2019-10-28T15:24:50.000Z</time>
      </trkpt>
      <trkpt lat="37.39483916200697422027587890625" lon="-3.0039280839264392852783203125">
        <ele>1124.199951171875</ele>
        <time>2019-10-28T15:24:57.000Z</time>
      </trkpt>
      <trkpt lat="37.39472600631415843963623046875" lon="-3.00412849523127079010009765625">
        <ele>1124.800048828125</ele>
        <time>2019-10-28T15:25:05.000Z</time>
      </trkpt>
      <trkpt lat="37.39461117424070835113525390625" lon="-3.00433167256414890289306640625">
        <ele>1125.800048828125</ele>
        <time>2019-10-28T15:25:13.000Z</time>
      </trkpt>
      <trkpt lat="37.39449240267276763916015625" lon="-3.00452110357582569122314453125">
        <ele>1127.5999755859375</ele>
        <time>2019-10-28T15:25:21.000Z</time>
      </trkpt>
      <trkpt lat="37.39437706768512725830078125" lon="-3.00470852293074131011962890625">
        <ele>1129.5999755859375</ele>
        <time>2019-10-28T15:25:29.000Z</time>
      </trkpt>
      <trkpt lat="37.394271455705165863037109375" lon="-3.0049144662916660308837890625">
        <ele>1131.4000244140625</ele>
        <time>2019-10-28T15:25:37.000Z</time>
      </trkpt>
      <trkpt lat="37.394162155687808990478515625" lon="-3.00509543158113956451416015625">
        <ele>1132.800048828125</ele>
        <time>2019-10-28T15:25:44.000Z</time>
      </trkpt>
      <trkpt lat="37.39404388703405857086181640625" lon="-3.00529123283922672271728515625">
        <ele>1134</ele>
        <time>2019-10-28T15:25:52.000Z</time>
      </trkpt>
      <trkpt lat="37.39393508993089199066162109375" lon="-3.005492985248565673828125">
        <ele>1135.800048828125</ele>
        <time>2019-10-28T15:26:00.000Z</time>
      </trkpt>
      <trkpt lat="37.39391564391553401947021484375" lon="-3.00572994165122509002685546875">
        <ele>1137.800048828125</ele>
        <time>2019-10-28T15:26:08.000Z</time>
      </trkpt>
      <trkpt lat="37.39400264807045459747314453125" lon="-3.00595256499946117401123046875">
        <ele>1139.800048828125</ele>
        <time>2019-10-28T15:26:16.000Z</time>
      </trkpt>
      <trkpt lat="37.39413164556026458740234375" lon="-3.00611098296940326690673828125">
        <ele>1139.5999755859375</ele>
        <time>2019-10-28T15:26:23.000Z</time>
      </trkpt>
      <trkpt lat="37.39428763277828693389892578125" lon="-3.0062445066869258880615234375">
        <ele>1139.199951171875</ele>
        <time>2019-10-28T15:26:30.000Z</time>
      </trkpt>
      <trkpt lat="37.3944446258246898651123046875" lon="-3.00636445172131061553955078125">
        <ele>1138.4000244140625</ele>
        <time>2019-10-28T15:26:37.000Z</time>
      </trkpt>
      <trkpt lat="37.39461268298327922821044921875" lon="-3.00649420358240604400634765625">
        <ele>1137</ele>
        <time>2019-10-28T15:26:44.000Z</time>
      </trkpt>
      <trkpt lat="37.39478115923702716827392578125" lon="-3.0066223628818988800048828125">
        <ele>1136</ele>
        <time>2019-10-28T15:26:51.000Z</time>
      </trkpt>
      <trkpt lat="37.3949436843395233154296875" lon="-3.0067467503249645233154296875">
        <ele>1135</ele>
        <time>2019-10-28T15:26:58.000Z</time>
      </trkpt>
      <trkpt lat="37.395112328231334686279296875" lon="-3.0068758316338062286376953125">
        <ele>1136.199951171875</ele>
        <time>2019-10-28T15:27:05.000Z</time>
      </trkpt>
      <trkpt lat="37.395282648503780364990234375" lon="-3.00699829123914241790771484375">
        <ele>1137.800048828125</ele>
        <time>2019-10-28T15:27:12.000Z</time>
      </trkpt>
      <trkpt lat="37.3954541422426700592041015625" lon="-3.0071269534528255462646484375">
        <ele>1140.199951171875</ele>
        <time>2019-10-28T15:27:19.000Z</time>
      </trkpt>
      <trkpt lat="37.3956237919628620147705078125" lon="-3.0072565376758575439453125">
        <ele>1143</ele>
        <time>2019-10-28T15:27:26.000Z</time>
      </trkpt>
      <trkpt lat="37.3957961238920688629150390625" lon="-3.00738335587084293365478515625">
        <ele>1143.800048828125</ele>
        <time>2019-10-28T15:27:33.000Z</time>
      </trkpt>
      <trkpt lat="37.39596602506935596466064453125" lon="-3.00751394592225551605224609375">
        <ele>1147.5999755859375</ele>
        <time>2019-10-28T15:27:40.000Z</time>
      </trkpt>
      <trkpt lat="37.39613550715148448944091796875" lon="-3.00764503888785839080810546875">
        <ele>1149.4000244140625</ele>
        <time>2019-10-28T15:27:47.000Z</time>
      </trkpt>
      <trkpt lat="37.39630423486232757568359375" lon="-3.00777546130120754241943359375">
        <ele>1151.4000244140625</ele>
        <time>2019-10-28T15:27:54.000Z</time>
      </trkpt>
      <trkpt lat="37.39637531340122222900390625" lon="-3.00782809965312480926513671875">
        <ele>1151.800048828125</ele>
        <time>2019-10-28T15:27:57.000Z</time>
      </trkpt>
      <trkpt lat="37.39654605276882648468017578125" lon="-3.00794477574527263641357421875">
        <ele>1150.5999755859375</ele>
        <time>2019-10-28T15:28:04.000Z</time>
      </trkpt>
      <trkpt lat="37.3967228271067142486572265625" lon="-3.00805726088583469390869140625">
        <ele>1150.4000244140625</ele>
        <time>2019-10-28T15:28:11.000Z</time>
      </trkpt>
      <trkpt lat="37.39689675159752368927001953125" lon="-3.00815532915294170379638671875">
        <ele>1152</ele>
        <time>2019-10-28T15:28:18.000Z</time>
      </trkpt>
      <trkpt lat="37.39708651788532733917236328125" lon="-3.0082129128277301788330078125">
        <ele>1155.4000244140625</ele>
        <time>2019-10-28T15:28:25.000Z</time>
      </trkpt>
      <trkpt lat="37.39727695472538471221923828125" lon="-3.0081995017826557159423828125">
        <ele>1157.5999755859375</ele>
        <time>2019-10-28T15:28:32.000Z</time>
      </trkpt>
      <trkpt lat="37.3974694870412349700927734375" lon="-3.00816438160836696624755859375">
        <ele>1160.4000244140625</ele>
        <time>2019-10-28T15:28:39.000Z</time>
      </trkpt>
      <trkpt lat="37.39765363745391368865966796875" lon="-3.00812297500669956207275390625">
        <ele>1160.800048828125</ele>
        <time>2019-10-28T15:28:46.000Z</time>
      </trkpt>
      <trkpt lat="37.39783317781984806060791015625" lon="-3.0080774612724781036376953125">
        <ele>1160.199951171875</ele>
        <time>2019-10-28T15:28:53.000Z</time>
      </trkpt>
      <trkpt lat="37.39802596159279346466064453125" lon="-3.00802406854927539825439453125">
        <ele>1158.800048828125</ele>
        <time>2019-10-28T15:29:00.000Z</time>
      </trkpt>
      <trkpt lat="37.39822528325021266937255859375" lon="-3.00796103663742542266845703125">
        <ele>1158.5999755859375</ele>
        <time>2019-10-28T15:29:07.000Z</time>
      </trkpt>
      <trkpt lat="37.3984186537563800811767578125" lon="-3.0079292692244052886962890625">
        <ele>1159.4000244140625</ele>
        <time>2019-10-28T15:29:14.000Z</time>
      </trkpt>
      <trkpt lat="37.39861504174768924713134765625" lon="-3.00792734138667583465576171875">
        <ele>1160</ele>
        <time>2019-10-28T15:29:21.000Z</time>
      </trkpt>
      <trkpt lat="37.39880195818841457366943359375" lon="-3.00796489231288433074951171875">
        <ele>1159.199951171875</ele>
        <time>2019-10-28T15:29:28.000Z</time>
      </trkpt>
      <trkpt lat="37.39898552186787128448486328125" lon="-3.00803580321371555328369140625">
        <ele>1160.5999755859375</ele>
        <time>2019-10-28T15:29:35.000Z</time>
      </trkpt>
      <trkpt lat="37.39916338585317134857177734375" lon="-3.0081089772284030914306640625">
        <ele>1161.800048828125</ele>
        <time>2019-10-28T15:29:42.000Z</time>
      </trkpt>
      <trkpt lat="37.39919289015233516693115234375" lon="-3.00811811350286006927490234375">
        <ele>1162</ele>
        <time>2019-10-28T15:29:45.000Z</time>
      </trkpt>
      <trkpt lat="37.39936530590057373046875" lon="-3.0081864260137081146240234375">
        <ele>1163</ele>
        <time>2019-10-28T15:30:04.000Z</time>
      </trkpt>
      <trkpt lat="37.399554736912250518798828125" lon="-3.00823730416595935821533203125">
        <ele>1166.199951171875</ele>
        <time>2019-10-28T15:30:18.000Z</time>
      </trkpt>
      <trkpt lat="37.39974148571491241455078125" lon="-3.00824719481170177459716796875">
        <ele>1168</ele>
        <time>2019-10-28T15:30:31.000Z</time>
      </trkpt>
      <trkpt lat="37.399920858442783355712890625" lon="-3.00827183760702610015869140625">
        <ele>1168.800048828125</ele>
        <time>2019-10-28T15:30:44.000Z</time>
      </trkpt>
      <trkpt lat="37.4001017399132251739501953125" lon="-3.0083155073225498199462890625">
        <ele>1169</ele>
        <time>2019-10-28T15:30:56.000Z</time>
      </trkpt>
      <trkpt lat="37.40028622560203075408935546875" lon="-3.00837912596762180328369140625">
        <ele>1165.5999755859375</ele>
        <time>2019-10-28T15:31:09.000Z</time>
      </trkpt>
      <trkpt lat="37.4004420451819896697998046875" lon="-3.008492030203342437744140625">
        <ele>1166</ele>
        <time>2019-10-28T15:31:22.000Z</time>
      </trkpt>
      <trkpt lat="37.4005610682070255279541015625" lon="-3.00867198966443538665771484375">
        <ele>1168</ele>
        <time>2019-10-28T15:31:35.000Z</time>
      </trkpt>
      <trkpt lat="37.4006458930671215057373046875" lon="-3.0088730715215206146240234375">
        <ele>1170.4000244140625</ele>
        <time>2019-10-28T15:31:48.000Z</time>
      </trkpt>
      <trkpt lat="37.4007283709943294525146484375" lon="-3.0090739019215106964111328125">
        <ele>1172.4000244140625</ele>
        <time>2019-10-28T15:32:00.000Z</time>
      </trkpt>
      <trkpt lat="37.4008096754550933837890625" lon="-3.00929040648043155670166015625">
        <ele>1173.5999755859375</ele>
        <time>2019-10-28T15:32:14.000Z</time>
      </trkpt>
      <trkpt lat="37.40091721527278423309326171875" lon="-3.0094899795949459075927734375">
        <ele>1173.199951171875</ele>
        <time>2019-10-28T15:32:28.000Z</time>
      </trkpt>
      <trkpt lat="37.40105333738029003143310546875" lon="-3.00965032540261745452880859375">
        <ele>1172.800048828125</ele>
        <time>2019-10-28T15:32:41.000Z</time>
      </trkpt>
      <trkpt lat="37.4011967517435550689697265625" lon="-3.00980019383132457733154296875">
        <ele>1172.800048828125</ele>
        <time>2019-10-28T15:32:55.000Z</time>
      </trkpt>
      <trkpt lat="37.401346452534198760986328125" lon="-3.00993514247238636016845703125">
        <ele>1174.5999755859375</ele>
        <time>2019-10-28T15:33:09.000Z</time>
      </trkpt>
      <trkpt lat="37.4014817364513874053955078125" lon="-3.0100901238620281219482421875">
        <ele>1176.800048828125</ele>
        <time>2019-10-28T15:33:22.000Z</time>
      </trkpt>
      <trkpt lat="37.40160562098026275634765625" lon="-3.0102795548737049102783203125">
        <ele>1179.5999755859375</ele>
        <time>2019-10-28T15:33:36.000Z</time>
      </trkpt>
      <trkpt lat="37.40170888602733612060546875" lon="-3.01046873442828655242919921875">
        <ele>1182</ele>
        <time>2019-10-28T15:33:49.000Z</time>
      </trkpt>
      <trkpt lat="37.40176563151180744171142578125" lon="-3.01058189012110233306884765625">
        <ele>1182.199951171875</ele>
        <time>2019-10-28T15:33:58.000Z</time>
      </trkpt>
      <trkpt lat="37.4018066190183162689208984375" lon="-3.01081893034279346466064453125">
        <ele>1183</ele>
        <time>2019-10-28T15:34:13.000Z</time>
      </trkpt>
      <trkpt lat="37.40182497538626194000244140625" lon="-3.011066950857639312744140625">
        <ele>1182.5999755859375</ele>
        <time>2019-10-28T15:34:20.000Z</time>
      </trkpt>
      <trkpt lat="37.4018106423318386077880859375" lon="-3.0113011412322521209716796875">
        <ele>1182.5999755859375</ele>
        <time>2019-10-28T15:34:26.000Z</time>
      </trkpt>
      <trkpt lat="37.401769571006298065185546875" lon="-3.0115453898906707763671875">
        <ele>1182</ele>
        <time>2019-10-28T15:34:31.000Z</time>
      </trkpt>
      <trkpt lat="37.401700504124164581298828125" lon="-3.0118074081838130950927734375">
        <ele>1182</ele>
        <time>2019-10-28T15:34:36.000Z</time>
      </trkpt>
      <trkpt lat="37.40163269452750682830810546875" lon="-3.0120283551514148712158203125">
        <ele>1182.800048828125</ele>
        <time>2019-10-28T15:34:40.000Z</time>
      </trkpt>
      <trkpt lat="37.40155323408544063568115234375" lon="-3.01225525327026844024658203125">
        <ele>1182.4000244140625</ele>
        <time>2019-10-28T15:34:44.000Z</time>
      </trkpt>
      <trkpt lat="37.40147285163402557373046875" lon="-3.0124917067587375640869140625">
        <ele>1181</ele>
        <time>2019-10-28T15:34:48.000Z</time>
      </trkpt>
      <trkpt lat="37.40138391964137554168701171875" lon="-3.01274207420647144317626953125">
        <ele>1179.800048828125</ele>
        <time>2019-10-28T15:34:52.000Z</time>
      </trkpt>
      <trkpt lat="37.40129859186708927154541015625" lon="-3.01300291903316974639892578125">
        <ele>1178.800048828125</ele>
        <time>2019-10-28T15:34:56.000Z</time>
      </trkpt>
      <trkpt lat="37.40121376700699329376220703125" lon="-3.01327130757272243499755859375">
        <ele>1178.199951171875</ele>
        <time>2019-10-28T15:35:00.000Z</time>
      </trkpt>
      <trkpt lat="37.40112341009080410003662109375" lon="-3.01354455761611461639404296875">
        <ele>1176.800048828125</ele>
        <time>2019-10-28T15:35:04.000Z</time>
      </trkpt>
      <trkpt lat="37.40107948891818523406982421875" lon="-3.0136883072555065155029296875">
        <ele>1176.199951171875</ele>
        <time>2019-10-28T15:35:06.000Z</time>
      </trkpt>
      <trkpt lat="37.40100522525608539581298828125" lon="-3.0139012075960636138916015625">
        <ele>1174.4000244140625</ele>
        <time>2019-10-28T15:35:09.000Z</time>
      </trkpt>
      <trkpt lat="37.40093314088881015777587890625" lon="-3.014115281403064727783203125">
        <ele>1172</ele>
        <time>2019-10-28T15:35:12.000Z</time>
      </trkpt>
      <trkpt lat="37.40086206234991550445556640625" lon="-3.01432642154395580291748046875">
        <ele>1170.5999755859375</ele>
        <time>2019-10-28T15:35:15.000Z</time>
      </trkpt>
      <trkpt lat="37.4007686041295528411865234375" lon="-3.01459749229252338409423828125">
        <ele>1172</ele>
        <time>2019-10-28T15:35:19.000Z</time>
      </trkpt>
      <trkpt lat="37.400682605803012847900390625" lon="-3.01486135460436344146728515625">
        <ele>1173</ele>
        <time>2019-10-28T15:35:23.000Z</time>
      </trkpt>
      <trkpt lat="37.40059576928615570068359375" lon="-3.015106022357940673828125">
        <ele>1174</ele>
        <time>2019-10-28T15:35:27.000Z</time>
      </trkpt>
      <trkpt lat="37.4005121178925037384033203125" lon="-3.01533761434257030487060546875">
        <ele>1175.4000244140625</ele>
        <time>2019-10-28T15:35:31.000Z</time>
      </trkpt>
      <trkpt lat="37.4004336632788181304931640625" lon="-3.0155564658343791961669921875">
        <ele>1176.800048828125</ele>
        <time>2019-10-28T15:35:35.000Z</time>
      </trkpt>
      <trkpt lat="37.400358729064464569091796875" lon="-3.015778250992298126220703125">
        <ele>1178.199951171875</ele>
        <time>2019-10-28T15:35:39.000Z</time>
      </trkpt>
      <trkpt lat="37.400281615555286407470703125" lon="-3.0160085856914520263671875">
        <ele>1180</ele>
        <time>2019-10-28T15:35:43.000Z</time>
      </trkpt>
      <trkpt lat="37.40020223893225193023681640625" lon="-3.016240261495113372802734375">
        <ele>1180.800048828125</ele>
        <time>2019-10-28T15:35:47.000Z</time>
      </trkpt>
      <trkpt lat="37.4001211859285831451416015625" lon="-3.01647436805069446563720703125">
        <ele>1178.199951171875</ele>
        <time>2019-10-28T15:35:51.000Z</time>
      </trkpt>
      <trkpt lat="37.40004046820104122161865234375" lon="-3.01671392284333705902099609375">
        <ele>1176</ele>
        <time>2019-10-28T15:35:55.000Z</time>
      </trkpt>
      <trkpt lat="37.3999567329883575439453125" lon="-3.01696638576686382293701171875">
        <ele>1173.800048828125</ele>
        <time>2019-10-28T15:35:59.000Z</time>
      </trkpt>
      <trkpt lat="37.39988825283944606781005859375" lon="-3.017177693545818328857421875">
        <ele>1172</ele>
        <time>2019-10-28T15:36:02.000Z</time>
      </trkpt>
      <trkpt lat="37.39980862475931644439697265625" lon="-3.0174095369875431060791015625">
        <ele>1170.5999755859375</ele>
        <time>2019-10-28T15:36:05.000Z</time>
      </trkpt>
      <trkpt lat="37.39972027949988842010498046875" lon="-3.0176720581948757171630859375">
        <ele>1168</ele>
        <time>2019-10-28T15:36:08.000Z</time>
      </trkpt>
      <trkpt lat="37.39961651153862476348876953125" lon="-3.01795176230370998382568359375">
        <ele>1166.5999755859375</ele>
        <time>2019-10-28T15:36:11.000Z</time>
      </trkpt>
      <trkpt lat="37.399514503777027130126953125" lon="-3.0182403512299060821533203125">
        <ele>1167</ele>
        <time>2019-10-28T15:36:14.000Z</time>
      </trkpt>
      <trkpt lat="37.39941551350057125091552734375" lon="-3.01852089352905750274658203125">
        <ele>1167.800048828125</ele>
        <time>2019-10-28T15:36:17.000Z</time>
      </trkpt>
      <trkpt lat="37.39932297728955745697021484375" lon="-3.01879213191568851470947265625">
        <ele>1167</ele>
        <time>2019-10-28T15:36:20.000Z</time>
      </trkpt>
      <trkpt lat="37.3992327041923999786376953125" lon="-3.01905431784689426422119140625">
        <ele>1166.800048828125</ele>
        <time>2019-10-28T15:36:23.000Z</time>
      </trkpt>
      <trkpt lat="37.39914662204682826995849609375" lon="-3.01930979825556278228759765625">
        <ele>1168</ele>
        <time>2019-10-28T15:36:26.000Z</time>
      </trkpt>
      <trkpt lat="37.39906598813831806182861328125" lon="-3.0195516161620616912841796875">
        <ele>1168</ele>
        <time>2019-10-28T15:36:29.000Z</time>
      </trkpt>
      <trkpt lat="37.3989866115152835845947265625" lon="-3.01977717317640781402587890625">
        <ele>1166.5999755859375</ele>
        <time>2019-10-28T15:36:32.000Z</time>
      </trkpt>
      <trkpt lat="37.39891595207154750823974609375" lon="-3.01999292336404323577880859375">
        <ele>1164.4000244140625</ele>
        <time>2019-10-28T15:36:35.000Z</time>
      </trkpt>
      <trkpt lat="37.39882056601345539093017578125" lon="-3.02026634104549884796142578125">
        <ele>1163.199951171875</ele>
        <time>2019-10-28T15:36:39.000Z</time>
      </trkpt>
      <trkpt lat="37.39873155020177364349365234375" lon="-3.02053255029022693634033203125">
        <ele>1163.5999755859375</ele>
        <time>2019-10-28T15:36:43.000Z</time>
      </trkpt>
      <trkpt lat="37.398640774190425872802734375" lon="-3.02079238928854465484619140625">
        <ele>1163.5999755859375</ele>
        <time>2019-10-28T15:36:47.000Z</time>
      </trkpt>
      <trkpt lat="37.39855335094034671783447265625" lon="-3.021034710109233856201171875">
        <ele>1164.5999755859375</ele>
        <time>2019-10-28T15:36:51.000Z</time>
      </trkpt>
      <trkpt lat="37.398477494716644287109375" lon="-3.021273426711559295654296875">
        <ele>1166.4000244140625</ele>
        <time>2019-10-28T15:36:55.000Z</time>
      </trkpt>
      <trkpt lat="37.39839996211230754852294921875" lon="-3.02150233648717403411865234375">
        <ele>1167.199951171875</ele>
        <time>2019-10-28T15:36:59.000Z</time>
      </trkpt>
      <trkpt lat="37.39832301624119281768798828125" lon="-3.02173116244375705718994140625">
        <ele>1166.4000244140625</ele>
        <time>2019-10-28T15:37:03.000Z</time>
      </trkpt>
      <trkpt lat="37.39823986776173114776611328125" lon="-3.0219719745218753814697265625">
        <ele>1164.5999755859375</ele>
        <time>2019-10-28T15:37:07.000Z</time>
      </trkpt>
      <trkpt lat="37.3981598205864429473876953125" lon="-3.02222854457795619964599609375">
        <ele>1162.4000244140625</ele>
        <time>2019-10-28T15:37:11.000Z</time>
      </trkpt>
      <trkpt lat="37.398066781461238861083984375" lon="-3.022486455738544464111328125">
        <ele>1160.5999755859375</ele>
        <time>2019-10-28T15:37:15.000Z</time>
      </trkpt>
      <trkpt lat="37.39798941649496555328369140625" lon="-3.02269407548010349273681640625">
        <ele>1160.199951171875</ele>
        <time>2019-10-28T15:37:18.000Z</time>
      </trkpt>
      <trkpt lat="37.39790895022451877593994140625" lon="-3.02290923893451690673828125">
        <ele>1160.4000244140625</ele>
        <time>2019-10-28T15:37:21.000Z</time>
      </trkpt>
      <trkpt lat="37.39782948978245258331298828125" lon="-3.02312247455120086669921875">
        <ele>1161.199951171875</ele>
        <time>2019-10-28T15:37:24.000Z</time>
      </trkpt>
      <trkpt lat="37.39775639958679676055908203125" lon="-3.02333772182464599609375">
        <ele>1161.800048828125</ele>
        <time>2019-10-28T15:37:27.000Z</time>
      </trkpt>
      <trkpt lat="37.3976817168295383453369140625" lon="-3.0235467664897441864013671875">
        <ele>1162.199951171875</ele>
        <time>2019-10-28T15:37:30.000Z</time>
      </trkpt>
      <trkpt lat="37.397610135376453399658203125" lon="-3.02375840954482555389404296875">
        <ele>1162.4000244140625</ele>
        <time>2019-10-28T15:37:33.000Z</time>
      </trkpt>
      <trkpt lat="37.39754215814173221588134765625" lon="-3.02397080697119235992431640625">
        <ele>1162</ele>
        <time>2019-10-28T15:37:36.000Z</time>
      </trkpt>
      <trkpt lat="37.397519610822200775146484375" lon="-3.02404188551008701324462890625">
        <ele>1161.800048828125</ele>
        <time>2019-10-28T15:37:37.000Z</time>
      </trkpt>
      <trkpt lat="37.39742799662053585052490234375" lon="-3.02431848831474781036376953125">
        <ele>1162.199951171875</ele>
        <time>2019-10-28T15:37:41.000Z</time>
      </trkpt>
      <trkpt lat="37.39733462221920490264892578125" lon="-3.02458872087299823760986328125">
        <ele>1162</ele>
        <time>2019-10-28T15:37:45.000Z</time>
      </trkpt>
      <trkpt lat="37.3972441814839839935302734375" lon="-3.0248550139367580413818359375">
        <ele>1163.5999755859375</ele>
        <time>2019-10-28T15:37:49.000Z</time>
      </trkpt>
      <trkpt lat="37.39715893752872943878173828125" lon="-3.025120384991168975830078125">
        <ele>1162.4000244140625</ele>
        <time>2019-10-28T15:37:53.000Z</time>
      </trkpt>
      <trkpt lat="37.3970772139728069305419921875" lon="-3.02537276409566402435302734375">
        <ele>1160.800048828125</ele>
        <time>2019-10-28T15:37:57.000Z</time>
      </trkpt>
      <trkpt lat="37.396991550922393798828125" lon="-3.0256191082298755645751953125">
        <ele>1160.4000244140625</ele>
        <time>2019-10-28T15:38:01.000Z</time>
      </trkpt>
      <trkpt lat="37.3969072289764881134033203125" lon="-3.0258603394031524658203125">
        <ele>1161</ele>
        <time>2019-10-28T15:38:05.000Z</time>
      </trkpt>
      <trkpt lat="37.3968264274299144744873046875" lon="-3.026100732386112213134765625">
        <ele>1161.4000244140625</ele>
        <time>2019-10-28T15:38:09.000Z</time>
      </trkpt>
      <trkpt lat="37.39674135111272335052490234375" lon="-3.0263365991413593292236328125">
        <ele>1162</ele>
        <time>2019-10-28T15:38:13.000Z</time>
      </trkpt>
      <trkpt lat="37.396657280623912811279296875" lon="-3.02657581865787506103515625">
        <ele>1163</ele>
        <time>2019-10-28T15:38:17.000Z</time>
      </trkpt>
      <trkpt lat="37.39657270722091197967529296875" lon="-3.02681445144116878509521484375">
        <ele>1163.4000244140625</ele>
        <time>2019-10-28T15:38:21.000Z</time>
      </trkpt>
      <trkpt lat="37.39649425260722637176513671875" lon="-3.0270517431199550628662109375">
        <ele>1163.199951171875</ele>
        <time>2019-10-28T15:38:25.000Z</time>
      </trkpt>
      <trkpt lat="37.39641764201223850250244140625" lon="-3.02729356102645397186279296875">
        <ele>1162.800048828125</ele>
        <time>2019-10-28T15:38:29.000Z</time>
      </trkpt>
      <trkpt lat="37.39633616991341114044189453125" lon="-3.027534373104572296142578125">
        <ele>1163.199951171875</ele>
        <time>2019-10-28T15:38:33.000Z</time>
      </trkpt>
      <trkpt lat="37.39625729620456695556640625" lon="-3.02777334116399288177490234375">
        <ele>1163</ele>
        <time>2019-10-28T15:38:37.000Z</time>
      </trkpt>
      <trkpt lat="37.39617607556283473968505859375" lon="-3.028007782995700836181640625">
        <ele>1162</ele>
        <time>2019-10-28T15:38:41.000Z</time>
      </trkpt>
      <trkpt lat="37.3960901610553264617919921875" lon="-3.0282500199973583221435546875">
        <ele>1160.800048828125</ele>
        <time>2019-10-28T15:38:45.000Z</time>
      </trkpt>
      <trkpt lat="37.39600290544331073760986328125" lon="-3.028505332767963409423828125">
        <ele>1160.4000244140625</ele>
        <time>2019-10-28T15:38:49.000Z</time>
      </trkpt>
      <trkpt lat="37.39590902812778949737548828125" lon="-3.0287732183933258056640625">
        <ele>1160.199951171875</ele>
        <time>2019-10-28T15:38:53.000Z</time>
      </trkpt>
      <trkpt lat="37.39583459682762622833251953125" lon="-3.0289899744093418121337890625">
        <ele>1159.199951171875</ele>
        <time>2019-10-28T15:38:56.000Z</time>
      </trkpt>
      <trkpt lat="37.39574390463531017303466796875" lon="-3.02921100519597530364990234375">
        <ele>1159.4000244140625</ele>
        <time>2019-10-28T15:38:59.000Z</time>
      </trkpt>
      <trkpt lat="37.39566260017454624176025390625" lon="-3.02944133989512920379638671875">
        <ele>1160.4000244140625</ele>
        <time>2019-10-28T15:39:02.000Z</time>
      </trkpt>
      <trkpt lat="37.39558397792279720306396484375" lon="-3.02968424744904041290283203125">
        <ele>1161.5999755859375</ele>
        <time>2019-10-28T15:39:05.000Z</time>
      </trkpt>
      <trkpt lat="37.39550066180527210235595703125" lon="-3.0299334414303302764892578125">
        <ele>1161.800048828125</ele>
        <time>2019-10-28T15:39:08.000Z</time>
      </trkpt>
      <trkpt lat="37.39541516639292240142822265625" lon="-3.030187748372554779052734375">
        <ele>1160.800048828125</ele>
        <time>2019-10-28T15:39:11.000Z</time>
      </trkpt>
      <trkpt lat="37.39533168263733386993408203125" lon="-3.03044649772346019744873046875">
        <ele>1159.199951171875</ele>
        <time>2019-10-28T15:39:14.000Z</time>
      </trkpt>
      <trkpt lat="37.39523897878825664520263671875" lon="-3.03070549853146076202392578125">
        <ele>1158</ele>
        <time>2019-10-28T15:39:17.000Z</time>
      </trkpt>
      <trkpt lat="37.3951466940343379974365234375" lon="-3.03096969611942768096923828125">
        <ele>1156.5999755859375</ele>
        <time>2019-10-28T15:39:20.000Z</time>
      </trkpt>
      <trkpt lat="37.39504954777657985687255859375" lon="-3.03123473189771175384521484375">
        <ele>1154.4000244140625</ele>
        <time>2019-10-28T15:39:23.000Z</time>
      </trkpt>
      <trkpt lat="37.39494946785271167755126953125" lon="-3.03150169551372528076171875">
        <ele>1154</ele>
        <time>2019-10-28T15:39:26.000Z</time>
      </trkpt>
      <trkpt lat="37.3948586918413639068603515625" lon="-3.0317734368145465850830078125">
        <ele>1153.199951171875</ele>
        <time>2019-10-28T15:39:29.000Z</time>
      </trkpt>
      <trkpt lat="37.39476389251649379730224609375" lon="-3.032045848667621612548828125">
        <ele>1151.4000244140625</ele>
        <time>2019-10-28T15:39:32.000Z</time>
      </trkpt>
      <trkpt lat="37.394683845341205596923828125" lon="-3.03227660246193408966064453125">
        <ele>1149.800048828125</ele>
        <time>2019-10-28T15:39:35.000Z</time>
      </trkpt>
      <trkpt lat="37.39466674625873565673828125" lon="-3.0323343537747859954833984375">
        <ele>1149.4000244140625</ele>
        <time>2019-10-28T15:39:36.000Z</time>
      </trkpt>
      <trkpt lat="37.39474930800497531890869140625" lon="-3.03256527520716190338134765625">
        <ele>1148</ele>
        <time>2019-10-28T15:39:42.000Z</time>
      </trkpt>
      <trkpt lat="37.39490286447107791900634765625" lon="-3.03273593075573444366455078125">
        <ele>1145.800048828125</ele>
        <time>2019-10-28T15:39:46.000Z</time>
      </trkpt>
      <trkpt lat="37.3950253240764141082763671875" lon="-3.03297699429094791412353515625">
        <ele>1143</ele>
        <time>2019-10-28T15:39:50.000Z</time>
      </trkpt>
      <trkpt lat="37.39511526189744472503662109375" lon="-3.03318637423217296600341796875">
        <ele>1142.199951171875</ele>
        <time>2019-10-28T15:39:53.000Z</time>
      </trkpt>
      <trkpt lat="37.3952070437371730804443359375" lon="-3.03340606391429901123046875">
        <ele>1142.800048828125</ele>
        <time>2019-10-28T15:39:56.000Z</time>
      </trkpt>
      <trkpt lat="37.39527937956154346466064453125" lon="-3.03364503197371959686279296875">
        <ele>1143.5999755859375</ele>
        <time>2019-10-28T15:40:00.000Z</time>
      </trkpt>
      <trkpt lat="37.39529949612915515899658203125" lon="-3.0336985923349857330322265625">
        <ele>1143.800048828125</ele>
        <time>2019-10-28T15:40:03.000Z</time>
      </trkpt>
      <trkpt lat="37.39534961991012096405029296875" lon="-3.03390637971460819244384765625">
        <ele>1143.5999755859375</ele>
        <time>2019-10-28T15:40:19.000Z</time>
      </trkpt>
      <trkpt lat="37.3954216204583644866943359375" lon="-3.03416521288454532623291015625">
        <ele>1141.5999755859375</ele>
        <time>2019-10-28T15:40:24.000Z</time>
      </trkpt>
      <trkpt lat="37.39543545059859752655029296875" lon="-3.03431860171258449554443359375">
        <ele>1141</ele>
        <time>2019-10-28T15:40:27.000Z</time>
      </trkpt>
      <trkpt lat="37.3955701477825641632080078125" lon="-3.03450032137334346771240234375">
        <ele>1140.5999755859375</ele>
        <time>2019-10-28T15:40:32.000Z</time>
      </trkpt>
      <trkpt lat="37.39571808837354183197021484375" lon="-3.0346338450908660888671875">
        <ele>1140.4000244140625</ele>
        <time>2019-10-28T15:40:36.000Z</time>
      </trkpt>
      <trkpt lat="37.3958973772823810577392578125" lon="-3.03478932939469814300537109375">
        <ele>1140</ele>
        <time>2019-10-28T15:40:41.000Z</time>
      </trkpt>
      <trkpt lat="37.396066188812255859375" lon="-3.034945987164974212646484375">
        <ele>1139.800048828125</ele>
        <time>2019-10-28T15:40:46.000Z</time>
      </trkpt>
      <trkpt lat="37.3962078429758548736572265625" lon="-3.03508688695728778839111328125">
        <ele>1139.199951171875</ele>
        <time>2019-10-28T15:40:50.000Z</time>
      </trkpt>
      <trkpt lat="37.3962819389998912811279296875" lon="-3.0351630784571170806884765625">
        <ele>1139</ele>
        <time>2019-10-28T15:40:52.000Z</time>
      </trkpt>
      <trkpt lat="37.396450750529766082763671875" lon="-3.03532426245510578155517578125">
        <ele>1138.5999755859375</ele>
        <time>2019-10-28T15:40:56.000Z</time>
      </trkpt>
      <trkpt lat="37.39663557149469852447509765625" lon="-3.0355184711515903472900390625">
        <ele>1139.4000244140625</ele>
        <time>2019-10-28T15:41:00.000Z</time>
      </trkpt>
      <trkpt lat="37.3968239128589630126953125" lon="-3.0356852710247039794921875">
        <ele>1138.5999755859375</ele>
        <time>2019-10-28T15:41:04.000Z</time>
      </trkpt>
      <trkpt lat="37.39697336219251155853271484375" lon="-3.03587109781801700592041015625">
        <ele>1137.5999755859375</ele>
        <time>2019-10-28T15:41:08.000Z</time>
      </trkpt>
      <trkpt lat="37.3971296846866607666015625" lon="-3.036070168018341064453125">
        <ele>1137</ele>
        <time>2019-10-28T15:41:13.000Z</time>
      </trkpt>
      <trkpt lat="37.39716245792806148529052734375" lon="-3.03610998205840587615966796875">
        <ele>1137</ele>
        <time>2019-10-28T15:41:14.000Z</time>
      </trkpt>
      <trkpt lat="37.3972772061824798583984375" lon="-3.03629480302333831787109375">
        <ele>1137</ele>
        <time>2019-10-28T15:41:18.000Z</time>
      </trkpt>
      <trkpt lat="37.39738943986594676971435546875" lon="-3.0364850722253322601318359375">
        <ele>1137</ele>
        <time>2019-10-28T15:41:22.000Z</time>
      </trkpt>
      <trkpt lat="37.39742682315409183502197265625" lon="-3.0365333519876003265380859375">
        <ele>1137</ele>
        <time>2019-10-28T15:41:24.000Z</time>
      </trkpt>
      <trkpt lat="37.3975105583667755126953125" lon="-3.03644006140530109405517578125">
        <ele>1137</ele>
        <time>2019-10-28T15:41:31.000Z</time>
      </trkpt>
      <trkpt lat="37.3975288309156894683837890625" lon="-3.03641541860997676849365234375">
        <ele>1137</ele>
        <time>2019-10-28T15:41:32.000Z</time>
      </trkpt>
      <trkpt lat="37.39770275540649890899658203125" lon="-3.0364015884697437286376953125">
        <ele>1136.4000244140625</ele>
        <time>2019-10-28T15:41:39.000Z</time>
      </trkpt>
      <trkpt lat="37.3977393843233585357666015625" lon="-3.0364592559635639190673828125">
        <ele>1135.5999755859375</ele>
        <time>2019-10-28T15:41:41.000Z</time>
      </trkpt>
      <trkpt lat="37.39787466824054718017578125" lon="-3.03665631450712680816650390625">
        <ele>1134.199951171875</ele>
        <time>2019-10-28T15:41:47.000Z</time>
      </trkpt>
      <trkpt lat="37.3980327509343624114990234375" lon="-3.0368035845458507537841796875">
        <ele>1133</ele>
        <time>2019-10-28T15:41:53.000Z</time>
      </trkpt>
      <trkpt lat="37.39813760854303836822509765625" lon="-3.03700651042163372039794921875">
        <ele>1133.4000244140625</ele>
        <time>2019-10-28T15:41:59.000Z</time>
      </trkpt>
      <trkpt lat="37.3982433043420314788818359375" lon="-3.0372441373765468597412109375">
        <ele>1133.199951171875</ele>
        <time>2019-10-28T15:42:05.000Z</time>
      </trkpt>
      <trkpt lat="37.39834807813167572021484375" lon="-3.0374479852616786956787109375">
        <ele>1132.800048828125</ele>
        <time>2019-10-28T15:42:10.000Z</time>
      </trkpt>
      <trkpt lat="37.39846399985253810882568359375" lon="-3.0376709438860416412353515625">
        <ele>1132.4000244140625</ele>
        <time>2019-10-28T15:42:16.000Z</time>
      </trkpt>
      <trkpt lat="37.3985822685062885284423828125" lon="-3.0378774739801883697509765625">
        <ele>1132.199951171875</ele>
        <time>2019-10-28T15:42:21.000Z</time>
      </trkpt>
      <trkpt lat="37.39874445833265781402587890625" lon="-3.03805022500455379486083984375">
        <ele>1132.5999755859375</ele>
        <time>2019-10-28T15:42:26.000Z</time>
      </trkpt>
      <trkpt lat="37.39888359792530536651611328125" lon="-3.03819942288100719451904296875">
        <ele>1132.800048828125</ele>
        <time>2019-10-28T15:42:30.000Z</time>
      </trkpt>
      <trkpt lat="37.3990402556955814361572265625" lon="-3.03836907260119915008544921875">
        <ele>1130.5999755859375</ele>
        <time>2019-10-28T15:42:34.000Z</time>
      </trkpt>
      <trkpt lat="37.3991787247359752655029296875" lon="-3.03856973536312580108642578125">
        <ele>1128</ele>
        <time>2019-10-28T15:42:38.000Z</time>
      </trkpt>
      <trkpt lat="37.3993235640227794647216796875" lon="-3.0387726612389087677001953125">
        <ele>1127</ele>
        <time>2019-10-28T15:42:42.000Z</time>
      </trkpt>
      <trkpt lat="37.39943864755332469940185546875" lon="-3.03892202675342559814453125">
        <ele>1127</ele>
        <time>2019-10-28T15:42:45.000Z</time>
      </trkpt>
      <trkpt lat="37.39954995922744274139404296875" lon="-3.0391055904328823089599609375">
        <ele>1127</ele>
        <time>2019-10-28T15:42:48.000Z</time>
      </trkpt>
      <trkpt lat="37.399663031101226806640625" lon="-3.03931656293570995330810546875">
        <ele>1126.199951171875</ele>
        <time>2019-10-28T15:42:51.000Z</time>
      </trkpt>
      <trkpt lat="37.3997775278985500335693359375" lon="-3.03953222930431365966796875">
        <ele>1125</ele>
        <time>2019-10-28T15:42:54.000Z</time>
      </trkpt>
      <trkpt lat="37.39988607354462146759033203125" lon="-3.03974454291164875030517578125">
        <ele>1123.4000244140625</ele>
        <time>2019-10-28T15:42:57.000Z</time>
      </trkpt>
      <trkpt lat="37.39999788813292980194091796875" lon="-3.03995509631931781768798828125">
        <ele>1122.800048828125</ele>
        <time>2019-10-28T15:43:00.000Z</time>
      </trkpt>
      <trkpt lat="37.40011163055896759033203125" lon="-3.0401767976582050323486328125">
        <ele>1122</ele>
        <time>2019-10-28T15:43:03.000Z</time>
      </trkpt>
      <trkpt lat="37.4002117104828357696533203125" lon="-3.0403819866478443145751953125">
        <ele>1121.199951171875</ele>
        <time>2019-10-28T15:43:06.000Z</time>
      </trkpt>
      <trkpt lat="37.4003253690898418426513671875" lon="-3.04059974849224090576171875">
        <ele>1121.5999755859375</ele>
        <time>2019-10-28T15:43:10.000Z</time>
      </trkpt>
      <trkpt lat="37.4004152230918407440185546875" lon="-3.0407702364027500152587890625">
        <ele>1122.800048828125</ele>
        <time>2019-10-28T15:43:14.000Z</time>
      </trkpt>
      <trkpt lat="37.400451265275478363037109375" lon="-3.04086796939373016357421875">
        <ele>1123.4000244140625</ele>
        <time>2019-10-28T15:43:17.000Z</time>
      </trkpt>
      <trkpt lat="37.40046878345310688018798828125" lon="-3.04093443788588047027587890625">
        <ele>1124</ele>
        <time>2019-10-28T15:43:19.000Z</time>
      </trkpt>
      <trkpt lat="37.40053919143974781036376953125" lon="-3.04117910563945770263671875">
        <ele>1124.4000244140625</ele>
        <time>2019-10-28T15:43:26.000Z</time>
      </trkpt>
      <trkpt lat="37.400631643831729888916015625" lon="-3.0414146371185779571533203125">
        <ele>1124.199951171875</ele>
        <time>2019-10-28T15:43:33.000Z</time>
      </trkpt>
      <trkpt lat="37.4007265269756317138671875" lon="-3.04165561683475971221923828125">
        <ele>1122.800048828125</ele>
        <time>2019-10-28T15:43:39.000Z</time>
      </trkpt>
      <trkpt lat="37.400796599686145782470703125" lon="-3.04190288297832012176513671875">
        <ele>1121.4000244140625</ele>
        <time>2019-10-28T15:43:44.000Z</time>
      </trkpt>
      <trkpt lat="37.40085921250283718109130859375" lon="-3.04212617687880992889404296875">
        <ele>1119.5999755859375</ele>
        <time>2019-10-28T15:43:48.000Z</time>
      </trkpt>
      <trkpt lat="37.4009372480213642120361328125" lon="-3.0423772148787975311279296875">
        <ele>1118</ele>
        <time>2019-10-28T15:43:53.000Z</time>
      </trkpt>
      <trkpt lat="37.40099013783037662506103515625" lon="-3.0425555817782878875732421875">
        <ele>1117.4000244140625</ele>
        <time>2019-10-28T15:43:57.000Z</time>
      </trkpt>
      <trkpt lat="37.4010559357702732086181640625" lon="-3.04276688955724239349365234375">
        <ele>1117.4000244140625</ele>
        <time>2019-10-28T15:44:02.000Z</time>
      </trkpt>
      <trkpt lat="37.401129193603992462158203125" lon="-3.04300359450280666351318359375">
        <ele>1117.800048828125</ele>
        <time>2019-10-28T15:44:08.000Z</time>
      </trkpt>
      <trkpt lat="37.40118409506976604461669921875" lon="-3.0432598292827606201171875">
        <ele>1117.5999755859375</ele>
        <time>2019-10-28T15:44:14.000Z</time>
      </trkpt>
      <trkpt lat="37.401208318769931793212890625" lon="-3.04349008016288280487060546875">
        <ele>1117.5999755859375</ele>
        <time>2019-10-28T15:44:19.000Z</time>
      </trkpt>
      <trkpt lat="37.40125358104705810546875" lon="-3.04374069906771183013916015625">
        <ele>1116</ele>
        <time>2019-10-28T15:44:25.000Z</time>
      </trkpt>
      <trkpt lat="37.401280067861080169677734375" lon="-3.04399517364799976348876953125">
        <ele>1116</ele>
        <time>2019-10-28T15:44:31.000Z</time>
      </trkpt>
      <trkpt lat="37.40131854079663753509521484375" lon="-3.044226430356502532958984375">
        <ele>1116</ele>
        <time>2019-10-28T15:44:36.000Z</time>
      </trkpt>
      <trkpt lat="37.4013459496200084686279296875" lon="-3.04445969872176647186279296875">
        <ele>1116</ele>
        <time>2019-10-28T15:44:41.000Z</time>
      </trkpt>
      <trkpt lat="37.40136061795055866241455078125" lon="-3.044697158038616180419921875">
        <ele>1115.199951171875</ele>
        <time>2019-10-28T15:44:46.000Z</time>
      </trkpt>
      <trkpt lat="37.4013751186430454254150390625" lon="-3.0449481122195720672607421875">
        <ele>1113.800048828125</ele>
        <time>2019-10-28T15:44:51.000Z</time>
      </trkpt>
      <trkpt lat="37.40137905813753604888916015625" lon="-3.04520652629435062408447265625">
        <ele>1112.800048828125</ele>
        <time>2019-10-28T15:44:56.000Z</time>
      </trkpt>
      <trkpt lat="37.40137520246207714080810546875" lon="-3.0454714782536029815673828125">
        <ele>1111.800048828125</ele>
        <time>2019-10-28T15:45:01.000Z</time>
      </trkpt>
      <trkpt lat="37.40137788467109203338623046875" lon="-3.045709021389484405517578125">
        <ele>1111</ele>
        <time>2019-10-28T15:45:06.000Z</time>
      </trkpt>
      <trkpt lat="37.40141023881733417510986328125" lon="-3.0459670163691043853759765625">
        <ele>1111</ele>
        <time>2019-10-28T15:45:12.000Z</time>
      </trkpt>
      <trkpt lat="37.40145835094153881072998046875" lon="-3.0462194792926311492919921875">
        <ele>1111</ele>
        <time>2019-10-28T15:45:18.000Z</time>
      </trkpt>
      <trkpt lat="37.40154418163001537322998046875" lon="-3.0464437790215015411376953125">
        <ele>1110</ele>
        <time>2019-10-28T15:45:23.000Z</time>
      </trkpt>
      <trkpt lat="37.40165029652416706085205078125" lon="-3.04663865827023983001708984375">
        <ele>1110</ele>
        <time>2019-10-28T15:45:27.000Z</time>
      </trkpt>
      <trkpt lat="37.4017328582704067230224609375" lon="-3.0468571744859218597412109375">
        <ele>1110.4000244140625</ele>
        <time>2019-10-28T15:45:32.000Z</time>
      </trkpt>
      <trkpt lat="37.4017913639545440673828125" lon="-3.04709337651729583740234375">
        <ele>1111</ele>
        <time>2019-10-28T15:45:38.000Z</time>
      </trkpt>
      <trkpt lat="37.4017908610403537750244140625" lon="-3.0473295785486698150634765625">
        <ele>1111</ele>
        <time>2019-10-28T15:45:45.000Z</time>
      </trkpt>
      <trkpt lat="37.401776947081089019775390625" lon="-3.0473604239523410797119140625">
        <ele>1111</ele>
        <time>2019-10-28T15:45:46.000Z</time>
      </trkpt>
      <trkpt lat="37.4018059484660625457763671875" lon="-3.0475736595690250396728515625">
        <ele>1109.5999755859375</ele>
        <time>2019-10-28T15:45:52.000Z</time>
      </trkpt>
      <trkpt lat="37.40182732231914997100830078125" lon="-3.047612719237804412841796875">
        <ele>1109.199951171875</ele>
        <time>2019-10-28T15:45:53.000Z</time>
      </trkpt>
      <trkpt lat="37.40187074057757854461669921875" lon="-3.04777306504547595977783203125">
        <ele>1108.4000244140625</ele>
        <time>2019-10-28T15:45:57.000Z</time>
      </trkpt>
      <trkpt lat="37.40181257016956806182861328125" lon="-3.047856129705905914306640625">
        <ele>1107.800048828125</ele>
        <time>2019-10-28T15:46:01.000Z</time>
      </trkpt>
      <trkpt lat="37.40174350328743457794189453125" lon="-3.04806928150355815887451171875">
        <ele>1105.800048828125</ele>
        <time>2019-10-28T15:46:07.000Z</time>
      </trkpt>
      <trkpt lat="37.4017296731472015380859375" lon="-3.0481332354247570037841796875">
        <ele>1105.199951171875</ele>
        <time>2019-10-28T15:46:10.000Z</time>
      </trkpt>
      <trkpt lat="37.401601932942867279052734375" lon="-3.04816869087517261505126953125">
        <ele>1104.199951171875</ele>
        <time>2019-10-28T15:46:15.000Z</time>
      </trkpt>
      <trkpt lat="37.40140990354120731353759765625" lon="-3.04820456542074680328369140625">
        <ele>1102.4000244140625</ele>
        <time>2019-10-28T15:46:21.000Z</time>
      </trkpt>
      <trkpt lat="37.4012267589569091796875" lon="-3.04824245162308216094970703125">
        <ele>1103.4000244140625</ele>
        <time>2019-10-28T15:46:26.000Z</time>
      </trkpt>
      <trkpt lat="37.40103741176426410675048828125" lon="-3.04828771390020847320556640625">
        <ele>1105.800048828125</ele>
        <time>2019-10-28T15:46:31.000Z</time>
      </trkpt>
      <trkpt lat="37.40084378980100154876708984375" lon="-3.0483387596905231475830078125">
        <ele>1109.4000244140625</ele>
        <time>2019-10-28T15:46:36.000Z</time>
      </trkpt>
      <trkpt lat="37.40065477788448333740234375" lon="-3.04837010800838470458984375">
        <ele>1110.5999755859375</ele>
        <time>2019-10-28T15:46:41.000Z</time>
      </trkpt>
      <trkpt lat="37.40045973099768161773681640625" lon="-3.0484034679830074310302734375">
        <ele>1110.800048828125</ele>
        <time>2019-10-28T15:46:46.000Z</time>
      </trkpt>
      <trkpt lat="37.40027331747114658355712890625" lon="-3.0484420247375965118408203125">
        <ele>1110.5999755859375</ele>
        <time>2019-10-28T15:46:51.000Z</time>
      </trkpt>
      <trkpt lat="37.400081455707550048828125" lon="-3.048495836555957794189453125">
        <ele>1110.4000244140625</ele>
        <time>2019-10-28T15:46:56.000Z</time>
      </trkpt>
      <trkpt lat="37.39989311434328556060791015625" lon="-3.04854118265211582183837890625">
        <ele>1110.199951171875</ele>
        <time>2019-10-28T15:47:01.000Z</time>
      </trkpt>
      <trkpt lat="37.3997126519680023193359375" lon="-3.0485808290541172027587890625">
        <ele>1111</ele>
        <time>2019-10-28T15:47:06.000Z</time>
      </trkpt>
      <trkpt lat="37.3995307646691799163818359375" lon="-3.0486136861145496368408203125">
        <ele>1111.199951171875</ele>
        <time>2019-10-28T15:47:11.000Z</time>
      </trkpt>
      <trkpt lat="37.39934376440942287445068359375" lon="-3.04864905774593353271484375">
        <ele>1111.4000244140625</ele>
        <time>2019-10-28T15:47:16.000Z</time>
      </trkpt>
      <trkpt lat="37.3991485498845577239990234375" lon="-3.04869733750820159912109375">
        <ele>1111.4000244140625</ele>
        <time>2019-10-28T15:47:21.000Z</time>
      </trkpt>
      <trkpt lat="37.398955263197422027587890625" lon="-3.04873513989150524139404296875">
        <ele>1112.5999755859375</ele>
        <time>2019-10-28T15:47:26.000Z</time>
      </trkpt>
      <trkpt lat="37.39888317883014678955078125" lon="-3.04875056259334087371826171875">
        <ele>1113</ele>
        <time>2019-10-28T15:47:29.000Z</time>
      </trkpt>
      <trkpt lat="37.398955263197422027587890625" lon="-3.04869440384209156036376953125">
        <ele>1112.800048828125</ele>
        <time>2019-10-28T15:47:34.000Z</time>
      </trkpt>
      <trkpt lat="37.39903883077204227447509765625" lon="-3.0487534962594509124755859375">
        <ele>1111.800048828125</ele>
        <time>2019-10-28T15:47:37.000Z</time>
      </trkpt>
      <trkpt lat="37.3991227336227893829345703125" lon="-3.04898240603506565093994140625">
        <ele>1111</ele>
        <time>2019-10-28T15:47:43.000Z</time>
      </trkpt>
      <trkpt lat="37.39922809414565563201904296875" lon="-3.04921190254390239715576171875">
        <ele>1110.4000244140625</ele>
        <time>2019-10-28T15:47:48.000Z</time>
      </trkpt>
      <trkpt lat="37.399330437183380126953125" lon="-3.0494139902293682098388671875">
        <ele>1110.4000244140625</ele>
        <time>2019-10-28T15:47:52.000Z</time>
      </trkpt>
      <trkpt lat="37.399467565119266510009765625" lon="-3.04958070628345012664794921875">
        <ele>1110</ele>
        <time>2019-10-28T15:47:56.000Z</time>
      </trkpt>
      <trkpt lat="37.39963419735431671142578125" lon="-3.0497717298567295074462890625">
        <ele>1110</ele>
        <time>2019-10-28T15:48:01.000Z</time>
      </trkpt>
      <trkpt lat="37.399784736335277557373046875" lon="-3.04992419667541980743408203125">
        <ele>1110</ele>
        <time>2019-10-28T15:48:05.000Z</time>
      </trkpt>
      <trkpt lat="37.39982664585113525390625" lon="-3.04995604790747165679931640625">
        <ele>1110</ele>
        <time>2019-10-28T15:48:06.000Z</time>
      </trkpt>
      <trkpt lat="37.40002135746181011199951171875" lon="-3.050091080367565155029296875">
        <ele>1111</ele>
        <time>2019-10-28T15:48:11.000Z</time>
      </trkpt>
      <trkpt lat="37.4001560546457767486572265625" lon="-3.05026668123900890350341796875">
        <ele>1111.199951171875</ele>
        <time>2019-10-28T15:48:15.000Z</time>
      </trkpt>
      <trkpt lat="37.40026107989251613616943359375" lon="-3.05047564208507537841796875">
        <ele>1110.800048828125</ele>
        <time>2019-10-28T15:48:19.000Z</time>
      </trkpt>
      <trkpt lat="37.40035797469317913055419921875" lon="-3.05069047026336193084716796875">
        <ele>1109.199951171875</ele>
        <time>2019-10-28T15:48:23.000Z</time>
      </trkpt>
      <trkpt lat="37.40046392194926738739013671875" lon="-3.050890378654003143310546875">
        <ele>1107.5999755859375</ele>
        <time>2019-10-28T15:48:27.000Z</time>
      </trkpt>
      <trkpt lat="37.40058730356395244598388671875" lon="-3.051088862121105194091796875">
        <ele>1106.4000244140625</ele>
        <time>2019-10-28T15:48:31.000Z</time>
      </trkpt>
      <trkpt lat="37.40073951892554759979248046875" lon="-3.05128575302660465240478515625">
        <ele>1106</ele>
        <time>2019-10-28T15:48:35.000Z</time>
      </trkpt>
      <trkpt lat="37.40090061910450458526611328125" lon="-3.0514823086559772491455078125">
        <ele>1104.5999755859375</ele>
        <time>2019-10-28T15:48:39.000Z</time>
      </trkpt>
      <trkpt lat="37.4010710231959819793701171875" lon="-3.051680624485015869140625">
        <ele>1103.5999755859375</ele>
        <time>2019-10-28T15:48:43.000Z</time>
      </trkpt>
      <trkpt lat="37.4012361466884613037109375" lon="-3.05188640020787715911865234375">
        <ele>1102.800048828125</ele>
        <time>2019-10-28T15:48:47.000Z</time>
      </trkpt>
      <trkpt lat="37.40136581473052501678466796875" lon="-3.05205185897648334503173828125">
        <ele>1102.199951171875</ele>
        <time>2019-10-28T15:48:50.000Z</time>
      </trkpt>
      <trkpt lat="37.40152456797659397125244140625" lon="-3.05226274766027927398681640625">
        <ele>1101.5999755859375</ele>
        <time>2019-10-28T15:48:54.000Z</time>
      </trkpt>
      <trkpt lat="37.401691116392612457275390625" lon="-3.05247229523956775665283203125">
        <ele>1102.5999755859375</ele>
        <time>2019-10-28T15:48:58.000Z</time>
      </trkpt>
      <trkpt lat="37.4018270708620548248291015625" lon="-3.052687458693981170654296875">
        <ele>1103.5999755859375</ele>
        <time>2019-10-28T15:49:02.000Z</time>
      </trkpt>
      <trkpt lat="37.40192857570946216583251953125" lon="-3.0529045499861240386962890625">
        <ele>1104</ele>
        <time>2019-10-28T15:49:06.000Z</time>
      </trkpt>
      <trkpt lat="37.4020094610750675201416015625" lon="-3.05311267264187335968017578125">
        <ele>1103.5999755859375</ele>
        <time>2019-10-28T15:49:10.000Z</time>
      </trkpt>
      <trkpt lat="37.40208598785102367401123046875" lon="-3.053370751440525054931640625">
        <ele>1102.4000244140625</ele>
        <time>2019-10-28T15:49:15.000Z</time>
      </trkpt>
      <trkpt lat="37.40214742720127105712890625" lon="-3.0535970628261566162109375">
        <ele>1101.800048828125</ele>
        <time>2019-10-28T15:49:19.000Z</time>
      </trkpt>
      <trkpt lat="37.40218774415552616119384765625" lon="-3.0538299120962619781494140625">
        <ele>1100.800048828125</ele>
        <time>2019-10-28T15:49:23.000Z</time>
      </trkpt>
      <trkpt lat="37.40222345106303691864013671875" lon="-3.05406636558473110198974609375">
        <ele>1100</ele>
        <time>2019-10-28T15:49:27.000Z</time>
      </trkpt>
      <trkpt lat="37.402242310345172882080078125" lon="-3.05429753847420215606689453125">
        <ele>1100</ele>
        <time>2019-10-28T15:49:31.000Z</time>
      </trkpt>
      <trkpt lat="37.40226837806403636932373046875" lon="-3.0545318126678466796875">
        <ele>1099</ele>
        <time>2019-10-28T15:49:35.000Z</time>
      </trkpt>
      <trkpt lat="37.402304001152515411376953125" lon="-3.0547616444528102874755859375">
        <ele>1098</ele>
        <time>2019-10-28T15:49:39.000Z</time>
      </trkpt>
      <trkpt lat="37.40233493037521839141845703125" lon="-3.05498988367617130279541015625">
        <ele>1098</ele>
        <time>2019-10-28T15:49:43.000Z</time>
      </trkpt>
      <trkpt lat="37.40236527286469936370849609375" lon="-3.05525240488350391387939453125">
        <ele>1097.5999755859375</ele>
        <time>2019-10-28T15:49:48.000Z</time>
      </trkpt>
      <trkpt lat="37.40243618376553058624267578125" lon="-3.055495060980319976806640625">
        <ele>1096.800048828125</ele>
        <time>2019-10-28T15:49:53.000Z</time>
      </trkpt>
      <trkpt lat="37.4025267921388149261474609375" lon="-3.05572179146111011505126953125">
        <ele>1097</ele>
        <time>2019-10-28T15:49:58.000Z</time>
      </trkpt>
      <trkpt lat="37.402547411620616912841796875" lon="-3.05576202459633350372314453125">
        <ele>1096.800048828125</ele>
        <time>2019-10-28T15:49:59.000Z</time>
      </trkpt>
      <trkpt lat="37.40265193395316600799560546875" lon="-3.0559585802257061004638671875">
        <ele>1096.5999755859375</ele>
        <time>2019-10-28T15:50:04.000Z</time>
      </trkpt>
      <trkpt lat="37.4027628265321254730224609375" lon="-3.05620073340833187103271484375">
        <ele>1097</ele>
        <time>2019-10-28T15:50:09.000Z</time>
      </trkpt>
      <trkpt lat="37.4028588831424713134765625" lon="-3.05641748942434787750244140625">
        <ele>1096.4000244140625</ele>
        <time>2019-10-28T15:50:13.000Z</time>
      </trkpt>
      <trkpt lat="37.40294731222093105316162109375" lon="-3.056627623736858367919921875">
        <ele>1095.5999755859375</ele>
        <time>2019-10-28T15:50:17.000Z</time>
      </trkpt>
      <trkpt lat="37.40302224643528461456298828125" lon="-3.05684857070446014404296875">
        <ele>1095</ele>
        <time>2019-10-28T15:50:21.000Z</time>
      </trkpt>
      <trkpt lat="37.4030625633895397186279296875" lon="-3.0570866167545318603515625">
        <ele>1094.800048828125</ele>
        <time>2019-10-28T15:50:25.000Z</time>
      </trkpt>
      <trkpt lat="37.403076477348804473876953125" lon="-3.05731871165335178375244140625">
        <ele>1094</ele>
        <time>2019-10-28T15:50:29.000Z</time>
      </trkpt>
      <trkpt lat="37.40308863110840320587158203125" lon="-3.05759682320058345794677734375">
        <ele>1094.199951171875</ele>
        <time>2019-10-28T15:50:34.000Z</time>
      </trkpt>
      <trkpt lat="37.40309349261224269866943359375" lon="-3.05770763196051120758056640625">
        <ele>1093.800048828125</ele>
        <time>2019-10-28T15:50:36.000Z</time>
      </trkpt>
      <trkpt lat="37.403141520917415618896484375" lon="-3.05798172019422054290771484375">
        <ele>1092</ele>
        <time>2019-10-28T15:50:41.000Z</time>
      </trkpt>
      <trkpt lat="37.4031889624893665313720703125" lon="-3.05825262330472469329833984375">
        <ele>1090.5999755859375</ele>
        <time>2019-10-28T15:50:46.000Z</time>
      </trkpt>
      <trkpt lat="37.40323497913777828216552734375" lon="-3.05848396383225917816162109375">
        <ele>1090</ele>
        <time>2019-10-28T15:50:50.000Z</time>
      </trkpt>
      <trkpt lat="37.403283007442951202392578125" lon="-3.05871429853141307830810546875">
        <ele>1088.4000244140625</ele>
        <time>2019-10-28T15:50:54.000Z</time>
      </trkpt>
      <trkpt lat="37.4033247493207454681396484375" lon="-3.0589348264038562774658203125">
        <ele>1088.5999755859375</ele>
        <time>2019-10-28T15:50:58.000Z</time>
      </trkpt>
      <trkpt lat="37.4033596180379390716552734375" lon="-3.059160970151424407958984375">
        <ele>1089.4000244140625</ele>
        <time>2019-10-28T15:51:02.000Z</time>
      </trkpt>
      <trkpt lat="37.40338568575680255889892578125" lon="-3.0594387464225292205810546875">
        <ele>1090</ele>
        <time>2019-10-28T15:51:07.000Z</time>
      </trkpt>
      <trkpt lat="37.403411753475666046142578125" lon="-3.05970571003854274749755859375">
        <ele>1090</ele>
        <time>2019-10-28T15:51:12.000Z</time>
      </trkpt>
      <trkpt lat="37.40342147648334503173828125" lon="-3.05985800921916961669921875">
        <ele>1090</ele>
        <time>2019-10-28T15:51:15.000Z</time>
      </trkpt>
      <trkpt lat="37.40345089696347713470458984375" lon="-3.06009312160313129425048828125">
        <ele>1089.800048828125</ele>
        <time>2019-10-28T15:51:20.000Z</time>
      </trkpt>
      <trkpt lat="37.4034903757274150848388671875" lon="-3.06034038774669170379638671875">
        <ele>1089</ele>
        <time>2019-10-28T15:51:26.000Z</time>
      </trkpt>
      <trkpt lat="37.40354217588901519775390625" lon="-3.06057357229292392730712890625">
        <ele>1088.4000244140625</ele>
        <time>2019-10-28T15:51:32.000Z</time>
      </trkpt>
      <trkpt lat="37.40361434407532215118408203125" lon="-3.060821257531642913818359375">
        <ele>1088.4000244140625</ele>
        <time>2019-10-28T15:51:38.000Z</time>
      </trkpt>
      <trkpt lat="37.40367854945361614227294921875" lon="-3.0610608123242855072021484375">
        <ele>1088.4000244140625</ele>
        <time>2019-10-28T15:51:44.000Z</time>
      </trkpt>
      <trkpt lat="37.4036496318876743316650390625" lon="-3.06117489002645015716552734375">
        <ele>1088</ele>
        <time>2019-10-28T15:51:49.000Z</time>
      </trkpt>
      <trkpt lat="37.40352834574878215789794921875" lon="-3.06120540015399456024169921875">
        <ele>1088.199951171875</ele>
        <time>2019-10-28T15:51:56.000Z</time>
      </trkpt>
      <trkpt lat="37.4033559300005435943603515625" lon="-3.06127312593162059783935546875">
        <ele>1088</ele>
        <time>2019-10-28T15:52:04.000Z</time>
      </trkpt>
      <trkpt lat="37.40327353589236736297607421875" lon="-3.0613649077713489532470703125">
        <ele>1087.5999755859375</ele>
        <time>2019-10-28T15:52:10.000Z</time>
      </trkpt>
      <trkpt lat="37.4031675048172473907470703125" lon="-3.06153363548219203948974609375">
        <ele>1086.5999755859375</ele>
        <time>2019-10-28T15:52:29.000Z</time>
      </trkpt>
      <trkpt lat="37.40309684537351131439208984375" lon="-3.0617454461753368377685546875">
        <ele>1085.5999755859375</ele>
        <time>2019-10-28T15:52:42.000Z</time>
      </trkpt>
      <trkpt lat="37.40296508185565471649169921875" lon="-3.06190361268818378448486328125">
        <ele>1085</ele>
        <time>2019-10-28T15:52:56.000Z</time>
      </trkpt>
      <trkpt lat="37.402937002480030059814453125" lon="-3.0619228072464466094970703125">
        <ele>1085</ele>
        <time>2019-10-28T15:52:59.000Z</time>
      </trkpt>
      <trkpt lat="37.402918227016925811767578125" lon="-3.0618976615369319915771484375">
        <ele>1085.199951171875</ele>
        <time>2019-10-28T15:53:32.000Z</time>
      </trkpt>
      <trkpt lat="37.40291696973145008087158203125" lon="-3.06192590855062007904052734375">
        <ele>1085</ele>
        <time>2019-10-28T15:54:55.000Z</time>
      </trkpt>
      <trkpt lat="37.402904815971851348876953125" lon="-3.06189774535596370697021484375">
        <ele>1085.199951171875</ele>
        <time>2019-10-28T15:55:04.000Z</time>
      </trkpt>
      <trkpt lat="37.40304470993578433990478515625" lon="-3.061760030686855316162109375">
        <ele>1085.199951171875</ele>
        <time>2019-10-29T06:56:56.000Z</time>
      </trkpt>
      <trkpt lat="37.4030439555644989013671875" lon="-3.0617598630487918853759765625">
        <ele>1085.199951171875</ele>
        <time>2019-10-29T06:56:57.000Z</time>
      </trkpt>
      <trkpt lat="37.40319742821156978607177734375" lon="-3.06170831434428691864013671875">
        <ele>1086</ele>
        <time>2019-10-29T06:57:36.000Z</time>
      </trkpt>
      <trkpt lat="37.40323984064161777496337890625" lon="-3.061678223311901092529296875">
        <ele>1086.199951171875</ele>
        <time>2019-10-29T06:57:40.000Z</time>
      </trkpt>
      <trkpt lat="37.4033975042402744293212890625" lon="-3.0615637265145778656005859375">
        <ele>1087</ele>
        <time>2019-10-29T06:57:56.000Z</time>
      </trkpt>
      <trkpt lat="37.4034702591598033905029296875" lon="-3.06152424775063991546630859375">
        <ele>1087</ele>
        <time>2019-10-29T06:58:04.000Z</time>
      </trkpt>
      <trkpt lat="37.40355768240988254547119140625" lon="-3.06151335127651691436767578125">
        <ele>1087.199951171875</ele>
        <time>2019-10-29T06:58:12.000Z</time>
      </trkpt>
      <trkpt lat="37.40366044454276561737060546875" lon="-3.0615144409239292144775390625">
        <ele>1087</ele>
        <time>2019-10-29T06:58:21.000Z</time>
      </trkpt>
      <trkpt lat="37.40368810482323169708251953125" lon="-3.06154511868953704833984375">
        <ele>1086.5999755859375</ele>
        <time>2019-10-29T06:58:29.000Z</time>
      </trkpt>
      <trkpt lat="37.40372397936880588531494140625" lon="-3.0616488866508007049560546875">
        <ele>1086.199951171875</ele>
        <time>2019-10-29T06:59:00.000Z</time>
      </trkpt>
      <trkpt lat="37.40379966795444488525390625" lon="-3.06186270900070667266845703125">
        <ele>1085</ele>
        <time>2019-10-29T06:59:07.000Z</time>
      </trkpt>
      <trkpt lat="37.4038377217948436737060546875" lon="-3.06197737343609333038330078125">
        <ele>1085</ele>
        <time>2019-10-29T06:59:14.000Z</time>
      </trkpt>
      <trkpt lat="37.40383529104292392730712890625" lon="-3.0619776248931884765625">
        <ele>1085</ele>
        <time>2019-10-29T06:59:16.000Z</time>
      </trkpt>
      <trkpt lat="37.4038742668926715850830078125" lon="-3.0620636232197284698486328125">
        <ele>1085</ele>
        <time>2019-10-29T07:01:50.000Z</time>
      </trkpt>
      <trkpt lat="37.4039362929761409759521484375" lon="-3.06228867731988430023193359375">
        <ele>1084.4000244140625</ele>
        <time>2019-10-29T07:01:57.000Z</time>
      </trkpt>
      <trkpt lat="37.4039999954402446746826171875" lon="-3.0625045113265514373779296875">
        <ele>1084.5999755859375</ele>
        <time>2019-10-29T07:02:03.000Z</time>
      </trkpt>
      <trkpt lat="37.40407249890267848968505859375" lon="-3.06273124180734157562255859375">
        <ele>1084</ele>
        <time>2019-10-29T07:02:09.000Z</time>
      </trkpt>
      <trkpt lat="37.40414290688931941986083984375" lon="-3.06295654736459255218505859375">
        <ele>1084</ele>
        <time>2019-10-29T07:02:15.000Z</time>
      </trkpt>
      <trkpt lat="37.404210381209850311279296875" lon="-3.06318336166441440582275390625">
        <ele>1083.199951171875</ele>
        <time>2019-10-29T07:02:21.000Z</time>
      </trkpt>
      <trkpt lat="37.4042822979390621185302734375" lon="-3.063407577574253082275390625">
        <ele>1082.800048828125</ele>
        <time>2019-10-29T07:02:27.000Z</time>
      </trkpt>
      <trkpt lat="37.4043506942689418792724609375" lon="-3.0636494792997837066650390625">
        <ele>1082.4000244140625</ele>
        <time>2019-10-29T07:02:33.000Z</time>
      </trkpt>
      <trkpt lat="37.4044207669794559478759765625" lon="-3.06388677097856998443603515625">
        <ele>1082</ele>
        <time>2019-10-29T07:02:39.000Z</time>
      </trkpt>
      <trkpt lat="37.4044573120772838592529296875" lon="-3.06398886255919933319091796875">
        <ele>1082</ele>
        <time>2019-10-29T07:02:45.000Z</time>
      </trkpt>
      <trkpt lat="37.40445940755307674407958984375" lon="-3.06398701854050159454345703125">
        <ele>1082</ele>
        <time>2019-10-29T07:02:48.000Z</time>
      </trkpt>
      <trkpt lat="37.40450450219213962554931640625" lon="-3.06413085199892520904541015625">
        <ele>1081.4000244140625</ele>
        <time>2019-10-29T07:04:24.000Z</time>
      </trkpt>
      <trkpt lat="37.4045696295797824859619140625" lon="-3.06435347534716129302978515625">
        <ele>1080.4000244140625</ele>
        <time>2019-10-29T07:04:30.000Z</time>
      </trkpt>
      <trkpt lat="37.4046283029019832611083984375" lon="-3.0645805411040782928466796875">
        <ele>1079.4000244140625</ele>
        <time>2019-10-29T07:04:36.000Z</time>
      </trkpt>
      <trkpt lat="37.40471119992434978485107421875" lon="-3.06479771621525287628173828125">
        <ele>1079.800048828125</ele>
        <time>2019-10-29T07:04:43.000Z</time>
      </trkpt>
      <trkpt lat="37.404820919036865234375" lon="-3.06501053273677825927734375">
        <ele>1079.5999755859375</ele>
        <time>2019-10-29T07:04:52.000Z</time>
      </trkpt>
      <trkpt lat="37.4049022234976291656494140625" lon="-3.065220080316066741943359375">
        <ele>1080</ele>
        <time>2019-10-29T07:04:58.000Z</time>
      </trkpt>
      <trkpt lat="37.40498612634837627410888671875" lon="-3.0654706992208957672119140625">
        <ele>1078.800048828125</ele>
        <time>2019-10-29T07:05:04.000Z</time>
      </trkpt>
      <trkpt lat="37.40505636669695377349853515625" lon="-3.06568720377981662750244140625">
        <ele>1077.800048828125</ele>
        <time>2019-10-29T07:05:09.000Z</time>
      </trkpt>
      <trkpt lat="37.40512358956038951873779296875" lon="-3.06590060703456401824951171875">
        <ele>1076.800048828125</ele>
        <time>2019-10-29T07:05:14.000Z</time>
      </trkpt>
      <trkpt lat="37.4051902256906032562255859375" lon="-3.0661296844482421875">
        <ele>1075.800048828125</ele>
        <time>2019-10-29T07:05:20.000Z</time>
      </trkpt>
      <trkpt lat="37.40525317378342151641845703125" lon="-3.0663538165390491485595703125">
        <ele>1075.5999755859375</ele>
        <time>2019-10-29T07:05:26.000Z</time>
      </trkpt>
      <trkpt lat="37.40532542578876018524169921875" lon="-3.06658524088561534881591796875">
        <ele>1075</ele>
        <time>2019-10-29T07:05:32.000Z</time>
      </trkpt>
      <trkpt lat="37.405397929251194000244140625" lon="-3.066804595291614532470703125">
        <ele>1075.4000244140625</ele>
        <time>2019-10-29T07:05:38.000Z</time>
      </trkpt>
      <trkpt lat="37.40549373440444469451904296875" lon="-3.0670317448675632476806640625">
        <ele>1075.800048828125</ele>
        <time>2019-10-29T07:05:45.000Z</time>
      </trkpt>
      <trkpt lat="37.40555651485919952392578125" lon="-3.0672754906117916107177734375">
        <ele>1075.4000244140625</ele>
        <time>2019-10-29T07:05:51.000Z</time>
      </trkpt>
      <trkpt lat="37.40560253150761127471923828125" lon="-3.06751714088022708892822265625">
        <ele>1074.5999755859375</ele>
        <time>2019-10-29T07:05:56.000Z</time>
      </trkpt>
      <trkpt lat="37.40566221065819263458251953125" lon="-3.06776910088956356048583984375">
        <ele>1074</ele>
        <time>2019-10-29T07:06:01.000Z</time>
      </trkpt>
      <trkpt lat="37.405731193721294403076171875" lon="-3.068031705915927886962890625">
        <ele>1073.4000244140625</ele>
        <time>2019-10-29T07:06:06.000Z</time>
      </trkpt>
      <trkpt lat="37.40577503107488155364990234375" lon="-3.068296574056148529052734375">
        <ele>1071.800048828125</ele>
        <time>2019-10-29T07:06:11.000Z</time>
      </trkpt>
      <trkpt lat="37.40583236329257488250732421875" lon="-3.06851794011890888214111328125">
        <ele>1071</ele>
        <time>2019-10-29T07:06:15.000Z</time>
      </trkpt>
      <trkpt lat="37.40589187480509281158447265625" lon="-3.0687595903873443603515625">
        <ele>1070.4000244140625</ele>
        <time>2019-10-29T07:06:19.000Z</time>
      </trkpt>
      <trkpt lat="37.4059613607823848724365234375" lon="-3.069012053310871124267578125">
        <ele>1070.199951171875</ele>
        <time>2019-10-29T07:06:23.000Z</time>
      </trkpt>
      <trkpt lat="37.4060294218361377716064453125" lon="-3.069274909794330596923828125">
        <ele>1069.199951171875</ele>
        <time>2019-10-29T07:06:27.000Z</time>
      </trkpt>
      <trkpt lat="37.40610393695533275604248046875" lon="-3.06954748928546905517578125">
        <ele>1069</ele>
        <time>2019-10-29T07:06:31.000Z</time>
      </trkpt>
      <trkpt lat="37.40617468021810054779052734375" lon="-3.06981713511049747467041015625">
        <ele>1069</ele>
        <time>2019-10-29T07:06:35.000Z</time>
      </trkpt>
      <trkpt lat="37.40624207071959972381591796875" lon="-3.07008468545973300933837890625">
        <ele>1069.4000244140625</ele>
        <time>2019-10-29T07:06:39.000Z</time>
      </trkpt>
      <trkpt lat="37.4063030071556568145751953125" lon="-3.0703466199338436126708984375">
        <ele>1069.800048828125</ele>
        <time>2019-10-29T07:06:43.000Z</time>
      </trkpt>
      <trkpt lat="37.406365871429443359375" lon="-3.0706036090850830078125">
        <ele>1070.5999755859375</ele>
        <time>2019-10-29T07:06:47.000Z</time>
      </trkpt>
      <trkpt lat="37.40642479620873928070068359375" lon="-3.07085649110376834869384765625">
        <ele>1070.199951171875</ele>
        <time>2019-10-29T07:06:51.000Z</time>
      </trkpt>
      <trkpt lat="37.406490929424762725830078125" lon="-3.0711097083985805511474609375">
        <ele>1069.199951171875</ele>
        <time>2019-10-29T07:06:55.000Z</time>
      </trkpt>
      <trkpt lat="37.40655890665948390960693359375" lon="-3.07135739363729953765869140625">
        <ele>1067.5999755859375</ele>
        <time>2019-10-29T07:06:59.000Z</time>
      </trkpt>
      <trkpt lat="37.40661556832492351531982421875" lon="-3.0716027319431304931640625">
        <ele>1066.5999755859375</ele>
        <time>2019-10-29T07:07:03.000Z</time>
      </trkpt>
      <trkpt lat="37.4066771753132343292236328125" lon="-3.071846477687358856201171875">
        <ele>1065</ele>
        <time>2019-10-29T07:07:07.000Z</time>
      </trkpt>
      <trkpt lat="37.40674381144344806671142578125" lon="-3.07208896614611148834228515625">
        <ele>1063.800048828125</ele>
        <time>2019-10-29T07:07:11.000Z</time>
      </trkpt>
      <trkpt lat="37.4068057537078857421875" lon="-3.072328269481658935546875">
        <ele>1063.4000244140625</ele>
        <time>2019-10-29T07:07:15.000Z</time>
      </trkpt>
      <trkpt lat="37.40686618722975254058837890625" lon="-3.07255290448665618896484375">
        <ele>1063.199951171875</ele>
        <time>2019-10-29T07:07:19.000Z</time>
      </trkpt>
      <trkpt lat="37.40692402236163616180419921875" lon="-3.072771169245243072509765625">
        <ele>1063.4000244140625</ele>
        <time>2019-10-29T07:07:23.000Z</time>
      </trkpt>
      <trkpt lat="37.4069809354841709136962890625" lon="-3.07299085892736911773681640625">
        <ele>1064</ele>
        <time>2019-10-29T07:07:27.000Z</time>
      </trkpt>
      <trkpt lat="37.407040782272815704345703125" lon="-3.07325807400047779083251953125">
        <ele>1064.5999755859375</ele>
        <time>2019-10-29T07:07:32.000Z</time>
      </trkpt>
      <trkpt lat="37.40710406564176082611083984375" lon="-3.0735106207430362701416015625">
        <ele>1065</ele>
        <time>2019-10-29T07:07:37.000Z</time>
      </trkpt>
      <trkpt lat="37.407148070633411407470703125" lon="-3.0737362615764141082763671875">
        <ele>1064.800048828125</ele>
        <time>2019-10-29T07:07:41.000Z</time>
      </trkpt>
      <trkpt lat="37.40719266235828399658203125" lon="-3.0739753134548664093017578125">
        <ele>1065</ele>
        <time>2019-10-29T07:07:45.000Z</time>
      </trkpt>
      <trkpt lat="37.40723130293190479278564453125" lon="-3.07421931065618991851806640625">
        <ele>1064.199951171875</ele>
        <time>2019-10-29T07:07:49.000Z</time>
      </trkpt>
      <trkpt lat="37.40726415999233722686767578125" lon="-3.07447068393230438232421875">
        <ele>1063.4000244140625</ele>
        <time>2019-10-29T07:07:53.000Z</time>
      </trkpt>
      <trkpt lat="37.40729651413857936859130859375" lon="-3.0747114121913909912109375">
        <ele>1062.5999755859375</ele>
        <time>2019-10-29T07:07:57.000Z</time>
      </trkpt>
      <trkpt lat="37.4073205702006816864013671875" lon="-3.074882738292217254638671875">
        <ele>1062</ele>
        <time>2019-10-29T07:08:00.000Z</time>
      </trkpt>
      <trkpt lat="37.40735937841236591339111328125" lon="-3.0751041881740093231201171875">
        <ele>1061.5999755859375</ele>
        <time>2019-10-29T07:08:04.000Z</time>
      </trkpt>
      <trkpt lat="37.4074094183743000030517578125" lon="-3.0753254704177379608154296875">
        <ele>1061.5999755859375</ele>
        <time>2019-10-29T07:08:08.000Z</time>
      </trkpt>
      <trkpt lat="37.40744839422404766082763671875" lon="-3.075546585023403167724609375">
        <ele>1061.4000244140625</ele>
        <time>2019-10-29T07:08:12.000Z</time>
      </trkpt>
      <trkpt lat="37.4074838496744632720947265625" lon="-3.075777590274810791015625">
        <ele>1060.800048828125</ele>
        <time>2019-10-29T07:08:16.000Z</time>
      </trkpt>
      <trkpt lat="37.40752751938998699188232421875" lon="-3.0760111100971698760986328125">
        <ele>1060.199951171875</ele>
        <time>2019-10-29T07:08:20.000Z</time>
      </trkpt>
      <trkpt lat="37.40756691433489322662353515625" lon="-3.07624236680567264556884765625">
        <ele>1059.4000244140625</ele>
        <time>2019-10-29T07:08:24.000Z</time>
      </trkpt>
      <trkpt lat="37.40760463289916515350341796875" lon="-3.0764654092490673065185546875">
        <ele>1058.800048828125</ele>
        <time>2019-10-29T07:08:28.000Z</time>
      </trkpt>
      <trkpt lat="37.40762759931385517120361328125" lon="-3.076701946556568145751953125">
        <ele>1058.199951171875</ele>
        <time>2019-10-29T07:08:32.000Z</time>
      </trkpt>
      <trkpt lat="37.40765643306076526641845703125" lon="-3.07693420909345149993896484375">
        <ele>1058.199951171875</ele>
        <time>2019-10-29T07:08:36.000Z</time>
      </trkpt>
      <trkpt lat="37.407704293727874755859375" lon="-3.0771668069064617156982421875">
        <ele>1057.5999755859375</ele>
        <time>2019-10-29T07:08:40.000Z</time>
      </trkpt>
      <trkpt lat="37.4077413417398929595947265625" lon="-3.0774038471281528472900390625">
        <ele>1056</ele>
        <time>2019-10-29T07:08:44.000Z</time>
      </trkpt>
      <trkpt lat="37.40778065286576747894287109375" lon="-3.07764164172112941741943359375">
        <ele>1056.199951171875</ele>
        <time>2019-10-29T07:08:48.000Z</time>
      </trkpt>
      <trkpt lat="37.40781820379197597503662109375" lon="-3.07786342687904834747314453125">
        <ele>1055.199951171875</ele>
        <time>2019-10-29T07:08:52.000Z</time>
      </trkpt>
      <trkpt lat="37.40787394344806671142578125" lon="-3.0781293846666812896728515625">
        <ele>1055.199951171875</ele>
        <time>2019-10-29T07:08:57.000Z</time>
      </trkpt>
      <trkpt lat="37.40792683325707912445068359375" lon="-3.0783744715154170989990234375">
        <ele>1055.4000244140625</ele>
        <time>2019-10-29T07:09:02.000Z</time>
      </trkpt>
      <trkpt lat="37.40796941332519054412841796875" lon="-3.07860489003360271453857421875">
        <ele>1054.5999755859375</ele>
        <time>2019-10-29T07:09:07.000Z</time>
      </trkpt>
      <trkpt lat="37.4080041982233524322509765625" lon="-3.07883623056113719940185546875">
        <ele>1053.800048828125</ele>
        <time>2019-10-29T07:09:12.000Z</time>
      </trkpt>
      <trkpt lat="37.4080531485378742218017578125" lon="-3.079105205833911895751953125">
        <ele>1053.199951171875</ele>
        <time>2019-10-29T07:09:17.000Z</time>
      </trkpt>
      <trkpt lat="37.40809178911149501800537109375" lon="-3.0793424136936664581298828125">
        <ele>1054.199951171875</ele>
        <time>2019-10-29T07:09:21.000Z</time>
      </trkpt>
      <trkpt lat="37.40813621319830417633056640625" lon="-3.07959764264523983001708984375">
        <ele>1054.800048828125</ele>
        <time>2019-10-29T07:09:25.000Z</time>
      </trkpt>
      <trkpt lat="37.4081919528543949127197265625" lon="-3.07986049912869930267333984375">
        <ele>1054.5999755859375</ele>
        <time>2019-10-29T07:09:29.000Z</time>
      </trkpt>
      <trkpt lat="37.40825288929045200347900390625" lon="-3.0801366828382015228271484375">
        <ele>1053.800048828125</ele>
        <time>2019-10-29T07:09:33.000Z</time>
      </trkpt>
      <trkpt lat="37.4083233810961246490478515625" lon="-3.080423511564731597900390625">
        <ele>1053</ele>
        <time>2019-10-29T07:09:37.000Z</time>
      </trkpt>
      <trkpt lat="37.408407367765903472900390625" lon="-3.08070547878742218017578125">
        <ele>1051.800048828125</ele>
        <time>2019-10-29T07:09:41.000Z</time>
      </trkpt>
      <trkpt lat="37.40849194116890430450439453125" lon="-3.08090656064450740814208984375">
        <ele>1051.199951171875</ele>
        <time>2019-10-29T07:09:44.000Z</time>
      </trkpt>
      <trkpt lat="37.40859252400696277618408203125" lon="-3.0811299383640289306640625">
        <ele>1051</ele>
        <time>2019-10-29T07:09:48.000Z</time>
      </trkpt>
      <trkpt lat="37.40869293920695781707763671875" lon="-3.0813346244394779205322265625">
        <ele>1050.800048828125</ele>
        <time>2019-10-29T07:09:52.000Z</time>
      </trkpt>
      <trkpt lat="37.4087116308510303497314453125" lon="-3.081389777362346649169921875">
        <ele>1050.5999755859375</ele>
        <time>2019-10-29T07:09:53.000Z</time>
      </trkpt>
      <trkpt lat="37.408637702465057373046875" lon="-3.08158935047686100006103515625">
        <ele>1050</ele>
        <time>2019-10-29T07:09:58.000Z</time>
      </trkpt>
      <trkpt lat="37.40853133611381053924560546875" lon="-3.08158448897302150726318359375">
        <ele>1049.5999755859375</ele>
        <time>2019-10-29T07:10:01.000Z</time>
      </trkpt>
      <trkpt lat="37.40845824591815471649169921875" lon="-3.0815746821463108062744140625">
        <ele>1049</ele>
        <time>2019-10-29T07:10:03.000Z</time>
      </trkpt>
      <trkpt lat="37.40838532336056232452392578125" lon="-3.08156110346317291259765625">
        <ele>1048.5999755859375</ele>
        <time>2019-10-29T07:10:05.000Z</time>
      </trkpt>
      <trkpt lat="37.408194132149219512939453125" lon="-3.081591613590717315673828125">
        <ele>1048</ele>
        <time>2019-10-29T07:10:10.000Z</time>
      </trkpt>
      <trkpt lat="37.40801920183002948760986328125" lon="-3.0816538073122501373291015625">
        <ele>1048</ele>
        <time>2019-10-29T07:10:15.000Z</time>
      </trkpt>
      <trkpt lat="37.4078543297946453094482421875" lon="-3.08172010816633701324462890625">
        <ele>1048</ele>
        <time>2019-10-29T07:10:21.000Z</time>
      </trkpt>
      <trkpt lat="37.40780764259397983551025390625" lon="-3.08175162412226200103759765625">
        <ele>1048</ele>
        <time>2019-10-29T07:10:23.000Z</time>
      </trkpt>
      <trkpt lat="37.4076364003121852874755859375" lon="-3.08184198103845119476318359375">
        <ele>1048.800048828125</ele>
        <time>2019-10-29T07:10:30.000Z</time>
      </trkpt>
      <trkpt lat="37.4074496515095233917236328125" lon="-3.0819387920200824737548828125">
        <ele>1050</ele>
        <time>2019-10-29T07:10:37.000Z</time>
      </trkpt>
      <trkpt lat="37.40727639757096767425537109375" lon="-3.08205085806548595428466796875">
        <ele>1050.800048828125</ele>
        <time>2019-10-29T07:10:44.000Z</time>
      </trkpt>
      <trkpt lat="37.40711345337331295013427734375" lon="-3.0821577273309230804443359375">
        <ele>1051.199951171875</ele>
        <time>2019-10-29T07:10:50.000Z</time>
      </trkpt>
      <trkpt lat="37.4069457314908504486083984375" lon="-3.0823132954537868499755859375">
        <ele>1051.199951171875</ele>
        <time>2019-10-29T07:10:56.000Z</time>
      </trkpt>
      <trkpt lat="37.40681773982942104339599609375" lon="-3.08248755522072315216064453125">
        <ele>1050.5999755859375</ele>
        <time>2019-10-29T07:11:01.000Z</time>
      </trkpt>
      <trkpt lat="37.40667725913226604461669921875" lon="-3.08267313055694103240966796875">
        <ele>1050</ele>
        <time>2019-10-29T07:11:06.000Z</time>
      </trkpt>
      <trkpt lat="37.40651431493461132049560546875" lon="-3.08282601647078990936279296875">
        <ele>1049</ele>
        <time>2019-10-29T07:11:11.000Z</time>
      </trkpt>
      <trkpt lat="37.40635581314563751220703125" lon="-3.08298326097428798675537109375">
        <ele>1048</ele>
        <time>2019-10-29T07:11:16.000Z</time>
      </trkpt>
      <trkpt lat="37.4062342755496501922607421875" lon="-3.08319113217294216156005859375">
        <ele>1047.5999755859375</ele>
        <time>2019-10-29T07:11:21.000Z</time>
      </trkpt>
      <trkpt lat="37.4061165936291217803955078125" lon="-3.08345298282802104949951171875">
        <ele>1046.199951171875</ele>
        <time>2019-10-29T07:11:26.000Z</time>
      </trkpt>
      <trkpt lat="37.40600637160241603851318359375" lon="-3.08368214406073093414306640625">
        <ele>1046</ele>
        <time>2019-10-29T07:11:29.000Z</time>
      </trkpt>
      <trkpt lat="37.40592054091393947601318359375" lon="-3.08392010629177093505859375">
        <ele>1046.5999755859375</ele>
        <time>2019-10-29T07:11:32.000Z</time>
      </trkpt>
      <trkpt lat="37.40581559948623180389404296875" lon="-3.084112219512462615966796875">
        <ele>1046.800048828125</ele>
        <time>2019-10-29T07:11:37.000Z</time>
      </trkpt>
      <trkpt lat="37.40565148182213306427001953125" lon="-3.08422587811946868896484375">
        <ele>1047.4000244140625</ele>
        <time>2019-10-29T07:11:45.000Z</time>
      </trkpt>
      <trkpt lat="37.4054539203643798828125" lon="-3.084281198680400848388671875">
        <ele>1048.199951171875</ele>
        <time>2019-10-29T07:11:53.000Z</time>
      </trkpt>
      <trkpt lat="37.4052934907376766204833984375" lon="-3.0844094417989253997802734375">
        <ele>1048.800048828125</ele>
        <time>2019-10-29T07:12:00.000Z</time>
      </trkpt>
      <trkpt lat="37.4051553569734096527099609375" lon="-3.084605075418949127197265625">
        <ele>1049</ele>
        <time>2019-10-29T07:12:07.000Z</time>
      </trkpt>
      <trkpt lat="37.40504982881247997283935546875" lon="-3.08481998741626739501953125">
        <ele>1049</ele>
        <time>2019-10-29T07:12:13.000Z</time>
      </trkpt>
      <trkpt lat="37.40497221238911151885986328125" lon="-3.08504252694547176361083984375">
        <ele>1049</ele>
        <time>2019-10-29T07:12:19.000Z</time>
      </trkpt>
      <trkpt lat="37.4048807658255100250244140625" lon="-3.085267581045627593994140625">
        <ele>1049.4000244140625</ele>
        <time>2019-10-29T07:12:25.000Z</time>
      </trkpt>
      <trkpt lat="37.40478144027292728424072265625" lon="-3.08547972701489925384521484375">
        <ele>1049.5999755859375</ele>
        <time>2019-10-29T07:12:31.000Z</time>
      </trkpt>
      <trkpt lat="37.40471296012401580810546875" lon="-3.0856969021260738372802734375">
        <ele>1050</ele>
        <time>2019-10-29T07:12:37.000Z</time>
      </trkpt>
      <trkpt lat="37.40467733703553676605224609375" lon="-3.08595078997313976287841796875">
        <ele>1050</ele>
        <time>2019-10-29T07:12:43.000Z</time>
      </trkpt>
      <trkpt lat="37.404650934040546417236328125" lon="-3.08621683157980442047119140625">
        <ele>1050</ele>
        <time>2019-10-29T07:12:49.000Z</time>
      </trkpt>
      <trkpt lat="37.4046293087303638458251953125" lon="-3.08645420707762241363525390625">
        <ele>1049.800048828125</ele>
        <time>2019-10-29T07:12:54.000Z</time>
      </trkpt>
      <trkpt lat="37.40462570451200008392333984375" lon="-3.0867017246782779693603515625">
        <ele>1049</ele>
        <time>2019-10-29T07:12:59.000Z</time>
      </trkpt>
      <trkpt lat="37.40463576279580593109130859375" lon="-3.08698629029095172882080078125">
        <ele>1047.4000244140625</ele>
        <time>2019-10-29T07:13:04.000Z</time>
      </trkpt>
      <trkpt lat="37.4046420492231845855712890625" lon="-3.08722450397908687591552734375">
        <ele>1047</ele>
        <time>2019-10-29T07:13:08.000Z</time>
      </trkpt>
      <trkpt lat="37.4046505987644195556640625" lon="-3.0874654836952686309814453125">
        <ele>1046.800048828125</ele>
        <time>2019-10-29T07:13:12.000Z</time>
      </trkpt>
      <trkpt lat="37.40467809140682220458984375" lon="-3.087701685726642608642578125">
        <ele>1046</ele>
        <time>2019-10-29T07:13:16.000Z</time>
      </trkpt>
      <trkpt lat="37.4047174863517284393310546875" lon="-3.08792866766452789306640625">
        <ele>1046</ele>
        <time>2019-10-29T07:13:20.000Z</time>
      </trkpt>
      <trkpt lat="37.40474824793636798858642578125" lon="-3.0881554819643497467041015625">
        <ele>1045.199951171875</ele>
        <time>2019-10-29T07:13:24.000Z</time>
      </trkpt>
      <trkpt lat="37.40475310944020748138427734375" lon="-3.08820971287786960601806640625">
        <ele>1045</ele>
        <time>2019-10-29T07:13:25.000Z</time>
      </trkpt>
      <trkpt lat="37.404757551848888397216796875" lon="-3.088466785848140716552734375">
        <ele>1044.800048828125</ele>
        <time>2019-10-29T07:13:30.000Z</time>
      </trkpt>
      <trkpt lat="37.40475093014538288116455078125" lon="-3.08872637338936328887939453125">
        <ele>1044.800048828125</ele>
        <time>2019-10-29T07:13:35.000Z</time>
      </trkpt>
      <trkpt lat="37.404740788042545318603515625" lon="-3.088890574872493743896484375">
        <ele>1044.800048828125</ele>
        <time>2019-10-29T07:13:38.000Z</time>
      </trkpt>
      <trkpt lat="37.4047238565981388092041015625" lon="-3.08905812911689281463623046875">
        <ele>1044.800048828125</ele>
        <time>2019-10-29T07:13:41.000Z</time>
      </trkpt>
      <trkpt lat="37.404702566564083099365234375" lon="-3.0893361568450927734375">
        <ele>1043</ele>
        <time>2019-10-29T07:13:46.000Z</time>
      </trkpt>
      <trkpt lat="37.40470013581216335296630859375" lon="-3.0895626358687877655029296875">
        <ele>1042.199951171875</ele>
        <time>2019-10-29T07:13:50.000Z</time>
      </trkpt>
      <trkpt lat="37.4047087691724300384521484375" lon="-3.08984384872019290924072265625">
        <ele>1042</ele>
        <time>2019-10-29T07:13:55.000Z</time>
      </trkpt>
      <trkpt lat="37.4047449789941310882568359375" lon="-3.09011936187744140625">
        <ele>1042</ele>
        <time>2019-10-29T07:14:00.000Z</time>
      </trkpt>
      <trkpt lat="37.40480222739279270172119140625" lon="-3.0903833918273448944091796875">
        <ele>1041.5999755859375</ele>
        <time>2019-10-29T07:14:05.000Z</time>
      </trkpt>
      <trkpt lat="37.40486492402851581573486328125" lon="-3.09064012952148914337158203125">
        <ele>1040.199951171875</ele>
        <time>2019-10-29T07:14:10.000Z</time>
      </trkpt>
      <trkpt lat="37.40489208139479160308837890625" lon="-3.090739287436008453369140625">
        <ele>1040</ele>
        <time>2019-10-29T07:14:12.000Z</time>
      </trkpt>
      <trkpt lat="37.4049686081707477569580078125" lon="-3.09098680503666400909423828125">
        <ele>1039</ele>
        <time>2019-10-29T07:14:17.000Z</time>
      </trkpt>
      <trkpt lat="37.4050386808812618255615234375" lon="-3.09121437370777130126953125">
        <ele>1038</ele>
        <time>2019-10-29T07:14:22.000Z</time>
      </trkpt>
      <trkpt lat="37.4049890600144863128662109375" lon="-3.091438673436641693115234375">
        <ele>1038</ele>
        <time>2019-10-29T07:14:27.000Z</time>
      </trkpt>
      <trkpt lat="37.40484732203185558319091796875" lon="-3.091522492468357086181640625">
        <ele>1038</ele>
        <time>2019-10-29T07:14:32.000Z</time>
      </trkpt>
      <trkpt lat="37.4046440608799457550048828125" lon="-3.0915957503020763397216796875">
        <ele>1038.199951171875</ele>
        <time>2019-10-29T07:14:38.000Z</time>
      </trkpt>
      <trkpt lat="37.40446862764656543731689453125" lon="-3.0916799046099185943603515625">
        <ele>1039.199951171875</ele>
        <time>2019-10-29T07:14:43.000Z</time>
      </trkpt>
      <trkpt lat="37.40430518053472042083740234375" lon="-3.09182482771575450897216796875">
        <ele>1039</ele>
        <time>2019-10-29T07:14:48.000Z</time>
      </trkpt>
      <trkpt lat="37.4041602574288845062255859375" lon="-3.0920259095728397369384765625">
        <ele>1038.199951171875</ele>
        <time>2019-10-29T07:14:53.000Z</time>
      </trkpt>
      <trkpt lat="37.40403704345226287841796875" lon="-3.0922005884349346160888671875">
        <ele>1037.5999755859375</ele>
        <time>2019-10-29T07:14:57.000Z</time>
      </trkpt>
      <trkpt lat="37.40391005761921405792236328125" lon="-3.09237367473542690277099609375">
        <ele>1037.199951171875</ele>
        <time>2019-10-29T07:15:01.000Z</time>
      </trkpt>
      <trkpt lat="37.403785251080989837646484375" lon="-3.0925569869577884674072265625">
        <ele>1036.4000244140625</ele>
        <time>2019-10-29T07:15:05.000Z</time>
      </trkpt>
      <trkpt lat="37.40367838181555271148681640625" lon="-3.092761673033237457275390625">
        <ele>1036</ele>
        <time>2019-10-29T07:15:09.000Z</time>
      </trkpt>
      <trkpt lat="37.40363379009068012237548828125" lon="-3.092867620289325714111328125">
        <ele>1036</ele>
        <time>2019-10-29T07:15:11.000Z</time>
      </trkpt>
      <trkpt lat="37.403563298285007476806640625" lon="-3.0930947698652744293212890625">
        <ele>1036</ele>
        <time>2019-10-29T07:15:15.000Z</time>
      </trkpt>
      <trkpt lat="37.40349615924060344696044921875" lon="-3.09331630356609821319580078125">
        <ele>1035.5999755859375</ele>
        <time>2019-10-29T07:15:19.000Z</time>
      </trkpt>
      <trkpt lat="37.40346263162791728973388671875" lon="-3.09341319836676120758056640625">
        <ele>1035.5999755859375</ele>
        <time>2019-10-29T07:15:21.000Z</time>
      </trkpt>
      <trkpt lat="37.40340940654277801513671875" lon="-3.0935333110392093658447265625">
        <ele>1035.199951171875</ele>
        <time>2019-10-29T07:15:24.000Z</time>
      </trkpt>
      <trkpt lat="37.40329901687800884246826171875" lon="-3.09368292801082134246826171875">
        <ele>1034.4000244140625</ele>
        <time>2019-10-29T07:15:29.000Z</time>
      </trkpt>
      <trkpt lat="37.403280325233936309814453125" lon="-3.0937093310058116912841796875">
        <ele>1034.199951171875</ele>
        <time>2019-10-29T07:15:30.000Z</time>
      </trkpt>
      <trkpt lat="37.40323648788034915924072265625" lon="-3.09376792050898075103759765625">
        <ele>1033.800048828125</ele>
        <time>2019-10-29T07:15:32.000Z</time>
      </trkpt>
      <trkpt lat="37.4030975997447967529296875" lon="-3.09393874369561672210693359375">
        <ele>1032.5999755859375</ele>
        <time>2019-10-29T07:15:37.000Z</time>
      </trkpt>
      <trkpt lat="37.4029633216559886932373046875" lon="-3.0941368080675601959228515625">
        <ele>1031.800048828125</ele>
        <time>2019-10-29T07:15:41.000Z</time>
      </trkpt>
      <trkpt lat="37.4028682708740234375" lon="-3.0942410789430141448974609375">
        <ele>1031.4000244140625</ele>
        <time>2019-10-29T07:15:43.000Z</time>
      </trkpt>
      <trkpt lat="37.4026991240680217742919921875" lon="-3.0943285860121250152587890625">
        <ele>1031.4000244140625</ele>
        <time>2019-10-29T07:15:46.000Z</time>
      </trkpt>
      <trkpt lat="37.402640618383884429931640625" lon="-3.09434073977172374725341796875">
        <ele>1031.800048828125</ele>
        <time>2019-10-29T07:15:47.000Z</time>
      </trkpt>
      <trkpt lat="37.40244892425835132598876953125" lon="-3.09437996707856655120849609375">
        <ele>1033.4000244140625</ele>
        <time>2019-10-29T07:15:51.000Z</time>
      </trkpt>
      <trkpt lat="37.402267120778560638427734375" lon="-3.09441961348056793212890625">
        <ele>1034</ele>
        <time>2019-10-29T07:15:58.000Z</time>
      </trkpt>
      <trkpt lat="37.40226787514984607696533203125" lon="-3.09441600926220417022705078125">
        <ele>1034</ele>
        <time>2019-10-29T07:16:03.000Z</time>
      </trkpt>
      <trkpt lat="37.402169890701770782470703125" lon="-3.0944335274398326873779296875">
        <ele>1034.4000244140625</ele>
        <time>2019-10-29T07:16:12.000Z</time>
      </trkpt>
      <trkpt lat="37.40205111913383007049560546875" lon="-3.09448876418173313140869140625">
        <ele>1034.5999755859375</ele>
        <time>2019-10-29T07:16:25.000Z</time>
      </trkpt>
      <trkpt lat="37.402031086385250091552734375" lon="-3.0945025943219661712646484375">
        <ele>1034.5999755859375</ele>
        <time>2019-10-29T07:16:29.000Z</time>
      </trkpt>
      <trkpt lat="37.4018047749996185302734375" lon="-3.0946762673556804656982421875">
        <ele>1035</ele>
        <time>2019-10-29T07:17:25.000Z</time>
      </trkpt>
      <trkpt lat="37.40164577029645442962646484375" lon="-3.094793446362018585205078125">
        <ele>1035</ele>
        <time>2019-10-29T07:17:33.000Z</time>
      </trkpt>
      <trkpt lat="37.4014721810817718505859375" lon="-3.094901740550994873046875">
        <ele>1035.5999755859375</ele>
        <time>2019-10-29T07:17:41.000Z</time>
      </trkpt>
      <trkpt lat="37.40128886885941028594970703125" lon="-3.09502671472728252410888671875">
        <ele>1035.800048828125</ele>
        <time>2019-10-29T07:17:48.000Z</time>
      </trkpt>
      <trkpt lat="37.40110547281801700592041015625" lon="-3.09514607302844524383544921875">
        <ele>1036</ele>
        <time>2019-10-29T07:17:54.000Z</time>
      </trkpt>
      <trkpt lat="37.4009342305362224578857421875" lon="-3.09526375494897365570068359375">
        <ele>1035.4000244140625</ele>
        <time>2019-10-29T07:18:01.000Z</time>
      </trkpt>
      <trkpt lat="37.40076667629182338714599609375" lon="-3.095394261181354522705078125">
        <ele>1034.800048828125</ele>
        <time>2019-10-29T07:18:08.000Z</time>
      </trkpt>
      <trkpt lat="37.40062083117663860321044921875" lon="-3.0955325625836849212646484375">
        <ele>1034.4000244140625</ele>
        <time>2019-10-29T07:18:14.000Z</time>
      </trkpt>
      <trkpt lat="37.4004678614437580108642578125" lon="-3.0956975184381008148193359375">
        <ele>1034</ele>
        <time>2019-10-29T07:18:22.000Z</time>
      </trkpt>
      <trkpt lat="37.400305755436420440673828125" lon="-3.095848560333251953125">
        <ele>1034.4000244140625</ele>
        <time>2019-10-29T07:18:29.000Z</time>
      </trkpt>
      <trkpt lat="37.40014272741973400115966796875" lon="-3.09597101993858814239501953125">
        <ele>1034.800048828125</ele>
        <time>2019-10-29T07:18:35.000Z</time>
      </trkpt>
      <trkpt lat="37.39997643046081066131591796875" lon="-3.09608752839267253875732421875">
        <ele>1035</ele>
        <time>2019-10-29T07:18:41.000Z</time>
      </trkpt>
      <trkpt lat="37.39980585873126983642578125" lon="-3.0962039530277252197265625">
        <ele>1035.5999755859375</ele>
        <time>2019-10-29T07:18:47.000Z</time>
      </trkpt>
      <trkpt lat="37.39963210187852382659912109375" lon="-3.09633663855493068695068359375">
        <ele>1036</ele>
        <time>2019-10-29T07:18:53.000Z</time>
      </trkpt>
      <trkpt lat="37.39945423789322376251220703125" lon="-3.096487261354923248291015625">
        <ele>1036.199951171875</ele>
        <time>2019-10-29T07:18:59.000Z</time>
      </trkpt>
      <trkpt lat="37.39928492344915866851806640625" lon="-3.09663671068847179412841796875">
        <ele>1035.800048828125</ele>
        <time>2019-10-29T07:19:05.000Z</time>
      </trkpt>
      <trkpt lat="37.39912482909858226776123046875" lon="-3.09678909368813037872314453125">
        <ele>1035.199951171875</ele>
        <time>2019-10-29T07:19:11.000Z</time>
      </trkpt>
      <trkpt lat="37.39895551465451717376708984375" lon="-3.09695220552384853363037109375">
        <ele>1035</ele>
        <time>2019-10-29T07:19:17.000Z</time>
      </trkpt>
      <trkpt lat="37.39879022352397441864013671875" lon="-3.0971184186637401580810546875">
        <ele>1035.199951171875</ele>
        <time>2019-10-29T07:19:23.000Z</time>
      </trkpt>
      <trkpt lat="37.39865091629326343536376953125" lon="-3.097267784178256988525390625">
        <ele>1036.4000244140625</ele>
        <time>2019-10-29T07:19:28.000Z</time>
      </trkpt>
      <trkpt lat="37.39850557409226894378662109375" lon="-3.09741170145571231842041015625">
        <ele>1037</ele>
        <time>2019-10-29T07:19:33.000Z</time>
      </trkpt>
      <trkpt lat="37.3983532749116420745849609375" lon="-3.09755670838057994842529296875">
        <ele>1037</ele>
        <time>2019-10-29T07:19:38.000Z</time>
      </trkpt>
      <trkpt lat="37.39820717833936214447021484375" lon="-3.09769651852548122406005859375">
        <ele>1036.800048828125</ele>
        <time>2019-10-29T07:19:43.000Z</time>
      </trkpt>
      <trkpt lat="37.39805663935840129852294921875" lon="-3.0978292040526866912841796875">
        <ele>1036.4000244140625</ele>
        <time>2019-10-29T07:19:48.000Z</time>
      </trkpt>
      <trkpt lat="37.3978889174759387969970703125" lon="-3.0979488976299762725830078125">
        <ele>1036</ele>
        <time>2019-10-29T07:19:53.000Z</time>
      </trkpt>
      <trkpt lat="37.397718094289302825927734375" lon="-3.09806951321661472320556640625">
        <ele>1035.800048828125</ele>
        <time>2019-10-29T07:19:58.000Z</time>
      </trkpt>
      <trkpt lat="37.39756076596677303314208984375" lon="-3.09819524176418781280517578125">
        <ele>1035.4000244140625</ele>
        <time>2019-10-29T07:20:03.000Z</time>
      </trkpt>
      <trkpt lat="37.397388853132724761962890625" lon="-3.098345696926116943359375">
        <ele>1035</ele>
        <time>2019-10-29T07:20:09.000Z</time>
      </trkpt>
      <trkpt lat="37.39722012542188167572021484375" lon="-3.09850336052477359771728515625">
        <ele>1035</ele>
        <time>2019-10-29T07:20:15.000Z</time>
      </trkpt>
      <trkpt lat="37.39706153981387615203857421875" lon="-3.0986702442169189453125">
        <ele>1034.4000244140625</ele>
        <time>2019-10-29T07:20:21.000Z</time>
      </trkpt>
      <trkpt lat="37.3969286866486072540283203125" lon="-3.09882514178752899169921875">
        <ele>1033.800048828125</ele>
        <time>2019-10-29T07:20:27.000Z</time>
      </trkpt>
      <trkpt lat="37.3968438617885112762451171875" lon="-3.09889345429837703704833984375">
        <ele>1033.4000244140625</ele>
        <time>2019-10-29T07:20:31.000Z</time>
      </trkpt>
      <trkpt lat="37.3966495692729949951171875" lon="-3.09891231358051300048828125">
        <ele>1032.5999755859375</ele>
        <time>2019-10-29T07:20:40.000Z</time>
      </trkpt>
      <trkpt lat="37.3964432068169116973876953125" lon="-3.09896000660955905914306640625">
        <ele>1032.199951171875</ele>
        <time>2019-10-29T07:20:46.000Z</time>
      </trkpt>
      <trkpt lat="37.3962487466633319854736328125" lon="-3.09905505739152431488037109375">
        <ele>1032.4000244140625</ele>
        <time>2019-10-29T07:20:51.000Z</time>
      </trkpt>
      <trkpt lat="37.39608085714280605316162109375" lon="-3.099175505340099334716796875">
        <ele>1033.4000244140625</ele>
        <time>2019-10-29T07:20:57.000Z</time>
      </trkpt>
      <trkpt lat="37.3959057591855525970458984375" lon="-3.0992430634796619415283203125">
        <ele>1034.4000244140625</ele>
        <time>2019-10-29T07:21:04.000Z</time>
      </trkpt>
      <trkpt lat="37.39570836536586284637451171875" lon="-3.09925789944827556610107421875">
        <ele>1035</ele>
        <time>2019-10-29T07:21:12.000Z</time>
      </trkpt>
      <trkpt lat="37.3955158330500125885009765625" lon="-3.0992816202342510223388671875">
        <ele>1035.800048828125</ele>
        <time>2019-10-29T07:21:20.000Z</time>
      </trkpt>
      <trkpt lat="37.39534794352948665618896484375" lon="-3.09941564686596393585205078125">
        <ele>1036</ele>
        <time>2019-10-29T07:21:29.000Z</time>
      </trkpt>
      <trkpt lat="37.395210899412631988525390625" lon="-3.09959418140351772308349609375">
        <ele>1036</ele>
        <time>2019-10-29T07:21:37.000Z</time>
      </trkpt>
      <trkpt lat="37.39506631158292293548583984375" lon="-3.0997456423938274383544921875">
        <ele>1036</ele>
        <time>2019-10-29T07:21:44.000Z</time>
      </trkpt>
      <trkpt lat="37.394911162555217742919921875" lon="-3.09988771565258502960205078125">
        <ele>1036</ele>
        <time>2019-10-29T07:21:51.000Z</time>
      </trkpt>
      <trkpt lat="37.39474193193018436431884765625" lon="-3.10003557242453098297119140625">
        <ele>1035.4000244140625</ele>
        <time>2019-10-29T07:21:58.000Z</time>
      </trkpt>
      <trkpt lat="37.39458451978862285614013671875" lon="-3.100185357034206390380859375">
        <ele>1035</ele>
        <time>2019-10-29T07:22:04.000Z</time>
      </trkpt>
      <trkpt lat="37.39442274905741214752197265625" lon="-3.1003260053694248199462890625">
        <ele>1035</ele>
        <time>2019-10-29T07:22:10.000Z</time>
      </trkpt>
      <trkpt lat="37.39428746514022350311279296875" lon="-3.10050311498343944549560546875">
        <ele>1035.199951171875</ele>
        <time>2019-10-29T07:22:16.000Z</time>
      </trkpt>
      <trkpt lat="37.39416307769715785980224609375" lon="-3.1006897799670696258544921875">
        <ele>1035</ele>
        <time>2019-10-29T07:22:22.000Z</time>
      </trkpt>
      <trkpt lat="37.39402360282838344573974609375" lon="-3.100882731378078460693359375">
        <ele>1035</ele>
        <time>2019-10-29T07:22:28.000Z</time>
      </trkpt>
      <trkpt lat="37.39389921538531780242919921875" lon="-3.10104626230895519256591796875">
        <ele>1035</ele>
        <time>2019-10-29T07:22:33.000Z</time>
      </trkpt>
      <trkpt lat="37.39375756122171878814697265625" lon="-3.10122077353298664093017578125">
        <ele>1035</ele>
        <time>2019-10-29T07:22:38.000Z</time>
      </trkpt>
      <trkpt lat="37.3936024121940135955810546875" lon="-3.10138489119708538055419921875">
        <ele>1034.5999755859375</ele>
        <time>2019-10-29T07:22:43.000Z</time>
      </trkpt>
      <trkpt lat="37.39346754737198352813720703125" lon="-3.1015641801059246063232421875">
        <ele>1034.4000244140625</ele>
        <time>2019-10-29T07:22:48.000Z</time>
      </trkpt>
      <trkpt lat="37.39331030286848545074462890625" lon="-3.10171614401042461395263671875">
        <ele>1035</ele>
        <time>2019-10-29T07:22:53.000Z</time>
      </trkpt>
      <trkpt lat="37.393166385591030120849609375" lon="-3.10187674127519130706787109375">
        <ele>1035</ele>
        <time>2019-10-29T07:22:58.000Z</time>
      </trkpt>
      <trkpt lat="37.393028251826763153076171875" lon="-3.102037422358989715576171875">
        <ele>1035</ele>
        <time>2019-10-29T07:23:03.000Z</time>
      </trkpt>
      <trkpt lat="37.392882741987705230712890625" lon="-3.10219190083444118499755859375">
        <ele>1035.199951171875</ele>
        <time>2019-10-29T07:23:08.000Z</time>
      </trkpt>
      <trkpt lat="37.3927414231002330780029296875" lon="-3.10234311036765575408935546875">
        <ele>1035.199951171875</ele>
        <time>2019-10-29T07:23:13.000Z</time>
      </trkpt>
      <trkpt lat="37.39260354079306125640869140625" lon="-3.10249708592891693115234375">
        <ele>1035.5999755859375</ele>
        <time>2019-10-29T07:23:18.000Z</time>
      </trkpt>
      <trkpt lat="37.39246875979006290435791015625" lon="-3.102659024298191070556640625">
        <ele>1036</ele>
        <time>2019-10-29T07:23:23.000Z</time>
      </trkpt>
      <trkpt lat="37.39233263768255710601806640625" lon="-3.10282791964709758758544921875">
        <ele>1035.4000244140625</ele>
        <time>2019-10-29T07:23:28.000Z</time>
      </trkpt>
      <trkpt lat="37.392195761203765869140625" lon="-3.10299639590084552764892578125">
        <ele>1035</ele>
        <time>2019-10-29T07:23:33.000Z</time>
      </trkpt>
      <trkpt lat="37.39205838181078433990478515625" lon="-3.10317124240100383758544921875">
        <ele>1034.5999755859375</ele>
        <time>2019-10-29T07:23:38.000Z</time>
      </trkpt>
      <trkpt lat="37.39192091859877109527587890625" lon="-3.103354386985301971435546875">
        <ele>1033.5999755859375</ele>
        <time>2019-10-29T07:23:43.000Z</time>
      </trkpt>
      <trkpt lat="37.391789071261882781982421875" lon="-3.1035518646240234375">
        <ele>1033</ele>
        <time>2019-10-29T07:23:48.000Z</time>
      </trkpt>
      <trkpt lat="37.39167801104485988616943359375" lon="-3.10375101864337921142578125">
        <ele>1033</ele>
        <time>2019-10-29T07:23:53.000Z</time>
      </trkpt>
      <trkpt lat="37.39155831746757030487060546875" lon="-3.10393684543669223785400390625">
        <ele>1033.5999755859375</ele>
        <time>2019-10-29T07:23:59.000Z</time>
      </trkpt>
      <trkpt lat="37.39153970964252948760986328125" lon="-3.1039969436824321746826171875">
        <ele>1033.800048828125</ele>
        <time>2019-10-29T07:24:01.000Z</time>
      </trkpt>
      <trkpt lat="37.3915345966815948486328125" lon="-3.10403893701732158660888671875">
        <ele>1034</ele>
        <time>2019-10-29T07:24:08.000Z</time>
      </trkpt>
      <trkpt lat="37.39150215871632099151611328125" lon="-3.1041618995368480682373046875">
        <ele>1034.4000244140625</ele>
        <time>2019-10-29T07:25:34.000Z</time>
      </trkpt>
      <trkpt lat="37.391392774879932403564453125" lon="-3.10435711406171321868896484375">
        <ele>1035</ele>
        <time>2019-10-29T07:25:40.000Z</time>
      </trkpt>
      <trkpt lat="37.3912703990936279296875" lon="-3.10455123893916606903076171875">
        <ele>1035</ele>
        <time>2019-10-29T07:25:46.000Z</time>
      </trkpt>
      <trkpt lat="37.391129918396472930908203125" lon="-3.104707561433315277099609375">
        <ele>1035</ele>
        <time>2019-10-29T07:25:53.000Z</time>
      </trkpt>
      <trkpt lat="37.3909651301801204681396484375" lon="-3.1048280932009220123291015625">
        <ele>1035</ele>
        <time>2019-10-29T07:25:59.000Z</time>
      </trkpt>
      <trkpt lat="37.39076958037912845611572265625" lon="-3.10493948869407176971435546875">
        <ele>1034.800048828125</ele>
        <time>2019-10-29T07:26:05.000Z</time>
      </trkpt>
      <trkpt lat="37.39061518572270870208740234375" lon="-3.1050674803555011749267578125">
        <ele>1034.199951171875</ele>
        <time>2019-10-29T07:26:10.000Z</time>
      </trkpt>
      <trkpt lat="37.39052315242588520050048828125" lon="-3.1052874214947223663330078125">
        <ele>1034.4000244140625</ele>
        <time>2019-10-29T07:26:16.000Z</time>
      </trkpt>
      <trkpt lat="37.39054393954575061798095703125" lon="-3.105530999600887298583984375">
        <ele>1035.4000244140625</ele>
        <time>2019-10-29T07:26:21.000Z</time>
      </trkpt>
      <trkpt lat="37.39055760204792022705078125" lon="-3.10578555800020694732666015625">
        <ele>1036</ele>
        <time>2019-10-29T07:26:26.000Z</time>
      </trkpt>
      <trkpt lat="37.3904887028038501739501953125" lon="-3.10603684745728969573974609375">
        <ele>1035.800048828125</ele>
        <time>2019-10-29T07:26:31.000Z</time>
      </trkpt>
      <trkpt lat="37.3903529159724712371826171875" lon="-3.10621739365160465240478515625">
        <ele>1034.800048828125</ele>
        <time>2019-10-29T07:26:36.000Z</time>
      </trkpt>
      <trkpt lat="37.39018368534743785858154296875" lon="-3.10632149688899517059326171875">
        <ele>1033.5999755859375</ele>
        <time>2019-10-29T07:26:41.000Z</time>
      </trkpt>
      <trkpt lat="37.39001889713108539581298828125" lon="-3.106418140232563018798828125">
        <ele>1032.5999755859375</ele>
        <time>2019-10-29T07:26:46.000Z</time>
      </trkpt>
      <trkpt lat="37.38983700983226299285888671875" lon="-3.10653741471469402313232421875">
        <ele>1031.4000244140625</ele>
        <time>2019-10-29T07:26:52.000Z</time>
      </trkpt>
      <trkpt lat="37.38968328572809696197509765625" lon="-3.10669935308396816253662109375">
        <ele>1030.4000244140625</ele>
        <time>2019-10-29T07:26:59.000Z</time>
      </trkpt>
      <trkpt lat="37.389615476131439208984375" lon="-3.10694008134305477142333984375">
        <ele>1030.199951171875</ele>
        <time>2019-10-29T07:27:06.000Z</time>
      </trkpt>
      <trkpt lat="37.38951732404530048370361328125" lon="-3.107169158756732940673828125">
        <ele>1029.199951171875</ele>
        <time>2019-10-29T07:27:13.000Z</time>
      </trkpt>
      <trkpt lat="37.38942964933812618255615234375" lon="-3.10736839659512042999267578125">
        <ele>1028.199951171875</ele>
        <time>2019-10-29T07:27:20.000Z</time>
      </trkpt>
      <trkpt lat="37.38935370929539203643798828125" lon="-3.107507787644863128662109375">
        <ele>1026.4000244140625</ele>
        <time>2019-10-29T07:27:29.000Z</time>
      </trkpt>
      <trkpt lat="37.389357648789882659912109375" lon="-3.10749471187591552734375">
        <ele>1026.5999755859375</ele>
        <time>2019-10-29T07:27:31.000Z</time>
      </trkpt>
      <trkpt lat="37.38930475898087024688720703125" lon="-3.10756620950996875762939453125">
        <ele>1025.199951171875</ele>
        <time>2019-10-29T07:29:40.000Z</time>
      </trkpt>
      <trkpt lat="37.3892962932586669921875" lon="-3.1075652875006198883056640625">
        <ele>1025</ele>
        <time>2019-10-29T07:29:44.000Z</time>
      </trkpt>
      <trkpt lat="37.38941104151308536529541015625" lon="-3.107521198689937591552734375">
        <ele>1028</ele>
        <time>2019-10-29T07:31:23.000Z</time>
      </trkpt>
      <trkpt lat="37.3894342593848705291748046875" lon="-3.1075148284435272216796875">
        <ele>1028.199951171875</ele>
        <time>2019-10-29T07:31:29.000Z</time>
      </trkpt>
      <trkpt lat="37.3894988000392913818359375" lon="-3.10756050981581211090087890625">
        <ele>1029</ele>
        <time>2019-10-29T07:31:50.000Z</time>
      </trkpt>
      <trkpt lat="37.3895619995892047882080078125" lon="-3.10761214233934879302978515625">
        <ele>1029.5999755859375</ele>
        <time>2019-10-29T07:31:54.000Z</time>
      </trkpt>
      <trkpt lat="37.38968781195580959320068359375" lon="-3.107779026031494140625">
        <ele>1030.199951171875</ele>
        <time>2019-10-29T07:32:01.000Z</time>
      </trkpt>
      <trkpt lat="37.3898590542376041412353515625" lon="-3.10790081508457660675048828125">
        <ele>1029.4000244140625</ele>
        <time>2019-10-29T07:32:08.000Z</time>
      </trkpt>
      <trkpt lat="37.390065751969814300537109375" lon="-3.10789729468524456024169921875">
        <ele>1030.4000244140625</ele>
        <time>2019-10-29T07:32:14.000Z</time>
      </trkpt>
      <trkpt lat="37.3902587033808231353759765625" lon="-3.10796518810093402862548828125">
        <ele>1031.800048828125</ele>
        <time>2019-10-29T07:32:21.000Z</time>
      </trkpt>
      <trkpt lat="37.390433885157108306884765625" lon="-3.10803375206887722015380859375">
        <ele>1032.800048828125</ele>
        <time>2019-10-29T07:32:28.000Z</time>
      </trkpt>
      <trkpt lat="37.3906107433140277862548828125" lon="-3.1080956943333148956298828125">
        <ele>1033.5999755859375</ele>
        <time>2019-10-29T07:32:35.000Z</time>
      </trkpt>
      <trkpt lat="37.39076086319983005523681640625" lon="-3.1082465685904026031494140625">
        <ele>1032.5999755859375</ele>
        <time>2019-10-29T07:32:43.000Z</time>
      </trkpt>
      <trkpt lat="37.39083630032837390899658203125" lon="-3.10847816057503223419189453125">
        <ele>1027.199951171875</ele>
        <time>2019-10-29T07:32:51.000Z</time>
      </trkpt>
      <trkpt lat="37.390688359737396240234375" lon="-3.10862132348120212554931640625">
        <ele>1026.199951171875</ele>
        <time>2019-10-29T07:32:59.000Z</time>
      </trkpt>
      <trkpt lat="37.390490882098674774169921875" lon="-3.10859014280140399932861328125">
        <ele>1026.5999755859375</ele>
        <time>2019-10-29T07:33:06.000Z</time>
      </trkpt>
      <trkpt lat="37.3903284408152103424072265625" lon="-3.1086789071559906005859375">
        <ele>1024</ele>
        <time>2019-10-29T07:33:13.000Z</time>
      </trkpt>
      <trkpt lat="37.39029700867831707000732421875" lon="-3.10890580527484416961669921875">
        <ele>1022</ele>
        <time>2019-10-29T07:33:19.000Z</time>
      </trkpt>
      <trkpt lat="37.3903002776205539703369140625" lon="-3.10917042195796966552734375">
        <ele>1020.4000244140625</ele>
        <time>2019-10-29T07:33:24.000Z</time>
      </trkpt>
      <trkpt lat="37.39031796343624591827392578125" lon="-3.1094243936240673065185546875">
        <ele>1018.5999755859375</ele>
        <time>2019-10-29T07:33:29.000Z</time>
      </trkpt>
      <trkpt lat="37.39035375416278839111328125" lon="-3.10967442579567432403564453125">
        <ele>1017</ele>
        <time>2019-10-29T07:33:34.000Z</time>
      </trkpt>
      <trkpt lat="37.39035383798182010650634765625" lon="-3.10995169915258884429931640625">
        <ele>1015</ele>
        <time>2019-10-29T07:33:39.000Z</time>
      </trkpt>
      <trkpt lat="37.3902980983257293701171875" lon="-3.11020449735224246978759765625">
        <ele>1012.5999755859375</ele>
        <time>2019-10-29T07:33:44.000Z</time>
      </trkpt>
      <trkpt lat="37.39022240974009037017822265625" lon="-3.1104572117328643798828125">
        <ele>1008.5999755859375</ele>
        <time>2019-10-29T07:33:49.000Z</time>
      </trkpt>
      <trkpt lat="37.390150241553783416748046875" lon="-3.11069064773619174957275390625">
        <ele>1004.79998779296875</ele>
        <time>2019-10-29T07:33:54.000Z</time>
      </trkpt>
      <trkpt lat="37.39005611278116703033447265625" lon="-3.11090312898159027099609375">
        <ele>1003</ele>
        <time>2019-10-29T07:33:59.000Z</time>
      </trkpt>
      <trkpt lat="37.38998184911906719207763671875" lon="-3.11113941483199596405029296875">
        <ele>1002</ele>
        <time>2019-10-29T07:34:04.000Z</time>
      </trkpt>
      <trkpt lat="37.389875985682010650634765625" lon="-3.11136069707572460174560546875">
        <ele>1002.20001220703125</ele>
        <time>2019-10-29T07:34:08.000Z</time>
      </trkpt>
      <trkpt lat="37.38970524631440639495849609375" lon="-3.11146899126470088958740234375">
        <ele>1002.5999755859375</ele>
        <time>2019-10-29T07:34:13.000Z</time>
      </trkpt>
      <trkpt lat="37.38955177366733551025390625" lon="-3.11159622855484485626220703125">
        <ele>1002.4000244140625</ele>
        <time>2019-10-29T07:34:21.000Z</time>
      </trkpt>
      <trkpt lat="37.38940249197185039520263671875" lon="-3.1117290817201137542724609375">
        <ele>1002</ele>
        <time>2019-10-29T07:34:27.000Z</time>
      </trkpt>
      <trkpt lat="37.3892319202423095703125" lon="-3.111824132502079010009765625">
        <ele>1001.4000244140625</ele>
        <time>2019-10-29T07:34:32.000Z</time>
      </trkpt>
      <trkpt lat="37.38902145065367221832275390625" lon="-3.1118755973875522613525390625">
        <ele>1000.79998779296875</ele>
        <time>2019-10-29T07:34:37.000Z</time>
      </trkpt>
      <trkpt lat="37.3888228833675384521484375" lon="-3.11192949302494525909423828125">
        <ele>1000.4000244140625</ele>
        <time>2019-10-29T07:34:41.000Z</time>
      </trkpt>
      <trkpt lat="37.3886483721435070037841796875" lon="-3.11206243000924587249755859375">
        <ele>999.4000244140625</ele>
        <time>2019-10-29T07:34:45.000Z</time>
      </trkpt>
      <trkpt lat="37.38857435993850231170654296875" lon="-3.11226862482726573944091796875">
        <ele>997.79998779296875</ele>
        <time>2019-10-29T07:34:49.000Z</time>
      </trkpt>
      <trkpt lat="37.3885454423725605010986328125" lon="-3.11249728314578533172607421875">
        <ele>996.4000244140625</ele>
        <time>2019-10-29T07:34:53.000Z</time>
      </trkpt>
      <trkpt lat="37.388516776263713836669921875" lon="-3.11273700557649135589599609375">
        <ele>995.20001220703125</ele>
        <time>2019-10-29T07:34:57.000Z</time>
      </trkpt>
      <trkpt lat="37.388419546186923980712890625" lon="-3.11297538690268993377685546875">
        <ele>994.4000244140625</ele>
        <time>2019-10-29T07:35:01.000Z</time>
      </trkpt>
      <trkpt lat="37.388385348021984100341796875" lon="-3.11303020454943180084228515625">
        <ele>995.20001220703125</ele>
        <time>2019-10-29T07:35:02.000Z</time>
      </trkpt>
      <trkpt lat="37.38820974715054035186767578125" lon="-3.11316414736211299896240234375">
        <ele>996.4000244140625</ele>
        <time>2019-10-29T07:35:06.000Z</time>
      </trkpt>
      <trkpt lat="37.38816197030246257781982421875" lon="-3.11318166553974151611328125">
        <ele>996.4000244140625</ele>
        <time>2019-10-29T07:35:07.000Z</time>
      </trkpt>
      <trkpt lat="37.38806893117725849151611328125" lon="-3.11321695335209369659423828125">
        <ele>996.20001220703125</ele>
        <time>2019-10-29T07:35:09.000Z</time>
      </trkpt>
      <trkpt lat="37.3879496566951274871826171875" lon="-3.11338107101619243621826171875">
        <ele>994.4000244140625</ele>
        <time>2019-10-29T07:35:13.000Z</time>
      </trkpt>
      <trkpt lat="37.387937419116497039794921875" lon="-3.11343655921518802642822265625">
        <ele>994</ele>
        <time>2019-10-29T07:35:14.000Z</time>
      </trkpt>
      <trkpt lat="37.38792845048010349273681640625" lon="-3.11349238269031047821044921875">
        <ele>993.5999755859375</ele>
        <time>2019-10-29T07:35:15.000Z</time>
      </trkpt>
      <trkpt lat="37.38791160285472869873046875" lon="-3.1137375533580780029296875">
        <ele>992.5999755859375</ele>
        <time>2019-10-29T07:35:19.000Z</time>
      </trkpt>
      <trkpt lat="37.38790296949446201324462890625" lon="-3.1137960590422153472900390625">
        <ele>992</ele>
        <time>2019-10-29T07:35:20.000Z</time>
      </trkpt>
      <trkpt lat="37.3878680169582366943359375" lon="-3.113957159221172332763671875">
        <ele>991.4000244140625</ele>
        <time>2019-10-29T07:35:23.000Z</time>
      </trkpt>
      <trkpt lat="37.38786642439663410186767578125" lon="-3.11411012895405292510986328125">
        <ele>990.79998779296875</ele>
        <time>2019-10-29T07:35:26.000Z</time>
      </trkpt>
      <trkpt lat="37.3878765664994716644287109375" lon="-3.11420585028827190399169921875">
        <ele>989.79998779296875</ele>
        <time>2019-10-29T07:35:28.000Z</time>
      </trkpt>
      <trkpt lat="37.387877404689788818359375" lon="-3.11436376534402370452880859375">
        <ele>989.5999755859375</ele>
        <time>2019-10-29T07:35:31.000Z</time>
      </trkpt>
      <trkpt lat="37.38785183988511562347412109375" lon="-3.11452553607523441314697265625">
        <ele>988</ele>
        <time>2019-10-29T07:35:34.000Z</time>
      </trkpt>
      <trkpt lat="37.3877779953181743621826171875" lon="-3.11476685106754302978515625">
        <ele>984.5999755859375</ele>
        <time>2019-10-29T07:35:39.000Z</time>
      </trkpt>
      <trkpt lat="37.387785874307155609130859375" lon="-3.1149980239570140838623046875">
        <ele>983.20001220703125</ele>
        <time>2019-10-29T07:35:44.000Z</time>
      </trkpt>
      <trkpt lat="37.38779316656291484832763671875" lon="-3.115040101110935211181640625">
        <ele>983.20001220703125</ele>
        <time>2019-10-29T07:35:45.000Z</time>
      </trkpt>
      <trkpt lat="37.38786759786307811737060546875" lon="-3.11526599340140819549560546875">
        <ele>983.4000244140625</ele>
        <time>2019-10-29T07:35:50.000Z</time>
      </trkpt>
      <trkpt lat="37.38789274357259273529052734375" lon="-3.11537059955298900604248046875">
        <ele>983.4000244140625</ele>
        <time>2019-10-29T07:35:52.000Z</time>
      </trkpt>
      <trkpt lat="37.38790246658027172088623046875" lon="-3.115634880959987640380859375">
        <ele>982</ele>
        <time>2019-10-29T07:35:57.000Z</time>
      </trkpt>
      <trkpt lat="37.38791185431182384490966796875" lon="-3.11590050347149372100830078125">
        <ele>980.5999755859375</ele>
        <time>2019-10-29T07:36:02.000Z</time>
      </trkpt>
      <trkpt lat="37.38791319541633129119873046875" lon="-3.11609881930053234100341796875">
        <ele>979</ele>
        <time>2019-10-29T07:36:06.000Z</time>
      </trkpt>
      <trkpt lat="37.38789475522935390472412109375" lon="-3.11629059724509716033935546875">
        <ele>976.79998779296875</ele>
        <time>2019-10-29T07:36:10.000Z</time>
      </trkpt>
      <trkpt lat="37.387888133525848388671875" lon="-3.11654708348214626312255859375">
        <ele>974.20001220703125</ele>
        <time>2019-10-29T07:36:15.000Z</time>
      </trkpt>
      <trkpt lat="37.3878894746303558349609375" lon="-3.1167049147188663482666015625">
        <ele>973.5999755859375</ele>
        <time>2019-10-29T07:36:18.000Z</time>
      </trkpt>
      <trkpt lat="37.38788352347910404205322265625" lon="-3.11697590164840221405029296875">
        <ele>973</ele>
        <time>2019-10-29T07:36:23.000Z</time>
      </trkpt>
      <trkpt lat="37.38787807524204254150390625" lon="-3.11703071929514408111572265625">
        <ele>972.4000244140625</ele>
        <time>2019-10-29T07:36:24.000Z</time>
      </trkpt>
      <trkpt lat="37.38787530921399593353271484375" lon="-3.1171722896397113800048828125">
        <ele>971.5999755859375</ele>
        <time>2019-10-29T07:36:27.000Z</time>
      </trkpt>
      <trkpt lat="37.38789944909512996673583984375" lon="-3.1174364872276782989501953125">
        <ele>970.20001220703125</ele>
        <time>2019-10-29T07:36:33.000Z</time>
      </trkpt>
      <trkpt lat="37.38789626397192478179931640625" lon="-3.1174783967435359954833984375">
        <ele>969.4000244140625</ele>
        <time>2019-10-29T07:36:34.000Z</time>
      </trkpt>
      <trkpt lat="37.3878733813762664794921875" lon="-3.11765550635755062103271484375">
        <ele>966.20001220703125</ele>
        <time>2019-10-29T07:36:39.000Z</time>
      </trkpt>
      <trkpt lat="37.38769643940031528472900390625" lon="-3.1178005971014499664306640625">
        <ele>961.4000244140625</ele>
        <time>2019-10-29T07:36:45.000Z</time>
      </trkpt>
      <trkpt lat="37.38766081631183624267578125" lon="-3.11781208030879497528076171875">
        <ele>961.20001220703125</ele>
        <time>2019-10-29T07:36:46.000Z</time>
      </trkpt>
      <trkpt lat="37.38746945746243000030517578125" lon="-3.11783186160027980804443359375">
        <ele>958.4000244140625</ele>
        <time>2019-10-29T07:36:52.000Z</time>
      </trkpt>
      <trkpt lat="37.3873181641101837158203125" lon="-3.117965720593929290771484375">
        <ele>956.20001220703125</ele>
        <time>2019-10-29T07:36:58.000Z</time>
      </trkpt>
      <trkpt lat="37.387370802462100982666015625" lon="-3.11816847883164882659912109375">
        <ele>955.79998779296875</ele>
        <time>2019-10-29T07:37:04.000Z</time>
      </trkpt>
      <trkpt lat="37.38750834949314594268798828125" lon="-3.11834416352212429046630859375">
        <ele>956.4000244140625</ele>
        <time>2019-10-29T07:37:10.000Z</time>
      </trkpt>
      <trkpt lat="37.38746979273855686187744140625" lon="-3.1185791082680225372314453125">
        <ele>953.5999755859375</ele>
        <time>2019-10-29T07:37:16.000Z</time>
      </trkpt>
      <trkpt lat="37.38736149854958057403564453125" lon="-3.1187693774700164794921875">
        <ele>949</ele>
        <time>2019-10-29T07:37:22.000Z</time>
      </trkpt>
      <trkpt lat="37.38735906779766082763671875" lon="-3.119004070758819580078125">
        <ele>944.79998779296875</ele>
        <time>2019-10-29T07:37:28.000Z</time>
      </trkpt>
      <trkpt lat="37.38743157126009464263916015625" lon="-3.1192548573017120361328125">
        <ele>941.20001220703125</ele>
        <time>2019-10-29T07:37:33.000Z</time>
      </trkpt>
      <trkpt lat="37.38756350241601467132568359375" lon="-3.11942073516547679901123046875">
        <ele>941.20001220703125</ele>
        <time>2019-10-29T07:37:38.000Z</time>
      </trkpt>
      <trkpt lat="37.38771370612084865570068359375" lon="-3.11954612843692302703857421875">
        <ele>942.4000244140625</ele>
        <time>2019-10-29T07:37:43.000Z</time>
      </trkpt>
      <trkpt lat="37.38771320320665836334228515625" lon="-3.11977964825928211212158203125">
        <ele>938.4000244140625</ele>
        <time>2019-10-29T07:37:48.000Z</time>
      </trkpt>
      <trkpt lat="37.38778545521199703216552734375" lon="-3.12004585750401020050048828125">
        <ele>934.79998779296875</ele>
        <time>2019-10-29T07:37:53.000Z</time>
      </trkpt>
      <trkpt lat="37.38780188374221324920654296875" lon="-3.120296560227870941162109375">
        <ele>932.79998779296875</ele>
        <time>2019-10-29T07:37:57.000Z</time>
      </trkpt>
      <trkpt lat="37.387893833220005035400390625" lon="-3.1205522082746028900146484375">
        <ele>933.4000244140625</ele>
        <time>2019-10-29T07:38:01.000Z</time>
      </trkpt>
      <trkpt lat="37.38788880407810211181640625" lon="-3.12069394625723361968994140625">
        <ele>932</ele>
        <time>2019-10-29T07:38:03.000Z</time>
      </trkpt>
      <trkpt lat="37.3878517560660839080810546875" lon="-3.12092109583318233489990234375">
        <ele>928.79998779296875</ele>
        <time>2019-10-29T07:38:07.000Z</time>
      </trkpt>
      <trkpt lat="37.38792275078594684600830078125" lon="-3.12113131396472454071044921875">
        <ele>927.4000244140625</ele>
        <time>2019-10-29T07:38:12.000Z</time>
      </trkpt>
      <trkpt lat="37.388012520968914031982421875" lon="-3.12117389403283596038818359375">
        <ele>927.4000244140625</ele>
        <time>2019-10-29T07:38:15.000Z</time>
      </trkpt>
      <trkpt lat="37.38803892396390438079833984375" lon="-3.12117867171764373779296875">
        <ele>927.5999755859375</ele>
        <time>2019-10-29T07:38:16.000Z</time>
      </trkpt>
      <trkpt lat="37.388160042464733123779296875" lon="-3.1211500056087970733642578125">
        <ele>928.79998779296875</ele>
        <time>2019-10-29T07:38:21.000Z</time>
      </trkpt>
      <trkpt lat="37.38836799748241901397705078125" lon="-3.12112427316606044769287109375">
        <ele>930.79998779296875</ele>
        <time>2019-10-29T07:38:27.000Z</time>
      </trkpt>
      <trkpt lat="37.38840336911380290985107421875" lon="-3.12114606611430644989013671875">
        <ele>931</ele>
        <time>2019-10-29T07:38:28.000Z</time>
      </trkpt>
      <trkpt lat="37.3885736055672168731689453125" lon="-3.12111941166222095489501953125">
        <ele>933.4000244140625</ele>
        <time>2019-10-29T07:38:33.000Z</time>
      </trkpt>
      <trkpt lat="37.3887489549815654754638671875" lon="-3.12112226150929927825927734375">
        <ele>937.20001220703125</ele>
        <time>2019-10-29T07:38:38.000Z</time>
      </trkpt>
      <trkpt lat="37.38881684839725494384765625" lon="-3.12121848575770854949951171875">
        <ele>936.5999755859375</ele>
        <time>2019-10-29T07:38:41.000Z</time>
      </trkpt>
      <trkpt lat="37.38874451257288455963134765625" lon="-3.12146223150193691253662109375">
        <ele>928.79998779296875</ele>
        <time>2019-10-29T07:38:47.000Z</time>
      </trkpt>
      <trkpt lat="37.3887271620333194732666015625" lon="-3.121548481285572052001953125">
        <ele>926</ele>
        <time>2019-10-29T07:38:49.000Z</time>
      </trkpt>
      <trkpt lat="37.3888398148119449615478515625" lon="-3.12173447571694850921630859375">
        <ele>923.4000244140625</ele>
        <time>2019-10-29T07:38:54.000Z</time>
      </trkpt>
      <trkpt lat="37.38887493498623371124267578125" lon="-3.1217645667493343353271484375">
        <ele>923.20001220703125</ele>
        <time>2019-10-29T07:38:55.000Z</time>
      </trkpt>
      <trkpt lat="37.38903016783297061920166015625" lon="-3.12188417650759220123291015625">
        <ele>923.4000244140625</ele>
        <time>2019-10-29T07:39:00.000Z</time>
      </trkpt>
      <trkpt lat="37.389208786189556121826171875" lon="-3.1220042891800403594970703125">
        <ele>924.20001220703125</ele>
        <time>2019-10-29T07:39:05.000Z</time>
      </trkpt>
      <trkpt lat="37.389362342655658721923828125" lon="-3.12216161750257015228271484375">
        <ele>922.79998779296875</ele>
        <time>2019-10-29T07:39:10.000Z</time>
      </trkpt>
      <trkpt lat="37.3894822038710117340087890625" lon="-3.1223459355533123016357421875">
        <ele>920.4000244140625</ele>
        <time>2019-10-29T07:39:15.000Z</time>
      </trkpt>
      <trkpt lat="37.3895884864032268524169921875" lon="-3.12256336212158203125">
        <ele>918.20001220703125</ele>
        <time>2019-10-29T07:39:20.000Z</time>
      </trkpt>
      <trkpt lat="37.3897417075932025909423828125" lon="-3.1227425672113895416259765625">
        <ele>916.4000244140625</ele>
        <time>2019-10-29T07:39:25.000Z</time>
      </trkpt>
      <trkpt lat="37.38993675448000431060791015625" lon="-3.12288631685078144073486328125">
        <ele>916</ele>
        <time>2019-10-29T07:39:30.000Z</time>
      </trkpt>
      <trkpt lat="37.39009550772607326507568359375" lon="-3.12308111228048801422119140625">
        <ele>914.4000244140625</ele>
        <time>2019-10-29T07:39:35.000Z</time>
      </trkpt>
      <trkpt lat="37.3902069032192230224609375" lon="-3.12327079474925994873046875">
        <ele>912</ele>
        <time>2019-10-29T07:39:39.000Z</time>
      </trkpt>
      <trkpt lat="37.390335313975811004638671875" lon="-3.123438097536563873291015625">
        <ele>909.5999755859375</ele>
        <time>2019-10-29T07:39:43.000Z</time>
      </trkpt>
      <trkpt lat="37.390372194349765777587890625" lon="-3.1234677694737911224365234375">
        <ele>909.20001220703125</ele>
        <time>2019-10-29T07:39:44.000Z</time>
      </trkpt>
      <trkpt lat="37.39056564867496490478515625" lon="-3.1235542707145214080810546875">
        <ele>909</ele>
        <time>2019-10-29T07:39:49.000Z</time>
      </trkpt>
      <trkpt lat="37.39067369140684604644775390625" lon="-3.12359022907912731170654296875">
        <ele>910.4000244140625</ele>
        <time>2019-10-29T07:39:52.000Z</time>
      </trkpt>
      <trkpt lat="37.39081584848463535308837890625" lon="-3.1237688474357128143310546875">
        <ele>909.5999755859375</ele>
        <time>2019-10-29T07:39:58.000Z</time>
      </trkpt>
      <trkpt lat="37.39082322455942630767822265625" lon="-3.1238092482089996337890625">
        <ele>909.20001220703125</ele>
        <time>2019-10-29T07:39:59.000Z</time>
      </trkpt>
      <trkpt lat="37.39088407717645168304443359375" lon="-3.1240560114383697509765625">
        <ele>907.20001220703125</ele>
        <time>2019-10-29T07:40:05.000Z</time>
      </trkpt>
      <trkpt lat="37.3908987455070018768310546875" lon="-3.1240887008607387542724609375">
        <ele>907</ele>
        <time>2019-10-29T07:40:06.000Z</time>
      </trkpt>
      <trkpt lat="37.39101584069430828094482421875" lon="-3.1242707557976245880126953125">
        <ele>905.79998779296875</ele>
        <time>2019-10-29T07:40:12.000Z</time>
      </trkpt>
      <trkpt lat="37.39107124507427215576171875" lon="-3.1245138309895992279052734375">
        <ele>903.20001220703125</ele>
        <time>2019-10-29T07:40:18.000Z</time>
      </trkpt>
      <trkpt lat="37.39118716679513454437255859375" lon="-3.1246965564787387847900390625">
        <ele>902.79998779296875</ele>
        <time>2019-10-29T07:40:24.000Z</time>
      </trkpt>
      <trkpt lat="37.39130786620080471038818359375" lon="-3.12488942407071590423583984375">
        <ele>901.20001220703125</ele>
        <time>2019-10-29T07:40:29.000Z</time>
      </trkpt>
      <trkpt lat="37.39131825976073741912841796875" lon="-3.1251169927418231964111328125">
        <ele>901</ele>
        <time>2019-10-29T07:40:35.000Z</time>
      </trkpt>
      <trkpt lat="37.39142051897943019866943359375" lon="-3.12532830052077770233154296875">
        <ele>901</ele>
        <time>2019-10-29T07:40:41.000Z</time>
      </trkpt>
      <trkpt lat="37.3916148953139781951904296875" lon="-3.12546039931476116180419921875">
        <ele>897.5999755859375</ele>
        <time>2019-10-29T07:40:47.000Z</time>
      </trkpt>
      <trkpt lat="37.39178831689059734344482421875" lon="-3.1255821883678436279296875">
        <ele>896.79998779296875</ele>
        <time>2019-10-29T07:40:52.000Z</time>
      </trkpt>
      <trkpt lat="37.39196978509426116943359375" lon="-3.12566659413278102874755859375">
        <ele>896.4000244140625</ele>
        <time>2019-10-29T07:40:57.000Z</time>
      </trkpt>
      <trkpt lat="37.392139434814453125" lon="-3.1257577054202556610107421875">
        <ele>897.79998779296875</ele>
        <time>2019-10-29T07:41:05.000Z</time>
      </trkpt>
      <trkpt lat="37.3922113515436649322509765625" lon="-3.12599365599453449249267578125">
        <ele>898.20001220703125</ele>
        <time>2019-10-29T07:41:13.000Z</time>
      </trkpt>
      <trkpt lat="37.392309419810771942138671875" lon="-3.12618794851005077362060546875">
        <ele>898.20001220703125</ele>
        <time>2019-10-29T07:41:19.000Z</time>
      </trkpt>
      <trkpt lat="37.3924245871603488922119140625" lon="-3.12636178918182849884033203125">
        <ele>897.4000244140625</ele>
        <time>2019-10-29T07:41:25.000Z</time>
      </trkpt>
      <trkpt lat="37.3925511538982391357421875" lon="-3.1265301816165447235107421875">
        <ele>896.5999755859375</ele>
        <time>2019-10-29T07:41:31.000Z</time>
      </trkpt>
      <trkpt lat="37.39268459379673004150390625" lon="-3.12672388739883899688720703125">
        <ele>896</ele>
        <time>2019-10-29T07:41:37.000Z</time>
      </trkpt>
      <trkpt lat="37.39280068315565586090087890625" lon="-3.1269254721701145172119140625">
        <ele>894.79998779296875</ele>
        <time>2019-10-29T07:41:43.000Z</time>
      </trkpt>
      <trkpt lat="37.392889447510242462158203125" lon="-3.127133511006832122802734375">
        <ele>894</ele>
        <time>2019-10-29T07:41:49.000Z</time>
      </trkpt>
      <trkpt lat="37.39298340864479541778564453125" lon="-3.1273301504552364349365234375">
        <ele>893.20001220703125</ele>
        <time>2019-10-29T07:41:55.000Z</time>
      </trkpt>
      <trkpt lat="37.39310695789754390716552734375" lon="-3.1275420449674129486083984375">
        <ele>893.20001220703125</ele>
        <time>2019-10-29T07:42:01.000Z</time>
      </trkpt>
      <trkpt lat="37.39324743859469890594482421875" lon="-3.1277190707623958587646484375">
        <ele>893.79998779296875</ele>
        <time>2019-10-29T07:42:07.000Z</time>
      </trkpt>
      <trkpt lat="37.3933968879282474517822265625" lon="-3.12787069939076900482177734375">
        <ele>893.5999755859375</ele>
        <time>2019-10-29T07:42:13.000Z</time>
      </trkpt>
      <trkpt lat="37.39356628619134426116943359375" lon="-3.12800397165119647979736328125">
        <ele>893</ele>
        <time>2019-10-29T07:42:19.000Z</time>
      </trkpt>
      <trkpt lat="37.39370844326913356781005859375" lon="-3.128178901970386505126953125">
        <ele>892.79998779296875</ele>
        <time>2019-10-29T07:42:26.000Z</time>
      </trkpt>
      <trkpt lat="37.3938144743442535400390625" lon="-3.12838886864483356475830078125">
        <ele>892.4000244140625</ele>
        <time>2019-10-29T07:42:32.000Z</time>
      </trkpt>
      <trkpt lat="37.39392167888581752777099609375" lon="-3.12857863493263721466064453125">
        <ele>892.20001220703125</ele>
        <time>2019-10-29T07:42:37.000Z</time>
      </trkpt>
      <trkpt lat="37.3940506763756275177001953125" lon="-3.12874224968254566192626953125">
        <ele>893.4000244140625</ele>
        <time>2019-10-29T07:42:42.000Z</time>
      </trkpt>
      <trkpt lat="37.39421655423939228057861328125" lon="-3.12885238789021968841552734375">
        <ele>895.20001220703125</ele>
        <time>2019-10-29T07:42:48.000Z</time>
      </trkpt>
      <trkpt lat="37.39440791308879852294921875" lon="-3.12887636013329029083251953125">
        <ele>896.20001220703125</ele>
        <time>2019-10-29T07:42:55.000Z</time>
      </trkpt>
      <trkpt lat="37.3945904709398746490478515625" lon="-3.12880997546017169952392578125">
        <ele>893.4000244140625</ele>
        <time>2019-10-29T07:43:02.000Z</time>
      </trkpt>
      <trkpt lat="37.3946447856724262237548828125" lon="-3.12876664102077484130859375">
        <ele>892.4000244140625</ele>
        <time>2019-10-29T07:43:09.000Z</time>
      </trkpt>
      <trkpt lat="37.39479146897792816162109375" lon="-3.12866128049790859222412109375">
        <ele>889.5999755859375</ele>
        <time>2019-10-29T07:43:47.000Z</time>
      </trkpt>
      <trkpt lat="37.394979894161224365234375" lon="-3.12856187112629413604736328125">
        <ele>886.4000244140625</ele>
        <time>2019-10-29T07:43:54.000Z</time>
      </trkpt>
      <trkpt lat="37.39515960216522216796875" lon="-3.12847486697137355804443359375">
        <ele>886.20001220703125</ele>
        <time>2019-10-29T07:44:01.000Z</time>
      </trkpt>
      <trkpt lat="37.395349033176898956298828125" lon="-3.12841267324984073638916015625">
        <ele>886.5999755859375</ele>
        <time>2019-10-29T07:44:08.000Z</time>
      </trkpt>
      <trkpt lat="37.39552907645702362060546875" lon="-3.12839507125318050384521484375">
        <ele>886.79998779296875</ele>
        <time>2019-10-29T07:44:14.000Z</time>
      </trkpt>
      <trkpt lat="37.39573334343731403350830078125" lon="-3.12841250561177730560302734375">
        <ele>889.4000244140625</ele>
        <time>2019-10-29T07:44:21.000Z</time>
      </trkpt>
      <trkpt lat="37.395842559635639190673828125" lon="-3.1285854242742061614990234375">
        <ele>892</ele>
        <time>2019-10-29T07:44:28.000Z</time>
      </trkpt>
      <trkpt lat="37.39578925073146820068359375" lon="-3.1288103945553302764892578125">
        <ele>891.79998779296875</ele>
        <time>2019-10-29T07:44:34.000Z</time>
      </trkpt>
      <trkpt lat="37.39570920355618000030517578125" lon="-3.12902103178203105926513671875">
        <ele>890.79998779296875</ele>
        <time>2019-10-29T07:44:40.000Z</time>
      </trkpt>
      <trkpt lat="37.39559839479625225067138671875" lon="-3.1292261369526386260986328125">
        <ele>887.4000244140625</ele>
        <time>2019-10-29T07:44:46.000Z</time>
      </trkpt>
      <trkpt lat="37.39549462683498859405517578125" lon="-3.12945538200438022613525390625">
        <ele>883.5999755859375</ele>
        <time>2019-10-29T07:44:53.000Z</time>
      </trkpt>
      <trkpt lat="37.39540829323232173919677734375" lon="-3.1296834535896778106689453125">
        <ele>881.4000244140625</ele>
        <time>2019-10-29T07:44:59.000Z</time>
      </trkpt>
      <trkpt lat="37.39532011561095714569091796875" lon="-3.12990431673824787139892578125">
        <ele>880</ele>
        <time>2019-10-29T07:45:05.000Z</time>
      </trkpt>
      <trkpt lat="37.39522322081029415130615234375" lon="-3.130139596760272979736328125">
        <ele>881.79998779296875</ele>
        <time>2019-10-29T07:45:11.000Z</time>
      </trkpt>
      <trkpt lat="37.39515834487974643707275390625" lon="-3.13035509549081325531005859375">
        <ele>889.20001220703125</ele>
        <time>2019-10-29T07:45:17.000Z</time>
      </trkpt>
      <trkpt lat="37.39518030546605587005615234375" lon="-3.13058073632419109344482421875">
        <ele>893.4000244140625</ele>
        <time>2019-10-29T07:45:24.000Z</time>
      </trkpt>
      <trkpt lat="37.39536412060260772705078125" lon="-3.130686767399311065673828125">
        <ele>888.79998779296875</ele>
        <time>2019-10-29T07:45:32.000Z</time>
      </trkpt>
      <trkpt lat="37.39555866457521915435791015625" lon="-3.1306849233806133270263671875">
        <ele>883</ele>
        <time>2019-10-29T07:45:38.000Z</time>
      </trkpt>
      <trkpt lat="37.39571909420192241668701171875" lon="-3.13056372106075286865234375">
        <ele>880</ele>
        <time>2019-10-29T07:45:44.000Z</time>
      </trkpt>
      <trkpt lat="37.39592931233346462249755859375" lon="-3.1305669061839580535888671875">
        <ele>879.4000244140625</ele>
        <time>2019-10-29T07:45:51.000Z</time>
      </trkpt>
      <trkpt lat="37.39609594456851482391357421875" lon="-3.13066103495657444000244140625">
        <ele>879.20001220703125</ele>
        <time>2019-10-29T07:45:56.000Z</time>
      </trkpt>
      <trkpt lat="37.3962588049471378326416015625" lon="-3.13081895001232624053955078125">
        <ele>879.4000244140625</ele>
        <time>2019-10-29T07:46:01.000Z</time>
      </trkpt>
      <trkpt lat="37.39643289707601070404052734375" lon="-3.13096362166106700897216796875">
        <ele>879</ele>
        <time>2019-10-29T07:46:06.000Z</time>
      </trkpt>
      <trkpt lat="37.39660925231873989105224609375" lon="-3.13107945956289768218994140625">
        <ele>878.79998779296875</ele>
        <time>2019-10-29T07:46:12.000Z</time>
      </trkpt>
      <trkpt lat="37.3967496491968631744384765625" lon="-3.1312451697885990142822265625">
        <ele>877</ele>
        <time>2019-10-29T07:46:17.000Z</time>
      </trkpt>
      <trkpt lat="37.3968649841845035552978515625" lon="-3.13143937848508358001708984375">
        <ele>875.20001220703125</ele>
        <time>2019-10-29T07:46:22.000Z</time>
      </trkpt>
      <trkpt lat="37.39693463779985904693603515625" lon="-3.131668455898761749267578125">
        <ele>873.4000244140625</ele>
        <time>2019-10-29T07:46:28.000Z</time>
      </trkpt>
      <trkpt lat="37.3969392478466033935546875" lon="-3.13192737288773059844970703125">
        <ele>872</ele>
        <time>2019-10-29T07:46:34.000Z</time>
      </trkpt>
      <trkpt lat="37.39696045406162738800048828125" lon="-3.1321655027568340301513671875">
        <ele>871.79998779296875</ele>
        <time>2019-10-29T07:46:39.000Z</time>
      </trkpt>
      <trkpt lat="37.39699549041688442230224609375" lon="-3.13239105977118015289306640625">
        <ele>872.4000244140625</ele>
        <time>2019-10-29T07:46:44.000Z</time>
      </trkpt>
      <trkpt lat="37.397032119333744049072265625" lon="-3.13264804892241954803466796875">
        <ele>872.20001220703125</ele>
        <time>2019-10-29T07:46:50.000Z</time>
      </trkpt>
      <trkpt lat="37.39697453565895557403564453125" lon="-3.13286195509135723114013671875">
        <ele>870.4000244140625</ele>
        <time>2019-10-29T07:46:56.000Z</time>
      </trkpt>
      <trkpt lat="37.39686909131705760955810546875" lon="-3.133065216243267059326171875">
        <ele>868.20001220703125</ele>
        <time>2019-10-29T07:47:04.000Z</time>
      </trkpt>
      <trkpt lat="37.39684612490236759185791015625" lon="-3.1333098001778125762939453125">
        <ele>867.4000244140625</ele>
        <time>2019-10-29T07:47:10.000Z</time>
      </trkpt>
      <trkpt lat="37.39685836248099803924560546875" lon="-3.13356268219649791717529296875">
        <ele>867</ele>
        <time>2019-10-29T07:47:17.000Z</time>
      </trkpt>
      <trkpt lat="37.396871186792850494384765625" lon="-3.13381045125424861907958984375">
        <ele>867</ele>
        <time>2019-10-29T07:47:24.000Z</time>
      </trkpt>
      <trkpt lat="37.39688736386597156524658203125" lon="-3.13404900021851062774658203125">
        <ele>867</ele>
        <time>2019-10-29T07:47:30.000Z</time>
      </trkpt>
      <trkpt lat="37.396876551210880279541015625" lon="-3.13429123722016811370849609375">
        <ele>866.20001220703125</ele>
        <time>2019-10-29T07:47:35.000Z</time>
      </trkpt>
      <trkpt lat="37.3968364857137203216552734375" lon="-3.13452207483351230621337890625">
        <ele>865.4000244140625</ele>
        <time>2019-10-29T07:47:40.000Z</time>
      </trkpt>
      <trkpt lat="37.3968049697577953338623046875" lon="-3.13476766459643840789794921875">
        <ele>864.79998779296875</ele>
        <time>2019-10-29T07:47:46.000Z</time>
      </trkpt>
      <trkpt lat="37.39682416431605815887451171875" lon="-3.13503923825919628143310546875">
        <ele>862.79998779296875</ele>
        <time>2019-10-29T07:47:52.000Z</time>
      </trkpt>
      <trkpt lat="37.396859116852283477783203125" lon="-3.13527728430926799774169921875">
        <ele>862.20001220703125</ele>
        <time>2019-10-29T07:47:57.000Z</time>
      </trkpt>
      <trkpt lat="37.3969182930886745452880859375" lon="-3.13550108112394809722900390625">
        <ele>862</ele>
        <time>2019-10-29T07:48:02.000Z</time>
      </trkpt>
      <trkpt lat="37.3969937302172183990478515625" lon="-3.13573242165148258209228515625">
        <ele>862</ele>
        <time>2019-10-29T07:48:07.000Z</time>
      </trkpt>
      <trkpt lat="37.39702180959284305572509765625" lon="-3.1359638459980487823486328125">
        <ele>862.4000244140625</ele>
        <time>2019-10-29T07:48:12.000Z</time>
      </trkpt>
      <trkpt lat="37.396993227303028106689453125" lon="-3.1362199969589710235595703125">
        <ele>861.5999755859375</ele>
        <time>2019-10-29T07:48:18.000Z</time>
      </trkpt>
      <trkpt lat="37.39695978350937366485595703125" lon="-3.13645293004810810089111328125">
        <ele>861.5999755859375</ele>
        <time>2019-10-29T07:48:25.000Z</time>
      </trkpt>
      <trkpt lat="37.39699968136847019195556640625" lon="-3.13659793697297573089599609375">
        <ele>861</ele>
        <time>2019-10-29T07:48:31.000Z</time>
      </trkpt>
      <trkpt lat="37.3971704207360744476318359375" lon="-3.1367242522537708282470703125">
        <ele>859.20001220703125</ele>
        <time>2019-10-29T07:48:38.000Z</time>
      </trkpt>
      <trkpt lat="37.39725599996745586395263671875" lon="-3.136924915015697479248046875">
        <ele>859.20001220703125</ele>
        <time>2019-10-29T07:48:44.000Z</time>
      </trkpt>
      <trkpt lat="37.39735255949199199676513671875" lon="-3.137158267199993133544921875">
        <ele>859.4000244140625</ele>
        <time>2019-10-29T07:48:50.000Z</time>
      </trkpt>
      <trkpt lat="37.39744811318814754486083984375" lon="-3.1373944692313671112060546875">
        <ele>859</ele>
        <time>2019-10-29T07:48:56.000Z</time>
      </trkpt>
      <trkpt lat="37.39754517562687397003173828125" lon="-3.13763695769011974334716796875">
        <ele>858.79998779296875</ele>
        <time>2019-10-29T07:49:02.000Z</time>
      </trkpt>
      <trkpt lat="37.39763301797211170196533203125" lon="-3.1378393806517124176025390625">
        <ele>858.5999755859375</ele>
        <time>2019-10-29T07:49:07.000Z</time>
      </trkpt>
      <trkpt lat="37.39775069989264011383056640625" lon="-3.13804347999393939971923828125">
        <ele>858.5999755859375</ele>
        <time>2019-10-29T07:49:13.000Z</time>
      </trkpt>
      <trkpt lat="37.39787056110799312591552734375" lon="-3.13822276890277862548828125">
        <ele>858.4000244140625</ele>
        <time>2019-10-29T07:49:19.000Z</time>
      </trkpt>
      <trkpt lat="37.39795672707259654998779296875" lon="-3.13842795789241790771484375">
        <ele>858.20001220703125</ele>
        <time>2019-10-29T07:49:25.000Z</time>
      </trkpt>
      <trkpt lat="37.398037277162075042724609375" lon="-3.13865200616419315338134765625">
        <ele>857</ele>
        <time>2019-10-29T07:49:31.000Z</time>
      </trkpt>
      <trkpt lat="37.398089580237865447998046875" lon="-3.138868845999240875244140625">
        <ele>855.4000244140625</ele>
        <time>2019-10-29T07:49:36.000Z</time>
      </trkpt>
      <trkpt lat="37.39810273982584476470947265625" lon="-3.13912005163729190826416015625">
        <ele>853.20001220703125</ele>
        <time>2019-10-29T07:49:42.000Z</time>
      </trkpt>
      <trkpt lat="37.39809603430330753326416015625" lon="-3.13935927115380764007568359375">
        <ele>851.20001220703125</ele>
        <time>2019-10-29T07:49:47.000Z</time>
      </trkpt>
      <trkpt lat="37.39808119833469390869140625" lon="-3.13961508683860301971435546875">
        <ele>851</ele>
        <time>2019-10-29T07:49:53.000Z</time>
      </trkpt>
      <trkpt lat="37.3980364389717578887939453125" lon="-3.13984416425228118896484375">
        <ele>851.79998779296875</ele>
        <time>2019-10-29T07:49:59.000Z</time>
      </trkpt>
      <trkpt lat="37.3979831300675868988037109375" lon="-3.14006838016211986541748046875">
        <ele>853.5999755859375</ele>
        <time>2019-10-29T07:50:05.000Z</time>
      </trkpt>
      <trkpt lat="37.3979938589036464691162109375" lon="-3.140318579971790313720703125">
        <ele>853.79998779296875</ele>
        <time>2019-10-29T07:50:13.000Z</time>
      </trkpt>
      <trkpt lat="37.3981122113764286041259765625" lon="-3.14052267931401729583740234375">
        <ele>852.4000244140625</ele>
        <time>2019-10-29T07:50:19.000Z</time>
      </trkpt>
      <trkpt lat="37.39816342480480670928955078125" lon="-3.140753768384456634521484375">
        <ele>852.20001220703125</ele>
        <time>2019-10-29T07:50:25.000Z</time>
      </trkpt>
      <trkpt lat="37.398226372897624969482421875" lon="-3.14100799150764942169189453125">
        <ele>852.4000244140625</ele>
        <time>2019-10-29T07:50:31.000Z</time>
      </trkpt>
      <trkpt lat="37.398305498063564300537109375" lon="-3.14122675918042659759521484375">
        <ele>853.4000244140625</ele>
        <time>2019-10-29T07:50:36.000Z</time>
      </trkpt>
      <trkpt lat="37.3983985371887683868408203125" lon="-3.14144049771130084991455078125">
        <ele>854.79998779296875</ele>
        <time>2019-10-29T07:50:41.000Z</time>
      </trkpt>
      <trkpt lat="37.39851177670061588287353515625" lon="-3.14165155403316020965576171875">
        <ele>855.79998779296875</ele>
        <time>2019-10-29T07:50:47.000Z</time>
      </trkpt>
      <trkpt lat="37.3986379243433475494384765625" lon="-3.1418174318969249725341796875">
        <ele>855.5999755859375</ele>
        <time>2019-10-29T07:50:53.000Z</time>
      </trkpt>
      <trkpt lat="37.398804388940334320068359375" lon="-3.1419289112091064453125">
        <ele>851.79998779296875</ele>
        <time>2019-10-29T07:50:58.000Z</time>
      </trkpt>
      <trkpt lat="37.3989919759333133697509765625" lon="-3.14200677908957004547119140625">
        <ele>850.20001220703125</ele>
        <time>2019-10-29T07:51:03.000Z</time>
      </trkpt>
      <trkpt lat="37.39918031729757785797119140625" lon="-3.1421233713626861572265625">
        <ele>850</ele>
        <time>2019-10-29T07:51:08.000Z</time>
      </trkpt>
      <trkpt lat="37.39937125705182552337646484375" lon="-3.1422408856451511383056640625">
        <ele>850.4000244140625</ele>
        <time>2019-10-29T07:51:14.000Z</time>
      </trkpt>
      <trkpt lat="37.39953151904046535491943359375" lon="-3.1423488445580005645751953125">
        <ele>850.79998779296875</ele>
        <time>2019-10-29T07:51:19.000Z</time>
      </trkpt>
      <trkpt lat="37.399726398289203643798828125" lon="-3.1424306519329547882080078125">
        <ele>850.79998779296875</ele>
        <time>2019-10-29T07:51:25.000Z</time>
      </trkpt>
      <trkpt lat="37.3999267257750034332275390625" lon="-3.1424693763256072998046875">
        <ele>849.4000244140625</ele>
        <time>2019-10-29T07:51:31.000Z</time>
      </trkpt>
      <trkpt lat="37.40011833608150482177734375" lon="-3.14249955117702484130859375">
        <ele>848</ele>
        <time>2019-10-29T07:51:37.000Z</time>
      </trkpt>
      <trkpt lat="37.40032620728015899658203125" lon="-3.142520673573017120361328125">
        <ele>846.20001220703125</ele>
        <time>2019-10-29T07:51:44.000Z</time>
      </trkpt>
      <trkpt lat="37.40050063468515872955322265625" lon="-3.142621926963329315185546875">
        <ele>845.4000244140625</ele>
        <time>2019-10-29T07:51:50.000Z</time>
      </trkpt>
      <trkpt lat="37.4006204120814800262451171875" lon="-3.14279635436832904815673828125">
        <ele>845</ele>
        <time>2019-10-29T07:51:56.000Z</time>
      </trkpt>
      <trkpt lat="37.4007049016654491424560546875" lon="-3.14301914535462856292724609375">
        <ele>845.20001220703125</ele>
        <time>2019-10-29T07:52:02.000Z</time>
      </trkpt>
      <trkpt lat="37.40071973763406276702880859375" lon="-3.14314202405512332916259765625">
        <ele>845.4000244140625</ele>
        <time>2019-10-29T07:52:06.000Z</time>
      </trkpt>
      <trkpt lat="37.40071403793990612030029296875" lon="-3.14313364215195178985595703125">
        <ele>845.4000244140625</ele>
        <time>2019-10-29T07:52:10.000Z</time>
      </trkpt>
      <trkpt lat="37.4006874673068523406982421875" lon="-3.14298662357032299041748046875">
        <ele>845.20001220703125</ele>
        <time>2019-10-29T07:52:40.000Z</time>
      </trkpt>
      <trkpt lat="37.400602139532566070556640625" lon="-3.142780847847461700439453125">
        <ele>845</ele>
        <time>2019-10-29T07:52:54.000Z</time>
      </trkpt>
      <trkpt lat="37.40046978928148746490478515625" lon="-3.14261429943144321441650390625">
        <ele>845.4000244140625</ele>
        <time>2019-10-29T07:53:09.000Z</time>
      </trkpt>
      <trkpt lat="37.40030148066580295562744140625" lon="-3.14251321367919445037841796875">
        <ele>846.4000244140625</ele>
        <time>2019-10-29T07:53:23.000Z</time>
      </trkpt>
      <trkpt lat="37.40012177266180515289306640625" lon="-3.1424893252551555633544921875">
        <ele>848</ele>
        <time>2019-10-29T07:53:39.000Z</time>
      </trkpt>
      <trkpt lat="37.40002982318401336669921875" lon="-3.1424977071583271026611328125">
        <ele>848.5999755859375</ele>
        <time>2019-10-29T07:53:51.000Z</time>
      </trkpt>
      <trkpt lat="37.3998467624187469482421875" lon="-3.14244347624480724334716796875">
        <ele>850</ele>
        <time>2019-10-29T07:54:21.000Z</time>
      </trkpt>
      <trkpt lat="37.3997597582638263702392578125" lon="-3.14225605688989162445068359375">
        <ele>850.4000244140625</ele>
        <time>2019-10-29T07:54:38.000Z</time>
      </trkpt>
      <trkpt lat="37.3997580818831920623779296875" lon="-3.1422143988311290740966796875">
        <ele>850.4000244140625</ele>
        <time>2019-10-29T07:54:42.000Z</time>
      </trkpt>
      <trkpt lat="37.3997413180768489837646484375" lon="-3.14219419844448566436767578125">
        <ele>850.20001220703125</ele>
        <time>2019-10-29T07:54:46.000Z</time>
      </trkpt>
      <trkpt lat="37.3996474407613277435302734375" lon="-3.14221791923046112060546875">
        <ele>850.4000244140625</ele>
        <time>2019-10-29T07:54:53.000Z</time>
      </trkpt>
      <trkpt lat="37.39958466030657291412353515625" lon="-3.14221330918371677398681640625">
        <ele>850.4000244140625</ele>
        <time>2019-10-29T07:54:58.000Z</time>
      </trkpt>
      <trkpt lat="37.39942154847085475921630859375" lon="-3.142121024429798126220703125">
        <ele>850</ele>
        <time>2019-10-29T07:55:11.000Z</time>
      </trkpt>
      <trkpt lat="37.39929045550525188446044921875" lon="-3.141962103545665740966796875">
        <ele>849.4000244140625</ele>
        <time>2019-10-29T07:55:25.000Z</time>
      </trkpt>
      <trkpt lat="37.39911309443414211273193359375" lon="-3.1419331021606922149658203125">
        <ele>849.4000244140625</ele>
        <time>2019-10-29T07:55:39.000Z</time>
      </trkpt>
      <trkpt lat="37.39910068921744823455810546875" lon="-3.14191826619207859039306640625">
        <ele>849.4000244140625</ele>
        <time>2019-10-29T07:55:41.000Z</time>
      </trkpt>
      <trkpt lat="37.39908275194466114044189453125" lon="-3.14188222400844097137451171875">
        <ele>849.4000244140625</ele>
        <time>2019-10-29T07:55:45.000Z</time>
      </trkpt>
      <trkpt lat="37.3990768007934093475341796875" lon="-3.1418687291443347930908203125">
        <ele>849.4000244140625</ele>
        <time>2019-10-29T07:55:47.000Z</time>
      </trkpt>
      <trkpt lat="37.39907688461244106292724609375" lon="-3.141868226230144500732421875">
        <ele>849.4000244140625</ele>
        <time>2019-10-29T07:55:50.000Z</time>
      </trkpt>
      <trkpt lat="37.39941970445215702056884765625" lon="-3.14209613017737865447998046875">
        <ele>850</ele>
        <time>2019-10-29T07:56:43.000Z</time>
      </trkpt>
      <trkpt lat="37.399446107447147369384765625" lon="-3.14214675687253475189208984375">
        <ele>850</ele>
        <time>2019-10-29T07:56:47.000Z</time>
      </trkpt>
      <trkpt lat="37.39944015629589557647705078125" lon="-3.14216553233563899993896484375">
        <ele>850.20001220703125</ele>
        <time>2019-10-29T07:56:51.000Z</time>
      </trkpt>
      <trkpt lat="37.39951408468186855316162109375" lon="-3.14216787926852703094482421875">
        <ele>850.20001220703125</ele>
        <time>2019-10-29T07:56:58.000Z</time>
      </trkpt>
      <trkpt lat="37.39957024343311786651611328125" lon="-3.1422154046595096588134765625">
        <ele>850.4000244140625</ele>
        <time>2019-10-29T07:57:07.000Z</time>
      </trkpt>
      <trkpt lat="37.399550043046474456787109375" lon="-3.1423005647957324981689453125">
        <ele>850.5999755859375</ele>
        <time>2019-10-29T08:00:58.000Z</time>
      </trkpt>
      <trkpt lat="37.39966847933828830718994140625" lon="-3.142395950853824615478515625">
        <ele>851</ele>
        <time>2019-10-29T08:01:06.000Z</time>
      </trkpt>
      <trkpt lat="37.3998579941689968109130859375" lon="-3.14244263805449008941650390625">
        <ele>850</ele>
        <time>2019-10-29T08:01:13.000Z</time>
      </trkpt>
      <trkpt lat="37.40004801191389560699462890625" lon="-3.14248153008520603179931640625">
        <ele>848.4000244140625</ele>
        <time>2019-10-29T08:01:19.000Z</time>
      </trkpt>
      <trkpt lat="37.4002345092594623565673828125" lon="-3.14249510876834392547607421875">
        <ele>846.79998779296875</ele>
        <time>2019-10-29T08:01:25.000Z</time>
      </trkpt>
      <trkpt lat="37.40041966550052165985107421875" lon="-3.14255160279572010040283203125">
        <ele>845.79998779296875</ele>
        <time>2019-10-29T08:01:31.000Z</time>
      </trkpt>
      <trkpt lat="37.40058260969817638397216796875" lon="-3.1427092663943767547607421875">
        <ele>845</ele>
        <time>2019-10-29T08:01:37.000Z</time>
      </trkpt>
      <trkpt lat="37.40069677121937274932861328125" lon="-3.142912276089191436767578125">
        <ele>845</ele>
        <time>2019-10-29T08:01:44.000Z</time>
      </trkpt>
      <trkpt lat="37.40073633380234241485595703125" lon="-3.1431464664638042449951171875">
        <ele>845.20001220703125</ele>
        <time>2019-10-29T08:01:51.000Z</time>
      </trkpt>
      <trkpt lat="37.4007106013596057891845703125" lon="-3.14337286166846752166748046875">
        <ele>844.79998779296875</ele>
        <time>2019-10-29T08:01:57.000Z</time>
      </trkpt>
      <trkpt lat="37.40067162550985813140869140625" lon="-3.14362046308815479278564453125">
        <ele>844</ele>
        <time>2019-10-29T08:02:03.000Z</time>
      </trkpt>
      <trkpt lat="37.40073256194591522216796875" lon="-3.14386236481368541717529296875">
        <ele>843.5999755859375</ele>
        <time>2019-10-29T08:02:09.000Z</time>
      </trkpt>
      <trkpt lat="37.40081931464374065399169921875" lon="-3.14411080442368984222412109375">
        <ele>842.20001220703125</ele>
        <time>2019-10-29T08:02:15.000Z</time>
      </trkpt>
      <trkpt lat="37.4009154550731182098388671875" lon="-3.1443041749298572540283203125">
        <ele>842.4000244140625</ele>
        <time>2019-10-29T08:02:20.000Z</time>
      </trkpt>
      <trkpt lat="37.401059456169605255126953125" lon="-3.14449519850313663482666015625">
        <ele>841.4000244140625</ele>
        <time>2019-10-29T08:02:27.000Z</time>
      </trkpt>
      <trkpt lat="37.401197254657745361328125" lon="-3.14464607276022434234619140625">
        <ele>841.20001220703125</ele>
        <time>2019-10-29T08:02:33.000Z</time>
      </trkpt>
      <trkpt lat="37.40135475061833858489990234375" lon="-3.144817650318145751953125">
        <ele>840.4000244140625</ele>
        <time>2019-10-29T08:02:39.000Z</time>
      </trkpt>
      <trkpt lat="37.40144477225840091705322265625" lon="-3.14504069276154041290283203125">
        <ele>841.79998779296875</ele>
        <time>2019-10-29T08:02:46.000Z</time>
      </trkpt>
      <trkpt lat="37.40150428377091884613037109375" lon="-3.14527295529842376708984375">
        <ele>843.20001220703125</ele>
        <time>2019-10-29T08:02:52.000Z</time>
      </trkpt>
      <trkpt lat="37.40152020938694477081298828125" lon="-3.1455192156136035919189453125">
        <ele>843.79998779296875</ele>
        <time>2019-10-29T08:02:58.000Z</time>
      </trkpt>
      <trkpt lat="37.401524148881435394287109375" lon="-3.1457703374326229095458984375">
        <ele>844</ele>
        <time>2019-10-29T08:03:04.000Z</time>
      </trkpt>
      <trkpt lat="37.40151199512183666229248046875" lon="-3.14593470655381679534912109375">
        <ele>843.79998779296875</ele>
        <time>2019-10-29T08:03:11.000Z</time>
      </trkpt>
      <trkpt lat="37.4015155993402004241943359375" lon="-3.14592816866934299468994140625">
        <ele>843.79998779296875</ele>
        <time>2019-10-29T08:03:15.000Z</time>
      </trkpt>
      <trkpt lat="37.40152590908110141754150390625" lon="-3.14591157250106334686279296875">
        <ele>843.79998779296875</ele>
        <time>2019-10-29T08:03:51.000Z</time>
      </trkpt>
      <trkpt lat="37.40154116414487361907958984375" lon="-3.14600209705531597137451171875">
        <ele>843.4000244140625</ele>
        <time>2019-10-29T08:03:57.000Z</time>
      </trkpt>
      <trkpt lat="37.4016185291111469268798828125" lon="-3.14607988111674785614013671875">
        <ele>843</ele>
        <time>2019-10-29T08:04:09.000Z</time>
      </trkpt>
      <trkpt lat="37.40166672505438327789306640625" lon="-3.1460707448422908782958984375">
        <ele>843</ele>
        <time>2019-10-29T08:04:13.000Z</time>
      </trkpt>
      <trkpt lat="37.4017124064266681671142578125" lon="-3.14603612758219242095947265625">
        <ele>843.4000244140625</ele>
        <time>2019-10-29T08:04:17.000Z</time>
      </trkpt>
      <trkpt lat="37.40178910084068775177001953125" lon="-3.14608055166900157928466796875">
        <ele>843.79998779296875</ele>
        <time>2019-10-29T08:04:28.000Z</time>
      </trkpt>
      <trkpt lat="37.4018508754670619964599609375" lon="-3.14607753418385982513427734375">
        <ele>844.20001220703125</ele>
        <time>2019-10-29T08:04:33.000Z</time>
      </trkpt>
      <trkpt lat="37.401943914592266082763671875" lon="-3.1460844911634922027587890625">
        <ele>845</ele>
        <time>2019-10-29T08:04:41.000Z</time>
      </trkpt>
      <trkpt lat="37.40199663676321506500244140625" lon="-3.14609580673277378082275390625">
        <ele>845.79998779296875</ele>
        <time>2019-10-29T08:04:50.000Z</time>
      </trkpt>
      <trkpt lat="37.40187895484268665313720703125" lon="-3.146094717085361480712890625">
        <ele>844.20001220703125</ele>
        <time>2019-10-29T08:05:01.000Z</time>
      </trkpt>
      <trkpt lat="37.4017083831131458282470703125" lon="-3.1460742652416229248046875">
        <ele>843.20001220703125</ele>
        <time>2019-10-29T08:05:14.000Z</time>
      </trkpt>
      <trkpt lat="37.40160721354186534881591796875" lon="-3.146079294383525848388671875">
        <ele>843</ele>
        <time>2019-10-29T08:05:23.000Z</time>
      </trkpt>
      <trkpt lat="37.40153613500297069549560546875" lon="-3.14601249061524868011474609375">
        <ele>843.4000244140625</ele>
        <time>2019-10-29T08:05:30.000Z</time>
      </trkpt>
      <trkpt lat="37.40154837258160114288330078125" lon="-3.14598130993545055389404296875">
        <ele>843.4000244140625</ele>
        <time>2019-10-29T08:05:38.000Z</time>
      </trkpt>
      <trkpt lat="37.4015115760266780853271484375" lon="-3.14609865657985210418701171875">
        <ele>843.4000244140625</ele>
        <time>2019-10-29T08:05:47.000Z</time>
      </trkpt>
      <trkpt lat="37.4014837481081485748291015625" lon="-3.146273754537105560302734375">
        <ele>843.20001220703125</ele>
        <time>2019-10-29T08:05:52.000Z</time>
      </trkpt>
      <trkpt lat="37.40147260017693042755126953125" lon="-3.1465139798820018768310546875">
        <ele>842.5999755859375</ele>
        <time>2019-10-29T08:06:00.000Z</time>
      </trkpt>
      <trkpt lat="37.401443012058734893798828125" lon="-3.1467513553798198699951171875">
        <ele>842.79998779296875</ele>
        <time>2019-10-29T08:06:08.000Z</time>
      </trkpt>
      <trkpt lat="37.4013586901128292083740234375" lon="-3.14697347581386566162109375">
        <ele>843</ele>
        <time>2019-10-29T08:06:14.000Z</time>
      </trkpt>
      <trkpt lat="37.40129406563937664031982421875" lon="-3.1471979431807994842529296875">
        <ele>842.79998779296875</ele>
        <time>2019-10-29T08:06:20.000Z</time>
      </trkpt>
      <trkpt lat="37.4012339673936367034912109375" lon="-3.1474118493497371673583984375">
        <ele>842.5999755859375</ele>
        <time>2019-10-29T08:06:26.000Z</time>
      </trkpt>
      <trkpt lat="37.401180155575275421142578125" lon="-3.1476307846605777740478515625">
        <ele>841.5999755859375</ele>
        <time>2019-10-29T08:06:33.000Z</time>
      </trkpt>
      <trkpt lat="37.40117202512919902801513671875" lon="-3.1478684954345226287841796875">
        <ele>842.5999755859375</ele>
        <time>2019-10-29T08:06:39.000Z</time>
      </trkpt>
      <trkpt lat="37.40121041424572467803955078125" lon="-3.1481095589697360992431640625">
        <ele>842.20001220703125</ele>
        <time>2019-10-29T08:06:45.000Z</time>
      </trkpt>
      <trkpt lat="37.4013767950236797332763671875" lon="-3.1482121534645557403564453125">
        <ele>839.79998779296875</ele>
        <time>2019-10-29T08:06:50.000Z</time>
      </trkpt>
      <trkpt lat="37.4015300162136554718017578125" lon="-3.14839127473533153533935546875">
        <ele>839</ele>
        <time>2019-10-29T08:06:56.000Z</time>
      </trkpt>
      <trkpt lat="37.40161794237792491912841796875" lon="-3.148589842021465301513671875">
        <ele>839.79998779296875</ele>
        <time>2019-10-29T08:07:01.000Z</time>
      </trkpt>
      <trkpt lat="37.4016782082617282867431640625" lon="-3.14880483783781528472900390625">
        <ele>840.5999755859375</ele>
        <time>2019-10-29T08:07:06.000Z</time>
      </trkpt>
      <trkpt lat="37.401764206588268280029296875" lon="-3.14902645535767078399658203125">
        <ele>842</ele>
        <time>2019-10-29T08:07:13.000Z</time>
      </trkpt>
      <trkpt lat="37.40190066397190093994140625" lon="-3.1492285430431365966796875">
        <ele>841.20001220703125</ele>
        <time>2019-10-29T08:07:20.000Z</time>
      </trkpt>
      <trkpt lat="37.40201155655086040496826171875" lon="-3.149424679577350616455078125">
        <ele>840.20001220703125</ele>
        <time>2019-10-29T08:07:26.000Z</time>
      </trkpt>
      <trkpt lat="37.40211213938891887664794921875" lon="-3.14961670897901058197021484375">
        <ele>839.79998779296875</ele>
        <time>2019-10-29T08:07:32.000Z</time>
      </trkpt>
      <trkpt lat="37.402247004210948944091796875" lon="-3.14979574643075466156005859375">
        <ele>838.5999755859375</ele>
        <time>2019-10-29T08:07:39.000Z</time>
      </trkpt>
      <trkpt lat="37.40239326842129230499267578125" lon="-3.14997998066246509552001953125">
        <ele>836.79998779296875</ele>
        <time>2019-10-29T08:07:47.000Z</time>
      </trkpt>
      <trkpt lat="37.4024979583919048309326171875" lon="-3.15016790293157100677490234375">
        <ele>837</ele>
        <time>2019-10-29T08:07:52.000Z</time>
      </trkpt>
      <trkpt lat="37.40266031585633754730224609375" lon="-3.150304444134235382080078125">
        <ele>837.79998779296875</ele>
        <time>2019-10-29T08:07:58.000Z</time>
      </trkpt>
      <trkpt lat="37.40277112461626529693603515625" lon="-3.1502999179065227508544921875">
        <ele>837.79998779296875</ele>
        <time>2019-10-29T08:08:04.000Z</time>
      </trkpt>
      <trkpt lat="37.4028352461755275726318359375" lon="-3.15031844191253185272216796875">
        <ele>838</ele>
        <time>2019-10-29T08:08:09.000Z</time>
      </trkpt>
      <trkpt lat="37.403044290840625762939453125" lon="-3.1503470242023468017578125">
        <ele>838</ele>
        <time>2019-10-29T08:08:16.000Z</time>
      </trkpt>
      <trkpt lat="37.40325291641056537628173828125" lon="-3.15032833255827426910400390625">
        <ele>837.4000244140625</ele>
        <time>2019-10-29T08:08:23.000Z</time>
      </trkpt>
      <trkpt lat="37.4034400843083858489990234375" lon="-3.15030000172555446624755859375">
        <ele>837.5999755859375</ele>
        <time>2019-10-29T08:08:29.000Z</time>
      </trkpt>
      <trkpt lat="37.40362004376947879791259765625" lon="-3.15025976859033107757568359375">
        <ele>837.20001220703125</ele>
        <time>2019-10-29T08:08:34.000Z</time>
      </trkpt>
      <trkpt lat="37.40370553918182849884033203125" lon="-3.1502544879913330078125">
        <ele>837.4000244140625</ele>
        <time>2019-10-29T08:08:37.000Z</time>
      </trkpt>
      <trkpt lat="37.40386999212205410003662109375" lon="-3.150196485221385955810546875">
        <ele>837.20001220703125</ele>
        <time>2019-10-29T08:08:43.000Z</time>
      </trkpt>
      <trkpt lat="37.40405305288732051849365234375" lon="-3.15014342777431011199951171875">
        <ele>836.20001220703125</ele>
        <time>2019-10-29T08:08:48.000Z</time>
      </trkpt>
      <trkpt lat="37.40424198098480701446533203125" lon="-3.15012247301638126373291015625">
        <ele>835</ele>
        <time>2019-10-29T08:08:53.000Z</time>
      </trkpt>
      <trkpt lat="37.4044335074722766876220703125" lon="-3.1501322798430919647216796875">
        <ele>832.4000244140625</ele>
        <time>2019-10-29T08:08:59.000Z</time>
      </trkpt>
      <trkpt lat="37.4046157300472259521484375" lon="-3.1501332856714725494384765625">
        <ele>830.4000244140625</ele>
        <time>2019-10-29T08:09:04.000Z</time>
      </trkpt>
      <trkpt lat="37.4048096872866153717041015625" lon="-3.1501466967165470123291015625">
        <ele>828.20001220703125</ele>
        <time>2019-10-29T08:09:09.000Z</time>
      </trkpt>
      <trkpt lat="37.40500825457274913787841796875" lon="-3.15020143054425716400146484375">
        <ele>825.79998779296875</ele>
        <time>2019-10-29T08:09:15.000Z</time>
      </trkpt>
      <trkpt lat="37.4051744677126407623291015625" lon="-3.150321207940578460693359375">
        <ele>824.79998779296875</ele>
        <time>2019-10-29T08:09:21.000Z</time>
      </trkpt>
      <trkpt lat="37.4051962606608867645263671875" lon="-3.15053813159465789794921875">
        <ele>826.5999755859375</ele>
        <time>2019-10-29T08:09:29.000Z</time>
      </trkpt>
      <trkpt lat="37.40521076135337352752685546875" lon="-3.15066478215157985687255859375">
        <ele>828</ele>
        <time>2019-10-29T08:09:33.000Z</time>
      </trkpt>
      <trkpt lat="37.4053895473480224609375" lon="-3.15077743493020534515380859375">
        <ele>826.5999755859375</ele>
        <time>2019-10-29T08:09:41.000Z</time>
      </trkpt>
      <trkpt lat="37.40541259758174419403076171875" lon="-3.1508029997348785400390625">
        <ele>827</ele>
        <time>2019-10-29T08:09:42.000Z</time>
      </trkpt>
      <trkpt lat="37.40556498058140277862548828125" lon="-3.1509708054363727569580078125">
        <ele>826.20001220703125</ele>
        <time>2019-10-29T08:09:49.000Z</time>
      </trkpt>
      <trkpt lat="37.4057256616652011871337890625" lon="-3.1511008925735950469970703125">
        <ele>826.79998779296875</ele>
        <time>2019-10-29T08:09:55.000Z</time>
      </trkpt>
      <trkpt lat="37.4059030227363109588623046875" lon="-3.15121941268444061279296875">
        <ele>826</ele>
        <time>2019-10-29T08:10:01.000Z</time>
      </trkpt>
      <trkpt lat="37.4060622788965702056884765625" lon="-3.15134187228977680206298828125">
        <ele>825.20001220703125</ele>
        <time>2019-10-29T08:10:06.000Z</time>
      </trkpt>
      <trkpt lat="37.40622832439839839935302734375" lon="-3.15145988948643207550048828125">
        <ele>823.5999755859375</ele>
        <time>2019-10-29T08:10:12.000Z</time>
      </trkpt>
      <trkpt lat="37.40640937350690364837646484375" lon="-3.1515897251665592193603515625">
        <ele>820.79998779296875</ele>
        <time>2019-10-29T08:10:19.000Z</time>
      </trkpt>
      <trkpt lat="37.40657114423811435699462890625" lon="-3.15174839459359645843505859375">
        <ele>819.5999755859375</ele>
        <time>2019-10-29T08:10:25.000Z</time>
      </trkpt>
      <trkpt lat="37.4066345952451229095458984375" lon="-3.15198074094951152801513671875">
        <ele>819.5999755859375</ele>
        <time>2019-10-29T08:10:31.000Z</time>
      </trkpt>
      <trkpt lat="37.40671045146882534027099609375" lon="-3.15221694298088550567626953125">
        <ele>821.5999755859375</ele>
        <time>2019-10-29T08:10:37.000Z</time>
      </trkpt>
      <trkpt lat="37.40686534903943538665771484375" lon="-3.15237988717854022979736328125">
        <ele>821.5999755859375</ele>
        <time>2019-10-29T08:10:43.000Z</time>
      </trkpt>
      <trkpt lat="37.407017648220062255859375" lon="-3.15250678919255733489990234375">
        <ele>821.4000244140625</ele>
        <time>2019-10-29T08:10:49.000Z</time>
      </trkpt>
      <trkpt lat="37.40719760768115520477294921875" lon="-3.15263427793979644775390625">
        <ele>821.5999755859375</ele>
        <time>2019-10-29T08:10:56.000Z</time>
      </trkpt>
      <trkpt lat="37.40736164152622222900390625" lon="-3.1527809612452983856201171875">
        <ele>823.4000244140625</ele>
        <time>2019-10-29T08:11:03.000Z</time>
      </trkpt>
      <trkpt lat="37.40751310251653194427490234375" lon="-3.15293560735881328582763671875">
        <ele>823</ele>
        <time>2019-10-29T08:11:09.000Z</time>
      </trkpt>
      <trkpt lat="37.4076622165739536285400390625" lon="-3.1530790217220783233642578125">
        <ele>821.4000244140625</ele>
        <time>2019-10-29T08:11:15.000Z</time>
      </trkpt>
      <trkpt lat="37.4078154377639293670654296875" lon="-3.15319946967065334320068359375">
        <ele>819.5999755859375</ele>
        <time>2019-10-29T08:11:21.000Z</time>
      </trkpt>
      <trkpt lat="37.40800780244171619415283203125" lon="-3.15327465534210205078125">
        <ele>818.20001220703125</ele>
        <time>2019-10-29T08:11:27.000Z</time>
      </trkpt>
      <trkpt lat="37.4082090519368648529052734375" lon="-3.1533418782055377960205078125">
        <ele>817.4000244140625</ele>
        <time>2019-10-29T08:11:34.000Z</time>
      </trkpt>
      <trkpt lat="37.40838222205638885498046875" lon="-3.1534448079764842987060546875">
        <ele>818.20001220703125</ele>
        <time>2019-10-29T08:11:40.000Z</time>
      </trkpt>
      <trkpt lat="37.4085188470780849456787109375" lon="-3.15360314212739467620849609375">
        <ele>818.5999755859375</ele>
        <time>2019-10-29T08:11:45.000Z</time>
      </trkpt>
      <trkpt lat="37.40869738161563873291015625" lon="-3.1537465564906597137451171875">
        <ele>821.20001220703125</ele>
        <time>2019-10-29T08:11:51.000Z</time>
      </trkpt>
      <trkpt lat="37.40888924337923526763916015625" lon="-3.15372216515243053436279296875">
        <ele>821</ele>
        <time>2019-10-29T08:11:58.000Z</time>
      </trkpt>
      <trkpt lat="37.409006841480731964111328125" lon="-3.153534494340419769287109375">
        <ele>818.4000244140625</ele>
        <time>2019-10-29T08:12:04.000Z</time>
      </trkpt>
      <trkpt lat="37.40916542708873748779296875" lon="-3.1534367613494396209716796875">
        <ele>818.20001220703125</ele>
        <time>2019-10-29T08:12:09.000Z</time>
      </trkpt>
      <trkpt lat="37.40936852060258388519287109375" lon="-3.15341521985828876495361328125">
        <ele>819.5999755859375</ele>
        <time>2019-10-29T08:12:15.000Z</time>
      </trkpt>
      <trkpt lat="37.40954118780791759490966796875" lon="-3.15333525650203227996826171875">
        <ele>819</ele>
        <time>2019-10-29T08:12:20.000Z</time>
      </trkpt>
      <trkpt lat="37.40971854887902736663818359375" lon="-3.1532664410769939422607421875">
        <ele>818</ele>
        <time>2019-10-29T08:12:25.000Z</time>
      </trkpt>
      <trkpt lat="37.409921474754810333251953125" lon="-3.15324557013809680938720703125">
        <ele>815.5999755859375</ele>
        <time>2019-10-29T08:12:31.000Z</time>
      </trkpt>
      <trkpt lat="37.4101020209491252899169921875" lon="-3.15337884239852428436279296875">
        <ele>815.20001220703125</ele>
        <time>2019-10-29T08:12:37.000Z</time>
      </trkpt>
      <trkpt lat="37.4102592654526233673095703125" lon="-3.153491914272308349609375">
        <ele>814.79998779296875</ele>
        <time>2019-10-29T08:12:42.000Z</time>
      </trkpt>
      <trkpt lat="37.41044425405561923980712890625" lon="-3.15355964004993438720703125">
        <ele>813.79998779296875</ele>
        <time>2019-10-29T08:12:47.000Z</time>
      </trkpt>
      <trkpt lat="37.41061641834676265716552734375" lon="-3.15364873968064785003662109375">
        <ele>813.20001220703125</ele>
        <time>2019-10-29T08:12:52.000Z</time>
      </trkpt>
      <trkpt lat="37.41079076193273067474365234375" lon="-3.153741694986820220947265625">
        <ele>812</ele>
        <time>2019-10-29T08:12:58.000Z</time>
      </trkpt>
      <trkpt lat="37.41097650490701198577880859375" lon="-3.153824172914028167724609375">
        <ele>810.5999755859375</ele>
        <time>2019-10-29T08:13:05.000Z</time>
      </trkpt>
      <trkpt lat="37.4111594818532466888427734375" lon="-3.15389357507228851318359375">
        <ele>810</ele>
        <time>2019-10-29T08:13:11.000Z</time>
      </trkpt>
      <trkpt lat="37.41133340634405612945556640625" lon="-3.1539597921073436737060546875">
        <ele>810.4000244140625</ele>
        <time>2019-10-29T08:13:16.000Z</time>
      </trkpt>
      <trkpt lat="37.41153717041015625" lon="-3.15399860031902790069580078125">
        <ele>810.79998779296875</ele>
        <time>2019-10-29T08:13:22.000Z</time>
      </trkpt>
      <trkpt lat="37.411748729646205902099609375" lon="-3.154013268649578094482421875">
        <ele>810.4000244140625</ele>
        <time>2019-10-29T08:13:28.000Z</time>
      </trkpt>
      <trkpt lat="37.41194159723818302154541015625" lon="-3.15402240492403507232666015625">
        <ele>810.20001220703125</ele>
        <time>2019-10-29T08:13:33.000Z</time>
      </trkpt>
      <trkpt lat="37.41213974542915821075439453125" lon="-3.1540355645120143890380859375">
        <ele>807.5999755859375</ele>
        <time>2019-10-29T08:13:38.000Z</time>
      </trkpt>
      <trkpt lat="37.4123507179319858551025390625" lon="-3.1540285237133502960205078125">
        <ele>806.5999755859375</ele>
        <time>2019-10-29T08:13:43.000Z</time>
      </trkpt>
      <trkpt lat="37.412530593574047088623046875" lon="-3.1540074013173580169677734375">
        <ele>806.79998779296875</ele>
        <time>2019-10-29T08:13:48.000Z</time>
      </trkpt>
      <trkpt lat="37.41270854137837886810302734375" lon="-3.15393908880650997161865234375">
        <ele>807.20001220703125</ele>
        <time>2019-10-29T08:13:53.000Z</time>
      </trkpt>
      <trkpt lat="37.4128626845777034759521484375" lon="-3.15381017513573169708251953125">
        <ele>806.20001220703125</ele>
        <time>2019-10-29T08:13:58.000Z</time>
      </trkpt>
      <trkpt lat="37.41295111365616321563720703125" lon="-3.15359442494809627532958984375">
        <ele>804.5999755859375</ele>
        <time>2019-10-29T08:14:04.000Z</time>
      </trkpt>
      <trkpt lat="37.41296234540641307830810546875" lon="-3.15352368168532848358154296875">
        <ele>804.20001220703125</ele>
        <time>2019-10-29T08:14:07.000Z</time>
      </trkpt>
      <trkpt lat="37.41296150721609592437744140625" lon="-3.15352334640920162200927734375">
        <ele>804.20001220703125</ele>
        <time>2019-10-29T08:14:11.000Z</time>
      </trkpt>
      <trkpt lat="37.41292362101376056671142578125" lon="-3.15369115211069583892822265625">
        <ele>805.20001220703125</ele>
        <time>2019-10-29T08:14:28.000Z</time>
      </trkpt>
      <trkpt lat="37.41289847530424594879150390625" lon="-3.15375166945159435272216796875">
        <ele>805.79998779296875</ele>
        <time>2019-10-29T08:14:32.000Z</time>
      </trkpt>
      <trkpt lat="37.41280208341777324676513671875" lon="-3.1538702733814716339111328125">
        <ele>806.79998779296875</ele>
        <time>2019-10-29T08:14:42.000Z</time>
      </trkpt>
      <trkpt lat="37.4127973057329654693603515625" lon="-3.153873123228549957275390625">
        <ele>806.79998779296875</ele>
        <time>2019-10-29T08:14:46.000Z</time>
      </trkpt>
      <trkpt lat="37.41257258690893650054931640625" lon="-3.15400262363255023956298828125">
        <ele>807</ele>
        <time>2019-10-29T08:15:35.000Z</time>
      </trkpt>
      <trkpt lat="37.41247284226119518280029296875" lon="-3.15401385538280010223388671875">
        <ele>806.5999755859375</ele>
        <time>2019-10-29T08:15:42.000Z</time>
      </trkpt>
      <trkpt lat="37.4123138375580310821533203125" lon="-3.15399072133004665374755859375">
        <ele>806.4000244140625</ele>
        <time>2019-10-29T08:15:54.000Z</time>
      </trkpt>
      <trkpt lat="37.41230419836938381195068359375" lon="-3.15397479571402072906494140625">
        <ele>806.4000244140625</ele>
        <time>2019-10-29T08:15:59.000Z</time>
      </trkpt>
      <trkpt lat="37.4122658930718898773193359375" lon="-3.1541069783270359039306640625">
        <ele>807.79998779296875</ele>
        <time>2019-10-29T08:16:11.000Z</time>
      </trkpt>
      <trkpt lat="37.41228072904050350189208984375" lon="-3.1541478820145130157470703125">
        <ele>808.5999755859375</ele>
        <time>2019-10-29T08:16:16.000Z</time>
      </trkpt>
      <trkpt lat="37.41251542232930660247802734375" lon="-3.15400295890867710113525390625">
        <ele>806.5999755859375</ele>
        <time>2019-10-29T08:17:16.000Z</time>
      </trkpt>
      <trkpt lat="37.4126434139907360076904296875" lon="-3.15400421619415283203125">
        <ele>807.4000244140625</ele>
        <time>2019-10-29T08:17:28.000Z</time>
      </trkpt>
      <trkpt lat="37.4126457609236240386962890625" lon="-3.1540127657353878021240234375">
        <ele>807.5999755859375</ele>
        <time>2019-10-29T08:17:31.000Z</time>
      </trkpt>
      <trkpt lat="37.4127701483666896820068359375" lon="-3.15389885567128658294677734375">
        <ele>807.20001220703125</ele>
        <time>2019-10-29T08:18:19.000Z</time>
      </trkpt>
      <trkpt lat="37.41289411671459674835205078125" lon="-3.15373398363590240478515625">
        <ele>805.5999755859375</ele>
        <time>2019-10-29T08:18:27.000Z</time>
      </trkpt>
      <trkpt lat="37.41292026825249195098876953125" lon="-3.15368645824491977691650390625">
        <ele>805.20001220703125</ele>
        <time>2019-10-29T08:18:30.000Z</time>
      </trkpt>
      <trkpt lat="37.4129280634224414825439453125" lon="-3.15366030670702457427978515625">
        <ele>805</ele>
        <time>2019-10-29T08:18:34.000Z</time>
      </trkpt>
      <trkpt lat="37.4129574000835418701171875" lon="-3.15353457815945148468017578125">
        <ele>804.4000244140625</ele>
        <time>2019-10-29T08:18:38.000Z</time>
      </trkpt>
      <trkpt lat="37.4129709787666797637939453125" lon="-3.15330927260220050811767578125">
        <ele>803.4000244140625</ele>
        <time>2019-10-29T08:18:43.000Z</time>
      </trkpt>
      <trkpt lat="37.4130407162010669708251953125" lon="-3.1530770100653171539306640625">
        <ele>802.4000244140625</ele>
        <time>2019-10-29T08:18:49.000Z</time>
      </trkpt>
      <trkpt lat="37.41317021660506725311279296875" lon="-3.15288397483527660369873046875">
        <ele>801</ele>
        <time>2019-10-29T08:18:56.000Z</time>
      </trkpt>
      <trkpt lat="37.41331337951123714447021484375" lon="-3.1527189351618289947509765625">
        <ele>800</ele>
        <time>2019-10-29T08:19:02.000Z</time>
      </trkpt>
      <trkpt lat="37.41339686326682567596435546875" lon="-3.15264894627034664154052734375">
        <ele>800.20001220703125</ele>
        <time>2019-10-29T08:19:08.000Z</time>
      </trkpt>
      <trkpt lat="37.41338864900171756744384765625" lon="-3.1526545621454715728759765625">
        <ele>800</ele>
        <time>2019-10-29T08:19:12.000Z</time>
      </trkpt>
      <trkpt lat="37.41340608336031436920166015625" lon="-3.1526792049407958984375">
        <ele>800</ele>
        <time>2019-10-29T08:20:05.000Z</time>
      </trkpt>
      <trkpt lat="37.413419075310230255126953125" lon="-3.15257853828370571136474609375">
        <ele>800.4000244140625</ele>
        <time>2019-10-29T08:20:13.000Z</time>
      </trkpt>
      <trkpt lat="37.41342217661440372467041015625" lon="-3.15257535316050052642822265625">
        <ele>800.4000244140625</ele>
        <time>2019-10-29T08:20:16.000Z</time>
      </trkpt>
      <trkpt lat="37.41347481496632099151611328125" lon="-3.1525073759257793426513671875">
        <ele>800.5999755859375</ele>
        <time>2019-10-29T08:20:21.000Z</time>
      </trkpt>
      <trkpt lat="37.41361244581639766693115234375" lon="-3.15234065987169742584228515625">
        <ele>801.4000244140625</ele>
        <time>2019-10-29T08:20:28.000Z</time>
      </trkpt>
      <trkpt lat="37.4137893877923488616943359375" lon="-3.1522311083972454071044921875">
        <ele>802.20001220703125</ele>
        <time>2019-10-29T08:20:34.000Z</time>
      </trkpt>
      <trkpt lat="37.4139587022364139556884765625" lon="-3.15214402042329311370849609375">
        <ele>802.5999755859375</ele>
        <time>2019-10-29T08:20:40.000Z</time>
      </trkpt>
      <trkpt lat="37.4141514860093593597412109375" lon="-3.1520973332226276397705078125">
        <ele>802.20001220703125</ele>
        <time>2019-10-29T08:20:46.000Z</time>
      </trkpt>
      <trkpt lat="37.4143345467746257781982421875" lon="-3.15209389664232730865478515625">
        <ele>801.5999755859375</ele>
        <time>2019-10-29T08:20:51.000Z</time>
      </trkpt>
      <trkpt lat="37.4145011790096759796142578125" lon="-3.152170591056346893310546875">
        <ele>800.5999755859375</ele>
        <time>2019-10-29T08:20:56.000Z</time>
      </trkpt>
      <trkpt lat="37.41463989950716495513916015625" lon="-3.15234317444264888763427734375">
        <ele>800</ele>
        <time>2019-10-29T08:21:02.000Z</time>
      </trkpt>
      <trkpt lat="37.4148025922477245330810546875" lon="-3.15247376449406147003173828125">
        <ele>799.79998779296875</ele>
        <time>2019-10-29T08:21:08.000Z</time>
      </trkpt>
      <trkpt lat="37.41499311290681362152099609375" lon="-3.15258809365332126617431640625">
        <ele>800</ele>
        <time>2019-10-29T08:21:14.000Z</time>
      </trkpt>
      <trkpt lat="37.4151502735912799835205078125" lon="-3.15270091407001018524169921875">
        <ele>799.4000244140625</ele>
        <time>2019-10-29T08:21:19.000Z</time>
      </trkpt>
      <trkpt lat="37.4153413809835910797119140625" lon="-3.1528245471417903900146484375">
        <ele>798.4000244140625</ele>
        <time>2019-10-29T08:21:25.000Z</time>
      </trkpt>
      <trkpt lat="37.41553072817623615264892578125" lon="-3.1529167480766773223876953125">
        <ele>797.4000244140625</ele>
        <time>2019-10-29T08:21:30.000Z</time>
      </trkpt>
      <trkpt lat="37.41570473648607730865478515625" lon="-3.15303853712975978851318359375">
        <ele>795.5999755859375</ele>
        <time>2019-10-29T08:21:35.000Z</time>
      </trkpt>
      <trkpt lat="37.41587765514850616455078125" lon="-3.15317415632307529449462890625">
        <ele>794.4000244140625</ele>
        <time>2019-10-29T08:21:40.000Z</time>
      </trkpt>
      <trkpt lat="37.4160126037895679473876953125" lon="-3.15336761064827442169189453125">
        <ele>795.20001220703125</ele>
        <time>2019-10-29T08:21:45.000Z</time>
      </trkpt>
      <trkpt lat="37.41611913777887821197509765625" lon="-3.15357296727597713470458984375">
        <ele>795.20001220703125</ele>
        <time>2019-10-29T08:21:50.000Z</time>
      </trkpt>
      <trkpt lat="37.416272275149822235107421875" lon="-3.15372032113373279571533203125">
        <ele>796.4000244140625</ele>
        <time>2019-10-29T08:21:55.000Z</time>
      </trkpt>
      <trkpt lat="37.41642222739756107330322265625" lon="-3.1538732908666133880615234375">
        <ele>797.5999755859375</ele>
        <time>2019-10-29T08:22:00.000Z</time>
      </trkpt>
      <trkpt lat="37.41658483631908893585205078125" lon="-3.1540377438068389892578125">
        <ele>798.79998779296875</ele>
        <time>2019-10-29T08:22:05.000Z</time>
      </trkpt>
      <trkpt lat="37.41675213910639286041259765625" lon="-3.15417344681918621063232421875">
        <ele>799.4000244140625</ele>
        <time>2019-10-29T08:22:10.000Z</time>
      </trkpt>
      <trkpt lat="37.41691206581890583038330078125" lon="-3.1542979180812835693359375">
        <ele>799.20001220703125</ele>
        <time>2019-10-29T08:22:15.000Z</time>
      </trkpt>
      <trkpt lat="37.41706260479986667633056640625" lon="-3.15447083674371242523193359375">
        <ele>797.5999755859375</ele>
        <time>2019-10-29T08:22:21.000Z</time>
      </trkpt>
      <trkpt lat="37.41720803081989288330078125" lon="-3.1546414084732532501220703125">
        <ele>793.79998779296875</ele>
        <time>2019-10-29T08:22:26.000Z</time>
      </trkpt>
      <trkpt lat="37.4173795245587825775146484375" lon="-3.154812566936016082763671875">
        <ele>792.5999755859375</ele>
        <time>2019-10-29T08:22:31.000Z</time>
      </trkpt>
      <trkpt lat="37.41753014735877513885498046875" lon="-3.154990933835506439208984375">
        <ele>792.79998779296875</ele>
        <time>2019-10-29T08:22:36.000Z</time>
      </trkpt>
      <trkpt lat="37.4176846258342266082763671875" lon="-3.15516301430761814117431640625">
        <ele>793.5999755859375</ele>
        <time>2019-10-29T08:22:41.000Z</time>
      </trkpt>
      <trkpt lat="37.41783256642520427703857421875" lon="-3.155292011797428131103515625">
        <ele>794</ele>
        <time>2019-10-29T08:22:46.000Z</time>
      </trkpt>
      <trkpt lat="37.417998276650905609130859375" lon="-3.15541832707822322845458984375">
        <ele>793.4000244140625</ele>
        <time>2019-10-29T08:22:51.000Z</time>
      </trkpt>
      <trkpt lat="37.41815761663019657135009765625" lon="-3.15558043308556079864501953125">
        <ele>794</ele>
        <time>2019-10-29T08:22:56.000Z</time>
      </trkpt>
      <trkpt lat="37.41831989027559757232666015625" lon="-3.1557196564972400665283203125">
        <ele>793.20001220703125</ele>
        <time>2019-10-29T08:23:01.000Z</time>
      </trkpt>
      <trkpt lat="37.4184869416058063507080078125" lon="-3.15584546886384487152099609375">
        <ele>792.20001220703125</ele>
        <time>2019-10-29T08:23:06.000Z</time>
      </trkpt>
      <trkpt lat="37.41866983473300933837890625" lon="-3.1559811718761920928955078125">
        <ele>791.20001220703125</ele>
        <time>2019-10-29T08:23:12.000Z</time>
      </trkpt>
      <trkpt lat="37.41884543560445308685302734375" lon="-3.1561003625392913818359375">
        <ele>790.20001220703125</ele>
        <time>2019-10-29T08:23:18.000Z</time>
      </trkpt>
      <trkpt lat="37.4190163426101207733154296875" lon="-3.1562446989119052886962890625">
        <ele>788.79998779296875</ele>
        <time>2019-10-29T08:23:25.000Z</time>
      </trkpt>
      <trkpt lat="37.4191947095096111297607421875" lon="-3.15637671388685703277587890625">
        <ele>788.79998779296875</ele>
        <time>2019-10-29T08:23:31.000Z</time>
      </trkpt>
      <trkpt lat="37.41937835700809955596923828125" lon="-3.1564812362194061279296875">
        <ele>789.20001220703125</ele>
        <time>2019-10-29T08:23:36.000Z</time>
      </trkpt>
      <trkpt lat="37.41957449354231357574462890625" lon="-3.1565876863896846771240234375">
        <ele>790</ele>
        <time>2019-10-29T08:23:41.000Z</time>
      </trkpt>
      <trkpt lat="37.4197428859770298004150390625" lon="-3.15671869553625583648681640625">
        <ele>790.79998779296875</ele>
        <time>2019-10-29T08:23:46.000Z</time>
      </trkpt>
      <trkpt lat="37.419913709163665771484375" lon="-3.15685565583407878875732421875">
        <ele>790.4000244140625</ele>
        <time>2019-10-29T08:23:53.000Z</time>
      </trkpt>
      <trkpt lat="37.42004589177668094635009765625" lon="-3.15698356367647647857666015625">
        <ele>790</ele>
        <time>2019-10-29T08:23:59.000Z</time>
      </trkpt>
      <trkpt lat="37.4200439639389514923095703125" lon="-3.15699554979801177978515625">
        <ele>789.79998779296875</ele>
        <time>2019-10-29T08:24:05.000Z</time>
      </trkpt>
      <trkpt lat="37.4201644957065582275390625" lon="-3.15713175572454929351806640625">
        <ele>788.20001220703125</ele>
        <time>2019-10-29T08:24:47.000Z</time>
      </trkpt>
      <trkpt lat="37.420150078833103179931640625" lon="-3.15709085203707218170166015625">
        <ele>789</ele>
        <time>2019-10-29T08:24:50.000Z</time>
      </trkpt>
      <trkpt lat="37.4202132783830165863037109375" lon="-3.15708766691386699676513671875">
        <ele>789.5999755859375</ele>
        <time>2019-10-29T08:24:58.000Z</time>
      </trkpt>
      <trkpt lat="37.4203752167522907257080078125" lon="-3.15717500634491443634033203125">
        <ele>791</ele>
        <time>2019-10-29T08:25:20.000Z</time>
      </trkpt>
      <trkpt lat="37.42043296806514263153076171875" lon="-3.15734985284507274627685546875">
        <ele>789.5999755859375</ele>
        <time>2019-10-29T08:25:28.000Z</time>
      </trkpt>
      <trkpt lat="37.42037027142941951751708984375" lon="-3.15750324167311191558837890625">
        <ele>787</ele>
        <time>2019-10-29T08:25:36.000Z</time>
      </trkpt>
      <trkpt lat="37.4202789925038814544677734375" lon="-3.15772905014455318450927734375">
        <ele>783.79998779296875</ele>
        <time>2019-10-29T08:25:44.000Z</time>
      </trkpt>
      <trkpt lat="37.42020196281373500823974609375" lon="-3.15795578062534332275390625">
        <ele>782.20001220703125</ele>
        <time>2019-10-29T08:25:52.000Z</time>
      </trkpt>
      <trkpt lat="37.4201323091983795166015625" lon="-3.1581735424697399139404296875">
        <ele>781.79998779296875</ele>
        <time>2019-10-29T08:25:59.000Z</time>
      </trkpt>
      <trkpt lat="37.420061565935611724853515625" lon="-3.1584035418927669525146484375">
        <ele>782.5999755859375</ele>
        <time>2019-10-29T08:26:06.000Z</time>
      </trkpt>
      <trkpt lat="37.419987805187702178955078125" lon="-3.1586167775094509124755859375">
        <ele>785</ele>
        <time>2019-10-29T08:26:13.000Z</time>
      </trkpt>
      <trkpt lat="37.41991613991558551788330078125" lon="-3.1588293425738811492919921875">
        <ele>788.4000244140625</ele>
        <time>2019-10-29T08:26:21.000Z</time>
      </trkpt>
      <trkpt lat="37.41984422318637371063232421875" lon="-3.15893470309674739837646484375">
        <ele>790.4000244140625</ele>
        <time>2019-10-29T08:26:26.000Z</time>
      </trkpt>
      <trkpt lat="37.41967105306684970855712890625" lon="-3.15885121934115886688232421875">
        <ele>792.5999755859375</ele>
        <time>2019-10-29T08:26:35.000Z</time>
      </trkpt>
      <trkpt lat="37.41949193179607391357421875" lon="-3.1588246487081050872802734375">
        <ele>793</ele>
        <time>2019-10-29T08:26:45.000Z</time>
      </trkpt>
      <trkpt lat="37.4193707294762134552001953125" lon="-3.1588088907301425933837890625">
        <ele>793.20001220703125</ele>
        <time>2019-10-29T08:26:54.000Z</time>
      </trkpt>
      <trkpt lat="37.4193710647523403167724609375" lon="-3.158812411129474639892578125">
        <ele>793.4000244140625</ele>
        <time>2019-10-29T08:26:57.000Z</time>
      </trkpt>
      <trkpt lat="37.41945664398372173309326171875" lon="-3.15888189710676670074462890625">
        <ele>793.5999755859375</ele>
        <time>2019-10-29T08:27:27.000Z</time>
      </trkpt>
      <trkpt lat="37.41948095150291919708251953125" lon="-3.15889589488506317138671875">
        <ele>793.5999755859375</ele>
        <time>2019-10-29T08:27:31.000Z</time>
      </trkpt>
      <trkpt lat="37.41989082656800746917724609375" lon="-3.15921750850975513458251953125">
        <ele>792</ele>
        <time>2019-10-29T08:28:20.000Z</time>
      </trkpt>
      <trkpt lat="37.4198900721967220306396484375" lon="-3.159217424690723419189453125">
        <ele>792</ele>
        <time>2019-10-29T08:28:21.000Z</time>
      </trkpt>
      <trkpt lat="37.4199847877025604248046875" lon="-3.15936503000557422637939453125">
        <ele>792.20001220703125</ele>
        <time>2019-10-29T08:28:49.000Z</time>
      </trkpt>
      <trkpt lat="37.4200681038200855255126953125" lon="-3.15960223786532878875732421875">
        <ele>794.4000244140625</ele>
        <time>2019-10-29T08:28:54.000Z</time>
      </trkpt>
      <trkpt lat="37.419941537082195281982421875" lon="-3.1597704626619815826416015625">
        <ele>795.5999755859375</ele>
        <time>2019-10-29T08:29:01.000Z</time>
      </trkpt>
      <trkpt lat="37.41975420154631137847900390625" lon="-3.15985671244561672210693359375">
        <ele>796.5999755859375</ele>
        <time>2019-10-29T08:29:09.000Z</time>
      </trkpt>
      <trkpt lat="37.4195729009807109832763671875" lon="-3.1598710455000400543212890625">
        <ele>798.20001220703125</ele>
        <time>2019-10-29T08:29:19.000Z</time>
      </trkpt>
      <trkpt lat="37.4195846356451511383056640625" lon="-3.15986274741590023040771484375">
        <ele>798</ele>
        <time>2019-10-29T08:29:23.000Z</time>
      </trkpt>
      <trkpt lat="37.4191051907837390899658203125" lon="-3.1599833630025386810302734375">
        <ele>803.4000244140625</ele>
        <time>2019-10-29T08:32:34.000Z</time>
      </trkpt>
      <trkpt lat="37.41901676170527935028076171875" lon="-3.16017891280353069305419921875">
        <ele>804.4000244140625</ele>
        <time>2019-10-29T08:32:50.000Z</time>
      </trkpt>
      <trkpt lat="37.41901583969593048095703125" lon="-3.16019752062857151031494140625">
        <ele>804.4000244140625</ele>
        <time>2019-10-29T08:32:53.000Z</time>
      </trkpt>
      <trkpt lat="37.41901625879108905792236328125" lon="-3.16019752062857151031494140625">
        <ele>804.4000244140625</ele>
        <time>2019-10-29T08:32:55.000Z</time>
      </trkpt>
      <trkpt lat="37.4190334416925907135009765625" lon="-3.1603156216442584991455078125">
        <ele>803</ele>
        <time>2019-10-29T08:33:16.000Z</time>
      </trkpt>
      <trkpt lat="37.4190565757453441619873046875" lon="-3.16057336516678333282470703125">
        <ele>800</ele>
        <time>2019-10-29T08:33:23.000Z</time>
      </trkpt>
      <trkpt lat="37.41892724297940731048583984375" lon="-3.1607662327587604522705078125">
        <ele>798.4000244140625</ele>
        <time>2019-10-29T08:33:29.000Z</time>
      </trkpt>
      <trkpt lat="37.41875289939343929290771484375" lon="-3.1608614511787891387939453125">
        <ele>798.5999755859375</ele>
        <time>2019-10-29T08:33:34.000Z</time>
      </trkpt>
      <trkpt lat="37.4185875244438648223876953125" lon="-3.16101157106459140777587890625">
        <ele>798</ele>
        <time>2019-10-29T08:33:39.000Z</time>
      </trkpt>
      <trkpt lat="37.41843153722584247589111328125" lon="-3.1611310131847858428955078125">
        <ele>795.5999755859375</ele>
        <time>2019-10-29T08:33:44.000Z</time>
      </trkpt>
      <trkpt lat="37.41827496327459812164306640625" lon="-3.16126788966357707977294921875">
        <ele>793.20001220703125</ele>
        <time>2019-10-29T08:33:49.000Z</time>
      </trkpt>
      <trkpt lat="37.41816767491400241851806640625" lon="-3.161460421979427337646484375">
        <ele>790.20001220703125</ele>
        <time>2019-10-29T08:33:54.000Z</time>
      </trkpt>
      <trkpt lat="37.41815728135406970977783203125" lon="-3.161736018955707550048828125">
        <ele>787.20001220703125</ele>
        <time>2019-10-29T08:33:59.000Z</time>
      </trkpt>
      <trkpt lat="37.418111264705657958984375" lon="-3.1620161421597003936767578125">
        <ele>785</ele>
        <time>2019-10-29T08:34:04.000Z</time>
      </trkpt>
      <trkpt lat="37.41806365549564361572265625" lon="-3.16227170638740062713623046875">
        <ele>782.4000244140625</ele>
        <time>2019-10-29T08:34:08.000Z</time>
      </trkpt>
      <trkpt lat="37.4180427007377147674560546875" lon="-3.16238821484148502349853515625">
        <ele>781.20001220703125</ele>
        <time>2019-10-29T08:34:10.000Z</time>
      </trkpt>
      <trkpt lat="37.4179220013320446014404296875" lon="-3.1625700183212757110595703125">
        <ele>779.79998779296875</ele>
        <time>2019-10-29T08:34:14.000Z</time>
      </trkpt>
      <trkpt lat="37.4176920019090175628662109375" lon="-3.1626323796808719635009765625">
        <ele>779.5999755859375</ele>
        <time>2019-10-29T08:34:18.000Z</time>
      </trkpt>
      <trkpt lat="37.417481951415538787841796875" lon="-3.1625653244554996490478515625">
        <ele>781.20001220703125</ele>
        <time>2019-10-29T08:34:21.000Z</time>
      </trkpt>
      <trkpt lat="37.4174137227237224578857421875" lon="-3.162527270615100860595703125">
        <ele>782</ele>
        <time>2019-10-29T08:34:22.000Z</time>
      </trkpt>
      <trkpt lat="37.41724013350903987884521484375" lon="-3.1624147854745388031005859375">
        <ele>782.20001220703125</ele>
        <time>2019-10-29T08:34:25.000Z</time>
      </trkpt>
      <trkpt lat="37.41712060756981372833251953125" lon="-3.16221236251294612884521484375">
        <ele>782.5999755859375</ele>
        <time>2019-10-29T08:34:30.000Z</time>
      </trkpt>
      <trkpt lat="37.41702756844460964202880859375" lon="-3.162002228200435638427734375">
        <ele>781.4000244140625</ele>
        <time>2019-10-29T08:34:37.000Z</time>
      </trkpt>
      <trkpt lat="37.416970990598201751708984375" lon="-3.16188798286020755767822265625">
        <ele>780.4000244140625</ele>
        <time>2019-10-29T08:34:41.000Z</time>
      </trkpt>
      <trkpt lat="37.41691776551306247711181640625" lon="-3.16178102977573871612548828125">
        <ele>780</ele>
        <time>2019-10-29T08:34:45.000Z</time>
      </trkpt>
      <trkpt lat="37.41679002530872821807861328125" lon="-3.161600567400455474853515625">
        <ele>781</ele>
        <time>2019-10-29T08:34:54.000Z</time>
      </trkpt>
      <trkpt lat="37.41664518602192401885986328125" lon="-3.161441646516323089599609375">
        <ele>783</ele>
        <time>2019-10-29T08:35:03.000Z</time>
      </trkpt>
      <trkpt lat="37.41646866314113140106201171875" lon="-3.16135137341916561126708984375">
        <ele>785.79998779296875</ele>
        <time>2019-10-29T08:35:12.000Z</time>
      </trkpt>
      <trkpt lat="37.416281662881374359130859375" lon="-3.1612869165837764739990234375">
        <ele>788</ele>
        <time>2019-10-29T08:35:21.000Z</time>
      </trkpt>
      <trkpt lat="37.41610832512378692626953125" lon="-3.1612027622759342193603515625">
        <ele>790.20001220703125</ele>
        <time>2019-10-29T08:35:30.000Z</time>
      </trkpt>
      <trkpt lat="37.4159453809261322021484375" lon="-3.16126721911132335662841796875">
        <ele>790.5999755859375</ele>
        <time>2019-10-29T08:35:39.000Z</time>
      </trkpt>
      <trkpt lat="37.4158407747745513916015625" lon="-3.16152571700513362884521484375">
        <ele>789.20001220703125</ele>
        <time>2019-10-29T08:35:44.000Z</time>
      </trkpt>
      <trkpt lat="37.4157655052840709686279296875" lon="-3.16179125569760799407958984375">
        <ele>788.20001220703125</ele>
        <time>2019-10-29T08:35:48.000Z</time>
      </trkpt>
      <trkpt lat="37.4156954325735569000244140625" lon="-3.16207758150994777679443359375">
        <ele>786.4000244140625</ele>
        <time>2019-10-29T08:35:52.000Z</time>
      </trkpt>
      <trkpt lat="37.41565494798123836517333984375" lon="-3.16230875439941883087158203125">
        <ele>785.20001220703125</ele>
        <time>2019-10-29T08:35:55.000Z</time>
      </trkpt>
      <trkpt lat="37.41566240787506103515625" lon="-3.16259122453629970550537109375">
        <ele>784.5999755859375</ele>
        <time>2019-10-29T08:35:59.000Z</time>
      </trkpt>
      <trkpt lat="37.41572032682597637176513671875" lon="-3.16284134052693843841552734375">
        <ele>783.20001220703125</ele>
        <time>2019-10-29T08:36:03.000Z</time>
      </trkpt>
      <trkpt lat="37.41575670428574085235595703125" lon="-3.16299523226916790008544921875">
        <ele>781.5999755859375</ele>
        <time>2019-10-29T08:36:06.000Z</time>
      </trkpt>
      <trkpt lat="37.41583951748907566070556640625" lon="-3.16324518062174320220947265625">
        <ele>778.20001220703125</ele>
        <time>2019-10-29T08:36:11.000Z</time>
      </trkpt>
      <trkpt lat="37.415858544409275054931640625" lon="-3.1633451767265796661376953125">
        <ele>777.4000244140625</ele>
        <time>2019-10-29T08:36:13.000Z</time>
      </trkpt>
      <trkpt lat="37.4158675968647003173828125" lon="-3.1636184267699718475341796875">
        <ele>774.79998779296875</ele>
        <time>2019-10-29T08:36:19.000Z</time>
      </trkpt>
      <trkpt lat="37.41586416028439998626708984375" lon="-3.16372948698699474334716796875">
        <ele>774</ele>
        <time>2019-10-29T08:36:21.000Z</time>
      </trkpt>
      <trkpt lat="37.41585628129541873931884765625" lon="-3.1638356857001781463623046875">
        <ele>773.4000244140625</ele>
        <time>2019-10-29T08:36:23.000Z</time>
      </trkpt>
      <trkpt lat="37.41587220691144466400146484375" lon="-3.16409778781235218048095703125">
        <ele>772.79998779296875</ele>
        <time>2019-10-29T08:36:27.000Z</time>
      </trkpt>
      <trkpt lat="37.41589383222162723541259765625" lon="-3.1643707863986492156982421875">
        <ele>771.4000244140625</ele>
        <time>2019-10-29T08:36:31.000Z</time>
      </trkpt>
      <trkpt lat="37.41591042838990688323974609375" lon="-3.16461847163736820220947265625">
        <ele>769.79998779296875</ele>
        <time>2019-10-29T08:36:35.000Z</time>
      </trkpt>
      <trkpt lat="37.41593540646135807037353515625" lon="-3.16481829620897769927978515625">
        <ele>770</ele>
        <time>2019-10-29T08:36:39.000Z</time>
      </trkpt>
      <trkpt lat="37.41597999818623065948486328125" lon="-3.1650617904961109161376953125">
        <ele>769.79998779296875</ele>
        <time>2019-10-29T08:36:45.000Z</time>
      </trkpt>
      <trkpt lat="37.41603246890008449554443359375" lon="-3.1653243117034435272216796875">
        <ele>770.5999755859375</ele>
        <time>2019-10-29T08:36:51.000Z</time>
      </trkpt>
      <trkpt lat="37.41603867150843143463134765625" lon="-3.16541609354317188262939453125">
        <ele>770.5999755859375</ele>
        <time>2019-10-29T08:36:53.000Z</time>
      </trkpt>
      <trkpt lat="37.41608309559524059295654296875" lon="-3.16563737578690052032470703125">
        <ele>771.5999755859375</ele>
        <time>2019-10-29T08:36:58.000Z</time>
      </trkpt>
      <trkpt lat="37.41610958240926265716552734375" lon="-3.16570275463163852691650390625">
        <ele>772</ele>
        <time>2019-10-29T08:37:00.000Z</time>
      </trkpt>
      <trkpt lat="37.4161953292787075042724609375" lon="-3.16592688672244548797607421875">
        <ele>772.20001220703125</ele>
        <time>2019-10-29T08:37:07.000Z</time>
      </trkpt>
      <trkpt lat="37.41618703119456768035888671875" lon="-3.1659868173301219940185546875">
        <ele>772</ele>
        <time>2019-10-29T08:37:10.000Z</time>
      </trkpt>
      <trkpt lat="37.41618770174682140350341796875" lon="-3.1660019047558307647705078125">
        <ele>772</ele>
        <time>2019-10-29T08:37:15.000Z</time>
      </trkpt>
      <trkpt lat="37.4161628074944019317626953125" lon="-3.16616593860089778900146484375">
        <ele>772.79998779296875</ele>
        <time>2019-10-29T08:42:31.000Z</time>
      </trkpt>
      <trkpt lat="37.41596482694149017333984375" lon="-3.1661866419017314910888671875">
        <ele>774.4000244140625</ele>
        <time>2019-10-29T08:42:39.000Z</time>
      </trkpt>
      <trkpt lat="37.41576458327472209930419921875" lon="-3.16618840210139751434326171875">
        <ele>774.5999755859375</ele>
        <time>2019-10-29T08:42:46.000Z</time>
      </trkpt>
      <trkpt lat="37.4155720509588718414306640625" lon="-3.16617515869438648223876953125">
        <ele>773.5999755859375</ele>
        <time>2019-10-29T08:42:54.000Z</time>
      </trkpt>
      <trkpt lat="37.41539024747908115386962890625" lon="-3.16617272794246673583984375">
        <ele>773</ele>
        <time>2019-10-29T08:43:03.000Z</time>
      </trkpt>
      <trkpt lat="37.415200062096118927001953125" lon="-3.166189491748809814453125">
        <ele>772.5999755859375</ele>
        <time>2019-10-29T08:43:11.000Z</time>
      </trkpt>
      <trkpt lat="37.4150067754089832305908203125" lon="-3.16627372987568378448486328125">
        <ele>773</ele>
        <time>2019-10-29T08:43:19.000Z</time>
      </trkpt>
      <trkpt lat="37.41481793113052845001220703125" lon="-3.16635780036449432373046875">
        <ele>773.4000244140625</ele>
        <time>2019-10-29T08:43:27.000Z</time>
      </trkpt>
      <trkpt lat="37.41463755257427692413330078125" lon="-3.16646181978285312652587890625">
        <ele>774.4000244140625</ele>
        <time>2019-10-29T08:43:34.000Z</time>
      </trkpt>
      <trkpt lat="37.41446455009281635284423828125" lon="-3.1665681861340999603271484375">
        <ele>775.79998779296875</ele>
        <time>2019-10-29T08:43:40.000Z</time>
      </trkpt>
      <trkpt lat="37.4142802320420742034912109375" lon="-3.16667430102825164794921875">
        <ele>776.20001220703125</ele>
        <time>2019-10-29T08:43:47.000Z</time>
      </trkpt>
      <trkpt lat="37.41410077549517154693603515625" lon="-3.166755102574825286865234375">
        <ele>775.5999755859375</ele>
        <time>2019-10-29T08:43:53.000Z</time>
      </trkpt>
      <trkpt lat="37.41390631534159183502197265625" lon="-3.16679298877716064453125">
        <ele>772.4000244140625</ele>
        <time>2019-10-29T08:43:59.000Z</time>
      </trkpt>
      <trkpt lat="37.41369944997131824493408203125" lon="-3.166823498904705047607421875">
        <ele>772</ele>
        <time>2019-10-29T08:44:05.000Z</time>
      </trkpt>
      <trkpt lat="37.4135161377489566802978515625" lon="-3.16686163656413555145263671875">
        <ele>772.4000244140625</ele>
        <time>2019-10-29T08:44:11.000Z</time>
      </trkpt>
      <trkpt lat="37.41330818273127079010009765625" lon="-3.166902624070644378662109375">
        <ele>773.5999755859375</ele>
        <time>2019-10-29T08:44:17.000Z</time>
      </trkpt>
      <trkpt lat="37.4131231941282749176025390625" lon="-3.166959285736083984375">
        <ele>775.4000244140625</ele>
        <time>2019-10-29T08:44:22.000Z</time>
      </trkpt>
      <trkpt lat="37.41293585859239101409912109375" lon="-3.1669901311397552490234375">
        <ele>776.79998779296875</ele>
        <time>2019-10-29T08:44:27.000Z</time>
      </trkpt>
      <trkpt lat="37.412757240235805511474609375" lon="-3.16702122800052165985107421875">
        <ele>777.4000244140625</ele>
        <time>2019-10-29T08:44:32.000Z</time>
      </trkpt>
      <trkpt lat="37.41256470791995525360107421875" lon="-3.167108483612537384033203125">
        <ele>778</ele>
        <time>2019-10-29T08:44:38.000Z</time>
      </trkpt>
      <trkpt lat="37.412517182528972625732421875" lon="-3.16734124906361103057861328125">
        <ele>780.4000244140625</ele>
        <time>2019-10-29T08:44:44.000Z</time>
      </trkpt>
      <trkpt lat="37.4125711619853973388671875" lon="-3.167572505772113800048828125">
        <ele>780.79998779296875</ele>
        <time>2019-10-29T08:44:50.000Z</time>
      </trkpt>
      <trkpt lat="37.41263209842145442962646484375" lon="-3.16779286600649356842041015625">
        <ele>781</ele>
        <time>2019-10-29T08:44:55.000Z</time>
      </trkpt>
      <trkpt lat="37.4127037636935710906982421875" lon="-3.16802705638110637664794921875">
        <ele>779.79998779296875</ele>
        <time>2019-10-29T08:45:01.000Z</time>
      </trkpt>
      <trkpt lat="37.41276872344315052032470703125" lon="-3.16828496754169464111328125">
        <ele>777.4000244140625</ele>
        <time>2019-10-29T08:45:07.000Z</time>
      </trkpt>
      <trkpt lat="37.41282471455633640289306640625" lon="-3.16853332333266735076904296875">
        <ele>775.5999755859375</ele>
        <time>2019-10-29T08:45:13.000Z</time>
      </trkpt>
      <trkpt lat="37.41287467069923877716064453125" lon="-3.16878025420010089874267578125">
        <ele>778.20001220703125</ele>
        <time>2019-10-29T08:45:19.000Z</time>
      </trkpt>
      <trkpt lat="37.41293929517269134521484375" lon="-3.169008828699588775634765625">
        <ele>781</ele>
        <time>2019-10-29T08:45:26.000Z</time>
      </trkpt>
      <trkpt lat="37.41293258965015411376953125" lon="-3.16924427635967731475830078125">
        <ele>781.5999755859375</ele>
        <time>2019-10-29T08:45:32.000Z</time>
      </trkpt>
      <trkpt lat="37.412872575223445892333984375" lon="-3.16945985890924930572509765625">
        <ele>780.4000244140625</ele>
        <time>2019-10-29T08:45:37.000Z</time>
      </trkpt>
      <trkpt lat="37.4128429032862186431884765625" lon="-3.16968382336199283599853515625">
        <ele>778</ele>
        <time>2019-10-29T08:45:42.000Z</time>
      </trkpt>
      <trkpt lat="37.41286494769155979156494140625" lon="-3.1699346937239170074462890625">
        <ele>775.20001220703125</ele>
        <time>2019-10-29T08:45:48.000Z</time>
      </trkpt>
      <trkpt lat="37.41290233097970485687255859375" lon="-3.1701931916177272796630859375">
        <ele>772</ele>
        <time>2019-10-29T08:45:54.000Z</time>
      </trkpt>
      <trkpt lat="37.4129253812134265899658203125" lon="-3.17043350078165531158447265625">
        <ele>771</ele>
        <time>2019-10-29T08:45:59.000Z</time>
      </trkpt>
      <trkpt lat="37.41294977255165576934814453125" lon="-3.17068562842905521392822265625">
        <ele>771</ele>
        <time>2019-10-29T08:46:05.000Z</time>
      </trkpt>
      <trkpt lat="37.41296251304447650909423828125" lon="-3.1709150411188602447509765625">
        <ele>773.20001220703125</ele>
        <time>2019-10-29T08:46:10.000Z</time>
      </trkpt>
      <trkpt lat="37.4129833839833736419677734375" lon="-3.17118116654455661773681640625">
        <ele>775.79998779296875</ele>
        <time>2019-10-29T08:46:16.000Z</time>
      </trkpt>
      <trkpt lat="37.41302118636667728424072265625" lon="-3.17143312655389308929443359375">
        <ele>778.4000244140625</ele>
        <time>2019-10-29T08:46:22.000Z</time>
      </trkpt>
      <trkpt lat="37.41305471397936344146728515625" lon="-3.17168592475354671478271484375">
        <ele>780</ele>
        <time>2019-10-29T08:46:28.000Z</time>
      </trkpt>
      <trkpt lat="37.4131587333977222442626953125" lon="-3.17188507877290248870849609375">
        <ele>780.4000244140625</ele>
        <time>2019-10-29T08:46:34.000Z</time>
      </trkpt>
      <trkpt lat="37.413266189396381378173828125" lon="-3.17208859138190746307373046875">
        <ele>780</ele>
        <time>2019-10-29T08:46:40.000Z</time>
      </trkpt>
      <trkpt lat="37.41336283273994922637939453125" lon="-3.17229025997221469879150390625">
        <ele>780.4000244140625</ele>
        <time>2019-10-29T08:46:47.000Z</time>
      </trkpt>
      <trkpt lat="37.41326509974896907806396484375" lon="-3.17248530685901641845703125">
        <ele>781.20001220703125</ele>
        <time>2019-10-29T08:46:56.000Z</time>
      </trkpt>
      <trkpt lat="37.41309528239071369171142578125" lon="-3.1726125441491603851318359375">
        <ele>781</ele>
        <time>2019-10-29T08:47:02.000Z</time>
      </trkpt>
      <trkpt lat="37.4129196815192699432373046875" lon="-3.1727312318980693817138671875">
        <ele>780.4000244140625</ele>
        <time>2019-10-29T08:47:08.000Z</time>
      </trkpt>
      <trkpt lat="37.41273888386785984039306640625" lon="-3.17283323965966701507568359375">
        <ele>779.5999755859375</ele>
        <time>2019-10-29T08:47:15.000Z</time>
      </trkpt>
      <trkpt lat="37.41257325746119022369384765625" lon="-3.17294388078153133392333984375">
        <ele>780.5999755859375</ele>
        <time>2019-10-29T08:47:22.000Z</time>
      </trkpt>
      <trkpt lat="37.41239405237138271331787109375" lon="-3.1730671785771846771240234375">
        <ele>782.4000244140625</ele>
        <time>2019-10-29T08:47:30.000Z</time>
      </trkpt>
      <trkpt lat="37.41220914758741855621337890625" lon="-3.173170275986194610595703125">
        <ele>784.4000244140625</ele>
        <time>2019-10-29T08:47:38.000Z</time>
      </trkpt>
      <trkpt lat="37.4120402522385120391845703125" lon="-3.1732841022312641143798828125">
        <ele>786</ele>
        <time>2019-10-29T08:47:46.000Z</time>
      </trkpt>
      <trkpt lat="37.41187487728893756866455078125" lon="-3.17338091321289539337158203125">
        <ele>787.4000244140625</ele>
        <time>2019-10-29T08:47:55.000Z</time>
      </trkpt>
      <trkpt lat="37.4117247574031352996826171875" lon="-3.17341963760554790496826171875">
        <ele>787.79998779296875</ele>
        <time>2019-10-29T08:48:07.000Z</time>
      </trkpt>
      <trkpt lat="37.41166750900447368621826171875" lon="-3.1734356470406055450439453125">
        <ele>787.79998779296875</ele>
        <time>2019-10-29T08:48:13.000Z</time>
      </trkpt>
      <trkpt lat="37.4116577021777629852294921875" lon="-3.1734792329370975494384765625">
        <ele>788.4000244140625</ele>
        <time>2019-10-29T08:48:17.000Z</time>
      </trkpt>
      <trkpt lat="37.4116617254912853240966796875" lon="-3.17349624820053577423095703125">
        <ele>788.79998779296875</ele>
        <time>2019-10-29T08:48:22.000Z</time>
      </trkpt>
      <trkpt lat="37.4116459675133228302001953125" lon="-3.1738359667360782623291015625">
        <ele>793.20001220703125</ele>
        <time>2019-10-29T09:31:36.000Z</time>
      </trkpt>
      <trkpt lat="37.41175375878810882568359375" lon="-3.173777125775814056396484375">
        <ele>792.4000244140625</ele>
        <time>2019-10-29T09:31:42.000Z</time>
      </trkpt>
      <trkpt lat="37.411744706332683563232421875" lon="-3.1738190352916717529296875">
        <ele>792.79998779296875</ele>
        <time>2019-10-29T09:31:43.000Z</time>
      </trkpt>
      <trkpt lat="37.411735318601131439208984375" lon="-3.17384610883891582489013671875">
        <ele>793</ele>
        <time>2019-10-29T09:31:44.000Z</time>
      </trkpt>
      <trkpt lat="37.411597184836864471435546875" lon="-3.17328720353543758392333984375">
        <ele>785.4000244140625</ele>
        <time>2019-10-29T09:31:45.000Z</time>
      </trkpt>
      <trkpt lat="37.41174244321882724761962890625" lon="-3.1737172789871692657470703125">
        <ele>791.79998779296875</ele>
        <time>2019-10-29T09:31:56.000Z</time>
      </trkpt>
      <trkpt lat="37.4117059819400310516357421875" lon="-3.173576630651950836181640625">
        <ele>789.79998779296875</ele>
        <time>2019-10-29T09:32:04.000Z</time>
      </trkpt>
      <trkpt lat="37.41168075241148471832275390625" lon="-3.1735154427587985992431640625">
        <ele>789</ele>
        <time>2019-10-29T09:32:08.000Z</time>
      </trkpt>
      <trkpt lat="37.411656863987445831298828125" lon="-3.1734299473464488983154296875">
        <ele>787.79998779296875</ele>
        <time>2019-10-29T09:32:17.000Z</time>
      </trkpt>
      <trkpt lat="37.41185023449361324310302734375" lon="-3.17329290322959423065185546875">
        <ele>786.4000244140625</ele>
        <time>2019-10-29T09:33:59.000Z</time>
      </trkpt>
      <trkpt lat="37.41202759556472301483154296875" lon="-3.1731731258332729339599609375">
        <ele>785.20001220703125</ele>
        <time>2019-10-29T09:34:04.000Z</time>
      </trkpt>
      <trkpt lat="37.412200011312961578369140625" lon="-3.17304664291441440582275390625">
        <ele>783.5999755859375</ele>
        <time>2019-10-29T09:34:08.000Z</time>
      </trkpt>
      <trkpt lat="37.41236002184450626373291015625" lon="-3.1729070842266082763671875">
        <ele>781.4000244140625</ele>
        <time>2019-10-29T09:34:13.000Z</time>
      </trkpt>
      <trkpt lat="37.4123906157910823822021484375" lon="-3.1728874705731868743896484375">
        <ele>781</ele>
        <time>2019-10-29T09:34:16.000Z</time>
      </trkpt>
      <trkpt lat="37.4124000035226345062255859375" lon="-3.17290113307535648345947265625">
        <ele>781</ele>
        <time>2019-10-29T09:34:20.000Z</time>
      </trkpt>
      <trkpt lat="37.41246881894767284393310546875" lon="-3.1729176454246044158935546875">
        <ele>780.79998779296875</ele>
        <time>2019-10-29T09:34:36.000Z</time>
      </trkpt>
      <trkpt lat="37.4124777875840663909912109375" lon="-3.17292024381458759307861328125">
        <ele>780.5999755859375</ele>
        <time>2019-10-29T09:34:40.000Z</time>
      </trkpt>
      <trkpt lat="37.412478290498256683349609375" lon="-3.1729213334619998931884765625">
        <ele>780.5999755859375</ele>
        <time>2019-10-29T09:34:41.000Z</time>
      </trkpt>
      <trkpt lat="37.4124784581363201141357421875" lon="-3.1729213334619998931884765625">
        <ele>780.5999755859375</ele>
        <time>2019-10-29T09:34:42.000Z</time>
      </trkpt>
      <trkpt lat="37.41258214227855205535888671875" lon="-3.1728485785424709320068359375">
        <ele>780.20001220703125</ele>
        <time>2019-10-29T09:34:49.000Z</time>
      </trkpt>
      <trkpt lat="37.41278263740241527557373046875" lon="-3.172735758125782012939453125">
        <ele>779.4000244140625</ele>
        <time>2019-10-29T09:34:54.000Z</time>
      </trkpt>
      <trkpt lat="37.41299218498170375823974609375" lon="-3.1726155616343021392822265625">
        <ele>780.4000244140625</ele>
        <time>2019-10-29T09:34:58.000Z</time>
      </trkpt>
      <trkpt lat="37.4131882376968860626220703125" lon="-3.1724982149899005889892578125">
        <ele>780.79998779296875</ele>
        <time>2019-10-29T09:35:02.000Z</time>
      </trkpt>
      <trkpt lat="37.4133230186998844146728515625" lon="-3.1724237836897373199462890625">
        <ele>781</ele>
        <time>2019-10-29T09:35:05.000Z</time>
      </trkpt>
      <trkpt lat="37.41349878720939159393310546875" lon="-3.172452114522457122802734375">
        <ele>780.4000244140625</ele>
        <time>2019-10-29T09:35:09.000Z</time>
      </trkpt>
      <trkpt lat="37.41357497870922088623046875" lon="-3.1725746579468250274658203125">
        <ele>781.20001220703125</ele>
        <time>2019-10-29T09:35:12.000Z</time>
      </trkpt>
      <trkpt lat="37.41359283216297626495361328125" lon="-3.1726132147014141082763671875">
        <ele>781.4000244140625</ele>
        <time>2019-10-29T09:35:13.000Z</time>
      </trkpt>
      <trkpt lat="37.4136361666023731231689453125" lon="-3.17273072898387908935546875">
        <ele>782.20001220703125</ele>
        <time>2019-10-29T09:35:17.000Z</time>
      </trkpt>
      <trkpt lat="37.41370883770287036895751953125" lon="-3.17285855300724506378173828125">
        <ele>783</ele>
        <time>2019-10-29T09:35:23.000Z</time>
      </trkpt>
      <trkpt lat="37.4137297086417675018310546875" lon="-3.172901384532451629638671875">
        <ele>783.5999755859375</ele>
        <time>2019-10-29T09:35:25.000Z</time>
      </trkpt>
      <trkpt lat="37.41391251794993877410888671875" lon="-3.17300389520823955535888671875">
        <ele>784.5999755859375</ele>
        <time>2019-10-29T09:35:34.000Z</time>
      </trkpt>
      <trkpt lat="37.41410161368548870086669921875" lon="-3.17303381860256195068359375">
        <ele>785</ele>
        <time>2019-10-29T09:35:41.000Z</time>
      </trkpt>
      <trkpt lat="37.414195574820041656494140625" lon="-3.17315594293177127838134765625">
        <ele>786.79998779296875</ele>
        <time>2019-10-29T09:35:50.000Z</time>
      </trkpt>
      <trkpt lat="37.41419096477329730987548828125" lon="-3.1731493212282657623291015625">
        <ele>786.5999755859375</ele>
        <time>2019-10-29T09:35:53.000Z</time>
      </trkpt>
      <trkpt lat="37.4142044596374034881591796875" lon="-3.17326071672141551971435546875">
        <ele>788.20001220703125</ele>
        <time>2019-10-29T09:36:21.000Z</time>
      </trkpt>
      <trkpt lat="37.4142582714557647705078125" lon="-3.1734695099294185638427734375">
        <ele>789.5999755859375</ele>
        <time>2019-10-29T09:36:31.000Z</time>
      </trkpt>
      <trkpt lat="37.41438844241201877593994140625" lon="-3.17364863120019435882568359375">
        <ele>791</ele>
        <time>2019-10-29T09:36:41.000Z</time>
      </trkpt>
      <trkpt lat="37.414549626410007476806640625" lon="-3.17380486987531185150146484375">
        <ele>792</ele>
        <time>2019-10-29T09:36:51.000Z</time>
      </trkpt>
      <trkpt lat="37.4146027676761150360107421875" lon="-3.1739075481891632080078125">
        <ele>792.79998779296875</ele>
        <time>2019-10-29T09:36:55.000Z</time>
      </trkpt>
      <trkpt lat="37.4146222136914730072021484375" lon="-3.17404157482087612152099609375">
        <ele>793.79998779296875</ele>
        <time>2019-10-29T09:37:01.000Z</time>
      </trkpt>
      <trkpt lat="37.41471349261701107025146484375" lon="-3.17426361143589019775390625">
        <ele>795.4000244140625</ele>
        <time>2019-10-29T09:37:11.000Z</time>
      </trkpt>
      <trkpt lat="37.414782308042049407958984375" lon="-3.174482882022857666015625">
        <ele>797.4000244140625</ele>
        <time>2019-10-29T09:37:20.000Z</time>
      </trkpt>
      <trkpt lat="37.41479001939296722412109375" lon="-3.17451749928295612335205078125">
        <ele>797.79998779296875</ele>
        <time>2019-10-29T09:37:23.000Z</time>
      </trkpt>
      <trkpt lat="37.4147905223071575164794921875" lon="-3.17452051676809787750244140625">
        <ele>797.79998779296875</ele>
        <time>2019-10-29T09:37:26.000Z</time>
      </trkpt>
      <trkpt lat="37.4147938750684261322021484375" lon="-3.1750416196882724761962890625">
        <ele>801.20001220703125</ele>
        <time>2019-10-29T09:39:21.000Z</time>
      </trkpt>
      <trkpt lat="37.414777614176273345947265625" lon="-3.175008930265903472900390625">
        <ele>801</ele>
        <time>2019-10-29T09:39:25.000Z</time>
      </trkpt>
      <trkpt lat="37.41472288034856319427490234375" lon="-3.17494648508727550506591796875">
        <ele>801</ele>
        <time>2019-10-29T09:39:36.000Z</time>
      </trkpt>
      <trkpt lat="37.41466638632118701934814453125" lon="-3.17473023198544979095458984375">
        <ele>799.4000244140625</ele>
        <time>2019-10-29T09:39:49.000Z</time>
      </trkpt>
      <trkpt lat="37.4146651290357112884521484375" lon="-3.17470894195139408111572265625">
        <ele>799.4000244140625</ele>
        <time>2019-10-29T09:39:51.000Z</time>
      </trkpt>
      <trkpt lat="37.41466521285474300384521484375" lon="-3.17470550537109375">
        <ele>799.20001220703125</ele>
        <time>2019-10-29T09:39:55.000Z</time>
      </trkpt>
      <trkpt lat="37.4146027676761150360107421875" lon="-3.17467357032001018524169921875">
        <ele>799</ele>
        <time>2019-10-29T09:40:08.000Z</time>
      </trkpt>
      <trkpt lat="37.41456362418830394744873046875" lon="-3.17468396387994289398193359375">
        <ele>799</ele>
        <time>2019-10-29T09:40:16.000Z</time>
      </trkpt>
      <trkpt lat="37.4145050346851348876953125" lon="-3.17458639852702617645263671875">
        <ele>798.5999755859375</ele>
        <time>2019-10-29T09:40:28.000Z</time>
      </trkpt>
      <trkpt lat="37.41465012542903423309326171875" lon="-3.17448916845023632049560546875">
        <ele>797.4000244140625</ele>
        <time>2019-10-29T09:40:38.000Z</time>
      </trkpt>
      <trkpt lat="37.41463788785040378570556640625" lon="-3.1742906011641025543212890625">
        <ele>795.79998779296875</ele>
        <time>2019-10-29T09:40:45.000Z</time>
      </trkpt>
      <trkpt lat="37.41453696973621845245361328125" lon="-3.1740549020469188690185546875">
        <ele>793.79998779296875</ele>
        <time>2019-10-29T09:40:50.000Z</time>
      </trkpt>
      <trkpt lat="37.4144200421869754791259765625" lon="-3.17386220209300518035888671875">
        <ele>792.4000244140625</ele>
        <time>2019-10-29T09:40:55.000Z</time>
      </trkpt>
      <trkpt lat="37.41427008993923664093017578125" lon="-3.17367444746196269989013671875">
        <ele>791.20001220703125</ele>
        <time>2019-10-29T09:41:00.000Z</time>
      </trkpt>
      <trkpt lat="37.41410630755126476287841796875" lon="-3.1735533289611339569091796875">
        <ele>790.20001220703125</ele>
        <time>2019-10-29T09:41:04.000Z</time>
      </trkpt>
      <trkpt lat="37.4139281921088695526123046875" lon="-3.17350898869335651397705078125">
        <ele>790</ele>
        <time>2019-10-29T09:41:10.000Z</time>
      </trkpt>
      <trkpt lat="37.41374689154326915740966796875" lon="-3.17346439696848392486572265625">
        <ele>789.20001220703125</ele>
        <time>2019-10-29T09:41:18.000Z</time>
      </trkpt>
      <trkpt lat="37.41381461732089519500732421875" lon="-3.17325099371373653411865234375">
        <ele>788</ele>
        <time>2019-10-29T09:41:27.000Z</time>
      </trkpt>
      <trkpt lat="37.413852922618389129638671875" lon="-3.173197098076343536376953125">
        <ele>787.4000244140625</ele>
        <time>2019-10-29T09:41:30.000Z</time>
      </trkpt>
      <trkpt lat="37.41405584849417209625244140625" lon="-3.1731892190873622894287109375">
        <ele>787.20001220703125</ele>
        <time>2019-10-29T09:41:35.000Z</time>
      </trkpt>
      <trkpt lat="37.41426237858831882476806640625" lon="-3.1731699407100677490234375">
        <ele>787</ele>
        <time>2019-10-29T09:41:40.000Z</time>
      </trkpt>
      <trkpt lat="37.4143657274544239044189453125" lon="-3.17311428487300872802734375">
        <ele>786.20001220703125</ele>
        <time>2019-10-29T09:41:44.000Z</time>
      </trkpt>
      <trkpt lat="37.41450595669448375701904296875" lon="-3.173078410327434539794921875">
        <ele>786</ele>
        <time>2019-10-29T09:41:48.000Z</time>
      </trkpt>
      <trkpt lat="37.414703853428363800048828125" lon="-3.1730205751955509185791015625">
        <ele>785.5999755859375</ele>
        <time>2019-10-29T09:41:53.000Z</time>
      </trkpt>
      <trkpt lat="37.41490946151316165924072265625" lon="-3.1730061583220958709716796875">
        <ele>784.5999755859375</ele>
        <time>2019-10-29T09:41:59.000Z</time>
      </trkpt>
      <trkpt lat="37.41510459221899509429931640625" lon="-3.17302845418453216552734375">
        <ele>784</ele>
        <time>2019-10-29T09:42:07.000Z</time>
      </trkpt>
      <trkpt lat="37.4153150618076324462890625" lon="-3.1730591319501399993896484375">
        <ele>783</ele>
        <time>2019-10-29T09:42:14.000Z</time>
      </trkpt>
      <trkpt lat="37.415450513362884521484375" lon="-3.1732093356549739837646484375">
        <ele>783</ele>
        <time>2019-10-29T09:42:19.000Z</time>
      </trkpt>
      <trkpt lat="37.41557749919593334197998046875" lon="-3.1734239123761653900146484375">
        <ele>782.5999755859375</ele>
        <time>2019-10-29T09:42:26.000Z</time>
      </trkpt>
      <trkpt lat="37.4157028086483478546142578125" lon="-3.17359012551605701446533203125">
        <ele>781</ele>
        <time>2019-10-29T09:42:30.000Z</time>
      </trkpt>
      <trkpt lat="37.41571965627372264862060546875" lon="-3.17363463342189788818359375">
        <ele>780.5999755859375</ele>
        <time>2019-10-29T09:42:31.000Z</time>
      </trkpt>
      <trkpt lat="37.41569467820227146148681640625" lon="-3.17380906082689762115478515625">
        <ele>781.20001220703125</ele>
        <time>2019-10-29T09:42:35.000Z</time>
      </trkpt>
      <trkpt lat="37.41564832627773284912109375" lon="-3.17405330948531627655029296875">
        <ele>782.4000244140625</ele>
        <time>2019-10-29T09:42:41.000Z</time>
      </trkpt>
      <trkpt lat="37.41564472205936908721923828125" lon="-3.17429822869598865509033203125">
        <ele>782.5999755859375</ele>
        <time>2019-10-29T09:42:48.000Z</time>
      </trkpt>
      <trkpt lat="37.4156315624713897705078125" lon="-3.17452353425323963165283203125">
        <ele>782.20001220703125</ele>
        <time>2019-10-29T09:42:53.000Z</time>
      </trkpt>
      <trkpt lat="37.4156250245869159698486328125" lon="-3.17476241849362850189208984375">
        <ele>781.4000244140625</ele>
        <time>2019-10-29T09:42:59.000Z</time>
      </trkpt>
      <trkpt lat="37.4156806804239749908447265625" lon="-3.1749836169183254241943359375">
        <ele>780.20001220703125</ele>
        <time>2019-10-29T09:43:06.000Z</time>
      </trkpt>
      <trkpt lat="37.4156396090984344482421875" lon="-3.1752245128154754638671875">
        <ele>780.5999755859375</ele>
        <time>2019-10-29T09:43:14.000Z</time>
      </trkpt>
      <trkpt lat="37.41563684307038784027099609375" lon="-3.1754766404628753662109375">
        <ele>781</ele>
        <time>2019-10-29T09:43:21.000Z</time>
      </trkpt>
      <trkpt lat="37.41565293632447719573974609375" lon="-3.1757245771586894989013671875">
        <ele>781.5999755859375</ele>
        <time>2019-10-29T09:43:29.000Z</time>
      </trkpt>
      <trkpt lat="37.4156156368553638458251953125" lon="-3.17595482803881168365478515625">
        <ele>781.5999755859375</ele>
        <time>2019-10-29T09:43:36.000Z</time>
      </trkpt>
      <trkpt lat="37.41558353416621685028076171875" lon="-3.17620092071592807769775390625">
        <ele>783.79998779296875</ele>
        <time>2019-10-29T09:43:44.000Z</time>
      </trkpt>
      <trkpt lat="37.41562192328274250030517578125" lon="-3.1764521263539791107177734375">
        <ele>785.20001220703125</ele>
        <time>2019-10-29T09:43:53.000Z</time>
      </trkpt>
      <trkpt lat="37.415714375674724578857421875" lon="-3.17668187431991100311279296875">
        <ele>784</ele>
        <time>2019-10-29T09:44:00.000Z</time>
      </trkpt>
      <trkpt lat="37.41586315445601940155029296875" lon="-3.17682755179703235626220703125">
        <ele>782.79998779296875</ele>
        <time>2019-10-29T09:44:08.000Z</time>
      </trkpt>
      <trkpt lat="37.41600883193314075469970703125" lon="-3.17698412574827671051025390625">
        <ele>782.4000244140625</ele>
        <time>2019-10-29T09:44:17.000Z</time>
      </trkpt>
      <trkpt lat="37.41617009975016117095947265625" lon="-3.1771283783018589019775390625">
        <ele>784.79998779296875</ele>
        <time>2019-10-29T09:44:26.000Z</time>
      </trkpt>
      <trkpt lat="37.4163109995424747467041015625" lon="-3.17727011628448963165283203125">
        <ele>787.20001220703125</ele>
        <time>2019-10-29T09:44:34.000Z</time>
      </trkpt>
      <trkpt lat="37.41646531037986278533935546875" lon="-3.17744311876595020294189453125">
        <ele>790.4000244140625</ele>
        <time>2019-10-29T09:44:42.000Z</time>
      </trkpt>
      <trkpt lat="37.41658617742359638214111328125" lon="-3.17761511541903018951416015625">
        <ele>792.20001220703125</ele>
        <time>2019-10-29T09:44:49.000Z</time>
      </trkpt>
      <trkpt lat="37.4166990816593170166015625" lon="-3.17782835103571414947509765625">
        <ele>793.4000244140625</ele>
        <time>2019-10-29T09:44:58.000Z</time>
      </trkpt>
      <trkpt lat="37.41674493066966533660888671875" lon="-3.1780674867331981658935546875">
        <ele>791.79998779296875</ele>
        <time>2019-10-29T09:45:04.000Z</time>
      </trkpt>
      <trkpt lat="37.4167964793741703033447265625" lon="-3.1783186085522174835205078125">
        <ele>789.5999755859375</ele>
        <time>2019-10-29T09:45:11.000Z</time>
      </trkpt>
      <trkpt lat="37.4168263189494609832763671875" lon="-3.17854844033718109130859375">
        <ele>789</ele>
        <time>2019-10-29T09:45:18.000Z</time>
      </trkpt>
      <trkpt lat="37.41678013466298580169677734375" lon="-3.17879880778491497039794921875">
        <ele>790</ele>
        <time>2019-10-29T09:45:25.000Z</time>
      </trkpt>
      <trkpt lat="37.41671207360923290252685546875" lon="-3.1790270470082759857177734375">
        <ele>792.4000244140625</ele>
        <time>2019-10-29T09:45:31.000Z</time>
      </trkpt>
      <trkpt lat="37.41667737253010272979736328125" lon="-3.17928043194115161895751953125">
        <ele>793.5999755859375</ele>
        <time>2019-10-29T09:45:39.000Z</time>
      </trkpt>
      <trkpt lat="37.4166489578783512115478515625" lon="-3.17953339777886867523193359375">
        <ele>793.4000244140625</ele>
        <time>2019-10-29T09:45:46.000Z</time>
      </trkpt>
      <trkpt lat="37.41669698618352413177490234375" lon="-3.1797720305621623992919921875">
        <ele>793.4000244140625</ele>
        <time>2019-10-29T09:45:54.000Z</time>
      </trkpt>
      <trkpt lat="37.41673286072909832000732421875" lon="-3.1799988448619842529296875">
        <ele>793</ele>
        <time>2019-10-29T09:46:03.000Z</time>
      </trkpt>
      <trkpt lat="37.41672129370272159576416015625" lon="-3.18025960586965084075927734375">
        <ele>793.20001220703125</ele>
        <time>2019-10-29T09:46:11.000Z</time>
      </trkpt>
      <trkpt lat="37.41670654155313968658447265625" lon="-3.18049379624426364898681640625">
        <ele>793.4000244140625</ele>
        <time>2019-10-29T09:46:17.000Z</time>
      </trkpt>
      <trkpt lat="37.41667267866432666778564453125" lon="-3.1807257235050201416015625">
        <ele>793.20001220703125</ele>
        <time>2019-10-29T09:46:23.000Z</time>
      </trkpt>
      <trkpt lat="37.4166627041995525360107421875" lon="-3.18095781840384006500244140625">
        <ele>794</ele>
        <time>2019-10-29T09:46:31.000Z</time>
      </trkpt>
      <trkpt lat="37.41669279523193836212158203125" lon="-3.1811956129968166351318359375">
        <ele>795</ele>
        <time>2019-10-29T09:46:39.000Z</time>
      </trkpt>
      <trkpt lat="37.4167250655591487884521484375" lon="-3.1814246065914630889892578125">
        <ele>795.79998779296875</ele>
        <time>2019-10-29T09:46:47.000Z</time>
      </trkpt>
      <trkpt lat="37.41682305000722408294677734375" lon="-3.18156383000314235687255859375">
        <ele>796</ele>
        <time>2019-10-29T09:46:56.000Z</time>
      </trkpt>
      <trkpt lat="37.4168224632740020751953125" lon="-3.1815630756318569183349609375">
        <ele>796</ele>
        <time>2019-10-29T09:46:59.000Z</time>
      </trkpt>
      <trkpt lat="37.41741498000919818878173828125" lon="-3.18202835507690906524658203125">
        <ele>807.5999755859375</ele>
        <time>2019-10-29T09:49:01.000Z</time>
      </trkpt>
      <trkpt lat="37.417453788220882415771484375" lon="-3.18207009695470333099365234375">
        <ele>808.79998779296875</ele>
        <time>2019-10-29T09:49:06.000Z</time>
      </trkpt>
      <trkpt lat="37.41745370440185070037841796875" lon="-3.18207697011530399322509765625">
        <ele>808.79998779296875</ele>
        <time>2019-10-29T09:49:10.000Z</time>
      </trkpt>
      <trkpt lat="37.41748823784291744232177734375" lon="-3.1821977533400058746337890625">
        <ele>811</ele>
        <time>2019-10-29T09:50:01.000Z</time>
      </trkpt>
      <trkpt lat="37.41749041713774204254150390625" lon="-3.1822809018194675445556640625">
        <ele>812</ele>
        <time>2019-10-29T09:50:08.000Z</time>
      </trkpt>
      <trkpt lat="37.417501397430896759033203125" lon="-3.1823576800525188446044921875">
        <ele>813.20001220703125</ele>
        <time>2019-10-29T09:50:16.000Z</time>
      </trkpt>
      <trkpt lat="37.417504750192165374755859375" lon="-3.18237058818340301513671875">
        <ele>813.4000244140625</ele>
        <time>2019-10-29T09:50:18.000Z</time>
      </trkpt>
      <trkpt lat="37.417508102953433990478515625" lon="-3.1823898665606975555419921875">
        <ele>813.5999755859375</ele>
        <time>2019-10-29T09:50:21.000Z</time>
      </trkpt>
      <trkpt lat="37.41806994192302227020263671875" lon="-3.18477661348879337310791015625">
        <ele>833.5999755859375</ele>
        <time>2019-10-29T09:57:41.000Z</time>
      </trkpt>
      <trkpt lat="37.41806893609464168548583984375" lon="-3.18483511917293071746826171875">
        <ele>833.79998779296875</ele>
        <time>2019-10-29T09:57:46.000Z</time>
      </trkpt>
      <trkpt lat="37.41806776262819766998291015625" lon="-3.184900246560573577880859375">
        <ele>834</ele>
        <time>2019-10-29T09:57:51.000Z</time>
      </trkpt>
      <trkpt lat="37.4180705286562442779541015625" lon="-3.1848933733999729156494140625">
        <ele>834</ele>
        <time>2019-10-29T09:57:55.000Z</time>
      </trkpt>
      <trkpt lat="37.4180742166936397552490234375" lon="-3.18500141613185405731201171875">
        <ele>834.4000244140625</ele>
        <time>2019-10-29T09:58:18.000Z</time>
      </trkpt>
      <trkpt lat="37.41809927858412265777587890625" lon="-3.1852346844971179962158203125">
        <ele>835.79998779296875</ele>
        <time>2019-10-29T09:58:26.000Z</time>
      </trkpt>
      <trkpt lat="37.4181570298969745635986328125" lon="-3.18546309135854244232177734375">
        <ele>837.79998779296875</ele>
        <time>2019-10-29T09:58:34.000Z</time>
      </trkpt>
      <trkpt lat="37.41819701157510280609130859375" lon="-3.18571790121495723724365234375">
        <ele>839.20001220703125</ele>
        <time>2019-10-29T09:58:41.000Z</time>
      </trkpt>
      <trkpt lat="37.41818192414939403533935546875" lon="-3.185943625867366790771484375">
        <ele>838.79998779296875</ele>
        <time>2019-10-29T09:58:47.000Z</time>
      </trkpt>
      <trkpt lat="37.41818192414939403533935546875" lon="-3.1862019561231136322021484375">
        <ele>838.79998779296875</ele>
        <time>2019-10-29T09:58:54.000Z</time>
      </trkpt>
      <trkpt lat="37.418188713490962982177734375" lon="-3.1864537484943866729736328125">
        <ele>839.79998779296875</ele>
        <time>2019-10-29T09:59:01.000Z</time>
      </trkpt>
      <trkpt lat="37.418198771774768829345703125" lon="-3.18669305182993412017822265625">
        <ele>841</ele>
        <time>2019-10-29T09:59:08.000Z</time>
      </trkpt>
      <trkpt lat="37.41819642484188079833984375" lon="-3.18693595938384532928466796875">
        <ele>841.5999755859375</ele>
        <time>2019-10-29T09:59:15.000Z</time>
      </trkpt>
      <trkpt lat="37.41823338903486728668212890625" lon="-3.18716528825461864471435546875">
        <ele>841.79998779296875</ele>
        <time>2019-10-29T09:59:22.000Z</time>
      </trkpt>
      <trkpt lat="37.4183115921914577484130859375" lon="-3.18736813031136989593505859375">
        <ele>841.4000244140625</ele>
        <time>2019-10-29T09:59:29.000Z</time>
      </trkpt>
      <trkpt lat="37.41840404458343982696533203125" lon="-3.18756242282688617706298828125">
        <ele>842.4000244140625</ele>
        <time>2019-10-29T09:59:35.000Z</time>
      </trkpt>
      <trkpt lat="37.41848669014871120452880859375" lon="-3.18776526488363742828369140625">
        <ele>843.20001220703125</ele>
        <time>2019-10-29T09:59:42.000Z</time>
      </trkpt>
      <trkpt lat="37.41858425550162792205810546875" lon="-3.187976069748401641845703125">
        <ele>844</ele>
        <time>2019-10-29T09:59:50.000Z</time>
      </trkpt>
      <trkpt lat="37.418668828904628753662109375" lon="-3.18819760344922542572021484375">
        <ele>843.5999755859375</ele>
        <time>2019-10-29T09:59:59.000Z</time>
      </trkpt>
      <trkpt lat="37.418781816959381103515625" lon="-3.18840731866657733917236328125">
        <ele>842.4000244140625</ele>
        <time>2019-10-29T10:00:07.000Z</time>
      </trkpt>
      <trkpt lat="37.4188435077667236328125" lon="-3.1886387430131435394287109375">
        <ele>842.4000244140625</ele>
        <time>2019-10-29T10:00:15.000Z</time>
      </trkpt>
      <trkpt lat="37.41886789910495281219482421875" lon="-3.18867386318743228912353515625">
        <ele>842.5999755859375</ele>
        <time>2019-10-29T10:00:17.000Z</time>
      </trkpt>
      <trkpt lat="37.41893830709159374237060546875" lon="-3.18869448266923427581787109375">
        <ele>841.4000244140625</ele>
        <time>2019-10-29T10:00:21.000Z</time>
      </trkpt>
      <trkpt lat="37.41912405006587505340576171875" lon="-3.18876103498041629791259765625">
        <ele>839.79998779296875</ele>
        <time>2019-10-29T10:00:30.000Z</time>
      </trkpt>
      <trkpt lat="37.419237457215785980224609375" lon="-3.18894258700311183929443359375">
        <ele>836.79998779296875</ele>
        <time>2019-10-29T10:00:41.000Z</time>
      </trkpt>
      <trkpt lat="37.4192416481673717498779296875" lon="-3.18905331194400787353515625">
        <ele>836</ele>
        <time>2019-10-29T10:00:47.000Z</time>
      </trkpt>
      <trkpt lat="37.41924173198640346527099609375" lon="-3.18904769606888294219970703125">
        <ele>836</ele>
        <time>2019-10-29T10:00:51.000Z</time>
      </trkpt>
      <trkpt lat="37.4192211963236331939697265625" lon="-3.189119361340999603271484375">
        <ele>836.79998779296875</ele>
        <time>2019-10-29T10:00:57.000Z</time>
      </trkpt>
      <trkpt lat="37.4191517941653728485107421875" lon="-3.18933838047087192535400390625">
        <ele>840.5999755859375</ele>
        <time>2019-10-29T10:01:13.000Z</time>
      </trkpt>
      <trkpt lat="37.41916067898273468017578125" lon="-3.18946159444749355316162109375">
        <ele>841.79998779296875</ele>
        <time>2019-10-29T10:01:23.000Z</time>
      </trkpt>
      <trkpt lat="37.41915506310760974884033203125" lon="-3.189460672438144683837890625">
        <ele>842</ele>
        <time>2019-10-29T10:01:27.000Z</time>
      </trkpt>
      <trkpt lat="37.4191559851169586181640625" lon="-3.18959251977503299713134765625">
        <ele>843.79998779296875</ele>
        <time>2019-10-29T10:01:52.000Z</time>
      </trkpt>
      <trkpt lat="37.4191568233072757720947265625" lon="-3.18982939235866069793701171875">
        <ele>845</ele>
        <time>2019-10-29T10:02:00.000Z</time>
      </trkpt>
      <trkpt lat="37.41912178695201873779296875" lon="-3.19005268625915050506591796875">
        <ele>844.79998779296875</ele>
        <time>2019-10-29T10:02:08.000Z</time>
      </trkpt>
      <trkpt lat="37.41906504146754741668701171875" lon="-3.19028352387249469757080078125">
        <ele>844.4000244140625</ele>
        <time>2019-10-29T10:02:16.000Z</time>
      </trkpt>
      <trkpt lat="37.41906638257205486297607421875" lon="-3.190524168312549591064453125">
        <ele>842.20001220703125</ele>
        <time>2019-10-29T10:02:25.000Z</time>
      </trkpt>
      <trkpt lat="37.41907141171395778656005859375" lon="-3.19074737839400768280029296875">
        <ele>839</ele>
        <time>2019-10-29T10:02:33.000Z</time>
      </trkpt>
      <trkpt lat="37.41897585801780223846435546875" lon="-3.19097570143640041351318359375">
        <ele>841.5999755859375</ele>
        <time>2019-10-29T10:02:41.000Z</time>
      </trkpt>
      <trkpt lat="37.418890781700611114501953125" lon="-3.191206119954586029052734375">
        <ele>844.4000244140625</ele>
        <time>2019-10-29T10:02:48.000Z</time>
      </trkpt>
      <trkpt lat="37.4188674800097942352294921875" lon="-3.1914543919265270233154296875">
        <ele>845</ele>
        <time>2019-10-29T10:02:56.000Z</time>
      </trkpt>
      <trkpt lat="37.41884007118642330169677734375" lon="-3.191678188741207122802734375">
        <ele>845.79998779296875</ele>
        <time>2019-10-29T10:03:03.000Z</time>
      </trkpt>
      <trkpt lat="37.41878986358642578125" lon="-3.191897459328174591064453125">
        <ele>847.4000244140625</ele>
        <time>2019-10-29T10:03:10.000Z</time>
      </trkpt>
      <trkpt lat="37.41866103373467922210693359375" lon="-3.192079849541187286376953125">
        <ele>851.79998779296875</ele>
        <time>2019-10-29T10:03:18.000Z</time>
      </trkpt>
      <trkpt lat="37.41854419000446796417236328125" lon="-3.192261569201946258544921875">
        <ele>855.20001220703125</ele>
        <time>2019-10-29T10:03:26.000Z</time>
      </trkpt>
      <trkpt lat="37.4184386618435382843017578125" lon="-3.19245158694684505462646484375">
        <ele>857.79998779296875</ele>
        <time>2019-10-29T10:03:36.000Z</time>
      </trkpt>
      <trkpt lat="37.4184245802462100982666015625" lon="-3.1924769841134548187255859375">
        <ele>858.20001220703125</ele>
        <time>2019-10-29T10:03:38.000Z</time>
      </trkpt>
      <trkpt lat="37.41842064075171947479248046875" lon="-3.192496597766876220703125">
        <ele>858.4000244140625</ele>
        <time>2019-10-29T10:03:43.000Z</time>
      </trkpt>
      <trkpt lat="37.41879128850996494293212890625" lon="-3.1945738010108470916748046875">
        <ele>865.5999755859375</ele>
        <time>2019-10-29T10:06:13.000Z</time>
      </trkpt>
      <trkpt lat="37.4188151769340038299560546875" lon="-3.1948078237473964691162109375">
        <ele>868</ele>
        <time>2019-10-29T10:06:27.000Z</time>
      </trkpt>
      <trkpt lat="37.41882699541747570037841796875" lon="-3.195032291114330291748046875">
        <ele>869.79998779296875</ele>
        <time>2019-10-29T10:06:41.000Z</time>
      </trkpt>
      <trkpt lat="37.4187558330595493316650390625" lon="-3.1952440179884433746337890625">
        <ele>872.5999755859375</ele>
        <time>2019-10-29T10:06:55.000Z</time>
      </trkpt>
      <trkpt lat="37.41869975812733173370361328125" lon="-3.1953291781246662139892578125">
        <ele>873.79998779296875</ele>
        <time>2019-10-29T10:07:04.000Z</time>
      </trkpt>
      <trkpt lat="37.41870026104152202606201171875" lon="-3.19533261470496654510498046875">
        <ele>873.5999755859375</ele>
        <time>2019-10-29T10:07:06.000Z</time>
      </trkpt>
      <trkpt lat="37.41864996962249279022216796875" lon="-3.19540201686322689056396484375">
        <ele>874.5999755859375</ele>
        <time>2019-10-29T10:07:15.000Z</time>
      </trkpt>
      <trkpt lat="37.41853597573935985565185546875" lon="-3.19550544954836368560791015625">
        <ele>876.4000244140625</ele>
        <time>2019-10-29T10:07:21.000Z</time>
      </trkpt>
      <trkpt lat="37.41840220056474208831787109375" lon="-3.1956617720425128936767578125">
        <ele>877.4000244140625</ele>
        <time>2019-10-29T10:07:30.000Z</time>
      </trkpt>
      <trkpt lat="37.41829306818544864654541015625" lon="-3.19584173150360584259033203125">
        <ele>878</ele>
        <time>2019-10-29T10:07:38.000Z</time>
      </trkpt>
      <trkpt lat="37.418174631893634796142578125" lon="-3.19603443145751953125">
        <ele>878.5999755859375</ele>
        <time>2019-10-29T10:07:47.000Z</time>
      </trkpt>
      <trkpt lat="37.418078742921352386474609375" lon="-3.19623031653463840484619140625">
        <ele>880.4000244140625</ele>
        <time>2019-10-29T10:07:56.000Z</time>
      </trkpt>
      <trkpt lat="37.4179712869226932525634765625" lon="-3.19641597568988800048828125">
        <ele>882.20001220703125</ele>
        <time>2019-10-29T10:08:05.000Z</time>
      </trkpt>
      <trkpt lat="37.4178673513233661651611328125" lon="-3.19660113193094730377197265625">
        <ele>884.20001220703125</ele>
        <time>2019-10-29T10:08:14.000Z</time>
      </trkpt>
      <trkpt lat="37.41777657531201839447021484375" lon="-3.1968255154788494110107421875">
        <ele>884.79998779296875</ele>
        <time>2019-10-29T10:08:24.000Z</time>
      </trkpt>
      <trkpt lat="37.41772779263556003570556640625" lon="-3.1969492323696613311767578125">
        <ele>884.5999755859375</ele>
        <time>2019-10-29T10:08:30.000Z</time>
      </trkpt>
      <trkpt lat="37.417639195919036865234375" lon="-3.19716573692858219146728515625">
        <ele>883.5999755859375</ele>
        <time>2019-10-29T10:08:39.000Z</time>
      </trkpt>
      <trkpt lat="37.4175575561821460723876953125" lon="-3.19738425314426422119140625">
        <ele>884.20001220703125</ele>
        <time>2019-10-29T10:08:48.000Z</time>
      </trkpt>
      <trkpt lat="37.41746242158114910125732421875" lon="-3.1975865922868251800537109375">
        <ele>884.5999755859375</ele>
        <time>2019-10-29T10:08:57.000Z</time>
      </trkpt>
      <trkpt lat="37.41738237440586090087890625" lon="-3.19779806770384311676025390625">
        <ele>885.79998779296875</ele>
        <time>2019-10-29T10:09:06.000Z</time>
      </trkpt>
      <trkpt lat="37.41730651818215847015380859375" lon="-3.1980204395949840545654296875">
        <ele>887.20001220703125</ele>
        <time>2019-10-29T10:09:17.000Z</time>
      </trkpt>
      <trkpt lat="37.41725069470703601837158203125" lon="-3.198241889476776123046875">
        <ele>889.5999755859375</ele>
        <time>2019-10-29T10:09:27.000Z</time>
      </trkpt>
      <trkpt lat="37.4172142334282398223876953125" lon="-3.19841698743402957916259765625">
        <ele>892.4000244140625</ele>
        <time>2019-10-29T10:09:35.000Z</time>
      </trkpt>
      <trkpt lat="37.41735647432506084442138671875" lon="-3.19858747534453868865966796875">
        <ele>894</ele>
        <time>2019-10-29T10:09:44.000Z</time>
      </trkpt>
      <trkpt lat="37.41750583983957767486572265625" lon="-3.19874991662800312042236328125">
        <ele>893.5999755859375</ele>
        <time>2019-10-29T10:09:50.000Z</time>
      </trkpt>
      <trkpt lat="37.417647577822208404541015625" lon="-3.198901712894439697265625">
        <ele>890</ele>
        <time>2019-10-29T10:09:55.000Z</time>
      </trkpt>
      <trkpt lat="37.41771253757178783416748046875" lon="-3.19897773675620555877685546875">
        <ele>887.79998779296875</ele>
        <time>2019-10-29T10:09:57.000Z</time>
      </trkpt>
      <trkpt lat="37.41782820783555507659912109375" lon="-3.19915727712213993072509765625">
        <ele>884.20001220703125</ele>
        <time>2019-10-29T10:10:01.000Z</time>
      </trkpt>
      <trkpt lat="37.4179307185113430023193359375" lon="-3.19934486411511898040771484375">
        <ele>880.5999755859375</ele>
        <time>2019-10-29T10:10:04.000Z</time>
      </trkpt>
      <trkpt lat="37.418014705181121826171875" lon="-3.1994768790900707244873046875">
        <ele>878.20001220703125</ele>
        <time>2019-10-29T10:10:06.000Z</time>
      </trkpt>
      <trkpt lat="37.41818527691066265106201171875" lon="-3.1996381469070911407470703125">
        <ele>876.4000244140625</ele>
        <time>2019-10-29T10:10:09.000Z</time>
      </trkpt>
      <trkpt lat="37.4182492308318614959716796875" lon="-3.19968022406101226806640625">
        <ele>876.5999755859375</ele>
        <time>2019-10-29T10:10:10.000Z</time>
      </trkpt>
      <trkpt lat="37.41837169043719768524169921875" lon="-3.19976999424397945404052734375">
        <ele>876</ele>
        <time>2019-10-29T10:10:12.000Z</time>
      </trkpt>
      <trkpt lat="37.4184969998896121978759765625" lon="-3.19994316436350345611572265625">
        <ele>877.20001220703125</ele>
        <time>2019-10-29T10:10:15.000Z</time>
      </trkpt>
      <trkpt lat="37.41860412061214447021484375" lon="-3.20015690289437770843505859375">
        <ele>879</ele>
        <time>2019-10-29T10:10:20.000Z</time>
      </trkpt>
      <trkpt lat="37.4187214672565460205078125" lon="-3.2003687135875225067138671875">
        <ele>882</ele>
        <time>2019-10-29T10:10:27.000Z</time>
      </trkpt>
      <trkpt lat="37.418847866356372833251953125" lon="-3.20056744851171970367431640625">
        <ele>884.20001220703125</ele>
        <time>2019-10-29T10:10:35.000Z</time>
      </trkpt>
      <trkpt lat="37.41893847472965717315673828125" lon="-3.2007832825183868408203125">
        <ele>885.79998779296875</ele>
        <time>2019-10-29T10:10:43.000Z</time>
      </trkpt>
      <trkpt lat="37.4188735149800777435302734375" lon="-3.2010070793330669403076171875">
        <ele>887</ele>
        <time>2019-10-29T10:10:50.000Z</time>
      </trkpt>
      <trkpt lat="37.418794892728328704833984375" lon="-3.201212771236896514892578125">
        <ele>888</ele>
        <time>2019-10-29T10:10:57.000Z</time>
      </trkpt>
      <trkpt lat="37.418706715106964111328125" lon="-3.20143765769898891448974609375">
        <ele>889.4000244140625</ele>
        <time>2019-10-29T10:11:05.000Z</time>
      </trkpt>
      <trkpt lat="37.418605126440525054931640625" lon="-3.20165030658245086669921875">
        <ele>891.4000244140625</ele>
        <time>2019-10-29T10:11:13.000Z</time>
      </trkpt>
      <trkpt lat="37.41850479505956172943115234375" lon="-3.201840408146381378173828125">
        <ele>893.79998779296875</ele>
        <time>2019-10-29T10:11:21.000Z</time>
      </trkpt>
      <trkpt lat="37.4184064753353595733642578125" lon="-3.20205238647758960723876953125">
        <ele>895.20001220703125</ele>
        <time>2019-10-29T10:11:29.000Z</time>
      </trkpt>
      <trkpt lat="37.41831846535205841064453125" lon="-3.2022757641971111297607421875">
        <ele>895.5999755859375</ele>
        <time>2019-10-29T10:11:37.000Z</time>
      </trkpt>
      <trkpt lat="37.41823129355907440185546875" lon="-3.2024759240448474884033203125">
        <ele>895.4000244140625</ele>
        <time>2019-10-29T10:11:44.000Z</time>
      </trkpt>
      <trkpt lat="37.4181198142468929290771484375" lon="-3.20268220268189907073974609375">
        <ele>894.79998779296875</ele>
        <time>2019-10-29T10:11:51.000Z</time>
      </trkpt>
      <trkpt lat="37.417974807322025299072265625" lon="-3.202855288982391357421875">
        <ele>894.20001220703125</ele>
        <time>2019-10-29T10:11:58.000Z</time>
      </trkpt>
      <trkpt lat="37.41783306933939456939697265625" lon="-3.2030438818037509918212890625">
        <ele>894</ele>
        <time>2019-10-29T10:12:05.000Z</time>
      </trkpt>
      <trkpt lat="37.41772326640784740447998046875" lon="-3.203233145177364349365234375">
        <ele>894.5999755859375</ele>
        <time>2019-10-29T10:12:12.000Z</time>
      </trkpt>
      <trkpt lat="37.41766870021820068359375" lon="-3.2034827582538127899169921875">
        <ele>896.5999755859375</ele>
        <time>2019-10-29T10:12:20.000Z</time>
      </trkpt>
      <trkpt lat="37.4176232703030109405517578125" lon="-3.20370110683143138885498046875">
        <ele>898.20001220703125</ele>
        <time>2019-10-29T10:12:26.000Z</time>
      </trkpt>
      <trkpt lat="37.41750801913440227508544921875" lon="-3.203880898654460906982421875">
        <ele>898.79998779296875</ele>
        <time>2019-10-29T10:12:32.000Z</time>
      </trkpt>
      <trkpt lat="37.41733702830970287322998046875" lon="-3.2040021009743213653564453125">
        <ele>897.79998779296875</ele>
        <time>2019-10-29T10:12:39.000Z</time>
      </trkpt>
      <trkpt lat="37.4171872437000274658203125" lon="-3.204137049615383148193359375">
        <ele>897.20001220703125</ele>
        <time>2019-10-29T10:12:46.000Z</time>
      </trkpt>
      <trkpt lat="37.41706377826631069183349609375" lon="-3.20433712564408779144287109375">
        <ele>897.4000244140625</ele>
        <time>2019-10-29T10:12:54.000Z</time>
      </trkpt>
      <trkpt lat="37.41698951460421085357666015625" lon="-3.204562179744243621826171875">
        <ele>897.4000244140625</ele>
        <time>2019-10-29T10:13:02.000Z</time>
      </trkpt>
      <trkpt lat="37.4170204438269138336181640625" lon="-3.204784132540225982666015625">
        <ele>898.5999755859375</ele>
        <time>2019-10-29T10:13:09.000Z</time>
      </trkpt>
      <trkpt lat="37.41710074245929718017578125" lon="-3.20500466041266918182373046875">
        <ele>900.5999755859375</ele>
        <time>2019-10-29T10:13:17.000Z</time>
      </trkpt>
      <trkpt lat="37.417145334184169769287109375" lon="-3.205227367579936981201171875">
        <ele>902.5999755859375</ele>
        <time>2019-10-29T10:13:25.000Z</time>
      </trkpt>
      <trkpt lat="37.41709160618484020233154296875" lon="-3.205462731420993804931640625">
        <ele>903.79998779296875</ele>
        <time>2019-10-29T10:13:33.000Z</time>
      </trkpt>
      <trkpt lat="37.4170164205133914947509765625" lon="-3.205677308142185211181640625">
        <ele>904.4000244140625</ele>
        <time>2019-10-29T10:13:40.000Z</time>
      </trkpt>
      <trkpt lat="37.4169155023992061614990234375" lon="-3.20588341914117336273193359375">
        <ele>905</ele>
        <time>2019-10-29T10:13:47.000Z</time>
      </trkpt>
      <trkpt lat="37.416816763579845428466796875" lon="-3.2060833275318145751953125">
        <ele>905.4000244140625</ele>
        <time>2019-10-29T10:13:54.000Z</time>
      </trkpt>
      <trkpt lat="37.41673621349036693572998046875" lon="-3.2063151709735393524169921875">
        <ele>906</ele>
        <time>2019-10-29T10:14:02.000Z</time>
      </trkpt>
      <trkpt lat="37.4166804738342761993408203125" lon="-3.20654760114848613739013671875">
        <ele>906.20001220703125</ele>
        <time>2019-10-29T10:14:10.000Z</time>
      </trkpt>
      <trkpt lat="37.41669698618352413177490234375" lon="-3.2067818753421306610107421875">
        <ele>907.20001220703125</ele>
        <time>2019-10-29T10:14:17.000Z</time>
      </trkpt>
      <trkpt lat="37.41672263480722904205322265625" lon="-3.207017071545124053955078125">
        <ele>909.20001220703125</ele>
        <time>2019-10-29T10:14:24.000Z</time>
      </trkpt>
      <trkpt lat="37.41664032451808452606201171875" lon="-3.20721882395446300506591796875">
        <ele>909.5999755859375</ele>
        <time>2019-10-29T10:14:31.000Z</time>
      </trkpt>
      <trkpt lat="37.416499592363834381103515625" lon="-3.20740004070103168487548828125">
        <ele>909.79998779296875</ele>
        <time>2019-10-29T10:14:39.000Z</time>
      </trkpt>
      <trkpt lat="37.41641032509505748748779296875" lon="-3.20759785361588001251220703125">
        <ele>910.5999755859375</ele>
        <time>2019-10-29T10:14:47.000Z</time>
      </trkpt>
      <trkpt lat="37.416377551853656768798828125" lon="-3.2078537531197071075439453125">
        <ele>911.20001220703125</ele>
        <time>2019-10-29T10:14:55.000Z</time>
      </trkpt>
      <trkpt lat="37.41636925376951694488525390625" lon="-3.20808065123856067657470703125">
        <ele>911</ele>
        <time>2019-10-29T10:15:02.000Z</time>
      </trkpt>
      <trkpt lat="37.41636556573212146759033203125" lon="-3.20832498371601104736328125">
        <ele>911</ele>
        <time>2019-10-29T10:15:10.000Z</time>
      </trkpt>
      <trkpt lat="37.4163572676479816436767578125" lon="-3.208570070564746856689453125">
        <ele>911</ele>
        <time>2019-10-29T10:15:18.000Z</time>
      </trkpt>
      <trkpt lat="37.41632902063429355621337890625" lon="-3.2088096253573894500732421875">
        <ele>911.5999755859375</ele>
        <time>2019-10-29T10:15:26.000Z</time>
      </trkpt>
      <trkpt lat="37.41628526709973812103271484375" lon="-3.20904440246522426605224609375">
        <ele>912.79998779296875</ele>
        <time>2019-10-29T10:15:34.000Z</time>
      </trkpt>
      <trkpt lat="37.4162660725414752960205078125" lon="-3.2092860527336597442626953125">
        <ele>915.4000244140625</ele>
        <time>2019-10-29T10:15:42.000Z</time>
      </trkpt>
      <trkpt lat="37.41625324822962284088134765625" lon="-3.209514878690242767333984375">
        <ele>917.5999755859375</ele>
        <time>2019-10-29T10:15:49.000Z</time>
      </trkpt>
      <trkpt lat="37.41622609086334705352783203125" lon="-3.20976122282445430755615234375">
        <ele>919</ele>
        <time>2019-10-29T10:15:57.000Z</time>
      </trkpt>
      <trkpt lat="37.4161939881742000579833984375" lon="-3.21000781841576099395751953125">
        <ele>919.5999755859375</ele>
        <time>2019-10-29T10:16:05.000Z</time>
      </trkpt>
      <trkpt lat="37.41615853272378444671630859375" lon="-3.2102568447589874267578125">
        <ele>921</ele>
        <time>2019-10-29T10:16:13.000Z</time>
      </trkpt>
      <trkpt lat="37.4161232449114322662353515625" lon="-3.2104974053800106048583984375">
        <ele>922</ele>
        <time>2019-10-29T10:16:21.000Z</time>
      </trkpt>
      <trkpt lat="37.4160984344780445098876953125" lon="-3.21074358187615871429443359375">
        <ele>922.20001220703125</ele>
        <time>2019-10-29T10:16:29.000Z</time>
      </trkpt>
      <trkpt lat="37.41610103286802768707275390625" lon="-3.2109979726374149322509765625">
        <ele>922.4000244140625</ele>
        <time>2019-10-29T10:16:37.000Z</time>
      </trkpt>
      <trkpt lat="37.41609835065901279449462890625" lon="-3.21125253103673458099365234375">
        <ele>922.20001220703125</ele>
        <time>2019-10-29T10:16:45.000Z</time>
      </trkpt>
      <trkpt lat="37.4160662479698657989501953125" lon="-3.211502730846405029296875">
        <ele>923.79998779296875</ele>
        <time>2019-10-29T10:16:53.000Z</time>
      </trkpt>
      <trkpt lat="37.4160099215805530548095703125" lon="-3.2117463089525699615478515625">
        <ele>925</ele>
        <time>2019-10-29T10:17:01.000Z</time>
      </trkpt>
      <trkpt lat="37.41594605147838592529296875" lon="-3.21196029894053936004638671875">
        <ele>925.4000244140625</ele>
        <time>2019-10-29T10:17:08.000Z</time>
      </trkpt>
      <trkpt lat="37.4158731289207935333251953125" lon="-3.21216884069144725799560546875">
        <ele>924.79998779296875</ele>
        <time>2019-10-29T10:17:15.000Z</time>
      </trkpt>
      <trkpt lat="37.41580598987638950347900390625" lon="-3.21240252815186977386474609375">
        <ele>925</ele>
        <time>2019-10-29T10:17:23.000Z</time>
      </trkpt>
      <trkpt lat="37.415786124765872955322265625" lon="-3.21264124475419521331787109375">
        <ele>925</ele>
        <time>2019-10-29T10:17:31.000Z</time>
      </trkpt>
      <trkpt lat="37.41581101901829242706298828125" lon="-3.212893120944499969482421875">
        <ele>925.79998779296875</ele>
        <time>2019-10-29T10:17:40.000Z</time>
      </trkpt>
      <trkpt lat="37.415829040110111236572265625" lon="-3.2131293229758739471435546875">
        <ele>927.20001220703125</ele>
        <time>2019-10-29T10:17:48.000Z</time>
      </trkpt>
      <trkpt lat="37.4158017151057720184326171875" lon="-3.21337264962494373321533203125">
        <ele>927.4000244140625</ele>
        <time>2019-10-29T10:17:56.000Z</time>
      </trkpt>
      <trkpt lat="37.4157973565161228179931640625" lon="-3.21361622773110866546630859375">
        <ele>928.5999755859375</ele>
        <time>2019-10-29T10:18:04.000Z</time>
      </trkpt>
      <trkpt lat="37.415795512497425079345703125" lon="-3.21385729126632213592529296875">
        <ele>931</ele>
        <time>2019-10-29T10:18:12.000Z</time>
      </trkpt>
      <trkpt lat="37.41579844616353511810302734375" lon="-3.21410170756280422210693359375">
        <ele>932.79998779296875</ele>
        <time>2019-10-29T10:18:20.000Z</time>
      </trkpt>
      <trkpt lat="37.4158171378076076507568359375" lon="-3.21434847079217433929443359375">
        <ele>935.20001220703125</ele>
        <time>2019-10-29T10:18:28.000Z</time>
      </trkpt>
      <trkpt lat="37.41584806703031063079833984375" lon="-3.21458366699516773223876953125">
        <ele>936.79998779296875</ele>
        <time>2019-10-29T10:18:36.000Z</time>
      </trkpt>
      <trkpt lat="37.41589131765067577362060546875" lon="-3.2148184441030025482177734375">
        <ele>936.79998779296875</ele>
        <time>2019-10-29T10:18:44.000Z</time>
      </trkpt>
      <trkpt lat="37.41593138314783573150634765625" lon="-3.21505808271467685699462890625">
        <ele>935.79998779296875</ele>
        <time>2019-10-29T10:18:52.000Z</time>
      </trkpt>
      <trkpt lat="37.4159641563892364501953125" lon="-3.21528690867125988006591796875">
        <ele>935.5999755859375</ele>
        <time>2019-10-29T10:19:00.000Z</time>
      </trkpt>
      <trkpt lat="37.415977232158184051513671875" lon="-3.21548036299645900726318359375">
        <ele>937</ele>
        <time>2019-10-29T10:19:11.000Z</time>
      </trkpt>
      <trkpt lat="37.41631912998855113983154296875" lon="-3.21714333258569240570068359375">
        <ele>950.20001220703125</ele>
        <time>2019-10-29T10:22:22.000Z</time>
      </trkpt>
      <trkpt lat="37.416374869644641876220703125" lon="-3.2173672132194042205810546875">
        <ele>949.4000244140625</ele>
        <time>2019-10-29T10:22:31.000Z</time>
      </trkpt>
      <trkpt lat="37.4164826609194278717041015625" lon="-3.21757055819034576416015625">
        <ele>949.20001220703125</ele>
        <time>2019-10-29T10:22:39.000Z</time>
      </trkpt>
      <trkpt lat="37.41661584936082363128662109375" lon="-3.217754624783992767333984375">
        <ele>948.4000244140625</ele>
        <time>2019-10-29T10:22:47.000Z</time>
      </trkpt>
      <trkpt lat="37.41676102392375469207763671875" lon="-3.2179244421422481536865234375">
        <ele>948.5999755859375</ele>
        <time>2019-10-29T10:22:55.000Z</time>
      </trkpt>
      <trkpt lat="37.41689647547900676727294921875" lon="-3.21807389147579669952392578125">
        <ele>949.79998779296875</ele>
        <time>2019-10-29T10:23:02.000Z</time>
      </trkpt>
      <trkpt lat="37.417058162391185760498046875" lon="-3.2182111032307147979736328125">
        <ele>951.20001220703125</ele>
        <time>2019-10-29T10:23:09.000Z</time>
      </trkpt>
      <trkpt lat="37.41721699945628643035888671875" lon="-3.21833959780633449554443359375">
        <ele>952.5999755859375</ele>
        <time>2019-10-29T10:23:16.000Z</time>
      </trkpt>
      <trkpt lat="37.417368628084659576416015625" lon="-3.21850975044071674346923828125">
        <ele>954.79998779296875</ele>
        <time>2019-10-29T10:23:24.000Z</time>
      </trkpt>
      <trkpt lat="37.4174925126135349273681640625" lon="-3.21869549341499805450439453125">
        <ele>956.79998779296875</ele>
        <time>2019-10-29T10:23:33.000Z</time>
      </trkpt>
      <trkpt lat="37.4174941889941692352294921875" lon="-3.2187009416520595550537109375">
        <ele>956.79998779296875</ele>
        <time>2019-10-29T10:23:34.000Z</time>
      </trkpt>
      <trkpt lat="37.41749100387096405029296875" lon="-3.2186939008533954620361328125">
        <ele>956.79998779296875</ele>
        <time>2019-10-29T10:23:37.000Z</time>
      </trkpt>
      <trkpt lat="37.41760608740150928497314453125" lon="-3.21898198686540126800537109375">
        <ele>959.5999755859375</ele>
        <time>2019-10-29T10:24:09.000Z</time>
      </trkpt>
      <trkpt lat="37.41758278571069240570068359375" lon="-3.2192122377455234527587890625">
        <ele>960.5999755859375</ele>
        <time>2019-10-29T10:24:24.000Z</time>
      </trkpt>
      <trkpt lat="37.4175679497420787811279296875" lon="-3.21944667957723140716552734375">
        <ele>961.79998779296875</ele>
        <time>2019-10-29T10:24:39.000Z</time>
      </trkpt>
      <trkpt lat="37.417571805417537689208984375" lon="-3.21946998126804828643798828125">
        <ele>962.20001220703125</ele>
        <time>2019-10-29T10:24:41.000Z</time>
      </trkpt>
      <trkpt lat="37.41758630611002445220947265625" lon="-3.219478614628314971923828125">
        <ele>962.4000244140625</ele>
        <time>2019-10-29T10:24:46.000Z</time>
      </trkpt>
      <trkpt lat="37.41761279292404651641845703125" lon="-3.21953955106437206268310546875">
        <ele>963.20001220703125</ele>
        <time>2019-10-29T10:24:54.000Z</time>
      </trkpt>
      <trkpt lat="37.4176839552819728851318359375" lon="-3.21976971812546253204345703125">
        <ele>966.4000244140625</ele>
        <time>2019-10-29T10:25:03.000Z</time>
      </trkpt>
      <trkpt lat="37.41775562055408954620361328125" lon="-3.2199798524379730224609375">
        <ele>969.20001220703125</ele>
        <time>2019-10-29T10:25:11.000Z</time>
      </trkpt>
      <trkpt lat="37.41781597025692462921142578125" lon="-3.2201996259391307830810546875">
        <ele>970.4000244140625</ele>
        <time>2019-10-29T10:25:19.000Z</time>
      </trkpt>
      <trkpt lat="37.41786793805658817291259765625" lon="-3.22041780687868595123291015625">
        <ele>972.20001220703125</ele>
        <time>2019-10-29T10:25:27.000Z</time>
      </trkpt>
      <trkpt lat="37.41792426444590091705322265625" lon="-3.22066037915647029876708984375">
        <ele>974</ele>
        <time>2019-10-29T10:25:36.000Z</time>
      </trkpt>
      <trkpt lat="37.41795645095407962799072265625" lon="-3.22084528394043445587158203125">
        <ele>975.4000244140625</ele>
        <time>2019-10-29T10:25:44.000Z</time>
      </trkpt>
      <trkpt lat="37.41795494221150875091552734375" lon="-3.22084109298884868621826171875">
        <ele>975.4000244140625</ele>
        <time>2019-10-29T10:25:47.000Z</time>
      </trkpt>
      <trkpt lat="37.41835040040314197540283203125" lon="-3.22174818255007266998291015625">
        <ele>980</ele>
        <time>2019-10-29T10:27:24.000Z</time>
      </trkpt>
      <trkpt lat="37.41848585195839405059814453125" lon="-3.221933841705322265625">
        <ele>980.5999755859375</ele>
        <time>2019-10-29T10:27:32.000Z</time>
      </trkpt>
      <trkpt lat="37.41860319860279560089111328125" lon="-3.22211958467960357666015625">
        <ele>981</ele>
        <time>2019-10-29T10:27:39.000Z</time>
      </trkpt>
      <trkpt lat="37.41872104816138744354248046875" lon="-3.22232888080179691314697265625">
        <ele>980.4000244140625</ele>
        <time>2019-10-29T10:27:46.000Z</time>
      </trkpt>
      <trkpt lat="37.41883101873099803924560546875" lon="-3.22251814417541027069091796875">
        <ele>980.20001220703125</ele>
        <time>2019-10-29T10:27:52.000Z</time>
      </trkpt>
      <trkpt lat="37.41895255632698535919189453125" lon="-3.2227141968905925750732421875">
        <ele>979.79998779296875</ele>
        <time>2019-10-29T10:27:58.000Z</time>
      </trkpt>
      <trkpt lat="37.41908465512096881866455078125" lon="-3.22292399592697620391845703125">
        <ele>980</ele>
        <time>2019-10-29T10:28:04.000Z</time>
      </trkpt>
      <trkpt lat="37.41921910084784030914306640625" lon="-3.2231336273252964019775390625">
        <ele>980</ele>
        <time>2019-10-29T10:28:10.000Z</time>
      </trkpt>
      <trkpt lat="37.419329322874546051025390625" lon="-3.22332984767854213714599609375">
        <ele>980.5999755859375</ele>
        <time>2019-10-29T10:28:15.000Z</time>
      </trkpt>
      <trkpt lat="37.4194367788732051849365234375" lon="-3.2235644571483135223388671875">
        <ele>980</ele>
        <time>2019-10-29T10:28:20.000Z</time>
      </trkpt>
      <trkpt lat="37.4195252917706966400146484375" lon="-3.22379286400973796844482421875">
        <ele>979.5999755859375</ele>
        <time>2019-10-29T10:28:25.000Z</time>
      </trkpt>
      <trkpt lat="37.4196114577353000640869140625" lon="-3.22403526864945888519287109375">
        <ele>979</ele>
        <time>2019-10-29T10:28:33.000Z</time>
      </trkpt>
      <trkpt lat="37.41968236863613128662109375" lon="-3.22424414567649364471435546875">
        <ele>979</ele>
        <time>2019-10-29T10:28:38.000Z</time>
      </trkpt>
      <trkpt lat="37.41971011273562908172607421875" lon="-3.22440348565578460693359375">
        <ele>979.20001220703125</ele>
        <time>2019-10-29T10:28:48.000Z</time>
      </trkpt>
      <trkpt lat="37.41965663619339466094970703125" lon="-3.2245317287743091583251953125">
        <ele>979.4000244140625</ele>
        <time>2019-10-29T10:30:44.000Z</time>
      </trkpt>
      <trkpt lat="37.4195154011249542236328125" lon="-3.2246812619268894195556640625">
        <ele>979.4000244140625</ele>
        <time>2019-10-29T10:30:51.000Z</time>
      </trkpt>
      <trkpt lat="37.419375590980052947998046875" lon="-3.2248271070420742034912109375">
        <ele>979.5999755859375</ele>
        <time>2019-10-29T10:30:57.000Z</time>
      </trkpt>
      <trkpt lat="37.41921792738139629364013671875" lon="-3.22499617002904415130615234375">
        <ele>979.79998779296875</ele>
        <time>2019-10-29T10:31:04.000Z</time>
      </trkpt>
      <trkpt lat="37.41906990297138690948486328125" lon="-3.2251379080116748809814453125">
        <ele>979.4000244140625</ele>
        <time>2019-10-29T10:31:11.000Z</time>
      </trkpt>
      <trkpt lat="37.41891131736338138580322265625" lon="-3.22529993019998073577880859375">
        <ele>979.4000244140625</ele>
        <time>2019-10-29T10:31:19.000Z</time>
      </trkpt>
      <trkpt lat="37.41876371204853057861328125" lon="-3.22546438314020633697509765625">
        <ele>979.79998779296875</ele>
        <time>2019-10-29T10:31:26.000Z</time>
      </trkpt>
      <trkpt lat="37.41862750612199306488037109375" lon="-3.22562196291983127593994140625">
        <ele>980.79998779296875</ele>
        <time>2019-10-29T10:31:32.000Z</time>
      </trkpt>
      <trkpt lat="37.418483085930347442626953125" lon="-3.22575959376990795135498046875">
        <ele>981.4000244140625</ele>
        <time>2019-10-29T10:31:38.000Z</time>
      </trkpt>
      <trkpt lat="37.41834260523319244384765625" lon="-3.22593259625136852264404296875">
        <ele>981.79998779296875</ele>
        <time>2019-10-29T10:31:44.000Z</time>
      </trkpt>
      <trkpt lat="37.4181851930916309356689453125" lon="-3.2261132262647151947021484375">
        <ele>982</ele>
        <time>2019-10-29T10:31:50.000Z</time>
      </trkpt>
      <trkpt lat="37.41806021891534328460693359375" lon="-3.2262852229177951812744140625">
        <ele>982</ele>
        <time>2019-10-29T10:31:55.000Z</time>
      </trkpt>
      <trkpt lat="37.417935244739055633544921875" lon="-3.22645998559892177581787109375">
        <ele>982</ele>
        <time>2019-10-29T10:32:00.000Z</time>
      </trkpt>
      <trkpt lat="37.41780306212604045867919921875" lon="-3.2266241870820522308349609375">
        <ele>982</ele>
        <time>2019-10-29T10:32:05.000Z</time>
      </trkpt>
      <trkpt lat="37.41766476072371006011962890625" lon="-3.22679660283029079437255859375">
        <ele>982</ele>
        <time>2019-10-29T10:32:10.000Z</time>
      </trkpt>
      <trkpt lat="37.4175019003450870513916015625" lon="-3.22694295085966587066650390625">
        <ele>982.20001220703125</ele>
        <time>2019-10-29T10:32:15.000Z</time>
      </trkpt>
      <trkpt lat="37.41734071634709835052490234375" lon="-3.22708426974713802337646484375">
        <ele>983.20001220703125</ele>
        <time>2019-10-29T10:32:20.000Z</time>
      </trkpt>
      <trkpt lat="37.4171874113380908966064453125" lon="-3.22723648510873317718505859375">
        <ele>984</ele>
        <time>2019-10-29T10:32:25.000Z</time>
      </trkpt>
      <trkpt lat="37.4170358665287494659423828125" lon="-3.22739825583994388580322265625">
        <ele>984</ele>
        <time>2019-10-29T10:32:30.000Z</time>
      </trkpt>
      <trkpt lat="37.4168787896633148193359375" lon="-3.22757377289235591888427734375">
        <ele>983.79998779296875</ele>
        <time>2019-10-29T10:32:35.000Z</time>
      </trkpt>
      <trkpt lat="37.41674828343093395233154296875" lon="-3.22777376510202884674072265625">
        <ele>983.5999755859375</ele>
        <time>2019-10-29T10:32:40.000Z</time>
      </trkpt>
      <trkpt lat="37.41662733256816864013671875" lon="-3.22798213921487331390380859375">
        <ele>984</ele>
        <time>2019-10-29T10:32:45.000Z</time>
      </trkpt>
      <trkpt lat="37.4164816550910472869873046875" lon="-3.2281525433063507080078125">
        <ele>983.4000244140625</ele>
        <time>2019-10-29T10:32:50.000Z</time>
      </trkpt>
      <trkpt lat="37.4163270927965641021728515625" lon="-3.228303082287311553955078125">
        <ele>983.4000244140625</ele>
        <time>2019-10-29T10:32:55.000Z</time>
      </trkpt>
      <trkpt lat="37.41616942919790744781494140625" lon="-3.228449262678623199462890625">
        <ele>984.4000244140625</ele>
        <time>2019-10-29T10:33:00.000Z</time>
      </trkpt>
      <trkpt lat="37.41600573062896728515625" lon="-3.228587396442890167236328125">
        <ele>985</ele>
        <time>2019-10-29T10:33:05.000Z</time>
      </trkpt>
      <trkpt lat="37.4158409424126148223876953125" lon="-3.2287293858826160430908203125">
        <ele>985</ele>
        <time>2019-10-29T10:33:10.000Z</time>
      </trkpt>
      <trkpt lat="37.41566307842731475830078125" lon="-3.22883457876741886138916015625">
        <ele>984.4000244140625</ele>
        <time>2019-10-29T10:33:15.000Z</time>
      </trkpt>
      <trkpt lat="37.4154798500239849090576171875" lon="-3.228934742510318756103515625">
        <ele>984.20001220703125</ele>
        <time>2019-10-29T10:33:20.000Z</time>
      </trkpt>
      <trkpt lat="37.4152961187064647674560546875" lon="-3.229043371975421905517578125">
        <ele>984.79998779296875</ele>
        <time>2019-10-29T10:33:25.000Z</time>
      </trkpt>
      <trkpt lat="37.41511188447475433349609375" lon="-3.229152671992778778076171875">
        <ele>985.5999755859375</ele>
        <time>2019-10-29T10:33:30.000Z</time>
      </trkpt>
      <trkpt lat="37.41494282148778438568115234375" lon="-3.2293166220188140869140625">
        <ele>986</ele>
        <time>2019-10-29T10:33:35.000Z</time>
      </trkpt>
      <trkpt lat="37.4147613532841205596923828125" lon="-3.2294633053243160247802734375">
        <ele>986</ele>
        <time>2019-10-29T10:33:40.000Z</time>
      </trkpt>
      <trkpt lat="37.41457770578563213348388671875" lon="-3.2295752875506877899169921875">
        <ele>986.4000244140625</ele>
        <time>2019-10-29T10:33:45.000Z</time>
      </trkpt>
      <trkpt lat="37.414393723011016845703125" lon="-3.229703865945339202880859375">
        <ele>987</ele>
        <time>2019-10-29T10:33:50.000Z</time>
      </trkpt>
      <trkpt lat="37.4142148531973361968994140625" lon="-3.2298498786985874176025390625">
        <ele>987.79998779296875</ele>
        <time>2019-10-29T10:33:55.000Z</time>
      </trkpt>
      <trkpt lat="37.41414603777229785919189453125" lon="-3.22990846820175647735595703125">
        <ele>988</ele>
        <time>2019-10-29T10:33:57.000Z</time>
      </trkpt>
      <trkpt lat="37.4139778129756450653076171875" lon="-3.2300694845616817474365234375">
        <ele>988.5999755859375</ele>
        <time>2019-10-29T10:34:02.000Z</time>
      </trkpt>
      <trkpt lat="37.4138105101883411407470703125" lon="-3.23021910153329372406005859375">
        <ele>989</ele>
        <time>2019-10-29T10:34:07.000Z</time>
      </trkpt>
      <trkpt lat="37.4137079156935214996337890625" lon="-3.230299651622772216796875">
        <ele>989</ele>
        <time>2019-10-29T10:34:10.000Z</time>
      </trkpt>
      <trkpt lat="37.413637340068817138671875" lon="-3.2303363643586635589599609375">
        <ele>989</ele>
        <time>2019-10-29T10:34:12.000Z</time>
      </trkpt>
      <trkpt lat="37.41352996788918972015380859375" lon="-3.23038355447351932525634765625">
        <ele>988.5999755859375</ele>
        <time>2019-10-29T10:34:15.000Z</time>
      </trkpt>
      <trkpt lat="37.4133796803653240203857421875" lon="-3.2304084487259387969970703125">
        <ele>987.5999755859375</ele>
        <time>2019-10-29T10:34:19.000Z</time>
      </trkpt>
      <trkpt lat="37.41322117857635021209716796875" lon="-3.2304351031780242919921875">
        <ele>986.5999755859375</ele>
        <time>2019-10-29T10:34:23.000Z</time>
      </trkpt>
      <trkpt lat="37.4130350165069103240966796875" lon="-3.230529986321926116943359375">
        <ele>985</ele>
        <time>2019-10-29T10:34:28.000Z</time>
      </trkpt>
      <trkpt lat="37.4128418974578380584716796875" lon="-3.230641968548297882080078125">
        <ele>984.4000244140625</ele>
        <time>2019-10-29T10:34:33.000Z</time>
      </trkpt>
      <trkpt lat="37.4126437492668628692626953125" lon="-3.2307454012334346771240234375">
        <ele>984.79998779296875</ele>
        <time>2019-10-29T10:34:38.000Z</time>
      </trkpt>
      <trkpt lat="37.4124613590538501739501953125" lon="-3.23087691329419612884521484375">
        <ele>986.4000244140625</ele>
        <time>2019-10-29T10:34:43.000Z</time>
      </trkpt>
      <trkpt lat="37.41227234713733196258544921875" lon="-3.23099643923342227935791015625">
        <ele>986.79998779296875</ele>
        <time>2019-10-29T10:34:48.000Z</time>
      </trkpt>
      <trkpt lat="37.41208769381046295166015625" lon="-3.231110014021396636962890625">
        <ele>986.5999755859375</ele>
        <time>2019-10-29T10:34:53.000Z</time>
      </trkpt>
      <trkpt lat="37.41198250092566013336181640625" lon="-3.23119274340569972991943359375">
        <ele>986.20001220703125</ele>
        <time>2019-10-29T10:34:56.000Z</time>
      </trkpt>
      <trkpt lat="37.41183280013501644134521484375" lon="-3.23136725462973117828369140625">
        <ele>986</ele>
        <time>2019-10-29T10:35:01.000Z</time>
      </trkpt>
      <trkpt lat="37.41171243600547313690185546875" lon="-3.2315664924681186676025390625">
        <ele>986</ele>
        <time>2019-10-29T10:35:06.000Z</time>
      </trkpt>
      <trkpt lat="37.411605231463909149169921875" lon="-3.23178098537027835845947265625">
        <ele>986.5999755859375</ele>
        <time>2019-10-29T10:35:11.000Z</time>
      </trkpt>
      <trkpt lat="37.4115028046071529388427734375" lon="-3.2319996692240238189697265625">
        <ele>987</ele>
        <time>2019-10-29T10:35:16.000Z</time>
      </trkpt>
      <trkpt lat="37.41140238940715789794921875" lon="-3.2322162576019763946533203125">
        <ele>987.4000244140625</ele>
        <time>2019-10-29T10:35:21.000Z</time>
      </trkpt>
      <trkpt lat="37.4113039858639240264892578125" lon="-3.2324355281889438629150390625">
        <ele>987.79998779296875</ele>
        <time>2019-10-29T10:35:26.000Z</time>
      </trkpt>
      <trkpt lat="37.411210276186466217041015625" lon="-3.232638873159885406494140625">
        <ele>988.20001220703125</ele>
        <time>2019-10-29T10:35:31.000Z</time>
      </trkpt>
      <trkpt lat="37.411118410527706146240234375" lon="-3.23283509351313114166259765625">
        <ele>988.5999755859375</ele>
        <time>2019-10-29T10:35:36.000Z</time>
      </trkpt>
      <trkpt lat="37.4110260419547557830810546875" lon="-3.233039863407611846923828125">
        <ele>989.4000244140625</ele>
        <time>2019-10-29T10:35:41.000Z</time>
      </trkpt>
      <trkpt lat="37.41092361509799957275390625" lon="-3.23324060998857021331787109375">
        <ele>990.5999755859375</ele>
        <time>2019-10-29T10:35:46.000Z</time>
      </trkpt>
      <trkpt lat="37.41082227788865566253662109375" lon="-3.23345552198588848114013671875">
        <ele>991</ele>
        <time>2019-10-29T10:35:53.000Z</time>
      </trkpt>
      <trkpt lat="37.41074047051370143890380859375" lon="-3.23366071097552776336669921875">
        <ele>990.4000244140625</ele>
        <time>2019-10-29T10:36:00.000Z</time>
      </trkpt>
      <trkpt lat="37.4106404744088649749755859375" lon="-3.23386388830840587615966796875">
        <ele>989.20001220703125</ele>
        <time>2019-10-29T10:36:06.000Z</time>
      </trkpt>
      <trkpt lat="37.410523630678653717041015625" lon="-3.2340829074382781982421875">
        <ele>988</ele>
        <time>2019-10-29T10:36:12.000Z</time>
      </trkpt>
      <trkpt lat="37.41043746471405029296875" lon="-3.23428482748568058013916015625">
        <ele>988.5999755859375</ele>
        <time>2019-10-29T10:36:17.000Z</time>
      </trkpt>
      <trkpt lat="37.4103420786559581756591796875" lon="-3.23449219577014446258544921875">
        <ele>989.4000244140625</ele>
        <time>2019-10-29T10:36:22.000Z</time>
      </trkpt>
      <trkpt lat="37.4102438427507877349853515625" lon="-3.23470861651003360748291015625">
        <ele>990</ele>
        <time>2019-10-29T10:36:27.000Z</time>
      </trkpt>
      <trkpt lat="37.4101446010172367095947265625" lon="-3.23492587544023990631103515625">
        <ele>990.4000244140625</ele>
        <time>2019-10-29T10:36:32.000Z</time>
      </trkpt>
      <trkpt lat="37.41004728712141513824462890625" lon="-3.23514212854206562042236328125">
        <ele>990.79998779296875</ele>
        <time>2019-10-29T10:36:37.000Z</time>
      </trkpt>
      <trkpt lat="37.40996732376515865325927734375" lon="-3.23537145741283893585205078125">
        <ele>991.5999755859375</ele>
        <time>2019-10-29T10:36:43.000Z</time>
      </trkpt>
      <trkpt lat="37.409933544695377349853515625" lon="-3.235482014715671539306640625">
        <ele>992</ele>
        <time>2019-10-29T10:36:51.000Z</time>
      </trkpt>
      <trkpt lat="37.40989842452108860015869140625" lon="-3.2355492375791072845458984375">
        <ele>991.79998779296875</ele>
        <time>2019-10-29T10:37:11.000Z</time>
      </trkpt>
      <trkpt lat="37.40979197435081005096435546875" lon="-3.235779739916324615478515625">
        <ele>991</ele>
        <time>2019-10-29T10:37:18.000Z</time>
      </trkpt>
      <trkpt lat="37.4096839316189289093017578125" lon="-3.23601334355771541595458984375">
        <ele>991</ele>
        <time>2019-10-29T10:37:24.000Z</time>
      </trkpt>
      <trkpt lat="37.40958142094314098358154296875" lon="-3.23621015064418315887451171875">
        <ele>991</ele>
        <time>2019-10-29T10:37:29.000Z</time>
      </trkpt>
      <trkpt lat="37.4094847775995731353759765625" lon="-3.23642112314701080322265625">
        <ele>991.79998779296875</ele>
        <time>2019-10-29T10:37:34.000Z</time>
      </trkpt>
      <trkpt lat="37.40938830189406871795654296875" lon="-3.23663301765918731689453125">
        <ele>992.79998779296875</ele>
        <time>2019-10-29T10:37:39.000Z</time>
      </trkpt>
      <trkpt lat="37.409299872815608978271484375" lon="-3.236853964626789093017578125">
        <ele>992.5999755859375</ele>
        <time>2019-10-29T10:37:44.000Z</time>
      </trkpt>
      <trkpt lat="37.40920029580593109130859375" lon="-3.2370750792324542999267578125">
        <ele>993</ele>
        <time>2019-10-29T10:37:49.000Z</time>
      </trkpt>
      <trkpt lat="37.4091015569865703582763671875" lon="-3.2372930087149143218994140625">
        <ele>992.79998779296875</ele>
        <time>2019-10-29T10:37:54.000Z</time>
      </trkpt>
      <trkpt lat="37.4090056680142879486083984375" lon="-3.23750867508351802825927734375">
        <ele>992.79998779296875</ele>
        <time>2019-10-29T10:37:59.000Z</time>
      </trkpt>
      <trkpt lat="37.4089111201465129852294921875" lon="-3.23771788738667964935302734375">
        <ele>993.20001220703125</ele>
        <time>2019-10-29T10:38:04.000Z</time>
      </trkpt>
      <trkpt lat="37.40881917066872119903564453125" lon="-3.23791838251054286956787109375">
        <ele>993.79998779296875</ele>
        <time>2019-10-29T10:38:09.000Z</time>
      </trkpt>
      <trkpt lat="37.40872479043900966644287109375" lon="-3.23811837472021579742431640625">
        <ele>994.4000244140625</ele>
        <time>2019-10-29T10:38:14.000Z</time>
      </trkpt>
      <trkpt lat="37.40863644517958164215087890625" lon="-3.23831551708281040191650390625">
        <ele>995</ele>
        <time>2019-10-29T10:38:19.000Z</time>
      </trkpt>
      <trkpt lat="37.40854826755821704864501953125" lon="-3.23851525783538818359375">
        <ele>994.79998779296875</ele>
        <time>2019-10-29T10:38:24.000Z</time>
      </trkpt>
      <trkpt lat="37.4084588326513767242431640625" lon="-3.23871298693120479583740234375">
        <ele>994.4000244140625</ele>
        <time>2019-10-29T10:38:29.000Z</time>
      </trkpt>
      <trkpt lat="37.4083652906119823455810546875" lon="-3.23891281150281429290771484375">
        <ele>994</ele>
        <time>2019-10-29T10:38:34.000Z</time>
      </trkpt>
      <trkpt lat="37.408265210688114166259765625" lon="-3.2391172461211681365966796875">
        <ele>994.20001220703125</ele>
        <time>2019-10-29T10:38:39.000Z</time>
      </trkpt>
      <trkpt lat="37.40816622041165828704833984375" lon="-3.2393241114914417266845703125">
        <ele>994.5999755859375</ele>
        <time>2019-10-29T10:38:44.000Z</time>
      </trkpt>
      <trkpt lat="37.4080725945532321929931640625" lon="-3.23952686972916126251220703125">
        <ele>993.79998779296875</ele>
        <time>2019-10-29T10:38:49.000Z</time>
      </trkpt>
      <trkpt lat="37.40798081271350383758544921875" lon="-3.23972753249108791351318359375">
        <ele>993</ele>
        <time>2019-10-29T10:38:54.000Z</time>
      </trkpt>
      <trkpt lat="37.4078848399221897125244140625" lon="-3.23995954357087612152099609375">
        <ele>993</ele>
        <time>2019-10-29T10:39:00.000Z</time>
      </trkpt>
      <trkpt lat="37.40779205225408077239990234375" lon="-3.24015366844832897186279296875">
        <ele>993</ele>
        <time>2019-10-29T10:39:05.000Z</time>
      </trkpt>
      <trkpt lat="37.40768426097929477691650390625" lon="-3.240342177450656890869140625">
        <ele>993.4000244140625</ele>
        <time>2019-10-29T10:39:10.000Z</time>
      </trkpt>
      <trkpt lat="37.40758166648447513580322265625" lon="-3.24054745025932788848876953125">
        <ele>994</ele>
        <time>2019-10-29T10:39:15.000Z</time>
      </trkpt>
      <trkpt lat="37.40751494653522968292236328125" lon="-3.2407735101878643035888671875">
        <ele>994</ele>
        <time>2019-10-29T10:39:20.000Z</time>
      </trkpt>
      <trkpt lat="37.4074734561145305633544921875" lon="-3.2410105504095554351806640625">
        <ele>995</ele>
        <time>2019-10-29T10:39:25.000Z</time>
      </trkpt>
      <trkpt lat="37.40742760710418224334716796875" lon="-3.24124398641288280487060546875">
        <ele>996</ele>
        <time>2019-10-29T10:39:30.000Z</time>
      </trkpt>
      <trkpt lat="37.40737999789416790008544921875" lon="-3.241476751863956451416015625">
        <ele>996.5999755859375</ele>
        <time>2019-10-29T10:39:35.000Z</time>
      </trkpt>
      <trkpt lat="37.40732534788548946380615234375" lon="-3.24171689338982105255126953125">
        <ele>996.5999755859375</ele>
        <time>2019-10-29T10:39:40.000Z</time>
      </trkpt>
      <trkpt lat="37.40726508200168609619140625" lon="-3.24195695109665393829345703125">
        <ele>996.4000244140625</ele>
        <time>2019-10-29T10:39:45.000Z</time>
      </trkpt>
      <trkpt lat="37.40720967762172222137451171875" lon="-3.24219851754605770111083984375">
        <ele>996</ele>
        <time>2019-10-29T10:39:50.000Z</time>
      </trkpt>
      <trkpt lat="37.4071572907269001007080078125" lon="-3.2424381561577320098876953125">
        <ele>996.20001220703125</ele>
        <time>2019-10-29T10:39:55.000Z</time>
      </trkpt>
      <trkpt lat="37.40711160935461521148681640625" lon="-3.2426916249096393585205078125">
        <ele>997.20001220703125</ele>
        <time>2019-10-29T10:40:00.000Z</time>
      </trkpt>
      <trkpt lat="37.4070553667843341827392578125" lon="-3.24294534511864185333251953125">
        <ele>997.5999755859375</ele>
        <time>2019-10-29T10:40:05.000Z</time>
      </trkpt>
      <trkpt lat="37.40699686110019683837890625" lon="-3.24319127015769481658935546875">
        <ele>997</ele>
        <time>2019-10-29T10:40:10.000Z</time>
      </trkpt>
      <trkpt lat="37.4069313146173954010009765625" lon="-3.243440128862857818603515625">
        <ele>997</ele>
        <time>2019-10-29T10:40:15.000Z</time>
      </trkpt>
      <trkpt lat="37.40687758661806583404541015625" lon="-3.24370608665049076080322265625">
        <ele>997.79998779296875</ele>
        <time>2019-10-29T10:40:20.000Z</time>
      </trkpt>
      <trkpt lat="37.40682796575129032135009765625" lon="-3.24392435140907764434814453125">
        <ele>998.79998779296875</ele>
        <time>2019-10-29T10:40:24.000Z</time>
      </trkpt>
      <trkpt lat="37.40676946006715297698974609375" lon="-3.24419592507183551788330078125">
        <ele>999.5999755859375</ele>
        <time>2019-10-29T10:40:29.000Z</time>
      </trkpt>
      <trkpt lat="37.406722269952297210693359375" lon="-3.24441486038267612457275390625">
        <ele>999.79998779296875</ele>
        <time>2019-10-29T10:40:33.000Z</time>
      </trkpt>
      <trkpt lat="37.4066550470888614654541015625" lon="-3.24468433856964111328125">
        <ele>1000</ele>
        <time>2019-10-29T10:40:38.000Z</time>
      </trkpt>
      <trkpt lat="37.40658857859671115875244140625" lon="-3.24489966966211795806884765625">
        <ele>1000.20001220703125</ele>
        <time>2019-10-29T10:40:42.000Z</time>
      </trkpt>
      <trkpt lat="37.40657265298068523406982421875" lon="-3.244952894747257232666015625">
        <ele>1000.20001220703125</ele>
        <time>2019-10-29T10:40:43.000Z</time>
      </trkpt>
      <trkpt lat="37.4065256305038928985595703125" lon="-3.24517317116260528564453125">
        <ele>1000</ele>
        <time>2019-10-29T10:40:47.000Z</time>
      </trkpt>
      <trkpt lat="37.4064783565700054168701171875" lon="-3.24539738707244396209716796875">
        <ele>1000</ele>
        <time>2019-10-29T10:40:51.000Z</time>
      </trkpt>
      <trkpt lat="37.4064367823302745819091796875" lon="-3.245621435344219207763671875">
        <ele>1000.4000244140625</ele>
        <time>2019-10-29T10:40:55.000Z</time>
      </trkpt>
      <trkpt lat="37.40640115924179553985595703125" lon="-3.24584699235856533050537109375">
        <ele>1000.79998779296875</ele>
        <time>2019-10-29T10:40:59.000Z</time>
      </trkpt>
      <trkpt lat="37.406357489526271820068359375" lon="-3.2460723817348480224609375">
        <ele>1001</ele>
        <time>2019-10-29T10:41:03.000Z</time>
      </trkpt>
      <trkpt lat="37.40631532855331897735595703125" lon="-3.246304728090763092041015625">
        <ele>1001</ele>
        <time>2019-10-29T10:41:07.000Z</time>
      </trkpt>
      <trkpt lat="37.40626084618270397186279296875" lon="-3.24653414078056812286376953125">
        <ele>1001</ele>
        <time>2019-10-29T10:41:11.000Z</time>
      </trkpt>
      <trkpt lat="37.4062007479369640350341796875" lon="-3.24675626121461391448974609375">
        <ele>1001</ele>
        <time>2019-10-29T10:41:15.000Z</time>
      </trkpt>
      <trkpt lat="37.40614928305149078369140625" lon="-3.24697754345834255218505859375">
        <ele>1001</ele>
        <time>2019-10-29T10:41:19.000Z</time>
      </trkpt>
      <trkpt lat="37.40610527805984020233154296875" lon="-3.24720553122460842132568359375">
        <ele>1000.79998779296875</ele>
        <time>2019-10-29T10:41:23.000Z</time>
      </trkpt>
      <trkpt lat="37.406089939177036285400390625" lon="-3.2473204471170902252197265625">
        <ele>1000.4000244140625</ele>
        <time>2019-10-29T10:41:25.000Z</time>
      </trkpt>
      <trkpt lat="37.406035624444484710693359375" lon="-3.2475420646369457244873046875">
        <ele>1000.20001220703125</ele>
        <time>2019-10-29T10:41:29.000Z</time>
      </trkpt>
      <trkpt lat="37.405992038547992706298828125" lon="-3.24776376597583293914794921875">
        <ele>1000.4000244140625</ele>
        <time>2019-10-29T10:41:33.000Z</time>
      </trkpt>
      <trkpt lat="37.405947782099246978759765625" lon="-3.247983120381832122802734375">
        <ele>1001</ele>
        <time>2019-10-29T10:41:37.000Z</time>
      </trkpt>
      <trkpt lat="37.40589204244315624237060546875" lon="-3.24825159274041652679443359375">
        <ele>1001.5999755859375</ele>
        <time>2019-10-29T10:41:42.000Z</time>
      </trkpt>
      <trkpt lat="37.4058346264064311981201171875" lon="-3.24851964600384235382080078125">
        <ele>1002</ele>
        <time>2019-10-29T10:41:47.000Z</time>
      </trkpt>
      <trkpt lat="37.4057798087596893310546875" lon="-3.24877965264022350311279296875">
        <ele>1002</ele>
        <time>2019-10-29T10:41:52.000Z</time>
      </trkpt>
      <trkpt lat="37.40574024617671966552734375" lon="-3.24898266233503818511962890625">
        <ele>1001.79998779296875</ele>
        <time>2019-10-29T10:41:56.000Z</time>
      </trkpt>
      <trkpt lat="37.4057114124298095703125" lon="-3.2492469437420368194580078125">
        <ele>1001.4000244140625</ele>
        <time>2019-10-29T10:42:01.000Z</time>
      </trkpt>
      <trkpt lat="37.40571350790560245513916015625" lon="-3.2495235465466976165771484375">
        <ele>1001</ele>
        <time>2019-10-29T10:42:06.000Z</time>
      </trkpt>
      <trkpt lat="37.4057481251657009124755859375" lon="-3.24979327619075775146484375">
        <ele>1001.20001220703125</ele>
        <time>2019-10-29T10:42:11.000Z</time>
      </trkpt>
      <trkpt lat="37.4057637155055999755859375" lon="-3.25005571357905864715576171875">
        <ele>1002.20001220703125</ele>
        <time>2019-10-29T10:42:16.000Z</time>
      </trkpt>
      <trkpt lat="37.40576815791428089141845703125" lon="-3.250305242836475372314453125">
        <ele>1002.20001220703125</ele>
        <time>2019-10-29T10:42:22.000Z</time>
      </trkpt>
      <trkpt lat="37.40576245822012424468994140625" lon="-3.25038059614598751068115234375">
        <ele>1002.20001220703125</ele>
        <time>2019-10-29T10:42:24.000Z</time>
      </trkpt>
      <trkpt lat="37.40573144517838954925537109375" lon="-3.2506031356751918792724609375">
        <ele>1002.20001220703125</ele>
        <time>2019-10-29T10:42:29.000Z</time>
      </trkpt>
      <trkpt lat="37.40566036663949489593505859375" lon="-3.2508240826427936553955078125">
        <ele>1002</ele>
        <time>2019-10-29T10:42:34.000Z</time>
      </trkpt>
      <trkpt lat="37.40560823120176792144775390625" lon="-3.25095073319971561431884765625">
        <ele>1002.4000244140625</ele>
        <time>2019-10-29T10:42:38.000Z</time>
      </trkpt>
      <trkpt lat="37.405565567314624786376953125" lon="-3.25119799934327602386474609375">
        <ele>1002.79998779296875</ele>
        <time>2019-10-29T10:42:45.000Z</time>
      </trkpt>
      <trkpt lat="37.4054956622421741485595703125" lon="-3.25141089968383312225341796875">
        <ele>1003</ele>
        <time>2019-10-29T10:42:51.000Z</time>
      </trkpt>
      <trkpt lat="37.40541175939142704010009765625" lon="-3.25164307840168476104736328125">
        <ele>1003.20001220703125</ele>
        <time>2019-10-29T10:42:57.000Z</time>
      </trkpt>
      <trkpt lat="37.40534319542348384857177734375" lon="-3.25185966677963733673095703125">
        <ele>1004</ele>
        <time>2019-10-29T10:43:02.000Z</time>
      </trkpt>
      <trkpt lat="37.405277900397777557373046875" lon="-3.25209519825875759124755859375">
        <ele>1004.79998779296875</ele>
        <time>2019-10-29T10:43:08.000Z</time>
      </trkpt>
      <trkpt lat="37.40520673803985118865966796875" lon="-3.25234279967844486236572265625">
        <ele>1004.4000244140625</ele>
        <time>2019-10-29T10:43:15.000Z</time>
      </trkpt>
      <trkpt lat="37.4051092565059661865234375" lon="-3.25255586765706539154052734375">
        <ele>1004</ele>
        <time>2019-10-29T10:43:21.000Z</time>
      </trkpt>
      <trkpt lat="37.404930554330348968505859375" lon="-3.252695091068744659423828125">
        <ele>1003.79998779296875</ele>
        <time>2019-10-29T10:43:27.000Z</time>
      </trkpt>
      <trkpt lat="37.40474246442317962646484375" lon="-3.2526717893779277801513671875">
        <ele>1003.20001220703125</ele>
        <time>2019-10-29T10:43:32.000Z</time>
      </trkpt>
      <trkpt lat="37.40456569008529186248779296875" lon="-3.25258838944137096405029296875">
        <ele>1003.4000244140625</ele>
        <time>2019-10-29T10:43:37.000Z</time>
      </trkpt>
      <trkpt lat="37.4043667875230312347412109375" lon="-3.25248646549880504608154296875">
        <ele>1004</ele>
        <time>2019-10-29T10:43:43.000Z</time>
      </trkpt>
      <trkpt lat="37.4041991494596004486083984375" lon="-3.2524032332003116607666015625">
        <ele>1004.79998779296875</ele>
        <time>2019-10-29T10:43:48.000Z</time>
      </trkpt>
      <trkpt lat="37.40402975119650363922119140625" lon="-3.2523137144744396209716796875">
        <ele>1005</ele>
        <time>2019-10-29T10:43:53.000Z</time>
      </trkpt>
      <trkpt lat="37.40385867655277252197265625" lon="-3.25223140418529510498046875">
        <ele>1005.79998779296875</ele>
        <time>2019-10-29T10:43:58.000Z</time>
      </trkpt>
      <trkpt lat="37.40368609316647052764892578125" lon="-3.25215739198029041290283203125">
        <ele>1006</ele>
        <time>2019-10-29T10:44:03.000Z</time>
      </trkpt>
      <trkpt lat="37.40351292304694652557373046875" lon="-3.2520724833011627197265625">
        <ele>1006</ele>
        <time>2019-10-29T10:44:08.000Z</time>
      </trkpt>
      <trkpt lat="37.40333841182291507720947265625" lon="-3.25198573060333728790283203125">
        <ele>1005.5999755859375</ele>
        <time>2019-10-29T10:44:13.000Z</time>
      </trkpt>
      <trkpt lat="37.40316641516983509063720703125" lon="-3.251903839409351348876953125">
        <ele>1005.20001220703125</ele>
        <time>2019-10-29T10:44:18.000Z</time>
      </trkpt>
      <trkpt lat="37.40299441851675510406494140625" lon="-3.2518148235976696014404296875">
        <ele>1004.79998779296875</ele>
        <time>2019-10-29T10:44:23.000Z</time>
      </trkpt>
      <trkpt lat="37.40281756035983562469482421875" lon="-3.251727484166622161865234375">
        <ele>1004.4000244140625</ele>
        <time>2019-10-29T10:44:28.000Z</time>
      </trkpt>
      <trkpt lat="37.4026367627084255218505859375" lon="-3.25163670815527439117431640625">
        <ele>1004.4000244140625</ele>
        <time>2019-10-29T10:44:33.000Z</time>
      </trkpt>
      <trkpt lat="37.4024540372192859649658203125" lon="-3.251544423401355743408203125">
        <ele>1005</ele>
        <time>2019-10-29T10:44:38.000Z</time>
      </trkpt>
      <trkpt lat="37.40226653404533863067626953125" lon="-3.25145247392356395721435546875">
        <ele>1005.79998779296875</ele>
        <time>2019-10-29T10:44:43.000Z</time>
      </trkpt>
      <trkpt lat="37.40208447910845279693603515625" lon="-3.25135038234293460845947265625">
        <ele>1006.5999755859375</ele>
        <time>2019-10-29T10:44:48.000Z</time>
      </trkpt>
      <trkpt lat="37.4018974788486957550048828125" lon="-3.2512636296451091766357421875">
        <ele>1007</ele>
        <time>2019-10-29T10:44:53.000Z</time>
      </trkpt>
      <trkpt lat="37.4017063714563846588134765625" lon="-3.25117302127182483673095703125">
        <ele>1007</ele>
        <time>2019-10-29T10:44:58.000Z</time>
      </trkpt>
      <trkpt lat="37.4015155993402004241943359375" lon="-3.25106305070221424102783203125">
        <ele>1007.4000244140625</ele>
        <time>2019-10-29T10:45:03.000Z</time>
      </trkpt>
      <trkpt lat="37.40134921856224536895751953125" lon="-3.25097286142408847808837890625">
        <ele>1008</ele>
        <time>2019-10-29T10:45:07.000Z</time>
      </trkpt>
      <trkpt lat="37.40118141286075115203857421875" lon="-3.25088401325047016143798828125">
        <ele>1008.5999755859375</ele>
        <time>2019-10-29T10:45:11.000Z</time>
      </trkpt>
      <trkpt lat="37.40101109258830547332763671875" lon="-3.2507918961346149444580078125">
        <ele>1009</ele>
        <time>2019-10-29T10:45:15.000Z</time>
      </trkpt>
      <trkpt lat="37.40084311924874782562255859375" lon="-3.25070396997034549713134765625">
        <ele>1009</ele>
        <time>2019-10-29T10:45:19.000Z</time>
      </trkpt>
      <trkpt lat="37.4006733857095241546630859375" lon="-3.250612355768680572509765625">
        <ele>1008.5999755859375</ele>
        <time>2019-10-29T10:45:23.000Z</time>
      </trkpt>
      <trkpt lat="37.40050465799868106842041015625" lon="-3.2505266927182674407958984375">
        <ele>1008.5999755859375</ele>
        <time>2019-10-29T10:45:27.000Z</time>
      </trkpt>
      <trkpt lat="37.40033182315528392791748046875" lon="-3.25043566524982452392578125">
        <ele>1008.20001220703125</ele>
        <time>2019-10-29T10:45:31.000Z</time>
      </trkpt>
      <trkpt lat="37.40015731193125247955322265625" lon="-3.25033885426819324493408203125">
        <ele>1007.5999755859375</ele>
        <time>2019-10-29T10:45:35.000Z</time>
      </trkpt>
      <trkpt lat="37.3999837227165699005126953125" lon="-3.2502433843910694122314453125">
        <ele>1006.79998779296875</ele>
        <time>2019-10-29T10:45:39.000Z</time>
      </trkpt>
      <trkpt lat="37.399805523455142974853515625" lon="-3.25014372356235980987548828125">
        <ele>1006</ele>
        <time>2019-10-29T10:45:43.000Z</time>
      </trkpt>
      <trkpt lat="37.3996256478130817413330078125" lon="-3.2500452362000942230224609375">
        <ele>1006.5999755859375</ele>
        <time>2019-10-29T10:45:47.000Z</time>
      </trkpt>
      <trkpt lat="37.39945239387452602386474609375" lon="-3.24995513074100017547607421875">
        <ele>1006.79998779296875</ele>
        <time>2019-10-29T10:45:51.000Z</time>
      </trkpt>
      <trkpt lat="37.39925877191126346588134765625" lon="-3.24987508356571197509765625">
        <ele>1006.5999755859375</ele>
        <time>2019-10-29T10:45:56.000Z</time>
      </trkpt>
      <trkpt lat="37.3992166109383106231689453125" lon="-3.24986326508224010467529296875">
        <ele>1006.5999755859375</ele>
        <time>2019-10-29T10:45:57.000Z</time>
      </trkpt>
      <trkpt lat="37.3990114219486713409423828125" lon="-3.24990056455135345458984375">
        <ele>1006.79998779296875</ele>
        <time>2019-10-29T10:46:01.000Z</time>
      </trkpt>
      <trkpt lat="37.39884504117071628570556640625" lon="-3.250043392181396484375">
        <ele>1005.79998779296875</ele>
        <time>2019-10-29T10:46:04.000Z</time>
      </trkpt>
      <trkpt lat="37.3987405188381671905517578125" lon="-3.25019183568656444549560546875">
        <ele>1005</ele>
        <time>2019-10-29T10:46:06.000Z</time>
      </trkpt>
      <trkpt lat="37.39858545362949371337890625" lon="-3.25044228695333003997802734375">
        <ele>1002.5999755859375</ele>
        <time>2019-10-29T10:46:09.000Z</time>
      </trkpt>
      <trkpt lat="37.3984627425670623779296875" lon="-3.250609003007411956787109375">
        <ele>1001.20001220703125</ele>
        <time>2019-10-29T10:46:11.000Z</time>
      </trkpt>
      <trkpt lat="37.3983117006719112396240234375" lon="-3.25074839405715465545654296875">
        <ele>1000.20001220703125</ele>
        <time>2019-10-29T10:46:13.000Z</time>
      </trkpt>
      <trkpt lat="37.39814397878944873809814453125" lon="-3.25085484422743320465087890625">
        <ele>999.4000244140625</ele>
        <time>2019-10-29T10:46:15.000Z</time>
      </trkpt>
      <trkpt lat="37.39805697463452816009521484375" lon="-3.250898011028766632080078125">
        <ele>999</ele>
        <time>2019-10-29T10:46:16.000Z</time>
      </trkpt>
      <trkpt lat="37.39788539707660675048828125" lon="-3.25097747147083282470703125">
        <ele>999</ele>
        <time>2019-10-29T10:46:18.000Z</time>
      </trkpt>
      <trkpt lat="37.3976471833884716033935546875" lon="-3.2510936446487903594970703125">
        <ele>1000</ele>
        <time>2019-10-29T10:46:21.000Z</time>
      </trkpt>
      <trkpt lat="37.397429756820201873779296875" lon="-3.251193054020404815673828125">
        <ele>1001.79998779296875</ele>
        <time>2019-10-29T10:46:24.000Z</time>
      </trkpt>
      <trkpt lat="37.39723487757146358489990234375" lon="-3.251282908022403717041015625">
        <ele>1003.5999755859375</ele>
        <time>2019-10-29T10:46:27.000Z</time>
      </trkpt>
      <trkpt lat="37.39702172577381134033203125" lon="-3.25138977728784084320068359375">
        <ele>1005.4000244140625</ele>
        <time>2019-10-29T10:46:31.000Z</time>
      </trkpt>
      <trkpt lat="37.39683623425662517547607421875" lon="-3.25148114003241062164306640625">
        <ele>1006.79998779296875</ele>
        <time>2019-10-29T10:46:36.000Z</time>
      </trkpt>
      <trkpt lat="37.39680371247231960296630859375" lon="-3.251496143639087677001953125">
        <ele>1007</ele>
        <time>2019-10-29T10:46:37.000Z</time>
      </trkpt>
      <trkpt lat="37.396740429103374481201171875" lon="-3.251526318490505218505859375">
        <ele>1007.20001220703125</ele>
        <time>2019-10-29T10:46:39.000Z</time>
      </trkpt>
      <trkpt lat="37.39667999558150768280029296875" lon="-3.25155708007514476776123046875">
        <ele>1007.5999755859375</ele>
        <time>2019-10-29T10:46:41.000Z</time>
      </trkpt>
      <trkpt lat="37.39650682546198368072509765625" lon="-3.25166185386478900909423828125">
        <ele>1009</ele>
        <time>2019-10-29T10:46:47.000Z</time>
      </trkpt>
      <trkpt lat="37.396423257887363433837890625" lon="-3.25171767733991146087646484375">
        <ele>1009.79998779296875</ele>
        <time>2019-10-29T10:46:50.000Z</time>
      </trkpt>
      <trkpt lat="37.39629794843494892120361328125" lon="-3.25182245112955570220947265625">
        <ele>1011.20001220703125</ele>
        <time>2019-10-29T10:46:55.000Z</time>
      </trkpt>
      <trkpt lat="37.3962204158306121826171875" lon="-3.25191699899733066558837890625">
        <ele>1012.20001220703125</ele>
        <time>2019-10-29T10:46:59.000Z</time>
      </trkpt>
      <trkpt lat="37.39609091542661190032958984375" lon="-3.25208430178463459014892578125">
        <ele>1013.5999755859375</ele>
        <time>2019-10-29T10:47:06.000Z</time>
      </trkpt>
      <trkpt lat="37.39598262123763561248779296875" lon="-3.252235092222690582275390625">
        <ele>1013.79998779296875</ele>
        <time>2019-10-29T10:47:12.000Z</time>
      </trkpt>
      <trkpt lat="37.3958765901625156402587890625" lon="-3.25241555459797382354736328125">
        <ele>1014.4000244140625</ele>
        <time>2019-10-29T10:47:19.000Z</time>
      </trkpt>
      <trkpt lat="37.39576167427003383636474609375" lon="-3.25259308330714702606201171875">
        <ele>1015.5999755859375</ele>
        <time>2019-10-29T10:47:26.000Z</time>
      </trkpt>
      <trkpt lat="37.39564298652112483978271484375" lon="-3.2527706958353519439697265625">
        <ele>1016.5999755859375</ele>
        <time>2019-10-29T10:47:33.000Z</time>
      </trkpt>
      <trkpt lat="37.3955309204757213592529296875" lon="-3.25295954011380672454833984375">
        <ele>1017</ele>
        <time>2019-10-29T10:47:40.000Z</time>
      </trkpt>
      <trkpt lat="37.39541566930711269378662109375" lon="-3.2531480491161346435546875">
        <ele>1016.5999755859375</ele>
        <time>2019-10-29T10:47:47.000Z</time>
      </trkpt>
      <trkpt lat="37.3953046090900897979736328125" lon="-3.2533369772136211395263671875">
        <ele>1016.79998779296875</ele>
        <time>2019-10-29T10:47:54.000Z</time>
      </trkpt>
      <trkpt lat="37.39519136957824230194091796875" lon="-3.253539986908435821533203125">
        <ele>1018</ele>
        <time>2019-10-29T10:48:01.000Z</time>
      </trkpt>
      <trkpt lat="37.39507352001965045928955078125" lon="-3.25373570434749126434326171875">
        <ele>1019.4000244140625</ele>
        <time>2019-10-29T10:48:08.000Z</time>
      </trkpt>
      <trkpt lat="37.3949559219181537628173828125" lon="-3.2539404742419719696044921875">
        <ele>1021.20001220703125</ele>
        <time>2019-10-29T10:48:15.000Z</time>
      </trkpt>
      <trkpt lat="37.394844777882099151611328125" lon="-3.25412462465465068817138671875">
        <ele>1021.79998779296875</ele>
        <time>2019-10-29T10:48:21.000Z</time>
      </trkpt>
      <trkpt lat="37.39471259526908397674560546875" lon="-3.254327215254306793212890625">
        <ele>1021</ele>
        <time>2019-10-29T10:48:27.000Z</time>
      </trkpt>
      <trkpt lat="37.3945995233952999114990234375" lon="-3.25452511198818683624267578125">
        <ele>1020.5999755859375</ele>
        <time>2019-10-29T10:48:32.000Z</time>
      </trkpt>
      <trkpt lat="37.3944608867168426513671875" lon="-3.25473030097782611846923828125">
        <ele>1019.4000244140625</ele>
        <time>2019-10-29T10:48:37.000Z</time>
      </trkpt>
      <trkpt lat="37.394310347735881805419921875" lon="-3.25490665622055530548095703125">
        <ele>1018.5999755859375</ele>
        <time>2019-10-29T10:48:42.000Z</time>
      </trkpt>
      <trkpt lat="37.3941686935722827911376953125" lon="-3.2550619728863239288330078125">
        <ele>1019</ele>
        <time>2019-10-29T10:48:47.000Z</time>
      </trkpt>
      <trkpt lat="37.39402863197028636932373046875" lon="-3.25521460734307765960693359375">
        <ele>1019.5999755859375</ele>
        <time>2019-10-29T10:48:52.000Z</time>
      </trkpt>
      <trkpt lat="37.39387817680835723876953125" lon="-3.25538375414907932281494140625">
        <ele>1019.5999755859375</ele>
        <time>2019-10-29T10:48:57.000Z</time>
      </trkpt>
      <trkpt lat="37.39372193813323974609375" lon="-3.2555461116135120391845703125">
        <ele>1020.20001220703125</ele>
        <time>2019-10-29T10:49:02.000Z</time>
      </trkpt>
      <trkpt lat="37.3935762606561183929443359375" lon="-3.2557194493710994720458984375">
        <ele>1020.79998779296875</ele>
        <time>2019-10-29T10:49:07.000Z</time>
      </trkpt>
      <trkpt lat="37.39341189153492450714111328125" lon="-3.2558914460241794586181640625">
        <ele>1021.5999755859375</ele>
        <time>2019-10-29T10:49:12.000Z</time>
      </trkpt>
      <trkpt lat="37.3932523839175701141357421875" lon="-3.25608314014971256256103515625">
        <ele>1022</ele>
        <time>2019-10-29T10:49:17.000Z</time>
      </trkpt>
      <trkpt lat="37.39311131648719310760498046875" lon="-3.2562434859573841094970703125">
        <ele>1022</ele>
        <time>2019-10-29T10:49:21.000Z</time>
      </trkpt>
      <trkpt lat="37.3929704166948795318603515625" lon="-3.256398551166057586669921875">
        <ele>1021.79998779296875</ele>
        <time>2019-10-29T10:49:25.000Z</time>
      </trkpt>
      <trkpt lat="37.39283052273094654083251953125" lon="-3.25655722059309482574462890625">
        <ele>1021.20001220703125</ele>
        <time>2019-10-29T10:49:29.000Z</time>
      </trkpt>
      <trkpt lat="37.392679564654827117919921875" lon="-3.25671664439141750335693359375">
        <ele>1021.4000244140625</ele>
        <time>2019-10-29T10:49:33.000Z</time>
      </trkpt>
      <trkpt lat="37.39253128878772258758544921875" lon="-3.25688428245484828948974609375">
        <ele>1022</ele>
        <time>2019-10-29T10:49:37.000Z</time>
      </trkpt>
      <trkpt lat="37.39237991161644458770751953125" lon="-3.25705661438405513763427734375">
        <ele>1022.4000244140625</ele>
        <time>2019-10-29T10:49:41.000Z</time>
      </trkpt>
      <trkpt lat="37.3922301270067691802978515625" lon="-3.25722442008554935455322265625">
        <ele>1022.79998779296875</ele>
        <time>2019-10-29T10:49:45.000Z</time>
      </trkpt>
      <trkpt lat="37.39208570681512355804443359375" lon="-3.257386945188045501708984375">
        <ele>1024.199951171875</ele>
        <time>2019-10-29T10:49:49.000Z</time>
      </trkpt>
      <trkpt lat="37.39193382672965526580810546875" lon="-3.25755030848085880279541015625">
        <ele>1025</ele>
        <time>2019-10-29T10:49:53.000Z</time>
      </trkpt>
      <trkpt lat="37.39177674986422061920166015625" lon="-3.2577170245349407196044921875">
        <ele>1025</ele>
        <time>2019-10-29T10:49:57.000Z</time>
      </trkpt>
      <trkpt lat="37.3916246183216571807861328125" lon="-3.25787183828651905059814453125">
        <ele>1024</ele>
        <time>2019-10-29T10:50:01.000Z</time>
      </trkpt>
      <trkpt lat="37.39148790948092937469482421875" lon="-3.25801986269652843475341796875">
        <ele>1023.4000244140625</ele>
        <time>2019-10-29T10:50:05.000Z</time>
      </trkpt>
      <trkpt lat="37.3913245461881160736083984375" lon="-3.2581857405602931976318359375">
        <ele>1023</ele>
        <time>2019-10-29T10:50:10.000Z</time>
      </trkpt>
      <trkpt lat="37.39121063612401485443115234375" lon="-3.2583124749362468719482421875">
        <ele>1023.20001220703125</ele>
        <time>2019-10-29T10:50:14.000Z</time>
      </trkpt>
      <trkpt lat="37.39106814377009868621826171875" lon="-3.2584747485816478729248046875">
        <ele>1023.5999755859375</ele>
        <time>2019-10-29T10:50:19.000Z</time>
      </trkpt>
      <trkpt lat="37.39090788178145885467529296875" lon="-3.25865152291953563690185546875">
        <ele>1023.5999755859375</ele>
        <time>2019-10-29T10:50:24.000Z</time>
      </trkpt>
      <trkpt lat="37.390742003917694091796875" lon="-3.25883634388446807861328125">
        <ele>1023.5999755859375</ele>
        <time>2019-10-29T10:50:29.000Z</time>
      </trkpt>
      <trkpt lat="37.39057528786361217498779296875" lon="-3.259025104343891143798828125">
        <ele>1023</ele>
        <time>2019-10-29T10:50:34.000Z</time>
      </trkpt>
      <trkpt lat="37.39040605723857879638671875" lon="-3.25920917093753814697265625">
        <ele>1022.5999755859375</ele>
        <time>2019-10-29T10:50:39.000Z</time>
      </trkpt>
      <trkpt lat="37.3902355693280696868896484375" lon="-3.25939047150313854217529296875">
        <ele>1022</ele>
        <time>2019-10-29T10:50:44.000Z</time>
      </trkpt>
      <trkpt lat="37.39006466232240200042724609375" lon="-3.25956313870847225189208984375">
        <ele>1022.5999755859375</ele>
        <time>2019-10-29T10:50:49.000Z</time>
      </trkpt>
      <trkpt lat="37.38989652134478092193603515625" lon="-3.25974569655954837799072265625">
        <ele>1023.5999755859375</ele>
        <time>2019-10-29T10:50:54.000Z</time>
      </trkpt>
      <trkpt lat="37.38972955383360385894775390625" lon="-3.25991601683199405670166015625">
        <ele>1024.800048828125</ele>
        <time>2019-10-29T10:50:59.000Z</time>
      </trkpt>
      <trkpt lat="37.389599382877349853515625" lon="-3.26006613671779632568359375">
        <ele>1024.800048828125</ele>
        <time>2019-10-29T10:51:03.000Z</time>
      </trkpt>
      <trkpt lat="37.38943987525999546051025390625" lon="-3.2602423243224620819091796875">
        <ele>1025</ele>
        <time>2019-10-29T10:51:08.000Z</time>
      </trkpt>
      <trkpt lat="37.3892763443291187286376953125" lon="-3.260429911315441131591796875">
        <ele>1025.4000244140625</ele>
        <time>2019-10-29T10:51:13.000Z</time>
      </trkpt>
      <trkpt lat="37.38914030604064464569091796875" lon="-3.260586820542812347412109375">
        <ele>1026.4000244140625</ele>
        <time>2019-10-29T10:51:17.000Z</time>
      </trkpt>
      <trkpt lat="37.38900653086602687835693359375" lon="-3.2607445679605007171630859375">
        <ele>1027</ele>
        <time>2019-10-29T10:51:21.000Z</time>
      </trkpt>
      <trkpt lat="37.388856746256351470947265625" lon="-3.26090675778687000274658203125">
        <ele>1027</ele>
        <time>2019-10-29T10:51:25.000Z</time>
      </trkpt>
      <trkpt lat="37.38872020505368709564208984375" lon="-3.26106735505163669586181640625">
        <ele>1027</ele>
        <time>2019-10-29T10:51:29.000Z</time>
      </trkpt>
      <trkpt lat="37.388552315533161163330078125" lon="-3.26124739833176136016845703125">
        <ele>1027</ele>
        <time>2019-10-29T10:51:34.000Z</time>
      </trkpt>
      <trkpt lat="37.3883858509361743927001953125" lon="-3.26142895035445690155029296875">
        <ele>1027</ele>
        <time>2019-10-29T10:51:39.000Z</time>
      </trkpt>
      <trkpt lat="37.3882115073502063751220703125" lon="-3.26160614378750324249267578125">
        <ele>1027</ele>
        <time>2019-10-29T10:51:44.000Z</time>
      </trkpt>
      <trkpt lat="37.3880472220480442047119140625" lon="-3.26178702525794506072998046875">
        <ele>1026.4000244140625</ele>
        <time>2019-10-29T10:51:49.000Z</time>
      </trkpt>
      <trkpt lat="37.387879081070423126220703125" lon="-3.26196773909032344818115234375">
        <ele>1027.5999755859375</ele>
        <time>2019-10-29T10:51:54.000Z</time>
      </trkpt>
      <trkpt lat="37.3877209983766078948974609375" lon="-3.26213504187762737274169921875">
        <ele>1029.800048828125</ele>
        <time>2019-10-29T10:51:59.000Z</time>
      </trkpt>
      <trkpt lat="37.387557886540889739990234375" lon="-3.26231181621551513671875">
        <ele>1030.5999755859375</ele>
        <time>2019-10-29T10:52:04.000Z</time>
      </trkpt>
      <trkpt lat="37.387385554611682891845703125" lon="-3.26248959638178348541259765625">
        <ele>1030.800048828125</ele>
        <time>2019-10-29T10:52:09.000Z</time>
      </trkpt>
      <trkpt lat="37.3872288130223751068115234375" lon="-3.2626819610595703125">
        <ele>1030.199951171875</ele>
        <time>2019-10-29T10:52:14.000Z</time>
      </trkpt>
      <trkpt lat="37.38713133148849010467529296875" lon="-3.26279805041849613189697265625">
        <ele>1030.4000244140625</ele>
        <time>2019-10-29T10:52:17.000Z</time>
      </trkpt>
      <trkpt lat="37.38696889020502567291259765625" lon="-3.26296786777675151824951171875">
        <ele>1031</ele>
        <time>2019-10-29T10:52:22.000Z</time>
      </trkpt>
      <trkpt lat="37.38683125935494899749755859375" lon="-3.26311522163450717926025390625">
        <ele>1031.5999755859375</ele>
        <time>2019-10-29T10:52:26.000Z</time>
      </trkpt>
      <trkpt lat="37.3866705782711505889892578125" lon="-3.2632993720471858978271484375">
        <ele>1032.199951171875</ele>
        <time>2019-10-29T10:52:31.000Z</time>
      </trkpt>
      <trkpt lat="37.38650268875062465667724609375" lon="-3.26348192989826202392578125">
        <ele>1032.199951171875</ele>
        <time>2019-10-29T10:52:36.000Z</time>
      </trkpt>
      <trkpt lat="37.38632909953594207763671875" lon="-3.26366121880710124969482421875">
        <ele>1031.5999755859375</ele>
        <time>2019-10-29T10:52:41.000Z</time>
      </trkpt>
      <trkpt lat="37.38617361523211002349853515625" lon="-3.26384545303881168365478515625">
        <ele>1031</ele>
        <time>2019-10-29T10:52:46.000Z</time>
      </trkpt>
      <trkpt lat="37.386008910834789276123046875" lon="-3.2640297710895538330078125">
        <ele>1032</ele>
        <time>2019-10-29T10:52:51.000Z</time>
      </trkpt>
      <trkpt lat="37.38587555475533008575439453125" lon="-3.26418198645114898681640625">
        <ele>1033</ele>
        <time>2019-10-29T10:52:55.000Z</time>
      </trkpt>
      <trkpt lat="37.38570909015834331512451171875" lon="-3.2643628679215908050537109375">
        <ele>1033.5999755859375</ele>
        <time>2019-10-29T10:53:00.000Z</time>
      </trkpt>
      <trkpt lat="37.385551929473876953125" lon="-3.2645367085933685302734375">
        <ele>1034.199951171875</ele>
        <time>2019-10-29T10:53:05.000Z</time>
      </trkpt>
      <trkpt lat="37.38539879210293292999267578125" lon="-3.26470057480037212371826171875">
        <ele>1035.199951171875</ele>
        <time>2019-10-29T10:53:10.000Z</time>
      </trkpt>
      <trkpt lat="37.38524372689425945281982421875" lon="-3.26487072743475437164306640625">
        <ele>1035.800048828125</ele>
        <time>2019-10-29T10:53:15.000Z</time>
      </trkpt>
      <trkpt lat="37.38509285263717174530029296875" lon="-3.2650374434888362884521484375">
        <ele>1036.5999755859375</ele>
        <time>2019-10-29T10:53:20.000Z</time>
      </trkpt>
      <trkpt lat="37.3849392123520374298095703125" lon="-3.2652080990374088287353515625">
        <ele>1037</ele>
        <time>2019-10-29T10:53:25.000Z</time>
      </trkpt>
      <trkpt lat="37.38478523679077625274658203125" lon="-3.26537934131920337677001953125">
        <ele>1037</ele>
        <time>2019-10-29T10:53:30.000Z</time>
      </trkpt>
      <trkpt lat="37.38463201560080051422119140625" lon="-3.26554748229682445526123046875">
        <ele>1037.199951171875</ele>
        <time>2019-10-29T10:53:35.000Z</time>
      </trkpt>
      <trkpt lat="37.38447393290698528289794921875" lon="-3.26570422388613224029541015625">
        <ele>1037.800048828125</ele>
        <time>2019-10-29T10:53:40.000Z</time>
      </trkpt>
      <trkpt lat="37.3843826539814472198486328125" lon="-3.2658018730580806732177734375">
        <ele>1038</ele>
        <time>2019-10-29T10:53:43.000Z</time>
      </trkpt>
      <trkpt lat="37.38429866731166839599609375" lon="-3.26591159217059612274169921875">
        <ele>1038.199951171875</ele>
        <time>2019-10-29T10:53:46.000Z</time>
      </trkpt>
      <trkpt lat="37.38414284773170948028564453125" lon="-3.266069591045379638671875">
        <ele>1038.199951171875</ele>
        <time>2019-10-29T10:53:51.000Z</time>
      </trkpt>
      <trkpt lat="37.38399230875074863433837890625" lon="-3.266238905489444732666015625">
        <ele>1038.800048828125</ele>
        <time>2019-10-29T10:53:56.000Z</time>
      </trkpt>
      <trkpt lat="37.38384135067462921142578125" lon="-3.26640780083835124969482421875">
        <ele>1039.4000244140625</ele>
        <time>2019-10-29T10:54:01.000Z</time>
      </trkpt>
      <trkpt lat="37.38369047641754150390625" lon="-3.2665765285491943359375">
        <ele>1040</ele>
        <time>2019-10-29T10:54:06.000Z</time>
      </trkpt>
      <trkpt lat="37.3835347406566143035888671875" lon="-3.26674886047840118408203125">
        <ele>1039.800048828125</ele>
        <time>2019-10-29T10:54:11.000Z</time>
      </trkpt>
      <trkpt lat="37.38337330520153045654296875" lon="-3.26692228205502033233642578125">
        <ele>1039.4000244140625</ele>
        <time>2019-10-29T10:54:16.000Z</time>
      </trkpt>
      <trkpt lat="37.383213378489017486572265625" lon="-3.26709612272679805755615234375">
        <ele>1039.4000244140625</ele>
        <time>2019-10-29T10:54:21.000Z</time>
      </trkpt>
      <trkpt lat="37.3830569721758365631103515625" lon="-3.267272226512432098388671875">
        <ele>1040</ele>
        <time>2019-10-29T10:54:26.000Z</time>
      </trkpt>
      <trkpt lat="37.3828926868736743927001953125" lon="-3.267451263964176177978515625">
        <ele>1040.5999755859375</ele>
        <time>2019-10-29T10:54:31.000Z</time>
      </trkpt>
      <trkpt lat="37.382729910314083099365234375" lon="-3.26763264834880828857421875">
        <ele>1041.4000244140625</ele>
        <time>2019-10-29T10:54:36.000Z</time>
      </trkpt>
      <trkpt lat="37.38256788812577724456787109375" lon="-3.26781076379120349884033203125">
        <ele>1042</ele>
        <time>2019-10-29T10:54:41.000Z</time>
      </trkpt>
      <trkpt lat="37.3824083805084228515625" lon="-3.26798577792942523956298828125">
        <ele>1043</ele>
        <time>2019-10-29T10:54:46.000Z</time>
      </trkpt>
      <trkpt lat="37.38231190480291843414306640625" lon="-3.2680840976536273956298828125">
        <ele>1043</ele>
        <time>2019-10-29T10:54:49.000Z</time>
      </trkpt>
      <trkpt lat="37.38214929588139057159423828125" lon="-3.2682581059634685516357421875">
        <ele>1043</ele>
        <time>2019-10-29T10:54:54.000Z</time>
      </trkpt>
      <trkpt lat="37.38199238665401935577392578125" lon="-3.268440999090671539306640625">
        <ele>1043</ele>
        <time>2019-10-29T10:54:59.000Z</time>
      </trkpt>
      <trkpt lat="37.381832040846347808837890625" lon="-3.268605284392833709716796875">
        <ele>1043</ele>
        <time>2019-10-29T10:55:04.000Z</time>
      </trkpt>
      <trkpt lat="37.3817681707441806793212890625" lon="-3.26866990886628627777099609375">
        <ele>1043</ele>
        <time>2019-10-29T10:55:06.000Z</time>
      </trkpt>
      <trkpt lat="37.38162048161029815673828125" lon="-3.26885045506060123443603515625">
        <ele>1043.199951171875</ele>
        <time>2019-10-29T10:55:11.000Z</time>
      </trkpt>
      <trkpt lat="37.38146751187741756439208984375" lon="-3.26901926659047603607177734375">
        <ele>1045.4000244140625</ele>
        <time>2019-10-29T10:55:16.000Z</time>
      </trkpt>
      <trkpt lat="37.3813155479729175567626953125" lon="-3.2691876590251922607421875">
        <ele>1047.4000244140625</ele>
        <time>2019-10-29T10:55:21.000Z</time>
      </trkpt>
      <trkpt lat="37.38116341643035411834716796875" lon="-3.26935596764087677001953125">
        <ele>1048</ele>
        <time>2019-10-29T10:55:26.000Z</time>
      </trkpt>
      <trkpt lat="37.381009273231029510498046875" lon="-3.269518911838531494140625">
        <ele>1047.800048828125</ele>
        <time>2019-10-29T10:55:31.000Z</time>
      </trkpt>
      <trkpt lat="37.38086066208779811859130859375" lon="-3.26968696899712085723876953125">
        <ele>1047.4000244140625</ele>
        <time>2019-10-29T10:55:36.000Z</time>
      </trkpt>
      <trkpt lat="37.38071196712553501129150390625" lon="-3.26985158957540988922119140625">
        <ele>1047.5999755859375</ele>
        <time>2019-10-29T10:55:41.000Z</time>
      </trkpt>
      <trkpt lat="37.3805621825158596038818359375" lon="-3.2700166292488574981689453125">
        <ele>1048.199951171875</ele>
        <time>2019-10-29T10:55:46.000Z</time>
      </trkpt>
      <trkpt lat="37.38041223026812076568603515625" lon="-3.2701882906258106231689453125">
        <ele>1048.5999755859375</ele>
        <time>2019-10-29T10:55:51.000Z</time>
      </trkpt>
      <trkpt lat="37.38026269711554050445556640625" lon="-3.270358107984066009521484375">
        <ele>1048</ele>
        <time>2019-10-29T10:55:56.000Z</time>
      </trkpt>
      <trkpt lat="37.380108721554279327392578125" lon="-3.27052633278071880340576171875">
        <ele>1048.5999755859375</ele>
        <time>2019-10-29T10:56:01.000Z</time>
      </trkpt>
      <trkpt lat="37.37998341210186481475830078125" lon="-3.27064870856702327728271484375">
        <ele>1049.5999755859375</ele>
        <time>2019-10-29T10:56:05.000Z</time>
      </trkpt>
      <trkpt lat="37.379865981638431549072265625" lon="-3.27078365720808506011962890625">
        <ele>1050.4000244140625</ele>
        <time>2019-10-29T10:56:09.000Z</time>
      </trkpt>
      <trkpt lat="37.37971804104745388031005859375" lon="-3.27095045708119869232177734375">
        <ele>1051.5999755859375</ele>
        <time>2019-10-29T10:56:14.000Z</time>
      </trkpt>
      <trkpt lat="37.37956884317100048065185546875" lon="-3.27111541293561458587646484375">
        <ele>1052.5999755859375</ele>
        <time>2019-10-29T10:56:19.000Z</time>
      </trkpt>
      <trkpt lat="37.379421405494213104248046875" lon="-3.27127106487751007080078125">
        <ele>1053.800048828125</ele>
        <time>2019-10-29T10:56:24.000Z</time>
      </trkpt>
      <trkpt lat="37.379274554550647735595703125" lon="-3.27142906375229358673095703125">
        <ele>1054</ele>
        <time>2019-10-29T10:56:29.000Z</time>
      </trkpt>
      <trkpt lat="37.37912728451192378997802734375" lon="-3.27158781699836254119873046875">
        <ele>1054</ele>
        <time>2019-10-29T10:56:34.000Z</time>
      </trkpt>
      <trkpt lat="37.37898143939673900604248046875" lon="-3.2717426307499408721923828125">
        <ele>1054</ele>
        <time>2019-10-29T10:56:39.000Z</time>
      </trkpt>
      <trkpt lat="37.37884682603180408477783203125" lon="-3.27189333736896514892578125">
        <ele>1054</ele>
        <time>2019-10-29T10:56:44.000Z</time>
      </trkpt>
      <trkpt lat="37.3787064291536808013916015625" lon="-3.27204396016895771026611328125">
        <ele>1055.199951171875</ele>
        <time>2019-10-29T10:56:50.000Z</time>
      </trkpt>
      <trkpt lat="37.3785619251430034637451171875" lon="-3.2722131907939910888671875">
        <ele>1056.199951171875</ele>
        <time>2019-10-29T10:56:57.000Z</time>
      </trkpt>
      <trkpt lat="37.3784117214381694793701171875" lon="-3.2723820023238658905029296875">
        <ele>1057.4000244140625</ele>
        <time>2019-10-29T10:57:04.000Z</time>
      </trkpt>
      <trkpt lat="37.3782709054648876190185546875" lon="-3.2725509814918041229248046875">
        <ele>1058.5999755859375</ele>
        <time>2019-10-29T10:57:11.000Z</time>
      </trkpt>
      <trkpt lat="37.3781155049800872802734375" lon="-3.27269976027309894561767578125">
        <ele>1059.5999755859375</ele>
        <time>2019-10-29T10:57:19.000Z</time>
      </trkpt>
      <trkpt lat="37.37801291048526763916015625" lon="-3.2728383131325244903564453125">
        <ele>1060.4000244140625</ele>
        <time>2019-10-29T10:57:26.000Z</time>
      </trkpt>
      <trkpt lat="37.37813335843384265899658203125" lon="-3.27296982519328594207763671875">
        <ele>1061.199951171875</ele>
        <time>2019-10-29T10:57:33.000Z</time>
      </trkpt>
      <trkpt lat="37.3783051036298274993896484375" lon="-3.27306621707975864410400390625">
        <ele>1062.800048828125</ele>
        <time>2019-10-29T10:57:39.000Z</time>
      </trkpt>
      <trkpt lat="37.37848908640444278717041015625" lon="-3.27315338887274265289306640625">
        <ele>1064.4000244140625</ele>
        <time>2019-10-29T10:57:45.000Z</time>
      </trkpt>
      <trkpt lat="37.378675080835819244384765625" lon="-3.2732409797608852386474609375">
        <ele>1065.4000244140625</ele>
        <time>2019-10-29T10:57:51.000Z</time>
      </trkpt>
      <trkpt lat="37.378863506019115447998046875" lon="-3.27334147877991199493408203125">
        <ele>1065.4000244140625</ele>
        <time>2019-10-29T10:57:57.000Z</time>
      </trkpt>
      <trkpt lat="37.37904983572661876678466796875" lon="-3.2734364457428455352783203125">
        <ele>1065.4000244140625</ele>
        <time>2019-10-29T10:58:03.000Z</time>
      </trkpt>
      <trkpt lat="37.3792214132845401763916015625" lon="-3.27353216707706451416015625">
        <ele>1066.199951171875</ele>
        <time>2019-10-29T10:58:09.000Z</time>
      </trkpt>
      <trkpt lat="37.37939584068953990936279296875" lon="-3.2736121304333209991455078125">
        <ele>1066.199951171875</ele>
        <time>2019-10-29T10:58:15.000Z</time>
      </trkpt>
      <trkpt lat="37.379567585885524749755859375" lon="-3.2736929319798946380615234375">
        <ele>1067</ele>
        <time>2019-10-29T10:58:21.000Z</time>
      </trkpt>
      <trkpt lat="37.3797431029379367828369140625" lon="-3.2737780921161174774169921875">
        <ele>1067.199951171875</ele>
        <time>2019-10-29T10:58:27.000Z</time>
      </trkpt>
      <trkpt lat="37.379938401281833648681640625" lon="-3.2738411240279674530029296875">
        <ele>1067.4000244140625</ele>
        <time>2019-10-29T10:58:34.000Z</time>
      </trkpt>
      <trkpt lat="37.3801212944090366363525390625" lon="-3.27389854006469249725341796875">
        <ele>1067.800048828125</ele>
        <time>2019-10-29T10:58:41.000Z</time>
      </trkpt>
      <trkpt lat="37.3802936263382434844970703125" lon="-3.273978419601917266845703125">
        <ele>1068</ele>
        <time>2019-10-29T10:58:48.000Z</time>
      </trkpt>
      <trkpt lat="37.3804837279021739959716796875" lon="-3.274058215320110321044921875">
        <ele>1069.4000244140625</ele>
        <time>2019-10-29T10:58:56.000Z</time>
      </trkpt>
      <trkpt lat="37.38065346144139766693115234375" lon="-3.274137675762176513671875">
        <ele>1069.5999755859375</ele>
        <time>2019-10-29T10:59:03.000Z</time>
      </trkpt>
      <trkpt lat="37.38084373064339160919189453125" lon="-3.27423197217285633087158203125">
        <ele>1069.4000244140625</ele>
        <time>2019-10-29T10:59:11.000Z</time>
      </trkpt>
      <trkpt lat="37.38101589493453502655029296875" lon="-3.2743212394416332244873046875">
        <ele>1069.4000244140625</ele>
        <time>2019-10-29T10:59:18.000Z</time>
      </trkpt>
      <trkpt lat="37.381193675100803375244140625" lon="-3.274430371820926666259765625">
        <ele>1069.5999755859375</ele>
        <time>2019-10-29T10:59:26.000Z</time>
      </trkpt>
      <trkpt lat="37.38136642612516880035400390625" lon="-3.27455551363527774810791015625">
        <ele>1069.800048828125</ele>
        <time>2019-10-29T10:59:34.000Z</time>
      </trkpt>
      <trkpt lat="37.38154328428208827972412109375" lon="-3.274642936885356903076171875">
        <ele>1070.800048828125</ele>
        <time>2019-10-29T10:59:42.000Z</time>
      </trkpt>
      <trkpt lat="37.38159106113016605377197265625" lon="-3.27466263435781002044677734375">
        <ele>1071</ele>
        <time>2019-10-29T10:59:47.000Z</time>
      </trkpt>
      <trkpt lat="37.3815851099789142608642578125" lon="-3.274662382900714874267578125">
        <ele>1071</ele>
        <time>2019-10-29T10:59:49.000Z</time>
      </trkpt>
      <trkpt lat="37.381612770259380340576171875" lon="-3.274687863886356353759765625">
        <ele>1071.199951171875</ele>
        <time>2019-10-29T11:00:07.000Z</time>
      </trkpt>
      <trkpt lat="37.38159340806305408477783203125" lon="-3.2746431045234203338623046875">
        <ele>1070.800048828125</ele>
        <time>2019-10-29T11:00:12.000Z</time>
      </trkpt>
      <trkpt lat="37.38159609027206897735595703125" lon="-3.27463966794312000274658203125">
        <ele>1070.800048828125</ele>
        <time>2019-10-29T11:00:14.000Z</time>
      </trkpt>
      <trkpt lat="37.3817678354680538177490234375" lon="-3.2747688330709934234619140625">
        <ele>1070.800048828125</ele>
        <time>2019-10-29T11:01:43.000Z</time>
      </trkpt>
      <trkpt lat="37.3819515667855739593505859375" lon="-3.27484535984694957733154296875">
        <ele>1070</ele>
        <time>2019-10-29T11:01:50.000Z</time>
      </trkpt>
      <trkpt lat="37.38215181045234203338623046875" lon="-3.27494426630437374114990234375">
        <ele>1069.199951171875</ele>
        <time>2019-10-29T11:01:56.000Z</time>
      </trkpt>
      <trkpt lat="37.3823265731334686279296875" lon="-3.275033868849277496337890625">
        <ele>1069.5999755859375</ele>
        <time>2019-10-29T11:02:01.000Z</time>
      </trkpt>
      <trkpt lat="37.38250829279422760009765625" lon="-3.27512447722256183624267578125">
        <ele>1070.199951171875</ele>
        <time>2019-10-29T11:02:06.000Z</time>
      </trkpt>
      <trkpt lat="37.3826992325484752655029296875" lon="-3.2752170972526073455810546875">
        <ele>1070.199951171875</ele>
        <time>2019-10-29T11:02:11.000Z</time>
      </trkpt>
      <trkpt lat="37.38290383480489253997802734375" lon="-3.27532329596579074859619140625">
        <ele>1070</ele>
        <time>2019-10-29T11:02:16.000Z</time>
      </trkpt>
      <trkpt lat="37.383076585829257965087890625" lon="-3.27541130594909191131591796875">
        <ele>1069.199951171875</ele>
        <time>2019-10-29T11:02:20.000Z</time>
      </trkpt>
      <trkpt lat="37.38326132297515869140625" lon="-3.27550350688397884368896484375">
        <ele>1069.199951171875</ele>
        <time>2019-10-29T11:02:24.000Z</time>
      </trkpt>
      <trkpt lat="37.38345536403357982635498046875" lon="-3.2755989767611026763916015625">
        <ele>1068.199951171875</ele>
        <time>2019-10-29T11:02:28.000Z</time>
      </trkpt>
      <trkpt lat="37.38365820609033107757568359375" lon="-3.27570073306560516357421875">
        <ele>1066.4000244140625</ele>
        <time>2019-10-29T11:02:32.000Z</time>
      </trkpt>
      <trkpt lat="37.3838669992983341217041015625" lon="-3.275805003941059112548828125">
        <ele>1065</ele>
        <time>2019-10-29T11:02:36.000Z</time>
      </trkpt>
      <trkpt lat="37.38407964818179607391357421875" lon="-3.27591505832970142364501953125">
        <ele>1064.5999755859375</ele>
        <time>2019-10-29T11:02:40.000Z</time>
      </trkpt>
      <trkpt lat="37.38429506309330463409423828125" lon="-3.2760251127183437347412109375">
        <ele>1065.4000244140625</ele>
        <time>2019-10-29T11:02:44.000Z</time>
      </trkpt>
      <trkpt lat="37.38450729288160800933837890625" lon="-3.27613617293536663055419921875">
        <ele>1066.5999755859375</ele>
        <time>2019-10-29T11:02:48.000Z</time>
      </trkpt>
      <trkpt lat="37.38472052849829196929931640625" lon="-3.27624111436307430267333984375">
        <ele>1067.4000244140625</ele>
        <time>2019-10-29T11:02:52.000Z</time>
      </trkpt>
      <trkpt lat="37.3849315010011196136474609375" lon="-3.276346810162067413330078125">
        <ele>1068.199951171875</ele>
        <time>2019-10-29T11:02:56.000Z</time>
      </trkpt>
      <trkpt lat="37.38514079712331295013427734375" lon="-3.27645116485655307769775390625">
        <ele>1068.800048828125</ele>
        <time>2019-10-29T11:03:00.000Z</time>
      </trkpt>
      <trkpt lat="37.3853462375700473785400390625" lon="-3.2765541784465312957763671875">
        <ele>1069.199951171875</ele>
        <time>2019-10-29T11:03:04.000Z</time>
      </trkpt>
      <trkpt lat="37.38554966636002063751220703125" lon="-3.27665719203650951385498046875">
        <ele>1069.4000244140625</ele>
        <time>2019-10-29T11:03:08.000Z</time>
      </trkpt>
      <trkpt lat="37.38575720228254795074462890625" lon="-3.2767595350742340087890625">
        <ele>1069.800048828125</ele>
        <time>2019-10-29T11:03:12.000Z</time>
      </trkpt>
      <trkpt lat="37.38596859388053417205810546875" lon="-3.276865147054195404052734375">
        <ele>1070.199951171875</ele>
        <time>2019-10-29T11:03:16.000Z</time>
      </trkpt>
      <trkpt lat="37.386180572211742401123046875" lon="-3.27697251923382282257080078125">
        <ele>1071</ele>
        <time>2019-10-29T11:03:20.000Z</time>
      </trkpt>
      <trkpt lat="37.386398501694202423095703125" lon="-3.27708031050860881805419921875">
        <ele>1072.4000244140625</ele>
        <time>2019-10-29T11:03:24.000Z</time>
      </trkpt>
      <trkpt lat="37.38660863600671291351318359375" lon="-3.2771895267069339752197265625">
        <ele>1072.199951171875</ele>
        <time>2019-10-29T11:03:28.000Z</time>
      </trkpt>
      <trkpt lat="37.3868164233863353729248046875" lon="-3.277293629944324493408203125">
        <ele>1072.4000244140625</ele>
        <time>2019-10-29T11:03:32.000Z</time>
      </trkpt>
      <trkpt lat="37.387024797499179840087890625" lon="-3.2773963920772075653076171875">
        <ele>1071.5999755859375</ele>
        <time>2019-10-29T11:03:36.000Z</time>
      </trkpt>
      <trkpt lat="37.38723342306911945343017578125" lon="-3.277499489486217498779296875">
        <ele>1071.4000244140625</ele>
        <time>2019-10-29T11:03:40.000Z</time>
      </trkpt>
      <trkpt lat="37.387437522411346435546875" lon="-3.2776044309139251708984375">
        <ele>1071.800048828125</ele>
        <time>2019-10-29T11:03:44.000Z</time>
      </trkpt>
      <trkpt lat="37.38764162175357341766357421875" lon="-3.27771130017936229705810546875">
        <ele>1072.5999755859375</ele>
        <time>2019-10-29T11:03:48.000Z</time>
      </trkpt>
      <trkpt lat="37.3878423683345317840576171875" lon="-3.27781573869287967681884765625">
        <ele>1073.4000244140625</ele>
        <time>2019-10-29T11:03:52.000Z</time>
      </trkpt>
      <trkpt lat="37.38804110325872898101806640625" lon="-3.27791766263544559478759765625">
        <ele>1074.4000244140625</ele>
        <time>2019-10-29T11:03:56.000Z</time>
      </trkpt>
      <trkpt lat="37.388243861496448516845703125" lon="-3.27801606617867946624755859375">
        <ele>1073.4000244140625</ele>
        <time>2019-10-29T11:04:00.000Z</time>
      </trkpt>
      <trkpt lat="37.38845198415219783782958984375" lon="-3.27812218107283115386962890625">
        <ele>1072.4000244140625</ele>
        <time>2019-10-29T11:04:04.000Z</time>
      </trkpt>
      <trkpt lat="37.38866454921662807464599609375" lon="-3.278229720890522003173828125">
        <ele>1071.199951171875</ele>
        <time>2019-10-29T11:04:08.000Z</time>
      </trkpt>
      <trkpt lat="37.38887845538556575775146484375" lon="-3.2783348299562931060791015625">
        <ele>1069.800048828125</ele>
        <time>2019-10-29T11:04:12.000Z</time>
      </trkpt>
      <trkpt lat="37.3890838958323001861572265625" lon="-3.27845276333391666412353515625">
        <ele>1068</ele>
        <time>2019-10-29T11:04:16.000Z</time>
      </trkpt>
      <trkpt lat="37.38928883336484432220458984375" lon="-3.2785618118941783905029296875">
        <ele>1066.800048828125</ele>
        <time>2019-10-29T11:04:20.000Z</time>
      </trkpt>
      <trkpt lat="37.3894949443638324737548828125" lon="-3.27866968698799610137939453125">
        <ele>1066.800048828125</ele>
        <time>2019-10-29T11:04:24.000Z</time>
      </trkpt>
      <trkpt lat="37.3897034861147403717041015625" lon="-3.27876976691186428070068359375">
        <ele>1067</ele>
        <time>2019-10-29T11:04:28.000Z</time>
      </trkpt>
      <trkpt lat="37.389908172190189361572265625" lon="-3.2788736186921596527099609375">
        <ele>1068.800048828125</ele>
        <time>2019-10-29T11:04:32.000Z</time>
      </trkpt>
      <trkpt lat="37.3901103436946868896484375" lon="-3.27898048795759677886962890625">
        <ele>1070</ele>
        <time>2019-10-29T11:04:36.000Z</time>
      </trkpt>
      <trkpt lat="37.390313856303691864013671875" lon="-3.2790935598313808441162109375">
        <ele>1072.4000244140625</ele>
        <time>2019-10-29T11:04:40.000Z</time>
      </trkpt>
      <trkpt lat="37.39051711745560169219970703125" lon="-3.27920093201100826263427734375">
        <ele>1074</ele>
        <time>2019-10-29T11:04:44.000Z</time>
      </trkpt>
      <trkpt lat="37.39072247408330440521240234375" lon="-3.2793057896196842193603515625">
        <ele>1073.800048828125</ele>
        <time>2019-10-29T11:04:48.000Z</time>
      </trkpt>
      <trkpt lat="37.39092531614005565643310546875" lon="-3.27941425144672393798828125">
        <ele>1072.5999755859375</ele>
        <time>2019-10-29T11:04:52.000Z</time>
      </trkpt>
      <trkpt lat="37.39113033749163150787353515625" lon="-3.27952480874955654144287109375">
        <ele>1071</ele>
        <time>2019-10-29T11:04:56.000Z</time>
      </trkpt>
      <trkpt lat="37.3913309164345264434814453125" lon="-3.2796273194253444671630859375">
        <ele>1070</ele>
        <time>2019-10-29T11:05:00.000Z</time>
      </trkpt>
      <trkpt lat="37.39152462221682071685791015625" lon="-3.27974290587007999420166015625">
        <ele>1069.5999755859375</ele>
        <time>2019-10-29T11:05:04.000Z</time>
      </trkpt>
      <trkpt lat="37.39172972738742828369140625" lon="-3.279841728508472442626953125">
        <ele>1069.5999755859375</ele>
        <time>2019-10-29T11:05:08.000Z</time>
      </trkpt>
      <trkpt lat="37.39193298853933811187744140625" lon="-3.2799347676336765289306640625">
        <ele>1070</ele>
        <time>2019-10-29T11:05:12.000Z</time>
      </trkpt>
      <trkpt lat="37.3921327292919158935546875" lon="-3.2800350151956081390380859375">
        <ele>1071.199951171875</ele>
        <time>2019-10-29T11:05:16.000Z</time>
      </trkpt>
      <trkpt lat="37.39233012311160564422607421875" lon="-3.2801241986453533172607421875">
        <ele>1071.5999755859375</ele>
        <time>2019-10-29T11:05:20.000Z</time>
      </trkpt>
      <trkpt lat="37.39252475090324878692626953125" lon="-3.28022293746471405029296875">
        <ele>1072</ele>
        <time>2019-10-29T11:05:24.000Z</time>
      </trkpt>
      <trkpt lat="37.392719797790050506591796875" lon="-3.28033131547272205352783203125">
        <ele>1072.5999755859375</ele>
        <time>2019-10-29T11:05:28.000Z</time>
      </trkpt>
      <trkpt lat="37.39291719160974025726318359375" lon="-3.28044899739325046539306640625">
        <ele>1072.199951171875</ele>
        <time>2019-10-29T11:05:32.000Z</time>
      </trkpt>
      <trkpt lat="37.39311282522976398468017578125" lon="-3.28056718222796916961669921875">
        <ele>1072.199951171875</ele>
        <time>2019-10-29T11:05:36.000Z</time>
      </trkpt>
      <trkpt lat="37.393319271504878997802734375" lon="-3.28068452887237071990966796875">
        <ele>1072.4000244140625</ele>
        <time>2019-10-29T11:05:40.000Z</time>
      </trkpt>
      <trkpt lat="37.3935199342668056488037109375" lon="-3.28080539591610431671142578125">
        <ele>1073.199951171875</ele>
        <time>2019-10-29T11:05:44.000Z</time>
      </trkpt>
      <trkpt lat="37.3937217704951763153076171875" lon="-3.28093615360558032989501953125">
        <ele>1072.4000244140625</ele>
        <time>2019-10-29T11:05:48.000Z</time>
      </trkpt>
      <trkpt lat="37.3939313180744647979736328125" lon="-3.28108166344463825225830078125">
        <ele>1071.4000244140625</ele>
        <time>2019-10-29T11:05:52.000Z</time>
      </trkpt>
      <trkpt lat="37.3941448889672756195068359375" lon="-3.2812146842479705810546875">
        <ele>1070</ele>
        <time>2019-10-29T11:05:56.000Z</time>
      </trkpt>
      <trkpt lat="37.3943064920604228973388671875" lon="-3.28132188878953456878662109375">
        <ele>1069.4000244140625</ele>
        <time>2019-10-29T11:05:59.000Z</time>
      </trkpt>
      <trkpt lat="37.39447203464806079864501953125" lon="-3.2814223878085613250732421875">
        <ele>1069.199951171875</ele>
        <time>2019-10-29T11:06:02.000Z</time>
      </trkpt>
      <trkpt lat="37.394684851169586181640625" lon="-3.2815548218786716461181640625">
        <ele>1068</ele>
        <time>2019-10-29T11:06:06.000Z</time>
      </trkpt>
      <trkpt lat="37.3948959074914455413818359375" lon="-3.28168331645429134368896484375">
        <ele>1066.800048828125</ele>
        <time>2019-10-29T11:06:10.000Z</time>
      </trkpt>
      <trkpt lat="37.39510553888976573944091796875" lon="-3.28181616961956024169921875">
        <ele>1066.5999755859375</ele>
        <time>2019-10-29T11:06:14.000Z</time>
      </trkpt>
      <trkpt lat="37.39531894214451313018798828125" lon="-3.28194868750870227813720703125">
        <ele>1067</ele>
        <time>2019-10-29T11:06:18.000Z</time>
      </trkpt>
      <trkpt lat="37.39552781917154788970947265625" lon="-3.28208749182522296905517578125">
        <ele>1067.4000244140625</ele>
        <time>2019-10-29T11:06:22.000Z</time>
      </trkpt>
      <trkpt lat="37.39573200233280658721923828125" lon="-3.2822119630873203277587890625">
        <ele>1067.199951171875</ele>
        <time>2019-10-29T11:06:26.000Z</time>
      </trkpt>
      <trkpt lat="37.3959282226860523223876953125" lon="-3.28234045766294002532958984375">
        <ele>1066.199951171875</ele>
        <time>2019-10-29T11:06:30.000Z</time>
      </trkpt>
      <trkpt lat="37.39612477831542491912841796875" lon="-3.28247222118079662322998046875">
        <ele>1065.5999755859375</ele>
        <time>2019-10-29T11:06:34.000Z</time>
      </trkpt>
      <trkpt lat="37.39632208831608295440673828125" lon="-3.2826094329357147216796875">
        <ele>1063.800048828125</ele>
        <time>2019-10-29T11:06:38.000Z</time>
      </trkpt>
      <trkpt lat="37.39652342163026332855224609375" lon="-3.28274949453771114349365234375">
        <ele>1063.4000244140625</ele>
        <time>2019-10-29T11:06:42.000Z</time>
      </trkpt>
      <trkpt lat="37.396728694438934326171875" lon="-3.28289601020514965057373046875">
        <ele>1063</ele>
        <time>2019-10-29T11:06:46.000Z</time>
      </trkpt>
      <trkpt lat="37.39688551984727382659912109375" lon="-3.28300950117409229278564453125">
        <ele>1064</ele>
        <time>2019-10-29T11:06:49.000Z</time>
      </trkpt>
      <trkpt lat="37.39704343490302562713623046875" lon="-3.2831319607794284820556640625">
        <ele>1064.4000244140625</ele>
        <time>2019-10-29T11:06:52.000Z</time>
      </trkpt>
      <trkpt lat="37.397205121815204620361328125" lon="-3.283256851136684417724609375">
        <ele>1064</ele>
        <time>2019-10-29T11:06:55.000Z</time>
      </trkpt>
      <trkpt lat="37.397368066012859344482421875" lon="-3.28338534571230411529541015625">
        <ele>1063.4000244140625</ele>
        <time>2019-10-29T11:06:58.000Z</time>
      </trkpt>
      <trkpt lat="37.3975398950278759002685546875" lon="-3.2835235632956027984619140625">
        <ele>1063</ele>
        <time>2019-10-29T11:07:01.000Z</time>
      </trkpt>
      <trkpt lat="37.39771683700382709503173828125" lon="-3.283663876354694366455078125">
        <ele>1062.800048828125</ele>
        <time>2019-10-29T11:07:04.000Z</time>
      </trkpt>
      <trkpt lat="37.397898137569427490234375" lon="-3.28380997292697429656982421875">
        <ele>1062</ele>
        <time>2019-10-29T11:07:07.000Z</time>
      </trkpt>
      <trkpt lat="37.3980863951146602630615234375" lon="-3.2839674688875675201416015625">
        <ele>1061.5999755859375</ele>
        <time>2019-10-29T11:07:10.000Z</time>
      </trkpt>
      <trkpt lat="37.3982798494398593902587890625" lon="-3.2841341011226177215576171875">
        <ele>1060.199951171875</ele>
        <time>2019-10-29T11:07:13.000Z</time>
      </trkpt>
      <trkpt lat="37.39847657270729541778564453125" lon="-3.28430534340441226959228515625">
        <ele>1059.4000244140625</ele>
        <time>2019-10-29T11:07:16.000Z</time>
      </trkpt>
      <trkpt lat="37.39867874421179294586181640625" lon="-3.2844834588468074798583984375">
        <ele>1059.4000244140625</ele>
        <time>2019-10-29T11:07:19.000Z</time>
      </trkpt>
      <trkpt lat="37.39888778887689113616943359375" lon="-3.28467347659170627593994140625">
        <ele>1059</ele>
        <time>2019-10-29T11:07:22.000Z</time>
      </trkpt>
      <trkpt lat="37.3991006053984165191650390625" lon="-3.28487749211490154266357421875">
        <ele>1059.5999755859375</ele>
        <time>2019-10-29T11:07:25.000Z</time>
      </trkpt>
      <trkpt lat="37.3992454446852207183837890625" lon="-3.2850152067840099334716796875">
        <ele>1060</ele>
        <time>2019-10-29T11:07:27.000Z</time>
      </trkpt>
      <trkpt lat="37.3993929661810398101806640625" lon="-3.28515560366213321685791015625">
        <ele>1059</ele>
        <time>2019-10-29T11:07:29.000Z</time>
      </trkpt>
      <trkpt lat="37.39954493008553981781005859375" lon="-3.2853048853576183319091796875">
        <ele>1058</ele>
        <time>2019-10-29T11:07:31.000Z</time>
      </trkpt>
      <trkpt lat="37.3996957205235958099365234375" lon="-3.28546036966145038604736328125">
        <ele>1056</ele>
        <time>2019-10-29T11:07:33.000Z</time>
      </trkpt>
      <trkpt lat="37.3998522944748401641845703125" lon="-3.2856203801929950714111328125">
        <ele>1054.800048828125</ele>
        <time>2019-10-29T11:07:35.000Z</time>
      </trkpt>
      <trkpt lat="37.400012724101543426513671875" lon="-3.28578583896160125732421875">
        <ele>1053</ele>
        <time>2019-10-29T11:07:37.000Z</time>
      </trkpt>
      <trkpt lat="37.4001728184521198272705078125" lon="-3.2859533093869686126708984375">
        <ele>1052.5999755859375</ele>
        <time>2019-10-29T11:07:39.000Z</time>
      </trkpt>
      <trkpt lat="37.40033534355461597442626953125" lon="-3.2861239649355411529541015625">
        <ele>1051.4000244140625</ele>
        <time>2019-10-29T11:07:41.000Z</time>
      </trkpt>
      <trkpt lat="37.4004956893622875213623046875" lon="-3.2862974703311920166015625">
        <ele>1049.4000244140625</ele>
        <time>2019-10-29T11:07:43.000Z</time>
      </trkpt>
      <trkpt lat="37.4006596393883228302001953125" lon="-3.28647189773619174957275390625">
        <ele>1047.5999755859375</ele>
        <time>2019-10-29T11:07:45.000Z</time>
      </trkpt>
      <trkpt lat="37.40081931464374065399169921875" lon="-3.28665495850145816802978515625">
        <ele>1045</ele>
        <time>2019-10-29T11:07:47.000Z</time>
      </trkpt>
      <trkpt lat="37.40098242647945880889892578125" lon="-3.28683726489543914794921875">
        <ele>1044.5999755859375</ele>
        <time>2019-10-29T11:07:49.000Z</time>
      </trkpt>
      <trkpt lat="37.4011457897722721099853515625" lon="-3.2870248518884181976318359375">
        <ele>1042.5999755859375</ele>
        <time>2019-10-29T11:07:51.000Z</time>
      </trkpt>
      <trkpt lat="37.4013120867311954498291015625" lon="-3.2872121036052703857421875">
        <ele>1041.199951171875</ele>
        <time>2019-10-29T11:07:53.000Z</time>
      </trkpt>
      <trkpt lat="37.40147612057626247406005859375" lon="-3.28740698285400867462158203125">
        <ele>1038.800048828125</ele>
        <time>2019-10-29T11:07:55.000Z</time>
      </trkpt>
      <trkpt lat="37.4016399867832660675048828125" lon="-3.28760261647403240203857421875">
        <ele>1037.4000244140625</ele>
        <time>2019-10-29T11:07:57.000Z</time>
      </trkpt>
      <trkpt lat="37.40180217660963535308837890625" lon="-3.28780151903629302978515625">
        <ele>1037</ele>
        <time>2019-10-29T11:07:59.000Z</time>
      </trkpt>
      <trkpt lat="37.40196512080729007720947265625" lon="-3.28800545074045658111572265625">
        <ele>1035.800048828125</ele>
        <time>2019-10-29T11:08:01.000Z</time>
      </trkpt>
      <trkpt lat="37.40212722681462764739990234375" lon="-3.28821047209203243255615234375">
        <ele>1034.800048828125</ele>
        <time>2019-10-29T11:08:03.000Z</time>
      </trkpt>
      <trkpt lat="37.40228782407939434051513671875" lon="-3.288418762385845184326171875">
        <ele>1033.5999755859375</ele>
        <time>2019-10-29T11:08:05.000Z</time>
      </trkpt>
      <trkpt lat="37.402447164058685302734375" lon="-3.288627974689006805419921875">
        <ele>1033</ele>
        <time>2019-10-29T11:08:07.000Z</time>
      </trkpt>
      <trkpt lat="37.40260474383831024169921875" lon="-3.28884146176278591156005859375">
        <ele>1033</ele>
        <time>2019-10-29T11:08:09.000Z</time>
      </trkpt>
      <trkpt lat="37.40275989286601543426513671875" lon="-3.28905503265559673309326171875">
        <ele>1033</ele>
        <time>2019-10-29T11:08:11.000Z</time>
      </trkpt>
      <trkpt lat="37.40291277877986431121826171875" lon="-3.28926826827228069305419921875">
        <ele>1030.5999755859375</ele>
        <time>2019-10-29T11:08:13.000Z</time>
      </trkpt>
      <trkpt lat="37.4030628986656665802001953125" lon="-3.28948217444121837615966796875">
        <ele>1027.800048828125</ele>
        <time>2019-10-29T11:08:15.000Z</time>
      </trkpt>
      <trkpt lat="37.40321226418018341064453125" lon="-3.289697505533695220947265625">
        <ele>1025</ele>
        <time>2019-10-29T11:08:17.000Z</time>
      </trkpt>
      <trkpt lat="37.4033596180379390716552734375" lon="-3.28991333954036235809326171875">
        <ele>1023.5999755859375</ele>
        <time>2019-10-29T11:08:19.000Z</time>
      </trkpt>
      <trkpt lat="37.40350722335278987884521484375" lon="-3.29013093374669551849365234375">
        <ele>1024.199951171875</ele>
        <time>2019-10-29T11:08:21.000Z</time>
      </trkpt>
      <trkpt lat="37.4036516435444355010986328125" lon="-3.2903521321713924407958984375">
        <ele>1024</ele>
        <time>2019-10-29T11:08:23.000Z</time>
      </trkpt>
      <trkpt lat="37.4037944711744785308837890625" lon="-3.29057215712964534759521484375">
        <ele>1023.20001220703125</ele>
        <time>2019-10-29T11:08:25.000Z</time>
      </trkpt>
      <trkpt lat="37.4039352871477603912353515625" lon="-3.2907946966588497161865234375">
        <ele>1021.5999755859375</ele>
        <time>2019-10-29T11:08:27.000Z</time>
      </trkpt>
      <trkpt lat="37.4040761031210422515869140625" lon="-3.2910179905593395233154296875">
        <ele>1020.4000244140625</ele>
        <time>2019-10-29T11:08:29.000Z</time>
      </trkpt>
      <trkpt lat="37.404217422008514404296875" lon="-3.29124170355498790740966796875">
        <ele>1020.20001220703125</ele>
        <time>2019-10-29T11:08:31.000Z</time>
      </trkpt>
      <trkpt lat="37.40435631014406681060791015625" lon="-3.29146818257868289947509765625">
        <ele>1020.20001220703125</ele>
        <time>2019-10-29T11:08:33.000Z</time>
      </trkpt>
      <trkpt lat="37.40449360571801662445068359375" lon="-3.2916929014027118682861328125">
        <ele>1020</ele>
        <time>2019-10-29T11:08:35.000Z</time>
      </trkpt>
      <trkpt lat="37.40462855435907840728759765625" lon="-3.29191527329385280609130859375">
        <ele>1019.5999755859375</ele>
        <time>2019-10-29T11:08:37.000Z</time>
      </trkpt>
      <trkpt lat="37.4047600664198398590087890625" lon="-3.29213554970920085906982421875">
        <ele>1019.4000244140625</ele>
        <time>2019-10-29T11:08:39.000Z</time>
      </trkpt>
      <trkpt lat="37.40488805808126926422119140625" lon="-3.29235280863940715789794921875">
        <ele>1018.5999755859375</ele>
        <time>2019-10-29T11:08:41.000Z</time>
      </trkpt>
      <trkpt lat="37.4050140380859375" lon="-3.29256822355091571807861328125">
        <ele>1017</ele>
        <time>2019-10-29T11:08:43.000Z</time>
      </trkpt>
      <trkpt lat="37.40513733588159084320068359375" lon="-3.29278112389147281646728515625">
        <ele>1015.20001220703125</ele>
        <time>2019-10-29T11:08:45.000Z</time>
      </trkpt>
      <trkpt lat="37.40525887347757816314697265625" lon="-3.29298983328044414520263671875">
        <ele>1014</ele>
        <time>2019-10-29T11:08:47.000Z</time>
      </trkpt>
      <trkpt lat="37.40537814795970916748046875" lon="-3.29319636337459087371826171875">
        <ele>1012</ele>
        <time>2019-10-29T11:08:49.000Z</time>
      </trkpt>
      <trkpt lat="37.4054943211376667022705078125" lon="-3.29339970834553241729736328125">
        <ele>1011.5999755859375</ele>
        <time>2019-10-29T11:08:51.000Z</time>
      </trkpt>
      <trkpt lat="37.40560873411595821380615234375" lon="-3.29359919764101505279541015625">
        <ele>1010.79998779296875</ele>
        <time>2019-10-29T11:08:53.000Z</time>
      </trkpt>
      <trkpt lat="37.40571971051394939422607421875" lon="-3.29379617236554622650146484375">
        <ele>1010.20001220703125</ele>
        <time>2019-10-29T11:08:55.000Z</time>
      </trkpt>
      <trkpt lat="37.40582699887454509735107421875" lon="-3.29398761503398418426513671875">
        <ele>1010.5999755859375</ele>
        <time>2019-10-29T11:08:57.000Z</time>
      </trkpt>
      <trkpt lat="37.4059318564832210540771484375" lon="-3.29417444765567779541015625">
        <ele>1011.79998779296875</ele>
        <time>2019-10-29T11:08:59.000Z</time>
      </trkpt>
      <trkpt lat="37.4060847423970699310302734375" lon="-3.29444308765232563018798828125">
        <ele>1015.4000244140625</ele>
        <time>2019-10-29T11:09:02.000Z</time>
      </trkpt>
      <trkpt lat="37.40623134188354015350341796875" lon="-3.29470016062259674072265625">
        <ele>1015.79998779296875</ele>
        <time>2019-10-29T11:09:05.000Z</time>
      </trkpt>
      <trkpt lat="37.40637182258069515228271484375" lon="-3.2949457503855228424072265625">
        <ele>1015</ele>
        <time>2019-10-29T11:09:08.000Z</time>
      </trkpt>
      <trkpt lat="37.40650475956499576568603515625" lon="-3.295179940760135650634765625">
        <ele>1012.5999755859375</ele>
        <time>2019-10-29T11:09:11.000Z</time>
      </trkpt>
      <trkpt lat="37.40663073956966400146484375" lon="-3.295402564108371734619140625">
        <ele>1012</ele>
        <time>2019-10-29T11:09:14.000Z</time>
      </trkpt>
      <trkpt lat="37.40675118751823902130126953125" lon="-3.29560683108866214752197265625">
        <ele>1012.79998779296875</ele>
        <time>2019-10-29T11:09:17.000Z</time>
      </trkpt>
      <trkpt lat="37.4068615771830081939697265625" lon="-3.2957993634045124053955078125">
        <ele>1013.20001220703125</ele>
        <time>2019-10-29T11:09:20.000Z</time>
      </trkpt>
      <trkpt lat="37.40699191577732563018798828125" lon="-3.29603732563555240631103515625">
        <ele>1012.79998779296875</ele>
        <time>2019-10-29T11:09:24.000Z</time>
      </trkpt>
      <trkpt lat="37.407115884125232696533203125" lon="-3.2962590269744396209716796875">
        <ele>1012.20001220703125</ele>
        <time>2019-10-29T11:09:28.000Z</time>
      </trkpt>
      <trkpt lat="37.40722208283841609954833984375" lon="-3.29646597616374492645263671875">
        <ele>1012</ele>
        <time>2019-10-29T11:09:32.000Z</time>
      </trkpt>
      <trkpt lat="37.40734026767313480377197265625" lon="-3.29667116515338420867919921875">
        <ele>1011.79998779296875</ele>
        <time>2019-10-29T11:09:36.000Z</time>
      </trkpt>
      <trkpt lat="37.4074600450694561004638671875" lon="-3.29687836579978466033935546875">
        <ele>1011.20001220703125</ele>
        <time>2019-10-29T11:09:40.000Z</time>
      </trkpt>
      <trkpt lat="37.407578565180301666259765625" lon="-3.2970935292541980743408203125">
        <ele>1010.20001220703125</ele>
        <time>2019-10-29T11:09:44.000Z</time>
      </trkpt>
      <trkpt lat="37.4076964147388935089111328125" lon="-3.29730399884283542633056640625">
        <ele>1010.5999755859375</ele>
        <time>2019-10-29T11:09:48.000Z</time>
      </trkpt>
      <trkpt lat="37.4078191258013248443603515625" lon="-3.297515474259853363037109375">
        <ele>1012.20001220703125</ele>
        <time>2019-10-29T11:09:52.000Z</time>
      </trkpt>
      <trkpt lat="37.407943345606327056884765625" lon="-3.2977335713803768157958984375">
        <ele>1013.4000244140625</ele>
        <time>2019-10-29T11:09:56.000Z</time>
      </trkpt>
      <trkpt lat="37.40806614048779010772705078125" lon="-3.29795393161475658416748046875">
        <ele>1012.79998779296875</ele>
        <time>2019-10-29T11:10:00.000Z</time>
      </trkpt>
      <trkpt lat="37.4081909470260143280029296875" lon="-3.2981721125543117523193359375">
        <ele>1012</ele>
        <time>2019-10-29T11:10:04.000Z</time>
      </trkpt>
      <trkpt lat="37.408310137689113616943359375" lon="-3.29839783720672130584716796875">
        <ele>1011.5999755859375</ele>
        <time>2019-10-29T11:10:08.000Z</time>
      </trkpt>
      <trkpt lat="37.4084303341805934906005859375" lon="-3.2986244000494480133056640625">
        <ele>1010.4000244140625</ele>
        <time>2019-10-29T11:10:12.000Z</time>
      </trkpt>
      <trkpt lat="37.40855564363300800323486328125" lon="-3.298849873244762420654296875">
        <ele>1009.20001220703125</ele>
        <time>2019-10-29T11:10:16.000Z</time>
      </trkpt>
      <trkpt lat="37.4086848087608814239501953125" lon="-3.29907543025910854339599609375">
        <ele>1011</ele>
        <time>2019-10-29T11:10:20.000Z</time>
      </trkpt>
      <trkpt lat="37.408814728260040283203125" lon="-3.29930475912988185882568359375">
        <ele>1010.5999755859375</ele>
        <time>2019-10-29T11:10:24.000Z</time>
      </trkpt>
      <trkpt lat="37.40894238464534282684326171875" lon="-3.29954045824706554412841796875">
        <ele>1010</ele>
        <time>2019-10-29T11:10:28.000Z</time>
      </trkpt>
      <trkpt lat="37.40907029248774051666259765625" lon="-3.29977112822234630584716796875">
        <ele>1010.79998779296875</ele>
        <time>2019-10-29T11:10:32.000Z</time>
      </trkpt>
      <trkpt lat="37.409195601940155029296875" lon="-3.29999961890280246734619140625">
        <ele>1012.4000244140625</ele>
        <time>2019-10-29T11:10:36.000Z</time>
      </trkpt>
      <trkpt lat="37.409328036010265350341796875" lon="-3.3002283610403537750244140625">
        <ele>1013.4000244140625</ele>
        <time>2019-10-29T11:10:40.000Z</time>
      </trkpt>
      <trkpt lat="37.40945770405232906341552734375" lon="-3.3004586957395076751708984375">
        <ele>1012.79998779296875</ele>
        <time>2019-10-29T11:10:44.000Z</time>
      </trkpt>
      <trkpt lat="37.40958896465599536895751953125" lon="-3.3006907068192958831787109375">
        <ele>1012</ele>
        <time>2019-10-29T11:10:48.000Z</time>
      </trkpt>
      <trkpt lat="37.40972106344997882843017578125" lon="-3.30091928131878376007080078125">
        <ele>1011.79998779296875</ele>
        <time>2019-10-29T11:10:52.000Z</time>
      </trkpt>
      <trkpt lat="37.4098482169210910797119140625" lon="-3.30114559270441532135009765625">
        <ele>1011</ele>
        <time>2019-10-29T11:10:56.000Z</time>
      </trkpt>
      <trkpt lat="37.4099749512970447540283203125" lon="-3.3013719879090785980224609375">
        <ele>1010.4000244140625</ele>
        <time>2019-10-29T11:11:00.000Z</time>
      </trkpt>
      <trkpt lat="37.410101182758808135986328125" lon="-3.30159620381891727447509765625">
        <ele>1011.5999755859375</ele>
        <time>2019-10-29T11:11:04.000Z</time>
      </trkpt>
      <trkpt lat="37.41022699512541294097900390625" lon="-3.30182184465229511260986328125">
        <ele>1011.79998779296875</ele>
        <time>2019-10-29T11:11:08.000Z</time>
      </trkpt>
      <trkpt lat="37.41035096347332000732421875" lon="-3.3020489104092121124267578125">
        <ele>1012.4000244140625</ele>
        <time>2019-10-29T11:11:12.000Z</time>
      </trkpt>
      <trkpt lat="37.4104768596589565277099609375" lon="-3.30227144993841648101806640625">
        <ele>1012</ele>
        <time>2019-10-29T11:11:16.000Z</time>
      </trkpt>
      <trkpt lat="37.4106025882065296173095703125" lon="-3.30249642021954059600830078125">
        <ele>1012.79998779296875</ele>
        <time>2019-10-29T11:11:20.000Z</time>
      </trkpt>
      <trkpt lat="37.41072647273540496826171875" lon="-3.30271703191101551055908203125">
        <ele>1012.20001220703125</ele>
        <time>2019-10-29T11:11:24.000Z</time>
      </trkpt>
      <trkpt lat="37.410850860178470611572265625" lon="-3.30293747596442699432373046875">
        <ele>1012.4000244140625</ele>
        <time>2019-10-29T11:11:28.000Z</time>
      </trkpt>
      <trkpt lat="37.41097466088831424713134765625" lon="-3.30315716564655303955078125">
        <ele>1012</ele>
        <time>2019-10-29T11:11:32.000Z</time>
      </trkpt>
      <trkpt lat="37.4110967852175235748291015625" lon="-3.303376100957393646240234375">
        <ele>1012</ele>
        <time>2019-10-29T11:11:36.000Z</time>
      </trkpt>
      <trkpt lat="37.4112171493470668792724609375" lon="-3.3035928569734096527099609375">
        <ele>1011.20001220703125</ele>
        <time>2019-10-29T11:11:40.000Z</time>
      </trkpt>
      <trkpt lat="37.41133692674338817596435546875" lon="-3.3038094453513622283935546875">
        <ele>1011</ele>
        <time>2019-10-29T11:11:44.000Z</time>
      </trkpt>
      <trkpt lat="37.4114478193223476409912109375" lon="-3.30402175895869731903076171875">
        <ele>1011</ele>
        <time>2019-10-29T11:11:48.000Z</time>
      </trkpt>
      <trkpt lat="37.41155904717743396759033203125" lon="-3.30422325991094112396240234375">
        <ele>1010.4000244140625</ele>
        <time>2019-10-29T11:11:52.000Z</time>
      </trkpt>
      <trkpt lat="37.4116553552448749542236328125" lon="-3.30443280749022960662841796875">
        <ele>1011.4000244140625</ele>
        <time>2019-10-29T11:11:56.000Z</time>
      </trkpt>
      <trkpt lat="37.4117468856275081634521484375" lon="-3.30464017577469348907470703125">
        <ele>1013.20001220703125</ele>
        <time>2019-10-29T11:12:00.000Z</time>
      </trkpt>
      <trkpt lat="37.41182726807892322540283203125" lon="-3.3048545010387897491455078125">
        <ele>1015</ele>
        <time>2019-10-29T11:12:04.000Z</time>
      </trkpt>
      <trkpt lat="37.4118984304368495941162109375" lon="-3.30506949685513973236083984375">
        <ele>1016</ele>
        <time>2019-10-29T11:12:08.000Z</time>
      </trkpt>
      <trkpt lat="37.41196565330028533935546875" lon="-3.305287845432758331298828125">
        <ele>1015.5999755859375</ele>
        <time>2019-10-29T11:12:12.000Z</time>
      </trkpt>
      <trkpt lat="37.4120308645069599151611328125" lon="-3.30550485290586948394775390625">
        <ele>1014.5999755859375</ele>
        <time>2019-10-29T11:12:16.000Z</time>
      </trkpt>
      <trkpt lat="37.4120922200381755828857421875" lon="-3.305724374949932098388671875">
        <ele>1013.5999755859375</ele>
        <time>2019-10-29T11:12:20.000Z</time>
      </trkpt>
      <trkpt lat="37.41214846260845661163330078125" lon="-3.30594758503139019012451171875">
        <ele>1014</ele>
        <time>2019-10-29T11:12:24.000Z</time>
      </trkpt>
      <trkpt lat="37.41219271905720233917236328125" lon="-3.3061691187322139739990234375">
        <ele>1015</ele>
        <time>2019-10-29T11:12:28.000Z</time>
      </trkpt>
      <trkpt lat="37.41223278455436229705810546875" lon="-3.3064286224544048309326171875">
        <ele>1015.4000244140625</ele>
        <time>2019-10-29T11:12:33.000Z</time>
      </trkpt>
      <trkpt lat="37.4122628755867481231689453125" lon="-3.30667890608310699462890625">
        <ele>1016.20001220703125</ele>
        <time>2019-10-29T11:12:38.000Z</time>
      </trkpt>
      <trkpt lat="37.41228776983916759490966796875" lon="-3.3069288544356822967529296875">
        <ele>1016.5999755859375</ele>
        <time>2019-10-29T11:12:43.000Z</time>
      </trkpt>
      <trkpt lat="37.4123000912368297576904296875" lon="-3.30718517303466796875">
        <ele>1017</ele>
        <time>2019-10-29T11:12:48.000Z</time>
      </trkpt>
      <trkpt lat="37.41231165826320648193359375" lon="-3.30744107253849506378173828125">
        <ele>1017</ele>
        <time>2019-10-29T11:12:53.000Z</time>
      </trkpt>
      <trkpt lat="37.412307970225811004638671875" lon="-3.30769437365233898162841796875">
        <ele>1017</ele>
        <time>2019-10-29T11:12:58.000Z</time>
      </trkpt>
      <trkpt lat="37.41230520419776439666748046875" lon="-3.3079410530626773834228515625">
        <ele>1017</ele>
        <time>2019-10-29T11:13:03.000Z</time>
      </trkpt>
      <trkpt lat="37.41230805404484272003173828125" lon="-3.30819041468203067779541015625">
        <ele>1017.5999755859375</ele>
        <time>2019-10-29T11:13:08.000Z</time>
      </trkpt>
      <trkpt lat="37.4122974090278148651123046875" lon="-3.30839325673878192901611328125">
        <ele>1018.79998779296875</ele>
        <time>2019-10-29T11:13:12.000Z</time>
      </trkpt>
      <trkpt lat="37.412289194762706756591796875" lon="-3.308541364967823028564453125">
        <ele>1019.79998779296875</ele>
        <time>2019-10-29T11:13:15.000Z</time>
      </trkpt>
      <trkpt lat="37.41223580203950405120849609375" lon="-3.30877312459051609039306640625">
        <ele>1020.79998779296875</ele>
        <time>2019-10-29T11:13:20.000Z</time>
      </trkpt>
      <trkpt lat="37.41218735463917255401611328125" lon="-3.30900312401354312896728515625">
        <ele>1021</ele>
        <time>2019-10-29T11:13:25.000Z</time>
      </trkpt>
      <trkpt lat="37.412140667438507080078125" lon="-3.3092379011213779449462890625">
        <ele>1021</ele>
        <time>2019-10-29T11:13:30.000Z</time>
      </trkpt>
      <trkpt lat="37.41208911873400211334228515625" lon="-3.30947217531502246856689453125">
        <ele>1021.20001220703125</ele>
        <time>2019-10-29T11:13:35.000Z</time>
      </trkpt>
      <trkpt lat="37.412030361592769622802734375" lon="-3.30970351584255695343017578125">
        <ele>1021.79998779296875</ele>
        <time>2019-10-29T11:13:40.000Z</time>
      </trkpt>
      <trkpt lat="37.41196473129093647003173828125" lon="-3.30992463044822216033935546875">
        <ele>1022.79998779296875</ele>
        <time>2019-10-29T11:13:45.000Z</time>
      </trkpt>
      <trkpt lat="37.41188677959144115447998046875" lon="-3.31014675088226795196533203125">
        <ele>1023.79998779296875</ele>
        <time>2019-10-29T11:13:50.000Z</time>
      </trkpt>
      <trkpt lat="37.41180597804486751556396484375" lon="-3.31036736257374286651611328125">
        <ele>1024.199951171875</ele>
        <time>2019-10-29T11:13:55.000Z</time>
      </trkpt>
      <trkpt lat="37.41172031499445438385009765625" lon="-3.3105821907520294189453125">
        <ele>1024.5999755859375</ele>
        <time>2019-10-29T11:14:00.000Z</time>
      </trkpt>
      <trkpt lat="37.4116365797817707061767578125" lon="-3.31078997813165187835693359375">
        <ele>1025</ele>
        <time>2019-10-29T11:14:05.000Z</time>
      </trkpt>
      <trkpt lat="37.411534152925014495849609375" lon="-3.311011008918285369873046875">
        <ele>1025.4000244140625</ele>
        <time>2019-10-29T11:14:11.000Z</time>
      </trkpt>
      <trkpt lat="37.41142652928829193115234375" lon="-3.311235643923282623291015625">
        <ele>1026.4000244140625</ele>
        <time>2019-10-29T11:14:17.000Z</time>
      </trkpt>
      <trkpt lat="37.41132326424121856689453125" lon="-3.311462961137294769287109375">
        <ele>1028</ele>
        <time>2019-10-29T11:14:23.000Z</time>
      </trkpt>
      <trkpt lat="37.41122058592736721038818359375" lon="-3.31167577765882015228271484375">
        <ele>1029.4000244140625</ele>
        <time>2019-10-29T11:14:29.000Z</time>
      </trkpt>
      <trkpt lat="37.41111966781318187713623046875" lon="-3.3118909411132335662841796875">
        <ele>1030.800048828125</ele>
        <time>2019-10-29T11:14:35.000Z</time>
      </trkpt>
      <trkpt lat="37.41102419793605804443359375" lon="-3.3121082000434398651123046875">
        <ele>1031.800048828125</ele>
        <time>2019-10-29T11:14:41.000Z</time>
      </trkpt>
      <trkpt lat="37.41092654876410961151123046875" lon="-3.3123283088207244873046875">
        <ele>1032</ele>
        <time>2019-10-29T11:14:47.000Z</time>
      </trkpt>
      <trkpt lat="37.410832755267620086669921875" lon="-3.3125554583966732025146484375">
        <ele>1032.4000244140625</ele>
        <time>2019-10-29T11:14:53.000Z</time>
      </trkpt>
      <trkpt lat="37.41074030287563800811767578125" lon="-3.312771208584308624267578125">
        <ele>1033.5999755859375</ele>
        <time>2019-10-29T11:14:59.000Z</time>
      </trkpt>
      <trkpt lat="37.41065447218716144561767578125" lon="-3.312997519969940185546875">
        <ele>1035</ele>
        <time>2019-10-29T11:15:05.000Z</time>
      </trkpt>
      <trkpt lat="37.4105821363627910614013671875" lon="-3.31322575919330120086669921875">
        <ele>1035.5999755859375</ele>
        <time>2019-10-29T11:15:11.000Z</time>
      </trkpt>
      <trkpt lat="37.41050074808299541473388671875" lon="-3.313458859920501708984375">
        <ele>1037.199951171875</ele>
        <time>2019-10-29T11:15:17.000Z</time>
      </trkpt>
      <trkpt lat="37.4104175157845020294189453125" lon="-3.31368860788643360137939453125">
        <ele>1038.4000244140625</ele>
        <time>2019-10-29T11:15:23.000Z</time>
      </trkpt>
      <trkpt lat="37.41034786216914653778076171875" lon="-3.3139213733375072479248046875">
        <ele>1038</ele>
        <time>2019-10-29T11:15:29.000Z</time>
      </trkpt>
      <trkpt lat="37.4102756939828395843505859375" lon="-3.31414089538156986236572265625">
        <ele>1038</ele>
        <time>2019-10-29T11:15:35.000Z</time>
      </trkpt>
      <trkpt lat="37.41020754911005496978759765625" lon="-3.31436988897621631622314453125">
        <ele>1038.199951171875</ele>
        <time>2019-10-29T11:15:41.000Z</time>
      </trkpt>
      <trkpt lat="37.41014820523560047149658203125" lon="-3.31460122950375080108642578125">
        <ele>1039.199951171875</ele>
        <time>2019-10-29T11:15:47.000Z</time>
      </trkpt>
      <trkpt lat="37.4100795574486255645751953125" lon="-3.31483173184096813201904296875">
        <ele>1040.800048828125</ele>
        <time>2019-10-29T11:15:53.000Z</time>
      </trkpt>
      <trkpt lat="37.41001644171774387359619140625" lon="-3.31506483256816864013671875">
        <ele>1042.5999755859375</ele>
        <time>2019-10-29T11:15:59.000Z</time>
      </trkpt>
      <trkpt lat="37.40996145643293857574462890625" lon="-3.31530279479920864105224609375">
        <ele>1044.4000244140625</ele>
        <time>2019-10-29T11:16:05.000Z</time>
      </trkpt>
      <trkpt lat="37.40990613587200641632080078125" lon="-3.31554385833442211151123046875">
        <ele>1045.4000244140625</ele>
        <time>2019-10-29T11:16:11.000Z</time>
      </trkpt>
      <trkpt lat="37.40985131822526454925537109375" lon="-3.31577989272773265838623046875">
        <ele>1045.800048828125</ele>
        <time>2019-10-29T11:16:17.000Z</time>
      </trkpt>
      <trkpt lat="37.40979817695915699005126953125" lon="-3.316027410328388214111328125">
        <ele>1045.5999755859375</ele>
        <time>2019-10-29T11:16:23.000Z</time>
      </trkpt>
      <trkpt lat="37.409751154482364654541015625" lon="-3.3162659592926502227783203125">
        <ele>1045</ele>
        <time>2019-10-29T11:16:29.000Z</time>
      </trkpt>
      <trkpt lat="37.40970731712877750396728515625" lon="-3.316504172980785369873046875">
        <ele>1045.5999755859375</ele>
        <time>2019-10-29T11:16:35.000Z</time>
      </trkpt>
      <trkpt lat="37.40966523997485637664794921875" lon="-3.31674699671566486358642578125">
        <ele>1046.800048828125</ele>
        <time>2019-10-29T11:16:41.000Z</time>
      </trkpt>
      <trkpt lat="37.409623749554157257080078125" lon="-3.316990323364734649658203125">
        <ele>1048</ele>
        <time>2019-10-29T11:16:47.000Z</time>
      </trkpt>
      <trkpt lat="37.4095910601317882537841796875" lon="-3.31723096780478954315185546875">
        <ele>1049.4000244140625</ele>
        <time>2019-10-29T11:16:53.000Z</time>
      </trkpt>
      <trkpt lat="37.40955845452845096588134765625" lon="-3.31747789867222309112548828125">
        <ele>1050.199951171875</ele>
        <time>2019-10-29T11:16:59.000Z</time>
      </trkpt>
      <trkpt lat="37.409525848925113677978515625" lon="-3.3177270926535129547119140625">
        <ele>1051.199951171875</ele>
        <time>2019-10-29T11:17:05.000Z</time>
      </trkpt>
      <trkpt lat="37.40949776954948902130126953125" lon="-3.3179768733680248260498046875">
        <ele>1051.5999755859375</ele>
        <time>2019-10-29T11:17:11.000Z</time>
      </trkpt>
      <trkpt lat="37.4094710312783718109130859375" lon="-3.3182243071496486663818359375">
        <ele>1052.5999755859375</ele>
        <time>2019-10-29T11:17:17.000Z</time>
      </trkpt>
      <trkpt lat="37.409447394311428070068359375" lon="-3.318485319614410400390625">
        <ele>1053.5999755859375</ele>
        <time>2019-10-29T11:17:23.000Z</time>
      </trkpt>
      <trkpt lat="37.40943406708538532257080078125" lon="-3.31871129572391510009765625">
        <ele>1054.4000244140625</ele>
        <time>2019-10-29T11:17:28.000Z</time>
      </trkpt>
      <trkpt lat="37.40941755473613739013671875" lon="-3.31897792406380176544189453125">
        <ele>1055</ele>
        <time>2019-10-29T11:17:34.000Z</time>
      </trkpt>
      <trkpt lat="37.4094069935381412506103515625" lon="-3.31924111582338809967041015625">
        <ele>1055.199951171875</ele>
        <time>2019-10-29T11:17:40.000Z</time>
      </trkpt>
      <trkpt lat="37.409396432340145111083984375" lon="-3.319502882659435272216796875">
        <ele>1055.199951171875</ele>
        <time>2019-10-29T11:17:46.000Z</time>
      </trkpt>
      <trkpt lat="37.40939232520759105682373046875" lon="-3.3197692595422267913818359375">
        <ele>1055.5999755859375</ele>
        <time>2019-10-29T11:17:52.000Z</time>
      </trkpt>
      <trkpt lat="37.4093865416944026947021484375" lon="-3.32000588066875934600830078125">
        <ele>1056.199951171875</ele>
        <time>2019-10-29T11:17:57.000Z</time>
      </trkpt>
      <trkpt lat="37.40938561968505382537841796875" lon="-3.3202480338513851165771484375">
        <ele>1056.199951171875</ele>
        <time>2019-10-29T11:18:02.000Z</time>
      </trkpt>
      <trkpt lat="37.40938947536051273345947265625" lon="-3.32048934884369373321533203125">
        <ele>1057</ele>
        <time>2019-10-29T11:18:07.000Z</time>
      </trkpt>
      <trkpt lat="37.4093895591795444488525390625" lon="-3.3207351900637149810791015625">
        <ele>1057.800048828125</ele>
        <time>2019-10-29T11:18:12.000Z</time>
      </trkpt>
      <trkpt lat="37.40939919836819171905517578125" lon="-3.3209749124944210052490234375">
        <ele>1058.5999755859375</ele>
        <time>2019-10-29T11:18:17.000Z</time>
      </trkpt>
      <trkpt lat="37.40941093303263187408447265625" lon="-3.32122276537120342254638671875">
        <ele>1059.5999755859375</ele>
        <time>2019-10-29T11:18:22.000Z</time>
      </trkpt>
      <trkpt lat="37.4094220809638500213623046875" lon="-3.321474976837635040283203125">
        <ele>1059.5999755859375</ele>
        <time>2019-10-29T11:18:27.000Z</time>
      </trkpt>
      <trkpt lat="37.40943968296051025390625" lon="-3.3217227458953857421875">
        <ele>1059</ele>
        <time>2019-10-29T11:18:32.000Z</time>
      </trkpt>
      <trkpt lat="37.409458458423614501953125" lon="-3.32196992821991443634033203125">
        <ele>1059.199951171875</ele>
        <time>2019-10-29T11:18:37.000Z</time>
      </trkpt>
      <trkpt lat="37.4094824306666851043701171875" lon="-3.32221166230738162994384765625">
        <ele>1060</ele>
        <time>2019-10-29T11:18:42.000Z</time>
      </trkpt>
      <trkpt lat="37.40951051004230976104736328125" lon="-3.3224568329751491546630859375">
        <ele>1060.5999755859375</ele>
        <time>2019-10-29T11:18:47.000Z</time>
      </trkpt>
      <trkpt lat="37.409539930522441864013671875" lon="-3.32269647158682346343994140625">
        <ele>1061.199951171875</ele>
        <time>2019-10-29T11:18:52.000Z</time>
      </trkpt>
      <trkpt lat="37.40957002155482769012451171875" lon="-3.32292881794273853302001953125">
        <ele>1062.4000244140625</ele>
        <time>2019-10-29T11:18:57.000Z</time>
      </trkpt>
      <trkpt lat="37.40960338152945041656494140625" lon="-3.32316468469798564910888671875">
        <ele>1063.800048828125</ele>
        <time>2019-10-29T11:19:02.000Z</time>
      </trkpt>
      <trkpt lat="37.40963489748537540435791015625" lon="-3.32339652813971042633056640625">
        <ele>1065.199951171875</ele>
        <time>2019-10-29T11:19:07.000Z</time>
      </trkpt>
      <trkpt lat="37.409670688211917877197265625" lon="-3.32363189198076725006103515625">
        <ele>1066</ele>
        <time>2019-10-29T11:19:12.000Z</time>
      </trkpt>
      <trkpt lat="37.40970916114747524261474609375" lon="-3.32387429662048816680908203125">
        <ele>1066</ele>
        <time>2019-10-29T11:19:17.000Z</time>
      </trkpt>
      <trkpt lat="37.40975576452910900115966796875" lon="-3.324123658239841461181640625">
        <ele>1065.800048828125</ele>
        <time>2019-10-29T11:19:22.000Z</time>
      </trkpt>
      <trkpt lat="37.40980789996683597564697265625" lon="-3.32437771372497081756591796875">
        <ele>1066.5999755859375</ele>
        <time>2019-10-29T11:19:27.000Z</time>
      </trkpt>
      <trkpt lat="37.40986539982259273529052734375" lon="-3.3246398158371448516845703125">
        <ele>1066.4000244140625</ele>
        <time>2019-10-29T11:19:32.000Z</time>
      </trkpt>
      <trkpt lat="37.40992306731641292572021484375" lon="-3.32490426488220691680908203125">
        <ele>1065.5999755859375</ele>
        <time>2019-10-29T11:19:37.000Z</time>
      </trkpt>
      <trkpt lat="37.40997738204896450042724609375" lon="-3.32514197565615177154541015625">
        <ele>1064.199951171875</ele>
        <time>2019-10-29T11:19:41.000Z</time>
      </trkpt>
      <trkpt lat="37.4100445210933685302734375" lon="-3.325399719178676605224609375">
        <ele>1063.199951171875</ele>
        <time>2019-10-29T11:19:45.000Z</time>
      </trkpt>
      <trkpt lat="37.4101197905838489532470703125" lon="-3.3256714604794979095458984375">
        <ele>1063</ele>
        <time>2019-10-29T11:19:49.000Z</time>
      </trkpt>
      <trkpt lat="37.4101974070072174072265625" lon="-3.32595166750252246856689453125">
        <ele>1063.199951171875</ele>
        <time>2019-10-29T11:19:53.000Z</time>
      </trkpt>
      <trkpt lat="37.41027477197349071502685546875" lon="-3.326235227286815643310546875">
        <ele>1062.800048828125</ele>
        <time>2019-10-29T11:19:57.000Z</time>
      </trkpt>
      <trkpt lat="37.41033763624727725982666015625" lon="-3.3264563418924808502197265625">
        <ele>1062.5999755859375</ele>
        <time>2019-10-29T11:20:00.000Z</time>
      </trkpt>
      <trkpt lat="37.41039999760687351226806640625" lon="-3.32667703740298748016357421875">
        <ele>1061.800048828125</ele>
        <time>2019-10-29T11:20:03.000Z</time>
      </trkpt>
      <trkpt lat="37.41045615635812282562255859375" lon="-3.326901085674762725830078125">
        <ele>1061</ele>
        <time>2019-10-29T11:20:06.000Z</time>
      </trkpt>
      <trkpt lat="37.41050787270069122314453125" lon="-3.327125050127506256103515625">
        <ele>1061</ele>
        <time>2019-10-29T11:20:09.000Z</time>
      </trkpt>
      <trkpt lat="37.4105549789965152740478515625" lon="-3.32735479809343814849853515625">
        <ele>1060</ele>
        <time>2019-10-29T11:20:12.000Z</time>
      </trkpt>
      <trkpt lat="37.41059462539851665496826171875" lon="-3.32758932374417781829833984375">
        <ele>1058.800048828125</ele>
        <time>2019-10-29T11:20:15.000Z</time>
      </trkpt>
      <trkpt lat="37.41062580607831478118896484375" lon="-3.3278215862810611724853515625">
        <ele>1058</ele>
        <time>2019-10-29T11:20:18.000Z</time>
      </trkpt>
      <trkpt lat="37.41065262816846370697021484375" lon="-3.32811553962528705596923828125">
        <ele>1058.5999755859375</ele>
        <time>2019-10-29T11:20:22.000Z</time>
      </trkpt>
      <trkpt lat="37.410671152174472808837890625" lon="-3.3283942379057407379150390625">
        <ele>1059.800048828125</ele>
        <time>2019-10-29T11:20:26.000Z</time>
      </trkpt>
      <trkpt lat="37.4106748402118682861328125" lon="-3.32865893840789794921875">
        <ele>1060.4000244140625</ele>
        <time>2019-10-29T11:20:30.000Z</time>
      </trkpt>
      <trkpt lat="37.41068397648632526397705078125" lon="-3.3289152570068836212158203125">
        <ele>1060.800048828125</ele>
        <time>2019-10-29T11:20:34.000Z</time>
      </trkpt>
      <trkpt lat="37.41069889627397060394287109375" lon="-3.3291901834309101104736328125">
        <ele>1060.800048828125</ele>
        <time>2019-10-29T11:20:38.000Z</time>
      </trkpt>
      <trkpt lat="37.4107045121490955352783203125" lon="-3.32947893999516963958740234375">
        <ele>1061.4000244140625</ele>
        <time>2019-10-29T11:20:42.000Z</time>
      </trkpt>
      <trkpt lat="37.410713732242584228515625" lon="-3.32977348007261753082275390625">
        <ele>1061.4000244140625</ele>
        <time>2019-10-29T11:20:46.000Z</time>
      </trkpt>
      <trkpt lat="37.4107236228883266448974609375" lon="-3.33007036708295345306396484375">
        <ele>1061.4000244140625</ele>
        <time>2019-10-29T11:20:50.000Z</time>
      </trkpt>
      <trkpt lat="37.41072907112538814544677734375" lon="-3.33030187524855136871337890625">
        <ele>1061.5999755859375</ele>
        <time>2019-10-29T11:20:53.000Z</time>
      </trkpt>
      <trkpt lat="37.41073451936244964599609375" lon="-3.33052818663418292999267578125">
        <ele>1062.199951171875</ele>
        <time>2019-10-29T11:20:56.000Z</time>
      </trkpt>
      <trkpt lat="37.41074617020785808563232421875" lon="-3.330757431685924530029296875">
        <ele>1061.4000244140625</ele>
        <time>2019-10-29T11:20:59.000Z</time>
      </trkpt>
      <trkpt lat="37.41075639612972736358642578125" lon="-3.33098533563315868377685546875">
        <ele>1060.4000244140625</ele>
        <time>2019-10-29T11:21:02.000Z</time>
      </trkpt>
      <trkpt lat="37.41077332757413387298583984375" lon="-3.33121173083782196044921875">
        <ele>1059.5999755859375</ele>
        <time>2019-10-29T11:21:05.000Z</time>
      </trkpt>
      <trkpt lat="37.41079294122755527496337890625" lon="-3.33143946714699268341064453125">
        <ele>1059.4000244140625</ele>
        <time>2019-10-29T11:21:08.000Z</time>
      </trkpt>
      <trkpt lat="37.41081708110868930816650390625" lon="-3.33167332224547863006591796875">
        <ele>1060.199951171875</ele>
        <time>2019-10-29T11:21:11.000Z</time>
      </trkpt>
      <trkpt lat="37.41083954460918903350830078125" lon="-3.3319052495062351226806640625">
        <ele>1061.800048828125</ele>
        <time>2019-10-29T11:21:14.000Z</time>
      </trkpt>
      <trkpt lat="37.4108706414699554443359375" lon="-3.33213306963443756103515625">
        <ele>1063</ele>
        <time>2019-10-29T11:21:17.000Z</time>
      </trkpt>
      <trkpt lat="37.41090073250234127044677734375" lon="-3.33235611207783222198486328125">
        <ele>1063</ele>
        <time>2019-10-29T11:21:20.000Z</time>
      </trkpt>
      <trkpt lat="37.41094172000885009765625" lon="-3.3326447010040283203125">
        <ele>1062.4000244140625</ele>
        <time>2019-10-29T11:21:24.000Z</time>
      </trkpt>
      <trkpt lat="37.410983629524707794189453125" lon="-3.33292834460735321044921875">
        <ele>1060.800048828125</ele>
        <time>2019-10-29T11:21:28.000Z</time>
      </trkpt>
      <trkpt lat="37.41102495230734348297119140625" lon="-3.33320536650717258453369140625">
        <ele>1060.800048828125</ele>
        <time>2019-10-29T11:21:32.000Z</time>
      </trkpt>
      <trkpt lat="37.4110622517764568328857421875" lon="-3.3334813825786113739013671875">
        <ele>1062.4000244140625</ele>
        <time>2019-10-29T11:21:36.000Z</time>
      </trkpt>
      <trkpt lat="37.4111044965684413909912109375" lon="-3.33375714719295501708984375">
        <ele>1063.5999755859375</ele>
        <time>2019-10-29T11:21:40.000Z</time>
      </trkpt>
      <trkpt lat="37.4111356772482395172119140625" lon="-3.33404087461531162261962890625">
        <ele>1061.5999755859375</ele>
        <time>2019-10-29T11:21:44.000Z</time>
      </trkpt>
      <trkpt lat="37.411153614521026611328125" lon="-3.3343232609331607818603515625">
        <ele>1059</ele>
        <time>2019-10-29T11:21:48.000Z</time>
      </trkpt>
      <trkpt lat="37.4111598171293735504150390625" lon="-3.3346095867455005645751953125">
        <ele>1060.199951171875</ele>
        <time>2019-10-29T11:21:52.000Z</time>
      </trkpt>
      <trkpt lat="37.41115101613104343414306640625" lon="-3.3349063061177730560302734375">
        <ele>1061.199951171875</ele>
        <time>2019-10-29T11:21:56.000Z</time>
      </trkpt>
      <trkpt lat="37.411126792430877685546875" lon="-3.33519279956817626953125">
        <ele>1062.5999755859375</ele>
        <time>2019-10-29T11:22:00.000Z</time>
      </trkpt>
      <trkpt lat="37.41109133698046207427978515625" lon="-3.3354699052870273590087890625">
        <ele>1063</ele>
        <time>2019-10-29T11:22:04.000Z</time>
      </trkpt>
      <trkpt lat="37.41105110384523868560791015625" lon="-3.3357493579387664794921875">
        <ele>1062.199951171875</ele>
        <time>2019-10-29T11:22:08.000Z</time>
      </trkpt>
      <trkpt lat="37.4110042490065097808837890625" lon="-3.3360341750085353851318359375">
        <ele>1062.199951171875</ele>
        <time>2019-10-29T11:22:12.000Z</time>
      </trkpt>
      <trkpt lat="37.41095638833940029144287109375" lon="-3.33632712252438068389892578125">
        <ele>1062.4000244140625</ele>
        <time>2019-10-29T11:22:16.000Z</time>
      </trkpt>
      <trkpt lat="37.41091045551002025604248046875" lon="-3.33661428652703762054443359375">
        <ele>1061.5999755859375</ele>
        <time>2019-10-29T11:22:20.000Z</time>
      </trkpt>
      <trkpt lat="37.41086452268064022064208984375" lon="-3.33688862621784210205078125">
        <ele>1060.800048828125</ele>
        <time>2019-10-29T11:22:24.000Z</time>
      </trkpt>
      <trkpt lat="37.41082579828798770904541015625" lon="-3.33715827204287052154541015625">
        <ele>1061</ele>
        <time>2019-10-29T11:22:28.000Z</time>
      </trkpt>
      <trkpt lat="37.41079729981720447540283203125" lon="-3.33743512630462646484375">
        <ele>1061</ele>
        <time>2019-10-29T11:22:32.000Z</time>
      </trkpt>
      <trkpt lat="37.4107779376208782196044921875" lon="-3.33770125173032283782958984375">
        <ele>1061.800048828125</ele>
        <time>2019-10-29T11:22:36.000Z</time>
      </trkpt>
      <trkpt lat="37.41077466867864131927490234375" lon="-3.33796008490025997161865234375">
        <ele>1062.5999755859375</ele>
        <time>2019-10-29T11:22:40.000Z</time>
      </trkpt>
      <trkpt lat="37.4107836373150348663330078125" lon="-3.3382245339453220367431640625">
        <ele>1063.5999755859375</ele>
        <time>2019-10-29T11:22:44.000Z</time>
      </trkpt>
      <trkpt lat="37.41080400533974170684814453125" lon="-3.33848965354263782501220703125">
        <ele>1064.800048828125</ele>
        <time>2019-10-29T11:22:48.000Z</time>
      </trkpt>
      <trkpt lat="37.41083317436277866363525390625" lon="-3.338753096759319305419921875">
        <ele>1065.5999755859375</ele>
        <time>2019-10-29T11:22:52.000Z</time>
      </trkpt>
      <trkpt lat="37.41087575443089008331298828125" lon="-3.33901419304311275482177734375">
        <ele>1065</ele>
        <time>2019-10-29T11:22:56.000Z</time>
      </trkpt>
      <trkpt lat="37.410929985344409942626953125" lon="-3.3392679132521152496337890625">
        <ele>1064.5999755859375</ele>
        <time>2019-10-29T11:23:00.000Z</time>
      </trkpt>
      <trkpt lat="37.41099025122821331024169921875" lon="-3.33951844833791255950927734375">
        <ele>1063.5999755859375</ele>
        <time>2019-10-29T11:23:04.000Z</time>
      </trkpt>
      <trkpt lat="37.4110575579106807708740234375" lon="-3.33977493457496166229248046875">
        <ele>1062.199951171875</ele>
        <time>2019-10-29T11:23:08.000Z</time>
      </trkpt>
      <trkpt lat="37.41113106720149517059326171875" lon="-3.34004181437194347381591796875">
        <ele>1062.4000244140625</ele>
        <time>2019-10-29T11:23:12.000Z</time>
      </trkpt>
      <trkpt lat="37.41120113991200923919677734375" lon="-3.3403116278350353240966796875">
        <ele>1063.4000244140625</ele>
        <time>2019-10-29T11:23:16.000Z</time>
      </trkpt>
      <trkpt lat="37.4112774990499019622802734375" lon="-3.34058311767876148223876953125">
        <ele>1063.5999755859375</ele>
        <time>2019-10-29T11:23:20.000Z</time>
      </trkpt>
      <trkpt lat="37.41135469637811183929443359375" lon="-3.34086575545370578765869140625">
        <ele>1064</ele>
        <time>2019-10-29T11:23:24.000Z</time>
      </trkpt>
      <trkpt lat="37.41141320206224918365478515625" lon="-3.341080583631992340087890625">
        <ele>1063.800048828125</ele>
        <time>2019-10-29T11:23:27.000Z</time>
      </trkpt>
      <trkpt lat="37.41147103719413280487060546875" lon="-3.34129658527672290802001953125">
        <ele>1063</ele>
        <time>2019-10-29T11:23:30.000Z</time>
      </trkpt>
      <trkpt lat="37.41153440438210964202880859375" lon="-3.34158039651811122894287109375">
        <ele>1062.5999755859375</ele>
        <time>2019-10-29T11:23:34.000Z</time>
      </trkpt>
      <trkpt lat="37.41157983429729938507080078125" lon="-3.34185867570340633392333984375">
        <ele>1061.4000244140625</ele>
        <time>2019-10-29T11:23:38.000Z</time>
      </trkpt>
      <trkpt lat="37.411616630852222442626953125" lon="-3.342157490551471710205078125">
        <ele>1059.4000244140625</ele>
        <time>2019-10-29T11:23:42.000Z</time>
      </trkpt>
      <trkpt lat="37.41163230501115322113037109375" lon="-3.34239746443927288055419921875">
        <ele>1059</ele>
        <time>2019-10-29T11:23:45.000Z</time>
      </trkpt>
      <trkpt lat="37.41164001636207103729248046875" lon="-3.34264037199318408966064453125">
        <ele>1059</ele>
        <time>2019-10-29T11:23:48.000Z</time>
      </trkpt>
      <trkpt lat="37.41163347847759723663330078125" lon="-3.3428909070789813995361328125">
        <ele>1059</ele>
        <time>2019-10-29T11:23:51.000Z</time>
      </trkpt>
      <trkpt lat="37.41161696612834930419921875" lon="-3.34313523955643177032470703125">
        <ele>1059.199951171875</ele>
        <time>2019-10-29T11:23:54.000Z</time>
      </trkpt>
      <trkpt lat="37.41159441880881786346435546875" lon="-3.34336490370333194732666015625">
        <ele>1059.800048828125</ele>
        <time>2019-10-29T11:23:57.000Z</time>
      </trkpt>
      <trkpt lat="37.4115725420415401458740234375" lon="-3.3436350524425506591796875">
        <ele>1061.199951171875</ele>
        <time>2019-10-29T11:24:01.000Z</time>
      </trkpt>
      <trkpt lat="37.4115524254739284515380859375" lon="-3.3438880182802677154541015625">
        <ele>1062.199951171875</ele>
        <time>2019-10-29T11:24:05.000Z</time>
      </trkpt>
      <trkpt lat="37.41153641603887081146240234375" lon="-3.34412815980613231658935546875">
        <ele>1063</ele>
        <time>2019-10-29T11:24:09.000Z</time>
      </trkpt>
      <trkpt lat="37.4115219153463840484619140625" lon="-3.3443570695817470550537109375">
        <ele>1065</ele>
        <time>2019-10-29T11:24:13.000Z</time>
      </trkpt>
      <trkpt lat="37.41151034832000732421875" lon="-3.34463861770927906036376953125">
        <ele>1066.800048828125</ele>
        <time>2019-10-29T11:24:18.000Z</time>
      </trkpt>
      <trkpt lat="37.4115049839019775390625" lon="-3.344915807247161865234375">
        <ele>1067.4000244140625</ele>
        <time>2019-10-29T11:24:23.000Z</time>
      </trkpt>
      <trkpt lat="37.411501966416835784912109375" lon="-3.3451912365853786468505859375">
        <ele>1067.199951171875</ele>
        <time>2019-10-29T11:24:28.000Z</time>
      </trkpt>
      <trkpt lat="37.4114997871220111846923828125" lon="-3.3454696834087371826171875">
        <ele>1067</ele>
        <time>2019-10-29T11:24:33.000Z</time>
      </trkpt>
      <trkpt lat="37.41150674410164356231689453125" lon="-3.34573723375797271728515625">
        <ele>1066.5999755859375</ele>
        <time>2019-10-29T11:24:38.000Z</time>
      </trkpt>
      <trkpt lat="37.41151194088160991668701171875" lon="-3.34599531255662441253662109375">
        <ele>1065.800048828125</ele>
        <time>2019-10-29T11:24:43.000Z</time>
      </trkpt>
      <trkpt lat="37.41151546128094196319580078125" lon="-3.34625850431621074676513671875">
        <ele>1065.199951171875</ele>
        <time>2019-10-29T11:24:48.000Z</time>
      </trkpt>
      <trkpt lat="37.41151906549930572509765625" lon="-3.3465303294360637664794921875">
        <ele>1065.4000244140625</ele>
        <time>2019-10-29T11:24:53.000Z</time>
      </trkpt>
      <trkpt lat="37.41152585484087467193603515625" lon="-3.3468102850019931793212890625">
        <ele>1066</ele>
        <time>2019-10-29T11:24:58.000Z</time>
      </trkpt>
      <trkpt lat="37.41153356619179248809814453125" lon="-3.347037769854068756103515625">
        <ele>1066.800048828125</ele>
        <time>2019-10-29T11:25:02.000Z</time>
      </trkpt>
      <trkpt lat="37.41153356619179248809814453125" lon="-3.34726533852517604827880859375">
        <ele>1067.800048828125</ele>
        <time>2019-10-29T11:25:06.000Z</time>
      </trkpt>
      <trkpt lat="37.411538176238536834716796875" lon="-3.34749944508075714111328125">
        <ele>1068.4000244140625</ele>
        <time>2019-10-29T11:25:10.000Z</time>
      </trkpt>
      <trkpt lat="37.411539517343044281005859375" lon="-3.34777210839092731475830078125">
        <ele>1069.800048828125</ele>
        <time>2019-10-29T11:25:15.000Z</time>
      </trkpt>
      <trkpt lat="37.411550246179103851318359375" lon="-3.34804669953882694244384765625">
        <ele>1071</ele>
        <time>2019-10-29T11:25:20.000Z</time>
      </trkpt>
      <trkpt lat="37.4115574546158313751220703125" lon="-3.3482992462813854217529296875">
        <ele>1072</ele>
        <time>2019-10-29T11:25:25.000Z</time>
      </trkpt>
      <trkpt lat="37.41156977601349353790283203125" lon="-3.34855045191943645477294921875">
        <ele>1074.199951171875</ele>
        <time>2019-10-29T11:25:30.000Z</time>
      </trkpt>
      <trkpt lat="37.41157597862184047698974609375" lon="-3.3487900905311107635498046875">
        <ele>1076.5999755859375</ele>
        <time>2019-10-29T11:25:35.000Z</time>
      </trkpt>
      <trkpt lat="37.4115842767059803009033203125" lon="-3.3490378595888614654541015625">
        <ele>1078.4000244140625</ele>
        <time>2019-10-29T11:25:40.000Z</time>
      </trkpt>
      <trkpt lat="37.41159827448427677154541015625" lon="-3.3492728881537914276123046875">
        <ele>1079.199951171875</ele>
        <time>2019-10-29T11:25:45.000Z</time>
      </trkpt>
      <trkpt lat="37.4116109311580657958984375" lon="-3.3495424501597881317138671875">
        <ele>1078.5999755859375</ele>
        <time>2019-10-29T11:25:51.000Z</time>
      </trkpt>
      <trkpt lat="37.4116214923560619354248046875" lon="-3.3498130179941654205322265625">
        <ele>1077.5999755859375</ele>
        <time>2019-10-29T11:25:57.000Z</time>
      </trkpt>
      <trkpt lat="37.411632053554058074951171875" lon="-3.35004276596009731292724609375">
        <ele>1077.5999755859375</ele>
        <time>2019-10-29T11:26:02.000Z</time>
      </trkpt>
      <trkpt lat="37.41164018400013446807861328125" lon="-3.3502743579447269439697265625">
        <ele>1079.199951171875</ele>
        <time>2019-10-29T11:26:07.000Z</time>
      </trkpt>
      <trkpt lat="37.4116520024836063385009765625" lon="-3.3505060337483882904052734375">
        <ele>1080</ele>
        <time>2019-10-29T11:26:12.000Z</time>
      </trkpt>
      <trkpt lat="37.41166365332901477813720703125" lon="-3.35077551193535327911376953125">
        <ele>1080.800048828125</ele>
        <time>2019-10-29T11:26:18.000Z</time>
      </trkpt>
      <trkpt lat="37.4116771481931209564208984375" lon="-3.351006768643856048583984375">
        <ele>1082.5999755859375</ele>
        <time>2019-10-29T11:26:23.000Z</time>
      </trkpt>
      <trkpt lat="37.4116908945143222808837890625" lon="-3.35124255158007144927978515625">
        <ele>1084.199951171875</ele>
        <time>2019-10-29T11:26:28.000Z</time>
      </trkpt>
      <trkpt lat="37.4117059819400310516357421875" lon="-3.3514843694865703582763671875">
        <ele>1085.199951171875</ele>
        <time>2019-10-29T11:26:33.000Z</time>
      </trkpt>
      <trkpt lat="37.41171889007091522216796875" lon="-3.35173775441944599151611328125">
        <ele>1085.199951171875</ele>
        <time>2019-10-29T11:26:38.000Z</time>
      </trkpt>
      <trkpt lat="37.4117314629256725311279296875" lon="-3.3519839309155941009521484375">
        <ele>1085</ele>
        <time>2019-10-29T11:26:43.000Z</time>
      </trkpt>
      <trkpt lat="37.41175199858844280242919921875" lon="-3.35223547182977199554443359375">
        <ele>1084.800048828125</ele>
        <time>2019-10-29T11:26:49.000Z</time>
      </trkpt>
      <trkpt lat="37.41176809184253215789794921875" lon="-3.352258689701557159423828125">
        <ele>1084.800048828125</ele>
        <time>2019-10-29T11:26:52.000Z</time>
      </trkpt>
      <trkpt lat="37.4117673374712467193603515625" lon="-3.35225642658770084381103515625">
        <ele>1084.800048828125</ele>
        <time>2019-10-29T11:26:54.000Z</time>
      </trkpt>
      <trkpt lat="37.41175702773034572601318359375" lon="-3.35243177600204944610595703125">
        <ele>1085.199951171875</ele>
        <time>2019-10-29T11:28:35.000Z</time>
      </trkpt>
      <trkpt lat="37.411781586706638336181640625" lon="-3.35266948677599430084228515625">
        <ele>1084.199951171875</ele>
        <time>2019-10-29T11:28:41.000Z</time>
      </trkpt>
      <trkpt lat="37.41180815733969211578369140625" lon="-3.3529381267726421356201171875">
        <ele>1082.199951171875</ele>
        <time>2019-10-29T11:28:47.000Z</time>
      </trkpt>
      <trkpt lat="37.41182743571698665618896484375" lon="-3.35316502489149570465087890625">
        <ele>1079</ele>
        <time>2019-10-29T11:28:51.000Z</time>
      </trkpt>
      <trkpt lat="37.41184604354202747344970703125" lon="-3.3534143865108489990234375">
        <ele>1076.5999755859375</ele>
        <time>2019-10-29T11:28:55.000Z</time>
      </trkpt>
      <trkpt lat="37.411864735186100006103515625" lon="-3.3536804281175136566162109375">
        <ele>1074.4000244140625</ele>
        <time>2019-10-29T11:28:59.000Z</time>
      </trkpt>
      <trkpt lat="37.41188342683017253875732421875" lon="-3.3539533428847789764404296875">
        <ele>1075.199951171875</ele>
        <time>2019-10-29T11:29:03.000Z</time>
      </trkpt>
      <trkpt lat="37.411903627216815948486328125" lon="-3.354235477745532989501953125">
        <ele>1076.5999755859375</ele>
        <time>2019-10-29T11:29:07.000Z</time>
      </trkpt>
      <trkpt lat="37.41192148067057132720947265625" lon="-3.3545186184346675872802734375">
        <ele>1077</ele>
        <time>2019-10-29T11:29:11.000Z</time>
      </trkpt>
      <trkpt lat="37.411941848695278167724609375" lon="-3.35480787791311740875244140625">
        <ele>1077.4000244140625</ele>
        <time>2019-10-29T11:29:15.000Z</time>
      </trkpt>
      <trkpt lat="37.41196003742516040802001953125" lon="-3.3551046811044216156005859375">
        <ele>1078.4000244140625</ele>
        <time>2019-10-29T11:29:19.000Z</time>
      </trkpt>
      <trkpt lat="37.41197227500379085540771484375" lon="-3.355331830680370330810546875">
        <ele>1079</ele>
        <time>2019-10-29T11:29:22.000Z</time>
      </trkpt>
      <trkpt lat="37.41198669187724590301513671875" lon="-3.35562913678586483001708984375">
        <ele>1080</ele>
        <time>2019-10-29T11:29:26.000Z</time>
      </trkpt>
      <trkpt lat="37.41200094111263751983642578125" lon="-3.35592602379620075225830078125">
        <ele>1080.4000244140625</ele>
        <time>2019-10-29T11:29:30.000Z</time>
      </trkpt>
      <trkpt lat="37.41201485507190227508544921875" lon="-3.35622123442590236663818359375">
        <ele>1080.800048828125</ele>
        <time>2019-10-29T11:29:34.000Z</time>
      </trkpt>
      <trkpt lat="37.41202625446021556854248046875" lon="-3.35650772787630558013916015625">
        <ele>1081.199951171875</ele>
        <time>2019-10-29T11:29:38.000Z</time>
      </trkpt>
      <trkpt lat="37.41203564219176769256591796875" lon="-3.35679061710834503173828125">
        <ele>1082.199951171875</ele>
        <time>2019-10-29T11:29:42.000Z</time>
      </trkpt>
      <trkpt lat="37.41204285062849521636962890625" lon="-3.35707048885524272918701171875">
        <ele>1082.800048828125</ele>
        <time>2019-10-29T11:29:46.000Z</time>
      </trkpt>
      <trkpt lat="37.41204536519944667816162109375" lon="-3.35734725929796695709228515625">
        <ele>1083.5999755859375</ele>
        <time>2019-10-29T11:29:50.000Z</time>
      </trkpt>
      <trkpt lat="37.41205860860645771026611328125" lon="-3.35762436501681804656982421875">
        <ele>1083.4000244140625</ele>
        <time>2019-10-29T11:29:54.000Z</time>
      </trkpt>
      <trkpt lat="37.41206833161413669586181640625" lon="-3.35790750570595264434814453125">
        <ele>1082</ele>
        <time>2019-10-29T11:29:58.000Z</time>
      </trkpt>
      <trkpt lat="37.4120714329183101654052734375" lon="-3.3581925742328166961669921875">
        <ele>1081.4000244140625</ele>
        <time>2019-10-29T11:30:02.000Z</time>
      </trkpt>
      <trkpt lat="37.4120771326124668121337890625" lon="-3.35847814567387104034423828125">
        <ele>1081.4000244140625</ele>
        <time>2019-10-29T11:30:06.000Z</time>
      </trkpt>
      <trkpt lat="37.412086017429828643798828125" lon="-3.35876765660941600799560546875">
        <ele>1080.5999755859375</ele>
        <time>2019-10-29T11:30:10.000Z</time>
      </trkpt>
      <trkpt lat="37.41209465079009532928466796875" lon="-3.3590535633265972137451171875">
        <ele>1080.4000244140625</ele>
        <time>2019-10-29T11:30:14.000Z</time>
      </trkpt>
      <trkpt lat="37.412101440131664276123046875" lon="-3.35933930240571498870849609375">
        <ele>1080.4000244140625</ele>
        <time>2019-10-29T11:30:18.000Z</time>
      </trkpt>
      <trkpt lat="37.41210437379777431488037109375" lon="-3.35961942560970783233642578125">
        <ele>1080.4000244140625</ele>
        <time>2019-10-29T11:30:22.000Z</time>
      </trkpt>
      <trkpt lat="37.41210923530161380767822265625" lon="-3.359896950423717498779296875">
        <ele>1080.4000244140625</ele>
        <time>2019-10-29T11:30:26.000Z</time>
      </trkpt>
      <trkpt lat="37.41210705600678920745849609375" lon="-3.36017531342804431915283203125">
        <ele>1080.4000244140625</ele>
        <time>2019-10-29T11:30:30.000Z</time>
      </trkpt>
      <trkpt lat="37.41210043430328369140625" lon="-3.36045124568045139312744140625">
        <ele>1081.4000244140625</ele>
        <time>2019-10-29T11:30:34.000Z</time>
      </trkpt>
      <trkpt lat="37.41208408959209918975830078125" lon="-3.36071879602968692779541015625">
        <ele>1083</ele>
        <time>2019-10-29T11:30:38.000Z</time>
      </trkpt>
      <trkpt lat="37.41205860860645771026611328125" lon="-3.36097075603902339935302734375">
        <ele>1084.800048828125</ele>
        <time>2019-10-29T11:30:42.000Z</time>
      </trkpt>
      <trkpt lat="37.41202063858509063720703125" lon="-3.3612053655087947845458984375">
        <ele>1085.800048828125</ele>
        <time>2019-10-29T11:30:46.000Z</time>
      </trkpt>
      <trkpt lat="37.41197881288826465606689453125" lon="-3.3614390529692173004150390625">
        <ele>1086</ele>
        <time>2019-10-29T11:30:50.000Z</time>
      </trkpt>
      <trkpt lat="37.4119232408702373504638671875" lon="-3.3616707287728786468505859375">
        <ele>1086</ele>
        <time>2019-10-29T11:30:54.000Z</time>
      </trkpt>
      <trkpt lat="37.41186817176640033721923828125" lon="-3.36189578287303447723388671875">
        <ele>1086</ele>
        <time>2019-10-29T11:30:58.000Z</time>
      </trkpt>
      <trkpt lat="37.4118072353303432464599609375" lon="-3.362108767032623291015625">
        <ele>1086</ele>
        <time>2019-10-29T11:31:02.000Z</time>
      </trkpt>
      <trkpt lat="37.41173607297241687774658203125" lon="-3.36236416362226009368896484375">
        <ele>1086</ele>
        <time>2019-10-29T11:31:07.000Z</time>
      </trkpt>
      <trkpt lat="37.41167186759412288665771484375" lon="-3.36258963681757450103759765625">
        <ele>1085.800048828125</ele>
        <time>2019-10-29T11:31:12.000Z</time>
      </trkpt>
      <trkpt lat="37.41164102219045162200927734375" lon="-3.36270748637616634368896484375">
        <ele>1086</ele>
        <time>2019-10-29T11:31:15.000Z</time>
      </trkpt>
      <trkpt lat="37.41163280792534351348876953125" lon="-3.3627721108496189117431640625">
        <ele>1086</ele>
        <time>2019-10-29T11:31:18.000Z</time>
      </trkpt>
      <trkpt lat="37.41163414902985095977783203125" lon="-3.36276984773576259613037109375">
        <ele>1086</ele>
        <time>2019-10-29T11:31:21.000Z</time>
      </trkpt>
      <trkpt lat="37.41160799749195575714111328125" lon="-3.36286188103258609771728515625">
        <ele>1086</ele>
        <time>2019-10-29T11:33:52.000Z</time>
      </trkpt>
      <trkpt lat="37.4114917404949665069580078125" lon="-3.36307830177247524261474609375">
        <ele>1086.4000244140625</ele>
        <time>2019-10-29T11:33:59.000Z</time>
      </trkpt>
      <trkpt lat="37.4113921634852886199951171875" lon="-3.363269157707691192626953125">
        <ele>1086.800048828125</ele>
        <time>2019-10-29T11:34:04.000Z</time>
      </trkpt>
      <trkpt lat="37.41130826063454151153564453125" lon="-3.36348465643823146820068359375">
        <ele>1087.4000244140625</ele>
        <time>2019-10-29T11:34:09.000Z</time>
      </trkpt>
      <trkpt lat="37.41122662089765071868896484375" lon="-3.36371750570833683013916015625">
        <ele>1087.4000244140625</ele>
        <time>2019-10-29T11:34:14.000Z</time>
      </trkpt>
      <trkpt lat="37.41113953292369842529296875" lon="-3.36395504884421825408935546875">
        <ele>1087.5999755859375</ele>
        <time>2019-10-29T11:34:19.000Z</time>
      </trkpt>
      <trkpt lat="37.411050684750080108642578125" lon="-3.3641966991126537322998046875">
        <ele>1088.199951171875</ele>
        <time>2019-10-29T11:34:24.000Z</time>
      </trkpt>
      <trkpt lat="37.41096929647028446197509765625" lon="-3.36444606073200702667236328125">
        <ele>1088.800048828125</ele>
        <time>2019-10-29T11:34:29.000Z</time>
      </trkpt>
      <trkpt lat="37.4108920991420745849609375" lon="-3.36471260525286197662353515625">
        <ele>1088.800048828125</ele>
        <time>2019-10-29T11:34:34.000Z</time>
      </trkpt>
      <trkpt lat="37.410837113857269287109375" lon="-3.36493036709725856781005859375">
        <ele>1089.800048828125</ele>
        <time>2019-10-29T11:34:38.000Z</time>
      </trkpt>
      <trkpt lat="37.4107866548001766204833984375" lon="-3.36515449918806552886962890625">
        <ele>1090.4000244140625</ele>
        <time>2019-10-29T11:34:42.000Z</time>
      </trkpt>
      <trkpt lat="37.41074080578982830047607421875" lon="-3.36538131348788738250732421875">
        <ele>1091.4000244140625</ele>
        <time>2019-10-29T11:34:46.000Z</time>
      </trkpt>
      <trkpt lat="37.41070291958749294281005859375" lon="-3.3656152524054050445556640625">
        <ele>1092.5999755859375</ele>
        <time>2019-10-29T11:34:50.000Z</time>
      </trkpt>
      <trkpt lat="37.41066369228065013885498046875" lon="-3.36585053242743015289306640625">
        <ele>1093.199951171875</ele>
        <time>2019-10-29T11:34:54.000Z</time>
      </trkpt>
      <trkpt lat="37.41063184104859828948974609375" lon="-3.3660920150578022003173828125">
        <ele>1094.199951171875</ele>
        <time>2019-10-29T11:34:58.000Z</time>
      </trkpt>
      <trkpt lat="37.4105997383594512939453125" lon="-3.3663384430110454559326171875">
        <ele>1094</ele>
        <time>2019-10-29T11:35:02.000Z</time>
      </trkpt>
      <trkpt lat="37.410559169948101043701171875" lon="-3.36660440079867839813232421875">
        <ele>1092.800048828125</ele>
        <time>2019-10-29T11:35:06.000Z</time>
      </trkpt>
      <trkpt lat="37.41052019409835338592529296875" lon="-3.3668836019933223724365234375">
        <ele>1092.199951171875</ele>
        <time>2019-10-29T11:35:10.000Z</time>
      </trkpt>
      <trkpt lat="37.4104815535247325897216796875" lon="-3.36716263554990291595458984375">
        <ele>1092.199951171875</ele>
        <time>2019-10-29T11:35:14.000Z</time>
      </trkpt>
      <trkpt lat="37.41043989546597003936767578125" lon="-3.36743404157459735870361328125">
        <ele>1090.800048828125</ele>
        <time>2019-10-29T11:35:18.000Z</time>
      </trkpt>
      <trkpt lat="37.41038776002824306488037109375" lon="-3.36771332658827304840087890625">
        <ele>1089.199951171875</ele>
        <time>2019-10-29T11:35:22.000Z</time>
      </trkpt>
      <trkpt lat="37.41033143363893032073974609375" lon="-3.36800032295286655426025390625">
        <ele>1088.199951171875</ele>
        <time>2019-10-29T11:35:26.000Z</time>
      </trkpt>
      <trkpt lat="37.410278879106044769287109375" lon="-3.36821758188307285308837890625">
        <ele>1087.199951171875</ele>
        <time>2019-10-29T11:35:29.000Z</time>
      </trkpt>
      <trkpt lat="37.410217858850955963134765625" lon="-3.36843869648873805999755859375">
        <ele>1086.800048828125</ele>
        <time>2019-10-29T11:35:32.000Z</time>
      </trkpt>
      <trkpt lat="37.41015071980655193328857421875" lon="-3.3686545304954051971435546875">
        <ele>1087.199951171875</ele>
        <time>2019-10-29T11:35:35.000Z</time>
      </trkpt>
      <trkpt lat="37.41007461212575435638427734375" lon="-3.36886432953178882598876953125">
        <ele>1088</ele>
        <time>2019-10-29T11:35:38.000Z</time>
      </trkpt>
      <trkpt lat="37.4099913798272609710693359375" lon="-3.36906834505498409271240234375">
        <ele>1088.800048828125</ele>
        <time>2019-10-29T11:35:41.000Z</time>
      </trkpt>
      <trkpt lat="37.40990043617784976959228515625" lon="-3.36926414631307125091552734375">
        <ele>1089.5999755859375</ele>
        <time>2019-10-29T11:35:44.000Z</time>
      </trkpt>
      <trkpt lat="37.40979951806366443634033203125" lon="-3.369458355009555816650390625">
        <ele>1090</ele>
        <time>2019-10-29T11:35:47.000Z</time>
      </trkpt>
      <trkpt lat="37.4096899665892124176025390625" lon="-3.36965222842991352081298828125">
        <ele>1090.199951171875</ele>
        <time>2019-10-29T11:35:50.000Z</time>
      </trkpt>
      <trkpt lat="37.4095749668776988983154296875" lon="-3.36984735913574695587158203125">
        <ele>1090.199951171875</ele>
        <time>2019-10-29T11:35:53.000Z</time>
      </trkpt>
      <trkpt lat="37.4094482325017452239990234375" lon="-3.37004047818481922149658203125">
        <ele>1090.199951171875</ele>
        <time>2019-10-29T11:35:56.000Z</time>
      </trkpt>
      <trkpt lat="37.40931001491844654083251953125" lon="-3.37022588588297367095947265625">
        <ele>1090</ele>
        <time>2019-10-29T11:35:59.000Z</time>
      </trkpt>
      <trkpt lat="37.40916148759424686431884765625" lon="-3.37042017839848995208740234375">
        <ele>1089.5999755859375</ele>
        <time>2019-10-29T11:36:02.000Z</time>
      </trkpt>
      <trkpt lat="37.40900206379592418670654296875" lon="-3.37061547674238681793212890625">
        <ele>1088.4000244140625</ele>
        <time>2019-10-29T11:36:05.000Z</time>
      </trkpt>
      <trkpt lat="37.408841215074062347412109375" lon="-3.37081764824688434600830078125">
        <ele>1087</ele>
        <time>2019-10-29T11:36:08.000Z</time>
      </trkpt>
      <trkpt lat="37.40867466665804386138916015625" lon="-3.37102753110229969024658203125">
        <ele>1087.199951171875</ele>
        <time>2019-10-29T11:36:11.000Z</time>
      </trkpt>
      <trkpt lat="37.4085020832717418670654296875" lon="-3.37124780751764774322509765625">
        <ele>1087.4000244140625</ele>
        <time>2019-10-29T11:36:14.000Z</time>
      </trkpt>
      <trkpt lat="37.408330254256725311279296875" lon="-3.37147981859743595123291015625">
        <ele>1087.4000244140625</ele>
        <time>2019-10-29T11:36:17.000Z</time>
      </trkpt>
      <trkpt lat="37.4081537313759326934814453125" lon="-3.37172490544617176055908203125">
        <ele>1086.800048828125</ele>
        <time>2019-10-29T11:36:20.000Z</time>
      </trkpt>
      <trkpt lat="37.4080328643321990966796875" lon="-3.3718966506421566009521484375">
        <ele>1086</ele>
        <time>2019-10-29T11:36:22.000Z</time>
      </trkpt>
      <trkpt lat="37.40791878663003444671630859375" lon="-3.372077532112598419189453125">
        <ele>1084</ele>
        <time>2019-10-29T11:36:24.000Z</time>
      </trkpt>
      <trkpt lat="37.40780713967978954315185546875" lon="-3.37226620875298976898193359375">
        <ele>1082.199951171875</ele>
        <time>2019-10-29T11:36:26.000Z</time>
      </trkpt>
      <trkpt lat="37.407698929309844970703125" lon="-3.3724622614681720733642578125">
        <ele>1081.4000244140625</ele>
        <time>2019-10-29T11:36:28.000Z</time>
      </trkpt>
      <trkpt lat="37.40759524516761302947998046875" lon="-3.3726687915623188018798828125">
        <ele>1080.5999755859375</ele>
        <time>2019-10-29T11:36:30.000Z</time>
      </trkpt>
      <trkpt lat="37.4074996076524257659912109375" lon="-3.37288144044578075408935546875">
        <ele>1080.4000244140625</ele>
        <time>2019-10-29T11:36:32.000Z</time>
      </trkpt>
      <trkpt lat="37.40741201676428318023681640625" lon="-3.37309953756630420684814453125">
        <ele>1080</ele>
        <time>2019-10-29T11:36:34.000Z</time>
      </trkpt>
      <trkpt lat="37.40733440034091472625732421875" lon="-3.3733245916664600372314453125">
        <ele>1079.4000244140625</ele>
        <time>2019-10-29T11:36:36.000Z</time>
      </trkpt>
      <trkpt lat="37.40726533345878124237060546875" lon="-3.3735532499849796295166015625">
        <ele>1078</ele>
        <time>2019-10-29T11:36:38.000Z</time>
      </trkpt>
      <trkpt lat="37.40720397792756557464599609375" lon="-3.373788781464099884033203125">
        <ele>1078</ele>
        <time>2019-10-29T11:36:40.000Z</time>
      </trkpt>
      <trkpt lat="37.40715318359434604644775390625" lon="-3.3740293420851230621337890625">
        <ele>1077.199951171875</ele>
        <time>2019-10-29T11:36:42.000Z</time>
      </trkpt>
      <trkpt lat="37.4071093462407588958740234375" lon="-3.37427015416324138641357421875">
        <ele>1076</ele>
        <time>2019-10-29T11:36:44.000Z</time>
      </trkpt>
      <trkpt lat="37.4070738069713115692138671875" lon="-3.37451071478426456451416015625">
        <ele>1074.5999755859375</ele>
        <time>2019-10-29T11:36:46.000Z</time>
      </trkpt>
      <trkpt lat="37.40704505704343318939208984375" lon="-3.37475144304335117340087890625">
        <ele>1073.4000244140625</ele>
        <time>2019-10-29T11:36:48.000Z</time>
      </trkpt>
      <trkpt lat="37.40701957605779170989990234375" lon="-3.37499476969242095947265625">
        <ele>1072.199951171875</ele>
        <time>2019-10-29T11:36:50.000Z</time>
      </trkpt>
      <trkpt lat="37.406994514167308807373046875" lon="-3.37523759342730045318603515625">
        <ele>1071.4000244140625</ele>
        <time>2019-10-29T11:36:52.000Z</time>
      </trkpt>
      <trkpt lat="37.406974397599697113037109375" lon="-3.37547983042895793914794921875">
        <ele>1071.5999755859375</ele>
        <time>2019-10-29T11:36:54.000Z</time>
      </trkpt>
      <trkpt lat="37.40695486776530742645263671875" lon="-3.37572055868804454803466796875">
        <ele>1070.800048828125</ele>
        <time>2019-10-29T11:36:56.000Z</time>
      </trkpt>
      <trkpt lat="37.40693575702607631683349609375" lon="-3.37596095167100429534912109375">
        <ele>1069.5999755859375</ele>
        <time>2019-10-29T11:36:58.000Z</time>
      </trkpt>
      <trkpt lat="37.40691463463008403778076171875" lon="-3.37620218284428119659423828125">
        <ele>1068</ele>
        <time>2019-10-29T11:37:00.000Z</time>
      </trkpt>
      <trkpt lat="37.4068929255008697509765625" lon="-3.376443497836589813232421875">
        <ele>1067</ele>
        <time>2019-10-29T11:37:02.000Z</time>
      </trkpt>
      <trkpt lat="37.4068662710487842559814453125" lon="-3.37668514810502529144287109375">
        <ele>1067.4000244140625</ele>
        <time>2019-10-29T11:37:04.000Z</time>
      </trkpt>
      <trkpt lat="37.40683567710220813751220703125" lon="-3.3769264630973339080810546875">
        <ele>1068.4000244140625</ele>
        <time>2019-10-29T11:37:06.000Z</time>
      </trkpt>
      <trkpt lat="37.40680265240371227264404296875" lon="-3.377167023718357086181640625">
        <ele>1069.199951171875</ele>
        <time>2019-10-29T11:37:08.000Z</time>
      </trkpt>
      <trkpt lat="37.40676845423877239227294921875" lon="-3.377409093081951141357421875">
        <ele>1069.5999755859375</ele>
        <time>2019-10-29T11:37:10.000Z</time>
      </trkpt>
      <trkpt lat="37.406730987131595611572265625" lon="-3.37765216827392578125">
        <ele>1070.5999755859375</ele>
        <time>2019-10-29T11:37:12.000Z</time>
      </trkpt>
      <trkpt lat="37.406689412891864776611328125" lon="-3.37789666838943958282470703125">
        <ele>1070.4000244140625</ele>
        <time>2019-10-29T11:37:14.000Z</time>
      </trkpt>
      <trkpt lat="37.40664171986281871795654296875" lon="-3.37814058177173137664794921875">
        <ele>1069.199951171875</ele>
        <time>2019-10-29T11:37:16.000Z</time>
      </trkpt>
      <trkpt lat="37.40659226663410663604736328125" lon="-3.37838499806821346282958984375">
        <ele>1067.5999755859375</ele>
        <time>2019-10-29T11:37:18.000Z</time>
      </trkpt>
      <trkpt lat="37.40654289722442626953125" lon="-3.3786313422024250030517578125">
        <ele>1065.5999755859375</ele>
        <time>2019-10-29T11:37:20.000Z</time>
      </trkpt>
      <trkpt lat="37.40649403072893619537353515625" lon="-3.3788804523646831512451171875">
        <ele>1063.199951171875</ele>
        <time>2019-10-29T11:37:22.000Z</time>
      </trkpt>
      <trkpt lat="37.4064441584050655364990234375" lon="-3.379131741821765899658203125">
        <ele>1060.4000244140625</ele>
        <time>2019-10-29T11:37:24.000Z</time>
      </trkpt>
      <trkpt lat="37.406397722661495208740234375" lon="-3.3793860487639904022216796875">
        <ele>1057.4000244140625</ele>
        <time>2019-10-29T11:37:26.000Z</time>
      </trkpt>
      <trkpt lat="37.406354807317256927490234375" lon="-3.3796442113816738128662109375">
        <ele>1056.199951171875</ele>
        <time>2019-10-29T11:37:28.000Z</time>
      </trkpt>
      <trkpt lat="37.4063162505626678466796875" lon="-3.3799060620367527008056640625">
        <ele>1055.800048828125</ele>
        <time>2019-10-29T11:37:30.000Z</time>
      </trkpt>
      <trkpt lat="37.40628330968320369720458984375" lon="-3.380171097815036773681640625">
        <ele>1056.4000244140625</ele>
        <time>2019-10-29T11:37:32.000Z</time>
      </trkpt>
      <trkpt lat="37.40625120699405670166015625" lon="-3.38043621741235256195068359375">
        <ele>1056.800048828125</ele>
        <time>2019-10-29T11:37:34.000Z</time>
      </trkpt>
      <trkpt lat="37.4062205292284488677978515625" lon="-3.3806983195245265960693359375">
        <ele>1057.199951171875</ele>
        <time>2019-10-29T11:37:36.000Z</time>
      </trkpt>
      <trkpt lat="37.40619177930057048797607421875" lon="-3.38095958344638347625732421875">
        <ele>1057</ele>
        <time>2019-10-29T11:37:38.000Z</time>
      </trkpt>
      <trkpt lat="37.4061652086675167083740234375" lon="-3.3812203444540500640869140625">
        <ele>1056.199951171875</ele>
        <time>2019-10-29T11:37:40.000Z</time>
      </trkpt>
      <trkpt lat="37.40614551119506359100341796875" lon="-3.38148043490946292877197265625">
        <ele>1055.199951171875</ele>
        <time>2019-10-29T11:37:42.000Z</time>
      </trkpt>
      <trkpt lat="37.4061313457787036895751953125" lon="-3.3817400224506855010986328125">
        <ele>1054.199951171875</ele>
        <time>2019-10-29T11:37:44.000Z</time>
      </trkpt>
      <trkpt lat="37.4061232991516590118408203125" lon="-3.3819988556206226348876953125">
        <ele>1053.4000244140625</ele>
        <time>2019-10-29T11:37:46.000Z</time>
      </trkpt>
      <trkpt lat="37.4061142466962337493896484375" lon="-3.38225609622895717620849609375">
        <ele>1053.4000244140625</ele>
        <time>2019-10-29T11:37:48.000Z</time>
      </trkpt>
      <trkpt lat="37.40610477514564990997314453125" lon="-3.38251358829438686370849609375">
        <ele>1052.5999755859375</ele>
        <time>2019-10-29T11:37:50.000Z</time>
      </trkpt>
      <trkpt lat="37.40609488449990749359130859375" lon="-3.382769487798213958740234375">
        <ele>1052</ele>
        <time>2019-10-29T11:37:52.000Z</time>
      </trkpt>
      <trkpt lat="37.4060864187777042388916015625" lon="-3.38302354328334331512451171875">
        <ele>1052</ele>
        <time>2019-10-29T11:37:54.000Z</time>
      </trkpt>
      <trkpt lat="37.406077869236469268798828125" lon="-3.38327650912106037139892578125">
        <ele>1052</ele>
        <time>2019-10-29T11:37:56.000Z</time>
      </trkpt>
      <trkpt lat="37.40606990642845630645751953125" lon="-3.383528552949428558349609375">
        <ele>1051.199951171875</ele>
        <time>2019-10-29T11:37:58.000Z</time>
      </trkpt>
      <trkpt lat="37.40606152452528476715087890625" lon="-3.383778668940067291259765625">
        <ele>1049.800048828125</ele>
        <time>2019-10-29T11:38:00.000Z</time>
      </trkpt>
      <trkpt lat="37.40605129860341548919677734375" lon="-3.3840276114642620086669921875">
        <ele>1048.5999755859375</ele>
        <time>2019-10-29T11:38:02.000Z</time>
      </trkpt>
      <trkpt lat="37.40604199469089508056640625" lon="-3.38427647016942501068115234375">
        <ele>1048.199951171875</ele>
        <time>2019-10-29T11:38:04.000Z</time>
      </trkpt>
      <trkpt lat="37.406032271683216094970703125" lon="-3.3845265023410320281982421875">
        <ele>1048.199951171875</ele>
        <time>2019-10-29T11:38:06.000Z</time>
      </trkpt>
      <trkpt lat="37.4060207046568393707275390625" lon="-3.38477586396038532257080078125">
        <ele>1048</ele>
        <time>2019-10-29T11:38:08.000Z</time>
      </trkpt>
      <trkpt lat="37.40601123310625553131103515625" lon="-3.3850247226655483245849609375">
        <ele>1046.800048828125</ele>
        <time>2019-10-29T11:38:10.000Z</time>
      </trkpt>
      <trkpt lat="37.406002096831798553466796875" lon="-3.3852718211710453033447265625">
        <ele>1045.199951171875</ele>
        <time>2019-10-29T11:38:12.000Z</time>
      </trkpt>
      <trkpt lat="37.40599413402378559112548828125" lon="-3.385517410933971405029296875">
        <ele>1044.4000244140625</ele>
        <time>2019-10-29T11:38:14.000Z</time>
      </trkpt>
      <trkpt lat="37.40598675794899463653564453125" lon="-3.38576191104948520660400390625">
        <ele>1043.800048828125</ele>
        <time>2019-10-29T11:38:16.000Z</time>
      </trkpt>
      <trkpt lat="37.40597737021744251251220703125" lon="-3.3860059082508087158203125">
        <ele>1043.800048828125</ele>
        <time>2019-10-29T11:38:18.000Z</time>
      </trkpt>
      <trkpt lat="37.40596747957170009613037109375" lon="-3.38624957017600536346435546875">
        <ele>1044</ele>
        <time>2019-10-29T11:38:20.000Z</time>
      </trkpt>
      <trkpt lat="37.4059581756591796875" lon="-3.3864928968250751495361328125">
        <ele>1044.4000244140625</ele>
        <time>2019-10-29T11:38:22.000Z</time>
      </trkpt>
      <trkpt lat="37.4059486202895641326904296875" lon="-3.38673672638833522796630859375">
        <ele>1044.199951171875</ele>
        <time>2019-10-29T11:38:24.000Z</time>
      </trkpt>
      <trkpt lat="37.40593898110091686248779296875" lon="-3.3869790472090244293212890625">
        <ele>1043.199951171875</ele>
        <time>2019-10-29T11:38:26.000Z</time>
      </trkpt>
      <trkpt lat="37.4059295095503330230712890625" lon="-3.3872207812964916229248046875">
        <ele>1042.4000244140625</ele>
        <time>2019-10-29T11:38:28.000Z</time>
      </trkpt>
      <trkpt lat="37.40592087619006633758544921875" lon="-3.38746058754622936248779296875">
        <ele>1041.5999755859375</ele>
        <time>2019-10-29T11:38:30.000Z</time>
      </trkpt>
      <trkpt lat="37.405910901725292205810546875" lon="-3.38769880123436450958251953125">
        <ele>1040</ele>
        <time>2019-10-29T11:38:32.000Z</time>
      </trkpt>
      <trkpt lat="37.40590210072696208953857421875" lon="-3.38793508708477020263671875">
        <ele>1039</ele>
        <time>2019-10-29T11:38:34.000Z</time>
      </trkpt>
      <trkpt lat="37.40589623339474201202392578125" lon="-3.38816902600228786468505859375">
        <ele>1038.4000244140625</ele>
        <time>2019-10-29T11:38:36.000Z</time>
      </trkpt>
      <trkpt lat="37.40588734857738018035888671875" lon="-3.38839902542531490325927734375">
        <ele>1037.5999755859375</ele>
        <time>2019-10-29T11:38:38.000Z</time>
      </trkpt>
      <trkpt lat="37.4058763682842254638671875" lon="-3.3887352235615253448486328125">
        <ele>1037.199951171875</ele>
        <time>2019-10-29T11:38:41.000Z</time>
      </trkpt>
      <trkpt lat="37.4058627896010875701904296875" lon="-3.3890644647181034088134765625">
        <ele>1038</ele>
        <time>2019-10-29T11:38:44.000Z</time>
      </trkpt>
      <trkpt lat="37.40584929473698139190673828125" lon="-3.38938524015247821807861328125">
        <ele>1038.800048828125</ele>
        <time>2019-10-29T11:38:47.000Z</time>
      </trkpt>
      <trkpt lat="37.405838482081890106201171875" lon="-3.3896964602172374725341796875">
        <ele>1038</ele>
        <time>2019-10-29T11:38:50.000Z</time>
      </trkpt>
      <trkpt lat="37.405821382999420166015625" lon="-3.3899972029030323028564453125">
        <ele>1035.800048828125</ele>
        <time>2019-10-29T11:38:53.000Z</time>
      </trkpt>
      <trkpt lat="37.40579749457538127899169921875" lon="-3.3902852050960063934326171875">
        <ele>1033.800048828125</ele>
        <time>2019-10-29T11:38:56.000Z</time>
      </trkpt>
      <trkpt lat="37.405766732990741729736328125" lon="-3.390558622777462005615234375">
        <ele>1031.800048828125</ele>
        <time>2019-10-29T11:38:59.000Z</time>
      </trkpt>
      <trkpt lat="37.40572826005518436431884765625" lon="-3.39081737212836742401123046875">
        <ele>1031</ele>
        <time>2019-10-29T11:39:02.000Z</time>
      </trkpt>
      <trkpt lat="37.4056860990822315216064453125" lon="-3.39106346480548381805419921875">
        <ele>1032</ele>
        <time>2019-10-29T11:39:05.000Z</time>
      </trkpt>
      <trkpt lat="37.40563555620610713958740234375" lon="-3.39129983447492122650146484375">
        <ele>1031.4000244140625</ele>
        <time>2019-10-29T11:39:08.000Z</time>
      </trkpt>
      <trkpt lat="37.40557922981679439544677734375" lon="-3.3915294148027896881103515625">
        <ele>1031.199951171875</ele>
        <time>2019-10-29T11:39:11.000Z</time>
      </trkpt>
      <trkpt lat="37.4055182933807373046875" lon="-3.391756899654865264892578125">
        <ele>1031.4000244140625</ele>
        <time>2019-10-29T11:39:14.000Z</time>
      </trkpt>
      <trkpt lat="37.40544578991830348968505859375" lon="-3.391980864107608795166015625">
        <ele>1031.5999755859375</ele>
        <time>2019-10-29T11:39:17.000Z</time>
      </trkpt>
      <trkpt lat="37.40536783821880817413330078125" lon="-3.39219887740910053253173828125">
        <ele>1031.800048828125</ele>
        <time>2019-10-29T11:39:20.000Z</time>
      </trkpt>
      <trkpt lat="37.4052830971777439117431640625" lon="-3.39240767061710357666015625">
        <ele>1032</ele>
        <time>2019-10-29T11:39:23.000Z</time>
      </trkpt>
      <trkpt lat="37.40519399754703044891357421875" lon="-3.39260875247418880462646484375">
        <ele>1031.800048828125</ele>
        <time>2019-10-29T11:39:26.000Z</time>
      </trkpt>
      <trkpt lat="37.4050963483750820159912109375" lon="-3.39280195534229278564453125">
        <ele>1031.5999755859375</ele>
        <time>2019-10-29T11:39:29.000Z</time>
      </trkpt>
      <trkpt lat="37.40497288294136524200439453125" lon="-3.39304444380104541778564453125">
        <ele>1032</ele>
        <time>2019-10-29T11:39:33.000Z</time>
      </trkpt>
      <trkpt lat="37.404849417507648468017578125" lon="-3.3932639658451080322265625">
        <ele>1032.4000244140625</ele>
        <time>2019-10-29T11:39:37.000Z</time>
      </trkpt>
      <trkpt lat="37.40471455268561840057373046875" lon="-3.39347979985177516937255859375">
        <ele>1032.800048828125</ele>
        <time>2019-10-29T11:39:41.000Z</time>
      </trkpt>
      <trkpt lat="37.4045652709901332855224609375" lon="-3.39370812289416790008544921875">
        <ele>1032.5999755859375</ele>
        <time>2019-10-29T11:39:45.000Z</time>
      </trkpt>
      <trkpt lat="37.40444473922252655029296875" lon="-3.3938833884894847869873046875">
        <ele>1032</ele>
        <time>2019-10-29T11:39:48.000Z</time>
      </trkpt>
      <trkpt lat="37.40431842394173145294189453125" lon="-3.39406125247478485107421875">
        <ele>1031.5999755859375</ele>
        <time>2019-10-29T11:39:51.000Z</time>
      </trkpt>
      <trkpt lat="37.40418900735676288604736328125" lon="-3.3942391164600849151611328125">
        <ele>1031.199951171875</ele>
        <time>2019-10-29T11:39:54.000Z</time>
      </trkpt>
      <trkpt lat="37.404056489467620849609375" lon="-3.39441991411149501800537109375">
        <ele>1030.5999755859375</ele>
        <time>2019-10-29T11:39:57.000Z</time>
      </trkpt>
      <trkpt lat="37.4039181880652904510498046875" lon="-3.3946042321622371673583984375">
        <ele>1029.5999755859375</ele>
        <time>2019-10-29T11:40:00.000Z</time>
      </trkpt>
      <trkpt lat="37.40377745591104030609130859375" lon="-3.39479709975421428680419921875">
        <ele>1028.4000244140625</ele>
        <time>2019-10-29T11:40:03.000Z</time>
      </trkpt>
      <trkpt lat="37.40363127551972866058349609375" lon="-3.39500010944902896881103515625">
        <ele>1027.199951171875</ele>
        <time>2019-10-29T11:40:06.000Z</time>
      </trkpt>
      <trkpt lat="37.40348408930003643035888671875" lon="-3.39522264897823333740234375">
        <ele>1026.199951171875</ele>
        <time>2019-10-29T11:40:09.000Z</time>
      </trkpt>
      <trkpt lat="37.4033371545374393463134765625" lon="-3.3954668976366519927978515625">
        <ele>1026</ele>
        <time>2019-10-29T11:40:12.000Z</time>
      </trkpt>
      <trkpt lat="37.40320631302893161773681640625" lon="-3.395745344460010528564453125">
        <ele>1026.800048828125</ele>
        <time>2019-10-29T11:40:15.000Z</time>
      </trkpt>
      <trkpt lat="37.40308980457484722137451171875" lon="-3.39604248292744159698486328125">
        <ele>1026.199951171875</ele>
        <time>2019-10-29T11:40:18.000Z</time>
      </trkpt>
      <trkpt lat="37.40299374796450138092041015625" lon="-3.39634708128869533538818359375">
        <ele>1025</ele>
        <time>2019-10-29T11:40:21.000Z</time>
      </trkpt>
      <trkpt lat="37.40291797555983066558837890625" lon="-3.3966551162302494049072265625">
        <ele>1024.199951171875</ele>
        <time>2019-10-29T11:40:24.000Z</time>
      </trkpt>
      <trkpt lat="37.40286231972277164459228515625" lon="-3.3969654142856597900390625">
        <ele>1022.5999755859375</ele>
        <time>2019-10-29T11:40:27.000Z</time>
      </trkpt>
      <trkpt lat="37.4028312228620052337646484375" lon="-3.3972820825874805450439453125">
        <ele>1021</ele>
        <time>2019-10-29T11:40:30.000Z</time>
      </trkpt>
      <trkpt lat="37.40282845683395862579345703125" lon="-3.3975875191390514373779296875">
        <ele>1021.20001220703125</ele>
        <time>2019-10-29T11:40:33.000Z</time>
      </trkpt>
      <trkpt lat="37.40283566527068614959716796875" lon="-3.39787258766591548919677734375">
        <ele>1022</ele>
        <time>2019-10-29T11:40:36.000Z</time>
      </trkpt>
      <trkpt lat="37.402860224246978759765625" lon="-3.39814080856740474700927734375">
        <ele>1021.79998779296875</ele>
        <time>2019-10-29T11:40:39.000Z</time>
      </trkpt>
      <trkpt lat="37.4028945900499820709228515625" lon="-3.39839125983417034149169921875">
        <ele>1022</ele>
        <time>2019-10-29T11:40:42.000Z</time>
      </trkpt>
      <trkpt lat="37.402924932539463043212890625" lon="-3.3986310660839080810546875">
        <ele>1021.79998779296875</ele>
        <time>2019-10-29T11:40:45.000Z</time>
      </trkpt>
      <trkpt lat="37.40296273492276668548583984375" lon="-3.3989256061613559722900390625">
        <ele>1022.5999755859375</ele>
        <time>2019-10-29T11:40:49.000Z</time>
      </trkpt>
      <trkpt lat="37.40298964083194732666015625" lon="-3.39915074408054351806640625">
        <ele>1021.79998779296875</ele>
        <time>2019-10-29T11:40:52.000Z</time>
      </trkpt>
      <trkpt lat="37.40301109850406646728515625" lon="-3.39938300661742687225341796875">
        <ele>1022.79998779296875</ele>
        <time>2019-10-29T11:40:55.000Z</time>
      </trkpt>
      <trkpt lat="37.4030297063291072845458984375" lon="-3.39962054975330829620361328125">
        <ele>1023</ele>
        <time>2019-10-29T11:40:58.000Z</time>
      </trkpt>
      <trkpt lat="37.40304035134613513946533203125" lon="-3.399863541126251220703125">
        <ele>1023</ele>
        <time>2019-10-29T11:41:01.000Z</time>
      </trkpt>
      <trkpt lat="37.40303884260356426239013671875" lon="-3.40010854415595531463623046875">
        <ele>1022.5999755859375</ele>
        <time>2019-10-29T11:41:04.000Z</time>
      </trkpt>
      <trkpt lat="37.40302794612944126129150390625" lon="-3.4003512002527713775634765625">
        <ele>1021.5999755859375</ele>
        <time>2019-10-29T11:41:07.000Z</time>
      </trkpt>
      <trkpt lat="37.40300565026700496673583984375" lon="-3.40058916248381137847900390625">
        <ele>1020.5999755859375</ele>
        <time>2019-10-29T11:41:10.000Z</time>
      </trkpt>
      <trkpt lat="37.4029750563204288482666015625" lon="-3.400828130543231964111328125">
        <ele>1019.79998779296875</ele>
        <time>2019-10-29T11:41:13.000Z</time>
      </trkpt>
      <trkpt lat="37.40292535163462162017822265625" lon="-3.40106156654655933380126953125">
        <ele>1018.79998779296875</ele>
        <time>2019-10-29T11:41:16.000Z</time>
      </trkpt>
      <trkpt lat="37.402910850942134857177734375" lon="-3.40114085935056209564208984375">
        <ele>1018.5999755859375</ele>
        <time>2019-10-29T11:41:17.000Z</time>
      </trkpt>
      <trkpt lat="37.40285913459956645965576171875" lon="-3.40137823484838008880615234375">
        <ele>1018.4000244140625</ele>
        <time>2019-10-29T11:41:20.000Z</time>
      </trkpt>
      <trkpt lat="37.40279174409806728363037109375" lon="-3.40160957537591457366943359375">
        <ele>1019</ele>
        <time>2019-10-29T11:41:23.000Z</time>
      </trkpt>
      <trkpt lat="37.40271337330341339111328125" lon="-3.40183353982865810394287109375">
        <ele>1020.20001220703125</ele>
        <time>2019-10-29T11:41:26.000Z</time>
      </trkpt>
      <trkpt lat="37.40262687206268310546875" lon="-3.40205348096787929534912109375">
        <ele>1021</ele>
        <time>2019-10-29T11:41:29.000Z</time>
      </trkpt>
      <trkpt lat="37.40253031253814697265625" lon="-3.40227191336452960968017578125">
        <ele>1021.4000244140625</ele>
        <time>2019-10-29T11:41:32.000Z</time>
      </trkpt>
      <trkpt lat="37.4024315737187862396240234375" lon="-3.40248514898121356964111328125">
        <ele>1021.79998779296875</ele>
        <time>2019-10-29T11:41:35.000Z</time>
      </trkpt>
      <trkpt lat="37.40233073942363262176513671875" lon="-3.40269234962761402130126953125">
        <ele>1021</ele>
        <time>2019-10-29T11:41:38.000Z</time>
      </trkpt>
      <trkpt lat="37.40222663618624210357666015625" lon="-3.402900137007236480712890625">
        <ele>1019.5999755859375</ele>
        <time>2019-10-29T11:41:41.000Z</time>
      </trkpt>
      <trkpt lat="37.40212555043399333953857421875" lon="-3.40310390107333660125732421875">
        <ele>1018.79998779296875</ele>
        <time>2019-10-29T11:41:44.000Z</time>
      </trkpt>
      <trkpt lat="37.40202362649142742156982421875" lon="-3.40330054052174091339111328125">
        <ele>1018.79998779296875</ele>
        <time>2019-10-29T11:41:47.000Z</time>
      </trkpt>
      <trkpt lat="37.4019222892820835113525390625" lon="-3.4035021252930164337158203125">
        <ele>1018</ele>
        <time>2019-10-29T11:41:50.000Z</time>
      </trkpt>
      <trkpt lat="37.4018230475485324859619140625" lon="-3.40370622463524341583251953125">
        <ele>1018</ele>
        <time>2019-10-29T11:41:53.000Z</time>
      </trkpt>
      <trkpt lat="37.401722632348537445068359375" lon="-3.40391040779650211334228515625">
        <ele>1018.20001220703125</ele>
        <time>2019-10-29T11:41:56.000Z</time>
      </trkpt>
      <trkpt lat="37.40161710418760776519775390625" lon="-3.40411274693906307220458984375">
        <ele>1018</ele>
        <time>2019-10-29T11:41:59.000Z</time>
      </trkpt>
      <trkpt lat="37.40151484496891498565673828125" lon="-3.40431542135775089263916015625">
        <ele>1018.20001220703125</ele>
        <time>2019-10-29T11:42:02.000Z</time>
      </trkpt>
      <trkpt lat="37.40141090936958789825439453125" lon="-3.4045186825096607208251953125">
        <ele>1018.20001220703125</ele>
        <time>2019-10-29T11:42:05.000Z</time>
      </trkpt>
      <trkpt lat="37.4013100750744342803955078125" lon="-3.404722698032855987548828125">
        <ele>1017.79998779296875</ele>
        <time>2019-10-29T11:42:08.000Z</time>
      </trkpt>
      <trkpt lat="37.4012138508260250091552734375" lon="-3.4049240313470363616943359375">
        <ele>1017.79998779296875</ele>
        <time>2019-10-29T11:42:11.000Z</time>
      </trkpt>
      <trkpt lat="37.40112123079597949981689453125" lon="-3.40512494556605815887451171875">
        <ele>1017.79998779296875</ele>
        <time>2019-10-29T11:42:14.000Z</time>
      </trkpt>
      <trkpt lat="37.4010291136801242828369140625" lon="-3.405321501195430755615234375">
        <ele>1017.79998779296875</ele>
        <time>2019-10-29T11:42:17.000Z</time>
      </trkpt>
      <trkpt lat="37.40091185085475444793701171875" lon="-3.40558276511728763580322265625">
        <ele>1018</ele>
        <time>2019-10-29T11:42:21.000Z</time>
      </trkpt>
      <trkpt lat="37.40080640651285648345947265625" lon="-3.4058446995913982391357421875">
        <ele>1018</ele>
        <time>2019-10-29T11:42:25.000Z</time>
      </trkpt>
      <trkpt lat="37.40070330910384654998779296875" lon="-3.406107388436794281005859375">
        <ele>1017.5999755859375</ele>
        <time>2019-10-29T11:42:29.000Z</time>
      </trkpt>
      <trkpt lat="37.40060993470251560211181640625" lon="-3.406380303204059600830078125">
        <ele>1017.20001220703125</ele>
        <time>2019-10-29T11:42:33.000Z</time>
      </trkpt>
      <trkpt lat="37.4005441367626190185546875" lon="-3.40659345500171184539794921875">
        <ele>1016.20001220703125</ele>
        <time>2019-10-29T11:42:36.000Z</time>
      </trkpt>
      <trkpt lat="37.4004752375185489654541015625" lon="-3.4068099595606327056884765625">
        <ele>1014.5999755859375</ele>
        <time>2019-10-29T11:42:39.000Z</time>
      </trkpt>
      <trkpt lat="37.4004142172634601593017578125" lon="-3.407038114964962005615234375">
        <ele>1013.20001220703125</ele>
        <time>2019-10-29T11:42:42.000Z</time>
      </trkpt>
      <trkpt lat="37.40035143680870532989501953125" lon="-3.40728043578565120697021484375">
        <ele>1013</ele>
        <time>2019-10-29T11:42:45.000Z</time>
      </trkpt>
      <trkpt lat="37.40028438158333301544189453125" lon="-3.4075314737856388092041015625">
        <ele>1013.4000244140625</ele>
        <time>2019-10-29T11:42:48.000Z</time>
      </trkpt>
      <trkpt lat="37.400228977203369140625" lon="-3.40778611600399017333984375">
        <ele>1013.79998779296875</ele>
        <time>2019-10-29T11:42:51.000Z</time>
      </trkpt>
      <trkpt lat="37.40017843432724475860595703125" lon="-3.40804369188845157623291015625">
        <ele>1013.20001220703125</ele>
        <time>2019-10-29T11:42:54.000Z</time>
      </trkpt>
      <trkpt lat="37.40012948401272296905517578125" lon="-3.40831057168543338775634765625">
        <ele>1012.5999755859375</ele>
        <time>2019-10-29T11:42:57.000Z</time>
      </trkpt>
      <trkpt lat="37.4000881612300872802734375" lon="-3.40858985669910907745361328125">
        <ele>1012.5999755859375</ele>
        <time>2019-10-29T11:43:00.000Z</time>
      </trkpt>
      <trkpt lat="37.40004415623843669891357421875" lon="-3.4088853187859058380126953125">
        <ele>1011</ele>
        <time>2019-10-29T11:43:03.000Z</time>
      </trkpt>
      <trkpt lat="37.40000409074127674102783203125" lon="-3.40919419191777706146240234375">
        <ele>1010.4000244140625</ele>
        <time>2019-10-29T11:43:06.000Z</time>
      </trkpt>
      <trkpt lat="37.399963103234767913818359375" lon="-3.40949602425098419189453125">
        <ele>1010</ele>
        <time>2019-10-29T11:43:09.000Z</time>
      </trkpt>
      <trkpt lat="37.39992789924144744873046875" lon="-3.40979165397584438323974609375">
        <ele>1009.20001220703125</ele>
        <time>2019-10-29T11:43:12.000Z</time>
      </trkpt>
      <trkpt lat="37.399893701076507568359375" lon="-3.41008502058684825897216796875">
        <ele>1008</ele>
        <time>2019-10-29T11:43:15.000Z</time>
      </trkpt>
      <trkpt lat="37.399859167635440826416015625" lon="-3.41037712991237640380859375">
        <ele>1006.20001220703125</ele>
        <time>2019-10-29T11:43:18.000Z</time>
      </trkpt>
      <trkpt lat="37.39981834776699542999267578125" lon="-3.41066421009600162506103515625">
        <ele>1005</ele>
        <time>2019-10-29T11:43:21.000Z</time>
      </trkpt>
      <trkpt lat="37.3997802101075649261474609375" lon="-3.4109476022422313690185546875">
        <ele>1003.79998779296875</ele>
        <time>2019-10-29T11:43:24.000Z</time>
      </trkpt>
      <trkpt lat="37.399743497371673583984375" lon="-3.41122328303754329681396484375">
        <ele>1003.20001220703125</ele>
        <time>2019-10-29T11:43:27.000Z</time>
      </trkpt>
      <trkpt lat="37.39970569498836994171142578125" lon="-3.41148848645389080047607421875">
        <ele>1003</ele>
        <time>2019-10-29T11:43:30.000Z</time>
      </trkpt>
      <trkpt lat="37.3996732570230960845947265625" lon="-3.41174078173935413360595703125">
        <ele>1003</ele>
        <time>2019-10-29T11:43:33.000Z</time>
      </trkpt>
      <trkpt lat="37.39964501000940799713134765625" lon="-3.41197581030428409576416015625">
        <ele>1003.20001220703125</ele>
        <time>2019-10-29T11:43:36.000Z</time>
      </trkpt>
      <trkpt lat="37.3996058665215969085693359375" lon="-3.412269093096256256103515625">
        <ele>1003.4000244140625</ele>
        <time>2019-10-29T11:43:40.000Z</time>
      </trkpt>
      <trkpt lat="37.399570159614086151123046875" lon="-3.41255776584148406982421875">
        <ele>1003.4000244140625</ele>
        <time>2019-10-29T11:43:44.000Z</time>
      </trkpt>
      <trkpt lat="37.39953503943979740142822265625" lon="-3.41284568421542644500732421875">
        <ele>1002.79998779296875</ele>
        <time>2019-10-29T11:43:48.000Z</time>
      </trkpt>
      <trkpt lat="37.399499751627445220947265625" lon="-3.41313016600906848907470703125">
        <ele>1002</ele>
        <time>2019-10-29T11:43:52.000Z</time>
      </trkpt>
      <trkpt lat="37.3994603566825389862060546875" lon="-3.4134115464985370635986328125">
        <ele>1001.5999755859375</ele>
        <time>2019-10-29T11:43:56.000Z</time>
      </trkpt>
      <trkpt lat="37.39942389540374279022216796875" lon="-3.41369896195828914642333984375">
        <ele>1002</ele>
        <time>2019-10-29T11:44:00.000Z</time>
      </trkpt>
      <trkpt lat="37.39938081242144107818603515625" lon="-3.41398470103740692138671875">
        <ele>1002.20001220703125</ele>
        <time>2019-10-29T11:44:04.000Z</time>
      </trkpt>
      <trkpt lat="37.3993359692394733428955078125" lon="-3.41426624916493892669677734375">
        <ele>1001.79998779296875</ele>
        <time>2019-10-29T11:44:08.000Z</time>
      </trkpt>
      <trkpt lat="37.39927955903112888336181640625" lon="-3.414547629654407501220703125">
        <ele>1001.4000244140625</ele>
        <time>2019-10-29T11:44:12.000Z</time>
      </trkpt>
      <trkpt lat="37.39921267144381999969482421875" lon="-3.4148344583809375762939453125">
        <ele>1001.4000244140625</ele>
        <time>2019-10-29T11:44:16.000Z</time>
      </trkpt>
      <trkpt lat="37.39915366284549236297607421875" lon="-3.4150530584156513214111328125">
        <ele>1001.79998779296875</ele>
        <time>2019-10-29T11:44:19.000Z</time>
      </trkpt>
      <trkpt lat="37.39908778108656406402587890625" lon="-3.41527123935520648956298828125">
        <ele>1002.4000244140625</ele>
        <time>2019-10-29T11:44:22.000Z</time>
      </trkpt>
      <trkpt lat="37.39901770837604999542236328125" lon="-3.41548397205770015716552734375">
        <ele>1002.4000244140625</ele>
        <time>2019-10-29T11:44:25.000Z</time>
      </trkpt>
      <trkpt lat="37.398943863809108734130859375" lon="-3.4156947769224643707275390625">
        <ele>1002</ele>
        <time>2019-10-29T11:44:28.000Z</time>
      </trkpt>
      <trkpt lat="37.39886163733899593353271484375" lon="-3.41590926982462406158447265625">
        <ele>1001.20001220703125</ele>
        <time>2019-10-29T11:44:31.000Z</time>
      </trkpt>
      <trkpt lat="37.3987693525850772857666015625" lon="-3.41611973941326141357421875">
        <ele>1000.4000244140625</ele>
        <time>2019-10-29T11:44:34.000Z</time>
      </trkpt>
      <trkpt lat="37.3986751399934291839599609375" lon="-3.41634362004697322845458984375">
        <ele>999.4000244140625</ele>
        <time>2019-10-29T11:44:37.000Z</time>
      </trkpt>
      <trkpt lat="37.39857606589794158935546875" lon="-3.41656523756682872772216796875">
        <ele>998</ele>
        <time>2019-10-29T11:44:40.000Z</time>
      </trkpt>
      <trkpt lat="37.3984779976308345794677734375" lon="-3.4167907945811748504638671875">
        <ele>996.5999755859375</ele>
        <time>2019-10-29T11:44:43.000Z</time>
      </trkpt>
      <trkpt lat="37.3983797617256641387939453125" lon="-3.41701702214777469635009765625">
        <ele>995.79998779296875</ele>
        <time>2019-10-29T11:44:46.000Z</time>
      </trkpt>
      <trkpt lat="37.3982803523540496826171875" lon="-3.41723931021988391876220703125">
        <ele>995</ele>
        <time>2019-10-29T11:44:49.000Z</time>
      </trkpt>
      <trkpt lat="37.39818446338176727294921875" lon="-3.41746595688164234161376953125">
        <ele>994.4000244140625</ele>
        <time>2019-10-29T11:44:52.000Z</time>
      </trkpt>
      <trkpt lat="37.3980840481817722320556640625" lon="-3.41769478283822536468505859375">
        <ele>994</ele>
        <time>2019-10-29T11:44:55.000Z</time>
      </trkpt>
      <trkpt lat="37.3979844711720943450927734375" lon="-3.4179240278899669647216796875">
        <ele>994.20001220703125</ele>
        <time>2019-10-29T11:44:58.000Z</time>
      </trkpt>
      <trkpt lat="37.39788581617176532745361328125" lon="-3.41816215775907039642333984375">
        <ele>994</ele>
        <time>2019-10-29T11:45:01.000Z</time>
      </trkpt>
      <trkpt lat="37.39778816699981689453125" lon="-3.41840858571231365203857421875">
        <ele>993.4000244140625</ele>
        <time>2019-10-29T11:45:04.000Z</time>
      </trkpt>
      <trkpt lat="37.39769521169364452362060546875" lon="-3.4186606295406818389892578125">
        <ele>993.20001220703125</ele>
        <time>2019-10-29T11:45:07.000Z</time>
      </trkpt>
      <trkpt lat="37.39761005155742168426513671875" lon="-3.41890714131295680999755859375">
        <ele>993.20001220703125</ele>
        <time>2019-10-29T11:45:10.000Z</time>
      </trkpt>
      <trkpt lat="37.39753411151468753814697265625" lon="-3.41915541328489780426025390625">
        <ele>994.4000244140625</ele>
        <time>2019-10-29T11:45:13.000Z</time>
      </trkpt>
      <trkpt lat="37.39746160805225372314453125" lon="-3.4194074571132659912109375">
        <ele>995.20001220703125</ele>
        <time>2019-10-29T11:45:16.000Z</time>
      </trkpt>
      <trkpt lat="37.39739723503589630126953125" lon="-3.4196637757122516632080078125">
        <ele>995.20001220703125</ele>
        <time>2019-10-29T11:45:19.000Z</time>
      </trkpt>
      <trkpt lat="37.397339232265949249267578125" lon="-3.41992503963410854339599609375">
        <ele>993.79998779296875</ele>
        <time>2019-10-29T11:45:22.000Z</time>
      </trkpt>
      <trkpt lat="37.39728751592338085174560546875" lon="-3.420190326869487762451171875">
        <ele>992.20001220703125</ele>
        <time>2019-10-29T11:45:25.000Z</time>
      </trkpt>
      <trkpt lat="37.39724309183657169342041015625" lon="-3.42045863159000873565673828125">
        <ele>992</ele>
        <time>2019-10-29T11:45:28.000Z</time>
      </trkpt>
      <trkpt lat="37.397207133471965789794921875" lon="-3.42073582112789154052734375">
        <ele>992</ele>
        <time>2019-10-29T11:45:31.000Z</time>
      </trkpt>
      <trkpt lat="37.39717771299183368682861328125" lon="-3.4210167825222015380859375">
        <ele>992.20001220703125</ele>
        <time>2019-10-29T11:45:34.000Z</time>
      </trkpt>
      <trkpt lat="37.39715625531971454620361328125" lon="-3.42130310833454132080078125">
        <ele>991.79998779296875</ele>
        <time>2019-10-29T11:45:37.000Z</time>
      </trkpt>
      <trkpt lat="37.39714385010302066802978515625" lon="-3.42158817686140537261962890625">
        <ele>991.5999755859375</ele>
        <time>2019-10-29T11:45:40.000Z</time>
      </trkpt>
      <trkpt lat="37.39714016206562519073486328125" lon="-3.4218635223805904388427734375">
        <ele>991.4000244140625</ele>
        <time>2019-10-29T11:45:43.000Z</time>
      </trkpt>
      <trkpt lat="37.3971439339220523834228515625" lon="-3.42213635332882404327392578125">
        <ele>990.5999755859375</ele>
        <time>2019-10-29T11:45:46.000Z</time>
      </trkpt>
      <trkpt lat="37.39715742878615856170654296875" lon="-3.42241530306637287139892578125">
        <ele>989.5999755859375</ele>
        <time>2019-10-29T11:45:49.000Z</time>
      </trkpt>
      <trkpt lat="37.3971811495721340179443359375" lon="-3.422693498432636260986328125">
        <ele>989</ele>
        <time>2019-10-29T11:45:52.000Z</time>
      </trkpt>
      <trkpt lat="37.39721191115677356719970703125" lon="-3.4229682572185993194580078125">
        <ele>987.20001220703125</ele>
        <time>2019-10-29T11:45:55.000Z</time>
      </trkpt>
      <trkpt lat="37.3972455225884914398193359375" lon="-3.42324175871908664703369140625">
        <ele>985.5999755859375</ele>
        <time>2019-10-29T11:45:58.000Z</time>
      </trkpt>
      <trkpt lat="37.39727729000151157379150390625" lon="-3.423515260219573974609375">
        <ele>985</ele>
        <time>2019-10-29T11:46:01.000Z</time>
      </trkpt>
      <trkpt lat="37.39731408655643463134765625" lon="-3.42379085719585418701171875">
        <ele>984.20001220703125</ele>
        <time>2019-10-29T11:46:04.000Z</time>
      </trkpt>
      <trkpt lat="37.39735071547329425811767578125" lon="-3.42407274059951305389404296875">
        <ele>984</ele>
        <time>2019-10-29T11:46:07.000Z</time>
      </trkpt>
      <trkpt lat="37.3973876796662807464599609375" lon="-3.424357473850250244140625">
        <ele>983.5999755859375</ele>
        <time>2019-10-29T11:46:10.000Z</time>
      </trkpt>
      <trkpt lat="37.3974245600402355194091796875" lon="-3.424649499356746673583984375">
        <ele>982.5999755859375</ele>
        <time>2019-10-29T11:46:13.000Z</time>
      </trkpt>
      <trkpt lat="37.39746437408030033111572265625" lon="-3.42495225369930267333984375">
        <ele>981.20001220703125</ele>
        <time>2019-10-29T11:46:16.000Z</time>
      </trkpt>
      <trkpt lat="37.3975026793777942657470703125" lon="-3.4252648986876010894775390625">
        <ele>981</ele>
        <time>2019-10-29T11:46:19.000Z</time>
      </trkpt>
      <trkpt lat="37.3975352011620998382568359375" lon="-3.42559053562581539154052734375">
        <ele>981.4000244140625</ele>
        <time>2019-10-29T11:46:22.000Z</time>
      </trkpt>
      <trkpt lat="37.39755657501518726348876953125" lon="-3.42591407708823680877685546875">
        <ele>980</ele>
        <time>2019-10-29T11:46:25.000Z</time>
      </trkpt>
      <trkpt lat="37.39755406044423580169677734375" lon="-3.42623074539005756378173828125">
        <ele>979.4000244140625</ele>
        <time>2019-10-29T11:46:28.000Z</time>
      </trkpt>
      <trkpt lat="37.3975325189530849456787109375" lon="-3.42653970234096050262451171875">
        <ele>979.4000244140625</ele>
        <time>2019-10-29T11:46:31.000Z</time>
      </trkpt>
      <trkpt lat="37.3974976502358913421630859375" lon="-3.42683776281774044036865234375">
        <ele>979.79998779296875</ele>
        <time>2019-10-29T11:46:34.000Z</time>
      </trkpt>
      <trkpt lat="37.39744241349399089813232421875" lon="-3.42713766731321811676025390625">
        <ele>979.5999755859375</ele>
        <time>2019-10-29T11:46:37.000Z</time>
      </trkpt>
      <trkpt lat="37.39736814983189105987548828125" lon="-3.42743975110352039337158203125">
        <ele>979.4000244140625</ele>
        <time>2019-10-29T11:46:40.000Z</time>
      </trkpt>
      <trkpt lat="37.397278212010860443115234375" lon="-3.42773999087512493133544921875">
        <ele>979</ele>
        <time>2019-10-29T11:46:43.000Z</time>
      </trkpt>
      <trkpt lat="37.39717989228665828704833984375" lon="-3.42803771607577800750732421875">
        <ele>978</ele>
        <time>2019-10-29T11:46:46.000Z</time>
      </trkpt>
      <trkpt lat="37.39707830362021923065185546875" lon="-3.42833611182868480682373046875">
        <ele>977</ele>
        <time>2019-10-29T11:46:49.000Z</time>
      </trkpt>
      <trkpt lat="37.3969766311347484588623046875" lon="-3.42864029109477996826171875">
        <ele>976.79998779296875</ele>
        <time>2019-10-29T11:46:52.000Z</time>
      </trkpt>
      <trkpt lat="37.39687420427799224853515625" lon="-3.42894312925636768341064453125">
        <ele>975.79998779296875</ele>
        <time>2019-10-29T11:46:55.000Z</time>
      </trkpt>
      <trkpt lat="37.3967771418392658233642578125" lon="-3.4292422793805599212646484375">
        <ele>974.5999755859375</ele>
        <time>2019-10-29T11:46:58.000Z</time>
      </trkpt>
      <trkpt lat="37.39668552763760089874267578125" lon="-3.4295381605625152587890625">
        <ele>974</ele>
        <time>2019-10-29T11:47:01.000Z</time>
      </trkpt>
      <trkpt lat="37.3966044746339321136474609375" lon="-3.42983462847769260406494140625">
        <ele>973.79998779296875</ele>
        <time>2019-10-29T11:47:04.000Z</time>
      </trkpt>
      <trkpt lat="37.39653130061924457550048828125" lon="-3.4301269054412841796875">
        <ele>973.4000244140625</ele>
        <time>2019-10-29T11:47:07.000Z</time>
      </trkpt>
      <trkpt lat="37.39647514186799526214599609375" lon="-3.43042194843292236328125">
        <ele>972.4000244140625</ele>
        <time>2019-10-29T11:47:10.000Z</time>
      </trkpt>
      <trkpt lat="37.39643038250505924224853515625" lon="-3.43072277493774890899658203125">
        <ele>972</ele>
        <time>2019-10-29T11:47:13.000Z</time>
      </trkpt>
      <trkpt lat="37.39639450795948505401611328125" lon="-3.43102670274674892425537109375">
        <ele>972</ele>
        <time>2019-10-29T11:47:16.000Z</time>
      </trkpt>
      <trkpt lat="37.39637221209704875946044921875" lon="-3.4313276968896389007568359375">
        <ele>972.79998779296875</ele>
        <time>2019-10-29T11:47:19.000Z</time>
      </trkpt>
      <trkpt lat="37.39635947160422801971435546875" lon="-3.43162768520414829254150390625">
        <ele>972</ele>
        <time>2019-10-29T11:47:22.000Z</time>
      </trkpt>
      <trkpt lat="37.39635997451841831207275390625" lon="-3.4319258294999599456787109375">
        <ele>972</ele>
        <time>2019-10-29T11:47:25.000Z</time>
      </trkpt>
      <trkpt lat="37.39637305028736591339111328125" lon="-3.43222397379577159881591796875">
        <ele>972.79998779296875</ele>
        <time>2019-10-29T11:47:28.000Z</time>
      </trkpt>
      <trkpt lat="37.3963915742933750152587890625" lon="-3.4325189329683780670166015625">
        <ele>971.5999755859375</ele>
        <time>2019-10-29T11:47:31.000Z</time>
      </trkpt>
      <trkpt lat="37.39641546271741390228271484375" lon="-3.4328045882284641265869140625">
        <ele>970.20001220703125</ele>
        <time>2019-10-29T11:47:34.000Z</time>
      </trkpt>
      <trkpt lat="37.3964438773691654205322265625" lon="-3.43308630399405956268310546875">
        <ele>968.5999755859375</ele>
        <time>2019-10-29T11:47:37.000Z</time>
      </trkpt>
      <trkpt lat="37.39647178910672664642333984375" lon="-3.4333638288080692291259765625">
        <ele>968.79998779296875</ele>
        <time>2019-10-29T11:47:40.000Z</time>
      </trkpt>
      <trkpt lat="37.396503053605556488037109375" lon="-3.4336414374411106109619140625">
        <ele>969.4000244140625</ele>
        <time>2019-10-29T11:47:43.000Z</time>
      </trkpt>
      <trkpt lat="37.39653264172375202178955078125" lon="-3.433916531503200531005859375">
        <ele>970.20001220703125</ele>
        <time>2019-10-29T11:47:46.000Z</time>
      </trkpt>
      <trkpt lat="37.39656013436615467071533203125" lon="-3.43418768607079982757568359375">
        <ele>969.5999755859375</ele>
        <time>2019-10-29T11:47:49.000Z</time>
      </trkpt>
      <trkpt lat="37.3965863697230815887451171875" lon="-3.43445724807679653167724609375">
        <ele>969.20001220703125</ele>
        <time>2019-10-29T11:47:52.000Z</time>
      </trkpt>
      <trkpt lat="37.3966141976416110992431640625" lon="-3.43472798354923725128173828125">
        <ele>968</ele>
        <time>2019-10-29T11:47:55.000Z</time>
      </trkpt>
      <trkpt lat="37.39664663560688495635986328125" lon="-3.43500190414488315582275390625">
        <ele>967</ele>
        <time>2019-10-29T11:47:58.000Z</time>
      </trkpt>
      <trkpt lat="37.39667563699185848236083984375" lon="-3.4352759085595607757568359375">
        <ele>968</ele>
        <time>2019-10-29T11:48:01.000Z</time>
      </trkpt>
      <trkpt lat="37.39670547656714916229248046875" lon="-3.43555192463099956512451171875">
        <ele>969.5999755859375</ele>
        <time>2019-10-29T11:48:04.000Z</time>
      </trkpt>
      <trkpt lat="37.3967332206666469573974609375" lon="-3.43582819215953350067138671875">
        <ele>969.20001220703125</ele>
        <time>2019-10-29T11:48:07.000Z</time>
      </trkpt>
      <trkpt lat="37.3967630602419376373291015625" lon="-3.4361042082309722900390625">
        <ele>968</ele>
        <time>2019-10-29T11:48:10.000Z</time>
      </trkpt>
      <trkpt lat="37.3967892117798328399658203125" lon="-3.43637670390307903289794921875">
        <ele>966.79998779296875</ele>
        <time>2019-10-29T11:48:13.000Z</time>
      </trkpt>
      <trkpt lat="37.39681192673742771148681640625" lon="-3.43663503415882587432861328125">
        <ele>966.4000244140625</ele>
        <time>2019-10-29T11:48:16.000Z</time>
      </trkpt>
      <trkpt lat="37.39683304913341999053955078125" lon="-3.43688481487333774566650390625">
        <ele>966.5999755859375</ele>
        <time>2019-10-29T11:48:19.000Z</time>
      </trkpt>
      <trkpt lat="37.39684662781655788421630859375" lon="-3.43712571077048778533935546875">
        <ele>966.4000244140625</ele>
        <time>2019-10-29T11:48:22.000Z</time>
      </trkpt>
      <trkpt lat="37.39685718901455402374267578125" lon="-3.43735537491738796234130859375">
        <ele>966.4000244140625</ele>
        <time>2019-10-29T11:48:25.000Z</time>
      </trkpt>
      <trkpt lat="37.3968586139380931854248046875" lon="-3.43764840625226497650146484375">
        <ele>966.4000244140625</ele>
        <time>2019-10-29T11:48:29.000Z</time>
      </trkpt>
      <trkpt lat="37.396857440471649169921875" lon="-3.43793104402720928192138671875">
        <ele>966.4000244140625</ele>
        <time>2019-10-29T11:48:33.000Z</time>
      </trkpt>
      <trkpt lat="37.39684193395078182220458984375" lon="-3.43820865266025066375732421875">
        <ele>966.5999755859375</ele>
        <time>2019-10-29T11:48:37.000Z</time>
      </trkpt>
      <trkpt lat="37.396828942000865936279296875" lon="-3.43849581666290760040283203125">
        <ele>966.20001220703125</ele>
        <time>2019-10-29T11:48:41.000Z</time>
      </trkpt>
      <trkpt lat="37.3968123458325862884521484375" lon="-3.43872271478176116943359375">
        <ele>965.79998779296875</ele>
        <time>2019-10-29T11:48:44.000Z</time>
      </trkpt>
      <trkpt lat="37.3967865295708179473876953125" lon="-3.43895279802381992340087890625">
        <ele>965.5999755859375</ele>
        <time>2019-10-29T11:48:47.000Z</time>
      </trkpt>
      <trkpt lat="37.39675694145262241363525390625" lon="-3.43919838778674602508544921875">
        <ele>965.4000244140625</ele>
        <time>2019-10-29T11:48:50.000Z</time>
      </trkpt>
      <trkpt lat="37.3967231623828411102294921875" lon="-3.439449258148670196533203125">
        <ele>964.5999755859375</ele>
        <time>2019-10-29T11:48:53.000Z</time>
      </trkpt>
      <trkpt lat="37.39668049849569797515869140625" lon="-3.43970297835767269134521484375">
        <ele>963.79998779296875</ele>
        <time>2019-10-29T11:48:56.000Z</time>
      </trkpt>
      <trkpt lat="37.39663490094244480133056640625" lon="-3.43996013514697551727294921875">
        <ele>963</ele>
        <time>2019-10-29T11:48:59.000Z</time>
      </trkpt>
      <trkpt lat="37.3965816758573055267333984375" lon="-3.4402151964604854583740234375">
        <ele>962.5999755859375</ele>
        <time>2019-10-29T11:49:02.000Z</time>
      </trkpt>
      <trkpt lat="37.396523170173168182373046875" lon="-3.4404679946601390838623046875">
        <ele>962.4000244140625</ele>
        <time>2019-10-29T11:49:05.000Z</time>
      </trkpt>
      <trkpt lat="37.39645636640489101409912109375" lon="-3.44071559607982635498046875">
        <ele>963</ele>
        <time>2019-10-29T11:49:08.000Z</time>
      </trkpt>
      <trkpt lat="37.396383695304393768310546875" lon="-3.4409591741859912872314453125">
        <ele>962.5999755859375</ele>
        <time>2019-10-29T11:49:11.000Z</time>
      </trkpt>
      <trkpt lat="37.39630381576716899871826171875" lon="-3.44120032154023647308349609375">
        <ele>962</ele>
        <time>2019-10-29T11:49:14.000Z</time>
      </trkpt>
      <trkpt lat="37.39622284658253192901611328125" lon="-3.44143870286643505096435546875">
        <ele>961.79998779296875</ele>
        <time>2019-10-29T11:49:17.000Z</time>
      </trkpt>
      <trkpt lat="37.396138273179531097412109375" lon="-3.44168295152485370635986328125">
        <ele>962.20001220703125</ele>
        <time>2019-10-29T11:49:20.000Z</time>
      </trkpt>
      <trkpt lat="37.39605051465332508087158203125" lon="-3.44193197786808013916015625">
        <ele>962</ele>
        <time>2019-10-29T11:49:23.000Z</time>
      </trkpt>
      <trkpt lat="37.39596317522227764129638671875" lon="-3.44218854792416095733642578125">
        <ele>960.5999755859375</ele>
        <time>2019-10-29T11:49:26.000Z</time>
      </trkpt>
      <trkpt lat="37.3958755843341350555419921875" lon="-3.4424431063234806060791015625">
        <ele>959.79998779296875</ele>
        <time>2019-10-29T11:49:29.000Z</time>
      </trkpt>
      <trkpt lat="37.39578765816986560821533203125" lon="-3.44269397668540477752685546875">
        <ele>960</ele>
        <time>2019-10-29T11:49:32.000Z</time>
      </trkpt>
      <trkpt lat="37.395706437528133392333984375" lon="-3.44293269328773021697998046875">
        <ele>960</ele>
        <time>2019-10-29T11:49:35.000Z</time>
      </trkpt>
      <trkpt lat="37.39562739618122577667236328125" lon="-3.44315640628337860107421875">
        <ele>959.5999755859375</ele>
        <time>2019-10-29T11:49:38.000Z</time>
      </trkpt>
      <trkpt lat="37.395551204681396484375" lon="-3.4433664567768573760986328125">
        <ele>959</ele>
        <time>2019-10-29T11:49:41.000Z</time>
      </trkpt>
      <trkpt lat="37.3954749293625354766845703125" lon="-3.4435810334980487823486328125">
        <ele>958.79998779296875</ele>
        <time>2019-10-29T11:49:44.000Z</time>
      </trkpt>
      <trkpt lat="37.39539655856788158416748046875" lon="-3.44379250891506671905517578125">
        <ele>958.20001220703125</ele>
        <time>2019-10-29T11:49:47.000Z</time>
      </trkpt>
      <trkpt lat="37.395294047892093658447265625" lon="-3.44406089745461940765380859375">
        <ele>958.5999755859375</ele>
        <time>2019-10-29T11:49:51.000Z</time>
      </trkpt>
      <trkpt lat="37.395226657390594482421875" lon="-3.444253765046596527099609375">
        <ele>959.5999755859375</ele>
        <time>2019-10-29T11:49:54.000Z</time>
      </trkpt>
      <trkpt lat="37.395188100636005401611328125" lon="-3.4443773142993450164794921875">
        <ele>960.20001220703125</ele>
        <time>2019-10-29T11:49:56.000Z</time>
      </trkpt>
      <trkpt lat="37.39510905928909778594970703125" lon="-3.4446006081998348236083984375">
        <ele>960.5999755859375</ele>
        <time>2019-10-29T11:50:01.000Z</time>
      </trkpt>
      <trkpt lat="37.39509816281497478485107421875" lon="-3.44463958404958248138427734375">
        <ele>960.5999755859375</ele>
        <time>2019-10-29T11:50:04.000Z</time>
      </trkpt>
      <trkpt lat="37.3950964026153087615966796875" lon="-3.44462483190000057220458984375">
        <ele>960.5999755859375</ele>
        <time>2019-10-29T11:50:08.000Z</time>
      </trkpt>
      <trkpt lat="37.39503328688442707061767578125" lon="-3.44483890570700168609619140625">
        <ele>960.4000244140625</ele>
        <time>2019-10-29T11:54:35.000Z</time>
      </trkpt>
      <trkpt lat="37.39495298825204372406005859375" lon="-3.44507410190999507904052734375">
        <ele>959.4000244140625</ele>
        <time>2019-10-29T11:54:41.000Z</time>
      </trkpt>
      <trkpt lat="37.394877634942531585693359375" lon="-3.44528138637542724609375">
        <ele>958.79998779296875</ele>
        <time>2019-10-29T11:54:45.000Z</time>
      </trkpt>
      <trkpt lat="37.394788451492786407470703125" lon="-3.44551406800746917724609375">
        <ele>957.79998779296875</ele>
        <time>2019-10-29T11:54:49.000Z</time>
      </trkpt>
      <trkpt lat="37.39469616673886775970458984375" lon="-3.4457606635987758636474609375">
        <ele>956.5999755859375</ele>
        <time>2019-10-29T11:54:53.000Z</time>
      </trkpt>
      <trkpt lat="37.39460170269012451171875" lon="-3.4460184909403324127197265625">
        <ele>954.79998779296875</ele>
        <time>2019-10-29T11:54:57.000Z</time>
      </trkpt>
      <trkpt lat="37.39451109431684017181396484375" lon="-3.44628277234733104705810546875">
        <ele>954</ele>
        <time>2019-10-29T11:55:01.000Z</time>
      </trkpt>
      <trkpt lat="37.3944355733692646026611328125" lon="-3.446490056812763214111328125">
        <ele>954.20001220703125</ele>
        <time>2019-10-29T11:55:04.000Z</time>
      </trkpt>
      <trkpt lat="37.394353933632373809814453125" lon="-3.4467148594558238983154296875">
        <ele>954.4000244140625</ele>
        <time>2019-10-29T11:55:07.000Z</time>
      </trkpt>
      <trkpt lat="37.39426818676292896270751953125" lon="-3.44695298932492733001708984375">
        <ele>954</ele>
        <time>2019-10-29T11:55:10.000Z</time>
      </trkpt>
      <trkpt lat="37.394180260598659515380859375" lon="-3.44719849526882171630859375">
        <ele>953.4000244140625</ele>
        <time>2019-10-29T11:55:13.000Z</time>
      </trkpt>
      <trkpt lat="37.39408680237829685211181640625" lon="-3.44745489768683910369873046875">
        <ele>951.5999755859375</ele>
        <time>2019-10-29T11:55:16.000Z</time>
      </trkpt>
      <trkpt lat="37.393992505967617034912109375" lon="-3.447711803019046783447265625">
        <ele>951</ele>
        <time>2019-10-29T11:55:19.000Z</time>
      </trkpt>
      <trkpt lat="37.3938971199095249176025390625" lon="-3.447974659502506256103515625">
        <ele>950</ele>
        <time>2019-10-29T11:55:22.000Z</time>
      </trkpt>
      <trkpt lat="37.393802739679813385009765625" lon="-3.44824681989848613739013671875">
        <ele>948</ele>
        <time>2019-10-29T11:55:25.000Z</time>
      </trkpt>
      <trkpt lat="37.39370777271687984466552734375" lon="-3.44852350652217864990234375">
        <ele>945.79998779296875</ele>
        <time>2019-10-29T11:55:28.000Z</time>
      </trkpt>
      <trkpt lat="37.39360970444977283477783203125" lon="-3.44880505464971065521240234375">
        <ele>945</ele>
        <time>2019-10-29T11:55:31.000Z</time>
      </trkpt>
      <trkpt lat="37.39351599477231502532958984375" lon="-3.449085094034671783447265625">
        <ele>945</ele>
        <time>2019-10-29T11:55:34.000Z</time>
      </trkpt>
      <trkpt lat="37.393438629806041717529296875" lon="-3.449375443160533905029296875">
        <ele>944</ele>
        <time>2019-10-29T11:55:37.000Z</time>
      </trkpt>
      <trkpt lat="37.393376938998699188232421875" lon="-3.4496686421334743499755859375">
        <ele>941.79998779296875</ele>
        <time>2019-10-29T11:55:40.000Z</time>
      </trkpt>
      <trkpt lat="37.39333846606314182281494140625" lon="-3.449960164725780487060546875">
        <ele>940.79998779296875</ele>
        <time>2019-10-29T11:55:43.000Z</time>
      </trkpt>
      <trkpt lat="37.3933120630681514739990234375" lon="-3.4502433054149150848388671875">
        <ele>941</ele>
        <time>2019-10-29T11:55:46.000Z</time>
      </trkpt>
      <trkpt lat="37.393297813832759857177734375" lon="-3.4505178965628147125244140625">
        <ele>941</ele>
        <time>2019-10-29T11:55:49.000Z</time>
      </trkpt>
      <trkpt lat="37.39329320378601551055908203125" lon="-3.4507844410836696624755859375">
        <ele>941</ele>
        <time>2019-10-29T11:55:52.000Z</time>
      </trkpt>
      <trkpt lat="37.3932832293212413787841796875" lon="-3.451045118272304534912109375">
        <ele>941</ele>
        <time>2019-10-29T11:55:55.000Z</time>
      </trkpt>
      <trkpt lat="37.39326973445713520050048828125" lon="-3.4513071365654468536376953125">
        <ele>941.79998779296875</ele>
        <time>2019-10-29T11:55:58.000Z</time>
      </trkpt>
      <trkpt lat="37.39324324764311313629150390625" lon="-3.45156253315508365631103515625">
        <ele>942.4000244140625</ele>
        <time>2019-10-29T11:56:01.000Z</time>
      </trkpt>
      <trkpt lat="37.39320938475430011749267578125" lon="-3.45182689838111400604248046875">
        <ele>942</ele>
        <time>2019-10-29T11:56:04.000Z</time>
      </trkpt>
      <trkpt lat="37.393160350620746612548828125" lon="-3.4520906768739223480224609375">
        <ele>941.5999755859375</ele>
        <time>2019-10-29T11:56:07.000Z</time>
      </trkpt>
      <trkpt lat="37.393111400306224822998046875" lon="-3.45235127024352550506591796875">
        <ele>941.5999755859375</ele>
        <time>2019-10-29T11:56:10.000Z</time>
      </trkpt>
      <trkpt lat="37.3930505476891994476318359375" lon="-3.45260255970060825347900390625">
        <ele>942.4000244140625</ele>
        <time>2019-10-29T11:56:13.000Z</time>
      </trkpt>
      <trkpt lat="37.3929875157773494720458984375" lon="-3.452846892178058624267578125">
        <ele>943.20001220703125</ele>
        <time>2019-10-29T11:56:16.000Z</time>
      </trkpt>
      <trkpt lat="37.39292356185615062713623046875" lon="-3.4530933201313018798828125">
        <ele>943.4000244140625</ele>
        <time>2019-10-29T11:56:19.000Z</time>
      </trkpt>
      <trkpt lat="37.3928624577820301055908203125" lon="-3.453337736427783966064453125">
        <ele>943.5999755859375</ele>
        <time>2019-10-29T11:56:22.000Z</time>
      </trkpt>
      <trkpt lat="37.39280018024146556854248046875" lon="-3.45357653684914112091064453125">
        <ele>943.79998779296875</ele>
        <time>2019-10-29T11:56:25.000Z</time>
      </trkpt>
      <trkpt lat="37.392737567424774169921875" lon="-3.45381441526114940643310546875">
        <ele>943.20001220703125</ele>
        <time>2019-10-29T11:56:28.000Z</time>
      </trkpt>
      <trkpt lat="37.39267763681709766387939453125" lon="-3.4540483541786670684814453125">
        <ele>942.20001220703125</ele>
        <time>2019-10-29T11:56:31.000Z</time>
      </trkpt>
      <trkpt lat="37.392614185810089111328125" lon="-3.45428145490586757659912109375">
        <ele>941.5999755859375</ele>
        <time>2019-10-29T11:56:34.000Z</time>
      </trkpt>
      <trkpt lat="37.39255693741142749786376953125" lon="-3.45451313070952892303466796875">
        <ele>940.79998779296875</ele>
        <time>2019-10-29T11:56:37.000Z</time>
      </trkpt>
      <trkpt lat="37.39249373786151409149169921875" lon="-3.45474782399833202362060546875">
        <ele>940.5999755859375</ele>
        <time>2019-10-29T11:56:40.000Z</time>
      </trkpt>
      <trkpt lat="37.39243456162512302398681640625" lon="-3.45498335547745227813720703125">
        <ele>940.20001220703125</ele>
        <time>2019-10-29T11:56:43.000Z</time>
      </trkpt>
      <trkpt lat="37.39237505011260509490966796875" lon="-3.45522324554622173309326171875">
        <ele>938.5999755859375</ele>
        <time>2019-10-29T11:56:46.000Z</time>
      </trkpt>
      <trkpt lat="37.39232123829424381256103515625" lon="-3.4554779715836048126220703125">
        <ele>938</ele>
        <time>2019-10-29T11:56:49.000Z</time>
      </trkpt>
      <trkpt lat="37.3922767303884029388427734375" lon="-3.4557411633431911468505859375">
        <ele>937.4000244140625</ele>
        <time>2019-10-29T11:56:52.000Z</time>
      </trkpt>
      <trkpt lat="37.39223532378673553466796875" lon="-3.4560103900730609893798828125">
        <ele>936.4000244140625</ele>
        <time>2019-10-29T11:56:55.000Z</time>
      </trkpt>
      <trkpt lat="37.39220179617404937744140625" lon="-3.45629059709608554840087890625">
        <ele>933.79998779296875</ele>
        <time>2019-10-29T11:56:58.000Z</time>
      </trkpt>
      <trkpt lat="37.39218126051127910614013671875" lon="-3.4565827064216136932373046875">
        <ele>932.20001220703125</ele>
        <time>2019-10-29T11:57:01.000Z</time>
      </trkpt>
      <trkpt lat="37.3921738006174564361572265625" lon="-3.4568780846893787384033203125">
        <ele>931.20001220703125</ele>
        <time>2019-10-29T11:57:04.000Z</time>
      </trkpt>
      <trkpt lat="37.39217589609324932098388671875" lon="-3.45717765390872955322265625">
        <ele>930.20001220703125</ele>
        <time>2019-10-29T11:57:07.000Z</time>
      </trkpt>
      <trkpt lat="37.39218813367187976837158203125" lon="-3.45747470855712890625">
        <ele>930</ele>
        <time>2019-10-29T11:57:10.000Z</time>
      </trkpt>
      <trkpt lat="37.39220581948757171630859375" lon="-3.4577685780823230743408203125">
        <ele>931</ele>
        <time>2019-10-29T11:57:13.000Z</time>
      </trkpt>
      <trkpt lat="37.39223306067287921905517578125" lon="-3.4580545686185359954833984375">
        <ele>930.79998779296875</ele>
        <time>2019-10-29T11:57:16.000Z</time>
      </trkpt>
      <trkpt lat="37.39226776175200939178466796875" lon="-3.45833309926092624664306640625">
        <ele>930</ele>
        <time>2019-10-29T11:57:19.000Z</time>
      </trkpt>
      <trkpt lat="37.39230900071561336517333984375" lon="-3.4585950337350368499755859375">
        <ele>929.5999755859375</ele>
        <time>2019-10-29T11:57:22.000Z</time>
      </trkpt>
      <trkpt lat="37.3923518322408199310302734375" lon="-3.45883534289896488189697265625">
        <ele>928.5999755859375</ele>
        <time>2019-10-29T11:57:25.000Z</time>
      </trkpt>
      <trkpt lat="37.39240841008722782135009765625" lon="-3.45911948941648006439208984375">
        <ele>927.79998779296875</ele>
        <time>2019-10-29T11:57:29.000Z</time>
      </trkpt>
      <trkpt lat="37.39246741868555545806884765625" lon="-3.4593866206705570220947265625">
        <ele>928.79998779296875</ele>
        <time>2019-10-29T11:57:33.000Z</time>
      </trkpt>
      <trkpt lat="37.39252072758972644805908203125" lon="-3.45964520238339900970458984375">
        <ele>930</ele>
        <time>2019-10-29T11:57:37.000Z</time>
      </trkpt>
      <trkpt lat="37.39257353357970714569091796875" lon="-3.45990478992462158203125">
        <ele>931.4000244140625</ele>
        <time>2019-10-29T11:57:41.000Z</time>
      </trkpt>
      <trkpt lat="37.39262315444648265838623046875" lon="-3.460166640579700469970703125">
        <ele>932.20001220703125</ele>
        <time>2019-10-29T11:57:45.000Z</time>
      </trkpt>
      <trkpt lat="37.39267596043646335601806640625" lon="-3.4604320116341114044189453125">
        <ele>933</ele>
        <time>2019-10-29T11:57:49.000Z</time>
      </trkpt>
      <trkpt lat="37.3927313648164272308349609375" lon="-3.46069511957466602325439453125">
        <ele>934.4000244140625</ele>
        <time>2019-10-29T11:57:53.000Z</time>
      </trkpt>
      <trkpt lat="37.39277956075966358184814453125" lon="-3.46093551255762577056884765625">
        <ele>935.5999755859375</ele>
        <time>2019-10-29T11:57:57.000Z</time>
      </trkpt>
      <trkpt lat="37.3928188718855381011962890625" lon="-3.4611211717128753662109375">
        <ele>936</ele>
        <time>2019-10-29T11:58:01.000Z</time>
      </trkpt>
      <trkpt lat="37.39283219911158084869384765625" lon="-3.46114589832723140716552734375">
        <ele>935.79998779296875</ele>
        <time>2019-10-29T11:58:03.000Z</time>
      </trkpt>
      <trkpt lat="37.39284309558570384979248046875" lon="-3.46111941151320934295654296875">
        <ele>936</ele>
        <time>2019-10-29T11:58:07.000Z</time>
      </trkpt>
      <trkpt lat="37.39283974282443523406982421875" lon="-3.46123457886278629302978515625">
        <ele>935.5999755859375</ele>
        <time>2019-10-29T12:01:57.000Z</time>
      </trkpt>
      <trkpt lat="37.39288634620606899261474609375" lon="-3.4614750556647777557373046875">
        <ele>935.4000244140625</ele>
        <time>2019-10-29T12:02:03.000Z</time>
      </trkpt>
      <trkpt lat="37.39293462596833705902099609375" lon="-3.4617516584694385528564453125">
        <ele>936</ele>
        <time>2019-10-29T12:02:08.000Z</time>
      </trkpt>
      <trkpt lat="37.39297955296933650970458984375" lon="-3.46200236119329929351806640625">
        <ele>936.5999755859375</ele>
        <time>2019-10-29T12:02:12.000Z</time>
      </trkpt>
      <trkpt lat="37.39302716217935085296630859375" lon="-3.46225985325872898101806640625">
        <ele>936.5999755859375</ele>
        <time>2019-10-29T12:02:16.000Z</time>
      </trkpt>
      <trkpt lat="37.3930790461599826812744140625" lon="-3.46252153627574443817138671875">
        <ele>934.5999755859375</ele>
        <time>2019-10-29T12:02:20.000Z</time>
      </trkpt>
      <trkpt lat="37.3931358754634857177734375" lon="-3.46279059536755084991455078125">
        <ele>933</ele>
        <time>2019-10-29T12:02:24.000Z</time>
      </trkpt>
      <trkpt lat="37.39319580607116222381591796875" lon="-3.46306317485868930816650390625">
        <ele>933</ele>
        <time>2019-10-29T12:02:28.000Z</time>
      </trkpt>
      <trkpt lat="37.393252216279506683349609375" lon="-3.4633438847959041595458984375">
        <ele>933.79998779296875</ele>
        <time>2019-10-29T12:02:32.000Z</time>
      </trkpt>
      <trkpt lat="37.39330627955496311187744140625" lon="-3.463628031313419342041015625">
        <ele>935</ele>
        <time>2019-10-29T12:02:36.000Z</time>
      </trkpt>
      <trkpt lat="37.39336243830621242523193359375" lon="-3.463916368782520294189453125">
        <ele>936</ele>
        <time>2019-10-29T12:02:40.000Z</time>
      </trkpt>
      <trkpt lat="37.39341524429619312286376953125" lon="-3.46420101821422576904296875">
        <ele>936.4000244140625</ele>
        <time>2019-10-29T12:02:44.000Z</time>
      </trkpt>
      <trkpt lat="37.3934716545045375823974609375" lon="-3.46448558382689952850341796875">
        <ele>935</ele>
        <time>2019-10-29T12:02:48.000Z</time>
      </trkpt>
      <trkpt lat="37.3935246281325817108154296875" lon="-3.4647745080292224884033203125">
        <ele>933.5999755859375</ele>
        <time>2019-10-29T12:02:52.000Z</time>
      </trkpt>
      <trkpt lat="37.39356494508683681488037109375" lon="-3.46499637700617313385009765625">
        <ele>933</ele>
        <time>2019-10-29T12:02:55.000Z</time>
      </trkpt>
      <trkpt lat="37.39360718987882137298583984375" lon="-3.4652180783450603485107421875">
        <ele>932.20001220703125</ele>
        <time>2019-10-29T12:02:58.000Z</time>
      </trkpt>
      <trkpt lat="37.39364457316696643829345703125" lon="-3.465441204607486724853515625">
        <ele>931.5999755859375</ele>
        <time>2019-10-29T12:03:01.000Z</time>
      </trkpt>
      <trkpt lat="37.3937019892036914825439453125" lon="-3.46573079936206340789794921875">
        <ele>931.4000244140625</ele>
        <time>2019-10-29T12:03:05.000Z</time>
      </trkpt>
      <trkpt lat="37.3937576450407505035400390625" lon="-3.46602114848792552947998046875">
        <ele>932.4000244140625</ele>
        <time>2019-10-29T12:03:09.000Z</time>
      </trkpt>
      <trkpt lat="37.39380843937397003173828125" lon="-3.466312251985073089599609375">
        <ele>932</ele>
        <time>2019-10-29T12:03:13.000Z</time>
      </trkpt>
      <trkpt lat="37.3938508518040180206298828125" lon="-3.4666049480438232421875">
        <ele>931.20001220703125</ele>
        <time>2019-10-29T12:03:17.000Z</time>
      </trkpt>
      <trkpt lat="37.39389837719500064849853515625" lon="-3.46689655445516109466552734375">
        <ele>931.20001220703125</ele>
        <time>2019-10-29T12:03:21.000Z</time>
      </trkpt>
      <trkpt lat="37.393951602280139923095703125" lon="-3.4671884961426258087158203125">
        <ele>931.4000244140625</ele>
        <time>2019-10-29T12:03:25.000Z</time>
      </trkpt>
      <trkpt lat="37.39401237107813358306884765625" lon="-3.46747825853526592254638671875">
        <ele>931.5999755859375</ele>
        <time>2019-10-29T12:03:29.000Z</time>
      </trkpt>
      <trkpt lat="37.394077666103839874267578125" lon="-3.46776030957698822021484375">
        <ele>932.79998779296875</ele>
        <time>2019-10-29T12:03:33.000Z</time>
      </trkpt>
      <trkpt lat="37.394150756299495697021484375" lon="-3.46804269589483737945556640625">
        <ele>934</ele>
        <time>2019-10-29T12:03:37.000Z</time>
      </trkpt>
      <trkpt lat="37.39420833997428417205810546875" lon="-3.46825920045375823974609375">
        <ele>933.4000244140625</ele>
        <time>2019-10-29T12:03:40.000Z</time>
      </trkpt>
      <trkpt lat="37.3942833580076694488525390625" lon="-3.468541167676448822021484375">
        <ele>933.20001220703125</ele>
        <time>2019-10-29T12:03:44.000Z</time>
      </trkpt>
      <trkpt lat="37.394363991916179656982421875" lon="-3.46882187761366367340087890625">
        <ele>933</ele>
        <time>2019-10-29T12:03:48.000Z</time>
      </trkpt>
      <trkpt lat="37.39445007406175136566162109375" lon="-3.4691005758941173553466796875">
        <ele>934</ele>
        <time>2019-10-29T12:03:52.000Z</time>
      </trkpt>
      <trkpt lat="37.394521236419677734375" lon="-3.469308950006961822509765625">
        <ele>933.79998779296875</ele>
        <time>2019-10-29T12:03:55.000Z</time>
      </trkpt>
      <trkpt lat="37.39462542347609996795654296875" lon="-3.4695786796510219573974609375">
        <ele>933.79998779296875</ele>
        <time>2019-10-29T12:03:59.000Z</time>
      </trkpt>
      <trkpt lat="37.39473505876958370208740234375" lon="-3.469845391809940338134765625">
        <ele>934.4000244140625</ele>
        <time>2019-10-29T12:04:03.000Z</time>
      </trkpt>
      <trkpt lat="37.3948466219007968902587890625" lon="-3.47010900266468524932861328125">
        <ele>933.79998779296875</ele>
        <time>2019-10-29T12:04:07.000Z</time>
      </trkpt>
      <trkpt lat="37.39496639929711818695068359375" lon="-3.470365740358829498291015625">
        <ele>933</ele>
        <time>2019-10-29T12:04:11.000Z</time>
      </trkpt>
      <trkpt lat="37.3950937204062938690185546875" lon="-3.47062130458652973175048828125">
        <ele>933</ele>
        <time>2019-10-29T12:04:15.000Z</time>
      </trkpt>
      <trkpt lat="37.39519237540662288665771484375" lon="-3.4708192013204097747802734375">
        <ele>933</ele>
        <time>2019-10-29T12:04:18.000Z</time>
      </trkpt>
      <trkpt lat="37.39529496990144252777099609375" lon="-3.47101575694978237152099609375">
        <ele>932.4000244140625</ele>
        <time>2019-10-29T12:04:21.000Z</time>
      </trkpt>
      <trkpt lat="37.3954065330326557159423828125" lon="-3.471211306750774383544921875">
        <ele>932</ele>
        <time>2019-10-29T12:04:24.000Z</time>
      </trkpt>
      <trkpt lat="37.395517341792583465576171875" lon="-3.47140668891370296478271484375">
        <ele>931</ele>
        <time>2019-10-29T12:04:27.000Z</time>
      </trkpt>
      <trkpt lat="37.39563108421862125396728515625" lon="-3.471596539020538330078125">
        <ele>931.5999755859375</ele>
        <time>2019-10-29T12:04:30.000Z</time>
      </trkpt>
      <trkpt lat="37.39575195126235485076904296875" lon="-3.47178286872804164886474609375">
        <ele>931.4000244140625</ele>
        <time>2019-10-29T12:04:33.000Z</time>
      </trkpt>
      <trkpt lat="37.39587550051510334014892578125" lon="-3.471966348588466644287109375">
        <ele>932</ele>
        <time>2019-10-29T12:04:36.000Z</time>
      </trkpt>
      <trkpt lat="37.39600106142461299896240234375" lon="-3.47214966081082820892333984375">
        <ele>932</ele>
        <time>2019-10-29T12:04:39.000Z</time>
      </trkpt>
      <trkpt lat="37.39613198675215244293212890625" lon="-3.4723269380629062652587890625">
        <ele>932.4000244140625</ele>
        <time>2019-10-29T12:04:42.000Z</time>
      </trkpt>
      <trkpt lat="37.396267689764499664306640625" lon="-3.47249868325889110565185546875">
        <ele>932.5999755859375</ele>
        <time>2019-10-29T12:04:45.000Z</time>
      </trkpt>
      <trkpt lat="37.3964096792042255401611328125" lon="-3.47267151810228824615478515625">
        <ele>932.4000244140625</ele>
        <time>2019-10-29T12:04:48.000Z</time>
      </trkpt>
      <trkpt lat="37.39655812270939350128173828125" lon="-3.4728422574698925018310546875">
        <ele>930.79998779296875</ele>
        <time>2019-10-29T12:04:51.000Z</time>
      </trkpt>
      <trkpt lat="37.39670790731906890869140625" lon="-3.47300880588591098785400390625">
        <ele>929.79998779296875</ele>
        <time>2019-10-29T12:04:54.000Z</time>
      </trkpt>
      <trkpt lat="37.39686121232807636260986328125" lon="-3.47316957078874111175537109375">
        <ele>928.79998779296875</ele>
        <time>2019-10-29T12:04:57.000Z</time>
      </trkpt>
      <trkpt lat="37.39701644517481327056884765625" lon="-3.473328910768032073974609375">
        <ele>928.4000244140625</ele>
        <time>2019-10-29T12:05:00.000Z</time>
      </trkpt>
      <trkpt lat="37.3971781320869922637939453125" lon="-3.4734888374805450439453125">
        <ele>928.4000244140625</ele>
        <time>2019-10-29T12:05:03.000Z</time>
      </trkpt>
      <trkpt lat="37.39734048955142498016357421875" lon="-3.47364616580307483673095703125">
        <ele>928</ele>
        <time>2019-10-29T12:05:06.000Z</time>
      </trkpt>
      <trkpt lat="37.39750385284423828125" lon="-3.47379670478403568267822265625">
        <ele>928</ele>
        <time>2019-10-29T12:05:09.000Z</time>
      </trkpt>
      <trkpt lat="37.39766855724155902862548828125" lon="-3.4739412926137447357177734375">
        <ele>928.4000244140625</ele>
        <time>2019-10-29T12:05:12.000Z</time>
      </trkpt>
      <trkpt lat="37.3978359438478946685791015625" lon="-3.4740800969302654266357421875">
        <ele>928</ele>
        <time>2019-10-29T12:05:15.000Z</time>
      </trkpt>
      <trkpt lat="37.3980069346725940704345703125" lon="-3.47421345300972461700439453125">
        <ele>928.79998779296875</ele>
        <time>2019-10-29T12:05:18.000Z</time>
      </trkpt>
      <trkpt lat="37.3981757462024688720703125" lon="-3.47435058094561100006103515625">
        <ele>928.5999755859375</ele>
        <time>2019-10-29T12:05:21.000Z</time>
      </trkpt>
      <trkpt lat="37.39834363572299480438232421875" lon="-3.474482595920562744140625">
        <ele>928.79998779296875</ele>
        <time>2019-10-29T12:05:24.000Z</time>
      </trkpt>
      <trkpt lat="37.3985142074525356292724609375" lon="-3.47461444325745105743408203125">
        <ele>928.4000244140625</ele>
        <time>2019-10-29T12:05:27.000Z</time>
      </trkpt>
      <trkpt lat="37.39868494682013988494873046875" lon="-3.47473950125277042388916015625">
        <ele>928</ele>
        <time>2019-10-29T12:05:30.000Z</time>
      </trkpt>
      <trkpt lat="37.39885426126420497894287109375" lon="-3.47486422397196292877197265625">
        <ele>928</ele>
        <time>2019-10-29T12:05:33.000Z</time>
      </trkpt>
      <trkpt lat="37.39902139641344547271728515625" lon="-3.4749897010624408721923828125">
        <ele>928.5999755859375</ele>
        <time>2019-10-29T12:05:36.000Z</time>
      </trkpt>
      <trkpt lat="37.39918895065784454345703125" lon="-3.47511601634323596954345703125">
        <ele>929</ele>
        <time>2019-10-29T12:05:39.000Z</time>
      </trkpt>
      <trkpt lat="37.39935181103646755218505859375" lon="-3.47524258308112621307373046875">
        <ele>929.5999755859375</ele>
        <time>2019-10-29T12:05:42.000Z</time>
      </trkpt>
      <trkpt lat="37.39951391704380512237548828125" lon="-3.47536713816225528717041015625">
        <ele>929</ele>
        <time>2019-10-29T12:05:45.000Z</time>
      </trkpt>
      <trkpt lat="37.399678118526935577392578125" lon="-3.47548775374889373779296875">
        <ele>928</ele>
        <time>2019-10-29T12:05:48.000Z</time>
      </trkpt>
      <trkpt lat="37.39983745850622653961181640625" lon="-3.4756062738597393035888671875">
        <ele>926.79998779296875</ele>
        <time>2019-10-29T12:05:51.000Z</time>
      </trkpt>
      <trkpt lat="37.4000014923512935638427734375" lon="-3.47572487778961658477783203125">
        <ele>925.79998779296875</ele>
        <time>2019-10-29T12:05:54.000Z</time>
      </trkpt>
      <trkpt lat="37.400165610015392303466796875" lon="-3.47584423609077930450439453125">
        <ele>926</ele>
        <time>2019-10-29T12:05:57.000Z</time>
      </trkpt>
      <trkpt lat="37.40032746456563472747802734375" lon="-3.47596510313451290130615234375">
        <ele>926.4000244140625</ele>
        <time>2019-10-29T12:06:00.000Z</time>
      </trkpt>
      <trkpt lat="37.40048923529684543609619140625" lon="-3.4760853834450244903564453125">
        <ele>926.20001220703125</ele>
        <time>2019-10-29T12:06:03.000Z</time>
      </trkpt>
      <trkpt lat="37.40064807236194610595703125" lon="-3.476205579936504364013671875">
        <ele>926.4000244140625</ele>
        <time>2019-10-29T12:06:06.000Z</time>
      </trkpt>
      <trkpt lat="37.400807328522205352783203125" lon="-3.47632619552314281463623046875">
        <ele>926.20001220703125</ele>
        <time>2019-10-29T12:06:09.000Z</time>
      </trkpt>
      <trkpt lat="37.4009637348353862762451171875" lon="-3.476445637643337249755859375">
        <ele>926.4000244140625</ele>
        <time>2019-10-29T12:06:12.000Z</time>
      </trkpt>
      <trkpt lat="37.40116531960666179656982421875" lon="-3.476598523557186126708984375">
        <ele>925.5999755859375</ele>
        <time>2019-10-29T12:06:16.000Z</time>
      </trkpt>
      <trkpt lat="37.4013630487024784088134765625" lon="-3.47674512304365634918212890625">
        <ele>926.5999755859375</ele>
        <time>2019-10-29T12:06:20.000Z</time>
      </trkpt>
      <trkpt lat="37.40155993960797786712646484375" lon="-3.47689566202461719512939453125">
        <ele>926.20001220703125</ele>
        <time>2019-10-29T12:06:24.000Z</time>
      </trkpt>
      <trkpt lat="37.40171500481665134429931640625" lon="-3.4770161099731922149658203125">
        <ele>926</ele>
        <time>2019-10-29T12:06:27.000Z</time>
      </trkpt>
      <trkpt lat="37.40187040530145168304443359375" lon="-3.47713974304497241973876953125">
        <ele>925.4000244140625</ele>
        <time>2019-10-29T12:06:30.000Z</time>
      </trkpt>
      <trkpt lat="37.4020322598516941070556640625" lon="-3.47726429812610149383544921875">
        <ele>924.5999755859375</ele>
        <time>2019-10-29T12:06:33.000Z</time>
      </trkpt>
      <trkpt lat="37.4022017419338226318359375" lon="-3.47739069722592830657958984375">
        <ele>923.4000244140625</ele>
        <time>2019-10-29T12:06:36.000Z</time>
      </trkpt>
      <trkpt lat="37.40237616933882236480712890625" lon="-3.4775290824472904205322265625">
        <ele>922.4000244140625</ele>
        <time>2019-10-29T12:06:39.000Z</time>
      </trkpt>
      <trkpt lat="37.40255646407604217529296875" lon="-3.4776665456593036651611328125">
        <ele>922</ele>
        <time>2019-10-29T12:06:42.000Z</time>
      </trkpt>
      <trkpt lat="37.4027489125728607177734375" lon="-3.47781381569802761077880859375">
        <ele>922</ele>
        <time>2019-10-29T12:06:45.000Z</time>
      </trkpt>
      <trkpt lat="37.40295200608670711517333984375" lon="-3.47796686924993991851806640625">
        <ele>920.79998779296875</ele>
        <time>2019-10-29T12:06:48.000Z</time>
      </trkpt>
      <trkpt lat="37.4031644873321056365966796875" lon="-3.4781268797814846038818359375">
        <ele>918</ele>
        <time>2019-10-29T12:06:51.000Z</time>
      </trkpt>
      <trkpt lat="37.40338702686131000518798828125" lon="-3.47828990779817104339599609375">
        <ele>913.5999755859375</ele>
        <time>2019-10-29T12:06:54.000Z</time>
      </trkpt>
      <trkpt lat="37.40362121723592281341552734375" lon="-3.47846441902220249176025390625">
        <ele>911.5999755859375</ele>
        <time>2019-10-29T12:06:57.000Z</time>
      </trkpt>
      <trkpt lat="37.40378432907164096832275390625" lon="-3.478586040437221527099609375">
        <ele>911</ele>
        <time>2019-10-29T12:06:59.000Z</time>
      </trkpt>
      <trkpt lat="37.40395280532538890838623046875" lon="-3.4787112660706043243408203125">
        <ele>910.20001220703125</ele>
        <time>2019-10-29T12:07:01.000Z</time>
      </trkpt>
      <trkpt lat="37.40412614308297634124755859375" lon="-3.4788423590362071990966796875">
        <ele>907.20001220703125</ele>
        <time>2019-10-29T12:07:03.000Z</time>
      </trkpt>
      <trkpt lat="37.404306270182132720947265625" lon="-3.478976301848888397216796875">
        <ele>905.20001220703125</ele>
        <time>2019-10-29T12:07:05.000Z</time>
      </trkpt>
      <trkpt lat="37.4044928513467311859130859375" lon="-3.47911552526056766510009765625">
        <ele>904</ele>
        <time>2019-10-29T12:07:07.000Z</time>
      </trkpt>
      <trkpt lat="37.40468353964388370513916015625" lon="-3.47925650887191295623779296875">
        <ele>901.5999755859375</ele>
        <time>2019-10-29T12:07:09.000Z</time>
      </trkpt>
      <trkpt lat="37.4048774130642414093017578125" lon="-3.47939950414001941680908203125">
        <ele>900.5999755859375</ele>
        <time>2019-10-29T12:07:11.000Z</time>
      </trkpt>
      <trkpt lat="37.4050743877887725830078125" lon="-3.47954861819744110107421875">
        <ele>900.4000244140625</ele>
        <time>2019-10-29T12:07:13.000Z</time>
      </trkpt>
      <trkpt lat="37.4052730388939380645751953125" lon="-3.47969940863549709320068359375">
        <ele>899.79998779296875</ele>
        <time>2019-10-29T12:07:15.000Z</time>
      </trkpt>
      <trkpt lat="37.40547328256070613861083984375" lon="-3.479855395853519439697265625">
        <ele>896.20001220703125</ele>
        <time>2019-10-29T12:07:17.000Z</time>
      </trkpt>
      <trkpt lat="37.40567587316036224365234375" lon="-3.48001792095601558685302734375">
        <ele>892.79998779296875</ele>
        <time>2019-10-29T12:07:19.000Z</time>
      </trkpt>
      <trkpt lat="37.405878715217113494873046875" lon="-3.4801901690661907196044921875">
        <ele>891.20001220703125</ele>
        <time>2019-10-29T12:07:21.000Z</time>
      </trkpt>
      <trkpt lat="37.4060790427029132843017578125" lon="-3.4803767502307891845703125">
        <ele>890.4000244140625</ele>
        <time>2019-10-29T12:07:23.000Z</time>
      </trkpt>
      <trkpt lat="37.4062711559236049652099609375" lon="-3.48058604635298252105712890625">
        <ele>889.5999755859375</ele>
        <time>2019-10-29T12:07:25.000Z</time>
      </trkpt>
      <trkpt lat="37.40644843317568302154541015625" lon="-3.4808219969272613525390625">
        <ele>888.5999755859375</ele>
        <time>2019-10-29T12:07:27.000Z</time>
      </trkpt>
      <trkpt lat="37.40660601295530796051025390625" lon="-3.48108326084911823272705078125">
        <ele>886.4000244140625</ele>
        <time>2019-10-29T12:07:29.000Z</time>
      </trkpt>
      <trkpt lat="37.4067552946507930755615234375" lon="-3.48136237822473049163818359375">
        <ele>883</ele>
        <time>2019-10-29T12:07:31.000Z</time>
      </trkpt>
      <trkpt lat="37.406891249120235443115234375" lon="-3.48165540955960750579833984375">
        <ele>881</ele>
        <time>2019-10-29T12:07:33.000Z</time>
      </trkpt>
      <trkpt lat="37.4070111103355884552001953125" lon="-3.48196000792086124420166015625">
        <ele>879.5999755859375</ele>
        <time>2019-10-29T12:07:35.000Z</time>
      </trkpt>
      <trkpt lat="37.407111860811710357666015625" lon="-3.4822786040604114532470703125">
        <ele>878</ele>
        <time>2019-10-29T12:07:37.000Z</time>
      </trkpt>
      <trkpt lat="37.40719744004309177398681640625" lon="-3.48260365426540374755859375">
        <ele>877</ele>
        <time>2019-10-29T12:07:39.000Z</time>
      </trkpt>
      <trkpt lat="37.4072629027068614959716796875" lon="-3.48293784074485301971435546875">
        <ele>876.79998779296875</ele>
        <time>2019-10-29T12:07:41.000Z</time>
      </trkpt>
      <trkpt lat="37.40729936398565769195556640625" lon="-3.4832775592803955078125">
        <ele>875.79998779296875</ele>
        <time>2019-10-29T12:07:43.000Z</time>
      </trkpt>
      <trkpt lat="37.40731210447847843170166015625" lon="-3.48362197168171405792236328125">
        <ele>874.5999755859375</ele>
        <time>2019-10-29T12:07:45.000Z</time>
      </trkpt>
      <trkpt lat="37.4073054827749729156494140625" lon="-3.48396613262593746185302734375">
        <ele>873.5999755859375</ele>
        <time>2019-10-29T12:07:47.000Z</time>
      </trkpt>
      <trkpt lat="37.4072840251028537750244140625" lon="-3.48431163467466831207275390625">
        <ele>871.5999755859375</ele>
        <time>2019-10-29T12:07:49.000Z</time>
      </trkpt>
      <trkpt lat="37.40725837647914886474609375" lon="-3.48465831018984317779541015625">
        <ele>869</ele>
        <time>2019-10-29T12:07:51.000Z</time>
      </trkpt>
      <trkpt lat="37.40723499096930027008056640625" lon="-3.4850050695240497589111328125">
        <ele>866.79998779296875</ele>
        <time>2019-10-29T12:07:53.000Z</time>
      </trkpt>
      <trkpt lat="37.40721805952489376068115234375" lon="-3.4853487275540828704833984375">
        <ele>864.79998779296875</ele>
        <time>2019-10-29T12:07:55.000Z</time>
      </trkpt>
      <trkpt lat="37.4072156287729740142822265625" lon="-3.485691547393798828125">
        <ele>864</ele>
        <time>2019-10-29T12:07:57.000Z</time>
      </trkpt>
      <trkpt lat="37.4072303809225559234619140625" lon="-3.4860313497483730316162109375">
        <ele>863.4000244140625</ele>
        <time>2019-10-29T12:07:59.000Z</time>
      </trkpt>
      <trkpt lat="37.40726063959300518035888671875" lon="-3.48636637441813945770263671875">
        <ele>861.20001220703125</ele>
        <time>2019-10-29T12:08:01.000Z</time>
      </trkpt>
      <trkpt lat="37.4073088355362415313720703125" lon="-3.48669393919408321380615234375">
        <ele>859.79998779296875</ele>
        <time>2019-10-29T12:08:03.000Z</time>
      </trkpt>
      <trkpt lat="37.4073730409145355224609375" lon="-3.4870173968374729156494140625">
        <ele>858.4000244140625</ele>
        <time>2019-10-29T12:08:05.000Z</time>
      </trkpt>
      <trkpt lat="37.40745442919433116912841796875" lon="-3.48733381368219852447509765625">
        <ele>857</ele>
        <time>2019-10-29T12:08:07.000Z</time>
      </trkpt>
      <trkpt lat="37.40755534730851650238037109375" lon="-3.48764210008084774017333984375">
        <ele>854.20001220703125</ele>
        <time>2019-10-29T12:08:09.000Z</time>
      </trkpt>
      <trkpt lat="37.40767252631485462188720703125" lon="-3.48794787190854549407958984375">
        <ele>851.4000244140625</ele>
        <time>2019-10-29T12:08:11.000Z</time>
      </trkpt>
      <trkpt lat="37.4077383242547512054443359375" lon="-3.4880963154137134552001953125">
        <ele>850.20001220703125</ele>
        <time>2019-10-29T12:08:12.000Z</time>
      </trkpt>
      <trkpt lat="37.40788693539798259735107421875" lon="-3.48838222213089466094970703125">
        <ele>850</ele>
        <time>2019-10-29T12:08:14.000Z</time>
      </trkpt>
      <trkpt lat="37.4080511368811130523681640625" lon="-3.48866033367812633514404296875">
        <ele>851.20001220703125</ele>
        <time>2019-10-29T12:08:16.000Z</time>
      </trkpt>
      <trkpt lat="37.40823461674153804779052734375" lon="-3.48892386071383953094482421875">
        <ele>850.4000244140625</ele>
        <time>2019-10-29T12:08:18.000Z</time>
      </trkpt>
      <trkpt lat="37.408430166542530059814453125" lon="-3.48917481489479541778564453125">
        <ele>847.79998779296875</ele>
        <time>2019-10-29T12:08:20.000Z</time>
      </trkpt>
      <trkpt lat="37.4086361937224864959716796875" lon="-3.48940975964069366455078125">
        <ele>844.4000244140625</ele>
        <time>2019-10-29T12:08:22.000Z</time>
      </trkpt>
      <trkpt lat="37.40884356200695037841796875" lon="-3.4896409325301647186279296875">
        <ele>840.4000244140625</ele>
        <time>2019-10-29T12:08:24.000Z</time>
      </trkpt>
      <trkpt lat="37.40904967300593852996826171875" lon="-3.48987109959125518798828125">
        <ele>839.79998779296875</ele>
        <time>2019-10-29T12:08:26.000Z</time>
      </trkpt>
      <trkpt lat="37.40925234742462635040283203125" lon="-3.490103445947170257568359375">
        <ele>838.20001220703125</ele>
        <time>2019-10-29T12:08:28.000Z</time>
      </trkpt>
      <trkpt lat="37.4094512499868869781494140625" lon="-3.49034191109240055084228515625">
        <ele>835.20001220703125</ele>
        <time>2019-10-29T12:08:30.000Z</time>
      </trkpt>
      <trkpt lat="37.409641854465007781982421875" lon="-3.4905924461781978607177734375">
        <ele>831.79998779296875</ele>
        <time>2019-10-29T12:08:32.000Z</time>
      </trkpt>
      <trkpt lat="37.40981846116483211517333984375" lon="-3.4908522851765155792236328125">
        <ele>828.79998779296875</ele>
        <time>2019-10-29T12:08:34.000Z</time>
      </trkpt>
      <trkpt lat="37.4099799804389476776123046875" lon="-3.4911245293915271759033203125">
        <ele>828</ele>
        <time>2019-10-29T12:08:36.000Z</time>
      </trkpt>
      <trkpt lat="37.41012322716414928436279296875" lon="-3.49140859209001064300537109375">
        <ele>825.20001220703125</ele>
        <time>2019-10-29T12:08:38.000Z</time>
      </trkpt>
      <trkpt lat="37.41025574505329132080078125" lon="-3.49170212633907794952392578125">
        <ele>822.20001220703125</ele>
        <time>2019-10-29T12:08:40.000Z</time>
      </trkpt>
      <trkpt lat="37.4103725887835025787353515625" lon="-3.492005132138729095458984375">
        <ele>820.79998779296875</ele>
        <time>2019-10-29T12:08:42.000Z</time>
      </trkpt>
      <trkpt lat="37.41047702729701995849609375" lon="-3.49231987260282039642333984375">
        <ele>821.5999755859375</ele>
        <time>2019-10-29T12:08:44.000Z</time>
      </trkpt>
      <trkpt lat="37.4105687253177165985107421875" lon="-3.49263872019946575164794921875">
        <ele>823</ele>
        <time>2019-10-29T12:08:46.000Z</time>
      </trkpt>
      <trkpt lat="37.41064156405627727508544921875" lon="-3.49296293221414089202880859375">
        <ele>821.79998779296875</ele>
        <time>2019-10-29T12:08:48.000Z</time>
      </trkpt>
      <trkpt lat="37.4106988124549388885498046875" lon="-3.49329384975135326385498046875">
        <ele>821.20001220703125</ele>
        <time>2019-10-29T12:08:50.000Z</time>
      </trkpt>
      <trkpt lat="37.41074231453239917755126953125" lon="-3.4936317242681980133056640625">
        <ele>819.4000244140625</ele>
        <time>2019-10-29T12:08:52.000Z</time>
      </trkpt>
      <trkpt lat="37.41076913662254810333251953125" lon="-3.49397697485983371734619140625">
        <ele>817.4000244140625</ele>
        <time>2019-10-29T12:08:54.000Z</time>
      </trkpt>
      <trkpt lat="37.41077818907797336578369140625" lon="-3.49432515911757946014404296875">
        <ele>814.4000244140625</ele>
        <time>2019-10-29T12:08:56.000Z</time>
      </trkpt>
      <trkpt lat="37.41076947189867496490478515625" lon="-3.494673930108547210693359375">
        <ele>811</ele>
        <time>2019-10-29T12:08:58.000Z</time>
      </trkpt>
      <trkpt lat="37.4107497744262218475341796875" lon="-3.49502353928983211517333984375">
        <ele>807.4000244140625</ele>
        <time>2019-10-29T12:09:00.000Z</time>
      </trkpt>
      <trkpt lat="37.410710714757442474365234375" lon="-3.4953676164150238037109375">
        <ele>804</ele>
        <time>2019-10-29T12:09:02.000Z</time>
      </trkpt>
      <trkpt lat="37.4106555618345737457275390625" lon="-3.4957027249038219451904296875">
        <ele>802</ele>
        <time>2019-10-29T12:09:04.000Z</time>
      </trkpt>
      <trkpt lat="37.4105881713330745697021484375" lon="-3.49603087641298770904541015625">
        <ele>800.5999755859375</ele>
        <time>2019-10-29T12:09:06.000Z</time>
      </trkpt>
      <trkpt lat="37.41050778888165950775146484375" lon="-3.49634503014385700225830078125">
        <ele>800</ele>
        <time>2019-10-29T12:09:08.000Z</time>
      </trkpt>
      <trkpt lat="37.41041441448032855987548828125" lon="-3.49664443172514438629150390625">
        <ele>802.20001220703125</ele>
        <time>2019-10-29T12:09:10.000Z</time>
      </trkpt>
      <trkpt lat="37.41030897013843059539794921875" lon="-3.49692321382462978363037109375">
        <ele>803.5999755859375</ele>
        <time>2019-10-29T12:09:12.000Z</time>
      </trkpt>
      <trkpt lat="37.41019673645496368408203125" lon="-3.4971861541271209716796875">
        <ele>802.20001220703125</ele>
        <time>2019-10-29T12:09:14.000Z</time>
      </trkpt>
      <trkpt lat="37.4100745283067226409912109375" lon="-3.49742696620523929595947265625">
        <ele>800.5999755859375</ele>
        <time>2019-10-29T12:09:16.000Z</time>
      </trkpt>
      <trkpt lat="37.4099461175501346588134765625" lon="-3.49764539860188961029052734375">
        <ele>799</ele>
        <time>2019-10-29T12:09:18.000Z</time>
      </trkpt>
      <trkpt lat="37.40982265211641788482666015625" lon="-3.4978478215634822845458984375">
        <ele>797.4000244140625</ele>
        <time>2019-10-29T12:09:20.000Z</time>
      </trkpt>
      <trkpt lat="37.40970161743462085723876953125" lon="-3.498034738004207611083984375">
        <ele>796.20001220703125</ele>
        <time>2019-10-29T12:09:22.000Z</time>
      </trkpt>
      <trkpt lat="37.4095737934112548828125" lon="-3.49820178933441638946533203125">
        <ele>796.79998779296875</ele>
        <time>2019-10-29T12:09:24.000Z</time>
      </trkpt>
      <trkpt lat="37.40939073264598846435546875" lon="-3.49842960946261882781982421875">
        <ele>798.4000244140625</ele>
        <time>2019-10-29T12:09:27.000Z</time>
      </trkpt>
      <trkpt lat="37.4092132039368152618408203125" lon="-3.49863379262387752532958984375">
        <ele>799.79998779296875</ele>
        <time>2019-10-29T12:09:30.000Z</time>
      </trkpt>
      <trkpt lat="37.40904070436954498291015625" lon="-3.4988288395106792449951171875">
        <ele>800.4000244140625</ele>
        <time>2019-10-29T12:09:33.000Z</time>
      </trkpt>
      <trkpt lat="37.408876083791255950927734375" lon="-3.49901206791400909423828125">
        <ele>801</ele>
        <time>2019-10-29T12:09:36.000Z</time>
      </trkpt>
      <trkpt lat="37.4087193422019481658935546875" lon="-3.4991932846605777740478515625">
        <ele>801</ele>
        <time>2019-10-29T12:09:39.000Z</time>
      </trkpt>
      <trkpt lat="37.4085574038326740264892578125" lon="-3.49937072955071926116943359375">
        <ele>800.20001220703125</ele>
        <time>2019-10-29T12:09:42.000Z</time>
      </trkpt>
      <trkpt lat="37.40839336998760700225830078125" lon="-3.49955228157341480255126953125">
        <ele>799.5999755859375</ele>
        <time>2019-10-29T12:09:45.000Z</time>
      </trkpt>
      <trkpt lat="37.40822372026741504669189453125" lon="-3.49972687661647796630859375">
        <ele>799.20001220703125</ele>
        <time>2019-10-29T12:09:48.000Z</time>
      </trkpt>
      <trkpt lat="37.40805231034755706787109375" lon="-3.49989158101379871368408203125">
        <ele>799.4000244140625</ele>
        <time>2019-10-29T12:09:51.000Z</time>
      </trkpt>
      <trkpt lat="37.407882995903491973876953125" lon="-3.500064499676227569580078125">
        <ele>799</ele>
        <time>2019-10-29T12:09:54.000Z</time>
      </trkpt>
      <trkpt lat="37.4077151902019977569580078125" lon="-3.50023725070059299468994140625">
        <ele>798.5999755859375</ele>
        <time>2019-10-29T12:09:57.000Z</time>
      </trkpt>
      <trkpt lat="37.407549060881137847900390625" lon="-3.50041511468589305877685546875">
        <ele>798.4000244140625</ele>
        <time>2019-10-29T12:10:00.000Z</time>
      </trkpt>
      <trkpt lat="37.40738335065543651580810546875" lon="-3.50059348158538341522216796875">
        <ele>798.79998779296875</ele>
        <time>2019-10-29T12:10:03.000Z</time>
      </trkpt>
      <trkpt lat="37.4072166346013545989990234375" lon="-3.5007704235613346099853515625">
        <ele>799.20001220703125</ele>
        <time>2019-10-29T12:10:06.000Z</time>
      </trkpt>
      <trkpt lat="37.4070546962320804595947265625" lon="-3.5009464435279369354248046875">
        <ele>798.5999755859375</ele>
        <time>2019-10-29T12:10:09.000Z</time>
      </trkpt>
      <trkpt lat="37.4068940989673137664794921875" lon="-3.50112774409353733062744140625">
        <ele>798.20001220703125</ele>
        <time>2019-10-29T12:10:12.000Z</time>
      </trkpt>
      <trkpt lat="37.40673760883510112762451171875" lon="-3.501310050487518310546875">
        <ele>799.20001220703125</ele>
        <time>2019-10-29T12:10:15.000Z</time>
      </trkpt>
      <trkpt lat="37.40659126080572605133056640625" lon="-3.50150928832590579986572265625">
        <ele>800</ele>
        <time>2019-10-29T12:10:18.000Z</time>
      </trkpt>
      <trkpt lat="37.40645128302276134490966796875" lon="-3.50171975791454315185546875">
        <ele>800.20001220703125</ele>
        <time>2019-10-29T12:10:21.000Z</time>
      </trkpt>
      <trkpt lat="37.40632303990423679351806640625" lon="-3.5019395314157009124755859375">
        <ele>800</ele>
        <time>2019-10-29T12:10:24.000Z</time>
      </trkpt>
      <trkpt lat="37.40620435215532779693603515625" lon="-3.5021685250103473663330078125">
        <ele>799</ele>
        <time>2019-10-29T12:10:27.000Z</time>
      </trkpt>
      <trkpt lat="37.40609857253730297088623046875" lon="-3.50241118110716342926025390625">
        <ele>797</ele>
        <time>2019-10-29T12:10:30.000Z</time>
      </trkpt>
      <trkpt lat="37.4060009233653545379638671875" lon="-3.502665571868419647216796875">
        <ele>794.79998779296875</ele>
        <time>2019-10-29T12:10:33.000Z</time>
      </trkpt>
      <trkpt lat="37.40591752342879772186279296875" lon="-3.5029346309602260589599609375">
        <ele>793</ele>
        <time>2019-10-29T12:10:36.000Z</time>
      </trkpt>
      <trkpt lat="37.405847869813442230224609375" lon="-3.50321081466972827911376953125">
        <ele>793.4000244140625</ele>
        <time>2019-10-29T12:10:39.000Z</time>
      </trkpt>
      <trkpt lat="37.4057905375957489013671875" lon="-3.503493703901767730712890625">
        <ele>794.20001220703125</ele>
        <time>2019-10-29T12:10:42.000Z</time>
      </trkpt>
      <trkpt lat="37.40574686788022518157958984375" lon="-3.5037835501134395599365234375">
        <ele>794.20001220703125</ele>
        <time>2019-10-29T12:10:45.000Z</time>
      </trkpt>
      <trkpt lat="37.405718453228473663330078125" lon="-3.5040794312953948974609375">
        <ele>793.20001220703125</ele>
        <time>2019-10-29T12:10:48.000Z</time>
      </trkpt>
      <trkpt lat="37.40570277906954288482666015625" lon="-3.5043826885521411895751953125">
        <ele>792</ele>
        <time>2019-10-29T12:10:51.000Z</time>
      </trkpt>
      <trkpt lat="37.4057125858962535858154296875" lon="-3.50469055585563182830810546875">
        <ele>790</ele>
        <time>2019-10-29T12:10:54.000Z</time>
      </trkpt>
      <trkpt lat="37.40573429502546787261962890625" lon="-3.50500068627297878265380859375">
        <ele>789.5999755859375</ele>
        <time>2019-10-29T12:10:57.000Z</time>
      </trkpt>
      <trkpt lat="37.405764721333980560302734375" lon="-3.5053100623190402984619140625">
        <ele>790.4000244140625</ele>
        <time>2019-10-29T12:11:00.000Z</time>
      </trkpt>
      <trkpt lat="37.40580319426953792572021484375" lon="-3.50561206229031085968017578125">
        <ele>789.79998779296875</ele>
        <time>2019-10-29T12:11:03.000Z</time>
      </trkpt>
      <trkpt lat="37.4058430083096027374267578125" lon="-3.50590894930064678192138671875">
        <ele>788.79998779296875</ele>
        <time>2019-10-29T12:11:06.000Z</time>
      </trkpt>
      <trkpt lat="37.40588231943547725677490234375" lon="-3.50620063953101634979248046875">
        <ele>788.4000244140625</ele>
        <time>2019-10-29T12:11:09.000Z</time>
      </trkpt>
      <trkpt lat="37.4059246480464935302734375" lon="-3.5064805112779140472412109375">
        <ele>787.5999755859375</ele>
        <time>2019-10-29T12:11:12.000Z</time>
      </trkpt>
      <trkpt lat="37.405961193144321441650390625" lon="-3.50675166584551334381103515625">
        <ele>788.20001220703125</ele>
        <time>2019-10-29T12:11:15.000Z</time>
      </trkpt>
      <trkpt lat="37.40600067190825939178466796875" lon="-3.5070310346782207489013671875">
        <ele>789</ele>
        <time>2019-10-29T12:11:18.000Z</time>
      </trkpt>
      <trkpt lat="37.40603889338672161102294921875" lon="-3.507309146225452423095703125">
        <ele>788.5999755859375</ele>
        <time>2019-10-29T12:11:21.000Z</time>
      </trkpt>
      <trkpt lat="37.40607024170458316802978515625" lon="-3.507579378783702850341796875">
        <ele>788</ele>
        <time>2019-10-29T12:11:24.000Z</time>
      </trkpt>
      <trkpt lat="37.406108044087886810302734375" lon="-3.50783913396298885345458984375">
        <ele>788</ele>
        <time>2019-10-29T12:11:27.000Z</time>
      </trkpt>
      <trkpt lat="37.406142242252826690673828125" lon="-3.508092351257801055908203125">
        <ele>788.4000244140625</ele>
        <time>2019-10-29T12:11:30.000Z</time>
      </trkpt>
      <trkpt lat="37.4061665497720241546630859375" lon="-3.50833215750753879547119140625">
        <ele>789.5999755859375</ele>
        <time>2019-10-29T12:11:33.000Z</time>
      </trkpt>
      <trkpt lat="37.4061806313693523406982421875" lon="-3.50856953300535678863525390625">
        <ele>790.79998779296875</ele>
        <time>2019-10-29T12:11:36.000Z</time>
      </trkpt>
      <trkpt lat="37.4061826430261135101318359375" lon="-3.5088006220757961273193359375">
        <ele>791</ele>
        <time>2019-10-29T12:11:39.000Z</time>
      </trkpt>
      <trkpt lat="37.40617501549422740936279296875" lon="-3.50902886129915714263916015625">
        <ele>791.79998779296875</ele>
        <time>2019-10-29T12:11:42.000Z</time>
      </trkpt>
      <trkpt lat="37.40614282898604869842529296875" lon="-3.50932306610047817230224609375">
        <ele>792</ele>
        <time>2019-10-29T12:11:46.000Z</time>
      </trkpt>
      <trkpt lat="37.40608667023479938507080078125" lon="-3.509605787694454193115234375">
        <ele>793.79998779296875</ele>
        <time>2019-10-29T12:11:50.000Z</time>
      </trkpt>
      <trkpt lat="37.40601106546819210052490234375" lon="-3.50988096557557582855224609375">
        <ele>795</ele>
        <time>2019-10-29T12:11:54.000Z</time>
      </trkpt>
      <trkpt lat="37.405920960009098052978515625" lon="-3.51014482788741588592529296875">
        <ele>795.5999755859375</ele>
        <time>2019-10-29T12:11:58.000Z</time>
      </trkpt>
      <trkpt lat="37.4058101512491703033447265625" lon="-3.5103918425738811492919921875">
        <ele>795.79998779296875</ele>
        <time>2019-10-29T12:12:02.000Z</time>
      </trkpt>
      <trkpt lat="37.4056783877313137054443359375" lon="-3.51062477566301822662353515625">
        <ele>795.79998779296875</ele>
        <time>2019-10-29T12:12:06.000Z</time>
      </trkpt>
      <trkpt lat="37.40553648211061954498291015625" lon="-3.51084723137319087982177734375">
        <ele>796.20001220703125</ele>
        <time>2019-10-29T12:12:10.000Z</time>
      </trkpt>
      <trkpt lat="37.405383177101612091064453125" lon="-3.51107320748269557952880859375">
        <ele>795</ele>
        <time>2019-10-29T12:12:14.000Z</time>
      </trkpt>
      <trkpt lat="37.405258119106292724609375" lon="-3.51124553941190242767333984375">
        <ele>794</ele>
        <time>2019-10-29T12:12:17.000Z</time>
      </trkpt>
      <trkpt lat="37.40513850934803485870361328125" lon="-3.51141904480755329132080078125">
        <ele>793.5999755859375</ele>
        <time>2019-10-29T12:12:20.000Z</time>
      </trkpt>
      <trkpt lat="37.405013032257556915283203125" lon="-3.51159456185996532440185546875">
        <ele>793.79998779296875</ele>
        <time>2019-10-29T12:12:23.000Z</time>
      </trkpt>
      <trkpt lat="37.404890321195125579833984375" lon="-3.51178072392940521240234375">
        <ele>794.20001220703125</ele>
        <time>2019-10-29T12:12:26.000Z</time>
      </trkpt>
      <trkpt lat="37.40476735867559909820556640625" lon="-3.5119770281016826629638671875">
        <ele>794.79998779296875</ele>
        <time>2019-10-29T12:12:29.000Z</time>
      </trkpt>
      <trkpt lat="37.4046504311263561248779296875" lon="-3.5121802054345607757568359375">
        <ele>795.20001220703125</ele>
        <time>2019-10-29T12:12:32.000Z</time>
      </trkpt>
      <trkpt lat="37.404538951814174652099609375" lon="-3.51239352487027645111083984375">
        <ele>795.5999755859375</ele>
        <time>2019-10-29T12:12:35.000Z</time>
      </trkpt>
      <trkpt lat="37.404436357319355010986328125" lon="-3.512617908418178558349609375">
        <ele>795.5999755859375</ele>
        <time>2019-10-29T12:12:38.000Z</time>
      </trkpt>
      <trkpt lat="37.40434625186026096343994140625" lon="-3.51284983567893505096435546875">
        <ele>795.20001220703125</ele>
        <time>2019-10-29T12:12:41.000Z</time>
      </trkpt>
      <trkpt lat="37.40426662378013134002685546875" lon="-3.51309123449027538299560546875">
        <ele>794.79998779296875</ele>
        <time>2019-10-29T12:12:44.000Z</time>
      </trkpt>
      <trkpt lat="37.40419671870768070220947265625" lon="-3.513337410986423492431640625">
        <ele>793.5999755859375</ele>
        <time>2019-10-29T12:12:47.000Z</time>
      </trkpt>
      <trkpt lat="37.40413284860551357269287109375" lon="-3.51358828134834766387939453125">
        <ele>792.79998779296875</ele>
        <time>2019-10-29T12:12:50.000Z</time>
      </trkpt>
      <trkpt lat="37.4040908552706241607666015625" lon="-3.513845689594745635986328125">
        <ele>793.4000244140625</ele>
        <time>2019-10-29T12:12:53.000Z</time>
      </trkpt>
      <trkpt lat="37.40405439399182796478271484375" lon="-3.51409815251827239990234375">
        <ele>792.5999755859375</ele>
        <time>2019-10-29T12:12:56.000Z</time>
      </trkpt>
      <trkpt lat="37.404027990996837615966796875" lon="-3.5143521241843700408935546875">
        <ele>791.79998779296875</ele>
        <time>2019-10-29T12:12:59.000Z</time>
      </trkpt>
      <trkpt lat="37.4040033482015132904052734375" lon="-3.51460416801273822784423828125">
        <ele>793.4000244140625</ele>
        <time>2019-10-29T12:13:02.000Z</time>
      </trkpt>
      <trkpt lat="37.4039718322455883026123046875" lon="-3.51485797204077243804931640625">
        <ele>794.5999755859375</ele>
        <time>2019-10-29T12:13:05.000Z</time>
      </trkpt>
      <trkpt lat="37.40394651889801025390625" lon="-3.51511378772556781768798828125">
        <ele>796.20001220703125</ele>
        <time>2019-10-29T12:13:08.000Z</time>
      </trkpt>
      <trkpt lat="37.40392112173140048980712890625" lon="-3.5153693519532680511474609375">
        <ele>796.5999755859375</ele>
        <time>2019-10-29T12:13:11.000Z</time>
      </trkpt>
      <trkpt lat="37.403894551098346710205078125" lon="-3.5156238265335559844970703125">
        <ele>795.5999755859375</ele>
        <time>2019-10-29T12:13:14.000Z</time>
      </trkpt>
      <trkpt lat="37.40386630408465862274169921875" lon="-3.515880815684795379638671875">
        <ele>794.5999755859375</ele>
        <time>2019-10-29T12:13:17.000Z</time>
      </trkpt>
      <trkpt lat="37.40383897908031940460205078125" lon="-3.5161347873508930206298828125">
        <ele>795.4000244140625</ele>
        <time>2019-10-29T12:13:20.000Z</time>
      </trkpt>
      <trkpt lat="37.4038132466375827789306640625" lon="-3.51639068685472011566162109375">
        <ele>795.4000244140625</ele>
        <time>2019-10-29T12:13:23.000Z</time>
      </trkpt>
      <trkpt lat="37.403793297708034515380859375" lon="-3.516642563045024871826171875">
        <ele>795.4000244140625</ele>
        <time>2019-10-29T12:13:26.000Z</time>
      </trkpt>
      <trkpt lat="37.4037693254649639129638671875" lon="-3.516892008483409881591796875">
        <ele>794.20001220703125</ele>
        <time>2019-10-29T12:13:29.000Z</time>
      </trkpt>
      <trkpt lat="37.4037414975464344024658203125" lon="-3.517143465578556060791015625">
        <ele>792</ele>
        <time>2019-10-29T12:13:32.000Z</time>
      </trkpt>
      <trkpt lat="37.4037136696279048919677734375" lon="-3.51739835925400257110595703125">
        <ele>791.79998779296875</ele>
        <time>2019-10-29T12:13:35.000Z</time>
      </trkpt>
      <trkpt lat="37.40368491970002651214599609375" lon="-3.51765383966267108917236328125">
        <ele>792.5999755859375</ele>
        <time>2019-10-29T12:13:38.000Z</time>
      </trkpt>
      <trkpt lat="37.4036593548953533172607421875" lon="-3.5179124213755130767822265625">
        <ele>792.79998779296875</ele>
        <time>2019-10-29T12:13:41.000Z</time>
      </trkpt>
      <trkpt lat="37.40362909622490406036376953125" lon="-3.518168069422245025634765625">
        <ele>792.20001220703125</ele>
        <time>2019-10-29T12:13:44.000Z</time>
      </trkpt>
      <trkpt lat="37.40359439514577388763427734375" lon="-3.5184163413941860198974609375">
        <ele>791.5999755859375</ele>
        <time>2019-10-29T12:13:47.000Z</time>
      </trkpt>
      <trkpt lat="37.40355365909636020660400390625" lon="-3.5186594165861606597900390625">
        <ele>791.5999755859375</ele>
        <time>2019-10-29T12:13:50.000Z</time>
      </trkpt>
      <trkpt lat="37.40350730717182159423828125" lon="-3.5188954509794712066650390625">
        <ele>792.79998779296875</ele>
        <time>2019-10-29T12:13:53.000Z</time>
      </trkpt>
      <trkpt lat="37.40346263162791728973388671875" lon="-3.51912201382219791412353515625">
        <ele>792.4000244140625</ele>
        <time>2019-10-29T12:13:56.000Z</time>
      </trkpt>
      <trkpt lat="37.40339624695479869842529296875" lon="-3.5193909890949726104736328125">
        <ele>791.20001220703125</ele>
        <time>2019-10-29T12:14:00.000Z</time>
      </trkpt>
      <trkpt lat="37.40332768298685550689697265625" lon="-3.5196201503276824951171875">
        <ele>790.79998779296875</ele>
        <time>2019-10-29T12:14:04.000Z</time>
      </trkpt>
      <trkpt lat="37.40326465107500553131103515625" lon="-3.5197795741260051727294921875">
        <ele>790.79998779296875</ele>
        <time>2019-10-29T12:14:07.000Z</time>
      </trkpt>
      <trkpt lat="37.4031512439250946044921875" lon="-3.5199733637273311614990234375">
        <ele>790.20001220703125</ele>
        <time>2019-10-29T12:14:11.000Z</time>
      </trkpt>
      <trkpt lat="37.40306113846600055694580078125" lon="-3.52017796598374843597412109375">
        <ele>790</ele>
        <time>2019-10-29T12:14:15.000Z</time>
      </trkpt>
      <trkpt lat="37.4029639922082424163818359375" lon="-3.52042774669826030731201171875">
        <ele>791</ele>
        <time>2019-10-29T12:14:20.000Z</time>
      </trkpt>
      <trkpt lat="37.4029096774756908416748046875" lon="-3.52051089517772197723388671875">
        <ele>791.5999755859375</ele>
        <time>2019-10-29T12:14:22.000Z</time>
      </trkpt>
      <trkpt lat="37.40273508243262767791748046875" lon="-3.520499579608440399169921875">
        <ele>790.5999755859375</ele>
        <time>2019-10-29T12:14:26.000Z</time>
      </trkpt>
      <trkpt lat="37.40264497697353363037109375" lon="-3.52042271755635738372802734375">
        <ele>789.4000244140625</ele>
        <time>2019-10-29T12:14:28.000Z</time>
      </trkpt>
      <trkpt lat="37.4025931768119335174560546875" lon="-3.52038634009659290313720703125">
        <ele>788</ele>
        <time>2019-10-29T12:14:29.000Z</time>
      </trkpt>
      <trkpt lat="37.4023993872106075286865234375" lon="-3.52038483135402202606201171875">
        <ele>783.79998779296875</ele>
        <time>2019-10-29T12:14:32.000Z</time>
      </trkpt>
      <trkpt lat="37.4022138118743896484375" lon="-3.5205785371363162994384765625">
        <ele>782.5999755859375</ele>
        <time>2019-10-29T12:14:35.000Z</time>
      </trkpt>
      <trkpt lat="37.40207576192915439605712890625" lon="-3.52086913771927356719970703125">
        <ele>784.4000244140625</ele>
        <time>2019-10-29T12:14:38.000Z</time>
      </trkpt>
      <trkpt lat="37.402039133012294769287109375" lon="-3.5209721513092517852783203125">
        <ele>784.79998779296875</ele>
        <time>2019-10-29T12:14:39.000Z</time>
      </trkpt>
      <trkpt lat="37.40195321850478649139404296875" lon="-3.52128253318369388580322265625">
        <ele>785.20001220703125</ele>
        <time>2019-10-29T12:14:42.000Z</time>
      </trkpt>
      <trkpt lat="37.40189856849610805511474609375" lon="-3.521569110453128814697265625">
        <ele>785.79998779296875</ele>
        <time>2019-10-29T12:14:45.000Z</time>
      </trkpt>
      <trkpt lat="37.40184877999126911163330078125" lon="-3.52182048372924327850341796875">
        <ele>785.5999755859375</ele>
        <time>2019-10-29T12:14:48.000Z</time>
      </trkpt>
      <trkpt lat="37.4018022604286670684814453125" lon="-3.52204008959233760833740234375">
        <ele>785.4000244140625</ele>
        <time>2019-10-29T12:14:51.000Z</time>
      </trkpt>
      <trkpt lat="37.40174015052616596221923828125" lon="-3.52228886447846889495849609375">
        <ele>785.5999755859375</ele>
        <time>2019-10-29T12:14:55.000Z</time>
      </trkpt>
      <trkpt lat="37.401682399213314056396484375" lon="-3.5225223004817962646484375">
        <ele>786</ele>
        <time>2019-10-29T12:14:59.000Z</time>
      </trkpt>
      <trkpt lat="37.40160319022834300994873046875" lon="-3.52274836041033267974853515625">
        <ele>787.79998779296875</ele>
        <time>2019-10-29T12:15:03.000Z</time>
      </trkpt>
      <trkpt lat="37.40152909420430660247802734375" lon="-3.52296796627342700958251953125">
        <ele>789</ele>
        <time>2019-10-29T12:15:07.000Z</time>
      </trkpt>
      <trkpt lat="37.40142683498561382293701171875" lon="-3.523185141384601593017578125">
        <ele>789</ele>
        <time>2019-10-29T12:15:11.000Z</time>
      </trkpt>
      <trkpt lat="37.40132055245339870452880859375" lon="-3.52341271005570888519287109375">
        <ele>788.5999755859375</ele>
        <time>2019-10-29T12:15:15.000Z</time>
      </trkpt>
      <trkpt lat="37.40121611393988132476806640625" lon="-3.5236443020403385162353515625">
        <ele>788</ele>
        <time>2019-10-29T12:15:19.000Z</time>
      </trkpt>
      <trkpt lat="37.4011119268834590911865234375" lon="-3.523877821862697601318359375">
        <ele>787.5999755859375</ele>
        <time>2019-10-29T12:15:23.000Z</time>
      </trkpt>
      <trkpt lat="37.40100287832319736480712890625" lon="-3.5240982659161090850830078125">
        <ele>787.79998779296875</ele>
        <time>2019-10-29T12:15:27.000Z</time>
      </trkpt>
      <trkpt lat="37.400886453688144683837890625" lon="-3.52431342937052249908447265625">
        <ele>787</ele>
        <time>2019-10-29T12:15:31.000Z</time>
      </trkpt>
      <trkpt lat="37.4007578752934932708740234375" lon="-3.52451526559889316558837890625">
        <ele>786.5999755859375</ele>
        <time>2019-10-29T12:15:35.000Z</time>
      </trkpt>
      <trkpt lat="37.40061949007213115692138671875" lon="-3.5247061215341091156005859375">
        <ele>788.20001220703125</ele>
        <time>2019-10-29T12:15:39.000Z</time>
      </trkpt>
      <trkpt lat="37.40047917701303958892822265625" lon="-3.524884991347789764404296875">
        <ele>789</ele>
        <time>2019-10-29T12:15:43.000Z</time>
      </trkpt>
      <trkpt lat="37.40032629109919071197509765625" lon="-3.525074087083339691162109375">
        <ele>788.4000244140625</ele>
        <time>2019-10-29T12:15:48.000Z</time>
      </trkpt>
      <trkpt lat="37.400254793465137481689453125" lon="-3.52515145204961299896240234375">
        <ele>787.20001220703125</ele>
        <time>2019-10-29T12:15:51.000Z</time>
      </trkpt>
      <trkpt lat="37.40007902495563030242919921875" lon="-3.52508439682424068450927734375">
        <ele>782.79998779296875</ele>
        <time>2019-10-29T12:15:57.000Z</time>
      </trkpt>
      <trkpt lat="37.40005538798868656158447265625" lon="-3.52501365356147289276123046875">
        <ele>781.5999755859375</ele>
        <time>2019-10-29T12:15:59.000Z</time>
      </trkpt>
      <trkpt lat="37.40002437494695186614990234375" lon="-3.52494978345930576324462890625">
        <ele>780</ele>
        <time>2019-10-29T12:16:01.000Z</time>
      </trkpt>
      <trkpt lat="37.39997810684144496917724609375" lon="-3.524895049631595611572265625">
        <ele>779.20001220703125</ele>
        <time>2019-10-29T12:16:05.000Z</time>
      </trkpt>
      <trkpt lat="37.3999790288507938385009765625" lon="-3.52489613927900791168212890625">
        <ele>779.20001220703125</ele>
        <time>2019-10-29T12:16:08.000Z</time>
      </trkpt>
      <trkpt lat="37.39993368275463581085205078125" lon="-3.52485003881156444549560546875">
        <ele>778.4000244140625</ele>
        <time>2019-10-29T12:18:05.000Z</time>
      </trkpt>
      <trkpt lat="37.3997461795806884765625" lon="-3.52474023588001728057861328125">
        <ele>777.20001220703125</ele>
        <time>2019-10-29T12:18:12.000Z</time>
      </trkpt>
      <trkpt lat="37.399545349180698394775390625" lon="-3.5246883518993854522705078125">
        <ele>775.79998779296875</ele>
        <time>2019-10-29T12:18:17.000Z</time>
      </trkpt>
      <trkpt lat="37.399334125220775604248046875" lon="-3.52467200718820095062255859375">
        <ele>775</ele>
        <time>2019-10-29T12:18:22.000Z</time>
      </trkpt>
      <trkpt lat="37.399117536842823028564453125" lon="-3.52467410266399383544921875">
        <ele>774.79998779296875</ele>
        <time>2019-10-29T12:18:27.000Z</time>
      </trkpt>
      <trkpt lat="37.39890790544450283050537109375" lon="-3.52467938326299190521240234375">
        <ele>774.79998779296875</ele>
        <time>2019-10-29T12:18:32.000Z</time>
      </trkpt>
      <trkpt lat="37.39869114942848682403564453125" lon="-3.5246816463768482208251953125">
        <ele>775.4000244140625</ele>
        <time>2019-10-29T12:18:37.000Z</time>
      </trkpt>
      <trkpt lat="37.39847439341247081756591796875" lon="-3.52468977682292461395263671875">
        <ele>777.5999755859375</ele>
        <time>2019-10-29T12:18:42.000Z</time>
      </trkpt>
      <trkpt lat="37.39826551638543605804443359375" lon="-3.52474761195480823516845703125">
        <ele>780.79998779296875</ele>
        <time>2019-10-29T12:18:47.000Z</time>
      </trkpt>
      <trkpt lat="37.39813040010631084442138671875" lon="-3.5248613543808460235595703125">
        <ele>783.5999755859375</ele>
        <time>2019-10-29T12:18:51.000Z</time>
      </trkpt>
      <trkpt lat="37.3979948647320270538330078125" lon="-3.5250524617731571197509765625">
        <ele>785.79998779296875</ele>
        <time>2019-10-29T12:18:57.000Z</time>
      </trkpt>
      <trkpt lat="37.39787408150732517242431640625" lon="-3.52522722445428371429443359375">
        <ele>784.79998779296875</ele>
        <time>2019-10-29T12:19:03.000Z</time>
      </trkpt>
      <trkpt lat="37.39772371016442775726318359375" lon="-3.52535597048699855804443359375">
        <ele>784.20001220703125</ele>
        <time>2019-10-29T12:19:09.000Z</time>
      </trkpt>
      <trkpt lat="37.39752422086894512176513671875" lon="-3.5254199244081974029541015625">
        <ele>784</ele>
        <time>2019-10-29T12:19:16.000Z</time>
      </trkpt>
      <trkpt lat="37.39732037298381328582763671875" lon="-3.52541279979050159454345703125">
        <ele>785.20001220703125</ele>
        <time>2019-10-29T12:19:23.000Z</time>
      </trkpt>
      <trkpt lat="37.3971100710332393646240234375" lon="-3.52540726773440837860107421875">
        <ele>785.5999755859375</ele>
        <time>2019-10-29T12:19:30.000Z</time>
      </trkpt>
      <trkpt lat="37.3969055525958538055419921875" lon="-3.52540710009634494781494140625">
        <ele>787</ele>
        <time>2019-10-29T12:19:37.000Z</time>
      </trkpt>
      <trkpt lat="37.39669625647366046905517578125" lon="-3.52540902793407440185546875">
        <ele>789.20001220703125</ele>
        <time>2019-10-29T12:19:44.000Z</time>
      </trkpt>
      <trkpt lat="37.39651420153677463531494140625" lon="-3.52538262493908405303955078125">
        <ele>790.5999755859375</ele>
        <time>2019-10-29T12:19:50.000Z</time>
      </trkpt>
      <trkpt lat="37.396336756646633148193359375" lon="-3.52533484809100627899169921875">
        <ele>791.79998779296875</ele>
        <time>2019-10-29T12:19:56.000Z</time>
      </trkpt>
      <trkpt lat="37.39613383077085018157958984375" lon="-3.52532411925494670867919921875">
        <ele>792.5999755859375</ele>
        <time>2019-10-29T12:20:03.000Z</time>
      </trkpt>
      <trkpt lat="37.39596535451710224151611328125" lon="-3.52540123276412487030029296875">
        <ele>792</ele>
        <time>2019-10-29T12:20:09.000Z</time>
      </trkpt>
      <trkpt lat="37.39578656852245330810546875" lon="-3.525522015988826751708984375">
        <ele>790.4000244140625</ele>
        <time>2019-10-29T12:20:16.000Z</time>
      </trkpt>
      <trkpt lat="37.39560275338590145111083984375" lon="-3.525610864162445068359375">
        <ele>792.79998779296875</ele>
        <time>2019-10-29T12:20:23.000Z</time>
      </trkpt>
      <trkpt lat="37.39541097544133663177490234375" lon="-3.52566174231469631195068359375">
        <ele>796.5999755859375</ele>
        <time>2019-10-29T12:20:30.000Z</time>
      </trkpt>
      <trkpt lat="37.3952140845358371734619140625" lon="-3.5257210023701190948486328125">
        <ele>801.5999755859375</ele>
        <time>2019-10-29T12:20:37.000Z</time>
      </trkpt>
      <trkpt lat="37.3950229771435260772705078125" lon="-3.5258026421070098876953125">
        <ele>803.20001220703125</ele>
        <time>2019-10-29T12:20:44.000Z</time>
      </trkpt>
      <trkpt lat="37.39486346952617168426513671875" lon="-3.5259139537811279296875">
        <ele>802</ele>
        <time>2019-10-29T12:20:50.000Z</time>
      </trkpt>
      <trkpt lat="37.3946910537779331207275390625" lon="-3.52606692351400852203369140625">
        <ele>799.5999755859375</ele>
        <time>2019-10-29T12:20:57.000Z</time>
      </trkpt>
      <trkpt lat="37.3945401795208454132080078125" lon="-3.52620656602084636688232421875">
        <ele>800.5999755859375</ele>
        <time>2019-10-29T12:21:03.000Z</time>
      </trkpt>
      <trkpt lat="37.39439944736659526824951171875" lon="-3.526348136365413665771484375">
        <ele>802.20001220703125</ele>
        <time>2019-10-29T12:21:09.000Z</time>
      </trkpt>
      <trkpt lat="37.39422828890383243560791015625" lon="-3.52650026790797710418701171875">
        <ele>804.79998779296875</ele>
        <time>2019-10-29T12:21:16.000Z</time>
      </trkpt>
      <trkpt lat="37.39407397806644439697265625" lon="-3.52663622237741947174072265625">
        <ele>806.5999755859375</ele>
        <time>2019-10-29T12:21:23.000Z</time>
      </trkpt>
      <trkpt lat="37.39391178824007511138916015625" lon="-3.52677620016038417816162109375">
        <ele>808</ele>
        <time>2019-10-29T12:21:30.000Z</time>
      </trkpt>
      <trkpt lat="37.39373878575861454010009765625" lon="-3.52690896950662136077880859375">
        <ele>810</ele>
        <time>2019-10-29T12:21:38.000Z</time>
      </trkpt>
      <trkpt lat="37.3935816250741481781005859375" lon="-3.527022041380405426025390625">
        <ele>811.79998779296875</ele>
        <time>2019-10-29T12:21:46.000Z</time>
      </trkpt>
      <trkpt lat="37.39343561232089996337890625" lon="-3.5271630249917507171630859375">
        <ele>812.4000244140625</ele>
        <time>2019-10-29T12:21:55.000Z</time>
      </trkpt>
      <trkpt lat="37.39338590763509273529052734375" lon="-3.52721926756203174591064453125">
        <ele>812.4000244140625</ele>
        <time>2019-10-29T12:21:59.000Z</time>
      </trkpt>
      <trkpt lat="37.3933435790240764617919921875" lon="-3.527301661670207977294921875">
        <ele>812.20001220703125</ele>
        <time>2019-10-29T12:22:05.000Z</time>
      </trkpt>
      <trkpt lat="37.3931734263896942138671875" lon="-3.52742143906652927398681640625">
        <ele>814.5999755859375</ele>
        <time>2019-10-29T12:22:15.000Z</time>
      </trkpt>
      <trkpt lat="37.39298223517835140228271484375" lon="-3.52744122035801410675048828125">
        <ele>817.79998779296875</ele>
        <time>2019-10-29T12:22:23.000Z</time>
      </trkpt>
      <trkpt lat="37.39296027459204196929931640625" lon="-3.52746401913464069366455078125">
        <ele>817.79998779296875</ele>
        <time>2019-10-29T12:22:25.000Z</time>
      </trkpt>
      <trkpt lat="37.39292138256132602691650390625" lon="-3.52752202190458774566650390625">
        <ele>817.20001220703125</ele>
        <time>2019-10-29T12:22:32.000Z</time>
      </trkpt>
      <trkpt lat="37.392790205776691436767578125" lon="-3.52748095057904720306396484375">
        <ele>818.20001220703125</ele>
        <time>2019-10-29T12:22:52.000Z</time>
      </trkpt>
      <trkpt lat="37.39279129542410373687744140625" lon="-3.5274817049503326416015625">
        <ele>818.20001220703125</ele>
        <time>2019-10-29T12:22:53.000Z</time>
      </trkpt>
      <trkpt lat="37.3927246592938899993896484375" lon="-3.527435772120952606201171875">
        <ele>818.20001220703125</ele>
        <time>2019-10-29T12:23:01.000Z</time>
      </trkpt>
      <trkpt lat="37.39260287024080753326416015625" lon="-3.52740735746920108795166015625">
        <ele>818.4000244140625</ele>
        <time>2019-10-29T12:23:21.000Z</time>
      </trkpt>
      <trkpt lat="37.39258811809122562408447265625" lon="-3.52750123478472232818603515625">
        <ele>818</ele>
        <time>2019-10-29T12:23:26.000Z</time>
      </trkpt>
      <trkpt lat="37.39260412752628326416015625" lon="-3.52760902605950832366943359375">
        <ele>817.20001220703125</ele>
        <time>2019-10-29T12:23:30.000Z</time>
      </trkpt>
      <trkpt lat="37.39262499846518039703369140625" lon="-3.52761941961944103240966796875">
        <ele>817.20001220703125</ele>
        <time>2019-10-29T12:23:34.000Z</time>
      </trkpt>
      <trkpt lat="37.3926599510014057159423828125" lon="-3.5276686213910579681396484375">
        <ele>816.5999755859375</ele>
        <time>2019-10-29T12:25:00.000Z</time>
      </trkpt>
      <trkpt lat="37.39261896349489688873291015625" lon="-3.5277648456394672393798828125">
        <ele>815.5999755859375</ele>
        <time>2019-10-29T12:25:04.000Z</time>
      </trkpt>
      <trkpt lat="37.39255341701209545135498046875" lon="-3.52801345288753509521484375">
        <ele>814</ele>
        <time>2019-10-29T12:25:11.000Z</time>
      </trkpt>
      <trkpt lat="37.3925338871777057647705078125" lon="-3.52816994301974773406982421875">
        <ele>813</ele>
        <time>2019-10-29T12:25:14.000Z</time>
      </trkpt>
      <trkpt lat="37.39250429905951023101806640625" lon="-3.5284058935940265655517578125">
        <ele>811.5999755859375</ele>
        <time>2019-10-29T12:25:18.000Z</time>
      </trkpt>
      <trkpt lat="37.392509244382381439208984375" lon="-3.52852717973291873931884765625">
        <ele>811</ele>
        <time>2019-10-29T12:25:20.000Z</time>
      </trkpt>
      <trkpt lat="37.39251117222011089324951171875" lon="-3.528761453926563262939453125">
        <ele>810.20001220703125</ele>
        <time>2019-10-29T12:25:26.000Z</time>
      </trkpt>
      <trkpt lat="37.3925164528191089630126953125" lon="-3.52877662517130374908447265625">
        <ele>810.20001220703125</ele>
        <time>2019-10-29T12:25:27.000Z</time>
      </trkpt>
      <trkpt lat="37.39257772453129291534423828125" lon="-3.52886237204074859619140625">
        <ele>808.5999755859375</ele>
        <time>2019-10-29T12:25:31.000Z</time>
      </trkpt>
      <trkpt lat="37.3926810733973979949951171875" lon="-3.52905859239399433135986328125">
        <ele>806.20001220703125</ele>
        <time>2019-10-29T12:25:36.000Z</time>
      </trkpt>
      <trkpt lat="37.3928346298635005950927734375" lon="-3.52922254242002964019775390625">
        <ele>802</ele>
        <time>2019-10-29T12:25:41.000Z</time>
      </trkpt>
      <trkpt lat="37.393027245998382568359375" lon="-3.52931021712720394134521484375">
        <ele>796.4000244140625</ele>
        <time>2019-10-29T12:25:47.000Z</time>
      </trkpt>
      <trkpt lat="37.39321240223944187164306640625" lon="-3.52942186407744884490966796875">
        <ele>792</ele>
        <time>2019-10-29T12:25:52.000Z</time>
      </trkpt>
      <trkpt lat="37.3934094607830047607421875" lon="-3.5295354388654232025146484375">
        <ele>787.5999755859375</ele>
        <time>2019-10-29T12:25:59.000Z</time>
      </trkpt>
      <trkpt lat="37.39358958788216114044189453125" lon="-3.5296048410236835479736328125">
        <ele>782.5999755859375</ele>
        <time>2019-10-29T12:26:04.000Z</time>
      </trkpt>
      <trkpt lat="37.39373878575861454010009765625" lon="-3.529761917889118194580078125">
        <ele>781.20001220703125</ele>
        <time>2019-10-29T12:26:12.000Z</time>
      </trkpt>
      <trkpt lat="37.3938857205212116241455078125" lon="-3.52993299253284931182861328125">
        <ele>779</ele>
        <time>2019-10-29T12:26:18.000Z</time>
      </trkpt>
      <trkpt lat="37.39388831891119480133056640625" lon="-3.52993751876056194305419921875">
        <ele>779</ele>
        <time>2019-10-29T12:26:19.000Z</time>
      </trkpt>
      <trkpt lat="37.39381003193557262420654296875" lon="-3.5297708027064800262451171875">
        <ele>779.20001220703125</ele>
        <time>2019-10-29T12:26:27.000Z</time>
      </trkpt>
      <trkpt lat="37.3937931843101978302001953125" lon="-3.52952278219163417816162109375">
        <ele>777.4000244140625</ele>
        <time>2019-10-29T12:26:32.000Z</time>
      </trkpt>
      <trkpt lat="37.3939096927642822265625" lon="-3.529348187148571014404296875">
        <ele>774.20001220703125</ele>
        <time>2019-10-29T12:26:36.000Z</time>
      </trkpt>
      <trkpt lat="37.39407607354223728179931640625" lon="-3.52919236756861209869384765625">
        <ele>772.5999755859375</ele>
        <time>2019-10-29T12:26:40.000Z</time>
      </trkpt>
      <trkpt lat="37.3942682705819606781005859375" lon="-3.529082648456096649169921875">
        <ele>771.4000244140625</ele>
        <time>2019-10-29T12:26:44.000Z</time>
      </trkpt>
      <trkpt lat="37.3944516666233539581298828125" lon="-3.5289979912340641021728515625">
        <ele>770.79998779296875</ele>
        <time>2019-10-29T12:26:48.000Z</time>
      </trkpt>
      <trkpt lat="37.39463866688311100006103515625" lon="-3.52886094711720943450927734375">
        <ele>769.79998779296875</ele>
        <time>2019-10-29T12:26:53.000Z</time>
      </trkpt>
      <trkpt lat="37.39479926414787769317626953125" lon="-3.52872700430452823638916015625">
        <ele>769.4000244140625</ele>
        <time>2019-10-29T12:26:58.000Z</time>
      </trkpt>
      <trkpt lat="37.3949572630226612091064453125" lon="-3.52861233986914157867431640625">
        <ele>769</ele>
        <time>2019-10-29T12:27:03.000Z</time>
      </trkpt>
      <trkpt lat="37.39512481726706027984619140625" lon="-3.52848862297832965850830078125">
        <ele>769.4000244140625</ele>
        <time>2019-10-29T12:27:08.000Z</time>
      </trkpt>
      <trkpt lat="37.39529798738658428192138671875" lon="-3.52836675010621547698974609375">
        <ele>770.20001220703125</ele>
        <time>2019-10-29T12:27:13.000Z</time>
      </trkpt>
      <trkpt lat="37.39547048695385456085205078125" lon="-3.52825057692825794219970703125">
        <ele>771.5999755859375</ele>
        <time>2019-10-29T12:27:18.000Z</time>
      </trkpt>
      <trkpt lat="37.3956435732543468475341796875" lon="-3.52815016172826290130615234375">
        <ele>772</ele>
        <time>2019-10-29T12:27:23.000Z</time>
      </trkpt>
      <trkpt lat="37.3958078585565090179443359375" lon="-3.5280297137796878814697265625">
        <ele>772</ele>
        <time>2019-10-29T12:27:28.000Z</time>
      </trkpt>
      <trkpt lat="37.39597608335316181182861328125" lon="-3.5279033146798610687255859375">
        <ele>771.4000244140625</ele>
        <time>2019-10-29T12:27:33.000Z</time>
      </trkpt>
      <trkpt lat="37.3961453139781951904296875" lon="-3.52778144180774688720703125">
        <ele>771</ele>
        <time>2019-10-29T12:27:38.000Z</time>
      </trkpt>
      <trkpt lat="37.39628621377050876617431640625" lon="-3.5276310704648494720458984375">
        <ele>771</ele>
        <time>2019-10-29T12:27:43.000Z</time>
      </trkpt>
      <trkpt lat="37.39642216823995113372802734375" lon="-3.5274597443640232086181640625">
        <ele>771</ele>
        <time>2019-10-29T12:27:48.000Z</time>
      </trkpt>
      <trkpt lat="37.39659768529236316680908203125" lon="-3.52730727754533290863037109375">
        <ele>771</ele>
        <time>2019-10-29T12:27:53.000Z</time>
      </trkpt>
      <trkpt lat="37.39678510464727878570556640625" lon="-3.52716210298240184783935546875">
        <ele>773</ele>
        <time>2019-10-29T12:27:58.000Z</time>
      </trkpt>
      <trkpt lat="37.3969714343547821044921875" lon="-3.5270195268094539642333984375">
        <ele>775.5999755859375</ele>
        <time>2019-10-29T12:28:03.000Z</time>
      </trkpt>
      <trkpt lat="37.3971533216536045074462890625" lon="-3.52687393315136432647705078125">
        <ele>776</ele>
        <time>2019-10-29T12:28:08.000Z</time>
      </trkpt>
      <trkpt lat="37.397326491773128509521484375" lon="-3.526757843792438507080078125">
        <ele>775</ele>
        <time>2019-10-29T12:28:13.000Z</time>
      </trkpt>
      <trkpt lat="37.39736127667129039764404296875" lon="-3.52674636058509349822998046875">
        <ele>774.79998779296875</ele>
        <time>2019-10-29T12:28:14.000Z</time>
      </trkpt>
      <trkpt lat="37.39753067493438720703125" lon="-3.52685918100178241729736328125">
        <ele>773.5999755859375</ele>
        <time>2019-10-29T12:28:19.000Z</time>
      </trkpt>
      <trkpt lat="37.3975985683500766754150390625" lon="-3.52693260647356510162353515625">
        <ele>773</ele>
        <time>2019-10-29T12:28:21.000Z</time>
      </trkpt>
      <trkpt lat="37.3977695591747760772705078125" lon="-3.5270906053483486175537109375">
        <ele>771.79998779296875</ele>
        <time>2019-10-29T12:28:26.000Z</time>
      </trkpt>
      <trkpt lat="37.3978463374078273773193359375" lon="-3.527117259800434112548828125">
        <ele>771.4000244140625</ele>
        <time>2019-10-29T12:28:28.000Z</time>
      </trkpt>
      <trkpt lat="37.39788548089563846588134765625" lon="-3.5271328501403331756591796875">
        <ele>771.20001220703125</ele>
        <time>2019-10-29T12:28:29.000Z</time>
      </trkpt>
      <trkpt lat="37.398080527782440185546875" lon="-3.5272330977022647857666015625">
        <ele>771.20001220703125</ele>
        <time>2019-10-29T12:28:34.000Z</time>
      </trkpt>
      <trkpt lat="37.39812084473669528961181640625" lon="-3.5272552259266376495361328125">
        <ele>771.5999755859375</ele>
        <time>2019-10-29T12:28:35.000Z</time>
      </trkpt>
      <trkpt lat="37.39826920442283153533935546875" lon="-3.527397550642490386962890625">
        <ele>773</ele>
        <time>2019-10-29T12:28:39.000Z</time>
      </trkpt>
      <trkpt lat="37.39830315113067626953125" lon="-3.52744348347187042236328125">
        <ele>773.5999755859375</ele>
        <time>2019-10-29T12:28:40.000Z</time>
      </trkpt>
      <trkpt lat="37.39833340980112552642822265625" lon="-3.5274912603199481964111328125">
        <ele>774.4000244140625</ele>
        <time>2019-10-29T12:28:41.000Z</time>
      </trkpt>
      <trkpt lat="37.39838152192533016204833984375" lon="-3.52759125642478466033935546875">
        <ele>774.5999755859375</ele>
        <time>2019-10-29T12:28:43.000Z</time>
      </trkpt>
      <trkpt lat="37.3984587192535400390625" lon="-3.527796529233455657958984375">
        <ele>774.20001220703125</ele>
        <time>2019-10-29T12:28:47.000Z</time>
      </trkpt>
      <trkpt lat="37.3985494114458560943603515625" lon="-3.52798386476933956146240234375">
        <ele>773</ele>
        <time>2019-10-29T12:28:51.000Z</time>
      </trkpt>
      <trkpt lat="37.398701794445514678955078125" lon="-3.52813121862709522247314453125">
        <ele>772.79998779296875</ele>
        <time>2019-10-29T12:28:56.000Z</time>
      </trkpt>
      <trkpt lat="37.398733310401439666748046875" lon="-3.52814898826181888580322265625">
        <ele>773</ele>
        <time>2019-10-29T12:28:57.000Z</time>
      </trkpt>
      <trkpt lat="37.3989121802151203155517578125" lon="-3.52820397354662418365478515625">
        <ele>773.20001220703125</ele>
        <time>2019-10-29T12:29:02.000Z</time>
      </trkpt>
      <trkpt lat="37.398945204913616180419921875" lon="-3.52822124026715755462646484375">
        <ele>773.20001220703125</ele>
        <time>2019-10-29T12:29:03.000Z</time>
      </trkpt>
      <trkpt lat="37.3990260064601898193359375" lon="-3.5282922349870204925537109375">
        <ele>773.4000244140625</ele>
        <time>2019-10-29T12:29:06.000Z</time>
      </trkpt>
      <trkpt lat="37.39904603920876979827880859375" lon="-3.5283180512487888336181640625">
        <ele>773.4000244140625</ele>
        <time>2019-10-29T12:29:08.000Z</time>
      </trkpt>
      <trkpt lat="37.39903547801077365875244140625" lon="-3.52853774093091487884521484375">
        <ele>773</ele>
        <time>2019-10-29T12:29:16.000Z</time>
      </trkpt>
      <trkpt lat="37.39897839725017547607421875" lon="-3.528764136135578155517578125">
        <ele>773</ele>
        <time>2019-10-29T12:29:23.000Z</time>
      </trkpt>
      <trkpt lat="37.39897881634533405303955078125" lon="-3.52899740450084209442138671875">
        <ele>773.79998779296875</ele>
        <time>2019-10-29T12:29:33.000Z</time>
      </trkpt>
      <trkpt lat="37.398974709212779998779296875" lon="-3.52906127460300922393798828125">
        <ele>774.20001220703125</ele>
        <time>2019-10-29T12:29:37.000Z</time>
      </trkpt>
      <trkpt lat="37.398988790810108184814453125" lon="-3.529096059501171112060546875">
        <ele>774.20001220703125</ele>
        <time>2019-10-29T12:29:40.000Z</time>
      </trkpt>
      <trkpt lat="37.3989938199520111083984375" lon="-3.5290942154824733734130859375">
        <ele>774.20001220703125</ele>
        <time>2019-10-29T12:29:43.000Z</time>
      </trkpt>
      <trkpt lat="37.39918283186852931976318359375" lon="-3.52927249856293201446533203125">
        <ele>775.20001220703125</ele>
        <time>2019-10-29T13:29:10.000Z</time>
      </trkpt>
      <trkpt lat="37.3992097377777099609375" lon="-3.5291904397308826446533203125">
        <ele>774.4000244140625</ele>
        <time>2019-10-29T13:29:14.000Z</time>
      </trkpt>
      <trkpt lat="37.39898719824850559234619140625" lon="-3.52892397902905941009521484375">
        <ele>773.20001220703125</ele>
        <time>2019-10-29T13:29:15.000Z</time>
      </trkpt>
      <trkpt lat="37.39896406419575214385986328125" lon="-3.5290757752954959869384765625">
        <ele>774.20001220703125</ele>
        <time>2019-10-29T13:29:28.000Z</time>
      </trkpt>
      <trkpt lat="37.398855686187744140625" lon="-3.5290937125682830810546875">
        <ele>774.4000244140625</ele>
        <time>2019-10-29T13:29:40.000Z</time>
      </trkpt>
      <trkpt lat="37.3988038860261440277099609375" lon="-3.52917308919131755828857421875">
        <ele>775.5999755859375</ele>
        <time>2019-10-29T13:29:46.000Z</time>
      </trkpt>
      <trkpt lat="37.39872517995536327362060546875" lon="-3.52918784134089946746826171875">
        <ele>776.79998779296875</ele>
        <time>2019-10-29T13:29:52.000Z</time>
      </trkpt>
      <trkpt lat="37.39855184219777584075927734375" lon="-3.52911843918263912200927734375">
        <ele>777.79998779296875</ele>
        <time>2019-10-29T13:30:03.000Z</time>
      </trkpt>
      <trkpt lat="37.39839174784719944000244140625" lon="-3.529003523290157318115234375">
        <ele>778.5999755859375</ele>
        <time>2019-10-29T13:30:14.000Z</time>
      </trkpt>
      <trkpt lat="37.398225367069244384765625" lon="-3.5288779623806476593017578125">
        <ele>778.4000244140625</ele>
        <time>2019-10-29T13:30:24.000Z</time>
      </trkpt>
      <trkpt lat="37.3980461619794368743896484375" lon="-3.52880143560469150543212890625">
        <ele>778.20001220703125</ele>
        <time>2019-10-29T13:30:35.000Z</time>
      </trkpt>
      <trkpt lat="37.3978523723781108856201171875" lon="-3.52882624603807926177978515625">
        <ele>779.4000244140625</ele>
        <time>2019-10-29T13:30:46.000Z</time>
      </trkpt>
      <trkpt lat="37.39783669821918010711669921875" lon="-3.5288313589990139007568359375">
        <ele>779.5999755859375</ele>
        <time>2019-10-29T13:30:47.000Z</time>
      </trkpt>
      <trkpt lat="37.39779998548328876495361328125" lon="-3.528846614062786102294921875">
        <ele>780</ele>
        <time>2019-10-29T13:30:49.000Z</time>
      </trkpt>
      <trkpt lat="37.3977836407721042633056640625" lon="-3.52877209894359111785888671875">
        <ele>778</ele>
        <time>2019-10-29T13:30:54.000Z</time>
      </trkpt>
      <trkpt lat="37.3979811184108257293701171875" lon="-3.528726585209369659423828125">
        <ele>777.20001220703125</ele>
        <time>2019-10-29T13:31:01.000Z</time>
      </trkpt>
      <trkpt lat="37.3982007242739200592041015625" lon="-3.528786264359951019287109375">
        <ele>777.5999755859375</ele>
        <time>2019-10-29T13:31:06.000Z</time>
      </trkpt>
      <trkpt lat="37.39837699569761753082275390625" lon="-3.5288979113101959228515625">
        <ele>777.20001220703125</ele>
        <time>2019-10-29T13:31:10.000Z</time>
      </trkpt>
      <trkpt lat="37.39857464097440242767333984375" lon="-3.52903210557997226715087890625">
        <ele>776.5999755859375</ele>
        <time>2019-10-29T13:31:14.000Z</time>
      </trkpt>
      <trkpt lat="37.39875636063516139984130859375" lon="-3.5290472768247127532958984375">
        <ele>775.20001220703125</ele>
        <time>2019-10-29T13:31:17.000Z</time>
      </trkpt>
      <trkpt lat="37.39892852492630481719970703125" lon="-3.52885725907981395721435546875">
        <ele>773</ele>
        <time>2019-10-29T13:31:21.000Z</time>
      </trkpt>
      <trkpt lat="37.3989631421864032745361328125" lon="-3.52879473008215427398681640625">
        <ele>773</ele>
        <time>2019-10-29T13:31:22.000Z</time>
      </trkpt>
      <trkpt lat="37.39904369227588176727294921875" lon="-3.528583757579326629638671875">
        <ele>772.79998779296875</ele>
        <time>2019-10-29T13:31:26.000Z</time>
      </trkpt>
      <trkpt lat="37.39909934811294078826904296875" lon="-3.528432883322238922119140625">
        <ele>773.5999755859375</ele>
        <time>2019-10-29T13:31:30.000Z</time>
      </trkpt>
      <trkpt lat="37.3990474641323089599609375" lon="-3.52828896604478359222412109375">
        <ele>773.5999755859375</ele>
        <time>2019-10-29T13:31:35.000Z</time>
      </trkpt>
      <trkpt lat="37.39903162233531475067138671875" lon="-3.5282674245536327362060546875">
        <ele>773.4000244140625</ele>
        <time>2019-10-29T13:31:36.000Z</time>
      </trkpt>
      <trkpt lat="37.3990037105977535247802734375" lon="-3.52823683060705661773681640625">
        <ele>773.4000244140625</ele>
        <time>2019-10-29T13:31:38.000Z</time>
      </trkpt>
      <trkpt lat="37.3988176323473453521728515625" lon="-3.52813675068318843841552734375">
        <ele>773.4000244140625</ele>
        <time>2019-10-29T13:31:47.000Z</time>
      </trkpt>
      <trkpt lat="37.39865996874868869781494140625" lon="-3.52802543900907039642333984375">
        <ele>773.20001220703125</ele>
        <time>2019-10-29T13:31:53.000Z</time>
      </trkpt>
      <trkpt lat="37.39853382110595703125" lon="-3.5278303921222686767578125">
        <ele>774.5999755859375</ele>
        <time>2019-10-29T13:31:59.000Z</time>
      </trkpt>
      <trkpt lat="37.39844505675137042999267578125" lon="-3.5276050865650177001953125">
        <ele>775.20001220703125</ele>
        <time>2019-10-29T13:32:04.000Z</time>
      </trkpt>
      <trkpt lat="37.39834698848426342010498046875" lon="-3.52741188369691371917724609375">
        <ele>774.20001220703125</ele>
        <time>2019-10-29T13:32:08.000Z</time>
      </trkpt>
      <trkpt lat="37.3981728963553905487060546875" lon="-3.52727576158940792083740234375">
        <ele>771.79998779296875</ele>
        <time>2019-10-29T13:32:13.000Z</time>
      </trkpt>
      <trkpt lat="37.39797282032668590545654296875" lon="-3.52718322537839412689208984375">
        <ele>771</ele>
        <time>2019-10-29T13:32:19.000Z</time>
      </trkpt>
      <trkpt lat="37.397774755954742431640625" lon="-3.52707174606621265411376953125">
        <ele>771.79998779296875</ele>
        <time>2019-10-29T13:32:25.000Z</time>
      </trkpt>
      <trkpt lat="37.39760854281485080718994140625" lon="-3.52692891843616962432861328125">
        <ele>773</ele>
        <time>2019-10-29T13:32:30.000Z</time>
      </trkpt>
      <trkpt lat="37.39749002270400524139404296875" lon="-3.5267878510057926177978515625">
        <ele>773.79998779296875</ele>
        <time>2019-10-29T13:32:34.000Z</time>
      </trkpt>
      <trkpt lat="37.3973501287400722503662109375" lon="-3.526855073869228363037109375">
        <ele>774.79998779296875</ele>
        <time>2019-10-29T13:32:38.000Z</time>
      </trkpt>
      <trkpt lat="37.39716245792806148529052734375" lon="-3.52699278853833675384521484375">
        <ele>775.79998779296875</ele>
        <time>2019-10-29T13:32:43.000Z</time>
      </trkpt>
      <trkpt lat="37.3969786427915096282958984375" lon="-3.52713393978774547576904296875">
        <ele>774.5999755859375</ele>
        <time>2019-10-29T13:32:48.000Z</time>
      </trkpt>
      <trkpt lat="37.39681511186063289642333984375" lon="-3.527262769639492034912109375">
        <ele>773</ele>
        <time>2019-10-29T13:32:53.000Z</time>
      </trkpt>
      <trkpt lat="37.39665334112942218780517578125" lon="-3.5273913480341434478759765625">
        <ele>771.20001220703125</ele>
        <time>2019-10-29T13:32:58.000Z</time>
      </trkpt>
      <trkpt lat="37.39649458788335323333740234375" lon="-3.527550436556339263916015625">
        <ele>771</ele>
        <time>2019-10-29T13:33:03.000Z</time>
      </trkpt>
      <trkpt lat="37.3963733017444610595703125" lon="-3.52775721810758113861083984375">
        <ele>771</ele>
        <time>2019-10-29T13:33:08.000Z</time>
      </trkpt>
      <trkpt lat="37.3962028138339519500732421875" lon="-3.527925945818424224853515625">
        <ele>771</ele>
        <time>2019-10-29T13:33:13.000Z</time>
      </trkpt>
      <trkpt lat="37.39602503366768360137939453125" lon="-3.52805259637534618377685546875">
        <ele>771.20001220703125</ele>
        <time>2019-10-29T13:33:18.000Z</time>
      </trkpt>
      <trkpt lat="37.39584566093981266021728515625" lon="-3.528178744018077850341796875">
        <ele>771.79998779296875</ele>
        <time>2019-10-29T13:33:23.000Z</time>
      </trkpt>
      <trkpt lat="37.395672239363193511962890625" lon="-3.5282702744007110595703125">
        <ele>772</ele>
        <time>2019-10-29T13:33:28.000Z</time>
      </trkpt>
      <trkpt lat="37.39548406563699245452880859375" lon="-3.52834730409085750579833984375">
        <ele>771.5999755859375</ele>
        <time>2019-10-29T13:33:33.000Z</time>
      </trkpt>
      <trkpt lat="37.39529706537723541259765625" lon="-3.528475128114223480224609375">
        <ele>769.79998779296875</ele>
        <time>2019-10-29T13:33:39.000Z</time>
      </trkpt>
      <trkpt lat="37.39513135515153408050537109375" lon="-3.5285913012921810150146484375">
        <ele>769</ele>
        <time>2019-10-29T13:33:44.000Z</time>
      </trkpt>
      <trkpt lat="37.3949515633285045623779296875" lon="-3.52872381918132305145263671875">
        <ele>769</ele>
        <time>2019-10-29T13:33:49.000Z</time>
      </trkpt>
      <trkpt lat="37.394770346581935882568359375" lon="-3.5288504697382450103759765625">
        <ele>769.79998779296875</ele>
        <time>2019-10-29T13:33:54.000Z</time>
      </trkpt>
      <trkpt lat="37.394586615264415740966796875" lon="-3.52898214943706989288330078125">
        <ele>770.5999755859375</ele>
        <time>2019-10-29T13:34:00.000Z</time>
      </trkpt>
      <trkpt lat="37.39439676515758037567138671875" lon="-3.529098741710186004638671875">
        <ele>771.4000244140625</ele>
        <time>2019-10-29T13:34:07.000Z</time>
      </trkpt>
      <trkpt lat="37.39421672187745571136474609375" lon="-3.52918800897896289825439453125">
        <ele>772</ele>
        <time>2019-10-29T13:34:13.000Z</time>
      </trkpt>
      <trkpt lat="37.39407121203839778900146484375" lon="-3.529323376715183258056640625">
        <ele>773</ele>
        <time>2019-10-29T13:34:22.000Z</time>
      </trkpt>
      <trkpt lat="37.3940560407936573028564453125" lon="-3.5293399728834629058837890625">
        <ele>773.20001220703125</ele>
        <time>2019-10-29T13:34:25.000Z</time>
      </trkpt>
      <trkpt lat="37.39405654370784759521484375" lon="-3.5293471813201904296875">
        <ele>773.20001220703125</ele>
        <time>2019-10-29T13:34:28.000Z</time>
      </trkpt>
      <trkpt lat="37.3926257528364658355712890625" lon="-3.529605679214000701904296875">
        <ele>808.5999755859375</ele>
        <time>2019-10-29T13:38:12.000Z</time>
      </trkpt>
      <trkpt lat="37.39257940091192722320556640625" lon="-3.52957206778228282928466796875">
        <ele>809</ele>
        <time>2019-10-29T13:38:16.000Z</time>
      </trkpt>
      <trkpt lat="37.3925650678575038909912109375" lon="-3.529551364481449127197265625">
        <ele>809.20001220703125</ele>
        <time>2019-10-29T13:38:22.000Z</time>
      </trkpt>
      <trkpt lat="37.39252592436969280242919921875" lon="-3.52960961870849132537841796875">
        <ele>810</ele>
        <time>2019-10-29T13:38:48.000Z</time>
      </trkpt>
      <trkpt lat="37.39242450334131717681884765625" lon="-3.52970098145306110382080078125">
        <ele>811</ele>
        <time>2019-10-29T13:39:01.000Z</time>
      </trkpt>
      <trkpt lat="37.39234202541410923004150390625" lon="-3.52969075553119182586669921875">
        <ele>811</ele>
        <time>2019-10-29T13:39:07.000Z</time>
      </trkpt>
      <trkpt lat="37.3922197334468364715576171875" lon="-3.52968052960932254791259765625">
        <ele>811.20001220703125</ele>
        <time>2019-10-29T13:39:17.000Z</time>
      </trkpt>
      <trkpt lat="37.392187379300594329833984375" lon="-3.5296826250851154327392578125">
        <ele>811.4000244140625</ele>
        <time>2019-10-29T13:39:21.000Z</time>
      </trkpt>
      <trkpt lat="37.3920936696231365203857421875" lon="-3.5296856425702571868896484375">
        <ele>810.5999755859375</ele>
        <time>2019-10-29T13:39:25.000Z</time>
      </trkpt>
      <trkpt lat="37.39189929328858852386474609375" lon="-3.52965404279530048370361328125">
        <ele>809.79998779296875</ele>
        <time>2019-10-29T13:39:31.000Z</time>
      </trkpt>
      <trkpt lat="37.39171908237040042877197265625" lon="-3.52961615659296512603759765625">
        <ele>807.4000244140625</ele>
        <time>2019-10-29T13:39:35.000Z</time>
      </trkpt>
      <trkpt lat="37.3915414698421955108642578125" lon="-3.52957106195390224456787109375">
        <ele>805.5999755859375</ele>
        <time>2019-10-29T13:39:39.000Z</time>
      </trkpt>
      <trkpt lat="37.3913537152111530303955078125" lon="-3.52951892651617527008056640625">
        <ele>802.20001220703125</ele>
        <time>2019-10-29T13:39:44.000Z</time>
      </trkpt>
      <trkpt lat="37.39115648902952671051025390625" lon="-3.5294918529689311981201171875">
        <ele>798</ele>
        <time>2019-10-29T13:39:49.000Z</time>
      </trkpt>
      <trkpt lat="37.390983738005161285400390625" lon="-3.52940007112920284271240234375">
        <ele>797</ele>
        <time>2019-10-29T13:39:53.000Z</time>
      </trkpt>
      <trkpt lat="37.3907941393554210662841796875" lon="-3.52926042862236499786376953125">
        <ele>795.5999755859375</ele>
        <time>2019-10-29T13:39:58.000Z</time>
      </trkpt>
      <trkpt lat="37.39067159593105316162109375" lon="-3.5291746817529201507568359375">
        <ele>793.5999755859375</ele>
        <time>2019-10-29T13:40:01.000Z</time>
      </trkpt>
      <trkpt lat="37.3905379883944988250732421875" lon="-3.52901634760200977325439453125">
        <ele>792.5999755859375</ele>
        <time>2019-10-29T13:40:05.000Z</time>
      </trkpt>
      <trkpt lat="37.39038728177547454833984375" lon="-3.52882473729550838470458984375">
        <ele>792.4000244140625</ele>
        <time>2019-10-29T13:40:09.000Z</time>
      </trkpt>
      <trkpt lat="37.39034445025026798248291015625" lon="-3.52878517471253871917724609375">
        <ele>792.20001220703125</ele>
        <time>2019-10-29T13:40:10.000Z</time>
      </trkpt>
      <trkpt lat="37.3901698552072048187255859375" lon="-3.52871929295361042022705078125">
        <ele>788.5999755859375</ele>
        <time>2019-10-29T13:40:13.000Z</time>
      </trkpt>
      <trkpt lat="37.39006013609468936920166015625" lon="-3.528662882745265960693359375">
        <ele>787.20001220703125</ele>
        <time>2019-10-29T13:40:15.000Z</time>
      </trkpt>
      <trkpt lat="37.389830388128757476806640625" lon="-3.52855601347982883453369140625">
        <ele>785</ele>
        <time>2019-10-29T13:40:19.000Z</time>
      </trkpt>
      <trkpt lat="37.38964489661157131195068359375" lon="-3.52850689552724361419677734375">
        <ele>782.5999755859375</ele>
        <time>2019-10-29T13:40:22.000Z</time>
      </trkpt>
      <trkpt lat="37.38957365043461322784423828125" lon="-3.52850220166146755218505859375">
        <ele>781.4000244140625</ele>
        <time>2019-10-29T13:40:23.000Z</time>
      </trkpt>
      <trkpt lat="37.38933174870908260345458984375" lon="-3.52850538678467273712158203125">
        <ele>777.5999755859375</ele>
        <time>2019-10-29T13:40:26.000Z</time>
      </trkpt>
      <trkpt lat="37.38913544453680515289306640625" lon="-3.52853606455028057098388671875">
        <ele>773.4000244140625</ele>
        <time>2019-10-29T13:40:28.000Z</time>
      </trkpt>
      <trkpt lat="37.38903553225100040435791015625" lon="-3.52854193188250064849853515625">
        <ele>772.5999755859375</ele>
        <time>2019-10-29T13:40:29.000Z</time>
      </trkpt>
      <trkpt lat="37.38878021948039531707763671875" lon="-3.52850320748984813690185546875">
        <ele>771.79998779296875</ele>
        <time>2019-10-29T13:40:32.000Z</time>
      </trkpt>
      <trkpt lat="37.38862968049943447113037109375" lon="-3.52848258800804615020751953125">
        <ele>771.4000244140625</ele>
        <time>2019-10-29T13:40:34.000Z</time>
      </trkpt>
      <trkpt lat="37.38841208629310131072998046875" lon="-3.5284204781055450439453125">
        <ele>769.4000244140625</ele>
        <time>2019-10-29T13:40:37.000Z</time>
      </trkpt>
      <trkpt lat="37.3881843499839305877685546875" lon="-3.528367839753627777099609375">
        <ele>767</ele>
        <time>2019-10-29T13:40:40.000Z</time>
      </trkpt>
      <trkpt lat="37.3880343139171600341796875" lon="-3.5283495672047138214111328125">
        <ele>766</ele>
        <time>2019-10-29T13:40:42.000Z</time>
      </trkpt>
      <trkpt lat="37.38780657760798931121826171875" lon="-3.5283448733389377593994140625">
        <ele>764.4000244140625</ele>
        <time>2019-10-29T13:40:45.000Z</time>
      </trkpt>
      <trkpt lat="37.3875899054110050201416015625" lon="-3.52836088277399539947509765625">
        <ele>763.20001220703125</ele>
        <time>2019-10-29T13:40:48.000Z</time>
      </trkpt>
      <trkpt lat="37.3873800225555896759033203125" lon="-3.52837798185646533966064453125">
        <ele>762.79998779296875</ele>
        <time>2019-10-29T13:40:51.000Z</time>
      </trkpt>
      <trkpt lat="37.3871768452227115631103515625" lon="-3.52840161882340908050537109375">
        <ele>762.5999755859375</ele>
        <time>2019-10-29T13:40:54.000Z</time>
      </trkpt>
      <trkpt lat="37.3869909346103668212890625" lon="-3.52844662964344024658203125">
        <ele>762.20001220703125</ele>
        <time>2019-10-29T13:40:57.000Z</time>
      </trkpt>
      <trkpt lat="37.38680846057832241058349609375" lon="-3.528499267995357513427734375">
        <ele>761.79998779296875</ele>
        <time>2019-10-29T13:41:00.000Z</time>
      </trkpt>
      <trkpt lat="37.38658499903976917266845703125" lon="-3.52857244201004505157470703125">
        <ele>761.5999755859375</ele>
        <time>2019-10-29T13:41:04.000Z</time>
      </trkpt>
      <trkpt lat="37.38636639900505542755126953125" lon="-3.52866254746913909912109375">
        <ele>761.4000244140625</ele>
        <time>2019-10-29T13:41:08.000Z</time>
      </trkpt>
      <trkpt lat="37.38614595495164394378662109375" lon="-3.52875349111855030059814453125">
        <ele>760.20001220703125</ele>
        <time>2019-10-29T13:41:12.000Z</time>
      </trkpt>
      <trkpt lat="37.3860432766377925872802734375" lon="-3.528791964054107666015625">
        <ele>759.79998779296875</ele>
        <time>2019-10-29T13:41:14.000Z</time>
      </trkpt>
      <trkpt lat="37.385906986892223358154296875" lon="-3.52881032042205333709716796875">
        <ele>760.20001220703125</ele>
        <time>2019-10-29T13:41:17.000Z</time>
      </trkpt>
      <trkpt lat="37.38574479706585407257080078125" lon="-3.5287575982511043548583984375">
        <ele>760.79998779296875</ele>
        <time>2019-10-29T13:41:22.000Z</time>
      </trkpt>
      <trkpt lat="37.38564035855233669281005859375" lon="-3.52869263850152492523193359375">
        <ele>762</ele>
        <time>2019-10-29T13:41:26.000Z</time>
      </trkpt>
      <trkpt lat="37.38548881374299526214599609375" lon="-3.52860756218433380126953125">
        <ele>764.4000244140625</ele>
        <time>2019-10-29T13:41:32.000Z</time>
      </trkpt>
      <trkpt lat="37.385355792939662933349609375" lon="-3.528566323220729827880859375">
        <ele>765.79998779296875</ele>
        <time>2019-10-29T13:41:36.000Z</time>
      </trkpt>
      <trkpt lat="37.3852124623954296112060546875" lon="-3.52859674952924251556396484375">
        <ele>766.5999755859375</ele>
        <time>2019-10-29T13:41:40.000Z</time>
      </trkpt>
      <trkpt lat="37.38503719680011272430419921875" lon="-3.52867235429584980010986328125">
        <ele>765.4000244140625</ele>
        <time>2019-10-29T13:41:45.000Z</time>
      </trkpt>
      <trkpt lat="37.38483485765755176544189453125" lon="-3.528760783374309539794921875">
        <ele>764</ele>
        <time>2019-10-29T13:41:50.000Z</time>
      </trkpt>
      <trkpt lat="37.38465397618710994720458984375" lon="-3.52886362932622432708740234375">
        <ele>762.4000244140625</ele>
        <time>2019-10-29T13:41:54.000Z</time>
      </trkpt>
      <trkpt lat="37.384502850472927093505859375" lon="-3.52904652245342731475830078125">
        <ele>761.5999755859375</ele>
        <time>2019-10-29T13:41:57.000Z</time>
      </trkpt>
      <trkpt lat="37.38432054407894611358642578125" lon="-3.52928079664707183837890625">
        <ele>760.20001220703125</ele>
        <time>2019-10-29T13:42:00.000Z</time>
      </trkpt>
      <trkpt lat="37.3841580189764499664306640625" lon="-3.52942991070449352264404296875">
        <ele>759.20001220703125</ele>
        <time>2019-10-29T13:42:02.000Z</time>
      </trkpt>
      <trkpt lat="37.38396749831736087799072265625" lon="-3.52955974638462066650390625">
        <ele>757.5999755859375</ele>
        <time>2019-10-29T13:42:04.000Z</time>
      </trkpt>
      <trkpt lat="37.38376918248832225799560546875" lon="-3.5296718962490558624267578125">
        <ele>756.20001220703125</ele>
        <time>2019-10-29T13:42:06.000Z</time>
      </trkpt>
      <trkpt lat="37.38357488997280597686767578125" lon="-3.529778011143207550048828125">
        <ele>754.5999755859375</ele>
        <time>2019-10-29T13:42:08.000Z</time>
      </trkpt>
      <trkpt lat="37.3833842016756534576416015625" lon="-3.529889322817325592041015625">
        <ele>753.79998779296875</ele>
        <time>2019-10-29T13:42:10.000Z</time>
      </trkpt>
      <trkpt lat="37.38320072181522846221923828125" lon="-3.530008010566234588623046875">
        <ele>753</ele>
        <time>2019-10-29T13:42:12.000Z</time>
      </trkpt>
      <trkpt lat="37.38302528858184814453125" lon="-3.53013373911380767822265625">
        <ele>752.5999755859375</ele>
        <time>2019-10-29T13:42:14.000Z</time>
      </trkpt>
      <trkpt lat="37.382859326899051666259765625" lon="-3.53026458062231540679931640625">
        <ele>751.4000244140625</ele>
        <time>2019-10-29T13:42:16.000Z</time>
      </trkpt>
      <trkpt lat="37.3827086202800273895263671875" lon="-3.530407659709453582763671875">
        <ele>750.5999755859375</ele>
        <time>2019-10-29T13:42:18.000Z</time>
      </trkpt>
      <trkpt lat="37.38256688229739665985107421875" lon="-3.53055425919592380523681640625">
        <ele>750</ele>
        <time>2019-10-29T13:42:20.000Z</time>
      </trkpt>
      <trkpt lat="37.3823706619441509246826171875" lon="-3.53077000938355922698974609375">
        <ele>751</ele>
        <time>2019-10-29T13:42:23.000Z</time>
      </trkpt>
      <trkpt lat="37.38218366168439388275146484375" lon="-3.53098643012344837188720703125">
        <ele>753</ele>
        <time>2019-10-29T13:42:26.000Z</time>
      </trkpt>
      <trkpt lat="37.3820162750780582427978515625" lon="-3.5312114842236042022705078125">
        <ele>754.5999755859375</ele>
        <time>2019-10-29T13:42:29.000Z</time>
      </trkpt>
      <trkpt lat="37.3818719387054443359375" lon="-3.53143083862960338592529296875">
        <ele>755</ele>
        <time>2019-10-29T13:42:32.000Z</time>
      </trkpt>
      <trkpt lat="37.38174788653850555419921875" lon="-3.5316500253975391387939453125">
        <ele>753.79998779296875</ele>
        <time>2019-10-29T13:42:35.000Z</time>
      </trkpt>
      <trkpt lat="37.381628863513469696044921875" lon="-3.5318672843277454376220703125">
        <ele>752.5999755859375</ele>
        <time>2019-10-29T13:42:38.000Z</time>
      </trkpt>
      <trkpt lat="37.38151587545871734619140625" lon="-3.53206870146095752716064453125">
        <ele>752.4000244140625</ele>
        <time>2019-10-29T13:42:41.000Z</time>
      </trkpt>
      <trkpt lat="37.3813913203775882720947265625" lon="-3.53224237449467182159423828125">
        <ele>752.5999755859375</ele>
        <time>2019-10-29T13:42:44.000Z</time>
      </trkpt>
      <trkpt lat="37.38123348914086818695068359375" lon="-3.5324664227664470672607421875">
        <ele>753</ele>
        <time>2019-10-29T13:42:48.000Z</time>
      </trkpt>
      <trkpt lat="37.381059564650058746337890625" lon="-3.53267337195575237274169921875">
        <ele>753.5999755859375</ele>
        <time>2019-10-29T13:42:52.000Z</time>
      </trkpt>
      <trkpt lat="37.38089351914823055267333984375" lon="-3.532871939241886138916015625">
        <ele>755.4000244140625</ele>
        <time>2019-10-29T13:42:56.000Z</time>
      </trkpt>
      <trkpt lat="37.38074616529047489166259765625" lon="-3.533036895096302032470703125">
        <ele>756.5999755859375</ele>
        <time>2019-10-29T13:43:00.000Z</time>
      </trkpt>
      <trkpt lat="37.38071548752486705780029296875" lon="-3.5330794751644134521484375">
        <ele>756.79998779296875</ele>
        <time>2019-10-29T13:43:01.000Z</time>
      </trkpt>
      <trkpt lat="37.3805786110460758209228515625" lon="-3.53326563723385334014892578125">
        <ele>757</ele>
        <time>2019-10-29T13:43:06.000Z</time>
      </trkpt>
      <trkpt lat="37.38044877536594867706298828125" lon="-3.5334548167884349822998046875">
        <ele>756.79998779296875</ele>
        <time>2019-10-29T13:43:11.000Z</time>
      </trkpt>
      <trkpt lat="37.3803046904504299163818359375" lon="-3.53365472517907619476318359375">
        <ele>756.4000244140625</ele>
        <time>2019-10-29T13:43:16.000Z</time>
      </trkpt>
      <trkpt lat="37.38017267547547817230224609375" lon="-3.53383175097405910491943359375">
        <ele>756.4000244140625</ele>
        <time>2019-10-29T13:43:20.000Z</time>
      </trkpt>
      <trkpt lat="37.38001978956162929534912109375" lon="-3.5340133868157863616943359375">
        <ele>756</ele>
        <time>2019-10-29T13:43:24.000Z</time>
      </trkpt>
      <trkpt lat="37.3798839189112186431884765625" lon="-3.53416853584349155426025390625">
        <ele>755.4000244140625</ele>
        <time>2019-10-29T13:43:27.000Z</time>
      </trkpt>
      <trkpt lat="37.37973346374928951263427734375" lon="-3.53433466516435146331787109375">
        <ele>753.5999755859375</ele>
        <time>2019-10-29T13:43:30.000Z</time>
      </trkpt>
      <trkpt lat="37.3795647360384464263916015625" lon="-3.53448537178337574005126953125">
        <ele>751.20001220703125</ele>
        <time>2019-10-29T13:43:33.000Z</time>
      </trkpt>
      <trkpt lat="37.3793669231235980987548828125" lon="-3.53461705148220062255859375">
        <ele>749.4000244140625</ele>
        <time>2019-10-29T13:43:36.000Z</time>
      </trkpt>
      <trkpt lat="37.37914346158504486083984375" lon="-3.5347330570220947265625">
        <ele>749</ele>
        <time>2019-10-29T13:43:39.000Z</time>
      </trkpt>
      <trkpt lat="37.37892243079841136932373046875" lon="-3.53485333733260631561279296875">
        <ele>749.79998779296875</ele>
        <time>2019-10-29T13:43:42.000Z</time>
      </trkpt>
      <trkpt lat="37.37885688431560993194580078125" lon="-3.534903712570667266845703125">
        <ele>750</ele>
        <time>2019-10-29T13:43:43.000Z</time>
      </trkpt>
      <trkpt lat="37.37868689931929111480712890625" lon="-3.5350738652050495147705078125">
        <ele>750.5999755859375</ele>
        <time>2019-10-29T13:43:46.000Z</time>
      </trkpt>
      <trkpt lat="37.3785448260605335235595703125" lon="-3.535252399742603302001953125">
        <ele>751.20001220703125</ele>
        <time>2019-10-29T13:43:49.000Z</time>
      </trkpt>
      <trkpt lat="37.3784144036471843719482421875" lon="-3.5354198701679706573486328125">
        <ele>751.20001220703125</ele>
        <time>2019-10-29T13:43:52.000Z</time>
      </trkpt>
      <trkpt lat="37.37823410890996456146240234375" lon="-3.535607121884822845458984375">
        <ele>750.4000244140625</ele>
        <time>2019-10-29T13:43:56.000Z</time>
      </trkpt>
      <trkpt lat="37.37807552330195903778076171875" lon="-3.53571885265409946441650390625">
        <ele>749</ele>
        <time>2019-10-29T13:43:59.000Z</time>
      </trkpt>
      <trkpt lat="37.37790939398109912872314453125" lon="-3.53580887429416179656982421875">
        <ele>748.20001220703125</ele>
        <time>2019-10-29T13:44:02.000Z</time>
      </trkpt>
      <trkpt lat="37.3777306079864501953125" lon="-3.5358952917158603668212890625">
        <ele>747.5999755859375</ele>
        <time>2019-10-29T13:44:05.000Z</time>
      </trkpt>
      <trkpt lat="37.37755022943019866943359375" lon="-3.5359613411128520965576171875">
        <ele>747.79998779296875</ele>
        <time>2019-10-29T13:44:08.000Z</time>
      </trkpt>
      <trkpt lat="37.377360798418521881103515625" lon="-3.5360039211809635162353515625">
        <ele>747.4000244140625</ele>
        <time>2019-10-29T13:44:11.000Z</time>
      </trkpt>
      <trkpt lat="37.3771608062088489532470703125" lon="-3.53602194227278232574462890625">
        <ele>747</ele>
        <time>2019-10-29T13:44:14.000Z</time>
      </trkpt>
      <trkpt lat="37.376952432096004486083984375" lon="-3.53602613322436809539794921875">
        <ele>746.20001220703125</ele>
        <time>2019-10-29T13:44:17.000Z</time>
      </trkpt>
      <trkpt lat="37.37674129195511341094970703125" lon="-3.53603635914623737335205078125">
        <ele>744</ele>
        <time>2019-10-29T13:44:20.000Z</time>
      </trkpt>
      <trkpt lat="37.37653291784226894378662109375" lon="-3.53605203330516815185546875">
        <ele>741.5999755859375</ele>
        <time>2019-10-29T13:44:23.000Z</time>
      </trkpt>
      <trkpt lat="37.37633259035646915435791015625" lon="-3.5360713116824626922607421875">
        <ele>740</ele>
        <time>2019-10-29T13:44:26.000Z</time>
      </trkpt>
      <trkpt lat="37.3761405609548091888427734375" lon="-3.5360848903656005859375">
        <ele>741.20001220703125</ele>
        <time>2019-10-29T13:44:29.000Z</time>
      </trkpt>
      <trkpt lat="37.3759554885327816009521484375" lon="-3.5360850580036640167236328125">
        <ele>742.4000244140625</ele>
        <time>2019-10-29T13:44:32.000Z</time>
      </trkpt>
      <trkpt lat="37.37577301450073719024658203125" lon="-3.5360790230333805084228515625">
        <ele>743.5999755859375</ele>
        <time>2019-10-29T13:44:35.000Z</time>
      </trkpt>
      <trkpt lat="37.3755900375545024871826171875" lon="-3.5360625945031642913818359375">
        <ele>744.5999755859375</ele>
        <time>2019-10-29T13:44:38.000Z</time>
      </trkpt>
      <trkpt lat="37.3754039593040943145751953125" lon="-3.53604608215391635894775390625">
        <ele>745.79998779296875</ele>
        <time>2019-10-29T13:44:41.000Z</time>
      </trkpt>
      <trkpt lat="37.3752178810536861419677734375" lon="-3.5360267199575901031494140625">
        <ele>746.20001220703125</ele>
        <time>2019-10-29T13:44:44.000Z</time>
      </trkpt>
      <trkpt lat="37.375039346516132354736328125" lon="-3.5359874926507472991943359375">
        <ele>745.4000244140625</ele>
        <time>2019-10-29T13:44:47.000Z</time>
      </trkpt>
      <trkpt lat="37.37486273981630802154541015625" lon="-3.535922281444072723388671875">
        <ele>745.4000244140625</ele>
        <time>2019-10-29T13:44:50.000Z</time>
      </trkpt>
      <trkpt lat="37.374688647687435150146484375" lon="-3.535859584808349609375">
        <ele>744.79998779296875</ele>
        <time>2019-10-29T13:44:53.000Z</time>
      </trkpt>
      <trkpt lat="37.37462771125137805938720703125" lon="-3.53584961034357547760009765625">
        <ele>744.79998779296875</ele>
        <time>2019-10-29T13:44:54.000Z</time>
      </trkpt>
      <trkpt lat="37.37444682978093624114990234375" lon="-3.53586939163506031036376953125">
        <ele>743.79998779296875</ele>
        <time>2019-10-29T13:44:57.000Z</time>
      </trkpt>
      <trkpt lat="37.37422286532819271087646484375" lon="-3.53593141771852970123291015625">
        <ele>742.4000244140625</ele>
        <time>2019-10-29T13:45:01.000Z</time>
      </trkpt>
      <trkpt lat="37.37399085424840450286865234375" lon="-3.53597181849181652069091796875">
        <ele>741.5999755859375</ele>
        <time>2019-10-29T13:45:05.000Z</time>
      </trkpt>
      <trkpt lat="37.373754568397998809814453125" lon="-3.5360146500170230865478515625">
        <ele>741.4000244140625</ele>
        <time>2019-10-29T13:45:09.000Z</time>
      </trkpt>
      <trkpt lat="37.37369564361870288848876953125" lon="-3.53603350929915904998779296875">
        <ele>741.79998779296875</ele>
        <time>2019-10-29T13:45:10.000Z</time>
      </trkpt>
      <trkpt lat="37.37349498085677623748779296875" lon="-3.536175079643726348876953125">
        <ele>742.4000244140625</ele>
        <time>2019-10-29T13:45:14.000Z</time>
      </trkpt>
      <trkpt lat="37.3733175359666347503662109375" lon="-3.53636987507343292236328125">
        <ele>743</ele>
        <time>2019-10-29T13:45:18.000Z</time>
      </trkpt>
      <trkpt lat="37.37313992343842983245849609375" lon="-3.5365611501038074493408203125">
        <ele>743</ele>
        <time>2019-10-29T13:45:22.000Z</time>
      </trkpt>
      <trkpt lat="37.3729406856000423431396484375" lon="-3.53671445511281490325927734375">
        <ele>742.79998779296875</ele>
        <time>2019-10-29T13:45:26.000Z</time>
      </trkpt>
      <trkpt lat="37.372716553509235382080078125" lon="-3.53681646287441253662109375">
        <ele>742.4000244140625</ele>
        <time>2019-10-29T13:45:30.000Z</time>
      </trkpt>
      <trkpt lat="37.3725289665162563323974609375" lon="-3.53685543872416019439697265625">
        <ele>742.4000244140625</ele>
        <time>2019-10-29T13:45:33.000Z</time>
      </trkpt>
      <trkpt lat="37.37233760766685009002685546875" lon="-3.536894582211971282958984375">
        <ele>742.4000244140625</ele>
        <time>2019-10-29T13:45:36.000Z</time>
      </trkpt>
      <trkpt lat="37.3721551336348056793212890625" lon="-3.5369359888136386871337890625">
        <ele>742.20001220703125</ele>
        <time>2019-10-29T13:45:39.000Z</time>
      </trkpt>
      <trkpt lat="37.37198732793331146240234375" lon="-3.53699139319360256195068359375">
        <ele>742.5999755859375</ele>
        <time>2019-10-29T13:45:42.000Z</time>
      </trkpt>
      <trkpt lat="37.37181072123348712921142578125" lon="-3.53714595548808574676513671875">
        <ele>742.5999755859375</ele>
        <time>2019-10-29T13:45:46.000Z</time>
      </trkpt>
      <trkpt lat="37.371650375425815582275390625" lon="-3.53733974508941173553466796875">
        <ele>742.20001220703125</ele>
        <time>2019-10-29T13:45:50.000Z</time>
      </trkpt>
      <trkpt lat="37.37147997133433818817138671875" lon="-3.53753529489040374755859375">
        <ele>742.4000244140625</ele>
        <time>2019-10-29T13:45:54.000Z</time>
      </trkpt>
      <trkpt lat="37.37134234048426151275634765625" lon="-3.53777409531176090240478515625">
        <ele>741.4000244140625</ele>
        <time>2019-10-29T13:45:58.000Z</time>
      </trkpt>
      <trkpt lat="37.37123840488493442535400390625" lon="-3.5380330123007297515869140625">
        <ele>741.4000244140625</ele>
        <time>2019-10-29T13:46:02.000Z</time>
      </trkpt>
      <trkpt lat="37.37112575210630893707275390625" lon="-3.53828153572976589202880859375">
        <ele>743.20001220703125</ele>
        <time>2019-10-29T13:46:06.000Z</time>
      </trkpt>
      <trkpt lat="37.3710128478705883026123046875" lon="-3.5385352559387683868408203125">
        <ele>745.5999755859375</ele>
        <time>2019-10-29T13:46:10.000Z</time>
      </trkpt>
      <trkpt lat="37.3709072358906269073486328125" lon="-3.5388028062880039215087890625">
        <ele>746.79998779296875</ele>
        <time>2019-10-29T13:46:14.000Z</time>
      </trkpt>
      <trkpt lat="37.37083003856241703033447265625" lon="-3.53901143185794353485107421875">
        <ele>746.4000244140625</ele>
        <time>2019-10-29T13:46:17.000Z</time>
      </trkpt>
      <trkpt lat="37.37074923701584339141845703125" lon="-3.539213351905345916748046875">
        <ele>745</ele>
        <time>2019-10-29T13:46:20.000Z</time>
      </trkpt>
      <trkpt lat="37.3706494085490703582763671875" lon="-3.539483249187469482421875">
        <ele>741.20001220703125</ele>
        <time>2019-10-29T13:46:24.000Z</time>
      </trkpt>
      <trkpt lat="37.3705622367560863494873046875" lon="-3.53975214064121246337890625">
        <ele>739.20001220703125</ele>
        <time>2019-10-29T13:46:28.000Z</time>
      </trkpt>
      <trkpt lat="37.3704851232469081878662109375" lon="-3.5400094650685787200927734375">
        <ele>737.79998779296875</ele>
        <time>2019-10-29T13:46:32.000Z</time>
      </trkpt>
      <trkpt lat="37.37040306441485881805419921875" lon="-3.54025530628859996795654296875">
        <ele>739</ele>
        <time>2019-10-29T13:46:36.000Z</time>
      </trkpt>
      <trkpt lat="37.37033751793205738067626953125" lon="-3.5404335893690586090087890625">
        <ele>740.79998779296875</ele>
        <time>2019-10-29T13:46:39.000Z</time>
      </trkpt>
      <trkpt lat="37.3702366836369037628173828125" lon="-3.54067347943782806396484375">
        <ele>742.4000244140625</ele>
        <time>2019-10-29T13:46:43.000Z</time>
      </trkpt>
      <trkpt lat="37.370116151869297027587890625" lon="-3.5409026406705379486083984375">
        <ele>742</ele>
        <time>2019-10-29T13:46:47.000Z</time>
      </trkpt>
      <trkpt lat="37.369991429150104522705078125" lon="-3.5411376692354679107666015625">
        <ele>740.5999755859375</ele>
        <time>2019-10-29T13:46:51.000Z</time>
      </trkpt>
      <trkpt lat="37.3698517866432666778564453125" lon="-3.5413529165089130401611328125">
        <ele>741</ele>
        <time>2019-10-29T13:46:55.000Z</time>
      </trkpt>
      <trkpt lat="37.36970401369035243988037109375" lon="-3.5415631346404552459716796875">
        <ele>741</ele>
        <time>2019-10-29T13:46:59.000Z</time>
      </trkpt>
      <trkpt lat="37.36954559572041034698486328125" lon="-3.541775532066822052001953125">
        <ele>740.79998779296875</ele>
        <time>2019-10-29T13:47:03.000Z</time>
      </trkpt>
      <trkpt lat="37.36940075643360614776611328125" lon="-3.54200695641338825225830078125">
        <ele>739.5999755859375</ele>
        <time>2019-10-29T13:47:07.000Z</time>
      </trkpt>
      <trkpt lat="37.36925591714680194854736328125" lon="-3.54224433191120624542236328125">
        <ele>738</ele>
        <time>2019-10-29T13:47:11.000Z</time>
      </trkpt>
      <trkpt lat="37.36911292187869548797607421875" lon="-3.54248388670384883880615234375">
        <ele>737.4000244140625</ele>
        <time>2019-10-29T13:47:15.000Z</time>
      </trkpt>
      <trkpt lat="37.36900546588003635406494140625" lon="-3.5426656901836395263671875">
        <ele>737.4000244140625</ele>
        <time>2019-10-29T13:47:18.000Z</time>
      </trkpt>
      <trkpt lat="37.36889247782528400421142578125" lon="-3.54284414090216159820556640625">
        <ele>737.4000244140625</ele>
        <time>2019-10-29T13:47:21.000Z</time>
      </trkpt>
      <trkpt lat="37.36877127550542354583740234375" lon="-3.5430168919265270233154296875">
        <ele>737.20001220703125</ele>
        <time>2019-10-29T13:47:24.000Z</time>
      </trkpt>
      <trkpt lat="37.36864923499524593353271484375" lon="-3.54318981058895587921142578125">
        <ele>736.79998779296875</ele>
        <time>2019-10-29T13:47:27.000Z</time>
      </trkpt>
      <trkpt lat="37.3685239255428314208984375" lon="-3.54336013086140155792236328125">
        <ele>736.5999755859375</ele>
        <time>2019-10-29T13:47:30.000Z</time>
      </trkpt>
      <trkpt lat="37.3684017173945903778076171875" lon="-3.5435266792774200439453125">
        <ele>737.79998779296875</ele>
        <time>2019-10-29T13:47:33.000Z</time>
      </trkpt>
      <trkpt lat="37.36824623309075832366943359375" lon="-3.54374234564602375030517578125">
        <ele>739</ele>
        <time>2019-10-29T13:47:37.000Z</time>
      </trkpt>
      <trkpt lat="37.36809971742331981658935546875" lon="-3.543940745294094085693359375">
        <ele>739.20001220703125</ele>
        <time>2019-10-29T13:47:41.000Z</time>
      </trkpt>
      <trkpt lat="37.3679484240710735321044921875" lon="-3.544150628149509429931640625">
        <ele>738.4000244140625</ele>
        <time>2019-10-29T13:47:45.000Z</time>
      </trkpt>
      <trkpt lat="37.3677841387689113616943359375" lon="-3.5443663783371448516845703125">
        <ele>737.4000244140625</ele>
        <time>2019-10-29T13:47:49.000Z</time>
      </trkpt>
      <trkpt lat="37.367653213441371917724609375" lon="-3.544536866247653961181640625">
        <ele>737.4000244140625</ele>
        <time>2019-10-29T13:47:52.000Z</time>
      </trkpt>
      <trkpt lat="37.36751549877226352691650390625" lon="-3.54472001083195209503173828125">
        <ele>737.5999755859375</ele>
        <time>2019-10-29T13:47:55.000Z</time>
      </trkpt>
      <trkpt lat="37.36736345104873180389404296875" lon="-3.54489938355982303619384765625">
        <ele>737.20001220703125</ele>
        <time>2019-10-29T13:47:58.000Z</time>
      </trkpt>
      <trkpt lat="37.3671967349946498870849609375" lon="-3.54506266303360462188720703125">
        <ele>736.4000244140625</ele>
        <time>2019-10-29T13:48:01.000Z</time>
      </trkpt>
      <trkpt lat="37.36702255904674530029296875" lon="-3.54520884342491626739501953125">
        <ele>734.79998779296875</ele>
        <time>2019-10-29T13:48:04.000Z</time>
      </trkpt>
      <trkpt lat="37.36685031093657016754150390625" lon="-3.54534748010337352752685546875">
        <ele>734</ele>
        <time>2019-10-29T13:48:07.000Z</time>
      </trkpt>
      <trkpt lat="37.3666720278561115264892578125" lon="-3.54546767659485340118408203125">
        <ele>734.5999755859375</ele>
        <time>2019-10-29T13:48:10.000Z</time>
      </trkpt>
      <trkpt lat="37.366499863564968109130859375" lon="-3.54557664133608341217041015625">
        <ele>734.79998779296875</ele>
        <time>2019-10-29T13:48:13.000Z</time>
      </trkpt>
      <trkpt lat="37.36633281223475933074951171875" lon="-3.54566934518516063690185546875">
        <ele>735</ele>
        <time>2019-10-29T13:48:16.000Z</time>
      </trkpt>
      <trkpt lat="37.36610700376331806182861328125" lon="-3.54575760662555694580078125">
        <ele>734</ele>
        <time>2019-10-29T13:48:20.000Z</time>
      </trkpt>
      <trkpt lat="37.3660494200885295867919921875" lon="-3.545773029327392578125">
        <ele>733.79998779296875</ele>
        <time>2019-10-29T13:48:21.000Z</time>
      </trkpt>
      <trkpt lat="37.36586828716099262237548828125" lon="-3.54580479674041271209716796875">
        <ele>734.20001220703125</ele>
        <time>2019-10-29T13:48:24.000Z</time>
      </trkpt>
      <trkpt lat="37.36568774096667766571044921875" lon="-3.5458251647651195526123046875">
        <ele>735</ele>
        <time>2019-10-29T13:48:27.000Z</time>
      </trkpt>
      <trkpt lat="37.36545254476368427276611328125" lon="-3.54586489498615264892578125">
        <ele>735.79998779296875</ele>
        <time>2019-10-29T13:48:31.000Z</time>
      </trkpt>
      <trkpt lat="37.36521835438907146453857421875" lon="-3.54592314921319484710693359375">
        <ele>735.20001220703125</ele>
        <time>2019-10-29T13:48:35.000Z</time>
      </trkpt>
      <trkpt lat="37.36504116095602512359619140625" lon="-3.5459803976118564605712890625">
        <ele>736</ele>
        <time>2019-10-29T13:48:38.000Z</time>
      </trkpt>
      <trkpt lat="37.36486245878040790557861328125" lon="-3.54604485444724559783935546875">
        <ele>736.4000244140625</ele>
        <time>2019-10-29T13:48:41.000Z</time>
      </trkpt>
      <trkpt lat="37.36468073911964893341064453125" lon="-3.54611509479582309722900390625">
        <ele>736.20001220703125</ele>
        <time>2019-10-29T13:48:44.000Z</time>
      </trkpt>
      <trkpt lat="37.3645041324198246002197265625" lon="-3.54618667624890804290771484375">
        <ele>735.79998779296875</ele>
        <time>2019-10-29T13:48:47.000Z</time>
      </trkpt>
      <trkpt lat="37.3643879592418670654296875" lon="-3.54622900485992431640625">
        <ele>735.5999755859375</ele>
        <time>2019-10-29T13:48:49.000Z</time>
      </trkpt>
      <trkpt lat="37.36421755515038967132568359375" lon="-3.54631944559514522552490234375">
        <ele>735.5999755859375</ele>
        <time>2019-10-29T13:48:52.000Z</time>
      </trkpt>
      <trkpt lat="37.36404287628829479217529296875" lon="-3.546424470841884613037109375">
        <ele>735.4000244140625</ele>
        <time>2019-10-29T13:48:55.000Z</time>
      </trkpt>
      <trkpt lat="37.3638798482716083526611328125" lon="-3.5465570725500583648681640625">
        <ele>735.20001220703125</ele>
        <time>2019-10-29T13:48:58.000Z</time>
      </trkpt>
      <trkpt lat="37.36371531151235103607177734375" lon="-3.54669009335339069366455078125">
        <ele>734.4000244140625</ele>
        <time>2019-10-29T13:49:01.000Z</time>
      </trkpt>
      <trkpt lat="37.3635546304285526275634765625" lon="-3.54682101868093013763427734375">
        <ele>733.5999755859375</ele>
        <time>2019-10-29T13:49:04.000Z</time>
      </trkpt>
      <trkpt lat="37.3633901774883270263671875" lon="-3.5469530336558818817138671875">
        <ele>732.79998779296875</ele>
        <time>2019-10-29T13:49:07.000Z</time>
      </trkpt>
      <trkpt lat="37.3632265627384185791015625" lon="-3.547082953155040740966796875">
        <ele>732</ele>
        <time>2019-10-29T13:49:10.000Z</time>
      </trkpt>
      <trkpt lat="37.3630718328058719635009765625" lon="-3.5472334921360015869140625">
        <ele>731</ele>
        <time>2019-10-29T13:49:13.000Z</time>
      </trkpt>
      <trkpt lat="37.36294384114444255828857421875" lon="-3.547431640326976776123046875">
        <ele>733</ele>
        <time>2019-10-29T13:49:16.000Z</time>
      </trkpt>
      <trkpt lat="37.3628322780132293701171875" lon="-3.5476545989513397216796875">
        <ele>734.4000244140625</ele>
        <time>2019-10-29T13:49:19.000Z</time>
      </trkpt>
      <trkpt lat="37.36274250783026218414306640625" lon="-3.5478914715349674224853515625">
        <ele>734.20001220703125</ele>
        <time>2019-10-29T13:49:22.000Z</time>
      </trkpt>
      <trkpt lat="37.3626956529915332794189453125" lon="-3.5481441020965576171875">
        <ele>733.20001220703125</ele>
        <time>2019-10-29T13:49:25.000Z</time>
      </trkpt>
      <trkpt lat="37.36264209263026714324951171875" lon="-3.54839296080172061920166015625">
        <ele>733</ele>
        <time>2019-10-29T13:49:28.000Z</time>
      </trkpt>
      <trkpt lat="37.36258693970739841461181640625" lon="-3.548645675182342529296875">
        <ele>733.20001220703125</ele>
        <time>2019-10-29T13:49:31.000Z</time>
      </trkpt>
      <trkpt lat="37.36251938156783580780029296875" lon="-3.5489040054380893707275390625">
        <ele>733.20001220703125</ele>
        <time>2019-10-29T13:49:34.000Z</time>
      </trkpt>
      <trkpt lat="37.36246548593044281005859375" lon="-3.5491779260337352752685546875">
        <ele>733</ele>
        <time>2019-10-29T13:49:37.000Z</time>
      </trkpt>
      <trkpt lat="37.36242969520390033721923828125" lon="-3.549461401998996734619140625">
        <ele>732</ele>
        <time>2019-10-29T13:49:40.000Z</time>
      </trkpt>
      <trkpt lat="37.36241460777819156646728515625" lon="-3.54974345304071903228759765625">
        <ele>730.5999755859375</ele>
        <time>2019-10-29T13:49:43.000Z</time>
      </trkpt>
      <trkpt lat="37.3624244146049022674560546875" lon="-3.5500261746346950531005859375">
        <ele>729.20001220703125</ele>
        <time>2019-10-29T13:49:46.000Z</time>
      </trkpt>
      <trkpt lat="37.36244495026767253875732421875" lon="-3.550300262868404388427734375">
        <ele>727.5999755859375</ele>
        <time>2019-10-29T13:49:49.000Z</time>
      </trkpt>
      <trkpt lat="37.36247193999588489532470703125" lon="-3.55056588537991046905517578125">
        <ele>728</ele>
        <time>2019-10-29T13:49:52.000Z</time>
      </trkpt>
      <trkpt lat="37.36250303685665130615234375" lon="-3.55082153342664241790771484375">
        <ele>729.5999755859375</ele>
        <time>2019-10-29T13:49:55.000Z</time>
      </trkpt>
      <trkpt lat="37.36255106516182422637939453125" lon="-3.55105002410709857940673828125">
        <ele>729</ele>
        <time>2019-10-29T13:49:58.000Z</time>
      </trkpt>
      <trkpt lat="37.3625987581908702850341796875" lon="-3.551271222531795501708984375">
        <ele>729</ele>
        <time>2019-10-29T13:50:01.000Z</time>
      </trkpt>
      <trkpt lat="37.36265726387500762939453125" lon="-3.55156232602894306182861328125">
        <ele>729.20001220703125</ele>
        <time>2019-10-29T13:50:05.000Z</time>
      </trkpt>
      <trkpt lat="37.36269020475447177886962890625" lon="-3.5518577881157398223876953125">
        <ele>729</ele>
        <time>2019-10-29T13:50:09.000Z</time>
      </trkpt>
      <trkpt lat="37.362691462039947509765625" lon="-3.55193180032074451446533203125">
        <ele>728.79998779296875</ele>
        <time>2019-10-29T13:50:10.000Z</time>
      </trkpt>
      <trkpt lat="37.362661622464656829833984375" lon="-3.5521585308015346527099609375">
        <ele>728.5999755859375</ele>
        <time>2019-10-29T13:50:13.000Z</time>
      </trkpt>
      <trkpt lat="37.36259180121123790740966796875" lon="-3.55237721465528011322021484375">
        <ele>729.20001220703125</ele>
        <time>2019-10-29T13:50:16.000Z</time>
      </trkpt>
      <trkpt lat="37.3624904640018939971923828125" lon="-3.55258760042488574981689453125">
        <ele>729.5999755859375</ele>
        <time>2019-10-29T13:50:19.000Z</time>
      </trkpt>
      <trkpt lat="37.36237554810941219329833984375" lon="-3.55279061011970043182373046875">
        <ele>729.79998779296875</ele>
        <time>2019-10-29T13:50:22.000Z</time>
      </trkpt>
      <trkpt lat="37.362231798470020294189453125" lon="-3.55297400616109371185302734375">
        <ele>730.4000244140625</ele>
        <time>2019-10-29T13:50:25.000Z</time>
      </trkpt>
      <trkpt lat="37.36207279376685619354248046875" lon="-3.55313745327293872833251953125">
        <ele>729.79998779296875</ele>
        <time>2019-10-29T13:50:28.000Z</time>
      </trkpt>
      <trkpt lat="37.36190616153180599212646484375" lon="-3.55328899808228015899658203125">
        <ele>728.79998779296875</ele>
        <time>2019-10-29T13:50:31.000Z</time>
      </trkpt>
      <trkpt lat="37.3617370985448360443115234375" lon="-3.55343635194003582000732421875">
        <ele>727.5999755859375</ele>
        <time>2019-10-29T13:50:34.000Z</time>
      </trkpt>
      <trkpt lat="37.3616118729114532470703125" lon="-3.55352385900914669036865234375">
        <ele>727.20001220703125</ele>
        <time>2019-10-29T13:50:36.000Z</time>
      </trkpt>
      <trkpt lat="37.36140358261764049530029296875" lon="-3.55361186899244785308837890625">
        <ele>728.5999755859375</ele>
        <time>2019-10-29T13:50:39.000Z</time>
      </trkpt>
      <trkpt lat="37.36117936670780181884765625" lon="-3.55365562252700328826904296875">
        <ele>731.79998779296875</ele>
        <time>2019-10-29T13:50:42.000Z</time>
      </trkpt>
      <trkpt lat="37.36096001230180263519287109375" lon="-3.55368630029261112213134765625">
        <ele>733</ele>
        <time>2019-10-29T13:50:45.000Z</time>
      </trkpt>
      <trkpt lat="37.360745854675769805908203125" lon="-3.55371664278209209442138671875">
        <ele>731.5999755859375</ele>
        <time>2019-10-29T13:50:48.000Z</time>
      </trkpt>
      <trkpt lat="37.36053437925875186920166015625" lon="-3.55374631471931934356689453125">
        <ele>729.79998779296875</ele>
        <time>2019-10-29T13:50:51.000Z</time>
      </trkpt>
      <trkpt lat="37.36032776534557342529296875" lon="-3.55379861779510974884033203125">
        <ele>728.5999755859375</ele>
        <time>2019-10-29T13:50:54.000Z</time>
      </trkpt>
      <trkpt lat="37.360128276050090789794921875" lon="-3.5538550280034542083740234375">
        <ele>729</ele>
        <time>2019-10-29T13:50:57.000Z</time>
      </trkpt>
      <trkpt lat="37.35992853529751300811767578125" lon="-3.553913868963718414306640625">
        <ele>730</ele>
        <time>2019-10-29T13:51:00.000Z</time>
      </trkpt>
      <trkpt lat="37.3597289621829986572265625" lon="-3.55397765524685382843017578125">
        <ele>730</ele>
        <time>2019-10-29T13:51:03.000Z</time>
      </trkpt>
      <trkpt lat="37.35953408293426036834716796875" lon="-3.5540561936795711517333984375">
        <ele>729.20001220703125</ele>
        <time>2019-10-29T13:51:06.000Z</time>
      </trkpt>
      <trkpt lat="37.3593375273048877716064453125" lon="-3.5541483946144580841064453125">
        <ele>729</ele>
        <time>2019-10-29T13:51:09.000Z</time>
      </trkpt>
      <trkpt lat="37.35913342796266078948974609375" lon="-3.5542355664074420928955078125">
        <ele>730</ele>
        <time>2019-10-29T13:51:12.000Z</time>
      </trkpt>
      <trkpt lat="37.35892723314464092254638671875" lon="-3.5542878694832324981689453125">
        <ele>730.4000244140625</ele>
        <time>2019-10-29T13:51:15.000Z</time>
      </trkpt>
      <trkpt lat="37.358790524303913116455078125" lon="-3.55429616756737232208251953125">
        <ele>731</ele>
        <time>2019-10-29T13:51:17.000Z</time>
      </trkpt>
      <trkpt lat="37.3585969023406505584716796875" lon="-3.55427035130560398101806640625">
        <ele>730.20001220703125</ele>
        <time>2019-10-29T13:51:20.000Z</time>
      </trkpt>
      <trkpt lat="37.35841006971895694732666015625" lon="-3.55425593443214893341064453125">
        <ele>729.20001220703125</ele>
        <time>2019-10-29T13:51:23.000Z</time>
      </trkpt>
      <trkpt lat="37.35822952352464199066162109375" lon="-3.554227687418460845947265625">
        <ele>728</ele>
        <time>2019-10-29T13:51:26.000Z</time>
      </trkpt>
      <trkpt lat="37.35799156129360198974609375" lon="-3.554197847843170166015625">
        <ele>724.79998779296875</ele>
        <time>2019-10-29T13:51:30.000Z</time>
      </trkpt>
      <trkpt lat="37.35776223242282867431640625" lon="-3.55419315397739410400390625">
        <ele>724</ele>
        <time>2019-10-29T13:51:34.000Z</time>
      </trkpt>
      <trkpt lat="37.35754153691232204437255859375" lon="-3.55422894470393657684326171875">
        <ele>723.5999755859375</ele>
        <time>2019-10-29T13:51:38.000Z</time>
      </trkpt>
      <trkpt lat="37.35731975175440311431884765625" lon="-3.5542769730091094970703125">
        <ele>723.4000244140625</ele>
        <time>2019-10-29T13:51:42.000Z</time>
      </trkpt>
      <trkpt lat="37.3570921830832958221435546875" lon="-3.55434461496770381927490234375">
        <ele>723.20001220703125</ele>
        <time>2019-10-29T13:51:46.000Z</time>
      </trkpt>
      <trkpt lat="37.356865704059600830078125" lon="-3.5544122569262981414794921875">
        <ele>724.20001220703125</ele>
        <time>2019-10-29T13:51:50.000Z</time>
      </trkpt>
      <trkpt lat="37.3566398955881595611572265625" lon="-3.55448526330292224884033203125">
        <ele>725.5999755859375</ele>
        <time>2019-10-29T13:51:54.000Z</time>
      </trkpt>
      <trkpt lat="37.3564149253070354461669921875" lon="-3.55455256998538970947265625">
        <ele>726.20001220703125</ele>
        <time>2019-10-29T13:51:58.000Z</time>
      </trkpt>
      <trkpt lat="37.35618467442691326141357421875" lon="-3.55461602099239826202392578125">
        <ele>727</ele>
        <time>2019-10-29T13:52:02.000Z</time>
      </trkpt>
      <trkpt lat="37.35600429587066173553466796875" lon="-3.55466245673596858978271484375">
        <ele>727.5999755859375</ele>
        <time>2019-10-29T13:52:05.000Z</time>
      </trkpt>
      <trkpt lat="37.35582006163895130157470703125" lon="-3.55471794493496417999267578125">
        <ele>727.20001220703125</ele>
        <time>2019-10-29T13:52:08.000Z</time>
      </trkpt>
      <trkpt lat="37.35564194619655609130859375" lon="-3.5547954775393009185791015625">
        <ele>726.79998779296875</ele>
        <time>2019-10-29T13:52:11.000Z</time>
      </trkpt>
      <trkpt lat="37.35546969808638095855712890625" lon="-3.554907627403736114501953125">
        <ele>725.4000244140625</ele>
        <time>2019-10-29T13:52:14.000Z</time>
      </trkpt>
      <trkpt lat="37.35530038364231586456298828125" lon="-3.55502941645681858062744140625">
        <ele>723.5999755859375</ele>
        <time>2019-10-29T13:52:17.000Z</time>
      </trkpt>
      <trkpt lat="37.355138696730136871337890625" lon="-3.5551575757563114166259765625">
        <ele>723</ele>
        <time>2019-10-29T13:52:20.000Z</time>
      </trkpt>
      <trkpt lat="37.35497784800827503204345703125" lon="-3.55529193766415119171142578125">
        <ele>722.79998779296875</ele>
        <time>2019-10-29T13:52:23.000Z</time>
      </trkpt>
      <trkpt lat="37.35482580028474330902099609375" lon="-3.55543644167482852935791015625">
        <ele>723.79998779296875</ele>
        <time>2019-10-29T13:52:26.000Z</time>
      </trkpt>
      <trkpt lat="37.354675345122814178466796875" lon="-3.55559787712991237640380859375">
        <ele>724.79998779296875</ele>
        <time>2019-10-29T13:52:29.000Z</time>
      </trkpt>
      <trkpt lat="37.35452673397958278656005859375" lon="-3.555757217109203338623046875">
        <ele>724.20001220703125</ele>
        <time>2019-10-29T13:52:32.000Z</time>
      </trkpt>
      <trkpt lat="37.35438424162566661834716796875" lon="-3.5559184849262237548828125">
        <ele>723.4000244140625</ele>
        <time>2019-10-29T13:52:35.000Z</time>
      </trkpt>
      <trkpt lat="37.35424091108143329620361328125" lon="-3.5560852847993373870849609375">
        <ele>722.20001220703125</ele>
        <time>2019-10-29T13:52:38.000Z</time>
      </trkpt>
      <trkpt lat="37.354092635214328765869140625" lon="-3.5562418587505817413330078125">
        <ele>722</ele>
        <time>2019-10-29T13:52:41.000Z</time>
      </trkpt>
      <trkpt lat="37.35394855029881000518798828125" lon="-3.5563977621495723724365234375">
        <ele>723</ele>
        <time>2019-10-29T13:52:44.000Z</time>
      </trkpt>
      <trkpt lat="37.35380052588880062103271484375" lon="-3.55657487176358699798583984375">
        <ele>723.4000244140625</ele>
        <time>2019-10-29T13:52:47.000Z</time>
      </trkpt>
      <trkpt lat="37.35366222448647022247314453125" lon="-3.5567580163478851318359375">
        <ele>723.5999755859375</ele>
        <time>2019-10-29T13:52:50.000Z</time>
      </trkpt>
      <trkpt lat="37.35353984870016574859619140625" lon="-3.556958176195621490478515625">
        <ele>722.79998779296875</ele>
        <time>2019-10-29T13:52:53.000Z</time>
      </trkpt>
      <trkpt lat="37.353437840938568115234375" lon="-3.55715054087340831756591796875">
        <ele>722.4000244140625</ele>
        <time>2019-10-29T13:52:56.000Z</time>
      </trkpt>
      <trkpt lat="37.3533184826374053955078125" lon="-3.55740241706371307373046875">
        <ele>723</ele>
        <time>2019-10-29T13:53:00.000Z</time>
      </trkpt>
      <trkpt lat="37.35319174826145172119140625" lon="-3.55765932239592075347900390625">
        <ele>724.79998779296875</ele>
        <time>2019-10-29T13:53:04.000Z</time>
      </trkpt>
      <trkpt lat="37.3531003855168819427490234375" lon="-3.557859398424625396728515625">
        <ele>725.79998779296875</ele>
        <time>2019-10-29T13:53:07.000Z</time>
      </trkpt>
      <trkpt lat="37.35299594700336456298828125" lon="-3.5580530203878879547119140625">
        <ele>725.4000244140625</ele>
        <time>2019-10-29T13:53:10.000Z</time>
      </trkpt>
      <trkpt lat="37.35295412130653858184814453125" lon="-3.55811479501426219940185546875">
        <ele>725</ele>
        <time>2019-10-29T13:53:11.000Z</time>
      </trkpt>
      <trkpt lat="37.35280894674360752105712890625" lon="-3.55828092433512210845947265625">
        <ele>724.20001220703125</ele>
        <time>2019-10-29T13:53:14.000Z</time>
      </trkpt>
      <trkpt lat="37.35265673138201236724853515625" lon="-3.55843900702893733978271484375">
        <ele>724.20001220703125</ele>
        <time>2019-10-29T13:53:17.000Z</time>
      </trkpt>
      <trkpt lat="37.35250384546816349029541015625" lon="-3.55857898481190204620361328125">
        <ele>725</ele>
        <time>2019-10-29T13:53:20.000Z</time>
      </trkpt>
      <trkpt lat="37.35232464037835597991943359375" lon="-3.55876221321523189544677734375">
        <ele>725</ele>
        <time>2019-10-29T13:53:24.000Z</time>
      </trkpt>
      <trkpt lat="37.3522187769412994384765625" lon="-3.5588930547237396240234375">
        <ele>724.5999755859375</ele>
        <time>2019-10-29T13:53:27.000Z</time>
      </trkpt>
      <trkpt lat="37.35211006365716457366943359375" lon="-3.55911098420619964599609375">
        <ele>723.4000244140625</ele>
        <time>2019-10-29T13:53:31.000Z</time>
      </trkpt>
      <trkpt lat="37.3519907891750335693359375" lon="-3.55933000333607196807861328125">
        <ele>723.79998779296875</ele>
        <time>2019-10-29T13:53:35.000Z</time>
      </trkpt>
      <trkpt lat="37.35189213417470455169677734375" lon="-3.55956871993839740753173828125">
        <ele>725</ele>
        <time>2019-10-29T13:53:39.000Z</time>
      </trkpt>
      <trkpt lat="37.3517857678234577178955078125" lon="-3.55983509682118892669677734375">
        <ele>725.5999755859375</ele>
        <time>2019-10-29T13:53:43.000Z</time>
      </trkpt>
      <trkpt lat="37.3517022840678691864013671875" lon="-3.560036681592464447021484375">
        <ele>725.4000244140625</ele>
        <time>2019-10-29T13:53:46.000Z</time>
      </trkpt>
      <trkpt lat="37.35164788551628589630126953125" lon="-3.5601697862148284912109375">
        <ele>725</ele>
        <time>2019-10-29T13:53:48.000Z</time>
      </trkpt>
      <trkpt lat="37.35156523995101451873779296875" lon="-3.56038008816540241241455078125">
        <ele>724.5999755859375</ele>
        <time>2019-10-29T13:53:51.000Z</time>
      </trkpt>
      <trkpt lat="37.35147303901612758636474609375" lon="-3.5605860315263271331787109375">
        <ele>725.20001220703125</ele>
        <time>2019-10-29T13:53:54.000Z</time>
      </trkpt>
      <trkpt lat="37.35137999989092350006103515625" lon="-3.56079348362982273101806640625">
        <ele>725</ele>
        <time>2019-10-29T13:53:57.000Z</time>
      </trkpt>
      <trkpt lat="37.3512875474989414215087890625" lon="-3.5610044561326503753662109375">
        <ele>723.5999755859375</ele>
        <time>2019-10-29T13:54:00.000Z</time>
      </trkpt>
      <trkpt lat="37.35117875039577484130859375" lon="-3.561204783618450164794921875">
        <ele>722.5999755859375</ele>
        <time>2019-10-29T13:54:03.000Z</time>
      </trkpt>
      <trkpt lat="37.35103533603250980377197265625" lon="-3.561405949294567108154296875">
        <ele>722.79998779296875</ele>
        <time>2019-10-29T13:54:06.000Z</time>
      </trkpt>
      <trkpt lat="37.35088865272700786590576171875" lon="-3.56158926151692867279052734375">
        <ele>724</ele>
        <time>2019-10-29T13:54:09.000Z</time>
      </trkpt>
      <trkpt lat="37.350749932229518890380859375" lon="-3.56177718378603458404541015625">
        <ele>724.20001220703125</ele>
        <time>2019-10-29T13:54:12.000Z</time>
      </trkpt>
      <trkpt lat="37.35062797553837299346923828125" lon="-3.561964519321918487548828125">
        <ele>723.4000244140625</ele>
        <time>2019-10-29T13:54:15.000Z</time>
      </trkpt>
      <trkpt lat="37.3505938611924648284912109375" lon="-3.56202612631022930145263671875">
        <ele>723.20001220703125</ele>
        <time>2019-10-29T13:54:16.000Z</time>
      </trkpt>
      <trkpt lat="37.35050953924655914306640625" lon="-3.5622310638427734375">
        <ele>721.20001220703125</ele>
        <time>2019-10-29T13:54:19.000Z</time>
      </trkpt>
      <trkpt lat="37.3504228703677654266357421875" lon="-3.56250791810452938079833984375">
        <ele>719.4000244140625</ele>
        <time>2019-10-29T13:54:23.000Z</time>
      </trkpt>
      <trkpt lat="37.35035707242786884307861328125" lon="-3.56278158724308013916015625">
        <ele>718</ele>
        <time>2019-10-29T13:54:27.000Z</time>
      </trkpt>
      <trkpt lat="37.3502902686595916748046875" lon="-3.56305693276226520538330078125">
        <ele>718.4000244140625</ele>
        <time>2019-10-29T13:54:31.000Z</time>
      </trkpt>
      <trkpt lat="37.35019412823021411895751953125" lon="-3.56333655305206775665283203125">
        <ele>720</ele>
        <time>2019-10-29T13:54:35.000Z</time>
      </trkpt>
      <trkpt lat="37.3500969819724559783935546875" lon="-3.56354333460330963134765625">
        <ele>719.79998779296875</ele>
        <time>2019-10-29T13:54:38.000Z</time>
      </trkpt>
      <trkpt lat="37.34998810105025768280029296875" lon="-3.5637527145445346832275390625">
        <ele>719.4000244140625</ele>
        <time>2019-10-29T13:54:41.000Z</time>
      </trkpt>
      <trkpt lat="37.34987159259617328643798828125" lon="-3.56396402232348918914794921875">
        <ele>718.5999755859375</ele>
        <time>2019-10-29T13:54:44.000Z</time>
      </trkpt>
      <trkpt lat="37.3497523181140422821044921875" lon="-3.56418572366237640380859375">
        <ele>717.4000244140625</ele>
        <time>2019-10-29T13:54:47.000Z</time>
      </trkpt>
      <trkpt lat="37.34964092262089252471923828125" lon="-3.5644103586673736572265625">
        <ele>717</ele>
        <time>2019-10-29T13:54:50.000Z</time>
      </trkpt>
      <trkpt lat="37.349532209336757659912109375" lon="-3.5646348260343074798583984375">
        <ele>716.4000244140625</ele>
        <time>2019-10-29T13:54:53.000Z</time>
      </trkpt>
      <trkpt lat="37.349413521587848663330078125" lon="-3.56486122123897075653076171875">
        <ele>716.4000244140625</ele>
        <time>2019-10-29T13:54:56.000Z</time>
      </trkpt>
      <trkpt lat="37.3492951691150665283203125" lon="-3.565081916749477386474609375">
        <ele>717</ele>
        <time>2019-10-29T13:54:59.000Z</time>
      </trkpt>
      <trkpt lat="37.3491803370416164398193359375" lon="-3.56530110351741313934326171875">
        <ele>717.4000244140625</ele>
        <time>2019-10-29T13:55:02.000Z</time>
      </trkpt>
      <trkpt lat="37.3490717075765132904052734375" lon="-3.565514087677001953125">
        <ele>717.5999755859375</ele>
        <time>2019-10-29T13:55:05.000Z</time>
      </trkpt>
      <trkpt lat="37.34895846806466579437255859375" lon="-3.5657368786633014678955078125">
        <ele>717.20001220703125</ele>
        <time>2019-10-29T13:55:08.000Z</time>
      </trkpt>
      <trkpt lat="37.34883760102093219757080078125" lon="-3.565955646336078643798828125">
        <ele>717.79998779296875</ele>
        <time>2019-10-29T13:55:11.000Z</time>
      </trkpt>
      <trkpt lat="37.3487230204045772552490234375" lon="-3.56617634184658527374267578125">
        <ele>719.20001220703125</ele>
        <time>2019-10-29T13:55:14.000Z</time>
      </trkpt>
      <trkpt lat="37.34860726632177829742431640625" lon="-3.56640600599348545074462890625">
        <ele>718.5999755859375</ele>
        <time>2019-10-29T13:55:17.000Z</time>
      </trkpt>
      <trkpt lat="37.3485040850937366485595703125" lon="-3.56664354912936687469482421875">
        <ele>716.5999755859375</ele>
        <time>2019-10-29T13:55:20.000Z</time>
      </trkpt>
      <trkpt lat="37.348430491983890533447265625" lon="-3.566869609057903289794921875">
        <ele>714</ele>
        <time>2019-10-29T13:55:23.000Z</time>
      </trkpt>
      <trkpt lat="37.34837173484265804290771484375" lon="-3.56709918938577175140380859375">
        <ele>712</ele>
        <time>2019-10-29T13:55:26.000Z</time>
      </trkpt>
      <trkpt lat="37.348322533071041107177734375" lon="-3.56733572669327259063720703125">
        <ele>710.4000244140625</ele>
        <time>2019-10-29T13:55:29.000Z</time>
      </trkpt>
      <trkpt lat="37.34826310537755489349365234375" lon="-3.56756874360144138336181640625">
        <ele>709.4000244140625</ele>
        <time>2019-10-29T13:55:32.000Z</time>
      </trkpt>
      <trkpt lat="37.34818515367805957794189453125" lon="-3.56779622845351696014404296875">
        <ele>710.5999755859375</ele>
        <time>2019-10-29T13:55:35.000Z</time>
      </trkpt>
      <trkpt lat="37.34810820780694484710693359375" lon="-3.5679369606077671051025390625">
        <ele>711.20001220703125</ele>
        <time>2019-10-29T13:55:37.000Z</time>
      </trkpt>
      <trkpt lat="37.34798918478190898895263671875" lon="-3.56812681071460247039794921875">
        <ele>712.4000244140625</ele>
        <time>2019-10-29T13:55:40.000Z</time>
      </trkpt>
      <trkpt lat="37.347853817045688629150390625" lon="-3.56829981319606304168701171875">
        <ele>714.79998779296875</ele>
        <time>2019-10-29T13:55:43.000Z</time>
      </trkpt>
      <trkpt lat="37.34770185314118862152099609375" lon="-3.56846678070724010467529296875">
        <ele>717.20001220703125</ele>
        <time>2019-10-29T13:55:46.000Z</time>
      </trkpt>
      <trkpt lat="37.34754167497158050537109375" lon="-3.56861941516399383544921875">
        <ele>719.5999755859375</ele>
        <time>2019-10-29T13:55:49.000Z</time>
      </trkpt>
      <trkpt lat="37.3473762162029743194580078125" lon="-3.56877590529620647430419921875">
        <ele>719.79998779296875</ele>
        <time>2019-10-29T13:55:52.000Z</time>
      </trkpt>
      <trkpt lat="37.34721033833920955657958984375" lon="-3.5689551942050457000732421875">
        <ele>718.79998779296875</ele>
        <time>2019-10-29T13:55:55.000Z</time>
      </trkpt>
      <trkpt lat="37.3470694385468959808349609375" lon="-3.56914470903575420379638671875">
        <ele>717.4000244140625</ele>
        <time>2019-10-29T13:55:58.000Z</time>
      </trkpt>
      <trkpt lat="37.346941865980625152587890625" lon="-3.5693307034671306610107421875">
        <ele>716.79998779296875</ele>
        <time>2019-10-29T13:56:01.000Z</time>
      </trkpt>
      <trkpt lat="37.34681203030049800872802734375" lon="-3.5695405863225460052490234375">
        <ele>717.4000244140625</ele>
        <time>2019-10-29T13:56:04.000Z</time>
      </trkpt>
      <trkpt lat="37.34667875804007053375244140625" lon="-3.56976547278463840484619140625">
        <ele>718.20001220703125</ele>
        <time>2019-10-29T13:56:07.000Z</time>
      </trkpt>
      <trkpt lat="37.34656744636595249176025390625" lon="-3.569991029798984527587890625">
        <ele>718.4000244140625</ele>
        <time>2019-10-29T13:56:10.000Z</time>
      </trkpt>
      <trkpt lat="37.34644942916929721832275390625" lon="-3.5702111385762691497802734375">
        <ele>719</ele>
        <time>2019-10-29T13:56:13.000Z</time>
      </trkpt>
      <trkpt lat="37.34634884633123874664306640625" lon="-3.57041624374687671661376953125">
        <ele>718.79998779296875</ele>
        <time>2019-10-29T13:56:16.000Z</time>
      </trkpt>
      <trkpt lat="37.34625631012022495269775390625" lon="-3.57062092982232570648193359375">
        <ele>718.20001220703125</ele>
        <time>2019-10-29T13:56:19.000Z</time>
      </trkpt>
      <trkpt lat="37.34614198096096515655517578125" lon="-3.5708702914416790008544921875">
        <ele>718.79998779296875</ele>
        <time>2019-10-29T13:56:23.000Z</time>
      </trkpt>
      <trkpt lat="37.34602664597332477569580078125" lon="-3.57110205106437206268310546875">
        <ele>719</ele>
        <time>2019-10-29T13:56:27.000Z</time>
      </trkpt>
      <trkpt lat="37.34589421190321445465087890625" lon="-3.5713437013328075408935546875">
        <ele>718.4000244140625</ele>
        <time>2019-10-29T13:56:31.000Z</time>
      </trkpt>
      <trkpt lat="37.3457853309810161590576171875" lon="-3.5715478844940662384033203125">
        <ele>718.20001220703125</ele>
        <time>2019-10-29T13:56:34.000Z</time>
      </trkpt>
      <trkpt lat="37.345671169459819793701171875" lon="-3.5717463679611682891845703125">
        <ele>718.20001220703125</ele>
        <time>2019-10-29T13:56:37.000Z</time>
      </trkpt>
      <trkpt lat="37.3455204628407955169677734375" lon="-3.5719820670783519744873046875">
        <ele>717.5999755859375</ele>
        <time>2019-10-29T13:56:41.000Z</time>
      </trkpt>
      <trkpt lat="37.3453558422625064849853515625" lon="-3.57219773344695568084716796875">
        <ele>720</ele>
        <time>2019-10-29T13:56:45.000Z</time>
      </trkpt>
      <trkpt lat="37.3451992683112621307373046875" lon="-3.57238967902958393096923828125">
        <ele>720.4000244140625</ele>
        <time>2019-10-29T13:56:49.000Z</time>
      </trkpt>
      <trkpt lat="37.345101200044155120849609375" lon="-3.57253166846930980682373046875">
        <ele>720</ele>
        <time>2019-10-29T13:56:52.000Z</time>
      </trkpt>
      <trkpt lat="37.34503774903714656829833984375" lon="-3.5726338438689708709716796875">
        <ele>719.20001220703125</ele>
        <time>2019-10-29T13:56:54.000Z</time>
      </trkpt>
      <trkpt lat="37.34490774571895599365234375" lon="-3.57283358462154865264892578125">
        <ele>717.5999755859375</ele>
        <time>2019-10-29T13:56:58.000Z</time>
      </trkpt>
      <trkpt lat="37.34473885037004947662353515625" lon="-3.573023267090320587158203125">
        <ele>717.5999755859375</ele>
        <time>2019-10-29T13:57:02.000Z</time>
      </trkpt>
      <trkpt lat="37.34459602274000644683837890625" lon="-3.5731463134288787841796875">
        <ele>718.4000244140625</ele>
        <time>2019-10-29T13:57:05.000Z</time>
      </trkpt>
      <trkpt lat="37.34440407715737819671630859375" lon="-3.5733206570148468017578125">
        <ele>719</ele>
        <time>2019-10-29T13:57:09.000Z</time>
      </trkpt>
      <trkpt lat="37.34425865113735198974609375" lon="-3.57346205972135066986083984375">
        <ele>717.4000244140625</ele>
        <time>2019-10-29T13:57:12.000Z</time>
      </trkpt>
      <trkpt lat="37.34416116960346698760986328125" lon="-3.57355727814137935638427734375">
        <ele>716.4000244140625</ele>
        <time>2019-10-29T13:57:14.000Z</time>
      </trkpt>
      <trkpt lat="37.34402370639145374298095703125" lon="-3.5737151093780994415283203125">
        <ele>715</ele>
        <time>2019-10-29T13:57:17.000Z</time>
      </trkpt>
      <trkpt lat="37.34388439916074275970458984375" lon="-3.57388190925121307373046875">
        <ele>714</ele>
        <time>2019-10-29T13:57:20.000Z</time>
      </trkpt>
      <trkpt lat="37.343739978969097137451171875" lon="-3.57405717484652996063232421875">
        <ele>715</ele>
        <time>2019-10-29T13:57:23.000Z</time>
      </trkpt>
      <trkpt lat="37.34360628761351108551025390625" lon="-3.5742253996431827545166015625">
        <ele>716.4000244140625</ele>
        <time>2019-10-29T13:57:26.000Z</time>
      </trkpt>
      <trkpt lat="37.3434719257056713104248046875" lon="-3.57439127750694751739501953125">
        <ele>717.20001220703125</ele>
        <time>2019-10-29T13:57:29.000Z</time>
      </trkpt>
      <trkpt lat="37.34330772422254085540771484375" lon="-3.5745895095169544219970703125">
        <ele>717</ele>
        <time>2019-10-29T13:57:33.000Z</time>
      </trkpt>
      <trkpt lat="37.343145199120044708251953125" lon="-3.57479461468756198883056640625">
        <ele>715.79998779296875</ele>
        <time>2019-10-29T13:57:37.000Z</time>
      </trkpt>
      <trkpt lat="37.34300136566162109375" lon="-3.57497499324381351470947265625">
        <ele>716</ele>
        <time>2019-10-29T13:57:40.000Z</time>
      </trkpt>
      <trkpt lat="37.34283984638750553131103515625" lon="-3.575157634913921356201171875">
        <ele>715.79998779296875</ele>
        <time>2019-10-29T13:57:43.000Z</time>
      </trkpt>
      <trkpt lat="37.3426702804863452911376953125" lon="-3.57534497044980525970458984375">
        <ele>715.20001220703125</ele>
        <time>2019-10-29T13:57:46.000Z</time>
      </trkpt>
      <trkpt lat="37.34249769710004329681396484375" lon="-3.5755400173366069793701171875">
        <ele>713.20001220703125</ele>
        <time>2019-10-29T13:57:49.000Z</time>
      </trkpt>
      <trkpt lat="37.34232268296182155609130859375" lon="-3.57573238201439380645751953125">
        <ele>712.79998779296875</ele>
        <time>2019-10-29T13:57:52.000Z</time>
      </trkpt>
      <trkpt lat="37.3421542905271053314208984375" lon="-3.57591762207448482513427734375">
        <ele>713</ele>
        <time>2019-10-29T13:57:55.000Z</time>
      </trkpt>
      <trkpt lat="37.3420067690312862396240234375" lon="-3.57611526735126972198486328125">
        <ele>714.20001220703125</ele>
        <time>2019-10-29T13:57:58.000Z</time>
      </trkpt>
      <trkpt lat="37.34189202077686786651611328125" lon="-3.57631475664675235748291015625">
        <ele>713</ele>
        <time>2019-10-29T13:58:01.000Z</time>
      </trkpt>
      <trkpt lat="37.341740392148494720458984375" lon="-3.576540313661098480224609375">
        <ele>712.79998779296875</ele>
        <time>2019-10-29T13:58:05.000Z</time>
      </trkpt>
      <trkpt lat="37.34155758284032344818115234375" lon="-3.57671658508479595184326171875">
        <ele>713.5999755859375</ele>
        <time>2019-10-29T13:58:09.000Z</time>
      </trkpt>
      <trkpt lat="37.3413660563528537750244140625" lon="-3.57688908465206623077392578125">
        <ele>712.79998779296875</ele>
        <time>2019-10-29T13:58:13.000Z</time>
      </trkpt>
      <trkpt lat="37.341323308646678924560546875" lon="-3.5769361071288585662841796875">
        <ele>712.4000244140625</ele>
        <time>2019-10-29T13:58:14.000Z</time>
      </trkpt>
      <trkpt lat="37.34120235778391361236572265625" lon="-3.57710433192551136016845703125">
        <ele>711</ele>
        <time>2019-10-29T13:58:17.000Z</time>
      </trkpt>
      <trkpt lat="37.34106020070612430572509765625" lon="-3.57734061777591705322265625">
        <ele>710</ele>
        <time>2019-10-29T13:58:21.000Z</time>
      </trkpt>
      <trkpt lat="37.34094989486038684844970703125" lon="-3.57752040959894657135009765625">
        <ele>710.20001220703125</ele>
        <time>2019-10-29T13:58:24.000Z</time>
      </trkpt>
      <trkpt lat="37.3408044688403606414794921875" lon="-3.57775527052581310272216796875">
        <ele>709.4000244140625</ele>
        <time>2019-10-29T13:58:28.000Z</time>
      </trkpt>
      <trkpt lat="37.34066491015255451202392578125" lon="-3.57797487638890743255615234375">
        <ele>710.20001220703125</ele>
        <time>2019-10-29T13:58:32.000Z</time>
      </trkpt>
      <trkpt lat="37.3405231721699237823486328125" lon="-3.57818023301661014556884765625">
        <ele>711.4000244140625</ele>
        <time>2019-10-29T13:58:36.000Z</time>
      </trkpt>
      <trkpt lat="37.34037338756024837493896484375" lon="-3.5783672332763671875">
        <ele>713.4000244140625</ele>
        <time>2019-10-29T13:58:40.000Z</time>
      </trkpt>
      <trkpt lat="37.34020004980266094207763671875" lon="-3.57852221466600894927978515625">
        <ele>713.79998779296875</ele>
        <time>2019-10-29T13:58:44.000Z</time>
      </trkpt>
      <trkpt lat="37.340005673468112945556640625" lon="-3.57865917496383190155029296875">
        <ele>713.20001220703125</ele>
        <time>2019-10-29T13:58:48.000Z</time>
      </trkpt>
      <trkpt lat="37.3397976346313953399658203125" lon="-3.578780628740787506103515625">
        <ele>713</ele>
        <time>2019-10-29T13:58:52.000Z</time>
      </trkpt>
      <trkpt lat="37.3395820520818233489990234375" lon="-3.57888548634946346282958984375">
        <ele>713</ele>
        <time>2019-10-29T13:58:56.000Z</time>
      </trkpt>
      <trkpt lat="37.3393656313419342041015625" lon="-3.5789846442639827728271484375">
        <ele>713.20001220703125</ele>
        <time>2019-10-29T13:59:00.000Z</time>
      </trkpt>
      <trkpt lat="37.33914996497333049774169921875" lon="-3.5790900886058807373046875">
        <ele>714.5999755859375</ele>
        <time>2019-10-29T13:59:04.000Z</time>
      </trkpt>
      <trkpt lat="37.33909782953560352325439453125" lon="-3.579131327569484710693359375">
        <ele>714.4000244140625</ele>
        <time>2019-10-29T13:59:05.000Z</time>
      </trkpt>
      <trkpt lat="37.3389071412384510040283203125" lon="-3.57929033227264881134033203125">
        <ele>713.4000244140625</ele>
        <time>2019-10-29T13:59:09.000Z</time>
      </trkpt>
      <trkpt lat="37.33872382901608943939208984375" lon="-3.57944053597748279571533203125">
        <ele>713.20001220703125</ele>
        <time>2019-10-29T13:59:13.000Z</time>
      </trkpt>
      <trkpt lat="37.338539175689220428466796875" lon="-3.5795841179788112640380859375">
        <ele>713.5999755859375</ele>
        <time>2019-10-29T13:59:17.000Z</time>
      </trkpt>
      <trkpt lat="37.33835703693330287933349609375" lon="-3.57973189093172550201416015625">
        <ele>713.4000244140625</ele>
        <time>2019-10-29T13:59:21.000Z</time>
      </trkpt>
      <trkpt lat="37.3381725512444972991943359375" lon="-3.579875640571117401123046875">
        <ele>713.4000244140625</ele>
        <time>2019-10-29T13:59:25.000Z</time>
      </trkpt>
      <trkpt lat="37.33798454515635967254638671875" lon="-3.58001620508730411529541015625">
        <ele>713</ele>
        <time>2019-10-29T13:59:29.000Z</time>
      </trkpt>
      <trkpt lat="37.33782646246254444122314453125" lon="-3.58012550510466098785400390625">
        <ele>712.20001220703125</ele>
        <time>2019-10-29T13:59:32.000Z</time>
      </trkpt>
      <trkpt lat="37.3376518674194812774658203125" lon="-3.5802466236054897308349609375">
        <ele>711.4000244140625</ele>
        <time>2019-10-29T13:59:35.000Z</time>
      </trkpt>
      <trkpt lat="37.3374684713780879974365234375" lon="-3.58037645928561687469482421875">
        <ele>710.4000244140625</ele>
        <time>2019-10-29T13:59:38.000Z</time>
      </trkpt>
      <trkpt lat="37.337279208004474639892578125" lon="-3.58051090501248836517333984375">
        <ele>709.4000244140625</ele>
        <time>2019-10-29T13:59:41.000Z</time>
      </trkpt>
      <trkpt lat="37.33709924854338169097900390625" lon="-3.58065046370029449462890625">
        <ele>708.20001220703125</ele>
        <time>2019-10-29T13:59:44.000Z</time>
      </trkpt>
      <trkpt lat="37.33692205511033535003662109375" lon="-3.58078365214169025421142578125">
        <ele>706.79998779296875</ele>
        <time>2019-10-29T13:59:47.000Z</time>
      </trkpt>
      <trkpt lat="37.3367503099143505096435546875" lon="-3.58093067072331905364990234375">
        <ele>706.5999755859375</ele>
        <time>2019-10-29T13:59:50.000Z</time>
      </trkpt>
      <trkpt lat="37.33659029938280582427978515625" lon="-3.58107316307723522186279296875">
        <ele>706.79998779296875</ele>
        <time>2019-10-29T13:59:53.000Z</time>
      </trkpt>
      <trkpt lat="37.33643774874508380889892578125" lon="-3.58121448196470737457275390625">
        <ele>708.4000244140625</ele>
        <time>2019-10-29T13:59:56.000Z</time>
      </trkpt>
      <trkpt lat="37.33628536574542522430419921875" lon="-3.58136015944182872772216796875">
        <ele>709.5999755859375</ele>
        <time>2019-10-29T13:59:59.000Z</time>
      </trkpt>
      <trkpt lat="37.3361362516880035400390625" lon="-3.58149812556803226470947265625">
        <ele>709.5999755859375</ele>
        <time>2019-10-29T14:00:02.000Z</time>
      </trkpt>
      <trkpt lat="37.33598948456346988677978515625" lon="-3.58163357712328433990478515625">
        <ele>709.4000244140625</ele>
        <time>2019-10-29T14:00:05.000Z</time>
      </trkpt>
      <trkpt lat="37.33584397472441196441650390625" lon="-3.58177036978304386138916015625">
        <ele>709.20001220703125</ele>
        <time>2019-10-29T14:00:08.000Z</time>
      </trkpt>
      <trkpt lat="37.33579820953309535980224609375" lon="-3.5818227566778659820556640625">
        <ele>709</ele>
        <time>2019-10-29T14:00:09.000Z</time>
      </trkpt>
      <trkpt lat="37.3356787674129009246826171875" lon="-3.58200288377702236175537109375">
        <ele>707.20001220703125</ele>
        <time>2019-10-29T14:00:12.000Z</time>
      </trkpt>
      <trkpt lat="37.33560475520789623260498046875" lon="-3.58221611939370632171630859375">
        <ele>705</ele>
        <time>2019-10-29T14:00:15.000Z</time>
      </trkpt>
      <trkpt lat="37.3355231992900371551513671875" lon="-3.5824229009449481964111328125">
        <ele>704.4000244140625</ele>
        <time>2019-10-29T14:00:18.000Z</time>
      </trkpt>
      <trkpt lat="37.3354487679898738861083984375" lon="-3.58255072496831417083740234375">
        <ele>704.4000244140625</ele>
        <time>2019-10-29T14:00:20.000Z</time>
      </trkpt>
      <trkpt lat="37.33530719764530658721923828125" lon="-3.58270780183374881744384765625">
        <ele>704.79998779296875</ele>
        <time>2019-10-29T14:00:23.000Z</time>
      </trkpt>
      <trkpt lat="37.3351486958563327789306640625" lon="-3.58285515569150447845458984375">
        <ele>705.4000244140625</ele>
        <time>2019-10-29T14:00:26.000Z</time>
      </trkpt>
      <trkpt lat="37.33499136753380298614501953125" lon="-3.58299605548381805419921875">
        <ele>706</ele>
        <time>2019-10-29T14:00:29.000Z</time>
      </trkpt>
      <trkpt lat="37.33487804420292377471923828125" lon="-3.5830763541162014007568359375">
        <ele>706.5999755859375</ele>
        <time>2019-10-29T14:00:31.000Z</time>
      </trkpt>
      <trkpt lat="37.33469665981829166412353515625" lon="-3.58316679485142230987548828125">
        <ele>707.20001220703125</ele>
        <time>2019-10-29T14:00:34.000Z</time>
      </trkpt>
      <trkpt lat="37.3345096595585346221923828125" lon="-3.5832483507692813873291015625">
        <ele>706.79998779296875</ele>
        <time>2019-10-29T14:00:37.000Z</time>
      </trkpt>
      <trkpt lat="37.3343185521662235260009765625" lon="-3.5833314992487430572509765625">
        <ele>706.5999755859375</ele>
        <time>2019-10-29T14:00:40.000Z</time>
      </trkpt>
      <trkpt lat="37.334135659039020538330078125" lon="-3.583432249724864959716796875">
        <ele>705</ele>
        <time>2019-10-29T14:00:43.000Z</time>
      </trkpt>
      <trkpt lat="37.3339608125388622283935546875" lon="-3.58355521224439144134521484375">
        <ele>706</ele>
        <time>2019-10-29T14:00:46.000Z</time>
      </trkpt>
      <trkpt lat="37.33379535377025604248046875" lon="-3.5836892388761043548583984375">
        <ele>707.4000244140625</ele>
        <time>2019-10-29T14:00:49.000Z</time>
      </trkpt>
      <trkpt lat="37.33364640735089778900146484375" lon="-3.583834581077098846435546875">
        <ele>709.20001220703125</ele>
        <time>2019-10-29T14:00:52.000Z</time>
      </trkpt>
      <trkpt lat="37.33350492082536220550537109375" lon="-3.583987466990947723388671875">
        <ele>709.4000244140625</ele>
        <time>2019-10-29T14:00:55.000Z</time>
      </trkpt>
      <trkpt lat="37.33336712233722209930419921875" lon="-3.58413465321063995361328125">
        <ele>708.20001220703125</ele>
        <time>2019-10-29T14:00:58.000Z</time>
      </trkpt>
      <trkpt lat="37.33318389393389225006103515625" lon="-3.58431561850011348724365234375">
        <ele>707.79998779296875</ele>
        <time>2019-10-29T14:01:02.000Z</time>
      </trkpt>
      <trkpt lat="37.33300636522471904754638671875" lon="-3.58447286300361156463623046875">
        <ele>708</ele>
        <time>2019-10-29T14:01:06.000Z</time>
      </trkpt>
      <trkpt lat="37.33283017762005329132080078125" lon="-3.58460529707372188568115234375">
        <ele>707.79998779296875</ele>
        <time>2019-10-29T14:01:10.000Z</time>
      </trkpt>
      <trkpt lat="37.332649044692516326904296875" lon="-3.58472046442329883575439453125">
        <ele>707.5999755859375</ele>
        <time>2019-10-29T14:01:14.000Z</time>
      </trkpt>
      <trkpt lat="37.3324705101549625396728515625" lon="-3.5848570056259632110595703125">
        <ele>708</ele>
        <time>2019-10-29T14:01:18.000Z</time>
      </trkpt>
      <trkpt lat="37.3323055543005466461181640625" lon="-3.58501567505300045013427734375">
        <ele>709.5999755859375</ele>
        <time>2019-10-29T14:01:22.000Z</time>
      </trkpt>
      <trkpt lat="37.33222626149654388427734375" lon="-3.58524299226701259613037109375">
        <ele>709.5999755859375</ele>
        <time>2019-10-29T14:01:26.000Z</time>
      </trkpt>
      <trkpt lat="37.33222651295363903045654296875" lon="-3.58538498170673847198486328125">
        <ele>708.5999755859375</ele>
        <time>2019-10-29T14:01:28.000Z</time>
      </trkpt>
      <trkpt lat="37.33223673887550830841064453125" lon="-3.585630320012569427490234375">
        <ele>707.20001220703125</ele>
        <time>2019-10-29T14:01:31.000Z</time>
      </trkpt>
      <trkpt lat="37.332231290638446807861328125" lon="-3.58572386205196380615234375">
        <ele>707.20001220703125</ele>
        <time>2019-10-29T14:01:32.000Z</time>
      </trkpt>
      <trkpt lat="37.3321734555065631866455078125" lon="-3.58602854423224925994873046875">
        <ele>708</ele>
        <time>2019-10-29T14:01:35.000Z</time>
      </trkpt>
      <trkpt lat="37.33204093761742115020751953125" lon="-3.586309589445590972900390625">
        <ele>708</ele>
        <time>2019-10-29T14:01:38.000Z</time>
      </trkpt>
      <trkpt lat="37.33198947273194789886474609375" lon="-3.58638175763189792633056640625">
        <ele>708</ele>
        <time>2019-10-29T14:01:39.000Z</time>
      </trkpt>
      <trkpt lat="37.331824265420436859130859375" lon="-3.5865434445440769195556640625">
        <ele>706.79998779296875</ele>
        <time>2019-10-29T14:01:42.000Z</time>
      </trkpt>
      <trkpt lat="37.331674732267856597900390625" lon="-3.5866842605173587799072265625">
        <ele>705.20001220703125</ele>
        <time>2019-10-29T14:01:45.000Z</time>
      </trkpt>
      <trkpt lat="37.331501059234142303466796875" lon="-3.58688366599380970001220703125">
        <ele>704.79998779296875</ele>
        <time>2019-10-29T14:01:49.000Z</time>
      </trkpt>
      <trkpt lat="37.331334762275218963623046875" lon="-3.5870758630335330963134765625">
        <ele>705.4000244140625</ele>
        <time>2019-10-29T14:01:53.000Z</time>
      </trkpt>
      <trkpt lat="37.3311857320368289947509765625" lon="-3.5872869193553924560546875">
        <ele>705.20001220703125</ele>
        <time>2019-10-29T14:01:57.000Z</time>
      </trkpt>
      <trkpt lat="37.33106411062180995941162109375" lon="-3.58752672560513019561767578125">
        <ele>704</ele>
        <time>2019-10-29T14:02:01.000Z</time>
      </trkpt>
      <trkpt lat="37.3309543915092945098876953125" lon="-3.58775890432298183441162109375">
        <ele>704.79998779296875</ele>
        <time>2019-10-29T14:02:05.000Z</time>
      </trkpt>
      <trkpt lat="37.33084224164485931396484375" lon="-3.58797314576804637908935546875">
        <ele>705.5999755859375</ele>
        <time>2019-10-29T14:02:09.000Z</time>
      </trkpt>
      <trkpt lat="37.3306940495967864990234375" lon="-3.58817405998706817626953125">
        <ele>706</ele>
        <time>2019-10-29T14:02:13.000Z</time>
      </trkpt>
      <trkpt lat="37.330573685467243194580078125" lon="-3.58831697143614292144775390625">
        <ele>706</ele>
        <time>2019-10-29T14:02:16.000Z</time>
      </trkpt>
      <trkpt lat="37.3304313607513904571533203125" lon="-3.5885255970060825347900390625">
        <ele>705.5999755859375</ele>
        <time>2019-10-29T14:02:20.000Z</time>
      </trkpt>
      <trkpt lat="37.33040596358478069305419921875" lon="-3.58858284540474414825439453125">
        <ele>705.4000244140625</ele>
        <time>2019-10-29T14:02:21.000Z</time>
      </trkpt>
      <trkpt lat="37.33031527139246463775634765625" lon="-3.58880572021007537841796875">
        <ele>704.79998779296875</ele>
        <time>2019-10-29T14:02:25.000Z</time>
      </trkpt>
      <trkpt lat="37.33022726140916347503662109375" lon="-3.589009903371334075927734375">
        <ele>704.5999755859375</ele>
        <time>2019-10-29T14:02:29.000Z</time>
      </trkpt>
      <trkpt lat="37.3301534168422222137451171875" lon="-3.58921601437032222747802734375">
        <ele>704</ele>
        <time>2019-10-29T14:02:33.000Z</time>
      </trkpt>
      <trkpt lat="37.330060712993144989013671875" lon="-3.58942531049251556396484375">
        <ele>704</ele>
        <time>2019-10-29T14:02:37.000Z</time>
      </trkpt>
      <trkpt lat="37.330039255321025848388671875" lon="-3.58947937376797199249267578125">
        <ele>704</ele>
        <time>2019-10-29T14:02:38.000Z</time>
      </trkpt>
      <trkpt lat="37.32994764111936092376708984375" lon="-3.58972764573991298675537109375">
        <ele>705.79998779296875</ele>
        <time>2019-10-29T14:02:42.000Z</time>
      </trkpt>
      <trkpt lat="37.3298748023808002471923828125" lon="-3.58998497016727924346923828125">
        <ele>706</ele>
        <time>2019-10-29T14:02:46.000Z</time>
      </trkpt>
      <trkpt lat="37.32982409186661243438720703125" lon="-3.59023399651050567626953125">
        <ele>705</ele>
        <time>2019-10-29T14:02:50.000Z</time>
      </trkpt>
      <trkpt lat="37.32974949292838573455810546875" lon="-3.5904936678707599639892578125">
        <ele>703.4000244140625</ele>
        <time>2019-10-29T14:02:54.000Z</time>
      </trkpt>
      <trkpt lat="37.32973423786461353302001953125" lon="-3.59056617133319377899169921875">
        <ele>702.79998779296875</ele>
        <time>2019-10-29T14:02:55.000Z</time>
      </trkpt>
      <trkpt lat="37.32968486845493316650390625" lon="-3.590849898755550384521484375">
        <ele>702</ele>
        <time>2019-10-29T14:02:59.000Z</time>
      </trkpt>
      <trkpt lat="37.32965125702321529388427734375" lon="-3.5910669900476932525634765625">
        <ele>701.5999755859375</ele>
        <time>2019-10-29T14:03:02.000Z</time>
      </trkpt>
      <trkpt lat="37.32964119873940944671630859375" lon="-3.59130511991679668426513671875">
        <ele>701.79998779296875</ele>
        <time>2019-10-29T14:03:05.000Z</time>
      </trkpt>
      <trkpt lat="37.32963197864592075347900390625" lon="-3.591552637517452239990234375">
        <ele>702.20001220703125</ele>
        <time>2019-10-29T14:03:08.000Z</time>
      </trkpt>
      <trkpt lat="37.32962929643690586090087890625" lon="-3.5917978920042514801025390625">
        <ele>702.5999755859375</ele>
        <time>2019-10-29T14:03:11.000Z</time>
      </trkpt>
      <trkpt lat="37.32961454428732395172119140625" lon="-3.59203116036951541900634765625">
        <ele>702.4000244140625</ele>
        <time>2019-10-29T14:03:14.000Z</time>
      </trkpt>
      <trkpt lat="37.32959375716745853424072265625" lon="-3.592258058488368988037109375">
        <ele>701</ele>
        <time>2019-10-29T14:03:17.000Z</time>
      </trkpt>
      <trkpt lat="37.32958034612238407135009765625" lon="-3.5923306457698345184326171875">
        <ele>700.79998779296875</ele>
        <time>2019-10-29T14:03:18.000Z</time>
      </trkpt>
      <trkpt lat="37.3295334912836551666259765625" lon="-3.59260230325162410736083984375">
        <ele>700.5999755859375</ele>
        <time>2019-10-29T14:03:22.000Z</time>
      </trkpt>
      <trkpt lat="37.32949434779584407806396484375" lon="-3.59284973703324794769287109375">
        <ele>700.79998779296875</ele>
        <time>2019-10-29T14:03:26.000Z</time>
      </trkpt>
      <trkpt lat="37.329480685293674468994140625" lon="-3.59291008673608303070068359375">
        <ele>700.79998779296875</ele>
        <time>2019-10-29T14:03:27.000Z</time>
      </trkpt>
      <trkpt lat="37.329416982829570770263671875" lon="-3.5931537486612796783447265625">
        <ele>700.5999755859375</ele>
        <time>2019-10-29T14:03:31.000Z</time>
      </trkpt>
      <trkpt lat="37.3293293081223964691162109375" lon="-3.59338114969432353973388671875">
        <ele>700.5999755859375</ele>
        <time>2019-10-29T14:03:35.000Z</time>
      </trkpt>
      <trkpt lat="37.329224534332752227783203125" lon="-3.59359488822519779205322265625">
        <ele>700.4000244140625</ele>
        <time>2019-10-29T14:03:39.000Z</time>
      </trkpt>
      <trkpt lat="37.32919695787131786346435546875" lon="-3.5936482809484004974365234375">
        <ele>700.4000244140625</ele>
        <time>2019-10-29T14:03:40.000Z</time>
      </trkpt>
      <trkpt lat="37.32906586490571498870849609375" lon="-3.593820445239543914794921875">
        <ele>700.79998779296875</ele>
        <time>2019-10-29T14:03:44.000Z</time>
      </trkpt>
      <trkpt lat="37.3289222829043865203857421875" lon="-3.59396369196474552154541015625">
        <ele>701</ele>
        <time>2019-10-29T14:03:48.000Z</time>
      </trkpt>
      <trkpt lat="37.32877853326499462127685546875" lon="-3.59410333447158336639404296875">
        <ele>701.4000244140625</ele>
        <time>2019-10-29T14:03:52.000Z</time>
      </trkpt>
      <trkpt lat="37.328607626259326934814453125" lon="-3.5942635126411914825439453125">
        <ele>702.20001220703125</ele>
        <time>2019-10-29T14:03:57.000Z</time>
      </trkpt>
      <trkpt lat="37.32845105230808258056640625" lon="-3.59440960921347141265869140625">
        <ele>702.5999755859375</ele>
        <time>2019-10-29T14:04:02.000Z</time>
      </trkpt>
      <trkpt lat="37.32834803871810436248779296875" lon="-3.59451957978308200836181640625">
        <ele>703</ele>
        <time>2019-10-29T14:04:06.000Z</time>
      </trkpt>
      <trkpt lat="37.328273355960845947265625" lon="-3.59467062167823314666748046875">
        <ele>703.79998779296875</ele>
        <time>2019-10-29T14:04:10.000Z</time>
      </trkpt>
      <trkpt lat="37.32819733209908008575439453125" lon="-3.594790734350681304931640625">
        <ele>704.5999755859375</ele>
        <time>2019-10-29T14:04:14.000Z</time>
      </trkpt>
      <trkpt lat="37.3280760459601879119873046875" lon="-3.59497890807688236236572265625">
        <ele>705.5999755859375</ele>
        <time>2019-10-29T14:04:21.000Z</time>
      </trkpt>
      <trkpt lat="37.328057773411273956298828125" lon="-3.595003299415111541748046875">
        <ele>705.5999755859375</ele>
        <time>2019-10-29T14:04:22.000Z</time>
      </trkpt>
      <trkpt lat="37.3279469646513462066650390625" lon="-3.59515526331961154937744140625">
        <ele>706</ele>
        <time>2019-10-29T14:04:28.000Z</time>
      </trkpt>
      <trkpt lat="37.32776801101863384246826171875" lon="-3.5952566005289554595947265625">
        <ele>707</ele>
        <time>2019-10-29T14:04:36.000Z</time>
      </trkpt>
      <trkpt lat="37.3275704495608806610107421875" lon="-3.5953068919479846954345703125">
        <ele>709.79998779296875</ele>
        <time>2019-10-29T14:04:45.000Z</time>
      </trkpt>
      <trkpt lat="37.327519319951534271240234375" lon="-3.5953588597476482391357421875">
        <ele>710.4000244140625</ele>
        <time>2019-10-29T14:04:48.000Z</time>
      </trkpt>
      <trkpt lat="37.32748269103467464447021484375" lon="-3.59545290470123291015625">
        <ele>710.4000244140625</ele>
        <time>2019-10-29T14:04:52.000Z</time>
      </trkpt>
      <trkpt lat="37.32747732661664485931396484375" lon="-3.59547746367752552032470703125">
        <ele>710.20001220703125</ele>
        <time>2019-10-29T14:04:53.000Z</time>
      </trkpt>
      <trkpt lat="37.327365092933177947998046875" lon="-3.595660440623760223388671875">
        <ele>710.5999755859375</ele>
        <time>2019-10-29T14:05:00.000Z</time>
      </trkpt>
      <trkpt lat="37.327409684658050537109375" lon="-3.59562397934496402740478515625">
        <ele>710.4000244140625</ele>
        <time>2019-10-29T14:05:11.000Z</time>
      </trkpt>
      <trkpt lat="37.32747699134051799774169921875" lon="-3.595422394573688507080078125">
        <ele>710.79998779296875</ele>
        <time>2019-10-29T14:05:18.000Z</time>
      </trkpt>
      <trkpt lat="37.3275147937238216400146484375" lon="-3.59538911841809749603271484375">
        <ele>710.20001220703125</ele>
        <time>2019-10-29T14:05:21.000Z</time>
      </trkpt>
      <trkpt lat="37.32768603600561618804931640625" lon="-3.59528727829456329345703125">
        <ele>708</ele>
        <time>2019-10-29T14:05:27.000Z</time>
      </trkpt>
      <trkpt lat="37.32777806930243968963623046875" lon="-3.595245368778705596923828125">
        <ele>707</ele>
        <time>2019-10-29T14:05:29.000Z</time>
      </trkpt>
      <trkpt lat="37.32796691358089447021484375" lon="-3.5951751284301280975341796875">
        <ele>705.79998779296875</ele>
        <time>2019-10-29T14:05:34.000Z</time>
      </trkpt>
      <trkpt lat="37.32799365185201168060302734375" lon="-3.59541560523211956024169921875">
        <ele>704.4000244140625</ele>
        <time>2019-10-29T14:05:40.000Z</time>
      </trkpt>
      <trkpt lat="37.32792936265468597412109375" lon="-3.59568399377167224884033203125">
        <ele>702.79998779296875</ele>
        <time>2019-10-29T14:05:44.000Z</time>
      </trkpt>
      <trkpt lat="37.327795922756195068359375" lon="-3.5959268175065517425537109375">
        <ele>702</ele>
        <time>2019-10-29T14:05:48.000Z</time>
      </trkpt>
      <trkpt lat="37.32775627635419368743896484375" lon="-3.5959767736494541168212890625">
        <ele>702</ele>
        <time>2019-10-29T14:05:49.000Z</time>
      </trkpt>
      <trkpt lat="37.32758914120495319366455078125" lon="-3.596176095306873321533203125">
        <ele>702.20001220703125</ele>
        <time>2019-10-29T14:05:53.000Z</time>
      </trkpt>
      <trkpt lat="37.32745586894452571868896484375" lon="-3.5963313281536102294921875">
        <ele>701.79998779296875</ele>
        <time>2019-10-29T14:05:56.000Z</time>
      </trkpt>
      <trkpt lat="37.32724280096590518951416015625" lon="-3.59645077027380466461181640625">
        <ele>704.20001220703125</ele>
        <time>2019-10-29T14:06:00.000Z</time>
      </trkpt>
      <trkpt lat="37.327062673866748809814453125" lon="-3.5965682007372379302978515625">
        <ele>704.4000244140625</ele>
        <time>2019-10-29T14:06:04.000Z</time>
      </trkpt>
      <trkpt lat="37.32687014155089855194091796875" lon="-3.59667791984975337982177734375">
        <ele>704.5999755859375</ele>
        <time>2019-10-29T14:06:08.000Z</time>
      </trkpt>
      <trkpt lat="37.326720692217350006103515625" lon="-3.59684832394123077392578125">
        <ele>703.20001220703125</ele>
        <time>2019-10-29T14:06:12.000Z</time>
      </trkpt>
      <trkpt lat="37.32665129005908966064453125" lon="-3.5969376750290393829345703125">
        <ele>702.20001220703125</ele>
        <time>2019-10-29T14:06:14.000Z</time>
      </trkpt>
      <trkpt lat="37.3265139944851398468017578125" lon="-3.5971046425402164459228515625">
        <ele>701.4000244140625</ele>
        <time>2019-10-29T14:06:18.000Z</time>
      </trkpt>
      <trkpt lat="37.32647988013923168182373046875" lon="-3.597141019999980926513671875">
        <ele>701.20001220703125</ele>
        <time>2019-10-29T14:06:19.000Z</time>
      </trkpt>
      <trkpt lat="37.32641668058931827545166015625" lon="-3.59721369110047817230224609375">
        <ele>700.79998779296875</ele>
        <time>2019-10-29T14:06:21.000Z</time>
      </trkpt>
      <trkpt lat="37.32626312412321567535400390625" lon="-3.59738669358193874359130859375">
        <ele>700.5999755859375</ele>
        <time>2019-10-29T14:06:26.000Z</time>
      </trkpt>
      <trkpt lat="37.32611794956028461456298828125" lon="-3.59756237827241420745849609375">
        <ele>700.5999755859375</ele>
        <time>2019-10-29T14:06:31.000Z</time>
      </trkpt>
      <trkpt lat="37.3260382376611232757568359375" lon="-3.5976578481495380401611328125">
        <ele>701.20001220703125</ele>
        <time>2019-10-29T14:06:34.000Z</time>
      </trkpt>
      <trkpt lat="37.32598836533725261688232421875" lon="-3.59772247262299060821533203125">
        <ele>701.5999755859375</ele>
        <time>2019-10-29T14:06:36.000Z</time>
      </trkpt>
      <trkpt lat="37.32584419660270214080810546875" lon="-3.59788759611546993255615234375">
        <ele>702.5999755859375</ele>
        <time>2019-10-29T14:06:42.000Z</time>
      </trkpt>
      <trkpt lat="37.3257978446781635284423828125" lon="-3.59795297496020793914794921875">
        <ele>703</ele>
        <time>2019-10-29T14:06:44.000Z</time>
      </trkpt>
      <trkpt lat="37.32575199566781520843505859375" lon="-3.59815397299826145172119140625">
        <ele>703</ele>
        <time>2019-10-29T14:06:49.000Z</time>
      </trkpt>
      <trkpt lat="37.325724922120571136474609375" lon="-3.598320186138153076171875">
        <ele>702.5999755859375</ele>
        <time>2019-10-29T14:06:53.000Z</time>
      </trkpt>
      <trkpt lat="37.32571461237967014312744140625" lon="-3.59840492717921733856201171875">
        <ele>702.5999755859375</ele>
        <time>2019-10-29T14:06:55.000Z</time>
      </trkpt>
      <trkpt lat="37.32568125240504741668701171875" lon="-3.5986700467765331268310546875">
        <ele>702</ele>
        <time>2019-10-29T14:07:00.000Z</time>
      </trkpt>
      <trkpt lat="37.3256546817719936370849609375" lon="-3.5989094339311122894287109375">
        <ele>701.4000244140625</ele>
        <time>2019-10-29T14:07:04.000Z</time>
      </trkpt>
      <trkpt lat="37.32560816220939159393310546875" lon="-3.59915728680789470672607421875">
        <ele>701.20001220703125</ele>
        <time>2019-10-29T14:07:08.000Z</time>
      </trkpt>
      <trkpt lat="37.32560212723910808563232421875" lon="-3.5992202349007129669189453125">
        <ele>701.4000244140625</ele>
        <time>2019-10-29T14:07:09.000Z</time>
      </trkpt>
      <trkpt lat="37.3255879618227481842041015625" lon="-3.59946724958717823028564453125">
        <ele>701.4000244140625</ele>
        <time>2019-10-29T14:07:13.000Z</time>
      </trkpt>
      <trkpt lat="37.32556206174194812774658203125" lon="-3.5997241549193859100341796875">
        <ele>702.4000244140625</ele>
        <time>2019-10-29T14:07:17.000Z</time>
      </trkpt>
      <trkpt lat="37.3255725391209125518798828125" lon="-3.5999871790409088134765625">
        <ele>702.20001220703125</ele>
        <time>2019-10-29T14:07:21.000Z</time>
      </trkpt>
      <trkpt lat="37.32564085163176059722900390625" lon="-3.60021625645458698272705078125">
        <ele>700.79998779296875</ele>
        <time>2019-10-29T14:07:25.000Z</time>
      </trkpt>
      <trkpt lat="37.325701452791690826416015625" lon="-3.60041205771267414093017578125">
        <ele>699.5999755859375</ele>
        <time>2019-10-29T14:07:29.000Z</time>
      </trkpt>
      <trkpt lat="37.3257802426815032958984375" lon="-3.6006491817533969879150390625">
        <ele>699</ele>
        <time>2019-10-29T14:07:34.000Z</time>
      </trkpt>
      <trkpt lat="37.3258216492831707000732421875" lon="-3.60080164857208728790283203125">
        <ele>698.79998779296875</ele>
        <time>2019-10-29T14:07:37.000Z</time>
      </trkpt>
      <trkpt lat="37.32588174752891063690185546875" lon="-3.60100532881915569305419921875">
        <ele>699.5999755859375</ele>
        <time>2019-10-29T14:07:41.000Z</time>
      </trkpt>
      <trkpt lat="37.325966320931911468505859375" lon="-3.60125921666622161865234375">
        <ele>701.20001220703125</ele>
        <time>2019-10-29T14:07:46.000Z</time>
      </trkpt>
      <trkpt lat="37.32601803727447986602783203125" lon="-3.60148158855736255645751953125">
        <ele>701.5999755859375</ele>
        <time>2019-10-29T14:07:50.000Z</time>
      </trkpt>
      <trkpt lat="37.326072938740253448486328125" lon="-3.6017498932778835296630859375">
        <ele>702.79998779296875</ele>
        <time>2019-10-29T14:07:55.000Z</time>
      </trkpt>
      <trkpt lat="37.32608190737664699554443359375" lon="-3.60180395655333995819091796875">
        <ele>702.79998779296875</ele>
        <time>2019-10-29T14:07:56.000Z</time>
      </trkpt>
      <trkpt lat="37.32611610554158687591552734375" lon="-3.60203496180474758148193359375">
        <ele>702.4000244140625</ele>
        <time>2019-10-29T14:08:00.000Z</time>
      </trkpt>
      <trkpt lat="37.32614410109817981719970703125" lon="-3.6022766120731830596923828125">
        <ele>701.20001220703125</ele>
        <time>2019-10-29T14:08:04.000Z</time>
      </trkpt>
      <trkpt lat="37.3261676542460918426513671875" lon="-3.60252228565514087677001953125">
        <ele>700</ele>
        <time>2019-10-29T14:08:09.000Z</time>
      </trkpt>
      <trkpt lat="37.32620947994291782379150390625" lon="-3.60277156345546245574951171875">
        <ele>699.5999755859375</ele>
        <time>2019-10-29T14:08:15.000Z</time>
      </trkpt>
      <trkpt lat="37.3261783830821514129638671875" lon="-3.60299552790820598602294921875">
        <ele>699.4000244140625</ele>
        <time>2019-10-29T14:08:20.000Z</time>
      </trkpt>
      <trkpt lat="37.3260851763188838958740234375" lon="-3.6031895689666271209716796875">
        <ele>699.4000244140625</ele>
        <time>2019-10-29T14:08:24.000Z</time>
      </trkpt>
      <trkpt lat="37.32598132453858852386474609375" lon="-3.60340171493589878082275390625">
        <ele>699</ele>
        <time>2019-10-29T14:08:28.000Z</time>
      </trkpt>
      <trkpt lat="37.3258883692324161529541015625" lon="-3.60361478291451930999755859375">
        <ele>697.5999755859375</ele>
        <time>2019-10-29T14:08:32.000Z</time>
      </trkpt>
      <trkpt lat="37.32586272060871124267578125" lon="-3.60372827388346195220947265625">
        <ele>697.20001220703125</ele>
        <time>2019-10-29T14:08:34.000Z</time>
      </trkpt>
      <trkpt lat="37.325828187167644500732421875" lon="-3.603968583047389984130859375">
        <ele>696.5999755859375</ele>
        <time>2019-10-29T14:08:38.000Z</time>
      </trkpt>
      <trkpt lat="37.325779236853122711181640625" lon="-3.60413714312016963958740234375">
        <ele>697</ele>
        <time>2019-10-29T14:08:41.000Z</time>
      </trkpt>
      <trkpt lat="37.32572031207382678985595703125" lon="-3.60436295159161090850830078125">
        <ele>697.4000244140625</ele>
        <time>2019-10-29T14:08:45.000Z</time>
      </trkpt>
      <trkpt lat="37.3256821744143962860107421875" lon="-3.6045192740857601165771484375">
        <ele>697</ele>
        <time>2019-10-29T14:08:48.000Z</time>
      </trkpt>
      <trkpt lat="37.32566080056130886077880859375" lon="-3.60461893491446971893310546875">
        <ele>696.20001220703125</ele>
        <time>2019-10-29T14:08:50.000Z</time>
      </trkpt>
      <trkpt lat="37.3256219923496246337890625" lon="-3.60488153994083404541015625">
        <ele>694.79998779296875</ele>
        <time>2019-10-29T14:08:55.000Z</time>
      </trkpt>
      <trkpt lat="37.3255909793078899383544921875" lon="-3.6051445640623569488525390625">
        <ele>693.4000244140625</ele>
        <time>2019-10-29T14:09:00.000Z</time>
      </trkpt>
      <trkpt lat="37.325582765042781829833984375" lon="-3.60519661568105220794677734375">
        <ele>693.4000244140625</ele>
        <time>2019-10-29T14:09:01.000Z</time>
      </trkpt>
      <trkpt lat="37.325537167489528656005859375" lon="-3.60546248964965343475341796875">
        <ele>693</ele>
        <time>2019-10-29T14:09:06.000Z</time>
      </trkpt>
      <trkpt lat="37.32552467845380306243896484375" lon="-3.605514205992221832275390625">
        <ele>693</ele>
        <time>2019-10-29T14:09:07.000Z</time>
      </trkpt>
      <trkpt lat="37.32545041479170322418212890625" lon="-3.6057715304195880889892578125">
        <ele>694</ele>
        <time>2019-10-29T14:09:12.000Z</time>
      </trkpt>
      <trkpt lat="37.3253904841840267181396484375" lon="-3.60599356703460216522216796875">
        <ele>694.4000244140625</ele>
        <time>2019-10-29T14:09:16.000Z</time>
      </trkpt>
      <trkpt lat="37.32537078671157360076904296875" lon="-3.6061058007180690765380859375">
        <ele>694.20001220703125</ele>
        <time>2019-10-29T14:09:18.000Z</time>
      </trkpt>
      <trkpt lat="37.325344383716583251953125" lon="-3.60634108074009418487548828125">
        <ele>693.79998779296875</ele>
        <time>2019-10-29T14:09:22.000Z</time>
      </trkpt>
      <trkpt lat="37.32529811561107635498046875" lon="-3.606579713523387908935546875">
        <ele>694</ele>
        <time>2019-10-29T14:09:26.000Z</time>
      </trkpt>
      <trkpt lat="37.3252603970468044281005859375" lon="-3.60684751532971858978271484375">
        <ele>695.20001220703125</ele>
        <time>2019-10-29T14:09:31.000Z</time>
      </trkpt>
      <trkpt lat="37.325259558856487274169921875" lon="-3.6069034226238727569580078125">
        <ele>695.4000244140625</ele>
        <time>2019-10-29T14:09:32.000Z</time>
      </trkpt>
      <trkpt lat="37.3252590559422969818115234375" lon="-3.60714641399681568145751953125">
        <ele>695.5999755859375</ele>
        <time>2019-10-29T14:09:36.000Z</time>
      </trkpt>
      <trkpt lat="37.32525846920907497406005859375" lon="-3.6073379404842853546142578125">
        <ele>696</ele>
        <time>2019-10-29T14:09:39.000Z</time>
      </trkpt>
      <trkpt lat="37.32525344006717205047607421875" lon="-3.6075156368315219879150390625">
        <ele>696.5999755859375</ele>
        <time>2019-10-29T14:09:42.000Z</time>
      </trkpt>
      <trkpt lat="37.3252734728157520294189453125" lon="-3.60772334039211273193359375">
        <ele>697</ele>
        <time>2019-10-29T14:09:46.000Z</time>
      </trkpt>
      <trkpt lat="37.32529451139271259307861328125" lon="-3.6078660003840923309326171875">
        <ele>696.79998779296875</ele>
        <time>2019-10-29T14:09:49.000Z</time>
      </trkpt>
      <trkpt lat="37.32536005787551403045654296875" lon="-3.6080968379974365234375">
        <ele>695.5999755859375</ele>
        <time>2019-10-29T14:09:54.000Z</time>
      </trkpt>
      <trkpt lat="37.325432561337947845458984375" lon="-3.6083209700882434844970703125">
        <ele>695.20001220703125</ele>
        <time>2019-10-29T14:09:59.000Z</time>
      </trkpt>
      <trkpt lat="37.32552132569253444671630859375" lon="-3.6085432581603527069091796875">
        <ele>695.20001220703125</ele>
        <time>2019-10-29T14:10:04.000Z</time>
      </trkpt>
      <trkpt lat="37.325537167489528656005859375" lon="-3.60858893953263759613037109375">
        <ele>695.4000244140625</ele>
        <time>2019-10-29T14:10:05.000Z</time>
      </trkpt>
      <trkpt lat="37.3255638219416141510009765625" lon="-3.6086823977530002593994140625">
        <ele>696</ele>
        <time>2019-10-29T14:10:07.000Z</time>
      </trkpt>
      <trkpt lat="37.32565510086715221405029296875" lon="-3.60892371274530887603759765625">
        <ele>696</ele>
        <time>2019-10-29T14:10:12.000Z</time>
      </trkpt>
      <trkpt lat="37.32568443752825260162353515625" lon="-3.6090270616114139556884765625">
        <ele>695.5999755859375</ele>
        <time>2019-10-29T14:10:14.000Z</time>
      </trkpt>
      <trkpt lat="37.32571377418935298919677734375" lon="-3.60923266969621181488037109375">
        <ele>694.5999755859375</ele>
        <time>2019-10-29T14:10:18.000Z</time>
      </trkpt>
      <trkpt lat="37.3256623931229114532470703125" lon="-3.6094005592167377471923828125">
        <ele>694.5999755859375</ele>
        <time>2019-10-29T14:10:22.000Z</time>
      </trkpt>
      <trkpt lat="37.3255353234708309173583984375" lon="-3.60955118201673030853271484375">
        <ele>695.4000244140625</ele>
        <time>2019-10-29T14:10:27.000Z</time>
      </trkpt>
      <trkpt lat="37.3254491575062274932861328125" lon="-3.609649837017059326171875">
        <ele>696.4000244140625</ele>
        <time>2019-10-29T14:10:31.000Z</time>
      </trkpt>
      <trkpt lat="37.32546147890388965606689453125" lon="-3.60989601351320743560791015625">
        <ele>695</ele>
        <time>2019-10-29T14:10:36.000Z</time>
      </trkpt>
      <trkpt lat="37.3254773207008838653564453125" lon="-3.61012123525142669677734375">
        <ele>693.5999755859375</ele>
        <time>2019-10-29T14:10:42.000Z</time>
      </trkpt>
      <trkpt lat="37.325460724532604217529296875" lon="-3.61034712754189968109130859375">
        <ele>693.79998779296875</ele>
        <time>2019-10-29T14:10:51.000Z</time>
      </trkpt>
      <trkpt lat="37.32547254301607608795166015625" lon="-3.61059221439063549041748046875">
        <ele>694.4000244140625</ele>
        <time>2019-10-29T14:10:59.000Z</time>
      </trkpt>
      <trkpt lat="37.3254548572003841400146484375" lon="-3.61082623712718486785888671875">
        <ele>694</ele>
        <time>2019-10-29T14:11:05.000Z</time>
      </trkpt>
      <trkpt lat="37.32542376033961772918701171875" lon="-3.6110861599445343017578125">
        <ele>693</ele>
        <time>2019-10-29T14:11:11.000Z</time>
      </trkpt>
      <trkpt lat="37.3253941722214221954345703125" lon="-3.61132646910846233367919921875">
        <ele>692.5999755859375</ele>
        <time>2019-10-29T14:11:16.000Z</time>
      </trkpt>
      <trkpt lat="37.32534178532660007476806640625" lon="-3.61157993786036968231201171875">
        <ele>693.4000244140625</ele>
        <time>2019-10-29T14:11:22.000Z</time>
      </trkpt>
      <trkpt lat="37.3253130353987216949462890625" lon="-3.611829467117786407470703125">
        <ele>693.4000244140625</ele>
        <time>2019-10-29T14:11:29.000Z</time>
      </trkpt>
      <trkpt lat="37.32530239038169384002685546875" lon="-3.6120827682316303253173828125">
        <ele>692.79998779296875</ele>
        <time>2019-10-29T14:11:35.000Z</time>
      </trkpt>
      <trkpt lat="37.32531596906483173370361328125" lon="-3.61234252341091632843017578125">
        <ele>691.79998779296875</ele>
        <time>2019-10-29T14:11:41.000Z</time>
      </trkpt>
      <trkpt lat="37.32529467903077602386474609375" lon="-3.612593226134777069091796875">
        <ele>692.20001220703125</ele>
        <time>2019-10-29T14:11:48.000Z</time>
      </trkpt>
      <trkpt lat="37.32522209174931049346923828125" lon="-3.61280118115246295928955078125">
        <ele>693.20001220703125</ele>
        <time>2019-10-29T14:11:53.000Z</time>
      </trkpt>
      <trkpt lat="37.3251561261713504791259765625" lon="-3.61303922720253467559814453125">
        <ele>693.79998779296875</ele>
        <time>2019-10-29T14:11:58.000Z</time>
      </trkpt>
      <trkpt lat="37.3251075111329555511474609375" lon="-3.613271825015544891357421875">
        <ele>694</ele>
        <time>2019-10-29T14:12:04.000Z</time>
      </trkpt>
      <trkpt lat="37.32507943175733089447021484375" lon="-3.613510541617870330810546875">
        <ele>694.20001220703125</ele>
        <time>2019-10-29T14:12:09.000Z</time>
      </trkpt>
      <trkpt lat="37.3250679485499858856201171875" lon="-3.6136369407176971435546875">
        <ele>694.4000244140625</ele>
        <time>2019-10-29T14:12:15.000Z</time>
      </trkpt>
      <trkpt lat="37.32506484724581241607666015625" lon="-3.613654710352420806884765625">
        <ele>694.5999755859375</ele>
        <time>2019-10-29T14:12:17.000Z</time>
      </trkpt>
      <trkpt lat="37.3249050043523311614990234375" lon="-3.61418478190898895263671875">
        <ele>694</ele>
        <time>2019-10-29T14:13:20.000Z</time>
      </trkpt>
      <trkpt lat="37.3248627595603466033935546875" lon="-3.614302463829517364501953125">
        <ele>693.79998779296875</ele>
        <time>2019-10-29T14:13:30.000Z</time>
      </trkpt>
      <trkpt lat="37.32486083172261714935302734375" lon="-3.6143173836171627044677734375">
        <ele>693.79998779296875</ele>
        <time>2019-10-29T14:13:33.000Z</time>
      </trkpt>
      <trkpt lat="37.3248818702995777130126953125" lon="-3.61463882960379123687744140625">
        <ele>692.79998779296875</ele>
        <time>2019-10-29T14:15:30.000Z</time>
      </trkpt>
      <trkpt lat="37.32489268295466899871826171875" lon="-3.61478266306221485137939453125">
        <ele>693.4000244140625</ele>
        <time>2019-10-29T14:15:34.000Z</time>
      </trkpt>
      <trkpt lat="37.32498035766184329986572265625" lon="-3.61501635052263736724853515625">
        <ele>694.5999755859375</ele>
        <time>2019-10-29T14:15:40.000Z</time>
      </trkpt>
      <trkpt lat="37.3250857181847095489501953125" lon="-3.61523495055735111236572265625">
        <ele>694.79998779296875</ele>
        <time>2019-10-29T14:15:46.000Z</time>
      </trkpt>
      <trkpt lat="37.32510088942945003509521484375" lon="-3.615486323833465576171875">
        <ele>694</ele>
        <time>2019-10-29T14:15:52.000Z</time>
      </trkpt>
      <trkpt lat="37.32505931518971920013427734375" lon="-3.6157349310815334320068359375">
        <ele>692</ele>
        <time>2019-10-29T14:15:58.000Z</time>
      </trkpt>
      <trkpt lat="37.32499762438237667083740234375" lon="-3.61595931462943553924560546875">
        <ele>690</ele>
        <time>2019-10-29T14:16:04.000Z</time>
      </trkpt>
      <trkpt lat="37.3248892463743686676025390625" lon="-3.61616852693259716033935546875">
        <ele>688.79998779296875</ele>
        <time>2019-10-29T14:16:10.000Z</time>
      </trkpt>
      <trkpt lat="37.32475907541811466217041015625" lon="-3.616349659860134124755859375">
        <ele>688.5999755859375</ele>
        <time>2019-10-29T14:16:16.000Z</time>
      </trkpt>
      <trkpt lat="37.3245787806808948516845703125" lon="-3.61649223603308200836181640625">
        <ele>689.5999755859375</ele>
        <time>2019-10-29T14:16:23.000Z</time>
      </trkpt>
      <trkpt lat="37.32439764775335788726806640625" lon="-3.61658393405377864837646484375">
        <ele>691.4000244140625</ele>
        <time>2019-10-29T14:16:28.000Z</time>
      </trkpt>
      <trkpt lat="37.32419514097273349761962890625" lon="-3.61664528958499431610107421875">
        <ele>692.4000244140625</ele>
        <time>2019-10-29T14:16:33.000Z</time>
      </trkpt>
      <trkpt lat="37.3240155167877674102783203125" lon="-3.6166767217218875885009765625">
        <ele>693.5999755859375</ele>
        <time>2019-10-29T14:16:38.000Z</time>
      </trkpt>
      <trkpt lat="37.323801778256893157958984375" lon="-3.616714775562286376953125">
        <ele>695</ele>
        <time>2019-10-29T14:16:44.000Z</time>
      </trkpt>
      <trkpt lat="37.32361008413136005401611328125" lon="-3.6167498119175434112548828125">
        <ele>695</ele>
        <time>2019-10-29T14:16:52.000Z</time>
      </trkpt>
      <trkpt lat="37.3235347308218479156494140625" lon="-3.61676515080034732818603515625">
        <ele>695.20001220703125</ele>
        <time>2019-10-29T14:16:57.000Z</time>
      </trkpt>
      <trkpt lat="37.32353682629764080047607421875" lon="-3.616768084466457366943359375">
        <ele>695</ele>
        <time>2019-10-29T14:17:00.000Z</time>
      </trkpt>
      <trkpt lat="37.32336767949163913726806640625" lon="-3.61688953824341297149658203125">
        <ele>694</ele>
        <time>2019-10-29T14:17:44.000Z</time>
      </trkpt>
      <trkpt lat="37.32322082854807376861572265625" lon="-3.6169928871095180511474609375">
        <ele>692.79998779296875</ele>
        <time>2019-10-29T14:17:51.000Z</time>
      </trkpt>
      <trkpt lat="37.32305821962654590606689453125" lon="-3.61714803613722324371337890625">
        <ele>691.20001220703125</ele>
        <time>2019-10-29T14:17:59.000Z</time>
      </trkpt>
      <trkpt lat="37.322898544371128082275390625" lon="-3.61726068891584873199462890625">
        <ele>690.4000244140625</ele>
        <time>2019-10-29T14:18:05.000Z</time>
      </trkpt>
      <trkpt lat="37.3227627575397491455078125" lon="-3.617427907884120941162109375">
        <ele>689.5999755859375</ele>
        <time>2019-10-29T14:18:11.000Z</time>
      </trkpt>
      <trkpt lat="37.32266058214008808135986328125" lon="-3.6176342703402042388916015625">
        <ele>689.20001220703125</ele>
        <time>2019-10-29T14:18:17.000Z</time>
      </trkpt>
      <trkpt lat="37.32255044393241405487060546875" lon="-3.61784004606306552886962890625">
        <ele>689.5999755859375</ele>
        <time>2019-10-29T14:18:23.000Z</time>
      </trkpt>
      <trkpt lat="37.32243997044861316680908203125" lon="-3.61802914179861545562744140625">
        <ele>690</ele>
        <time>2019-10-29T14:18:28.000Z</time>
      </trkpt>
      <trkpt lat="37.32230837456881999969482421875" lon="-3.61822024919092655181884765625">
        <ele>690</ele>
        <time>2019-10-29T14:18:33.000Z</time>
      </trkpt>
      <trkpt lat="37.32213369570672512054443359375" lon="-3.61835922114551067352294921875">
        <ele>690</ele>
        <time>2019-10-29T14:18:39.000Z</time>
      </trkpt>
      <trkpt lat="37.32194803655147552490234375" lon="-3.618483357131481170654296875">
        <ele>689.5999755859375</ele>
        <time>2019-10-29T14:18:45.000Z</time>
      </trkpt>
      <trkpt lat="37.321779392659664154052734375" lon="-3.61858896911144256591796875">
        <ele>689.20001220703125</ele>
        <time>2019-10-29T14:18:50.000Z</time>
      </trkpt>
      <trkpt lat="37.32162592001259326934814453125" lon="-3.61872333101928234100341796875">
        <ele>688.79998779296875</ele>
        <time>2019-10-29T14:18:55.000Z</time>
      </trkpt>
      <trkpt lat="37.32147395610809326171875" lon="-3.61888560466468334197998046875">
        <ele>688.20001220703125</ele>
        <time>2019-10-29T14:19:01.000Z</time>
      </trkpt>
      <trkpt lat="37.32134546153247356414794921875" lon="-3.61905374564230442047119140625">
        <ele>688</ele>
        <time>2019-10-29T14:19:07.000Z</time>
      </trkpt>
      <trkpt lat="37.32120263390243053436279296875" lon="-3.61920319497585296630859375">
        <ele>689.4000244140625</ele>
        <time>2019-10-29T14:19:13.000Z</time>
      </trkpt>
      <trkpt lat="37.32106961309909820556640625" lon="-3.61941785551607608795166015625">
        <ele>691</ele>
        <time>2019-10-29T14:19:19.000Z</time>
      </trkpt>
      <trkpt lat="37.32096173800528049468994140625" lon="-3.6196291632950305938720703125">
        <ele>691.5999755859375</ele>
        <time>2019-10-29T14:19:24.000Z</time>
      </trkpt>
      <trkpt lat="37.32085076160728931427001953125" lon="-3.61983527429401874542236328125">
        <ele>691.79998779296875</ele>
        <time>2019-10-29T14:19:29.000Z</time>
      </trkpt>
      <trkpt lat="37.32071447186172008514404296875" lon="-3.619992434978485107421875">
        <ele>691.79998779296875</ele>
        <time>2019-10-29T14:19:34.000Z</time>
      </trkpt>
      <trkpt lat="37.3205675370991230010986328125" lon="-3.6201384477317333221435546875">
        <ele>691.79998779296875</ele>
        <time>2019-10-29T14:19:40.000Z</time>
      </trkpt>
      <trkpt lat="37.32044943608343601226806640625" lon="-3.62032569944858551025390625">
        <ele>691.5999755859375</ele>
        <time>2019-10-29T14:19:47.000Z</time>
      </trkpt>
      <trkpt lat="37.32028431259095668792724609375" lon="-3.62042586319148540496826171875">
        <ele>693.4000244140625</ele>
        <time>2019-10-29T14:19:55.000Z</time>
      </trkpt>
      <trkpt lat="37.32021206058561801910400390625" lon="-3.6204417049884796142578125">
        <ele>694.20001220703125</ele>
        <time>2019-10-29T14:19:59.000Z</time>
      </trkpt>
      <trkpt lat="37.32016864232718944549560546875" lon="-3.62051404081284999847412109375">
        <ele>694.5999755859375</ele>
        <time>2019-10-29T14:20:05.000Z</time>
      </trkpt>
      <trkpt lat="37.32012388296425342559814453125" lon="-3.62069559283554553985595703125">
        <ele>694.79998779296875</ele>
        <time>2019-10-29T14:20:16.000Z</time>
      </trkpt>
      <trkpt lat="37.3201108910143375396728515625" lon="-3.620769940316677093505859375">
        <ele>694.79998779296875</ele>
        <time>2019-10-29T14:20:22.000Z</time>
      </trkpt>
      <trkpt lat="37.3201149143278598785400390625" lon="-3.6207717843353748321533203125">
        <ele>694.79998779296875</ele>
        <time>2019-10-29T14:20:24.000Z</time>
      </trkpt>
      <trkpt lat="37.3200850747525691986083984375" lon="-3.62089625559747219085693359375">
        <ele>695</ele>
        <time>2019-10-29T14:20:40.000Z</time>
      </trkpt>
      <trkpt lat="37.320061437785625457763671875" lon="-3.62097873352468013763427734375">
        <ele>695.20001220703125</ele>
        <time>2019-10-29T14:20:44.000Z</time>
      </trkpt>
      <trkpt lat="37.320061437785625457763671875" lon="-3.6209853552281856536865234375">
        <ele>695.20001220703125</ele>
        <time>2019-10-29T14:20:48.000Z</time>
      </trkpt>
      <trkpt lat="37.32008784078061580657958984375" lon="-3.62071520648896694183349609375">
        <ele>695</ele>
        <time>2019-10-29T14:21:42.000Z</time>
      </trkpt>
      <trkpt lat="37.3201169259846210479736328125" lon="-3.6205746419727802276611328125">
        <ele>695.20001220703125</ele>
        <time>2019-10-29T14:21:51.000Z</time>
      </trkpt>
      <trkpt lat="37.3201169259846210479736328125" lon="-3.6205758154392242431640625">
        <ele>695.20001220703125</ele>
        <time>2019-10-29T14:21:54.000Z</time>
      </trkpt>
      <trkpt lat="37.32018440030515193939208984375" lon="-3.62047548405826091766357421875">
        <ele>694.4000244140625</ele>
        <time>2019-10-29T14:23:55.000Z</time>
      </trkpt>
      <trkpt lat="37.320168726146221160888671875" lon="-3.62035595811903476715087890625">
        <ele>694.5999755859375</ele>
        <time>2019-10-29T14:24:04.000Z</time>
      </trkpt>
      <trkpt lat="37.3200532235205173492431640625" lon="-3.62033114768564701080322265625">
        <ele>696.4000244140625</ele>
        <time>2019-10-29T14:24:10.000Z</time>
      </trkpt>
      <trkpt lat="37.31990142725408077239990234375" lon="-3.62045788206160068511962890625">
        <ele>698.20001220703125</ele>
        <time>2019-10-29T14:24:17.000Z</time>
      </trkpt>
      <trkpt lat="37.31975440867245197296142578125" lon="-3.6206294596195220947265625">
        <ele>699.5999755859375</ele>
        <time>2019-10-29T14:24:26.000Z</time>
      </trkpt>
      <trkpt lat="37.31963119469583034515380859375" lon="-3.6208254285156726837158203125">
        <ele>700.4000244140625</ele>
        <time>2019-10-29T14:24:35.000Z</time>
      </trkpt>
      <trkpt lat="37.31952130794525146484375" lon="-3.62100966274738311767578125">
        <ele>701.79998779296875</ele>
        <time>2019-10-29T14:24:43.000Z</time>
      </trkpt>
      <trkpt lat="37.31941913254559040069580078125" lon="-3.6212160252034664154052734375">
        <ele>703.5999755859375</ele>
        <time>2019-10-29T14:24:51.000Z</time>
      </trkpt>
      <trkpt lat="37.31925132684409618377685546875" lon="-3.62133529968559741973876953125">
        <ele>706</ele>
        <time>2019-10-29T14:25:00.000Z</time>
      </trkpt>
      <trkpt lat="37.3190668411552906036376953125" lon="-3.62135021947324275970458984375">
        <ele>709.20001220703125</ele>
        <time>2019-10-29T14:25:09.000Z</time>
      </trkpt>
      <trkpt lat="37.3189857043325901031494140625" lon="-3.621370084583759307861328125">
        <ele>710.20001220703125</ele>
        <time>2019-10-29T14:25:14.000Z</time>
      </trkpt>
      <trkpt lat="37.31898612342774868011474609375" lon="-3.62136832438409328460693359375">
        <ele>710.20001220703125</ele>
        <time>2019-10-29T14:25:17.000Z</time>
      </trkpt>
      <trkpt lat="37.318465523421764373779296875" lon="-3.62253776751458644866943359375">
        <ele>723</ele>
        <time>2019-10-29T14:27:22.000Z</time>
      </trkpt>
      <trkpt lat="37.3183510266244411468505859375" lon="-3.62267405726015567779541015625">
        <ele>722.20001220703125</ele>
        <time>2019-10-29T14:27:28.000Z</time>
      </trkpt>
      <trkpt lat="37.31820442713797092437744140625" lon="-3.62283264286816120147705078125">
        <ele>721.5999755859375</ele>
        <time>2019-10-29T14:27:38.000Z</time>
      </trkpt>
      <trkpt lat="37.31802170164883136749267578125" lon="-3.62290464341640472412109375">
        <ele>722.79998779296875</ele>
        <time>2019-10-29T14:27:47.000Z</time>
      </trkpt>
      <trkpt lat="37.317876107990741729736328125" lon="-3.62306733615696430206298828125">
        <ele>727.20001220703125</ele>
        <time>2019-10-29T14:27:57.000Z</time>
      </trkpt>
      <trkpt lat="37.31780804693698883056640625" lon="-3.62328878603875637054443359375">
        <ele>729.4000244140625</ele>
        <time>2019-10-29T14:28:06.000Z</time>
      </trkpt>
      <trkpt lat="37.3178115673363208770751953125" lon="-3.62351476214826107025146484375">
        <ele>728</ele>
        <time>2019-10-29T14:28:14.000Z</time>
      </trkpt>
      <trkpt lat="37.3177941329777240753173828125" lon="-3.62376697361469268798828125">
        <ele>728.4000244140625</ele>
        <time>2019-10-29T14:28:23.000Z</time>
      </trkpt>
      <trkpt lat="37.31775532476603984832763671875" lon="-3.6239954642951488494873046875">
        <ele>730.4000244140625</ele>
        <time>2019-10-29T14:28:31.000Z</time>
      </trkpt>
      <trkpt lat="37.317677624523639678955078125" lon="-3.62422454170882701873779296875">
        <ele>733.79998779296875</ele>
        <time>2019-10-29T14:28:40.000Z</time>
      </trkpt>
      <trkpt lat="37.317597828805446624755859375" lon="-3.6244370229542255401611328125">
        <ele>736.20001220703125</ele>
        <time>2019-10-29T14:28:49.000Z</time>
      </trkpt>
      <trkpt lat="37.3175386525690555572509765625" lon="-3.62465956248342990875244140625">
        <ele>737.79998779296875</ele>
        <time>2019-10-29T14:28:58.000Z</time>
      </trkpt>
      <trkpt lat="37.3175034485757350921630859375" lon="-3.6247984506189823150634765625">
        <ele>738.4000244140625</ele>
        <time>2019-10-29T14:29:05.000Z</time>
      </trkpt>
      <trkpt lat="37.31750235892832279205322265625" lon="-3.62479920499026775360107421875">
        <ele>738.4000244140625</ele>
        <time>2019-10-29T14:29:08.000Z</time>
      </trkpt>
      <trkpt lat="37.317474782466888427734375" lon="-3.624890148639678955078125">
        <ele>739</ele>
        <time>2019-10-29T14:29:21.000Z</time>
      </trkpt>
      <trkpt lat="37.31742918491363525390625" lon="-3.625120818614959716796875">
        <ele>740</ele>
        <time>2019-10-29T14:29:37.000Z</time>
      </trkpt>
      <trkpt lat="37.31738802976906299591064453125" lon="-3.625340759754180908203125">
        <ele>742.20001220703125</ele>
        <time>2019-10-29T14:29:55.000Z</time>
      </trkpt>
      <trkpt lat="37.317383922636508941650390625" lon="-3.62557721324265003204345703125">
        <ele>742.4000244140625</ele>
        <time>2019-10-29T14:30:10.000Z</time>
      </trkpt>
      <trkpt lat="37.31737260706722736358642578125" lon="-3.62581291235983371734619140625">
        <ele>740.79998779296875</ele>
        <time>2019-10-29T14:30:26.000Z</time>
      </trkpt>
      <trkpt lat="37.317284010350704193115234375" lon="-3.6260124854743480682373046875">
        <ele>742.79998779296875</ele>
        <time>2019-10-29T14:30:43.000Z</time>
      </trkpt>
      <trkpt lat="37.31725324876606464385986328125" lon="-3.62605179660022258758544921875">
        <ele>743.5999755859375</ele>
        <time>2019-10-29T14:30:49.000Z</time>
      </trkpt>
      <trkpt lat="37.3171721957623958587646484375" lon="-3.626134358346462249755859375">
        <ele>746</ele>
        <time>2019-10-29T14:31:37.000Z</time>
      </trkpt>
      <trkpt lat="37.3171299509704113006591796875" lon="-3.62618071027100086212158203125">
        <ele>747</ele>
        <time>2019-10-29T14:31:42.000Z</time>
      </trkpt>
      <trkpt lat="37.31703548692166805267333984375" lon="-3.626324124634265899658203125">
        <ele>748.5999755859375</ele>
        <time>2019-10-29T14:31:58.000Z</time>
      </trkpt>
      <trkpt lat="37.31697262264788150787353515625" lon="-3.62645379267632961273193359375">
        <ele>749.79998779296875</ele>
        <time>2019-10-29T14:32:19.000Z</time>
      </trkpt>
      <trkpt lat="37.31689031235873699188232421875" lon="-3.62666585482656955718994140625">
        <ele>752.20001220703125</ele>
        <time>2019-10-29T14:32:37.000Z</time>
      </trkpt>
      <trkpt lat="37.31686080805957317352294921875" lon="-3.62689451314508914947509765625">
        <ele>755.20001220703125</ele>
        <time>2019-10-29T14:32:52.000Z</time>
      </trkpt>
      <trkpt lat="37.31688410975039005279541015625" lon="-3.6271272785961627960205078125">
        <ele>756.79998779296875</ele>
        <time>2019-10-29T14:33:08.000Z</time>
      </trkpt>
      <trkpt lat="37.31688763014972209930419921875" lon="-3.62717832438647747039794921875">
        <ele>757.20001220703125</ele>
        <time>2019-10-29T14:33:12.000Z</time>
      </trkpt>
      <trkpt lat="37.3168878816068172454833984375" lon="-3.62723330967128276824951171875">
        <ele>757.79998779296875</ele>
        <time>2019-10-29T14:33:16.000Z</time>
      </trkpt>
      <trkpt lat="37.31690003536641597747802734375" lon="-3.62729097716510295867919921875">
        <ele>757.79998779296875</ele>
        <time>2019-10-29T14:33:20.000Z</time>
      </trkpt>
      <trkpt lat="37.31691763736307621002197265625" lon="-3.6273713596165180206298828125">
        <ele>757.4000244140625</ele>
        <time>2019-10-29T14:33:27.000Z</time>
      </trkpt>
      <trkpt lat="37.31691562570631504058837890625" lon="-3.62736918032169342041015625">
        <ele>757.5999755859375</ele>
        <time>2019-10-29T14:33:29.000Z</time>
      </trkpt>
      <trkpt lat="37.31689902953803539276123046875" lon="-3.62749163992702960968017578125">
        <ele>758.5999755859375</ele>
        <time>2019-10-29T14:34:01.000Z</time>
      </trkpt>
      <trkpt lat="37.3169090040028095245361328125" lon="-3.62761066295206546783447265625">
        <ele>758</ele>
        <time>2019-10-29T14:34:05.000Z</time>
      </trkpt>
      <trkpt lat="37.316850833594799041748046875" lon="-3.6278390698134899139404296875">
        <ele>758.4000244140625</ele>
        <time>2019-10-29T14:34:12.000Z</time>
      </trkpt>
      <trkpt lat="37.31674714945256710052490234375" lon="-3.62801953218877315521240234375">
        <ele>757.79998779296875</ele>
        <time>2019-10-29T14:34:18.000Z</time>
      </trkpt>
      <trkpt lat="37.3165824450552463531494140625" lon="-3.6281240545213222503662109375">
        <ele>758.5999755859375</ele>
        <time>2019-10-29T14:34:24.000Z</time>
      </trkpt>
      <trkpt lat="37.31639209203422069549560546875" lon="-3.62816219218075275421142578125">
        <ele>757.4000244140625</ele>
        <time>2019-10-29T14:34:30.000Z</time>
      </trkpt>
      <trkpt lat="37.31618505902588367462158203125" lon="-3.628107123076915740966796875">
        <ele>756.20001220703125</ele>
        <time>2019-10-29T14:34:36.000Z</time>
      </trkpt>
      <trkpt lat="37.315991856157779693603515625" lon="-3.628030680119991302490234375">
        <ele>755.5999755859375</ele>
        <time>2019-10-29T14:34:40.000Z</time>
      </trkpt>
      <trkpt lat="37.31580167077481746673583984375" lon="-3.6279399879276752471923828125">
        <ele>755.5999755859375</ele>
        <time>2019-10-29T14:34:45.000Z</time>
      </trkpt>
      <trkpt lat="37.31562045402824878692626953125" lon="-3.62783412449061870574951171875">
        <ele>756.5999755859375</ele>
        <time>2019-10-29T14:34:52.000Z</time>
      </trkpt>
      <trkpt lat="37.315442003309726715087890625" lon="-3.62771878950297832489013671875">
        <ele>757.4000244140625</ele>
        <time>2019-10-29T14:35:00.000Z</time>
      </trkpt>
      <trkpt lat="37.3152731917798519134521484375" lon="-3.62762340344488620758056640625">
        <ele>758.20001220703125</ele>
        <time>2019-10-29T14:35:08.000Z</time>
      </trkpt>
      <trkpt lat="37.31510949321091175079345703125" lon="-3.62752650864422321319580078125">
        <ele>760.20001220703125</ele>
        <time>2019-10-29T14:35:15.000Z</time>
      </trkpt>
      <trkpt lat="37.31493271887302398681640625" lon="-3.6274074018001556396484375">
        <ele>764</ele>
        <time>2019-10-29T14:35:23.000Z</time>
      </trkpt>
      <trkpt lat="37.31476382352411746978759765625" lon="-3.627271614968776702880859375">
        <ele>765.5999755859375</ele>
        <time>2019-10-29T14:35:31.000Z</time>
      </trkpt>
      <trkpt lat="37.3145858757197856903076171875" lon="-3.62717463634908199310302734375">
        <ele>765.79998779296875</ele>
        <time>2019-10-29T14:35:39.000Z</time>
      </trkpt>
      <trkpt lat="37.31441547162830829620361328125" lon="-3.6270404420793056488037109375">
        <ele>765.20001220703125</ele>
        <time>2019-10-29T14:35:48.000Z</time>
      </trkpt>
      <trkpt lat="37.314234673976898193359375" lon="-3.62693323753774166107177734375">
        <ele>766.20001220703125</ele>
        <time>2019-10-29T14:35:57.000Z</time>
      </trkpt>
      <trkpt lat="37.314057312905788421630859375" lon="-3.62687557004392147064208984375">
        <ele>767.5999755859375</ele>
        <time>2019-10-29T14:36:05.000Z</time>
      </trkpt>
      <trkpt lat="37.3138791136443614959716796875" lon="-3.62683852203190326690673828125">
        <ele>769.5999755859375</ele>
        <time>2019-10-29T14:36:13.000Z</time>
      </trkpt>
      <trkpt lat="37.3136809654533863067626953125" lon="-3.62682175822556018829345703125">
        <ele>771.20001220703125</ele>
        <time>2019-10-29T14:36:22.000Z</time>
      </trkpt>
      <trkpt lat="37.31348834931850433349609375" lon="-3.6267621628940105438232421875">
        <ele>772.20001220703125</ele>
        <time>2019-10-29T14:36:31.000Z</time>
      </trkpt>
      <trkpt lat="37.3132945597171783447265625" lon="-3.6267931759357452392578125">
        <ele>772.4000244140625</ele>
        <time>2019-10-29T14:36:40.000Z</time>
      </trkpt>
      <trkpt lat="37.3131022788584232330322265625" lon="-3.6268778331577777862548828125">
        <ele>772.5999755859375</ele>
        <time>2019-10-29T14:36:48.000Z</time>
      </trkpt>
      <trkpt lat="37.31293422169983386993408203125" lon="-3.6269827745854854583740234375">
        <ele>773</ele>
        <time>2019-10-29T14:36:55.000Z</time>
      </trkpt>
      <trkpt lat="37.312765829265117645263671875" lon="-3.6270870454609394073486328125">
        <ele>773</ele>
        <time>2019-10-29T14:37:02.000Z</time>
      </trkpt>
      <trkpt lat="37.312611602246761322021484375" lon="-3.6272043921053409576416015625">
        <ele>773</ele>
        <time>2019-10-29T14:37:08.000Z</time>
      </trkpt>
      <trkpt lat="37.31245544739067554473876953125" lon="-3.62733774818480014801025390625">
        <ele>773.20001220703125</ele>
        <time>2019-10-29T14:37:14.000Z</time>
      </trkpt>
      <trkpt lat="37.31227808631956577301025390625" lon="-3.6274917237460613250732421875">
        <ele>773.20001220703125</ele>
        <time>2019-10-29T14:37:20.000Z</time>
      </trkpt>
      <trkpt lat="37.31212536804378032684326171875" lon="-3.627657182514667510986328125">
        <ele>772</ele>
        <time>2019-10-29T14:37:25.000Z</time>
      </trkpt>
      <trkpt lat="37.31197424232959747314453125" lon="-3.62782306037843227386474609375">
        <ele>769.79998779296875</ele>
        <time>2019-10-29T14:37:30.000Z</time>
      </trkpt>
      <trkpt lat="37.31181305833160877227783203125" lon="-3.62797594629228115081787109375">
        <ele>767.79998779296875</ele>
        <time>2019-10-29T14:37:35.000Z</time>
      </trkpt>
      <trkpt lat="37.3116391338407993316650390625" lon="-3.628002516925334930419921875">
        <ele>766.4000244140625</ele>
        <time>2019-10-29T14:37:40.000Z</time>
      </trkpt>
      <trkpt lat="37.31143654324114322662353515625" lon="-3.62796823494136333465576171875">
        <ele>765.79998779296875</ele>
        <time>2019-10-29T14:37:45.000Z</time>
      </trkpt>
      <trkpt lat="37.311249040067195892333984375" lon="-3.62805725075304508209228515625">
        <ele>764.79998779296875</ele>
        <time>2019-10-29T14:37:49.000Z</time>
      </trkpt>
      <trkpt lat="37.31104359962046146392822265625" lon="-3.62816101871430873870849609375">
        <ele>763.79998779296875</ele>
        <time>2019-10-29T14:37:53.000Z</time>
      </trkpt>
      <trkpt lat="37.3108725249767303466796875" lon="-3.6283151619136333465576171875">
        <ele>763.79998779296875</ele>
        <time>2019-10-29T14:37:57.000Z</time>
      </trkpt>
      <trkpt lat="37.31074419803917407989501953125" lon="-3.6285149864852428436279296875">
        <ele>763.4000244140625</ele>
        <time>2019-10-29T14:38:03.000Z</time>
      </trkpt>
      <trkpt lat="37.31064361520111560821533203125" lon="-3.628731071949005126953125">
        <ele>763.20001220703125</ele>
        <time>2019-10-29T14:38:10.000Z</time>
      </trkpt>
      <trkpt lat="37.31053146533668041229248046875" lon="-3.628929555416107177734375">
        <ele>763.5999755859375</ele>
        <time>2019-10-29T14:38:17.000Z</time>
      </trkpt>
      <trkpt lat="37.31037455610930919647216796875" lon="-3.62908177077770233154296875">
        <ele>764.4000244140625</ele>
        <time>2019-10-29T14:38:24.000Z</time>
      </trkpt>
      <trkpt lat="37.3102135397493839263916015625" lon="-3.6292063258588314056396484375">
        <ele>765</ele>
        <time>2019-10-29T14:38:31.000Z</time>
      </trkpt>
      <trkpt lat="37.31003324501216411590576171875" lon="-3.62931252457201480865478515625">
        <ele>766</ele>
        <time>2019-10-29T14:38:39.000Z</time>
      </trkpt>
      <trkpt lat="37.3098517768085002899169921875" lon="-3.6293981038033962249755859375">
        <ele>765.5999755859375</ele>
        <time>2019-10-29T14:38:46.000Z</time>
      </trkpt>
      <trkpt lat="37.30967533774673938751220703125" lon="-3.629501201212406158447265625">
        <ele>764</ele>
        <time>2019-10-29T14:38:52.000Z</time>
      </trkpt>
      <trkpt lat="37.30950887314975261688232421875" lon="-3.62963556312024593353271484375">
        <ele>763.4000244140625</ele>
        <time>2019-10-29T14:38:57.000Z</time>
      </trkpt>
      <trkpt lat="37.30934073217213153839111328125" lon="-3.629772774875164031982421875">
        <ele>763.20001220703125</ele>
        <time>2019-10-29T14:39:02.000Z</time>
      </trkpt>
      <trkpt lat="37.3091518878936767578125" lon="-3.62990981899201869964599609375">
        <ele>763.79998779296875</ele>
        <time>2019-10-29T14:39:07.000Z</time>
      </trkpt>
      <trkpt lat="37.30897930450737476348876953125" lon="-3.63000579178333282470703125">
        <ele>762.5999755859375</ele>
        <time>2019-10-29T14:39:11.000Z</time>
      </trkpt>
      <trkpt lat="37.30881728231906890869140625" lon="-3.63014392554759979248046875">
        <ele>760.79998779296875</ele>
        <time>2019-10-29T14:39:15.000Z</time>
      </trkpt>
      <trkpt lat="37.308640591800212860107421875" lon="-3.63019287586212158203125">
        <ele>759</ele>
        <time>2019-10-29T14:39:19.000Z</time>
      </trkpt>
      <trkpt lat="37.3086035437881946563720703125" lon="-3.63018290139734745025634765625">
        <ele>758.79998779296875</ele>
        <time>2019-10-29T14:39:20.000Z</time>
      </trkpt>
      <trkpt lat="37.30841939337551593780517578125" lon="-3.6301196180284023284912109375">
        <ele>758.5999755859375</ele>
        <time>2019-10-29T14:39:25.000Z</time>
      </trkpt>
      <trkpt lat="37.3082828521728515625" lon="-3.63028767518699169158935546875">
        <ele>758</ele>
        <time>2019-10-29T14:39:29.000Z</time>
      </trkpt>
      <trkpt lat="37.30819039978086948394775390625" lon="-3.63048867322504520416259765625">
        <ele>758.4000244140625</ele>
        <time>2019-10-29T14:39:32.000Z</time>
      </trkpt>
      <trkpt lat="37.3081643320620059967041015625" lon="-3.63055966794490814208984375">
        <ele>758.4000244140625</ele>
        <time>2019-10-29T14:39:33.000Z</time>
      </trkpt>
      <trkpt lat="37.30812351219356060028076171875" lon="-3.630836941301822662353515625">
        <ele>758.20001220703125</ele>
        <time>2019-10-29T14:39:37.000Z</time>
      </trkpt>
      <trkpt lat="37.30811697430908679962158203125" lon="-3.63089921884238719940185546875">
        <ele>758</ele>
        <time>2019-10-29T14:39:38.000Z</time>
      </trkpt>
      <trkpt lat="37.30808847583830356597900390625" lon="-3.6310744844377040863037109375">
        <ele>757.5999755859375</ele>
        <time>2019-10-29T14:39:42.000Z</time>
      </trkpt>
      <trkpt lat="37.30808638036251068115234375" lon="-3.63111245445907115936279296875">
        <ele>757.5999755859375</ele>
        <time>2019-10-29T14:39:43.000Z</time>
      </trkpt>
      <trkpt lat="37.3080872185528278350830078125" lon="-3.6311864666640758514404296875">
        <ele>757.20001220703125</ele>
        <time>2019-10-29T14:39:45.000Z</time>
      </trkpt>
      <trkpt lat="37.30810037814080715179443359375" lon="-3.631384782493114471435546875">
        <ele>756.4000244140625</ele>
        <time>2019-10-29T14:39:49.000Z</time>
      </trkpt>
      <trkpt lat="37.30808696709573268890380859375" lon="-3.631498105823993682861328125">
        <ele>755.79998779296875</ele>
        <time>2019-10-29T14:39:51.000Z</time>
      </trkpt>
      <trkpt lat="37.30801932513713836669921875" lon="-3.6317185498774051666259765625">
        <ele>754.79998779296875</ele>
        <time>2019-10-29T14:39:55.000Z</time>
      </trkpt>
      <trkpt lat="37.3079460673034191131591796875" lon="-3.6319763772189617156982421875">
        <ele>754.4000244140625</ele>
        <time>2019-10-29T14:40:00.000Z</time>
      </trkpt>
      <trkpt lat="37.307935841381549835205078125" lon="-3.632025830447673797607421875">
        <ele>754.4000244140625</ele>
        <time>2019-10-29T14:40:01.000Z</time>
      </trkpt>
      <trkpt lat="37.30791111476719379425048828125" lon="-3.63217729143798351287841796875">
        <ele>755</ele>
        <time>2019-10-29T14:40:04.000Z</time>
      </trkpt>
      <trkpt lat="37.30789066292345523834228515625" lon="-3.63244651816785335540771484375">
        <ele>756</ele>
        <time>2019-10-29T14:40:09.000Z</time>
      </trkpt>
      <trkpt lat="37.30781941674649715423583984375" lon="-3.632691018283367156982421875">
        <ele>757.20001220703125</ele>
        <time>2019-10-29T14:40:14.000Z</time>
      </trkpt>
      <trkpt lat="37.30779477395117282867431640625" lon="-3.63273150287568569183349609375">
        <ele>757.4000244140625</ele>
        <time>2019-10-29T14:40:15.000Z</time>
      </trkpt>
      <trkpt lat="37.3076711408793926239013671875" lon="-3.63294239155948162078857421875">
        <ele>757.4000244140625</ele>
        <time>2019-10-29T14:40:20.000Z</time>
      </trkpt>
      <trkpt lat="37.30764993466436862945556640625" lon="-3.632987402379512786865234375">
        <ele>757.20001220703125</ele>
        <time>2019-10-29T14:40:21.000Z</time>
      </trkpt>
      <trkpt lat="37.30757097713649272918701171875" lon="-3.6331910826265811920166015625">
        <ele>756</ele>
        <time>2019-10-29T14:40:25.000Z</time>
      </trkpt>
      <trkpt lat="37.3074927739799022674560546875" lon="-3.6333979479968547821044921875">
        <ele>754.5999755859375</ele>
        <time>2019-10-29T14:40:29.000Z</time>
      </trkpt>
      <trkpt lat="37.3074431531131267547607421875" lon="-3.63349962048232555389404296875">
        <ele>754</ele>
        <time>2019-10-29T14:40:31.000Z</time>
      </trkpt>
      <trkpt lat="37.3073546402156352996826171875" lon="-3.63365225493907928466796875">
        <ele>753.4000244140625</ele>
        <time>2019-10-29T14:40:34.000Z</time>
      </trkpt>
      <trkpt lat="37.3072108067572116851806640625" lon="-3.63385585136711597442626953125">
        <ele>753.20001220703125</ele>
        <time>2019-10-29T14:40:38.000Z</time>
      </trkpt>
      <trkpt lat="37.30713059194386005401611328125" lon="-3.63394419662654399871826171875">
        <ele>753</ele>
        <time>2019-10-29T14:40:40.000Z</time>
      </trkpt>
      <trkpt lat="37.30693797580897808074951171875" lon="-3.634111247956752777099609375">
        <ele>753</ele>
        <time>2019-10-29T14:40:44.000Z</time>
      </trkpt>
      <trkpt lat="37.3067687451839447021484375" lon="-3.6342981643974781036376953125">
        <ele>752.5999755859375</ele>
        <time>2019-10-29T14:40:48.000Z</time>
      </trkpt>
      <trkpt lat="37.3067337088286876678466796875" lon="-3.63435340113937854766845703125">
        <ele>752.4000244140625</ele>
        <time>2019-10-29T14:40:49.000Z</time>
      </trkpt>
      <trkpt lat="37.306657098233699798583984375" lon="-3.6344527266919612884521484375">
        <ele>752.20001220703125</ele>
        <time>2019-10-29T14:40:51.000Z</time>
      </trkpt>
      <trkpt lat="37.306581996381282806396484375" lon="-3.63453461788594722747802734375">
        <ele>751.5999755859375</ele>
        <time>2019-10-29T14:40:53.000Z</time>
      </trkpt>
      <trkpt lat="37.30645216070115566253662109375" lon="-3.63475464284420013427734375">
        <ele>750.4000244140625</ele>
        <time>2019-10-29T14:40:58.000Z</time>
      </trkpt>
      <trkpt lat="37.30632659979164600372314453125" lon="-3.634963519871234893798828125">
        <ele>750</ele>
        <time>2019-10-29T14:41:03.000Z</time>
      </trkpt>
      <trkpt lat="37.3062193952500820159912109375" lon="-3.63517038524150848388671875">
        <ele>749</ele>
        <time>2019-10-29T14:41:07.000Z</time>
      </trkpt>
      <trkpt lat="37.3061456345021724700927734375" lon="-3.63535277545452117919921875">
        <ele>747.79998779296875</ele>
        <time>2019-10-29T14:41:10.000Z</time>
      </trkpt>
      <trkpt lat="37.3061077482998371124267578125" lon="-3.63549065776169300079345703125">
        <ele>747.4000244140625</ele>
        <time>2019-10-29T14:41:12.000Z</time>
      </trkpt>
      <trkpt lat="37.306065000593662261962890625" lon="-3.6357195675373077392578125">
        <ele>746.5999755859375</ele>
        <time>2019-10-29T14:41:15.000Z</time>
      </trkpt>
      <trkpt lat="37.30601244606077671051025390625" lon="-3.63595350645482540130615234375">
        <ele>745.79998779296875</ele>
        <time>2019-10-29T14:41:18.000Z</time>
      </trkpt>
      <trkpt lat="37.30596114881336688995361328125" lon="-3.6361820809543132781982421875">
        <ele>745.4000244140625</ele>
        <time>2019-10-29T14:41:21.000Z</time>
      </trkpt>
      <trkpt lat="37.30592611245810985565185546875" lon="-3.636475615203380584716796875">
        <ele>744.79998779296875</ele>
        <time>2019-10-29T14:41:25.000Z</time>
      </trkpt>
      <trkpt lat="37.3058918304741382598876953125" lon="-3.636740483343601226806640625">
        <ele>744</ele>
        <time>2019-10-29T14:41:29.000Z</time>
      </trkpt>
      <trkpt lat="37.305858135223388671875" lon="-3.63697358407080173492431640625">
        <ele>743.79998779296875</ele>
        <time>2019-10-29T14:41:33.000Z</time>
      </trkpt>
      <trkpt lat="37.30577071197330951690673828125" lon="-3.63721288740634918212890625">
        <ele>743.20001220703125</ele>
        <time>2019-10-29T14:41:38.000Z</time>
      </trkpt>
      <trkpt lat="37.30567683465778827667236328125" lon="-3.63742268644273281097412109375">
        <ele>743.4000244140625</ele>
        <time>2019-10-29T14:41:42.000Z</time>
      </trkpt>
      <trkpt lat="37.3055743239820003509521484375" lon="-3.6376655101776123046875">
        <ele>743.79998779296875</ele>
        <time>2019-10-29T14:41:46.000Z</time>
      </trkpt>
      <trkpt lat="37.3054780997335910797119140625" lon="-3.63790967501699924468994140625">
        <ele>743.5999755859375</ele>
        <time>2019-10-29T14:41:50.000Z</time>
      </trkpt>
      <trkpt lat="37.30538765899837017059326171875" lon="-3.6381685920059680938720703125">
        <ele>742.4000244140625</ele>
        <time>2019-10-29T14:41:54.000Z</time>
      </trkpt>
      <trkpt lat="37.30529411695897579193115234375" lon="-3.63843723200261592864990234375">
        <ele>740.5999755859375</ele>
        <time>2019-10-29T14:41:58.000Z</time>
      </trkpt>
      <trkpt lat="37.30521130375564098358154296875" lon="-3.6387060396373271942138671875">
        <ele>739</ele>
        <time>2019-10-29T14:42:02.000Z</time>
      </trkpt>
      <trkpt lat="37.3051002435386180877685546875" lon="-3.63895607180893421173095703125">
        <ele>739.4000244140625</ele>
        <time>2019-10-29T14:42:06.000Z</time>
      </trkpt>
      <trkpt lat="37.304976694285869598388671875" lon="-3.63918204791843891143798828125">
        <ele>739</ele>
        <time>2019-10-29T14:42:10.000Z</time>
      </trkpt>
      <trkpt lat="37.3049233853816986083984375" lon="-3.6392974667251110076904296875">
        <ele>739</ele>
        <time>2019-10-29T14:42:12.000Z</time>
      </trkpt>
      <trkpt lat="37.30480830185115337371826171875" lon="-3.63951548002660274505615234375">
        <ele>739.4000244140625</ele>
        <time>2019-10-29T14:42:16.000Z</time>
      </trkpt>
      <trkpt lat="37.30470252223312854766845703125" lon="-3.639736175537109375">
        <ele>739</ele>
        <time>2019-10-29T14:42:20.000Z</time>
      </trkpt>
      <trkpt lat="37.3045862652361392974853515625" lon="-3.63995276391506195068359375">
        <ele>738.4000244140625</ele>
        <time>2019-10-29T14:42:24.000Z</time>
      </trkpt>
      <trkpt lat="37.304554916918277740478515625" lon="-3.640007413923740386962890625">
        <ele>738.20001220703125</ele>
        <time>2019-10-29T14:42:25.000Z</time>
      </trkpt>
      <trkpt lat="37.30441510677337646484375" lon="-3.6402087472379207611083984375">
        <ele>736.79998779296875</ele>
        <time>2019-10-29T14:42:29.000Z</time>
      </trkpt>
      <trkpt lat="37.3043882846832275390625" lon="-3.640265576541423797607421875">
        <ele>736.4000244140625</ele>
        <time>2019-10-29T14:42:30.000Z</time>
      </trkpt>
      <trkpt lat="37.3042918927967548370361328125" lon="-3.64048811607062816619873046875">
        <ele>735.4000244140625</ele>
        <time>2019-10-29T14:42:34.000Z</time>
      </trkpt>
      <trkpt lat="37.30426331050693988800048828125" lon="-3.64054159261286258697509765625">
        <ele>735.20001220703125</ele>
        <time>2019-10-29T14:42:35.000Z</time>
      </trkpt>
      <trkpt lat="37.30414998717606067657470703125" lon="-3.6407498829066753387451171875">
        <ele>735</ele>
        <time>2019-10-29T14:42:39.000Z</time>
      </trkpt>
      <trkpt lat="37.3040183074772357940673828125" lon="-3.64096454344689846038818359375">
        <ele>734.5999755859375</ele>
        <time>2019-10-29T14:42:43.000Z</time>
      </trkpt>
      <trkpt lat="37.3039442114531993865966796875" lon="-3.64107032306492328643798828125">
        <ele>734.20001220703125</ele>
        <time>2019-10-29T14:42:45.000Z</time>
      </trkpt>
      <trkpt lat="37.30384983122348785400390625" lon="-3.6412341892719268798828125">
        <ele>733.5999755859375</ele>
        <time>2019-10-29T14:42:48.000Z</time>
      </trkpt>
      <trkpt lat="37.303749583661556243896484375" lon="-3.64145538769662380218505859375">
        <ele>733</ele>
        <time>2019-10-29T14:42:52.000Z</time>
      </trkpt>
      <trkpt lat="37.30371949262917041778564453125" lon="-3.64150417037308216094970703125">
        <ele>733</ele>
        <time>2019-10-29T14:42:53.000Z</time>
      </trkpt>
      <trkpt lat="37.3035998828709125518798828125" lon="-3.6416967026889324188232421875">
        <ele>733</ele>
        <time>2019-10-29T14:42:57.000Z</time>
      </trkpt>
      <trkpt lat="37.30348999612033367156982421875" lon="-3.64191454835236072540283203125">
        <ele>732.79998779296875</ele>
        <time>2019-10-29T14:43:01.000Z</time>
      </trkpt>
      <trkpt lat="37.30337851680815219879150390625" lon="-3.64213331602513790130615234375">
        <ele>731.79998779296875</ele>
        <time>2019-10-29T14:43:05.000Z</time>
      </trkpt>
      <trkpt lat="37.30333073996007442474365234375" lon="-3.64224378950893878936767578125">
        <ele>731.20001220703125</ele>
        <time>2019-10-29T14:43:07.000Z</time>
      </trkpt>
      <trkpt lat="37.3032589070498943328857421875" lon="-3.6424725316464900970458984375">
        <ele>729.4000244140625</ele>
        <time>2019-10-29T14:43:11.000Z</time>
      </trkpt>
      <trkpt lat="37.303227894008159637451171875" lon="-3.642592728137969970703125">
        <ele>728.79998779296875</ele>
        <time>2019-10-29T14:43:13.000Z</time>
      </trkpt>
      <trkpt lat="37.30313058011233806610107421875" lon="-3.64281157962977886199951171875">
        <ele>728.4000244140625</ele>
        <time>2019-10-29T14:43:17.000Z</time>
      </trkpt>
      <trkpt lat="37.30301558040082454681396484375" lon="-3.64304141141474246978759765625">
        <ele>728</ele>
        <time>2019-10-29T14:43:21.000Z</time>
      </trkpt>
      <trkpt lat="37.3029145784676074981689453125" lon="-3.6433073692023754119873046875">
        <ele>728</ele>
        <time>2019-10-29T14:43:25.000Z</time>
      </trkpt>
      <trkpt lat="37.3027610220015048980712890625" lon="-3.6435363627970218658447265625">
        <ele>728</ele>
        <time>2019-10-29T14:43:29.000Z</time>
      </trkpt>
      <trkpt lat="37.3026550747454166412353515625" lon="-3.64370693452656269073486328125">
        <ele>727.5999755859375</ele>
        <time>2019-10-29T14:43:32.000Z</time>
      </trkpt>
      <trkpt lat="37.30254971422255039215087890625" lon="-3.6438681185245513916015625">
        <ele>726.79998779296875</ele>
        <time>2019-10-29T14:43:35.000Z</time>
      </trkpt>
      <trkpt lat="37.3024676553905010223388671875" lon="-3.6441227607429027557373046875">
        <ele>724.79998779296875</ele>
        <time>2019-10-29T14:43:39.000Z</time>
      </trkpt>
      <trkpt lat="37.302411496639251708984375" lon="-3.644393496215343475341796875">
        <ele>722.5999755859375</ele>
        <time>2019-10-29T14:43:43.000Z</time>
      </trkpt>
      <trkpt lat="37.30234335176646709442138671875" lon="-3.6446620523929595947265625">
        <ele>721.79998779296875</ele>
        <time>2019-10-29T14:43:47.000Z</time>
      </trkpt>
      <trkpt lat="37.30224478058516979217529296875" lon="-3.6449114978313446044921875">
        <ele>721.20001220703125</ele>
        <time>2019-10-29T14:43:51.000Z</time>
      </trkpt>
      <trkpt lat="37.30209826491773128509521484375" lon="-3.64512699656188488006591796875">
        <ele>720.5999755859375</ele>
        <time>2019-10-29T14:43:55.000Z</time>
      </trkpt>
      <trkpt lat="37.30203707702457904815673828125" lon="-3.64523679949343204498291015625">
        <ele>720.20001220703125</ele>
        <time>2019-10-29T14:43:57.000Z</time>
      </trkpt>
      <trkpt lat="37.3019530065357685089111328125" lon="-3.6454722471535205841064453125">
        <ele>719.4000244140625</ele>
        <time>2019-10-29T14:44:01.000Z</time>
      </trkpt>
      <trkpt lat="37.30184932239353656768798828125" lon="-3.64568456076085567474365234375">
        <ele>719.20001220703125</ele>
        <time>2019-10-29T14:44:05.000Z</time>
      </trkpt>
      <trkpt lat="37.30175100266933441162109375" lon="-3.64588405005633831024169921875">
        <ele>720</ele>
        <time>2019-10-29T14:44:09.000Z</time>
      </trkpt>
      <trkpt lat="37.301732562482357025146484375" lon="-3.645935095846652984619140625">
        <ele>720.20001220703125</ele>
        <time>2019-10-29T14:44:10.000Z</time>
      </trkpt>
      <trkpt lat="37.30164681561291217803955078125" lon="-3.64618244580924510955810546875">
        <ele>720.79998779296875</ele>
        <time>2019-10-29T14:44:15.000Z</time>
      </trkpt>
      <trkpt lat="37.301558218896389007568359375" lon="-3.64637992344796657562255859375">
        <ele>720.79998779296875</ele>
        <time>2019-10-29T14:44:19.000Z</time>
      </trkpt>
      <trkpt lat="37.30143659748136997222900390625" lon="-3.6465582065284252166748046875">
        <ele>720</ele>
        <time>2019-10-29T14:44:23.000Z</time>
      </trkpt>
      <trkpt lat="37.3013421334326267242431640625" lon="-3.6467117629945278167724609375">
        <ele>719</ele>
        <time>2019-10-29T14:44:26.000Z</time>
      </trkpt>
      <trkpt lat="37.30125018395483493804931640625" lon="-3.646874539554119110107421875">
        <ele>718.5999755859375</ele>
        <time>2019-10-29T14:44:29.000Z</time>
      </trkpt>
      <trkpt lat="37.3011533729732036590576171875" lon="-3.6471191234886646270751953125">
        <ele>718.79998779296875</ele>
        <time>2019-10-29T14:44:33.000Z</time>
      </trkpt>
      <trkpt lat="37.301106266677379608154296875" lon="-3.6472450196743011474609375">
        <ele>719.20001220703125</ele>
        <time>2019-10-29T14:44:35.000Z</time>
      </trkpt>
      <trkpt lat="37.30102186091244220733642578125" lon="-3.64750309847295284271240234375">
        <ele>718.79998779296875</ele>
        <time>2019-10-29T14:44:39.000Z</time>
      </trkpt>
      <trkpt lat="37.3009458370506763458251953125" lon="-3.64775790832936763763427734375">
        <ele>717.79998779296875</ele>
        <time>2019-10-29T14:44:43.000Z</time>
      </trkpt>
      <trkpt lat="37.30086226947605609893798828125" lon="-3.64799092523753643035888671875">
        <ele>717.4000244140625</ele>
        <time>2019-10-29T14:44:47.000Z</time>
      </trkpt>
      <trkpt lat="37.30078750289976596832275390625" lon="-3.64821539260447025299072265625">
        <ele>716.5999755859375</ele>
        <time>2019-10-29T14:44:51.000Z</time>
      </trkpt>
      <trkpt lat="37.30076805688440799713134765625" lon="-3.648269958794116973876953125">
        <ele>716.4000244140625</ele>
        <time>2019-10-29T14:44:52.000Z</time>
      </trkpt>
      <trkpt lat="37.300701253116130828857421875" lon="-3.64849065430462360382080078125">
        <ele>715.5999755859375</ele>
        <time>2019-10-29T14:44:56.000Z</time>
      </trkpt>
      <trkpt lat="37.3006331920623779296875" lon="-3.64870087243616580963134765625">
        <ele>714.79998779296875</ele>
        <time>2019-10-29T14:45:00.000Z</time>
      </trkpt>
      <trkpt lat="37.300557084381580352783203125" lon="-3.64894579164683818817138671875">
        <ele>714.20001220703125</ele>
        <time>2019-10-29T14:45:05.000Z</time>
      </trkpt>
      <trkpt lat="37.3005361296236515045166015625" lon="-3.64903363399207592010498046875">
        <ele>713.79998779296875</ele>
        <time>2019-10-29T14:45:07.000Z</time>
      </trkpt>
      <trkpt lat="37.30052766390144824981689453125" lon="-3.64923278801143169403076171875">
        <ele>713</ele>
        <time>2019-10-29T14:45:11.000Z</time>
      </trkpt>
      <trkpt lat="37.300485335290431976318359375" lon="-3.6494536511600017547607421875">
        <ele>712.20001220703125</ele>
        <time>2019-10-29T14:45:15.000Z</time>
      </trkpt>
      <trkpt lat="37.30043596588075160980224609375" lon="-3.649703599512577056884765625">
        <ele>711.5999755859375</ele>
        <time>2019-10-29T14:45:19.000Z</time>
      </trkpt>
      <trkpt lat="37.30037611909210681915283203125" lon="-3.64996536634862422943115234375">
        <ele>711.79998779296875</ele>
        <time>2019-10-29T14:45:23.000Z</time>
      </trkpt>
      <trkpt lat="37.30030336417257785797119140625" lon="-3.65023107267916202545166015625">
        <ele>711.79998779296875</ele>
        <time>2019-10-29T14:45:27.000Z</time>
      </trkpt>
      <trkpt lat="37.300261370837688446044921875" lon="-3.6503662727773189544677734375">
        <ele>711.5999755859375</ele>
        <time>2019-10-29T14:45:29.000Z</time>
      </trkpt>
      <trkpt lat="37.30017579160630702972412109375" lon="-3.65063273347914218902587890625">
        <ele>711</ele>
        <time>2019-10-29T14:45:33.000Z</time>
      </trkpt>
      <trkpt lat="37.30009163729846477508544921875" lon="-3.650892488658428192138671875">
        <ele>711</ele>
        <time>2019-10-29T14:45:37.000Z</time>
      </trkpt>
      <trkpt lat="37.30000999756157398223876953125" lon="-3.65114486776292324066162109375">
        <ele>710</ele>
        <time>2019-10-29T14:45:41.000Z</time>
      </trkpt>
      <trkpt lat="37.29992173612117767333984375" lon="-3.6513757891952991485595703125">
        <ele>710.79998779296875</ele>
        <time>2019-10-29T14:45:45.000Z</time>
      </trkpt>
      <trkpt lat="37.299809418618679046630859375" lon="-3.65158374421298503875732421875">
        <ele>711</ele>
        <time>2019-10-29T14:45:49.000Z</time>
      </trkpt>
      <trkpt lat="37.2996939159929752349853515625" lon="-3.65181927569210529327392578125">
        <ele>711</ele>
        <time>2019-10-29T14:45:53.000Z</time>
      </trkpt>
      <trkpt lat="37.29961889795958995819091796875" lon="-3.65202127955853939056396484375">
        <ele>710.5999755859375</ele>
        <time>2019-10-29T14:45:56.000Z</time>
      </trkpt>
      <trkpt lat="37.29950272478163242340087890625" lon="-3.65227877162396907806396484375">
        <ele>709.4000244140625</ele>
        <time>2019-10-29T14:46:00.000Z</time>
      </trkpt>
      <trkpt lat="37.29939811863005161285400390625" lon="-3.65253492258489131927490234375">
        <ele>708</ele>
        <time>2019-10-29T14:46:04.000Z</time>
      </trkpt>
      <trkpt lat="37.2993170656263828277587890625" lon="-3.65280322730541229248046875">
        <ele>706.5999755859375</ele>
        <time>2019-10-29T14:46:08.000Z</time>
      </trkpt>
      <trkpt lat="37.29923567734658718109130859375" lon="-3.6530193127691745758056640625">
        <ele>705</ele>
        <time>2019-10-29T14:46:11.000Z</time>
      </trkpt>
      <trkpt lat="37.29913450777530670166015625" lon="-3.653259538114070892333984375">
        <ele>704</ele>
        <time>2019-10-29T14:46:14.000Z</time>
      </trkpt>
      <trkpt lat="37.29901707731187343597412109375" lon="-3.65348450839519500732421875">
        <ele>703.4000244140625</ele>
        <time>2019-10-29T14:46:17.000Z</time>
      </trkpt>
      <trkpt lat="37.29888346977531909942626953125" lon="-3.65369397215545177459716796875">
        <ele>702.5999755859375</ele>
        <time>2019-10-29T14:46:20.000Z</time>
      </trkpt>
      <trkpt lat="37.29883066378533840179443359375" lon="-3.65375650115311145782470703125">
        <ele>702.4000244140625</ele>
        <time>2019-10-29T14:46:21.000Z</time>
      </trkpt>
      <trkpt lat="37.2986421547830104827880859375" lon="-3.65390536375343799591064453125">
        <ele>700.20001220703125</ele>
        <time>2019-10-29T14:46:24.000Z</time>
      </trkpt>
      <trkpt lat="37.2985724173486232757568359375" lon="-3.65394475869834423065185546875">
        <ele>699.4000244140625</ele>
        <time>2019-10-29T14:46:25.000Z</time>
      </trkpt>
      <trkpt lat="37.29835825972259044647216796875" lon="-3.65405313670635223388671875">
        <ele>697.4000244140625</ele>
        <time>2019-10-29T14:46:28.000Z</time>
      </trkpt>
      <trkpt lat="37.29813882149755954742431640625" lon="-3.6541669629514217376708984375">
        <ele>695.79998779296875</ele>
        <time>2019-10-29T14:46:31.000Z</time>
      </trkpt>
      <trkpt lat="37.29792290367186069488525390625" lon="-3.65428003482520580291748046875">
        <ele>694.4000244140625</ele>
        <time>2019-10-29T14:46:34.000Z</time>
      </trkpt>
      <trkpt lat="37.29771427810192108154296875" lon="-3.65439084358513355255126953125">
        <ele>692.5999755859375</ele>
        <time>2019-10-29T14:46:37.000Z</time>
      </trkpt>
      <trkpt lat="37.2975209914147853851318359375" lon="-3.65451120771467685699462890625">
        <ele>690.79998779296875</ele>
        <time>2019-10-29T14:46:40.000Z</time>
      </trkpt>
      <trkpt lat="37.29733684100210666656494140625" lon="-3.65464732982218265533447265625">
        <ele>689.20001220703125</ele>
        <time>2019-10-29T14:46:43.000Z</time>
      </trkpt>
      <trkpt lat="37.2971491701900959014892578125" lon="-3.6548029817640781402587890625">
        <ele>687.79998779296875</ele>
        <time>2019-10-29T14:46:46.000Z</time>
      </trkpt>
      <trkpt lat="37.29703702032566070556640625" lon="-3.654925525188446044921875">
        <ele>686.5999755859375</ele>
        <time>2019-10-29T14:46:48.000Z</time>
      </trkpt>
      <trkpt lat="37.2968660295009613037109375" lon="-3.6551201529800891876220703125">
        <ele>685.20001220703125</ele>
        <time>2019-10-29T14:46:51.000Z</time>
      </trkpt>
      <trkpt lat="37.29667198844254016876220703125" lon="-3.65529323928058147430419921875">
        <ele>684.4000244140625</ele>
        <time>2019-10-29T14:46:54.000Z</time>
      </trkpt>
      <trkpt lat="37.29648984968662261962890625" lon="-3.65549138747155666351318359375">
        <ele>684.20001220703125</ele>
        <time>2019-10-29T14:46:57.000Z</time>
      </trkpt>
      <trkpt lat="37.29631240479648113250732421875" lon="-3.65567763336002826690673828125">
        <ele>683.79998779296875</ele>
        <time>2019-10-29T14:47:00.000Z</time>
      </trkpt>
      <trkpt lat="37.2961284220218658447265625" lon="-3.655845858156681060791015625">
        <ele>682.5999755859375</ele>
        <time>2019-10-29T14:47:03.000Z</time>
      </trkpt>
      <trkpt lat="37.29593035764992237091064453125" lon="-3.6559648811817169189453125">
        <ele>680.5999755859375</ele>
        <time>2019-10-29T14:47:06.000Z</time>
      </trkpt>
      <trkpt lat="37.2957218997180461883544921875" lon="-3.65604995749890804290771484375">
        <ele>678.4000244140625</ele>
        <time>2019-10-29T14:47:09.000Z</time>
      </trkpt>
      <trkpt lat="37.29550086893141269683837890625" lon="-3.65611843764781951904296875">
        <ele>676</ele>
        <time>2019-10-29T14:47:12.000Z</time>
      </trkpt>
      <trkpt lat="37.2952870465815067291259765625" lon="-3.65618415176868438720703125">
        <ele>673.79998779296875</ele>
        <time>2019-10-29T14:47:15.000Z</time>
      </trkpt>
      <trkpt lat="37.2950888983905315399169921875" lon="-3.65621156059205532073974609375">
        <ele>672</ele>
        <time>2019-10-29T14:47:18.000Z</time>
      </trkpt>
      <trkpt lat="37.294905669987201690673828125" lon="-3.65622706711292266845703125">
        <ele>670.5999755859375</ele>
        <time>2019-10-29T14:47:21.000Z</time>
      </trkpt>
      <trkpt lat="37.29468782432377338409423828125" lon="-3.65623570047318935394287109375">
        <ele>668.20001220703125</ele>
        <time>2019-10-29T14:47:25.000Z</time>
      </trkpt>
      <trkpt lat="37.29464591480791568756103515625" lon="-3.6562470160424709320068359375">
        <ele>667.79998779296875</ele>
        <time>2019-10-29T14:47:26.000Z</time>
      </trkpt>
      <trkpt lat="37.2945182584226131439208984375" lon="-3.65643359720706939697265625">
        <ele>667</ele>
        <time>2019-10-29T14:47:31.000Z</time>
      </trkpt>
      <trkpt lat="37.2944582439959049224853515625" lon="-3.656686060130596160888671875">
        <ele>666.5999755859375</ele>
        <time>2019-10-29T14:47:36.000Z</time>
      </trkpt>
      <trkpt lat="37.29448984377086162567138671875" lon="-3.65678898990154266357421875">
        <ele>667.4000244140625</ele>
        <time>2019-10-29T14:47:38.000Z</time>
      </trkpt>
      <trkpt lat="37.29445396922528743743896484375" lon="-3.65695268847048282623291015625">
        <ele>667.79998779296875</ele>
        <time>2019-10-29T14:47:42.000Z</time>
      </trkpt>
      <trkpt lat="37.294416837394237518310546875" lon="-3.657032735645771026611328125">
        <ele>667.5999755859375</ele>
        <time>2019-10-29T14:47:44.000Z</time>
      </trkpt>
      <trkpt lat="37.29429471306502819061279296875" lon="-3.65712828934192657470703125">
        <ele>666.20001220703125</ele>
        <time>2019-10-29T14:47:48.000Z</time>
      </trkpt>
      <trkpt lat="37.29418859817087650299072265625" lon="-3.6571680195629596710205078125">
        <ele>664.79998779296875</ele>
        <time>2019-10-29T14:47:51.000Z</time>
      </trkpt>
      <trkpt lat="37.2939684055745601654052734375" lon="-3.65722375921905040740966796875">
        <ele>662.4000244140625</ele>
        <time>2019-10-29T14:47:56.000Z</time>
      </trkpt>
      <trkpt lat="37.29384225793182849884033203125" lon="-3.65737480111420154571533203125">
        <ele>660.79998779296875</ele>
        <time>2019-10-29T14:47:59.000Z</time>
      </trkpt>
      <trkpt lat="37.29373362846672534942626953125" lon="-3.65756473504006862640380859375">
        <ele>659</ele>
        <time>2019-10-29T14:48:02.000Z</time>
      </trkpt>
      <trkpt lat="37.29362080805003643035888671875" lon="-3.6577378213405609130859375">
        <ele>658.4000244140625</ele>
        <time>2019-10-29T14:48:05.000Z</time>
      </trkpt>
      <trkpt lat="37.29354268871247768402099609375" lon="-3.65784033201634883880615234375">
        <ele>658</ele>
        <time>2019-10-29T14:48:07.000Z</time>
      </trkpt>
      <trkpt lat="37.29346674866974353790283203125" lon="-3.65794443525373935699462890625">
        <ele>658.5999755859375</ele>
        <time>2019-10-29T14:48:09.000Z</time>
      </trkpt>
      <trkpt lat="37.29329944588243961334228515625" lon="-3.65812799893319606781005859375">
        <ele>659.20001220703125</ele>
        <time>2019-10-29T14:48:13.000Z</time>
      </trkpt>
      <trkpt lat="37.29322182945907115936279296875" lon="-3.6582217924296855926513671875">
        <ele>659.20001220703125</ele>
        <time>2019-10-29T14:48:15.000Z</time>
      </trkpt>
      <trkpt lat="37.29309492744505405426025390625" lon="-3.65845204330980777740478515625">
        <ele>658.5999755859375</ele>
        <time>2019-10-29T14:48:19.000Z</time>
      </trkpt>
      <trkpt lat="37.2930594719946384429931640625" lon="-3.6585745029151439666748046875">
        <ele>658.5999755859375</ele>
        <time>2019-10-29T14:48:21.000Z</time>
      </trkpt>
      <trkpt lat="37.29298143647611141204833984375" lon="-3.6588132195174694061279296875">
        <ele>657.79998779296875</ele>
        <time>2019-10-29T14:48:26.000Z</time>
      </trkpt>
      <trkpt lat="37.29296232573688030242919921875" lon="-3.658851273357868194580078125">
        <ele>657.4000244140625</ele>
        <time>2019-10-29T14:48:27.000Z</time>
      </trkpt>
      <trkpt lat="37.29283374734222888946533203125" lon="-3.6590371839702129364013671875">
        <ele>656.4000244140625</ele>
        <time>2019-10-29T14:48:32.000Z</time>
      </trkpt>
      <trkpt lat="37.29270449839532375335693359375" lon="-3.65920272655785083770751953125">
        <ele>655.79998779296875</ele>
        <time>2019-10-29T14:48:37.000Z</time>
      </trkpt>
      <trkpt lat="37.292554378509521484375" lon="-3.659393750131130218505859375">
        <ele>655</ele>
        <time>2019-10-29T14:48:42.000Z</time>
      </trkpt>
      <trkpt lat="37.29240953922271728515625" lon="-3.65960824303328990936279296875">
        <ele>653.79998779296875</ele>
        <time>2019-10-29T14:48:47.000Z</time>
      </trkpt>
      <trkpt lat="37.2923077829182147979736328125" lon="-3.65979515947401523590087890625">
        <ele>653</ele>
        <time>2019-10-29T14:48:51.000Z</time>
      </trkpt>
      <trkpt lat="37.2922015003859996795654296875" lon="-3.65998894907534122467041015625">
        <ele>651.4000244140625</ele>
        <time>2019-10-29T14:48:55.000Z</time>
      </trkpt>
      <trkpt lat="37.29214726947247982025146484375" lon="-3.6600963212549686431884765625">
        <ele>651</ele>
        <time>2019-10-29T14:48:57.000Z</time>
      </trkpt>
      <trkpt lat="37.29201014153659343719482421875" lon="-3.660279214382171630859375">
        <ele>651</ele>
        <time>2019-10-29T14:49:01.000Z</time>
      </trkpt>
      <trkpt lat="37.29191542603075504302978515625" lon="-3.6603878438472747802734375">
        <ele>651</ele>
        <time>2019-10-29T14:49:04.000Z</time>
      </trkpt>
      <trkpt lat="37.29194140993058681488037109375" lon="-3.6606533825397491455078125">
        <ele>651.20001220703125</ele>
        <time>2019-10-29T14:49:09.000Z</time>
      </trkpt>
      <trkpt lat="37.291977703571319580078125" lon="-3.66072169505059719085693359375">
        <ele>651.4000244140625</ele>
        <time>2019-10-29T14:49:10.000Z</time>
      </trkpt>
      <trkpt lat="37.292005531489849090576171875" lon="-3.66080383770167827606201171875">
        <ele>651.4000244140625</ele>
        <time>2019-10-29T14:49:11.000Z</time>
      </trkpt>
      <trkpt lat="37.29203981347382068634033203125" lon="-3.66106283850967884063720703125">
        <ele>651.4000244140625</ele>
        <time>2019-10-29T14:49:14.000Z</time>
      </trkpt>
      <trkpt lat="37.29201366193592548370361328125" lon="-3.6612868867814540863037109375">
        <ele>650</ele>
        <time>2019-10-29T14:49:17.000Z</time>
      </trkpt>
      <trkpt lat="37.291978038847446441650390625" lon="-3.66148813627660274505615234375">
        <ele>648.5999755859375</ele>
        <time>2019-10-29T14:49:22.000Z</time>
      </trkpt>
      <trkpt lat="37.2918457724153995513916015625" lon="-3.6615574546158313751220703125">
        <ele>648</ele>
        <time>2019-10-29T14:49:29.000Z</time>
      </trkpt>
      <trkpt lat="37.29179539717733860015869140625" lon="-3.661561310291290283203125">
        <ele>647.79998779296875</ele>
        <time>2019-10-29T14:49:31.000Z</time>
      </trkpt>
      <trkpt lat="37.29163094423711299896240234375" lon="-3.66149215959012508392333984375">
        <ele>648.4000244140625</ele>
        <time>2019-10-29T14:49:37.000Z</time>
      </trkpt>
      <trkpt lat="37.29144318960607051849365234375" lon="-3.66138235665857791900634765625">
        <ele>648</ele>
        <time>2019-10-29T14:49:43.000Z</time>
      </trkpt>
      <trkpt lat="37.29138828814029693603515625" lon="-3.6613448895514011383056640625">
        <ele>647.79998779296875</ele>
        <time>2019-10-29T14:49:45.000Z</time>
      </trkpt>
      <trkpt lat="37.29121034033596515655517578125" lon="-3.6612114496529102325439453125">
        <ele>647.79998779296875</ele>
        <time>2019-10-29T14:49:52.000Z</time>
      </trkpt>
      <trkpt lat="37.2910402715206146240234375" lon="-3.66111028008162975311279296875">
        <ele>647.20001220703125</ele>
        <time>2019-10-29T14:49:59.000Z</time>
      </trkpt>
      <trkpt lat="37.2909348271787166595458984375" lon="-3.66103450767695903778076171875">
        <ele>647</ele>
        <time>2019-10-29T14:50:09.000Z</time>
      </trkpt>
      <trkpt lat="37.29086467064917087554931640625" lon="-3.66100030951201915740966796875">
        <ele>647.20001220703125</ele>
        <time>2019-10-29T15:01:02.000Z</time>
      </trkpt>
      <trkpt lat="37.29068177752196788787841796875" lon="-3.66088866256177425384521484375">
        <ele>647.5999755859375</ele>
        <time>2019-10-29T15:01:10.000Z</time>
      </trkpt>
      <trkpt lat="37.290518917143344879150390625" lon="-3.66076796315610408782958984375">
        <ele>647.79998779296875</ele>
        <time>2019-10-29T15:01:16.000Z</time>
      </trkpt>
      <trkpt lat="37.2903269715607166290283203125" lon="-3.66065044887363910675048828125">
        <ele>647.79998779296875</ele>
        <time>2019-10-29T15:01:22.000Z</time>
      </trkpt>
      <trkpt lat="37.2901385463774204254150390625" lon="-3.6605294980108737945556640625">
        <ele>647.20001220703125</ele>
        <time>2019-10-29T15:01:28.000Z</time>
      </trkpt>
      <trkpt lat="37.28996814228594303131103515625" lon="-3.66041927598416805267333984375">
        <ele>647</ele>
        <time>2019-10-29T15:01:33.000Z</time>
      </trkpt>
      <trkpt lat="37.28980285115540027618408203125" lon="-3.66030612029135227203369140625">
        <ele>646.5999755859375</ele>
        <time>2019-10-29T15:01:38.000Z</time>
      </trkpt>
      <trkpt lat="37.28963018395006656646728515625" lon="-3.66018257103860378265380859375">
        <ele>647.20001220703125</ele>
        <time>2019-10-29T15:01:44.000Z</time>
      </trkpt>
      <trkpt lat="37.28944812901318073272705078125" lon="-3.660086430609226226806640625">
        <ele>649.20001220703125</ele>
        <time>2019-10-29T15:01:50.000Z</time>
      </trkpt>
      <trkpt lat="37.28926054202020168304443359375" lon="-3.65997277200222015380859375">
        <ele>651.4000244140625</ele>
        <time>2019-10-29T15:01:56.000Z</time>
      </trkpt>
      <trkpt lat="37.2890851087868213653564453125" lon="-3.65985953249037265777587890625">
        <ele>653.5999755859375</ele>
        <time>2019-10-29T15:02:02.000Z</time>
      </trkpt>
      <trkpt lat="37.2888980247080326080322265625" lon="-3.65975459106266498565673828125">
        <ele>654.79998779296875</ele>
        <time>2019-10-29T15:02:09.000Z</time>
      </trkpt>
      <trkpt lat="37.28871270082890987396240234375" lon="-3.6596550978720188140869140625">
        <ele>655</ele>
        <time>2019-10-29T15:02:15.000Z</time>
      </trkpt>
      <trkpt lat="37.2885034047067165374755859375" lon="-3.659616373479366302490234375">
        <ele>655</ele>
        <time>2019-10-29T15:02:21.000Z</time>
      </trkpt>
      <trkpt lat="37.288287989795207977294921875" lon="-3.65961134433746337890625">
        <ele>655.79998779296875</ele>
        <time>2019-10-29T15:02:27.000Z</time>
      </trkpt>
      <trkpt lat="37.288088500499725341796875" lon="-3.65961612202227115631103515625">
        <ele>655.20001220703125</ele>
        <time>2019-10-29T15:02:32.000Z</time>
      </trkpt>
      <trkpt lat="37.28787853382527828216552734375" lon="-3.65963171236217021942138671875">
        <ele>654.5999755859375</ele>
        <time>2019-10-29T15:02:37.000Z</time>
      </trkpt>
      <trkpt lat="37.2876662202179431915283203125" lon="-3.65964344702661037445068359375">
        <ele>653.5999755859375</ele>
        <time>2019-10-29T15:02:42.000Z</time>
      </trkpt>
      <trkpt lat="37.28745482861995697021484375" lon="-3.6596557684242725372314453125">
        <ele>653.79998779296875</ele>
        <time>2019-10-29T15:02:47.000Z</time>
      </trkpt>
      <trkpt lat="37.28724067099392414093017578125" lon="-3.659660629928112030029296875">
        <ele>655.4000244140625</ele>
        <time>2019-10-29T15:02:52.000Z</time>
      </trkpt>
      <trkpt lat="37.28703078813850879669189453125" lon="-3.65967211313545703887939453125">
        <ele>657.20001220703125</ele>
        <time>2019-10-29T15:02:57.000Z</time>
      </trkpt>
      <trkpt lat="37.28682207874953746795654296875" lon="-3.6596621386706829071044921875">
        <ele>657.4000244140625</ele>
        <time>2019-10-29T15:03:02.000Z</time>
      </trkpt>
      <trkpt lat="37.28662074543535709381103515625" lon="-3.6596058122813701629638671875">
        <ele>657</ele>
        <time>2019-10-29T15:03:07.000Z</time>
      </trkpt>
      <trkpt lat="37.2864080965518951416015625" lon="-3.659511767327785491943359375">
        <ele>656.20001220703125</ele>
        <time>2019-10-29T15:03:12.000Z</time>
      </trkpt>
      <trkpt lat="37.28623601607978343963623046875" lon="-3.65944228135049343109130859375">
        <ele>655.4000244140625</ele>
        <time>2019-10-29T15:03:16.000Z</time>
      </trkpt>
      <trkpt lat="37.28603191673755645751953125" lon="-3.6593691073358058929443359375">
        <ele>653.79998779296875</ele>
        <time>2019-10-29T15:03:21.000Z</time>
      </trkpt>
      <trkpt lat="37.2858319245278835296630859375" lon="-3.6592956818640232086181640625">
        <ele>652</ele>
        <time>2019-10-29T15:03:26.000Z</time>
      </trkpt>
      <trkpt lat="37.2856401465833187103271484375" lon="-3.659243881702423095703125">
        <ele>650.79998779296875</ele>
        <time>2019-10-29T15:03:31.000Z</time>
      </trkpt>
      <trkpt lat="37.28551886044442653656005859375" lon="-3.65920825861394405364990234375">
        <ele>651</ele>
        <time>2019-10-29T15:03:34.000Z</time>
      </trkpt>
      <trkpt lat="37.2853062115609645843505859375" lon="-3.65915142931044101715087890625">
        <ele>651.5999755859375</ele>
        <time>2019-10-29T15:03:39.000Z</time>
      </trkpt>
      <trkpt lat="37.28508912026882171630859375" lon="-3.65908605046570301055908203125">
        <ele>651.79998779296875</ele>
        <time>2019-10-29T15:03:44.000Z</time>
      </trkpt>
      <trkpt lat="37.2848743759095668792724609375" lon="-3.659027628600597381591796875">
        <ele>652.4000244140625</ele>
        <time>2019-10-29T15:03:49.000Z</time>
      </trkpt>
      <trkpt lat="37.28465636260807514190673828125" lon="-3.65895227529108524322509765625">
        <ele>651.79998779296875</ele>
        <time>2019-10-29T15:03:54.000Z</time>
      </trkpt>
      <trkpt lat="37.2844686917960643768310546875" lon="-3.6589097790420055389404296875">
        <ele>652.20001220703125</ele>
        <time>2019-10-29T15:03:58.000Z</time>
      </trkpt>
      <trkpt lat="37.28437674231827259063720703125" lon="-3.6588896624743938446044921875">
        <ele>652.20001220703125</ele>
        <time>2019-10-29T15:04:00.000Z</time>
      </trkpt>
      <trkpt lat="37.28419954888522624969482421875" lon="-3.65884901024401187896728515625">
        <ele>652</ele>
        <time>2019-10-29T15:04:04.000Z</time>
      </trkpt>
      <trkpt lat="37.2841186635196208953857421875" lon="-3.6588437296450138092041015625">
        <ele>652</ele>
        <time>2019-10-29T15:04:06.000Z</time>
      </trkpt>
      <trkpt lat="37.28389553725719451904296875" lon="-3.65879058837890625">
        <ele>652.20001220703125</ele>
        <time>2019-10-29T15:04:11.000Z</time>
      </trkpt>
      <trkpt lat="37.2836878336966037750244140625" lon="-3.6587773449718952178955078125">
        <ele>651.5999755859375</ele>
        <time>2019-10-29T15:04:15.000Z</time>
      </trkpt>
      <trkpt lat="37.28363527916371822357177734375" lon="-3.6587823741137981414794921875">
        <ele>651.5999755859375</ele>
        <time>2019-10-29T15:04:16.000Z</time>
      </trkpt>
      <trkpt lat="37.283426821231842041015625" lon="-3.65880869328975677490234375">
        <ele>652.20001220703125</ele>
        <time>2019-10-29T15:04:20.000Z</time>
      </trkpt>
      <trkpt lat="37.28324283845722675323486328125" lon="-3.65883425809442996978759765625">
        <ele>653</ele>
        <time>2019-10-29T15:04:24.000Z</time>
      </trkpt>
      <trkpt lat="37.2830280102789402008056640625" lon="-3.6588574759662151336669921875">
        <ele>655</ele>
        <time>2019-10-29T15:04:29.000Z</time>
      </trkpt>
      <trkpt lat="37.2828117571771144866943359375" lon="-3.65886342711746692657470703125">
        <ele>656.5999755859375</ele>
        <time>2019-10-29T15:04:34.000Z</time>
      </trkpt>
      <trkpt lat="37.2825968451797962188720703125" lon="-3.65886242128908634185791015625">
        <ele>657.20001220703125</ele>
        <time>2019-10-29T15:04:39.000Z</time>
      </trkpt>
      <trkpt lat="37.28240950964391231536865234375" lon="-3.6588621698319911956787109375">
        <ele>656.79998779296875</ele>
        <time>2019-10-29T15:04:43.000Z</time>
      </trkpt>
      <trkpt lat="37.28231169283390045166015625" lon="-3.6588745750486850738525390625">
        <ele>655.4000244140625</ele>
        <time>2019-10-29T15:04:45.000Z</time>
      </trkpt>
      <trkpt lat="37.2821157239377498626708984375" lon="-3.65889159031212329864501953125">
        <ele>653</ele>
        <time>2019-10-29T15:04:49.000Z</time>
      </trkpt>
      <trkpt lat="37.2818994708359241485595703125" lon="-3.6588973738253116607666015625">
        <ele>651.20001220703125</ele>
        <time>2019-10-29T15:04:54.000Z</time>
      </trkpt>
      <trkpt lat="37.28170392103493213653564453125" lon="-3.65892545320093631744384765625">
        <ele>651.5999755859375</ele>
        <time>2019-10-29T15:04:59.000Z</time>
      </trkpt>
      <trkpt lat="37.2815132327377796173095703125" lon="-3.65896266885101795196533203125">
        <ele>652.79998779296875</ele>
        <time>2019-10-29T15:05:04.000Z</time>
      </trkpt>
      <trkpt lat="37.28147928602993488311767578125" lon="-3.65898110903799533843994140625">
        <ele>653</ele>
        <time>2019-10-29T15:05:05.000Z</time>
      </trkpt>
      <trkpt lat="37.281351126730442047119140625" lon="-3.65909594111144542694091796875">
        <ele>654.4000244140625</ele>
        <time>2019-10-29T15:05:09.000Z</time>
      </trkpt>
      <trkpt lat="37.28121466934680938720703125" lon="-3.65929375402629375457763671875">
        <ele>655.79998779296875</ele>
        <time>2019-10-29T15:05:14.000Z</time>
      </trkpt>
      <trkpt lat="37.28119321167469024658203125" lon="-3.6593385972082614898681640625">
        <ele>656</ele>
        <time>2019-10-29T15:05:15.000Z</time>
      </trkpt>
      <trkpt lat="37.28111140429973602294921875" lon="-3.659502379596233367919921875">
        <ele>656.79998779296875</ele>
        <time>2019-10-29T15:05:19.000Z</time>
      </trkpt>
      <trkpt lat="37.28098056279122829437255859375" lon="-3.65969524718821048736572265625">
        <ele>656.5999755859375</ele>
        <time>2019-10-29T15:05:24.000Z</time>
      </trkpt>
      <trkpt lat="37.28090026415884494781494140625" lon="-3.65978627465665340423583984375">
        <ele>656.4000244140625</ele>
        <time>2019-10-29T15:05:27.000Z</time>
      </trkpt>
      <trkpt lat="37.2808500565588474273681640625" lon="-3.659843020141124725341796875">
        <ele>655.79998779296875</ele>
        <time>2019-10-29T15:05:29.000Z</time>
      </trkpt>
      <trkpt lat="37.2807799838483333587646484375" lon="-3.65998618304729461669921875">
        <ele>654.5999755859375</ele>
        <time>2019-10-29T15:05:33.000Z</time>
      </trkpt>
      <trkpt lat="37.28065970353782176971435546875" lon="-3.66019413806498050689697265625">
        <ele>653</ele>
        <time>2019-10-29T15:05:38.000Z</time>
      </trkpt>
      <trkpt lat="37.2805241681635379791259765625" lon="-3.6604000814259052276611328125">
        <ele>651.79998779296875</ele>
        <time>2019-10-29T15:05:43.000Z</time>
      </trkpt>
      <trkpt lat="37.28044512681663036346435546875" lon="-3.6605192720890045166015625">
        <ele>651.79998779296875</ele>
        <time>2019-10-29T15:05:46.000Z</time>
      </trkpt>
      <trkpt lat="37.28031822480261325836181640625" lon="-3.6607185937464237213134765625">
        <ele>651</ele>
        <time>2019-10-29T15:05:52.000Z</time>
      </trkpt>
      <trkpt lat="37.2802790813148021697998046875" lon="-3.6607574857771396636962890625">
        <ele>651</ele>
        <time>2019-10-29T15:05:54.000Z</time>
      </trkpt>
      <trkpt lat="37.2801961004734039306640625" lon="-3.6608570627868175506591796875">
        <ele>650.79998779296875</ele>
        <time>2019-10-29T15:05:58.000Z</time>
      </trkpt>
      <trkpt lat="37.28005997836589813232421875" lon="-3.66102612577378749847412109375">
        <ele>648</ele>
        <time>2019-10-29T15:06:05.000Z</time>
      </trkpt>
      <trkpt lat="37.2800098545849323272705078125" lon="-3.66109569557011127471923828125">
        <ele>646.79998779296875</ele>
        <time>2019-10-29T15:06:09.000Z</time>
      </trkpt>
      <trkpt lat="37.279981859028339385986328125" lon="-3.6611407063901424407958984375">
        <ele>646</ele>
        <time>2019-10-29T15:06:17.000Z</time>
      </trkpt>
      <trkpt lat="37.27975814603269100189208984375" lon="-3.661341033875942230224609375">
        <ele>645.20001220703125</ele>
        <time>2019-10-29T15:08:22.000Z</time>
      </trkpt>
      <trkpt lat="37.27957994677126407623291015625" lon="-3.66142946295440196990966796875">
        <ele>646.20001220703125</ele>
        <time>2019-10-29T15:08:28.000Z</time>
      </trkpt>
      <trkpt lat="37.27941197343170642852783203125" lon="-3.66153557784855365753173828125">
        <ele>648.20001220703125</ele>
        <time>2019-10-29T15:08:34.000Z</time>
      </trkpt>
      <trkpt lat="37.27925322018563747406005859375" lon="-3.66164739243686199188232421875">
        <ele>650.20001220703125</ele>
        <time>2019-10-29T15:08:40.000Z</time>
      </trkpt>
      <trkpt lat="37.2790814749896526336669921875" lon="-3.66174998693168163299560546875">
        <ele>652</ele>
        <time>2019-10-29T15:08:46.000Z</time>
      </trkpt>
      <trkpt lat="37.27891241200268268585205078125" lon="-3.66187521256506443023681640625">
        <ele>653</ele>
        <time>2019-10-29T15:08:52.000Z</time>
      </trkpt>
      <trkpt lat="37.27879925630986690521240234375" lon="-3.662046454846858978271484375">
        <ele>653.4000244140625</ele>
        <time>2019-10-29T15:08:57.000Z</time>
      </trkpt>
      <trkpt lat="37.27869850583374500274658203125" lon="-3.66225407458841800689697265625">
        <ele>654.79998779296875</ele>
        <time>2019-10-29T15:09:01.000Z</time>
      </trkpt>
      <trkpt lat="37.27861988358199596405029296875" lon="-3.66249865852296352386474609375">
        <ele>655.4000244140625</ele>
        <time>2019-10-29T15:09:05.000Z</time>
      </trkpt>
      <trkpt lat="37.27854830212891101837158203125" lon="-3.6627429910004138946533203125">
        <ele>651.79998779296875</ele>
        <time>2019-10-29T15:09:09.000Z</time>
      </trkpt>
      <trkpt lat="37.27841218002140522003173828125" lon="-3.66294063627719879150390625">
        <ele>647.4000244140625</ele>
        <time>2019-10-29T15:09:13.000Z</time>
      </trkpt>
      <trkpt lat="37.27829533629119396209716796875" lon="-3.663051612675189971923828125">
        <ele>645</ele>
        <time>2019-10-29T15:09:16.000Z</time>
      </trkpt>
      <trkpt lat="37.27814379148185253143310546875" lon="-3.66318312473595142364501953125">
        <ele>645</ele>
        <time>2019-10-29T15:09:20.000Z</time>
      </trkpt>
      <trkpt lat="37.278037257492542266845703125" lon="-3.6632631719112396240234375">
        <ele>645.5999755859375</ele>
        <time>2019-10-29T15:09:23.000Z</time>
      </trkpt>
      <trkpt lat="37.27790080010890960693359375" lon="-3.663327880203723907470703125">
        <ele>646.5999755859375</ele>
        <time>2019-10-29T15:09:27.000Z</time>
      </trkpt>
      <trkpt lat="37.277777753770351409912109375" lon="-3.66336383856832981109619140625">
        <ele>647.5999755859375</ele>
        <time>2019-10-29T15:09:30.000Z</time>
      </trkpt>
      <trkpt lat="37.27764473296701908111572265625" lon="-3.66336400620639324188232421875">
        <ele>648.5999755859375</ele>
        <time>2019-10-29T15:09:34.000Z</time>
      </trkpt>
      <trkpt lat="37.27761388756334781646728515625" lon="-3.6633622460067272186279296875">
        <ele>648.79998779296875</ele>
        <time>2019-10-29T15:09:36.000Z</time>
      </trkpt>
      <trkpt lat="37.2776062600314617156982421875" lon="-3.663386218249797821044921875">
        <ele>648.79998779296875</ele>
        <time>2019-10-29T15:09:40.000Z</time>
      </trkpt>
      <trkpt lat="37.27749201469123363494873046875" lon="-3.66336182691156864166259765625">
        <ele>649.5999755859375</ele>
        <time>2019-10-29T15:09:55.000Z</time>
      </trkpt>
      <trkpt lat="37.27731339633464813232421875" lon="-3.6632739007472991943359375">
        <ele>649.5999755859375</ele>
        <time>2019-10-29T15:10:01.000Z</time>
      </trkpt>
      <trkpt lat="37.2771197743713855743408203125" lon="-3.66318262182176113128662109375">
        <ele>649.20001220703125</ele>
        <time>2019-10-29T15:10:07.000Z</time>
      </trkpt>
      <trkpt lat="37.27695674635469913482666015625" lon="-3.66307751275599002838134765625">
        <ele>648.79998779296875</ele>
        <time>2019-10-29T15:10:13.000Z</time>
      </trkpt>
      <trkpt lat="37.27678827010095119476318359375" lon="-3.6629585735499858856201171875">
        <ele>648.5999755859375</ele>
        <time>2019-10-29T15:10:20.000Z</time>
      </trkpt>
      <trkpt lat="37.27662499062716960906982421875" lon="-3.66280761547386646270751953125">
        <ele>649.20001220703125</ele>
        <time>2019-10-29T15:10:27.000Z</time>
      </trkpt>
      <trkpt lat="37.2764679975807666778564453125" lon="-3.6626675538718700408935546875">
        <ele>650</ele>
        <time>2019-10-29T15:10:34.000Z</time>
      </trkpt>
      <trkpt lat="37.27630354464054107666015625" lon="-3.66254056803882122039794921875">
        <ele>650</ele>
        <time>2019-10-29T15:10:41.000Z</time>
      </trkpt>
      <trkpt lat="37.276172451674938201904296875" lon="-3.662427999079227447509765625">
        <ele>650</ele>
        <time>2019-10-29T15:10:47.000Z</time>
      </trkpt>
      <trkpt lat="37.27618125267326831817626953125" lon="-3.6621944792568683624267578125">
        <ele>650.20001220703125</ele>
        <time>2019-10-29T15:10:54.000Z</time>
      </trkpt>
      <trkpt lat="37.2761930711567401885986328125" lon="-3.66216279566287994384765625">
        <ele>650.4000244140625</ele>
        <time>2019-10-29T15:10:55.000Z</time>
      </trkpt>
      <trkpt lat="37.27625601924955844879150390625" lon="-3.6619312874972820281982421875">
        <ele>651.20001220703125</ele>
        <time>2019-10-29T15:11:02.000Z</time>
      </trkpt>
      <trkpt lat="37.2763107530772686004638671875" lon="-3.6617036350071430206298828125">
        <ele>652.20001220703125</ele>
        <time>2019-10-29T15:11:09.000Z</time>
      </trkpt>
      <trkpt lat="37.276348136365413665771484375" lon="-3.66145226173102855682373046875">
        <ele>653.79998779296875</ele>
        <time>2019-10-29T15:11:16.000Z</time>
      </trkpt>
      <trkpt lat="37.2763707675039768218994140625" lon="-3.66119795478880405426025390625">
        <ele>654.5999755859375</ele>
        <time>2019-10-29T15:11:24.000Z</time>
      </trkpt>
      <trkpt lat="37.27639448828995227813720703125" lon="-3.660946749150753021240234375">
        <ele>655.5999755859375</ele>
        <time>2019-10-29T15:11:32.000Z</time>
      </trkpt>
      <trkpt lat="37.27642298676073551177978515625" lon="-3.66070090793073177337646484375">
        <ele>657</ele>
        <time>2019-10-29T15:11:40.000Z</time>
      </trkpt>
      <trkpt lat="37.2764542512595653533935546875" lon="-3.66045883856713771820068359375">
        <ele>658.5999755859375</ele>
        <time>2019-10-29T15:11:49.000Z</time>
      </trkpt>
      <trkpt lat="37.27645282633602619171142578125" lon="-3.66023152135312557220458984375">
        <ele>659.5999755859375</ele>
        <time>2019-10-29T15:11:58.000Z</time>
      </trkpt>
      <trkpt lat="37.2765018604695796966552734375" lon="-3.65999263711273670196533203125">
        <ele>661.20001220703125</ele>
        <time>2019-10-29T15:12:09.000Z</time>
      </trkpt>
      <trkpt lat="37.27658224292099475860595703125" lon="-3.65978610701858997344970703125">
        <ele>662</ele>
        <time>2019-10-29T15:12:18.000Z</time>
      </trkpt>
      <trkpt lat="37.2766175307333469390869140625" lon="-3.65953934378921985626220703125">
        <ele>662.79998779296875</ele>
        <time>2019-10-29T15:12:28.000Z</time>
      </trkpt>
      <trkpt lat="37.2766302712261676788330078125" lon="-3.65930163301527500152587890625">
        <ele>663</ele>
        <time>2019-10-29T15:12:37.000Z</time>
      </trkpt>
      <trkpt lat="37.2766158543527126312255859375" lon="-3.65921513177454471588134765625">
        <ele>663</ele>
        <time>2019-10-29T15:12:42.000Z</time>
      </trkpt>
      <trkpt lat="37.2765350528061389923095703125" lon="-3.65921546705067157745361328125">
        <ele>663</ele>
        <time>2019-10-29T15:12:46.000Z</time>
      </trkpt>
      <trkpt lat="37.27635509334504604339599609375" lon="-3.6592229269444942474365234375">
        <ele>663</ele>
        <time>2019-10-29T15:12:54.000Z</time>
      </trkpt>
      <trkpt lat="37.27615979500114917755126953125" lon="-3.65919359028339385986328125">
        <ele>663</ele>
        <time>2019-10-29T15:13:01.000Z</time>
      </trkpt>
      <trkpt lat="37.27595510892570018768310546875" lon="-3.65918286144733428955078125">
        <ele>663.4000244140625</ele>
        <time>2019-10-29T15:13:07.000Z</time>
      </trkpt>
      <trkpt lat="37.275766767561435699462890625" lon="-3.65917355753481388092041015625">
        <ele>664.20001220703125</ele>
        <time>2019-10-29T15:13:12.000Z</time>
      </trkpt>
      <trkpt lat="37.27556685917079448699951171875" lon="-3.6591431312263011932373046875">
        <ele>665</ele>
        <time>2019-10-29T15:13:18.000Z</time>
      </trkpt>
      <trkpt lat="37.27538631297647953033447265625" lon="-3.65913751535117626190185546875">
        <ele>664.79998779296875</ele>
        <time>2019-10-29T15:13:24.000Z</time>
      </trkpt>
      <trkpt lat="37.27517299354076385498046875" lon="-3.6590847931802272796630859375">
        <ele>664.4000244140625</ele>
        <time>2019-10-29T15:13:30.000Z</time>
      </trkpt>
      <trkpt lat="37.274960763752460479736328125" lon="-3.6590681970119476318359375">
        <ele>663.5999755859375</ele>
        <time>2019-10-29T15:13:35.000Z</time>
      </trkpt>
      <trkpt lat="37.27477946318686008453369140625" lon="-3.659045062959194183349609375">
        <ele>663.5999755859375</ele>
        <time>2019-10-29T15:13:39.000Z</time>
      </trkpt>
      <trkpt lat="37.2745907865464687347412109375" lon="-3.65901463665068149566650390625">
        <ele>663.79998779296875</ele>
        <time>2019-10-29T15:13:43.000Z</time>
      </trkpt>
      <trkpt lat="37.2743966616690158843994140625" lon="-3.6589828692376613616943359375">
        <ele>663.79998779296875</ele>
        <time>2019-10-29T15:13:47.000Z</time>
      </trkpt>
      <trkpt lat="37.2742005251348018646240234375" lon="-3.658943139016628265380859375">
        <ele>663.4000244140625</ele>
        <time>2019-10-29T15:13:51.000Z</time>
      </trkpt>
      <trkpt lat="37.27399441413581371307373046875" lon="-3.6589188314974308013916015625">
        <ele>662.79998779296875</ele>
        <time>2019-10-29T15:13:55.000Z</time>
      </trkpt>
      <trkpt lat="37.273767851293087005615234375" lon="-3.6589154787361621856689453125">
        <ele>662</ele>
        <time>2019-10-29T15:13:59.000Z</time>
      </trkpt>
      <trkpt lat="37.27358319796621799468994140625" lon="-3.6589064262807369232177734375">
        <ele>661.4000244140625</ele>
        <time>2019-10-29T15:14:02.000Z</time>
      </trkpt>
      <trkpt lat="37.27339527569711208343505859375" lon="-3.65888069383800029754638671875">
        <ele>661.4000244140625</ele>
        <time>2019-10-29T15:14:05.000Z</time>
      </trkpt>
      <trkpt lat="37.27320785634219646453857421875" lon="-3.6588504351675510406494140625">
        <ele>661.5999755859375</ele>
        <time>2019-10-29T15:14:08.000Z</time>
      </trkpt>
      <trkpt lat="37.27297433651983737945556640625" lon="-3.65880592726171016693115234375">
        <ele>661.79998779296875</ele>
        <time>2019-10-29T15:14:12.000Z</time>
      </trkpt>
      <trkpt lat="37.27275422774255275726318359375" lon="-3.65877918899059295654296875">
        <ele>661.4000244140625</ele>
        <time>2019-10-29T15:14:16.000Z</time>
      </trkpt>
      <trkpt lat="37.2725450992584228515625" lon="-3.65876234136521816253662109375">
        <ele>661.4000244140625</ele>
        <time>2019-10-29T15:14:20.000Z</time>
      </trkpt>
      <trkpt lat="37.2723424248397350311279296875" lon="-3.6587518639862537384033203125">
        <ele>662.20001220703125</ele>
        <time>2019-10-29T15:14:24.000Z</time>
      </trkpt>
      <trkpt lat="37.27213497273623943328857421875" lon="-3.658756054937839508056640625">
        <ele>662.79998779296875</ele>
        <time>2019-10-29T15:14:28.000Z</time>
      </trkpt>
      <trkpt lat="37.27191469632089138031005859375" lon="-3.65878187119960784912109375">
        <ele>661.79998779296875</ele>
        <time>2019-10-29T15:14:32.000Z</time>
      </trkpt>
      <trkpt lat="37.2716876305639743804931640625" lon="-3.65882788784801959991455078125">
        <ele>661</ele>
        <time>2019-10-29T15:14:36.000Z</time>
      </trkpt>
      <trkpt lat="37.27157749235630035400390625" lon="-3.6588656902313232421875">
        <ele>660.5999755859375</ele>
        <time>2019-10-29T15:14:38.000Z</time>
      </trkpt>
      <trkpt lat="37.27138512767851352691650390625" lon="-3.65895009599626064300537109375">
        <ele>660.79998779296875</ele>
        <time>2019-10-29T15:14:42.000Z</time>
      </trkpt>
      <trkpt lat="37.2711974568665027618408203125" lon="-3.65904548205435276031494140625">
        <ele>660.5999755859375</ele>
        <time>2019-10-29T15:14:47.000Z</time>
      </trkpt>
      <trkpt lat="37.27108790539205074310302734375" lon="-3.65912661887705326080322265625">
        <ele>660.4000244140625</ele>
        <time>2019-10-29T15:14:51.000Z</time>
      </trkpt>
      <trkpt lat="37.2709842212498188018798828125" lon="-3.65917305462062358856201171875">
        <ele>660.5999755859375</ele>
        <time>2019-10-29T15:14:55.000Z</time>
      </trkpt>
      <trkpt lat="37.27083527483046054840087890625" lon="-3.65930356085300445556640625">
        <ele>661</ele>
        <time>2019-10-29T15:15:02.000Z</time>
      </trkpt>
      <trkpt lat="37.27077961899340152740478515625" lon="-3.6593650840222835540771484375">
        <ele>661.5999755859375</ele>
        <time>2019-10-29T15:15:05.000Z</time>
      </trkpt>
      <trkpt lat="37.27075799368321895599365234375" lon="-3.659379668533802032470703125">
        <ele>661.79998779296875</ele>
        <time>2019-10-29T15:15:06.000Z</time>
      </trkpt>
      <trkpt lat="37.27067467756569385528564453125" lon="-3.65943909622728824615478515625">
        <ele>663.20001220703125</ele>
        <time>2019-10-29T15:15:10.000Z</time>
      </trkpt>
      <trkpt lat="37.2706305049359798431396484375" lon="-3.6594613082706928253173828125">
        <ele>664</ele>
        <time>2019-10-29T15:15:12.000Z</time>
      </trkpt>
      <trkpt lat="37.27055951021611690521240234375" lon="-3.65947446785867214202880859375">
        <ele>665</ele>
        <time>2019-10-29T15:15:15.000Z</time>
      </trkpt>
      <trkpt lat="37.27040276862680912017822265625" lon="-3.65936659276485443115234375">
        <ele>667.20001220703125</ele>
        <time>2019-10-29T15:15:23.000Z</time>
      </trkpt>
      <trkpt lat="37.27032096125185489654541015625" lon="-3.65916551090776920318603515625">
        <ele>668.5999755859375</ele>
        <time>2019-10-29T15:15:33.000Z</time>
      </trkpt>
      <trkpt lat="37.27023948915302753448486328125" lon="-3.6590016447007656097412109375">
        <ele>669.79998779296875</ele>
        <time>2019-10-29T15:15:43.000Z</time>
      </trkpt>
      <trkpt lat="37.27023865096271038055419921875" lon="-3.659009523689746856689453125">
        <ele>669.79998779296875</ele>
        <time>2019-10-29T15:15:47.000Z</time>
      </trkpt>
      <trkpt lat="37.2701842524111270904541015625" lon="-3.65894204936921596527099609375">
        <ele>670.5999755859375</ele>
        <time>2019-10-29T15:15:56.000Z</time>
      </trkpt>
      <trkpt lat="37.270152904093265533447265625" lon="-3.6589040793478488922119140625">
        <ele>671</ele>
        <time>2019-10-29T15:16:01.000Z</time>
      </trkpt>
      <trkpt lat="37.27012281306087970733642578125" lon="-3.658884800970554351806640625">
        <ele>671.4000244140625</ele>
        <time>2019-10-29T15:16:05.000Z</time>
      </trkpt>
      <trkpt lat="37.2700699232518672943115234375" lon="-3.6588742397725582122802734375">
        <ele>672.4000244140625</ele>
        <time>2019-10-29T15:16:11.000Z</time>
      </trkpt>
      <trkpt lat="37.269892394542694091796875" lon="-3.6589101143181324005126953125">
        <ele>675.4000244140625</ele>
        <time>2019-10-29T15:16:34.000Z</time>
      </trkpt>
      <trkpt lat="37.2697349824011325836181640625" lon="-3.6590145528316497802734375">
        <ele>678.4000244140625</ele>
        <time>2019-10-29T15:16:53.000Z</time>
      </trkpt>
      <trkpt lat="37.26957463659346103668212890625" lon="-3.659122176468372344970703125">
        <ele>681</ele>
        <time>2019-10-29T15:17:12.000Z</time>
      </trkpt>
      <trkpt lat="37.269405908882617950439453125" lon="-3.659221418201923370361328125">
        <ele>682.79998779296875</ele>
        <time>2019-10-29T15:17:28.000Z</time>
      </trkpt>
      <trkpt lat="37.26939291693270206451416015625" lon="-3.6592239327728748321533203125">
        <ele>683</ele>
        <time>2019-10-29T15:17:31.000Z</time>
      </trkpt>
      <trkpt lat="37.26938612759113311767578125" lon="-3.659228123724460601806640625">
        <ele>683</ele>
        <time>2019-10-29T15:17:33.000Z</time>
      </trkpt>
      <trkpt lat="37.2693336568772792816162109375" lon="-3.659212701022624969482421875">
        <ele>682.79998779296875</ele>
        <time>2019-10-29T15:17:44.000Z</time>
      </trkpt>
      <trkpt lat="37.26930323056876659393310546875" lon="-3.65913500078022480010986328125">
        <ele>682.20001220703125</ele>
        <time>2019-10-29T15:17:49.000Z</time>
      </trkpt>
      <trkpt lat="37.26923919282853603363037109375" lon="-3.65890282206237316131591796875">
        <ele>680.20001220703125</ele>
        <time>2019-10-29T15:17:57.000Z</time>
      </trkpt>
      <trkpt lat="37.26919678039848804473876953125" lon="-3.65864801220595836639404296875">
        <ele>679</ele>
        <time>2019-10-29T15:18:05.000Z</time>
      </trkpt>
      <trkpt lat="37.26916476152837276458740234375" lon="-3.65840594284236431121826171875">
        <ele>680.20001220703125</ele>
        <time>2019-10-29T15:18:12.000Z</time>
      </trkpt>
      <trkpt lat="37.2691167332231998443603515625" lon="-3.65816362202167510986328125">
        <ele>683</ele>
        <time>2019-10-29T15:18:19.000Z</time>
      </trkpt>
      <trkpt lat="37.269082702696323394775390625" lon="-3.65790453739464282989501953125">
        <ele>687</ele>
        <time>2019-10-29T15:18:26.000Z</time>
      </trkpt>
      <trkpt lat="37.269050180912017822265625" lon="-3.6576836742460727691650390625">
        <ele>688.4000244140625</ele>
        <time>2019-10-29T15:18:32.000Z</time>
      </trkpt>
      <trkpt lat="37.26891028694808483123779296875" lon="-3.6575542576611042022705078125">
        <ele>690.5999755859375</ele>
        <time>2019-10-29T15:18:39.000Z</time>
      </trkpt>
      <trkpt lat="37.26871632970869541168212890625" lon="-3.6576068960130214691162109375">
        <ele>691.79998779296875</ele>
        <time>2019-10-29T15:18:46.000Z</time>
      </trkpt>
      <trkpt lat="37.26852907799184322357177734375" lon="-3.65767152048647403717041015625">
        <ele>691.5999755859375</ele>
        <time>2019-10-29T15:18:53.000Z</time>
      </trkpt>
      <trkpt lat="37.26833880878984928131103515625" lon="-3.65774025209248065948486328125">
        <ele>691.4000244140625</ele>
        <time>2019-10-29T15:19:00.000Z</time>
      </trkpt>
      <trkpt lat="37.26815558038651943206787109375" lon="-3.6577968299388885498046875">
        <ele>692.4000244140625</ele>
        <time>2019-10-29T15:19:06.000Z</time>
      </trkpt>
      <trkpt lat="37.2679593600332736968994140625" lon="-3.657848127186298370361328125">
        <ele>694</ele>
        <time>2019-10-29T15:19:12.000Z</time>
      </trkpt>
      <trkpt lat="37.26775945164263248443603515625" lon="-3.657915182411670684814453125">
        <ele>694.20001220703125</ele>
        <time>2019-10-29T15:19:18.000Z</time>
      </trkpt>
      <trkpt lat="37.26758502423763275146484375" lon="-3.65797947160899639129638671875">
        <ele>694.4000244140625</ele>
        <time>2019-10-29T15:19:23.000Z</time>
      </trkpt>
      <trkpt lat="37.26741093210875988006591796875" lon="-3.65804367698729038238525390625">
        <ele>694.5999755859375</ele>
        <time>2019-10-29T15:19:28.000Z</time>
      </trkpt>
      <trkpt lat="37.26721286773681640625" lon="-3.658127747476100921630859375">
        <ele>695.4000244140625</ele>
        <time>2019-10-29T15:19:34.000Z</time>
      </trkpt>
      <trkpt lat="37.26702854968607425689697265625" lon="-3.6582187749445438385009765625">
        <ele>695.5999755859375</ele>
        <time>2019-10-29T15:19:39.000Z</time>
      </trkpt>
      <trkpt lat="37.2668358497321605682373046875" lon="-3.65833519957959651947021484375">
        <ele>695.20001220703125</ele>
        <time>2019-10-29T15:19:43.000Z</time>
      </trkpt>
      <trkpt lat="37.2666531242430210113525390625" lon="-3.65845640189945697784423828125">
        <ele>694.79998779296875</ele>
        <time>2019-10-29T15:19:46.000Z</time>
      </trkpt>
      <trkpt lat="37.26646008901298046112060546875" lon="-3.65858598612248897552490234375">
        <ele>694.20001220703125</ele>
        <time>2019-10-29T15:19:49.000Z</time>
      </trkpt>
      <trkpt lat="37.26628172211349010467529296875" lon="-3.65870165638625621795654296875">
        <ele>693.5999755859375</ele>
        <time>2019-10-29T15:19:53.000Z</time>
      </trkpt>
      <trkpt lat="37.26612347178161144256591796875" lon="-3.65881539881229400634765625">
        <ele>692.79998779296875</ele>
        <time>2019-10-29T15:19:58.000Z</time>
      </trkpt>
      <trkpt lat="37.26595415733754634857177734375" lon="-3.65892469882965087890625">
        <ele>691.5999755859375</ele>
        <time>2019-10-29T15:20:03.000Z</time>
      </trkpt>
      <trkpt lat="37.2657669894397258758544921875" lon="-3.6590388603508472442626953125">
        <ele>690.20001220703125</ele>
        <time>2019-10-29T15:20:08.000Z</time>
      </trkpt>
      <trkpt lat="37.2655788995325565338134765625" lon="-3.6591397784650325775146484375">
        <ele>690.79998779296875</ele>
        <time>2019-10-29T15:20:13.000Z</time>
      </trkpt>
      <trkpt lat="37.2653606347739696502685546875" lon="-3.659179843962192535400390625">
        <ele>691.5999755859375</ele>
        <time>2019-10-29T15:20:18.000Z</time>
      </trkpt>
      <trkpt lat="37.26516709662973880767822265625" lon="-3.6592142097651958465576171875">
        <ele>692</ele>
        <time>2019-10-29T15:20:22.000Z</time>
      </trkpt>
      <trkpt lat="37.2649650089442729949951171875" lon="-3.65923759527504444122314453125">
        <ele>691.79998779296875</ele>
        <time>2019-10-29T15:20:26.000Z</time>
      </trkpt>
      <trkpt lat="37.26474967785179615020751953125" lon="-3.6592614836990833282470703125">
        <ele>689.79998779296875</ele>
        <time>2019-10-29T15:20:30.000Z</time>
      </trkpt>
      <trkpt lat="37.26454448886215686798095703125" lon="-3.65927799604833126068115234375">
        <ele>687.79998779296875</ele>
        <time>2019-10-29T15:20:34.000Z</time>
      </trkpt>
      <trkpt lat="37.26435966789722442626953125" lon="-3.65929442457854747772216796875">
        <ele>687.20001220703125</ele>
        <time>2019-10-29T15:20:38.000Z</time>
      </trkpt>
      <trkpt lat="37.26414534263312816619873046875" lon="-3.659305572509765625">
        <ele>688.5999755859375</ele>
        <time>2019-10-29T15:20:43.000Z</time>
      </trkpt>
      <trkpt lat="37.26396110840141773223876953125" lon="-3.65930800326168537139892578125">
        <ele>690.5999755859375</ele>
        <time>2019-10-29T15:20:47.000Z</time>
      </trkpt>
      <trkpt lat="37.26376421749591827392578125" lon="-3.6593111045658588409423828125">
        <ele>693</ele>
        <time>2019-10-29T15:20:51.000Z</time>
      </trkpt>
      <trkpt lat="37.263580150902271270751953125" lon="-3.65931454114615917205810546875">
        <ele>693.79998779296875</ele>
        <time>2019-10-29T15:20:55.000Z</time>
      </trkpt>
      <trkpt lat="37.2633784823119640350341796875" lon="-3.6593094281852245330810546875">
        <ele>693.4000244140625</ele>
        <time>2019-10-29T15:21:00.000Z</time>
      </trkpt>
      <trkpt lat="37.2631960920989513397216796875" lon="-3.65930247120559215545654296875">
        <ele>692.4000244140625</ele>
        <time>2019-10-29T15:21:05.000Z</time>
      </trkpt>
      <trkpt lat="37.263158373534679412841796875" lon="-3.65929777733981609344482421875">
        <ele>692.20001220703125</ele>
        <time>2019-10-29T15:21:06.000Z</time>
      </trkpt>
      <trkpt lat="37.2629607282578945159912109375" lon="-3.65928470157086849212646484375">
        <ele>691.5999755859375</ele>
        <time>2019-10-29T15:21:11.000Z</time>
      </trkpt>
      <trkpt lat="37.26273651234805583953857421875" lon="-3.659281097352504730224609375">
        <ele>691.20001220703125</ele>
        <time>2019-10-29T15:21:16.000Z</time>
      </trkpt>
      <trkpt lat="37.2625335864722728729248046875" lon="-3.65927313454449176788330078125">
        <ele>691.20001220703125</ele>
        <time>2019-10-29T15:21:21.000Z</time>
      </trkpt>
      <trkpt lat="37.2623486816883087158203125" lon="-3.659258969128131866455078125">
        <ele>691</ele>
        <time>2019-10-29T15:21:25.000Z</time>
      </trkpt>
      <trkpt lat="37.2621151618659496307373046875" lon="-3.65924312733113765716552734375">
        <ele>689.79998779296875</ele>
        <time>2019-10-29T15:21:29.000Z</time>
      </trkpt>
      <trkpt lat="37.26188960485160350799560546875" lon="-3.659220747649669647216796875">
        <ele>690</ele>
        <time>2019-10-29T15:21:33.000Z</time>
      </trkpt>
      <trkpt lat="37.261835038661956787109375" lon="-3.6592192389070987701416015625">
        <ele>689.79998779296875</ele>
        <time>2019-10-29T15:21:34.000Z</time>
      </trkpt>
      <trkpt lat="37.2616487927734851837158203125" lon="-3.65919887088239192962646484375">
        <ele>689.20001220703125</ele>
        <time>2019-10-29T15:21:38.000Z</time>
      </trkpt>
      <trkpt lat="37.2615381516516208648681640625" lon="-3.65914874710142612457275390625">
        <ele>689.4000244140625</ele>
        <time>2019-10-29T15:21:41.000Z</time>
      </trkpt>
      <trkpt lat="37.2613819129765033721923828125" lon="-3.65904548205435276031494140625">
        <ele>690.20001220703125</ele>
        <time>2019-10-29T15:21:46.000Z</time>
      </trkpt>
      <trkpt lat="37.261218130588531494140625" lon="-3.65893316455185413360595703125">
        <ele>691.4000244140625</ele>
        <time>2019-10-29T15:21:51.000Z</time>
      </trkpt>
      <trkpt lat="37.26112894713878631591796875" lon="-3.65888203494250774383544921875">
        <ele>691.5999755859375</ele>
        <time>2019-10-29T15:21:54.000Z</time>
      </trkpt>
      <trkpt lat="37.2610204853117465972900390625" lon="-3.65882369689643383026123046875">
        <ele>692</ele>
        <time>2019-10-29T15:21:58.000Z</time>
      </trkpt>
      <trkpt lat="37.260837592184543609619140625" lon="-3.6587213538587093353271484375">
        <ele>692.79998779296875</ele>
        <time>2019-10-29T15:22:04.000Z</time>
      </trkpt>
      <trkpt lat="37.2606644220650196075439453125" lon="-3.65878161974251270294189453125">
        <ele>693</ele>
        <time>2019-10-29T15:22:10.000Z</time>
      </trkpt>
      <trkpt lat="37.2605118714272975921630859375" lon="-3.65891925059258937835693359375">
        <ele>693</ele>
        <time>2019-10-29T15:22:15.000Z</time>
      </trkpt>
      <trkpt lat="37.2603204287588596343994140625" lon="-3.65895621478557586669921875">
        <ele>693</ele>
        <time>2019-10-29T15:22:20.000Z</time>
      </trkpt>
      <trkpt lat="37.26013510487973690032958984375" lon="-3.65896568633615970611572265625">
        <ele>692.4000244140625</ele>
        <time>2019-10-29T15:22:25.000Z</time>
      </trkpt>
      <trkpt lat="37.25992597639560699462890625" lon="-3.65896451286971569061279296875">
        <ele>691.79998779296875</ele>
        <time>2019-10-29T15:22:30.000Z</time>
      </trkpt>
      <trkpt lat="37.25972154177725315093994140625" lon="-3.6588735692203044891357421875">
        <ele>693.20001220703125</ele>
        <time>2019-10-29T15:22:35.000Z</time>
      </trkpt>
      <trkpt lat="37.25956915877759456634521484375" lon="-3.65873719565570354461669921875">
        <ele>694</ele>
        <time>2019-10-29T15:22:39.000Z</time>
      </trkpt>
      <trkpt lat="37.259444855153560638427734375" lon="-3.658570982515811920166015625">
        <ele>694</ele>
        <time>2019-10-29T15:22:43.000Z</time>
      </trkpt>
      <trkpt lat="37.2593474574387073516845703125" lon="-3.65837291814386844635009765625">
        <ele>693.20001220703125</ele>
        <time>2019-10-29T15:22:48.000Z</time>
      </trkpt>
      <trkpt lat="37.25927579216659069061279296875" lon="-3.65815364755690097808837890625">
        <ele>693.5999755859375</ele>
        <time>2019-10-29T15:22:54.000Z</time>
      </trkpt>
      <trkpt lat="37.259240336716175079345703125" lon="-3.65795415826141834259033203125">
        <ele>694.5999755859375</ele>
        <time>2019-10-29T15:23:01.000Z</time>
      </trkpt>
      <trkpt lat="37.25912131369113922119140625" lon="-3.6578513123095035552978515625">
        <ele>695.79998779296875</ele>
        <time>2019-10-29T15:23:07.000Z</time>
      </trkpt>
      <trkpt lat="37.25894923321902751922607421875" lon="-3.6579042859375476837158203125">
        <ele>696.20001220703125</ele>
        <time>2019-10-29T15:23:14.000Z</time>
      </trkpt>
      <trkpt lat="37.258745469152927398681640625" lon="-3.657957427203655242919921875">
        <ele>696.5999755859375</ele>
        <time>2019-10-29T15:23:21.000Z</time>
      </trkpt>
      <trkpt lat="37.258538939058780670166015625" lon="-3.6580008454620838165283203125">
        <ele>696.4000244140625</ele>
        <time>2019-10-29T15:23:27.000Z</time>
      </trkpt>
      <trkpt lat="37.25836819969117641448974609375" lon="-3.658106289803981781005859375">
        <ele>696.5999755859375</ele>
        <time>2019-10-29T15:23:33.000Z</time>
      </trkpt>
      <trkpt lat="37.2582246176898479461669921875" lon="-3.6582801304757595062255859375">
        <ele>697.20001220703125</ele>
        <time>2019-10-29T15:23:40.000Z</time>
      </trkpt>
      <trkpt lat="37.25814490579068660736083984375" lon="-3.6585134826600551605224609375">
        <ele>697</ele>
        <time>2019-10-29T15:23:47.000Z</time>
      </trkpt>
      <trkpt lat="37.25812059827148914337158203125" lon="-3.65876887924969196319580078125">
        <ele>696.20001220703125</ele>
        <time>2019-10-29T15:23:54.000Z</time>
      </trkpt>
      <trkpt lat="37.2580998949706554412841796875" lon="-3.65901513956487178802490234375">
        <ele>695.5999755859375</ele>
        <time>2019-10-29T15:24:00.000Z</time>
      </trkpt>
      <trkpt lat="37.25806896574795246124267578125" lon="-3.65925930440425872802734375">
        <ele>695.79998779296875</ele>
        <time>2019-10-29T15:24:06.000Z</time>
      </trkpt>
      <trkpt lat="37.25804750807583332061767578125" lon="-3.6595035530626773834228515625">
        <ele>696</ele>
        <time>2019-10-29T15:24:11.000Z</time>
      </trkpt>
      <trkpt lat="37.25804214365780353546142578125" lon="-3.65973933599889278411865234375">
        <ele>696</ele>
        <time>2019-10-29T15:24:18.000Z</time>
      </trkpt>
      <trkpt lat="37.2579922713339328765869140625" lon="-3.65995642729103565216064453125">
        <ele>694.5999755859375</ele>
        <time>2019-10-29T15:24:24.000Z</time>
      </trkpt>
      <trkpt lat="37.257862351834774017333984375" lon="-3.66016966290771961212158203125">
        <ele>693</ele>
        <time>2019-10-29T15:24:29.000Z</time>
      </trkpt>
      <trkpt lat="37.257681973278522491455078125" lon="-3.66017569787800312042236328125">
        <ele>693</ele>
        <time>2019-10-29T15:24:34.000Z</time>
      </trkpt>
      <trkpt lat="37.25753805600106716156005859375" lon="-3.6600299365818500518798828125">
        <ele>693.4000244140625</ele>
        <time>2019-10-29T15:24:39.000Z</time>
      </trkpt>
      <trkpt lat="37.25739807821810245513916015625" lon="-3.65986456163227558135986328125">
        <ele>693.4000244140625</ele>
        <time>2019-10-29T15:24:43.000Z</time>
      </trkpt>
      <trkpt lat="37.25726882927119731903076171875" lon="-3.65968653000891208648681640625">
        <ele>692.79998779296875</ele>
        <time>2019-10-29T15:24:46.000Z</time>
      </trkpt>
      <trkpt lat="37.257122732698917388916015625" lon="-3.659445382654666900634765625">
        <ele>693.20001220703125</ele>
        <time>2019-10-29T15:24:49.000Z</time>
      </trkpt>
      <trkpt lat="37.2569519095122814178466796875" lon="-3.659192584455013275146484375">
        <ele>693.4000244140625</ele>
        <time>2019-10-29T15:24:52.000Z</time>
      </trkpt>
      <trkpt lat="37.25688728503882884979248046875" lon="-3.65912309847772121429443359375">
        <ele>693.4000244140625</ele>
        <time>2019-10-29T15:24:53.000Z</time>
      </trkpt>
      <trkpt lat="37.25667438469827175140380859375" lon="-3.6590066738426685333251953125">
        <ele>693.79998779296875</ele>
        <time>2019-10-29T15:24:56.000Z</time>
      </trkpt>
      <trkpt lat="37.2565301321446895599365234375" lon="-3.65898848511278629302978515625">
        <ele>693.5999755859375</ele>
        <time>2019-10-29T15:24:58.000Z</time>
      </trkpt>
      <trkpt lat="37.2563225962221622467041015625" lon="-3.65897121839225292205810546875">
        <ele>692.79998779296875</ele>
        <time>2019-10-29T15:25:01.000Z</time>
      </trkpt>
      <trkpt lat="37.25613324902951717376708984375" lon="-3.65893919952213764190673828125">
        <ele>693.5999755859375</ele>
        <time>2019-10-29T15:25:04.000Z</time>
      </trkpt>
      <trkpt lat="37.25590526126325130462646484375" lon="-3.6589024029672145843505859375">
        <ele>693.79998779296875</ele>
        <time>2019-10-29T15:25:08.000Z</time>
      </trkpt>
      <trkpt lat="37.25569202564656734466552734375" lon="-3.658868037164211273193359375">
        <ele>693.4000244140625</ele>
        <time>2019-10-29T15:25:12.000Z</time>
      </trkpt>
      <trkpt lat="37.255473174154758453369140625" lon="-3.65882922895252704620361328125">
        <ele>692.4000244140625</ele>
        <time>2019-10-29T15:25:16.000Z</time>
      </trkpt>
      <trkpt lat="37.2552604414522647857666015625" lon="-3.6587892472743988037109375">
        <ele>692.5999755859375</ele>
        <time>2019-10-29T15:25:20.000Z</time>
      </trkpt>
      <trkpt lat="37.2550512291491031646728515625" lon="-3.6587625928223133087158203125">
        <ele>693</ele>
        <time>2019-10-29T15:25:24.000Z</time>
      </trkpt>
      <trkpt lat="37.25483648478984832763671875" lon="-3.65874172188341617584228515625">
        <ele>693</ele>
        <time>2019-10-29T15:25:28.000Z</time>
      </trkpt>
      <trkpt lat="37.25460874848067760467529296875" lon="-3.65871339105069637298583984375">
        <ele>693.4000244140625</ele>
        <time>2019-10-29T15:25:32.000Z</time>
      </trkpt>
      <trkpt lat="37.25437321700155735015869140625" lon="-3.658691011369228363037109375">
        <ele>691.79998779296875</ele>
        <time>2019-10-29T15:25:36.000Z</time>
      </trkpt>
      <trkpt lat="37.25413667969405651092529296875" lon="-3.65865555591881275177001953125">
        <ele>690.20001220703125</ele>
        <time>2019-10-29T15:25:40.000Z</time>
      </trkpt>
      <trkpt lat="37.253953032195568084716796875" lon="-3.65862772800028324127197265625">
        <ele>691.4000244140625</ele>
        <time>2019-10-29T15:25:43.000Z</time>
      </trkpt>
      <trkpt lat="37.253769300878047943115234375" lon="-3.65859067998826503753662109375">
        <ele>692.20001220703125</ele>
        <time>2019-10-29T15:25:46.000Z</time>
      </trkpt>
      <trkpt lat="37.25358380936086177825927734375" lon="-3.658559583127498626708984375">
        <ele>692.20001220703125</ele>
        <time>2019-10-29T15:25:49.000Z</time>
      </trkpt>
      <trkpt lat="37.25339873693883419036865234375" lon="-3.65851323120296001434326171875">
        <ele>691</ele>
        <time>2019-10-29T15:25:52.000Z</time>
      </trkpt>
      <trkpt lat="37.25321567617356777191162109375" lon="-3.658468723297119140625">
        <ele>690.4000244140625</ele>
        <time>2019-10-29T15:25:55.000Z</time>
      </trkpt>
      <trkpt lat="37.25315616466104984283447265625" lon="-3.6584504507482051849365234375">
        <ele>690</ele>
        <time>2019-10-29T15:25:56.000Z</time>
      </trkpt>
      <trkpt lat="37.2529326193034648895263671875" lon="-3.65835313685238361358642578125">
        <ele>690.20001220703125</ele>
        <time>2019-10-29T15:26:00.000Z</time>
      </trkpt>
      <trkpt lat="37.252708487212657928466796875" lon="-3.658253811299800872802734375">
        <ele>691.4000244140625</ele>
        <time>2019-10-29T15:26:04.000Z</time>
      </trkpt>
      <trkpt lat="37.25248142145574092864990234375" lon="-3.658156581223011016845703125">
        <ele>691.5999755859375</ele>
        <time>2019-10-29T15:26:08.000Z</time>
      </trkpt>
      <trkpt lat="37.2523100115358829498291015625" lon="-3.65808206610381603240966796875">
        <ele>691.4000244140625</ele>
        <time>2019-10-29T15:26:11.000Z</time>
      </trkpt>
      <trkpt lat="37.25213323719799518585205078125" lon="-3.65800512023270130157470703125">
        <ele>691.20001220703125</ele>
        <time>2019-10-29T15:26:14.000Z</time>
      </trkpt>
      <trkpt lat="37.251959145069122314453125" lon="-3.65792649798095226287841796875">
        <ele>691.4000244140625</ele>
        <time>2019-10-29T15:26:17.000Z</time>
      </trkpt>
      <trkpt lat="37.25178974680602550506591796875" lon="-3.65784603171050548553466796875">
        <ele>691.4000244140625</ele>
        <time>2019-10-29T15:26:20.000Z</time>
      </trkpt>
      <trkpt lat="37.25157089531421661376953125" lon="-3.65774142555892467498779296875">
        <ele>691.79998779296875</ele>
        <time>2019-10-29T15:26:24.000Z</time>
      </trkpt>
      <trkpt lat="37.25136595778167247772216796875" lon="-3.65763279609382152557373046875">
        <ele>692.20001220703125</ele>
        <time>2019-10-29T15:26:28.000Z</time>
      </trkpt>
      <trkpt lat="37.25117216818034648895263671875" lon="-3.65753020159900188446044921875">
        <ele>692.5999755859375</ele>
        <time>2019-10-29T15:26:32.000Z</time>
      </trkpt>
      <trkpt lat="37.25099086761474609375" lon="-3.65743649192154407501220703125">
        <ele>691.5999755859375</ele>
        <time>2019-10-29T15:26:36.000Z</time>
      </trkpt>
      <trkpt lat="37.2508240677416324615478515625" lon="-3.65733993239700794219970703125">
        <ele>690.4000244140625</ele>
        <time>2019-10-29T15:26:40.000Z</time>
      </trkpt>
      <trkpt lat="37.2506510652601718902587890625" lon="-3.6572468094527721405029296875">
        <ele>690</ele>
        <time>2019-10-29T15:26:44.000Z</time>
      </trkpt>
      <trkpt lat="37.2504787333309650421142578125" lon="-3.65715511143207550048828125">
        <ele>690</ele>
        <time>2019-10-29T15:26:48.000Z</time>
      </trkpt>
      <trkpt lat="37.25030816160142421722412109375" lon="-3.65705788135528564453125">
        <ele>690</ele>
        <time>2019-10-29T15:26:52.000Z</time>
      </trkpt>
      <trkpt lat="37.2501290403306484222412109375" lon="-3.6569572985172271728515625">
        <ele>690</ele>
        <time>2019-10-29T15:26:56.000Z</time>
      </trkpt>
      <trkpt lat="37.24995880387723445892333984375" lon="-3.6570228450000286102294921875">
        <ele>689.79998779296875</ele>
        <time>2019-10-29T15:27:00.000Z</time>
      </trkpt>
      <trkpt lat="37.249813377857208251953125" lon="-3.65715821273624897003173828125">
        <ele>689.4000244140625</ele>
        <time>2019-10-29T15:27:04.000Z</time>
      </trkpt>
      <trkpt lat="37.249664179980754852294921875" lon="-3.65730020217597484588623046875">
        <ele>688.79998779296875</ele>
        <time>2019-10-29T15:27:08.000Z</time>
      </trkpt>
      <trkpt lat="37.2496215999126434326171875" lon="-3.65733691491186618804931640625">
        <ele>688.5999755859375</ele>
        <time>2019-10-29T15:27:09.000Z</time>
      </trkpt>
      <trkpt lat="37.24944633431732654571533203125" lon="-3.65747102536261081695556640625">
        <ele>687.5999755859375</ele>
        <time>2019-10-29T15:27:13.000Z</time>
      </trkpt>
      <trkpt lat="37.24925489164888858795166015625" lon="-3.6576063930988311767578125">
        <ele>685.4000244140625</ele>
        <time>2019-10-29T15:27:17.000Z</time>
      </trkpt>
      <trkpt lat="37.24906931631267070770263671875" lon="-3.6577463708817958831787109375">
        <ele>683.20001220703125</ele>
        <time>2019-10-29T15:27:21.000Z</time>
      </trkpt>
      <trkpt lat="37.24887535907328128814697265625" lon="-3.65790151990950107574462890625">
        <ele>682.79998779296875</ele>
        <time>2019-10-29T15:27:25.000Z</time>
      </trkpt>
      <trkpt lat="37.2487336210906505584716796875" lon="-3.6580082215368747711181640625">
        <ele>683.4000244140625</ele>
        <time>2019-10-29T15:27:28.000Z</time>
      </trkpt>
      <trkpt lat="37.24861015565693378448486328125" lon="-3.65823897533118724822998046875">
        <ele>684.5999755859375</ele>
        <time>2019-10-29T15:27:32.000Z</time>
      </trkpt>
      <trkpt lat="37.24859305657446384429931640625" lon="-3.65830636583268642425537109375">
        <ele>684.79998779296875</ele>
        <time>2019-10-29T15:27:33.000Z</time>
      </trkpt>
      <trkpt lat="37.24853035993874073028564453125" lon="-3.65857760421931743621826171875">
        <ele>684.20001220703125</ele>
        <time>2019-10-29T15:27:37.000Z</time>
      </trkpt>
      <trkpt lat="37.2484789788722991943359375" lon="-3.658796958625316619873046875">
        <ele>683</ele>
        <time>2019-10-29T15:27:42.000Z</time>
      </trkpt>
      <trkpt lat="37.24847420118749141693115234375" lon="-3.65882922895252704620361328125">
        <ele>682.79998779296875</ele>
        <time>2019-10-29T15:27:44.000Z</time>
      </trkpt>
      <trkpt lat="37.24847587756812572479248046875" lon="-3.658830821514129638671875">
        <ele>682.79998779296875</ele>
        <time>2019-10-29T15:27:47.000Z</time>
      </trkpt>
      <trkpt lat="37.24850487895309925079345703125" lon="-3.65868128836154937744140625">
        <ele>683.79998779296875</ele>
        <time>2019-10-29T15:28:18.000Z</time>
      </trkpt>
      <trkpt lat="37.24855567328631877899169921875" lon="-3.658458329737186431884765625">
        <ele>684.5999755859375</ele>
        <time>2019-10-29T15:28:25.000Z</time>
      </trkpt>
      <trkpt lat="37.2486226446926593780517578125" lon="-3.65822657011449337005615234375">
        <ele>684.4000244140625</ele>
        <time>2019-10-29T15:28:32.000Z</time>
      </trkpt>
      <trkpt lat="37.24873445928096771240234375" lon="-3.65801165811717510223388671875">
        <ele>683.4000244140625</ele>
        <time>2019-10-29T15:28:39.000Z</time>
      </trkpt>
      <trkpt lat="37.24890570156276226043701171875" lon="-3.65789297036826610565185546875">
        <ele>682.79998779296875</ele>
        <time>2019-10-29T15:28:46.000Z</time>
      </trkpt>
      <trkpt lat="37.24907669238746166229248046875" lon="-3.657781071960926055908203125">
        <ele>683</ele>
        <time>2019-10-29T15:28:52.000Z</time>
      </trkpt>
      <trkpt lat="37.24925338290631771087646484375" lon="-3.65764997899532318115234375">
        <ele>685.4000244140625</ele>
        <time>2019-10-29T15:28:59.000Z</time>
      </trkpt>
      <trkpt lat="37.24941439926624298095703125" lon="-3.65752886049449443817138671875">
        <ele>687.20001220703125</ele>
        <time>2019-10-29T15:29:05.000Z</time>
      </trkpt>
      <trkpt lat="37.24956720136106014251708984375" lon="-3.657402880489826202392578125">
        <ele>688.20001220703125</ele>
        <time>2019-10-29T15:29:12.000Z</time>
      </trkpt>
      <trkpt lat="37.24972344003617763519287109375" lon="-3.6572746373713016510009765625">
        <ele>689</ele>
        <time>2019-10-29T15:29:19.000Z</time>
      </trkpt>
      <trkpt lat="37.24974288605153560638427734375" lon="-3.65723289549350738525390625">
        <ele>689.20001220703125</ele>
        <time>2019-10-29T15:29:21.000Z</time>
      </trkpt>
      <trkpt lat="37.24973089993000030517578125" lon="-3.6571415327489376068115234375">
        <ele>689.4000244140625</ele>
        <time>2019-10-29T15:29:26.000Z</time>
      </trkpt>
      <trkpt lat="37.24974322132766246795654296875" lon="-3.65713457576930522918701171875">
        <ele>689.4000244140625</ele>
        <time>2019-10-29T15:29:31.000Z</time>
      </trkpt>
      <trkpt lat="37.24986366927623748779296875" lon="-3.65707573480904102325439453125">
        <ele>689.5999755859375</ele>
        <time>2019-10-29T15:29:49.000Z</time>
      </trkpt>
      <trkpt lat="37.24996433593332767486572265625" lon="-3.65700599737465381622314453125">
        <ele>690</ele>
        <time>2019-10-29T15:29:53.000Z</time>
      </trkpt>
      <trkpt lat="37.2499997913837432861328125" lon="-3.65691564045846462249755859375">
        <ele>690</ele>
        <time>2019-10-29T15:29:56.000Z</time>
      </trkpt>
      <trkpt lat="37.24983307532966136932373046875" lon="-3.65689359605312347412109375">
        <ele>690.4000244140625</ele>
        <time>2019-10-29T15:30:02.000Z</time>
      </trkpt>
      <trkpt lat="37.24976551719009876251220703125" lon="-3.6569457314908504486083984375">
        <ele>690.20001220703125</ele>
        <time>2019-10-29T15:30:04.000Z</time>
      </trkpt>
      <trkpt lat="37.249585725367069244384765625" lon="-3.65709166042506694793701171875">
        <ele>689.4000244140625</ele>
        <time>2019-10-29T15:30:09.000Z</time>
      </trkpt>
      <trkpt lat="37.2494330070912837982177734375" lon="-3.6572186462581157684326171875">
        <ele>688.4000244140625</ele>
        <time>2019-10-29T15:30:13.000Z</time>
      </trkpt>
      <trkpt lat="37.2492621839046478271484375" lon="-3.65736239589750766754150390625">
        <ele>686.4000244140625</ele>
        <time>2019-10-29T15:30:17.000Z</time>
      </trkpt>
      <trkpt lat="37.24908775649964809417724609375" lon="-3.657510839402675628662109375">
        <ele>684.20001220703125</ele>
        <time>2019-10-29T15:30:21.000Z</time>
      </trkpt>
      <trkpt lat="37.2489012591540813446044921875" lon="-3.657673783600330352783203125">
        <ele>682.5999755859375</ele>
        <time>2019-10-29T15:30:25.000Z</time>
      </trkpt>
      <trkpt lat="37.24885507486760616302490234375" lon="-3.657713346183300018310546875">
        <ele>682.20001220703125</ele>
        <time>2019-10-29T15:30:26.000Z</time>
      </trkpt>
      <trkpt lat="37.24868592806160449981689453125" lon="-3.65780831314623355865478515625">
        <ele>682.4000244140625</ele>
        <time>2019-10-29T15:30:29.000Z</time>
      </trkpt>
      <trkpt lat="37.2486223094165325164794921875" lon="-3.65783027373254299163818359375">
        <ele>682.79998779296875</ele>
        <time>2019-10-29T15:30:30.000Z</time>
      </trkpt>
      <trkpt lat="37.2484244965016841888427734375" lon="-3.6578808166086673736572265625">
        <ele>683.20001220703125</ele>
        <time>2019-10-29T15:30:33.000Z</time>
      </trkpt>
      <trkpt lat="37.24822509102523326873779296875" lon="-3.6579368077218532562255859375">
        <ele>683.4000244140625</ele>
        <time>2019-10-29T15:30:36.000Z</time>
      </trkpt>
      <trkpt lat="37.24802526645362377166748046875" lon="-3.65799958817660808563232421875">
        <ele>682</ele>
        <time>2019-10-29T15:30:39.000Z</time>
      </trkpt>
      <trkpt lat="37.24782309494912624359130859375" lon="-3.658056668937206268310546875">
        <ele>681.4000244140625</ele>
        <time>2019-10-29T15:30:42.000Z</time>
      </trkpt>
      <trkpt lat="37.24761656485497951507568359375" lon="-3.6581168510019779205322265625">
        <ele>680.5999755859375</ele>
        <time>2019-10-29T15:30:45.000Z</time>
      </trkpt>
      <trkpt lat="37.2474112920463085174560546875" lon="-3.65818331949412822723388671875">
        <ele>679.5999755859375</ele>
        <time>2019-10-29T15:30:48.000Z</time>
      </trkpt>
      <trkpt lat="37.24722663871943950653076171875" lon="-3.6582348681986331939697265625">
        <ele>678.5999755859375</ele>
        <time>2019-10-29T15:30:51.000Z</time>
      </trkpt>
      <trkpt lat="37.24700569175183773040771484375" lon="-3.6582650430500507354736328125">
        <ele>678</ele>
        <time>2019-10-29T15:30:55.000Z</time>
      </trkpt>
      <trkpt lat="37.24696545861661434173583984375" lon="-3.65828507579863071441650390625">
        <ele>678</ele>
        <time>2019-10-29T15:30:56.000Z</time>
      </trkpt>
      <trkpt lat="37.246861942112445831298828125" lon="-3.658393286168575286865234375">
        <ele>678</ele>
        <time>2019-10-29T15:30:59.000Z</time>
      </trkpt>
      <trkpt lat="37.2466639615595340728759765625" lon="-3.6583998240530490875244140625">
        <ele>678</ele>
        <time>2019-10-29T15:31:03.000Z</time>
      </trkpt>
      <trkpt lat="37.2466129995882511138916015625" lon="-3.65838850848376750946044921875">
        <ele>678</ele>
        <time>2019-10-29T15:31:04.000Z</time>
      </trkpt>
      <trkpt lat="37.24639423191547393798828125" lon="-3.6583478562533855438232421875">
        <ele>676.79998779296875</ele>
        <time>2019-10-29T15:31:08.000Z</time>
      </trkpt>
      <trkpt lat="37.24616515450179576873779296875" lon="-3.6583146639168262481689453125">
        <ele>675.5999755859375</ele>
        <time>2019-10-29T15:31:12.000Z</time>
      </trkpt>
      <trkpt lat="37.2459642402827739715576171875" lon="-3.65829161368310451507568359375">
        <ele>675.4000244140625</ele>
        <time>2019-10-29T15:31:16.000Z</time>
      </trkpt>
      <trkpt lat="37.245776988565921783447265625" lon="-3.65826160646975040435791015625">
        <ele>675</ele>
        <time>2019-10-29T15:31:20.000Z</time>
      </trkpt>
      <trkpt lat="37.24557054229080677032470703125" lon="-3.65823310799896717071533203125">
        <ele>674.4000244140625</ele>
        <time>2019-10-29T15:31:24.000Z</time>
      </trkpt>
      <trkpt lat="37.245360575616359710693359375" lon="-3.65825205110013484954833984375">
        <ele>673.5999755859375</ele>
        <time>2019-10-29T15:31:28.000Z</time>
      </trkpt>
      <trkpt lat="37.24514021538197994232177734375" lon="-3.65824920125305652618408203125">
        <ele>672</ele>
        <time>2019-10-29T15:31:32.000Z</time>
      </trkpt>
      <trkpt lat="37.244895882904529571533203125" lon="-3.658235706388950347900390625">
        <ele>671</ele>
        <time>2019-10-29T15:31:36.000Z</time>
      </trkpt>
      <trkpt lat="37.244707457721233367919921875" lon="-3.658252470195293426513671875">
        <ele>671.20001220703125</ele>
        <time>2019-10-29T15:31:39.000Z</time>
      </trkpt>
      <trkpt lat="37.24448123015463352203369140625" lon="-3.65832053124904632568359375">
        <ele>671.79998779296875</ele>
        <time>2019-10-29T15:31:43.000Z</time>
      </trkpt>
      <trkpt lat="37.244306467473506927490234375" lon="-3.65841147489845752716064453125">
        <ele>672.20001220703125</ele>
        <time>2019-10-29T15:31:46.000Z</time>
      </trkpt>
      <trkpt lat="37.244120724499225616455078125" lon="-3.65850803442299365997314453125">
        <ele>673</ele>
        <time>2019-10-29T15:31:49.000Z</time>
      </trkpt>
      <trkpt lat="37.243923582136631011962890625" lon="-3.65859621204435825347900390625">
        <ele>673</ele>
        <time>2019-10-29T15:31:52.000Z</time>
      </trkpt>
      <trkpt lat="37.24372585304081439971923828125" lon="-3.6587404645979404449462890625">
        <ele>672.5999755859375</ele>
        <time>2019-10-29T15:31:56.000Z</time>
      </trkpt>
      <trkpt lat="37.24364630877971649169921875" lon="-3.6588152311742305755615234375">
        <ele>672.4000244140625</ele>
        <time>2019-10-29T15:31:58.000Z</time>
      </trkpt>
      <trkpt lat="37.24352451972663402557373046875" lon="-3.6589845456182956695556640625">
        <ele>671.79998779296875</ele>
        <time>2019-10-29T15:32:02.000Z</time>
      </trkpt>
      <trkpt lat="37.2434439696371555328369140625" lon="-3.659024275839328765869140625">
        <ele>671</ele>
        <time>2019-10-29T15:32:05.000Z</time>
      </trkpt>
      <trkpt lat="37.24341555498540401458740234375" lon="-3.65902637131512165069580078125">
        <ele>670.79998779296875</ele>
        <time>2019-10-29T15:32:06.000Z</time>
      </trkpt>
      <trkpt lat="37.24327540956437587738037109375" lon="-3.65894188173115253448486328125">
        <ele>670</ele>
        <time>2019-10-29T15:32:11.000Z</time>
      </trkpt>
      <trkpt lat="37.24325328134000301361083984375" lon="-3.6589104495942592620849609375">
        <ele>670</ele>
        <time>2019-10-29T15:32:12.000Z</time>
      </trkpt>
      <trkpt lat="37.24310911260545253753662109375" lon="-3.6587203480303287506103515625">
        <ele>668.79998779296875</ele>
        <time>2019-10-29T15:32:18.000Z</time>
      </trkpt>
      <trkpt lat="37.24308396689593791961669921875" lon="-3.65864331834018230438232421875">
        <ele>668.5999755859375</ele>
        <time>2019-10-29T15:32:20.000Z</time>
      </trkpt>
      <trkpt lat="37.243166528642177581787109375" lon="-3.6585570685565471649169921875">
        <ele>669</ele>
        <time>2019-10-29T15:32:24.000Z</time>
      </trkpt>
      <trkpt lat="37.24324657581746578216552734375" lon="-3.65847073495388031005859375">
        <ele>669.20001220703125</ele>
        <time>2019-10-29T15:32:28.000Z</time>
      </trkpt>
      <trkpt lat="37.243161834776401519775390625" lon="-3.65831826813519001007080078125">
        <ele>668.20001220703125</ele>
        <time>2019-10-29T15:32:34.000Z</time>
      </trkpt>
      <trkpt lat="37.24302529357373714447021484375" lon="-3.65813503973186016082763671875">
        <ele>667.20001220703125</ele>
        <time>2019-10-29T15:32:42.000Z</time>
      </trkpt>
      <trkpt lat="37.2429172508418560028076171875" lon="-3.65798450075089931488037109375">
        <ele>667.5999755859375</ele>
        <time>2019-10-29T15:32:51.000Z</time>
      </trkpt>
      <trkpt lat="37.24291482008993625640869140625" lon="-3.65798299200832843780517578125">
        <ele>667.5999755859375</ele>
        <time>2019-10-29T15:32:53.000Z</time>
      </trkpt>
      <trkpt lat="37.24283066578209400177001953125" lon="-3.6578670702874660491943359375">
        <ele>668.20001220703125</ele>
        <time>2019-10-29T15:35:09.000Z</time>
      </trkpt>
      <trkpt lat="37.242697142064571380615234375" lon="-3.6576974205672740936279296875">
        <ele>669</ele>
        <time>2019-10-29T15:35:15.000Z</time>
      </trkpt>
      <trkpt lat="37.2425464354455471038818359375" lon="-3.65751679055392742156982421875">
        <ele>670.5999755859375</ele>
        <time>2019-10-29T15:35:21.000Z</time>
      </trkpt>
      <trkpt lat="37.24240670911967754364013671875" lon="-3.65734328515827655792236328125">
        <ele>671</ele>
        <time>2019-10-29T15:35:27.000Z</time>
      </trkpt>
      <trkpt lat="37.242267988622188568115234375" lon="-3.6571686901152133941650390625">
        <ele>670.5999755859375</ele>
        <time>2019-10-29T15:35:33.000Z</time>
      </trkpt>
      <trkpt lat="37.24212172441184520721435546875" lon="-3.656985461711883544921875">
        <ele>669</ele>
        <time>2019-10-29T15:35:39.000Z</time>
      </trkpt>
      <trkpt lat="37.24198208190500736236572265625" lon="-3.6568092741072177886962890625">
        <ele>668.4000244140625</ele>
        <time>2019-10-29T15:35:45.000Z</time>
      </trkpt>
      <trkpt lat="37.2418591193854808807373046875" lon="-3.6566413007676601409912109375">
        <ele>668.4000244140625</ele>
        <time>2019-10-29T15:35:50.000Z</time>
      </trkpt>
      <trkpt lat="37.24172106944024562835693359375" lon="-3.65646318532526493072509765625">
        <ele>669.20001220703125</ele>
        <time>2019-10-29T15:35:55.000Z</time>
      </trkpt>
      <trkpt lat="37.2415624000132083892822265625" lon="-3.65627224557101726531982421875">
        <ele>669.20001220703125</ele>
        <time>2019-10-29T15:36:00.000Z</time>
      </trkpt>
      <trkpt lat="37.24141378886997699737548828125" lon="-3.6560780368745326995849609375">
        <ele>668.4000244140625</ele>
        <time>2019-10-29T15:36:05.000Z</time>
      </trkpt>
      <trkpt lat="37.24125352688133716583251953125" lon="-3.65588164888322353363037109375">
        <ele>669</ele>
        <time>2019-10-29T15:36:10.000Z</time>
      </trkpt>
      <trkpt lat="37.24109846167266368865966796875" lon="-3.655698001384735107421875">
        <ele>667</ele>
        <time>2019-10-29T15:36:15.000Z</time>
      </trkpt>
      <trkpt lat="37.2409444861114025115966796875" lon="-3.6555107496678829193115234375">
        <ele>665.5999755859375</ele>
        <time>2019-10-29T15:36:20.000Z</time>
      </trkpt>
      <trkpt lat="37.2407892532646656036376953125" lon="-3.65531637333333492279052734375">
        <ele>666</ele>
        <time>2019-10-29T15:36:25.000Z</time>
      </trkpt>
      <trkpt lat="37.24063728936016559600830078125" lon="-3.65512995980679988861083984375">
        <ele>667.5999755859375</ele>
        <time>2019-10-29T15:36:30.000Z</time>
      </trkpt>
      <trkpt lat="37.24052765406668186187744140625" lon="-3.65498562343418598175048828125">
        <ele>668.20001220703125</ele>
        <time>2019-10-29T15:36:34.000Z</time>
      </trkpt>
      <trkpt lat="37.24037543870508670806884765625" lon="-3.65482552908360958099365234375">
        <ele>668.4000244140625</ele>
        <time>2019-10-29T15:36:39.000Z</time>
      </trkpt>
      <trkpt lat="37.24025574512779712677001953125" lon="-3.654694519937038421630859375">
        <ele>668.79998779296875</ele>
        <time>2019-10-29T15:36:43.000Z</time>
      </trkpt>
      <trkpt lat="37.2401059605181217193603515625" lon="-3.65450701676309108734130859375">
        <ele>671.5999755859375</ele>
        <time>2019-10-29T15:36:49.000Z</time>
      </trkpt>
      <trkpt lat="37.2399279288947582244873046875" lon="-3.654352538287639617919921875">
        <ele>674</ele>
        <time>2019-10-29T15:36:54.000Z</time>
      </trkpt>
      <trkpt lat="37.23978258669376373291015625" lon="-3.65417593158781528472900390625">
        <ele>673.4000244140625</ele>
        <time>2019-10-29T15:36:59.000Z</time>
      </trkpt>
      <trkpt lat="37.23964638076722621917724609375" lon="-3.6539932899177074432373046875">
        <ele>671.20001220703125</ele>
        <time>2019-10-29T15:37:05.000Z</time>
      </trkpt>
      <trkpt lat="37.23952107131481170654296875" lon="-3.65381500683724880218505859375">
        <ele>668.4000244140625</ele>
        <time>2019-10-29T15:37:11.000Z</time>
      </trkpt>
      <trkpt lat="37.2393901459872722625732421875" lon="-3.65364083088934421539306640625">
        <ele>668.20001220703125</ele>
        <time>2019-10-29T15:37:17.000Z</time>
      </trkpt>
      <trkpt lat="37.23924790509045124053955078125" lon="-3.6534984223544597625732421875">
        <ele>669.20001220703125</ele>
        <time>2019-10-29T15:37:23.000Z</time>
      </trkpt>
      <trkpt lat="37.2391046583652496337890625" lon="-3.65334796719253063201904296875">
        <ele>670.20001220703125</ele>
        <time>2019-10-29T15:37:29.000Z</time>
      </trkpt>
      <trkpt lat="37.23895135335624217987060546875" lon="-3.653213270008563995361328125">
        <ele>669.5999755859375</ele>
        <time>2019-10-29T15:37:35.000Z</time>
      </trkpt>
      <trkpt lat="37.2387853078544139862060546875" lon="-3.6530528403818607330322265625">
        <ele>669.20001220703125</ele>
        <time>2019-10-29T15:37:41.000Z</time>
      </trkpt>
      <trkpt lat="37.23863317631185054779052734375" lon="-3.652888722717761993408203125">
        <ele>669.79998779296875</ele>
        <time>2019-10-29T15:37:49.000Z</time>
      </trkpt>
      <trkpt lat="37.23843787796795368194580078125" lon="-3.652780093252658843994140625">
        <ele>670</ele>
        <time>2019-10-29T15:37:55.000Z</time>
      </trkpt>
      <trkpt lat="37.2382656298577785491943359375" lon="-3.65265595726668834686279296875">
        <ele>670.20001220703125</ele>
        <time>2019-10-29T15:38:00.000Z</time>
      </trkpt>
      <trkpt lat="37.2380943037569522857666015625" lon="-3.65249854512512683868408203125">
        <ele>670</ele>
        <time>2019-10-29T15:38:05.000Z</time>
      </trkpt>
      <trkpt lat="37.2379137575626373291015625" lon="-3.65235940553247928619384765625">
        <ele>670.4000244140625</ele>
        <time>2019-10-29T15:38:10.000Z</time>
      </trkpt>
      <trkpt lat="37.23776514641940593719482421875" lon="-3.6522022448480129241943359375">
        <ele>670.4000244140625</ele>
        <time>2019-10-29T15:38:15.000Z</time>
      </trkpt>
      <trkpt lat="37.237617708742618560791015625" lon="-3.65203452296555042266845703125">
        <ele>671.5999755859375</ele>
        <time>2019-10-29T15:38:21.000Z</time>
      </trkpt>
      <trkpt lat="37.23747454583644866943359375" lon="-3.65185230039060115814208984375">
        <ele>671.20001220703125</ele>
        <time>2019-10-29T15:38:27.000Z</time>
      </trkpt>
      <trkpt lat="37.23732643760740756988525390625" lon="-3.6516577564179897308349609375">
        <ele>670.4000244140625</ele>
        <time>2019-10-29T15:38:33.000Z</time>
      </trkpt>
      <trkpt lat="37.2371756471693515777587890625" lon="-3.65146614611148834228515625">
        <ele>670</ele>
        <time>2019-10-29T15:38:39.000Z</time>
      </trkpt>
      <trkpt lat="37.23710029385983943939208984375" lon="-3.651398755609989166259765625">
        <ele>669.79998779296875</ele>
        <time>2019-10-29T15:38:42.000Z</time>
      </trkpt>
      <trkpt lat="37.23693181760609149932861328125" lon="-3.65133362822234630584716796875">
        <ele>669</ele>
        <time>2019-10-29T15:38:49.000Z</time>
      </trkpt>
      <trkpt lat="37.23691488616168498992919921875" lon="-3.6513016931712627410888671875">
        <ele>669</ele>
        <time>2019-10-29T15:38:50.000Z</time>
      </trkpt>
      <trkpt lat="37.23678479902446269989013671875" lon="-3.6511015333235263824462890625">
        <ele>669.5999755859375</ele>
        <time>2019-10-29T15:38:56.000Z</time>
      </trkpt>
      <trkpt lat="37.23663141019642353057861328125" lon="-3.65096247754991054534912109375">
        <ele>669.20001220703125</ele>
        <time>2019-10-29T15:39:02.000Z</time>
      </trkpt>
      <trkpt lat="37.23645019344985485076904296875" lon="-3.65109139122068881988525390625">
        <ele>669.5999755859375</ele>
        <time>2019-10-29T15:39:08.000Z</time>
      </trkpt>
      <trkpt lat="37.236265204846858978271484375" lon="-3.65118627436459064483642578125">
        <ele>670</ele>
        <time>2019-10-29T15:39:13.000Z</time>
      </trkpt>
      <trkpt lat="37.23608809523284435272216796875" lon="-3.651283085346221923828125">
        <ele>669.79998779296875</ele>
        <time>2019-10-29T15:39:18.000Z</time>
      </trkpt>
      <trkpt lat="37.2358952276408672332763671875" lon="-3.65139481611549854278564453125">
        <ele>669.79998779296875</ele>
        <time>2019-10-29T15:39:24.000Z</time>
      </trkpt>
      <trkpt lat="37.235863544046878814697265625" lon="-3.6513863503932952880859375">
        <ele>670</ele>
        <time>2019-10-29T15:39:25.000Z</time>
      </trkpt>
      <trkpt lat="37.23570034839212894439697265625" lon="-3.65129037760198116302490234375">
        <ele>670.5999755859375</ele>
        <time>2019-10-29T15:39:31.000Z</time>
      </trkpt>
      <trkpt lat="37.23562910221517086029052734375" lon="-3.65132725797593593597412109375">
        <ele>670.4000244140625</ele>
        <time>2019-10-29T15:39:33.000Z</time>
      </trkpt>
      <trkpt lat="37.23543296568095684051513671875" lon="-3.651422895491123199462890625">
        <ele>669.4000244140625</ele>
        <time>2019-10-29T15:39:39.000Z</time>
      </trkpt>
      <trkpt lat="37.2352471388876438140869140625" lon="-3.6515196226537227630615234375">
        <ele>666.79998779296875</ele>
        <time>2019-10-29T15:39:45.000Z</time>
      </trkpt>
      <trkpt lat="37.23507019691169261932373046875" lon="-3.65160771645605564117431640625">
        <ele>665.20001220703125</ele>
        <time>2019-10-29T15:39:51.000Z</time>
      </trkpt>
      <trkpt lat="37.234886549413204193115234375" lon="-3.651665635406970977783203125">
        <ele>664.5999755859375</ele>
        <time>2019-10-29T15:39:57.000Z</time>
      </trkpt>
      <trkpt lat="37.23473257385194301605224609375" lon="-3.65181089378893375396728515625">
        <ele>665.4000244140625</ele>
        <time>2019-10-29T15:40:06.000Z</time>
      </trkpt>
      <trkpt lat="37.23463366739451885223388671875" lon="-3.65182916633784770965576171875">
        <ele>666</ele>
        <time>2019-10-29T15:40:11.000Z</time>
      </trkpt>
      <trkpt lat="37.2345584817230701446533203125" lon="-3.6517271585762500762939453125">
        <ele>666</ele>
        <time>2019-10-29T15:40:15.000Z</time>
      </trkpt>
      <trkpt lat="37.23442428745329380035400390625" lon="-3.6515471152961254119873046875">
        <ele>665.5999755859375</ele>
        <time>2019-10-29T15:40:21.000Z</time>
      </trkpt>
      <trkpt lat="37.234283722937107086181640625" lon="-3.651370592415332794189453125">
        <ele>663.79998779296875</ele>
        <time>2019-10-29T15:40:26.000Z</time>
      </trkpt>
      <trkpt lat="37.23412446677684783935546875" lon="-3.65117437206208705902099609375">
        <ele>662.20001220703125</ele>
        <time>2019-10-29T15:40:31.000Z</time>
      </trkpt>
      <trkpt lat="37.23397719673812389373779296875" lon="-3.65098980255424976348876953125">
        <ele>662.20001220703125</ele>
        <time>2019-10-29T15:40:35.000Z</time>
      </trkpt>
      <trkpt lat="37.233822382986545562744140625" lon="-3.65078846924006938934326171875">
        <ele>661</ele>
        <time>2019-10-29T15:40:39.000Z</time>
      </trkpt>
      <trkpt lat="37.233664132654666900634765625" lon="-3.6505795083940029144287109375">
        <ele>661.20001220703125</ele>
        <time>2019-10-29T15:40:43.000Z</time>
      </trkpt>
      <trkpt lat="37.233505547046661376953125" lon="-3.65039854310452938079833984375">
        <ele>661.79998779296875</ele>
        <time>2019-10-29T15:40:47.000Z</time>
      </trkpt>
      <trkpt lat="37.2333514876663684844970703125" lon="-3.65023777820169925689697265625">
        <ele>663.20001220703125</ele>
        <time>2019-10-29T15:40:51.000Z</time>
      </trkpt>
      <trkpt lat="37.23320002667605876922607421875" lon="-3.65008271299302577972412109375">
        <ele>663.5999755859375</ele>
        <time>2019-10-29T15:40:56.000Z</time>
      </trkpt>
      <trkpt lat="37.23311520181596279144287109375" lon="-3.6500222794711589813232421875">
        <ele>663.5999755859375</ele>
        <time>2019-10-29T15:41:01.000Z</time>
      </trkpt>
      <trkpt lat="37.233071364462375640869140625" lon="-3.64999763667583465576171875">
        <ele>663.4000244140625</ele>
        <time>2019-10-29T15:41:09.000Z</time>
      </trkpt>
      <trkpt lat="37.23295745439827442169189453125" lon="-3.649849779903888702392578125">
        <ele>663</ele>
        <time>2019-10-29T15:41:25.000Z</time>
      </trkpt>
      <trkpt lat="37.23284547217190265655517578125" lon="-3.64962279796600341796875">
        <ele>663</ele>
        <time>2019-10-29T15:41:30.000Z</time>
      </trkpt>
      <trkpt lat="37.23280976526439189910888671875" lon="-3.649587929248809814453125">
        <ele>662.79998779296875</ele>
        <time>2019-10-29T15:41:31.000Z</time>
      </trkpt>
      <trkpt lat="37.23267070949077606201171875" lon="-3.64942976273596286773681640625">
        <ele>661.79998779296875</ele>
        <time>2019-10-29T15:41:35.000Z</time>
      </trkpt>
      <trkpt lat="37.2325300611555576324462890625" lon="-3.649262376129627227783203125">
        <ele>661</ele>
        <time>2019-10-29T15:41:39.000Z</time>
      </trkpt>
      <trkpt lat="37.23238949663937091827392578125" lon="-3.64908476360142230987548828125">
        <ele>660.4000244140625</ele>
        <time>2019-10-29T15:41:43.000Z</time>
      </trkpt>
      <trkpt lat="37.23224348388612270355224609375" lon="-3.64889851771295070648193359375">
        <ele>659.5999755859375</ele>
        <time>2019-10-29T15:41:47.000Z</time>
      </trkpt>
      <trkpt lat="37.23209294490516185760498046875" lon="-3.64869902841746807098388671875">
        <ele>659.79998779296875</ele>
        <time>2019-10-29T15:41:51.000Z</time>
      </trkpt>
      <trkpt lat="37.23197962157428264617919921875" lon="-3.64854463376104831695556640625">
        <ele>660.4000244140625</ele>
        <time>2019-10-29T15:41:54.000Z</time>
      </trkpt>
      <trkpt lat="37.23181215114891529083251953125" lon="-3.64836023189127445220947265625">
        <ele>661.20001220703125</ele>
        <time>2019-10-29T15:41:58.000Z</time>
      </trkpt>
      <trkpt lat="37.2316479496657848358154296875" lon="-3.6481490917503833770751953125">
        <ele>662</ele>
        <time>2019-10-29T15:42:02.000Z</time>
      </trkpt>
      <trkpt lat="37.231474108994007110595703125" lon="-3.64795119501650333404541015625">
        <ele>661.5999755859375</ele>
        <time>2019-10-29T15:42:06.000Z</time>
      </trkpt>
      <trkpt lat="37.2313197143375873565673828125" lon="-3.6477605067193508148193359375">
        <ele>661.20001220703125</ele>
        <time>2019-10-29T15:42:10.000Z</time>
      </trkpt>
      <trkpt lat="37.23117361776530742645263671875" lon="-3.647585324943065643310546875">
        <ele>661.4000244140625</ele>
        <time>2019-10-29T15:42:14.000Z</time>
      </trkpt>
      <trkpt lat="37.2310431115329265594482421875" lon="-3.64742380566895008087158203125">
        <ele>661.4000244140625</ele>
        <time>2019-10-29T15:42:18.000Z</time>
      </trkpt>
      <trkpt lat="37.23088745959103107452392578125" lon="-3.647227250039577484130859375">
        <ele>662.20001220703125</ele>
        <time>2019-10-29T15:42:23.000Z</time>
      </trkpt>
      <trkpt lat="37.23075586371123790740966796875" lon="-3.64706321619451045989990234375">
        <ele>662.79998779296875</ele>
        <time>2019-10-29T15:42:27.000Z</time>
      </trkpt>
      <trkpt lat="37.2306181490421295166015625" lon="-3.64689440466463565826416015625">
        <ele>662.20001220703125</ele>
        <time>2019-10-29T15:42:31.000Z</time>
      </trkpt>
      <trkpt lat="37.23047976382076740264892578125" lon="-3.64671193063259124755859375">
        <ele>661</ele>
        <time>2019-10-29T15:42:35.000Z</time>
      </trkpt>
      <trkpt lat="37.23034322261810302734375" lon="-3.6465417779982089996337890625">
        <ele>661</ele>
        <time>2019-10-29T15:42:39.000Z</time>
      </trkpt>
      <trkpt lat="37.2301992215216159820556640625" lon="-3.64637254737317562103271484375">
        <ele>660</ele>
        <time>2019-10-29T15:42:43.000Z</time>
      </trkpt>
      <trkpt lat="37.2300748340785503387451171875" lon="-3.64618915133178234100341796875">
        <ele>659.5999755859375</ele>
        <time>2019-10-29T15:42:47.000Z</time>
      </trkpt>
      <trkpt lat="37.22998581826686859130859375" lon="-3.64607113413512706756591796875">
        <ele>659.20001220703125</ele>
        <time>2019-10-29T15:42:50.000Z</time>
      </trkpt>
      <trkpt lat="37.2298793680965900421142578125" lon="-3.6459656059741973876953125">
        <ele>659.5999755859375</ele>
        <time>2019-10-29T15:42:53.000Z</time>
      </trkpt>
      <trkpt lat="37.229738049209117889404296875" lon="-3.645793609321117401123046875">
        <ele>660.20001220703125</ele>
        <time>2019-10-29T15:42:57.000Z</time>
      </trkpt>
      <trkpt lat="37.22964517772197723388671875" lon="-3.64566796459257602691650390625">
        <ele>660.79998779296875</ele>
        <time>2019-10-29T15:43:00.000Z</time>
      </trkpt>
      <trkpt lat="37.22950260154902935028076171875" lon="-3.6455051042139530181884765625">
        <ele>661.4000244140625</ele>
        <time>2019-10-29T15:43:04.000Z</time>
      </trkpt>
      <trkpt lat="37.22935977391898632049560546875" lon="-3.645339645445346832275390625">
        <ele>661.79998779296875</ele>
        <time>2019-10-29T15:43:08.000Z</time>
      </trkpt>
      <trkpt lat="37.22921342588961124420166015625" lon="-3.64516270346939563751220703125">
        <ele>662.5999755859375</ele>
        <time>2019-10-29T15:43:12.000Z</time>
      </trkpt>
      <trkpt lat="37.22906045615673065185546875" lon="-3.64498785696923732757568359375">
        <ele>663.20001220703125</ele>
        <time>2019-10-29T15:43:16.000Z</time>
      </trkpt>
      <trkpt lat="37.228924334049224853515625" lon="-3.64480043761432170867919921875">
        <ele>663.79998779296875</ele>
        <time>2019-10-29T15:43:20.000Z</time>
      </trkpt>
      <trkpt lat="37.2287769801914691925048828125" lon="-3.64461469464004039764404296875">
        <ele>664.20001220703125</ele>
        <time>2019-10-29T15:43:24.000Z</time>
      </trkpt>
      <trkpt lat="37.2286267764866352081298828125" lon="-3.6444315500557422637939453125">
        <ele>663.79998779296875</ele>
        <time>2019-10-29T15:43:28.000Z</time>
      </trkpt>
      <trkpt lat="37.2284745611250400543212890625" lon="-3.64425360225141048431396484375">
        <ele>663.20001220703125</ele>
        <time>2019-10-29T15:43:32.000Z</time>
      </trkpt>
      <trkpt lat="37.2283270396292209625244140625" lon="-3.6440711282193660736083984375">
        <ele>662.5999755859375</ele>
        <time>2019-10-29T15:43:36.000Z</time>
      </trkpt>
      <trkpt lat="37.22817256115376949310302734375" lon="-3.64389519207179546356201171875">
        <ele>662.4000244140625</ele>
        <time>2019-10-29T15:43:40.000Z</time>
      </trkpt>
      <trkpt lat="37.2280175797641277313232421875" lon="-3.64371229894459247589111328125">
        <ele>663</ele>
        <time>2019-10-29T15:43:44.000Z</time>
      </trkpt>
      <trkpt lat="37.22790869884192943572998046875" lon="-3.6435839720070362091064453125">
        <ele>663</ele>
        <time>2019-10-29T15:43:47.000Z</time>
      </trkpt>
      <trkpt lat="37.2278133966028690338134765625" lon="-3.64345782436430454254150390625">
        <ele>663</ele>
        <time>2019-10-29T15:43:50.000Z</time>
      </trkpt>
      <trkpt lat="37.22772496752440929412841796875" lon="-3.64334642887115478515625">
        <ele>663</ele>
        <time>2019-10-29T15:43:53.000Z</time>
      </trkpt>
      <trkpt lat="37.22756152041256427764892578125" lon="-3.6431712470948696136474609375">
        <ele>663</ele>
        <time>2019-10-29T15:43:58.000Z</time>
      </trkpt>
      <trkpt lat="37.227499075233936309814453125" lon="-3.64309966564178466796875">
        <ele>663</ele>
        <time>2019-10-29T15:44:00.000Z</time>
      </trkpt>
      <trkpt lat="37.22736169584095478057861328125" lon="-3.64296698011457920074462890625">
        <ele>663.5999755859375</ele>
        <time>2019-10-29T15:44:04.000Z</time>
      </trkpt>
      <trkpt lat="37.22721668891608715057373046875" lon="-3.642808981239795684814453125">
        <ele>664.79998779296875</ele>
        <time>2019-10-29T15:44:08.000Z</time>
      </trkpt>
      <trkpt lat="37.22707134671509265899658203125" lon="-3.64264293573796749114990234375">
        <ele>665</ele>
        <time>2019-10-29T15:44:12.000Z</time>
      </trkpt>
      <trkpt lat="37.22692675888538360595703125" lon="-3.64248736761510372161865234375">
        <ele>664.20001220703125</ele>
        <time>2019-10-29T15:44:16.000Z</time>
      </trkpt>
      <trkpt lat="37.22676046192646026611328125" lon="-3.64230883307754993438720703125">
        <ele>662.4000244140625</ele>
        <time>2019-10-29T15:44:21.000Z</time>
      </trkpt>
      <trkpt lat="37.2267291136085987091064453125" lon="-3.6422777362167835235595703125">
        <ele>662</ele>
        <time>2019-10-29T15:44:22.000Z</time>
      </trkpt>
      <trkpt lat="37.2266057319939136505126953125" lon="-3.6421422846615314483642578125">
        <ele>661</ele>
        <time>2019-10-29T15:44:26.000Z</time>
      </trkpt>
      <trkpt lat="37.22651663236320018768310546875" lon="-3.64206844009459018707275390625">
        <ele>660.79998779296875</ele>
        <time>2019-10-29T15:44:29.000Z</time>
      </trkpt>
      <trkpt lat="37.22645628266036510467529296875" lon="-3.64197188057005405426025390625">
        <ele>661</ele>
        <time>2019-10-29T15:44:33.000Z</time>
      </trkpt>
      <trkpt lat="37.22647421993315219879150390625" lon="-3.64195369184017181396484375">
        <ele>661.20001220703125</ele>
        <time>2019-10-29T15:44:37.000Z</time>
      </trkpt>
      <trkpt lat="37.22647556103765964508056640625" lon="-3.641954362392425537109375">
        <ele>661.20001220703125</ele>
        <time>2019-10-29T15:44:38.000Z</time>
      </trkpt>
      <trkpt lat="37.226483859121799468994140625" lon="-3.64194002933800220489501953125">
        <ele>661.20001220703125</ele>
        <time>2019-10-29T15:44:41.000Z</time>
      </trkpt>
      <trkpt lat="37.2264635749161243438720703125" lon="-3.6418784223496913909912109375">
        <ele>661.4000244140625</ele>
        <time>2019-10-29T15:45:06.000Z</time>
      </trkpt>
      <trkpt lat="37.22632871009409427642822265625" lon="-3.64172260276973247528076171875">
        <ele>662</ele>
        <time>2019-10-29T15:45:14.000Z</time>
      </trkpt>
      <trkpt lat="37.22617196850478649139404296875" lon="-3.6415411345660686492919921875">
        <ele>661.5999755859375</ele>
        <time>2019-10-29T15:45:19.000Z</time>
      </trkpt>
      <trkpt lat="37.22609527409076690673828125" lon="-3.6414566449820995330810546875">
        <ele>661.79998779296875</ele>
        <time>2019-10-29T15:45:21.000Z</time>
      </trkpt>
      <trkpt lat="37.2259851358830928802490234375" lon="-3.64133301191031932830810546875">
        <ele>661.5999755859375</ele>
        <time>2019-10-29T15:45:24.000Z</time>
      </trkpt>
      <trkpt lat="37.2260126285254955291748046875" lon="-3.64111089147627353668212890625">
        <ele>661.20001220703125</ele>
        <time>2019-10-29T15:45:29.000Z</time>
      </trkpt>
      <trkpt lat="37.22614045254886150360107421875" lon="-3.64095029421150684356689453125">
        <ele>662</ele>
        <time>2019-10-29T15:45:35.000Z</time>
      </trkpt>
      <trkpt lat="37.2262614034116268157958984375" lon="-3.64075616933405399322509765625">
        <ele>663.5999755859375</ele>
        <time>2019-10-29T15:45:48.000Z</time>
      </trkpt>
      <trkpt lat="37.226409427821636199951171875" lon="-3.64061602391302585601806640625">
        <ele>664.4000244140625</ele>
        <time>2019-10-29T15:45:54.000Z</time>
      </trkpt>
      <trkpt lat="37.22655703313648700714111328125" lon="-3.64045458845794200897216796875">
        <ele>665.20001220703125</ele>
        <time>2019-10-29T15:46:00.000Z</time>
      </trkpt>
      <trkpt lat="37.22668661735951900482177734375" lon="-3.64027865231037139892578125">
        <ele>665.4000244140625</ele>
        <time>2019-10-29T15:46:05.000Z</time>
      </trkpt>
      <trkpt lat="37.2268146090209484100341796875" lon="-3.640104644000530242919921875">
        <ele>664.4000244140625</ele>
        <time>2019-10-29T15:46:11.000Z</time>
      </trkpt>
      <trkpt lat="37.22695031203329563140869140625" lon="-3.63992166705429553985595703125">
        <ele>664.20001220703125</ele>
        <time>2019-10-29T15:46:18.000Z</time>
      </trkpt>
      <trkpt lat="37.2270744480192661285400390625" lon="-3.63974355161190032958984375">
        <ele>664.4000244140625</ele>
        <time>2019-10-29T15:46:25.000Z</time>
      </trkpt>
      <trkpt lat="37.22722238861024379730224609375" lon="-3.6395551264286041259765625">
        <ele>665.5999755859375</ele>
        <time>2019-10-29T15:46:32.000Z</time>
      </trkpt>
      <trkpt lat="37.22736236639320850372314453125" lon="-3.6393685452640056610107421875">
        <ele>666.5999755859375</ele>
        <time>2019-10-29T15:46:39.000Z</time>
      </trkpt>
      <trkpt lat="37.22748708911240100860595703125" lon="-3.639199733734130859375">
        <ele>667.79998779296875</ele>
        <time>2019-10-29T15:46:45.000Z</time>
      </trkpt>
      <trkpt lat="37.22762052901089191436767578125" lon="-3.63901893608272075653076171875">
        <ele>668</ele>
        <time>2019-10-29T15:46:51.000Z</time>
      </trkpt>
      <trkpt lat="37.2277654521167278289794921875" lon="-3.63881953060626983642578125">
        <ele>668.4000244140625</ele>
        <time>2019-10-29T15:46:57.000Z</time>
      </trkpt>
      <trkpt lat="37.22789729945361614227294921875" lon="-3.63864845596253871917724609375">
        <ele>669.4000244140625</ele>
        <time>2019-10-29T15:47:02.000Z</time>
      </trkpt>
      <trkpt lat="37.2280252911150455474853515625" lon="-3.638485260307788848876953125">
        <ele>670.20001220703125</ele>
        <time>2019-10-29T15:47:07.000Z</time>
      </trkpt>
      <trkpt lat="37.22816862165927886962890625" lon="-3.63828987814486026763916015625">
        <ele>670.5999755859375</ele>
        <time>2019-10-29T15:47:13.000Z</time>
      </trkpt>
      <trkpt lat="37.2282656840980052947998046875" lon="-3.638080246746540069580078125">
        <ele>671</ele>
        <time>2019-10-29T15:47:19.000Z</time>
      </trkpt>
      <trkpt lat="37.2282938472926616668701171875" lon="-3.6378199048340320587158203125">
        <ele>669.20001220703125</ele>
        <time>2019-10-29T15:47:24.000Z</time>
      </trkpt>
      <trkpt lat="37.228227294981479644775390625" lon="-3.63760071806609630584716796875">
        <ele>668.4000244140625</ele>
        <time>2019-10-29T15:47:28.000Z</time>
      </trkpt>
      <trkpt lat="37.228073067963123321533203125" lon="-3.6373723112046718597412109375">
        <ele>669</ele>
        <time>2019-10-29T15:47:32.000Z</time>
      </trkpt>
      <trkpt lat="37.2279283963143825531005859375" lon="-3.6371744982898235321044921875">
        <ele>669.4000244140625</ele>
        <time>2019-10-29T15:47:35.000Z</time>
      </trkpt>
      <trkpt lat="37.2277597524225711822509765625" lon="-3.6369595862925052642822265625">
        <ele>670.5999755859375</ele>
        <time>2019-10-29T15:47:38.000Z</time>
      </trkpt>
      <trkpt lat="37.22757727839052677154541015625" lon="-3.6367413215339183807373046875">
        <ele>671</ele>
        <time>2019-10-29T15:47:41.000Z</time>
      </trkpt>
      <trkpt lat="37.22740226425230503082275390625" lon="-3.63653571344912052154541015625">
        <ele>671.4000244140625</ele>
        <time>2019-10-29T15:47:44.000Z</time>
      </trkpt>
      <trkpt lat="37.22723328508436679840087890625" lon="-3.63634661771357059478759765625">
        <ele>670.79998779296875</ele>
        <time>2019-10-29T15:47:47.000Z</time>
      </trkpt>
      <trkpt lat="37.22706380300223827362060546875" lon="-3.63617395050823688507080078125">
        <ele>669.20001220703125</ele>
        <time>2019-10-29T15:47:50.000Z</time>
      </trkpt>
      <trkpt lat="37.2270078957080841064453125" lon="-3.6361230723559856414794921875">
        <ele>669</ele>
        <time>2019-10-29T15:47:51.000Z</time>
      </trkpt>
      <trkpt lat="37.2268397547304630279541015625" lon="-3.63597781397402286529541015625">
        <ele>668.4000244140625</ele>
        <time>2019-10-29T15:47:54.000Z</time>
      </trkpt>
      <trkpt lat="37.22668938338756561279296875" lon="-3.635847978293895721435546875">
        <ele>668.5999755859375</ele>
        <time>2019-10-29T15:47:57.000Z</time>
      </trkpt>
      <trkpt lat="37.22664370201528072357177734375" lon="-3.63580564968287944793701171875">
        <ele>668.79998779296875</ele>
        <time>2019-10-29T15:47:58.000Z</time>
      </trkpt>
      <trkpt lat="37.22645209170877933502197265625" lon="-3.63565494306385517120361328125">
        <ele>668.20001220703125</ele>
        <time>2019-10-29T15:48:02.000Z</time>
      </trkpt>
      <trkpt lat="37.2263586334884166717529296875" lon="-3.63559207879006862640380859375">
        <ele>668.5999755859375</ele>
        <time>2019-10-29T15:48:04.000Z</time>
      </trkpt>
      <trkpt lat="37.2261966951191425323486328125" lon="-3.63545738160610198974609375">
        <ele>670.20001220703125</ele>
        <time>2019-10-29T15:48:08.000Z</time>
      </trkpt>
      <trkpt lat="37.22603500820696353912353515625" lon="-3.63533156923949718475341796875">
        <ele>670.20001220703125</ele>
        <time>2019-10-29T15:48:12.000Z</time>
      </trkpt>
      <trkpt lat="37.2258587367832660675048828125" lon="-3.635201565921306610107421875">
        <ele>670.5999755859375</ele>
        <time>2019-10-29T15:48:16.000Z</time>
      </trkpt>
      <trkpt lat="37.22566754557192325592041015625" lon="-3.63507709465920925140380859375">
        <ele>670.20001220703125</ele>
        <time>2019-10-29T15:48:20.000Z</time>
      </trkpt>
      <trkpt lat="37.22549487836658954620361328125" lon="-3.63494667224586009979248046875">
        <ele>670</ele>
        <time>2019-10-29T15:48:24.000Z</time>
      </trkpt>
      <trkpt lat="37.2253172658383846282958984375" lon="-3.634825386106967926025390625">
        <ele>670</ele>
        <time>2019-10-29T15:48:28.000Z</time>
      </trkpt>
      <trkpt lat="37.22515692003071308135986328125" lon="-3.63468968309462070465087890625">
        <ele>670</ele>
        <time>2019-10-29T15:48:32.000Z</time>
      </trkpt>
      <trkpt lat="37.22511333413422107696533203125" lon="-3.63465498201549053192138671875">
        <ele>670</ele>
        <time>2019-10-29T15:48:33.000Z</time>
      </trkpt>
      <trkpt lat="37.2249461151659488677978515625" lon="-3.634512908756732940673828125">
        <ele>669.20001220703125</ele>
        <time>2019-10-29T15:48:37.000Z</time>
      </trkpt>
      <trkpt lat="37.22477428615093231201171875" lon="-3.63436195068061351776123046875">
        <ele>669.20001220703125</ele>
        <time>2019-10-29T15:48:41.000Z</time>
      </trkpt>
      <trkpt lat="37.22464445047080516815185546875" lon="-3.6342482082545757293701171875">
        <ele>669.20001220703125</ele>
        <time>2019-10-29T15:48:44.000Z</time>
      </trkpt>
      <trkpt lat="37.2244894690811634063720703125" lon="-3.63407260738313198089599609375">
        <ele>668</ele>
        <time>2019-10-29T15:48:48.000Z</time>
      </trkpt>
      <trkpt lat="37.224331386387348175048828125" lon="-3.63389256410300731658935546875">
        <ele>666.79998779296875</ele>
        <time>2019-10-29T15:48:52.000Z</time>
      </trkpt>
      <trkpt lat="37.224220074713230133056640625" lon="-3.63374386914074420928955078125">
        <ele>666.4000244140625</ele>
        <time>2019-10-29T15:48:55.000Z</time>
      </trkpt>
      <trkpt lat="37.22407448105514049530029296875" lon="-3.63353130407631397247314453125">
        <ele>665.20001220703125</ele>
        <time>2019-10-29T15:48:59.000Z</time>
      </trkpt>
      <trkpt lat="37.22393416799604892730712890625" lon="-3.63333047367632389068603515625">
        <ele>665.20001220703125</ele>
        <time>2019-10-29T15:49:03.000Z</time>
      </trkpt>
      <trkpt lat="37.22380257211625576019287109375" lon="-3.63314992748200893402099609375">
        <ele>666</ele>
        <time>2019-10-29T15:49:07.000Z</time>
      </trkpt>
      <trkpt lat="37.22367818467319011688232421875" lon="-3.6329654417932033538818359375">
        <ele>667.79998779296875</ele>
        <time>2019-10-29T15:49:11.000Z</time>
      </trkpt>
      <trkpt lat="37.2235446609556674957275390625" lon="-3.63277257420122623443603515625">
        <ele>669.20001220703125</ele>
        <time>2019-10-29T15:49:15.000Z</time>
      </trkpt>
      <trkpt lat="37.2234004922211170196533203125" lon="-3.63255347125232219696044921875">
        <ele>670</ele>
        <time>2019-10-29T15:49:19.000Z</time>
      </trkpt>
      <trkpt lat="37.22326965071260929107666015625" lon="-3.63232313655316829681396484375">
        <ele>669.20001220703125</ele>
        <time>2019-10-29T15:49:23.000Z</time>
      </trkpt>
      <trkpt lat="37.22314978949725627899169921875" lon="-3.63215315155684947967529296875">
        <ele>669</ele>
        <time>2019-10-29T15:49:26.000Z</time>
      </trkpt>
      <trkpt lat="37.22302339039742946624755859375" lon="-3.63197880797088146209716796875">
        <ele>668.20001220703125</ele>
        <time>2019-10-29T15:49:29.000Z</time>
      </trkpt>
      <trkpt lat="37.2229016013443470001220703125" lon="-3.63180194981396198272705078125">
        <ele>669</ele>
        <time>2019-10-29T15:49:32.000Z</time>
      </trkpt>
      <trkpt lat="37.2227892838418483734130859375" lon="-3.63162542693316936492919921875">
        <ele>668.79998779296875</ele>
        <time>2019-10-29T15:49:35.000Z</time>
      </trkpt>
      <trkpt lat="37.222637571394443511962890625" lon="-3.6314161308109760284423828125">
        <ele>669</ele>
        <time>2019-10-29T15:49:39.000Z</time>
      </trkpt>
      <trkpt lat="37.2224969230592250823974609375" lon="-3.63121949136257171630859375">
        <ele>670</ele>
        <time>2019-10-29T15:49:43.000Z</time>
      </trkpt>
      <trkpt lat="37.222338505089282989501953125" lon="-3.63102410919964313507080078125">
        <ele>670.79998779296875</ele>
        <time>2019-10-29T15:49:48.000Z</time>
      </trkpt>
      <trkpt lat="37.2222042270004749298095703125" lon="-3.6308716423809528350830078125">
        <ele>671.20001220703125</ele>
        <time>2019-10-29T15:49:52.000Z</time>
      </trkpt>
      <trkpt lat="37.22206131555140018463134765625" lon="-3.6307234503328800201416015625">
        <ele>671.5999755859375</ele>
        <time>2019-10-29T15:49:56.000Z</time>
      </trkpt>
      <trkpt lat="37.22198789007961750030517578125" lon="-3.6306527070701122283935546875">
        <ele>671.4000244140625</ele>
        <time>2019-10-29T15:49:58.000Z</time>
      </trkpt>
      <trkpt lat="37.22179032862186431884765625" lon="-3.630515746772289276123046875">
        <ele>671.20001220703125</ele>
        <time>2019-10-29T15:50:03.000Z</time>
      </trkpt>
      <trkpt lat="37.2216205112636089324951171875" lon="-3.63039764575660228729248046875">
        <ele>671.5999755859375</ele>
        <time>2019-10-29T15:50:07.000Z</time>
      </trkpt>
      <trkpt lat="37.22143602557480335235595703125" lon="-3.63027107901871204376220703125">
        <ele>672.20001220703125</ele>
        <time>2019-10-29T15:50:12.000Z</time>
      </trkpt>
      <trkpt lat="37.22125522792339324951171875" lon="-3.6301192827522754669189453125">
        <ele>673</ele>
        <time>2019-10-29T15:50:17.000Z</time>
      </trkpt>
      <trkpt lat="37.22107526846230030059814453125" lon="-3.6299724318087100982666015625">
        <ele>674</ele>
        <time>2019-10-29T15:50:22.000Z</time>
      </trkpt>
      <trkpt lat="37.2209425829350948333740234375" lon="-3.62985768355429172515869140625">
        <ele>674.5999755859375</ele>
        <time>2019-10-29T15:50:26.000Z</time>
      </trkpt>
      <trkpt lat="37.22076195292174816131591796875" lon="-3.6297249980270862579345703125">
        <ele>675</ele>
        <time>2019-10-29T15:50:31.000Z</time>
      </trkpt>
      <trkpt lat="37.22060571424663066864013671875" lon="-3.629600107669830322265625">
        <ele>675.5999755859375</ele>
        <time>2019-10-29T15:50:36.000Z</time>
      </trkpt>
      <trkpt lat="37.220564223825931549072265625" lon="-3.629557527601718902587890625">
        <ele>676.20001220703125</ele>
        <time>2019-10-29T15:50:40.000Z</time>
      </trkpt>
      <trkpt lat="37.2205610387027263641357421875" lon="-3.629554845392704010009765625">
        <ele>676.20001220703125</ele>
        <time>2019-10-29T15:50:42.000Z</time>
      </trkpt>
      <trkpt lat="37.2205583564937114715576171875" lon="-3.629552163183689117431640625">
        <ele>676.20001220703125</ele>
        <time>2019-10-29T15:50:44.000Z</time>
      </trkpt>
      <trkpt lat="37.22042164765298366546630859375" lon="-3.62944546155631542205810546875">
        <ele>676.79998779296875</ele>
        <time>2019-10-29T15:51:10.000Z</time>
      </trkpt>
      <trkpt lat="37.22024629823863506317138671875" lon="-3.6292956769466400146484375">
        <ele>676.79998779296875</ele>
        <time>2019-10-29T15:51:17.000Z</time>
      </trkpt>
      <trkpt lat="37.220152504742145538330078125" lon="-3.6291885562241077423095703125">
        <ele>677</ele>
        <time>2019-10-29T15:51:20.000Z</time>
      </trkpt>
      <trkpt lat="37.2200376726686954498291015625" lon="-3.62896970473229885101318359375">
        <ele>677.4000244140625</ele>
        <time>2019-10-29T15:51:25.000Z</time>
      </trkpt>
      <trkpt lat="37.21992862410843372344970703125" lon="-3.62877390347421169281005859375">
        <ele>678</ele>
        <time>2019-10-29T15:51:30.000Z</time>
      </trkpt>
      <trkpt lat="37.21981228329241275787353515625" lon="-3.6285739950835704803466796875">
        <ele>679</ele>
        <time>2019-10-29T15:51:35.000Z</time>
      </trkpt>
      <trkpt lat="37.21969141624867916107177734375" lon="-3.6283684708178043365478515625">
        <ele>679.79998779296875</ele>
        <time>2019-10-29T15:51:40.000Z</time>
      </trkpt>
      <trkpt lat="37.21957021392881870269775390625" lon="-3.6281649582087993621826171875">
        <ele>680.20001220703125</ele>
        <time>2019-10-29T15:51:45.000Z</time>
      </trkpt>
      <trkpt lat="37.21945974044501781463623046875" lon="-3.62794828601181507110595703125">
        <ele>680.4000244140625</ele>
        <time>2019-10-29T15:51:50.000Z</time>
      </trkpt>
      <trkpt lat="37.21934423781931400299072265625" lon="-3.62773035652935504913330078125">
        <ele>680.4000244140625</ele>
        <time>2019-10-29T15:51:55.000Z</time>
      </trkpt>
      <trkpt lat="37.21923259086906909942626953125" lon="-3.6275094933807849884033203125">
        <ele>679.4000244140625</ele>
        <time>2019-10-29T15:52:00.000Z</time>
      </trkpt>
      <trkpt lat="37.21911507658660411834716796875" lon="-3.62728200852870941162109375">
        <ele>679</ele>
        <time>2019-10-29T15:52:05.000Z</time>
      </trkpt>
      <trkpt lat="37.2189932875335216522216796875" lon="-3.62705661915242671966552734375">
        <ele>679.20001220703125</ele>
        <time>2019-10-29T15:52:10.000Z</time>
      </trkpt>
      <trkpt lat="37.21887283958494663238525390625" lon="-3.626842796802520751953125">
        <ele>678.5999755859375</ele>
        <time>2019-10-29T15:52:15.000Z</time>
      </trkpt>
      <trkpt lat="37.21874426119029521942138671875" lon="-3.6266324110329151153564453125">
        <ele>677.5999755859375</ele>
        <time>2019-10-29T15:52:20.000Z</time>
      </trkpt>
      <trkpt lat="37.2186219692230224609375" lon="-3.62641699612140655517578125">
        <ele>677</ele>
        <time>2019-10-29T15:52:25.000Z</time>
      </trkpt>
      <trkpt lat="37.21848760731518268585205078125" lon="-3.6262057721614837646484375">
        <ele>678.20001220703125</ele>
        <time>2019-10-29T15:52:30.000Z</time>
      </trkpt>
      <trkpt lat="37.21834008581936359405517578125" lon="-3.62601608969271183013916015625">
        <ele>680.5999755859375</ele>
        <time>2019-10-29T15:52:35.000Z</time>
      </trkpt>
      <trkpt lat="37.218181751668453216552734375" lon="-3.62584560178220272064208984375">
        <ele>681</ele>
        <time>2019-10-29T15:52:40.000Z</time>
      </trkpt>
      <trkpt lat="37.218065075576305389404296875" lon="-3.62571568228304386138916015625">
        <ele>680.5999755859375</ele>
        <time>2019-10-29T15:52:44.000Z</time>
      </trkpt>
      <trkpt lat="37.21789752133190631866455078125" lon="-3.62555332481861114501953125">
        <ele>681.20001220703125</ele>
        <time>2019-10-29T15:52:49.000Z</time>
      </trkpt>
      <trkpt lat="37.21772016026079654693603515625" lon="-3.62542248331010341644287109375">
        <ele>682</ele>
        <time>2019-10-29T15:52:54.000Z</time>
      </trkpt>
      <trkpt lat="37.21754598431289196014404296875" lon="-3.6253073997795581817626953125">
        <ele>682</ele>
        <time>2019-10-29T15:52:59.000Z</time>
      </trkpt>
      <trkpt lat="37.21739125438034534454345703125" lon="-3.6252306215465068817138671875">
        <ele>682.20001220703125</ele>
        <time>2019-10-29T15:53:03.000Z</time>
      </trkpt>
      <trkpt lat="37.21719411201775074005126953125" lon="-3.625139258801937103271484375">
        <ele>682.20001220703125</ele>
        <time>2019-10-29T15:53:08.000Z</time>
      </trkpt>
      <trkpt lat="37.21702027134597301483154296875" lon="-3.62507094629108905792236328125">
        <ele>682.5999755859375</ele>
        <time>2019-10-29T15:53:12.000Z</time>
      </trkpt>
      <trkpt lat="37.2168074548244476318359375" lon="-3.6249934136867523193359375">
        <ele>681.79998779296875</ele>
        <time>2019-10-29T15:53:17.000Z</time>
      </trkpt>
      <trkpt lat="37.21676378510892391204833984375" lon="-3.6249818466603755950927734375">
        <ele>681.5999755859375</ele>
        <time>2019-10-29T15:53:18.000Z</time>
      </trkpt>
      <trkpt lat="37.21655155532062053680419921875" lon="-3.6249439604580402374267578125">
        <ele>680.79998779296875</ele>
        <time>2019-10-29T15:53:23.000Z</time>
      </trkpt>
      <trkpt lat="37.21640177071094512939453125" lon="-3.6249385960400104522705078125">
        <ele>681.4000244140625</ele>
        <time>2019-10-29T15:53:27.000Z</time>
      </trkpt>
      <trkpt lat="37.21632407046854496002197265625" lon="-3.6249275319278240203857421875">
        <ele>681.4000244140625</ele>
        <time>2019-10-29T15:53:29.000Z</time>
      </trkpt>
      <trkpt lat="37.2161253355443477630615234375" lon="-3.624914623796939849853515625">
        <ele>682</ele>
        <time>2019-10-29T15:53:34.000Z</time>
      </trkpt>
      <trkpt lat="37.215920649468898773193359375" lon="-3.62490213476121425628662109375">
        <ele>682</ele>
        <time>2019-10-29T15:53:39.000Z</time>
      </trkpt>
      <trkpt lat="37.21572945825755596160888671875" lon="-3.6248929984867572784423828125">
        <ele>682</ele>
        <time>2019-10-29T15:53:43.000Z</time>
      </trkpt>
      <trkpt lat="37.215527035295963287353515625" lon="-3.62487095408141613006591796875">
        <ele>681.5999755859375</ele>
        <time>2019-10-29T15:53:47.000Z</time>
      </trkpt>
      <trkpt lat="37.2153246961534023284912109375" lon="-3.6248628236353397369384765625">
        <ele>681.5999755859375</ele>
        <time>2019-10-29T15:53:51.000Z</time>
      </trkpt>
      <trkpt lat="37.21512244082987308502197265625" lon="-3.624852262437343597412109375">
        <ele>682</ele>
        <time>2019-10-29T15:53:55.000Z</time>
      </trkpt>
      <trkpt lat="37.21491171978414058685302734375" lon="-3.6248443834483623504638671875">
        <ele>682.5999755859375</ele>
        <time>2019-10-29T15:53:59.000Z</time>
      </trkpt>
      <trkpt lat="37.2146819718182086944580078125" lon="-3.62482418306171894073486328125">
        <ele>681.5999755859375</ele>
        <time>2019-10-29T15:54:03.000Z</time>
      </trkpt>
      <trkpt lat="37.2145012579858303070068359375" lon="-3.62480758689343929290771484375">
        <ele>681</ele>
        <time>2019-10-29T15:54:06.000Z</time>
      </trkpt>
      <trkpt lat="37.21426262520253658294677734375" lon="-3.6247847042977809906005859375">
        <ele>680.79998779296875</ele>
        <time>2019-10-29T15:54:10.000Z</time>
      </trkpt>
      <trkpt lat="37.21402977593243122100830078125" lon="-3.62476768903434276580810546875">
        <ele>680.79998779296875</ele>
        <time>2019-10-29T15:54:14.000Z</time>
      </trkpt>
      <trkpt lat="37.2138015367090702056884765625" lon="-3.6247464828193187713623046875">
        <ele>681</ele>
        <time>2019-10-29T15:54:18.000Z</time>
      </trkpt>
      <trkpt lat="37.21356994472444057464599609375" lon="-3.62472452223300933837890625">
        <ele>681.20001220703125</ele>
        <time>2019-10-29T15:54:22.000Z</time>
      </trkpt>
      <trkpt lat="37.21337364055216312408447265625" lon="-3.6247032321989536285400390625">
        <ele>680.5999755859375</ele>
        <time>2019-10-29T15:54:26.000Z</time>
      </trkpt>
      <trkpt lat="37.21318823285400867462158203125" lon="-3.624705411493778228759765625">
        <ele>680.4000244140625</ele>
        <time>2019-10-29T15:54:30.000Z</time>
      </trkpt>
      <trkpt lat="37.21300785429775714874267578125" lon="-3.62471538595855236053466796875">
        <ele>680.20001220703125</ele>
        <time>2019-10-29T15:54:34.000Z</time>
      </trkpt>
      <trkpt lat="37.212919928133487701416015625" lon="-3.6247012205421924591064453125">
        <ele>680</ele>
        <time>2019-10-29T15:54:36.000Z</time>
      </trkpt>
      <trkpt lat="37.21274164505302906036376953125" lon="-3.6246616579592227935791015625">
        <ele>679.79998779296875</ele>
        <time>2019-10-29T15:54:40.000Z</time>
      </trkpt>
      <trkpt lat="37.21255321986973285675048828125" lon="-3.624626286327838897705078125">
        <ele>679.5999755859375</ele>
        <time>2019-10-29T15:54:44.000Z</time>
      </trkpt>
      <trkpt lat="37.21235440112650394439697265625" lon="-3.6246103607118129730224609375">
        <ele>679.20001220703125</ele>
        <time>2019-10-29T15:54:48.000Z</time>
      </trkpt>
      <trkpt lat="37.21229941584169864654541015625" lon="-3.62461111508309841156005859375">
        <ele>679</ele>
        <time>2019-10-29T15:54:49.000Z</time>
      </trkpt>
      <trkpt lat="37.2120701707899570465087890625" lon="-3.62461228854954242706298828125">
        <ele>679</ele>
        <time>2019-10-29T15:54:53.000Z</time>
      </trkpt>
      <trkpt lat="37.21184461377561092376708984375" lon="-3.62463332712650299072265625">
        <ele>679</ele>
        <time>2019-10-29T15:54:57.000Z</time>
      </trkpt>
      <trkpt lat="37.211649231612682342529296875" lon="-3.624654114246368408203125">
        <ele>680</ele>
        <time>2019-10-29T15:55:01.000Z</time>
      </trkpt>
      <trkpt lat="37.21145736984908580780029296875" lon="-3.6246740631759166717529296875">
        <ele>681.20001220703125</ele>
        <time>2019-10-29T15:55:07.000Z</time>
      </trkpt>
      <trkpt lat="37.211441695690155029296875" lon="-3.6246747337281703948974609375">
        <ele>681.4000244140625</ele>
        <time>2019-10-29T15:55:08.000Z</time>
      </trkpt>
      <trkpt lat="37.2113935835659503936767578125" lon="-3.62469971179962158203125">
        <ele>681.5999755859375</ele>
        <time>2019-10-29T15:55:12.000Z</time>
      </trkpt>
      <trkpt lat="37.2113734669983386993408203125" lon="-3.62470583058893680572509765625">
        <ele>681.79998779296875</ele>
        <time>2019-10-29T15:55:13.000Z</time>
      </trkpt>
      <trkpt lat="37.21131152473390102386474609375" lon="-3.62468437291681766510009765625">
        <ele>682.20001220703125</ele>
        <time>2019-10-29T15:55:17.000Z</time>
      </trkpt>
      <trkpt lat="37.21129140816628932952880859375" lon="-3.62466895021498203277587890625">
        <ele>682.4000244140625</ele>
        <time>2019-10-29T15:55:18.000Z</time>
      </trkpt>
      <trkpt lat="37.21124078147113323211669921875" lon="-3.62462419085204601287841796875">
        <ele>683</ele>
        <time>2019-10-29T15:55:21.000Z</time>
      </trkpt>
      <trkpt lat="37.2111173160374164581298828125" lon="-3.62454975955188274383544921875">
        <ele>683.20001220703125</ele>
        <time>2019-10-29T15:55:29.000Z</time>
      </trkpt>
      <trkpt lat="37.21100072376430034637451171875" lon="-3.624478094279766082763671875">
        <ele>682.79998779296875</ele>
        <time>2019-10-29T15:55:36.000Z</time>
      </trkpt>
      <trkpt lat="37.21089879982173442840576171875" lon="-3.6242693848907947540283203125">
        <ele>681.79998779296875</ele>
        <time>2019-10-29T15:55:43.000Z</time>
      </trkpt>
      <trkpt lat="37.21073870547115802764892578125" lon="-3.62415245734155178070068359375">
        <ele>681</ele>
        <time>2019-10-29T15:55:50.000Z</time>
      </trkpt>
      <trkpt lat="37.210532762110233306884765625" lon="-3.62420459277927875518798828125">
        <ele>680.20001220703125</ele>
        <time>2019-10-29T15:55:59.000Z</time>
      </trkpt>
      <trkpt lat="37.2103478573262691497802734375" lon="-3.6242589913308620452880859375">
        <ele>680</ele>
        <time>2019-10-29T15:56:03.000Z</time>
      </trkpt>
      <trkpt lat="37.21018784679472446441650390625" lon="-3.62427718006074428558349609375">
        <ele>680</ele>
        <time>2019-10-29T15:56:06.000Z</time>
      </trkpt>
      <trkpt lat="37.20997109077870845794677734375" lon="-3.6241734959185123443603515625">
        <ele>680</ele>
        <time>2019-10-29T15:56:10.000Z</time>
      </trkpt>
      <trkpt lat="37.20982407219707965850830078125" lon="-3.623948357999324798583984375">
        <ele>680.5999755859375</ele>
        <time>2019-10-29T15:56:14.000Z</time>
      </trkpt>
      <trkpt lat="37.209799848496913909912109375" lon="-3.62388323061168193817138671875">
        <ele>681</ele>
        <time>2019-10-29T15:56:15.000Z</time>
      </trkpt>
      <trkpt lat="37.20976891927421092987060546875" lon="-3.62362892366945743560791015625">
        <ele>682.4000244140625</ele>
        <time>2019-10-29T15:56:19.000Z</time>
      </trkpt>
      <trkpt lat="37.2097478806972503662109375" lon="-3.6233795620501041412353515625">
        <ele>683.4000244140625</ele>
        <time>2019-10-29T15:56:23.000Z</time>
      </trkpt>
      <trkpt lat="37.209720052778720855712890625" lon="-3.623132295906543731689453125">
        <ele>682.79998779296875</ele>
        <time>2019-10-29T15:56:27.000Z</time>
      </trkpt>
      <trkpt lat="37.2096823342144489288330078125" lon="-3.62287974916398525238037109375">
        <ele>683</ele>
        <time>2019-10-29T15:56:31.000Z</time>
      </trkpt>
      <trkpt lat="37.2096638940274715423583984375" lon="-3.6226727999746799468994140625">
        <ele>683.20001220703125</ele>
        <time>2019-10-29T15:56:34.000Z</time>
      </trkpt>
      <trkpt lat="37.20967655070126056671142578125" lon="-3.6225343309342861175537109375">
        <ele>683.20001220703125</ele>
        <time>2019-10-29T15:56:36.000Z</time>
      </trkpt>
      <trkpt lat="37.20979926176369190216064453125" lon="-3.62228865735232830047607421875">
        <ele>683.5999755859375</ele>
        <time>2019-10-29T15:56:40.000Z</time>
      </trkpt>
      <trkpt lat="37.20991895534098148345947265625" lon="-3.62212051637470722198486328125">
        <ele>683.5999755859375</ele>
        <time>2019-10-29T15:56:43.000Z</time>
      </trkpt>
      <trkpt lat="37.2099850885570049285888671875" lon="-3.6218768544495105743408203125">
        <ele>683.20001220703125</ele>
        <time>2019-10-29T15:56:47.000Z</time>
      </trkpt>
      <trkpt lat="37.2099797241389751434326171875" lon="-3.62175992690026760101318359375">
        <ele>683.20001220703125</ele>
        <time>2019-10-29T15:56:49.000Z</time>
      </trkpt>
      <trkpt lat="37.20995499752461910247802734375" lon="-3.6214829050004482269287109375">
        <ele>682.4000244140625</ele>
        <time>2019-10-29T15:56:54.000Z</time>
      </trkpt>
      <trkpt lat="37.20994108356535434722900390625" lon="-3.6214269138872623443603515625">
        <ele>682.20001220703125</ele>
        <time>2019-10-29T15:56:55.000Z</time>
      </trkpt>
      <trkpt lat="37.20991929061710834503173828125" lon="-3.6211873590946197509765625">
        <ele>682.79998779296875</ele>
        <time>2019-10-29T15:56:59.000Z</time>
      </trkpt>
      <trkpt lat="37.20993806608021259307861328125" lon="-3.6209501512348651885986328125">
        <ele>684.4000244140625</ele>
        <time>2019-10-29T15:57:03.000Z</time>
      </trkpt>
      <trkpt lat="37.20994795672595500946044921875" lon="-3.62070732749998569488525390625">
        <ele>685.5999755859375</ele>
        <time>2019-10-29T15:57:07.000Z</time>
      </trkpt>
      <trkpt lat="37.20995147712528705596923828125" lon="-3.62059123814105987548828125">
        <ele>686.20001220703125</ele>
        <time>2019-10-29T15:57:09.000Z</time>
      </trkpt>
      <trkpt lat="37.2098791413009166717529296875" lon="-3.62037691287696361541748046875">
        <ele>688.20001220703125</ele>
        <time>2019-10-29T15:57:13.000Z</time>
      </trkpt>
      <trkpt lat="37.20985827036201953887939453125" lon="-3.6203268729150295257568359375">
        <ele>688.4000244140625</ele>
        <time>2019-10-29T15:57:14.000Z</time>
      </trkpt>
      <trkpt lat="37.20984117127954959869384765625" lon="-3.6200576461851596832275390625">
        <ele>688.20001220703125</ele>
        <time>2019-10-29T15:57:19.000Z</time>
      </trkpt>
      <trkpt lat="37.20993320457637310028076171875" lon="-3.61987718380987644195556640625">
        <ele>688</ele>
        <time>2019-10-29T15:57:23.000Z</time>
      </trkpt>
      <trkpt lat="37.20995843410491943359375" lon="-3.6198353581130504608154296875">
        <ele>688.20001220703125</ele>
        <time>2019-10-29T15:57:24.000Z</time>
      </trkpt>
      <trkpt lat="37.209987603127956390380859375" lon="-3.6195852421224117279052734375">
        <ele>688.79998779296875</ele>
        <time>2019-10-29T15:57:29.000Z</time>
      </trkpt>
      <trkpt lat="37.2100067138671875" lon="-3.6193300969898700714111328125">
        <ele>689.79998779296875</ele>
        <time>2019-10-29T15:57:34.000Z</time>
      </trkpt>
      <trkpt lat="37.2100333683192729949951171875" lon="-3.61907101236283779144287109375">
        <ele>691.5999755859375</ele>
        <time>2019-10-29T15:57:39.000Z</time>
      </trkpt>
      <trkpt lat="37.21005826257169246673583984375" lon="-3.6188136041164398193359375">
        <ele>693.5999755859375</ele>
        <time>2019-10-29T15:57:44.000Z</time>
      </trkpt>
      <trkpt lat="37.21009715460240840911865234375" lon="-3.6185626499354839324951171875">
        <ele>694</ele>
        <time>2019-10-29T15:57:49.000Z</time>
      </trkpt>
      <trkpt lat="37.2101574204862117767333984375" lon="-3.61832150258123874664306640625">
        <ele>693</ele>
        <time>2019-10-29T15:57:54.000Z</time>
      </trkpt>
      <trkpt lat="37.21022120676934719085693359375" lon="-3.61807708628475666046142578125">
        <ele>692.79998779296875</ele>
        <time>2019-10-29T15:57:59.000Z</time>
      </trkpt>
      <trkpt lat="37.21028507687151432037353515625" lon="-3.61783417873084545135498046875">
        <ele>693.79998779296875</ele>
        <time>2019-10-29T15:58:04.000Z</time>
      </trkpt>
      <trkpt lat="37.21036587841808795928955078125" lon="-3.61760501749813556671142578125">
        <ele>695.79998779296875</ele>
        <time>2019-10-29T15:58:09.000Z</time>
      </trkpt>
      <trkpt lat="37.2104452550411224365234375" lon="-3.61743402667343616485595703125">
        <ele>696.4000244140625</ele>
        <time>2019-10-29T15:58:13.000Z</time>
      </trkpt>
      <trkpt lat="37.21052706241607666015625" lon="-3.6172071285545825958251953125">
        <ele>696.79998779296875</ele>
        <time>2019-10-29T15:58:18.000Z</time>
      </trkpt>
      <trkpt lat="37.2106090374290943145751953125" lon="-3.61697235144674777984619140625">
        <ele>697</ele>
        <time>2019-10-29T15:58:23.000Z</time>
      </trkpt>
      <trkpt lat="37.21063476987183094024658203125" lon="-3.6168904602527618408203125">
        <ele>697.20001220703125</ele>
        <time>2019-10-29T15:58:25.000Z</time>
      </trkpt>
      <trkpt lat="37.21062806434929370880126953125" lon="-3.61685760319232940673828125">
        <ele>697.4000244140625</ele>
        <time>2019-10-29T15:58:29.000Z</time>
      </trkpt>
      <trkpt lat="37.2106315009295940399169921875" lon="-3.61685232259333133697509765625">
        <ele>697.4000244140625</ele>
        <time>2019-10-29T15:58:31.000Z</time>
      </trkpt>
      <trkpt lat="37.2106056846678256988525390625" lon="-3.61691166646778583526611328125">
        <ele>697.20001220703125</ele>
        <time>2019-10-29T15:58:38.000Z</time>
      </trkpt>
      <trkpt lat="37.210524044930934906005859375" lon="-3.6168845929205417633056640625">
        <ele>697.79998779296875</ele>
        <time>2019-10-29T15:58:42.000Z</time>
      </trkpt>
      <trkpt lat="37.21036001108586788177490234375" lon="-3.61677043139934539794921875">
        <ele>698.20001220703125</ele>
        <time>2019-10-29T15:58:48.000Z</time>
      </trkpt>
      <trkpt lat="37.2101939655840396881103515625" lon="-3.6166515760123729705810546875">
        <ele>699</ele>
        <time>2019-10-29T15:58:55.000Z</time>
      </trkpt>
      <trkpt lat="37.2100122459232807159423828125" lon="-3.61653867177665233612060546875">
        <ele>699.5999755859375</ele>
        <time>2019-10-29T15:59:03.000Z</time>
      </trkpt>
      <trkpt lat="37.2098747827112674713134765625" lon="-3.6163702793419361114501953125">
        <ele>700.4000244140625</ele>
        <time>2019-10-29T15:59:09.000Z</time>
      </trkpt>
      <trkpt lat="37.20981267280876636505126953125" lon="-3.61615343950688838958740234375">
        <ele>700.4000244140625</ele>
        <time>2019-10-29T15:59:14.000Z</time>
      </trkpt>
      <trkpt lat="37.209660373628139495849609375" lon="-3.61600340344011783599853515625">
        <ele>700.4000244140625</ele>
        <time>2019-10-29T15:59:20.000Z</time>
      </trkpt>
      <trkpt lat="37.2094932384788990020751953125" lon="-3.615868203341960906982421875">
        <ele>700</ele>
        <time>2019-10-29T15:59:26.000Z</time>
      </trkpt>
      <trkpt lat="37.2093428671360015869140625" lon="-3.615720011293888092041015625">
        <ele>700.5999755859375</ele>
        <time>2019-10-29T15:59:32.000Z</time>
      </trkpt>
      <trkpt lat="37.2091831080615520477294921875" lon="-3.61555513925850391387939453125">
        <ele>701.20001220703125</ele>
        <time>2019-10-29T15:59:36.000Z</time>
      </trkpt>
      <trkpt lat="37.20905109308660030364990234375" lon="-3.61539588309824466705322265625">
        <ele>701.4000244140625</ele>
        <time>2019-10-29T15:59:41.000Z</time>
      </trkpt>
      <trkpt lat="37.20888781361281871795654296875" lon="-3.615274094045162200927734375">
        <ele>700.79998779296875</ele>
        <time>2019-10-29T15:59:48.000Z</time>
      </trkpt>
      <trkpt lat="37.20870793797075748443603515625" lon="-3.61529328860342502593994140625">
        <ele>699.4000244140625</ele>
        <time>2019-10-29T15:59:54.000Z</time>
      </trkpt>
      <trkpt lat="37.20852772705256938934326171875" lon="-3.61521969549357891082763671875">
        <ele>698.4000244140625</ele>
        <time>2019-10-29T16:00:01.000Z</time>
      </trkpt>
      <trkpt lat="37.208393700420856475830078125" lon="-3.6151153407990932464599609375">
        <ele>699.4000244140625</ele>
        <time>2019-10-29T16:00:09.000Z</time>
      </trkpt>
      <trkpt lat="37.208411134779453277587890625" lon="-3.614926077425479888916015625">
        <ele>699.79998779296875</ele>
        <time>2019-10-29T16:00:13.000Z</time>
      </trkpt>
      <trkpt lat="37.2085155732929706573486328125" lon="-3.614702783524990081787109375">
        <ele>701</ele>
        <time>2019-10-29T16:00:18.000Z</time>
      </trkpt>
      <trkpt lat="37.2086282260715961456298828125" lon="-3.614470772445201873779296875">
        <ele>703</ele>
        <time>2019-10-29T16:00:23.000Z</time>
      </trkpt>
      <trkpt lat="37.20872520469129085540771484375" lon="-3.614274971187114715576171875">
        <ele>704.79998779296875</ele>
        <time>2019-10-29T16:00:27.000Z</time>
      </trkpt>
      <trkpt lat="37.2088464908301830291748046875" lon="-3.61404421739280223846435546875">
        <ele>706.5999755859375</ele>
        <time>2019-10-29T16:00:32.000Z</time>
      </trkpt>
      <trkpt lat="37.20894916914403438568115234375" lon="-3.61384942196309566497802734375">
        <ele>707.5999755859375</ele>
        <time>2019-10-29T16:00:37.000Z</time>
      </trkpt>
      <trkpt lat="37.20895461738109588623046875" lon="-3.61377499066293239593505859375">
        <ele>707.5999755859375</ele>
        <time>2019-10-29T16:00:39.000Z</time>
      </trkpt>
      <trkpt lat="37.20880818553268909454345703125" lon="-3.6136280559003353118896484375">
        <ele>708</ele>
        <time>2019-10-29T16:00:45.000Z</time>
      </trkpt>
      <trkpt lat="37.2087688744068145751953125" lon="-3.61361690796911716461181640625">
        <ele>707.79998779296875</ele>
        <time>2019-10-29T16:00:46.000Z</time>
      </trkpt>
      <trkpt lat="37.208574078977108001708984375" lon="-3.6135794408619403839111328125">
        <ele>706.4000244140625</ele>
        <time>2019-10-29T16:00:51.000Z</time>
      </trkpt>
      <trkpt lat="37.208393700420856475830078125" lon="-3.61353560350835323333740234375">
        <ele>705</ele>
        <time>2019-10-29T16:00:56.000Z</time>
      </trkpt>
      <trkpt lat="37.20818188972771167755126953125" lon="-3.61346569843590259552001953125">
        <ele>703.20001220703125</ele>
        <time>2019-10-29T16:01:01.000Z</time>
      </trkpt>
      <trkpt lat="37.20799162052571773529052734375" lon="-3.61341297626495361328125">
        <ele>700.4000244140625</ele>
        <time>2019-10-29T16:01:05.000Z</time>
      </trkpt>
      <trkpt lat="37.20779992640018463134765625" lon="-3.61334650777280330657958984375">
        <ele>698.79998779296875</ele>
        <time>2019-10-29T16:01:09.000Z</time>
      </trkpt>
      <trkpt lat="37.207597754895687103271484375" lon="-3.61327827908098697662353515625">
        <ele>699.4000244140625</ele>
        <time>2019-10-29T16:01:13.000Z</time>
      </trkpt>
      <trkpt lat="37.2073937393724918365478515625" lon="-3.6131975613534450531005859375">
        <ele>701.79998779296875</ele>
        <time>2019-10-29T16:01:17.000Z</time>
      </trkpt>
      <trkpt lat="37.207238338887691497802734375" lon="-3.61314534209668636322021484375">
        <ele>704.5999755859375</ele>
        <time>2019-10-29T16:01:20.000Z</time>
      </trkpt>
      <trkpt lat="37.2070457227528095245361328125" lon="-3.61307577230036258697509765625">
        <ele>706.20001220703125</ele>
        <time>2019-10-29T16:01:24.000Z</time>
      </trkpt>
      <trkpt lat="37.20684262923896312713623046875" lon="-3.6129826493561267852783203125">
        <ele>704.79998779296875</ele>
        <time>2019-10-29T16:01:29.000Z</time>
      </trkpt>
      <trkpt lat="37.20676819793879985809326171875" lon="-3.61294350586831569671630859375">
        <ele>704</ele>
        <time>2019-10-29T16:01:31.000Z</time>
      </trkpt>
      <trkpt lat="37.20655663870275020599365234375" lon="-3.61285801045596599578857421875">
        <ele>702.79998779296875</ele>
        <time>2019-10-29T16:01:36.000Z</time>
      </trkpt>
      <trkpt lat="37.20637408085167407989501953125" lon="-3.61278290860354900360107421875">
        <ele>704</ele>
        <time>2019-10-29T16:01:40.000Z</time>
      </trkpt>
      <trkpt lat="37.2061887569725513458251953125" lon="-3.612697832286357879638671875">
        <ele>704.4000244140625</ele>
        <time>2019-10-29T16:01:44.000Z</time>
      </trkpt>
      <trkpt lat="37.20601248554885387420654296875" lon="-3.6126068048179149627685546875">
        <ele>704.4000244140625</ele>
        <time>2019-10-29T16:01:48.000Z</time>
      </trkpt>
      <trkpt lat="37.20583545975387096405029296875" lon="-3.61251854337751865386962890625">
        <ele>702.79998779296875</ele>
        <time>2019-10-29T16:01:53.000Z</time>
      </trkpt>
      <trkpt lat="37.2056791372597217559814453125" lon="-3.61247026361525058746337890625">
        <ele>702.20001220703125</ele>
        <time>2019-10-29T16:01:57.000Z</time>
      </trkpt>
      <trkpt lat="37.20549582503736019134521484375" lon="-3.61235526390373706817626953125">
        <ele>702.5999755859375</ele>
        <time>2019-10-29T16:02:01.000Z</time>
      </trkpt>
      <trkpt lat="37.20536624081432819366455078125" lon="-3.61225451342761516571044921875">
        <ele>704.20001220703125</ele>
        <time>2019-10-29T16:02:04.000Z</time>
      </trkpt>
      <trkpt lat="37.2052312083542346954345703125" lon="-3.612163402140140533447265625">
        <ele>706.4000244140625</ele>
        <time>2019-10-29T16:02:07.000Z</time>
      </trkpt>
      <trkpt lat="37.20503180287778377532958984375" lon="-3.6120445467531681060791015625">
        <ele>709.20001220703125</ele>
        <time>2019-10-29T16:02:11.000Z</time>
      </trkpt>
      <trkpt lat="37.20498628914356231689453125" lon="-3.61200875602662563323974609375">
        <ele>709.5999755859375</ele>
        <time>2019-10-29T16:02:12.000Z</time>
      </trkpt>
      <trkpt lat="37.20484991557896137237548828125" lon="-3.611902892589569091796875">
        <ele>710</ele>
        <time>2019-10-29T16:02:15.000Z</time>
      </trkpt>
      <trkpt lat="37.20475251786410808563232421875" lon="-3.6118410341441631317138671875">
        <ele>710</ele>
        <time>2019-10-29T16:02:17.000Z</time>
      </trkpt>
      <trkpt lat="37.20456442795693874359130859375" lon="-3.61171203665435314178466796875">
        <ele>708.79998779296875</ele>
        <time>2019-10-29T16:02:21.000Z</time>
      </trkpt>
      <trkpt lat="37.2043708898127079010009765625" lon="-3.61157792620360851287841796875">
        <ele>708</ele>
        <time>2019-10-29T16:02:25.000Z</time>
      </trkpt>
      <trkpt lat="37.2041965462267398834228515625" lon="-3.6114246211946010589599609375">
        <ele>708.5999755859375</ele>
        <time>2019-10-29T16:02:29.000Z</time>
      </trkpt>
      <trkpt lat="37.20401155762374401092529296875" lon="-3.61131305806338787078857421875">
        <ele>709.20001220703125</ele>
        <time>2019-10-29T16:02:33.000Z</time>
      </trkpt>
      <trkpt lat="37.2038354538381099700927734375" lon="-3.61121213994920253753662109375">
        <ele>709.4000244140625</ele>
        <time>2019-10-29T16:02:37.000Z</time>
      </trkpt>
      <trkpt lat="37.20364593900740146636962890625" lon="-3.61111507751047611236572265625">
        <ele>708.79998779296875</ele>
        <time>2019-10-29T16:02:41.000Z</time>
      </trkpt>
      <trkpt lat="37.2034408338367938995361328125" lon="-3.611012063920497894287109375">
        <ele>708.20001220703125</ele>
        <time>2019-10-29T16:02:45.000Z</time>
      </trkpt>
      <trkpt lat="37.20325785689055919647216796875" lon="-3.61093922518193721771240234375">
        <ele>707.20001220703125</ele>
        <time>2019-10-29T16:02:48.000Z</time>
      </trkpt>
      <trkpt lat="37.2031082399189472198486328125" lon="-3.61079991795122623443603515625">
        <ele>706</ele>
        <time>2019-10-29T16:02:51.000Z</time>
      </trkpt>
      <trkpt lat="37.203008495271205902099609375" lon="-3.61070855520665645599365234375">
        <ele>705.5999755859375</ele>
        <time>2019-10-29T16:02:53.000Z</time>
      </trkpt>
      <trkpt lat="37.20284060575067996978759765625" lon="-3.6105847544968128204345703125">
        <ele>705.5999755859375</ele>
        <time>2019-10-29T16:02:56.000Z</time>
      </trkpt>
      <trkpt lat="37.2026797570288181304931640625" lon="-3.61046816222369670867919921875">
        <ele>706.79998779296875</ele>
        <time>2019-10-29T16:02:59.000Z</time>
      </trkpt>
      <trkpt lat="37.20252536237239837646484375" lon="-3.610348887741565704345703125">
        <ele>707.5999755859375</ele>
        <time>2019-10-29T16:03:02.000Z</time>
      </trkpt>
      <trkpt lat="37.20235445536673069000244140625" lon="-3.610240928828716278076171875">
        <ele>707.79998779296875</ele>
        <time>2019-10-29T16:03:05.000Z</time>
      </trkpt>
      <trkpt lat="37.20223124139010906219482421875" lon="-3.6101817525923252105712890625">
        <ele>708</ele>
        <time>2019-10-29T16:03:07.000Z</time>
      </trkpt>
      <trkpt lat="37.2020206041634082794189453125" lon="-3.61005560494959354400634765625">
        <ele>707</ele>
        <time>2019-10-29T16:03:11.000Z</time>
      </trkpt>
      <trkpt lat="37.20181985758244991302490234375" lon="-3.60993473790585994720458984375">
        <ele>707.20001220703125</ele>
        <time>2019-10-29T16:03:15.000Z</time>
      </trkpt>
      <trkpt lat="37.20168993808329105377197265625" lon="-3.60983298160135746002197265625">
        <ele>707.20001220703125</ele>
        <time>2019-10-29T16:03:18.000Z</time>
      </trkpt>
      <trkpt lat="37.20152079127728939056396484375" lon="-3.609703145921230316162109375">
        <ele>707.4000244140625</ele>
        <time>2019-10-29T16:03:22.000Z</time>
      </trkpt>
      <trkpt lat="37.2013527341187000274658203125" lon="-3.60957984812557697296142578125">
        <ele>708</ele>
        <time>2019-10-29T16:03:26.000Z</time>
      </trkpt>
      <trkpt lat="37.20118559896945953369140625" lon="-3.60945110209286212921142578125">
        <ele>707.5999755859375</ele>
        <time>2019-10-29T16:03:30.000Z</time>
      </trkpt>
      <trkpt lat="37.2010241635143756866455078125" lon="-3.60934800468385219573974609375">
        <ele>707</ele>
        <time>2019-10-29T16:03:35.000Z</time>
      </trkpt>
      <trkpt lat="37.2008484788239002227783203125" lon="-3.609262593090534210205078125">
        <ele>706.20001220703125</ele>
        <time>2019-10-29T16:03:39.000Z</time>
      </trkpt>
      <trkpt lat="37.20066466368734836578369140625" lon="-3.60913141630589962005615234375">
        <ele>705.4000244140625</ele>
        <time>2019-10-29T16:03:43.000Z</time>
      </trkpt>
      <trkpt lat="37.20049685798585414886474609375" lon="-3.60900602303445339202880859375">
        <ele>705</ele>
        <time>2019-10-29T16:03:47.000Z</time>
      </trkpt>
      <trkpt lat="37.200312875211238861083984375" lon="-3.6088674701750278472900390625">
        <ele>705.5999755859375</ele>
        <time>2019-10-29T16:03:51.000Z</time>
      </trkpt>
      <trkpt lat="37.20020382665097713470458984375" lon="-3.608802258968353271484375">
        <ele>706</ele>
        <time>2019-10-29T16:03:53.000Z</time>
      </trkpt>
      <trkpt lat="37.20000232569873332977294921875" lon="-3.60867057926952838897705078125">
        <ele>706.20001220703125</ele>
        <time>2019-10-29T16:03:57.000Z</time>
      </trkpt>
      <trkpt lat="37.19991180114448070526123046875" lon="-3.6086029373109340667724609375">
        <ele>706</ele>
        <time>2019-10-29T16:03:59.000Z</time>
      </trkpt>
      <trkpt lat="37.19974131323397159576416015625" lon="-3.60846555791795253753662109375">
        <ele>706</ele>
        <time>2019-10-29T16:04:03.000Z</time>
      </trkpt>
      <trkpt lat="37.19952841289341449737548828125" lon="-3.60833178274333477020263671875">
        <ele>705.5999755859375</ele>
        <time>2019-10-29T16:04:07.000Z</time>
      </trkpt>
      <trkpt lat="37.19932171516120433807373046875" lon="-3.60819431953132152557373046875">
        <ele>705.4000244140625</ele>
        <time>2019-10-29T16:04:11.000Z</time>
      </trkpt>
      <trkpt lat="37.19913178123533725738525390625" lon="-3.60808351077139377593994140625">
        <ele>703.79998779296875</ele>
        <time>2019-10-29T16:04:15.000Z</time>
      </trkpt>
      <trkpt lat="37.19895307905972003936767578125" lon="-3.60797152854502201080322265625">
        <ele>704.5999755859375</ele>
        <time>2019-10-29T16:04:19.000Z</time>
      </trkpt>
      <trkpt lat="37.198814861476421356201171875" lon="-3.60788268037140369415283203125">
        <ele>704.20001220703125</ele>
        <time>2019-10-29T16:04:22.000Z</time>
      </trkpt>
      <trkpt lat="37.198631800711154937744140625" lon="-3.60778176225721836090087890625">
        <ele>705.4000244140625</ele>
        <time>2019-10-29T16:04:26.000Z</time>
      </trkpt>
      <trkpt lat="37.19844765029847621917724609375" lon="-3.60768687911331653594970703125">
        <ele>705.5999755859375</ele>
        <time>2019-10-29T16:04:30.000Z</time>
      </trkpt>
      <trkpt lat="37.19831035472452640533447265625" lon="-3.60762401483952999114990234375">
        <ele>704.5999755859375</ele>
        <time>2019-10-29T16:04:34.000Z</time>
      </trkpt>
      <trkpt lat="37.1982879750430583953857421875" lon="-3.6076222546398639678955078125">
        <ele>704.4000244140625</ele>
        <time>2019-10-29T16:04:39.000Z</time>
      </trkpt>
      <trkpt lat="37.198206000030040740966796875" lon="-3.6076051555573940277099609375">
        <ele>703.5999755859375</ele>
        <time>2019-10-29T16:04:47.000Z</time>
      </trkpt>
      <trkpt lat="37.1979734860360622406005859375" lon="-3.60757741145789623260498046875">
        <ele>701.20001220703125</ele>
        <time>2019-10-29T16:04:52.000Z</time>
      </trkpt>
      <trkpt lat="37.1978115476667881011962890625" lon="-3.60747766681015491485595703125">
        <ele>701.20001220703125</ele>
        <time>2019-10-29T16:04:55.000Z</time>
      </trkpt>
      <trkpt lat="37.19771943055093288421630859375" lon="-3.60728085972368717193603515625">
        <ele>702.79998779296875</ele>
        <time>2019-10-29T16:04:58.000Z</time>
      </trkpt>
      <trkpt lat="37.19771523959934711456298828125" lon="-3.60720559023320674896240234375">
        <ele>703.20001220703125</ele>
        <time>2019-10-29T16:04:59.000Z</time>
      </trkpt>
      <trkpt lat="37.1978174149990081787109375" lon="-3.60696670599281787872314453125">
        <ele>704.5999755859375</ele>
        <time>2019-10-29T16:05:03.000Z</time>
      </trkpt>
      <trkpt lat="37.1980026550590991973876953125" lon="-3.6068206094205379486083984375">
        <ele>704.5999755859375</ele>
        <time>2019-10-29T16:05:08.000Z</time>
      </trkpt>
      <trkpt lat="37.1980827860534191131591796875" lon="-3.606642745435237884521484375">
        <ele>705.5999755859375</ele>
        <time>2019-10-29T16:05:12.000Z</time>
      </trkpt>
      <trkpt lat="37.198089994490146636962890625" lon="-3.60660217702388763427734375">
        <ele>705.79998779296875</ele>
        <time>2019-10-29T16:05:13.000Z</time>
      </trkpt>
      <trkpt lat="37.1980817802250385284423828125" lon="-3.6065076291561126708984375">
        <ele>706</ele>
        <time>2019-10-29T16:05:16.000Z</time>
      </trkpt>
      <trkpt lat="37.19816970638930797576904296875" lon="-3.6063332855701446533203125">
        <ele>707</ele>
        <time>2019-10-29T16:05:21.000Z</time>
      </trkpt>
      <trkpt lat="37.19819485209882259368896484375" lon="-3.606261201202869415283203125">
        <ele>707.4000244140625</ele>
        <time>2019-10-29T16:05:23.000Z</time>
      </trkpt>
      <trkpt lat="37.19821915961802005767822265625" lon="-3.60618500970304012298583984375">
        <ele>707.79998779296875</ele>
        <time>2019-10-29T16:05:25.000Z</time>
      </trkpt>
      <trkpt lat="37.1982933394610881805419921875" lon="-3.60597881488502025604248046875">
        <ele>707.4000244140625</ele>
        <time>2019-10-29T16:05:30.000Z</time>
      </trkpt>
      <trkpt lat="37.1983654238283634185791015625" lon="-3.60577010549604892730712890625">
        <ele>706.5999755859375</ele>
        <time>2019-10-29T16:05:35.000Z</time>
      </trkpt>
      <trkpt lat="37.19849173910915851593017578125" lon="-3.6055527627468109130859375">
        <ele>706.20001220703125</ele>
        <time>2019-10-29T16:05:41.000Z</time>
      </trkpt>
      <trkpt lat="37.198614366352558135986328125" lon="-3.6053400300443172454833984375">
        <ele>706.5999755859375</ele>
        <time>2019-10-29T16:05:47.000Z</time>
      </trkpt>
      <trkpt lat="37.19872090034186840057373046875" lon="-3.60510307364165782928466796875">
        <ele>707.79998779296875</ele>
        <time>2019-10-29T16:05:53.000Z</time>
      </trkpt>
      <trkpt lat="37.198742441833019256591796875" lon="-3.60486435703933238983154296875">
        <ele>709.5999755859375</ele>
        <time>2019-10-29T16:05:58.000Z</time>
      </trkpt>
      <trkpt lat="37.19865350984036922454833984375" lon="-3.60462798736989498138427734375">
        <ele>711</ele>
        <time>2019-10-29T16:06:02.000Z</time>
      </trkpt>
      <trkpt lat="37.19850548543035984039306640625" lon="-3.60445716418325901031494140625">
        <ele>712</ele>
        <time>2019-10-29T16:06:07.000Z</time>
      </trkpt>
      <trkpt lat="37.1983221732079982757568359375" lon="-3.60438407398760318756103515625">
        <ele>712.4000244140625</ele>
        <time>2019-10-29T16:06:13.000Z</time>
      </trkpt>
      <trkpt lat="37.198130898177623748779296875" lon="-3.60435507260262966156005859375">
        <ele>712.79998779296875</ele>
        <time>2019-10-29T16:06:19.000Z</time>
      </trkpt>
      <trkpt lat="37.1979483403265476226806640625" lon="-3.60434048809111118316650390625">
        <ele>713</ele>
        <time>2019-10-29T16:06:25.000Z</time>
      </trkpt>
      <trkpt lat="37.19787214882671833038330078125" lon="-3.6043285019695758819580078125">
        <ele>713</ele>
        <time>2019-10-29T16:06:28.000Z</time>
      </trkpt>
      <trkpt lat="37.19780492596328258514404296875" lon="-3.604256249964237213134765625">
        <ele>713</ele>
        <time>2019-10-29T16:06:32.000Z</time>
      </trkpt>
      <trkpt lat="37.19760954380035400390625" lon="-3.6042792163789272308349609375">
        <ele>713.4000244140625</ele>
        <time>2019-10-29T16:06:40.000Z</time>
      </trkpt>
      <trkpt lat="37.1975627727806568145751953125" lon="-3.60429103486239910125732421875">
        <ele>713.5999755859375</ele>
        <time>2019-10-29T16:06:42.000Z</time>
      </trkpt>
      <trkpt lat="37.1973753534257411956787109375" lon="-3.6043164320290088653564453125">
        <ele>714.4000244140625</ele>
        <time>2019-10-29T16:06:49.000Z</time>
      </trkpt>
      <trkpt lat="37.197357751429080963134765625" lon="-3.6043167673051357269287109375">
        <ele>714.4000244140625</ele>
        <time>2019-10-29T16:06:50.000Z</time>
      </trkpt>
      <trkpt lat="37.19717435538768768310546875" lon="-3.60434710979461669921875">
        <ele>713.5999755859375</ele>
        <time>2019-10-29T16:06:57.000Z</time>
      </trkpt>
      <trkpt lat="37.19709925353527069091796875" lon="-3.6043801344931125640869140625">
        <ele>713.4000244140625</ele>
        <time>2019-10-29T16:07:00.000Z</time>
      </trkpt>
      <trkpt lat="37.1969096548855304718017578125" lon="-3.60430109314620494842529296875">
        <ele>713.20001220703125</ele>
        <time>2019-10-29T16:07:06.000Z</time>
      </trkpt>
      <trkpt lat="37.1968281827867031097412109375" lon="-3.60430025495588779449462890625">
        <ele>712.79998779296875</ele>
        <time>2019-10-29T16:07:08.000Z</time>
      </trkpt>
      <trkpt lat="37.19663011841475963592529296875" lon="-3.60433260910212993621826171875">
        <ele>712.5999755859375</ele>
        <time>2019-10-29T16:07:12.000Z</time>
      </trkpt>
      <trkpt lat="37.19642199575901031494140625" lon="-3.604352809488773345947265625">
        <ele>713</ele>
        <time>2019-10-29T16:07:16.000Z</time>
      </trkpt>
      <trkpt lat="37.196201048791408538818359375" lon="-3.60439161770045757293701171875">
        <ele>714</ele>
        <time>2019-10-29T16:07:20.000Z</time>
      </trkpt>
      <trkpt lat="37.19599091447889804840087890625" lon="-3.60443620942533016204833984375">
        <ele>714.79998779296875</ele>
        <time>2019-10-29T16:07:24.000Z</time>
      </trkpt>
      <trkpt lat="37.1957982145249843597412109375" lon="-3.6044723354279994964599609375">
        <ele>714.20001220703125</ele>
        <time>2019-10-29T16:07:28.000Z</time>
      </trkpt>
      <trkpt lat="37.19561523757874965667724609375" lon="-3.60449932515621185302734375">
        <ele>713.20001220703125</ele>
        <time>2019-10-29T16:07:32.000Z</time>
      </trkpt>
      <trkpt lat="37.19539479352533817291259765625" lon="-3.60451835207641124725341796875">
        <ele>711.5999755859375</ele>
        <time>2019-10-29T16:07:37.000Z</time>
      </trkpt>
      <trkpt lat="37.1952034346759319305419921875" lon="-3.60452841036021709442138671875">
        <ele>710.20001220703125</ele>
        <time>2019-10-29T16:07:41.000Z</time>
      </trkpt>
      <trkpt lat="37.1949895285069942474365234375" lon="-3.6045179329812526702880859375">
        <ele>710</ele>
        <time>2019-10-29T16:07:45.000Z</time>
      </trkpt>
      <trkpt lat="37.19476045109331607818603515625" lon="-3.60454089939594268798828125">
        <ele>711.4000244140625</ele>
        <time>2019-10-29T16:07:49.000Z</time>
      </trkpt>
      <trkpt lat="37.1945697627961635589599609375" lon="-3.60452807508409023284912109375">
        <ele>712.5999755859375</ele>
        <time>2019-10-29T16:07:52.000Z</time>
      </trkpt>
      <trkpt lat="37.194383181631565093994140625" lon="-3.604516424238681793212890625">
        <ele>714</ele>
        <time>2019-10-29T16:07:55.000Z</time>
      </trkpt>
      <trkpt lat="37.1942026354372501373291015625" lon="-3.60449991188943386077880859375">
        <ele>714.20001220703125</ele>
        <time>2019-10-29T16:07:59.000Z</time>
      </trkpt>
      <trkpt lat="37.1940460614860057830810546875" lon="-3.604483902454376220703125">
        <ele>713.79998779296875</ele>
        <time>2019-10-29T16:08:06.000Z</time>
      </trkpt>
      <trkpt lat="37.19384581781923770904541015625" lon="-3.60447275452315807342529296875">
        <ele>712.20001220703125</ele>
        <time>2019-10-29T16:08:11.000Z</time>
      </trkpt>
      <trkpt lat="37.19379871152341365814208984375" lon="-3.604467809200286865234375">
        <ele>712</ele>
        <time>2019-10-29T16:08:12.000Z</time>
      </trkpt>
      <trkpt lat="37.1936762519180774688720703125" lon="-3.60445884056389331817626953125">
        <ele>711.79998779296875</ele>
        <time>2019-10-29T16:08:14.000Z</time>
      </trkpt>
      <trkpt lat="37.19345253892242908477783203125" lon="-3.60441843979060649871826171875">
        <ele>711.79998779296875</ele>
        <time>2019-10-29T16:08:18.000Z</time>
      </trkpt>
      <trkpt lat="37.19331021420657634735107421875" lon="-3.60437284223735332489013671875">
        <ele>711.79998779296875</ele>
        <time>2019-10-29T16:08:21.000Z</time>
      </trkpt>
      <trkpt lat="37.1930841542780399322509765625" lon="-3.604309894144535064697265625">
        <ele>711.20001220703125</ele>
        <time>2019-10-29T16:08:25.000Z</time>
      </trkpt>
      <trkpt lat="37.19287217594683170318603515625" lon="-3.60428206622600555419921875">
        <ele>710.20001220703125</ele>
        <time>2019-10-29T16:08:28.000Z</time>
      </trkpt>
      <trkpt lat="37.19280662946403026580810546875" lon="-3.60427200794219970703125">
        <ele>709.4000244140625</ele>
        <time>2019-10-29T16:08:29.000Z</time>
      </trkpt>
      <trkpt lat="37.1926191262900829315185546875" lon="-3.604216016829013824462890625">
        <ele>707.20001220703125</ele>
        <time>2019-10-29T16:08:33.000Z</time>
      </trkpt>
      <trkpt lat="37.192418463528156280517578125" lon="-3.60417067073285579681396484375">
        <ele>705.20001220703125</ele>
        <time>2019-10-29T16:08:39.000Z</time>
      </trkpt>
      <trkpt lat="37.192355431616306304931640625" lon="-3.6041635461151599884033203125">
        <ele>705</ele>
        <time>2019-10-29T16:08:41.000Z</time>
      </trkpt>
      <trkpt lat="37.19233171083033084869384765625" lon="-3.60416547395288944244384765625">
        <ele>705</ele>
        <time>2019-10-29T16:08:45.000Z</time>
      </trkpt>
      <trkpt lat="37.192278988659381866455078125" lon="-3.60413965769112110137939453125">
        <ele>705</ele>
        <time>2019-10-29T16:08:58.000Z</time>
      </trkpt>
      <trkpt lat="37.19208947382867336273193359375" lon="-3.60408919863402843475341796875">
        <ele>704.4000244140625</ele>
        <time>2019-10-29T16:09:03.000Z</time>
      </trkpt>
      <trkpt lat="37.19190138392150402069091796875" lon="-3.60402197577059268951416015625">
        <ele>705</ele>
        <time>2019-10-29T16:09:07.000Z</time>
      </trkpt>
      <trkpt lat="37.19172620214521884918212890625" lon="-3.60396699048578739166259765625">
        <ele>706.4000244140625</ele>
        <time>2019-10-29T16:09:11.000Z</time>
      </trkpt>
      <trkpt lat="37.19149821437895298004150390625" lon="-3.6039047129452228546142578125">
        <ele>708.4000244140625</ele>
        <time>2019-10-29T16:09:15.000Z</time>
      </trkpt>
      <trkpt lat="37.19129352830350399017333984375" lon="-3.6038795672357082366943359375">
        <ele>709.4000244140625</ele>
        <time>2019-10-29T16:09:20.000Z</time>
      </trkpt>
      <trkpt lat="37.19124977476894855499267578125" lon="-3.60387168824672698974609375">
        <ele>709.4000244140625</ele>
        <time>2019-10-29T16:09:21.000Z</time>
      </trkpt>
      <trkpt lat="37.191051207482814788818359375" lon="-3.60387713648378849029541015625">
        <ele>709.4000244140625</ele>
        <time>2019-10-29T16:09:25.000Z</time>
      </trkpt>
      <trkpt lat="37.19094693660736083984375" lon="-3.603880070149898529052734375">
        <ele>708.4000244140625</ele>
        <time>2019-10-29T16:09:27.000Z</time>
      </trkpt>
      <trkpt lat="37.190732024610042572021484375" lon="-3.6038695089519023895263671875">
        <ele>706.20001220703125</ele>
        <time>2019-10-29T16:09:32.000Z</time>
      </trkpt>
      <trkpt lat="37.19064024277031421661376953125" lon="-3.60386095941066741943359375">
        <ele>705.5999755859375</ele>
        <time>2019-10-29T16:09:35.000Z</time>
      </trkpt>
      <trkpt lat="37.190538235008716583251953125" lon="-3.60383220948278903961181640625">
        <ele>705.20001220703125</ele>
        <time>2019-10-29T16:09:39.000Z</time>
      </trkpt>
      <trkpt lat="37.19051484949886798858642578125" lon="-3.6038346402347087860107421875">
        <ele>705</ele>
        <time>2019-10-29T16:09:40.000Z</time>
      </trkpt>
      <trkpt lat="37.190438322722911834716796875" lon="-3.603824414312839508056640625">
        <ele>704.5999755859375</ele>
        <time>2019-10-29T16:09:43.000Z</time>
      </trkpt>
      <trkpt lat="37.19031234271824359893798828125" lon="-3.60379868187010288238525390625">
        <ele>704.79998779296875</ele>
        <time>2019-10-29T16:09:47.000Z</time>
      </trkpt>
      <trkpt lat="37.19010380096733570098876953125" lon="-3.6038292758166790008544921875">
        <ele>705.20001220703125</ele>
        <time>2019-10-29T16:09:51.000Z</time>
      </trkpt>
      <trkpt lat="37.18990380875766277313232421875" lon="-3.6038262583315372467041015625">
        <ele>706</ele>
        <time>2019-10-29T16:09:55.000Z</time>
      </trkpt>
      <trkpt lat="37.1896720491349697113037109375" lon="-3.60380823723971843719482421875">
        <ele>705.20001220703125</ele>
        <time>2019-10-29T16:09:59.000Z</time>
      </trkpt>
      <trkpt lat="37.1894460730254650115966796875" lon="-3.60378988087177276611328125">
        <ele>703.79998779296875</ele>
        <time>2019-10-29T16:10:03.000Z</time>
      </trkpt>
      <trkpt lat="37.189372815191745758056640625" lon="-3.60378677956759929656982421875">
        <ele>703.5999755859375</ele>
        <time>2019-10-29T16:10:04.000Z</time>
      </trkpt>
      <trkpt lat="37.18917676247656345367431640625" lon="-3.6037759669125080108642578125">
        <ele>701.79998779296875</ele>
        <time>2019-10-29T16:10:07.000Z</time>
      </trkpt>
      <trkpt lat="37.18896050937473773956298828125" lon="-3.603757359087467193603515625">
        <ele>700.79998779296875</ele>
        <time>2019-10-29T16:10:10.000Z</time>
      </trkpt>
      <trkpt lat="37.18872011639177799224853515625" lon="-3.60374151729047298431396484375">
        <ele>699.4000244140625</ele>
        <time>2019-10-29T16:10:13.000Z</time>
      </trkpt>
      <trkpt lat="37.1884747780859470367431640625" lon="-3.60373347066342830657958984375">
        <ele>698</ele>
        <time>2019-10-29T16:10:16.000Z</time>
      </trkpt>
      <trkpt lat="37.18823547475039958953857421875" lon="-3.603727184236049652099609375">
        <ele>698</ele>
        <time>2019-10-29T16:10:19.000Z</time>
      </trkpt>
      <trkpt lat="37.1879990212619304656982421875" lon="-3.60372961498796939849853515625">
        <ele>698.5999755859375</ele>
        <time>2019-10-29T16:10:22.000Z</time>
      </trkpt>
      <trkpt lat="37.18778201378881931304931640625" lon="-3.60371209681034088134765625">
        <ele>698.4000244140625</ele>
        <time>2019-10-29T16:10:25.000Z</time>
      </trkpt>
      <trkpt lat="37.18760062940418720245361328125" lon="-3.603706397116184234619140625">
        <ele>697.5999755859375</ele>
        <time>2019-10-29T16:10:28.000Z</time>
      </trkpt>
      <trkpt lat="37.1873915009200572967529296875" lon="-3.6036934889853000640869140625">
        <ele>697.4000244140625</ele>
        <time>2019-10-29T16:10:32.000Z</time>
      </trkpt>
      <trkpt lat="37.18729955144226551055908203125" lon="-3.603688962757587432861328125">
        <ele>697</ele>
        <time>2019-10-29T16:10:35.000Z</time>
      </trkpt>
      <trkpt lat="37.18729175627231597900390625" lon="-3.60369541682302951812744140625">
        <ele>697</ele>
        <time>2019-10-29T16:10:40.000Z</time>
      </trkpt>
      <trkpt lat="37.187210284173488616943359375" lon="-3.6037119291722774505615234375">
        <ele>696.4000244140625</ele>
        <time>2019-10-29T16:11:30.000Z</time>
      </trkpt>
      <trkpt lat="37.18700601719319820404052734375" lon="-3.60365618951618671417236328125">
        <ele>696.4000244140625</ele>
        <time>2019-10-29T16:11:36.000Z</time>
      </trkpt>
      <trkpt lat="37.18679429031908512115478515625" lon="-3.6035452969372272491455078125">
        <ele>697</ele>
        <time>2019-10-29T16:11:41.000Z</time>
      </trkpt>
      <trkpt lat="37.1867440827190876007080078125" lon="-3.6035100929439067840576171875">
        <ele>697.4000244140625</ele>
        <time>2019-10-29T16:11:42.000Z</time>
      </trkpt>
      <trkpt lat="37.18655054457485675811767578125" lon="-3.603376485407352447509765625">
        <ele>699.20001220703125</ele>
        <time>2019-10-29T16:11:46.000Z</time>
      </trkpt>
      <trkpt lat="37.1863786317408084869384765625" lon="-3.60321379266679286956787109375">
        <ele>700.79998779296875</ele>
        <time>2019-10-29T16:11:50.000Z</time>
      </trkpt>
      <trkpt lat="37.186191715300083160400390625" lon="-3.60304984264075756072998046875">
        <ele>701.5999755859375</ele>
        <time>2019-10-29T16:11:54.000Z</time>
      </trkpt>
      <trkpt lat="37.18606003560125827789306640625" lon="-3.6029314063489437103271484375">
        <ele>702.4000244140625</ele>
        <time>2019-10-29T16:11:57.000Z</time>
      </trkpt>
      <trkpt lat="37.18586892820894718170166015625" lon="-3.60278815962374210357666015625">
        <ele>703</ele>
        <time>2019-10-29T16:12:01.000Z</time>
      </trkpt>
      <trkpt lat="37.18582282774150371551513671875" lon="-3.602748177945613861083984375">
        <ele>703</ele>
        <time>2019-10-29T16:12:02.000Z</time>
      </trkpt>
      <trkpt lat="37.18563557602465152740478515625" lon="-3.60260509885847568511962890625">
        <ele>703</ele>
        <time>2019-10-29T16:12:06.000Z</time>
      </trkpt>
      <trkpt lat="37.18544061295688152313232421875" lon="-3.60246612690389156341552734375">
        <ele>702</ele>
        <time>2019-10-29T16:12:10.000Z</time>
      </trkpt>
      <trkpt lat="37.1852702088654041290283203125" lon="-3.602307625114917755126953125">
        <ele>700.79998779296875</ele>
        <time>2019-10-29T16:12:14.000Z</time>
      </trkpt>
      <trkpt lat="37.18510148115456104278564453125" lon="-3.6021894402801990509033203125">
        <ele>700</ele>
        <time>2019-10-29T16:12:17.000Z</time>
      </trkpt>
      <trkpt lat="37.18495094217360019683837890625" lon="-3.6020627059042453765869140625">
        <ele>699.4000244140625</ele>
        <time>2019-10-29T16:12:20.000Z</time>
      </trkpt>
      <trkpt lat="37.18480375595390796661376953125" lon="-3.601919375360012054443359375">
        <ele>699</ele>
        <time>2019-10-29T16:12:23.000Z</time>
      </trkpt>
      <trkpt lat="37.18462974764406681060791015625" lon="-3.6017374880611896514892578125">
        <ele>699</ele>
        <time>2019-10-29T16:12:27.000Z</time>
      </trkpt>
      <trkpt lat="37.184468396008014678955078125" lon="-3.6015745438635349273681640625">
        <ele>698.4000244140625</ele>
        <time>2019-10-29T16:12:31.000Z</time>
      </trkpt>
      <trkpt lat="37.18431442044675350189208984375" lon="-3.6014199815690517425537109375">
        <ele>697.5999755859375</ele>
        <time>2019-10-29T16:12:35.000Z</time>
      </trkpt>
      <trkpt lat="37.18424820341169834136962890625" lon="-3.601350076496601104736328125">
        <ele>697.20001220703125</ele>
        <time>2019-10-29T16:12:37.000Z</time>
      </trkpt>
      <trkpt lat="37.1841917932033538818359375" lon="-3.60129517503082752227783203125">
        <ele>696.79998779296875</ele>
        <time>2019-10-29T16:12:39.000Z</time>
      </trkpt>
      <trkpt lat="37.1841450221836566925048828125" lon="-3.60124672763049602508544921875">
        <ele>696.20001220703125</ele>
        <time>2019-10-29T16:12:41.000Z</time>
      </trkpt>
      <trkpt lat="37.184088528156280517578125" lon="-3.60119995661079883575439453125">
        <ele>695.4000244140625</ele>
        <time>2019-10-29T16:12:44.000Z</time>
      </trkpt>
      <trkpt lat="37.184083499014377593994140625" lon="-3.601194508373737335205078125">
        <ele>695.20001220703125</ele>
        <time>2019-10-29T16:12:48.000Z</time>
      </trkpt>
      <trkpt lat="37.18398752622306346893310546875" lon="-3.60112502239644527435302734375">
        <ele>694.5999755859375</ele>
        <time>2019-10-29T16:13:19.000Z</time>
      </trkpt>
      <trkpt lat="37.1839150227606296539306640625" lon="-3.60119559802114963531494140625">
        <ele>694.20001220703125</ele>
        <time>2019-10-29T16:13:23.000Z</time>
      </trkpt>
      <trkpt lat="37.18374696560204029083251953125" lon="-3.60137882642447948455810546875">
        <ele>693</ele>
        <time>2019-10-29T16:13:29.000Z</time>
      </trkpt>
      <trkpt lat="37.18366499058902263641357421875" lon="-3.6014541797339916229248046875">
        <ele>692.20001220703125</ele>
        <time>2019-10-29T16:13:31.000Z</time>
      </trkpt>
      <trkpt lat="37.1835150383412837982177734375" lon="-3.60162240453064441680908203125">
        <ele>690.4000244140625</ele>
        <time>2019-10-29T16:13:36.000Z</time>
      </trkpt>
      <trkpt lat="37.18335921876132488250732421875" lon="-3.60181032679975032806396484375">
        <ele>687.20001220703125</ele>
        <time>2019-10-29T16:13:42.000Z</time>
      </trkpt>
      <trkpt lat="37.18328545801341533660888671875" lon="-3.60201987437903881072998046875">
        <ele>685.20001220703125</ele>
        <time>2019-10-29T16:13:49.000Z</time>
      </trkpt>
      <trkpt lat="37.1832803450524806976318359375" lon="-3.60203714109957218170166015625">
        <ele>685.20001220703125</ele>
        <time>2019-10-29T16:13:51.000Z</time>
      </trkpt>
      <trkpt lat="37.1832800097763538360595703125" lon="-3.6020375601947307586669921875">
        <ele>685.20001220703125</ele>
        <time>2019-10-29T16:13:54.000Z</time>
      </trkpt>
      <trkpt lat="37.1831676922738552093505859375" lon="-3.60213001258671283721923828125">
        <ele>684.4000244140625</ele>
        <time>2019-10-29T16:16:01.000Z</time>
      </trkpt>
      <trkpt lat="37.18307591043412685394287109375" lon="-3.602322377264499664306640625">
        <ele>684</ele>
        <time>2019-10-29T16:16:06.000Z</time>
      </trkpt>
      <trkpt lat="37.1829024888575077056884765625" lon="-3.602276779711246490478515625">
        <ele>684.5999755859375</ele>
        <time>2019-10-29T16:16:11.000Z</time>
      </trkpt>
      <trkpt lat="37.18286938033998012542724609375" lon="-3.6021344549953937530517578125">
        <ele>684.79998779296875</ele>
        <time>2019-10-29T16:16:17.000Z</time>
      </trkpt>
      <trkpt lat="37.18282562680542469024658203125" lon="-3.60200084745883941650390625">
        <ele>685</ele>
        <time>2019-10-29T16:16:22.000Z</time>
      </trkpt>
      <trkpt lat="37.1826875768601894378662109375" lon="-3.60178233124315738677978515625">
        <ele>687.4000244140625</ele>
        <time>2019-10-29T16:16:27.000Z</time>
      </trkpt>
      <trkpt lat="37.18257919885218143463134765625" lon="-3.6015906371176242828369140625">
        <ele>689.5999755859375</ele>
        <time>2019-10-29T16:16:31.000Z</time>
      </trkpt>
      <trkpt lat="37.1824671328067779541015625" lon="-3.601410090923309326171875">
        <ele>692</ele>
        <time>2019-10-29T16:16:35.000Z</time>
      </trkpt>
      <trkpt lat="37.1823398955166339874267578125" lon="-3.60123029910027980804443359375">
        <ele>694.20001220703125</ele>
        <time>2019-10-29T16:16:40.000Z</time>
      </trkpt>
      <trkpt lat="37.182167060673236846923828125" lon="-3.60114262439310550689697265625">
        <ele>695.79998779296875</ele>
        <time>2019-10-29T16:16:44.000Z</time>
      </trkpt>
      <trkpt lat="37.18197855167090892791748046875" lon="-3.60104002989828586578369140625">
        <ele>694.79998779296875</ele>
        <time>2019-10-29T16:16:48.000Z</time>
      </trkpt>
      <trkpt lat="37.18180119059979915618896484375" lon="-3.60092670656740665435791015625">
        <ele>693.79998779296875</ele>
        <time>2019-10-29T16:16:52.000Z</time>
      </trkpt>
      <trkpt lat="37.181709073483943939208984375" lon="-3.60088261775672435760498046875">
        <ele>693</ele>
        <time>2019-10-29T16:16:55.000Z</time>
      </trkpt>
      <trkpt lat="37.1816866099834442138671875" lon="-3.60087775625288486480712890625">
        <ele>692.79998779296875</ele>
        <time>2019-10-29T16:17:01.000Z</time>
      </trkpt>
      <trkpt lat="37.18157538212835788726806640625" lon="-3.60078538767993450164794921875">
        <ele>692</ele>
        <time>2019-10-29T16:17:36.000Z</time>
      </trkpt>
      <trkpt lat="37.1813877113163471221923828125" lon="-3.6006599105894565582275390625">
        <ele>692.5999755859375</ele>
        <time>2019-10-29T16:17:43.000Z</time>
      </trkpt>
      <trkpt lat="37.18119333498179912567138671875" lon="-3.60055237077176570892333984375">
        <ele>694.20001220703125</ele>
        <time>2019-10-29T16:17:49.000Z</time>
      </trkpt>
      <trkpt lat="37.18103759922087192535400390625" lon="-3.60043033026158809661865234375">
        <ele>696.4000244140625</ele>
        <time>2019-10-29T16:17:53.000Z</time>
      </trkpt>
      <trkpt lat="37.1808811090886592864990234375" lon="-3.60031549818813800811767578125">
        <ele>698</ele>
        <time>2019-10-29T16:17:57.000Z</time>
      </trkpt>
      <trkpt lat="37.1806889958679676055908203125" lon="-3.60020938329398632049560546875">
        <ele>698.20001220703125</ele>
        <time>2019-10-29T16:18:02.000Z</time>
      </trkpt>
      <trkpt lat="37.18047752045094966888427734375" lon="-3.6001321859657764434814453125">
        <ele>697</ele>
        <time>2019-10-29T16:18:07.000Z</time>
      </trkpt>
      <trkpt lat="37.1802628599107265472412109375" lon="-3.60000737942755222320556640625">
        <ele>695.4000244140625</ele>
        <time>2019-10-29T16:18:12.000Z</time>
      </trkpt>
      <trkpt lat="37.1800868399441242218017578125" lon="-3.59994032420217990875244140625">
        <ele>695.4000244140625</ele>
        <time>2019-10-29T16:18:15.000Z</time>
      </trkpt>
      <trkpt lat="37.1799000911414623260498046875" lon="-3.599851392209529876708984375">
        <ele>696</ele>
        <time>2019-10-29T16:18:19.000Z</time>
      </trkpt>
      <trkpt lat="37.17971543781459331512451171875" lon="-3.59977151267230510711669921875">
        <ele>696.5999755859375</ele>
        <time>2019-10-29T16:18:23.000Z</time>
      </trkpt>
      <trkpt lat="37.17958317138254642486572265625" lon="-3.59970428980886936187744140625">
        <ele>697.20001220703125</ele>
        <time>2019-10-29T16:18:26.000Z</time>
      </trkpt>
      <trkpt lat="37.17942106537520885467529296875" lon="-3.5995933972299098968505859375">
        <ele>697.5999755859375</ele>
        <time>2019-10-29T16:18:30.000Z</time>
      </trkpt>
      <trkpt lat="37.1793173812329769134521484375" lon="-3.59951485879719257354736328125">
        <ele>697.79998779296875</ele>
        <time>2019-10-29T16:18:34.000Z</time>
      </trkpt>
      <trkpt lat="37.1792456321418285369873046875" lon="-3.5994730331003665924072265625">
        <ele>697.5999755859375</ele>
        <time>2019-10-29T16:18:37.000Z</time>
      </trkpt>
      <trkpt lat="37.17915393412113189697265625" lon="-3.59940824098885059356689453125">
        <ele>697.5999755859375</ele>
        <time>2019-10-29T16:18:42.000Z</time>
      </trkpt>
      <trkpt lat="37.17913784086704254150390625" lon="-3.59939550049602985382080078125">
        <ele>697.5999755859375</ele>
        <time>2019-10-29T16:18:43.000Z</time>
      </trkpt>
      <trkpt lat="37.17897766269743442535400390625" lon="-3.59927345998585224151611328125">
        <ele>697.79998779296875</ele>
        <time>2019-10-29T16:18:50.000Z</time>
      </trkpt>
      <trkpt lat="37.1789475716650485992431640625" lon="-3.59925602562725543975830078125">
        <ele>697.5999755859375</ele>
        <time>2019-10-29T16:18:51.000Z</time>
      </trkpt>
      <trkpt lat="37.1787655167281627655029296875" lon="-3.5991689376533031463623046875">
        <ele>697.20001220703125</ele>
        <time>2019-10-29T16:18:57.000Z</time>
      </trkpt>
      <trkpt lat="37.17856460250914096832275390625" lon="-3.59906609170138835906982421875">
        <ele>697.20001220703125</ele>
        <time>2019-10-29T16:19:02.000Z</time>
      </trkpt>
      <trkpt lat="37.17835773713886737823486328125" lon="-3.5989473201334476470947265625">
        <ele>698.4000244140625</ele>
        <time>2019-10-29T16:19:05.000Z</time>
      </trkpt>
      <trkpt lat="37.178179956972599029541015625" lon="-3.5988497547805309295654296875">
        <ele>700.20001220703125</ele>
        <time>2019-10-29T16:19:08.000Z</time>
      </trkpt>
      <trkpt lat="37.17796412296593189239501953125" lon="-3.5987411253154277801513671875">
        <ele>702</ele>
        <time>2019-10-29T16:19:12.000Z</time>
      </trkpt>
      <trkpt lat="37.177761532366275787353515625" lon="-3.59862838871777057647705078125">
        <ele>702.79998779296875</ele>
        <time>2019-10-29T16:19:16.000Z</time>
      </trkpt>
      <trkpt lat="37.177581153810024261474609375" lon="-3.59850400127470493316650390625">
        <ele>701.79998779296875</ele>
        <time>2019-10-29T16:19:20.000Z</time>
      </trkpt>
      <trkpt lat="37.17738107778131961822509765625" lon="-3.598387241363525390625">
        <ele>703.5999755859375</ele>
        <time>2019-10-29T16:19:24.000Z</time>
      </trkpt>
      <trkpt lat="37.17718142084777355194091796875" lon="-3.598288334906101226806640625">
        <ele>702.5999755859375</ele>
        <time>2019-10-29T16:19:28.000Z</time>
      </trkpt>
      <trkpt lat="37.17700238339602947235107421875" lon="-3.59819839708507061004638671875">
        <ele>702.20001220703125</ele>
        <time>2019-10-29T16:19:32.000Z</time>
      </trkpt>
      <trkpt lat="37.17681731097400188446044921875" lon="-3.59809949062764644622802734375">
        <ele>699.79998779296875</ele>
        <time>2019-10-29T16:19:36.000Z</time>
      </trkpt>
      <trkpt lat="37.176707424223423004150390625" lon="-3.5980182699859142303466796875">
        <ele>699.20001220703125</ele>
        <time>2019-10-29T16:19:39.000Z</time>
      </trkpt>
      <trkpt lat="37.1766210906207561492919921875" lon="-3.59796370379626750946044921875">
        <ele>698.79998779296875</ele>
        <time>2019-10-29T16:19:41.000Z</time>
      </trkpt>
      <trkpt lat="37.17645160853862762451171875" lon="-3.5978606902062892913818359375">
        <ele>699</ele>
        <time>2019-10-29T16:19:46.000Z</time>
      </trkpt>
      <trkpt lat="37.1763589046895503997802734375" lon="-3.59780226834118366241455078125">
        <ele>699.79998779296875</ele>
        <time>2019-10-29T16:19:50.000Z</time>
      </trkpt>
      <trkpt lat="37.1762610040605068206787109375" lon="-3.597754575312137603759765625">
        <ele>700.4000244140625</ele>
        <time>2019-10-29T16:20:03.000Z</time>
      </trkpt>
      <trkpt lat="37.17614114284515380859375" lon="-3.59776790253818035125732421875">
        <ele>700.79998779296875</ele>
        <time>2019-10-29T16:20:15.000Z</time>
      </trkpt>
      <trkpt lat="37.175978533923625946044921875" lon="-3.59759406186640262603759765625">
        <ele>702</ele>
        <time>2019-10-29T16:20:21.000Z</time>
      </trkpt>
      <trkpt lat="37.175786085426807403564453125" lon="-3.59763287007808685302734375">
        <ele>702.4000244140625</ele>
        <time>2019-10-29T16:20:25.000Z</time>
      </trkpt>
      <trkpt lat="37.17569195665419101715087890625" lon="-3.59773202799260616302490234375">
        <ele>702.4000244140625</ele>
        <time>2019-10-29T16:20:28.000Z</time>
      </trkpt>
      <trkpt lat="37.1755927987396717071533203125" lon="-3.5979438386857509613037109375">
        <ele>701.4000244140625</ele>
        <time>2019-10-29T16:20:32.000Z</time>
      </trkpt>
      <trkpt lat="37.17543714679777622222900390625" lon="-3.59815590083599090576171875">
        <ele>699.4000244140625</ele>
        <time>2019-10-29T16:20:36.000Z</time>
      </trkpt>
      <trkpt lat="37.17525676824152469635009765625" lon="-3.5983461700379848480224609375">
        <ele>696</ele>
        <time>2019-10-29T16:20:40.000Z</time>
      </trkpt>
      <trkpt lat="37.17507161200046539306640625" lon="-3.59849293716251850128173828125">
        <ele>693.79998779296875</ele>
        <time>2019-10-29T16:20:44.000Z</time>
      </trkpt>
      <trkpt lat="37.17490606941282749176025390625" lon="-3.5986138880252838134765625">
        <ele>692</ele>
        <time>2019-10-29T16:20:48.000Z</time>
      </trkpt>
      <trkpt lat="37.17471378855407238006591796875" lon="-3.598741628229618072509765625">
        <ele>690.20001220703125</ele>
        <time>2019-10-29T16:20:53.000Z</time>
      </trkpt>
      <trkpt lat="37.17453676275908946990966796875" lon="-3.5988859646022319793701171875">
        <ele>689.79998779296875</ele>
        <time>2019-10-29T16:20:58.000Z</time>
      </trkpt>
      <trkpt lat="37.1744065918028354644775390625" lon="-3.59897741116583347320556640625">
        <ele>690.5999755859375</ele>
        <time>2019-10-29T16:21:02.000Z</time>
      </trkpt>
      <trkpt lat="37.1743770875036716461181640625" lon="-3.5990073345601558685302734375">
        <ele>691</ele>
        <time>2019-10-29T16:21:06.000Z</time>
      </trkpt>
      <trkpt lat="37.17437851242721080780029296875" lon="-3.59900322742760181427001953125">
        <ele>691</ele>
        <time>2019-10-29T16:21:07.000Z</time>
      </trkpt>
      <trkpt lat="37.174378931522369384765625" lon="-3.5989949293434619903564453125">
        <ele>690.79998779296875</ele>
        <time>2019-10-29T16:21:09.000Z</time>
      </trkpt>
      <trkpt lat="37.1740947850048542022705078125" lon="-3.59912795014679431915283203125">
        <ele>692.5999755859375</ele>
        <time>2019-10-29T16:22:24.000Z</time>
      </trkpt>
      <trkpt lat="37.1739539690315723419189453125" lon="-3.599275387823581695556640625">
        <ele>692.79998779296875</ele>
        <time>2019-10-29T16:22:29.000Z</time>
      </trkpt>
      <trkpt lat="37.17379848472774028778076171875" lon="-3.599387370049953460693359375">
        <ele>692.4000244140625</ele>
        <time>2019-10-29T16:22:36.000Z</time>
      </trkpt>
      <trkpt lat="37.17379177920520305633544921875" lon="-3.59939700923860073089599609375">
        <ele>692.20001220703125</ele>
        <time>2019-10-29T16:22:37.000Z</time>
      </trkpt>
      <trkpt lat="37.17375473119318485260009765625" lon="-3.59940991736948490142822265625">
        <ele>692.20001220703125</ele>
        <time>2019-10-29T16:22:40.000Z</time>
      </trkpt>
      <trkpt lat="37.17369840480387210845947265625" lon="-3.5993850231170654296875">
        <ele>692.4000244140625</ele>
        <time>2019-10-29T16:22:49.000Z</time>
      </trkpt>
      <trkpt lat="37.17365079559385776519775390625" lon="-3.59934537671506404876708984375">
        <ele>692.4000244140625</ele>
        <time>2019-10-29T16:22:54.000Z</time>
      </trkpt>
      <trkpt lat="37.17363797128200531005859375" lon="-3.59934009611606597900390625">
        <ele>692.4000244140625</ele>
        <time>2019-10-29T16:22:58.000Z</time>
      </trkpt>
      <trkpt lat="37.17367895878851413726806640625" lon="-3.5992936603724956512451171875">
        <ele>692.5999755859375</ele>
        <time>2019-10-29T16:23:09.000Z</time>
      </trkpt>
      <trkpt lat="37.1736991591751575469970703125" lon="-3.59928200952708721160888671875">
        <ele>692.5999755859375</ele>
        <time>2019-10-29T16:23:13.000Z</time>
      </trkpt>
      <trkpt lat="37.17372673563659191131591796875" lon="-3.5992822609841823577880859375">
        <ele>692.5999755859375</ele>
        <time>2019-10-29T16:23:17.000Z</time>
      </trkpt>
      <trkpt lat="37.17372623272240161895751953125" lon="-3.59926759265363216400146484375">
        <ele>692.79998779296875</ele>
        <time>2019-10-29T16:23:20.000Z</time>
      </trkpt>
      <trkpt lat="37.174327634274959564208984375" lon="-3.599287457764148712158203125">
        <ele>693.4000244140625</ele>
        <time>2019-10-31T07:22:11.000Z</time>
      </trkpt>
      <trkpt lat="37.17423132620751857757568359375" lon="-3.5993295349180698394775390625">
        <ele>693.4000244140625</ele>
        <time>2019-10-31T07:22:12.000Z</time>
      </trkpt>
      <trkpt lat="37.17384743504226207733154296875" lon="-3.59951351769268512725830078125">
        <ele>692.4000244140625</ele>
        <time>2019-10-31T07:22:21.000Z</time>
      </trkpt>
      <trkpt lat="37.17417080886662006378173828125" lon="-3.59923305921256542205810546875">
        <ele>693.20001220703125</ele>
        <time>2019-10-31T07:22:22.000Z</time>
      </trkpt>
      <trkpt lat="37.17430793680250644683837890625" lon="-3.59910632483661174774169921875">
        <ele>692</ele>
        <time>2019-10-31T07:22:26.000Z</time>
      </trkpt>
      <trkpt lat="37.17420835979282855987548828125" lon="-3.59913247637450695037841796875">
        <ele>692.4000244140625</ele>
        <time>2019-10-31T07:22:33.000Z</time>
      </trkpt>
      <trkpt lat="37.17408799566328525543212890625" lon="-3.59929994679987430572509765625">
        <ele>693.4000244140625</ele>
        <time>2019-10-31T07:22:37.000Z</time>
      </trkpt>
      <trkpt lat="37.17408179305493831634521484375" lon="-3.59930480830371379852294921875">
        <ele>693.4000244140625</ele>
        <time>2019-10-31T07:22:38.000Z</time>
      </trkpt>
      <trkpt lat="37.174080200493335723876953125" lon="-3.59932006336748600006103515625">
        <ele>693.4000244140625</ele>
        <time>2019-10-31T07:22:42.000Z</time>
      </trkpt>
      <trkpt lat="37.1739864908158779144287109375" lon="-3.5992732085287570953369140625">
        <ele>692.79998779296875</ele>
        <time>2019-10-31T07:24:26.000Z</time>
      </trkpt>
      <trkpt lat="37.17383134178817272186279296875" lon="-3.5994187183678150177001953125">
        <ele>692.20001220703125</ele>
        <time>2019-10-31T07:24:35.000Z</time>
      </trkpt>
      <trkpt lat="37.173819355666637420654296875" lon="-3.59943623654544353485107421875">
        <ele>692.20001220703125</ele>
        <time>2019-10-31T07:24:38.000Z</time>
      </trkpt>
      <trkpt lat="37.17378088273108005523681640625" lon="-3.59945551492273807525634765625">
        <ele>692</ele>
        <time>2019-10-31T07:24:41.000Z</time>
      </trkpt>
      <trkpt lat="37.17377887107431888580322265625" lon="-3.59946171753108501434326171875">
        <ele>692</ele>
        <time>2019-10-31T07:24:42.000Z</time>
      </trkpt>
      <trkpt lat="37.17376512475311756134033203125" lon="-3.59946909360587596893310546875">
        <ele>692</ele>
        <time>2019-10-31T07:24:46.000Z</time>
      </trkpt>
      <trkpt lat="37.17369086109101772308349609375" lon="-3.5995370708405971527099609375">
        <ele>691.5999755859375</ele>
        <time>2019-10-31T07:24:50.000Z</time>
      </trkpt>
      <trkpt lat="37.17355205677449703216552734375" lon="-3.59969808720052242279052734375">
        <ele>690.4000244140625</ele>
        <time>2019-10-31T07:24:55.000Z</time>
      </trkpt>
      <trkpt lat="37.17343010008335113525390625" lon="-3.59992749989032745361328125">
        <ele>690.4000244140625</ele>
        <time>2019-10-31T07:25:01.000Z</time>
      </trkpt>
      <trkpt lat="37.17329875566065311431884765625" lon="-3.60008650459349155426025390625">
        <ele>690.5999755859375</ele>
        <time>2019-10-31T07:25:05.000Z</time>
      </trkpt>
      <trkpt lat="37.173150144517421722412109375" lon="-3.60023989342153072357177734375">
        <ele>691.5999755859375</ele>
        <time>2019-10-31T07:25:09.000Z</time>
      </trkpt>
      <trkpt lat="37.172981835901737213134765625" lon="-3.60038624145090579986572265625">
        <ele>692.79998779296875</ele>
        <time>2019-10-31T07:25:13.000Z</time>
      </trkpt>
      <trkpt lat="37.17284764163196086883544921875" lon="-3.600554801523685455322265625">
        <ele>694.20001220703125</ele>
        <time>2019-10-31T07:25:17.000Z</time>
      </trkpt>
      <trkpt lat="37.17273096553981304168701171875" lon="-3.60080466605722904205322265625">
        <ele>695</ele>
        <time>2019-10-31T07:25:21.000Z</time>
      </trkpt>
      <trkpt lat="37.17263222672045230865478515625" lon="-3.60101513564586639404296875">
        <ele>694.79998779296875</ele>
        <time>2019-10-31T07:25:24.000Z</time>
      </trkpt>
      <trkpt lat="37.17252510599792003631591796875" lon="-3.60123650170862674713134765625">
        <ele>693.5999755859375</ele>
        <time>2019-10-31T07:25:27.000Z</time>
      </trkpt>
      <trkpt lat="37.1724133752286434173583984375" lon="-3.60147052444517612457275390625">
        <ele>691.79998779296875</ele>
        <time>2019-10-31T07:25:30.000Z</time>
      </trkpt>
      <trkpt lat="37.1723084338009357452392578125" lon="-3.60170806758105754852294921875">
        <ele>690.5999755859375</ele>
        <time>2019-10-31T07:25:33.000Z</time>
      </trkpt>
      <trkpt lat="37.1721998043358325958251953125" lon="-3.60193320550024509429931640625">
        <ele>689.20001220703125</ele>
        <time>2019-10-31T07:25:36.000Z</time>
      </trkpt>
      <trkpt lat="37.17210299335420131683349609375" lon="-3.6021502129733562469482421875">
        <ele>688.4000244140625</ele>
        <time>2019-10-31T07:25:39.000Z</time>
      </trkpt>
      <trkpt lat="37.172000147402286529541015625" lon="-3.6023577488958835601806640625">
        <ele>688</ele>
        <time>2019-10-31T07:25:42.000Z</time>
      </trkpt>
      <trkpt lat="37.171930409967899322509765625" lon="-3.60260032117366790771484375">
        <ele>687.20001220703125</ele>
        <time>2019-10-31T07:25:45.000Z</time>
      </trkpt>
      <trkpt lat="37.17191104777157306671142578125" lon="-3.6026722379028797149658203125">
        <ele>686.79998779296875</ele>
        <time>2019-10-31T07:25:46.000Z</time>
      </trkpt>
      <trkpt lat="37.1718068607151508331298828125" lon="-3.6028663627803325653076171875">
        <ele>686</ele>
        <time>2019-10-31T07:25:49.000Z</time>
      </trkpt>
      <trkpt lat="37.17167400754988193511962890625" lon="-3.603107929229736328125">
        <ele>685.5999755859375</ele>
        <time>2019-10-31T07:25:53.000Z</time>
      </trkpt>
      <trkpt lat="37.171525396406650543212890625" lon="-3.60331454314291477203369140625">
        <ele>686.4000244140625</ele>
        <time>2019-10-31T07:25:57.000Z</time>
      </trkpt>
      <trkpt lat="37.17137695290148258209228515625" lon="-3.60350514762103557586669921875">
        <ele>688</ele>
        <time>2019-10-31T07:26:01.000Z</time>
      </trkpt>
      <trkpt lat="37.1712321974337100982666015625" lon="-3.6037250049412250518798828125">
        <ele>688.79998779296875</ele>
        <time>2019-10-31T07:26:05.000Z</time>
      </trkpt>
      <trkpt lat="37.17114209197461605072021484375" lon="-3.6039836704730987548828125">
        <ele>688</ele>
        <time>2019-10-31T07:26:10.000Z</time>
      </trkpt>
      <trkpt lat="37.17105659656226634979248046875" lon="-3.604200594127178192138671875">
        <ele>686</ele>
        <time>2019-10-31T07:26:14.000Z</time>
      </trkpt>
      <trkpt lat="37.1709706820547580718994140625" lon="-3.60442246310412883758544921875">
        <ele>683.20001220703125</ele>
        <time>2019-10-31T07:26:18.000Z</time>
      </trkpt>
      <trkpt lat="37.170868925750255584716796875" lon="-3.60468842089176177978515625">
        <ele>682</ele>
        <time>2019-10-31T07:26:23.000Z</time>
      </trkpt>
      <trkpt lat="37.17077261768281459808349609375" lon="-3.60475438646972179412841796875">
        <ele>681.20001220703125</ele>
        <time>2019-10-31T07:26:25.000Z</time>
      </trkpt>
      <trkpt lat="37.1707131899893283843994140625" lon="-3.6049997247755527496337890625">
        <ele>681.5999755859375</ele>
        <time>2019-10-31T07:26:29.000Z</time>
      </trkpt>
      <trkpt lat="37.17062191106379032135009765625" lon="-3.6050637625157833099365234375">
        <ele>681</ele>
        <time>2019-10-31T07:26:31.000Z</time>
      </trkpt>
      <trkpt lat="37.17052585445344448089599609375" lon="-3.60517733730375766754150390625">
        <ele>680.79998779296875</ele>
        <time>2019-10-31T07:26:34.000Z</time>
      </trkpt>
      <trkpt lat="37.17046617530286312103271484375" lon="-3.60527641139924526214599609375">
        <ele>680.79998779296875</ele>
        <time>2019-10-31T07:26:38.000Z</time>
      </trkpt>
      <trkpt lat="37.1703759022057056427001953125" lon="-3.6053936742246150970458984375">
        <ele>681</ele>
        <time>2019-10-31T07:26:54.000Z</time>
      </trkpt>
      <trkpt lat="37.17031530104577541351318359375" lon="-3.60560380853712558746337890625">
        <ele>681</ele>
        <time>2019-10-31T07:27:37.000Z</time>
      </trkpt>
      <trkpt lat="37.17022913508117198944091796875" lon="-3.6058154515922069549560546875">
        <ele>681</ele>
        <time>2019-10-31T07:27:42.000Z</time>
      </trkpt>
      <trkpt lat="37.1701370179653167724609375" lon="-3.605970181524753570556640625">
        <ele>680.5999755859375</ele>
        <time>2019-10-31T07:27:48.000Z</time>
      </trkpt>
      <trkpt lat="37.16999955475330352783203125" lon="-3.606029860675334930419921875">
        <ele>681</ele>
        <time>2019-10-31T07:27:53.000Z</time>
      </trkpt>
      <trkpt lat="37.16997231356799602508544921875" lon="-3.60600530169904232025146484375">
        <ele>681</ele>
        <time>2019-10-31T07:27:57.000Z</time>
      </trkpt>
      <trkpt lat="37.169960327446460723876953125" lon="-3.60599239356815814971923828125">
        <ele>681</ele>
        <time>2019-10-31T07:27:59.000Z</time>
      </trkpt>
      <trkpt lat="37.16993794776499271392822265625" lon="-3.60590941272675991058349609375">
        <ele>681</ele>
        <time>2019-10-31T07:28:03.000Z</time>
      </trkpt>
      <trkpt lat="37.16980375349521636962890625" lon="-3.60571612603962421417236328125">
        <ele>679.79998779296875</ele>
        <time>2019-10-31T07:28:12.000Z</time>
      </trkpt>
      <trkpt lat="37.16964994557201862335205078125" lon="-3.60557229258120059967041015625">
        <ele>679</ele>
        <time>2019-10-31T07:28:20.000Z</time>
      </trkpt>
      <trkpt lat="37.16949270106852054595947265625" lon="-3.605461232364177703857421875">
        <ele>678.5999755859375</ele>
        <time>2019-10-31T07:28:30.000Z</time>
      </trkpt>
      <trkpt lat="37.1693073771893978118896484375" lon="-3.6053467355668544769287109375">
        <ele>678.79998779296875</ele>
        <time>2019-10-31T07:28:37.000Z</time>
      </trkpt>
      <trkpt lat="37.169127501547336578369140625" lon="-3.60528118908405303955078125">
        <ele>676.4000244140625</ele>
        <time>2019-10-31T07:28:41.000Z</time>
      </trkpt>
      <trkpt lat="37.1689254976809024810791015625" lon="-3.60515152104198932647705078125">
        <ele>675.4000244140625</ele>
        <time>2019-10-31T07:28:46.000Z</time>
      </trkpt>
      <trkpt lat="37.1687417663633823394775390625" lon="-3.6050500161945819854736328125">
        <ele>674.4000244140625</ele>
        <time>2019-10-31T07:28:49.000Z</time>
      </trkpt>
      <trkpt lat="37.16857655905187129974365234375" lon="-3.6049420572817325592041015625">
        <ele>675.4000244140625</ele>
        <time>2019-10-31T07:28:52.000Z</time>
      </trkpt>
      <trkpt lat="37.16838746331632137298583984375" lon="-3.60484910197556018829345703125">
        <ele>676.4000244140625</ele>
        <time>2019-10-31T07:28:56.000Z</time>
      </trkpt>
      <trkpt lat="37.16831353493034839630126953125" lon="-3.6048015765845775604248046875">
        <ele>677.20001220703125</ele>
        <time>2019-10-31T07:28:58.000Z</time>
      </trkpt>
      <trkpt lat="37.16822602786123752593994140625" lon="-3.60477131791412830352783203125">
        <ele>678</ele>
        <time>2019-10-31T07:29:00.000Z</time>
      </trkpt>
      <trkpt lat="37.168014384806156158447265625" lon="-3.60465313307940959930419921875">
        <ele>678</ele>
        <time>2019-10-31T07:29:04.000Z</time>
      </trkpt>
      <trkpt lat="37.1678142249584197998046875" lon="-3.60452421940863132476806640625">
        <ele>678.20001220703125</ele>
        <time>2019-10-31T07:29:08.000Z</time>
      </trkpt>
      <trkpt lat="37.16761549003422260284423828125" lon="-3.60441357828676700592041015625">
        <ele>678.20001220703125</ele>
        <time>2019-10-31T07:29:12.000Z</time>
      </trkpt>
      <trkpt lat="37.167451791465282440185546875" lon="-3.60429950058460235595703125">
        <ele>678.4000244140625</ele>
        <time>2019-10-31T07:29:15.000Z</time>
      </trkpt>
      <trkpt lat="37.167297564446926116943359375" lon="-3.6041752807796001434326171875">
        <ele>679.4000244140625</ele>
        <time>2019-10-31T07:29:18.000Z</time>
      </trkpt>
      <trkpt lat="37.16711190529167652130126953125" lon="-3.6040200479328632354736328125">
        <ele>680.5999755859375</ele>
        <time>2019-10-31T07:29:22.000Z</time>
      </trkpt>
      <trkpt lat="37.16694510541856288909912109375" lon="-3.6038705147802829742431640625">
        <ele>679.79998779296875</ele>
        <time>2019-10-31T07:29:26.000Z</time>
      </trkpt>
      <trkpt lat="37.16678232885897159576416015625" lon="-3.6037243343889713287353515625">
        <ele>678.5999755859375</ele>
        <time>2019-10-31T07:29:30.000Z</time>
      </trkpt>
      <trkpt lat="37.1666295267641544342041015625" lon="-3.6036472208797931671142578125">
        <ele>678.4000244140625</ele>
        <time>2019-10-31T07:29:33.000Z</time>
      </trkpt>
      <trkpt lat="37.16645635664463043212890625" lon="-3.60355527140200138092041015625">
        <ele>677</ele>
        <time>2019-10-31T07:29:37.000Z</time>
      </trkpt>
      <trkpt lat="37.1663683466613292694091796875" lon="-3.6034876294434070587158203125">
        <ele>676.5999755859375</ele>
        <time>2019-10-31T07:29:41.000Z</time>
      </trkpt>
      <trkpt lat="37.166342698037624359130859375" lon="-3.60346667468547821044921875">
        <ele>676.5999755859375</ele>
        <time>2019-10-31T07:29:48.000Z</time>
      </trkpt>
      <trkpt lat="37.16646398417651653289794921875" lon="-3.603305406868457794189453125">
        <ele>678.20001220703125</ele>
        <time>2019-10-31T07:30:11.000Z</time>
      </trkpt>
      <trkpt lat="37.16623515821993350982666015625" lon="-3.60322318039834499359130859375">
        <ele>676.5999755859375</ele>
        <time>2019-10-31T07:30:19.000Z</time>
      </trkpt>
      <trkpt lat="37.1660065837204456329345703125" lon="-3.60329903662204742431640625">
        <ele>673</ele>
        <time>2019-10-31T07:30:22.000Z</time>
      </trkpt>
      <trkpt lat="37.1658225171267986297607421875" lon="-3.6034534312784671783447265625">
        <ele>670.5999755859375</ele>
        <time>2019-10-31T07:30:27.000Z</time>
      </trkpt>
      <trkpt lat="37.16578974388539791107177734375" lon="-3.60349844209849834442138671875">
        <ele>670</ele>
        <time>2019-10-31T07:30:28.000Z</time>
      </trkpt>
      <trkpt lat="37.1656954474747180938720703125" lon="-3.60373196192085742950439453125">
        <ele>668.5999755859375</ele>
        <time>2019-10-31T07:30:33.000Z</time>
      </trkpt>
      <trkpt lat="37.16562210582196712493896484375" lon="-3.603958524763584136962890625">
        <ele>668</ele>
        <time>2019-10-31T07:30:39.000Z</time>
      </trkpt>
      <trkpt lat="37.16551062650978565216064453125" lon="-3.6041772924363613128662109375">
        <ele>666.4000244140625</ele>
        <time>2019-10-31T07:30:46.000Z</time>
      </trkpt>
      <trkpt lat="37.16544474475085735321044921875" lon="-3.60438809730112552642822265625">
        <ele>666.5999755859375</ele>
        <time>2019-10-31T07:30:58.000Z</time>
      </trkpt>
      <trkpt lat="37.1654030866920948028564453125" lon="-3.6045313440263271331787109375">
        <ele>667</ele>
        <time>2019-10-31T07:31:33.000Z</time>
      </trkpt>
      <trkpt lat="37.16529856435954570770263671875" lon="-3.6047315038740634918212890625">
        <ele>667.5999755859375</ele>
        <time>2019-10-31T07:31:38.000Z</time>
      </trkpt>
      <trkpt lat="37.1651814691722393035888671875" lon="-3.60496041364967823028564453125">
        <ele>667.79998779296875</ele>
        <time>2019-10-31T07:31:43.000Z</time>
      </trkpt>
      <trkpt lat="37.165063954889774322509765625" lon="-3.6051931791007518768310546875">
        <ele>668.20001220703125</ele>
        <time>2019-10-31T07:31:48.000Z</time>
      </trkpt>
      <trkpt lat="37.16493914835155010223388671875" lon="-3.60537967644631862640380859375">
        <ele>668.4000244140625</ele>
        <time>2019-10-31T07:31:52.000Z</time>
      </trkpt>
      <trkpt lat="37.164839990437030792236328125" lon="-3.6056010425090789794921875">
        <ele>668.20001220703125</ele>
        <time>2019-10-31T07:31:56.000Z</time>
      </trkpt>
      <trkpt lat="37.16476178728044033050537109375" lon="-3.60582157038152217864990234375">
        <ele>666.79998779296875</ele>
        <time>2019-10-31T07:32:00.000Z</time>
      </trkpt>
      <trkpt lat="37.16464175842702388763427734375" lon="-3.60602055676281452178955078125">
        <ele>665.4000244140625</ele>
        <time>2019-10-31T07:32:04.000Z</time>
      </trkpt>
      <trkpt lat="37.16451938264071941375732421875" lon="-3.606265895068645477294921875">
        <ele>665.4000244140625</ele>
        <time>2019-10-31T07:32:08.000Z</time>
      </trkpt>
      <trkpt lat="37.16441259719431400299072265625" lon="-3.60651190392673015594482421875">
        <ele>665.5999755859375</ele>
        <time>2019-10-31T07:32:12.000Z</time>
      </trkpt>
      <trkpt lat="37.1643097512423992156982421875" lon="-3.60675900243222713470458984375">
        <ele>664.5999755859375</ele>
        <time>2019-10-31T07:32:16.000Z</time>
      </trkpt>
      <trkpt lat="37.164186872541904449462890625" lon="-3.60698573291301727294921875">
        <ele>663</ele>
        <time>2019-10-31T07:32:20.000Z</time>
      </trkpt>
      <trkpt lat="37.164121158421039581298828125" lon="-3.60710416920483112335205078125">
        <ele>662.5999755859375</ele>
        <time>2019-10-31T07:32:22.000Z</time>
      </trkpt>
      <trkpt lat="37.16401311568915843963623046875" lon="-3.6073158122599124908447265625">
        <ele>662</ele>
        <time>2019-10-31T07:32:26.000Z</time>
      </trkpt>
      <trkpt lat="37.1639178134500980377197265625" lon="-3.607550002634525299072265625">
        <ele>662</ele>
        <time>2019-10-31T07:32:30.000Z</time>
      </trkpt>
      <trkpt lat="37.163821421563625335693359375" lon="-3.6077749729156494140625">
        <ele>661.20001220703125</ele>
        <time>2019-10-31T07:32:34.000Z</time>
      </trkpt>
      <trkpt lat="37.16373885981738567352294921875" lon="-3.607983179390430450439453125">
        <ele>660.79998779296875</ele>
        <time>2019-10-31T07:32:38.000Z</time>
      </trkpt>
      <trkpt lat="37.16365277767181396484375" lon="-3.60819230787456035614013671875">
        <ele>660.79998779296875</ele>
        <time>2019-10-31T07:32:43.000Z</time>
      </trkpt>
      <trkpt lat="37.16358647681772708892822265625" lon="-3.6083585210144519805908203125">
        <ele>661</ele>
        <time>2019-10-31T07:32:49.000Z</time>
      </trkpt>
      <trkpt lat="37.16357273049652576446533203125" lon="-3.60838961787521839141845703125">
        <ele>661</ele>
        <time>2019-10-31T07:32:51.000Z</time>
      </trkpt>
      <trkpt lat="37.16356770135462284088134765625" lon="-3.60840252600610256195068359375">
        <ele>660.79998779296875</ele>
        <time>2019-10-31T07:32:53.000Z</time>
      </trkpt>
      <trkpt lat="37.16356367804110050201416015625" lon="-3.6084118299186229705810546875">
        <ele>660.79998779296875</ele>
        <time>2019-10-31T07:32:56.000Z</time>
      </trkpt>
      <trkpt lat="37.16354615986347198486328125" lon="-3.608483411371707916259765625">
        <ele>660.5999755859375</ele>
        <time>2019-10-31T07:33:31.000Z</time>
      </trkpt>
      <trkpt lat="37.1634631790220737457275390625" lon="-3.60871315933763980865478515625">
        <ele>659.79998779296875</ele>
        <time>2019-10-31T07:33:38.000Z</time>
      </trkpt>
      <trkpt lat="37.1633669547736644744873046875" lon="-3.60888733528554439544677734375">
        <ele>659.20001220703125</ele>
        <time>2019-10-31T07:33:42.000Z</time>
      </trkpt>
      <trkpt lat="37.16326897032558917999267578125" lon="-3.60908850096166133880615234375">
        <ele>659</ele>
        <time>2019-10-31T07:33:46.000Z</time>
      </trkpt>
      <trkpt lat="37.16316503472626209259033203125" lon="-3.609286062419414520263671875">
        <ele>657.79998779296875</ele>
        <time>2019-10-31T07:33:50.000Z</time>
      </trkpt>
      <trkpt lat="37.16305037029087543487548828125" lon="-3.60950491391122341156005859375">
        <ele>655.20001220703125</ele>
        <time>2019-10-31T07:33:54.000Z</time>
      </trkpt>
      <trkpt lat="37.1629552356898784637451171875" lon="-3.60973097383975982666015625">
        <ele>654</ele>
        <time>2019-10-31T07:33:58.000Z</time>
      </trkpt>
      <trkpt lat="37.1628643758594989776611328125" lon="-3.60996122471988201141357421875">
        <ele>654.79998779296875</ele>
        <time>2019-10-31T07:34:02.000Z</time>
      </trkpt>
      <trkpt lat="37.16276186518371105194091796875" lon="-3.61017487943172454833984375">
        <ele>656</ele>
        <time>2019-10-31T07:34:06.000Z</time>
      </trkpt>
      <trkpt lat="37.16266714967787265777587890625" lon="-3.61041870899498462677001953125">
        <ele>656.79998779296875</ele>
        <time>2019-10-31T07:34:11.000Z</time>
      </trkpt>
      <trkpt lat="37.16265692375600337982177734375" lon="-3.61046531237661838531494140625">
        <ele>656.79998779296875</ele>
        <time>2019-10-31T07:34:12.000Z</time>
      </trkpt>
      <trkpt lat="37.1626273356378078460693359375" lon="-3.6106457747519016265869140625">
        <ele>656.4000244140625</ele>
        <time>2019-10-31T07:34:16.000Z</time>
      </trkpt>
      <trkpt lat="37.1625974960625171661376953125" lon="-3.61091785132884979248046875">
        <ele>654.4000244140625</ele>
        <time>2019-10-31T07:34:21.000Z</time>
      </trkpt>
      <trkpt lat="37.1625901199877262115478515625" lon="-3.61097157932817935943603515625">
        <ele>653.79998779296875</ele>
        <time>2019-10-31T07:34:22.000Z</time>
      </trkpt>
      <trkpt lat="37.1625666506588459014892578125" lon="-3.611078448593616485595703125">
        <ele>653</ele>
        <time>2019-10-31T07:34:24.000Z</time>
      </trkpt>
      <trkpt lat="37.16254091821610927581787109375" lon="-3.61123309470713138580322265625">
        <ele>651.5999755859375</ele>
        <time>2019-10-31T07:34:27.000Z</time>
      </trkpt>
      <trkpt lat="37.16248408891260623931884765625" lon="-3.61146032810211181640625">
        <ele>648.5999755859375</ele>
        <time>2019-10-31T07:34:32.000Z</time>
      </trkpt>
      <trkpt lat="37.16242625378072261810302734375" lon="-3.61167750321328639984130859375">
        <ele>648</ele>
        <time>2019-10-31T07:34:37.000Z</time>
      </trkpt>
      <trkpt lat="37.16240596957504749298095703125" lon="-3.61177171580493450164794921875">
        <ele>647.79998779296875</ele>
        <time>2019-10-31T07:34:39.000Z</time>
      </trkpt>
      <trkpt lat="37.16234679333865642547607421875" lon="-3.61200842075049877166748046875">
        <ele>647.5999755859375</ele>
        <time>2019-10-31T07:34:44.000Z</time>
      </trkpt>
      <trkpt lat="37.16229222714900970458984375" lon="-3.61227915622293949127197265625">
        <ele>648.4000244140625</ele>
        <time>2019-10-31T07:34:49.000Z</time>
      </trkpt>
      <trkpt lat="37.16223724186420440673828125" lon="-3.61249993555247783660888671875">
        <ele>648.79998779296875</ele>
        <time>2019-10-31T07:34:53.000Z</time>
      </trkpt>
      <trkpt lat="37.1621703542768955230712890625" lon="-3.6127204634249210357666015625">
        <ele>648.4000244140625</ele>
        <time>2019-10-31T07:34:57.000Z</time>
      </trkpt>
      <trkpt lat="37.16210405342280864715576171875" lon="-3.61294015310704708099365234375">
        <ele>648</ele>
        <time>2019-10-31T07:35:01.000Z</time>
      </trkpt>
      <trkpt lat="37.162027023732662200927734375" lon="-3.6132062785327434539794921875">
        <ele>648.4000244140625</ele>
        <time>2019-10-31T07:35:06.000Z</time>
      </trkpt>
      <trkpt lat="37.16196323744952678680419921875" lon="-3.61347265541553497314453125">
        <ele>649.4000244140625</ele>
        <time>2019-10-31T07:35:11.000Z</time>
      </trkpt>
      <trkpt lat="37.16191411949694156646728515625" lon="-3.6136957816779613494873046875">
        <ele>649.79998779296875</ele>
        <time>2019-10-31T07:35:15.000Z</time>
      </trkpt>
      <trkpt lat="37.161857374012470245361328125" lon="-3.61391429789364337921142578125">
        <ele>649</ele>
        <time>2019-10-31T07:35:19.000Z</time>
      </trkpt>
      <trkpt lat="37.1618049032986164093017578125" lon="-3.61414127983152866363525390625">
        <ele>649.20001220703125</ele>
        <time>2019-10-31T07:35:23.000Z</time>
      </trkpt>
      <trkpt lat="37.16175871901214122772216796875" lon="-3.6143693514168262481689453125">
        <ele>650</ele>
        <time>2019-10-31T07:35:27.000Z</time>
      </trkpt>
      <trkpt lat="37.16170876286923885345458984375" lon="-3.614609241485595703125">
        <ele>651.4000244140625</ele>
        <time>2019-10-31T07:35:31.000Z</time>
      </trkpt>
      <trkpt lat="37.16166551224887371063232421875" lon="-3.6148487962782382965087890625">
        <ele>651.5999755859375</ele>
        <time>2019-10-31T07:35:35.000Z</time>
      </trkpt>
      <trkpt lat="37.16163366101682186126708984375" lon="-3.61509882844984531402587890625">
        <ele>649.79998779296875</ele>
        <time>2019-10-31T07:35:39.000Z</time>
      </trkpt>
      <trkpt lat="37.16161656193435192108154296875" lon="-3.61535422503948211669921875">
        <ele>648</ele>
        <time>2019-10-31T07:35:43.000Z</time>
      </trkpt>
      <trkpt lat="37.16161094605922698974609375" lon="-3.6156128905713558197021484375">
        <ele>648</ele>
        <time>2019-10-31T07:35:47.000Z</time>
      </trkpt>
      <trkpt lat="37.16160248033702373504638671875" lon="-3.61586409620940685272216796875">
        <ele>648.20001220703125</ele>
        <time>2019-10-31T07:35:51.000Z</time>
      </trkpt>
      <trkpt lat="37.16160616837441921234130859375" lon="-3.6161362566053867340087890625">
        <ele>649</ele>
        <time>2019-10-31T07:35:55.000Z</time>
      </trkpt>
      <trkpt lat="37.1616070903837680816650390625" lon="-3.61640959046781063079833984375">
        <ele>647.79998779296875</ele>
        <time>2019-10-31T07:35:59.000Z</time>
      </trkpt>
      <trkpt lat="37.16160968877375125885009765625" lon="-3.61668837256729602813720703125">
        <ele>646</ele>
        <time>2019-10-31T07:36:03.000Z</time>
      </trkpt>
      <trkpt lat="37.16163299046456813812255859375" lon="-3.61693547107279300689697265625">
        <ele>645</ele>
        <time>2019-10-31T07:36:07.000Z</time>
      </trkpt>
      <trkpt lat="37.1616531908512115478515625" lon="-3.6171907000243663787841796875">
        <ele>645.4000244140625</ele>
        <time>2019-10-31T07:36:11.000Z</time>
      </trkpt>
      <trkpt lat="37.16166567988693714141845703125" lon="-3.61742665059864521026611328125">
        <ele>645.5999755859375</ele>
        <time>2019-10-31T07:36:15.000Z</time>
      </trkpt>
      <trkpt lat="37.1616714634001255035400390625" lon="-3.61758640967309474945068359375">
        <ele>645.4000244140625</ele>
        <time>2019-10-31T07:36:18.000Z</time>
      </trkpt>
      <trkpt lat="37.161697447299957275390625" lon="-3.6178290657699108123779296875">
        <ele>645.5999755859375</ele>
        <time>2019-10-31T07:36:23.000Z</time>
      </trkpt>
      <trkpt lat="37.16172385029494762420654296875" lon="-3.61806149594485759735107421875">
        <ele>646.4000244140625</ele>
        <time>2019-10-31T07:36:28.000Z</time>
      </trkpt>
      <trkpt lat="37.16173223219811916351318359375" lon="-3.61832619644701480865478515625">
        <ele>648.20001220703125</ele>
        <time>2019-10-31T07:36:33.000Z</time>
      </trkpt>
      <trkpt lat="37.16175234876573085784912109375" lon="-3.61859676428139209747314453125">
        <ele>648.5999755859375</ele>
        <time>2019-10-31T07:36:38.000Z</time>
      </trkpt>
      <trkpt lat="37.161772884428501129150390625" lon="-3.618871606886386871337890625">
        <ele>648.20001220703125</ele>
        <time>2019-10-31T07:36:43.000Z</time>
      </trkpt>
      <trkpt lat="37.16179870069026947021484375" lon="-3.61910018138587474822998046875">
        <ele>647.5999755859375</ele>
        <time>2019-10-31T07:36:47.000Z</time>
      </trkpt>
      <trkpt lat="37.1618186496198177337646484375" lon="-3.6193264089524745941162109375">
        <ele>646.79998779296875</ele>
        <time>2019-10-31T07:36:51.000Z</time>
      </trkpt>
      <trkpt lat="37.1618350781500339508056640625" lon="-3.619564957916736602783203125">
        <ele>646.20001220703125</ele>
        <time>2019-10-31T07:36:55.000Z</time>
      </trkpt>
      <trkpt lat="37.16186097823083400726318359375" lon="-3.6198061890900135040283203125">
        <ele>645.79998779296875</ele>
        <time>2019-10-31T07:36:59.000Z</time>
      </trkpt>
      <trkpt lat="37.1618857048451900482177734375" lon="-3.62005236558616161346435546875">
        <ele>645</ele>
        <time>2019-10-31T07:37:03.000Z</time>
      </trkpt>
      <trkpt lat="37.1618994511663913726806640625" lon="-3.6201746575534343719482421875">
        <ele>644.5999755859375</ele>
        <time>2019-10-31T07:37:05.000Z</time>
      </trkpt>
      <trkpt lat="37.16192208230495452880859375" lon="-3.620401807129383087158203125">
        <ele>644</ele>
        <time>2019-10-31T07:37:09.000Z</time>
      </trkpt>
      <trkpt lat="37.161943875253200531005859375" lon="-3.620628453791141510009765625">
        <ele>644.20001220703125</ele>
        <time>2019-10-31T07:37:13.000Z</time>
      </trkpt>
      <trkpt lat="37.16197497211396694183349609375" lon="-3.6208773963153362274169921875">
        <ele>644.5999755859375</ele>
        <time>2019-10-31T07:37:17.000Z</time>
      </trkpt>
      <trkpt lat="37.1620070748031139373779296875" lon="-3.62114000134170055389404296875">
        <ele>644.4000244140625</ele>
        <time>2019-10-31T07:37:21.000Z</time>
      </trkpt>
      <trkpt lat="37.1620429493486881256103515625" lon="-3.62139699049293994903564453125">
        <ele>643</ele>
        <time>2019-10-31T07:37:25.000Z</time>
      </trkpt>
      <trkpt lat="37.16208041645586490631103515625" lon="-3.62166102044284343719482421875">
        <ele>642.20001220703125</ele>
        <time>2019-10-31T07:37:29.000Z</time>
      </trkpt>
      <trkpt lat="37.16212551109492778778076171875" lon="-3.62192823551595211029052734375">
        <ele>642.79998779296875</ele>
        <time>2019-10-31T07:37:33.000Z</time>
      </trkpt>
      <trkpt lat="37.16216725297272205352783203125" lon="-3.6222077719867229461669921875">
        <ele>643.79998779296875</ele>
        <time>2019-10-31T07:37:37.000Z</time>
      </trkpt>
      <trkpt lat="37.1622112579643726348876953125" lon="-3.62248445861041545867919921875">
        <ele>643.79998779296875</ele>
        <time>2019-10-31T07:37:41.000Z</time>
      </trkpt>
      <trkpt lat="37.16226004064083099365234375" lon="-3.6227524280548095703125">
        <ele>643.79998779296875</ele>
        <time>2019-10-31T07:37:45.000Z</time>
      </trkpt>
      <trkpt lat="37.1623108349740505218505859375" lon="-3.623017631471157073974609375">
        <ele>644</ele>
        <time>2019-10-31T07:37:49.000Z</time>
      </trkpt>
      <trkpt lat="37.16235500760376453399658203125" lon="-3.62328685820102691650390625">
        <ele>643.5999755859375</ele>
        <time>2019-10-31T07:37:53.000Z</time>
      </trkpt>
      <trkpt lat="37.16240848414599895477294921875" lon="-3.62355910241603851318359375">
        <ele>644</ele>
        <time>2019-10-31T07:37:57.000Z</time>
      </trkpt>
      <trkpt lat="37.16246548108756542205810546875" lon="-3.6238264851272106170654296875">
        <ele>644.5999755859375</ele>
        <time>2019-10-31T07:38:01.000Z</time>
      </trkpt>
      <trkpt lat="37.16251996345818042755126953125" lon="-3.6240948736667633056640625">
        <ele>645</ele>
        <time>2019-10-31T07:38:05.000Z</time>
      </trkpt>
      <trkpt lat="37.16257612220942974090576171875" lon="-3.6243589036166667938232421875">
        <ele>644.5999755859375</ele>
        <time>2019-10-31T07:38:09.000Z</time>
      </trkpt>
      <trkpt lat="37.162637226283550262451171875" lon="-3.6246244423091411590576171875">
        <ele>644.4000244140625</ele>
        <time>2019-10-31T07:38:13.000Z</time>
      </trkpt>
      <trkpt lat="37.1627024374902248382568359375" lon="-3.624891825020313262939453125">
        <ele>644.20001220703125</ele>
        <time>2019-10-31T07:38:17.000Z</time>
      </trkpt>
      <trkpt lat="37.1627768687903881072998046875" lon="-3.62515359185636043548583984375">
        <ele>644.5999755859375</ele>
        <time>2019-10-31T07:38:21.000Z</time>
      </trkpt>
      <trkpt lat="37.1628462709486484527587890625" lon="-3.62542591989040374755859375">
        <ele>644.5999755859375</ele>
        <time>2019-10-31T07:38:25.000Z</time>
      </trkpt>
      <trkpt lat="37.16291760094463825225830078125" lon="-3.6256963200867176055908203125">
        <ele>643</ele>
        <time>2019-10-31T07:38:29.000Z</time>
      </trkpt>
      <trkpt lat="37.16298683546483516693115234375" lon="-3.6259732581675052642822265625">
        <ele>640.4000244140625</ele>
        <time>2019-10-31T07:38:33.000Z</time>
      </trkpt>
      <trkpt lat="37.16306461952626705169677734375" lon="-3.62624474801123142242431640625">
        <ele>639</ele>
        <time>2019-10-31T07:38:37.000Z</time>
      </trkpt>
      <trkpt lat="37.163146175444126129150390625" lon="-3.62650894559919834136962890625">
        <ele>638.5999755859375</ele>
        <time>2019-10-31T07:38:41.000Z</time>
      </trkpt>
      <trkpt lat="37.163231335580348968505859375" lon="-3.626771382987499237060546875">
        <ele>639.79998779296875</ele>
        <time>2019-10-31T07:38:45.000Z</time>
      </trkpt>
      <trkpt lat="37.16331557370722293853759765625" lon="-3.6270357482135295867919921875">
        <ele>639.5999755859375</ele>
        <time>2019-10-31T07:38:49.000Z</time>
      </trkpt>
      <trkpt lat="37.16340157203376293182373046875" lon="-3.6273110099136829376220703125">
        <ele>640.5999755859375</ele>
        <time>2019-10-31T07:38:53.000Z</time>
      </trkpt>
      <trkpt lat="37.1634749136865139007568359375" lon="-3.62751779146492481231689453125">
        <ele>641</ele>
        <time>2019-10-31T07:38:56.000Z</time>
      </trkpt>
      <trkpt lat="37.1635657735168933868408203125" lon="-3.6277884431183338165283203125">
        <ele>641.20001220703125</ele>
        <time>2019-10-31T07:39:00.000Z</time>
      </trkpt>
      <trkpt lat="37.16362402774393558502197265625" lon="-3.62801986746490001678466796875">
        <ele>641.79998779296875</ele>
        <time>2019-10-31T07:39:03.000Z</time>
      </trkpt>
      <trkpt lat="37.163683958351612091064453125" lon="-3.6282357014715671539306640625">
        <ele>641.4000244140625</ele>
        <time>2019-10-31T07:39:06.000Z</time>
      </trkpt>
      <trkpt lat="37.1637587249279022216796875" lon="-3.62844063900411128997802734375">
        <ele>641</ele>
        <time>2019-10-31T07:39:09.000Z</time>
      </trkpt>
      <trkpt lat="37.16384966857731342315673828125" lon="-3.62871489487588405609130859375">
        <ele>639.5999755859375</ele>
        <time>2019-10-31T07:39:13.000Z</time>
      </trkpt>
      <trkpt lat="37.163943462073802947998046875" lon="-3.62898110412061214447021484375">
        <ele>638.5999755859375</ele>
        <time>2019-10-31T07:39:17.000Z</time>
      </trkpt>
      <trkpt lat="37.16402803547680377960205078125" lon="-3.62925351597368717193603515625">
        <ele>638.79998779296875</ele>
        <time>2019-10-31T07:39:21.000Z</time>
      </trkpt>
      <trkpt lat="37.1641129441559314727783203125" lon="-3.62951989285647869110107421875">
        <ele>638.5999755859375</ele>
        <time>2019-10-31T07:39:25.000Z</time>
      </trkpt>
      <trkpt lat="37.16419885866343975067138671875" lon="-3.62977202050387859344482421875">
        <ele>639.5999755859375</ele>
        <time>2019-10-31T07:39:29.000Z</time>
      </trkpt>
      <trkpt lat="37.164280414581298828125" lon="-3.63000453449785709381103515625">
        <ele>640</ele>
        <time>2019-10-31T07:39:33.000Z</time>
      </trkpt>
      <trkpt lat="37.1643595397472381591796875" lon="-3.6302332766354084014892578125">
        <ele>640</ele>
        <time>2019-10-31T07:39:37.000Z</time>
      </trkpt>
      <trkpt lat="37.16443522833287715911865234375" lon="-3.6304833926260471343994140625">
        <ele>639</ele>
        <time>2019-10-31T07:39:41.000Z</time>
      </trkpt>
      <trkpt lat="37.16452340595424175262451171875" lon="-3.63075077533721923828125">
        <ele>637.4000244140625</ele>
        <time>2019-10-31T07:39:45.000Z</time>
      </trkpt>
      <trkpt lat="37.164616025984287261962890625" lon="-3.6310211755335330963134765625">
        <ele>637</ele>
        <time>2019-10-31T07:39:49.000Z</time>
      </trkpt>
      <trkpt lat="37.1646916307508945465087890625" lon="-3.63122862763702869415283203125">
        <ele>637</ele>
        <time>2019-10-31T07:39:52.000Z</time>
      </trkpt>
      <trkpt lat="37.1647660620510578155517578125" lon="-3.63143742084503173828125">
        <ele>637.4000244140625</ele>
        <time>2019-10-31T07:39:55.000Z</time>
      </trkpt>
      <trkpt lat="37.16483303345739841461181640625" lon="-3.631646633148193359375">
        <ele>637.20001220703125</ele>
        <time>2019-10-31T07:39:58.000Z</time>
      </trkpt>
      <trkpt lat="37.16492707841098308563232421875" lon="-3.63191284239292144775390625">
        <ele>637</ele>
        <time>2019-10-31T07:40:02.000Z</time>
      </trkpt>
      <trkpt lat="37.16502380557358264923095703125" lon="-3.632169999182224273681640625">
        <ele>637.5999755859375</ele>
        <time>2019-10-31T07:40:06.000Z</time>
      </trkpt>
      <trkpt lat="37.16511659324169158935546875" lon="-3.63243260420858860015869140625">
        <ele>638.20001220703125</ele>
        <time>2019-10-31T07:40:10.000Z</time>
      </trkpt>
      <trkpt lat="37.16521156020462512969970703125" lon="-3.63269747234880924224853515625">
        <ele>637.20001220703125</ele>
        <time>2019-10-31T07:40:14.000Z</time>
      </trkpt>
      <trkpt lat="37.165302000939846038818359375" lon="-3.63297156058251857757568359375">
        <ele>636.20001220703125</ele>
        <time>2019-10-31T07:40:18.000Z</time>
      </trkpt>
      <trkpt lat="37.16539277695119380950927734375" lon="-3.63324816338717937469482421875">
        <ele>636</ele>
        <time>2019-10-31T07:40:22.000Z</time>
      </trkpt>
      <trkpt lat="37.16546184383332729339599609375" lon="-3.6334562860429286956787109375">
        <ele>635.5999755859375</ele>
        <time>2019-10-31T07:40:25.000Z</time>
      </trkpt>
      <trkpt lat="37.16553141362965106964111328125" lon="-3.63366541452705860137939453125">
        <ele>634.79998779296875</ele>
        <time>2019-10-31T07:40:28.000Z</time>
      </trkpt>
      <trkpt lat="37.16562218964099884033203125" lon="-3.63394201733171939849853515625">
        <ele>634.4000244140625</ele>
        <time>2019-10-31T07:40:32.000Z</time>
      </trkpt>
      <trkpt lat="37.16569016687572002410888671875" lon="-3.63415072672069072723388671875">
        <ele>635.5999755859375</ele>
        <time>2019-10-31T07:40:35.000Z</time>
      </trkpt>
      <trkpt lat="37.16575806029140949249267578125" lon="-3.63436035811901092529296875">
        <ele>636.5999755859375</ele>
        <time>2019-10-31T07:40:38.000Z</time>
      </trkpt>
      <trkpt lat="37.16582796536386013031005859375" lon="-3.63456982187926769256591796875">
        <ele>637.5999755859375</ele>
        <time>2019-10-31T07:40:41.000Z</time>
      </trkpt>
      <trkpt lat="37.16589510440826416015625" lon="-3.63478121347725391387939453125">
        <ele>637.4000244140625</ele>
        <time>2019-10-31T07:40:44.000Z</time>
      </trkpt>
      <trkpt lat="37.16596358455717563629150390625" lon="-3.63499310798943042755126953125">
        <ele>637.20001220703125</ele>
        <time>2019-10-31T07:40:47.000Z</time>
      </trkpt>
      <trkpt lat="37.16598571278154850006103515625" lon="-3.6350642703473567962646484375">
        <ele>637.20001220703125</ele>
        <time>2019-10-31T07:40:48.000Z</time>
      </trkpt>
      <trkpt lat="37.16605494730174541473388671875" lon="-3.63527490757405757904052734375">
        <ele>636.20001220703125</ele>
        <time>2019-10-31T07:40:51.000Z</time>
      </trkpt>
      <trkpt lat="37.1661269478499889373779296875" lon="-3.63549367524683475494384765625">
        <ele>635</ele>
        <time>2019-10-31T07:40:54.000Z</time>
      </trkpt>
      <trkpt lat="37.1661990322172641754150390625" lon="-3.635718561708927154541015625">
        <ele>634.5999755859375</ele>
        <time>2019-10-31T07:40:57.000Z</time>
      </trkpt>
      <trkpt lat="37.16627128422260284423828125" lon="-3.63593741320073604583740234375">
        <ele>634.79998779296875</ele>
        <time>2019-10-31T07:41:00.000Z</time>
      </trkpt>
      <trkpt lat="37.1663432009518146514892578125" lon="-3.6361492238938808441162109375">
        <ele>633.5999755859375</ele>
        <time>2019-10-31T07:41:03.000Z</time>
      </trkpt>
      <trkpt lat="37.16643196530640125274658203125" lon="-3.6364187858998775482177734375">
        <ele>632</ele>
        <time>2019-10-31T07:41:07.000Z</time>
      </trkpt>
      <trkpt lat="37.16651880182325839996337890625" lon="-3.63667351193726062774658203125">
        <ele>631.20001220703125</ele>
        <time>2019-10-31T07:41:11.000Z</time>
      </trkpt>
      <trkpt lat="37.16659943573176860809326171875" lon="-3.63691306672990322113037109375">
        <ele>631.79998779296875</ele>
        <time>2019-10-31T07:41:15.000Z</time>
      </trkpt>
      <trkpt lat="37.16667990200221538543701171875" lon="-3.63715882413089275360107421875">
        <ele>632</ele>
        <time>2019-10-31T07:41:19.000Z</time>
      </trkpt>
      <trkpt lat="37.16675986535847187042236328125" lon="-3.63741346634924411773681640625">
        <ele>631.79998779296875</ele>
        <time>2019-10-31T07:41:23.000Z</time>
      </trkpt>
      <trkpt lat="37.16684636659920215606689453125" lon="-3.63767514936625957489013671875">
        <ele>631</ele>
        <time>2019-10-31T07:41:27.000Z</time>
      </trkpt>
      <trkpt lat="37.16693555004894733428955078125" lon="-3.63794001750648021697998046875">
        <ele>631</ele>
        <time>2019-10-31T07:41:31.000Z</time>
      </trkpt>
      <trkpt lat="37.16702607460319995880126953125" lon="-3.63820840604603290557861328125">
        <ele>631.20001220703125</ele>
        <time>2019-10-31T07:41:35.000Z</time>
      </trkpt>
      <trkpt lat="37.1671190299093723297119140625" lon="-3.63847830332815647125244140625">
        <ele>631.4000244140625</ele>
        <time>2019-10-31T07:41:39.000Z</time>
      </trkpt>
      <trkpt lat="37.1672102250158786773681640625" lon="-3.63875239156186580657958984375">
        <ele>631.79998779296875</ele>
        <time>2019-10-31T07:41:43.000Z</time>
      </trkpt>
      <trkpt lat="37.1673019230365753173828125" lon="-3.63902966491878032684326171875">
        <ele>631.4000244140625</ele>
        <time>2019-10-31T07:41:47.000Z</time>
      </trkpt>
      <trkpt lat="37.1673714928328990936279296875" lon="-3.63923795521259307861328125">
        <ele>631.20001220703125</ele>
        <time>2019-10-31T07:41:50.000Z</time>
      </trkpt>
      <trkpt lat="37.167461179196834564208984375" lon="-3.63951598294079303741455078125">
        <ele>629.79998779296875</ele>
        <time>2019-10-31T07:41:54.000Z</time>
      </trkpt>
      <trkpt lat="37.1675307489931583404541015625" lon="-3.63972871564328670501708984375">
        <ele>629.5999755859375</ele>
        <time>2019-10-31T07:41:57.000Z</time>
      </trkpt>
      <trkpt lat="37.1675984747707843780517578125" lon="-3.639941699802875518798828125">
        <ele>629</ele>
        <time>2019-10-31T07:42:00.000Z</time>
      </trkpt>
      <trkpt lat="37.16766737401485443115234375" lon="-3.64015585742890834808349609375">
        <ele>629</ele>
        <time>2019-10-31T07:42:03.000Z</time>
      </trkpt>
      <trkpt lat="37.167743481695652008056640625" lon="-3.64037613384425640106201171875">
        <ele>629.4000244140625</ele>
        <time>2019-10-31T07:42:06.000Z</time>
      </trkpt>
      <trkpt lat="37.1678207628428936004638671875" lon="-3.64060713909566402435302734375">
        <ele>630.5999755859375</ele>
        <time>2019-10-31T07:42:09.000Z</time>
      </trkpt>
      <trkpt lat="37.1679012291133403778076171875" lon="-3.6408424191176891326904296875">
        <ele>631.5999755859375</ele>
        <time>2019-10-31T07:42:12.000Z</time>
      </trkpt>
      <trkpt lat="37.16797859407961368560791015625" lon="-3.6410710774362087249755859375">
        <ele>632</ele>
        <time>2019-10-31T07:42:15.000Z</time>
      </trkpt>
      <trkpt lat="37.16805336065590381622314453125" lon="-3.6412980593740940093994140625">
        <ele>632</ele>
        <time>2019-10-31T07:42:18.000Z</time>
      </trkpt>
      <trkpt lat="37.168128378689289093017578125" lon="-3.641528226435184478759765625">
        <ele>631.5999755859375</ele>
        <time>2019-10-31T07:42:21.000Z</time>
      </trkpt>
      <trkpt lat="37.16820440255105495452880859375" lon="-3.641756214201450347900390625">
        <ele>631</ele>
        <time>2019-10-31T07:42:24.000Z</time>
      </trkpt>
      <trkpt lat="37.168276570737361907958984375" lon="-3.64198747090995311737060546875">
        <ele>629.79998779296875</ele>
        <time>2019-10-31T07:42:27.000Z</time>
      </trkpt>
      <trkpt lat="37.1683528460562229156494140625" lon="-3.642210178077220916748046875">
        <ele>630.4000244140625</ele>
        <time>2019-10-31T07:42:30.000Z</time>
      </trkpt>
      <trkpt lat="37.16842417605221271514892578125" lon="-3.6424333043396472930908203125">
        <ele>630.5999755859375</ele>
        <time>2019-10-31T07:42:33.000Z</time>
      </trkpt>
      <trkpt lat="37.16849391348659992218017578125" lon="-3.6426582746207714080810546875">
        <ele>630.5999755859375</ele>
        <time>2019-10-31T07:42:36.000Z</time>
      </trkpt>
      <trkpt lat="37.168564908206462860107421875" lon="-3.6428751982748508453369140625">
        <ele>629.79998779296875</ele>
        <time>2019-10-31T07:42:39.000Z</time>
      </trkpt>
      <trkpt lat="37.16863875277340412139892578125" lon="-3.64309220574796199798583984375">
        <ele>629.20001220703125</ele>
        <time>2019-10-31T07:42:42.000Z</time>
      </trkpt>
      <trkpt lat="37.16871150769293308258056640625" lon="-3.6433093808591365814208984375">
        <ele>629</ele>
        <time>2019-10-31T07:42:45.000Z</time>
      </trkpt>
      <trkpt lat="37.16878862120211124420166015625" lon="-3.64352873526513576507568359375">
        <ele>630.20001220703125</ele>
        <time>2019-10-31T07:42:48.000Z</time>
      </trkpt>
      <trkpt lat="37.16887277550995349884033203125" lon="-3.6437462456524372100830078125">
        <ele>631</ele>
        <time>2019-10-31T07:42:51.000Z</time>
      </trkpt>
      <trkpt lat="37.1689529903233051300048828125" lon="-3.6439668573439121246337890625">
        <ele>631.4000244140625</ele>
        <time>2019-10-31T07:42:54.000Z</time>
      </trkpt>
      <trkpt lat="37.16903991065919399261474609375" lon="-3.644184954464435577392578125">
        <ele>631</ele>
        <time>2019-10-31T07:42:57.000Z</time>
      </trkpt>
      <trkpt lat="37.16913194395601749420166015625" lon="-3.64439726807177066802978515625">
        <ele>630.4000244140625</ele>
        <time>2019-10-31T07:43:00.000Z</time>
      </trkpt>
      <trkpt lat="37.1692336164414882659912109375" lon="-3.6446062289178371429443359375">
        <ele>629</ele>
        <time>2019-10-31T07:43:03.000Z</time>
      </trkpt>
      <trkpt lat="37.16933277435600757598876953125" lon="-3.64482206292450428009033203125">
        <ele>626.79998779296875</ele>
        <time>2019-10-31T07:43:06.000Z</time>
      </trkpt>
      <trkpt lat="37.1694347821176052093505859375" lon="-3.6450310237705707550048828125">
        <ele>624.79998779296875</ele>
        <time>2019-10-31T07:43:09.000Z</time>
      </trkpt>
      <trkpt lat="37.16953075490891933441162109375" lon="-3.64524115808308124542236328125">
        <ele>624.4000244140625</ele>
        <time>2019-10-31T07:43:12.000Z</time>
      </trkpt>
      <trkpt lat="37.1696299128234386444091796875" lon="-3.64544869400560855865478515625">
        <ele>624.4000244140625</ele>
        <time>2019-10-31T07:43:15.000Z</time>
      </trkpt>
      <trkpt lat="37.16973091475665569305419921875" lon="-3.64565069787204265594482421875">
        <ele>626.20001220703125</ele>
        <time>2019-10-31T07:43:18.000Z</time>
      </trkpt>
      <trkpt lat="37.16983736492693424224853515625" lon="-3.64585303701460361480712890625">
        <ele>627.4000244140625</ele>
        <time>2019-10-31T07:43:21.000Z</time>
      </trkpt>
      <trkpt lat="37.16994725167751312255859375" lon="-3.646052777767181396484375">
        <ele>628.20001220703125</ele>
        <time>2019-10-31T07:43:24.000Z</time>
      </trkpt>
      <trkpt lat="37.17005395330488681793212890625" lon="-3.64625394344329833984375">
        <ele>628.20001220703125</ele>
        <time>2019-10-31T07:43:27.000Z</time>
      </trkpt>
      <trkpt lat="37.17016090638935565948486328125" lon="-3.646454103291034698486328125">
        <ele>627</ele>
        <time>2019-10-31T07:43:30.000Z</time>
      </trkpt>
      <trkpt lat="37.1702642552554607391357421875" lon="-3.64665837027132511138916015625">
        <ele>626</ele>
        <time>2019-10-31T07:43:33.000Z</time>
      </trkpt>
      <trkpt lat="37.17036676593124866485595703125" lon="-3.64686003886163234710693359375">
        <ele>624.5999755859375</ele>
        <time>2019-10-31T07:43:36.000Z</time>
      </trkpt>
      <trkpt lat="37.170468606054782867431640625" lon="-3.64707109518349170684814453125">
        <ele>623</ele>
        <time>2019-10-31T07:43:39.000Z</time>
      </trkpt>
      <trkpt lat="37.1705763973295688629150390625" lon="-3.6472834087908267974853515625">
        <ele>622.5999755859375</ele>
        <time>2019-10-31T07:43:42.000Z</time>
      </trkpt>
      <trkpt lat="37.17068410478532314300537109375" lon="-3.64748817868530750274658203125">
        <ele>622</ele>
        <time>2019-10-31T07:43:45.000Z</time>
      </trkpt>
      <trkpt lat="37.1707892976701259613037109375" lon="-3.6476827226579189300537109375">
        <ele>623</ele>
        <time>2019-10-31T07:43:48.000Z</time>
      </trkpt>
      <trkpt lat="37.1708828397095203399658203125" lon="-3.64787626080214977264404296875">
        <ele>624.20001220703125</ele>
        <time>2019-10-31T07:43:51.000Z</time>
      </trkpt>
      <trkpt lat="37.17100932262837886810302734375" lon="-3.64812076091766357421875">
        <ele>625</ele>
        <time>2019-10-31T07:43:55.000Z</time>
      </trkpt>
      <trkpt lat="37.1711342968046665191650390625" lon="-3.64837163127958774566650390625">
        <ele>625.5999755859375</ele>
        <time>2019-10-31T07:43:59.000Z</time>
      </trkpt>
      <trkpt lat="37.17120395042002201080322265625" lon="-3.64849023520946502685546875">
        <ele>625.79998779296875</ele>
        <time>2019-10-31T07:44:01.000Z</time>
      </trkpt>
      <trkpt lat="37.17139723710715770721435546875" lon="-3.6486188136041164398193359375">
        <ele>625.79998779296875</ele>
        <time>2019-10-31T07:44:05.000Z</time>
      </trkpt>
      <trkpt lat="37.17149748466908931732177734375" lon="-3.64864354021847248077392578125">
        <ele>626</ele>
        <time>2019-10-31T07:44:07.000Z</time>
      </trkpt>
      <trkpt lat="37.17164282687008380889892578125" lon="-3.6486665904521942138671875">
        <ele>626.20001220703125</ele>
        <time>2019-10-31T07:44:10.000Z</time>
      </trkpt>
      <trkpt lat="37.17179873026907444000244140625" lon="-3.64875149913132190704345703125">
        <ele>626.5999755859375</ele>
        <time>2019-10-31T07:44:14.000Z</time>
      </trkpt>
      <trkpt lat="37.17185857705771923065185546875" lon="-3.648818470537662506103515625">
        <ele>626.4000244140625</ele>
        <time>2019-10-31T07:44:16.000Z</time>
      </trkpt>
      <trkpt lat="37.171927057206630706787109375" lon="-3.649027347564697265625">
        <ele>625</ele>
        <time>2019-10-31T07:44:20.000Z</time>
      </trkpt>
      <trkpt lat="37.171927392482757568359375" lon="-3.6491535790264606475830078125">
        <ele>624.20001220703125</ele>
        <time>2019-10-31T07:44:22.000Z</time>
      </trkpt>
      <trkpt lat="37.1719111315906047821044921875" lon="-3.64942959509789943695068359375">
        <ele>622.20001220703125</ele>
        <time>2019-10-31T07:44:26.000Z</time>
      </trkpt>
      <trkpt lat="37.1718916855752468109130859375" lon="-3.6496578343212604522705078125">
        <ele>622</ele>
        <time>2019-10-31T07:44:29.000Z</time>
      </trkpt>
      <trkpt lat="37.1718890033662319183349609375" lon="-3.64982354454696178436279296875">
        <ele>622</ele>
        <time>2019-10-31T07:44:31.000Z</time>
      </trkpt>
      <trkpt lat="37.17194558121263980865478515625" lon="-3.6500527895987033843994140625">
        <ele>622</ele>
        <time>2019-10-31T07:44:34.000Z</time>
      </trkpt>
      <trkpt lat="37.1720494329929351806640625" lon="-3.650285303592681884765625">
        <ele>621.4000244140625</ele>
        <time>2019-10-31T07:44:39.000Z</time>
      </trkpt>
      <trkpt lat="37.17205923981964588165283203125" lon="-3.6503376066684722900390625">
        <ele>621.20001220703125</ele>
        <time>2019-10-31T07:44:40.000Z</time>
      </trkpt>
      <trkpt lat="37.172091342508792877197265625" lon="-3.65048554725944995880126953125">
        <ele>620.5999755859375</ele>
        <time>2019-10-31T07:44:43.000Z</time>
      </trkpt>
      <trkpt lat="37.172175161540508270263671875" lon="-3.650689981877803802490234375">
        <ele>619.5999755859375</ele>
        <time>2019-10-31T07:44:47.000Z</time>
      </trkpt>
      <trkpt lat="37.17226828448474407196044921875" lon="-3.65091168321669101715087890625">
        <ele>618.4000244140625</ele>
        <time>2019-10-31T07:44:51.000Z</time>
      </trkpt>
      <trkpt lat="37.1723567135632038116455078125" lon="-3.6511504836380481719970703125">
        <ele>618</ele>
        <time>2019-10-31T07:44:55.000Z</time>
      </trkpt>
      <trkpt lat="37.172449417412281036376953125" lon="-3.6513982526957988739013671875">
        <ele>619.79998779296875</ele>
        <time>2019-10-31T07:44:59.000Z</time>
      </trkpt>
      <trkpt lat="37.17254371382296085357666015625" lon="-3.65164996124804019927978515625">
        <ele>621.5999755859375</ele>
        <time>2019-10-31T07:45:03.000Z</time>
      </trkpt>
      <trkpt lat="37.17264027334749698638916015625" lon="-3.6519045196473598480224609375">
        <ele>621.5999755859375</ele>
        <time>2019-10-31T07:45:07.000Z</time>
      </trkpt>
      <trkpt lat="37.17273498885333538055419921875" lon="-3.6521656997501850128173828125">
        <ele>620.79998779296875</ele>
        <time>2019-10-31T07:45:11.000Z</time>
      </trkpt>
      <trkpt lat="37.17283540405333042144775390625" lon="-3.65243786014616489410400390625">
        <ele>620</ele>
        <time>2019-10-31T07:45:15.000Z</time>
      </trkpt>
      <trkpt lat="37.17293229885399341583251953125" lon="-3.65270826034247875213623046875">
        <ele>620.20001220703125</ele>
        <time>2019-10-31T07:45:19.000Z</time>
      </trkpt>
      <trkpt lat="37.17302785255014896392822265625" lon="-3.6529581248760223388671875">
        <ele>620</ele>
        <time>2019-10-31T07:45:23.000Z</time>
      </trkpt>
      <trkpt lat="37.17311770655214786529541015625" lon="-3.65320815704762935638427734375">
        <ele>620</ele>
        <time>2019-10-31T07:45:27.000Z</time>
      </trkpt>
      <trkpt lat="37.173213846981525421142578125" lon="-3.6534514836966991424560546875">
        <ele>620</ele>
        <time>2019-10-31T07:45:31.000Z</time>
      </trkpt>
      <trkpt lat="37.1732706762850284576416015625" lon="-3.6535674892365932464599609375">
        <ele>620.20001220703125</ele>
        <time>2019-10-31T07:45:33.000Z</time>
      </trkpt>
      <trkpt lat="37.17337016947567462921142578125" lon="-3.65380813367664813995361328125">
        <ele>620</ele>
        <time>2019-10-31T07:45:37.000Z</time>
      </trkpt>
      <trkpt lat="37.17346555553376674652099609375" lon="-3.65405355580151081085205078125">
        <ele>619.5999755859375</ele>
        <time>2019-10-31T07:45:41.000Z</time>
      </trkpt>
      <trkpt lat="37.17353998683393001556396484375" lon="-3.654315657913684844970703125">
        <ele>619.20001220703125</ele>
        <time>2019-10-31T07:45:45.000Z</time>
      </trkpt>
      <trkpt lat="37.17355926521122455596923828125" lon="-3.65438346751034259796142578125">
        <ele>619.20001220703125</ele>
        <time>2019-10-31T07:45:46.000Z</time>
      </trkpt>
      <trkpt lat="37.17365699820220470428466796875" lon="-3.65463894791901111602783203125">
        <ele>620</ele>
        <time>2019-10-31T07:45:50.000Z</time>
      </trkpt>
      <trkpt lat="37.1737419068813323974609375" lon="-3.654897697269916534423828125">
        <ele>619.20001220703125</ele>
        <time>2019-10-31T07:45:54.000Z</time>
      </trkpt>
      <trkpt lat="37.17383234761655330657958984375" lon="-3.65515711717307567596435546875">
        <ele>617.4000244140625</ele>
        <time>2019-10-31T07:45:58.000Z</time>
      </trkpt>
      <trkpt lat="37.1739264763891696929931640625" lon="-3.65541812963783740997314453125">
        <ele>617.5999755859375</ele>
        <time>2019-10-31T07:46:02.000Z</time>
      </trkpt>
      <trkpt lat="37.17402194626629352569580078125" lon="-3.6556713469326496124267578125">
        <ele>618.4000244140625</ele>
        <time>2019-10-31T07:46:06.000Z</time>
      </trkpt>
      <trkpt lat="37.17412554658949375152587890625" lon="-3.655887432396411895751953125">
        <ele>618.79998779296875</ele>
        <time>2019-10-31T07:46:10.000Z</time>
      </trkpt>
      <trkpt lat="37.1741725690662860870361328125" lon="-3.65598139353096485137939453125">
        <ele>618.5999755859375</ele>
        <time>2019-10-31T07:46:12.000Z</time>
      </trkpt>
      <trkpt lat="37.17426032759249210357666015625" lon="-3.656104020774364471435546875">
        <ele>618.4000244140625</ele>
        <time>2019-10-31T07:46:15.000Z</time>
      </trkpt>
      <trkpt lat="37.17436484992504119873046875" lon="-3.65629286505281925201416015625">
        <ele>617.4000244140625</ele>
        <time>2019-10-31T07:46:19.000Z</time>
      </trkpt>
      <trkpt lat="37.17439209111034870147705078125" lon="-3.65633980371057987213134765625">
        <ele>617.20001220703125</ele>
        <time>2019-10-31T07:46:20.000Z</time>
      </trkpt>
      <trkpt lat="37.17452134005725383758544921875" lon="-3.656511716544628143310546875">
        <ele>617</ele>
        <time>2019-10-31T07:46:24.000Z</time>
      </trkpt>
      <trkpt lat="37.17455654405057430267333984375" lon="-3.65655438043177127838134765625">
        <ele>617.20001220703125</ele>
        <time>2019-10-31T07:46:25.000Z</time>
      </trkpt>
      <trkpt lat="37.17471353709697723388671875" lon="-3.6567143909633159637451171875">
        <ele>618</ele>
        <time>2019-10-31T07:46:29.000Z</time>
      </trkpt>
      <trkpt lat="37.17487472109496593475341796875" lon="-3.65687607787549495697021484375">
        <ele>617.20001220703125</ele>
        <time>2019-10-31T07:46:33.000Z</time>
      </trkpt>
      <trkpt lat="37.17504990287125110626220703125" lon="-3.6570228450000286102294921875">
        <ele>616.79998779296875</ele>
        <time>2019-10-31T07:46:37.000Z</time>
      </trkpt>
      <trkpt lat="37.17514646239578723907470703125" lon="-3.65709048695862293243408203125">
        <ele>616.79998779296875</ele>
        <time>2019-10-31T07:46:39.000Z</time>
      </trkpt>
      <trkpt lat="37.17524251900613307952880859375" lon="-3.65715368650853633880615234375">
        <ele>617</ele>
        <time>2019-10-31T07:46:41.000Z</time>
      </trkpt>
      <trkpt lat="37.175433374941349029541015625" lon="-3.65728159435093402862548828125">
        <ele>617</ele>
        <time>2019-10-31T07:46:45.000Z</time>
      </trkpt>
      <trkpt lat="37.17563462443649768829345703125" lon="-3.65737698040902614593505859375">
        <ele>616</ele>
        <time>2019-10-31T07:46:49.000Z</time>
      </trkpt>
      <trkpt lat="37.17583696357905864715576171875" lon="-3.6574669182300567626953125">
        <ele>614.5999755859375</ele>
        <time>2019-10-31T07:46:53.000Z</time>
      </trkpt>
      <trkpt lat="37.17604232020676136016845703125" lon="-3.65754227153956890106201171875">
        <ele>614</ele>
        <time>2019-10-31T07:46:57.000Z</time>
      </trkpt>
      <trkpt lat="37.17609160579741001129150390625" lon="-3.65756222046911716461181640625">
        <ele>614.20001220703125</ele>
        <time>2019-10-31T07:46:58.000Z</time>
      </trkpt>
      <trkpt lat="37.17629008926451206207275390625" lon="-3.65761536173522472381591796875">
        <ele>614.79998779296875</ele>
        <time>2019-10-31T07:47:02.000Z</time>
      </trkpt>
      <trkpt lat="37.17650265432894229888916015625" lon="-3.65764084272086620330810546875">
        <ele>613.20001220703125</ele>
        <time>2019-10-31T07:47:06.000Z</time>
      </trkpt>
      <trkpt lat="37.17655629850924015045166015625" lon="-3.6576481349766254425048828125">
        <ele>613</ele>
        <time>2019-10-31T07:47:07.000Z</time>
      </trkpt>
      <trkpt lat="37.176774479448795318603515625" lon="-3.65769448690116405487060546875">
        <ele>612.20001220703125</ele>
        <time>2019-10-31T07:47:11.000Z</time>
      </trkpt>
      <trkpt lat="37.17700012028217315673828125" lon="-3.65772415883839130401611328125">
        <ele>611.4000244140625</ele>
        <time>2019-10-31T07:47:15.000Z</time>
      </trkpt>
      <trkpt lat="37.1772287786006927490234375" lon="-3.65776472724974155426025390625">
        <ele>611.4000244140625</ele>
        <time>2019-10-31T07:47:19.000Z</time>
      </trkpt>
      <trkpt lat="37.17744670808315277099609375" lon="-3.65780697204172611236572265625">
        <ele>612.20001220703125</ele>
        <time>2019-10-31T07:47:23.000Z</time>
      </trkpt>
      <trkpt lat="37.17749842442572116851806640625" lon="-3.65782038308680057525634765625">
        <ele>612.4000244140625</ele>
        <time>2019-10-31T07:47:24.000Z</time>
      </trkpt>
      <trkpt lat="37.17768332920968532562255859375" lon="-3.65789196453988552093505859375">
        <ele>613.20001220703125</ele>
        <time>2019-10-31T07:47:28.000Z</time>
      </trkpt>
      <trkpt lat="37.1777258254587650299072265625" lon="-3.65791358985006809234619140625">
        <ele>613.4000244140625</ele>
        <time>2019-10-31T07:47:29.000Z</time>
      </trkpt>
      <trkpt lat="37.17780889011919498443603515625" lon="-3.65795667283236980438232421875">
        <ele>613.4000244140625</ele>
        <time>2019-10-31T07:47:31.000Z</time>
      </trkpt>
      <trkpt lat="37.177950628101825714111328125" lon="-3.6580702476203441619873046875">
        <ele>613</ele>
        <time>2019-10-31T07:47:35.000Z</time>
      </trkpt>
      <trkpt lat="37.1780188567936420440673828125" lon="-3.6581374704837799072265625">
        <ele>612.79998779296875</ele>
        <time>2019-10-31T07:47:37.000Z</time>
      </trkpt>
      <trkpt lat="37.1781566552817821502685546875" lon="-3.65828893147408962249755859375">
        <ele>612.5999755859375</ele>
        <time>2019-10-31T07:47:41.000Z</time>
      </trkpt>
      <trkpt lat="37.17831934802234172821044921875" lon="-3.6584196053445339202880859375">
        <ele>613.20001220703125</ele>
        <time>2019-10-31T07:47:45.000Z</time>
      </trkpt>
      <trkpt lat="37.17847592197358608245849609375" lon="-3.658552207052707672119140625">
        <ele>613.5999755859375</ele>
        <time>2019-10-31T07:47:49.000Z</time>
      </trkpt>
      <trkpt lat="37.17858932912349700927734375" lon="-3.65866293199360370635986328125">
        <ele>614</ele>
        <time>2019-10-31T07:47:52.000Z</time>
      </trkpt>
      <trkpt lat="37.1787313185632228851318359375" lon="-3.65882746875286102294921875">
        <ele>613.5999755859375</ele>
        <time>2019-10-31T07:47:56.000Z</time>
      </trkpt>
      <trkpt lat="37.1788654290139675140380859375" lon="-3.65899099968373775482177734375">
        <ele>613</ele>
        <time>2019-10-31T07:48:00.000Z</time>
      </trkpt>
      <trkpt lat="37.17892535962164402008056640625" lon="-3.659066855907440185546875">
        <ele>613</ele>
        <time>2019-10-31T07:48:02.000Z</time>
      </trkpt>
      <trkpt lat="37.17897414229810237884521484375" lon="-3.65914086811244487762451171875">
        <ele>612.79998779296875</ele>
        <time>2019-10-31T07:48:04.000Z</time>
      </trkpt>
      <trkpt lat="37.17907103709876537322998046875" lon="-3.659262992441654205322265625">
        <ele>613</ele>
        <time>2019-10-31T07:48:08.000Z</time>
      </trkpt>
      <trkpt lat="37.17909685336053371429443359375" lon="-3.6592950113117694854736328125">
        <ele>613</ele>
        <time>2019-10-31T07:48:09.000Z</time>
      </trkpt>
      <trkpt lat="37.17915485613048076629638671875" lon="-3.65936315618455410003662109375">
        <ele>613</ele>
        <time>2019-10-31T07:48:11.000Z</time>
      </trkpt>
      <trkpt lat="37.179276309907436370849609375" lon="-3.65953079424798488616943359375">
        <ele>613.20001220703125</ele>
        <time>2019-10-31T07:48:15.000Z</time>
      </trkpt>
      <trkpt lat="37.1793871186673641204833984375" lon="-3.6597214825451374053955078125">
        <ele>613</ele>
        <time>2019-10-31T07:48:19.000Z</time>
      </trkpt>
      <trkpt lat="37.17941620387136936187744140625" lon="-3.65976154804229736328125">
        <ele>613</ele>
        <time>2019-10-31T07:48:20.000Z</time>
      </trkpt>
      <trkpt lat="37.17952500097453594207763671875" lon="-3.65991183556616306304931640625">
        <ele>613</ele>
        <time>2019-10-31T07:48:24.000Z</time>
      </trkpt>
      <trkpt lat="37.17962457798421382904052734375" lon="-3.66012808866798877716064453125">
        <ele>613.20001220703125</ele>
        <time>2019-10-31T07:48:29.000Z</time>
      </trkpt>
      <trkpt lat="37.179741002619266510009765625" lon="-3.66030159406363964080810546875">
        <ele>613.5999755859375</ele>
        <time>2019-10-31T07:48:33.000Z</time>
      </trkpt>
      <trkpt lat="37.17986530624330043792724609375" lon="-3.660487420856952667236328125">
        <ele>613.20001220703125</ele>
        <time>2019-10-31T07:48:37.000Z</time>
      </trkpt>
      <trkpt lat="37.1798964031040668487548828125" lon="-3.660534359514713287353515625">
        <ele>613</ele>
        <time>2019-10-31T07:48:38.000Z</time>
      </trkpt>
      <trkpt lat="37.179954238235950469970703125" lon="-3.66062614135444164276123046875">
        <ele>612.5999755859375</ele>
        <time>2019-10-31T07:48:40.000Z</time>
      </trkpt>
      <trkpt lat="37.18001760542392730712890625" lon="-3.660710044205188751220703125">
        <ele>612.20001220703125</ele>
        <time>2019-10-31T07:48:42.000Z</time>
      </trkpt>
      <trkpt lat="37.18014660291373729705810546875" lon="-3.66088966839015483856201171875">
        <ele>611.4000244140625</ele>
        <time>2019-10-31T07:48:46.000Z</time>
      </trkpt>
      <trkpt lat="37.18027777969837188720703125" lon="-3.66107725538313388824462890625">
        <ele>610.4000244140625</ele>
        <time>2019-10-31T07:48:50.000Z</time>
      </trkpt>
      <trkpt lat="37.1803456731140613555908203125" lon="-3.66116727702319622039794921875">
        <ele>610.4000244140625</ele>
        <time>2019-10-31T07:48:52.000Z</time>
      </trkpt>
      <trkpt lat="37.18047299422323703765869140625" lon="-3.66132368333637714385986328125">
        <ele>610.5999755859375</ele>
        <time>2019-10-31T07:48:56.000Z</time>
      </trkpt>
      <trkpt lat="37.18058221042156219482421875" lon="-3.66150339134037494659423828125">
        <ele>610.79998779296875</ele>
        <time>2019-10-31T07:49:00.000Z</time>
      </trkpt>
      <trkpt lat="37.18063996173441410064697265625" lon="-3.661594502627849578857421875">
        <ele>611</ele>
        <time>2019-10-31T07:49:02.000Z</time>
      </trkpt>
      <trkpt lat="37.1807587333023548126220703125" lon="-3.66178485564887523651123046875">
        <ele>611.4000244140625</ele>
        <time>2019-10-31T07:49:06.000Z</time>
      </trkpt>
      <trkpt lat="37.18089158646762371063232421875" lon="-3.66197814233601093292236328125">
        <ele>612.4000244140625</ele>
        <time>2019-10-31T07:49:10.000Z</time>
      </trkpt>
      <trkpt lat="37.181027121841907501220703125" lon="-3.6621768772602081298828125">
        <ele>613</ele>
        <time>2019-10-31T07:49:14.000Z</time>
      </trkpt>
      <trkpt lat="37.18116802163422107696533203125" lon="-3.6623726785182952880859375">
        <ele>613</ele>
        <time>2019-10-31T07:49:18.000Z</time>
      </trkpt>
      <trkpt lat="37.18128687702119350433349609375" lon="-3.662561438977718353271484375">
        <ele>612</ele>
        <time>2019-10-31T07:49:22.000Z</time>
      </trkpt>
      <trkpt lat="37.1813743002712726593017578125" lon="-3.66268557496368885040283203125">
        <ele>611.4000244140625</ele>
        <time>2019-10-31T07:49:25.000Z</time>
      </trkpt>
      <trkpt lat="37.181480415165424346923828125" lon="-3.66288238205015659332275390625">
        <ele>610.5999755859375</ele>
        <time>2019-10-31T07:49:30.000Z</time>
      </trkpt>
      <trkpt lat="37.1816096641123294830322265625" lon="-3.6630896665155887603759765625">
        <ele>610.20001220703125</ele>
        <time>2019-10-31T07:49:35.000Z</time>
      </trkpt>
      <trkpt lat="37.18172173015773296356201171875" lon="-3.663271553814411163330078125">
        <ele>610</ele>
        <time>2019-10-31T07:49:39.000Z</time>
      </trkpt>
      <trkpt lat="37.18184410594403743743896484375" lon="-3.663455955684185028076171875">
        <ele>609.79998779296875</ele>
        <time>2019-10-31T07:49:43.000Z</time>
      </trkpt>
      <trkpt lat="37.18196581117808818817138671875" lon="-3.66365318186581134796142578125">
        <ele>609.4000244140625</ele>
        <time>2019-10-31T07:49:47.000Z</time>
      </trkpt>
      <trkpt lat="37.18208961188793182373046875" lon="-3.663855604827404022216796875">
        <ele>609.20001220703125</ele>
        <time>2019-10-31T07:49:51.000Z</time>
      </trkpt>
      <trkpt lat="37.18220503069460391998291015625" lon="-3.664060123264789581298828125">
        <ele>608.79998779296875</ele>
        <time>2019-10-31T07:49:55.000Z</time>
      </trkpt>
      <trkpt lat="37.182311899960041046142578125" lon="-3.66425299085676670074462890625">
        <ele>609</ele>
        <time>2019-10-31T07:49:59.000Z</time>
      </trkpt>
      <trkpt lat="37.182418517768383026123046875" lon="-3.6644669808447360992431640625">
        <ele>609</ele>
        <time>2019-10-31T07:50:04.000Z</time>
      </trkpt>
      <trkpt lat="37.1825273148715496063232421875" lon="-3.66469069384038448333740234375">
        <ele>608.79998779296875</ele>
        <time>2019-10-31T07:50:09.000Z</time>
      </trkpt>
      <trkpt lat="37.18260954134166240692138671875" lon="-3.664879538118839263916015625">
        <ele>608.79998779296875</ele>
        <time>2019-10-31T07:50:13.000Z</time>
      </trkpt>
      <trkpt lat="37.182716242969036102294921875" lon="-3.66506435908377170562744140625">
        <ele>609</ele>
        <time>2019-10-31T07:50:18.000Z</time>
      </trkpt>
      <trkpt lat="37.18277500011026859283447265625" lon="-3.66522579453885555267333984375">
        <ele>608.5999755859375</ele>
        <time>2019-10-31T07:50:22.000Z</time>
      </trkpt>
      <trkpt lat="37.1828599087893962860107421875" lon="-3.66543668322265148162841796875">
        <ele>610.20001220703125</ele>
        <time>2019-10-31T07:50:27.000Z</time>
      </trkpt>
      <trkpt lat="37.1828977949917316436767578125" lon="-3.665521927177906036376953125">
        <ele>610</ele>
        <time>2019-10-31T07:50:29.000Z</time>
      </trkpt>
      <trkpt lat="37.18300801701843738555908203125" lon="-3.66574614308774471282958984375">
        <ele>609.5999755859375</ele>
        <time>2019-10-31T07:50:34.000Z</time>
      </trkpt>
      <trkpt lat="37.18311312608420848846435546875" lon="-3.66599407978355884552001953125">
        <ele>609.20001220703125</ele>
        <time>2019-10-31T07:50:39.000Z</time>
      </trkpt>
      <trkpt lat="37.18321085907518863677978515625" lon="-3.666194491088390350341796875">
        <ele>608</ele>
        <time>2019-10-31T07:50:43.000Z</time>
      </trkpt>
      <trkpt lat="37.18330507166683673858642578125" lon="-3.6664082296192646026611328125">
        <ele>607.20001220703125</ele>
        <time>2019-10-31T07:50:47.000Z</time>
      </trkpt>
      <trkpt lat="37.1834090910851955413818359375" lon="-3.66661668755114078521728515625">
        <ele>608</ele>
        <time>2019-10-31T07:50:51.000Z</time>
      </trkpt>
      <trkpt lat="37.18351596035063266754150390625" lon="-3.6668531410396099090576171875">
        <ele>608.4000244140625</ele>
        <time>2019-10-31T07:50:56.000Z</time>
      </trkpt>
      <trkpt lat="37.18353155069053173065185546875" lon="-3.66689597256481647491455078125">
        <ele>608.5999755859375</ele>
        <time>2019-10-31T07:50:57.000Z</time>
      </trkpt>
      <trkpt lat="37.18358016572892665863037109375" lon="-3.66701868362724781036376953125">
        <ele>608.79998779296875</ele>
        <time>2019-10-31T07:51:00.000Z</time>
      </trkpt>
      <trkpt lat="37.18367320485413074493408203125" lon="-3.66724868305027484893798828125">
        <ele>607.20001220703125</ele>
        <time>2019-10-31T07:51:05.000Z</time>
      </trkpt>
      <trkpt lat="37.18377965502440929412841796875" lon="-3.6674894951283931732177734375">
        <ele>606.20001220703125</ele>
        <time>2019-10-31T07:51:10.000Z</time>
      </trkpt>
      <trkpt lat="37.18388811685144901275634765625" lon="-3.66772837936878204345703125">
        <ele>605.5999755859375</ele>
        <time>2019-10-31T07:51:15.000Z</time>
      </trkpt>
      <trkpt lat="37.1839884482324123382568359375" lon="-3.6679221689701080322265625">
        <ele>606.4000244140625</ele>
        <time>2019-10-31T07:51:19.000Z</time>
      </trkpt>
      <trkpt lat="37.1840809844434261322021484375" lon="-3.66812744177877902984619140625">
        <ele>606</ele>
        <time>2019-10-31T07:51:23.000Z</time>
      </trkpt>
      <trkpt lat="37.18417863361537456512451171875" lon="-3.6683218181133270263671875">
        <ele>605.5999755859375</ele>
        <time>2019-10-31T07:51:27.000Z</time>
      </trkpt>
      <trkpt lat="37.18427561223506927490234375" lon="-3.66852005012333393096923828125">
        <ele>605.4000244140625</ele>
        <time>2019-10-31T07:51:31.000Z</time>
      </trkpt>
      <trkpt lat="37.18438365496695041656494140625" lon="-3.668729849159717559814453125">
        <ele>605.20001220703125</ele>
        <time>2019-10-31T07:51:35.000Z</time>
      </trkpt>
      <trkpt lat="37.18446244485676288604736328125" lon="-3.668890111148357391357421875">
        <ele>605.79998779296875</ele>
        <time>2019-10-31T07:51:38.000Z</time>
      </trkpt>
      <trkpt lat="37.18457459472119808197021484375" lon="-3.6690958030521869659423828125">
        <ele>606.5999755859375</ele>
        <time>2019-10-31T07:51:42.000Z</time>
      </trkpt>
      <trkpt lat="37.18467350117862224578857421875" lon="-3.6693009920418262481689453125">
        <ele>607</ele>
        <time>2019-10-31T07:51:46.000Z</time>
      </trkpt>
      <trkpt lat="37.18477643094956874847412109375" lon="-3.6694931052625179290771484375">
        <ele>607</ele>
        <time>2019-10-31T07:51:50.000Z</time>
      </trkpt>
      <trkpt lat="37.1848829649388790130615234375" lon="-3.66968664340674877166748046875">
        <ele>607</ele>
        <time>2019-10-31T07:51:54.000Z</time>
      </trkpt>
      <trkpt lat="37.18491003848612308502197265625" lon="-3.6697341687977313995361328125">
        <ele>607</ele>
        <time>2019-10-31T07:51:55.000Z</time>
      </trkpt>
      <trkpt lat="37.185021601617336273193359375" lon="-3.66992913186550140380859375">
        <ele>607</ele>
        <time>2019-10-31T07:51:59.000Z</time>
      </trkpt>
      <trkpt lat="37.1851371042430400848388671875" lon="-3.6701177246868610382080078125">
        <ele>606.4000244140625</ele>
        <time>2019-10-31T07:52:03.000Z</time>
      </trkpt>
      <trkpt lat="37.18525051139295101165771484375" lon="-3.6703088320791721343994140625">
        <ele>605.20001220703125</ele>
        <time>2019-10-31T07:52:07.000Z</time>
      </trkpt>
      <trkpt lat="37.1853620745241641998291015625" lon="-3.67051108740270137786865234375">
        <ele>605</ele>
        <time>2019-10-31T07:52:11.000Z</time>
      </trkpt>
      <trkpt lat="37.1853872202336788177490234375" lon="-3.670562803745269775390625">
        <ele>604.79998779296875</ele>
        <time>2019-10-31T07:52:12.000Z</time>
      </trkpt>
      <trkpt lat="37.18549794517457485198974609375" lon="-3.6707591079175472259521484375">
        <ele>604.4000244140625</ele>
        <time>2019-10-31T07:52:16.000Z</time>
      </trkpt>
      <trkpt lat="37.18560892157256603240966796875" lon="-3.6709512211382389068603515625">
        <ele>604</ele>
        <time>2019-10-31T07:52:20.000Z</time>
      </trkpt>
      <trkpt lat="37.18572107143700122833251953125" lon="-3.6711322702467441558837890625">
        <ele>603.20001220703125</ele>
        <time>2019-10-31T07:52:24.000Z</time>
      </trkpt>
      <trkpt lat="37.18580505810678005218505859375" lon="-3.67126227356493473052978515625">
        <ele>602.79998779296875</ele>
        <time>2019-10-31T07:52:27.000Z</time>
      </trkpt>
      <trkpt lat="37.185905389487743377685546875" lon="-3.67137040011584758758544921875">
        <ele>602.4000244140625</ele>
        <time>2019-10-31T07:52:30.000Z</time>
      </trkpt>
      <trkpt lat="37.1860229037702083587646484375" lon="-3.67151775397360324859619140625">
        <ele>602.20001220703125</ele>
        <time>2019-10-31T07:52:34.000Z</time>
      </trkpt>
      <trkpt lat="37.18607059679925441741943359375" lon="-3.6716023273766040802001953125">
        <ele>602.79998779296875</ele>
        <time>2019-10-31T07:52:36.000Z</time>
      </trkpt>
      <trkpt lat="37.18619565479457378387451171875" lon="-3.67181514389812946319580078125">
        <ele>604</ele>
        <time>2019-10-31T07:52:41.000Z</time>
      </trkpt>
      <trkpt lat="37.18624167144298553466796875" lon="-3.67190751247107982635498046875">
        <ele>603.5999755859375</ele>
        <time>2019-10-31T07:52:43.000Z</time>
      </trkpt>
      <trkpt lat="37.1862720139324665069580078125" lon="-3.67194950580596923828125">
        <ele>603.20001220703125</ele>
        <time>2019-10-31T07:52:44.000Z</time>
      </trkpt>
      <trkpt lat="37.186396233737468719482421875" lon="-3.67211488075554370880126953125">
        <ele>602.79998779296875</ele>
        <time>2019-10-31T07:52:48.000Z</time>
      </trkpt>
      <trkpt lat="37.18651936389505863189697265625" lon="-3.67229039780795574188232421875">
        <ele>602.79998779296875</ele>
        <time>2019-10-31T07:52:52.000Z</time>
      </trkpt>
      <trkpt lat="37.1866398118436336517333984375" lon="-3.6724639870226383209228515625">
        <ele>602.79998779296875</ele>
        <time>2019-10-31T07:52:56.000Z</time>
      </trkpt>
      <trkpt lat="37.18666872940957546234130859375" lon="-3.67250480689108371734619140625">
        <ele>603</ele>
        <time>2019-10-31T07:52:57.000Z</time>
      </trkpt>
      <trkpt lat="37.18681792728602886199951171875" lon="-3.67270496673882007598876953125">
        <ele>604.5999755859375</ele>
        <time>2019-10-31T07:53:02.000Z</time>
      </trkpt>
      <trkpt lat="37.18684843741357326507568359375" lon="-3.67274268530309200286865234375">
        <ele>605</ele>
        <time>2019-10-31T07:53:03.000Z</time>
      </trkpt>
      <trkpt lat="37.1869613416492938995361328125" lon="-3.6728871054947376251220703125">
        <ele>605</ele>
        <time>2019-10-31T07:53:07.000Z</time>
      </trkpt>
      <trkpt lat="37.18710827641189098358154296875" lon="-3.6730792187154293060302734375">
        <ele>604</ele>
        <time>2019-10-31T07:53:12.000Z</time>
      </trkpt>
      <trkpt lat="37.18719276599586009979248046875" lon="-3.67319648154079914093017578125">
        <ele>603.5999755859375</ele>
        <time>2019-10-31T07:53:15.000Z</time>
      </trkpt>
      <trkpt lat="37.187316901981830596923828125" lon="-3.67339647375047206878662109375">
        <ele>603</ele>
        <time>2019-10-31T07:53:20.000Z</time>
      </trkpt>
      <trkpt lat="37.18738856725394725799560546875" lon="-3.6734547279775142669677734375">
        <ele>603</ele>
        <time>2019-10-31T07:53:22.000Z</time>
      </trkpt>
      <trkpt lat="37.187422849237918853759765625" lon="-3.6734906025230884552001953125">
        <ele>603</ele>
        <time>2019-10-31T07:53:23.000Z</time>
      </trkpt>
      <trkpt lat="37.1875745616853237152099609375" lon="-3.673697300255298614501953125">
        <ele>601.20001220703125</ele>
        <time>2019-10-31T07:53:28.000Z</time>
      </trkpt>
      <trkpt lat="37.18770020641386508941650390625" lon="-3.6738701350986957550048828125">
        <ele>600</ele>
        <time>2019-10-31T07:53:32.000Z</time>
      </trkpt>
      <trkpt lat="37.1878315508365631103515625" lon="-3.6740431375801563262939453125">
        <ele>599.4000244140625</ele>
        <time>2019-10-31T07:53:36.000Z</time>
      </trkpt>
      <trkpt lat="37.1879178844392299652099609375" lon="-3.6741695366799831390380859375">
        <ele>599.79998779296875</ele>
        <time>2019-10-31T07:53:39.000Z</time>
      </trkpt>
      <trkpt lat="37.1880489774048328399658203125" lon="-3.6743428744375705718994140625">
        <ele>600.79998779296875</ele>
        <time>2019-10-31T07:53:44.000Z</time>
      </trkpt>
      <trkpt lat="37.1880741231143474578857421875" lon="-3.67437464185059070587158203125">
        <ele>601</ele>
        <time>2019-10-31T07:53:45.000Z</time>
      </trkpt>
      <trkpt lat="37.1882112510502338409423828125" lon="-3.67454345338046550750732421875">
        <ele>603</ele>
        <time>2019-10-31T07:53:50.000Z</time>
      </trkpt>
      <trkpt lat="37.18835734762251377105712890625" lon="-3.6747287772595882415771484375">
        <ele>602.5999755859375</ele>
        <time>2019-10-31T07:53:55.000Z</time>
      </trkpt>
      <trkpt lat="37.18839037232100963592529296875" lon="-3.67476339451968669891357421875">
        <ele>602.4000244140625</ele>
        <time>2019-10-31T07:53:56.000Z</time>
      </trkpt>
      <trkpt lat="37.18852314166724681854248046875" lon="-3.674915693700313568115234375">
        <ele>601.4000244140625</ele>
        <time>2019-10-31T07:54:00.000Z</time>
      </trkpt>
      <trkpt lat="37.18858483247458934783935546875" lon="-3.6750005185604095458984375">
        <ele>601</ele>
        <time>2019-10-31T07:54:02.000Z</time>
      </trkpt>
      <trkpt lat="37.1887114830315113067626953125" lon="-3.67516723461449146270751953125">
        <ele>600.20001220703125</ele>
        <time>2019-10-31T07:54:06.000Z</time>
      </trkpt>
      <trkpt lat="37.1888502873480319976806640625" lon="-3.67532799951732158660888671875">
        <ele>599.20001220703125</ele>
        <time>2019-10-31T07:54:10.000Z</time>
      </trkpt>
      <trkpt lat="37.1889820508658885955810546875" lon="-3.67548272944986820220947265625">
        <ele>600</ele>
        <time>2019-10-31T07:54:14.000Z</time>
      </trkpt>
      <trkpt lat="37.18914809636771678924560546875" lon="-3.67566235363483428955078125">
        <ele>601</ele>
        <time>2019-10-31T07:54:19.000Z</time>
      </trkpt>
      <trkpt lat="37.189294360578060150146484375" lon="-3.6758294887840747833251953125">
        <ele>602</ele>
        <time>2019-10-31T07:54:24.000Z</time>
      </trkpt>
      <trkpt lat="37.18940667808055877685546875" lon="-3.67598245851695537567138671875">
        <ele>601.79998779296875</ele>
        <time>2019-10-31T07:54:29.000Z</time>
      </trkpt>
      <trkpt lat="37.18954204581677913665771484375" lon="-3.67615629918873310089111328125">
        <ele>601.4000244140625</ele>
        <time>2019-10-31T07:54:34.000Z</time>
      </trkpt>
      <trkpt lat="37.18970515765249729156494140625" lon="-3.67632611654698848724365234375">
        <ele>602.20001220703125</ele>
        <time>2019-10-31T07:54:39.000Z</time>
      </trkpt>
      <trkpt lat="37.1897374279797077178955078125" lon="-3.6763568781316280364990234375">
        <ele>602.4000244140625</ele>
        <time>2019-10-31T07:54:40.000Z</time>
      </trkpt>
      <trkpt lat="37.18989592976868152618408203125" lon="-3.67647707462310791015625">
        <ele>603.20001220703125</ele>
        <time>2019-10-31T07:54:45.000Z</time>
      </trkpt>
      <trkpt lat="37.1899436227977275848388671875" lon="-3.67651135660707950592041015625">
        <ele>603.4000244140625</ele>
        <time>2019-10-31T07:54:47.000Z</time>
      </trkpt>
      <trkpt lat="37.19005065970122814178466796875" lon="-3.67635444737970829010009765625">
        <ele>602.79998779296875</ele>
        <time>2019-10-31T07:54:54.000Z</time>
      </trkpt>
      <trkpt lat="37.1900556050240993499755859375" lon="-3.67632410489022731781005859375">
        <ele>602.5999755859375</ele>
        <time>2019-10-31T07:54:55.000Z</time>
      </trkpt>
      <trkpt lat="37.19009860418736934661865234375" lon="-3.67622385732829570770263671875">
        <ele>602.20001220703125</ele>
        <time>2019-10-31T07:54:59.000Z</time>
      </trkpt>
      <trkpt lat="37.1902011148631572723388671875" lon="-3.67631622590124607086181640625">
        <ele>603.20001220703125</ele>
        <time>2019-10-31T07:55:12.000Z</time>
      </trkpt>
      <trkpt lat="37.19016582705080509185791015625" lon="-3.6764152161777019500732421875">
        <ele>603.79998779296875</ele>
        <time>2019-10-31T07:55:43.000Z</time>
      </trkpt>
      <trkpt lat="37.19008862972259521484375" lon="-3.6766341514885425567626953125">
        <ele>603.5999755859375</ele>
        <time>2019-10-31T07:55:50.000Z</time>
      </trkpt>
      <trkpt lat="37.19007111154496669769287109375" lon="-3.676662482321262359619140625">
        <ele>603.5999755859375</ele>
        <time>2019-10-31T07:55:51.000Z</time>
      </trkpt>
      <trkpt lat="37.189930044114589691162109375" lon="-3.6768319644033908843994140625">
        <ele>603.5999755859375</ele>
        <time>2019-10-31T07:55:58.000Z</time>
      </trkpt>
      <trkpt lat="37.18978512100875377655029296875" lon="-3.67700521834194660186767578125">
        <ele>603.4000244140625</ele>
        <time>2019-10-31T07:56:04.000Z</time>
      </trkpt>
      <trkpt lat="37.18967615626752376556396484375" lon="-3.677212335169315338134765625">
        <ele>603</ele>
        <time>2019-10-31T07:56:09.000Z</time>
      </trkpt>
      <trkpt lat="37.1897062472999095916748046875" lon="-3.67741693742573261260986328125">
        <ele>602.20001220703125</ele>
        <time>2019-10-31T07:56:12.000Z</time>
      </trkpt>
      <trkpt lat="37.18977791257202625274658203125" lon="-3.677634112536907196044921875">
        <ele>601.20001220703125</ele>
        <time>2019-10-31T07:56:15.000Z</time>
      </trkpt>
      <trkpt lat="37.1898614801466464996337890625" lon="-3.677855394780635833740234375">
        <ele>601</ele>
        <time>2019-10-31T07:56:18.000Z</time>
      </trkpt>
      <trkpt lat="37.18994454480707645416259765625" lon="-3.6780667863786220550537109375">
        <ele>601</ele>
        <time>2019-10-31T07:56:21.000Z</time>
      </trkpt>
      <trkpt lat="37.1900261007249355316162109375" lon="-3.6782770045101642608642578125">
        <ele>601</ele>
        <time>2019-10-31T07:56:24.000Z</time>
      </trkpt>
      <trkpt lat="37.19005040824413299560546875" lon="-3.67834498174488544464111328125">
        <ele>601</ele>
        <time>2019-10-31T07:56:25.000Z</time>
      </trkpt>
      <trkpt lat="37.19011838547885417938232421875" lon="-3.67850624956190586090087890625">
        <ele>600.79998779296875</ele>
        <time>2019-10-31T07:56:28.000Z</time>
      </trkpt>
      <trkpt lat="37.19016012735664844512939453125" lon="-3.678602389991283416748046875">
        <ele>600.4000244140625</ele>
        <time>2019-10-31T07:56:30.000Z</time>
      </trkpt>
      <trkpt lat="37.1901887096464633941650390625" lon="-3.67870791815221309661865234375">
        <ele>599.79998779296875</ele>
        <time>2019-10-31T07:56:32.000Z</time>
      </trkpt>
      <trkpt lat="37.19021813012659549713134765625" lon="-3.67882224731147289276123046875">
        <ele>599.4000244140625</ele>
        <time>2019-10-31T07:56:34.000Z</time>
      </trkpt>
      <trkpt lat="37.19027713872492313385009765625" lon="-3.67900983430445194244384765625">
        <ele>599.20001220703125</ele>
        <time>2019-10-31T07:56:37.000Z</time>
      </trkpt>
      <trkpt lat="37.1903727762401103973388671875" lon="-3.67927101440727710723876953125">
        <ele>599.4000244140625</ele>
        <time>2019-10-31T07:56:41.000Z</time>
      </trkpt>
      <trkpt lat="37.19045533798635005950927734375" lon="-3.67954485118389129638671875">
        <ele>600</ele>
        <time>2019-10-31T07:56:45.000Z</time>
      </trkpt>
      <trkpt lat="37.1905410848557949066162109375" lon="-3.679821453988552093505859375">
        <ele>600.20001220703125</ele>
        <time>2019-10-31T07:56:49.000Z</time>
      </trkpt>
      <trkpt lat="37.190577127039432525634765625" lon="-3.67995900101959705352783203125">
        <ele>600.4000244140625</ele>
        <time>2019-10-31T07:56:51.000Z</time>
      </trkpt>
      <trkpt lat="37.19066538847982883453369140625" lon="-3.68023359216749668121337890625">
        <ele>599.5999755859375</ele>
        <time>2019-10-31T07:56:55.000Z</time>
      </trkpt>
      <trkpt lat="37.19074375927448272705078125" lon="-3.68044833652675151824951171875">
        <ele>599</ele>
        <time>2019-10-31T07:56:58.000Z</time>
      </trkpt>
      <trkpt lat="37.1908126585185527801513671875" lon="-3.68067431263625621795654296875">
        <ele>598.79998779296875</ele>
        <time>2019-10-31T07:57:01.000Z</time>
      </trkpt>
      <trkpt lat="37.1908857487142086029052734375" lon="-3.68090204894542694091796875">
        <ele>598</ele>
        <time>2019-10-31T07:57:04.000Z</time>
      </trkpt>
      <trkpt lat="37.1909491159021854400634765625" lon="-3.68113196454942226409912109375">
        <ele>597.4000244140625</ele>
        <time>2019-10-31T07:57:07.000Z</time>
      </trkpt>
      <trkpt lat="37.19100854359567165374755859375" lon="-3.6813612096011638641357421875">
        <ele>597</ele>
        <time>2019-10-31T07:57:10.000Z</time>
      </trkpt>
      <trkpt lat="37.1910758502781391143798828125" lon="-3.68157955817878246307373046875">
        <ele>596.4000244140625</ele>
        <time>2019-10-31T07:57:13.000Z</time>
      </trkpt>
      <trkpt lat="37.19114005565643310546875" lon="-3.6817910335958003997802734375">
        <ele>596</ele>
        <time>2019-10-31T07:57:16.000Z</time>
      </trkpt>
      <trkpt lat="37.19120535068213939666748046875" lon="-3.6820072866976261138916015625">
        <ele>595.4000244140625</ele>
        <time>2019-10-31T07:57:19.000Z</time>
      </trkpt>
      <trkpt lat="37.191271148622035980224609375" lon="-3.68222462944686412811279296875">
        <ele>594.4000244140625</ele>
        <time>2019-10-31T07:57:22.000Z</time>
      </trkpt>
      <trkpt lat="37.191335521638393402099609375" lon="-3.68244574405252933502197265625">
        <ele>593.79998779296875</ele>
        <time>2019-10-31T07:57:25.000Z</time>
      </trkpt>
      <trkpt lat="37.19139687716960906982421875" lon="-3.68266166187822818756103515625">
        <ele>594.4000244140625</ele>
        <time>2019-10-31T07:57:28.000Z</time>
      </trkpt>
      <trkpt lat="37.1914731524884700775146484375" lon="-3.682930134236812591552734375">
        <ele>594</ele>
        <time>2019-10-31T07:57:32.000Z</time>
      </trkpt>
      <trkpt lat="37.19154163263738155364990234375" lon="-3.6831774003803730010986328125">
        <ele>593.79998779296875</ele>
        <time>2019-10-31T07:57:36.000Z</time>
      </trkpt>
      <trkpt lat="37.19161145389080047607421875" lon="-3.683430366218090057373046875">
        <ele>594.20001220703125</ele>
        <time>2019-10-31T07:57:40.000Z</time>
      </trkpt>
      <trkpt lat="37.19166467897593975067138671875" lon="-3.68366581387817859649658203125">
        <ele>594.5999755859375</ele>
        <time>2019-10-31T07:57:44.000Z</time>
      </trkpt>
      <trkpt lat="37.191727459430694580078125" lon="-3.6839347891509532928466796875">
        <ele>596</ele>
        <time>2019-10-31T07:57:49.000Z</time>
      </trkpt>
      <trkpt lat="37.19178152270615100860595703125" lon="-3.68416805751621723175048828125">
        <ele>596</ele>
        <time>2019-10-31T07:57:54.000Z</time>
      </trkpt>
      <trkpt lat="37.19180314801633358001708984375" lon="-3.684237040579319000244140625">
        <ele>595.79998779296875</ele>
        <time>2019-10-31T07:58:02.000Z</time>
      </trkpt>
      <trkpt lat="37.19172150827944278717041015625" lon="-3.6841121502220630645751953125">
        <ele>595.79998779296875</ele>
        <time>2019-10-31T07:58:27.000Z</time>
      </trkpt>
      <trkpt lat="37.19168119132518768310546875" lon="-3.68387485854327678680419921875">
        <ele>595.4000244140625</ele>
        <time>2019-10-31T07:58:33.000Z</time>
      </trkpt>
      <trkpt lat="37.19164707697927951812744140625" lon="-3.68363144807517528533935546875">
        <ele>594.4000244140625</ele>
        <time>2019-10-31T07:58:38.000Z</time>
      </trkpt>
      <trkpt lat="37.1915975399315357208251953125" lon="-3.68341393768787384033203125">
        <ele>594</ele>
        <time>2019-10-31T07:58:42.000Z</time>
      </trkpt>
      <trkpt lat="37.19154465012252330780029296875" lon="-3.68318720720708370208740234375">
        <ele>593.79998779296875</ele>
        <time>2019-10-31T07:58:46.000Z</time>
      </trkpt>
      <trkpt lat="37.19148128293454647064208984375" lon="-3.68296257220208644866943359375">
        <ele>594</ele>
        <time>2019-10-31T07:58:50.000Z</time>
      </trkpt>
      <trkpt lat="37.19141992740333080291748046875" lon="-3.682736344635486602783203125">
        <ele>594.5999755859375</ele>
        <time>2019-10-31T07:58:54.000Z</time>
      </trkpt>
      <trkpt lat="37.19134532846510410308837890625" lon="-3.68250525556504726409912109375">
        <ele>593.79998779296875</ele>
        <time>2019-10-31T07:58:58.000Z</time>
      </trkpt>
      <trkpt lat="37.1912746690213680267333984375" lon="-3.68229134939610958099365234375">
        <ele>594.20001220703125</ele>
        <time>2019-10-31T07:59:02.000Z</time>
      </trkpt>
      <trkpt lat="37.191202081739902496337890625" lon="-3.682078532874584197998046875">
        <ele>595.4000244140625</ele>
        <time>2019-10-31T07:59:06.000Z</time>
      </trkpt>
      <trkpt lat="37.19113293103873729705810546875" lon="-3.68186236359179019927978515625">
        <ele>596</ele>
        <time>2019-10-31T07:59:10.000Z</time>
      </trkpt>
      <trkpt lat="37.19105263240635395050048828125" lon="-3.68161811493337154388427734375">
        <ele>596.4000244140625</ele>
        <time>2019-10-31T07:59:15.000Z</time>
      </trkpt>
      <trkpt lat="37.19097870402038097381591796875" lon="-3.68137520737946033477783203125">
        <ele>597</ele>
        <time>2019-10-31T07:59:21.000Z</time>
      </trkpt>
      <trkpt lat="37.19094299711287021636962890625" lon="-3.6812807433307170867919921875">
        <ele>597</ele>
        <time>2019-10-31T07:59:24.000Z</time>
      </trkpt>
      <trkpt lat="37.19090242870151996612548828125" lon="-3.68115124292671680450439453125">
        <ele>597.4000244140625</ele>
        <time>2019-10-31T07:59:32.000Z</time>
      </trkpt>
      <trkpt lat="37.1909092180430889129638671875" lon="-3.68113808333873748779296875">
        <ele>597.5999755859375</ele>
        <time>2019-10-31T07:59:33.000Z</time>
      </trkpt>
      <trkpt lat="37.1910778619349002838134765625" lon="-3.681028448045253753662109375">
        <ele>597.4000244140625</ele>
        <time>2019-10-31T07:59:43.000Z</time>
      </trkpt>
      <trkpt lat="37.19127609394490718841552734375" lon="-3.68094840086996555328369140625">
        <ele>597.79998779296875</ele>
        <time>2019-10-31T07:59:50.000Z</time>
      </trkpt>
      <trkpt lat="37.1914533711969852447509765625" lon="-3.68089978583157062530517578125">
        <ele>597.4000244140625</ele>
        <time>2019-10-31T07:59:55.000Z</time>
      </trkpt>
      <trkpt lat="37.19164875335991382598876953125" lon="-3.68089090101420879364013671875">
        <ele>597.20001220703125</ele>
        <time>2019-10-31T08:00:00.000Z</time>
      </trkpt>
      <trkpt lat="37.1918463148176670074462890625" lon="-3.6809659190475940704345703125">
        <ele>598.20001220703125</ele>
        <time>2019-10-31T08:00:05.000Z</time>
      </trkpt>
      <trkpt lat="37.192012779414653778076171875" lon="-3.6811454594135284423828125">
        <ele>599.5999755859375</ele>
        <time>2019-10-31T08:00:10.000Z</time>
      </trkpt>
      <trkpt lat="37.192115373909473419189453125" lon="-3.68135173805058002471923828125">
        <ele>601.20001220703125</ele>
        <time>2019-10-31T08:00:14.000Z</time>
      </trkpt>
      <trkpt lat="37.19223012216389179229736328125" lon="-3.68158400058746337890625">
        <ele>600.20001220703125</ele>
        <time>2019-10-31T08:00:18.000Z</time>
      </trkpt>
      <trkpt lat="37.192337997257709503173828125" lon="-3.6818510480225086212158203125">
        <ele>599</ele>
        <time>2019-10-31T08:00:22.000Z</time>
      </trkpt>
      <trkpt lat="37.1924424357712268829345703125" lon="-3.68204022757709026336669921875">
        <ele>597.79998779296875</ele>
        <time>2019-10-31T08:00:25.000Z</time>
      </trkpt>
      <trkpt lat="37.19256632030010223388671875" lon="-3.68224441073834896087646484375">
        <ele>596.5999755859375</ele>
        <time>2019-10-31T08:00:29.000Z</time>
      </trkpt>
      <trkpt lat="37.1927042864263057708740234375" lon="-3.68243283592164516448974609375">
        <ele>596.5999755859375</ele>
        <time>2019-10-31T08:00:33.000Z</time>
      </trkpt>
      <trkpt lat="37.19282783567905426025390625" lon="-3.682616315782070159912109375">
        <ele>597</ele>
        <time>2019-10-31T08:00:37.000Z</time>
      </trkpt>
      <trkpt lat="37.192936800420284271240234375" lon="-3.68280147202312946319580078125">
        <ele>596.20001220703125</ele>
        <time>2019-10-31T08:00:41.000Z</time>
      </trkpt>
      <trkpt lat="37.19303545542061328887939453125" lon="-3.68299073539674282073974609375">
        <ele>594.5999755859375</ele>
        <time>2019-10-31T08:00:45.000Z</time>
      </trkpt>
      <trkpt lat="37.1931398101150989532470703125" lon="-3.68317983113229274749755859375">
        <ele>593.4000244140625</ele>
        <time>2019-10-31T08:00:49.000Z</time>
      </trkpt>
      <trkpt lat="37.19324450008571147918701171875" lon="-3.683370016515254974365234375">
        <ele>593</ele>
        <time>2019-10-31T08:00:53.000Z</time>
      </trkpt>
      <trkpt lat="37.19335086643695831298828125" lon="-3.68355835787951946258544921875">
        <ele>593.5999755859375</ele>
        <time>2019-10-31T08:00:57.000Z</time>
      </trkpt>
      <trkpt lat="37.1934556402266025543212890625" lon="-3.68374393321573734283447265625">
        <ele>594.20001220703125</ele>
        <time>2019-10-31T08:01:01.000Z</time>
      </trkpt>
      <trkpt lat="37.1935634315013885498046875" lon="-3.6839314363896846771240234375">
        <ele>594</ele>
        <time>2019-10-31T08:01:05.000Z</time>
      </trkpt>
      <trkpt lat="37.19367248006165027618408203125" lon="-3.68415699340403079986572265625">
        <ele>594.4000244140625</ele>
        <time>2019-10-31T08:01:10.000Z</time>
      </trkpt>
      <trkpt lat="37.19373442232608795166015625" lon="-3.68436905555427074432373046875">
        <ele>594.79998779296875</ele>
        <time>2019-10-31T08:01:14.000Z</time>
      </trkpt>
      <trkpt lat="37.19374976120889186859130859375" lon="-3.68462738581001758575439453125">
        <ele>596.79998779296875</ele>
        <time>2019-10-31T08:01:18.000Z</time>
      </trkpt>
      <trkpt lat="37.19372897408902645111083984375" lon="-3.6849064193665981292724609375">
        <ele>598.4000244140625</ele>
        <time>2019-10-31T08:01:22.000Z</time>
      </trkpt>
      <trkpt lat="37.1936501003801822662353515625" lon="-3.68517883121967315673828125">
        <ele>597.79998779296875</ele>
        <time>2019-10-31T08:01:26.000Z</time>
      </trkpt>
      <trkpt lat="37.1936226077377796173095703125" lon="-3.68524513207376003265380859375">
        <ele>597.5999755859375</ele>
        <time>2019-10-31T08:01:27.000Z</time>
      </trkpt>
      <trkpt lat="37.19352780841290950775146484375" lon="-3.685440681874752044677734375">
        <ele>597</ele>
        <time>2019-10-31T08:01:30.000Z</time>
      </trkpt>
      <trkpt lat="37.19342236407101154327392578125" lon="-3.6856309510767459869384765625">
        <ele>595.79998779296875</ele>
        <time>2019-10-31T08:01:33.000Z</time>
      </trkpt>
      <trkpt lat="37.193314991891384124755859375" lon="-3.68581359274685382843017578125">
        <ele>594.79998779296875</ele>
        <time>2019-10-31T08:01:36.000Z</time>
      </trkpt>
      <trkpt lat="37.19320359639823436737060546875" lon="-3.6859907023608684539794921875">
        <ele>594.20001220703125</ele>
        <time>2019-10-31T08:01:39.000Z</time>
      </trkpt>
      <trkpt lat="37.19306998886168003082275390625" lon="-3.686152137815952301025390625">
        <ele>594.4000244140625</ele>
        <time>2019-10-31T08:01:43.000Z</time>
      </trkpt>
      <trkpt lat="37.19303528778254985809326171875" lon="-3.68618709035217761993408203125">
        <ele>594.4000244140625</ele>
        <time>2019-10-31T08:01:45.000Z</time>
      </trkpt>
      <trkpt lat="37.19302707351744174957275390625" lon="-3.68619429878890514373779296875">
        <ele>594.4000244140625</ele>
        <time>2019-10-31T08:01:48.000Z</time>
      </trkpt>
      <trkpt lat="37.19302137382328510284423828125" lon="-3.68619270622730255126953125">
        <ele>594.4000244140625</ele>
        <time>2019-10-31T08:01:51.000Z</time>
      </trkpt>
      <trkpt lat="37.193033359944820404052734375" lon="-3.686259426176548004150390625">
        <ele>595</ele>
        <time>2019-10-31T08:02:22.000Z</time>
      </trkpt>
      <trkpt lat="37.19288541935384273529052734375" lon="-3.68641206063330173492431640625">
        <ele>595.4000244140625</ele>
        <time>2019-10-31T08:02:27.000Z</time>
      </trkpt>
      <trkpt lat="37.19275533221662044525146484375" lon="-3.6865955404937267303466796875">
        <ele>595.20001220703125</ele>
        <time>2019-10-31T08:02:32.000Z</time>
      </trkpt>
      <trkpt lat="37.19269506633281707763671875" lon="-3.68681455962359905242919921875">
        <ele>595.4000244140625</ele>
        <time>2019-10-31T08:02:37.000Z</time>
      </trkpt>
      <trkpt lat="37.19273253343999385833740234375" lon="-3.68706165812909603118896484375">
        <ele>596.20001220703125</ele>
        <time>2019-10-31T08:02:42.000Z</time>
      </trkpt>
      <trkpt lat="37.1927748620510101318359375" lon="-3.6873261071741580963134765625">
        <ele>597.5999755859375</ele>
        <time>2019-10-31T08:02:47.000Z</time>
      </trkpt>
      <trkpt lat="37.1928216330707073211669921875" lon="-3.6875437013804912567138671875">
        <ele>599.4000244140625</ele>
        <time>2019-10-31T08:02:51.000Z</time>
      </trkpt>
      <trkpt lat="37.1928709186613559722900390625" lon="-3.68777076713740825653076171875">
        <ele>600.4000244140625</ele>
        <time>2019-10-31T08:02:55.000Z</time>
      </trkpt>
      <trkpt lat="37.1929185278713703155517578125" lon="-3.6880254931747913360595703125">
        <ele>600.79998779296875</ele>
        <time>2019-10-31T08:03:00.000Z</time>
      </trkpt>
      <trkpt lat="37.19291894696652889251708984375" lon="-3.68830067105591297149658203125">
        <ele>599</ele>
        <time>2019-10-31T08:03:05.000Z</time>
      </trkpt>
      <trkpt lat="37.19294023700058460235595703125" lon="-3.688532598316669464111328125">
        <ele>596.4000244140625</ele>
        <time>2019-10-31T08:03:09.000Z</time>
      </trkpt>
      <trkpt lat="37.19296320341527462005615234375" lon="-3.68873954750597476959228515625">
        <ele>594.20001220703125</ele>
        <time>2019-10-31T08:03:14.000Z</time>
      </trkpt>
      <trkpt lat="37.19296337105333805084228515625" lon="-3.6888029985129833221435546875">
        <ele>593.4000244140625</ele>
        <time>2019-10-31T08:03:17.000Z</time>
      </trkpt>
      <trkpt lat="37.192975021898746490478515625" lon="-3.688796125352382659912109375">
        <ele>593.5999755859375</ele>
        <time>2019-10-31T08:03:21.000Z</time>
      </trkpt>
      <trkpt lat="37.19305171631276607513427734375" lon="-3.6886782757937908172607421875">
        <ele>594.20001220703125</ele>
        <time>2019-10-31T08:03:35.000Z</time>
      </trkpt>
      <trkpt lat="37.1930690668523311614990234375" lon="-3.6886732466518878936767578125">
        <ele>594.20001220703125</ele>
        <time>2019-10-31T08:03:37.000Z</time>
      </trkpt>
      <trkpt lat="37.19306697137653827667236328125" lon="-3.6886682175099849700927734375">
        <ele>594.20001220703125</ele>
        <time>2019-10-31T08:03:41.000Z</time>
      </trkpt>
      <trkpt lat="37.19316001050174236297607421875" lon="-3.68866930715739727020263671875">
        <ele>593.5999755859375</ele>
        <time>2019-10-31T08:03:55.000Z</time>
      </trkpt>
      <trkpt lat="37.1932876668870449066162109375" lon="-3.68885840289294719696044921875">
        <ele>592.20001220703125</ele>
        <time>2019-10-31T08:04:01.000Z</time>
      </trkpt>
      <trkpt lat="37.19330518506467342376708984375" lon="-3.68890852667391300201416015625">
        <ele>592</ele>
        <time>2019-10-31T08:04:02.000Z</time>
      </trkpt>
      <trkpt lat="37.1933408081531524658203125" lon="-3.6891250312328338623046875">
        <ele>591</ele>
        <time>2019-10-31T08:04:06.000Z</time>
      </trkpt>
      <trkpt lat="37.1933470107614994049072265625" lon="-3.68918110616505146026611328125">
        <ele>591</ele>
        <time>2019-10-31T08:04:07.000Z</time>
      </trkpt>
      <trkpt lat="37.1933691389858722686767578125" lon="-3.68935494683682918548583984375">
        <ele>591</ele>
        <time>2019-10-31T08:04:10.000Z</time>
      </trkpt>
      <trkpt lat="37.1934422291815280914306640625" lon="-3.689617216587066650390625">
        <ele>591</ele>
        <time>2019-10-31T08:04:14.000Z</time>
      </trkpt>
      <trkpt lat="37.19347986392676830291748046875" lon="-3.68989817798137664794921875">
        <ele>591</ele>
        <time>2019-10-31T08:04:18.000Z</time>
      </trkpt>
      <trkpt lat="37.19349746592342853546142578125" lon="-3.6901764571666717529296875">
        <ele>591.20001220703125</ele>
        <time>2019-10-31T08:04:22.000Z</time>
      </trkpt>
      <trkpt lat="37.19350785948336124420166015625" lon="-3.690450377762317657470703125">
        <ele>591.20001220703125</ele>
        <time>2019-10-31T08:04:26.000Z</time>
      </trkpt>
      <trkpt lat="37.1935052610933780670166015625" lon="-3.69072589091956615447998046875">
        <ele>590.5999755859375</ele>
        <time>2019-10-31T08:04:30.000Z</time>
      </trkpt>
      <trkpt lat="37.19348237849771976470947265625" lon="-3.6910020746290683746337890625">
        <ele>590</ele>
        <time>2019-10-31T08:04:34.000Z</time>
      </trkpt>
      <trkpt lat="37.1934583224356174468994140625" lon="-3.6912863887846469879150390625">
        <ele>590.4000244140625</ele>
        <time>2019-10-31T08:04:38.000Z</time>
      </trkpt>
      <trkpt lat="37.1934335120022296905517578125" lon="-3.6915341578423976898193359375">
        <ele>591.5999755859375</ele>
        <time>2019-10-31T08:04:42.000Z</time>
      </trkpt>
      <trkpt lat="37.1934321708977222442626953125" lon="-3.69157497771084308624267578125">
        <ele>592</ele>
        <time>2019-10-31T08:04:43.000Z</time>
      </trkpt>
      <trkpt lat="37.1934315003454685211181640625" lon="-3.691644966602325439453125">
        <ele>592.79998779296875</ele>
        <time>2019-10-31T08:04:47.000Z</time>
      </trkpt>
      <trkpt lat="37.19343560747802257537841796875" lon="-3.69163532741367816925048828125">
        <ele>592.79998779296875</ele>
        <time>2019-10-31T08:04:50.000Z</time>
      </trkpt>
      <trkpt lat="37.1935032494366168975830078125" lon="-3.691680170595645904541015625">
        <ele>594.20001220703125</ele>
        <time>2019-10-31T08:05:20.000Z</time>
      </trkpt>
      <trkpt lat="37.19366644509136676788330078125" lon="-3.691879324615001678466796875">
        <ele>597</ele>
        <time>2019-10-31T08:05:28.000Z</time>
      </trkpt>
      <trkpt lat="37.19377423636615276336669921875" lon="-3.69207621552050113677978515625">
        <ele>597.5999755859375</ele>
        <time>2019-10-31T08:05:32.000Z</time>
      </trkpt>
      <trkpt lat="37.1938435547053813934326171875" lon="-3.69229079224169254302978515625">
        <ele>598</ele>
        <time>2019-10-31T08:05:36.000Z</time>
      </trkpt>
      <trkpt lat="37.19388823024928569793701171875" lon="-3.69251978583633899688720703125">
        <ele>597.4000244140625</ele>
        <time>2019-10-31T08:05:40.000Z</time>
      </trkpt>
      <trkpt lat="37.19391471706330776214599609375" lon="-3.6927716620266437530517578125">
        <ele>596.4000244140625</ele>
        <time>2019-10-31T08:05:45.000Z</time>
      </trkpt>
      <trkpt lat="37.193915136158466339111328125" lon="-3.6927837319672107696533203125">
        <ele>596.4000244140625</ele>
        <time>2019-10-31T08:05:47.000Z</time>
      </trkpt>
      <trkpt lat="37.19391572289168834686279296875" lon="-3.692779205739498138427734375">
        <ele>596.4000244140625</ele>
        <time>2019-10-31T08:05:49.000Z</time>
      </trkpt>
      <trkpt lat="37.1939176507294178009033203125" lon="-3.69266328401863574981689453125">
        <ele>597</ele>
        <time>2019-10-31T08:07:09.000Z</time>
      </trkpt>
      <trkpt lat="37.19391505233943462371826171875" lon="-3.692635037004947662353515625">
        <ele>597.20001220703125</ele>
        <time>2019-10-31T08:07:10.000Z</time>
      </trkpt>
      <trkpt lat="37.193867526948451995849609375" lon="-3.6923934705555438995361328125">
        <ele>597.5999755859375</ele>
        <time>2019-10-31T08:07:17.000Z</time>
      </trkpt>
      <trkpt lat="37.19380575232207775115966796875" lon="-3.69213690049946308135986328125">
        <ele>598</ele>
        <time>2019-10-31T08:07:23.000Z</time>
      </trkpt>
      <trkpt lat="37.193706594407558441162109375" lon="-3.69193221442401409149169921875">
        <ele>597.20001220703125</ele>
        <time>2019-10-31T08:07:28.000Z</time>
      </trkpt>
      <trkpt lat="37.1935607492923736572265625" lon="-3.6917440406978130340576171875">
        <ele>595.4000244140625</ele>
        <time>2019-10-31T08:07:34.000Z</time>
      </trkpt>
      <trkpt lat="37.19351976178586483001708984375" lon="-3.69170841760933399200439453125">
        <ele>594.79998779296875</ele>
        <time>2019-10-31T08:07:36.000Z</time>
      </trkpt>
      <trkpt lat="37.19348086975514888763427734375" lon="-3.691842444241046905517578125">
        <ele>594.79998779296875</ele>
        <time>2019-10-31T08:07:43.000Z</time>
      </trkpt>
      <trkpt lat="37.19358882866799831390380859375" lon="-3.692036233842372894287109375">
        <ele>596.4000244140625</ele>
        <time>2019-10-31T08:07:49.000Z</time>
      </trkpt>
      <trkpt lat="37.19367113895714282989501953125" lon="-3.69226790964603424072265625">
        <ele>596.5999755859375</ele>
        <time>2019-10-31T08:07:55.000Z</time>
      </trkpt>
      <trkpt lat="37.19368077814579010009765625" lon="-3.69235575199127197265625">
        <ele>596.4000244140625</ele>
        <time>2019-10-31T08:07:59.000Z</time>
      </trkpt>
      <trkpt lat="37.19365471042692661285400390625" lon="-3.69231074117124080657958984375">
        <ele>596.20001220703125</ele>
        <time>2019-10-31T08:08:08.000Z</time>
      </trkpt>
      <trkpt lat="37.1936519443988800048828125" lon="-3.6922980844974517822265625">
        <ele>596.20001220703125</ele>
        <time>2019-10-31T08:08:09.000Z</time>
      </trkpt>
      <trkpt lat="37.1936276368796825408935546875" lon="-3.69228123687207698822021484375">
        <ele>596</ele>
        <time>2019-10-31T08:08:15.000Z</time>
      </trkpt>
      <trkpt lat="37.1935760043561458587646484375" lon="-3.692353405058383941650390625">
        <ele>595.20001220703125</ele>
        <time>2019-10-31T08:08:21.000Z</time>
      </trkpt>
      <trkpt lat="37.19355111010372638702392578125" lon="-3.69236153550446033477783203125">
        <ele>595</ele>
        <time>2019-10-31T08:08:22.000Z</time>
      </trkpt>
      <trkpt lat="37.19343057833611965179443359375" lon="-3.69229347445070743560791015625">
        <ele>593.5999755859375</ele>
        <time>2019-10-31T08:08:26.000Z</time>
      </trkpt>
      <trkpt lat="37.1932615153491497039794921875" lon="-3.6921988427639007568359375">
        <ele>591.4000244140625</ele>
        <time>2019-10-31T08:08:31.000Z</time>
      </trkpt>
      <trkpt lat="37.19303679652512073516845703125" lon="-3.69223228655755519866943359375">
        <ele>590.4000244140625</ele>
        <time>2019-10-31T08:08:36.000Z</time>
      </trkpt>
      <trkpt lat="37.19289128668606281280517578125" lon="-3.69237746112048625946044921875">
        <ele>589.4000244140625</ele>
        <time>2019-10-31T08:08:40.000Z</time>
      </trkpt>
      <trkpt lat="37.192789614200592041015625" lon="-3.6925855837762355804443359375">
        <ele>588.20001220703125</ele>
        <time>2019-10-31T08:08:44.000Z</time>
      </trkpt>
      <trkpt lat="37.192773856222629547119140625" lon="-3.69284852407872676849365234375">
        <ele>587.20001220703125</ele>
        <time>2019-10-31T08:08:48.000Z</time>
      </trkpt>
      <trkpt lat="37.19277947209775447845458984375" lon="-3.69307458400726318359375">
        <ele>586.79998779296875</ele>
        <time>2019-10-31T08:08:51.000Z</time>
      </trkpt>
      <trkpt lat="37.1927971579134464263916015625" lon="-3.69330567307770252227783203125">
        <ele>588.4000244140625</ele>
        <time>2019-10-31T08:08:54.000Z</time>
      </trkpt>
      <trkpt lat="37.192802019417285919189453125" lon="-3.69353936053812503814697265625">
        <ele>589.4000244140625</ele>
        <time>2019-10-31T08:08:57.000Z</time>
      </trkpt>
      <trkpt lat="37.19280092976987361907958984375" lon="-3.6937778256833553314208984375">
        <ele>590.4000244140625</ele>
        <time>2019-10-31T08:09:00.000Z</time>
      </trkpt>
      <trkpt lat="37.19281702302396297454833984375" lon="-3.6940450407564640045166015625">
        <ele>590.5999755859375</ele>
        <time>2019-10-31T08:09:03.000Z</time>
      </trkpt>
      <trkpt lat="37.1928427554666996002197265625" lon="-3.69431569240987300872802734375">
        <ele>590.4000244140625</ele>
        <time>2019-10-31T08:09:06.000Z</time>
      </trkpt>
      <trkpt lat="37.1928648836910724639892578125" lon="-3.6945932172238826751708984375">
        <ele>591</ele>
        <time>2019-10-31T08:09:09.000Z</time>
      </trkpt>
      <trkpt lat="37.192885167896747589111328125" lon="-3.69485431350767612457275390625">
        <ele>591.5999755859375</ele>
        <time>2019-10-31T08:09:12.000Z</time>
      </trkpt>
      <trkpt lat="37.1929124929010868072509765625" lon="-3.69513058103621006011962890625">
        <ele>592</ele>
        <time>2019-10-31T08:09:15.000Z</time>
      </trkpt>
      <trkpt lat="37.19293889589607715606689453125" lon="-3.695413134992122650146484375">
        <ele>592</ele>
        <time>2019-10-31T08:09:18.000Z</time>
      </trkpt>
      <trkpt lat="37.19296236522495746612548828125" lon="-3.6956909112632274627685546875">
        <ele>591.79998779296875</ele>
        <time>2019-10-31T08:09:21.000Z</time>
      </trkpt>
      <trkpt lat="37.1929839067161083221435546875" lon="-3.695968687534332275390625">
        <ele>591</ele>
        <time>2019-10-31T08:09:24.000Z</time>
      </trkpt>
      <trkpt lat="37.1930040232837200164794921875" lon="-3.696239255368709564208984375">
        <ele>590.4000244140625</ele>
        <time>2019-10-31T08:09:27.000Z</time>
      </trkpt>
      <trkpt lat="37.19302673824131488800048828125" lon="-3.69649884290993213653564453125">
        <ele>588.79998779296875</ele>
        <time>2019-10-31T08:09:30.000Z</time>
      </trkpt>
      <trkpt lat="37.19305255450308322906494140625" lon="-3.69677293114364147186279296875">
        <ele>588</ele>
        <time>2019-10-31T08:09:33.000Z</time>
      </trkpt>
      <trkpt lat="37.19306747429072856903076171875" lon="-3.69705322198569774627685546875">
        <ele>588</ele>
        <time>2019-10-31T08:09:36.000Z</time>
      </trkpt>
      <trkpt lat="37.193084992468357086181640625" lon="-3.697333596646785736083984375">
        <ele>587.79998779296875</ele>
        <time>2019-10-31T08:09:39.000Z</time>
      </trkpt>
      <trkpt lat="37.1930967271327972412109375" lon="-3.6976120434701442718505859375">
        <ele>587.20001220703125</ele>
        <time>2019-10-31T08:09:42.000Z</time>
      </trkpt>
      <trkpt lat="37.19311391003429889678955078125" lon="-3.6978973634541034698486328125">
        <ele>586.5999755859375</ele>
        <time>2019-10-31T08:09:45.000Z</time>
      </trkpt>
      <trkpt lat="37.193137966096401214599609375" lon="-3.6981826834380626678466796875">
        <ele>586.5999755859375</ele>
        <time>2019-10-31T08:09:48.000Z</time>
      </trkpt>
      <trkpt lat="37.19316872768104076385498046875" lon="-3.69847529567778110504150390625">
        <ele>586.79998779296875</ele>
        <time>2019-10-31T08:09:51.000Z</time>
      </trkpt>
      <trkpt lat="37.193197645246982574462890625" lon="-3.69875726290047168731689453125">
        <ele>587.5999755859375</ele>
        <time>2019-10-31T08:09:54.000Z</time>
      </trkpt>
      <trkpt lat="37.19322019256651401519775390625" lon="-3.699036128818988800048828125">
        <ele>587.79998779296875</ele>
        <time>2019-10-31T08:09:57.000Z</time>
      </trkpt>
      <trkpt lat="37.19323863275349140167236328125" lon="-3.6993149109184741973876953125">
        <ele>588</ele>
        <time>2019-10-31T08:10:00.000Z</time>
      </trkpt>
      <trkpt lat="37.19324290752410888671875" lon="-3.699600063264369964599609375">
        <ele>588</ele>
        <time>2019-10-31T08:10:03.000Z</time>
      </trkpt>
      <trkpt lat="37.1932370401918888092041015625" lon="-3.6998771689832210540771484375">
        <ele>588.4000244140625</ele>
        <time>2019-10-31T08:10:06.000Z</time>
      </trkpt>
      <trkpt lat="37.1932222880423069000244140625" lon="-3.70015871711075305938720703125">
        <ele>589</ele>
        <time>2019-10-31T08:10:09.000Z</time>
      </trkpt>
      <trkpt lat="37.1932045184075832366943359375" lon="-3.70043314062058925628662109375">
        <ele>588.5999755859375</ele>
        <time>2019-10-31T08:10:12.000Z</time>
      </trkpt>
      <trkpt lat="37.193186581134796142578125" lon="-3.70070404373109340667724609375">
        <ele>587.4000244140625</ele>
        <time>2019-10-31T08:10:15.000Z</time>
      </trkpt>
      <trkpt lat="37.1931750141084194183349609375" lon="-3.7009715102612972259521484375">
        <ele>585.4000244140625</ele>
        <time>2019-10-31T08:10:18.000Z</time>
      </trkpt>
      <trkpt lat="37.193156741559505462646484375" lon="-3.7012437544763088226318359375">
        <ele>584</ele>
        <time>2019-10-31T08:10:21.000Z</time>
      </trkpt>
      <trkpt lat="37.1931369602680206298828125" lon="-3.70152429677546024322509765625">
        <ele>583.5999755859375</ele>
        <time>2019-10-31T08:10:24.000Z</time>
      </trkpt>
      <trkpt lat="37.19311491586267948150634765625" lon="-3.7018073536455631256103515625">
        <ele>584.4000244140625</ele>
        <time>2019-10-31T08:10:27.000Z</time>
      </trkpt>
      <trkpt lat="37.193095721304416656494140625" lon="-3.7020842917263507843017578125">
        <ele>584.5999755859375</ele>
        <time>2019-10-31T08:10:30.000Z</time>
      </trkpt>
      <trkpt lat="37.19307568855583667755126953125" lon="-3.7023642472922801971435546875">
        <ele>585</ele>
        <time>2019-10-31T08:10:33.000Z</time>
      </trkpt>
      <trkpt lat="37.19305708073079586029052734375" lon="-3.7026512436568737030029296875">
        <ele>585.5999755859375</ele>
        <time>2019-10-31T08:10:36.000Z</time>
      </trkpt>
      <trkpt lat="37.193036712706089019775390625" lon="-3.7029372341930866241455078125">
        <ele>585.79998779296875</ele>
        <time>2019-10-31T08:10:39.000Z</time>
      </trkpt>
      <trkpt lat="37.19301902689039707183837890625" lon="-3.7032148428261280059814453125">
        <ele>585.20001220703125</ele>
        <time>2019-10-31T08:10:42.000Z</time>
      </trkpt>
      <trkpt lat="37.19300108961760997772216796875" lon="-3.70349521748721599578857421875">
        <ele>584.79998779296875</ele>
        <time>2019-10-31T08:10:45.000Z</time>
      </trkpt>
      <trkpt lat="37.19297938048839569091796875" lon="-3.70378120802342891693115234375">
        <ele>585</ele>
        <time>2019-10-31T08:10:48.000Z</time>
      </trkpt>
      <trkpt lat="37.192958928644657135009765625" lon="-3.70407004840672016143798828125">
        <ele>585.4000244140625</ele>
        <time>2019-10-31T08:10:51.000Z</time>
      </trkpt>
      <trkpt lat="37.1929279156029224395751953125" lon="-3.70434916578233242034912109375">
        <ele>586</ele>
        <time>2019-10-31T08:10:54.000Z</time>
      </trkpt>
      <trkpt lat="37.19289799220860004425048828125" lon="-3.70462258346378803253173828125">
        <ele>586</ele>
        <time>2019-10-31T08:10:57.000Z</time>
      </trkpt>
      <trkpt lat="37.19287368468940258026123046875" lon="-3.70489549823105335235595703125">
        <ele>585.5999755859375</ele>
        <time>2019-10-31T08:11:00.000Z</time>
      </trkpt>
      <trkpt lat="37.1928531490266323089599609375" lon="-3.7051701731979846954345703125">
        <ele>585</ele>
        <time>2019-10-31T08:11:03.000Z</time>
      </trkpt>
      <trkpt lat="37.19282624311745166778564453125" lon="-3.705449961125850677490234375">
        <ele>585</ele>
        <time>2019-10-31T08:11:06.000Z</time>
      </trkpt>
      <trkpt lat="37.1928043663501739501953125" lon="-3.70573519729077816009521484375">
        <ele>584.5999755859375</ele>
        <time>2019-10-31T08:11:09.000Z</time>
      </trkpt>
      <trkpt lat="37.19277477823197841644287109375" lon="-3.70601280592381954193115234375">
        <ele>584.20001220703125</ele>
        <time>2019-10-31T08:11:12.000Z</time>
      </trkpt>
      <trkpt lat="37.19274602830410003662109375" lon="-3.7062879838049411773681640625">
        <ele>583.4000244140625</ele>
        <time>2019-10-31T08:11:15.000Z</time>
      </trkpt>
      <trkpt lat="37.19271912239491939544677734375" lon="-3.70656450279057025909423828125">
        <ele>582.4000244140625</ele>
        <time>2019-10-31T08:11:18.000Z</time>
      </trkpt>
      <trkpt lat="37.19269313849508762359619140625" lon="-3.70683724991977214813232421875">
        <ele>582</ele>
        <time>2019-10-31T08:11:21.000Z</time>
      </trkpt>
      <trkpt lat="37.1926702558994293212890625" lon="-3.70709725655615329742431640625">
        <ele>581.79998779296875</ele>
        <time>2019-10-31T08:11:24.000Z</time>
      </trkpt>
      <trkpt lat="37.1926489658653736114501953125" lon="-3.70735357515513896942138671875">
        <ele>581.5999755859375</ele>
        <time>2019-10-31T08:11:27.000Z</time>
      </trkpt>
      <trkpt lat="37.19263278879225254058837890625" lon="-3.7076081335544586181640625">
        <ele>582.4000244140625</ele>
        <time>2019-10-31T08:11:30.000Z</time>
      </trkpt>
      <trkpt lat="37.192613594233989715576171875" lon="-3.70785866864025592803955078125">
        <ele>582.4000244140625</ele>
        <time>2019-10-31T08:11:33.000Z</time>
      </trkpt>
      <trkpt lat="37.19259741716086864471435546875" lon="-3.70809906162321567535400390625">
        <ele>582.4000244140625</ele>
        <time>2019-10-31T08:11:36.000Z</time>
      </trkpt>
      <trkpt lat="37.192580401897430419921875" lon="-3.708388991653919219970703125">
        <ele>582.4000244140625</ele>
        <time>2019-10-31T08:11:40.000Z</time>
      </trkpt>
      <trkpt lat="37.192585431039333343505859375" lon="-3.70846174657344818115234375">
        <ele>582.4000244140625</ele>
        <time>2019-10-31T08:11:41.000Z</time>
      </trkpt>
      <trkpt lat="37.19267620705068111419677734375" lon="-3.708698116242885589599609375">
        <ele>582.20001220703125</ele>
        <time>2019-10-31T08:11:45.000Z</time>
      </trkpt>
      <trkpt lat="37.19269799999892711639404296875" lon="-3.708952255547046661376953125">
        <ele>583</ele>
        <time>2019-10-31T08:11:49.000Z</time>
      </trkpt>
      <trkpt lat="37.1926380693912506103515625" lon="-3.70914378203451633453369140625">
        <ele>583.79998779296875</ele>
        <time>2019-10-31T08:11:52.000Z</time>
      </trkpt>
      <trkpt lat="37.19255886040627956390380859375" lon="-3.70939314365386962890625">
        <ele>584</ele>
        <time>2019-10-31T08:11:56.000Z</time>
      </trkpt>
      <trkpt lat="37.19254578463733196258544921875" lon="-3.7094628810882568359375">
        <ele>584</ele>
        <time>2019-10-31T08:11:57.000Z</time>
      </trkpt>
      <trkpt lat="37.19252231530845165252685546875" lon="-3.70974384248256683349609375">
        <ele>583.79998779296875</ele>
        <time>2019-10-31T08:12:01.000Z</time>
      </trkpt>
      <trkpt lat="37.1925218962132930755615234375" lon="-3.70997459627687931060791015625">
        <ele>583</ele>
        <time>2019-10-31T08:12:04.000Z</time>
      </trkpt>
      <trkpt lat="37.192537151277065277099609375" lon="-3.71021993458271026611328125">
        <ele>582.5999755859375</ele>
        <time>2019-10-31T08:12:07.000Z</time>
      </trkpt>
      <trkpt lat="37.19254125840961933135986328125" lon="-3.7104673683643341064453125">
        <ele>582.5999755859375</ele>
        <time>2019-10-31T08:12:10.000Z</time>
      </trkpt>
      <trkpt lat="37.192547880113124847412109375" lon="-3.71072016656398773193359375">
        <ele>582.5999755859375</ele>
        <time>2019-10-31T08:12:13.000Z</time>
      </trkpt>
      <trkpt lat="37.19255332835018634796142578125" lon="-3.7109684385359287261962890625">
        <ele>582</ele>
        <time>2019-10-31T08:12:16.000Z</time>
      </trkpt>
      <trkpt lat="37.19255668111145496368408203125" lon="-3.71121947653591632843017578125">
        <ele>582</ele>
        <time>2019-10-31T08:12:19.000Z</time>
      </trkpt>
      <trkpt lat="37.1925631351768970489501953125" lon="-3.71146054007112979888916015625">
        <ele>582.5999755859375</ele>
        <time>2019-10-31T08:12:22.000Z</time>
      </trkpt>
      <trkpt lat="37.19257210381329059600830078125" lon="-3.71169623918831348419189453125">
        <ele>583.79998779296875</ele>
        <time>2019-10-31T08:12:25.000Z</time>
      </trkpt>
      <trkpt lat="37.19258383847773075103759765625" lon="-3.71194736100733280181884765625">
        <ele>584.4000244140625</ele>
        <time>2019-10-31T08:12:28.000Z</time>
      </trkpt>
      <trkpt lat="37.1925886161625385284423828125" lon="-3.71219311840832233428955078125">
        <ele>584.5999755859375</ele>
        <time>2019-10-31T08:12:31.000Z</time>
      </trkpt>
      <trkpt lat="37.19259180128574371337890625" lon="-3.7124446593225002288818359375">
        <ele>583.79998779296875</ele>
        <time>2019-10-31T08:12:34.000Z</time>
      </trkpt>
      <trkpt lat="37.19259674660861492156982421875" lon="-3.7126924283802509307861328125">
        <ele>582.79998779296875</ele>
        <time>2019-10-31T08:12:37.000Z</time>
      </trkpt>
      <trkpt lat="37.19259305857121944427490234375" lon="-3.71294028125703334808349609375">
        <ele>582.4000244140625</ele>
        <time>2019-10-31T08:12:40.000Z</time>
      </trkpt>
      <trkpt lat="37.1925939805805683135986328125" lon="-3.713177405297756195068359375">
        <ele>581.79998779296875</ele>
        <time>2019-10-31T08:12:43.000Z</time>
      </trkpt>
      <trkpt lat="37.192602865397930145263671875" lon="-3.7134099192917346954345703125">
        <ele>581.5999755859375</ele>
        <time>2019-10-31T08:12:46.000Z</time>
      </trkpt>
      <trkpt lat="37.19261149875819683074951171875" lon="-3.71364654041826725006103515625">
        <ele>582.20001220703125</ele>
        <time>2019-10-31T08:12:49.000Z</time>
      </trkpt>
      <trkpt lat="37.192613594233989715576171875" lon="-3.71388928033411502838134765625">
        <ele>582.5999755859375</ele>
        <time>2019-10-31T08:12:52.000Z</time>
      </trkpt>
      <trkpt lat="37.1926181204617023468017578125" lon="-3.714133612811565399169921875">
        <ele>583</ele>
        <time>2019-10-31T08:12:55.000Z</time>
      </trkpt>
      <trkpt lat="37.19262574799358844757080078125" lon="-3.714377023279666900634765625">
        <ele>583</ele>
        <time>2019-10-31T08:12:58.000Z</time>
      </trkpt>
      <trkpt lat="37.19262935221195220947265625" lon="-3.7146159075200557708740234375">
        <ele>582.5999755859375</ele>
        <time>2019-10-31T08:13:01.000Z</time>
      </trkpt>
      <trkpt lat="37.1926352195441722869873046875" lon="-3.7149132974445819854736328125">
        <ele>582</ele>
        <time>2019-10-31T08:13:05.000Z</time>
      </trkpt>
      <trkpt lat="37.1926425956189632415771484375" lon="-3.71518126688897609710693359375">
        <ele>582</ele>
        <time>2019-10-31T08:13:09.000Z</time>
      </trkpt>
      <trkpt lat="37.19264284707605838775634765625" lon="-3.71544353663921356201171875">
        <ele>582.20001220703125</ele>
        <time>2019-10-31T08:13:13.000Z</time>
      </trkpt>
      <trkpt lat="37.19265122897922992706298828125" lon="-3.715688288211822509765625">
        <ele>583.20001220703125</ele>
        <time>2019-10-31T08:13:17.000Z</time>
      </trkpt>
      <trkpt lat="37.19264284707605838775634765625" lon="-3.715929687023162841796875">
        <ele>584</ele>
        <time>2019-10-31T08:13:21.000Z</time>
      </trkpt>
      <trkpt lat="37.19264234416186809539794921875" lon="-3.71617670170962810516357421875">
        <ele>585.5999755859375</ele>
        <time>2019-10-31T08:13:25.000Z</time>
      </trkpt>
      <trkpt lat="37.19264050014317035675048828125" lon="-3.7164206989109516143798828125">
        <ele>586.4000244140625</ele>
        <time>2019-10-31T08:13:29.000Z</time>
      </trkpt>
      <trkpt lat="37.1926402486860752105712890625" lon="-3.7166731618344783782958984375">
        <ele>585.79998779296875</ele>
        <time>2019-10-31T08:13:33.000Z</time>
      </trkpt>
      <trkpt lat="37.1926332078874111175537109375" lon="-3.71690777130424976348876953125">
        <ele>584.20001220703125</ele>
        <time>2019-10-31T08:13:37.000Z</time>
      </trkpt>
      <trkpt lat="37.19263161532580852508544921875" lon="-3.7171355076134204864501953125">
        <ele>583</ele>
        <time>2019-10-31T08:13:41.000Z</time>
      </trkpt>
      <trkpt lat="37.192622981965541839599609375" lon="-3.71737849898636341094970703125">
        <ele>582</ele>
        <time>2019-10-31T08:13:45.000Z</time>
      </trkpt>
      <trkpt lat="37.1926224790513515472412109375" lon="-3.71749517507851123809814453125">
        <ele>582</ele>
        <time>2019-10-31T08:13:47.000Z</time>
      </trkpt>
      <trkpt lat="37.19266430474817752838134765625" lon="-3.71776339598000049591064453125">
        <ele>582</ele>
        <time>2019-10-31T08:13:51.000Z</time>
      </trkpt>
      <trkpt lat="37.1927244029939174652099609375" lon="-3.71796221472322940826416015625">
        <ele>581.5999755859375</ele>
        <time>2019-10-31T08:13:54.000Z</time>
      </trkpt>
      <trkpt lat="37.1927233971655368804931640625" lon="-3.7182114087045192718505859375">
        <ele>580.5999755859375</ele>
        <time>2019-10-31T08:13:58.000Z</time>
      </trkpt>
      <trkpt lat="37.1927119977772235870361328125" lon="-3.71827720664441585540771484375">
        <ele>580.4000244140625</ele>
        <time>2019-10-31T08:13:59.000Z</time>
      </trkpt>
      <trkpt lat="37.19267469830811023712158203125" lon="-3.71847585774958133697509765625">
        <ele>579.79998779296875</ele>
        <time>2019-10-31T08:14:02.000Z</time>
      </trkpt>
      <trkpt lat="37.1926781348884105682373046875" lon="-3.7187508679926395416259765625">
        <ele>579.20001220703125</ele>
        <time>2019-10-31T08:14:06.000Z</time>
      </trkpt>
      <trkpt lat="37.19268358312547206878662109375" lon="-3.7190335057675838470458984375">
        <ele>580</ele>
        <time>2019-10-31T08:14:10.000Z</time>
      </trkpt>
      <trkpt lat="37.19268743880093097686767578125" lon="-3.719317652285099029541015625">
        <ele>580.20001220703125</ele>
        <time>2019-10-31T08:14:14.000Z</time>
      </trkpt>
      <trkpt lat="37.192690037190914154052734375" lon="-3.7196145392954349517822265625">
        <ele>580.20001220703125</ele>
        <time>2019-10-31T08:14:18.000Z</time>
      </trkpt>
      <trkpt lat="37.1926898695528507232666015625" lon="-3.719905056059360504150390625">
        <ele>578.5999755859375</ele>
        <time>2019-10-31T08:14:22.000Z</time>
      </trkpt>
      <trkpt lat="37.19271845184266567230224609375" lon="-3.7201796472072601318359375">
        <ele>578</ele>
        <time>2019-10-31T08:14:26.000Z</time>
      </trkpt>
      <trkpt lat="37.19282255508005619049072265625" lon="-3.720371089875698089599609375">
        <ele>578</ele>
        <time>2019-10-31T08:14:30.000Z</time>
      </trkpt>
      <trkpt lat="37.192844934761524200439453125" lon="-3.720407970249652862548828125">
        <ele>578</ele>
        <time>2019-10-31T08:14:31.000Z</time>
      </trkpt>
      <trkpt lat="37.19286136329174041748046875" lon="-3.7205395661294460296630859375">
        <ele>578</ele>
        <time>2019-10-31T08:14:36.000Z</time>
      </trkpt>
      <trkpt lat="37.19286127947270870208740234375" lon="-3.7205506302416324615478515625">
        <ele>578</ele>
        <time>2019-10-31T08:14:37.000Z</time>
      </trkpt>
      <trkpt lat="37.19286630861461162567138671875" lon="-3.72056831605732440948486328125">
        <ele>578</ele>
        <time>2019-10-31T08:14:40.000Z</time>
      </trkpt>
      <trkpt lat="37.1929202042520046234130859375" lon="-3.720610141754150390625">
        <ele>578</ele>
        <time>2019-10-31T08:14:45.000Z</time>
      </trkpt>
      <trkpt lat="37.19309664331376552581787109375" lon="-3.7207202799618244171142578125">
        <ele>578</ele>
        <time>2019-10-31T08:14:54.000Z</time>
      </trkpt>
      <trkpt lat="37.193127237260341644287109375" lon="-3.720716424286365509033203125">
        <ele>578</ele>
        <time>2019-10-31T08:14:56.000Z</time>
      </trkpt>
      <trkpt lat="37.193089686334133148193359375" lon="-3.720726482570171356201171875">
        <ele>578</ele>
        <time>2019-10-31T08:15:01.000Z</time>
      </trkpt>
      <trkpt lat="37.1929517202079296112060546875" lon="-3.7207072041928768157958984375">
        <ele>578</ele>
        <time>2019-10-31T08:15:12.000Z</time>
      </trkpt>
      <trkpt lat="37.19295817427337169647216796875" lon="-3.7207125686109066009521484375">
        <ele>578</ele>
        <time>2019-10-31T08:15:14.000Z</time>
      </trkpt>
      <trkpt lat="37.19291358254849910736083984375" lon="-3.72071533463895320892333984375">
        <ele>578</ele>
        <time>2019-10-31T08:15:19.000Z</time>
      </trkpt>
      <trkpt lat="37.19281266443431377410888671875" lon="-3.72082128189504146575927734375">
        <ele>578</ele>
        <time>2019-10-31T08:15:24.000Z</time>
      </trkpt>
      <trkpt lat="37.19277293421328067779541015625" lon="-3.72087056748569011688232421875">
        <ele>578</ele>
        <time>2019-10-31T08:15:26.000Z</time>
      </trkpt>
      <trkpt lat="37.192751057446002960205078125" lon="-3.72111632488667964935302734375">
        <ele>578</ele>
        <time>2019-10-31T08:15:32.000Z</time>
      </trkpt>
      <trkpt lat="37.19274468719959259033203125" lon="-3.7212020717561244964599609375">
        <ele>578</ele>
        <time>2019-10-31T08:15:34.000Z</time>
      </trkpt>
      <trkpt lat="37.192725241184234619140625" lon="-3.72144137509167194366455078125">
        <ele>578</ele>
        <time>2019-10-31T08:15:40.000Z</time>
      </trkpt>
      <trkpt lat="37.19271828420460224151611328125" lon="-3.721698112785816192626953125">
        <ele>578.79998779296875</ele>
        <time>2019-10-31T08:15:46.000Z</time>
      </trkpt>
      <trkpt lat="37.19272063113749027252197265625" lon="-3.72194797731935977935791015625">
        <ele>578.79998779296875</ele>
        <time>2019-10-31T08:15:52.000Z</time>
      </trkpt>
      <trkpt lat="37.19271652400493621826171875" lon="-3.72219675220549106597900390625">
        <ele>579</ele>
        <time>2019-10-31T08:15:58.000Z</time>
      </trkpt>
      <trkpt lat="37.19271929003298282623291015625" lon="-3.72242809273302555084228515625">
        <ele>578.4000244140625</ele>
        <time>2019-10-31T08:16:04.000Z</time>
      </trkpt>
      <trkpt lat="37.1927425079047679901123046875" lon="-3.7225746922194957733154296875">
        <ele>577.79998779296875</ele>
        <time>2019-10-31T08:16:09.000Z</time>
      </trkpt>
      <trkpt lat="37.19282121397554874420166015625" lon="-3.72261383570730686187744140625">
        <ele>577.4000244140625</ele>
        <time>2019-10-31T08:16:13.000Z</time>
      </trkpt>
      <trkpt lat="37.1928719244897365570068359375" lon="-3.7226849980652332305908203125">
        <ele>577</ele>
        <time>2019-10-31T08:16:21.000Z</time>
      </trkpt>
      <trkpt lat="37.1929118223488330841064453125" lon="-3.722670413553714752197265625">
        <ele>577</ele>
        <time>2019-10-31T08:17:34.000Z</time>
      </trkpt>
      <trkpt lat="37.19302992336452007293701171875" lon="-3.72271693311631679534912109375">
        <ele>577</ele>
        <time>2019-10-31T08:17:37.000Z</time>
      </trkpt>
      <trkpt lat="37.1926506422460079193115234375" lon="-3.72274861671030521392822265625">
        <ele>577.4000244140625</ele>
        <time>2019-10-31T08:24:35.000Z</time>
      </trkpt>
      <trkpt lat="37.1928132511675357818603515625" lon="-3.72270586900413036346435546875">
        <ele>577</ele>
        <time>2019-10-31T08:24:40.000Z</time>
      </trkpt>
      <trkpt lat="37.19280528835952281951904296875" lon="-3.7227054499089717864990234375">
        <ele>577</ele>
        <time>2019-10-31T08:24:43.000Z</time>
      </trkpt>
      <trkpt lat="37.19272381626069545745849609375" lon="-3.72258961200714111328125">
        <ele>577.79998779296875</ele>
        <time>2019-10-31T08:27:06.000Z</time>
      </trkpt>
      <trkpt lat="37.19274829141795635223388671875" lon="-3.7223602831363677978515625">
        <ele>578.5999755859375</ele>
        <time>2019-10-31T08:27:15.000Z</time>
      </trkpt>
      <trkpt lat="37.192735634744167327880859375" lon="-3.72215308248996734619140625">
        <ele>578.79998779296875</ele>
        <time>2019-10-31T08:27:23.000Z</time>
      </trkpt>
      <trkpt lat="37.19270847737789154052734375" lon="-3.72227772139012813568115234375">
        <ele>579</ele>
        <time>2019-10-31T08:27:27.000Z</time>
      </trkpt>
      <trkpt lat="37.19269498251378536224365234375" lon="-3.722529597580432891845703125">
        <ele>578.20001220703125</ele>
        <time>2019-10-31T08:27:33.000Z</time>
      </trkpt>
      <trkpt lat="37.19267788343131542205810546875" lon="-3.72277745045721530914306640625">
        <ele>577.20001220703125</ele>
        <time>2019-10-31T08:27:39.000Z</time>
      </trkpt>
      <trkpt lat="37.19267629086971282958984375" lon="-3.72304684482514858245849609375">
        <ele>576.20001220703125</ele>
        <time>2019-10-31T08:27:45.000Z</time>
      </trkpt>
      <trkpt lat="37.192678637802600860595703125" lon="-3.7232824601233005523681640625">
        <ele>576</ele>
        <time>2019-10-31T08:27:49.000Z</time>
      </trkpt>
      <trkpt lat="37.19268693588674068450927734375" lon="-3.723554201424121856689453125">
        <ele>575.4000244140625</ele>
        <time>2019-10-31T08:27:54.000Z</time>
      </trkpt>
      <trkpt lat="37.1927012689411640167236328125" lon="-3.72381747700273990631103515625">
        <ele>575</ele>
        <time>2019-10-31T08:28:01.000Z</time>
      </trkpt>
      <trkpt lat="37.1926461160182952880859375" lon="-3.7240810878574848175048828125">
        <ele>575.20001220703125</ele>
        <time>2019-10-31T08:28:06.000Z</time>
      </trkpt>
      <trkpt lat="37.19255483709275722503662109375" lon="-3.7242983467876911163330078125">
        <ele>575.4000244140625</ele>
        <time>2019-10-31T08:28:10.000Z</time>
      </trkpt>
      <trkpt lat="37.1924732811748981475830078125" lon="-3.72450135648250579833984375">
        <ele>575.79998779296875</ele>
        <time>2019-10-31T08:28:15.000Z</time>
      </trkpt>
      <trkpt lat="37.1924367360770702362060546875" lon="-3.72472263872623443603515625">
        <ele>576</ele>
        <time>2019-10-31T08:28:19.000Z</time>
      </trkpt>
      <trkpt lat="37.192467749118804931640625" lon="-3.7249484471976757049560546875">
        <ele>575.20001220703125</ele>
        <time>2019-10-31T08:28:23.000Z</time>
      </trkpt>
      <trkpt lat="37.19253472052514553070068359375" lon="-3.7251791171729564666748046875">
        <ele>574.5999755859375</ele>
        <time>2019-10-31T08:28:27.000Z</time>
      </trkpt>
      <trkpt lat="37.19261116348206996917724609375" lon="-3.7254138104617595672607421875">
        <ele>574.20001220703125</ele>
        <time>2019-10-31T08:28:31.000Z</time>
      </trkpt>
      <trkpt lat="37.192688696086406707763671875" lon="-3.72565495781600475311279296875">
        <ele>574</ele>
        <time>2019-10-31T08:28:35.000Z</time>
      </trkpt>
      <trkpt lat="37.19275885261595249176025390625" lon="-3.72591429390013217926025390625">
        <ele>574</ele>
        <time>2019-10-31T08:28:39.000Z</time>
      </trkpt>
      <trkpt lat="37.19283110462129116058349609375" lon="-3.72613993473351001739501953125">
        <ele>573.20001220703125</ele>
        <time>2019-10-31T08:28:43.000Z</time>
      </trkpt>
      <trkpt lat="37.1929027698934078216552734375" lon="-3.726349733769893646240234375">
        <ele>572.79998779296875</ele>
        <time>2019-10-31T08:28:47.000Z</time>
      </trkpt>
      <trkpt lat="37.19292171299457550048828125" lon="-3.72640161775052547454833984375">
        <ele>572.79998779296875</ele>
        <time>2019-10-31T08:28:48.000Z</time>
      </trkpt>
      <trkpt lat="37.192962281405925750732421875" lon="-3.72650387696921825408935546875">
        <ele>573</ele>
        <time>2019-10-31T08:28:50.000Z</time>
      </trkpt>
      <trkpt lat="37.193052805960178375244140625" lon="-3.726704455912113189697265625">
        <ele>573</ele>
        <time>2019-10-31T08:28:54.000Z</time>
      </trkpt>
      <trkpt lat="37.19316369853913784027099609375" lon="-3.7269178591668605804443359375">
        <ele>572.5999755859375</ele>
        <time>2019-10-31T08:28:58.000Z</time>
      </trkpt>
      <trkpt lat="37.19325254671275615692138671875" lon="-3.72713654302060604095458984375">
        <ele>572.5999755859375</ele>
        <time>2019-10-31T08:29:02.000Z</time>
      </trkpt>
      <trkpt lat="37.193357236683368682861328125" lon="-3.72736117802560329437255859375">
        <ele>572.79998779296875</ele>
        <time>2019-10-31T08:29:06.000Z</time>
      </trkpt>
      <trkpt lat="37.1934615075588226318359375" lon="-3.7275793589651584625244140625">
        <ele>573.5999755859375</ele>
        <time>2019-10-31T08:29:10.000Z</time>
      </trkpt>
      <trkpt lat="37.19357080757617950439453125" lon="-3.7278046645224094390869140625">
        <ele>574.20001220703125</ele>
        <time>2019-10-31T08:29:14.000Z</time>
      </trkpt>
      <trkpt lat="37.19365655444562435150146484375" lon="-3.7280142121016979217529296875">
        <ele>574.4000244140625</ele>
        <time>2019-10-31T08:29:18.000Z</time>
      </trkpt>
      <trkpt lat="37.19368035905063152313232421875" lon="-3.728057630360126495361328125">
        <ele>574.20001220703125</ele>
        <time>2019-10-31T08:29:19.000Z</time>
      </trkpt>
      <trkpt lat="37.19376937486231327056884765625" lon="-3.72830347158014774322509765625">
        <ele>574.5999755859375</ele>
        <time>2019-10-31T08:29:24.000Z</time>
      </trkpt>
      <trkpt lat="37.19377867877483367919921875" lon="-3.72835795395076274871826171875">
        <ele>574.79998779296875</ele>
        <time>2019-10-31T08:29:25.000Z</time>
      </trkpt>
      <trkpt lat="37.1937899105250835418701171875" lon="-3.7284155376255512237548828125">
        <ele>575</ele>
        <time>2019-10-31T08:29:26.000Z</time>
      </trkpt>
      <trkpt lat="37.193817235529422760009765625" lon="-3.728659451007843017578125">
        <ele>575</ele>
        <time>2019-10-31T08:29:30.000Z</time>
      </trkpt>
      <trkpt lat="37.19385487027466297149658203125" lon="-3.72891032136976718902587890625">
        <ele>573.79998779296875</ele>
        <time>2019-10-31T08:29:34.000Z</time>
      </trkpt>
      <trkpt lat="37.193876914680004119873046875" lon="-3.72917150147259235382080078125">
        <ele>572.79998779296875</ele>
        <time>2019-10-31T08:29:38.000Z</time>
      </trkpt>
      <trkpt lat="37.19389392994344234466552734375" lon="-3.729424886405467987060546875">
        <ele>571.20001220703125</ele>
        <time>2019-10-31T08:29:42.000Z</time>
      </trkpt>
      <trkpt lat="37.1938985399901866912841796875" lon="-3.72954399324953556060791015625">
        <ele>570.5999755859375</ele>
        <time>2019-10-31T08:29:44.000Z</time>
      </trkpt>
      <trkpt lat="37.19391019083559513092041015625" lon="-3.7297382019460201263427734375">
        <ele>570.4000244140625</ele>
        <time>2019-10-31T08:29:48.000Z</time>
      </trkpt>
      <trkpt lat="37.19394422136247158050537109375" lon="-3.72997784055769443511962890625">
        <ele>570.79998779296875</ele>
        <time>2019-10-31T08:29:54.000Z</time>
      </trkpt>
      <trkpt lat="37.1939619071781635284423828125" lon="-3.73005361296236515045166015625">
        <ele>571.4000244140625</ele>
        <time>2019-10-31T08:29:56.000Z</time>
      </trkpt>
      <trkpt lat="37.19397313892841339111328125" lon="-3.73028746806085109710693359375">
        <ele>572.20001220703125</ele>
        <time>2019-10-31T08:30:02.000Z</time>
      </trkpt>
      <trkpt lat="37.19397473149001598358154296875" lon="-3.73041168786585330963134765625">
        <ele>572.5999755859375</ele>
        <time>2019-10-31T08:30:05.000Z</time>
      </trkpt>
      <trkpt lat="37.193991579115390777587890625" lon="-3.73059458099305629730224609375">
        <ele>572.5999755859375</ele>
        <time>2019-10-31T08:30:10.000Z</time>
      </trkpt>
      <trkpt lat="37.19403927214443683624267578125" lon="-3.7308332137763500213623046875">
        <ele>573</ele>
        <time>2019-10-31T08:30:17.000Z</time>
      </trkpt>
      <trkpt lat="37.19410247169435024261474609375" lon="-3.731057345867156982421875">
        <ele>572.79998779296875</ele>
        <time>2019-10-31T08:30:24.000Z</time>
      </trkpt>
      <trkpt lat="37.19418360851705074310302734375" lon="-3.73126831836998462677001953125">
        <ele>571.79998779296875</ele>
        <time>2019-10-31T08:30:30.000Z</time>
      </trkpt>
      <trkpt lat="37.194279246032238006591796875" lon="-3.73148624785244464874267578125">
        <ele>571.4000244140625</ele>
        <time>2019-10-31T08:30:36.000Z</time>
      </trkpt>
      <trkpt lat="37.19438125379383563995361328125" lon="-3.73169998638331890106201171875">
        <ele>571</ele>
        <time>2019-10-31T08:30:42.000Z</time>
      </trkpt>
      <trkpt lat="37.1944725327193737030029296875" lon="-3.73189511708915233612060546875">
        <ele>571</ele>
        <time>2019-10-31T08:30:47.000Z</time>
      </trkpt>
      <trkpt lat="37.1945731155574321746826171875" lon="-3.732110448181629180908203125">
        <ele>572</ele>
        <time>2019-10-31T08:30:52.000Z</time>
      </trkpt>
      <trkpt lat="37.1946686692535877227783203125" lon="-3.73236165381968021392822265625">
        <ele>571.79998779296875</ele>
        <time>2019-10-31T08:30:57.000Z</time>
      </trkpt>
      <trkpt lat="37.1947390772402286529541015625" lon="-3.73259961605072021484375">
        <ele>571.20001220703125</ele>
        <time>2019-10-31T08:31:01.000Z</time>
      </trkpt>
      <trkpt lat="37.19479833729565143585205078125" lon="-3.732875883579254150390625">
        <ele>570.4000244140625</ele>
        <time>2019-10-31T08:31:05.000Z</time>
      </trkpt>
      <trkpt lat="37.19484209083020687103271484375" lon="-3.73312038369476795196533203125">
        <ele>569.20001220703125</ele>
        <time>2019-10-31T08:31:10.000Z</time>
      </trkpt>
      <trkpt lat="37.19482700340449810028076171875" lon="-3.733190037310123443603515625">
        <ele>569.4000244140625</ele>
        <time>2019-10-31T08:31:12.000Z</time>
      </trkpt>
      <trkpt lat="37.19466623850166797637939453125" lon="-3.73324711807072162628173828125">
        <ele>569.79998779296875</ele>
        <time>2019-10-31T08:31:19.000Z</time>
      </trkpt>
      <trkpt lat="37.1945801563560962677001953125" lon="-3.73350813053548336029052734375">
        <ele>570.5999755859375</ele>
        <time>2019-10-31T08:31:24.000Z</time>
      </trkpt>
      <trkpt lat="37.1945746243000030517578125" lon="-3.733572252094745635986328125">
        <ele>570.79998779296875</ele>
        <time>2019-10-31T08:31:25.000Z</time>
      </trkpt>
      <trkpt lat="37.1945734508335590362548828125" lon="-3.73381691984832286834716796875">
        <ele>571.5999755859375</ele>
        <time>2019-10-31T08:31:29.000Z</time>
      </trkpt>
      <trkpt lat="37.19457772560417652130126953125" lon="-3.734079860150814056396484375">
        <ele>571.79998779296875</ele>
        <time>2019-10-31T08:31:34.000Z</time>
      </trkpt>
      <trkpt lat="37.194585688412189483642578125" lon="-3.7343197502195835113525390625">
        <ele>570.79998779296875</ele>
        <time>2019-10-31T08:31:39.000Z</time>
      </trkpt>
      <trkpt lat="37.19460052438080310821533203125" lon="-3.7345785833895206451416015625">
        <ele>569.79998779296875</ele>
        <time>2019-10-31T08:31:44.000Z</time>
      </trkpt>
      <trkpt lat="37.19462064094841480255126953125" lon="-3.73484739102423191070556640625">
        <ele>569</ele>
        <time>2019-10-31T08:31:49.000Z</time>
      </trkpt>
      <trkpt lat="37.194634638726711273193359375" lon="-3.7351190485060214996337890625">
        <ele>569.20001220703125</ele>
        <time>2019-10-31T08:31:54.000Z</time>
      </trkpt>
      <trkpt lat="37.19465517438948154449462890625" lon="-3.73538215644657611846923828125">
        <ele>570</ele>
        <time>2019-10-31T08:31:59.000Z</time>
      </trkpt>
      <trkpt lat="37.1946604549884796142578125" lon="-3.73543538153171539306640625">
        <ele>570</ele>
        <time>2019-10-31T08:32:00.000Z</time>
      </trkpt>
      <trkpt lat="37.19468124210834503173828125" lon="-3.73565138317644596099853515625">
        <ele>569.79998779296875</ele>
        <time>2019-10-31T08:32:04.000Z</time>
      </trkpt>
      <trkpt lat="37.19470362178981304168701171875" lon="-3.73592698015272617340087890625">
        <ele>568.5999755859375</ele>
        <time>2019-10-31T08:32:09.000Z</time>
      </trkpt>
      <trkpt lat="37.19471435062587261199951171875" lon="-3.73609830625355243682861328125">
        <ele>567.20001220703125</ele>
        <time>2019-10-31T08:32:12.000Z</time>
      </trkpt>
      <trkpt lat="37.19472013413906097412109375" lon="-3.73621582053601741790771484375">
        <ele>567.4000244140625</ele>
        <time>2019-10-31T08:32:14.000Z</time>
      </trkpt>
      <trkpt lat="37.1947441063821315765380859375" lon="-3.73648655600845813751220703125">
        <ele>568</ele>
        <time>2019-10-31T08:32:19.000Z</time>
      </trkpt>
      <trkpt lat="37.1947601996362209320068359375" lon="-3.7367330677807331085205078125">
        <ele>567.5999755859375</ele>
        <time>2019-10-31T08:32:24.000Z</time>
      </trkpt>
      <trkpt lat="37.1947893686592578887939453125" lon="-3.73700120486319065093994140625">
        <ele>567.4000244140625</ele>
        <time>2019-10-31T08:32:29.000Z</time>
      </trkpt>
      <trkpt lat="37.1948222257196903228759765625" lon="-3.7372731976211071014404296875">
        <ele>568</ele>
        <time>2019-10-31T08:32:34.000Z</time>
      </trkpt>
      <trkpt lat="37.19482985325157642364501953125" lon="-3.7374314479529857635498046875">
        <ele>568.4000244140625</ele>
        <time>2019-10-31T08:32:37.000Z</time>
      </trkpt>
      <trkpt lat="37.19482482410967350006103515625" lon="-3.73758785426616668701171875">
        <ele>568.4000244140625</ele>
        <time>2019-10-31T08:32:40.000Z</time>
      </trkpt>
      <trkpt lat="37.1948540769517421722412109375" lon="-3.73785917647182941436767578125">
        <ele>569</ele>
        <time>2019-10-31T08:32:45.000Z</time>
      </trkpt>
      <trkpt lat="37.194861955940723419189453125" lon="-3.73796470463275909423828125">
        <ele>568.5999755859375</ele>
        <time>2019-10-31T08:32:47.000Z</time>
      </trkpt>
      <trkpt lat="37.194875366985797882080078125" lon="-3.73821021057665348052978515625">
        <ele>568.20001220703125</ele>
        <time>2019-10-31T08:32:52.000Z</time>
      </trkpt>
      <trkpt lat="37.194886095821857452392578125" lon="-3.73844993300735950469970703125">
        <ele>568.20001220703125</ele>
        <time>2019-10-31T08:32:57.000Z</time>
      </trkpt>
      <trkpt lat="37.1949018537998199462890625" lon="-3.73868362046778202056884765625">
        <ele>568</ele>
        <time>2019-10-31T08:33:02.000Z</time>
      </trkpt>
      <trkpt lat="37.19491786323487758636474609375" lon="-3.738826699554920196533203125">
        <ele>568.5999755859375</ele>
        <time>2019-10-31T08:33:05.000Z</time>
      </trkpt>
      <trkpt lat="37.1949449367821216583251953125" lon="-3.73909802176058292388916015625">
        <ele>569.4000244140625</ele>
        <time>2019-10-31T08:33:10.000Z</time>
      </trkpt>
      <trkpt lat="37.194957174360752105712890625" lon="-3.73926733620464801788330078125">
        <ele>569.79998779296875</ele>
        <time>2019-10-31T08:33:13.000Z</time>
      </trkpt>
      <trkpt lat="37.19497636891901493072509765625" lon="-3.7395406700670719146728515625">
        <ele>569.5999755859375</ele>
        <time>2019-10-31T08:33:18.000Z</time>
      </trkpt>
      <trkpt lat="37.194994390010833740234375" lon="-3.73978768475353717803955078125">
        <ele>569</ele>
        <time>2019-10-31T08:33:23.000Z</time>
      </trkpt>
      <trkpt lat="37.195009477436542510986328125" lon="-3.74004970304667949676513671875">
        <ele>568.79998779296875</ele>
        <time>2019-10-31T08:33:28.000Z</time>
      </trkpt>
      <trkpt lat="37.1950171887874603271484375" lon="-3.74022580683231353759765625">
        <ele>568</ele>
        <time>2019-10-31T08:33:31.000Z</time>
      </trkpt>
      <trkpt lat="37.19504778273403644561767578125" lon="-3.74045270495116710662841796875">
        <ele>568</ele>
        <time>2019-10-31T08:33:35.000Z</time>
      </trkpt>
      <trkpt lat="37.19507175497710704803466796875" lon="-3.740690834820270538330078125">
        <ele>568</ele>
        <time>2019-10-31T08:33:39.000Z</time>
      </trkpt>
      <trkpt lat="37.19510410912334918975830078125" lon="-3.74093181453645229339599609375">
        <ele>568.5999755859375</ele>
        <time>2019-10-31T08:33:43.000Z</time>
      </trkpt>
      <trkpt lat="37.19512791372835636138916015625" lon="-3.7411674298346042633056640625">
        <ele>568.79998779296875</ele>
        <time>2019-10-31T08:33:47.000Z</time>
      </trkpt>
      <trkpt lat="37.19515088014304637908935546875" lon="-3.74140706844627857208251953125">
        <ele>568</ele>
        <time>2019-10-31T08:33:51.000Z</time>
      </trkpt>
      <trkpt lat="37.19516563229262828826904296875" lon="-3.74164058826863765716552734375">
        <ele>567.20001220703125</ele>
        <time>2019-10-31T08:33:55.000Z</time>
      </trkpt>
      <trkpt lat="37.19517074525356292724609375" lon="-3.74169775284826755523681640625">
        <ele>567</ele>
        <time>2019-10-31T08:33:56.000Z</time>
      </trkpt>
      <trkpt lat="37.19518952071666717529296875" lon="-3.7418865971267223358154296875">
        <ele>566.4000244140625</ele>
        <time>2019-10-31T08:34:00.000Z</time>
      </trkpt>
      <trkpt lat="37.19520083628594875335693359375" lon="-3.74197603203356266021728515625">
        <ele>566.20001220703125</ele>
        <time>2019-10-31T08:34:02.000Z</time>
      </trkpt>
      <trkpt lat="37.195235453546047210693359375" lon="-3.74206177890300750732421875">
        <ele>566.20001220703125</ele>
        <time>2019-10-31T08:34:04.000Z</time>
      </trkpt>
      <trkpt lat="37.19534366391599178314208984375" lon="-3.74226772226393222808837890625">
        <ele>566.5999755859375</ele>
        <time>2019-10-31T08:34:09.000Z</time>
      </trkpt>
      <trkpt lat="37.19535606913268566131591796875" lon="-3.74231298454105854034423828125">
        <ele>566.5999755859375</ele>
        <time>2019-10-31T08:34:10.000Z</time>
      </trkpt>
      <trkpt lat="37.1953881718218326568603515625" lon="-3.74246067367494106292724609375">
        <ele>566</ele>
        <time>2019-10-31T08:34:13.000Z</time>
      </trkpt>
      <trkpt lat="37.1954398043453693389892578125" lon="-3.742721267044544219970703125">
        <ele>565.79998779296875</ele>
        <time>2019-10-31T08:34:18.000Z</time>
      </trkpt>
      <trkpt lat="37.19549797475337982177734375" lon="-3.74298940412700176239013671875">
        <ele>565.4000244140625</ele>
        <time>2019-10-31T08:34:23.000Z</time>
      </trkpt>
      <trkpt lat="37.195565365254878997802734375" lon="-3.7432139553129673004150390625">
        <ele>565</ele>
        <time>2019-10-31T08:34:27.000Z</time>
      </trkpt>
      <trkpt lat="37.19563342630863189697265625" lon="-3.7434478104114532470703125">
        <ele>564.4000244140625</ele>
        <time>2019-10-31T08:34:31.000Z</time>
      </trkpt>
      <trkpt lat="37.19568095169961452484130859375" lon="-3.74362877570092678070068359375">
        <ele>564.79998779296875</ele>
        <time>2019-10-31T08:34:34.000Z</time>
      </trkpt>
      <trkpt lat="37.1957569755613803863525390625" lon="-3.74387771822512149810791015625">
        <ele>565.79998779296875</ele>
        <time>2019-10-31T08:34:38.000Z</time>
      </trkpt>
      <trkpt lat="37.1958250366151332855224609375" lon="-3.74412246979773044586181640625">
        <ele>566</ele>
        <time>2019-10-31T08:34:42.000Z</time>
      </trkpt>
      <trkpt lat="37.1958726458251476287841796875" lon="-3.74437409453094005584716796875">
        <ele>566</ele>
        <time>2019-10-31T08:34:46.000Z</time>
      </trkpt>
      <trkpt lat="37.19590072520077228546142578125" lon="-3.74455329962074756622314453125">
        <ele>566.5999755859375</ele>
        <time>2019-10-31T08:34:49.000Z</time>
      </trkpt>
      <trkpt lat="37.19596467912197113037109375" lon="-3.744796626269817352294921875">
        <ele>566</ele>
        <time>2019-10-31T08:34:54.000Z</time>
      </trkpt>
      <trkpt lat="37.1959755755960941314697265625" lon="-3.7448323331773281097412109375">
        <ele>566</ele>
        <time>2019-10-31T08:34:56.000Z</time>
      </trkpt>
      <trkpt lat="37.19598940573632717132568359375" lon="-3.7448291480541229248046875">
        <ele>566</ele>
        <time>2019-10-31T08:35:00.000Z</time>
      </trkpt>
      <trkpt lat="37.19604288227856159210205078125" lon="-3.74497038312256336212158203125">
        <ele>565.4000244140625</ele>
        <time>2019-10-31T08:36:20.000Z</time>
      </trkpt>
      <trkpt lat="37.19607196748256683349609375" lon="-3.7452132068574428558349609375">
        <ele>564.4000244140625</ele>
        <time>2019-10-31T08:36:26.000Z</time>
      </trkpt>
      <trkpt lat="37.19611798413097858428955078125" lon="-3.74547195620834827423095703125">
        <ele>564</ele>
        <time>2019-10-31T08:36:31.000Z</time>
      </trkpt>
      <trkpt lat="37.1961539424955844879150390625" lon="-3.7456928193569183349609375">
        <ele>564</ele>
        <time>2019-10-31T08:36:35.000Z</time>
      </trkpt>
      <trkpt lat="37.19620146788656711578369140625" lon="-3.74594402499496936798095703125">
        <ele>564</ele>
        <time>2019-10-31T08:36:40.000Z</time>
      </trkpt>
      <trkpt lat="37.19624136574566364288330078125" lon="-3.746183998882770538330078125">
        <ele>564.79998779296875</ele>
        <time>2019-10-31T08:36:45.000Z</time>
      </trkpt>
      <trkpt lat="37.1962805092334747314453125" lon="-3.7464470230042934417724609375">
        <ele>564</ele>
        <time>2019-10-31T08:36:50.000Z</time>
      </trkpt>
      <trkpt lat="37.1963239274919033050537109375" lon="-3.74672077596187591552734375">
        <ele>563</ele>
        <time>2019-10-31T08:36:55.000Z</time>
      </trkpt>
      <trkpt lat="37.19637027941644191741943359375" lon="-3.7469740770757198333740234375">
        <ele>563</ele>
        <time>2019-10-31T08:37:00.000Z</time>
      </trkpt>
      <trkpt lat="37.19641235657036304473876953125" lon="-3.7472272105515003204345703125">
        <ele>563.20001220703125</ele>
        <time>2019-10-31T08:37:05.000Z</time>
      </trkpt>
      <trkpt lat="37.19646097160875797271728515625" lon="-3.747482858598232269287109375">
        <ele>563.5999755859375</ele>
        <time>2019-10-31T08:37:10.000Z</time>
      </trkpt>
      <trkpt lat="37.1965073235332965850830078125" lon="-3.74774177558720111846923828125">
        <ele>563.5999755859375</ele>
        <time>2019-10-31T08:37:15.000Z</time>
      </trkpt>
      <trkpt lat="37.1965525858104228973388671875" lon="-3.74799222685396671295166015625">
        <ele>563.20001220703125</ele>
        <time>2019-10-31T08:37:20.000Z</time>
      </trkpt>
      <trkpt lat="37.19657697714865207672119140625" lon="-3.748151399195194244384765625">
        <ele>563</ele>
        <time>2019-10-31T08:37:23.000Z</time>
      </trkpt>
      <trkpt lat="37.19663799740374088287353515625" lon="-3.748401515185832977294921875">
        <ele>561.79998779296875</ele>
        <time>2019-10-31T08:37:28.000Z</time>
      </trkpt>
      <trkpt lat="37.19670094549655914306640625" lon="-3.74865322373807430267333984375">
        <ele>561.5999755859375</ele>
        <time>2019-10-31T08:37:33.000Z</time>
      </trkpt>
      <trkpt lat="37.19676439650356769561767578125" lon="-3.74890283681452274322509765625">
        <ele>561.4000244140625</ele>
        <time>2019-10-31T08:37:38.000Z</time>
      </trkpt>
      <trkpt lat="37.19681225717067718505859375" lon="-3.7491429783403873443603515625">
        <ele>560.5999755859375</ele>
        <time>2019-10-31T08:37:43.000Z</time>
      </trkpt>
      <trkpt lat="37.1968630515038967132568359375" lon="-3.7493915855884552001953125">
        <ele>560</ele>
        <time>2019-10-31T08:37:48.000Z</time>
      </trkpt>
      <trkpt lat="37.19692289829254150390625" lon="-3.74960993416607379913330078125">
        <ele>559.79998779296875</ele>
        <time>2019-10-31T08:37:53.000Z</time>
      </trkpt>
      <trkpt lat="37.1969428472220897674560546875" lon="-3.74969576485455036163330078125">
        <ele>560</ele>
        <time>2019-10-31T08:37:55.000Z</time>
      </trkpt>
      <trkpt lat="37.1969606168568134307861328125" lon="-3.74979349784553050994873046875">
        <ele>560</ele>
        <time>2019-10-31T08:37:57.000Z</time>
      </trkpt>
      <trkpt lat="37.19702121801674365997314453125" lon="-3.7500555999577045440673828125">
        <ele>560.20001220703125</ele>
        <time>2019-10-31T08:38:02.000Z</time>
      </trkpt>
      <trkpt lat="37.19707352109253406524658203125" lon="-3.75027428381145000457763671875">
        <ele>560.20001220703125</ele>
        <time>2019-10-31T08:38:06.000Z</time>
      </trkpt>
      <trkpt lat="37.19713412225246429443359375" lon="-3.75048751942813396453857421875">
        <ele>560</ele>
        <time>2019-10-31T08:38:10.000Z</time>
      </trkpt>
      <trkpt lat="37.197194136679172515869140625" lon="-3.75074408948421478271484375">
        <ele>560.20001220703125</ele>
        <time>2019-10-31T08:38:15.000Z</time>
      </trkpt>
      <trkpt lat="37.1972516365349292755126953125" lon="-3.750999905169010162353515625">
        <ele>560.5999755859375</ele>
        <time>2019-10-31T08:38:20.000Z</time>
      </trkpt>
      <trkpt lat="37.19729840755462646484375" lon="-3.75126066617667675018310546875">
        <ele>561.5999755859375</ele>
        <time>2019-10-31T08:38:25.000Z</time>
      </trkpt>
      <trkpt lat="37.1973589248955249786376953125" lon="-3.751516900956630706787109375">
        <ele>561.79998779296875</ele>
        <time>2019-10-31T08:38:30.000Z</time>
      </trkpt>
      <trkpt lat="37.19736789353191852569580078125" lon="-3.75162427313625812530517578125">
        <ele>561.4000244140625</ele>
        <time>2019-10-31T08:38:32.000Z</time>
      </trkpt>
      <trkpt lat="37.19742874614894390106201171875" lon="-3.7518865428864955902099609375">
        <ele>560.5999755859375</ele>
        <time>2019-10-31T08:38:37.000Z</time>
      </trkpt>
      <trkpt lat="37.19744266010820865631103515625" lon="-3.75193758867681026458740234375">
        <ele>560.4000244140625</ele>
        <time>2019-10-31T08:38:38.000Z</time>
      </trkpt>
      <trkpt lat="37.19750963151454925537109375" lon="-3.7521909736096858978271484375">
        <ele>560.5999755859375</ele>
        <time>2019-10-31T08:38:43.000Z</time>
      </trkpt>
      <trkpt lat="37.19756822101771831512451171875" lon="-3.7524571828544139862060546875">
        <ele>560.5999755859375</ele>
        <time>2019-10-31T08:38:48.000Z</time>
      </trkpt>
      <trkpt lat="37.1976328454911708831787109375" lon="-3.75271417200565338134765625">
        <ele>560.20001220703125</ele>
        <time>2019-10-31T08:38:53.000Z</time>
      </trkpt>
      <trkpt lat="37.19765690155327320098876953125" lon="-3.75280796550214290618896484375">
        <ele>560</ele>
        <time>2019-10-31T08:38:55.000Z</time>
      </trkpt>
      <trkpt lat="37.197696380317211151123046875" lon="-3.75294676981866359710693359375">
        <ele>559.5999755859375</ele>
        <time>2019-10-31T08:38:58.000Z</time>
      </trkpt>
      <trkpt lat="37.1977304108440876007080078125" lon="-3.753131926059722900390625">
        <ele>559.20001220703125</ele>
        <time>2019-10-31T08:39:02.000Z</time>
      </trkpt>
      <trkpt lat="37.19779528677463531494140625" lon="-3.753377012908458709716796875">
        <ele>559.4000244140625</ele>
        <time>2019-10-31T08:39:08.000Z</time>
      </trkpt>
      <trkpt lat="37.197802998125553131103515625" lon="-3.7534217722713947296142578125">
        <ele>559.4000244140625</ele>
        <time>2019-10-31T08:39:09.000Z</time>
      </trkpt>
      <trkpt lat="37.19783308915793895721435546875" lon="-3.75365353189408779144287109375">
        <ele>559.5999755859375</ele>
        <time>2019-10-31T08:39:14.000Z</time>
      </trkpt>
      <trkpt lat="37.19783845357596874237060546875" lon="-3.75370047055184841156005859375">
        <ele>559.5999755859375</ele>
        <time>2019-10-31T08:39:15.000Z</time>
      </trkpt>
      <trkpt lat="37.19788975082337856292724609375" lon="-3.75394404865801334381103515625">
        <ele>559.79998779296875</ele>
        <time>2019-10-31T08:39:20.000Z</time>
      </trkpt>
      <trkpt lat="37.19794146716594696044921875" lon="-3.75418980605900287628173828125">
        <ele>559.20001220703125</ele>
        <time>2019-10-31T08:39:25.000Z</time>
      </trkpt>
      <trkpt lat="37.1980006434023380279541015625" lon="-3.754431791603565216064453125">
        <ele>559</ele>
        <time>2019-10-31T08:39:31.000Z</time>
      </trkpt>
      <trkpt lat="37.19806476496160030364990234375" lon="-3.754679895937442779541015625">
        <ele>559</ele>
        <time>2019-10-31T08:39:39.000Z</time>
      </trkpt>
      <trkpt lat="37.198102064430713653564453125" lon="-3.75490612350404262542724609375">
        <ele>559</ele>
        <time>2019-10-31T08:39:45.000Z</time>
      </trkpt>
      <trkpt lat="37.19813131727278232574462890625" lon="-3.75510712154209613800048828125">
        <ele>558.79998779296875</ele>
        <time>2019-10-31T08:39:53.000Z</time>
      </trkpt>
      <trkpt lat="37.19813751988112926483154296875" lon="-3.755116425454616546630859375">
        <ele>558.79998779296875</ele>
        <time>2019-10-31T08:39:56.000Z</time>
      </trkpt>
      <trkpt lat="37.19824380241334438323974609375" lon="-3.75523000024259090423583984375">
        <ele>558.4000244140625</ele>
        <time>2019-10-31T08:41:41.000Z</time>
      </trkpt>
      <trkpt lat="37.19829828478395938873291015625" lon="-3.75546352006494998931884765625">
        <ele>558</ele>
        <time>2019-10-31T08:41:48.000Z</time>
      </trkpt>
      <trkpt lat="37.19834136776626110076904296875" lon="-3.7556956149637699127197265625">
        <ele>557.4000244140625</ele>
        <time>2019-10-31T08:41:55.000Z</time>
      </trkpt>
      <trkpt lat="37.198398113250732421875" lon="-3.75594556331634521484375">
        <ele>557</ele>
        <time>2019-10-31T08:42:01.000Z</time>
      </trkpt>
      <trkpt lat="37.198456116020679473876953125" lon="-3.75620246864855289459228515625">
        <ele>556.20001220703125</ele>
        <time>2019-10-31T08:42:07.000Z</time>
      </trkpt>
      <trkpt lat="37.1985099278390407562255859375" lon="-3.7564551830291748046875">
        <ele>556</ele>
        <time>2019-10-31T08:42:13.000Z</time>
      </trkpt>
      <trkpt lat="37.19854228198528289794921875" lon="-3.75669180415570735931396484375">
        <ele>556.79998779296875</ele>
        <time>2019-10-31T08:42:18.000Z</time>
      </trkpt>
      <trkpt lat="37.19859324395656585693359375" lon="-3.756932951509952545166015625">
        <ele>557.20001220703125</ele>
        <time>2019-10-31T08:42:23.000Z</time>
      </trkpt>
      <trkpt lat="37.198661975562572479248046875" lon="-3.7571741826832294464111328125">
        <ele>558</ele>
        <time>2019-10-31T08:42:28.000Z</time>
      </trkpt>
      <trkpt lat="37.1987218223512172698974609375" lon="-3.7574165873229503631591796875">
        <ele>557.20001220703125</ele>
        <time>2019-10-31T08:42:33.000Z</time>
      </trkpt>
      <trkpt lat="37.1987657435238361358642578125" lon="-3.75765874050557613372802734375">
        <ele>557</ele>
        <time>2019-10-31T08:42:38.000Z</time>
      </trkpt>
      <trkpt lat="37.19879734329879283905029296875" lon="-3.757901899516582489013671875">
        <ele>557.4000244140625</ele>
        <time>2019-10-31T08:42:43.000Z</time>
      </trkpt>
      <trkpt lat="37.19887982122600078582763671875" lon="-3.7581221759319305419921875">
        <ele>558.4000244140625</ele>
        <time>2019-10-31T08:42:48.000Z</time>
      </trkpt>
      <trkpt lat="37.1989578567445278167724609375" lon="-3.7583526782691478729248046875">
        <ele>558.79998779296875</ele>
        <time>2019-10-31T08:42:53.000Z</time>
      </trkpt>
      <trkpt lat="37.19899800606071949005126953125" lon="-3.75858443789184093475341796875">
        <ele>559</ele>
        <time>2019-10-31T08:42:58.000Z</time>
      </trkpt>
      <trkpt lat="37.1990456990897655487060546875" lon="-3.75884897075593471527099609375">
        <ele>559</ele>
        <time>2019-10-31T08:43:04.000Z</time>
      </trkpt>
      <trkpt lat="37.19912759028375148773193359375" lon="-3.759068660438060760498046875">
        <ele>558.79998779296875</ele>
        <time>2019-10-31T08:43:09.000Z</time>
      </trkpt>
      <trkpt lat="37.19921149313449859619140625" lon="-3.7592827342450618743896484375">
        <ele>558.5999755859375</ele>
        <time>2019-10-31T08:43:14.000Z</time>
      </trkpt>
      <trkpt lat="37.19930210150778293609619140625" lon="-3.7594939582049846649169921875">
        <ele>559</ele>
        <time>2019-10-31T08:43:19.000Z</time>
      </trkpt>
      <trkpt lat="37.19939229078590869903564453125" lon="-3.75973409973084926605224609375">
        <ele>558.79998779296875</ele>
        <time>2019-10-31T08:43:24.000Z</time>
      </trkpt>
      <trkpt lat="37.19946806319057941436767578125" lon="-3.7599878199398517608642578125">
        <ele>559</ele>
        <time>2019-10-31T08:43:29.000Z</time>
      </trkpt>
      <trkpt lat="37.199527323246002197265625" lon="-3.7602409534156322479248046875">
        <ele>557.79998779296875</ele>
        <time>2019-10-31T08:43:34.000Z</time>
      </trkpt>
      <trkpt lat="37.1995791234076023101806640625" lon="-3.76048914156854152679443359375">
        <ele>556.79998779296875</ele>
        <time>2019-10-31T08:43:39.000Z</time>
      </trkpt>
      <trkpt lat="37.19962882809340953826904296875" lon="-3.760717213153839111328125">
        <ele>556</ele>
        <time>2019-10-31T08:43:44.000Z</time>
      </trkpt>
      <trkpt lat="37.1996788680553436279296875" lon="-3.76095165498554706573486328125">
        <ele>556.4000244140625</ele>
        <time>2019-10-31T08:43:50.000Z</time>
      </trkpt>
      <trkpt lat="37.199717424809932708740234375" lon="-3.7611857615411281585693359375">
        <ele>557.79998779296875</ele>
        <time>2019-10-31T08:43:55.000Z</time>
      </trkpt>
      <trkpt lat="37.19976092688739299774169921875" lon="-3.76143562607467174530029296875">
        <ele>557.5999755859375</ele>
        <time>2019-10-31T08:44:00.000Z</time>
      </trkpt>
      <trkpt lat="37.19976193271577358245849609375" lon="-3.7616600096225738525390625">
        <ele>556.79998779296875</ele>
        <time>2019-10-31T08:44:05.000Z</time>
      </trkpt>
      <trkpt lat="37.19972647726535797119140625" lon="-3.76172639429569244384765625">
        <ele>556.79998779296875</ele>
        <time>2019-10-31T08:44:07.000Z</time>
      </trkpt>
      <trkpt lat="37.199599407613277435302734375" lon="-3.761764951050281524658203125">
        <ele>557</ele>
        <time>2019-10-31T08:44:11.000Z</time>
      </trkpt>
      <trkpt lat="37.19939597882330417633056640625" lon="-3.76176319085061550140380859375">
        <ele>557</ele>
        <time>2019-10-31T08:44:17.000Z</time>
      </trkpt>
      <trkpt lat="37.19919498078525066375732421875" lon="-3.7617798708379268646240234375">
        <ele>557.5999755859375</ele>
        <time>2019-10-31T08:44:23.000Z</time>
      </trkpt>
      <trkpt lat="37.19900504685938358306884765625" lon="-3.76181448809802532196044921875">
        <ele>558</ele>
        <time>2019-10-31T08:44:29.000Z</time>
      </trkpt>
      <trkpt lat="37.198841013014316558837890625" lon="-3.761838041245937347412109375">
        <ele>558</ele>
        <time>2019-10-31T08:44:38.000Z</time>
      </trkpt>
      <trkpt lat="37.198835648596286773681640625" lon="-3.7618316709995269775390625">
        <ele>558</ele>
        <time>2019-10-31T08:44:41.000Z</time>
      </trkpt>
      <trkpt lat="37.19871922396123409271240234375" lon="-3.761843405663967132568359375">
        <ele>558</ele>
        <time>2019-10-31T08:46:35.000Z</time>
      </trkpt>
      <trkpt lat="37.19852828420698642730712890625" lon="-3.76189403235912322998046875">
        <ele>558</ele>
        <time>2019-10-31T08:46:41.000Z</time>
      </trkpt>
      <trkpt lat="37.19833315350115299224853515625" lon="-3.7619297392666339874267578125">
        <ele>558</ele>
        <time>2019-10-31T08:46:47.000Z</time>
      </trkpt>
      <trkpt lat="37.198122180998325347900390625" lon="-3.761983215808868408203125">
        <ele>558.20001220703125</ele>
        <time>2019-10-31T08:46:54.000Z</time>
      </trkpt>
      <trkpt lat="37.19794222153723239898681640625" lon="-3.76201598905026912689208984375">
        <ele>558</ele>
        <time>2019-10-31T08:46:59.000Z</time>
      </trkpt>
      <trkpt lat="37.19774407334625720977783203125" lon="-3.76203007064759731292724609375">
        <ele>558</ele>
        <time>2019-10-31T08:47:05.000Z</time>
      </trkpt>
      <trkpt lat="37.19756369479000568389892578125" lon="-3.7620474211871623992919921875">
        <ele>557.5999755859375</ele>
        <time>2019-10-31T08:47:11.000Z</time>
      </trkpt>
      <trkpt lat="37.197432182729244232177734375" lon="-3.7621949426829814910888671875">
        <ele>557</ele>
        <time>2019-10-31T08:47:17.000Z</time>
      </trkpt>
      <trkpt lat="37.19742916524410247802734375" lon="-3.76242871396243572235107421875">
        <ele>557</ele>
        <time>2019-10-31T08:47:22.000Z</time>
      </trkpt>
      <trkpt lat="37.19746881164610385894775390625" lon="-3.76265401951968669891357421875">
        <ele>557</ele>
        <time>2019-10-31T08:47:27.000Z</time>
      </trkpt>
      <trkpt lat="37.1974766068160533905029296875" lon="-3.7629245035350322723388671875">
        <ele>556.5999755859375</ele>
        <time>2019-10-31T08:47:33.000Z</time>
      </trkpt>
      <trkpt lat="37.197500579059123992919921875" lon="-3.7631581909954547882080078125">
        <ele>556</ele>
        <time>2019-10-31T08:47:38.000Z</time>
      </trkpt>
      <trkpt lat="37.19752664677798748016357421875" lon="-3.763401769101619720458984375">
        <ele>556</ele>
        <time>2019-10-31T08:47:43.000Z</time>
      </trkpt>
      <trkpt lat="37.19753377139568328857421875" lon="-3.76363973133265972137451171875">
        <ele>556.79998779296875</ele>
        <time>2019-10-31T08:47:48.000Z</time>
      </trkpt>
      <trkpt lat="37.19752295874059200286865234375" lon="-3.76387308351695537567138671875">
        <ele>557</ele>
        <time>2019-10-31T08:47:53.000Z</time>
      </trkpt>
      <trkpt lat="37.19751306809484958648681640625" lon="-3.764122612774372100830078125">
        <ele>557.5999755859375</ele>
        <time>2019-10-31T08:47:58.000Z</time>
      </trkpt>
      <trkpt lat="37.19756805337965488433837890625" lon="-3.76436702907085418701171875">
        <ele>557</ele>
        <time>2019-10-31T08:48:03.000Z</time>
      </trkpt>
      <trkpt lat="37.19764315523207187652587890625" lon="-3.76459208317101001739501953125">
        <ele>556.20001220703125</ele>
        <time>2019-10-31T08:48:08.000Z</time>
      </trkpt>
      <trkpt lat="37.19766310416162014007568359375" lon="-3.7648362480103969573974609375">
        <ele>556</ele>
        <time>2019-10-31T08:48:13.000Z</time>
      </trkpt>
      <trkpt lat="37.1977102942764759063720703125" lon="-3.765080161392688751220703125">
        <ele>556</ele>
        <time>2019-10-31T08:48:18.000Z</time>
      </trkpt>
      <trkpt lat="37.19777190126478672027587890625" lon="-3.7653190456330776214599609375">
        <ele>556</ele>
        <time>2019-10-31T08:48:23.000Z</time>
      </trkpt>
      <trkpt lat="37.19782479107379913330078125" lon="-3.7655453570187091827392578125">
        <ele>555.4000244140625</ele>
        <time>2019-10-31T08:48:28.000Z</time>
      </trkpt>
      <trkpt lat="37.197868041694164276123046875" lon="-3.765782229602336883544921875">
        <ele>555.5999755859375</ele>
        <time>2019-10-31T08:48:34.000Z</time>
      </trkpt>
      <trkpt lat="37.19790232367813587188720703125" lon="-3.7660348601639270782470703125">
        <ele>556.4000244140625</ele>
        <time>2019-10-31T08:48:40.000Z</time>
      </trkpt>
      <trkpt lat="37.197901904582977294921875" lon="-3.76626980490982532501220703125">
        <ele>557.20001220703125</ele>
        <time>2019-10-31T08:48:46.000Z</time>
      </trkpt>
      <trkpt lat="37.19794473610818386077880859375" lon="-3.76648999750614166259765625">
        <ele>557</ele>
        <time>2019-10-31T08:48:53.000Z</time>
      </trkpt>
      <trkpt lat="37.1979476697742938995361328125" lon="-3.766548670828342437744140625">
        <ele>557</ele>
        <time>2019-10-31T08:48:56.000Z</time>
      </trkpt>
      <trkpt lat="37.1979463286697864532470703125" lon="-3.766543976962566375732421875">
        <ele>557</ele>
        <time>2019-10-31T08:48:59.000Z</time>
      </trkpt>
      <trkpt lat="37.1979862265288829803466796875" lon="-3.76670549623668193817138671875">
        <ele>557</ele>
        <time>2019-10-31T08:49:14.000Z</time>
      </trkpt>
      <trkpt lat="37.19804096035659313201904296875" lon="-3.7669578753411769866943359375">
        <ele>555.20001220703125</ele>
        <time>2019-10-31T08:49:21.000Z</time>
      </trkpt>
      <trkpt lat="37.19807691872119903564453125" lon="-3.76720656640827655792236328125">
        <ele>555.20001220703125</ele>
        <time>2019-10-31T08:49:27.000Z</time>
      </trkpt>
      <trkpt lat="37.19809460453689098358154296875" lon="-3.7674346379935741424560546875">
        <ele>555.20001220703125</ele>
        <time>2019-10-31T08:49:32.000Z</time>
      </trkpt>
      <trkpt lat="37.1980888210237026214599609375" lon="-3.76767997629940509796142578125">
        <ele>555.20001220703125</ele>
        <time>2019-10-31T08:49:37.000Z</time>
      </trkpt>
      <trkpt lat="37.198083959519863128662109375" lon="-3.76793629489839076995849609375">
        <ele>555.20001220703125</ele>
        <time>2019-10-31T08:49:44.000Z</time>
      </trkpt>
      <trkpt lat="37.1980918385088443756103515625" lon="-3.7681859917938709259033203125">
        <ele>554.5999755859375</ele>
        <time>2019-10-31T08:49:50.000Z</time>
      </trkpt>
      <trkpt lat="37.19809778966009616851806640625" lon="-3.76842428930103778839111328125">
        <ele>554</ele>
        <time>2019-10-31T08:49:55.000Z</time>
      </trkpt>
      <trkpt lat="37.1981159783899784088134765625" lon="-3.76865328289568424224853515625">
        <ele>554</ele>
        <time>2019-10-31T08:50:04.000Z</time>
      </trkpt>
      <trkpt lat="37.1981166489422321319580078125" lon="-3.76869569532573223114013671875">
        <ele>554</ele>
        <time>2019-10-31T08:50:08.000Z</time>
      </trkpt>
      <trkpt lat="37.19811941497027873992919921875" lon="-3.7686959467828273773193359375">
        <ele>554</ele>
        <time>2019-10-31T08:50:10.000Z</time>
      </trkpt>
      <trkpt lat="37.19813056290149688720703125" lon="-3.7687911652028560638427734375">
        <ele>553.79998779296875</ele>
        <time>2019-10-31T08:51:33.000Z</time>
      </trkpt>
      <trkpt lat="37.1982277929782867431640625" lon="-3.7690305523574352264404296875">
        <ele>554.20001220703125</ele>
        <time>2019-10-31T08:51:40.000Z</time>
      </trkpt>
      <trkpt lat="37.198246233165264129638671875" lon="-3.7690694443881511688232421875">
        <ele>554.4000244140625</ele>
        <time>2019-10-31T08:51:41.000Z</time>
      </trkpt>
      <trkpt lat="37.19836064614355564117431640625" lon="-3.76927874051034450531005859375">
        <ele>554.20001220703125</ele>
        <time>2019-10-31T08:51:46.000Z</time>
      </trkpt>
      <trkpt lat="37.19846491701900959014892578125" lon="-3.7694882042706012725830078125">
        <ele>554.20001220703125</ele>
        <time>2019-10-31T08:51:51.000Z</time>
      </trkpt>
      <trkpt lat="37.19858519732952117919921875" lon="-3.76970353536307811737060546875">
        <ele>554.5999755859375</ele>
        <time>2019-10-31T08:51:56.000Z</time>
      </trkpt>
      <trkpt lat="37.19868871383368968963623046875" lon="-3.769919872283935546875">
        <ele>554.5999755859375</ele>
        <time>2019-10-31T08:52:01.000Z</time>
      </trkpt>
      <trkpt lat="37.1987588703632354736328125" lon="-3.77014794386923313140869140625">
        <ele>554.4000244140625</ele>
        <time>2019-10-31T08:52:06.000Z</time>
      </trkpt>
      <trkpt lat="37.19879030250012874603271484375" lon="-3.770370148122310638427734375">
        <ele>553</ele>
        <time>2019-10-31T08:52:10.000Z</time>
      </trkpt>
      <trkpt lat="37.1988110058009624481201171875" lon="-3.77061129547655582427978515625">
        <ele>552</ele>
        <time>2019-10-31T08:52:14.000Z</time>
      </trkpt>
      <trkpt lat="37.1988250873982906341552734375" lon="-3.77084464766085147857666015625">
        <ele>552.79998779296875</ele>
        <time>2019-10-31T08:52:18.000Z</time>
      </trkpt>
      <trkpt lat="37.19883170910179615020751953125" lon="-3.77102033235132694244384765625">
        <ele>553.4000244140625</ele>
        <time>2019-10-31T08:52:21.000Z</time>
      </trkpt>
      <trkpt lat="37.19884461723268032073974609375" lon="-3.77125368453562259674072265625">
        <ele>554.20001220703125</ele>
        <time>2019-10-31T08:52:25.000Z</time>
      </trkpt>
      <trkpt lat="37.1988592855632305145263671875" lon="-3.771483264863491058349609375">
        <ele>555</ele>
        <time>2019-10-31T08:52:29.000Z</time>
      </trkpt>
      <trkpt lat="37.1988720260560512542724609375" lon="-3.77163841389119625091552734375">
        <ele>555</ele>
        <time>2019-10-31T08:52:32.000Z</time>
      </trkpt>
      <trkpt lat="37.19888753257691860198974609375" lon="-3.77180051989853382110595703125">
        <ele>554.4000244140625</ele>
        <time>2019-10-31T08:52:35.000Z</time>
      </trkpt>
      <trkpt lat="37.19889574684202671051025390625" lon="-3.77202607691287994384765625">
        <ele>554</ele>
        <time>2019-10-31T08:52:39.000Z</time>
      </trkpt>
      <trkpt lat="37.198915779590606689453125" lon="-3.77225347794592380523681640625">
        <ele>553.4000244140625</ele>
        <time>2019-10-31T08:52:43.000Z</time>
      </trkpt>
      <trkpt lat="37.1989363990724086761474609375" lon="-3.77244676463305950164794921875">
        <ele>553.4000244140625</ele>
        <time>2019-10-31T08:52:47.000Z</time>
      </trkpt>
      <trkpt lat="37.19893882982432842254638671875" lon="-3.77255086787045001983642578125">
        <ele>553.4000244140625</ele>
        <time>2019-10-31T08:52:50.000Z</time>
      </trkpt>
      <trkpt lat="37.19894754700362682342529296875" lon="-3.77263091504573822021484375">
        <ele>553.79998779296875</ele>
        <time>2019-10-31T08:52:53.000Z</time>
      </trkpt>
      <trkpt lat="37.1989627182483673095703125" lon="-3.7728627584874629974365234375">
        <ele>554</ele>
        <time>2019-10-31T08:53:04.000Z</time>
      </trkpt>
      <trkpt lat="37.198954336345195770263671875" lon="-3.7728936038911342620849609375">
        <ele>554</ele>
        <time>2019-10-31T08:53:05.000Z</time>
      </trkpt>
      <trkpt lat="37.19902181066572666168212890625" lon="-3.7731229327619075775146484375">
        <ele>554</ele>
        <time>2019-10-31T08:53:10.000Z</time>
      </trkpt>
      <trkpt lat="37.19906874932348728179931640625" lon="-3.77336123026907444000244140625">
        <ele>553.20001220703125</ele>
        <time>2019-10-31T08:53:15.000Z</time>
      </trkpt>
      <trkpt lat="37.199082076549530029296875" lon="-3.773618303239345550537109375">
        <ele>551.5999755859375</ele>
        <time>2019-10-31T08:53:21.000Z</time>
      </trkpt>
      <trkpt lat="37.1991134248673915863037109375" lon="-3.77385576255619525909423828125">
        <ele>550.4000244140625</ele>
        <time>2019-10-31T08:53:26.000Z</time>
      </trkpt>
      <trkpt lat="37.19914586283266544342041015625" lon="-3.77409766428172588348388671875">
        <ele>549.79998779296875</ele>
        <time>2019-10-31T08:53:31.000Z</time>
      </trkpt>
      <trkpt lat="37.1990805678069591522216796875" lon="-3.77432615496218204498291015625">
        <ele>549</ele>
        <time>2019-10-31T08:53:36.000Z</time>
      </trkpt>
      <trkpt lat="37.19910227693617343902587890625" lon="-3.774581886827945709228515625">
        <ele>549.20001220703125</ele>
        <time>2019-10-31T08:53:41.000Z</time>
      </trkpt>
      <trkpt lat="37.19911233521997928619384765625" lon="-3.77476436085999011993408203125">
        <ele>550</ele>
        <time>2019-10-31T08:53:45.000Z</time>
      </trkpt>
      <trkpt lat="37.19892525114119052886962890625" lon="-3.7748727388679981231689453125">
        <ele>550.20001220703125</ele>
        <time>2019-10-31T08:53:51.000Z</time>
      </trkpt>
      <trkpt lat="37.198726348578929901123046875" lon="-3.77488204278051853179931640625">
        <ele>550.4000244140625</ele>
        <time>2019-10-31T08:53:56.000Z</time>
      </trkpt>
      <trkpt lat="37.198527865111827850341796875" lon="-3.77491506747901439666748046875">
        <ele>551</ele>
        <time>2019-10-31T08:54:02.000Z</time>
      </trkpt>
      <trkpt lat="37.1985099278390407562255859375" lon="-3.7751288898289203643798828125">
        <ele>551</ele>
        <time>2019-10-31T08:54:07.000Z</time>
      </trkpt>
      <trkpt lat="37.19853959977626800537109375" lon="-3.7753930874168872833251953125">
        <ele>551</ele>
        <time>2019-10-31T08:54:12.000Z</time>
      </trkpt>
      <trkpt lat="37.19862274825572967529296875" lon="-3.77554840408265590667724609375">
        <ele>551</ele>
        <time>2019-10-31T08:54:16.000Z</time>
      </trkpt>
      <trkpt lat="37.19884444959461688995361328125" lon="-3.77554454840719699859619140625">
        <ele>551</ele>
        <time>2019-10-31T08:54:21.000Z</time>
      </trkpt>
      <trkpt lat="37.19897336326539516448974609375" lon="-3.775538094341754913330078125">
        <ele>551</ele>
        <time>2019-10-31T08:54:24.000Z</time>
      </trkpt>
      <trkpt lat="37.1991647221148014068603515625" lon="-3.775507919490337371826171875">
        <ele>551</ele>
        <time>2019-10-31T08:54:31.000Z</time>
      </trkpt>
      <trkpt lat="37.19924963079392910003662109375" lon="-3.7755136191844940185546875">
        <ele>551</ele>
        <time>2019-10-31T08:54:37.000Z</time>
      </trkpt>
      <trkpt lat="37.199117951095104217529296875" lon="-3.77555594779551029205322265625">
        <ele>551</ele>
        <time>2019-10-31T08:54:43.000Z</time>
      </trkpt>
      <trkpt lat="37.19893765635788440704345703125" lon="-3.775572963058948516845703125">
        <ele>551</ele>
        <time>2019-10-31T08:54:48.000Z</time>
      </trkpt>
      <trkpt lat="37.1987402625381946563720703125" lon="-3.775610513985157012939453125">
        <ele>551</ele>
        <time>2019-10-31T08:54:53.000Z</time>
      </trkpt>
      <trkpt lat="37.1985575370490550994873046875" lon="-3.7756401859223842620849609375">
        <ele>551</ele>
        <time>2019-10-31T08:54:57.000Z</time>
      </trkpt>
      <trkpt lat="37.1983768232166767120361328125" lon="-3.77565468661487102508544921875">
        <ele>551.5999755859375</ele>
        <time>2019-10-31T08:55:01.000Z</time>
      </trkpt>
      <trkpt lat="37.1981699578464031219482421875" lon="-3.775678910315036773681640625">
        <ele>552.20001220703125</ele>
        <time>2019-10-31T08:55:06.000Z</time>
      </trkpt>
      <trkpt lat="37.19797155819833278656005859375" lon="-3.77569609321653842926025390625">
        <ele>552.79998779296875</ele>
        <time>2019-10-31T08:55:11.000Z</time>
      </trkpt>
      <trkpt lat="37.197778187692165374755859375" lon="-3.775716125965118408203125">
        <ele>553</ele>
        <time>2019-10-31T08:55:17.000Z</time>
      </trkpt>
      <trkpt lat="37.197707109153270721435546875" lon="-3.7757468037307262420654296875">
        <ele>553</ele>
        <time>2019-10-31T08:55:20.000Z</time>
      </trkpt>
      <trkpt lat="37.19770585186779499053955078125" lon="-3.77595609985291957855224609375">
        <ele>553</ele>
        <time>2019-10-31T08:55:25.000Z</time>
      </trkpt>
      <trkpt lat="37.19772286713123321533203125" lon="-3.77621166408061981201171875">
        <ele>553</ele>
        <time>2019-10-31T08:55:30.000Z</time>
      </trkpt>
      <trkpt lat="37.19773636199533939361572265625" lon="-3.77649622969329357147216796875">
        <ele>552.79998779296875</ele>
        <time>2019-10-31T08:55:35.000Z</time>
      </trkpt>
      <trkpt lat="37.197724878787994384765625" lon="-3.77674232237040996551513671875">
        <ele>552</ele>
        <time>2019-10-31T08:55:39.000Z</time>
      </trkpt>
      <trkpt lat="37.19772596843540668487548828125" lon="-3.7769923545420169830322265625">
        <ele>550.20001220703125</ele>
        <time>2019-10-31T08:55:43.000Z</time>
      </trkpt>
      <trkpt lat="37.19772881828248500823974609375" lon="-3.7772686220705509185791015625">
        <ele>550</ele>
        <time>2019-10-31T08:55:48.000Z</time>
      </trkpt>
      <trkpt lat="37.1977428160607814788818359375" lon="-3.7775039859116077423095703125">
        <ele>549.79998779296875</ele>
        <time>2019-10-31T08:55:53.000Z</time>
      </trkpt>
      <trkpt lat="37.19775429926812648773193359375" lon="-3.7777728773653507232666015625">
        <ele>550</ele>
        <time>2019-10-31T08:55:58.000Z</time>
      </trkpt>
      <trkpt lat="37.1977709792554378509521484375" lon="-3.7780129350721836090087890625">
        <ele>549.20001220703125</ele>
        <time>2019-10-31T08:56:02.000Z</time>
      </trkpt>
      <trkpt lat="37.19779302366077899932861328125" lon="-3.778261207044124603271484375">
        <ele>548.5999755859375</ele>
        <time>2019-10-31T08:56:06.000Z</time>
      </trkpt>
      <trkpt lat="37.1978175826370716094970703125" lon="-3.778511323034763336181640625">
        <ele>548.5999755859375</ele>
        <time>2019-10-31T08:56:10.000Z</time>
      </trkpt>
      <trkpt lat="37.197849266231060028076171875" lon="-3.77874274738132953643798828125">
        <ele>548.4000244140625</ele>
        <time>2019-10-31T08:56:14.000Z</time>
      </trkpt>
      <trkpt lat="37.197880782186985015869140625" lon="-3.778945840895175933837890625">
        <ele>548.4000244140625</ele>
        <time>2019-10-31T08:56:20.000Z</time>
      </trkpt>
      <trkpt lat="37.1978936903178691864013671875" lon="-3.77905321307480335235595703125">
        <ele>548.20001220703125</ele>
        <time>2019-10-31T08:56:24.000Z</time>
      </trkpt>
      <trkpt lat="37.1978983841836452484130859375" lon="-3.77909529022872447967529296875">
        <ele>548.20001220703125</ele>
        <time>2019-10-31T08:56:25.000Z</time>
      </trkpt>
      <trkpt lat="37.19792378135025501251220703125" lon="-3.77934557385742664337158203125">
        <ele>548.5999755859375</ele>
        <time>2019-10-31T08:56:30.000Z</time>
      </trkpt>
      <trkpt lat="37.197937779128551483154296875" lon="-3.779626451432704925537109375">
        <ele>549.20001220703125</ele>
        <time>2019-10-31T08:56:35.000Z</time>
      </trkpt>
      <trkpt lat="37.197930403053760528564453125" lon="-3.7798750586807727813720703125">
        <ele>549.20001220703125</ele>
        <time>2019-10-31T08:56:39.000Z</time>
      </trkpt>
      <trkpt lat="37.19789176248013973236083984375" lon="-3.78012911416590213775634765625">
        <ele>549.20001220703125</ele>
        <time>2019-10-31T08:56:43.000Z</time>
      </trkpt>
      <trkpt lat="37.1978522837162017822265625" lon="-3.78038811497390270233154296875">
        <ele>549.4000244140625</ele>
        <time>2019-10-31T08:56:47.000Z</time>
      </trkpt>
      <trkpt lat="37.19783979468047618865966796875" lon="-3.7806562520563602447509765625">
        <ele>548.4000244140625</ele>
        <time>2019-10-31T08:56:51.000Z</time>
      </trkpt>
      <trkpt lat="37.19782873056828975677490234375" lon="-3.78092723898589611053466796875">
        <ele>548</ele>
        <time>2019-10-31T08:56:55.000Z</time>
      </trkpt>
      <trkpt lat="37.19781951047480106353759765625" lon="-3.78120535053312778472900390625">
        <ele>548.4000244140625</ele>
        <time>2019-10-31T08:56:59.000Z</time>
      </trkpt>
      <trkpt lat="37.197794951498508453369140625" lon="-3.78148430027067661285400390625">
        <ele>548.4000244140625</ele>
        <time>2019-10-31T08:57:03.000Z</time>
      </trkpt>
      <trkpt lat="37.197823785245418548583984375" lon="-3.781754784286022186279296875">
        <ele>548</ele>
        <time>2019-10-31T08:57:07.000Z</time>
      </trkpt>
      <trkpt lat="37.19789209775626659393310546875" lon="-3.78194010816514492034912109375">
        <ele>548</ele>
        <time>2019-10-31T08:57:10.000Z</time>
      </trkpt>
      <trkpt lat="37.1979925967752933502197265625" lon="-3.78219022415578365325927734375">
        <ele>548</ele>
        <time>2019-10-31T08:57:14.000Z</time>
      </trkpt>
      <trkpt lat="37.19803492538630962371826171875" lon="-3.78239122219383716583251953125">
        <ele>547.79998779296875</ele>
        <time>2019-10-31T08:57:17.000Z</time>
      </trkpt>
      <trkpt lat="37.1980281360447406768798828125" lon="-3.782670758664608001708984375">
        <ele>547.79998779296875</ele>
        <time>2019-10-31T08:57:21.000Z</time>
      </trkpt>
      <trkpt lat="37.198030985891819000244140625" lon="-3.7829448468983173370361328125">
        <ele>547.4000244140625</ele>
        <time>2019-10-31T08:57:25.000Z</time>
      </trkpt>
      <trkpt lat="37.1980495937168598175048828125" lon="-3.78322036005556583404541015625">
        <ele>547.4000244140625</ele>
        <time>2019-10-31T08:57:29.000Z</time>
      </trkpt>
      <trkpt lat="37.1980271302163600921630859375" lon="-3.7834896706044673919677734375">
        <ele>547.79998779296875</ele>
        <time>2019-10-31T08:57:33.000Z</time>
      </trkpt>
      <trkpt lat="37.19799703918397426605224609375" lon="-3.78373316489160060882568359375">
        <ele>548</ele>
        <time>2019-10-31T08:57:37.000Z</time>
      </trkpt>
      <trkpt lat="37.1979798562824726104736328125" lon="-3.78397808410227298736572265625">
        <ele>548</ele>
        <time>2019-10-31T08:57:41.000Z</time>
      </trkpt>
      <trkpt lat="37.19794054515659809112548828125" lon="-3.7842336483299732208251953125">
        <ele>548</ele>
        <time>2019-10-31T08:57:45.000Z</time>
      </trkpt>
      <trkpt lat="37.19790835864841938018798828125" lon="-3.78442835994064807891845703125">
        <ele>548.4000244140625</ele>
        <time>2019-10-31T08:57:48.000Z</time>
      </trkpt>
      <trkpt lat="37.19784834422171115875244140625" lon="-3.7846799008548259735107421875">
        <ele>548.5999755859375</ele>
        <time>2019-10-31T08:57:52.000Z</time>
      </trkpt>
      <trkpt lat="37.19777709804475307464599609375" lon="-3.784911744296550750732421875">
        <ele>548</ele>
        <time>2019-10-31T08:57:56.000Z</time>
      </trkpt>
      <trkpt lat="37.1977448277175426483154296875" lon="-3.7850151769816875457763671875">
        <ele>547.4000244140625</ele>
        <time>2019-10-31T08:57:58.000Z</time>
      </trkpt>
      <trkpt lat="37.1976673789322376251220703125" lon="-3.78522665239870548248291015625">
        <ele>547</ele>
        <time>2019-10-31T08:58:03.000Z</time>
      </trkpt>
      <trkpt lat="37.1976546384394168853759765625" lon="-3.78525984473526477813720703125">
        <ele>547.20001220703125</ele>
        <time>2019-10-31T08:58:04.000Z</time>
      </trkpt>
      <trkpt lat="37.197625301778316497802734375" lon="-3.7853353656828403472900390625">
        <ele>547.20001220703125</ele>
        <time>2019-10-31T08:58:08.000Z</time>
      </trkpt>
      <trkpt lat="37.19762806780636310577392578125" lon="-3.78533544950187206268310546875">
        <ele>547.20001220703125</ele>
        <time>2019-10-31T08:58:11.000Z</time>
      </trkpt>
      <trkpt lat="37.19757392071187496185302734375" lon="-3.785457909107208251953125">
        <ele>547.4000244140625</ele>
        <time>2019-10-31T08:58:52.000Z</time>
      </trkpt>
      <trkpt lat="37.19753301702439785003662109375" lon="-3.7856845557689666748046875">
        <ele>547</ele>
        <time>2019-10-31T08:58:57.000Z</time>
      </trkpt>
      <trkpt lat="37.19751977361738681793212890625" lon="-3.78579318523406982421875">
        <ele>546.5999755859375</ele>
        <time>2019-10-31T08:58:59.000Z</time>
      </trkpt>
      <trkpt lat="37.1975161693990230560302734375" lon="-3.786018826067447662353515625">
        <ele>546.5999755859375</ele>
        <time>2019-10-31T08:59:03.000Z</time>
      </trkpt>
      <trkpt lat="37.19752614386379718780517578125" lon="-3.78624756820499897003173828125">
        <ele>546.5999755859375</ele>
        <time>2019-10-31T08:59:07.000Z</time>
      </trkpt>
      <trkpt lat="37.19755732454359531402587890625" lon="-3.78648594953119754791259765625">
        <ele>547</ele>
        <time>2019-10-31T08:59:11.000Z</time>
      </trkpt>
      <trkpt lat="37.19759101979434490203857421875" lon="-3.78672055900096893310546875">
        <ele>548.4000244140625</ele>
        <time>2019-10-31T08:59:15.000Z</time>
      </trkpt>
      <trkpt lat="37.19763175584375858306884765625" lon="-3.786961622536182403564453125">
        <ele>550.20001220703125</ele>
        <time>2019-10-31T08:59:19.000Z</time>
      </trkpt>
      <trkpt lat="37.1977109648287296295166015625" lon="-3.78719656728208065032958984375">
        <ele>550.4000244140625</ele>
        <time>2019-10-31T08:59:23.000Z</time>
      </trkpt>
      <trkpt lat="37.19778279773890972137451171875" lon="-3.787436373531818389892578125">
        <ele>549.4000244140625</ele>
        <time>2019-10-31T08:59:27.000Z</time>
      </trkpt>
      <trkpt lat="37.19787147827446460723876953125" lon="-3.78765757195651531219482421875">
        <ele>548</ele>
        <time>2019-10-31T08:59:31.000Z</time>
      </trkpt>
      <trkpt lat="37.19796485267579555511474609375" lon="-3.787856139242649078369140625">
        <ele>547</ele>
        <time>2019-10-31T08:59:35.000Z</time>
      </trkpt>
      <trkpt lat="37.19809091649949550628662109375" lon="-3.78807666711509227752685546875">
        <ele>546.20001220703125</ele>
        <time>2019-10-31T08:59:40.000Z</time>
      </trkpt>
      <trkpt lat="37.19818948768079280853271484375" lon="-3.78827313892543315887451171875">
        <ele>545.79998779296875</ele>
        <time>2019-10-31T08:59:44.000Z</time>
      </trkpt>
      <trkpt lat="37.1982588060200214385986328125" lon="-3.78844178281724452972412109375">
        <ele>546</ele>
        <time>2019-10-31T08:59:47.000Z</time>
      </trkpt>
      <trkpt lat="37.19829862006008625030517578125" lon="-3.7886991910636425018310546875">
        <ele>546</ele>
        <time>2019-10-31T08:59:51.000Z</time>
      </trkpt>
      <trkpt lat="37.19829342328011989593505859375" lon="-3.788833804428577423095703125">
        <ele>546</ele>
        <time>2019-10-31T08:59:53.000Z</time>
      </trkpt>
      <trkpt lat="37.19827716238796710968017578125" lon="-3.78910479135811328887939453125">
        <ele>546</ele>
        <time>2019-10-31T08:59:57.000Z</time>
      </trkpt>
      <trkpt lat="37.1982608176767826080322265625" lon="-3.78938038833439350128173828125">
        <ele>546.4000244140625</ele>
        <time>2019-10-31T09:00:01.000Z</time>
      </trkpt>
      <trkpt lat="37.19824531115591526031494140625" lon="-3.78966218791902065277099609375">
        <ele>547</ele>
        <time>2019-10-31T09:00:05.000Z</time>
      </trkpt>
      <trkpt lat="37.19822586514055728912353515625" lon="-3.7899450771510601043701171875">
        <ele>546.5999755859375</ele>
        <time>2019-10-31T09:00:09.000Z</time>
      </trkpt>
      <trkpt lat="37.198209352791309356689453125" lon="-3.79023157060146331787109375">
        <ele>545</ele>
        <time>2019-10-31T09:00:13.000Z</time>
      </trkpt>
      <trkpt lat="37.1981907449662685394287109375" lon="-3.790519237518310546875">
        <ele>543.4000244140625</ele>
        <time>2019-10-31T09:00:17.000Z</time>
      </trkpt>
      <trkpt lat="37.1981833688914775848388671875" lon="-3.7908102571964263916015625">
        <ele>543.20001220703125</ele>
        <time>2019-10-31T09:00:21.000Z</time>
      </trkpt>
      <trkpt lat="37.198171131312847137451171875" lon="-3.79110353998839855194091796875">
        <ele>544</ele>
        <time>2019-10-31T09:00:25.000Z</time>
      </trkpt>
      <trkpt lat="37.19815679825842380523681640625" lon="-3.791400007903575897216796875">
        <ele>545</ele>
        <time>2019-10-31T09:00:29.000Z</time>
      </trkpt>
      <trkpt lat="37.198145650327205657958984375" lon="-3.791691362857818603515625">
        <ele>545</ele>
        <time>2019-10-31T09:00:33.000Z</time>
      </trkpt>
      <trkpt lat="37.19813919626176357269287109375" lon="-3.7919823825359344482421875">
        <ele>545</ele>
        <time>2019-10-31T09:00:37.000Z</time>
      </trkpt>
      <trkpt lat="37.1981250308454036712646484375" lon="-3.79227465949952602386474609375">
        <ele>545</ele>
        <time>2019-10-31T09:00:41.000Z</time>
      </trkpt>
      <trkpt lat="37.19812628813087940216064453125" lon="-3.7925712950527667999267578125">
        <ele>545.5999755859375</ele>
        <time>2019-10-31T09:00:45.000Z</time>
      </trkpt>
      <trkpt lat="37.19814154319465160369873046875" lon="-3.7928683497011661529541015625">
        <ele>545</ele>
        <time>2019-10-31T09:00:49.000Z</time>
      </trkpt>
      <trkpt lat="37.198154032230377197265625" lon="-3.79316456615924835205078125">
        <ele>545</ele>
        <time>2019-10-31T09:00:53.000Z</time>
      </trkpt>
      <trkpt lat="37.1981726400554180145263671875" lon="-3.79345701076090335845947265625">
        <ele>544</ele>
        <time>2019-10-31T09:00:57.000Z</time>
      </trkpt>
      <trkpt lat="37.19818579964339733123779296875" lon="-3.79375054500997066497802734375">
        <ele>544</ele>
        <time>2019-10-31T09:01:01.000Z</time>
      </trkpt>
      <trkpt lat="37.19819887541234493255615234375" lon="-3.794048689305782318115234375">
        <ele>544.4000244140625</ele>
        <time>2019-10-31T09:01:05.000Z</time>
      </trkpt>
      <trkpt lat="37.19820742495357990264892578125" lon="-3.79427743144333362579345703125">
        <ele>545.20001220703125</ele>
        <time>2019-10-31T09:01:08.000Z</time>
      </trkpt>
      <trkpt lat="37.19821647740900516510009765625" lon="-3.79457029514014720916748046875">
        <ele>545</ele>
        <time>2019-10-31T09:01:12.000Z</time>
      </trkpt>
      <trkpt lat="37.1982329897582530975341796875" lon="-3.79483717493712902069091796875">
        <ele>545</ele>
        <time>2019-10-31T09:01:16.000Z</time>
      </trkpt>
      <trkpt lat="37.19824296422302722930908203125" lon="-3.79507957957684993743896484375">
        <ele>545</ele>
        <time>2019-10-31T09:01:20.000Z</time>
      </trkpt>
      <trkpt lat="37.1982336603105068206787109375" lon="-3.79518703557550907135009765625">
        <ele>544.5999755859375</ele>
        <time>2019-10-31T09:01:22.000Z</time>
      </trkpt>
      <trkpt lat="37.19808739610016345977783203125" lon="-3.795324750244617462158203125">
        <ele>544.20001220703125</ele>
        <time>2019-10-31T09:01:27.000Z</time>
      </trkpt>
      <trkpt lat="37.19799485988914966583251953125" lon="-3.79531980492174625396728515625">
        <ele>544</ele>
        <time>2019-10-31T09:01:29.000Z</time>
      </trkpt>
      <trkpt lat="37.19785823486745357513427734375" lon="-3.79532399587333202362060546875">
        <ele>544</ele>
        <time>2019-10-31T09:01:32.000Z</time>
      </trkpt>
      <trkpt lat="37.1976806223392486572265625" lon="-3.79532801918685436248779296875">
        <ele>544</ele>
        <time>2019-10-31T09:01:36.000Z</time>
      </trkpt>
      <trkpt lat="37.19747283495962619781494140625" lon="-3.7953503988683223724365234375">
        <ele>544</ele>
        <time>2019-10-31T09:01:41.000Z</time>
      </trkpt>
      <trkpt lat="37.19743628986179828643798828125" lon="-3.79535651765763759613037109375">
        <ele>544</ele>
        <time>2019-10-31T09:01:42.000Z</time>
      </trkpt>
      <trkpt lat="37.19737820327281951904296875" lon="-3.79536640830338001251220703125">
        <ele>544.20001220703125</ele>
        <time>2019-10-31T09:01:51.000Z</time>
      </trkpt>
      <trkpt lat="37.1974095515906810760498046875" lon="-3.79536037333309650421142578125">
        <ele>544</ele>
        <time>2019-10-31T09:01:52.000Z</time>
      </trkpt>
      <trkpt lat="37.19760208390653133392333984375" lon="-3.79534528590738773345947265625">
        <ele>544</ele>
        <time>2019-10-31T09:01:59.000Z</time>
      </trkpt>
      <trkpt lat="37.1978212706744670867919921875" lon="-3.7953239120543003082275390625">
        <ele>544</ele>
        <time>2019-10-31T09:02:06.000Z</time>
      </trkpt>
      <trkpt lat="37.198021598160266876220703125" lon="-3.7952957488596439361572265625">
        <ele>544.20001220703125</ele>
        <time>2019-10-31T09:02:11.000Z</time>
      </trkpt>
      <trkpt lat="37.1982081793248653411865234375" lon="-3.795282840728759765625">
        <ele>544.20001220703125</ele>
        <time>2019-10-31T09:02:16.000Z</time>
      </trkpt>
      <trkpt lat="37.19824698753654956817626953125" lon="-3.7955524027347564697265625">
        <ele>544</ele>
        <time>2019-10-31T09:02:21.000Z</time>
      </trkpt>
      <trkpt lat="37.19825637526810169219970703125" lon="-3.79581836052238941192626953125">
        <ele>544.5999755859375</ele>
        <time>2019-10-31T09:02:26.000Z</time>
      </trkpt>
      <trkpt lat="37.1982732228934764862060546875" lon="-3.796062357723712921142578125">
        <ele>545.5999755859375</ele>
        <time>2019-10-31T09:02:31.000Z</time>
      </trkpt>
      <trkpt lat="37.198302559554576873779296875" lon="-3.79628531634807586669921875">
        <ele>545.79998779296875</ele>
        <time>2019-10-31T09:02:35.000Z</time>
      </trkpt>
      <trkpt lat="37.19830633141100406646728515625" lon="-3.79652176983654499053955078125">
        <ele>545.20001220703125</ele>
        <time>2019-10-31T09:02:39.000Z</time>
      </trkpt>
      <trkpt lat="37.19831789843738079071044921875" lon="-3.79676434211432933807373046875">
        <ele>543.5999755859375</ele>
        <time>2019-10-31T09:02:43.000Z</time>
      </trkpt>
      <trkpt lat="37.19833918847143650054931640625" lon="-3.797015212476253509521484375">
        <ele>543</ele>
        <time>2019-10-31T09:02:47.000Z</time>
      </trkpt>
      <trkpt lat="37.19834924675524234771728515625" lon="-3.79714555107057094573974609375">
        <ele>543.4000244140625</ele>
        <time>2019-10-31T09:02:49.000Z</time>
      </trkpt>
      <trkpt lat="37.198361568152904510498046875" lon="-3.797414861619472503662109375">
        <ele>545.20001220703125</ele>
        <time>2019-10-31T09:02:53.000Z</time>
      </trkpt>
      <trkpt lat="37.19836793839931488037109375" lon="-3.7976212240755558013916015625">
        <ele>546.20001220703125</ele>
        <time>2019-10-31T09:02:56.000Z</time>
      </trkpt>
      <trkpt lat="37.19837875105440616607666015625" lon="-3.7977580167353153228759765625">
        <ele>546.4000244140625</ele>
        <time>2019-10-31T09:02:58.000Z</time>
      </trkpt>
      <trkpt lat="37.1983909048140048980712890625" lon="-3.7980326078832149505615234375">
        <ele>544.79998779296875</ele>
        <time>2019-10-31T09:03:02.000Z</time>
      </trkpt>
      <trkpt lat="37.19839903526008129119873046875" lon="-3.798301331698894500732421875">
        <ele>542.79998779296875</ele>
        <time>2019-10-31T09:03:06.000Z</time>
      </trkpt>
      <trkpt lat="37.19840817153453826904296875" lon="-3.79857064224779605865478515625">
        <ele>542.4000244140625</ele>
        <time>2019-10-31T09:03:10.000Z</time>
      </trkpt>
      <trkpt lat="37.198411189019680023193359375" lon="-3.7988352589309215545654296875">
        <ele>543</ele>
        <time>2019-10-31T09:03:14.000Z</time>
      </trkpt>
      <trkpt lat="37.19841445796191692352294921875" lon="-3.79909627139568328857421875">
        <ele>543</ele>
        <time>2019-10-31T09:03:18.000Z</time>
      </trkpt>
      <trkpt lat="37.19842149876058101654052734375" lon="-3.79935518838465213775634765625">
        <ele>542.5999755859375</ele>
        <time>2019-10-31T09:03:22.000Z</time>
      </trkpt>
      <trkpt lat="37.1984371729195117950439453125" lon="-3.79961553029716014862060546875">
        <ele>541.5999755859375</ele>
        <time>2019-10-31T09:03:26.000Z</time>
      </trkpt>
      <trkpt lat="37.19846189953386783599853515625" lon="-3.799810744822025299072265625">
        <ele>541</ele>
        <time>2019-10-31T09:03:29.000Z</time>
      </trkpt>
      <trkpt lat="37.1985149569809436798095703125" lon="-3.80006060935556888580322265625">
        <ele>541</ele>
        <time>2019-10-31T09:03:33.000Z</time>
      </trkpt>
      <trkpt lat="37.19857589341700077056884765625" lon="-3.8003155030310153961181640625">
        <ele>541.79998779296875</ele>
        <time>2019-10-31T09:03:37.000Z</time>
      </trkpt>
      <trkpt lat="37.19864018261432647705078125" lon="-3.80057089962065219879150390625">
        <ele>541.5999755859375</ele>
        <time>2019-10-31T09:03:41.000Z</time>
      </trkpt>
      <trkpt lat="37.1986891329288482666015625" lon="-3.800825290381908416748046875">
        <ele>541.4000244140625</ele>
        <time>2019-10-31T09:03:45.000Z</time>
      </trkpt>
      <trkpt lat="37.198722660541534423828125" lon="-3.80095236003398895263671875">
        <ele>541.20001220703125</ele>
        <time>2019-10-31T09:03:47.000Z</time>
      </trkpt>
      <trkpt lat="37.1988985128700733184814453125" lon="-3.80109376274049282073974609375">
        <ele>541</ele>
        <time>2019-10-31T09:03:51.000Z</time>
      </trkpt>
      <trkpt lat="37.19910152256488800048828125" lon="-3.8011754862964153289794921875">
        <ele>541</ele>
        <time>2019-10-31T09:03:55.000Z</time>
      </trkpt>
      <trkpt lat="37.19919581897556781768798828125" lon="-3.80122401751577854156494140625">
        <ele>541.20001220703125</ele>
        <time>2019-10-31T09:03:57.000Z</time>
      </trkpt>
      <trkpt lat="37.19931635074317455291748046875" lon="-3.80141478963196277618408203125">
        <ele>541.79998779296875</ele>
        <time>2019-10-31T09:04:01.000Z</time>
      </trkpt>
      <trkpt lat="37.199334204196929931640625" lon="-3.80147270858287811279296875">
        <ele>542</ele>
        <time>2019-10-31T09:04:02.000Z</time>
      </trkpt>
      <trkpt lat="37.199425399303436279296875" lon="-3.80170245654881000518798828125">
        <ele>542</ele>
        <time>2019-10-31T09:04:06.000Z</time>
      </trkpt>
      <trkpt lat="37.199516259133815765380859375" lon="-3.8019070588052272796630859375">
        <ele>541.4000244140625</ele>
        <time>2019-10-31T09:04:10.000Z</time>
      </trkpt>
      <trkpt lat="37.19960552640259265899658203125" lon="-3.8021471165120601654052734375">
        <ele>541</ele>
        <time>2019-10-31T09:04:15.000Z</time>
      </trkpt>
      <trkpt lat="37.19968222081661224365234375" lon="-3.80235238932073116302490234375">
        <ele>541.20001220703125</ele>
        <time>2019-10-31T09:04:19.000Z</time>
      </trkpt>
      <trkpt lat="37.1997564844787120819091796875" lon="-3.80256562493741512298583984375">
        <ele>541.5999755859375</ele>
        <time>2019-10-31T09:04:23.000Z</time>
      </trkpt>
      <trkpt lat="37.19979546032845973968505859375" lon="-3.80266101099550724029541015625">
        <ele>541.79998779296875</ele>
        <time>2019-10-31T09:04:25.000Z</time>
      </trkpt>
      <trkpt lat="37.199925966560840606689453125" lon="-3.80272471345961093902587890625">
        <ele>541.5999755859375</ele>
        <time>2019-10-31T09:04:29.000Z</time>
      </trkpt>
      <trkpt lat="37.2001155652105808258056640625" lon="-3.8027353584766387939453125">
        <ele>541</ele>
        <time>2019-10-31T09:04:34.000Z</time>
      </trkpt>
      <trkpt lat="37.2003301419317722320556640625" lon="-3.8027502782642841339111328125">
        <ele>540</ele>
        <time>2019-10-31T09:04:39.000Z</time>
      </trkpt>
      <trkpt lat="37.20036945305764675140380859375" lon="-3.80276008509099483489990234375">
        <ele>539.79998779296875</ele>
        <time>2019-10-31T09:04:40.000Z</time>
      </trkpt>
      <trkpt lat="37.20040515996515750885009765625" lon="-3.803001232445240020751953125">
        <ele>539</ele>
        <time>2019-10-31T09:04:46.000Z</time>
      </trkpt>
      <trkpt lat="37.2003854624927043914794921875" lon="-3.80310340784490108489990234375">
        <ele>538.79998779296875</ele>
        <time>2019-10-31T09:04:48.000Z</time>
      </trkpt>
      <trkpt lat="37.20032201148569583892822265625" lon="-3.803375400602817535400390625">
        <ele>539</ele>
        <time>2019-10-31T09:04:53.000Z</time>
      </trkpt>
      <trkpt lat="37.2002635896205902099609375" lon="-3.80358939059078693389892578125">
        <ele>538.79998779296875</ele>
        <time>2019-10-31T09:04:57.000Z</time>
      </trkpt>
      <trkpt lat="37.20020500011742115020751953125" lon="-3.80382123403251171112060546875">
        <ele>538.5999755859375</ele>
        <time>2019-10-31T09:05:01.000Z</time>
      </trkpt>
      <trkpt lat="37.20016577281057834625244140625" lon="-3.80409565754234790802001953125">
        <ele>538.20001220703125</ele>
        <time>2019-10-31T09:05:06.000Z</time>
      </trkpt>
      <trkpt lat="37.20012503676116466522216796875" lon="-3.80431056953966617584228515625">
        <ele>538.79998779296875</ele>
        <time>2019-10-31T09:05:10.000Z</time>
      </trkpt>
      <trkpt lat="37.2000676207244396209716796875" lon="-3.8045517168939113616943359375">
        <ele>540.5999755859375</ele>
        <time>2019-10-31T09:05:14.000Z</time>
      </trkpt>
      <trkpt lat="37.20002898015081882476806640625" lon="-3.8047337718307971954345703125">
        <ele>542</ele>
        <time>2019-10-31T09:05:17.000Z</time>
      </trkpt>
      <trkpt lat="37.1999578177928924560546875" lon="-3.804979361593723297119140625">
        <ele>542.79998779296875</ele>
        <time>2019-10-31T09:05:21.000Z</time>
      </trkpt>
      <trkpt lat="37.1998773515224456787109375" lon="-3.8052029907703399658203125">
        <ele>542.79998779296875</ele>
        <time>2019-10-31T09:05:25.000Z</time>
      </trkpt>
      <trkpt lat="37.19982714392244815826416015625" lon="-3.8053469918668270111083984375">
        <ele>542.79998779296875</ele>
        <time>2019-10-31T09:05:28.000Z</time>
      </trkpt>
      <trkpt lat="37.19979193992912769317626953125" lon="-3.80548755638301372528076171875">
        <ele>542.4000244140625</ele>
        <time>2019-10-31T09:05:31.000Z</time>
      </trkpt>
      <trkpt lat="37.19974483363330364227294921875" lon="-3.805739767849445343017578125">
        <ele>542.20001220703125</ele>
        <time>2019-10-31T09:05:36.000Z</time>
      </trkpt>
      <trkpt lat="37.199733518064022064208984375" lon="-3.80579332821071147918701171875">
        <ele>542.20001220703125</ele>
        <time>2019-10-31T09:05:37.000Z</time>
      </trkpt>
      <trkpt lat="37.19971717335283756256103515625" lon="-3.80597077310085296630859375">
        <ele>541.79998779296875</ele>
        <time>2019-10-31T09:05:40.000Z</time>
      </trkpt>
      <trkpt lat="37.199721448123455047607421875" lon="-3.80621594376862049102783203125">
        <ele>541.4000244140625</ele>
        <time>2019-10-31T09:05:44.000Z</time>
      </trkpt>
      <trkpt lat="37.1997581608593463897705078125" lon="-3.8064688257873058319091796875">
        <ele>541.20001220703125</ele>
        <time>2019-10-31T09:05:48.000Z</time>
      </trkpt>
      <trkpt lat="37.1997900120913982391357421875" lon="-3.8067286647856235504150390625">
        <ele>541.4000244140625</ele>
        <time>2019-10-31T09:05:52.000Z</time>
      </trkpt>
      <trkpt lat="37.19982798211276531219482421875" lon="-3.8069532997906208038330078125">
        <ele>541.4000244140625</ele>
        <time>2019-10-31T09:05:56.000Z</time>
      </trkpt>
      <trkpt lat="37.19985044561326503753662109375" lon="-3.8072027452290058135986328125">
        <ele>541.20001220703125</ele>
        <time>2019-10-31T09:06:01.000Z</time>
      </trkpt>
      <trkpt lat="37.19985363073647022247314453125" lon="-3.807257898151874542236328125">
        <ele>541.20001220703125</ele>
        <time>2019-10-31T09:06:02.000Z</time>
      </trkpt>
      <trkpt lat="37.199865616858005523681640625" lon="-3.80753525532782077789306640625">
        <ele>540.5999755859375</ele>
        <time>2019-10-31T09:06:07.000Z</time>
      </trkpt>
      <trkpt lat="37.1998734958469867706298828125" lon="-3.8077861256897449493408203125">
        <ele>540.20001220703125</ele>
        <time>2019-10-31T09:06:11.000Z</time>
      </trkpt>
      <trkpt lat="37.19987257383763790130615234375" lon="-3.80803833715617656707763671875">
        <ele>540.20001220703125</ele>
        <time>2019-10-31T09:06:15.000Z</time>
      </trkpt>
      <trkpt lat="37.19985916279256343841552734375" lon="-3.8082826696336269378662109375">
        <ele>540</ele>
        <time>2019-10-31T09:06:19.000Z</time>
      </trkpt>
      <trkpt lat="37.1998359449207782745361328125" lon="-3.80854678340256214141845703125">
        <ele>539.20001220703125</ele>
        <time>2019-10-31T09:06:23.000Z</time>
      </trkpt>
      <trkpt lat="37.19980895519256591796875" lon="-3.808814920485019683837890625">
        <ele>539.79998779296875</ele>
        <time>2019-10-31T09:06:27.000Z</time>
      </trkpt>
      <trkpt lat="37.1997973881661891937255859375" lon="-3.80904533900320529937744140625">
        <ele>539.79998779296875</ele>
        <time>2019-10-31T09:06:31.000Z</time>
      </trkpt>
      <trkpt lat="37.19977869652211666107177734375" lon="-3.80931624211370944976806640625">
        <ele>540.79998779296875</ele>
        <time>2019-10-31T09:06:36.000Z</time>
      </trkpt>
      <trkpt lat="37.1997727453708648681640625" lon="-3.80955764092504978179931640625">
        <ele>541.5999755859375</ele>
        <time>2019-10-31T09:06:41.000Z</time>
      </trkpt>
      <trkpt lat="37.1997591666877269744873046875" lon="-3.80981706082820892333984375">
        <ele>541.5999755859375</ele>
        <time>2019-10-31T09:06:46.000Z</time>
      </trkpt>
      <trkpt lat="37.1997467614710330963134765625" lon="-3.8099261932075023651123046875">
        <ele>541.20001220703125</ele>
        <time>2019-10-31T09:06:49.000Z</time>
      </trkpt>
      <trkpt lat="37.19974433071911334991455078125" lon="-3.80995343439280986785888671875">
        <ele>541</ele>
        <time>2019-10-31T09:06:53.000Z</time>
      </trkpt>
      <trkpt lat="37.19971734099090099334716796875" lon="-3.810019902884960174560546875">
        <ele>541</ele>
        <time>2019-10-31T09:07:36.000Z</time>
      </trkpt>
      <trkpt lat="37.19969420693814754486083984375" lon="-3.810204304754734039306640625">
        <ele>540.4000244140625</ele>
        <time>2019-10-31T09:07:41.000Z</time>
      </trkpt>
      <trkpt lat="37.1996708214282989501953125" lon="-3.81045131944119930267333984375">
        <ele>540</ele>
        <time>2019-10-31T09:07:47.000Z</time>
      </trkpt>
      <trkpt lat="37.19965246506035327911376953125" lon="-3.81053052842617034912109375">
        <ele>540</ele>
        <time>2019-10-31T09:07:50.000Z</time>
      </trkpt>
      <trkpt lat="37.19948348589241504669189453125" lon="-3.81054653786122798919677734375">
        <ele>540.5999755859375</ele>
        <time>2019-10-31T09:07:55.000Z</time>
      </trkpt>
      <trkpt lat="37.1992872655391693115234375" lon="-3.8105528242886066436767578125">
        <ele>541</ele>
        <time>2019-10-31T09:08:00.000Z</time>
      </trkpt>
      <trkpt lat="37.19910697080194950103759765625" lon="-3.8105434365570545196533203125">
        <ele>541</ele>
        <time>2019-10-31T09:08:05.000Z</time>
      </trkpt>
      <trkpt lat="37.19890563748776912689208984375" lon="-3.81054435856640338897705078125">
        <ele>541</ele>
        <time>2019-10-31T09:08:11.000Z</time>
      </trkpt>
      <trkpt lat="37.19871989451348781585693359375" lon="-3.81053949706256389617919921875">
        <ele>542</ele>
        <time>2019-10-31T09:08:16.000Z</time>
      </trkpt>
      <trkpt lat="37.19852174632251262664794921875" lon="-3.81055005826056003570556640625">
        <ele>543</ele>
        <time>2019-10-31T09:08:22.000Z</time>
      </trkpt>
      <trkpt lat="37.1983285434544086456298828125" lon="-3.8105808198451995849609375">
        <ele>543.79998779296875</ele>
        <time>2019-10-31T09:08:28.000Z</time>
      </trkpt>
      <trkpt lat="37.19813802279531955718994140625" lon="-3.8106143474578857421875">
        <ele>544</ele>
        <time>2019-10-31T09:08:33.000Z</time>
      </trkpt>
      <trkpt lat="37.19792512245476245880126953125" lon="-3.8106483779847621917724609375">
        <ele>544</ele>
        <time>2019-10-31T09:08:39.000Z</time>
      </trkpt>
      <trkpt lat="37.19774055294692516326904296875" lon="-3.810636140406131744384765625">
        <ele>544</ele>
        <time>2019-10-31T09:08:45.000Z</time>
      </trkpt>
      <trkpt lat="37.1976630203425884246826171875" lon="-3.81066329777240753173828125">
        <ele>544</ele>
        <time>2019-10-31T09:08:48.000Z</time>
      </trkpt>
      <trkpt lat="37.197628319263458251953125" lon="-3.8107927143573760986328125">
        <ele>543.4000244140625</ele>
        <time>2019-10-31T09:08:52.000Z</time>
      </trkpt>
      <trkpt lat="37.19764349050819873809814453125" lon="-3.8110609352588653564453125">
        <ele>543</ele>
        <time>2019-10-31T09:08:59.000Z</time>
      </trkpt>
      <trkpt lat="37.19765120185911655426025390625" lon="-3.81132270209491252899169921875">
        <ele>543</ele>
        <time>2019-10-31T09:09:05.000Z</time>
      </trkpt>
      <trkpt lat="37.19768741168081760406494140625" lon="-3.8115723989903926849365234375">
        <ele>543</ele>
        <time>2019-10-31T09:09:10.000Z</time>
      </trkpt>
      <trkpt lat="37.19773602671921253204345703125" lon="-3.81181572563946247100830078125">
        <ele>543.20001220703125</ele>
        <time>2019-10-31T09:09:15.000Z</time>
      </trkpt>
      <trkpt lat="37.1977934427559375762939453125" lon="-3.81203348748385906219482421875">
        <ele>543</ele>
        <time>2019-10-31T09:09:21.000Z</time>
      </trkpt>
      <trkpt lat="37.19784163869917392730712890625" lon="-3.81225074641406536102294921875">
        <ele>542.20001220703125</ele>
        <time>2019-10-31T09:09:26.000Z</time>
      </trkpt>
      <trkpt lat="37.19787776470184326171875" lon="-3.81253723986446857452392578125">
        <ele>541.20001220703125</ele>
        <time>2019-10-31T09:09:31.000Z</time>
      </trkpt>
      <trkpt lat="37.197953201830387115478515625" lon="-3.81277310661971569061279296875">
        <ele>541</ele>
        <time>2019-10-31T09:09:36.000Z</time>
      </trkpt>
      <trkpt lat="37.197989411652088165283203125" lon="-3.81301433779299259185791015625">
        <ele>541.5999755859375</ele>
        <time>2019-10-31T09:09:42.000Z</time>
      </trkpt>
      <trkpt lat="37.19802252016961574554443359375" lon="-3.813251294195652008056640625">
        <ele>541.79998779296875</ele>
        <time>2019-10-31T09:09:47.000Z</time>
      </trkpt>
      <trkpt lat="37.19806082546710968017578125" lon="-3.8134858198463916778564453125">
        <ele>541.5999755859375</ele>
        <time>2019-10-31T09:09:52.000Z</time>
      </trkpt>
      <trkpt lat="37.19810432754456996917724609375" lon="-3.81375110708177089691162109375">
        <ele>541.5999755859375</ele>
        <time>2019-10-31T09:09:58.000Z</time>
      </trkpt>
      <trkpt lat="37.198147661983966827392578125" lon="-3.81400072015821933746337890625">
        <ele>542</ele>
        <time>2019-10-31T09:10:03.000Z</time>
      </trkpt>
      <trkpt lat="37.1981768310070037841796875" lon="-3.8142639957368373870849609375">
        <ele>542</ele>
        <time>2019-10-31T09:10:08.000Z</time>
      </trkpt>
      <trkpt lat="37.1982185728847980499267578125" lon="-3.8145181350409984588623046875">
        <ele>541.20001220703125</ele>
        <time>2019-10-31T09:10:14.000Z</time>
      </trkpt>
      <trkpt lat="37.19824899919331073760986328125" lon="-3.81478057242929935455322265625">
        <ele>541</ele>
        <time>2019-10-31T09:10:19.000Z</time>
      </trkpt>
      <trkpt lat="37.19827716238796710968017578125" lon="-3.81501358933746814727783203125">
        <ele>540.20001220703125</ele>
        <time>2019-10-31T09:10:24.000Z</time>
      </trkpt>
      <trkpt lat="37.1983057446777820587158203125" lon="-3.8152540661394596099853515625">
        <ele>539</ele>
        <time>2019-10-31T09:10:29.000Z</time>
      </trkpt>
      <trkpt lat="37.1983659267425537109375" lon="-3.81553628481924533843994140625">
        <ele>538.5999755859375</ele>
        <time>2019-10-31T09:10:34.000Z</time>
      </trkpt>
      <trkpt lat="37.1983952634036540985107421875" lon="-3.81576226092875003814697265625">
        <ele>537.5999755859375</ele>
        <time>2019-10-31T09:10:38.000Z</time>
      </trkpt>
      <trkpt lat="37.198432981967926025390625" lon="-3.8159983791410923004150390625">
        <ele>537.4000244140625</ele>
        <time>2019-10-31T09:10:42.000Z</time>
      </trkpt>
      <trkpt lat="37.198468185961246490478515625" lon="-3.81623567081987857818603515625">
        <ele>538.20001220703125</ele>
        <time>2019-10-31T09:10:46.000Z</time>
      </trkpt>
      <trkpt lat="37.19849626533687114715576171875" lon="-3.81647204048931598663330078125">
        <ele>539</ele>
        <time>2019-10-31T09:10:50.000Z</time>
      </trkpt>
      <trkpt lat="37.19853649847209453582763671875" lon="-3.81671863608062267303466796875">
        <ele>539.79998779296875</ele>
        <time>2019-10-31T09:10:54.000Z</time>
      </trkpt>
      <trkpt lat="37.1985719539225101470947265625" lon="-3.816960789263248443603515625">
        <ele>540.5999755859375</ele>
        <time>2019-10-31T09:10:58.000Z</time>
      </trkpt>
      <trkpt lat="37.19861738383769989013671875" lon="-3.81722205318510532379150390625">
        <ele>540.4000244140625</ele>
        <time>2019-10-31T09:11:02.000Z</time>
      </trkpt>
      <trkpt lat="37.198626436293125152587890625" lon="-3.8172878511250019073486328125">
        <ele>540.20001220703125</ele>
        <time>2019-10-31T09:11:03.000Z</time>
      </trkpt>
      <trkpt lat="37.19867102801799774169921875" lon="-3.81756017915904521942138671875">
        <ele>538.20001220703125</ele>
        <time>2019-10-31T09:11:07.000Z</time>
      </trkpt>
      <trkpt lat="37.19868485815823078155517578125" lon="-3.817692361772060394287109375">
        <ele>537.4000244140625</ele>
        <time>2019-10-31T09:11:09.000Z</time>
      </trkpt>
      <trkpt lat="37.19863691367208957672119140625" lon="-3.81794407032430171966552734375">
        <ele>537</ele>
        <time>2019-10-31T09:11:13.000Z</time>
      </trkpt>
      <trkpt lat="37.19858410768210887908935546875" lon="-3.81818815134465694427490234375">
        <ele>536.4000244140625</ele>
        <time>2019-10-31T09:11:17.000Z</time>
      </trkpt>
      <trkpt lat="37.1985357441008090972900390625" lon="-3.81842770613729953765869140625">
        <ele>536</ele>
        <time>2019-10-31T09:11:21.000Z</time>
      </trkpt>
      <trkpt lat="37.19847229309380054473876953125" lon="-3.8186893053352832794189453125">
        <ele>536.20001220703125</ele>
        <time>2019-10-31T09:11:25.000Z</time>
      </trkpt>
      <trkpt lat="37.19841194339096546173095703125" lon="-3.81895308382809162139892578125">
        <ele>536.4000244140625</ele>
        <time>2019-10-31T09:11:29.000Z</time>
      </trkpt>
      <trkpt lat="37.19835243187844753265380859375" lon="-3.81920655257999897003173828125">
        <ele>536.5999755859375</ele>
        <time>2019-10-31T09:11:33.000Z</time>
      </trkpt>
      <trkpt lat="37.198291160166263580322265625" lon="-3.81946437992155551910400390625">
        <ele>536.79998779296875</ele>
        <time>2019-10-31T09:11:37.000Z</time>
      </trkpt>
      <trkpt lat="37.19822938553988933563232421875" lon="-3.8197196088731288909912109375">
        <ele>536.4000244140625</ele>
        <time>2019-10-31T09:11:41.000Z</time>
      </trkpt>
      <trkpt lat="37.198181860148906707763671875" lon="-3.81990459747612476348876953125">
        <ele>536</ele>
        <time>2019-10-31T09:11:44.000Z</time>
      </trkpt>
      <trkpt lat="37.19811891205608844757080078125" lon="-3.8201547972857952117919921875">
        <ele>536</ele>
        <time>2019-10-31T09:11:48.000Z</time>
      </trkpt>
      <trkpt lat="37.19807557761669158935546875" lon="-3.82026837207376956939697265625">
        <ele>536</ele>
        <time>2019-10-31T09:11:50.000Z</time>
      </trkpt>
      <trkpt lat="37.19792847521603107452392578125" lon="-3.820394016802310943603515625">
        <ele>536.20001220703125</ele>
        <time>2019-10-31T09:11:54.000Z</time>
      </trkpt>
      <trkpt lat="37.19785119406878948211669921875" lon="-3.82039292715489864349365234375">
        <ele>536.5999755859375</ele>
        <time>2019-10-31T09:11:56.000Z</time>
      </trkpt>
      <trkpt lat="37.19764818437397480010986328125" lon="-3.82040332071483135223388671875">
        <ele>537.20001220703125</ele>
        <time>2019-10-31T09:12:01.000Z</time>
      </trkpt>
      <trkpt lat="37.19743184745311737060546875" lon="-3.82042041979730129241943359375">
        <ele>538.20001220703125</ele>
        <time>2019-10-31T09:12:06.000Z</time>
      </trkpt>
      <trkpt lat="37.19720897264778614044189453125" lon="-3.82044665515422821044921875">
        <ele>540.20001220703125</ele>
        <time>2019-10-31T09:12:11.000Z</time>
      </trkpt>
      <trkpt lat="37.19702289439737796783447265625" lon="-3.82046685554087162017822265625">
        <ele>541</ele>
        <time>2019-10-31T09:12:15.000Z</time>
      </trkpt>
      <trkpt lat="37.19697763212025165557861328125" lon="-3.82047624327242374420166015625">
        <ele>541</ele>
        <time>2019-10-31T09:12:16.000Z</time>
      </trkpt>
      <trkpt lat="37.19676255248486995697021484375" lon="-3.82052150554955005645751953125">
        <ele>541</ele>
        <time>2019-10-31T09:12:21.000Z</time>
      </trkpt>
      <trkpt lat="37.19669289886951446533203125" lon="-3.8205537758767604827880859375">
        <ele>541</ele>
        <time>2019-10-31T09:12:23.000Z</time>
      </trkpt>
      <trkpt lat="37.1966102533042430877685546875" lon="-3.820768184959888458251953125">
        <ele>541</ele>
        <time>2019-10-31T09:12:28.000Z</time>
      </trkpt>
      <trkpt lat="37.19660547561943531036376953125" lon="-3.8209960050880908966064453125">
        <ele>541.20001220703125</ele>
        <time>2019-10-31T09:12:32.000Z</time>
      </trkpt>
      <trkpt lat="37.1966531686484813690185546875" lon="-3.8212343864142894744873046875">
        <ele>542</ele>
        <time>2019-10-31T09:12:36.000Z</time>
      </trkpt>
      <trkpt lat="37.1967094950377941131591796875" lon="-3.82148676551878452301025390625">
        <ele>543</ele>
        <time>2019-10-31T09:12:40.000Z</time>
      </trkpt>
      <trkpt lat="37.19675919972360134124755859375" lon="-3.82173956371843814849853515625">
        <ele>542.79998779296875</ele>
        <time>2019-10-31T09:12:44.000Z</time>
      </trkpt>
      <trkpt lat="37.1968134306371212005615234375" lon="-3.821987248957157135009765625">
        <ele>541.79998779296875</ele>
        <time>2019-10-31T09:12:48.000Z</time>
      </trkpt>
      <trkpt lat="37.1968630515038967132568359375" lon="-3.82223996333777904510498046875">
        <ele>541.79998779296875</ele>
        <time>2019-10-31T09:12:52.000Z</time>
      </trkpt>
      <trkpt lat="37.19691325910389423370361328125" lon="-3.822499550879001617431640625">
        <ele>541.5999755859375</ele>
        <time>2019-10-31T09:12:56.000Z</time>
      </trkpt>
      <trkpt lat="37.19695483334362506866455078125" lon="-3.822762072086334228515625">
        <ele>541.4000244140625</ele>
        <time>2019-10-31T09:13:00.000Z</time>
      </trkpt>
      <trkpt lat="37.1969840861856937408447265625" lon="-3.8230375014245510101318359375">
        <ele>540.5999755859375</ele>
        <time>2019-10-31T09:13:04.000Z</time>
      </trkpt>
      <trkpt lat="37.19700076617300510406494140625" lon="-3.8233365677297115325927734375">
        <ele>538.20001220703125</ele>
        <time>2019-10-31T09:13:08.000Z</time>
      </trkpt>
      <trkpt lat="37.1970011852681636810302734375" lon="-3.82356296293437480926513671875">
        <ele>538</ele>
        <time>2019-10-31T09:13:11.000Z</time>
      </trkpt>
      <trkpt lat="37.19698970206081867218017578125" lon="-3.8237933814525604248046875">
        <ele>538.5999755859375</ele>
        <time>2019-10-31T09:13:14.000Z</time>
      </trkpt>
      <trkpt lat="37.1969854272902011871337890625" lon="-3.82402715273201465606689453125">
        <ele>539.4000244140625</ele>
        <time>2019-10-31T09:13:17.000Z</time>
      </trkpt>
      <trkpt lat="37.1969787217676639556884765625" lon="-3.82425731979310512542724609375">
        <ele>539</ele>
        <time>2019-10-31T09:13:20.000Z</time>
      </trkpt>
      <trkpt lat="37.19697595573961734771728515625" lon="-3.82455672137439250946044921875">
        <ele>539.4000244140625</ele>
        <time>2019-10-31T09:13:24.000Z</time>
      </trkpt>
      <trkpt lat="37.19697545282542705535888671875" lon="-3.8248421251773834228515625">
        <ele>539.5999755859375</ele>
        <time>2019-10-31T09:13:28.000Z</time>
      </trkpt>
      <trkpt lat="37.19697528518736362457275390625" lon="-3.82511897943913936614990234375">
        <ele>540.20001220703125</ele>
        <time>2019-10-31T09:13:32.000Z</time>
      </trkpt>
      <trkpt lat="37.19696707092225551605224609375" lon="-3.82537211291491985321044921875">
        <ele>541</ele>
        <time>2019-10-31T09:13:36.000Z</time>
      </trkpt>
      <trkpt lat="37.1969626285135746002197265625" lon="-3.825623989105224609375">
        <ele>542</ele>
        <time>2019-10-31T09:13:40.000Z</time>
      </trkpt>
      <trkpt lat="37.1969565935432910919189453125" lon="-3.82587402127683162689208984375">
        <ele>542.20001220703125</ele>
        <time>2019-10-31T09:13:44.000Z</time>
      </trkpt>
      <trkpt lat="37.1969472058117389678955078125" lon="-3.82613067515194416046142578125">
        <ele>541.5999755859375</ele>
        <time>2019-10-31T09:13:48.000Z</time>
      </trkpt>
      <trkpt lat="37.19693790189921855926513671875" lon="-3.82638984359800815582275390625">
        <ele>540.5999755859375</ele>
        <time>2019-10-31T09:13:52.000Z</time>
      </trkpt>
      <trkpt lat="37.1969349682331085205078125" lon="-3.82664767093956470489501953125">
        <ele>539.4000244140625</ele>
        <time>2019-10-31T09:13:56.000Z</time>
      </trkpt>
      <trkpt lat="37.1969254128634929656982421875" lon="-3.82690315134823322296142578125">
        <ele>539.5999755859375</ele>
        <time>2019-10-31T09:14:00.000Z</time>
      </trkpt>
      <trkpt lat="37.19690605066716670989990234375" lon="-3.82715611718595027923583984375">
        <ele>540.20001220703125</ele>
        <time>2019-10-31T09:14:04.000Z</time>
      </trkpt>
      <trkpt lat="37.1968995966017246246337890625" lon="-3.8274157047271728515625">
        <ele>540.79998779296875</ele>
        <time>2019-10-31T09:14:08.000Z</time>
      </trkpt>
      <trkpt lat="37.19689230434596538543701171875" lon="-3.8276716880500316619873046875">
        <ele>541</ele>
        <time>2019-10-31T09:14:12.000Z</time>
      </trkpt>
      <trkpt lat="37.19688895158469676971435546875" lon="-3.82780252955853939056396484375">
        <ele>541.5999755859375</ele>
        <time>2019-10-31T09:14:14.000Z</time>
      </trkpt>
      <trkpt lat="37.19688526354730129241943359375" lon="-3.82805532775819301605224609375">
        <ele>541.79998779296875</ele>
        <time>2019-10-31T09:14:18.000Z</time>
      </trkpt>
      <trkpt lat="37.1968684159219264984130859375" lon="-3.82829370908439159393310546875">
        <ele>542.4000244140625</ele>
        <time>2019-10-31T09:14:22.000Z</time>
      </trkpt>
      <trkpt lat="37.19686296768486499786376953125" lon="-3.8285363651812076568603515625">
        <ele>543</ele>
        <time>2019-10-31T09:14:26.000Z</time>
      </trkpt>
      <trkpt lat="37.1968647278845310211181640625" lon="-3.8287767581641674041748046875">
        <ele>543</ele>
        <time>2019-10-31T09:14:30.000Z</time>
      </trkpt>
      <trkpt lat="37.1968638896942138671875" lon="-3.828897289931774139404296875">
        <ele>543</ele>
        <time>2019-10-31T09:14:32.000Z</time>
      </trkpt>
      <trkpt lat="37.196853496134281158447265625" lon="-3.82913005538284778594970703125">
        <ele>542.4000244140625</ele>
        <time>2019-10-31T09:14:36.000Z</time>
      </trkpt>
      <trkpt lat="37.196862883865833282470703125" lon="-3.829411603510379791259765625">
        <ele>542.5999755859375</ele>
        <time>2019-10-31T09:14:41.000Z</time>
      </trkpt>
      <trkpt lat="37.1968677453696727752685546875" lon="-3.829683847725391387939453125">
        <ele>543.5999755859375</ele>
        <time>2019-10-31T09:14:46.000Z</time>
      </trkpt>
      <trkpt lat="37.19686430878937244415283203125" lon="-3.8299411721527576446533203125">
        <ele>544.4000244140625</ele>
        <time>2019-10-31T09:14:51.000Z</time>
      </trkpt>
      <trkpt lat="37.19686078839004039764404296875" lon="-3.8302052021026611328125">
        <ele>545</ele>
        <time>2019-10-31T09:14:56.000Z</time>
      </trkpt>
      <trkpt lat="37.19685726799070835113525390625" lon="-3.830471076071262359619140625">
        <ele>545</ele>
        <time>2019-10-31T09:15:01.000Z</time>
      </trkpt>
      <trkpt lat="37.19685651361942291259765625" lon="-3.8307394646108150482177734375">
        <ele>545.4000244140625</ele>
        <time>2019-10-31T09:15:06.000Z</time>
      </trkpt>
      <trkpt lat="37.196852825582027435302734375" lon="-3.83095060475170612335205078125">
        <ele>546</ele>
        <time>2019-10-31T09:15:10.000Z</time>
      </trkpt>
      <trkpt lat="37.19684184528887271881103515625" lon="-3.83121631108224391937255859375">
        <ele>546.20001220703125</ele>
        <time>2019-10-31T09:15:15.000Z</time>
      </trkpt>
      <trkpt lat="37.19683513976633548736572265625" lon="-3.83137305267155170440673828125">
        <ele>546.20001220703125</ele>
        <time>2019-10-31T09:15:18.000Z</time>
      </trkpt>
      <trkpt lat="37.19682994298636913299560546875" lon="-3.8314743898808956146240234375">
        <ele>546.4000244140625</ele>
        <time>2019-10-31T09:15:20.000Z</time>
      </trkpt>
      <trkpt lat="37.19681988470256328582763671875" lon="-3.831645548343658447265625">
        <ele>547</ele>
        <time>2019-10-31T09:15:24.000Z</time>
      </trkpt>
      <trkpt lat="37.1967990137636661529541015625" lon="-3.83188091218471527099609375">
        <ele>547.79998779296875</ele>
        <time>2019-10-31T09:15:29.000Z</time>
      </trkpt>
      <trkpt lat="37.19678543508052825927734375" lon="-3.8319736160337924957275390625">
        <ele>548</ele>
        <time>2019-10-31T09:15:31.000Z</time>
      </trkpt>
      <trkpt lat="37.19675031490623950958251953125" lon="-3.83220017887651920318603515625">
        <ele>549</ele>
        <time>2019-10-31T09:15:36.000Z</time>
      </trkpt>
      <trkpt lat="37.19671159051358699798583984375" lon="-3.832423053681850433349609375">
        <ele>550.4000244140625</ele>
        <time>2019-10-31T09:15:41.000Z</time>
      </trkpt>
      <trkpt lat="37.19670136459171772003173828125" lon="-3.83246253244578838348388671875">
        <ele>550.5999755859375</ele>
        <time>2019-10-31T09:15:42.000Z</time>
      </trkpt>
      <trkpt lat="37.19666599296033382415771484375" lon="-3.83264274336397647857666015625">
        <ele>551.4000244140625</ele>
        <time>2019-10-31T09:15:46.000Z</time>
      </trkpt>
      <trkpt lat="37.19661050476133823394775390625" lon="-3.83289151825010776519775390625">
        <ele>551.79998779296875</ele>
        <time>2019-10-31T09:15:51.000Z</time>
      </trkpt>
      <trkpt lat="37.196542359888553619384765625" lon="-3.83315227925777435302734375">
        <ele>552.20001220703125</ele>
        <time>2019-10-31T09:15:56.000Z</time>
      </trkpt>
      <trkpt lat="37.19647991470992565155029296875" lon="-3.83340633474290370941162109375">
        <ele>551.4000244140625</ele>
        <time>2019-10-31T09:16:01.000Z</time>
      </trkpt>
      <trkpt lat="37.196435071527957916259765625" lon="-3.83354631252586841583251953125">
        <ele>551.5999755859375</ele>
        <time>2019-10-31T09:16:04.000Z</time>
      </trkpt>
      <trkpt lat="37.19635787419974803924560546875" lon="-3.83378720842301845550537109375">
        <ele>551.4000244140625</ele>
        <time>2019-10-31T09:16:09.000Z</time>
      </trkpt>
      <trkpt lat="37.196336500346660614013671875" lon="-3.8338863663375377655029296875">
        <ele>551.20001220703125</ele>
        <time>2019-10-31T09:16:11.000Z</time>
      </trkpt>
      <trkpt lat="37.19627439044415950775146484375" lon="-3.834122233092784881591796875">
        <ele>551.20001220703125</ele>
        <time>2019-10-31T09:16:16.000Z</time>
      </trkpt>
      <trkpt lat="37.19619442708790302276611328125" lon="-3.83435499854385852813720703125">
        <ele>551.79998779296875</ele>
        <time>2019-10-31T09:16:21.000Z</time>
      </trkpt>
      <trkpt lat="37.19613390974700450897216796875" lon="-3.83457242511212825775146484375">
        <ele>551.79998779296875</ele>
        <time>2019-10-31T09:16:26.000Z</time>
      </trkpt>
      <trkpt lat="37.19608093611896038055419921875" lon="-3.83481097407639026641845703125">
        <ele>551.79998779296875</ele>
        <time>2019-10-31T09:16:32.000Z</time>
      </trkpt>
      <trkpt lat="37.1959846280515193939208984375" lon="-3.8350041769444942474365234375">
        <ele>552.79998779296875</ele>
        <time>2019-10-31T09:16:38.000Z</time>
      </trkpt>
      <trkpt lat="37.1958478353917598724365234375" lon="-3.8351874053478240966796875">
        <ele>553.4000244140625</ele>
        <time>2019-10-31T09:16:45.000Z</time>
      </trkpt>
      <trkpt lat="37.1957318298518657684326171875" lon="-3.83537708781659603118896484375">
        <ele>553</ele>
        <time>2019-10-31T09:16:50.000Z</time>
      </trkpt>
      <trkpt lat="37.1956074424088001251220703125" lon="-3.8355774991214275360107421875">
        <ele>552.79998779296875</ele>
        <time>2019-10-31T09:16:55.000Z</time>
      </trkpt>
      <trkpt lat="37.195494286715984344482421875" lon="-3.83577791042625904083251953125">
        <ele>552.4000244140625</ele>
        <time>2019-10-31T09:16:59.000Z</time>
      </trkpt>
      <trkpt lat="37.1953955478966236114501953125" lon="-3.8359840214252471923828125">
        <ele>552.4000244140625</ele>
        <time>2019-10-31T09:17:02.000Z</time>
      </trkpt>
      <trkpt lat="37.19534550793468952178955078125" lon="-3.83626003749668598175048828125">
        <ele>551.4000244140625</ele>
        <time>2019-10-31T09:17:06.000Z</time>
      </trkpt>
      <trkpt lat="37.1953533031046390533447265625" lon="-3.8364371471107006072998046875">
        <ele>549.4000244140625</ele>
        <time>2019-10-31T09:17:08.000Z</time>
      </trkpt>
      <trkpt lat="37.19531399197876453399658203125" lon="-3.83669388480484485626220703125">
        <ele>547.20001220703125</ele>
        <time>2019-10-31T09:17:11.000Z</time>
      </trkpt>
      <trkpt lat="37.19533930532634258270263671875" lon="-3.8369202800095081329345703125">
        <ele>545.4000244140625</ele>
        <time>2019-10-31T09:17:14.000Z</time>
      </trkpt>
      <trkpt lat="37.19539730809628963470458984375" lon="-3.8371492736041545867919921875">
        <ele>543.79998779296875</ele>
        <time>2019-10-31T09:17:17.000Z</time>
      </trkpt>
      <trkpt lat="37.1954887546598911285400390625" lon="-3.83739511482417583465576171875">
        <ele>542.79998779296875</ele>
        <time>2019-10-31T09:17:20.000Z</time>
      </trkpt>
      <trkpt lat="37.19556025229394435882568359375" lon="-3.83764673955738544464111328125">
        <ele>542.20001220703125</ele>
        <time>2019-10-31T09:17:23.000Z</time>
      </trkpt>
      <trkpt lat="37.1956287324428558349609375" lon="-3.83790791966021060943603515625">
        <ele>541.20001220703125</ele>
        <time>2019-10-31T09:17:26.000Z</time>
      </trkpt>
      <trkpt lat="37.1956848911941051483154296875" lon="-3.838189803063869476318359375">
        <ele>539</ele>
        <time>2019-10-31T09:17:29.000Z</time>
      </trkpt>
      <trkpt lat="37.195725627243518829345703125" lon="-3.8384836725890636444091796875">
        <ele>538</ele>
        <time>2019-10-31T09:17:32.000Z</time>
      </trkpt>
      <trkpt lat="37.19576443545520305633544921875" lon="-3.8387810625135898590087890625">
        <ele>538</ele>
        <time>2019-10-31T09:17:35.000Z</time>
      </trkpt>
      <trkpt lat="37.1957864798605442047119140625" lon="-3.83908255957067012786865234375">
        <ele>538.20001220703125</ele>
        <time>2019-10-31T09:17:38.000Z</time>
      </trkpt>
      <trkpt lat="37.19579243101179599761962890625" lon="-3.83937374688684940338134765625">
        <ele>537.79998779296875</ele>
        <time>2019-10-31T09:17:41.000Z</time>
      </trkpt>
      <trkpt lat="37.19577684067189693450927734375" lon="-3.83964984677731990814208984375">
        <ele>536.20001220703125</ele>
        <time>2019-10-31T09:17:44.000Z</time>
      </trkpt>
      <trkpt lat="37.1957539580762386322021484375" lon="-3.8399116136133670806884765625">
        <ele>535.5999755859375</ele>
        <time>2019-10-31T09:17:47.000Z</time>
      </trkpt>
      <trkpt lat="37.19572328031063079833984375" lon="-3.840163238346576690673828125">
        <ele>534.5999755859375</ele>
        <time>2019-10-31T09:17:50.000Z</time>
      </trkpt>
      <trkpt lat="37.19569805078208446502685546875" lon="-3.84041176177561283111572265625">
        <ele>532.79998779296875</ele>
        <time>2019-10-31T09:17:53.000Z</time>
      </trkpt>
      <trkpt lat="37.1956694684922695159912109375" lon="-3.8406431861221790313720703125">
        <ele>531</ele>
        <time>2019-10-31T09:17:56.000Z</time>
      </trkpt>
      <trkpt lat="37.19562563113868236541748046875" lon="-3.8409285061061382293701171875">
        <ele>530</ele>
        <time>2019-10-31T09:18:00.000Z</time>
      </trkpt>
      <trkpt lat="37.1955980546772480010986328125" lon="-3.84119748137891292572021484375">
        <ele>530.5999755859375</ele>
        <time>2019-10-31T09:18:04.000Z</time>
      </trkpt>
      <trkpt lat="37.19555807299911975860595703125" lon="-3.84144969284534454345703125">
        <ele>531.4000244140625</ele>
        <time>2019-10-31T09:18:08.000Z</time>
      </trkpt>
      <trkpt lat="37.1955293230712413787841796875" lon="-3.8416986353695392608642578125">
        <ele>531.5999755859375</ele>
        <time>2019-10-31T09:18:12.000Z</time>
      </trkpt>
      <trkpt lat="37.19550191424787044525146484375" lon="-3.8419601507484912872314453125">
        <ele>531.79998779296875</ele>
        <time>2019-10-31T09:18:16.000Z</time>
      </trkpt>
      <trkpt lat="37.19545816071331501007080078125" lon="-3.84222610853612422943115234375">
        <ele>532</ele>
        <time>2019-10-31T09:18:20.000Z</time>
      </trkpt>
      <trkpt lat="37.19542647711932659149169921875" lon="-3.84249575436115264892578125">
        <ele>532.4000244140625</ele>
        <time>2019-10-31T09:18:24.000Z</time>
      </trkpt>
      <trkpt lat="37.19539060257375240325927734375" lon="-3.8427671603858470916748046875">
        <ele>532.5999755859375</ele>
        <time>2019-10-31T09:18:28.000Z</time>
      </trkpt>
      <trkpt lat="37.195355482399463653564453125" lon="-3.84303948841989040374755859375">
        <ele>532.4000244140625</ele>
        <time>2019-10-31T09:18:32.000Z</time>
      </trkpt>
      <trkpt lat="37.195333354175090789794921875" lon="-3.84330712258815765380859375">
        <ele>533</ele>
        <time>2019-10-31T09:18:36.000Z</time>
      </trkpt>
      <trkpt lat="37.19530879519879817962646484375" lon="-3.84357626549899578094482421875">
        <ele>533.20001220703125</ele>
        <time>2019-10-31T09:18:40.000Z</time>
      </trkpt>
      <trkpt lat="37.195277027785778045654296875" lon="-3.84384465403854846954345703125">
        <ele>532.79998779296875</ele>
        <time>2019-10-31T09:18:44.000Z</time>
      </trkpt>
      <trkpt lat="37.195243500173091888427734375" lon="-3.8441129587590694427490234375">
        <ele>531.79998779296875</ele>
        <time>2019-10-31T09:18:48.000Z</time>
      </trkpt>
      <trkpt lat="37.19520770944654941558837890625" lon="-3.84437841363251209259033203125">
        <ele>530.4000244140625</ele>
        <time>2019-10-31T09:18:52.000Z</time>
      </trkpt>
      <trkpt lat="37.1951746009290218353271484375" lon="-3.84464143775403499603271484375">
        <ele>530.5999755859375</ele>
        <time>2019-10-31T09:18:56.000Z</time>
      </trkpt>
      <trkpt lat="37.1951430849730968475341796875" lon="-3.84490161202847957611083984375">
        <ele>531.79998779296875</ele>
        <time>2019-10-31T09:19:00.000Z</time>
      </trkpt>
      <trkpt lat="37.19511265866458415985107421875" lon="-3.845158852636814117431640625">
        <ele>532.5999755859375</ele>
        <time>2019-10-31T09:19:04.000Z</time>
      </trkpt>
      <trkpt lat="37.19507376663386821746826171875" lon="-3.8454104773700237274169921875">
        <ele>532.79998779296875</ele>
        <time>2019-10-31T09:19:08.000Z</time>
      </trkpt>
      <trkpt lat="37.19502733089029788970947265625" lon="-3.845656402409076690673828125">
        <ele>532.20001220703125</ele>
        <time>2019-10-31T09:19:12.000Z</time>
      </trkpt>
      <trkpt lat="37.19496362842619419097900390625" lon="-3.84589889086782932281494140625">
        <ele>532.79998779296875</ele>
        <time>2019-10-31T09:19:16.000Z</time>
      </trkpt>
      <trkpt lat="37.19492423348128795623779296875" lon="-3.8460193388164043426513671875">
        <ele>533.20001220703125</ele>
        <time>2019-10-31T09:19:18.000Z</time>
      </trkpt>
      <trkpt lat="37.194851227104663848876953125" lon="-3.84625612758100032806396484375">
        <ele>534.20001220703125</ele>
        <time>2019-10-31T09:19:22.000Z</time>
      </trkpt>
      <trkpt lat="37.19478157348930835723876953125" lon="-3.84649065323173999786376953125">
        <ele>535</ele>
        <time>2019-10-31T09:19:26.000Z</time>
      </trkpt>
      <trkpt lat="37.19471435062587261199951171875" lon="-3.84671461768448352813720703125">
        <ele>534.20001220703125</ele>
        <time>2019-10-31T09:19:30.000Z</time>
      </trkpt>
      <trkpt lat="37.19463975168764591217041015625" lon="-3.84692667983472347259521484375">
        <ele>534.5999755859375</ele>
        <time>2019-10-31T09:19:34.000Z</time>
      </trkpt>
      <trkpt lat="37.19456599093973636627197265625" lon="-3.84713723324239253997802734375">
        <ele>535.20001220703125</ele>
        <time>2019-10-31T09:19:38.000Z</time>
      </trkpt>
      <trkpt lat="37.19447345472872257232666015625" lon="-3.84739078581333160400390625">
        <ele>534.5999755859375</ele>
        <time>2019-10-31T09:19:43.000Z</time>
      </trkpt>
      <trkpt lat="37.19443774782121181488037109375" lon="-3.8474972359836101531982421875">
        <ele>534.20001220703125</ele>
        <time>2019-10-31T09:19:45.000Z</time>
      </trkpt>
      <trkpt lat="37.19437052495777606964111328125" lon="-3.8477148301899433135986328125">
        <ele>534</ele>
        <time>2019-10-31T09:19:49.000Z</time>
      </trkpt>
      <trkpt lat="37.19433817081153392791748046875" lon="-3.84782689623534679412841796875">
        <ele>534</ele>
        <time>2019-10-31T09:19:51.000Z</time>
      </trkpt>
      <trkpt lat="37.1942854486405849456787109375" lon="-3.8480048440396785736083984375">
        <ele>534.79998779296875</ele>
        <time>2019-10-31T09:19:54.000Z</time>
      </trkpt>
      <trkpt lat="37.194249071180820465087890625" lon="-3.8482660241425037384033203125">
        <ele>535.4000244140625</ele>
        <time>2019-10-31T09:19:58.000Z</time>
      </trkpt>
      <trkpt lat="37.19423356465995311737060546875" lon="-3.84845637716352939605712890625">
        <ele>536.5999755859375</ele>
        <time>2019-10-31T09:20:01.000Z</time>
      </trkpt>
      <trkpt lat="37.19422434456646442413330078125" lon="-3.848703391849994659423828125">
        <ele>536.5999755859375</ele>
        <time>2019-10-31T09:20:05.000Z</time>
      </trkpt>
      <trkpt lat="37.19423733651638031005859375" lon="-3.84896750561892986297607421875">
        <ele>535.5999755859375</ele>
        <time>2019-10-31T09:20:09.000Z</time>
      </trkpt>
      <trkpt lat="37.19428050331771373748779296875" lon="-3.8491907157003879547119140625">
        <ele>534</ele>
        <time>2019-10-31T09:20:12.000Z</time>
      </trkpt>
      <trkpt lat="37.19433263875544071197509765625" lon="-3.8494109921157360076904296875">
        <ele>533.5999755859375</ele>
        <time>2019-10-31T09:20:15.000Z</time>
      </trkpt>
      <trkpt lat="37.194342948496341705322265625" lon="-3.8494790531694889068603515625">
        <ele>533.79998779296875</ele>
        <time>2019-10-31T09:20:16.000Z</time>
      </trkpt>
      <trkpt lat="37.1942928247153759002685546875" lon="-3.8497315160930156707763671875">
        <ele>535.4000244140625</ele>
        <time>2019-10-31T09:20:21.000Z</time>
      </trkpt>
      <trkpt lat="37.19428318552672863006591796875" lon="-3.8498139940202236175537109375">
        <ele>536</ele>
        <time>2019-10-31T09:20:23.000Z</time>
      </trkpt>
      <trkpt lat="37.194278240203857421875" lon="-3.84999521076679229736328125">
        <ele>536.5999755859375</ele>
        <time>2019-10-31T09:20:27.000Z</time>
      </trkpt>
      <trkpt lat="37.1942790783941745758056640625" lon="-3.85022378526628017425537109375">
        <ele>537.4000244140625</ele>
        <time>2019-10-31T09:20:32.000Z</time>
      </trkpt>
      <trkpt lat="37.1942841075360774993896484375" lon="-3.85030877776443958282470703125">
        <ele>537.79998779296875</ele>
        <time>2019-10-31T09:20:34.000Z</time>
      </trkpt>
      <trkpt lat="37.19433096237480640411376953125" lon="-3.85046183131635189056396484375">
        <ele>538.20001220703125</ele>
        <time>2019-10-31T09:20:37.000Z</time>
      </trkpt>
      <trkpt lat="37.19442903064191341400146484375" lon="-3.85070876218378543853759765625">
        <ele>537.79998779296875</ele>
        <time>2019-10-31T09:20:41.000Z</time>
      </trkpt>
      <trkpt lat="37.19453011639416217803955078125" lon="-3.850957117974758148193359375">
        <ele>536.79998779296875</ele>
        <time>2019-10-31T09:20:45.000Z</time>
      </trkpt>
      <trkpt lat="37.19462634064257144927978515625" lon="-3.85117471218109130859375">
        <ele>537</ele>
        <time>2019-10-31T09:20:49.000Z</time>
      </trkpt>
      <trkpt lat="37.19465718604624271392822265625" lon="-3.85122098028659820556640625">
        <ele>537</ele>
        <time>2019-10-31T09:20:50.000Z</time>
      </trkpt>
      <trkpt lat="37.19483220018446445465087890625" lon="-3.85134972631931304931640625">
        <ele>536.5999755859375</ele>
        <time>2019-10-31T09:20:54.000Z</time>
      </trkpt>
      <trkpt lat="37.1949912048876285552978515625" lon="-3.85154393501579761505126953125">
        <ele>536.79998779296875</ele>
        <time>2019-10-31T09:20:58.000Z</time>
      </trkpt>
      <trkpt lat="37.19508063979446887969970703125" lon="-3.85178583674132823944091796875">
        <ele>537.79998779296875</ele>
        <time>2019-10-31T09:21:02.000Z</time>
      </trkpt>
      <trkpt lat="37.19512514770030975341796875" lon="-3.85189731605350971221923828125">
        <ele>537.5999755859375</ele>
        <time>2019-10-31T09:21:04.000Z</time>
      </trkpt>
      <trkpt lat="37.1952225454151630401611328125" lon="-3.85211809538304805755615234375">
        <ele>536</ele>
        <time>2019-10-31T09:21:08.000Z</time>
      </trkpt>
      <trkpt lat="37.19531558454036712646484375" lon="-3.852335773408412933349609375">
        <ele>535.20001220703125</ele>
        <time>2019-10-31T09:21:12.000Z</time>
      </trkpt>
      <trkpt lat="37.19539110548794269561767578125" lon="-3.85254389606416225433349609375">
        <ele>534.4000244140625</ele>
        <time>2019-10-31T09:21:16.000Z</time>
      </trkpt>
      <trkpt lat="37.195442654192447662353515625" lon="-3.85280306451022624969482421875">
        <ele>532.79998779296875</ele>
        <time>2019-10-31T09:21:21.000Z</time>
      </trkpt>
      <trkpt lat="37.1954719908535480499267578125" lon="-3.85302904061973094940185546875">
        <ele>532</ele>
        <time>2019-10-31T09:21:25.000Z</time>
      </trkpt>
      <trkpt lat="37.195486910641193389892578125" lon="-3.85314320214092731475830078125">
        <ele>531.79998779296875</ele>
        <time>2019-10-31T09:21:27.000Z</time>
      </trkpt>
      <trkpt lat="37.19553820788860321044921875" lon="-3.853401280939579010009765625">
        <ele>533</ele>
        <time>2019-10-31T09:21:32.000Z</time>
      </trkpt>
      <trkpt lat="37.195551954209804534912109375" lon="-3.85350127704441547393798828125">
        <ele>533</ele>
        <time>2019-10-31T09:21:34.000Z</time>
      </trkpt>
      <trkpt lat="37.195578776299953460693359375" lon="-3.85375759564340114593505859375">
        <ele>532.79998779296875</ele>
        <time>2019-10-31T09:21:39.000Z</time>
      </trkpt>
      <trkpt lat="37.19557098113000392913818359375" lon="-3.8540153391659259796142578125">
        <ele>532.5999755859375</ele>
        <time>2019-10-31T09:21:44.000Z</time>
      </trkpt>
      <trkpt lat="37.1956325881183147430419921875" lon="-3.85426553897559642791748046875">
        <ele>532.20001220703125</ele>
        <time>2019-10-31T09:21:49.000Z</time>
      </trkpt>
      <trkpt lat="37.19566284678876399993896484375" lon="-3.85439931415021419525146484375">
        <ele>532</ele>
        <time>2019-10-31T09:21:52.000Z</time>
      </trkpt>
      <trkpt lat="37.195696793496608734130859375" lon="-3.85465018451213836669921875">
        <ele>531.5999755859375</ele>
        <time>2019-10-31T09:21:57.000Z</time>
      </trkpt>
      <trkpt lat="37.1956931054592132568359375" lon="-3.85469980537891387939453125">
        <ele>531.5999755859375</ele>
        <time>2019-10-31T09:21:58.000Z</time>
      </trkpt>
      <trkpt lat="37.19568313099443912506103515625" lon="-3.85479443706572055816650390625">
        <ele>531.79998779296875</ele>
        <time>2019-10-31T09:22:00.000Z</time>
      </trkpt>
      <trkpt lat="37.19568447209894657135009765625" lon="-3.85499753057956695556640625">
        <ele>531.20001220703125</ele>
        <time>2019-10-31T09:22:04.000Z</time>
      </trkpt>
      <trkpt lat="37.19570257700979709625244140625" lon="-3.85526583530008792877197265625">
        <ele>530.79998779296875</ele>
        <time>2019-10-31T09:22:09.000Z</time>
      </trkpt>
      <trkpt lat="37.19572235830128192901611328125" lon="-3.85554059408605098724365234375">
        <ele>531</ele>
        <time>2019-10-31T09:22:14.000Z</time>
      </trkpt>
      <trkpt lat="37.19573845155537128448486328125" lon="-3.85581552051007747650146484375">
        <ele>531.20001220703125</ele>
        <time>2019-10-31T09:22:19.000Z</time>
      </trkpt>
      <trkpt lat="37.195750437676906585693359375" lon="-3.85606328956782817840576171875">
        <ele>531</ele>
        <time>2019-10-31T09:22:24.000Z</time>
      </trkpt>
      <trkpt lat="37.19577700830996036529541015625" lon="-3.856324218213558197021484375">
        <ele>530.79998779296875</ele>
        <time>2019-10-31T09:22:29.000Z</time>
      </trkpt>
      <trkpt lat="37.1958015672862529754638671875" lon="-3.8565889187157154083251953125">
        <ele>531</ele>
        <time>2019-10-31T09:22:34.000Z</time>
      </trkpt>
      <trkpt lat="37.19579637050628662109375" lon="-3.8568172417581081390380859375">
        <ele>531.20001220703125</ele>
        <time>2019-10-31T09:22:38.000Z</time>
      </trkpt>
      <trkpt lat="37.195759154856204986572265625" lon="-3.85708370245993137359619140625">
        <ele>530.79998779296875</ele>
        <time>2019-10-31T09:22:43.000Z</time>
      </trkpt>
      <trkpt lat="37.19570048153400421142578125" lon="-3.85731898248195648193359375">
        <ele>530.79998779296875</ele>
        <time>2019-10-31T09:22:48.000Z</time>
      </trkpt>
      <trkpt lat="37.19568908214569091796875" lon="-3.8573697768151760101318359375">
        <ele>530.5999755859375</ele>
        <time>2019-10-31T09:22:49.000Z</time>
      </trkpt>
      <trkpt lat="37.19564675353467464447021484375" lon="-3.8575991056859493255615234375">
        <ele>530.4000244140625</ele>
        <time>2019-10-31T09:22:53.000Z</time>
      </trkpt>
      <trkpt lat="37.19562378711998462677001953125" lon="-3.85778862051665782928466796875">
        <ele>530.5999755859375</ele>
        <time>2019-10-31T09:22:56.000Z</time>
      </trkpt>
      <trkpt lat="37.1955913491547107696533203125" lon="-3.85803739540278911590576171875">
        <ele>531.20001220703125</ele>
        <time>2019-10-31T09:23:00.000Z</time>
      </trkpt>
      <trkpt lat="37.19552655704319477081298828125" lon="-3.858305029571056365966796875">
        <ele>531.5999755859375</ele>
        <time>2019-10-31T09:23:05.000Z</time>
      </trkpt>
      <trkpt lat="37.1954931132495403289794921875" lon="-3.85841223411262035369873046875">
        <ele>531.79998779296875</ele>
        <time>2019-10-31T09:23:07.000Z</time>
      </trkpt>
      <trkpt lat="37.1954190172255039215087890625" lon="-3.8586280681192874908447265625">
        <ele>531.5999755859375</ele>
        <time>2019-10-31T09:23:11.000Z</time>
      </trkpt>
      <trkpt lat="37.19540275633335113525390625" lon="-3.858679197728633880615234375">
        <ele>531.5999755859375</ele>
        <time>2019-10-31T09:23:12.000Z</time>
      </trkpt>
      <trkpt lat="37.19536880962550640106201171875" lon="-3.8587866537272930145263671875">
        <ele>531.20001220703125</ele>
        <time>2019-10-31T09:23:14.000Z</time>
      </trkpt>
      <trkpt lat="37.1952909417450428009033203125" lon="-3.8589945249259471893310546875">
        <ele>530.20001220703125</ele>
        <time>2019-10-31T09:23:19.000Z</time>
      </trkpt>
      <trkpt lat="37.19523754902184009552001953125" lon="-3.85913324542343616485595703125">
        <ele>530.20001220703125</ele>
        <time>2019-10-31T09:23:23.000Z</time>
      </trkpt>
      <trkpt lat="37.19515892677009105682373046875" lon="-3.859308846294879913330078125">
        <ele>530</ele>
        <time>2019-10-31T09:23:28.000Z</time>
      </trkpt>
      <trkpt lat="37.195124141871929168701171875" lon="-3.8593918271362781524658203125">
        <ele>530</ele>
        <time>2019-10-31T09:23:30.000Z</time>
      </trkpt>
      <trkpt lat="37.195011489093303680419921875" lon="-3.8595981895923614501953125">
        <ele>530.20001220703125</ele>
        <time>2019-10-31T09:23:35.000Z</time>
      </trkpt>
      <trkpt lat="37.194963879883289337158203125" lon="-3.8596714474260807037353515625">
        <ele>530.20001220703125</ele>
        <time>2019-10-31T09:23:37.000Z</time>
      </trkpt>
      <trkpt lat="37.19489472918212413787841796875" lon="-3.859762810170650482177734375">
        <ele>530.20001220703125</ele>
        <time>2019-10-31T09:23:40.000Z</time>
      </trkpt>
      <trkpt lat="37.19485047273337841033935546875" lon="-3.8599978387355804443359375">
        <ele>530</ele>
        <time>2019-10-31T09:23:46.000Z</time>
      </trkpt>
      <trkpt lat="37.19487042166292667388916015625" lon="-3.8601022772490978240966796875">
        <ele>529.4000244140625</ele>
        <time>2019-10-31T09:23:48.000Z</time>
      </trkpt>
      <trkpt lat="37.194942422211170196533203125" lon="-3.86032599024474620819091796875">
        <ele>529</ele>
        <time>2019-10-31T09:23:52.000Z</time>
      </trkpt>
      <trkpt lat="37.1950113214552402496337890625" lon="-3.86055313982069492340087890625">
        <ele>528.4000244140625</ele>
        <time>2019-10-31T09:23:56.000Z</time>
      </trkpt>
      <trkpt lat="37.195078544318675994873046875" lon="-3.860775344073772430419921875">
        <ele>527.79998779296875</ele>
        <time>2019-10-31T09:24:00.000Z</time>
      </trkpt>
      <trkpt lat="37.1951390616595745086669921875" lon="-3.8610028289258480072021484375">
        <ele>528.20001220703125</ele>
        <time>2019-10-31T09:24:04.000Z</time>
      </trkpt>
      <trkpt lat="37.19520770944654941558837890625" lon="-3.8612583093345165252685546875">
        <ele>529.20001220703125</ele>
        <time>2019-10-31T09:24:08.000Z</time>
      </trkpt>
      <trkpt lat="37.1952855773270130157470703125" lon="-3.8615265302360057830810546875">
        <ele>529.5999755859375</ele>
        <time>2019-10-31T09:24:12.000Z</time>
      </trkpt>
      <trkpt lat="37.19536880962550640106201171875" lon="-3.861776478588581085205078125">
        <ele>529.4000244140625</ele>
        <time>2019-10-31T09:24:16.000Z</time>
      </trkpt>
      <trkpt lat="37.195442654192447662353515625" lon="-3.86199968867003917694091796875">
        <ele>529.20001220703125</ele>
        <time>2019-10-31T09:24:20.000Z</time>
      </trkpt>
      <trkpt lat="37.195516414940357208251953125" lon="-3.8622611202299594879150390625">
        <ele>528.5999755859375</ele>
        <time>2019-10-31T09:24:25.000Z</time>
      </trkpt>
      <trkpt lat="37.19556528143584728240966796875" lon="-3.86251416988670825958251953125">
        <ele>527.5999755859375</ele>
        <time>2019-10-31T09:24:29.000Z</time>
      </trkpt>
      <trkpt lat="37.19561372883617877960205078125" lon="-3.86276344768702983856201171875">
        <ele>527</ele>
        <time>2019-10-31T09:24:33.000Z</time>
      </trkpt>
      <trkpt lat="37.1956268884241580963134765625" lon="-3.8628230430185794830322265625">
        <ele>526.5999755859375</ele>
        <time>2019-10-31T09:24:34.000Z</time>
      </trkpt>
      <trkpt lat="37.1956651099026203155517578125" lon="-3.8630448281764984130859375">
        <ele>526.4000244140625</ele>
        <time>2019-10-31T09:24:38.000Z</time>
      </trkpt>
      <trkpt lat="37.19569972716271877288818359375" lon="-3.8632820360362529754638671875">
        <ele>526.4000244140625</ele>
        <time>2019-10-31T09:24:43.000Z</time>
      </trkpt>
      <trkpt lat="37.1957321651279926300048828125" lon="-3.86354430578649044036865234375">
        <ele>526.20001220703125</ele>
        <time>2019-10-31T09:24:49.000Z</time>
      </trkpt>
      <trkpt lat="37.19574473798274993896484375" lon="-3.8637980259954929351806640625">
        <ele>526.4000244140625</ele>
        <time>2019-10-31T09:24:55.000Z</time>
      </trkpt>
      <trkpt lat="37.195758484303951263427734375" lon="-3.86403012089431285858154296875">
        <ele>527</ele>
        <time>2019-10-31T09:25:00.000Z</time>
      </trkpt>
      <trkpt lat="37.1957626752555370330810546875" lon="-3.864272944629192352294921875">
        <ele>527</ele>
        <time>2019-10-31T09:25:06.000Z</time>
      </trkpt>
      <trkpt lat="37.19576125033199787139892578125" lon="-3.864529766142368316650390625">
        <ele>528.79998779296875</ele>
        <time>2019-10-31T09:25:12.000Z</time>
      </trkpt>
      <trkpt lat="37.195767201483249664306640625" lon="-3.864765800535678863525390625">
        <ele>529.5999755859375</ele>
        <time>2019-10-31T09:25:17.000Z</time>
      </trkpt>
      <trkpt lat="37.195770554244518280029296875" lon="-3.86499454267323017120361328125">
        <ele>530.4000244140625</ele>
        <time>2019-10-31T09:25:22.000Z</time>
      </trkpt>
      <trkpt lat="37.19575655646622180938720703125" lon="-3.865258656442165374755859375">
        <ele>531</ele>
        <time>2019-10-31T09:25:28.000Z</time>
      </trkpt>
      <trkpt lat="37.19571481458842754364013671875" lon="-3.8654811121523380279541015625">
        <ele>531.20001220703125</ele>
        <time>2019-10-31T09:25:33.000Z</time>
      </trkpt>
      <trkpt lat="37.19568380154669284820556640625" lon="-3.8657171465456485748291015625">
        <ele>531</ele>
        <time>2019-10-31T09:25:38.000Z</time>
      </trkpt>
      <trkpt lat="37.19564088620245456695556640625" lon="-3.86594831943511962890625">
        <ele>530.4000244140625</ele>
        <time>2019-10-31T09:25:43.000Z</time>
      </trkpt>
      <trkpt lat="37.19559679739177227020263671875" lon="-3.86616700328886508941650390625">
        <ele>530</ele>
        <time>2019-10-31T09:25:48.000Z</time>
      </trkpt>
      <trkpt lat="37.19555321149528026580810546875" lon="-3.866386525332927703857421875">
        <ele>530.5999755859375</ele>
        <time>2019-10-31T09:25:53.000Z</time>
      </trkpt>
      <trkpt lat="37.1955041773617267608642578125" lon="-3.8666304387152194976806640625">
        <ele>531.5999755859375</ele>
        <time>2019-10-31T09:26:00.000Z</time>
      </trkpt>
      <trkpt lat="37.1954532153904438018798828125" lon="-3.8668587617576122283935546875">
        <ele>532</ele>
        <time>2019-10-31T09:26:06.000Z</time>
      </trkpt>
      <trkpt lat="37.1954133175313472747802734375" lon="-3.86708733625710010528564453125">
        <ele>532</ele>
        <time>2019-10-31T09:26:11.000Z</time>
      </trkpt>
      <trkpt lat="37.195415161550045013427734375" lon="-3.86734298430383205413818359375">
        <ele>531.20001220703125</ele>
        <time>2019-10-31T09:26:16.000Z</time>
      </trkpt>
      <trkpt lat="37.19546847045421600341796875" lon="-3.86755806393921375274658203125">
        <ele>530.20001220703125</ele>
        <time>2019-10-31T09:26:21.000Z</time>
      </trkpt>
      <trkpt lat="37.19558355398476123809814453125" lon="-3.8677697069942951202392578125">
        <ele>528.79998779296875</ele>
        <time>2019-10-31T09:26:27.000Z</time>
      </trkpt>
      <trkpt lat="37.19571196474134922027587890625" lon="-3.867951929569244384765625">
        <ele>528.79998779296875</ele>
        <time>2019-10-31T09:26:33.000Z</time>
      </trkpt>
      <trkpt lat="37.1958220191299915313720703125" lon="-3.8681502453982830047607421875">
        <ele>529.4000244140625</ele>
        <time>2019-10-31T09:26:40.000Z</time>
      </trkpt>
      <trkpt lat="37.1958773396909236907958984375" lon="-3.86836188845336437225341796875">
        <ele>531</ele>
        <time>2019-10-31T09:26:48.000Z</time>
      </trkpt>
      <trkpt lat="37.1958930976688861846923828125" lon="-3.8685431890189647674560546875">
        <ele>532.20001220703125</ele>
        <time>2019-10-31T09:26:58.000Z</time>
      </trkpt>
      <trkpt lat="37.19589251093566417694091796875" lon="-3.8685378246009349822998046875">
        <ele>532.20001220703125</ele>
        <time>2019-10-31T09:27:01.000Z</time>
      </trkpt>
      <trkpt lat="37.1958290599286556243896484375" lon="-3.86876589618623256683349609375">
        <ele>534</ele>
        <time>2019-10-31T09:33:07.000Z</time>
      </trkpt>
      <trkpt lat="37.19574264250695705413818359375" lon="-3.86896655894815921783447265625">
        <ele>534.20001220703125</ele>
        <time>2019-10-31T09:33:15.000Z</time>
      </trkpt>
      <trkpt lat="37.19562269747257232666015625" lon="-3.86914006434381008148193359375">
        <ele>534.4000244140625</ele>
        <time>2019-10-31T09:33:23.000Z</time>
      </trkpt>
      <trkpt lat="37.1954517066478729248046875" lon="-3.86924668215215206146240234375">
        <ele>535.20001220703125</ele>
        <time>2019-10-31T09:33:32.000Z</time>
      </trkpt>
      <trkpt lat="37.1952520497143268585205078125" lon="-3.8693129830062389373779296875">
        <ele>535.4000244140625</ele>
        <time>2019-10-31T09:33:41.000Z</time>
      </trkpt>
      <trkpt lat="37.19504225067794322967529296875" lon="-3.86928322724997997283935546875">
        <ele>535.4000244140625</ele>
        <time>2019-10-31T09:33:48.000Z</time>
      </trkpt>
      <trkpt lat="37.194861285388469696044921875" lon="-3.8692506216466426849365234375">
        <ele>535</ele>
        <time>2019-10-31T09:33:54.000Z</time>
      </trkpt>
      <trkpt lat="37.1946753747761249542236328125" lon="-3.8691741786897182464599609375">
        <ele>535.20001220703125</ele>
        <time>2019-10-31T09:34:02.000Z</time>
      </trkpt>
      <trkpt lat="37.19449223019182682037353515625" lon="-3.8691094703972339630126953125">
        <ele>535.20001220703125</ele>
        <time>2019-10-31T09:34:09.000Z</time>
      </trkpt>
      <trkpt lat="37.194318138062953948974609375" lon="-3.8690876774489879608154296875">
        <ele>536.5999755859375</ele>
        <time>2019-10-31T09:34:16.000Z</time>
      </trkpt>
      <trkpt lat="37.19418897293508052825927734375" lon="-3.8692858256399631500244140625">
        <ele>536.20001220703125</ele>
        <time>2019-10-31T09:34:24.000Z</time>
      </trkpt>
      <trkpt lat="37.194061316549777984619140625" lon="-3.86946670711040496826171875">
        <ele>537.20001220703125</ele>
        <time>2019-10-31T09:34:30.000Z</time>
      </trkpt>
      <trkpt lat="37.19392578117549419403076171875" lon="-3.86962973512709140777587890625">
        <ele>538.20001220703125</ele>
        <time>2019-10-31T09:34:36.000Z</time>
      </trkpt>
      <trkpt lat="37.19380742870271205902099609375" lon="-3.869827799499034881591796875">
        <ele>539</ele>
        <time>2019-10-31T09:34:42.000Z</time>
      </trkpt>
      <trkpt lat="37.19368589110672473907470703125" lon="-3.8700133748352527618408203125">
        <ele>540</ele>
        <time>2019-10-31T09:34:49.000Z</time>
      </trkpt>
      <trkpt lat="37.19357424415647983551025390625" lon="-3.8701940886676311492919921875">
        <ele>541.4000244140625</ele>
        <time>2019-10-31T09:34:57.000Z</time>
      </trkpt>
      <trkpt lat="37.19345144927501678466796875" lon="-3.87037220411002635955810546875">
        <ele>543.4000244140625</ele>
        <time>2019-10-31T09:35:05.000Z</time>
      </trkpt>
      <trkpt lat="37.19333200715482234954833984375" lon="-3.8705471344292163848876953125">
        <ele>544.4000244140625</ele>
        <time>2019-10-31T09:35:13.000Z</time>
      </trkpt>
      <trkpt lat="37.1931932866573333740234375" lon="-3.87072491459548473358154296875">
        <ele>544.5999755859375</ele>
        <time>2019-10-31T09:35:22.000Z</time>
      </trkpt>
      <trkpt lat="37.19307132996618747711181640625" lon="-3.87090780772268772125244140625">
        <ele>544.20001220703125</ele>
        <time>2019-10-31T09:35:30.000Z</time>
      </trkpt>
      <trkpt lat="37.19295867718756198883056640625" lon="-3.8710869289934635162353515625">
        <ele>544.5999755859375</ele>
        <time>2019-10-31T09:35:37.000Z</time>
      </trkpt>
      <trkpt lat="37.19282649457454681396484375" lon="-3.87126906774938106536865234375">
        <ele>545</ele>
        <time>2019-10-31T09:35:45.000Z</time>
      </trkpt>
      <trkpt lat="37.192696742713451385498046875" lon="-3.87145564891397953033447265625">
        <ele>545.5999755859375</ele>
        <time>2019-10-31T09:35:53.000Z</time>
      </trkpt>
      <trkpt lat="37.19256590120494365692138671875" lon="-3.8716198503971099853515625">
        <ele>546.4000244140625</ele>
        <time>2019-10-31T09:36:01.000Z</time>
      </trkpt>
      <trkpt lat="37.1924521587789058685302734375" lon="-3.8717940263450145721435546875">
        <ele>547.4000244140625</ele>
        <time>2019-10-31T09:36:09.000Z</time>
      </trkpt>
      <trkpt lat="37.19232366420328617095947265625" lon="-3.87196920812129974365234375">
        <ele>548.20001220703125</ele>
        <time>2019-10-31T09:36:17.000Z</time>
      </trkpt>
      <trkpt lat="37.19218770973384380340576171875" lon="-3.8721554540097713470458984375">
        <ele>549.4000244140625</ele>
        <time>2019-10-31T09:36:25.000Z</time>
      </trkpt>
      <trkpt lat="37.19206416048109531402587890625" lon="-3.8723422028124332427978515625">
        <ele>550.4000244140625</ele>
        <time>2019-10-31T09:36:32.000Z</time>
      </trkpt>
      <trkpt lat="37.19193491153419017791748046875" lon="-3.8725463859736919403076171875">
        <ele>550.4000244140625</ele>
        <time>2019-10-31T09:36:39.000Z</time>
      </trkpt>
      <trkpt lat="37.1918127872049808502197265625" lon="-3.872759453952312469482421875">
        <ele>550.79998779296875</ele>
        <time>2019-10-31T09:36:45.000Z</time>
      </trkpt>
      <trkpt lat="37.19171664677560329437255859375" lon="-3.872953243553638458251953125">
        <ele>551.4000244140625</ele>
        <time>2019-10-31T09:36:50.000Z</time>
      </trkpt>
      <trkpt lat="37.19159611500799655914306640625" lon="-3.87312465347349643707275390625">
        <ele>551.79998779296875</ele>
        <time>2019-10-31T09:36:55.000Z</time>
      </trkpt>
      <trkpt lat="37.1914748288691043853759765625" lon="-3.87333847582340240478515625">
        <ele>551.79998779296875</ele>
        <time>2019-10-31T09:37:01.000Z</time>
      </trkpt>
      <trkpt lat="37.19136209227144718170166015625" lon="-3.87355749495327472686767578125">
        <ele>552.20001220703125</ele>
        <time>2019-10-31T09:37:07.000Z</time>
      </trkpt>
      <trkpt lat="37.1912659518420696258544921875" lon="-3.8737714849412441253662109375">
        <ele>553.20001220703125</ele>
        <time>2019-10-31T09:37:12.000Z</time>
      </trkpt>
      <trkpt lat="37.19116629101336002349853515625" lon="-3.873973153531551361083984375">
        <ele>554.4000244140625</ele>
        <time>2019-10-31T09:37:17.000Z</time>
      </trkpt>
      <trkpt lat="37.19107291661202907562255859375" lon="-3.87416996061801910400390625">
        <ele>554.20001220703125</ele>
        <time>2019-10-31T09:37:23.000Z</time>
      </trkpt>
      <trkpt lat="37.19097040593624114990234375" lon="-3.8743699528276920318603515625">
        <ele>553.79998779296875</ele>
        <time>2019-10-31T09:37:29.000Z</time>
      </trkpt>
      <trkpt lat="37.19085247255861759185791015625" lon="-3.874559216201305389404296875">
        <ele>553.20001220703125</ele>
        <time>2019-10-31T09:37:35.000Z</time>
      </trkpt>
      <trkpt lat="37.19075624831020832061767578125" lon="-3.87476700358092784881591796875">
        <ele>553.5999755859375</ele>
        <time>2019-10-31T09:37:41.000Z</time>
      </trkpt>
      <trkpt lat="37.19065985642373561859130859375" lon="-3.874993734061717987060546875">
        <ele>555.5999755859375</ele>
        <time>2019-10-31T09:37:48.000Z</time>
      </trkpt>
      <trkpt lat="37.190571762621402740478515625" lon="-3.87521426193416118621826171875">
        <ele>557.4000244140625</ele>
        <time>2019-10-31T09:37:55.000Z</time>
      </trkpt>
      <trkpt lat="37.19048417173326015472412109375" lon="-3.87542188167572021484375">
        <ele>559.20001220703125</ele>
        <time>2019-10-31T09:38:02.000Z</time>
      </trkpt>
      <trkpt lat="37.1903871931135654449462890625" lon="-3.8756386376917362213134765625">
        <ele>560.5999755859375</ele>
        <time>2019-10-31T09:38:09.000Z</time>
      </trkpt>
      <trkpt lat="37.19029046595096588134765625" lon="-3.87583603151142597198486328125">
        <ele>560.4000244140625</ele>
        <time>2019-10-31T09:38:16.000Z</time>
      </trkpt>
      <trkpt lat="37.19020689837634563446044921875" lon="-3.876041807234287261962890625">
        <ele>559.5999755859375</ele>
        <time>2019-10-31T09:38:23.000Z</time>
      </trkpt>
      <trkpt lat="37.19011746346950531005859375" lon="-3.87623752467334270477294921875">
        <ele>559.5999755859375</ele>
        <time>2019-10-31T09:38:30.000Z</time>
      </trkpt>
      <trkpt lat="37.1900009550154209136962890625" lon="-3.876446150243282318115234375">
        <ele>561.20001220703125</ele>
        <time>2019-10-31T09:38:38.000Z</time>
      </trkpt>
      <trkpt lat="37.18988838605582714080810546875" lon="-3.8766585476696491241455078125">
        <ele>562.5999755859375</ele>
        <time>2019-10-31T09:38:46.000Z</time>
      </trkpt>
      <trkpt lat="37.18979417346417903900146484375" lon="-3.87685309164226055145263671875">
        <ele>563.79998779296875</ele>
        <time>2019-10-31T09:38:54.000Z</time>
      </trkpt>
      <trkpt lat="37.1897117793560028076171875" lon="-3.8770722784101963043212890625">
        <ele>564.5999755859375</ele>
        <time>2019-10-31T09:39:01.000Z</time>
      </trkpt>
      <trkpt lat="37.18961991369724273681640625" lon="-3.877291046082973480224609375">
        <ele>566</ele>
        <time>2019-10-31T09:39:08.000Z</time>
      </trkpt>
      <trkpt lat="37.1895218454301357269287109375" lon="-3.87749380432069301605224609375">
        <ele>566.4000244140625</ele>
        <time>2019-10-31T09:39:16.000Z</time>
      </trkpt>
      <trkpt lat="37.18943224288523197174072265625" lon="-3.877699077129364013671875">
        <ele>566.79998779296875</ele>
        <time>2019-10-31T09:39:24.000Z</time>
      </trkpt>
      <trkpt lat="37.189341299235820770263671875" lon="-3.8779225386679172515869140625">
        <ele>567.20001220703125</ele>
        <time>2019-10-31T09:39:33.000Z</time>
      </trkpt>
      <trkpt lat="37.18925647437572479248046875" lon="-3.87813233770430088043212890625">
        <ele>568.79998779296875</ele>
        <time>2019-10-31T09:39:41.000Z</time>
      </trkpt>
      <trkpt lat="37.189166285097599029541015625" lon="-3.87832981534302234649658203125">
        <ele>570.20001220703125</ele>
        <time>2019-10-31T09:39:49.000Z</time>
      </trkpt>
      <trkpt lat="37.18906939029693603515625" lon="-3.87852913700044155120849609375">
        <ele>571.5999755859375</ele>
        <time>2019-10-31T09:39:57.000Z</time>
      </trkpt>
      <trkpt lat="37.1889880858361721038818359375" lon="-3.87873063795268535614013671875">
        <ele>572.79998779296875</ele>
        <time>2019-10-31T09:40:05.000Z</time>
      </trkpt>
      <trkpt lat="37.18889378942549228668212890625" lon="-3.87894571758806705474853515625">
        <ele>573</ele>
        <time>2019-10-31T09:40:14.000Z</time>
      </trkpt>
      <trkpt lat="37.18880586326122283935546875" lon="-3.87914554215967655181884765625">
        <ele>573.5999755859375</ele>
        <time>2019-10-31T09:40:22.000Z</time>
      </trkpt>
      <trkpt lat="37.18870854936540126800537109375" lon="-3.87934016995131969451904296875">
        <ele>573.79998779296875</ele>
        <time>2019-10-31T09:40:28.000Z</time>
      </trkpt>
      <trkpt lat="37.1886152587831020355224609375" lon="-3.87953798286616802215576171875">
        <ele>573.4000244140625</ele>
        <time>2019-10-31T09:40:34.000Z</time>
      </trkpt>
      <trkpt lat="37.188528589904308319091796875" lon="-3.87973847799003124237060546875">
        <ele>571.5999755859375</ele>
        <time>2019-10-31T09:40:39.000Z</time>
      </trkpt>
      <trkpt lat="37.18842624686658382415771484375" lon="-3.87995422817766666412353515625">
        <ele>570.20001220703125</ele>
        <time>2019-10-31T09:40:43.000Z</time>
      </trkpt>
      <trkpt lat="37.18833656050264835357666015625" lon="-3.880167044699192047119140625">
        <ele>569.4000244140625</ele>
        <time>2019-10-31T09:40:46.000Z</time>
      </trkpt>
      <trkpt lat="37.18825072981417179107666015625" lon="-3.8803982175886631011962890625">
        <ele>569</ele>
        <time>2019-10-31T09:40:49.000Z</time>
      </trkpt>
      <trkpt lat="37.18816054053604602813720703125" lon="-3.88063534162938594818115234375">
        <ele>568.79998779296875</ele>
        <time>2019-10-31T09:40:52.000Z</time>
      </trkpt>
      <trkpt lat="37.188063561916351318359375" lon="-3.88087774626910686492919921875">
        <ele>567.79998779296875</ele>
        <time>2019-10-31T09:40:55.000Z</time>
      </trkpt>
      <trkpt lat="37.1879644878208637237548828125" lon="-3.88111017644405364990234375">
        <ele>566.20001220703125</ele>
        <time>2019-10-31T09:40:58.000Z</time>
      </trkpt>
      <trkpt lat="37.18786348588764667510986328125" lon="-3.881300948560237884521484375">
        <ele>565.5999755859375</ele>
        <time>2019-10-31T09:41:01.000Z</time>
      </trkpt>
      <trkpt lat="37.18783683143556118011474609375" lon="-3.88135962188243865966796875">
        <ele>565.4000244140625</ele>
        <time>2019-10-31T09:41:02.000Z</time>
      </trkpt>
      <trkpt lat="37.18774144537746906280517578125" lon="-3.88155248947441577911376953125">
        <ele>565</ele>
        <time>2019-10-31T09:41:06.000Z</time>
      </trkpt>
      <trkpt lat="37.1876416169106960296630859375" lon="-3.88176463544368743896484375">
        <ele>564.79998779296875</ele>
        <time>2019-10-31T09:41:12.000Z</time>
      </trkpt>
      <trkpt lat="37.187541536986827850341796875" lon="-3.88196957297623157501220703125">
        <ele>565</ele>
        <time>2019-10-31T09:41:19.000Z</time>
      </trkpt>
      <trkpt lat="37.18745210207998752593994140625" lon="-3.8821986503899097442626953125">
        <ele>565</ele>
        <time>2019-10-31T09:41:24.000Z</time>
      </trkpt>
      <trkpt lat="37.18738102354109287261962890625" lon="-3.88237525708973407745361328125">
        <ele>565</ele>
        <time>2019-10-31T09:41:27.000Z</time>
      </trkpt>
      <trkpt lat="37.1872808597981929779052734375" lon="-3.88257776387035846710205078125">
        <ele>564.5999755859375</ele>
        <time>2019-10-31T09:41:31.000Z</time>
      </trkpt>
      <trkpt lat="37.18718656338751316070556640625" lon="-3.88277716934680938720703125">
        <ele>564.20001220703125</ele>
        <time>2019-10-31T09:41:37.000Z</time>
      </trkpt>
      <trkpt lat="37.18714565970003604888916015625" lon="-3.8828829489648342132568359375">
        <ele>564</ele>
        <time>2019-10-31T09:41:43.000Z</time>
      </trkpt>
      <trkpt lat="37.18714247457683086395263671875" lon="-3.88287968002259731292724609375">
        <ele>564</ele>
        <time>2019-10-31T09:41:46.000Z</time>
      </trkpt>
      <trkpt lat="37.18705848790705204010009765625" lon="-3.88309207744896411895751953125">
        <ele>563.4000244140625</ele>
        <time>2019-10-31T09:44:16.000Z</time>
      </trkpt>
      <trkpt lat="37.186952121555805206298828125" lon="-3.88334604911506175994873046875">
        <ele>562</ele>
        <time>2019-10-31T09:44:21.000Z</time>
      </trkpt>
      <trkpt lat="37.1868701465427875518798828125" lon="-3.88355425558984279632568359375">
        <ele>561</ele>
        <time>2019-10-31T09:44:24.000Z</time>
      </trkpt>
      <trkpt lat="37.18678238801658153533935546875" lon="-3.88377352617681026458740234375">
        <ele>560.5999755859375</ele>
        <time>2019-10-31T09:44:27.000Z</time>
      </trkpt>
      <trkpt lat="37.18666671775281429290771484375" lon="-3.88402297161519527435302734375">
        <ele>561</ele>
        <time>2019-10-31T09:44:31.000Z</time>
      </trkpt>
      <trkpt lat="37.18656864948570728302001953125" lon="-3.88421215116977691650390625">
        <ele>562</ele>
        <time>2019-10-31T09:44:35.000Z</time>
      </trkpt>
      <trkpt lat="37.18647695146501064300537109375" lon="-3.88438205234706401824951171875">
        <ele>562.79998779296875</ele>
        <time>2019-10-31T09:44:40.000Z</time>
      </trkpt>
      <trkpt lat="37.18635943718254566192626953125" lon="-3.8845992274582386016845703125">
        <ele>563.5999755859375</ele>
        <time>2019-10-31T09:44:47.000Z</time>
      </trkpt>
      <trkpt lat="37.18626572750508785247802734375" lon="-3.884826712310314178466796875">
        <ele>564.20001220703125</ele>
        <time>2019-10-31T09:44:53.000Z</time>
      </trkpt>
      <trkpt lat="37.18615315854549407958984375" lon="-3.88504321686923503875732421875">
        <ele>564.20001220703125</ele>
        <time>2019-10-31T09:44:59.000Z</time>
      </trkpt>
      <trkpt lat="37.18606422655284404754638671875" lon="-3.88525142334401607513427734375">
        <ele>564.20001220703125</ele>
        <time>2019-10-31T09:45:05.000Z</time>
      </trkpt>
      <trkpt lat="37.18596397899091243743896484375" lon="-3.88545040972530841827392578125">
        <ele>564.20001220703125</ele>
        <time>2019-10-31T09:45:11.000Z</time>
      </trkpt>
      <trkpt lat="37.18585048802196979522705078125" lon="-3.88566683046519756317138671875">
        <ele>564.20001220703125</ele>
        <time>2019-10-31T09:45:18.000Z</time>
      </trkpt>
      <trkpt lat="37.18574118800461292266845703125" lon="-3.8858628831803798675537109375">
        <ele>563.5999755859375</ele>
        <time>2019-10-31T09:45:24.000Z</time>
      </trkpt>
      <trkpt lat="37.18567681498825550079345703125" lon="-3.88607670553028583526611328125">
        <ele>563.79998779296875</ele>
        <time>2019-10-31T09:45:30.000Z</time>
      </trkpt>
      <trkpt lat="37.18558427877724170684814453125" lon="-3.88628549873828887939453125">
        <ele>564.79998779296875</ele>
        <time>2019-10-31T09:45:36.000Z</time>
      </trkpt>
      <trkpt lat="37.185482941567897796630859375" lon="-3.88650141656398773193359375">
        <ele>566</ele>
        <time>2019-10-31T09:45:42.000Z</time>
      </trkpt>
      <trkpt lat="37.1853825263679027557373046875" lon="-3.88670258224010467529296875">
        <ele>566.79998779296875</ele>
        <time>2019-10-31T09:45:48.000Z</time>
      </trkpt>
      <trkpt lat="37.18527196906507015228271484375" lon="-3.88691321946680545806884765625">
        <ele>567</ele>
        <time>2019-10-31T09:45:55.000Z</time>
      </trkpt>
      <trkpt lat="37.185165099799633026123046875" lon="-3.8871275447309017181396484375">
        <ele>567</ele>
        <time>2019-10-31T09:46:02.000Z</time>
      </trkpt>
      <trkpt lat="37.18506175093352794647216796875" lon="-3.88734497129917144775390625">
        <ele>567.4000244140625</ele>
        <time>2019-10-31T09:46:10.000Z</time>
      </trkpt>
      <trkpt lat="37.18495823442935943603515625" lon="-3.8875302113592624664306640625">
        <ele>568.5999755859375</ele>
        <time>2019-10-31T09:46:18.000Z</time>
      </trkpt>
      <trkpt lat="37.18487651087343692779541015625" lon="-3.88774059712886810302734375">
        <ele>569.20001220703125</ele>
        <time>2019-10-31T09:46:26.000Z</time>
      </trkpt>
      <trkpt lat="37.18478648923337459564208984375" lon="-3.88794871978461742401123046875">
        <ele>570.20001220703125</ele>
        <time>2019-10-31T09:46:34.000Z</time>
      </trkpt>
      <trkpt lat="37.18469428829848766326904296875" lon="-3.88816832564771175384521484375">
        <ele>571.5999755859375</ele>
        <time>2019-10-31T09:46:42.000Z</time>
      </trkpt>
      <trkpt lat="37.1846127323806285858154296875" lon="-3.8883943855762481689453125">
        <ele>573</ele>
        <time>2019-10-31T09:46:50.000Z</time>
      </trkpt>
      <trkpt lat="37.18452128581702709197998046875" lon="-3.88861625455319881439208984375">
        <ele>574</ele>
        <time>2019-10-31T09:46:58.000Z</time>
      </trkpt>
      <trkpt lat="37.1844251453876495361328125" lon="-3.88882420957088470458984375">
        <ele>575.20001220703125</ele>
        <time>2019-10-31T09:47:06.000Z</time>
      </trkpt>
      <trkpt lat="37.18433068133890628814697265625" lon="-3.88902939856052398681640625">
        <ele>576</ele>
        <time>2019-10-31T09:47:12.000Z</time>
      </trkpt>
      <trkpt lat="37.18422691337764263153076171875" lon="-3.8892629183828830718994140625">
        <ele>576.4000244140625</ele>
        <time>2019-10-31T09:47:17.000Z</time>
      </trkpt>
      <trkpt lat="37.18413404189050197601318359375" lon="-3.889476321637630462646484375">
        <ele>576</ele>
        <time>2019-10-31T09:47:21.000Z</time>
      </trkpt>
      <trkpt lat="37.1840266697108745574951171875" lon="-3.88970187865197658538818359375">
        <ele>575</ele>
        <time>2019-10-31T09:47:25.000Z</time>
      </trkpt>
      <trkpt lat="37.18391954898834228515625" lon="-3.88992567546665668487548828125">
        <ele>573.4000244140625</ele>
        <time>2019-10-31T09:47:29.000Z</time>
      </trkpt>
      <trkpt lat="37.1838248334825038909912109375" lon="-3.8901386596262454986572265625">
        <ele>571.79998779296875</ele>
        <time>2019-10-31T09:47:33.000Z</time>
      </trkpt>
      <trkpt lat="37.1837319619953632354736328125" lon="-3.8903341256082057952880859375">
        <ele>571.4000244140625</ele>
        <time>2019-10-31T09:47:37.000Z</time>
      </trkpt>
      <trkpt lat="37.18371075578033924102783203125" lon="-3.8903830759227275848388671875">
        <ele>571.4000244140625</ele>
        <time>2019-10-31T09:47:38.000Z</time>
      </trkpt>
      <trkpt lat="37.183622159063816070556640625" lon="-3.89058667235076427459716796875">
        <ele>571</ele>
        <time>2019-10-31T09:47:42.000Z</time>
      </trkpt>
      <trkpt lat="37.183510176837444305419921875" lon="-3.89082513749599456787109375">
        <ele>570</ele>
        <time>2019-10-31T09:47:47.000Z</time>
      </trkpt>
      <trkpt lat="37.1834194846451282501220703125" lon="-3.89103543944656848907470703125">
        <ele>569.79998779296875</ele>
        <time>2019-10-31T09:47:51.000Z</time>
      </trkpt>
      <trkpt lat="37.183328457176685333251953125" lon="-3.89123794622719287872314453125">
        <ele>570.20001220703125</ele>
        <time>2019-10-31T09:47:55.000Z</time>
      </trkpt>
      <trkpt lat="37.1832267008721828460693359375" lon="-3.891466520726680755615234375">
        <ele>571</ele>
        <time>2019-10-31T09:48:00.000Z</time>
      </trkpt>
      <trkpt lat="37.18312787823379039764404296875" lon="-3.8916852883994579315185546875">
        <ele>571.4000244140625</ele>
        <time>2019-10-31T09:48:05.000Z</time>
      </trkpt>
      <trkpt lat="37.18303567729890346527099609375" lon="-3.89188150875270366668701171875">
        <ele>571.79998779296875</ele>
        <time>2019-10-31T09:48:10.000Z</time>
      </trkpt>
      <trkpt lat="37.18298438005149364471435546875" lon="-3.8919867016375064849853515625">
        <ele>572</ele>
        <time>2019-10-31T09:48:13.000Z</time>
      </trkpt>
      <trkpt lat="37.18288756906986236572265625" lon="-3.89219147153198719024658203125">
        <ele>571.79998779296875</ele>
        <time>2019-10-31T09:48:19.000Z</time>
      </trkpt>
      <trkpt lat="37.18279981054365634918212890625" lon="-3.892389871180057525634765625">
        <ele>571.4000244140625</ele>
        <time>2019-10-31T09:48:25.000Z</time>
      </trkpt>
      <trkpt lat="37.18269855715334415435791015625" lon="-3.89260478317737579345703125">
        <ele>571</ele>
        <time>2019-10-31T09:48:32.000Z</time>
      </trkpt>
      <trkpt lat="37.1826084516942501068115234375" lon="-3.89280703850090503692626953125">
        <ele>569.79998779296875</ele>
        <time>2019-10-31T09:48:37.000Z</time>
      </trkpt>
      <trkpt lat="37.18252572230994701385498046875" lon="-3.8930156640708446502685546875">
        <ele>569.20001220703125</ele>
        <time>2019-10-31T09:48:41.000Z</time>
      </trkpt>
      <trkpt lat="37.18243787996470928192138671875" lon="-3.89324541203677654266357421875">
        <ele>569.5999755859375</ele>
        <time>2019-10-31T09:48:45.000Z</time>
      </trkpt>
      <trkpt lat="37.18235607258975505828857421875" lon="-3.893451690673828125">
        <ele>571.20001220703125</ele>
        <time>2019-10-31T09:48:49.000Z</time>
      </trkpt>
      <trkpt lat="37.18227962963283061981201171875" lon="-3.89368705451488494873046875">
        <ele>572.4000244140625</ele>
        <time>2019-10-31T09:48:54.000Z</time>
      </trkpt>
      <trkpt lat="37.18221257440745830535888671875" lon="-3.89389769174158573150634765625">
        <ele>572.79998779296875</ele>
        <time>2019-10-31T09:48:58.000Z</time>
      </trkpt>
      <trkpt lat="37.1821440942585468292236328125" lon="-3.8941569440066814422607421875">
        <ele>571.79998779296875</ele>
        <time>2019-10-31T09:49:02.000Z</time>
      </trkpt>
      <trkpt lat="37.1820894442498683929443359375" lon="-3.894396834075450897216796875">
        <ele>570.20001220703125</ele>
        <time>2019-10-31T09:49:05.000Z</time>
      </trkpt>
      <trkpt lat="37.18206672929227352142333984375" lon="-3.8944778032600879669189453125">
        <ele>569.5999755859375</ele>
        <time>2019-10-31T09:49:06.000Z</time>
      </trkpt>
      <trkpt lat="37.182028256356716156005859375" lon="-3.89463379047811031341552734375">
        <ele>568.5999755859375</ele>
        <time>2019-10-31T09:49:08.000Z</time>
      </trkpt>
      <trkpt lat="37.18198307789862155914306640625" lon="-3.89489471912384033203125">
        <ele>567.4000244140625</ele>
        <time>2019-10-31T09:49:12.000Z</time>
      </trkpt>
      <trkpt lat="37.1819298528134822845458984375" lon="-3.89515480957925319671630859375">
        <ele>566.5999755859375</ele>
        <time>2019-10-31T09:49:17.000Z</time>
      </trkpt>
      <trkpt lat="37.181883417069911956787109375" lon="-3.89543560333549976348876953125">
        <ele>565.4000244140625</ele>
        <time>2019-10-31T09:49:21.000Z</time>
      </trkpt>
      <trkpt lat="37.18183991499245166778564453125" lon="-3.8957065902650356292724609375">
        <ele>564.79998779296875</ele>
        <time>2019-10-31T09:49:24.000Z</time>
      </trkpt>
      <trkpt lat="37.18176799826323986053466796875" lon="-3.89597657136619091033935546875">
        <ele>563.79998779296875</ele>
        <time>2019-10-31T09:49:27.000Z</time>
      </trkpt>
      <trkpt lat="37.18169256113469600677490234375" lon="-3.89619223773479461669921875">
        <ele>564.20001220703125</ele>
        <time>2019-10-31T09:49:30.000Z</time>
      </trkpt>
      <trkpt lat="37.18160488642752170562744140625" lon="-3.89639818109571933746337890625">
        <ele>564.79998779296875</ele>
        <time>2019-10-31T09:49:35.000Z</time>
      </trkpt>
      <trkpt lat="37.181497514247894287109375" lon="-3.8966058008372783660888671875">
        <ele>566</ele>
        <time>2019-10-31T09:49:42.000Z</time>
      </trkpt>
      <trkpt lat="37.18139357864856719970703125" lon="-3.89680872671306133270263671875">
        <ele>567.4000244140625</ele>
        <time>2019-10-31T09:49:49.000Z</time>
      </trkpt>
      <trkpt lat="37.18137706629931926727294921875" lon="-3.89683571644127368927001953125">
        <ele>567.5999755859375</ele>
        <time>2019-10-31T09:49:50.000Z</time>
      </trkpt>
      <trkpt lat="37.18131537549197673797607421875" lon="-3.89694434590637683868408203125">
        <ele>568.4000244140625</ele>
        <time>2019-10-31T09:49:54.000Z</time>
      </trkpt>
      <trkpt lat="37.18120850622653961181640625" lon="-3.89715573750436305999755859375">
        <ele>569.20001220703125</ele>
        <time>2019-10-31T09:50:01.000Z</time>
      </trkpt>
      <trkpt lat="37.1811131201684474945068359375" lon="-3.89736570417881011962890625">
        <ele>569.20001220703125</ele>
        <time>2019-10-31T09:50:07.000Z</time>
      </trkpt>
      <trkpt lat="37.18105017207562923431396484375" lon="-3.897582627832889556884765625">
        <ele>569</ele>
        <time>2019-10-31T09:50:13.000Z</time>
      </trkpt>
      <trkpt lat="37.18098429031670093536376953125" lon="-3.89781287871301174163818359375">
        <ele>568.5999755859375</ele>
        <time>2019-10-31T09:50:19.000Z</time>
      </trkpt>
      <trkpt lat="37.18092695809900760650634765625" lon="-3.89804564416408538818359375">
        <ele>568.4000244140625</ele>
        <time>2019-10-31T09:50:24.000Z</time>
      </trkpt>
      <trkpt lat="37.18086124397814273834228515625" lon="-3.8983069919049739837646484375">
        <ele>568.20001220703125</ele>
        <time>2019-10-31T09:50:29.000Z</time>
      </trkpt>
      <trkpt lat="37.180791087448596954345703125" lon="-3.89852114953100681304931640625">
        <ele>567.79998779296875</ele>
        <time>2019-10-31T09:50:33.000Z</time>
      </trkpt>
      <trkpt lat="37.18071808107197284698486328125" lon="-3.89873589389026165008544921875">
        <ele>566</ele>
        <time>2019-10-31T09:50:37.000Z</time>
      </trkpt>
      <trkpt lat="37.18063317239284515380859375" lon="-3.89897930435836315155029296875">
        <ele>565.4000244140625</ele>
        <time>2019-10-31T09:50:42.000Z</time>
      </trkpt>
      <trkpt lat="37.1805766783654689788818359375" lon="-3.89924467541277408599853515625">
        <ele>566.20001220703125</ele>
        <time>2019-10-31T09:50:48.000Z</time>
      </trkpt>
      <trkpt lat="37.18056519515812397003173828125" lon="-3.89947886578738689422607421875">
        <ele>566.4000244140625</ele>
        <time>2019-10-31T09:50:54.000Z</time>
      </trkpt>
      <trkpt lat="37.180628143250942230224609375" lon="-3.89971406199038028717041015625">
        <ele>567.20001220703125</ele>
        <time>2019-10-31T09:51:02.000Z</time>
      </trkpt>
      <trkpt lat="37.18074054457247257232666015625" lon="-3.89989779330790042877197265625">
        <ele>568.4000244140625</ele>
        <time>2019-10-31T09:51:11.000Z</time>
      </trkpt>
      <trkpt lat="37.18074222095310688018798828125" lon="-3.89992059208452701568603515625">
        <ele>568.5999755859375</ele>
        <time>2019-10-31T09:51:12.000Z</time>
      </trkpt>
      <trkpt lat="37.1808630041778087615966796875" lon="-3.9000856317579746246337890625">
        <ele>570.20001220703125</ele>
        <time>2019-10-31T09:51:20.000Z</time>
      </trkpt>
      <trkpt lat="37.1809624135494232177734375" lon="-3.90027363784611225128173828125">
        <ele>571.79998779296875</ele>
        <time>2019-10-31T09:51:27.000Z</time>
      </trkpt>
      <trkpt lat="37.18108068220317363739013671875" lon="-3.9004815928637981414794921875">
        <ele>573.79998779296875</ele>
        <time>2019-10-31T09:51:35.000Z</time>
      </trkpt>
      <trkpt lat="37.1811929158866405487060546875" lon="-3.9006857760250568389892578125">
        <ele>575.79998779296875</ele>
        <time>2019-10-31T09:51:43.000Z</time>
      </trkpt>
      <trkpt lat="37.1813012100756168365478515625" lon="-3.9009000174701213836669921875">
        <ele>577.5999755859375</ele>
        <time>2019-10-31T09:51:51.000Z</time>
      </trkpt>
      <trkpt lat="37.18142400495707988739013671875" lon="-3.9010807313024997711181640625">
        <ele>579</ele>
        <time>2019-10-31T09:51:59.000Z</time>
      </trkpt>
      <trkpt lat="37.1815291978418827056884765625" lon="-3.901264965534210205078125">
        <ele>580</ele>
        <time>2019-10-31T09:52:07.000Z</time>
      </trkpt>
      <trkpt lat="37.18146390281617641448974609375" lon="-3.90146009624004364013671875">
        <ele>580.4000244140625</ele>
        <time>2019-10-31T09:52:15.000Z</time>
      </trkpt>
      <trkpt lat="37.18129995279014110565185546875" lon="-3.90156202018260955810546875">
        <ele>580</ele>
        <time>2019-10-31T09:52:21.000Z</time>
      </trkpt>
      <trkpt lat="37.18113482929766178131103515625" lon="-3.90165396966040134429931640625">
        <ele>580</ele>
        <time>2019-10-31T09:52:27.000Z</time>
      </trkpt>
      <trkpt lat="37.18096735887229442596435546875" lon="-3.90174918808043003082275390625">
        <ele>580</ele>
        <time>2019-10-31T09:52:34.000Z</time>
      </trkpt>
      <trkpt lat="37.18077935278415679931640625" lon="-3.9018434844911098480224609375">
        <ele>581.4000244140625</ele>
        <time>2019-10-31T09:52:42.000Z</time>
      </trkpt>
      <trkpt lat="37.1806162409484386444091796875" lon="-3.90194465406239032745361328125">
        <ele>582.5999755859375</ele>
        <time>2019-10-31T09:52:50.000Z</time>
      </trkpt>
      <trkpt lat="37.1804418973624706268310546875" lon="-3.90206149779260158538818359375">
        <ele>584</ele>
        <time>2019-10-31T09:52:58.000Z</time>
      </trkpt>
      <trkpt lat="37.180268056690692901611328125" lon="-3.9021552912890911102294921875">
        <ele>584.79998779296875</ele>
        <time>2019-10-31T09:53:05.000Z</time>
      </trkpt>
      <trkpt lat="37.180092372000217437744140625" lon="-3.90227993018925189971923828125">
        <ele>586</ele>
        <time>2019-10-31T09:53:11.000Z</time>
      </trkpt>
      <trkpt lat="37.1799477003514766693115234375" lon="-3.90242963097989559173583984375">
        <ele>587.5999755859375</ele>
        <time>2019-10-31T09:53:18.000Z</time>
      </trkpt>
      <trkpt lat="37.1797827444970607757568359375" lon="-3.90258503146469593048095703125">
        <ele>588.4000244140625</ele>
        <time>2019-10-31T09:53:26.000Z</time>
      </trkpt>
      <trkpt lat="37.1796400845050811767578125" lon="-3.9027252607047557830810546875">
        <ele>588.79998779296875</ele>
        <time>2019-10-31T09:53:32.000Z</time>
      </trkpt>
      <trkpt lat="37.1794813312590122222900390625" lon="-3.90289616771042346954345703125">
        <ele>589</ele>
        <time>2019-10-31T09:53:38.000Z</time>
      </trkpt>
      <trkpt lat="37.1793193928897380828857421875" lon="-3.90305123291909694671630859375">
        <ele>588</ele>
        <time>2019-10-31T09:53:44.000Z</time>
      </trkpt>
      <trkpt lat="37.17917899601161479949951171875" lon="-3.9032281748950481414794921875">
        <ele>586.79998779296875</ele>
        <time>2019-10-31T09:53:50.000Z</time>
      </trkpt>
      <trkpt lat="37.17905561439692974090576171875" lon="-3.90343596227467060089111328125">
        <ele>586.79998779296875</ele>
        <time>2019-10-31T09:53:55.000Z</time>
      </trkpt>
      <trkpt lat="37.17894983477890491485595703125" lon="-3.90363075770437717437744140625">
        <ele>588.5999755859375</ele>
        <time>2019-10-31T09:54:00.000Z</time>
      </trkpt>
      <trkpt lat="37.1788439713418483734130859375" lon="-3.9038707315921783447265625">
        <ele>590.20001220703125</ele>
        <time>2019-10-31T09:54:06.000Z</time>
      </trkpt>
      <trkpt lat="37.17877901159226894378662109375" lon="-3.90412378124892711639404296875">
        <ele>591.20001220703125</ele>
        <time>2019-10-31T09:54:11.000Z</time>
      </trkpt>
      <trkpt lat="37.17877842485904693603515625" lon="-3.90439015813171863555908203125">
        <ele>591.79998779296875</ele>
        <time>2019-10-31T09:54:16.000Z</time>
      </trkpt>
      <trkpt lat="37.17877984978258609771728515625" lon="-3.90464832074940204620361328125">
        <ele>591.5999755859375</ele>
        <time>2019-10-31T09:54:21.000Z</time>
      </trkpt>
      <trkpt lat="37.17879141680896282196044921875" lon="-3.90491218306124210357666015625">
        <ele>591</ele>
        <time>2019-10-31T09:54:26.000Z</time>
      </trkpt>
      <trkpt lat="37.17880952171981334686279296875" lon="-3.9051597006618976593017578125">
        <ele>591</ele>
        <time>2019-10-31T09:54:31.000Z</time>
      </trkpt>
      <trkpt lat="37.17882779426872730255126953125" lon="-3.90539296902716159820556640625">
        <ele>591</ele>
        <time>2019-10-31T09:54:37.000Z</time>
      </trkpt>
      <trkpt lat="37.1788300573825836181640625" lon="-3.90545926988124847412109375">
        <ele>590.5999755859375</ele>
        <time>2019-10-31T09:54:40.000Z</time>
      </trkpt>
      <trkpt lat="37.17882628552615642547607421875" lon="-3.90546706505119800567626953125">
        <ele>590.5999755859375</ele>
        <time>2019-10-31T09:54:43.000Z</time>
      </trkpt>
      <trkpt lat="37.17882938683032989501953125" lon="-3.90562196262180805206298828125">
        <ele>589.4000244140625</ele>
        <time>2019-10-31T09:56:00.000Z</time>
      </trkpt>
      <trkpt lat="37.17881069518625736236572265625" lon="-3.90585623681545257568359375">
        <ele>587</ele>
        <time>2019-10-31T09:56:03.000Z</time>
      </trkpt>
      <trkpt lat="37.17881656251847743988037109375" lon="-3.90616728924214839935302734375">
        <ele>585.4000244140625</ele>
        <time>2019-10-31T09:56:06.000Z</time>
      </trkpt>
      <trkpt lat="37.17882578261196613311767578125" lon="-3.90649259090423583984375">
        <ele>584</ele>
        <time>2019-10-31T09:56:09.000Z</time>
      </trkpt>
      <trkpt lat="37.17884221114218235015869140625" lon="-3.90681789256632328033447265625">
        <ele>582</ele>
        <time>2019-10-31T09:56:12.000Z</time>
      </trkpt>
      <trkpt lat="37.1788694523274898529052734375" lon="-3.9071472175419330596923828125">
        <ele>580.5999755859375</ele>
        <time>2019-10-31T09:56:15.000Z</time>
      </trkpt>
      <trkpt lat="37.1789009682834148406982421875" lon="-3.9074781350791454315185546875">
        <ele>580</ele>
        <time>2019-10-31T09:56:18.000Z</time>
      </trkpt>
      <trkpt lat="37.17890792526304721832275390625" lon="-3.90770872123539447784423828125">
        <ele>578.4000244140625</ele>
        <time>2019-10-31T09:56:20.000Z</time>
      </trkpt>
      <trkpt lat="37.178899459540843963623046875" lon="-3.90799261629581451416015625">
        <ele>577.5999755859375</ele>
        <time>2019-10-31T09:56:23.000Z</time>
      </trkpt>
      <trkpt lat="37.178896106779575347900390625" lon="-3.90825212001800537109375">
        <ele>577</ele>
        <time>2019-10-31T09:56:27.000Z</time>
      </trkpt>
      <trkpt lat="37.1789009682834148406982421875" lon="-3.9085050858557224273681640625">
        <ele>577.4000244140625</ele>
        <time>2019-10-31T09:56:32.000Z</time>
      </trkpt>
      <trkpt lat="37.1789143793284893035888671875" lon="-3.90875075943768024444580078125">
        <ele>578</ele>
        <time>2019-10-31T09:56:36.000Z</time>
      </trkpt>
      <trkpt lat="37.17893726192414760589599609375" lon="-3.90899844467639923095703125">
        <ele>578.4000244140625</ele>
        <time>2019-10-31T09:56:40.000Z</time>
      </trkpt>
      <trkpt lat="37.17896693386137485504150390625" lon="-3.90922366641461849212646484375">
        <ele>578.5999755859375</ele>
        <time>2019-10-31T09:56:46.000Z</time>
      </trkpt>
      <trkpt lat="37.1789723820984363555908203125" lon="-3.909236490726470947265625">
        <ele>578.5999755859375</ele>
        <time>2019-10-31T09:56:47.000Z</time>
      </trkpt>
      <trkpt lat="37.17897883616387844085693359375" lon="-3.90922735445201396942138671875">
        <ele>578.5999755859375</ele>
        <time>2019-10-31T09:56:51.000Z</time>
      </trkpt>
      <trkpt lat="37.178975902497768402099609375" lon="-3.9092829264700412750244140625">
        <ele>578.79998779296875</ele>
        <time>2019-10-31T09:57:52.000Z</time>
      </trkpt>
      <trkpt lat="37.17900616116821765899658203125" lon="-3.9095370657742023468017578125">
        <ele>577.5999755859375</ele>
        <time>2019-10-31T09:57:58.000Z</time>
      </trkpt>
      <trkpt lat="37.179035581648349761962890625" lon="-3.909798748791217803955078125">
        <ele>577.4000244140625</ele>
        <time>2019-10-31T09:58:02.000Z</time>
      </trkpt>
      <trkpt lat="37.179073803126811981201171875" lon="-3.9100299216806888580322265625">
        <ele>577</ele>
        <time>2019-10-31T09:58:05.000Z</time>
      </trkpt>
      <trkpt lat="37.17909065075218677520751953125" lon="-3.91018532216548919677734375">
        <ele>577</ele>
        <time>2019-10-31T09:58:07.000Z</time>
      </trkpt>
      <trkpt lat="37.17912116087973117828369140625" lon="-3.9104126393795013427734375">
        <ele>576.79998779296875</ele>
        <time>2019-10-31T09:58:10.000Z</time>
      </trkpt>
      <trkpt lat="37.17914110980927944183349609375" lon="-3.9105747453868389129638671875">
        <ele>577.20001220703125</ele>
        <time>2019-10-31T09:58:13.000Z</time>
      </trkpt>
      <trkpt lat="37.17914714477956295013427734375" lon="-3.91066409647464752197265625">
        <ele>577.4000244140625</ele>
        <time>2019-10-31T09:58:15.000Z</time>
      </trkpt>
      <trkpt lat="37.1791735477745532989501953125" lon="-3.91088764183223247528076171875">
        <ele>577.4000244140625</ele>
        <time>2019-10-31T09:58:20.000Z</time>
      </trkpt>
      <trkpt lat="37.17920816503465175628662109375" lon="-3.91111311502754688262939453125">
        <ele>577</ele>
        <time>2019-10-31T09:58:24.000Z</time>
      </trkpt>
      <trkpt lat="37.17926382087171077728271484375" lon="-3.91135250218212604522705078125">
        <ele>575.79998779296875</ele>
        <time>2019-10-31T09:58:28.000Z</time>
      </trkpt>
      <trkpt lat="37.1792831830680370330810546875" lon="-3.91141000203788280487060546875">
        <ele>575.4000244140625</ele>
        <time>2019-10-31T09:58:29.000Z</time>
      </trkpt>
      <trkpt lat="37.17938049696385860443115234375" lon="-3.91164821572601795196533203125">
        <ele>573.79998779296875</ele>
        <time>2019-10-31T09:58:33.000Z</time>
      </trkpt>
      <trkpt lat="37.17948677949607372283935546875" lon="-3.91189120709896087646484375">
        <ele>573.4000244140625</ele>
        <time>2019-10-31T09:58:37.000Z</time>
      </trkpt>
      <trkpt lat="37.1795944869518280029296875" lon="-3.91213621012866497039794921875">
        <ele>572.20001220703125</ele>
        <time>2019-10-31T09:58:41.000Z</time>
      </trkpt>
      <trkpt lat="37.1796922199428081512451171875" lon="-3.91236822120845317840576171875">
        <ele>571</ele>
        <time>2019-10-31T09:58:45.000Z</time>
      </trkpt>
      <trkpt lat="37.1797741949558258056640625" lon="-3.9126313291490077972412109375">
        <ele>569</ele>
        <time>2019-10-31T09:58:49.000Z</time>
      </trkpt>
      <trkpt lat="37.179841585457324981689453125" lon="-3.912922181189060211181640625">
        <ele>568.20001220703125</ele>
        <time>2019-10-31T09:58:53.000Z</time>
      </trkpt>
      <trkpt lat="37.179888524115085601806640625" lon="-3.91315327025949954986572265625">
        <ele>569.20001220703125</ele>
        <time>2019-10-31T09:58:56.000Z</time>
      </trkpt>
      <trkpt lat="37.1798997558653354644775390625" lon="-3.91339190304279327392578125">
        <ele>571.5999755859375</ele>
        <time>2019-10-31T09:58:59.000Z</time>
      </trkpt>
      <trkpt lat="37.1799051202833652496337890625" lon="-3.91362131573259830474853515625">
        <ele>572.5999755859375</ele>
        <time>2019-10-31T09:59:02.000Z</time>
      </trkpt>
      <trkpt lat="37.1798948943614959716796875" lon="-3.9139201305806636810302734375">
        <ele>573.79998779296875</ele>
        <time>2019-10-31T09:59:06.000Z</time>
      </trkpt>
      <trkpt lat="37.17988475225865840911865234375" lon="-3.914148621261119842529296875">
        <ele>574.79998779296875</ele>
        <time>2019-10-31T09:59:09.000Z</time>
      </trkpt>
      <trkpt lat="37.1798853389918804168701171875" lon="-3.91444777138531208038330078125">
        <ele>575.20001220703125</ele>
        <time>2019-10-31T09:59:13.000Z</time>
      </trkpt>
      <trkpt lat="37.1798829920589923858642578125" lon="-3.9147428981959819793701171875">
        <ele>574.5999755859375</ele>
        <time>2019-10-31T09:59:17.000Z</time>
      </trkpt>
      <trkpt lat="37.1798776276409626007080078125" lon="-3.91501690261065959930419921875">
        <ele>574.20001220703125</ele>
        <time>2019-10-31T09:59:21.000Z</time>
      </trkpt>
      <trkpt lat="37.17987268231809139251708984375" lon="-3.91513994894921779632568359375">
        <ele>574.20001220703125</ele>
        <time>2019-10-31T09:59:23.000Z</time>
      </trkpt>
      <trkpt lat="37.17987000010907649993896484375" lon="-3.9153712056577205657958984375">
        <ele>574.20001220703125</ele>
        <time>2019-10-31T09:59:27.000Z</time>
      </trkpt>
      <trkpt lat="37.179867736995220184326171875" lon="-3.91561369411647319793701171875">
        <ele>575</ele>
        <time>2019-10-31T09:59:31.000Z</time>
      </trkpt>
      <trkpt lat="37.1798611991107463836669921875" lon="-3.91586665995419025421142578125">
        <ele>575</ele>
        <time>2019-10-31T09:59:35.000Z</time>
      </trkpt>
      <trkpt lat="37.17987134121358394622802734375" lon="-3.91610420309007167816162109375">
        <ele>574.79998779296875</ele>
        <time>2019-10-31T09:59:39.000Z</time>
      </trkpt>
      <trkpt lat="37.17991576530039310455322265625" lon="-3.91632313840091228485107421875">
        <ele>574.5999755859375</ele>
        <time>2019-10-31T09:59:43.000Z</time>
      </trkpt>
      <trkpt lat="37.17994091100990772247314453125" lon="-3.9164422452449798583984375">
        <ele>574.20001220703125</ele>
        <time>2019-10-31T09:59:45.000Z</time>
      </trkpt>
      <trkpt lat="37.1799875982105731964111328125" lon="-3.9167126454412937164306640625">
        <ele>574</ele>
        <time>2019-10-31T09:59:49.000Z</time>
      </trkpt>
      <trkpt lat="37.1800281666219234466552734375" lon="-3.91698480583727359771728515625">
        <ele>574.20001220703125</ele>
        <time>2019-10-31T09:59:53.000Z</time>
      </trkpt>
      <trkpt lat="37.1800707466900348663330078125" lon="-3.91723726876080036163330078125">
        <ele>573.79998779296875</ele>
        <time>2019-10-31T09:59:57.000Z</time>
      </trkpt>
      <trkpt lat="37.18010569922626018524169921875" lon="-3.917496688663959503173828125">
        <ele>573</ele>
        <time>2019-10-31T10:00:01.000Z</time>
      </trkpt>
      <trkpt lat="37.18013855628669261932373046875" lon="-3.91776415519416332244873046875">
        <ele>571.79998779296875</ele>
        <time>2019-10-31T10:00:05.000Z</time>
      </trkpt>
      <trkpt lat="37.180162779986858367919921875" lon="-3.917896337807178497314453125">
        <ele>571.20001220703125</ele>
        <time>2019-10-31T10:00:07.000Z</time>
      </trkpt>
      <trkpt lat="37.1801941283047199249267578125" lon="-3.9181105792522430419921875">
        <ele>571</ele>
        <time>2019-10-31T10:00:10.000Z</time>
      </trkpt>
      <trkpt lat="37.18023528344929218292236328125" lon="-3.9183320291340351104736328125">
        <ele>571.20001220703125</ele>
        <time>2019-10-31T10:00:13.000Z</time>
      </trkpt>
      <trkpt lat="37.1802759356796741485595703125" lon="-3.9185606874525547027587890625">
        <ele>571</ele>
        <time>2019-10-31T10:00:16.000Z</time>
      </trkpt>
      <trkpt lat="37.1803245507180690765380859375" lon="-3.91880149953067302703857421875">
        <ele>571</ele>
        <time>2019-10-31T10:00:19.000Z</time>
      </trkpt>
      <trkpt lat="37.18038012273609638214111328125" lon="-3.9190384559333324432373046875">
        <ele>571.4000244140625</ele>
        <time>2019-10-31T10:00:22.000Z</time>
      </trkpt>
      <trkpt lat="37.18042773194611072540283203125" lon="-3.91932503320276737213134765625">
        <ele>571.20001220703125</ele>
        <time>2019-10-31T10:00:26.000Z</time>
      </trkpt>
      <trkpt lat="37.1804581582546234130859375" lon="-3.91957749612629413604736328125">
        <ele>572.20001220703125</ele>
        <time>2019-10-31T10:00:30.000Z</time>
      </trkpt>
      <trkpt lat="37.180470563471317291259765625" lon="-3.91980548389256000518798828125">
        <ele>572.79998779296875</ele>
        <time>2019-10-31T10:00:34.000Z</time>
      </trkpt>
      <trkpt lat="37.18047802336513996124267578125" lon="-3.91985460184514522552490234375">
        <ele>573</ele>
        <time>2019-10-31T10:00:35.000Z</time>
      </trkpt>
      <trkpt lat="37.18051624484360218048095703125" lon="-3.9200271852314472198486328125">
        <ele>573.5999755859375</ele>
        <time>2019-10-31T10:00:39.000Z</time>
      </trkpt>
      <trkpt lat="37.1805632673203945159912109375" lon="-3.920210413634777069091796875">
        <ele>573.5999755859375</ele>
        <time>2019-10-31T10:00:43.000Z</time>
      </trkpt>
      <trkpt lat="37.1806185878813266754150390625" lon="-3.92039489932358264923095703125">
        <ele>574</ele>
        <time>2019-10-31T10:00:47.000Z</time>
      </trkpt>
      <trkpt lat="37.18065203167498111724853515625" lon="-3.92062372528016567230224609375">
        <ele>574.4000244140625</ele>
        <time>2019-10-31T10:00:52.000Z</time>
      </trkpt>
      <trkpt lat="37.1806799434125423431396484375" lon="-3.92085908912122249603271484375">
        <ele>575.4000244140625</ele>
        <time>2019-10-31T10:00:58.000Z</time>
      </trkpt>
      <trkpt lat="37.1806836314499378204345703125" lon="-3.9209322631359100341796875">
        <ele>575.79998779296875</ele>
        <time>2019-10-31T10:01:00.000Z</time>
      </trkpt>
      <trkpt lat="37.18070182017982006072998046875" lon="-3.9210876636207103729248046875">
        <ele>576.4000244140625</ele>
        <time>2019-10-31T10:01:04.000Z</time>
      </trkpt>
      <trkpt lat="37.18072646297514438629150390625" lon="-3.92134238965809345245361328125">
        <ele>577.20001220703125</ele>
        <time>2019-10-31T10:01:11.000Z</time>
      </trkpt>
      <trkpt lat="37.18074657954275608062744140625" lon="-3.92160122282803058624267578125">
        <ele>578.4000244140625</ele>
        <time>2019-10-31T10:01:18.000Z</time>
      </trkpt>
      <trkpt lat="37.1807692945003509521484375" lon="-3.92182569019496440887451171875">
        <ele>579</ele>
        <time>2019-10-31T10:01:24.000Z</time>
      </trkpt>
      <trkpt lat="37.1808033250272274017333984375" lon="-3.9220489002764225006103515625">
        <ele>578.4000244140625</ele>
        <time>2019-10-31T10:01:30.000Z</time>
      </trkpt>
      <trkpt lat="37.18084900639951229095458984375" lon="-3.92229474149644374847412109375">
        <ele>579.4000244140625</ele>
        <time>2019-10-31T10:01:36.000Z</time>
      </trkpt>
      <trkpt lat="37.180899046361446380615234375" lon="-3.9225263334810733795166015625">
        <ele>580.5999755859375</ele>
        <time>2019-10-31T10:01:42.000Z</time>
      </trkpt>
      <trkpt lat="37.1809575520455837249755859375" lon="-3.92276328988373279571533203125">
        <ele>582</ele>
        <time>2019-10-31T10:01:48.000Z</time>
      </trkpt>
      <trkpt lat="37.18099015764892101287841796875" lon="-3.9230044372379779815673828125">
        <ele>582.4000244140625</ele>
        <time>2019-10-31T10:01:54.000Z</time>
      </trkpt>
      <trkpt lat="37.181025780737400054931640625" lon="-3.9232538826763629913330078125">
        <ele>582</ele>
        <time>2019-10-31T10:02:00.000Z</time>
      </trkpt>
      <trkpt lat="37.18103726394474506378173828125" lon="-3.92350693233311176300048828125">
        <ele>581.79998779296875</ele>
        <time>2019-10-31T10:02:06.000Z</time>
      </trkpt>
      <trkpt lat="37.18105436302721500396728515625" lon="-3.92373718321323394775390625">
        <ele>581.79998779296875</ele>
        <time>2019-10-31T10:02:11.000Z</time>
      </trkpt>
      <trkpt lat="37.18105302192270755767822265625" lon="-3.92396257258951663970947265625">
        <ele>581.79998779296875</ele>
        <time>2019-10-31T10:02:16.000Z</time>
      </trkpt>
      <trkpt lat="37.18105427920818328857421875" lon="-3.924230039119720458984375">
        <ele>581.79998779296875</ele>
        <time>2019-10-31T10:02:22.000Z</time>
      </trkpt>
      <trkpt lat="37.181047908961772918701171875" lon="-3.9245011098682880401611328125">
        <ele>581</ele>
        <time>2019-10-31T10:02:28.000Z</time>
      </trkpt>
      <trkpt lat="37.1810482442378997802734375" lon="-3.9247505553066730499267578125">
        <ele>581.5999755859375</ele>
        <time>2019-10-31T10:02:33.000Z</time>
      </trkpt>
      <trkpt lat="37.18104095198214054107666015625" lon="-3.9250251464545726776123046875">
        <ele>582.5999755859375</ele>
        <time>2019-10-31T10:02:38.000Z</time>
      </trkpt>
      <trkpt lat="37.18103223480284214019775390625" lon="-3.92529361881315708160400390625">
        <ele>584.79998779296875</ele>
        <time>2019-10-31T10:02:43.000Z</time>
      </trkpt>
      <trkpt lat="37.181035168468952178955078125" lon="-3.92555345781147480010986328125">
        <ele>586.4000244140625</ele>
        <time>2019-10-31T10:02:48.000Z</time>
      </trkpt>
      <trkpt lat="37.18104748986661434173583984375" lon="-3.92580742947757244110107421875">
        <ele>586.79998779296875</ele>
        <time>2019-10-31T10:02:53.000Z</time>
      </trkpt>
      <trkpt lat="37.1810453943908214569091796875" lon="-3.92605972476303577423095703125">
        <ele>586</ele>
        <time>2019-10-31T10:02:58.000Z</time>
      </trkpt>
      <trkpt lat="37.181047238409519195556640625" lon="-3.92630430869758129119873046875">
        <ele>585</ele>
        <time>2019-10-31T10:03:03.000Z</time>
      </trkpt>
      <trkpt lat="37.1810527704656124114990234375" lon="-3.92655140720307826995849609375">
        <ele>585.4000244140625</ele>
        <time>2019-10-31T10:03:08.000Z</time>
      </trkpt>
      <trkpt lat="37.18105805106461048126220703125" lon="-3.926795236766338348388671875">
        <ele>587</ele>
        <time>2019-10-31T10:03:13.000Z</time>
      </trkpt>
      <trkpt lat="37.1810541115701198577880859375" lon="-3.92703537829220294952392578125">
        <ele>587.79998779296875</ele>
        <time>2019-10-31T10:03:18.000Z</time>
      </trkpt>
      <trkpt lat="37.18105268664658069610595703125" lon="-3.92726554535329341888427734375">
        <ele>588.5999755859375</ele>
        <time>2019-10-31T10:03:23.000Z</time>
      </trkpt>
      <trkpt lat="37.18107850290834903717041015625" lon="-3.9274941198527812957763671875">
        <ele>589.4000244140625</ele>
        <time>2019-10-31T10:03:28.000Z</time>
      </trkpt>
      <trkpt lat="37.18107162974774837493896484375" lon="-3.92772755585610866546630859375">
        <ele>590.4000244140625</ele>
        <time>2019-10-31T10:03:33.000Z</time>
      </trkpt>
      <trkpt lat="37.18105972744524478912353515625" lon="-3.9279695414006710052490234375">
        <ele>591.5999755859375</ele>
        <time>2019-10-31T10:03:38.000Z</time>
      </trkpt>
      <trkpt lat="37.1810604818165302276611328125" lon="-3.9282313920557498931884765625">
        <ele>593.20001220703125</ele>
        <time>2019-10-31T10:03:43.000Z</time>
      </trkpt>
      <trkpt lat="37.1810520999133586883544921875" lon="-3.92850707285106182098388671875">
        <ele>594</ele>
        <time>2019-10-31T10:03:48.000Z</time>
      </trkpt>
      <trkpt lat="37.1810470707714557647705078125" lon="-3.92873908393085002899169921875">
        <ele>594</ele>
        <time>2019-10-31T10:03:52.000Z</time>
      </trkpt>
      <trkpt lat="37.18103894032537937164306640625" lon="-3.92897511832416057586669921875">
        <ele>594</ele>
        <time>2019-10-31T10:03:56.000Z</time>
      </trkpt>
      <trkpt lat="37.18102452345192432403564453125" lon="-3.92920360900461673736572265625">
        <ele>593.20001220703125</ele>
        <time>2019-10-31T10:04:00.000Z</time>
      </trkpt>
      <trkpt lat="37.1810115315020084381103515625" lon="-3.929366134107112884521484375">
        <ele>593</ele>
        <time>2019-10-31T10:04:03.000Z</time>
      </trkpt>
      <trkpt lat="37.18100893311202526092529296875" lon="-3.929648101329803466796875">
        <ele>593</ele>
        <time>2019-10-31T10:04:08.000Z</time>
      </trkpt>
      <trkpt lat="37.18101480044424533843994140625" lon="-3.929762430489063262939453125">
        <ele>593</ele>
        <time>2019-10-31T10:04:10.000Z</time>
      </trkpt>
      <trkpt lat="37.18100734055042266845703125" lon="-3.92999737523496150970458984375">
        <ele>593.20001220703125</ele>
        <time>2019-10-31T10:04:14.000Z</time>
      </trkpt>
      <trkpt lat="37.18100541271269321441650390625" lon="-3.9302246086299419403076171875">
        <ele>592.79998779296875</ele>
        <time>2019-10-31T10:04:18.000Z</time>
      </trkpt>
      <trkpt lat="37.1809900738298892974853515625" lon="-3.93046475015580654144287109375">
        <ele>592.20001220703125</ele>
        <time>2019-10-31T10:04:22.000Z</time>
      </trkpt>
      <trkpt lat="37.18098479323089122772216796875" lon="-3.93072492443025112152099609375">
        <ele>592</ele>
        <time>2019-10-31T10:04:26.000Z</time>
      </trkpt>
      <trkpt lat="37.1809759922325611114501953125" lon="-3.9309793151915073394775390625">
        <ele>592</ele>
        <time>2019-10-31T10:04:30.000Z</time>
      </trkpt>
      <trkpt lat="37.18097439967095851898193359375" lon="-3.93123772926628589630126953125">
        <ele>593</ele>
        <time>2019-10-31T10:04:34.000Z</time>
      </trkpt>
      <trkpt lat="37.1809650957584381103515625" lon="-3.93149438314139842987060546875">
        <ele>594</ele>
        <time>2019-10-31T10:04:38.000Z</time>
      </trkpt>
      <trkpt lat="37.180956713855266571044921875" lon="-3.9317474327981472015380859375">
        <ele>594</ele>
        <time>2019-10-31T10:04:42.000Z</time>
      </trkpt>
      <trkpt lat="37.18095126561820507049560546875" lon="-3.93197466619312763214111328125">
        <ele>594</ele>
        <time>2019-10-31T10:04:46.000Z</time>
      </trkpt>
      <trkpt lat="37.18094439245760440826416015625" lon="-3.93223685212433338165283203125">
        <ele>594.4000244140625</ele>
        <time>2019-10-31T10:04:51.000Z</time>
      </trkpt>
      <trkpt lat="37.18093785457313060760498046875" lon="-3.932462744414806365966796875">
        <ele>594.5999755859375</ele>
        <time>2019-10-31T10:04:55.000Z</time>
      </trkpt>
      <trkpt lat="37.18093768693506717681884765625" lon="-3.9327204041182994842529296875">
        <ele>594.20001220703125</ele>
        <time>2019-10-31T10:04:59.000Z</time>
      </trkpt>
      <trkpt lat="37.18092930503189563751220703125" lon="-3.93300295807421207427978515625">
        <ele>592.5999755859375</ele>
        <time>2019-10-31T10:05:03.000Z</time>
      </trkpt>
      <trkpt lat="37.18092528171837329864501953125" lon="-3.9332809858024120330810546875">
        <ele>592.4000244140625</ele>
        <time>2019-10-31T10:05:07.000Z</time>
      </trkpt>
      <trkpt lat="37.18092192895710468292236328125" lon="-3.93354124389588832855224609375">
        <ele>592.4000244140625</ele>
        <time>2019-10-31T10:05:11.000Z</time>
      </trkpt>
      <trkpt lat="37.1809119544923305511474609375" lon="-3.9337956346571445465087890625">
        <ele>592.4000244140625</ele>
        <time>2019-10-31T10:05:15.000Z</time>
      </trkpt>
      <trkpt lat="37.18090097419917583465576171875" lon="-3.93405622802674770355224609375">
        <ele>593.20001220703125</ele>
        <time>2019-10-31T10:05:19.000Z</time>
      </trkpt>
      <trkpt lat="37.18087951652705669403076171875" lon="-3.93432210199534893035888671875">
        <ele>592.79998779296875</ele>
        <time>2019-10-31T10:05:23.000Z</time>
      </trkpt>
      <trkpt lat="37.18085722066462039947509765625" lon="-3.93456794321537017822265625">
        <ele>591.5999755859375</ele>
        <time>2019-10-31T10:05:26.000Z</time>
      </trkpt>
      <trkpt lat="37.18082922510802745819091796875" lon="-3.9348467253148555755615234375">
        <ele>590.5999755859375</ele>
        <time>2019-10-31T10:05:29.000Z</time>
      </trkpt>
      <trkpt lat="37.18079787679016590118408203125" lon="-3.93513564951717853546142578125">
        <ele>589.20001220703125</ele>
        <time>2019-10-31T10:05:32.000Z</time>
      </trkpt>
      <trkpt lat="37.180763594806194305419921875" lon="-3.93542113713920116424560546875">
        <ele>590</ele>
        <time>2019-10-31T10:05:35.000Z</time>
      </trkpt>
      <trkpt lat="37.1807195059955120086669921875" lon="-3.93570377491414546966552734375">
        <ele>589.79998779296875</ele>
        <time>2019-10-31T10:05:38.000Z</time>
      </trkpt>
      <trkpt lat="37.18067734502255916595458984375" lon="-3.935991860926151275634765625">
        <ele>587.5999755859375</ele>
        <time>2019-10-31T10:05:41.000Z</time>
      </trkpt>
      <trkpt lat="37.18063828535377979278564453125" lon="-3.93628128804266452789306640625">
        <ele>586.4000244140625</ele>
        <time>2019-10-31T10:05:44.000Z</time>
      </trkpt>
      <trkpt lat="37.18059469945728778839111328125" lon="-3.9365804381668567657470703125">
        <ele>585.20001220703125</ele>
        <time>2019-10-31T10:05:47.000Z</time>
      </trkpt>
      <trkpt lat="37.18054734170436859130859375" lon="-3.93689987249672412872314453125">
        <ele>583.79998779296875</ele>
        <time>2019-10-31T10:05:50.000Z</time>
      </trkpt>
      <trkpt lat="37.18050979077816009521484375" lon="-3.9371209032833576202392578125">
        <ele>583.20001220703125</ele>
        <time>2019-10-31T10:05:52.000Z</time>
      </trkpt>
      <trkpt lat="37.18048028647899627685546875" lon="-3.93734478391706943511962890625">
        <ele>582</ele>
        <time>2019-10-31T10:05:54.000Z</time>
      </trkpt>
      <trkpt lat="37.18044969253242015838623046875" lon="-3.93756908364593982696533203125">
        <ele>580.20001220703125</ele>
        <time>2019-10-31T10:05:56.000Z</time>
      </trkpt>
      <trkpt lat="37.180408872663974761962890625" lon="-3.9378972351551055908203125">
        <ele>577.79998779296875</ele>
        <time>2019-10-31T10:05:59.000Z</time>
      </trkpt>
      <trkpt lat="37.18036905862390995025634765625" lon="-3.9382041804492473602294921875">
        <ele>576.5999755859375</ele>
        <time>2019-10-31T10:06:02.000Z</time>
      </trkpt>
      <trkpt lat="37.18033167533576488494873046875" lon="-3.93848204053938388824462890625">
        <ele>576</ele>
        <time>2019-10-31T10:06:05.000Z</time>
      </trkpt>
      <trkpt lat="37.18029764480888843536376953125" lon="-3.9387355931103229522705078125">
        <ele>576</ele>
        <time>2019-10-31T10:06:08.000Z</time>
      </trkpt>
      <trkpt lat="37.18027283437550067901611328125" lon="-3.93897741101682186126708984375">
        <ele>577.5999755859375</ele>
        <time>2019-10-31T10:06:11.000Z</time>
      </trkpt>
      <trkpt lat="37.180239222943782806396484375" lon="-3.939234316349029541015625">
        <ele>579.4000244140625</ele>
        <time>2019-10-31T10:06:15.000Z</time>
      </trkpt>
      <trkpt lat="37.180219776928424835205078125" lon="-3.939329870045185089111328125">
        <ele>580</ele>
        <time>2019-10-31T10:06:17.000Z</time>
      </trkpt>
      <trkpt lat="37.18016990460455417633056640625" lon="-3.939583338797092437744140625">
        <ele>581.20001220703125</ele>
        <time>2019-10-31T10:06:23.000Z</time>
      </trkpt>
      <trkpt lat="37.1801357902586460113525390625" lon="-3.9398145116865634918212890625">
        <ele>582</ele>
        <time>2019-10-31T10:06:29.000Z</time>
      </trkpt>
      <trkpt lat="37.18011056073009967803955078125" lon="-3.93995893187820911407470703125">
        <ele>583.20001220703125</ele>
        <time>2019-10-31T10:06:33.000Z</time>
      </trkpt>
      <trkpt lat="37.180081307888031005859375" lon="-3.94021877087652683258056640625">
        <ele>584.79998779296875</ele>
        <time>2019-10-31T10:06:39.000Z</time>
      </trkpt>
      <trkpt lat="37.18007334508001804351806640625" lon="-3.94026252441108226776123046875">
        <ele>585</ele>
        <time>2019-10-31T10:06:40.000Z</time>
      </trkpt>
      <trkpt lat="37.180052809417247772216796875" lon="-3.94040132872760295867919921875">
        <ele>585.4000244140625</ele>
        <time>2019-10-31T10:06:43.000Z</time>
      </trkpt>
      <trkpt lat="37.18004643917083740234375" lon="-3.9405725710093975067138671875">
        <ele>585.5999755859375</ele>
        <time>2019-10-31T10:06:47.000Z</time>
      </trkpt>
      <trkpt lat="37.18003160320222377777099609375" lon="-3.94081824459135532379150390625">
        <ele>585</ele>
        <time>2019-10-31T10:06:53.000Z</time>
      </trkpt>
      <trkpt lat="37.180022299289703369140625" lon="-3.94105528481304645538330078125">
        <ele>584.20001220703125</ele>
        <time>2019-10-31T10:06:58.000Z</time>
      </trkpt>
      <trkpt lat="37.180023305118083953857421875" lon="-3.94110205583274364471435546875">
        <ele>584</ele>
        <time>2019-10-31T10:06:59.000Z</time>
      </trkpt>
      <trkpt lat="37.18002439476549625396728515625" lon="-3.94118956290185451507568359375">
        <ele>584</ele>
        <time>2019-10-31T10:07:01.000Z</time>
      </trkpt>
      <trkpt lat="37.1800177730619907379150390625" lon="-3.94144034944474697113037109375">
        <ele>584</ele>
        <time>2019-10-31T10:07:07.000Z</time>
      </trkpt>
      <trkpt lat="37.180021293461322784423828125" lon="-3.94169080071151256561279296875">
        <ele>583.4000244140625</ele>
        <time>2019-10-31T10:07:13.000Z</time>
      </trkpt>
      <trkpt lat="37.18002925626933574676513671875" lon="-3.9419596083462238311767578125">
        <ele>584.4000244140625</ele>
        <time>2019-10-31T10:07:19.000Z</time>
      </trkpt>
      <trkpt lat="37.18003244139254093170166015625" lon="-3.94200596027076244354248046875">
        <ele>584.5999755859375</ele>
        <time>2019-10-31T10:07:20.000Z</time>
      </trkpt>
      <trkpt lat="37.18005272559821605682373046875" lon="-3.9422717504203319549560546875">
        <ele>585.20001220703125</ele>
        <time>2019-10-31T10:07:26.000Z</time>
      </trkpt>
      <trkpt lat="37.18008323572576045989990234375" lon="-3.9425342716276645660400390625">
        <ele>586.20001220703125</ele>
        <time>2019-10-31T10:07:32.000Z</time>
      </trkpt>
      <trkpt lat="37.1801207028329372406005859375" lon="-3.94280877895653247833251953125">
        <ele>587</ele>
        <time>2019-10-31T10:07:37.000Z</time>
      </trkpt>
      <trkpt lat="37.180168144404888153076171875" lon="-3.94307482056319713592529296875">
        <ele>587.20001220703125</ele>
        <time>2019-10-31T10:07:41.000Z</time>
      </trkpt>
      <trkpt lat="37.1802167594432830810546875" lon="-3.94333147443830966949462890625">
        <ele>587.4000244140625</ele>
        <time>2019-10-31T10:07:45.000Z</time>
      </trkpt>
      <trkpt lat="37.1802675537765026092529296875" lon="-3.9435789920389652252197265625">
        <ele>587.79998779296875</ele>
        <time>2019-10-31T10:07:49.000Z</time>
      </trkpt>
      <trkpt lat="37.18032798729836940765380859375" lon="-3.9438150264322757720947265625">
        <ele>587.20001220703125</ele>
        <time>2019-10-31T10:07:53.000Z</time>
      </trkpt>
      <trkpt lat="37.18041985295712947845458984375" lon="-3.944030106067657470703125">
        <ele>586.5999755859375</ele>
        <time>2019-10-31T10:07:57.000Z</time>
      </trkpt>
      <trkpt lat="37.18053149990737438201904296875" lon="-3.9442596025764942169189453125">
        <ele>585.5999755859375</ele>
        <time>2019-10-31T10:08:02.000Z</time>
      </trkpt>
      <trkpt lat="37.1806185878813266754150390625" lon="-3.9445107243955135345458984375">
        <ele>584</ele>
        <time>2019-10-31T10:08:07.000Z</time>
      </trkpt>
      <trkpt lat="37.18070316128432750701904296875" lon="-3.944765031337738037109375">
        <ele>583.20001220703125</ele>
        <time>2019-10-31T10:08:12.000Z</time>
      </trkpt>
      <trkpt lat="37.18078915961086750030517578125" lon="-3.9449814520776271820068359375">
        <ele>582.79998779296875</ele>
        <time>2019-10-31T10:08:16.000Z</time>
      </trkpt>
      <trkpt lat="37.180877588689327239990234375" lon="-3.945213295519351959228515625">
        <ele>582.20001220703125</ele>
        <time>2019-10-31T10:08:20.000Z</time>
      </trkpt>
      <trkpt lat="37.1809726394712924957275390625" lon="-3.94545913673937320709228515625">
        <ele>580.5999755859375</ele>
        <time>2019-10-31T10:08:24.000Z</time>
      </trkpt>
      <trkpt lat="37.18105587176978588104248046875" lon="-3.94566197879612445831298828125">
        <ele>580</ele>
        <time>2019-10-31T10:08:27.000Z</time>
      </trkpt>
      <trkpt lat="37.18113281764090061187744140625" lon="-3.94586934708058834075927734375">
        <ele>578</ele>
        <time>2019-10-31T10:08:30.000Z</time>
      </trkpt>
      <trkpt lat="37.1812271140515804290771484375" lon="-3.94613957963883876800537109375">
        <ele>576.4000244140625</ele>
        <time>2019-10-31T10:08:34.000Z</time>
      </trkpt>
      <trkpt lat="37.18132392503321170806884765625" lon="-3.946395814418792724609375">
        <ele>576.4000244140625</ele>
        <time>2019-10-31T10:08:38.000Z</time>
      </trkpt>
      <trkpt lat="37.1814143657684326171875" lon="-3.94661198370158672332763671875">
        <ele>577.20001220703125</ele>
        <time>2019-10-31T10:08:42.000Z</time>
      </trkpt>
      <trkpt lat="37.18153799884021282196044921875" lon="-3.94684885628521442413330078125">
        <ele>577</ele>
        <time>2019-10-31T10:08:47.000Z</time>
      </trkpt>
      <trkpt lat="37.18162483535706996917724609375" lon="-3.94699704833328723907470703125">
        <ele>577.4000244140625</ele>
        <time>2019-10-31T10:08:50.000Z</time>
      </trkpt>
      <trkpt lat="37.181749306619167327880859375" lon="-3.9471798576414585113525390625">
        <ele>577.4000244140625</ele>
        <time>2019-10-31T10:08:54.000Z</time>
      </trkpt>
      <trkpt lat="37.18179884366691112518310546875" lon="-3.9472539536654949188232421875">
        <ele>577.20001220703125</ele>
        <time>2019-10-31T10:08:56.000Z</time>
      </trkpt>
      <trkpt lat="37.1818041242659091949462890625" lon="-3.94737691618502140045166015625">
        <ele>577.20001220703125</ele>
        <time>2019-10-31T10:09:01.000Z</time>
      </trkpt>
      <trkpt lat="37.18185466714203357696533203125" lon="-3.9474467374384403228759765625">
        <ele>577.79998779296875</ele>
        <time>2019-10-31T10:09:05.000Z</time>
      </trkpt>
      <trkpt lat="37.18187771737575531005859375" lon="-3.9474621601402759552001953125">
        <ele>578</ele>
        <time>2019-10-31T10:09:06.000Z</time>
      </trkpt>
      <trkpt lat="37.18203186057507991790771484375" lon="-3.94759920425713062286376953125">
        <ele>579</ele>
        <time>2019-10-31T10:09:12.000Z</time>
      </trkpt>
      <trkpt lat="37.18218072317540645599365234375" lon="-3.94778176210820674896240234375">
        <ele>579.4000244140625</ele>
        <time>2019-10-31T10:09:18.000Z</time>
      </trkpt>
      <trkpt lat="37.18218390829861164093017578125" lon="-3.9480170421302318572998046875">
        <ele>580.4000244140625</ele>
        <time>2019-10-31T10:09:24.000Z</time>
      </trkpt>
      <trkpt lat="37.18215473927557468414306640625" lon="-3.9482490532100200653076171875">
        <ele>581</ele>
        <time>2019-10-31T10:09:32.000Z</time>
      </trkpt>
      <trkpt lat="37.18214618973433971405029296875" lon="-3.94836598075926303863525390625">
        <ele>581</ele>
        <time>2019-10-31T10:09:38.000Z</time>
      </trkpt>
      <trkpt lat="37.18212791718542575836181640625" lon="-3.9483744464814662933349609375">
        <ele>581</ele>
        <time>2019-10-31T10:09:43.000Z</time>
      </trkpt>
      <trkpt lat="37.18204996548593044281005859375" lon="-3.94836531020700931549072265625">
        <ele>580.5999755859375</ele>
        <time>2019-10-31T10:09:50.000Z</time>
      </trkpt>
      <trkpt lat="37.1818483807146549224853515625" lon="-3.9484592713415622711181640625">
        <ele>580</ele>
        <time>2019-10-31T10:09:57.000Z</time>
      </trkpt>
      <trkpt lat="37.18166238628327846527099609375" lon="-3.94855256192386150360107421875">
        <ele>579.5999755859375</ele>
        <time>2019-10-31T10:10:03.000Z</time>
      </trkpt>
      <trkpt lat="37.18148401938378810882568359375" lon="-3.94863822497427463531494140625">
        <ele>578.5999755859375</ele>
        <time>2019-10-31T10:10:08.000Z</time>
      </trkpt>
      <trkpt lat="37.1813102625310420989990234375" lon="-3.94876428879797458648681640625">
        <ele>577</ele>
        <time>2019-10-31T10:10:13.000Z</time>
      </trkpt>
      <trkpt lat="37.1813226677477359771728515625" lon="-3.94898557104170322418212890625">
        <ele>576.20001220703125</ele>
        <time>2019-10-31T10:10:18.000Z</time>
      </trkpt>
      <trkpt lat="37.181431464850902557373046875" lon="-3.9491973817348480224609375">
        <ele>576.20001220703125</ele>
        <time>2019-10-31T10:10:22.000Z</time>
      </trkpt>
      <trkpt lat="37.18153347261250019073486328125" lon="-3.9493853040039539337158203125">
        <ele>575.4000244140625</ele>
        <time>2019-10-31T10:10:25.000Z</time>
      </trkpt>
      <trkpt lat="37.18164570629596710205078125" lon="-3.94959309138357639312744140625">
        <ele>575.79998779296875</ele>
        <time>2019-10-31T10:10:28.000Z</time>
      </trkpt>
      <trkpt lat="37.1817617118358612060546875" lon="-3.94982166588306427001953125">
        <ele>576</ele>
        <time>2019-10-31T10:10:31.000Z</time>
      </trkpt>
      <trkpt lat="37.18188651837408542633056640625" lon="-3.95007035695016384124755859375">
        <ele>575.20001220703125</ele>
        <time>2019-10-31T10:10:34.000Z</time>
      </trkpt>
      <trkpt lat="37.18201409094035625457763671875" lon="-3.95034327171742916107177734375">
        <ele>573.79998779296875</ele>
        <time>2019-10-31T10:10:37.000Z</time>
      </trkpt>
      <trkpt lat="37.18214317224919795989990234375" lon="-3.9506377279758453369140625">
        <ele>572.4000244140625</ele>
        <time>2019-10-31T10:10:40.000Z</time>
      </trkpt>
      <trkpt lat="37.18226353637874126434326171875" lon="-3.95093469880521297454833984375">
        <ele>572</ele>
        <time>2019-10-31T10:10:43.000Z</time>
      </trkpt>
      <trkpt lat="37.1823734231293201446533203125" lon="-3.95122974179685115814208984375">
        <ele>572</ele>
        <time>2019-10-31T10:10:46.000Z</time>
      </trkpt>
      <trkpt lat="37.18246637843549251556396484375" lon="-3.951515145599842071533203125">
        <ele>572</ele>
        <time>2019-10-31T10:10:49.000Z</time>
      </trkpt>
      <trkpt lat="37.18255698680877685546875" lon="-3.95178495906293392181396484375">
        <ele>571.5999755859375</ele>
        <time>2019-10-31T10:10:52.000Z</time>
      </trkpt>
      <trkpt lat="37.1826436556875705718994140625" lon="-3.9520460553467273712158203125">
        <ele>571</ele>
        <time>2019-10-31T10:10:55.000Z</time>
      </trkpt>
      <trkpt lat="37.18273359350860118865966796875" lon="-3.95230413414537906646728515625">
        <ele>571</ele>
        <time>2019-10-31T10:10:58.000Z</time>
      </trkpt>
      <trkpt lat="37.18281758017838001251220703125" lon="-3.95255810581147670745849609375">
        <ele>571.4000244140625</ele>
        <time>2019-10-31T10:11:01.000Z</time>
      </trkpt>
      <trkpt lat="37.18290098011493682861328125" lon="-3.9528057910501956939697265625">
        <ele>571.20001220703125</ele>
        <time>2019-10-31T10:11:04.000Z</time>
      </trkpt>
      <trkpt lat="37.18298002146184444427490234375" lon="-3.9530515484511852264404296875">
        <ele>570.5999755859375</ele>
        <time>2019-10-31T10:11:07.000Z</time>
      </trkpt>
      <trkpt lat="37.18305964954197406768798828125" lon="-3.9532942883670330047607421875">
        <ele>570.4000244140625</ele>
        <time>2019-10-31T10:11:10.000Z</time>
      </trkpt>
      <trkpt lat="37.1831403672695159912109375" lon="-3.9535350166261196136474609375">
        <ele>569.20001220703125</ele>
        <time>2019-10-31T10:11:13.000Z</time>
      </trkpt>
      <trkpt lat="37.1832220070064067840576171875" lon="-3.9537759125232696533203125">
        <ele>569</ele>
        <time>2019-10-31T10:11:16.000Z</time>
      </trkpt>
      <trkpt lat="37.18330289237201213836669921875" lon="-3.9540191553533077239990234375">
        <ele>569</ele>
        <time>2019-10-31T10:11:19.000Z</time>
      </trkpt>
      <trkpt lat="37.18338537029922008514404296875" lon="-3.95426985807716846466064453125">
        <ele>569.4000244140625</ele>
        <time>2019-10-31T10:11:22.000Z</time>
      </trkpt>
      <trkpt lat="37.1834649145603179931640625" lon="-3.95452315919101238250732421875">
        <ele>569.4000244140625</ele>
        <time>2019-10-31T10:11:25.000Z</time>
      </trkpt>
      <trkpt lat="37.1835458837449550628662109375" lon="-3.95477168262004852294921875">
        <ele>569.5999755859375</ele>
        <time>2019-10-31T10:11:28.000Z</time>
      </trkpt>
      <trkpt lat="37.1836256794631481170654296875" lon="-3.95501350052654743194580078125">
        <ele>569.79998779296875</ele>
        <time>2019-10-31T10:11:31.000Z</time>
      </trkpt>
      <trkpt lat="37.18370639719069004058837890625" lon="-3.95525037311017513275146484375">
        <ele>569.5999755859375</ele>
        <time>2019-10-31T10:11:34.000Z</time>
      </trkpt>
      <trkpt lat="37.183782756328582763671875" lon="-3.9554849825799465179443359375">
        <ele>569</ele>
        <time>2019-10-31T10:11:37.000Z</time>
      </trkpt>
      <trkpt lat="37.183855511248111724853515625" lon="-3.9557097852230072021484375">
        <ele>568.79998779296875</ele>
        <time>2019-10-31T10:11:40.000Z</time>
      </trkpt>
      <trkpt lat="37.1839289367198944091796875" lon="-3.9559412933886051177978515625">
        <ele>568</ele>
        <time>2019-10-31T10:11:43.000Z</time>
      </trkpt>
      <trkpt lat="37.18400261364877223968505859375" lon="-3.9561686106026172637939453125">
        <ele>567.5999755859375</ele>
        <time>2019-10-31T10:11:46.000Z</time>
      </trkpt>
      <trkpt lat="37.184076122939586639404296875" lon="-3.9563937485218048095703125">
        <ele>567</ele>
        <time>2019-10-31T10:11:49.000Z</time>
      </trkpt>
      <trkpt lat="37.18415432609617710113525390625" lon="-3.95662031136453151702880859375">
        <ele>567.5999755859375</ele>
        <time>2019-10-31T10:11:52.000Z</time>
      </trkpt>
      <trkpt lat="37.18423361890017986297607421875" lon="-3.95684234797954559326171875">
        <ele>568.20001220703125</ele>
        <time>2019-10-31T10:11:55.000Z</time>
      </trkpt>
      <trkpt lat="37.1843233890831470489501953125" lon="-3.95706455223262310028076171875">
        <ele>568.20001220703125</ele>
        <time>2019-10-31T10:11:58.000Z</time>
      </trkpt>
      <trkpt lat="37.184415422379970550537109375" lon="-3.95728399045765399932861328125">
        <ele>568.4000244140625</ele>
        <time>2019-10-31T10:12:01.000Z</time>
      </trkpt>
      <trkpt lat="37.18450971879065036773681640625" lon="-3.95750778727233409881591796875">
        <ele>567.79998779296875</ele>
        <time>2019-10-31T10:12:04.000Z</time>
      </trkpt>
      <trkpt lat="37.18460761941969394683837890625" lon="-3.9577340148389339447021484375">
        <ele>566.79998779296875</ele>
        <time>2019-10-31T10:12:07.000Z</time>
      </trkpt>
      <trkpt lat="37.18471415340900421142578125" lon="-3.9579576440155506134033203125">
        <ele>566</ele>
        <time>2019-10-31T10:12:10.000Z</time>
      </trkpt>
      <trkpt lat="37.184818089008331298828125" lon="-3.95818487741053104400634765625">
        <ele>566.4000244140625</ele>
        <time>2019-10-31T10:12:13.000Z</time>
      </trkpt>
      <trkpt lat="37.1849265508353710174560546875" lon="-3.958414457738399505615234375">
        <ele>566.4000244140625</ele>
        <time>2019-10-31T10:12:16.000Z</time>
      </trkpt>
      <trkpt lat="37.18503342010080814361572265625" lon="-3.95864454098045825958251953125">
        <ele>566.79998779296875</ele>
        <time>2019-10-31T10:12:19.000Z</time>
      </trkpt>
      <trkpt lat="37.1851377747952938079833984375" lon="-3.95887018181383609771728515625">
        <ele>566.5999755859375</ele>
        <time>2019-10-31T10:12:22.000Z</time>
      </trkpt>
      <trkpt lat="37.1852405369281768798828125" lon="-3.95908643491566181182861328125">
        <ele>566</ele>
        <time>2019-10-31T10:12:25.000Z</time>
      </trkpt>
      <trkpt lat="37.18533751554787158966064453125" lon="-3.95929246209561824798583984375">
        <ele>565</ele>
        <time>2019-10-31T10:12:28.000Z</time>
      </trkpt>
      <trkpt lat="37.1854334883391857147216796875" lon="-3.95948968827724456787109375">
        <ele>565.20001220703125</ele>
        <time>2019-10-31T10:12:31.000Z</time>
      </trkpt>
      <trkpt lat="37.1855280362069606781005859375" lon="-3.9596846513450145721435546875">
        <ele>564.79998779296875</ele>
        <time>2019-10-31T10:12:34.000Z</time>
      </trkpt>
      <trkpt lat="37.185651920735836029052734375" lon="-3.959934599697589874267578125">
        <ele>564.4000244140625</ele>
        <time>2019-10-31T10:12:38.000Z</time>
      </trkpt>
      <trkpt lat="37.18577588908374309539794921875" lon="-3.96019334904849529266357421875">
        <ele>562.79998779296875</ele>
        <time>2019-10-31T10:12:42.000Z</time>
      </trkpt>
      <trkpt lat="37.1858693473041057586669921875" lon="-3.96039820276200771331787109375">
        <ele>562.5999755859375</ele>
        <time>2019-10-31T10:12:45.000Z</time>
      </trkpt>
      <trkpt lat="37.18597018159925937652587890625" lon="-3.96060791797935962677001953125">
        <ele>562.4000244140625</ele>
        <time>2019-10-31T10:12:48.000Z</time>
      </trkpt>
      <trkpt lat="37.18606506474316120147705078125" lon="-3.96081528626382350921630859375">
        <ele>562.4000244140625</ele>
        <time>2019-10-31T10:12:51.000Z</time>
      </trkpt>
      <trkpt lat="37.18616078607738018035888671875" lon="-3.96102282218635082244873046875">
        <ele>562</ele>
        <time>2019-10-31T10:12:54.000Z</time>
      </trkpt>
      <trkpt lat="37.18623890541493892669677734375" lon="-3.96125324070453643798828125">
        <ele>561.5999755859375</ele>
        <time>2019-10-31T10:12:57.000Z</time>
      </trkpt>
      <trkpt lat="37.18632624484598636627197265625" lon="-3.96148030646145343780517578125">
        <ele>561.79998779296875</ele>
        <time>2019-10-31T10:13:00.000Z</time>
      </trkpt>
      <trkpt lat="37.1864316053688526153564453125" lon="-3.961693458259105682373046875">
        <ele>562.79998779296875</ele>
        <time>2019-10-31T10:13:03.000Z</time>
      </trkpt>
      <trkpt lat="37.18652598559856414794921875" lon="-3.9619112201035022735595703125">
        <ele>564</ele>
        <time>2019-10-31T10:13:06.000Z</time>
      </trkpt>
      <trkpt lat="37.186612151563167572021484375" lon="-3.9621311612427234649658203125">
        <ele>564.79998779296875</ele>
        <time>2019-10-31T10:13:09.000Z</time>
      </trkpt>
      <trkpt lat="37.18669957481324672698974609375" lon="-3.9623517729341983795166015625">
        <ele>564.20001220703125</ele>
        <time>2019-10-31T10:13:12.000Z</time>
      </trkpt>
      <trkpt lat="37.18672656454145908355712890625" lon="-3.9624260365962982177734375">
        <ele>563.5999755859375</ele>
        <time>2019-10-31T10:13:13.000Z</time>
      </trkpt>
      <trkpt lat="37.18680485151708126068115234375" lon="-3.96265461109578609466552734375">
        <ele>562.20001220703125</ele>
        <time>2019-10-31T10:13:16.000Z</time>
      </trkpt>
      <trkpt lat="37.18687961809337139129638671875" lon="-3.9628862030804157257080078125">
        <ele>561</ele>
        <time>2019-10-31T10:13:19.000Z</time>
      </trkpt>
      <trkpt lat="37.18695639632642269134521484375" lon="-3.96311796270310878753662109375">
        <ele>558.4000244140625</ele>
        <time>2019-10-31T10:13:22.000Z</time>
      </trkpt>
      <trkpt lat="37.18702127225697040557861328125" lon="-3.96332901902496814727783203125">
        <ele>556.79998779296875</ele>
        <time>2019-10-31T10:13:25.000Z</time>
      </trkpt>
      <trkpt lat="37.18707852065563201904296875" lon="-3.96355700679123401641845703125">
        <ele>556.20001220703125</ele>
        <time>2019-10-31T10:13:29.000Z</time>
      </trkpt>
      <trkpt lat="37.18713442794978618621826171875" lon="-3.96383796818554401397705078125">
        <ele>556</ele>
        <time>2019-10-31T10:13:33.000Z</time>
      </trkpt>
      <trkpt lat="37.18719519674777984619140625" lon="-3.96408841945230960845947265625">
        <ele>556.20001220703125</ele>
        <time>2019-10-31T10:13:36.000Z</time>
      </trkpt>
      <trkpt lat="37.18726216815412044525146484375" lon="-3.96434674970805644989013671875">
        <ele>556.4000244140625</ele>
        <time>2019-10-31T10:13:39.000Z</time>
      </trkpt>
      <trkpt lat="37.18732469715178012847900390625" lon="-3.96461430005729198455810546875">
        <ele>556.5999755859375</ele>
        <time>2019-10-31T10:13:42.000Z</time>
      </trkpt>
      <trkpt lat="37.18738026916980743408203125" lon="-3.96487430669367313385009765625">
        <ele>556</ele>
        <time>2019-10-31T10:13:45.000Z</time>
      </trkpt>
      <trkpt lat="37.18743793666362762451171875" lon="-3.96512911655008792877197265625">
        <ele>555.20001220703125</ele>
        <time>2019-10-31T10:13:48.000Z</time>
      </trkpt>
      <trkpt lat="37.187491916120052337646484375" lon="-3.9653722755610942840576171875">
        <ele>554.5999755859375</ele>
        <time>2019-10-31T10:13:51.000Z</time>
      </trkpt>
      <trkpt lat="37.187546901404857635498046875" lon="-3.96560437045991420745849609375">
        <ele>555</ele>
        <time>2019-10-31T10:13:54.000Z</time>
      </trkpt>
      <trkpt lat="37.1875973604619503021240234375" lon="-3.965825401246547698974609375">
        <ele>555.20001220703125</ele>
        <time>2019-10-31T10:13:57.000Z</time>
      </trkpt>
      <trkpt lat="37.18760423362255096435546875" lon="-3.96590058691799640655517578125">
        <ele>555</ele>
        <time>2019-10-31T10:13:58.000Z</time>
      </trkpt>
      <trkpt lat="37.18763700686395168304443359375" lon="-3.96613310091197490692138671875">
        <ele>554.20001220703125</ele>
        <time>2019-10-31T10:14:01.000Z</time>
      </trkpt>
      <trkpt lat="37.187691740691661834716796875" lon="-3.96637215279042720794677734375">
        <ele>553.5999755859375</ele>
        <time>2019-10-31T10:14:04.000Z</time>
      </trkpt>
      <trkpt lat="37.187739349901676177978515625" lon="-3.966594524681568145751953125">
        <ele>553.20001220703125</ele>
        <time>2019-10-31T10:14:07.000Z</time>
      </trkpt>
      <trkpt lat="37.1878176368772983551025390625" lon="-3.9668686129152774810791015625">
        <ele>552.79998779296875</ele>
        <time>2019-10-31T10:14:11.000Z</time>
      </trkpt>
      <trkpt lat="37.1878883801400661468505859375" lon="-3.96707790903747081756591796875">
        <ele>552</ele>
        <time>2019-10-31T10:14:14.000Z</time>
      </trkpt>
      <trkpt lat="37.18798737041652202606201171875" lon="-3.9673483930528163909912109375">
        <ele>551</ele>
        <time>2019-10-31T10:14:18.000Z</time>
      </trkpt>
      <trkpt lat="37.1880836784839630126953125" lon="-3.9676075614988803863525390625">
        <ele>550</ele>
        <time>2019-10-31T10:14:22.000Z</time>
      </trkpt>
      <trkpt lat="37.1881854347884654998779296875" lon="-3.9678667299449443817138671875">
        <ele>550</ele>
        <time>2019-10-31T10:14:26.000Z</time>
      </trkpt>
      <trkpt lat="37.1882915496826171875" lon="-3.96813218481838703155517578125">
        <ele>549.20001220703125</ele>
        <time>2019-10-31T10:14:30.000Z</time>
      </trkpt>
      <trkpt lat="37.1883946470916271209716796875" lon="-3.96840400993824005126953125">
        <ele>548.79998779296875</ele>
        <time>2019-10-31T10:14:34.000Z</time>
      </trkpt>
      <trkpt lat="37.18847595155239105224609375" lon="-3.9686080254614353179931640625">
        <ele>548.79998779296875</ele>
        <time>2019-10-31T10:14:37.000Z</time>
      </trkpt>
      <trkpt lat="37.18857309781014919281005859375" lon="-3.96887599490582942962646484375">
        <ele>549.4000244140625</ele>
        <time>2019-10-31T10:14:41.000Z</time>
      </trkpt>
      <trkpt lat="37.18866714276373386383056640625" lon="-3.9691387675702571868896484375">
        <ele>550</ele>
        <time>2019-10-31T10:14:45.000Z</time>
      </trkpt>
      <trkpt lat="37.18876755796372890472412109375" lon="-3.9693942479789257049560546875">
        <ele>550</ele>
        <time>2019-10-31T10:14:49.000Z</time>
      </trkpt>
      <trkpt lat="37.18886177055537700653076171875" lon="-3.96965400315821170806884765625">
        <ele>549.79998779296875</ele>
        <time>2019-10-31T10:14:53.000Z</time>
      </trkpt>
      <trkpt lat="37.18897341750562191009521484375" lon="-3.96990847773849964141845703125">
        <ele>549.4000244140625</ele>
        <time>2019-10-31T10:14:57.000Z</time>
      </trkpt>
      <trkpt lat="37.1890829689800739288330078125" lon="-3.97015658207237720489501953125">
        <ele>549</ele>
        <time>2019-10-31T10:15:01.000Z</time>
      </trkpt>
      <trkpt lat="37.18916838057339191436767578125" lon="-3.97037384100258350372314453125">
        <ele>549</ele>
        <time>2019-10-31T10:15:05.000Z</time>
      </trkpt>
      <trkpt lat="37.18925789929926395416259765625" lon="-3.9705828018486499786376953125">
        <ele>549</ele>
        <time>2019-10-31T10:15:09.000Z</time>
      </trkpt>
      <trkpt lat="37.1893416345119476318359375" lon="-3.9707853086292743682861328125">
        <ele>549.4000244140625</ele>
        <time>2019-10-31T10:15:13.000Z</time>
      </trkpt>
      <trkpt lat="37.18942889012396335601806640625" lon="-3.97098806686699390411376953125">
        <ele>550.4000244140625</ele>
        <time>2019-10-31T10:15:18.000Z</time>
      </trkpt>
      <trkpt lat="37.189510278403759002685546875" lon="-3.97120633162558078765869140625">
        <ele>551.4000244140625</ele>
        <time>2019-10-31T10:15:23.000Z</time>
      </trkpt>
      <trkpt lat="37.18955495394766330718994140625" lon="-3.971335329115390777587890625">
        <ele>551.5999755859375</ele>
        <time>2019-10-31T10:15:26.000Z</time>
      </trkpt>
      <trkpt lat="37.18964011408388614654541015625" lon="-3.97156122140586376190185546875">
        <ele>551.20001220703125</ele>
        <time>2019-10-31T10:15:32.000Z</time>
      </trkpt>
      <trkpt lat="37.1897196583449840545654296875" lon="-3.97176389582455158233642578125">
        <ele>552</ele>
        <time>2019-10-31T10:15:38.000Z</time>
      </trkpt>
      <trkpt lat="37.18973265029489994049072265625" lon="-3.9717971719801425933837890625">
        <ele>552</ele>
        <time>2019-10-31T10:15:39.000Z</time>
      </trkpt>
      <trkpt lat="37.18975343741476535797119140625" lon="-3.97186464630067348480224609375">
        <ele>552.20001220703125</ele>
        <time>2019-10-31T10:15:41.000Z</time>
      </trkpt>
      <trkpt lat="37.18984982930123805999755859375" lon="-3.97209984250366687774658203125">
        <ele>553.5999755859375</ele>
        <time>2019-10-31T10:15:48.000Z</time>
      </trkpt>
      <trkpt lat="37.189864329993724822998046875" lon="-3.97213739342987537384033203125">
        <ele>553.5999755859375</ele>
        <time>2019-10-31T10:15:49.000Z</time>
      </trkpt>
      <trkpt lat="37.18995091505348682403564453125" lon="-3.97238172590732574462890625">
        <ele>554</ele>
        <time>2019-10-31T10:15:55.000Z</time>
      </trkpt>
      <trkpt lat="37.18999181874096393585205078125" lon="-3.9724945463240146636962890625">
        <ele>554.20001220703125</ele>
        <time>2019-10-31T10:15:58.000Z</time>
      </trkpt>
      <trkpt lat="37.19007614068686962127685546875" lon="-3.9727134816348552703857421875">
        <ele>554.20001220703125</ele>
        <time>2019-10-31T10:16:03.000Z</time>
      </trkpt>
      <trkpt lat="37.19017035327851772308349609375" lon="-3.9729511924088001251220703125">
        <ele>554.20001220703125</ele>
        <time>2019-10-31T10:16:08.000Z</time>
      </trkpt>
      <trkpt lat="37.190270014107227325439453125" lon="-3.97320038639008998870849609375">
        <ele>553.79998779296875</ele>
        <time>2019-10-31T10:16:13.000Z</time>
      </trkpt>
      <trkpt lat="37.19035911373794078826904296875" lon="-3.9734370075166225433349609375">
        <ele>553.79998779296875</ele>
        <time>2019-10-31T10:16:17.000Z</time>
      </trkpt>
      <trkpt lat="37.19043723307549953460693359375" lon="-3.973654769361019134521484375">
        <ele>554</ele>
        <time>2019-10-31T10:16:20.000Z</time>
      </trkpt>
      <trkpt lat="37.19051032327115535736083984375" lon="-3.973870016634464263916015625">
        <ele>554.20001220703125</ele>
        <time>2019-10-31T10:16:23.000Z</time>
      </trkpt>
      <trkpt lat="37.19060503877699375152587890625" lon="-3.97412155754864215850830078125">
        <ele>554</ele>
        <time>2019-10-31T10:16:27.000Z</time>
      </trkpt>
      <trkpt lat="37.190679721534252166748046875" lon="-3.9743377268314361572265625">
        <ele>553.4000244140625</ele>
        <time>2019-10-31T10:16:31.000Z</time>
      </trkpt>
      <trkpt lat="37.1907616965472698211669921875" lon="-3.974560685455799102783203125">
        <ele>554</ele>
        <time>2019-10-31T10:16:35.000Z</time>
      </trkpt>
      <trkpt lat="37.1908517181873321533203125" lon="-3.9748270623385906219482421875">
        <ele>554.20001220703125</ele>
        <time>2019-10-31T10:16:39.000Z</time>
      </trkpt>
      <trkpt lat="37.1909509599208831787109375" lon="-3.97508966736495494842529296875">
        <ele>555</ele>
        <time>2019-10-31T10:16:43.000Z</time>
      </trkpt>
      <trkpt lat="37.1910453401505947113037109375" lon="-3.97532167844474315643310546875">
        <ele>555</ele>
        <time>2019-10-31T10:16:47.000Z</time>
      </trkpt>
      <trkpt lat="37.19113175757229328155517578125" lon="-3.9755301363766193389892578125">
        <ele>553.79998779296875</ele>
        <time>2019-10-31T10:16:51.000Z</time>
      </trkpt>
      <trkpt lat="37.19120652414858341217041015625" lon="-3.97573892958462238311767578125">
        <ele>554</ele>
        <time>2019-10-31T10:16:55.000Z</time>
      </trkpt>
      <trkpt lat="37.1912951208651065826416015625" lon="-3.97597043775022029876708984375">
        <ele>554</ele>
        <time>2019-10-31T10:16:59.000Z</time>
      </trkpt>
      <trkpt lat="37.19139427877962589263916015625" lon="-3.97622927092015743255615234375">
        <ele>554.4000244140625</ele>
        <time>2019-10-31T10:17:03.000Z</time>
      </trkpt>
      <trkpt lat="37.1914872340857982635498046875" lon="-3.9764947257936000823974609375">
        <ele>554.4000244140625</ele>
        <time>2019-10-31T10:17:07.000Z</time>
      </trkpt>
      <trkpt lat="37.19157499261200428009033203125" lon="-3.9767424948513507843017578125">
        <ele>553.4000244140625</ele>
        <time>2019-10-31T10:17:11.000Z</time>
      </trkpt>
      <trkpt lat="37.1916588954627513885498046875" lon="-3.97694894112646579742431640625">
        <ele>553.20001220703125</ele>
        <time>2019-10-31T10:17:15.000Z</time>
      </trkpt>
      <trkpt lat="37.1917427144944667816162109375" lon="-3.97715848870575428009033203125">
        <ele>553</ele>
        <time>2019-10-31T10:17:19.000Z</time>
      </trkpt>
      <trkpt lat="37.1918275393545627593994140625" lon="-3.977388404309749603271484375">
        <ele>554.20001220703125</ele>
        <time>2019-10-31T10:17:23.000Z</time>
      </trkpt>
      <trkpt lat="37.19190381467342376708984375" lon="-3.97762653417885303497314453125">
        <ele>555</ele>
        <time>2019-10-31T10:17:27.000Z</time>
      </trkpt>
      <trkpt lat="37.19196843914687633514404296875" lon="-3.97785385139286518096923828125">
        <ele>554.79998779296875</ele>
        <time>2019-10-31T10:17:31.000Z</time>
      </trkpt>
      <trkpt lat="37.19203415326774120330810546875" lon="-3.9780789054930210113525390625">
        <ele>553.5999755859375</ele>
        <time>2019-10-31T10:17:35.000Z</time>
      </trkpt>
      <trkpt lat="37.19210120849311351776123046875" lon="-3.97830848582088947296142578125">
        <ele>552.20001220703125</ele>
        <time>2019-10-31T10:17:39.000Z</time>
      </trkpt>
      <trkpt lat="37.19211948104202747344970703125" lon="-3.9783642254769802093505859375">
        <ele>552.20001220703125</ele>
        <time>2019-10-31T10:17:40.000Z</time>
      </trkpt>
      <trkpt lat="37.19217647798359394073486328125" lon="-3.978586010634899139404296875">
        <ele>553.4000244140625</ele>
        <time>2019-10-31T10:17:44.000Z</time>
      </trkpt>
      <trkpt lat="37.19222442246973514556884765625" lon="-3.97885347716510295867919921875">
        <ele>555.79998779296875</ele>
        <time>2019-10-31T10:17:49.000Z</time>
      </trkpt>
      <trkpt lat="37.19226012937724590301513671875" lon="-3.97909462451934814453125">
        <ele>556.79998779296875</ele>
        <time>2019-10-31T10:17:54.000Z</time>
      </trkpt>
      <trkpt lat="37.19229533337056636810302734375" lon="-3.9793532900512218475341796875">
        <ele>557.4000244140625</ele>
        <time>2019-10-31T10:18:00.000Z</time>
      </trkpt>
      <trkpt lat="37.192335985600948333740234375" lon="-3.9795863069593906402587890625">
        <ele>556.5999755859375</ele>
        <time>2019-10-31T10:18:05.000Z</time>
      </trkpt>
      <trkpt lat="37.19238334335386753082275390625" lon="-3.979858718812465667724609375">
        <ele>556.20001220703125</ele>
        <time>2019-10-31T10:18:09.000Z</time>
      </trkpt>
      <trkpt lat="37.192419469356536865234375" lon="-3.98008125834167003631591796875">
        <ele>556</ele>
        <time>2019-10-31T10:18:12.000Z</time>
      </trkpt>
      <trkpt lat="37.19246380962431430816650390625" lon="-3.98036875762045383453369140625">
        <ele>555.79998779296875</ele>
        <time>2019-10-31T10:18:16.000Z</time>
      </trkpt>
      <trkpt lat="37.192500941455364227294921875" lon="-3.980654664337635040283203125">
        <ele>554.5999755859375</ele>
        <time>2019-10-31T10:18:20.000Z</time>
      </trkpt>
      <trkpt lat="37.19251477159559726715087890625" lon="-3.9807245694100856781005859375">
        <ele>554.5999755859375</ele>
        <time>2019-10-31T10:18:21.000Z</time>
      </trkpt>
      <trkpt lat="37.19256539829075336456298828125" lon="-3.98100242950022220611572265625">
        <ele>554.4000244140625</ele>
        <time>2019-10-31T10:18:25.000Z</time>
      </trkpt>
      <trkpt lat="37.1926077269017696380615234375" lon="-3.98120217025279998779296875">
        <ele>553.79998779296875</ele>
        <time>2019-10-31T10:18:28.000Z</time>
      </trkpt>
      <trkpt lat="37.192655503749847412109375" lon="-3.98147282190620899200439453125">
        <ele>552.4000244140625</ele>
        <time>2019-10-31T10:18:32.000Z</time>
      </trkpt>
      <trkpt lat="37.19269850291311740875244140625" lon="-3.98173634894192218780517578125">
        <ele>551.20001220703125</ele>
        <time>2019-10-31T10:18:36.000Z</time>
      </trkpt>
      <trkpt lat="37.19273974187672138214111328125" lon="-3.9820083416998386383056640625">
        <ele>551</ele>
        <time>2019-10-31T10:18:40.000Z</time>
      </trkpt>
      <trkpt lat="37.19278165139257907867431640625" lon="-3.98228854872286319732666015625">
        <ele>550.5999755859375</ele>
        <time>2019-10-31T10:18:44.000Z</time>
      </trkpt>
      <trkpt lat="37.1928233094513416290283203125" lon="-3.98257571272552013397216796875">
        <ele>550.4000244140625</ele>
        <time>2019-10-31T10:18:48.000Z</time>
      </trkpt>
      <trkpt lat="37.1928508020937442779541015625" lon="-3.982864804565906524658203125">
        <ele>550</ele>
        <time>2019-10-31T10:18:52.000Z</time>
      </trkpt>
      <trkpt lat="37.19290168024599552154541015625" lon="-3.98313738405704498291015625">
        <ele>549.20001220703125</ele>
        <time>2019-10-31T10:18:56.000Z</time>
      </trkpt>
      <trkpt lat="37.19294006936252117156982421875" lon="-3.983410634100437164306640625">
        <ele>548.4000244140625</ele>
        <time>2019-10-31T10:19:00.000Z</time>
      </trkpt>
      <trkpt lat="37.1929787099361419677734375" lon="-3.98369335569441318511962890625">
        <ele>548</ele>
        <time>2019-10-31T10:19:04.000Z</time>
      </trkpt>
      <trkpt lat="37.19302338548004627227783203125" lon="-3.98397062905132770538330078125">
        <ele>548.79998779296875</ele>
        <time>2019-10-31T10:19:08.000Z</time>
      </trkpt>
      <trkpt lat="37.1930683963000774383544921875" lon="-3.98425544612109661102294921875">
        <ele>549.4000244140625</ele>
        <time>2019-10-31T10:19:12.000Z</time>
      </trkpt>
      <trkpt lat="37.193110473453998565673828125" lon="-3.98455065675079822540283203125">
        <ele>549.4000244140625</ele>
        <time>2019-10-31T10:19:16.000Z</time>
      </trkpt>
      <trkpt lat="37.19314492307603359222412109375" lon="-3.9847964979708194732666015625">
        <ele>548.5999755859375</ele>
        <time>2019-10-31T10:19:19.000Z</time>
      </trkpt>
      <trkpt lat="37.19317811541259288787841796875" lon="-3.9850603602826595306396484375">
        <ele>548</ele>
        <time>2019-10-31T10:19:22.000Z</time>
      </trkpt>
      <trkpt lat="37.1932092122733592987060546875" lon="-3.9853141643106937408447265625">
        <ele>547.20001220703125</ele>
        <time>2019-10-31T10:19:25.000Z</time>
      </trkpt>
      <trkpt lat="37.19323930330574512481689453125" lon="-3.985559754073619842529296875">
        <ele>546.4000244140625</ele>
        <time>2019-10-31T10:19:28.000Z</time>
      </trkpt>
      <trkpt lat="37.1932658739387989044189453125" lon="-3.985802829265594482421875">
        <ele>546.5999755859375</ele>
        <time>2019-10-31T10:19:31.000Z</time>
      </trkpt>
      <trkpt lat="37.193300239741802215576171875" lon="-3.98602687753736972808837890625">
        <ele>547.4000244140625</ele>
        <time>2019-10-31T10:19:34.000Z</time>
      </trkpt>
      <trkpt lat="37.19334541819989681243896484375" lon="-3.98629794828593730926513671875">
        <ele>548.20001220703125</ele>
        <time>2019-10-31T10:19:38.000Z</time>
      </trkpt>
      <trkpt lat="37.1933869086205959320068359375" lon="-3.986564576625823974609375">
        <ele>549.5999755859375</ele>
        <time>2019-10-31T10:19:42.000Z</time>
      </trkpt>
      <trkpt lat="37.193433344364166259765625" lon="-3.98685115389525890350341796875">
        <ele>549.79998779296875</ele>
        <time>2019-10-31T10:19:46.000Z</time>
      </trkpt>
      <trkpt lat="37.19348673708736896514892578125" lon="-3.987139575183391571044921875">
        <ele>548</ele>
        <time>2019-10-31T10:19:50.000Z</time>
      </trkpt>
      <trkpt lat="37.19352579675614833831787109375" lon="-3.9874327741563320159912109375">
        <ele>547</ele>
        <time>2019-10-31T10:19:54.000Z</time>
      </trkpt>
      <trkpt lat="37.19355865381658077239990234375" lon="-3.98772186599671840667724609375">
        <ele>547</ele>
        <time>2019-10-31T10:19:58.000Z</time>
      </trkpt>
      <trkpt lat="37.1935850568115711212158203125" lon="-3.9880027435719966888427734375">
        <ele>546.5999755859375</ele>
        <time>2019-10-31T10:20:02.000Z</time>
      </trkpt>
      <trkpt lat="37.193612046539783477783203125" lon="-3.9882756583392620086669921875">
        <ele>546</ele>
        <time>2019-10-31T10:20:06.000Z</time>
      </trkpt>
      <trkpt lat="37.193636186420917510986328125" lon="-3.988549411296844482421875">
        <ele>545</ele>
        <time>2019-10-31T10:20:10.000Z</time>
      </trkpt>
      <trkpt lat="37.19365127384662628173828125" lon="-3.98882710374891757965087890625">
        <ele>544.5999755859375</ele>
        <time>2019-10-31T10:20:14.000Z</time>
      </trkpt>
      <trkpt lat="37.1936635114252567291259765625" lon="-3.98910395801067352294921875">
        <ele>544.20001220703125</ele>
        <time>2019-10-31T10:20:18.000Z</time>
      </trkpt>
      <trkpt lat="37.19366627745330333709716796875" lon="-3.98938424885272979736328125">
        <ele>543.4000244140625</ele>
        <time>2019-10-31T10:20:22.000Z</time>
      </trkpt>
      <trkpt lat="37.19366795383393764495849609375" lon="-3.98967954330146312713623046875">
        <ele>543.79998779296875</ele>
        <time>2019-10-31T10:20:26.000Z</time>
      </trkpt>
      <trkpt lat="37.19367113895714282989501953125" lon="-3.98992873728275299072265625">
        <ele>543.79998779296875</ele>
        <time>2019-10-31T10:20:29.000Z</time>
      </trkpt>
      <trkpt lat="37.193658649921417236328125" lon="-3.99019829928874969482421875">
        <ele>542.5999755859375</ele>
        <time>2019-10-31T10:20:32.000Z</time>
      </trkpt>
      <trkpt lat="37.19365085475146770477294921875" lon="-3.99040776304900646209716796875">
        <ele>541.20001220703125</ele>
        <time>2019-10-31T10:20:34.000Z</time>
      </trkpt>
      <trkpt lat="37.19363492913544178009033203125" lon="-3.99073868058621883392333984375">
        <ele>539</ele>
        <time>2019-10-31T10:20:37.000Z</time>
      </trkpt>
      <trkpt lat="37.19360659830272197723388671875" lon="-3.9910666644573211669921875">
        <ele>538.4000244140625</ele>
        <time>2019-10-31T10:20:40.000Z</time>
      </trkpt>
      <trkpt lat="37.19356854446232318878173828125" lon="-3.9913702569901943206787109375">
        <ele>538.5999755859375</ele>
        <time>2019-10-31T10:20:43.000Z</time>
      </trkpt>
      <trkpt lat="37.19352043233811855316162109375" lon="-3.9915999211370944976806640625">
        <ele>539.20001220703125</ele>
        <time>2019-10-31T10:20:46.000Z</time>
      </trkpt>
      <trkpt lat="37.19346444122493267059326171875" lon="-3.9918362908065319061279296875">
        <ele>540.20001220703125</ele>
        <time>2019-10-31T10:20:50.000Z</time>
      </trkpt>
      <trkpt lat="37.19342320226132869720458984375" lon="-3.9920636080205440521240234375">
        <ele>541.79998779296875</ele>
        <time>2019-10-31T10:20:54.000Z</time>
      </trkpt>
      <trkpt lat="37.19338313676416873931884765625" lon="-3.99229821749031543731689453125">
        <ele>543.4000244140625</ele>
        <time>2019-10-31T10:20:58.000Z</time>
      </trkpt>
      <trkpt lat="37.19334952533245086669921875" lon="-3.99259510450065135955810546875">
        <ele>543.5999755859375</ele>
        <time>2019-10-31T10:21:02.000Z</time>
      </trkpt>
      <trkpt lat="37.19332312233746051788330078125" lon="-3.99287003092467784881591796875">
        <ele>543</ele>
        <time>2019-10-31T10:21:05.000Z</time>
      </trkpt>
      <trkpt lat="37.19328305684030055999755859375" lon="-3.99320547468960285186767578125">
        <ele>539.4000244140625</ele>
        <time>2019-10-31T10:21:08.000Z</time>
      </trkpt>
      <trkpt lat="37.19324232079088687896728515625" lon="-3.99347101338207721710205078125">
        <ele>537</ele>
        <time>2019-10-31T10:21:10.000Z</time>
      </trkpt>
      <trkpt lat="37.19317191280424594879150390625" lon="-3.9937557466328144073486328125">
        <ele>536</ele>
        <time>2019-10-31T10:21:12.000Z</time>
      </trkpt>
      <trkpt lat="37.19310167245566844940185546875" lon="-3.99404056370258331298828125">
        <ele>536</ele>
        <time>2019-10-31T10:21:14.000Z</time>
      </trkpt>
      <trkpt lat="37.1930425800383090972900390625" lon="-3.99431037716567516326904296875">
        <ele>535.20001220703125</ele>
        <time>2019-10-31T10:21:16.000Z</time>
      </trkpt>
      <trkpt lat="37.1929921209812164306640625" lon="-3.9945369400084018707275390625">
        <ele>533.20001220703125</ele>
        <time>2019-10-31T10:21:18.000Z</time>
      </trkpt>
      <trkpt lat="37.1929419972002506256103515625" lon="-3.994790576398372650146484375">
        <ele>531</ele>
        <time>2019-10-31T10:21:21.000Z</time>
      </trkpt>
      <trkpt lat="37.19288240186870098114013671875" lon="-3.995053768157958984375">
        <ele>530.20001220703125</ele>
        <time>2019-10-31T10:21:25.000Z</time>
      </trkpt>
      <trkpt lat="37.19280662946403026580810546875" lon="-3.995333723723888397216796875">
        <ele>529.5999755859375</ele>
        <time>2019-10-31T10:21:29.000Z</time>
      </trkpt>
      <trkpt lat="37.19275281764566898345947265625" lon="-3.9956071414053440093994140625">
        <ele>528.20001220703125</ele>
        <time>2019-10-31T10:21:32.000Z</time>
      </trkpt>
      <trkpt lat="37.19274200499057769775390625" lon="-3.99583806283771991729736328125">
        <ele>526.5999755859375</ele>
        <time>2019-10-31T10:21:34.000Z</time>
      </trkpt>
      <trkpt lat="37.19271006993949413299560546875" lon="-3.99609220214188098907470703125">
        <ele>524</ele>
        <time>2019-10-31T10:21:36.000Z</time>
      </trkpt>
      <trkpt lat="37.19265206716954708099365234375" lon="-3.99634994566440582275390625">
        <ele>521.20001220703125</ele>
        <time>2019-10-31T10:21:38.000Z</time>
      </trkpt>
      <trkpt lat="37.19261200167238712310791015625" lon="-3.996472992002964019775390625">
        <ele>520</ele>
        <time>2019-10-31T10:21:39.000Z</time>
      </trkpt>
      <trkpt lat="37.19249649904668331146240234375" lon="-3.996698968112468719482421875">
        <ele>518.4000244140625</ele>
        <time>2019-10-31T10:21:41.000Z</time>
      </trkpt>
      <trkpt lat="37.192343361675739288330078125" lon="-3.996906168758869171142578125">
        <ele>516.5999755859375</ele>
        <time>2019-10-31T10:21:43.000Z</time>
      </trkpt>
      <trkpt lat="37.19225778244435787200927734375" lon="-3.997002057731151580810546875">
        <ele>515.20001220703125</ele>
        <time>2019-10-31T10:21:44.000Z</time>
      </trkpt>
      <trkpt lat="37.19207069836556911468505859375" lon="-3.99720816873013973236083984375">
        <ele>512</ele>
        <time>2019-10-31T10:21:46.000Z</time>
      </trkpt>
      <trkpt lat="37.19187422655522823333740234375" lon="-3.99744068272411823272705078125">
        <ele>508.399993896484375</ele>
        <time>2019-10-31T10:21:48.000Z</time>
      </trkpt>
      <trkpt lat="37.19178445637226104736328125" lon="-3.9975656569004058837890625">
        <ele>507.600006103515625</ele>
        <time>2019-10-31T10:21:49.000Z</time>
      </trkpt>
      <trkpt lat="37.19164556823670864105224609375" lon="-3.9978280104696750640869140625">
        <ele>506.399993896484375</ele>
        <time>2019-10-31T10:21:51.000Z</time>
      </trkpt>
      <trkpt lat="37.191572897136211395263671875" lon="-3.99811341427266597747802734375">
        <ele>504.399993896484375</ele>
        <time>2019-10-31T10:21:53.000Z</time>
      </trkpt>
      <trkpt lat="37.1915438957512378692626953125" lon="-3.9984036795794963836669921875">
        <ele>502</ele>
        <time>2019-10-31T10:21:55.000Z</time>
      </trkpt>
      <trkpt lat="37.19155236147344112396240234375" lon="-3.998693525791168212890625">
        <ele>500</ele>
        <time>2019-10-31T10:21:57.000Z</time>
      </trkpt>
      <trkpt lat="37.191567532718181610107421875" lon="-3.99884029291570186614990234375">
        <ele>499.20001220703125</ele>
        <time>2019-10-31T10:21:58.000Z</time>
      </trkpt>
      <trkpt lat="37.19161120243370532989501953125" lon="-3.999133408069610595703125">
        <ele>498.20001220703125</ele>
        <time>2019-10-31T10:22:00.000Z</time>
      </trkpt>
      <trkpt lat="37.19168362207710742950439453125" lon="-3.99942241609096527099609375">
        <ele>498</ele>
        <time>2019-10-31T10:22:02.000Z</time>
      </trkpt>
      <trkpt lat="37.19177884049713611602783203125" lon="-3.9996854402124881744384765625">
        <ele>497.20001220703125</ele>
        <time>2019-10-31T10:22:04.000Z</time>
      </trkpt>
      <trkpt lat="37.1918771602213382720947265625" lon="-3.99992935359477996826171875">
        <ele>496.20001220703125</ele>
        <time>2019-10-31T10:22:06.000Z</time>
      </trkpt>
      <trkpt lat="37.1919861249625682830810546875" lon="-4.00015356950461864471435546875">
        <ele>497.399993896484375</ele>
        <time>2019-10-31T10:22:08.000Z</time>
      </trkpt>
      <trkpt lat="37.1920974366366863250732421875" lon="-4.00035490281879901885986328125">
        <ele>498.600006103515625</ele>
        <time>2019-10-31T10:22:10.000Z</time>
      </trkpt>
      <trkpt lat="37.19221285544335842132568359375" lon="-4.0005310066044330596923828125">
        <ele>498.79998779296875</ele>
        <time>2019-10-31T10:22:12.000Z</time>
      </trkpt>
      <trkpt lat="37.1924018673598766326904296875" lon="-4.0007472597062587738037109375">
        <ele>498.600006103515625</ele>
        <time>2019-10-31T10:22:15.000Z</time>
      </trkpt>
      <trkpt lat="37.192583419382572174072265625" lon="-4.00091908872127532958984375">
        <ele>497.399993896484375</ele>
        <time>2019-10-31T10:22:18.000Z</time>
      </trkpt>
      <trkpt lat="37.1926784701645374298095703125" lon="-4.00104339234530925750732421875">
        <ele>496.399993896484375</ele>
        <time>2019-10-31T10:22:20.000Z</time>
      </trkpt>
      <trkpt lat="37.19275952316820621490478515625" lon="-4.00128185749053955078125">
        <ele>495.399993896484375</ele>
        <time>2019-10-31T10:22:23.000Z</time>
      </trkpt>
      <trkpt lat="37.19277025200426578521728515625" lon="-4.0015219151973724365234375">
        <ele>494.600006103515625</ele>
        <time>2019-10-31T10:22:26.000Z</time>
      </trkpt>
      <trkpt lat="37.19276614487171173095703125" lon="-4.0015861205756664276123046875">
        <ele>494.399993896484375</ele>
        <time>2019-10-31T10:22:27.000Z</time>
      </trkpt>
      <trkpt lat="37.192730270326137542724609375" lon="-4.00169290602207183837890625">
        <ele>493.600006103515625</ele>
        <time>2019-10-31T10:22:35.000Z</time>
      </trkpt>
      <trkpt lat="37.19278986565768718719482421875" lon="-4.001642279326915740966796875">
        <ele>494.20001220703125</ele>
        <time>2019-10-31T10:40:00.000Z</time>
      </trkpt>
      <trkpt lat="37.19279740937054157257080078125" lon="-4.00187127292156219482421875">
        <ele>493.20001220703125</ele>
        <time>2019-10-31T10:40:08.000Z</time>
      </trkpt>
      <trkpt lat="37.19281014986336231231689453125" lon="-4.0021066367626190185546875">
        <ele>492.600006103515625</ele>
        <time>2019-10-31T10:40:14.000Z</time>
      </trkpt>
      <trkpt lat="37.19285733997821807861328125" lon="-4.00223664008080959320068359375">
        <ele>493</ele>
        <time>2019-10-31T10:40:23.000Z</time>
      </trkpt>
      <trkpt lat="37.1930563263595104217529296875" lon="-4.00222691707313060760498046875">
        <ele>492.600006103515625</ele>
        <time>2019-10-31T10:41:03.000Z</time>
      </trkpt>
      <trkpt lat="37.19311776570975780487060546875" lon="-4.00226882658898830413818359375">
        <ele>492.600006103515625</ele>
        <time>2019-10-31T10:41:07.000Z</time>
      </trkpt>
      <trkpt lat="37.193260006606578826904296875" lon="-4.00235901586711406707763671875">
        <ele>493</ele>
        <time>2019-10-31T10:41:22.000Z</time>
      </trkpt>
      <trkpt lat="37.1932015009224414825439453125" lon="-4.00228005833923816680908203125">
        <ele>492.79998779296875</ele>
        <time>2019-10-31T10:41:36.000Z</time>
      </trkpt>
      <trkpt lat="37.193071581423282623291015625" lon="-4.0021269209682941436767578125">
        <ele>492.600006103515625</ele>
        <time>2019-10-31T10:41:53.000Z</time>
      </trkpt>
      <trkpt lat="37.1930600143969058990478515625" lon="-4.0021661482751369476318359375">
        <ele>492.600006103515625</ele>
        <time>2019-10-31T10:41:59.000Z</time>
      </trkpt>
      <trkpt lat="37.19292816706001758575439453125" lon="-4.00218601338565349578857421875">
        <ele>493</ele>
        <time>2019-10-31T10:42:19.000Z</time>
      </trkpt>
      <trkpt lat="37.1929014287889003753662109375" lon="-4.00221526622772216796875">
        <ele>493</ele>
        <time>2019-10-31T10:42:25.000Z</time>
      </trkpt>
      <trkpt lat="37.19278248958289623260498046875" lon="-4.00208408944308757781982421875">
        <ele>492.399993896484375</ele>
        <time>2019-10-31T10:43:04.000Z</time>
      </trkpt>
      <trkpt lat="37.1927676536142826080322265625" lon="-4.0020746178925037384033203125">
        <ele>492.399993896484375</ele>
        <time>2019-10-31T10:43:10.000Z</time>
      </trkpt>
      <trkpt lat="37.192819453775882720947265625" lon="-4.00214745663106441497802734375">
        <ele>492.600006103515625</ele>
        <time>2019-10-31T10:43:17.000Z</time>
      </trkpt>
      <trkpt lat="37.192852310836315155029296875" lon="-4.00225424207746982574462890625">
        <ele>493</ele>
        <time>2019-10-31T10:43:24.000Z</time>
      </trkpt>
      <trkpt lat="37.19285440631210803985595703125" lon="-4.00227653793990612030029296875">
        <ele>493</ele>
        <time>2019-10-31T10:43:26.000Z</time>
      </trkpt>
      <trkpt lat="37.1928544901311397552490234375" lon="-4.00229531340301036834716796875">
        <ele>493</ele>
        <time>2019-10-31T10:43:30.000Z</time>
      </trkpt>
      <trkpt lat="37.1928772889077663421630859375" lon="-4.00271591730415821075439453125">
        <ele>495</ele>
        <time>2019-10-31T10:50:36.000Z</time>
      </trkpt>
      <trkpt lat="37.19286002218723297119140625" lon="-4.00278984569013118743896484375">
        <ele>495</ele>
        <time>2019-10-31T10:50:46.000Z</time>
      </trkpt>
      <trkpt lat="37.19286044128239154815673828125" lon="-4.00274441577494144439697265625">
        <ele>495</ele>
        <time>2019-10-31T10:51:30.000Z</time>
      </trkpt>
      <trkpt lat="37.19287737272679805755615234375" lon="-4.002674929797649383544921875">
        <ele>494.79998779296875</ele>
        <time>2019-10-31T10:51:34.000Z</time>
      </trkpt>
      <trkpt lat="37.19288625754415988922119140625" lon="-4.00261868722736835479736328125">
        <ele>494.600006103515625</ele>
        <time>2019-10-31T10:51:39.000Z</time>
      </trkpt>
      <trkpt lat="37.192888520658016204833984375" lon="-4.0026162564754486083984375">
        <ele>494.600006103515625</ele>
        <time>2019-10-31T10:51:43.000Z</time>
      </trkpt>
      <trkpt lat="37.19288391061127185821533203125" lon="-4.00272228755056858062744140625">
        <ele>495</ele>
        <time>2019-10-31T10:52:23.000Z</time>
      </trkpt>
      <trkpt lat="37.1928642131388187408447265625" lon="-4.00283175520598888397216796875">
        <ele>495</ele>
        <time>2019-10-31T10:52:35.000Z</time>
      </trkpt>
      <trkpt lat="37.192848287522792816162109375" lon="-4.00276989676058292388916015625">
        <ele>495</ele>
        <time>2019-10-31T10:53:10.000Z</time>
      </trkpt>
      <trkpt lat="37.1928581781685352325439453125" lon="-4.0026459284126758575439453125">
        <ele>494.600006103515625</ele>
        <time>2019-10-31T10:53:18.000Z</time>
      </trkpt>
      <trkpt lat="37.192885167896747589111328125" lon="-4.0026362054049968719482421875">
        <ele>494.600006103515625</ele>
        <time>2019-10-31T10:53:23.000Z</time>
      </trkpt>
      <trkpt lat="37.1928648836910724639892578125" lon="-4.00322738103568553924560546875">
        <ele>495.600006103515625</ele>
        <time>2019-10-31T10:57:24.000Z</time>
      </trkpt>
      <trkpt lat="37.1928893588483333587646484375" lon="-4.00330767966806888580322265625">
        <ele>495.79998779296875</ele>
        <time>2019-10-31T10:57:29.000Z</time>
      </trkpt>
      <trkpt lat="37.192906625568866729736328125" lon="-4.0035632438957691192626953125">
        <ele>495.399993896484375</ele>
        <time>2019-10-31T10:57:37.000Z</time>
      </trkpt>
      <trkpt lat="37.1929116547107696533203125" lon="-4.003813527524471282958984375">
        <ele>494.399993896484375</ele>
        <time>2019-10-31T10:57:42.000Z</time>
      </trkpt>
      <trkpt lat="37.19291844405233860015869140625" lon="-4.0040591172873973846435546875">
        <ele>491.79998779296875</ele>
        <time>2019-10-31T10:57:48.000Z</time>
      </trkpt>
      <trkpt lat="37.192923389375209808349609375" lon="-4.00416984222829341888427734375">
        <ele>491.399993896484375</ele>
        <time>2019-10-31T10:57:53.000Z</time>
      </trkpt>
      <trkpt lat="37.1929212100803852081298828125" lon="-4.00417017750442028045654296875">
        <ele>491.399993896484375</ele>
        <time>2019-10-31T10:57:57.000Z</time>
      </trkpt>
      <trkpt lat="37.1929349564015865325927734375" lon="-4.00427210144698619842529296875">
        <ele>491.20001220703125</ele>
        <time>2019-10-31T10:58:35.000Z</time>
      </trkpt>
      <trkpt lat="37.19295783899724483489990234375" lon="-4.0044969879090785980224609375">
        <ele>491.600006103515625</ele>
        <time>2019-10-31T10:58:41.000Z</time>
      </trkpt>
      <trkpt lat="37.19299815595149993896484375" lon="-4.00472774170339107513427734375">
        <ele>493.20001220703125</ele>
        <time>2019-10-31T10:58:46.000Z</time>
      </trkpt>
      <trkpt lat="37.19308641739189624786376953125" lon="-4.0049526281654834747314453125">
        <ele>494.399993896484375</ele>
        <time>2019-10-31T10:58:51.000Z</time>
      </trkpt>
      <trkpt lat="37.193184234201908111572265625" lon="-4.00518975220620632171630859375">
        <ele>495</ele>
        <time>2019-10-31T10:58:56.000Z</time>
      </trkpt>
      <trkpt lat="37.1932697296142578125" lon="-4.0053894929587841033935546875">
        <ele>495.79998779296875</ele>
        <time>2019-10-31T10:59:00.000Z</time>
      </trkpt>
      <trkpt lat="37.19335916452109813690185546875" lon="-4.00560884736478328704833984375">
        <ele>494.79998779296875</ele>
        <time>2019-10-31T10:59:04.000Z</time>
      </trkpt>
      <trkpt lat="37.19344650395214557647705078125" lon="-4.00582124479115009307861328125">
        <ele>494.600006103515625</ele>
        <time>2019-10-31T10:59:08.000Z</time>
      </trkpt>
      <trkpt lat="37.19353417865931987762451171875" lon="-4.00603800080716609954833984375">
        <ele>494.600006103515625</ele>
        <time>2019-10-31T10:59:12.000Z</time>
      </trkpt>
      <trkpt lat="37.19362705014646053314208984375" lon="-4.006245620548725128173828125">
        <ele>494.399993896484375</ele>
        <time>2019-10-31T10:59:16.000Z</time>
      </trkpt>
      <trkpt lat="37.1937181614339351654052734375" lon="-4.00644703768193721771240234375">
        <ele>495.399993896484375</ele>
        <time>2019-10-31T10:59:20.000Z</time>
      </trkpt>
      <trkpt lat="37.1938120387494564056396484375" lon="-4.00664962828159332275390625">
        <ele>496</ele>
        <time>2019-10-31T10:59:24.000Z</time>
      </trkpt>
      <trkpt lat="37.19390700571238994598388671875" lon="-4.00684786029160022735595703125">
        <ele>496.20001220703125</ele>
        <time>2019-10-31T10:59:28.000Z</time>
      </trkpt>
      <trkpt lat="37.19402301125228404998779296875" lon="-4.00707618333399295806884765625">
        <ele>496.20001220703125</ele>
        <time>2019-10-31T10:59:33.000Z</time>
      </trkpt>
      <trkpt lat="37.19409207813441753387451171875" lon="-4.00720258243381977081298828125">
        <ele>497.20001220703125</ele>
        <time>2019-10-31T10:59:36.000Z</time>
      </trkpt>
      <trkpt lat="37.19413935206830501556396484375" lon="-4.00731070898473262786865234375">
        <ele>498</ele>
        <time>2019-10-31T10:59:39.000Z</time>
      </trkpt>
      <trkpt lat="37.194228284060955047607421875" lon="-4.00752402842044830322265625">
        <ele>499.79998779296875</ele>
        <time>2019-10-31T10:59:46.000Z</time>
      </trkpt>
      <trkpt lat="37.19431017525494098663330078125" lon="-4.00774396955966949462890625">
        <ele>501.20001220703125</ele>
        <time>2019-10-31T10:59:53.000Z</time>
      </trkpt>
      <trkpt lat="37.19440556131303310394287109375" lon="-4.007953517138957977294921875">
        <ele>500.600006103515625</ele>
        <time>2019-10-31T10:59:59.000Z</time>
      </trkpt>
      <trkpt lat="37.1945110894739627838134765625" lon="-4.00818594731390476226806640625">
        <ele>501.20001220703125</ele>
        <time>2019-10-31T11:00:05.000Z</time>
      </trkpt>
      <trkpt lat="37.194621227681636810302734375" lon="-4.0084143541753292083740234375">
        <ele>501.600006103515625</ele>
        <time>2019-10-31T11:00:11.000Z</time>
      </trkpt>
      <trkpt lat="37.19470999203622341156005859375" lon="-4.00861979462206363677978515625">
        <ele>503</ele>
        <time>2019-10-31T11:00:17.000Z</time>
      </trkpt>
      <trkpt lat="37.1947840042412281036376953125" lon="-4.0088478662073612213134765625">
        <ele>505</ele>
        <time>2019-10-31T11:00:25.000Z</time>
      </trkpt>
      <trkpt lat="37.19484125263988971710205078125" lon="-4.009087421000003814697265625">
        <ele>507.399993896484375</ele>
        <time>2019-10-31T11:00:34.000Z</time>
      </trkpt>
      <trkpt lat="37.19491057097911834716796875" lon="-4.0093152411282062530517578125">
        <ele>508.20001220703125</ele>
        <time>2019-10-31T11:00:43.000Z</time>
      </trkpt>
      <trkpt lat="37.19497251324355602264404296875" lon="-4.0095484256744384765625">
        <ele>510.20001220703125</ele>
        <time>2019-10-31T11:00:52.000Z</time>
      </trkpt>
      <trkpt lat="37.1950260736048221588134765625" lon="-4.00978647172451019287109375">
        <ele>512.20001220703125</ele>
        <time>2019-10-31T11:01:01.000Z</time>
      </trkpt>
      <trkpt lat="37.1950653009116649627685546875" lon="-4.010036922991275787353515625">
        <ele>513.5999755859375</ele>
        <time>2019-10-31T11:01:10.000Z</time>
      </trkpt>
      <trkpt lat="37.19510377384722232818603515625" lon="-4.0102781541645526885986328125">
        <ele>514.79998779296875</ele>
        <time>2019-10-31T11:01:18.000Z</time>
      </trkpt>
      <trkpt lat="37.1951360441744327545166015625" lon="-4.0105073153972625732421875">
        <ele>515.5999755859375</ele>
        <time>2019-10-31T11:01:26.000Z</time>
      </trkpt>
      <trkpt lat="37.19515599310398101806640625" lon="-4.0107555873692035675048828125">
        <ele>517.4000244140625</ele>
        <time>2019-10-31T11:01:34.000Z</time>
      </trkpt>
      <trkpt lat="37.1951685659587383270263671875" lon="-4.01099120266735553741455078125">
        <ele>519.5999755859375</ele>
        <time>2019-10-31T11:01:41.000Z</time>
      </trkpt>
      <trkpt lat="37.19518759287893772125244140625" lon="-4.011239893734455108642578125">
        <ele>520</ele>
        <time>2019-10-31T11:01:49.000Z</time>
      </trkpt>
      <trkpt lat="37.19520553015172481536865234375" lon="-4.01148959062993526458740234375">
        <ele>520</ele>
        <time>2019-10-31T11:01:57.000Z</time>
      </trkpt>
      <trkpt lat="37.19524257816374301910400390625" lon="-4.01173836551606655120849609375">
        <ele>519.5999755859375</ele>
        <time>2019-10-31T11:02:05.000Z</time>
      </trkpt>
      <trkpt lat="37.19527442939579486846923828125" lon="-4.01198227889835834503173828125">
        <ele>519.79998779296875</ele>
        <time>2019-10-31T11:02:13.000Z</time>
      </trkpt>
      <trkpt lat="37.19529219903051853179931640625" lon="-4.0122239291667938232421875">
        <ele>518.5999755859375</ele>
        <time>2019-10-31T11:02:21.000Z</time>
      </trkpt>
      <trkpt lat="37.19530393369495868682861328125" lon="-4.0124519169330596923828125">
        <ele>518.4000244140625</ele>
        <time>2019-10-31T11:02:25.000Z</time>
      </trkpt>
      <trkpt lat="37.19531960785388946533203125" lon="-4.01271569542586803436279296875">
        <ele>519.4000244140625</ele>
        <time>2019-10-31T11:02:29.000Z</time>
      </trkpt>
      <trkpt lat="37.19531214796006679534912109375" lon="-4.01295692659914493560791015625">
        <ele>520.5999755859375</ele>
        <time>2019-10-31T11:02:33.000Z</time>
      </trkpt>
      <trkpt lat="37.19530007801949977874755859375" lon="-4.01321726851165294647216796875">
        <ele>522.20001220703125</ele>
        <time>2019-10-31T11:02:39.000Z</time>
      </trkpt>
      <trkpt lat="37.19526688568294048309326171875" lon="-4.01345439255237579345703125">
        <ele>523.79998779296875</ele>
        <time>2019-10-31T11:02:46.000Z</time>
      </trkpt>
      <trkpt lat="37.1952282451093196868896484375" lon="-4.01369688101112842559814453125">
        <ele>525.5999755859375</ele>
        <time>2019-10-31T11:02:56.000Z</time>
      </trkpt>
      <trkpt lat="37.1951883472502231597900390625" lon="-4.01392453350126743316650390625">
        <ele>527.20001220703125</ele>
        <time>2019-10-31T11:03:06.000Z</time>
      </trkpt>
      <trkpt lat="37.195167727768421173095703125" lon="-4.01416123844683170318603515625">
        <ele>529.20001220703125</ele>
        <time>2019-10-31T11:03:15.000Z</time>
      </trkpt>
      <trkpt lat="37.1951512992382049560546875" lon="-4.01438872329890727996826171875">
        <ele>530</ele>
        <time>2019-10-31T11:03:22.000Z</time>
      </trkpt>
      <trkpt lat="37.19513562507927417755126953125" lon="-4.014635570347309112548828125">
        <ele>529.4000244140625</ele>
        <time>2019-10-31T11:03:29.000Z</time>
      </trkpt>
      <trkpt lat="37.195116765797138214111328125" lon="-4.0148935653269290924072265625">
        <ele>529.5999755859375</ele>
        <time>2019-10-31T11:03:35.000Z</time>
      </trkpt>
      <trkpt lat="37.19510410912334918975830078125" lon="-4.01514778845012187957763671875">
        <ele>529.5999755859375</ele>
        <time>2019-10-31T11:03:40.000Z</time>
      </trkpt>
      <trkpt lat="37.19509304501116275787353515625" lon="-4.0154155902564525604248046875">
        <ele>529.4000244140625</ele>
        <time>2019-10-31T11:03:45.000Z</time>
      </trkpt>
      <trkpt lat="37.195091284811496734619140625" lon="-4.01565422303974628448486328125">
        <ele>529</ele>
        <time>2019-10-31T11:03:49.000Z</time>
      </trkpt>
      <trkpt lat="37.19508491456508636474609375" lon="-4.015940465033054351806640625">
        <ele>528.5999755859375</ele>
        <time>2019-10-31T11:03:53.000Z</time>
      </trkpt>
      <trkpt lat="37.1950894407927989959716796875" lon="-4.01616753078997135162353515625">
        <ele>528</ele>
        <time>2019-10-31T11:03:56.000Z</time>
      </trkpt>
      <trkpt lat="37.19508885405957698822021484375" lon="-4.01640339754521846771240234375">
        <ele>527.4000244140625</ele>
        <time>2019-10-31T11:03:59.000Z</time>
      </trkpt>
      <trkpt lat="37.19508080743253231048583984375" lon="-4.01663691736757755279541015625">
        <ele>525.5999755859375</ele>
        <time>2019-10-31T11:04:02.000Z</time>
      </trkpt>
      <trkpt lat="37.19507259316742420196533203125" lon="-4.01687161065638065338134765625">
        <ele>524.20001220703125</ele>
        <time>2019-10-31T11:04:05.000Z</time>
      </trkpt>
      <trkpt lat="37.19504191540181636810302734375" lon="-4.01709943078458309173583984375">
        <ele>524</ele>
        <time>2019-10-31T11:04:08.000Z</time>
      </trkpt>
      <trkpt lat="37.19496295787394046783447265625" lon="-4.0172974951565265655517578125">
        <ele>524</ele>
        <time>2019-10-31T11:04:11.000Z</time>
      </trkpt>
      <trkpt lat="37.19484661705791950225830078125" lon="-4.01751752011477947235107421875">
        <ele>524.79998779296875</ele>
        <time>2019-10-31T11:04:15.000Z</time>
      </trkpt>
      <trkpt lat="37.19473890960216522216796875" lon="-4.0177598409354686737060546875">
        <ele>525.5999755859375</ele>
        <time>2019-10-31T11:04:20.000Z</time>
      </trkpt>
      <trkpt lat="37.19465198926627635955810546875" lon="-4.01800601743161678314208984375">
        <ele>526</ele>
        <time>2019-10-31T11:04:25.000Z</time>
      </trkpt>
      <trkpt lat="37.1945684216916561126708984375" lon="-4.01825177483260631561279296875">
        <ele>526.4000244140625</ele>
        <time>2019-10-31T11:04:30.000Z</time>
      </trkpt>
      <trkpt lat="37.1944792382419109344482421875" lon="-4.01849501766264438629150390625">
        <ele>526.20001220703125</ele>
        <time>2019-10-31T11:04:35.000Z</time>
      </trkpt>
      <trkpt lat="37.19439064152538776397705078125" lon="-4.01869266293942928314208984375">
        <ele>526.79998779296875</ele>
        <time>2019-10-31T11:04:39.000Z</time>
      </trkpt>
      <trkpt lat="37.1942934952676296234130859375" lon="-4.01890589855611324310302734375">
        <ele>527.4000244140625</ele>
        <time>2019-10-31T11:04:43.000Z</time>
      </trkpt>
      <trkpt lat="37.1941942535340785980224609375" lon="-4.01912634260952472686767578125">
        <ele>527.79998779296875</ele>
        <time>2019-10-31T11:04:47.000Z</time>
      </trkpt>
      <trkpt lat="37.19408503733575344085693359375" lon="-4.0193399973213672637939453125">
        <ele>527.79998779296875</ele>
        <time>2019-10-31T11:04:51.000Z</time>
      </trkpt>
      <trkpt lat="37.193980515003204345703125" lon="-4.0195632912218570709228515625">
        <ele>527.4000244140625</ele>
        <time>2019-10-31T11:04:55.000Z</time>
      </trkpt>
      <trkpt lat="37.1939096041023731231689453125" lon="-4.01972346939146518707275390625">
        <ele>527.20001220703125</ele>
        <time>2019-10-31T11:04:58.000Z</time>
      </trkpt>
      <trkpt lat="37.1938314847648143768310546875" lon="-4.01992815546691417694091796875">
        <ele>526.4000244140625</ele>
        <time>2019-10-31T11:05:02.000Z</time>
      </trkpt>
      <trkpt lat="37.1937483362853527069091796875" lon="-4.02015320956707000732421875">
        <ele>525.4000244140625</ele>
        <time>2019-10-31T11:05:06.000Z</time>
      </trkpt>
      <trkpt lat="37.19366778619587421417236328125" lon="-4.02039050124585628509521484375">
        <ele>524.5999755859375</ele>
        <time>2019-10-31T11:05:10.000Z</time>
      </trkpt>
      <trkpt lat="37.19355043955147266387939453125" lon="-4.0206184051930904388427734375">
        <ele>524.20001220703125</ele>
        <time>2019-10-31T11:05:14.000Z</time>
      </trkpt>
      <trkpt lat="37.19341683201491832733154296875" lon="-4.020847566425800323486328125">
        <ele>523.79998779296875</ele>
        <time>2019-10-31T11:05:18.000Z</time>
      </trkpt>
      <trkpt lat="37.19326059333980083465576171875" lon="-4.02107865549623966217041015625">
        <ele>523.5999755859375</ele>
        <time>2019-10-31T11:05:22.000Z</time>
      </trkpt>
      <trkpt lat="37.1931300871074199676513671875" lon="-4.02127563022077083587646484375">
        <ele>522.5999755859375</ele>
        <time>2019-10-31T11:05:25.000Z</time>
      </trkpt>
      <trkpt lat="37.1929899416863918304443359375" lon="-4.02149473316967487335205078125">
        <ele>521.20001220703125</ele>
        <time>2019-10-31T11:05:28.000Z</time>
      </trkpt>
      <trkpt lat="37.19283060170710086822509765625" lon="-4.02173412032425403594970703125">
        <ele>520.4000244140625</ele>
        <time>2019-10-31T11:05:31.000Z</time>
      </trkpt>
      <trkpt lat="37.1926643885672092437744140625" lon="-4.0219900198280811309814453125">
        <ele>519.20001220703125</ele>
        <time>2019-10-31T11:05:34.000Z</time>
      </trkpt>
      <trkpt lat="37.19254964031279087066650390625" lon="-4.02217802591621875762939453125">
        <ele>517.5999755859375</ele>
        <time>2019-10-31T11:05:36.000Z</time>
      </trkpt>
      <trkpt lat="37.1924436092376708984375" lon="-4.0223725698888301849365234375">
        <ele>516.20001220703125</ele>
        <time>2019-10-31T11:05:38.000Z</time>
      </trkpt>
      <trkpt lat="37.19234713353216648101806640625" lon="-4.02257717214524745941162109375">
        <ele>514</ele>
        <time>2019-10-31T11:05:40.000Z</time>
      </trkpt>
      <trkpt lat="37.1922573633491992950439453125" lon="-4.02279074303805828094482421875">
        <ele>512.4000244140625</ele>
        <time>2019-10-31T11:05:42.000Z</time>
      </trkpt>
      <trkpt lat="37.19217245467007160186767578125" lon="-4.02301655150949954986572265625">
        <ele>511.20001220703125</ele>
        <time>2019-10-31T11:05:44.000Z</time>
      </trkpt>
      <trkpt lat="37.19208830036222934722900390625" lon="-4.02325652539730072021484375">
        <ele>510.600006103515625</ele>
        <time>2019-10-31T11:05:46.000Z</time>
      </trkpt>
      <trkpt lat="37.19199056737124919891357421875" lon="-4.02349281124770641326904296875">
        <ele>509.79998779296875</ele>
        <time>2019-10-31T11:05:48.000Z</time>
      </trkpt>
      <trkpt lat="37.19187355600297451019287109375" lon="-4.0237252414226531982421875">
        <ele>507.399993896484375</ele>
        <time>2019-10-31T11:05:50.000Z</time>
      </trkpt>
      <trkpt lat="37.19175285659730434417724609375" lon="-4.0239590965211391448974609375">
        <ele>504.79998779296875</ele>
        <time>2019-10-31T11:05:52.000Z</time>
      </trkpt>
      <trkpt lat="37.19164003618061542510986328125" lon="-4.02419798076152801513671875">
        <ele>503.399993896484375</ele>
        <time>2019-10-31T11:05:54.000Z</time>
      </trkpt>
      <trkpt lat="37.19154364429414272308349609375" lon="-4.02445756830275058746337890625">
        <ele>502.600006103515625</ele>
        <time>2019-10-31T11:05:56.000Z</time>
      </trkpt>
      <trkpt lat="37.19147809781134128570556640625" lon="-4.02474422939121723175048828125">
        <ele>501.79998779296875</ele>
        <time>2019-10-31T11:05:58.000Z</time>
      </trkpt>
      <trkpt lat="37.19140986911952495574951171875" lon="-4.02503005228936672210693359375">
        <ele>500.79998779296875</ele>
        <time>2019-10-31T11:06:00.000Z</time>
      </trkpt>
      <trkpt lat="37.19130660407245159149169921875" lon="-4.025267176330089569091796875">
        <ele>500</ele>
        <time>2019-10-31T11:06:02.000Z</time>
      </trkpt>
      <trkpt lat="37.19112555496394634246826171875" lon="-4.025464989244937896728515625">
        <ele>500.79998779296875</ele>
        <time>2019-10-31T11:06:05.000Z</time>
      </trkpt>
      <trkpt lat="37.19107492826879024505615234375" lon="-4.02549541555345058441162109375">
        <ele>501</ele>
        <time>2019-10-31T11:06:06.000Z</time>
      </trkpt>
      <trkpt lat="37.19096160493791103363037109375" lon="-4.0255543403327465057373046875">
        <ele>501.600006103515625</ele>
        <time>2019-10-31T11:06:10.000Z</time>
      </trkpt>
      <trkpt lat="37.19088566489517688751220703125" lon="-4.02558979578316211700439453125">
        <ele>502.20001220703125</ele>
        <time>2019-10-31T11:06:14.000Z</time>
      </trkpt>
      <trkpt lat="37.19083922915160655975341796875" lon="-4.02561360038816928863525390625">
        <ele>502.399993896484375</ele>
        <time>2019-10-31T11:06:16.000Z</time>
      </trkpt>
      <trkpt lat="37.19065214507281780242919921875" lon="-4.0257082320749759674072265625">
        <ele>503.399993896484375</ele>
        <time>2019-10-31T11:06:23.000Z</time>
      </trkpt>
      <trkpt lat="37.19047696329653263092041015625" lon="-4.0258012712001800537109375">
        <ele>503.600006103515625</ele>
        <time>2019-10-31T11:06:29.000Z</time>
      </trkpt>
      <trkpt lat="37.19044947065412998199462890625" lon="-4.02581945993006229400634765625">
        <ele>503.79998779296875</ele>
        <time>2019-10-31T11:06:30.000Z</time>
      </trkpt>
      <trkpt lat="37.19030521810054779052734375" lon="-4.02590244077146053314208984375">
        <ele>504.399993896484375</ele>
        <time>2019-10-31T11:06:35.000Z</time>
      </trkpt>
      <trkpt lat="37.1901833452284336090087890625" lon="-4.0260653011500835418701171875">
        <ele>504.399993896484375</ele>
        <time>2019-10-31T11:06:40.000Z</time>
      </trkpt>
      <trkpt lat="37.190102376043796539306640625" lon="-4.026237465441226959228515625">
        <ele>503.20001220703125</ele>
        <time>2019-10-31T11:06:44.000Z</time>
      </trkpt>
      <trkpt lat="37.190068848431110382080078125" lon="-4.02631566859781742095947265625">
        <ele>502.600006103515625</ele>
        <time>2019-10-31T11:06:46.000Z</time>
      </trkpt>
      <trkpt lat="37.18995653092861175537109375" lon="-4.0264190174639225006103515625">
        <ele>501.79998779296875</ele>
        <time>2019-10-31T11:06:50.000Z</time>
      </trkpt>
      <trkpt lat="37.1899325586855411529541015625" lon="-4.02644433081150054931640625">
        <ele>501.600006103515625</ele>
        <time>2019-10-31T11:06:51.000Z</time>
      </trkpt>
      <trkpt lat="37.18985619954764842987060546875" lon="-4.02653460390865802764892578125">
        <ele>501</ele>
        <time>2019-10-31T11:06:54.000Z</time>
      </trkpt>
      <trkpt lat="37.1896931715309619903564453125" lon="-4.02666603215038776397705078125">
        <ele>500.600006103515625</ele>
        <time>2019-10-31T11:06:59.000Z</time>
      </trkpt>
      <trkpt lat="37.18962527811527252197265625" lon="-4.02674381621181964874267578125">
        <ele>500.20001220703125</ele>
        <time>2019-10-31T11:07:01.000Z</time>
      </trkpt>
      <trkpt lat="37.189491502940654754638671875" lon="-4.0269430540502071380615234375">
        <ele>499.600006103515625</ele>
        <time>2019-10-31T11:07:05.000Z</time>
      </trkpt>
      <trkpt lat="37.18938496895134449005126953125" lon="-4.027140699326992034912109375">
        <ele>499</ele>
        <time>2019-10-31T11:07:08.000Z</time>
      </trkpt>
      <trkpt lat="37.18926594592630863189697265625" lon="-4.02738754637539386749267578125">
        <ele>499.20001220703125</ele>
        <time>2019-10-31T11:07:11.000Z</time>
      </trkpt>
      <trkpt lat="37.18914139084517955780029296875" lon="-4.0276628918945789337158203125">
        <ele>498.79998779296875</ele>
        <time>2019-10-31T11:07:14.000Z</time>
      </trkpt>
      <trkpt lat="37.18910266645252704620361328125" lon="-4.02774260379374027252197265625">
        <ele>499.20001220703125</ele>
        <time>2019-10-31T11:07:15.000Z</time>
      </trkpt>
      <trkpt lat="37.18898557126522064208984375" lon="-4.0279374830424785614013671875">
        <ele>500.399993896484375</ele>
        <time>2019-10-31T11:07:19.000Z</time>
      </trkpt>
      <trkpt lat="37.18885992653667926788330078125" lon="-4.02812280692160129547119140625">
        <ele>501.600006103515625</ele>
        <time>2019-10-31T11:07:24.000Z</time>
      </trkpt>
      <trkpt lat="37.18871575780212879180908203125" lon="-4.02831039391458034515380859375">
        <ele>502.600006103515625</ele>
        <time>2019-10-31T11:07:29.000Z</time>
      </trkpt>
      <trkpt lat="37.18858323991298675537109375" lon="-4.02847132645547389984130859375">
        <ele>503.600006103515625</ele>
        <time>2019-10-31T11:07:34.000Z</time>
      </trkpt>
      <trkpt lat="37.18847502954304218292236328125" lon="-4.0286077000200748443603515625">
        <ele>504.20001220703125</ele>
        <time>2019-10-31T11:07:39.000Z</time>
      </trkpt>
      <trkpt lat="37.18832633458077907562255859375" lon="-4.02877114713191986083984375">
        <ele>504.600006103515625</ele>
        <time>2019-10-31T11:07:46.000Z</time>
      </trkpt>
      <trkpt lat="37.18819121830165386199951171875" lon="-4.0289496816694736480712890625">
        <ele>504.399993896484375</ele>
        <time>2019-10-31T11:07:52.000Z</time>
      </trkpt>
      <trkpt lat="37.188069932162761688232421875" lon="-4.02911773882806301116943359375">
        <ele>503.399993896484375</ele>
        <time>2019-10-31T11:07:56.000Z</time>
      </trkpt>
      <trkpt lat="37.18794981949031352996826171875" lon="-4.0292923338711261749267578125">
        <ele>502.20001220703125</ele>
        <time>2019-10-31T11:07:59.000Z</time>
      </trkpt>
      <trkpt lat="37.1878035552799701690673828125" lon="-4.02948771603405475616455078125">
        <ele>502</ele>
        <time>2019-10-31T11:08:02.000Z</time>
      </trkpt>
      <trkpt lat="37.187654189765453338623046875" lon="-4.0296926535665988922119140625">
        <ele>502</ele>
        <time>2019-10-31T11:08:05.000Z</time>
      </trkpt>
      <trkpt lat="37.1875118650496006011962890625" lon="-4.02987957000732421875">
        <ele>502.20001220703125</ele>
        <time>2019-10-31T11:08:08.000Z</time>
      </trkpt>
      <trkpt lat="37.18737750314176082611083984375" lon="-4.03004058636724948883056640625">
        <ele>502.20001220703125</ele>
        <time>2019-10-31T11:08:11.000Z</time>
      </trkpt>
      <trkpt lat="37.1872295625507831573486328125" lon="-4.03022347949445247650146484375">
        <ele>503</ele>
        <time>2019-10-31T11:08:15.000Z</time>
      </trkpt>
      <trkpt lat="37.187100984156131744384765625" lon="-4.03039111755788326263427734375">
        <ele>503.600006103515625</ele>
        <time>2019-10-31T11:08:19.000Z</time>
      </trkpt>
      <trkpt lat="37.187031246721744537353515625" lon="-4.03048080392181873321533203125">
        <ele>503.600006103515625</ele>
        <time>2019-10-31T11:08:21.000Z</time>
      </trkpt>
      <trkpt lat="37.18686872161924839019775390625" lon="-4.030637629330158233642578125">
        <ele>503.600006103515625</ele>
        <time>2019-10-31T11:08:25.000Z</time>
      </trkpt>
      <trkpt lat="37.18668247573077678680419921875" lon="-4.030799232423305511474609375">
        <ele>502.600006103515625</ele>
        <time>2019-10-31T11:08:29.000Z</time>
      </trkpt>
      <trkpt lat="37.18651835806667804718017578125" lon="-4.03095119632780551910400390625">
        <ele>502.20001220703125</ele>
        <time>2019-10-31T11:08:32.000Z</time>
      </trkpt>
      <trkpt lat="37.1863511390984058380126953125" lon="-4.03113911859691143035888671875">
        <ele>502</ele>
        <time>2019-10-31T11:08:35.000Z</time>
      </trkpt>
      <trkpt lat="37.1862274222075939178466796875" lon="-4.03130440972745418548583984375">
        <ele>502.399993896484375</ele>
        <time>2019-10-31T11:08:38.000Z</time>
      </trkpt>
      <trkpt lat="37.1860921382904052734375" lon="-4.03147808276116847991943359375">
        <ele>503.600006103515625</ele>
        <time>2019-10-31T11:08:43.000Z</time>
      </trkpt>
      <trkpt lat="37.1860559284687042236328125" lon="-4.031532146036624908447265625">
        <ele>503.79998779296875</ele>
        <time>2019-10-31T11:08:47.000Z</time>
      </trkpt>
      <trkpt lat="37.18605953268706798553466796875" lon="-4.031526781618595123291015625">
        <ele>503.79998779296875</ele>
        <time>2019-10-31T11:08:51.000Z</time>
      </trkpt>
      <trkpt lat="37.1860906295478343963623046875" lon="-4.03144690208137035369873046875">
        <ele>503.399993896484375</ele>
        <time>2019-10-31T11:09:01.000Z</time>
      </trkpt>
      <trkpt lat="37.18624225817620754241943359375" lon="-4.03123970143496990203857421875">
        <ele>502.20001220703125</ele>
        <time>2019-10-31T11:09:07.000Z</time>
      </trkpt>
      <trkpt lat="37.18635206110775470733642578125" lon="-4.03112210333347320556640625">
        <ele>502</ele>
        <time>2019-10-31T11:09:10.000Z</time>
      </trkpt>
      <trkpt lat="37.18655590899288654327392578125" lon="-4.0311819501221179962158203125">
        <ele>500.79998779296875</ele>
        <time>2019-10-31T11:09:14.000Z</time>
      </trkpt>
      <trkpt lat="37.1867112256586551666259765625" lon="-4.0313583053648471832275390625">
        <ele>498.600006103515625</ele>
        <time>2019-10-31T11:09:18.000Z</time>
      </trkpt>
      <trkpt lat="37.18665850348770618438720703125" lon="-4.03160967864096164703369140625">
        <ele>497.79998779296875</ele>
        <time>2019-10-31T11:09:22.000Z</time>
      </trkpt>
      <trkpt lat="37.18663134612143039703369140625" lon="-4.03165007941424846649169921875">
        <ele>498</ele>
        <time>2019-10-31T11:09:23.000Z</time>
      </trkpt>
      <trkpt lat="37.186581306159496307373046875" lon="-4.03172400780022144317626953125">
        <ele>498.399993896484375</ele>
        <time>2019-10-31T11:09:25.000Z</time>
      </trkpt>
      <trkpt lat="37.18645222485065460205078125" lon="-4.03186532668769359588623046875">
        <ele>499.20001220703125</ele>
        <time>2019-10-31T11:09:31.000Z</time>
      </trkpt>
      <trkpt lat="37.18630461953580379486083984375" lon="-4.03201821260154247283935546875">
        <ele>500.20001220703125</ele>
        <time>2019-10-31T11:09:40.000Z</time>
      </trkpt>
      <trkpt lat="37.1861590258777141571044921875" lon="-4.03217109851539134979248046875">
        <ele>502.600006103515625</ele>
        <time>2019-10-31T11:09:49.000Z</time>
      </trkpt>
      <trkpt lat="37.1860195510089397430419921875" lon="-4.03231568634510040283203125">
        <ele>505</ele>
        <time>2019-10-31T11:09:57.000Z</time>
      </trkpt>
      <trkpt lat="37.18588384799659252166748046875" lon="-4.0324741043150424957275390625">
        <ele>506.79998779296875</ele>
        <time>2019-10-31T11:10:05.000Z</time>
      </trkpt>
      <trkpt lat="37.18576557934284210205078125" lon="-4.0326518006622791290283203125">
        <ele>508.79998779296875</ele>
        <time>2019-10-31T11:10:13.000Z</time>
      </trkpt>
      <trkpt lat="37.185633145272731781005859375" lon="-4.0328365378081798553466796875">
        <ele>510</ele>
        <time>2019-10-31T11:10:22.000Z</time>
      </trkpt>
      <trkpt lat="37.18550062738358974456787109375" lon="-4.03301431797444820404052734375">
        <ele>511.20001220703125</ele>
        <time>2019-10-31T11:10:32.000Z</time>
      </trkpt>
      <trkpt lat="37.1853684447705745697021484375" lon="-4.0332026593387126922607421875">
        <ele>511.600006103515625</ele>
        <time>2019-10-31T11:10:41.000Z</time>
      </trkpt>
      <trkpt lat="37.185227461159229278564453125" lon="-4.03338077478110790252685546875">
        <ele>511.79998779296875</ele>
        <time>2019-10-31T11:10:49.000Z</time>
      </trkpt>
      <trkpt lat="37.1850827895104885101318359375" lon="-4.0335634164512157440185546875">
        <ele>512</ele>
        <time>2019-10-31T11:10:57.000Z</time>
      </trkpt>
      <trkpt lat="37.18496217392385005950927734375" lon="-4.03373734094202518463134765625">
        <ele>512</ele>
        <time>2019-10-31T11:11:06.000Z</time>
      </trkpt>
      <trkpt lat="37.1849557198584079742431640625" lon="-4.03374287299811840057373046875">
        <ele>512</ele>
        <time>2019-10-31T11:11:10.000Z</time>
      </trkpt>
      <trkpt lat="37.184828817844390869140625" lon="-4.03376433067023754119873046875">
        <ele>511.399993896484375</ele>
        <time>2019-10-31T11:24:12.000Z</time>
      </trkpt>
      <trkpt lat="37.1846707351505756378173828125" lon="-4.03394470922648906707763671875">
        <ele>509</ele>
        <time>2019-10-31T11:24:16.000Z</time>
      </trkpt>
      <trkpt lat="37.18452581204473972320556640625" lon="-4.0341283567249774932861328125">
        <ele>506.399993896484375</ele>
        <time>2019-10-31T11:24:19.000Z</time>
      </trkpt>
      <trkpt lat="37.184480465948581695556640625" lon="-4.03436464257538318634033203125">
        <ele>504.79998779296875</ele>
        <time>2019-10-31T11:24:22.000Z</time>
      </trkpt>
      <trkpt lat="37.18447870574891567230224609375" lon="-4.03445265255868434906005859375">
        <ele>504.399993896484375</ele>
        <time>2019-10-31T11:24:23.000Z</time>
      </trkpt>
      <trkpt lat="37.1844772808253765106201171875" lon="-4.034710563719272613525390625">
        <ele>503</ele>
        <time>2019-10-31T11:24:26.000Z</time>
      </trkpt>
      <trkpt lat="37.1844846569001674652099609375" lon="-4.03499697335064411163330078125">
        <ele>502</ele>
        <time>2019-10-31T11:24:30.000Z</time>
      </trkpt>
      <trkpt lat="37.18449287116527557373046875" lon="-4.03526485897600650787353515625">
        <ele>500.20001220703125</ele>
        <time>2019-10-31T11:24:34.000Z</time>
      </trkpt>
      <trkpt lat="37.184508629143238067626953125" lon="-4.03548882342875003814697265625">
        <ele>499.600006103515625</ele>
        <time>2019-10-31T11:24:37.000Z</time>
      </trkpt>
      <trkpt lat="37.184544838964939117431640625" lon="-4.03577397577464580535888671875">
        <ele>499.20001220703125</ele>
        <time>2019-10-31T11:24:41.000Z</time>
      </trkpt>
      <trkpt lat="37.18455799855291843414306640625" lon="-4.03588880784809589385986328125">
        <ele>498.79998779296875</ele>
        <time>2019-10-31T11:24:43.000Z</time>
      </trkpt>
      <trkpt lat="37.1845909394323825836181640625" lon="-4.03614345006644725799560546875">
        <ele>498.600006103515625</ele>
        <time>2019-10-31T11:24:49.000Z</time>
      </trkpt>
      <trkpt lat="37.18459638766944408416748046875" lon="-4.03621905483305454254150390625">
        <ele>498.79998779296875</ele>
        <time>2019-10-31T11:24:51.000Z</time>
      </trkpt>
      <trkpt lat="37.1844320185482501983642578125" lon="-4.03632734902203083038330078125">
        <ele>497.20001220703125</ele>
        <time>2019-10-31T11:24:57.000Z</time>
      </trkpt>
      <trkpt lat="37.1843937970697879791259765625" lon="-4.03633539564907550811767578125">
        <ele>497</ele>
        <time>2019-10-31T11:24:58.000Z</time>
      </trkpt>
      <trkpt lat="37.18432095833122730255126953125" lon="-4.03636255301535129547119140625">
        <ele>496.600006103515625</ele>
        <time>2019-10-31T11:25:00.000Z</time>
      </trkpt>
      <trkpt lat="37.18421660363674163818359375" lon="-4.03645374812185764312744140625">
        <ele>495.79998779296875</ele>
        <time>2019-10-31T11:25:04.000Z</time>
      </trkpt>
      <trkpt lat="37.184167318046092987060546875" lon="-4.03650127351284027099609375">
        <ele>495.399993896484375</ele>
        <time>2019-10-31T11:25:06.000Z</time>
      </trkpt>
      <trkpt lat="37.18418181873857975006103515625" lon="-4.03670403175055980682373046875">
        <ele>495.399993896484375</ele>
        <time>2019-10-31T11:25:13.000Z</time>
      </trkpt>
      <trkpt lat="37.18423898331820964813232421875" lon="-4.0369550697505474090576171875">
        <ele>495.399993896484375</ele>
        <time>2019-10-31T11:25:18.000Z</time>
      </trkpt>
      <trkpt lat="37.18429505825042724609375" lon="-4.037229828536510467529296875">
        <ele>495.20001220703125</ele>
        <time>2019-10-31T11:25:23.000Z</time>
      </trkpt>
      <trkpt lat="37.18433151952922344207763671875" lon="-4.037456810474395751953125">
        <ele>495</ele>
        <time>2019-10-31T11:25:27.000Z</time>
      </trkpt>
      <trkpt lat="37.184395305812358856201171875" lon="-4.0376708842813968658447265625">
        <ele>494.79998779296875</ele>
        <time>2019-10-31T11:25:31.000Z</time>
      </trkpt>
      <trkpt lat="37.18450049869716167449951171875" lon="-4.0378723852336406707763671875">
        <ele>494.20001220703125</ele>
        <time>2019-10-31T11:25:35.000Z</time>
      </trkpt>
      <trkpt lat="37.18458632938563823699951171875" lon="-4.03809224255383014678955078125">
        <ele>493.20001220703125</ele>
        <time>2019-10-31T11:25:39.000Z</time>
      </trkpt>
      <trkpt lat="37.18466763384640216827392578125" lon="-4.03829759918153285980224609375">
        <ele>492.79998779296875</ele>
        <time>2019-10-31T11:25:43.000Z</time>
      </trkpt>
      <trkpt lat="37.1846925280988216400146484375" lon="-4.03834269382059574127197265625">
        <ele>492.79998779296875</ele>
        <time>2019-10-31T11:25:44.000Z</time>
      </trkpt>
      <trkpt lat="37.18474768102169036865234375" lon="-4.03850194998085498809814453125">
        <ele>492.600006103515625</ele>
        <time>2019-10-31T11:25:47.000Z</time>
      </trkpt>
      <trkpt lat="37.18484600074589252471923828125" lon="-4.03871384449303150177001953125">
        <ele>492.20001220703125</ele>
        <time>2019-10-31T11:25:51.000Z</time>
      </trkpt>
      <trkpt lat="37.18489612452685832977294921875" lon="-4.03882130049169063568115234375">
        <ele>492.20001220703125</ele>
        <time>2019-10-31T11:25:53.000Z</time>
      </trkpt>
      <trkpt lat="37.18499754555523395538330078125" lon="-4.03907728381454944610595703125">
        <ele>491.600006103515625</ele>
        <time>2019-10-31T11:25:57.000Z</time>
      </trkpt>
      <trkpt lat="37.18514272011816501617431640625" lon="-4.03931532986462116241455078125">
        <ele>491.20001220703125</ele>
        <time>2019-10-31T11:26:01.000Z</time>
      </trkpt>
      <trkpt lat="37.18527196906507015228271484375" lon="-4.0394966304302215576171875">
        <ele>490</ele>
        <time>2019-10-31T11:26:04.000Z</time>
      </trkpt>
      <trkpt lat="37.1853972785174846649169921875" lon="-4.0396647714078426361083984375">
        <ele>489.79998779296875</ele>
        <time>2019-10-31T11:26:07.000Z</time>
      </trkpt>
      <trkpt lat="37.1855731308460235595703125" lon="-4.0398377738893032073974609375">
        <ele>489.79998779296875</ele>
        <time>2019-10-31T11:26:11.000Z</time>
      </trkpt>
      <trkpt lat="37.1857463009655475616455078125" lon="-4.03997766785323619842529296875">
        <ele>488.600006103515625</ele>
        <time>2019-10-31T11:26:16.000Z</time>
      </trkpt>
      <trkpt lat="37.18578846193850040435791015625" lon="-4.03999795205891132354736328125">
        <ele>488.20001220703125</ele>
        <time>2019-10-31T11:26:17.000Z</time>
      </trkpt>
      <trkpt lat="37.186004631221294403076171875" lon="-4.03998152352869510650634765625">
        <ele>486.399993896484375</ele>
        <time>2019-10-31T11:26:22.000Z</time>
      </trkpt>
      <trkpt lat="37.186105884611606597900390625" lon="-4.0401737205684185028076171875">
        <ele>484.79998779296875</ele>
        <time>2019-10-31T11:26:27.000Z</time>
      </trkpt>
      <trkpt lat="37.1859850175678730010986328125" lon="-4.04033725149929523468017578125">
        <ele>485.20001220703125</ele>
        <time>2019-10-31T11:26:32.000Z</time>
      </trkpt>
      <trkpt lat="37.18595065176486968994140625" lon="-4.0403487347066402435302734375">
        <ele>485.600006103515625</ele>
        <time>2019-10-31T11:26:33.000Z</time>
      </trkpt>
      <trkpt lat="37.18591905198991298675537109375" lon="-4.04036608524620532989501953125">
        <ele>485.79998779296875</ele>
        <time>2019-10-31T11:26:34.000Z</time>
      </trkpt>
      <trkpt lat="37.185803465545177459716796875" lon="-4.04054327867925167083740234375">
        <ele>487</ele>
        <time>2019-10-31T11:26:40.000Z</time>
      </trkpt>
      <trkpt lat="37.18570698983967304229736328125" lon="-4.040738157927989959716796875">
        <ele>488.20001220703125</ele>
        <time>2019-10-31T11:26:47.000Z</time>
      </trkpt>
      <trkpt lat="37.18566440977156162261962890625" lon="-4.040812589228153228759765625">
        <ele>488.20001220703125</ele>
        <time>2019-10-31T11:26:49.000Z</time>
      </trkpt>
      <trkpt lat="37.1855602227151393890380859375" lon="-4.04101719148457050323486328125">
        <ele>488.600006103515625</ele>
        <time>2019-10-31T11:26:54.000Z</time>
      </trkpt>
      <trkpt lat="37.1855340711772441864013671875" lon="-4.041059017181396484375">
        <ele>488.399993896484375</ele>
        <time>2019-10-31T11:26:55.000Z</time>
      </trkpt>
      <trkpt lat="37.18543021939694881439208984375" lon="-4.0412908606231212615966796875">
        <ele>487.79998779296875</ele>
        <time>2019-10-31T11:27:00.000Z</time>
      </trkpt>
      <trkpt lat="37.18533240258693695068359375" lon="-4.041481129825115203857421875">
        <ele>487.20001220703125</ele>
        <time>2019-10-31T11:27:04.000Z</time>
      </trkpt>
      <trkpt lat="37.18521899543702602386474609375" lon="-4.0416740812361240386962890625">
        <ele>486.600006103515625</ele>
        <time>2019-10-31T11:27:08.000Z</time>
      </trkpt>
      <trkpt lat="37.1850951947271823883056640625" lon="-4.04188756830990314483642578125">
        <ele>486</ele>
        <time>2019-10-31T11:27:12.000Z</time>
      </trkpt>
      <trkpt lat="37.18503342010080814361572265625" lon="-4.0419962815940380096435546875">
        <ele>485.79998779296875</ele>
        <time>2019-10-31T11:27:14.000Z</time>
      </trkpt>
      <trkpt lat="37.1849454939365386962890625" lon="-4.04216450639069080352783203125">
        <ele>485.600006103515625</ele>
        <time>2019-10-31T11:27:17.000Z</time>
      </trkpt>
      <trkpt lat="37.1848289854824542999267578125" lon="-4.04238645918667316436767578125">
        <ele>485.600006103515625</ele>
        <time>2019-10-31T11:27:21.000Z</time>
      </trkpt>
      <trkpt lat="37.184711135923862457275390625" lon="-4.0426168777048587799072265625">
        <ele>485.600006103515625</ele>
        <time>2019-10-31T11:27:25.000Z</time>
      </trkpt>
      <trkpt lat="37.184589095413684844970703125" lon="-4.042849726974964141845703125">
        <ele>485.600006103515625</ele>
        <time>2019-10-31T11:27:29.000Z</time>
      </trkpt>
      <trkpt lat="37.184474430978298187255859375" lon="-4.04307411052286624908447265625">
        <ele>485.20001220703125</ele>
        <time>2019-10-31T11:27:33.000Z</time>
      </trkpt>
      <trkpt lat="37.18435012735426425933837890625" lon="-4.04328902252018451690673828125">
        <ele>484.79998779296875</ele>
        <time>2019-10-31T11:27:37.000Z</time>
      </trkpt>
      <trkpt lat="37.18422473408281803131103515625" lon="-4.04350862838327884674072265625">
        <ele>484.399993896484375</ele>
        <time>2019-10-31T11:27:41.000Z</time>
      </trkpt>
      <trkpt lat="37.18410956673324108123779296875" lon="-4.0437316708266735076904296875">
        <ele>483.20001220703125</ele>
        <time>2019-10-31T11:27:45.000Z</time>
      </trkpt>
      <trkpt lat="37.18399456702172756195068359375" lon="-4.0439549647271633148193359375">
        <ele>483.20001220703125</ele>
        <time>2019-10-31T11:27:49.000Z</time>
      </trkpt>
      <trkpt lat="37.1839663200080394744873046875" lon="-4.04401011765003204345703125">
        <ele>483.399993896484375</ele>
        <time>2019-10-31T11:27:50.000Z</time>
      </trkpt>
      <trkpt lat="37.18386045657098293304443359375" lon="-4.044218994677066802978515625">
        <ele>483.79998779296875</ele>
        <time>2019-10-31T11:27:54.000Z</time>
      </trkpt>
      <trkpt lat="37.18374411575496196746826171875" lon="-4.0444511733949184417724609375">
        <ele>484.20001220703125</ele>
        <time>2019-10-31T11:27:59.000Z</time>
      </trkpt>
      <trkpt lat="37.18366415239870548248291015625" lon="-4.044614620506763458251953125">
        <ele>484.399993896484375</ele>
        <time>2019-10-31T11:28:03.000Z</time>
      </trkpt>
      <trkpt lat="37.1836602129042148590087890625" lon="-4.04484403319656848907470703125">
        <ele>483.600006103515625</ele>
        <time>2019-10-31T11:28:08.000Z</time>
      </trkpt>
      <trkpt lat="37.18356038443744182586669921875" lon="-4.0450684167444705963134765625">
        <ele>483.79998779296875</ele>
        <time>2019-10-31T11:28:13.000Z</time>
      </trkpt>
      <trkpt lat="37.18338587321341037750244140625" lon="-4.04514024965465068817138671875">
        <ele>485</ele>
        <time>2019-10-31T11:28:17.000Z</time>
      </trkpt>
      <trkpt lat="37.1832910738885402679443359375" lon="-4.04528726823627948760986328125">
        <ele>486.20001220703125</ele>
        <time>2019-10-31T11:28:20.000Z</time>
      </trkpt>
      <trkpt lat="37.18318537808954715728759765625" lon="-4.04548457823693752288818359375">
        <ele>487.399993896484375</ele>
        <time>2019-10-31T11:28:24.000Z</time>
      </trkpt>
      <trkpt lat="37.18306316994130611419677734375" lon="-4.04572363011538982391357421875">
        <ele>487.399993896484375</ele>
        <time>2019-10-31T11:28:29.000Z</time>
      </trkpt>
      <trkpt lat="37.18295688740909099578857421875" lon="-4.0459307469427585601806640625">
        <ele>486.600006103515625</ele>
        <time>2019-10-31T11:28:33.000Z</time>
      </trkpt>
      <trkpt lat="37.18285362236201763153076171875" lon="-4.0461446531116962432861328125">
        <ele>486</ele>
        <time>2019-10-31T11:28:37.000Z</time>
      </trkpt>
      <trkpt lat="37.1827398799359798431396484375" lon="-4.04635881073772907257080078125">
        <ele>486.399993896484375</ele>
        <time>2019-10-31T11:28:41.000Z</time>
      </trkpt>
      <trkpt lat="37.1826272271573543548583984375" lon="-4.0465788356959819793701171875">
        <ele>487.20001220703125</ele>
        <time>2019-10-31T11:28:45.000Z</time>
      </trkpt>
      <trkpt lat="37.182511053979396820068359375" lon="-4.04680858366191387176513671875">
        <ele>488</ele>
        <time>2019-10-31T11:28:49.000Z</time>
      </trkpt>
      <trkpt lat="37.18239345587790012359619140625" lon="-4.04703573323786258697509765625">
        <ele>488.79998779296875</ele>
        <time>2019-10-31T11:28:53.000Z</time>
      </trkpt>
      <trkpt lat="37.182278372347354888916015625" lon="-4.0472658164799213409423828125">
        <ele>488.399993896484375</ele>
        <time>2019-10-31T11:28:57.000Z</time>
      </trkpt>
      <trkpt lat="37.1821564994752407073974609375" lon="-4.04750059358775615692138671875">
        <ele>488</ele>
        <time>2019-10-31T11:29:01.000Z</time>
      </trkpt>
      <trkpt lat="37.18203940428793430328369140625" lon="-4.04774484224617481231689453125">
        <ele>487.399993896484375</ele>
        <time>2019-10-31T11:29:05.000Z</time>
      </trkpt>
      <trkpt lat="37.18192323110997676849365234375" lon="-4.04799898155033588409423828125">
        <ele>486</ele>
        <time>2019-10-31T11:29:09.000Z</time>
      </trkpt>
      <trkpt lat="37.18181158415973186492919921875" lon="-4.0482609160244464874267578125">
        <ele>486.20001220703125</ele>
        <time>2019-10-31T11:29:13.000Z</time>
      </trkpt>
      <trkpt lat="37.18170379288494586944580078125" lon="-4.0485276281833648681640625">
        <ele>486</ele>
        <time>2019-10-31T11:29:17.000Z</time>
      </trkpt>
      <trkpt lat="37.181626595556735992431640625" lon="-4.048735164105892181396484375">
        <ele>485.79998779296875</ele>
        <time>2019-10-31T11:29:20.000Z</time>
      </trkpt>
      <trkpt lat="37.18156347982585430145263671875" lon="-4.04895342886447906494140625">
        <ele>484.79998779296875</ele>
        <time>2019-10-31T11:29:23.000Z</time>
      </trkpt>
      <trkpt lat="37.18150891363620758056640625" lon="-4.0491661615669727325439453125">
        <ele>484</ele>
        <time>2019-10-31T11:29:26.000Z</time>
      </trkpt>
      <trkpt lat="37.181475050747394561767578125" lon="-4.04945726506412029266357421875">
        <ele>483.20001220703125</ele>
        <time>2019-10-31T11:29:30.000Z</time>
      </trkpt>
      <trkpt lat="37.1814467199146747589111328125" lon="-4.04975406825542449951171875">
        <ele>482.600006103515625</ele>
        <time>2019-10-31T11:29:34.000Z</time>
      </trkpt>
      <trkpt lat="37.18142442405223846435546875" lon="-4.04998884536325931549072265625">
        <ele>483</ele>
        <time>2019-10-31T11:29:37.000Z</time>
      </trkpt>
      <trkpt lat="37.1814021281898021697998046875" lon="-4.05023007653653621673583984375">
        <ele>483</ele>
        <time>2019-10-31T11:29:40.000Z</time>
      </trkpt>
      <trkpt lat="37.1813779883086681365966796875" lon="-4.05047499574720859527587890625">
        <ele>482.399993896484375</ele>
        <time>2019-10-31T11:29:43.000Z</time>
      </trkpt>
      <trkpt lat="37.1813521720468997955322265625" lon="-4.050714634358882904052734375">
        <ele>480.79998779296875</ele>
        <time>2019-10-31T11:29:46.000Z</time>
      </trkpt>
      <trkpt lat="37.18132610432803630828857421875" lon="-4.05095108784735202789306640625">
        <ele>481</ele>
        <time>2019-10-31T11:29:49.000Z</time>
      </trkpt>
      <trkpt lat="37.1813015453517436981201171875" lon="-4.0511912293732166290283203125">
        <ele>481.79998779296875</ele>
        <time>2019-10-31T11:29:52.000Z</time>
      </trkpt>
      <trkpt lat="37.18128251843154430389404296875" lon="-4.0514369867742061614990234375">
        <ele>482.20001220703125</ele>
        <time>2019-10-31T11:29:55.000Z</time>
      </trkpt>
      <trkpt lat="37.1812626533210277557373046875" lon="-4.05168618075549602508544921875">
        <ele>481.600006103515625</ele>
        <time>2019-10-31T11:29:58.000Z</time>
      </trkpt>
      <trkpt lat="37.18124915845692157745361328125" lon="-4.0519331954419612884521484375">
        <ele>480.20001220703125</ele>
        <time>2019-10-31T11:30:01.000Z</time>
      </trkpt>
      <trkpt lat="37.18124899081885814666748046875" lon="-4.05217568390071392059326171875">
        <ele>479.399993896484375</ele>
        <time>2019-10-31T11:30:04.000Z</time>
      </trkpt>
      <trkpt lat="37.18124161474406719207763671875" lon="-4.05246804468333721160888671875">
        <ele>479.399993896484375</ele>
        <time>2019-10-31T11:30:08.000Z</time>
      </trkpt>
      <trkpt lat="37.18122133053839206695556640625" lon="-4.05273668467998504638671875">
        <ele>479.600006103515625</ele>
        <time>2019-10-31T11:30:12.000Z</time>
      </trkpt>
      <trkpt lat="37.18119534663856029510498046875" lon="-4.05301219783723354339599609375">
        <ele>480.399993896484375</ele>
        <time>2019-10-31T11:30:16.000Z</time>
      </trkpt>
      <trkpt lat="37.181166596710681915283203125" lon="-4.05329802073538303375244140625">
        <ele>480.20001220703125</ele>
        <time>2019-10-31T11:30:20.000Z</time>
      </trkpt>
      <trkpt lat="37.1811352483928203582763671875" lon="-4.0535817481577396392822265625">
        <ele>480</ele>
        <time>2019-10-31T11:30:24.000Z</time>
      </trkpt>
      <trkpt lat="37.18110851012170314788818359375" lon="-4.05386128462851047515869140625">
        <ele>479.79998779296875</ele>
        <time>2019-10-31T11:30:28.000Z</time>
      </trkpt>
      <trkpt lat="37.18108378350734710693359375" lon="-4.05413285829126834869384765625">
        <ele>479</ele>
        <time>2019-10-31T11:30:32.000Z</time>
      </trkpt>
      <trkpt lat="37.181051261723041534423828125" lon="-4.054395966231822967529296875">
        <ele>478.79998779296875</ele>
        <time>2019-10-31T11:30:36.000Z</time>
      </trkpt>
      <trkpt lat="37.1810393594205379486083984375" lon="-4.0546314977109432220458984375">
        <ele>479</ele>
        <time>2019-10-31T11:30:40.000Z</time>
      </trkpt>
      <trkpt lat="37.18103307299315929412841796875" lon="-4.05469126068055629730224609375">
        <ele>479</ele>
        <time>2019-10-31T11:30:41.000Z</time>
      </trkpt>
      <trkpt lat="37.18101128004491329193115234375" lon="-4.0549278818070888519287109375">
        <ele>478.79998779296875</ele>
        <time>2019-10-31T11:30:45.000Z</time>
      </trkpt>
      <trkpt lat="37.18099619261920452117919921875" lon="-4.05509568750858306884765625">
        <ele>478.399993896484375</ele>
        <time>2019-10-31T11:30:48.000Z</time>
      </trkpt>
      <trkpt lat="37.18097641132771968841552734375" lon="-4.05537472106516361236572265625">
        <ele>479.20001220703125</ele>
        <time>2019-10-31T11:30:53.000Z</time>
      </trkpt>
      <trkpt lat="37.1809625811874866485595703125" lon="-4.055602289736270904541015625">
        <ele>480.399993896484375</ele>
        <time>2019-10-31T11:30:57.000Z</time>
      </trkpt>
      <trkpt lat="37.1809598989784717559814453125" lon="-4.0558217279613018035888671875">
        <ele>482</ele>
        <time>2019-10-31T11:31:01.000Z</time>
      </trkpt>
      <trkpt lat="37.1810058318078517913818359375" lon="-4.0560145117342472076416015625">
        <ele>483</ele>
        <time>2019-10-31T11:31:05.000Z</time>
      </trkpt>
      <trkpt lat="37.18105486594140529632568359375" lon="-4.05613294802606105804443359375">
        <ele>483.399993896484375</ele>
        <time>2019-10-31T11:31:08.000Z</time>
      </trkpt>
      <trkpt lat="37.18113114126026630401611328125" lon="-4.05629463493824005126953125">
        <ele>483.79998779296875</ele>
        <time>2019-10-31T11:31:12.000Z</time>
      </trkpt>
      <trkpt lat="37.18119375407695770263671875" lon="-4.05653066933155059814453125">
        <ele>484.20001220703125</ele>
        <time>2019-10-31T11:31:17.000Z</time>
      </trkpt>
      <trkpt lat="37.1811984479427337646484375" lon="-4.05657903291285037994384765625">
        <ele>484.20001220703125</ele>
        <time>2019-10-31T11:31:18.000Z</time>
      </trkpt>
      <trkpt lat="37.18118302524089813232421875" lon="-4.05681272037327289581298828125">
        <ele>484.79998779296875</ele>
        <time>2019-10-31T11:31:23.000Z</time>
      </trkpt>
      <trkpt lat="37.18127665109932422637939453125" lon="-4.0569846332073211669921875">
        <ele>485.20001220703125</ele>
        <time>2019-10-31T11:31:28.000Z</time>
      </trkpt>
      <trkpt lat="37.1813940815627574920654296875" lon="-4.05715084634721279144287109375">
        <ele>484.79998779296875</ele>
        <time>2019-10-31T11:31:34.000Z</time>
      </trkpt>
      <trkpt lat="37.18151561915874481201171875" lon="-4.05725629068911075592041015625">
        <ele>484.399993896484375</ele>
        <time>2019-10-31T11:31:39.000Z</time>
      </trkpt>
      <trkpt lat="37.1813940815627574920654296875" lon="-4.05748243443667888641357421875">
        <ele>483.20001220703125</ele>
        <time>2019-10-31T11:31:45.000Z</time>
      </trkpt>
      <trkpt lat="37.1813122741878032684326171875" lon="-4.05752845108509063720703125">
        <ele>483</ele>
        <time>2019-10-31T11:31:47.000Z</time>
      </trkpt>
      <trkpt lat="37.1811265312135219573974609375" lon="-4.0575768984854221343994140625">
        <ele>482.600006103515625</ele>
        <time>2019-10-31T11:31:51.000Z</time>
      </trkpt>
      <trkpt lat="37.18091689981520175933837890625" lon="-4.05765040777623653411865234375">
        <ele>482.399993896484375</ele>
        <time>2019-10-31T11:31:56.000Z</time>
      </trkpt>
      <trkpt lat="37.18076166696846485137939453125" lon="-4.05777412466704845428466796875">
        <ele>482.600006103515625</ele>
        <time>2019-10-31T11:32:02.000Z</time>
      </trkpt>
      <trkpt lat="37.18073308467864990234375" lon="-4.0580301918089389801025390625">
        <ele>482</ele>
        <time>2019-10-31T11:32:09.000Z</time>
      </trkpt>
      <trkpt lat="37.180719338357448577880859375" lon="-4.05830000527203083038330078125">
        <ele>481.79998779296875</ele>
        <time>2019-10-31T11:32:15.000Z</time>
      </trkpt>
      <trkpt lat="37.180701233446598052978515625" lon="-4.05854140408337116241455078125">
        <ele>481.399993896484375</ele>
        <time>2019-10-31T11:32:20.000Z</time>
      </trkpt>
      <trkpt lat="37.1806799434125423431396484375" lon="-4.05879587866365909576416015625">
        <ele>482.20001220703125</ele>
        <time>2019-10-31T11:32:25.000Z</time>
      </trkpt>
      <trkpt lat="37.180669717490673065185546875" lon="-4.05902135185897350311279296875">
        <ele>481.600006103515625</ele>
        <time>2019-10-31T11:32:29.000Z</time>
      </trkpt>
      <trkpt lat="37.1806594915688037872314453125" lon="-4.05926375649869441986083984375">
        <ele>480.79998779296875</ele>
        <time>2019-10-31T11:32:33.000Z</time>
      </trkpt>
      <trkpt lat="37.180654294788837432861328125" lon="-4.0595067478716373443603515625">
        <ele>480.600006103515625</ele>
        <time>2019-10-31T11:32:37.000Z</time>
      </trkpt>
      <trkpt lat="37.180642895400524139404296875" lon="-4.0597481466829776763916015625">
        <ele>481</ele>
        <time>2019-10-31T11:32:41.000Z</time>
      </trkpt>
      <trkpt lat="37.1806289814412593841552734375" lon="-4.05999532900750637054443359375">
        <ele>481.399993896484375</ele>
        <time>2019-10-31T11:32:45.000Z</time>
      </trkpt>
      <trkpt lat="37.1806071884930133819580078125" lon="-4.06024686992168426513671875">
        <ele>481.20001220703125</ele>
        <time>2019-10-31T11:32:49.000Z</time>
      </trkpt>
      <trkpt lat="37.1806018240749835968017578125" lon="-4.0603093989193439483642578125">
        <ele>480.79998779296875</ele>
        <time>2019-10-31T11:32:50.000Z</time>
      </trkpt>
      <trkpt lat="37.1806014887988567352294921875" lon="-4.06056345440447330474853515625">
        <ele>479</ele>
        <time>2019-10-31T11:32:54.000Z</time>
      </trkpt>
      <trkpt lat="37.18059587292373180389404296875" lon="-4.0608336031436920166015625">
        <ele>479</ele>
        <time>2019-10-31T11:32:58.000Z</time>
      </trkpt>
      <trkpt lat="37.18059201724827289581298828125" lon="-4.0611040033400058746337890625">
        <ele>479.20001220703125</ele>
        <time>2019-10-31T11:33:02.000Z</time>
      </trkpt>
      <trkpt lat="37.18059151433408260345458984375" lon="-4.06138001941144466400146484375">
        <ele>479.600006103515625</ele>
        <time>2019-10-31T11:33:06.000Z</time>
      </trkpt>
      <trkpt lat="37.18058246187865734100341796875" lon="-4.061660729348659515380859375">
        <ele>478.79998779296875</ele>
        <time>2019-10-31T11:33:10.000Z</time>
      </trkpt>
      <trkpt lat="37.180569805204868316650390625" lon="-4.06194110400974750518798828125">
        <ele>478</ele>
        <time>2019-10-31T11:33:14.000Z</time>
      </trkpt>
      <trkpt lat="37.18056351877748966217041015625" lon="-4.06221988610923290252685546875">
        <ele>478</ele>
        <time>2019-10-31T11:33:18.000Z</time>
      </trkpt>
      <trkpt lat="37.18055228702723979949951171875" lon="-4.06249363906681537628173828125">
        <ele>478.399993896484375</ele>
        <time>2019-10-31T11:33:22.000Z</time>
      </trkpt>
      <trkpt lat="37.180536277592182159423828125" lon="-4.06276521272957324981689453125">
        <ele>477.600006103515625</ele>
        <time>2019-10-31T11:33:26.000Z</time>
      </trkpt>
      <trkpt lat="37.180530913174152374267578125" lon="-4.0630496107041835784912109375">
        <ele>477.20001220703125</ele>
        <time>2019-10-31T11:33:30.000Z</time>
      </trkpt>
      <trkpt lat="37.1805270574986934661865234375" lon="-4.06333677470684051513671875">
        <ele>477.399993896484375</ele>
        <time>2019-10-31T11:33:34.000Z</time>
      </trkpt>
      <trkpt lat="37.18051976524293422698974609375" lon="-4.0636239387094974517822265625">
        <ele>477.79998779296875</ele>
        <time>2019-10-31T11:33:38.000Z</time>
      </trkpt>
      <trkpt lat="37.18050400726497173309326171875" lon="-4.063909091055393218994140625">
        <ele>477.20001220703125</ele>
        <time>2019-10-31T11:33:42.000Z</time>
      </trkpt>
      <trkpt lat="37.180502079427242279052734375" lon="-4.06418795697391033172607421875">
        <ele>476.79998779296875</ele>
        <time>2019-10-31T11:33:46.000Z</time>
      </trkpt>
      <trkpt lat="37.18049378134310245513916015625" lon="-4.06432927586138248443603515625">
        <ele>477</ele>
        <time>2019-10-31T11:33:48.000Z</time>
      </trkpt>
      <trkpt lat="37.1805039234459400177001953125" lon="-4.064469672739505767822265625">
        <ele>477.399993896484375</ele>
        <time>2019-10-31T11:33:50.000Z</time>
      </trkpt>
      <trkpt lat="37.18058799393475055694580078125" lon="-4.06473311595618724822998046875">
        <ele>477.600006103515625</ele>
        <time>2019-10-31T11:33:54.000Z</time>
      </trkpt>
      <trkpt lat="37.180615402758121490478515625" lon="-4.06496546231210231781005859375">
        <ele>477.399993896484375</ele>
        <time>2019-10-31T11:33:57.000Z</time>
      </trkpt>
      <trkpt lat="37.18061666004359722137451171875" lon="-4.06521775759756565093994140625">
        <ele>478</ele>
        <time>2019-10-31T11:34:00.000Z</time>
      </trkpt>
      <trkpt lat="37.18060827814042568206787109375" lon="-4.065459072589874267578125">
        <ele>478</ele>
        <time>2019-10-31T11:34:03.000Z</time>
      </trkpt>
      <trkpt lat="37.1806004829704761505126953125" lon="-4.0656868927180767059326171875">
        <ele>477.600006103515625</ele>
        <time>2019-10-31T11:34:06.000Z</time>
      </trkpt>
      <trkpt lat="37.1805914305150508880615234375" lon="-4.06597933731973171234130859375">
        <ele>477.20001220703125</ele>
        <time>2019-10-31T11:34:10.000Z</time>
      </trkpt>
      <trkpt lat="37.1805870719254016876220703125" lon="-4.06626767478883266448974609375">
        <ele>477.20001220703125</ele>
        <time>2019-10-31T11:34:14.000Z</time>
      </trkpt>
      <trkpt lat="37.180580198764801025390625" lon="-4.06654846854507923126220703125">
        <ele>477.600006103515625</ele>
        <time>2019-10-31T11:34:18.000Z</time>
      </trkpt>
      <trkpt lat="37.1805746667087078094482421875" lon="-4.06682725064456462860107421875">
        <ele>479</ele>
        <time>2019-10-31T11:34:22.000Z</time>
      </trkpt>
      <trkpt lat="37.18057039193809032440185546875" lon="-4.06708725728094577789306640625">
        <ele>479.600006103515625</ele>
        <time>2019-10-31T11:34:26.000Z</time>
      </trkpt>
      <trkpt lat="37.18056879937648773193359375" lon="-4.0673548914492130279541015625">
        <ele>480.600006103515625</ele>
        <time>2019-10-31T11:34:30.000Z</time>
      </trkpt>
      <trkpt lat="37.18055932782590389251708984375" lon="-4.06762721948325634002685546875">
        <ele>479.79998779296875</ele>
        <time>2019-10-31T11:34:34.000Z</time>
      </trkpt>
      <trkpt lat="37.1805545501410961151123046875" lon="-4.06790164299309253692626953125">
        <ele>479.399993896484375</ele>
        <time>2019-10-31T11:34:38.000Z</time>
      </trkpt>
      <trkpt lat="37.1805488504469394683837890625" lon="-4.06817640177905559539794921875">
        <ele>479.399993896484375</ele>
        <time>2019-10-31T11:34:42.000Z</time>
      </trkpt>
      <trkpt lat="37.18054390512406826019287109375" lon="-4.0684562735259532928466796875">
        <ele>478.600006103515625</ele>
        <time>2019-10-31T11:34:46.000Z</time>
      </trkpt>
      <trkpt lat="37.18053904362022876739501953125" lon="-4.06874150969088077545166015625">
        <ele>477.600006103515625</ele>
        <time>2019-10-31T11:34:50.000Z</time>
      </trkpt>
      <trkpt lat="37.18053602613508701324462890625" lon="-4.0690061263740062713623046875">
        <ele>477.399993896484375</ele>
        <time>2019-10-31T11:34:54.000Z</time>
      </trkpt>
      <trkpt lat="37.1805330924689769744873046875" lon="-4.06923352740705013275146484375">
        <ele>476.600006103515625</ele>
        <time>2019-10-31T11:34:58.000Z</time>
      </trkpt>
      <trkpt lat="37.18052722513675689697265625" lon="-4.06946402974426746368408203125">
        <ele>476.79998779296875</ele>
        <time>2019-10-31T11:35:02.000Z</time>
      </trkpt>
      <trkpt lat="37.18053719960153102874755859375" lon="-4.06969604082405567169189453125">
        <ele>476.79998779296875</ele>
        <time>2019-10-31T11:35:06.000Z</time>
      </trkpt>
      <trkpt lat="37.1805600821971893310546875" lon="-4.06997364945709705352783203125">
        <ele>477.399993896484375</ele>
        <time>2019-10-31T11:35:11.000Z</time>
      </trkpt>
      <trkpt lat="37.18058262951672077178955078125" lon="-4.0702090971171855926513671875">
        <ele>477.600006103515625</ele>
        <time>2019-10-31T11:35:15.000Z</time>
      </trkpt>
      <trkpt lat="37.1806014887988567352294921875" lon="-4.07045125029981136322021484375">
        <ele>477</ele>
        <time>2019-10-31T11:35:19.000Z</time>
      </trkpt>
      <trkpt lat="37.1806182526051998138427734375" lon="-4.07068426720798015594482421875">
        <ele>476.399993896484375</ele>
        <time>2019-10-31T11:35:23.000Z</time>
      </trkpt>
      <trkpt lat="37.18063040636479854583740234375" lon="-4.07091761939227581024169921875">
        <ele>476.20001220703125</ele>
        <time>2019-10-31T11:35:27.000Z</time>
      </trkpt>
      <trkpt lat="37.180636189877986907958984375" lon="-4.07114761881530284881591796875">
        <ele>476.399993896484375</ele>
        <time>2019-10-31T11:35:31.000Z</time>
      </trkpt>
      <trkpt lat="37.180644907057285308837890625" lon="-4.0714036859571933746337890625">
        <ele>476.79998779296875</ele>
        <time>2019-10-31T11:35:36.000Z</time>
      </trkpt>
      <trkpt lat="37.18064230866730213165283203125" lon="-4.07149798236787319183349609375">
        <ele>476.79998779296875</ele>
        <time>2019-10-31T11:35:38.000Z</time>
      </trkpt>
      <trkpt lat="37.18067114241421222686767578125" lon="-4.07174441032111644744873046875">
        <ele>475.79998779296875</ele>
        <time>2019-10-31T11:35:43.000Z</time>
      </trkpt>
      <trkpt lat="37.18070969916880130767822265625" lon="-4.07197793014347553253173828125">
        <ele>475.20001220703125</ele>
        <time>2019-10-31T11:35:47.000Z</time>
      </trkpt>
      <trkpt lat="37.18073777854442596435546875" lon="-4.072094857692718505859375">
        <ele>475</ele>
        <time>2019-10-31T11:35:49.000Z</time>
      </trkpt>
      <trkpt lat="37.1807607449591159820556640625" lon="-4.0722666867077350616455078125">
        <ele>476.20001220703125</ele>
        <time>2019-10-31T11:35:52.000Z</time>
      </trkpt>
      <trkpt lat="37.18080173246562480926513671875" lon="-4.07253532670438289642333984375">
        <ele>478.600006103515625</ele>
        <time>2019-10-31T11:35:57.000Z</time>
      </trkpt>
      <trkpt lat="37.18082369305193424224853515625" lon="-4.07268016599118709564208984375">
        <ele>479.79998779296875</ele>
        <time>2019-10-31T11:36:00.000Z</time>
      </trkpt>
      <trkpt lat="37.18085336498916149139404296875" lon="-4.07285065390169620513916015625">
        <ele>481</ele>
        <time>2019-10-31T11:36:04.000Z</time>
      </trkpt>
      <trkpt lat="37.18086878769099712371826171875" lon="-4.072935394942760467529296875">
        <ele>481.600006103515625</ele>
        <time>2019-10-31T11:36:06.000Z</time>
      </trkpt>
      <trkpt lat="37.180902063846588134765625" lon="-4.07319799996912479400634765625">
        <ele>481</ele>
        <time>2019-10-31T11:36:11.000Z</time>
      </trkpt>
      <trkpt lat="37.1809424646198749542236328125" lon="-4.07342079095542430877685546875">
        <ele>479</ele>
        <time>2019-10-31T11:36:15.000Z</time>
      </trkpt>
      <trkpt lat="37.18098596669733524322509765625" lon="-4.073654897511005401611328125">
        <ele>478.20001220703125</ele>
        <time>2019-10-31T11:36:19.000Z</time>
      </trkpt>
      <trkpt lat="37.18102343380451202392578125" lon="-4.073891937732696533203125">
        <ele>478.399993896484375</ele>
        <time>2019-10-31T11:36:23.000Z</time>
      </trkpt>
      <trkpt lat="37.181070037186145782470703125" lon="-4.07415504567325115203857421875">
        <ele>479.399993896484375</ele>
        <time>2019-10-31T11:36:28.000Z</time>
      </trkpt>
      <trkpt lat="37.18111538328230381011962890625" lon="-4.07440834678709506988525390625">
        <ele>479.399993896484375</ele>
        <time>2019-10-31T11:36:33.000Z</time>
      </trkpt>
      <trkpt lat="37.18116433359682559967041015625" lon="-4.0746377594769001007080078125">
        <ele>478</ele>
        <time>2019-10-31T11:36:37.000Z</time>
      </trkpt>
      <trkpt lat="37.18121864832937717437744140625" lon="-4.0748801641166210174560546875">
        <ele>476.79998779296875</ele>
        <time>2019-10-31T11:36:41.000Z</time>
      </trkpt>
      <trkpt lat="37.1812706999480724334716796875" lon="-4.07512734644114971160888671875">
        <ele>476.399993896484375</ele>
        <time>2019-10-31T11:36:45.000Z</time>
      </trkpt>
      <trkpt lat="37.18130850233137607574462890625" lon="-4.07539003528654575347900390625">
        <ele>476.79998779296875</ele>
        <time>2019-10-31T11:36:49.000Z</time>
      </trkpt>
      <trkpt lat="37.1813344024121761322021484375" lon="-4.0756345354020595550537109375">
        <ele>476.600006103515625</ele>
        <time>2019-10-31T11:36:53.000Z</time>
      </trkpt>
      <trkpt lat="37.18135175295174121856689453125" lon="-4.0759047679603099822998046875">
        <ele>476</ele>
        <time>2019-10-31T11:36:58.000Z</time>
      </trkpt>
      <trkpt lat="37.18135477043688297271728515625" lon="-4.0761411376297473907470703125">
        <ele>476.600006103515625</ele>
        <time>2019-10-31T11:37:03.000Z</time>
      </trkpt>
      <trkpt lat="37.1813486516475677490234375" lon="-4.07640173099935054779052734375">
        <ele>476.79998779296875</ele>
        <time>2019-10-31T11:37:08.000Z</time>
      </trkpt>
      <trkpt lat="37.18133096583187580108642578125" lon="-4.0766708739101886749267578125">
        <ele>476.79998779296875</ele>
        <time>2019-10-31T11:37:13.000Z</time>
      </trkpt>
      <trkpt lat="37.18132493086159229278564453125" lon="-4.07678277231752872467041015625">
        <ele>476.79998779296875</ele>
        <time>2019-10-31T11:37:15.000Z</time>
      </trkpt>
      <trkpt lat="37.18129701912403106689453125" lon="-4.07701076008379459381103515625">
        <ele>477</ele>
        <time>2019-10-31T11:37:19.000Z</time>
      </trkpt>
      <trkpt lat="37.1812681853771209716796875" lon="-4.077236987650394439697265625">
        <ele>477.399993896484375</ele>
        <time>2019-10-31T11:37:23.000Z</time>
      </trkpt>
      <trkpt lat="37.1812251023948192596435546875" lon="-4.07745860517024993896484375">
        <ele>477.20001220703125</ele>
        <time>2019-10-31T11:37:27.000Z</time>
      </trkpt>
      <trkpt lat="37.1811748109757900238037109375" lon="-4.0776770375669002532958984375">
        <ele>476.20001220703125</ele>
        <time>2019-10-31T11:37:31.000Z</time>
      </trkpt>
      <trkpt lat="37.18111219815909862518310546875" lon="-4.07790024764835834503173828125">
        <ele>476.20001220703125</ele>
        <time>2019-10-31T11:37:35.000Z</time>
      </trkpt>
      <trkpt lat="37.18103089369833469390869140625" lon="-4.07811247743666172027587890625">
        <ele>475.600006103515625</ele>
        <time>2019-10-31T11:37:39.000Z</time>
      </trkpt>
      <trkpt lat="37.18091882765293121337890625" lon="-4.07834012992680072784423828125">
        <ele>476</ele>
        <time>2019-10-31T11:37:44.000Z</time>
      </trkpt>
      <trkpt lat="37.1808834560215473175048828125" lon="-4.07842612825334072113037109375">
        <ele>476.20001220703125</ele>
        <time>2019-10-31T11:37:46.000Z</time>
      </trkpt>
      <trkpt lat="37.18080910854041576385498046875" lon="-4.07866920344531536102294921875">
        <ele>475.79998779296875</ele>
        <time>2019-10-31T11:37:51.000Z</time>
      </trkpt>
      <trkpt lat="37.18079653568565845489501953125" lon="-4.07871966250240802764892578125">
        <ele>475.600006103515625</ele>
        <time>2019-10-31T11:37:52.000Z</time>
      </trkpt>
      <trkpt lat="37.18074406497180461883544921875" lon="-4.0789463929831981658935546875">
        <ele>474.79998779296875</ele>
        <time>2019-10-31T11:37:56.000Z</time>
      </trkpt>
      <trkpt lat="37.1806866489350795745849609375" lon="-4.079181589186191558837890625">
        <ele>474.600006103515625</ele>
        <time>2019-10-31T11:38:00.000Z</time>
      </trkpt>
      <trkpt lat="37.1806048415601253509521484375" lon="-4.0794016979634761810302734375">
        <ele>475.600006103515625</ele>
        <time>2019-10-31T11:38:04.000Z</time>
      </trkpt>
      <trkpt lat="37.1805066056549549102783203125" lon="-4.07960663549602031707763671875">
        <ele>476.600006103515625</ele>
        <time>2019-10-31T11:38:08.000Z</time>
      </trkpt>
      <trkpt lat="37.18040116131305694580078125" lon="-4.07980293966829776763916015625">
        <ele>476.79998779296875</ele>
        <time>2019-10-31T11:38:12.000Z</time>
      </trkpt>
      <trkpt lat="37.180270068347454071044921875" lon="-4.079988263547420501708984375">
        <ele>476.600006103515625</ele>
        <time>2019-10-31T11:38:16.000Z</time>
      </trkpt>
      <trkpt lat="37.18016772530972957611083984375" lon="-4.0801131539046764373779296875">
        <ele>476.600006103515625</ele>
        <time>2019-10-31T11:38:19.000Z</time>
      </trkpt>
      <trkpt lat="37.17999489046633243560791015625" lon="-4.08029328100383281707763671875">
        <ele>476.600006103515625</ele>
        <time>2019-10-31T11:38:24.000Z</time>
      </trkpt>
      <trkpt lat="37.17983362264931201934814453125" lon="-4.08041230402886867523193359375">
        <ele>476.600006103515625</ele>
        <time>2019-10-31T11:38:28.000Z</time>
      </trkpt>
      <trkpt lat="37.17963128350675106048583984375" lon="-4.08052881248295307159423828125">
        <ele>476.399993896484375</ele>
        <time>2019-10-31T11:38:33.000Z</time>
      </trkpt>
      <trkpt lat="37.17942844144999980926513671875" lon="-4.08061883412301540374755859375">
        <ele>476.600006103515625</ele>
        <time>2019-10-31T11:38:38.000Z</time>
      </trkpt>
      <trkpt lat="37.1792292036116123199462890625" lon="-4.08068706281483173370361328125">
        <ele>476.79998779296875</ele>
        <time>2019-10-31T11:38:43.000Z</time>
      </trkpt>
      <trkpt lat="37.17904471792280673980712890625" lon="-4.080790914595127105712890625">
        <ele>476</ele>
        <time>2019-10-31T11:38:48.000Z</time>
      </trkpt>
      <trkpt lat="37.179006747901439666748046875" lon="-4.08080407418310642242431640625">
        <ele>475.79998779296875</ele>
        <time>2019-10-31T11:38:49.000Z</time>
      </trkpt>
      <trkpt lat="37.178931646049022674560546875" lon="-4.08083726651966571807861328125">
        <ele>475.399993896484375</ele>
        <time>2019-10-31T11:38:51.000Z</time>
      </trkpt>
      <trkpt lat="37.17874850146472454071044921875" lon="-4.0809671021997928619384765625">
        <ele>473.600006103515625</ele>
        <time>2019-10-31T11:38:56.000Z</time>
      </trkpt>
      <trkpt lat="37.1787066757678985595703125" lon="-4.08098545856773853302001953125">
        <ele>473.600006103515625</ele>
        <time>2019-10-31T11:38:57.000Z</time>
      </trkpt>
      <trkpt lat="37.178624533116817474365234375" lon="-4.0810080058872699737548828125">
        <ele>473.399993896484375</ele>
        <time>2019-10-31T11:38:59.000Z</time>
      </trkpt>
      <trkpt lat="37.17841926030814647674560546875" lon="-4.08103072084486484527587890625">
        <ele>474.20001220703125</ele>
        <time>2019-10-31T11:39:04.000Z</time>
      </trkpt>
      <trkpt lat="37.17820183373987674713134765625" lon="-4.081069529056549072265625">
        <ele>475.600006103515625</ele>
        <time>2019-10-31T11:39:09.000Z</time>
      </trkpt>
      <trkpt lat="37.17800435610115528106689453125" lon="-4.081141948699951171875">
        <ele>477.600006103515625</ele>
        <time>2019-10-31T11:39:14.000Z</time>
      </trkpt>
      <trkpt lat="37.1778103150427341461181640625" lon="-4.08123515546321868896484375">
        <ele>478.399993896484375</ele>
        <time>2019-10-31T11:39:19.000Z</time>
      </trkpt>
      <trkpt lat="37.17761258594691753387451171875" lon="-4.08131972886621952056884765625">
        <ele>479.20001220703125</ele>
        <time>2019-10-31T11:39:24.000Z</time>
      </trkpt>
      <trkpt lat="37.1774337999522686004638671875" lon="-4.08140388317406177520751953125">
        <ele>479.79998779296875</ele>
        <time>2019-10-31T11:39:29.000Z</time>
      </trkpt>
      <trkpt lat="37.1772571094334125518798828125" lon="-4.081520140171051025390625">
        <ele>480.600006103515625</ele>
        <time>2019-10-31T11:39:34.000Z</time>
      </trkpt>
      <trkpt lat="37.17708536423742771148681640625" lon="-4.08164016902446746826171875">
        <ele>481.600006103515625</ele>
        <time>2019-10-31T11:39:39.000Z</time>
      </trkpt>
      <trkpt lat="37.1769097633659839630126953125" lon="-4.08175810240209102630615234375">
        <ele>483</ele>
        <time>2019-10-31T11:39:44.000Z</time>
      </trkpt>
      <trkpt lat="37.17672209255397319793701171875" lon="-4.08187058754265308380126953125">
        <ele>483</ele>
        <time>2019-10-31T11:39:49.000Z</time>
      </trkpt>
      <trkpt lat="37.17650969512760639190673828125" lon="-4.08196697942912578582763671875">
        <ele>482.79998779296875</ele>
        <time>2019-10-31T11:39:54.000Z</time>
      </trkpt>
      <trkpt lat="37.17634029686450958251953125" lon="-4.08205482177436351776123046875">
        <ele>482.399993896484375</ele>
        <time>2019-10-31T11:39:58.000Z</time>
      </trkpt>
      <trkpt lat="37.17616260051727294921875" lon="-4.08213545568287372589111328125">
        <ele>481.600006103515625</ele>
        <time>2019-10-31T11:40:02.000Z</time>
      </trkpt>
      <trkpt lat="37.17606847174465656280517578125" lon="-4.08217099495232105255126953125">
        <ele>481.399993896484375</ele>
        <time>2019-10-31T11:40:04.000Z</time>
      </trkpt>
      <trkpt lat="37.175922878086566925048828125" lon="-4.0821945481002330780029296875">
        <ele>481.399993896484375</ele>
        <time>2019-10-31T11:40:07.000Z</time>
      </trkpt>
      <trkpt lat="37.17582992278039455413818359375" lon="-4.0821928717195987701416015625">
        <ele>481.399993896484375</ele>
        <time>2019-10-31T11:40:09.000Z</time>
      </trkpt>
      <trkpt lat="37.17574023641645908355712890625" lon="-4.08217929303646087646484375">
        <ele>481.399993896484375</ele>
        <time>2019-10-31T11:40:11.000Z</time>
      </trkpt>
      <trkpt lat="37.17558098025619983673095703125" lon="-4.0821559913456439971923828125">
        <ele>482</ele>
        <time>2019-10-31T11:40:15.000Z</time>
      </trkpt>
      <trkpt lat="37.17544619925320148468017578125" lon="-4.08213713206350803375244140625">
        <ele>482.600006103515625</ele>
        <time>2019-10-31T11:40:19.000Z</time>
      </trkpt>
      <trkpt lat="37.1752638928592205047607421875" lon="-4.08215071074664592742919921875">
        <ele>483</ele>
        <time>2019-10-31T11:40:25.000Z</time>
      </trkpt>
      <trkpt lat="37.17511310242116451263427734375" lon="-4.08218692056834697723388671875">
        <ele>482.600006103515625</ele>
        <time>2019-10-31T11:40:31.000Z</time>
      </trkpt>
      <trkpt lat="37.1749091707170009613037109375" lon="-4.082218520343303680419921875">
        <ele>482</ele>
        <time>2019-10-31T11:40:39.000Z</time>
      </trkpt>
      <trkpt lat="37.17470155097544193267822265625" lon="-4.08225573599338531494140625">
        <ele>482</ele>
        <time>2019-10-31T11:40:45.000Z</time>
      </trkpt>
      <trkpt lat="37.17451698146760463714599609375" lon="-4.08232815563678741455078125">
        <ele>481.79998779296875</ele>
        <time>2019-10-31T11:40:49.000Z</time>
      </trkpt>
      <trkpt lat="37.17436493374407291412353515625" lon="-4.08238691277801990509033203125">
        <ele>481.79998779296875</ele>
        <time>2019-10-31T11:40:52.000Z</time>
      </trkpt>
      <trkpt lat="37.17418849468231201171875" lon="-4.08243435434997081756591796875">
        <ele>480.399993896484375</ele>
        <time>2019-10-31T11:40:56.000Z</time>
      </trkpt>
      <trkpt lat="37.173983640968799591064453125" lon="-4.0824892558157444000244140625">
        <ele>478.399993896484375</ele>
        <time>2019-10-31T11:41:02.000Z</time>
      </trkpt>
      <trkpt lat="37.17388783581554889678955078125" lon="-4.08251280896365642547607421875">
        <ele>478</ele>
        <time>2019-10-31T11:41:05.000Z</time>
      </trkpt>
      <trkpt lat="37.1737880073487758636474609375" lon="-4.08252395689487457275390625">
        <ele>478</ele>
        <time>2019-10-31T11:41:08.000Z</time>
      </trkpt>
      <trkpt lat="37.173649370670318603515625" lon="-4.08252303488552570343017578125">
        <ele>479</ele>
        <time>2019-10-31T11:41:12.000Z</time>
      </trkpt>
      <trkpt lat="37.17345289885997772216796875" lon="-4.0825594961643218994140625">
        <ele>479</ele>
        <time>2019-10-31T11:41:16.000Z</time>
      </trkpt>
      <trkpt lat="37.17324678786098957061767578125" lon="-4.08261976204812526702880859375">
        <ele>480</ele>
        <time>2019-10-31T11:41:21.000Z</time>
      </trkpt>
      <trkpt lat="37.17313639819622039794921875" lon="-4.08265949226915836334228515625">
        <ele>480.600006103515625</ele>
        <time>2019-10-31T11:41:24.000Z</time>
      </trkpt>
      <trkpt lat="37.172994576394557952880859375" lon="-4.0827273018658161163330078125">
        <ele>481</ele>
        <time>2019-10-31T11:41:29.000Z</time>
      </trkpt>
      <trkpt lat="37.17294596135616302490234375" lon="-4.08274113200604915618896484375">
        <ele>481.20001220703125</ele>
        <time>2019-10-31T11:41:31.000Z</time>
      </trkpt>
      <trkpt lat="37.1727682650089263916015625" lon="-4.082825370132923126220703125">
        <ele>480.399993896484375</ele>
        <time>2019-10-31T11:41:39.000Z</time>
      </trkpt>
      <trkpt lat="37.1725910715758800506591796875" lon="-4.08290022052824497222900390625">
        <ele>480.600006103515625</ele>
        <time>2019-10-31T11:41:45.000Z</time>
      </trkpt>
      <trkpt lat="37.17243500053882598876953125" lon="-4.08302242867648601531982421875">
        <ele>479.79998779296875</ele>
        <time>2019-10-31T11:41:50.000Z</time>
      </trkpt>
      <trkpt lat="37.172279767692089080810546875" lon="-4.0831517614424228668212890625">
        <ele>481.600006103515625</ele>
        <time>2019-10-31T11:41:55.000Z</time>
      </trkpt>
      <trkpt lat="37.17211187817156314849853515625" lon="-4.08329919911921024322509765625">
        <ele>484.20001220703125</ele>
        <time>2019-10-31T11:42:00.000Z</time>
      </trkpt>
      <trkpt lat="37.1719590760767459869384765625" lon="-4.08346449024975299835205078125">
        <ele>486.79998779296875</ele>
        <time>2019-10-31T11:42:05.000Z</time>
      </trkpt>
      <trkpt lat="37.17179252766072750091552734375" lon="-4.083649478852748870849609375">
        <ele>488.600006103515625</ele>
        <time>2019-10-31T11:42:10.000Z</time>
      </trkpt>
      <trkpt lat="37.17163109220564365386962890625" lon="-4.0838461183011531829833984375">
        <ele>489</ele>
        <time>2019-10-31T11:42:15.000Z</time>
      </trkpt>
      <trkpt lat="37.171484492719173431396484375" lon="-4.084036387503147125244140625">
        <ele>489.79998779296875</ele>
        <time>2019-10-31T11:42:19.000Z</time>
      </trkpt>
      <trkpt lat="37.171444594860076904296875" lon="-4.08408961258828639984130859375">
        <ele>489.79998779296875</ele>
        <time>2019-10-31T11:42:20.000Z</time>
      </trkpt>
      <trkpt lat="37.17133839614689350128173828125" lon="-4.0842796303331851959228515625">
        <ele>489</ele>
        <time>2019-10-31T11:42:23.000Z</time>
      </trkpt>
      <trkpt lat="37.1712600253522396087646484375" lon="-4.08440343104302883148193359375">
        <ele>488.600006103515625</ele>
        <time>2019-10-31T11:42:25.000Z</time>
      </trkpt>
      <trkpt lat="37.17115265317261219024658203125" lon="-4.08458749763667583465576171875">
        <ele>487.79998779296875</ele>
        <time>2019-10-31T11:42:28.000Z</time>
      </trkpt>
      <trkpt lat="37.17105559073388576507568359375" lon="-4.0847857296466827392578125">
        <ele>486.79998779296875</ele>
        <time>2019-10-31T11:42:31.000Z</time>
      </trkpt>
      <trkpt lat="37.17095173895359039306640625" lon="-4.0849790163338184356689453125">
        <ele>486</ele>
        <time>2019-10-31T11:42:34.000Z</time>
      </trkpt>
      <trkpt lat="37.1708506532013416290283203125" lon="-4.08517926000058650970458984375">
        <ele>485.79998779296875</ele>
        <time>2019-10-31T11:42:37.000Z</time>
      </trkpt>
      <trkpt lat="37.17074445448815822601318359375" lon="-4.0853847004473209381103515625">
        <ele>485.399993896484375</ele>
        <time>2019-10-31T11:42:40.000Z</time>
      </trkpt>
      <trkpt lat="37.17063523828983306884765625" lon="-4.0855935774743556976318359375">
        <ele>484.600006103515625</ele>
        <time>2019-10-31T11:42:43.000Z</time>
      </trkpt>
      <trkpt lat="37.17051814310252666473388671875" lon="-4.08579281531274318695068359375">
        <ele>483.79998779296875</ele>
        <time>2019-10-31T11:42:46.000Z</time>
      </trkpt>
      <trkpt lat="37.17040414921939373016357421875" lon="-4.08599674701690673828125">
        <ele>482.600006103515625</ele>
        <time>2019-10-31T11:42:49.000Z</time>
      </trkpt>
      <trkpt lat="37.170288898050785064697265625" lon="-4.08620788715779781341552734375">
        <ele>482.20001220703125</ele>
        <time>2019-10-31T11:42:52.000Z</time>
      </trkpt>
      <trkpt lat="37.17016451060771942138671875" lon="-4.0864029340445995330810546875">
        <ele>481</ele>
        <time>2019-10-31T11:42:55.000Z</time>
      </trkpt>
      <trkpt lat="37.17002780176699161529541015625" lon="-4.08659345470368862152099609375">
        <ele>479.399993896484375</ele>
        <time>2019-10-31T11:42:58.000Z</time>
      </trkpt>
      <trkpt lat="37.16987776570022106170654296875" lon="-4.0867737494409084320068359375">
        <ele>479.600006103515625</ele>
        <time>2019-10-31T11:43:01.000Z</time>
      </trkpt>
      <trkpt lat="37.16970778070390224456787109375" lon="-4.08693627454340457916259765625">
        <ele>480</ele>
        <time>2019-10-31T11:43:04.000Z</time>
      </trkpt>
      <trkpt lat="37.16952220536768436431884765625" lon="-4.0870828740298748016357421875">
        <ele>480.399993896484375</ele>
        <time>2019-10-31T11:43:07.000Z</time>
      </trkpt>
      <trkpt lat="37.16933302581310272216796875" lon="-4.08722846768796443939208984375">
        <ele>480</ele>
        <time>2019-10-31T11:43:10.000Z</time>
      </trkpt>
      <trkpt lat="37.1691427566111087799072265625" lon="-4.08735863864421844482421875">
        <ele>478.399993896484375</ele>
        <time>2019-10-31T11:43:13.000Z</time>
      </trkpt>
      <trkpt lat="37.16895340941846370697021484375" lon="-4.087482355535030364990234375">
        <ele>477.399993896484375</ele>
        <time>2019-10-31T11:43:16.000Z</time>
      </trkpt>
      <trkpt lat="37.16876984573900699615478515625" lon="-4.0875891409814357757568359375">
        <ele>476.600006103515625</ele>
        <time>2019-10-31T11:43:19.000Z</time>
      </trkpt>
      <trkpt lat="37.1685920655727386474609375" lon="-4.08769148401916027069091796875">
        <ele>476</ele>
        <time>2019-10-31T11:43:22.000Z</time>
      </trkpt>
      <trkpt lat="37.1684202365577220916748046875" lon="-4.0877909772098064422607421875">
        <ele>476.399993896484375</ele>
        <time>2019-10-31T11:43:25.000Z</time>
      </trkpt>
      <trkpt lat="37.1682522632181644439697265625" lon="-4.08788544125854969024658203125">
        <ele>477.20001220703125</ele>
        <time>2019-10-31T11:43:28.000Z</time>
      </trkpt>
      <trkpt lat="37.16804212890565395355224609375" lon="-4.08800303936004638671875">
        <ele>479</ele>
        <time>2019-10-31T11:43:32.000Z</time>
      </trkpt>
      <trkpt lat="37.16785588301718235015869140625" lon="-4.0881172008812427520751953125">
        <ele>479.79998779296875</ele>
        <time>2019-10-31T11:43:36.000Z</time>
      </trkpt>
      <trkpt lat="37.16781531460583209991455078125" lon="-4.08815701492130756378173828125">
        <ele>479.79998779296875</ele>
        <time>2019-10-31T11:43:37.000Z</time>
      </trkpt>
      <trkpt lat="37.1677071042358875274658203125" lon="-4.08838550560176372528076171875">
        <ele>480</ele>
        <time>2019-10-31T11:43:41.000Z</time>
      </trkpt>
      <trkpt lat="37.16763040982186794281005859375" lon="-4.0886238031089305877685546875">
        <ele>480</ele>
        <time>2019-10-31T11:43:45.000Z</time>
      </trkpt>
      <trkpt lat="37.1675632707774639129638671875" lon="-4.08884164877235889434814453125">
        <ele>479.600006103515625</ele>
        <time>2019-10-31T11:43:49.000Z</time>
      </trkpt>
      <trkpt lat="37.167504094541072845458984375" lon="-4.089067541062831878662109375">
        <ele>479.20001220703125</ele>
        <time>2019-10-31T11:43:53.000Z</time>
      </trkpt>
      <trkpt lat="37.16745237819850444793701171875" lon="-4.08929594792425632476806640625">
        <ele>478.79998779296875</ele>
        <time>2019-10-31T11:43:57.000Z</time>
      </trkpt>
      <trkpt lat="37.1674279868602752685546875" lon="-4.089409522712230682373046875">
        <ele>478.600006103515625</ele>
        <time>2019-10-31T11:43:59.000Z</time>
      </trkpt>
      <trkpt lat="37.16736302711069583892822265625" lon="-4.089620746672153472900390625">
        <ele>478.600006103515625</ele>
        <time>2019-10-31T11:44:03.000Z</time>
      </trkpt>
      <trkpt lat="37.1673047728836536407470703125" lon="-4.0897908993065357208251953125">
        <ele>478.399993896484375</ele>
        <time>2019-10-31T11:44:07.000Z</time>
      </trkpt>
      <trkpt lat="37.16719639487564563751220703125" lon="-4.0900004468858242034912109375">
        <ele>478.399993896484375</ele>
        <time>2019-10-31T11:44:12.000Z</time>
      </trkpt>
      <trkpt lat="37.1670543216168880462646484375" lon="-4.09018308855593204498291015625">
        <ele>478.600006103515625</ele>
        <time>2019-10-31T11:44:16.000Z</time>
      </trkpt>
      <trkpt lat="37.16687570326030254364013671875" lon="-4.0903863497078418731689453125">
        <ele>479.20001220703125</ele>
        <time>2019-10-31T11:44:20.000Z</time>
      </trkpt>
      <trkpt lat="37.1667428500950336456298828125" lon="-4.0905444324016571044921875">
        <ele>479.399993896484375</ele>
        <time>2019-10-31T11:44:23.000Z</time>
      </trkpt>
      <trkpt lat="37.16660044156014919281005859375" lon="-4.09077652730047702789306640625">
        <ele>479.600006103515625</ele>
        <time>2019-10-31T11:44:27.000Z</time>
      </trkpt>
      <trkpt lat="37.166576050221920013427734375" lon="-4.0908300876617431640625">
        <ele>479.600006103515625</ele>
        <time>2019-10-31T11:44:28.000Z</time>
      </trkpt>
      <trkpt lat="37.166488878428936004638671875" lon="-4.09105916507542133331298828125">
        <ele>479.600006103515625</ele>
        <time>2019-10-31T11:44:32.000Z</time>
      </trkpt>
      <trkpt lat="37.16641402803361415863037109375" lon="-4.09131933934986591339111328125">
        <ele>479.79998779296875</ele>
        <time>2019-10-31T11:44:36.000Z</time>
      </trkpt>
      <trkpt lat="37.16633875854313373565673828125" lon="-4.091578423976898193359375">
        <ele>481.600006103515625</ele>
        <time>2019-10-31T11:44:40.000Z</time>
      </trkpt>
      <trkpt lat="37.16632761061191558837890625" lon="-4.09164204262197017669677734375">
        <ele>481.600006103515625</ele>
        <time>2019-10-31T11:44:41.000Z</time>
      </trkpt>
      <trkpt lat="37.166311182081699371337890625" lon="-4.0918935835361480712890625">
        <ele>481.79998779296875</ele>
        <time>2019-10-31T11:44:45.000Z</time>
      </trkpt>
      <trkpt lat="37.1663063205778598785400390625" lon="-4.09195602871477603912353515625">
        <ele>481.79998779296875</ele>
        <time>2019-10-31T11:44:46.000Z</time>
      </trkpt>
      <trkpt lat="37.1662878803908824920654296875" lon="-4.09213053993880748748779296875">
        <ele>482.20001220703125</ele>
        <time>2019-10-31T11:44:49.000Z</time>
      </trkpt>
      <trkpt lat="37.1662667579948902130126953125" lon="-4.09239691682159900665283203125">
        <ele>482.399993896484375</ele>
        <time>2019-10-31T11:44:53.000Z</time>
      </trkpt>
      <trkpt lat="37.166249491274356842041015625" lon="-4.0926363877952098846435546875">
        <ele>481.600006103515625</ele>
        <time>2019-10-31T11:44:57.000Z</time>
      </trkpt>
      <trkpt lat="37.1662429533898830413818359375" lon="-4.09287066198885440826416015625">
        <ele>479.600006103515625</ele>
        <time>2019-10-31T11:45:01.000Z</time>
      </trkpt>
      <trkpt lat="37.16623432002961635589599609375" lon="-4.09311558119952678680419921875">
        <ele>478.600006103515625</ele>
        <time>2019-10-31T11:45:05.000Z</time>
      </trkpt>
      <trkpt lat="37.1662245132029056549072265625" lon="-4.09336620010435581207275390625">
        <ele>478.79998779296875</ele>
        <time>2019-10-31T11:45:09.000Z</time>
      </trkpt>
      <trkpt lat="37.16621051542460918426513671875" lon="-4.09361782483756542205810546875">
        <ele>479</ele>
        <time>2019-10-31T11:45:13.000Z</time>
      </trkpt>
      <trkpt lat="37.1662048995494842529296875" lon="-4.09388202242553234100341796875">
        <ele>479.399993896484375</ele>
        <time>2019-10-31T11:45:17.000Z</time>
      </trkpt>
      <trkpt lat="37.16619827784597873687744140625" lon="-4.09415108151733875274658203125">
        <ele>479.399993896484375</ele>
        <time>2019-10-31T11:45:21.000Z</time>
      </trkpt>
      <trkpt lat="37.16618637554347515106201171875" lon="-4.094409830868244171142578125">
        <ele>479.399993896484375</ele>
        <time>2019-10-31T11:45:25.000Z</time>
      </trkpt>
      <trkpt lat="37.1661755628883838653564453125" lon="-4.094684422016143798828125">
        <ele>479.399993896484375</ele>
        <time>2019-10-31T11:45:29.000Z</time>
      </trkpt>
      <trkpt lat="37.1661673486232757568359375" lon="-4.09492649137973785400390625">
        <ele>479.600006103515625</ele>
        <time>2019-10-31T11:45:33.000Z</time>
      </trkpt>
      <trkpt lat="37.16616508550941944122314453125" lon="-4.0949769504368305206298828125">
        <ele>479.79998779296875</ele>
        <time>2019-10-31T11:45:34.000Z</time>
      </trkpt>
      <trkpt lat="37.1661524288356304168701171875" lon="-4.09524944610893726348876953125">
        <ele>480.600006103515625</ele>
        <time>2019-10-31T11:45:39.000Z</time>
      </trkpt>
      <trkpt lat="37.16615083627402782440185546875" lon="-4.09549889154732227325439453125">
        <ele>480.600006103515625</ele>
        <time>2019-10-31T11:45:43.000Z</time>
      </trkpt>
      <trkpt lat="37.16613826341927051544189453125" lon="-4.09574724733829498291015625">
        <ele>480</ele>
        <time>2019-10-31T11:45:47.000Z</time>
      </trkpt>
      <trkpt lat="37.16612049378454685211181640625" lon="-4.09587456844747066497802734375">
        <ele>479.79998779296875</ele>
        <time>2019-10-31T11:45:49.000Z</time>
      </trkpt>
      <trkpt lat="37.16608931310474872589111328125" lon="-4.09613348543643951416015625">
        <ele>478.79998779296875</ele>
        <time>2019-10-31T11:45:53.000Z</time>
      </trkpt>
      <trkpt lat="37.1660525165498256683349609375" lon="-4.09639458172023296356201171875">
        <ele>478.20001220703125</ele>
        <time>2019-10-31T11:45:57.000Z</time>
      </trkpt>
      <trkpt lat="37.166006080806255340576171875" lon="-4.09666414372622966766357421875">
        <ele>478.20001220703125</ele>
        <time>2019-10-31T11:46:01.000Z</time>
      </trkpt>
      <trkpt lat="37.1659730561077594757080078125" lon="-4.09695398993790149688720703125">
        <ele>477.79998779296875</ele>
        <time>2019-10-31T11:46:05.000Z</time>
      </trkpt>
      <trkpt lat="37.16592720709741115570068359375" lon="-4.09719471819698810577392578125">
        <ele>476.79998779296875</ele>
        <time>2019-10-31T11:46:09.000Z</time>
      </trkpt>
      <trkpt lat="37.165878675878047943115234375" lon="-4.09747534431517124176025390625">
        <ele>476.20001220703125</ele>
        <time>2019-10-31T11:46:13.000Z</time>
      </trkpt>
      <trkpt lat="37.165838442742824554443359375" lon="-4.09774691797792911529541015625">
        <ele>475</ele>
        <time>2019-10-31T11:46:16.000Z</time>
      </trkpt>
      <trkpt lat="37.1657631732523441314697265625" lon="-4.09805201925337314605712890625">
        <ele>474.79998779296875</ele>
        <time>2019-10-31T11:46:19.000Z</time>
      </trkpt>
      <trkpt lat="37.16568052768707275390625" lon="-4.09832811914384365081787109375">
        <ele>474.79998779296875</ele>
        <time>2019-10-31T11:46:22.000Z</time>
      </trkpt>
      <trkpt lat="37.165602408349514007568359375" lon="-4.0985744632780551910400390625">
        <ele>474.399993896484375</ele>
        <time>2019-10-31T11:46:25.000Z</time>
      </trkpt>
      <trkpt lat="37.16550710611045360565185546875" lon="-4.0988302789628505706787109375">
        <ele>475.399993896484375</ele>
        <time>2019-10-31T11:46:29.000Z</time>
      </trkpt>
      <trkpt lat="37.16541674919426441192626953125" lon="-4.099076204001903533935546875">
        <ele>475.20001220703125</ele>
        <time>2019-10-31T11:46:33.000Z</time>
      </trkpt>
      <trkpt lat="37.1653534658253192901611328125" lon="-4.099281728267669677734375">
        <ele>475</ele>
        <time>2019-10-31T11:46:36.000Z</time>
      </trkpt>
      <trkpt lat="37.1652719937264919281005859375" lon="-4.09949831664562225341796875">
        <ele>474.79998779296875</ele>
        <time>2019-10-31T11:46:39.000Z</time>
      </trkpt>
      <trkpt lat="37.16518658213317394256591796875" lon="-4.099703170359134674072265625">
        <ele>474.399993896484375</ele>
        <time>2019-10-31T11:46:42.000Z</time>
      </trkpt>
      <trkpt lat="37.16507845558226108551025390625" lon="-4.0999537892639636993408203125">
        <ele>473.600006103515625</ele>
        <time>2019-10-31T11:46:46.000Z</time>
      </trkpt>
      <trkpt lat="37.1649789623916149139404296875" lon="-4.10020650364458560943603515625">
        <ele>473.79998779296875</ele>
        <time>2019-10-31T11:46:50.000Z</time>
      </trkpt>
      <trkpt lat="37.1648720093071460723876953125" lon="-4.1004597209393978118896484375">
        <ele>474.399993896484375</ele>
        <time>2019-10-31T11:46:54.000Z</time>
      </trkpt>
      <trkpt lat="37.16482951305806636810302734375" lon="-4.10059073008596897125244140625">
        <ele>474.600006103515625</ele>
        <time>2019-10-31T11:46:56.000Z</time>
      </trkpt>
      <trkpt lat="37.16480419971048831939697265625" lon="-4.10071947611868381500244140625">
        <ele>474.79998779296875</ele>
        <time>2019-10-31T11:46:58.000Z</time>
      </trkpt>
      <trkpt lat="37.16476363129913806915283203125" lon="-4.1008959151804447174072265625">
        <ele>475</ele>
        <time>2019-10-31T11:47:01.000Z</time>
      </trkpt>
      <trkpt lat="37.16467780061066150665283203125" lon="-4.1010796464979648590087890625">
        <ele>475.600006103515625</ele>
        <time>2019-10-31T11:47:05.000Z</time>
      </trkpt>
      <trkpt lat="37.16454000212252140045166015625" lon="-4.1013027727603912353515625">
        <ele>476.79998779296875</ele>
        <time>2019-10-31T11:47:10.000Z</time>
      </trkpt>
      <trkpt lat="37.16442533768713474273681640625" lon="-4.10147870890796184539794921875">
        <ele>477.399993896484375</ele>
        <time>2019-10-31T11:47:14.000Z</time>
      </trkpt>
      <trkpt lat="37.16429424472153186798095703125" lon="-4.101705439388751983642578125">
        <ele>477.79998779296875</ele>
        <time>2019-10-31T11:47:19.000Z</time>
      </trkpt>
      <trkpt lat="37.16426557861268520355224609375" lon="-4.10174961201846599578857421875">
        <ele>478</ele>
        <time>2019-10-31T11:47:20.000Z</time>
      </trkpt>
      <trkpt lat="37.16413582675158977508544921875" lon="-4.101960919797420501708984375">
        <ele>477.600006103515625</ele>
        <time>2019-10-31T11:47:25.000Z</time>
      </trkpt>
      <trkpt lat="37.16400741599500179290771484375" lon="-4.102189242839813232421875">
        <ele>477.399993896484375</ele>
        <time>2019-10-31T11:47:30.000Z</time>
      </trkpt>
      <trkpt lat="37.16390146873891353607177734375" lon="-4.102341793477535247802734375">
        <ele>478</ele>
        <time>2019-10-31T11:47:34.000Z</time>
      </trkpt>
      <trkpt lat="37.16377154923975467681884765625" lon="-4.10254891030490398406982421875">
        <ele>478.600006103515625</ele>
        <time>2019-10-31T11:47:39.000Z</time>
      </trkpt>
      <trkpt lat="37.163647748529911041259765625" lon="-4.10277589224278926849365234375">
        <ele>478.600006103515625</ele>
        <time>2019-10-31T11:47:44.000Z</time>
      </trkpt>
      <trkpt lat="37.16352646239101886749267578125" lon="-4.10300438292324542999267578125">
        <ele>478.79998779296875</ele>
        <time>2019-10-31T11:47:49.000Z</time>
      </trkpt>
      <trkpt lat="37.16340810991823673248291015625" lon="-4.10324276424944400787353515625">
        <ele>478.399993896484375</ele>
        <time>2019-10-31T11:47:54.000Z</time>
      </trkpt>
      <trkpt lat="37.1633324213325977325439453125" lon="-4.10338106565177440643310546875">
        <ele>478</ele>
        <time>2019-10-31T11:47:57.000Z</time>
      </trkpt>
      <trkpt lat="37.163221947848796844482421875" lon="-4.10361860878765583038330078125">
        <ele>477.79998779296875</ele>
        <time>2019-10-31T11:48:02.000Z</time>
      </trkpt>
      <trkpt lat="37.16313418932259082794189453125" lon="-4.10381642170250415802001953125">
        <ele>477.79998779296875</ele>
        <time>2019-10-31T11:48:06.000Z</time>
      </trkpt>
      <trkpt lat="37.163042910397052764892578125" lon="-4.10403468646109104156494140625">
        <ele>477.79998779296875</ele>
        <time>2019-10-31T11:48:10.000Z</time>
      </trkpt>
      <trkpt lat="37.16294274665415287017822265625" lon="-4.1042962856590747833251953125">
        <ele>477.20001220703125</ele>
        <time>2019-10-31T11:48:14.000Z</time>
      </trkpt>
      <trkpt lat="37.16289362870156764984130859375" lon="-4.10441421903669834136962890625">
        <ele>477.399993896484375</ele>
        <time>2019-10-31T11:48:16.000Z</time>
      </trkpt>
      <trkpt lat="37.1628046967089176177978515625" lon="-4.10462862811982631683349609375">
        <ele>478</ele>
        <time>2019-10-31T11:48:20.000Z</time>
      </trkpt>
      <trkpt lat="37.16271241195499897003173828125" lon="-4.10487958230078220367431640625">
        <ele>477.79998779296875</ele>
        <time>2019-10-31T11:48:25.000Z</time>
      </trkpt>
      <trkpt lat="37.16263546608388423919677734375" lon="-4.105111174285411834716796875">
        <ele>477.79998779296875</ele>
        <time>2019-10-31T11:48:29.000Z</time>
      </trkpt>
      <trkpt lat="37.16256539337337017059326171875" lon="-4.10538232885301113128662109375">
        <ele>478.20001220703125</ele>
        <time>2019-10-31T11:48:33.000Z</time>
      </trkpt>
      <trkpt lat="37.1625069715082645416259765625" lon="-4.10563948564231395721435546875">
        <ele>478.20001220703125</ele>
        <time>2019-10-31T11:48:37.000Z</time>
      </trkpt>
      <trkpt lat="37.16246279887855052947998046875" lon="-4.10587032325565814971923828125">
        <ele>478.600006103515625</ele>
        <time>2019-10-31T11:48:41.000Z</time>
      </trkpt>
      <trkpt lat="37.16245458461344242095947265625" lon="-4.10592514090240001678466796875">
        <ele>478.600006103515625</ele>
        <time>2019-10-31T11:48:42.000Z</time>
      </trkpt>
      <trkpt lat="37.16245642863214015960693359375" lon="-4.10618615336716175079345703125">
        <ele>478.600006103515625</ele>
        <time>2019-10-31T11:48:46.000Z</time>
      </trkpt>
      <trkpt lat="37.16246413998305797576904296875" lon="-4.10634976811707019805908203125">
        <ele>478.399993896484375</ele>
        <time>2019-10-31T11:48:48.000Z</time>
      </trkpt>
      <trkpt lat="37.16241032816469669342041015625" lon="-4.10659083165228366851806640625">
        <ele>477.79998779296875</ele>
        <time>2019-10-31T11:48:51.000Z</time>
      </trkpt>
      <trkpt lat="37.16238786466419696807861328125" lon="-4.10666090436279773712158203125">
        <ele>477.79998779296875</ele>
        <time>2019-10-31T11:48:52.000Z</time>
      </trkpt>
      <trkpt lat="37.162330448627471923828125" lon="-4.10692845471203327178955078125">
        <ele>477</ele>
        <time>2019-10-31T11:48:56.000Z</time>
      </trkpt>
      <trkpt lat="37.1623071469366550445556640625" lon="-4.10719667561352252960205078125">
        <ele>476</ele>
        <time>2019-10-31T11:49:00.000Z</time>
      </trkpt>
      <trkpt lat="37.16229113750159740447998046875" lon="-4.1074700094759464263916015625">
        <ele>475.600006103515625</ele>
        <time>2019-10-31T11:49:04.000Z</time>
      </trkpt>
      <trkpt lat="37.1622692607343196868896484375" lon="-4.10774334333837032318115234375">
        <ele>476.79998779296875</ele>
        <time>2019-10-31T11:49:08.000Z</time>
      </trkpt>
      <trkpt lat="37.1622548438608646392822265625" lon="-4.10801055841147899627685546875">
        <ele>478.399993896484375</ele>
        <time>2019-10-31T11:49:12.000Z</time>
      </trkpt>
      <trkpt lat="37.162236236035823822021484375" lon="-4.108262099325656890869140625">
        <ele>480.20001220703125</ele>
        <time>2019-10-31T11:49:16.000Z</time>
      </trkpt>
      <trkpt lat="37.16223145835101604461669921875" lon="-4.10849587060511112213134765625">
        <ele>481.79998779296875</ele>
        <time>2019-10-31T11:49:20.000Z</time>
      </trkpt>
      <trkpt lat="37.1622307039797306060791015625" lon="-4.10854817368090152740478515625">
        <ele>481.79998779296875</ele>
        <time>2019-10-31T11:49:21.000Z</time>
      </trkpt>
      <trkpt lat="37.1622179634869098663330078125" lon="-4.10877482034265995025634765625">
        <ele>481.399993896484375</ele>
        <time>2019-10-31T11:49:26.000Z</time>
      </trkpt>
      <trkpt lat="37.162210755050182342529296875" lon="-4.10884254612028598785400390625">
        <ele>481.20001220703125</ele>
        <time>2019-10-31T11:49:28.000Z</time>
      </trkpt>
      <trkpt lat="37.1622032113373279571533203125" lon="-4.108931981027126312255859375">
        <ele>481</ele>
        <time>2019-10-31T11:49:31.000Z</time>
      </trkpt>
      <trkpt lat="37.16220312751829624176025390625" lon="-4.10910221748054027557373046875">
        <ele>480</ele>
        <time>2019-10-31T11:49:37.000Z</time>
      </trkpt>
      <trkpt lat="37.16220547445118427276611328125" lon="-4.10913281142711639404296875">
        <ele>479.79998779296875</ele>
        <time>2019-10-31T11:49:38.000Z</time>
      </trkpt>
      <trkpt lat="37.162206731736660003662109375" lon="-4.1092769801616668701171875">
        <ele>479.20001220703125</ele>
        <time>2019-10-31T11:49:42.000Z</time>
      </trkpt>
      <trkpt lat="37.1622102521359920501708984375" lon="-4.10943548195064067840576171875">
        <ele>478.399993896484375</ele>
        <time>2019-10-31T11:49:46.000Z</time>
      </trkpt>
      <trkpt lat="37.162209413945674896240234375" lon="-4.10966455936431884765625">
        <ele>477.600006103515625</ele>
        <time>2019-10-31T11:49:51.000Z</time>
      </trkpt>
      <trkpt lat="37.16220371425151824951171875" lon="-4.10991878248751163482666015625">
        <ele>477.20001220703125</ele>
        <time>2019-10-31T11:49:56.000Z</time>
      </trkpt>
      <trkpt lat="37.16220815666019916534423828125" lon="-4.11018666811287403106689453125">
        <ele>477</ele>
        <time>2019-10-31T11:50:01.000Z</time>
      </trkpt>
      <trkpt lat="37.162220142781734466552734375" lon="-4.11043636500835418701171875">
        <ele>477.600006103515625</ele>
        <time>2019-10-31T11:50:06.000Z</time>
      </trkpt>
      <trkpt lat="37.162218801677227020263671875" lon="-4.11068974994122982025146484375">
        <ele>477.600006103515625</ele>
        <time>2019-10-31T11:50:11.000Z</time>
      </trkpt>
      <trkpt lat="37.1622048877179622650146484375" lon="-4.11092326976358890533447265625">
        <ele>477.79998779296875</ele>
        <time>2019-10-31T11:50:15.000Z</time>
      </trkpt>
      <trkpt lat="37.162214778363704681396484375" lon="-4.1111952625215053558349609375">
        <ele>477.79998779296875</ele>
        <time>2019-10-31T11:50:19.000Z</time>
      </trkpt>
      <trkpt lat="37.1622189693152904510498046875" lon="-4.11145065911114215850830078125">
        <ele>477</ele>
        <time>2019-10-31T11:50:22.000Z</time>
      </trkpt>
      <trkpt lat="37.1622528322041034698486328125" lon="-4.1117370687425136566162109375">
        <ele>476</ele>
        <time>2019-10-31T11:50:25.000Z</time>
      </trkpt>
      <trkpt lat="37.1623182110488414764404296875" lon="-4.112016521394252777099609375">
        <ele>474</ele>
        <time>2019-10-31T11:50:28.000Z</time>
      </trkpt>
      <trkpt lat="37.16239792294800281524658203125" lon="-4.11230175755918025970458984375">
        <ele>472.79998779296875</ele>
        <time>2019-10-31T11:50:31.000Z</time>
      </trkpt>
      <trkpt lat="37.162461541593074798583984375" lon="-4.11260182969272136688232421875">
        <ele>474.20001220703125</ele>
        <time>2019-10-31T11:50:34.000Z</time>
      </trkpt>
      <trkpt lat="37.16253337450325489044189453125" lon="-4.11287315189838409423828125">
        <ele>476</ele>
        <time>2019-10-31T11:50:37.000Z</time>
      </trkpt>
      <trkpt lat="37.16261769644916057586669921875" lon="-4.11312754265964031219482421875">
        <ele>476.79998779296875</ele>
        <time>2019-10-31T11:50:41.000Z</time>
      </trkpt>
      <trkpt lat="37.16269053518772125244140625" lon="-4.113357961177825927734375">
        <ele>477.79998779296875</ele>
        <time>2019-10-31T11:50:46.000Z</time>
      </trkpt>
      <trkpt lat="37.1627554111182689666748046875" lon="-4.113529287278652191162109375">
        <ele>478.600006103515625</ele>
        <time>2019-10-31T11:50:50.000Z</time>
      </trkpt>
      <trkpt lat="37.16289329342544078826904296875" lon="-4.11369047127664089202880859375">
        <ele>478.79998779296875</ele>
        <time>2019-10-31T11:50:54.000Z</time>
      </trkpt>
      <trkpt lat="37.16304861009120941162109375" lon="-4.11385894753038883209228515625">
        <ele>479</ele>
        <time>2019-10-31T11:50:58.000Z</time>
      </trkpt>
      <trkpt lat="37.16320845298469066619873046875" lon="-4.11403320729732513427734375">
        <ele>479.79998779296875</ele>
        <time>2019-10-31T11:51:02.000Z</time>
      </trkpt>
      <trkpt lat="37.1633639372885227203369140625" lon="-4.1142110712826251983642578125">
        <ele>481.20001220703125</ele>
        <time>2019-10-31T11:51:06.000Z</time>
      </trkpt>
      <trkpt lat="37.16351439245045185089111328125" lon="-4.114396311342716217041015625">
        <ele>481.20001220703125</ele>
        <time>2019-10-31T11:51:10.000Z</time>
      </trkpt>
      <trkpt lat="37.16365076601505279541015625" lon="-4.1145889274775981903076171875">
        <ele>480.79998779296875</ele>
        <time>2019-10-31T11:51:14.000Z</time>
      </trkpt>
      <trkpt lat="37.16376652009785175323486328125" lon="-4.11480224691331386566162109375">
        <ele>480.79998779296875</ele>
        <time>2019-10-31T11:51:18.000Z</time>
      </trkpt>
      <trkpt lat="37.16386727057397365570068359375" lon="-4.1150449030101299285888671875">
        <ele>482.600006103515625</ele>
        <time>2019-10-31T11:51:22.000Z</time>
      </trkpt>
      <trkpt lat="37.163949497044086456298828125" lon="-4.11529711447656154632568359375">
        <ele>484.600006103515625</ele>
        <time>2019-10-31T11:51:26.000Z</time>
      </trkpt>
      <trkpt lat="37.16400942765176296234130859375" lon="-4.11557547748088836669921875">
        <ele>486.600006103515625</ele>
        <time>2019-10-31T11:51:30.000Z</time>
      </trkpt>
      <trkpt lat="37.1640626527369022369384765625" lon="-4.1158649884164333343505859375">
        <ele>486.600006103515625</ele>
        <time>2019-10-31T11:51:34.000Z</time>
      </trkpt>
      <trkpt lat="37.164079248905181884765625" lon="-4.1161563433706760406494140625">
        <ele>486</ele>
        <time>2019-10-31T11:51:38.000Z</time>
      </trkpt>
      <trkpt lat="37.164058797061443328857421875" lon="-4.11643956787884235382080078125">
        <ele>486</ele>
        <time>2019-10-31T11:51:42.000Z</time>
      </trkpt>
      <trkpt lat="37.16401965357363224029541015625" lon="-4.11672404967248439788818359375">
        <ele>485.20001220703125</ele>
        <time>2019-10-31T11:51:46.000Z</time>
      </trkpt>
      <trkpt lat="37.16397422365844249725341796875" lon="-4.1170076094567775726318359375">
        <ele>484</ele>
        <time>2019-10-31T11:51:50.000Z</time>
      </trkpt>
      <trkpt lat="37.16394312679767608642578125" lon="-4.1172914206981658935546875">
        <ele>482.600006103515625</ele>
        <time>2019-10-31T11:51:54.000Z</time>
      </trkpt>
      <trkpt lat="37.16390423476696014404296875" lon="-4.1175735555589199066162109375">
        <ele>481</ele>
        <time>2019-10-31T11:51:58.000Z</time>
      </trkpt>
      <trkpt lat="37.1638681925833225250244140625" lon="-4.11785929463803768157958984375">
        <ele>480</ele>
        <time>2019-10-31T11:52:02.000Z</time>
      </trkpt>
      <trkpt lat="37.163829803466796875" lon="-4.11814830265939235687255859375">
        <ele>479</ele>
        <time>2019-10-31T11:52:06.000Z</time>
      </trkpt>
      <trkpt lat="37.16379183344542980194091796875" lon="-4.1184429265558719635009765625">
        <ele>477.399993896484375</ele>
        <time>2019-10-31T11:52:10.000Z</time>
      </trkpt>
      <trkpt lat="37.16374254785478115081787109375" lon="-4.11872900091111660003662109375">
        <ele>476.20001220703125</ele>
        <time>2019-10-31T11:52:14.000Z</time>
      </trkpt>
      <trkpt lat="37.16371103189885616302490234375" lon="-4.11900526843965053558349609375">
        <ele>475.20001220703125</ele>
        <time>2019-10-31T11:52:18.000Z</time>
      </trkpt>
      <trkpt lat="37.16368538327515125274658203125" lon="-4.1192841343581676483154296875">
        <ele>475.20001220703125</ele>
        <time>2019-10-31T11:52:22.000Z</time>
      </trkpt>
      <trkpt lat="37.16366107575595378875732421875" lon="-4.1195496730506420135498046875">
        <ele>475.79998779296875</ele>
        <time>2019-10-31T11:52:26.000Z</time>
      </trkpt>
      <trkpt lat="37.1636459045112133026123046875" lon="-4.11980800330638885498046875">
        <ele>476</ele>
        <time>2019-10-31T11:52:30.000Z</time>
      </trkpt>
      <trkpt lat="37.1636408753693103790283203125" lon="-4.12006423808634281158447265625">
        <ele>476.79998779296875</ele>
        <time>2019-10-31T11:52:34.000Z</time>
      </trkpt>
      <trkpt lat="37.1636341698467731475830078125" lon="-4.12029976956546306610107421875">
        <ele>477.600006103515625</ele>
        <time>2019-10-31T11:52:38.000Z</time>
      </trkpt>
      <trkpt lat="37.1636311523616313934326171875" lon="-4.12056011147797107696533203125">
        <ele>478.20001220703125</ele>
        <time>2019-10-31T11:52:43.000Z</time>
      </trkpt>
      <trkpt lat="37.1636234410107135772705078125" lon="-4.12079631350934505462646484375">
        <ele>479.600006103515625</ele>
        <time>2019-10-31T11:52:48.000Z</time>
      </trkpt>
      <trkpt lat="37.16362486593425273895263671875" lon="-4.1208438389003276824951171875">
        <ele>480</ele>
        <time>2019-10-31T11:52:49.000Z</time>
      </trkpt>
      <trkpt lat="37.163633666932582855224609375" lon="-4.12102363072335720062255859375">
        <ele>482</ele>
        <time>2019-10-31T11:52:53.000Z</time>
      </trkpt>
      <trkpt lat="37.1636371873319149017333984375" lon="-4.12121641449630260467529296875">
        <ele>484.20001220703125</ele>
        <time>2019-10-31T11:52:58.000Z</time>
      </trkpt>
      <trkpt lat="37.16363442130386829376220703125" lon="-4.121367372572422027587890625">
        <ele>486</ele>
        <time>2019-10-31T11:53:02.000Z</time>
      </trkpt>
      <trkpt lat="37.1636499278247356414794921875" lon="-4.12160416133701801300048828125">
        <ele>488.600006103515625</ele>
        <time>2019-10-31T11:53:08.000Z</time>
      </trkpt>
      <trkpt lat="37.16367649845778942108154296875" lon="-4.1218466497957706451416015625">
        <ele>491.399993896484375</ele>
        <time>2019-10-31T11:53:14.000Z</time>
      </trkpt>
      <trkpt lat="37.1637153066694736480712890625" lon="-4.122078828513622283935546875">
        <ele>494.20001220703125</ele>
        <time>2019-10-31T11:53:20.000Z</time>
      </trkpt>
      <trkpt lat="37.1637464873492717742919921875" lon="-4.1222328878939151763916015625">
        <ele>495.600006103515625</ele>
        <time>2019-10-31T11:53:24.000Z</time>
      </trkpt>
      <trkpt lat="37.163797952234745025634765625" lon="-4.122463054955005645751953125">
        <ele>497.20001220703125</ele>
        <time>2019-10-31T11:53:30.000Z</time>
      </trkpt>
      <trkpt lat="37.163848578929901123046875" lon="-4.12268693558871746063232421875">
        <ele>498.20001220703125</ele>
        <time>2019-10-31T11:53:36.000Z</time>
      </trkpt>
      <trkpt lat="37.1638789214193820953369140625" lon="-4.12294258363544940948486328125">
        <ele>498.399993896484375</ele>
        <time>2019-10-31T11:53:43.000Z</time>
      </trkpt>
      <trkpt lat="37.16391437686979770660400390625" lon="-4.12319135852158069610595703125">
        <ele>499</ele>
        <time>2019-10-31T11:53:50.000Z</time>
      </trkpt>
      <trkpt lat="37.1639466471970081329345703125" lon="-4.1234227828681468963623046875">
        <ele>499</ele>
        <time>2019-10-31T11:53:56.000Z</time>
      </trkpt>
      <trkpt lat="37.16398537158966064453125" lon="-4.12366636097431182861328125">
        <ele>499.600006103515625</ele>
        <time>2019-10-31T11:54:03.000Z</time>
      </trkpt>
      <trkpt lat="37.1640321426093578338623046875" lon="-4.123897366225719451904296875">
        <ele>500.600006103515625</ele>
        <time>2019-10-31T11:54:09.000Z</time>
      </trkpt>
      <trkpt lat="37.16407128609716892242431640625" lon="-4.12414287216961383819580078125">
        <ele>501</ele>
        <time>2019-10-31T11:54:15.000Z</time>
      </trkpt>
      <trkpt lat="37.1641176380217075347900390625" lon="-4.124382846057415008544921875">
        <ele>500.79998779296875</ele>
        <time>2019-10-31T11:54:21.000Z</time>
      </trkpt>
      <trkpt lat="37.1641629002988338470458984375" lon="-4.12460940890014171600341796875">
        <ele>500.600006103515625</ele>
        <time>2019-10-31T11:54:26.000Z</time>
      </trkpt>
      <trkpt lat="37.16421763412654399871826171875" lon="-4.1248651407659053802490234375">
        <ele>500.399993896484375</ele>
        <time>2019-10-31T11:54:32.000Z</time>
      </trkpt>
      <trkpt lat="37.16426876373589038848876953125" lon="-4.12509170360863208770751953125">
        <ele>500.600006103515625</ele>
        <time>2019-10-31T11:54:37.000Z</time>
      </trkpt>
      <trkpt lat="37.16426641680300235748291015625" lon="-4.1253460943698883056640625">
        <ele>501.600006103515625</ele>
        <time>2019-10-31T11:54:43.000Z</time>
      </trkpt>
      <trkpt lat="37.16429072432219982147216796875" lon="-4.12559755146503448486328125">
        <ele>501.79998779296875</ele>
        <time>2019-10-31T11:54:51.000Z</time>
      </trkpt>
      <trkpt lat="37.1642978489398956298828125" lon="-4.12561758421361446380615234375">
        <ele>501.79998779296875</ele>
        <time>2019-10-31T11:54:52.000Z</time>
      </trkpt>
      <trkpt lat="37.16433682478964328765869140625" lon="-4.1256196796894073486328125">
        <ele>501.20001220703125</ele>
        <time>2019-10-31T11:54:59.000Z</time>
      </trkpt>
      <trkpt lat="37.16431687586009502410888671875" lon="-4.12547492422163486480712890625">
        <ele>501.399993896484375</ele>
        <time>2019-10-31T11:57:02.000Z</time>
      </trkpt>
      <trkpt lat="37.164296172559261322021484375" lon="-4.1255554743111133575439453125">
        <ele>501.79998779296875</ele>
        <time>2019-10-31T11:57:27.000Z</time>
      </trkpt>
      <trkpt lat="37.16426767408847808837890625" lon="-4.12567491643130779266357421875">
        <ele>502.20001220703125</ele>
        <time>2019-10-31T11:57:40.000Z</time>
      </trkpt>
      <trkpt lat="37.16425769962370395660400390625" lon="-4.1259286366403102874755859375">
        <ele>502</ele>
        <time>2019-10-31T11:57:48.000Z</time>
      </trkpt>
      <trkpt lat="37.1642306260764598846435546875" lon="-4.12618369795382022857666015625">
        <ele>502</ele>
        <time>2019-10-31T11:57:55.000Z</time>
      </trkpt>
      <trkpt lat="37.1642309613525867462158203125" lon="-4.12642207928001880645751953125">
        <ele>502.399993896484375</ele>
        <time>2019-10-31T11:58:01.000Z</time>
      </trkpt>
      <trkpt lat="37.1642209030687808990478515625" lon="-4.12665844894945621490478515625">
        <ele>502.399993896484375</ele>
        <time>2019-10-31T11:58:06.000Z</time>
      </trkpt>
      <trkpt lat="37.1642366610467433929443359375" lon="-4.12690353579819202423095703125">
        <ele>503</ele>
        <time>2019-10-31T11:58:12.000Z</time>
      </trkpt>
      <trkpt lat="37.16428787447512149810791015625" lon="-4.1271297633647918701171875">
        <ele>503</ele>
        <time>2019-10-31T11:58:17.000Z</time>
      </trkpt>
      <trkpt lat="37.164270021021366119384765625" lon="-4.12738080136477947235107421875">
        <ele>504</ele>
        <time>2019-10-31T11:58:22.000Z</time>
      </trkpt>
      <trkpt lat="37.1642594598233699798583984375" lon="-4.12764399312436580657958984375">
        <ele>504.399993896484375</ele>
        <time>2019-10-31T11:58:27.000Z</time>
      </trkpt>
      <trkpt lat="37.16424730606377124786376953125" lon="-4.12788002751767635345458984375">
        <ele>504.79998779296875</ele>
        <time>2019-10-31T11:58:32.000Z</time>
      </trkpt>
      <trkpt lat="37.16422014869749546051025390625" lon="-4.12814238108694553375244140625">
        <ele>504.79998779296875</ele>
        <time>2019-10-31T11:58:38.000Z</time>
      </trkpt>
      <trkpt lat="37.1642286144196987152099609375" lon="-4.12839802913367748260498046875">
        <ele>504.399993896484375</ele>
        <time>2019-10-31T11:58:44.000Z</time>
      </trkpt>
      <trkpt lat="37.16421646066009998321533203125" lon="-4.1286453790962696075439453125">
        <ele>505</ele>
        <time>2019-10-31T11:58:49.000Z</time>
      </trkpt>
      <trkpt lat="37.16418343596160411834716796875" lon="-4.12888283841311931610107421875">
        <ele>505.20001220703125</ele>
        <time>2019-10-31T11:58:54.000Z</time>
      </trkpt>
      <trkpt lat="37.16414756141602993011474609375" lon="-4.12910730578005313873291015625">
        <ele>505.399993896484375</ele>
        <time>2019-10-31T11:58:59.000Z</time>
      </trkpt>
      <trkpt lat="37.164146639406681060791015625" lon="-4.129357673227787017822265625">
        <ele>505.600006103515625</ele>
        <time>2019-10-31T11:59:06.000Z</time>
      </trkpt>
      <trkpt lat="37.16409995220601558685302734375" lon="-4.1295875050127506256103515625">
        <ele>506.600006103515625</ele>
        <time>2019-10-31T11:59:15.000Z</time>
      </trkpt>
      <trkpt lat="37.16405653394758701324462890625" lon="-4.12982412613928318023681640625">
        <ele>509.20001220703125</ele>
        <time>2019-10-31T11:59:26.000Z</time>
      </trkpt>
      <trkpt lat="37.1640358306467533111572265625" lon="-4.1299407184123992919921875">
        <ele>510.399993896484375</ele>
        <time>2019-10-31T11:59:33.000Z</time>
      </trkpt>
      <trkpt lat="37.164042703807353973388671875" lon="-4.12985446862876415252685546875">
        <ele>509.600006103515625</ele>
        <time>2019-10-31T11:59:38.000Z</time>
      </trkpt>
      <trkpt lat="37.1641266904771327972412109375" lon="-4.1296448372304439544677734375">
        <ele>506.79998779296875</ele>
        <time>2019-10-31T11:59:46.000Z</time>
      </trkpt>
      <trkpt lat="37.1641913987696170806884765625" lon="-4.12942900322377681732177734375">
        <ele>505.399993896484375</ele>
        <time>2019-10-31T11:59:53.000Z</time>
      </trkpt>
      <trkpt lat="37.1642172150313854217529296875" lon="-4.12936798296868801116943359375">
        <ele>505</ele>
        <time>2019-10-31T11:59:56.000Z</time>
      </trkpt>
      <trkpt lat="37.16424219310283660888671875" lon="-4.1293508000671863555908203125">
        <ele>504.79998779296875</ele>
        <time>2019-10-31T12:00:03.000Z</time>
      </trkpt>
      <trkpt lat="37.16380692087113857269287109375" lon="-4.13001707755029201507568359375">
        <ele>511.20001220703125</ele>
        <time>2019-10-31T13:13:59.000Z</time>
      </trkpt>
      <trkpt lat="37.16372796334326267242431640625" lon="-4.1301122121512889862060546875">
        <ele>511.600006103515625</ele>
        <time>2019-10-31T13:14:16.000Z</time>
      </trkpt>
      <trkpt lat="37.16376266442239284515380859375" lon="-4.13027859292924404144287109375">
        <ele>513.20001220703125</ele>
        <time>2019-10-31T13:14:25.000Z</time>
      </trkpt>
      <trkpt lat="37.163659818470478057861328125" lon="-4.1304763220250606536865234375">
        <ele>513.4000244140625</ele>
        <time>2019-10-31T13:14:36.000Z</time>
      </trkpt>
      <trkpt lat="37.16357122175395488739013671875" lon="-4.13067941553890705108642578125">
        <ele>512.4000244140625</ele>
        <time>2019-10-31T13:14:49.000Z</time>
      </trkpt>
      <trkpt lat="37.16356552205979824066162109375" lon="-4.13072618655860424041748046875">
        <ele>512.20001220703125</ele>
        <time>2019-10-31T13:14:53.000Z</time>
      </trkpt>
      <trkpt lat="37.163580022752285003662109375" lon="-4.1307710297405719757080078125">
        <ele>512.20001220703125</ele>
        <time>2019-10-31T13:14:57.000Z</time>
      </trkpt>
      <trkpt lat="37.16359904967248439788818359375" lon="-4.13081000559031963348388671875">
        <ele>512.20001220703125</ele>
        <time>2019-10-31T13:15:00.000Z</time>
      </trkpt>
      <trkpt lat="37.1636076830327510833740234375" lon="-4.13083448074758052825927734375">
        <ele>512.4000244140625</ele>
        <time>2019-10-31T13:15:03.000Z</time>
      </trkpt>
      <trkpt lat="37.16360843740403652191162109375" lon="-4.1308474726974964141845703125">
        <ele>512.4000244140625</ele>
        <time>2019-10-31T13:15:06.000Z</time>
      </trkpt>
      <trkpt lat="37.1636757440865039825439453125" lon="-4.13094964809715747833251953125">
        <ele>512.20001220703125</ele>
        <time>2019-10-31T13:15:26.000Z</time>
      </trkpt>
      <trkpt lat="37.1638031490147113800048828125" lon="-4.1311371512711048126220703125">
        <ele>512.5999755859375</ele>
        <time>2019-10-31T13:15:33.000Z</time>
      </trkpt>
      <trkpt lat="37.163769789040088653564453125" lon="-4.1313517279922962188720703125">
        <ele>513.20001220703125</ele>
        <time>2019-10-31T13:15:41.000Z</time>
      </trkpt>
      <trkpt lat="37.16364716179668903350830078125" lon="-4.1315418295562267303466796875">
        <ele>513.79998779296875</ele>
        <time>2019-10-31T13:15:48.000Z</time>
      </trkpt>
      <trkpt lat="37.16360441409051418304443359375" lon="-4.13176420144736766815185546875">
        <ele>514.4000244140625</ele>
        <time>2019-10-31T13:15:54.000Z</time>
      </trkpt>
      <trkpt lat="37.16356267221271991729736328125" lon="-4.1320048458874225616455078125">
        <ele>515.79998779296875</ele>
        <time>2019-10-31T13:16:00.000Z</time>
      </trkpt>
      <trkpt lat="37.163521349430084228515625" lon="-4.13225873373448848724365234375">
        <ele>517</ele>
        <time>2019-10-31T13:16:06.000Z</time>
      </trkpt>
      <trkpt lat="37.16348572634160518646240234375" lon="-4.132493846118450164794921875">
        <ele>518.4000244140625</ele>
        <time>2019-10-31T13:16:11.000Z</time>
      </trkpt>
      <trkpt lat="37.16346175409853458404541015625" lon="-4.1327528469264507293701171875">
        <ele>520</ele>
        <time>2019-10-31T13:16:16.000Z</time>
      </trkpt>
      <trkpt lat="37.1634477563202381134033203125" lon="-4.1330279409885406494140625">
        <ele>519.79998779296875</ele>
        <time>2019-10-31T13:16:21.000Z</time>
      </trkpt>
      <trkpt lat="37.16345228254795074462890625" lon="-4.1332557611167430877685546875">
        <ele>518.79998779296875</ele>
        <time>2019-10-31T13:16:25.000Z</time>
      </trkpt>
      <trkpt lat="37.1634608320891857147216796875" lon="-4.13349489681422710418701171875">
        <ele>516.4000244140625</ele>
        <time>2019-10-31T13:16:32.000Z</time>
      </trkpt>
      <trkpt lat="37.1634936891496181488037109375" lon="-4.13372523151338100433349609375">
        <ele>513.79998779296875</ele>
        <time>2019-10-31T13:16:42.000Z</time>
      </trkpt>
      <trkpt lat="37.1635446511209011077880859375" lon="-4.13396378047764301300048828125">
        <ele>512.4000244140625</ele>
        <time>2019-10-31T13:16:48.000Z</time>
      </trkpt>
      <trkpt lat="37.16359720565378665924072265625" lon="-4.13420744240283966064453125">
        <ele>511.20001220703125</ele>
        <time>2019-10-31T13:16:56.000Z</time>
      </trkpt>
      <trkpt lat="37.16364917345345020294189453125" lon="-4.1344359330832958221435546875">
        <ele>509.600006103515625</ele>
        <time>2019-10-31T13:17:05.000Z</time>
      </trkpt>
      <trkpt lat="37.16373533941805362701416015625" lon="-4.134663082659244537353515625">
        <ele>508.600006103515625</ele>
        <time>2019-10-31T13:17:13.000Z</time>
      </trkpt>
      <trkpt lat="37.16375445015728473663330078125" lon="-4.134719073772430419921875">
        <ele>508</ele>
        <time>2019-10-31T13:17:14.000Z</time>
      </trkpt>
      <trkpt lat="37.16379166580736637115478515625" lon="-4.13491554558277130126953125">
        <ele>506</ele>
        <time>2019-10-31T13:17:17.000Z</time>
      </trkpt>
      <trkpt lat="37.163866348564624786376953125" lon="-4.135129451751708984375">
        <ele>505.79998779296875</ele>
        <time>2019-10-31T13:17:20.000Z</time>
      </trkpt>
      <trkpt lat="37.1639409475028514862060546875" lon="-4.13536992855370044708251953125">
        <ele>504.79998779296875</ele>
        <time>2019-10-31T13:17:23.000Z</time>
      </trkpt>
      <trkpt lat="37.16402401216328144073486328125" lon="-4.135634042322635650634765625">
        <ele>502.79998779296875</ele>
        <time>2019-10-31T13:17:26.000Z</time>
      </trkpt>
      <trkpt lat="37.1641005389392375946044921875" lon="-4.1358856670558452606201171875">
        <ele>500</ele>
        <time>2019-10-31T13:17:29.000Z</time>
      </trkpt>
      <trkpt lat="37.1641253493726253509521484375" lon="-4.13596152327954769134521484375">
        <ele>499.20001220703125</ele>
        <time>2019-10-31T13:17:30.000Z</time>
      </trkpt>
      <trkpt lat="37.16419835574924945831298828125" lon="-4.136187247931957244873046875">
        <ele>495.600006103515625</ele>
        <time>2019-10-31T13:17:33.000Z</time>
      </trkpt>
      <trkpt lat="37.16426239348948001861572265625" lon="-4.136400483548641204833984375">
        <ele>495</ele>
        <time>2019-10-31T13:17:36.000Z</time>
      </trkpt>
      <trkpt lat="37.1643452905118465423583984375" lon="-4.13666593842208385467529296875">
        <ele>494</ele>
        <time>2019-10-31T13:17:41.000Z</time>
      </trkpt>
      <trkpt lat="37.16439642012119293212890625" lon="-4.13681429810822010040283203125">
        <ele>492.79998779296875</ele>
        <time>2019-10-31T13:17:44.000Z</time>
      </trkpt>
      <trkpt lat="37.16443371959030628204345703125" lon="-4.1369761526584625244140625">
        <ele>491.399993896484375</ele>
        <time>2019-10-31T13:17:47.000Z</time>
      </trkpt>
      <trkpt lat="37.16446079313755035400390625" lon="-4.13721419870853424072265625">
        <ele>491.399993896484375</ele>
        <time>2019-10-31T13:17:51.000Z</time>
      </trkpt>
      <trkpt lat="37.16446481645107269287109375" lon="-4.13726641796529293060302734375">
        <ele>491.399993896484375</ele>
        <time>2019-10-31T13:17:52.000Z</time>
      </trkpt>
      <trkpt lat="37.16449700295925140380859375" lon="-4.137428440153598785400390625">
        <ele>490.79998779296875</ele>
        <time>2019-10-31T13:17:55.000Z</time>
      </trkpt>
      <trkpt lat="37.16447093524038791656494140625" lon="-4.1376896202564239501953125">
        <ele>491.79998779296875</ele>
        <time>2019-10-31T13:18:00.000Z</time>
      </trkpt>
      <trkpt lat="37.16443053446710109710693359375" lon="-4.13790947757661342620849609375">
        <ele>491.79998779296875</ele>
        <time>2019-10-31T13:18:04.000Z</time>
      </trkpt>
      <trkpt lat="37.1644156984984874725341796875" lon="-4.13802011869847774505615234375">
        <ele>491.600006103515625</ele>
        <time>2019-10-31T13:18:06.000Z</time>
      </trkpt>
      <trkpt lat="37.16437571682035923004150390625" lon="-4.13816780783236026763916015625">
        <ele>491.79998779296875</ele>
        <time>2019-10-31T13:18:09.000Z</time>
      </trkpt>
      <trkpt lat="37.16433598659932613372802734375" lon="-4.1383596695959568023681640625">
        <ele>492.600006103515625</ele>
        <time>2019-10-31T13:18:13.000Z</time>
      </trkpt>
      <trkpt lat="37.164306230843067169189453125" lon="-4.13862579502165317535400390625">
        <ele>493.20001220703125</ele>
        <time>2019-10-31T13:18:18.000Z</time>
      </trkpt>
      <trkpt lat="37.16429960913956165313720703125" lon="-4.13873241282999515533447265625">
        <ele>493.20001220703125</ele>
        <time>2019-10-31T13:18:20.000Z</time>
      </trkpt>
      <trkpt lat="37.164288461208343505859375" lon="-4.1389236040413379669189453125">
        <ele>493</ele>
        <time>2019-10-31T13:18:24.000Z</time>
      </trkpt>
      <trkpt lat="37.1642911434173583984375" lon="-4.138988815248012542724609375">
        <ele>492.79998779296875</ele>
        <time>2019-10-31T13:18:26.000Z</time>
      </trkpt>
      <trkpt lat="37.16434336267411708831787109375" lon="-4.13916240446269512176513671875">
        <ele>492</ele>
        <time>2019-10-31T13:18:31.000Z</time>
      </trkpt>
      <trkpt lat="37.164396755397319793701171875" lon="-4.139348566532135009765625">
        <ele>491.600006103515625</ele>
        <time>2019-10-31T13:18:35.000Z</time>
      </trkpt>
      <trkpt lat="37.16439901851117610931396484375" lon="-4.13952768780291080474853515625">
        <ele>492.399993896484375</ele>
        <time>2019-10-31T13:18:41.000Z</time>
      </trkpt>
      <trkpt lat="37.1643969230353832244873046875" lon="-4.13953456096351146697998046875">
        <ele>492.399993896484375</ele>
        <time>2019-10-31T13:18:42.000Z</time>
      </trkpt>
      <trkpt lat="37.16440270654857158660888671875" lon="-4.1395458765327930450439453125">
        <ele>492.399993896484375</ele>
        <time>2019-10-31T13:18:46.000Z</time>
      </trkpt>
      <trkpt lat="37.1642681770026683807373046875" lon="-4.1395716927945613861083984375">
        <ele>493.79998779296875</ele>
        <time>2019-10-31T13:19:23.000Z</time>
      </trkpt>
      <trkpt lat="37.16407765634357929229736328125" lon="-4.13958393037319183349609375">
        <ele>495.600006103515625</ele>
        <time>2019-10-31T13:19:30.000Z</time>
      </trkpt>
      <trkpt lat="37.16398847289383411407470703125" lon="-4.13966498337686061859130859375">
        <ele>497.20001220703125</ele>
        <time>2019-10-31T13:19:34.000Z</time>
      </trkpt>
      <trkpt lat="37.16388621367514133453369140625" lon="-4.13989682681858539581298828125">
        <ele>500</ele>
        <time>2019-10-31T13:19:41.000Z</time>
      </trkpt>
      <trkpt lat="37.1638333238661289215087890625" lon="-4.140128754079341888427734375">
        <ele>499.79998779296875</ele>
        <time>2019-10-31T13:19:47.000Z</time>
      </trkpt>
      <trkpt lat="37.163769789040088653564453125" lon="-4.14037174545228481292724609375">
        <ele>498</ele>
        <time>2019-10-31T13:19:54.000Z</time>
      </trkpt>
      <trkpt lat="37.16370038688182830810546875" lon="-4.14060476236045360565185546875">
        <ele>497</ele>
        <time>2019-10-31T13:20:01.000Z</time>
      </trkpt>
      <trkpt lat="37.16363442130386829376220703125" lon="-4.1408363543450832366943359375">
        <ele>496.79998779296875</ele>
        <time>2019-10-31T13:20:08.000Z</time>
      </trkpt>
      <trkpt lat="37.1635647676885128021240234375" lon="-4.1410640068352222442626953125">
        <ele>497.600006103515625</ele>
        <time>2019-10-31T13:20:15.000Z</time>
      </trkpt>
      <trkpt lat="37.1634957008063793182373046875" lon="-4.14129727520048618316650390625">
        <ele>499.399993896484375</ele>
        <time>2019-10-31T13:20:22.000Z</time>
      </trkpt>
      <trkpt lat="37.1634363569319248199462890625" lon="-4.1415126062929630279541015625">
        <ele>500.79998779296875</ele>
        <time>2019-10-31T13:20:28.000Z</time>
      </trkpt>
      <trkpt lat="37.1633709780871868133544921875" lon="-4.14172567427158355712890625">
        <ele>502.20001220703125</ele>
        <time>2019-10-31T13:20:34.000Z</time>
      </trkpt>
      <trkpt lat="37.163329236209392547607421875" lon="-4.14197905920445919036865234375">
        <ele>502.20001220703125</ele>
        <time>2019-10-31T13:20:41.000Z</time>
      </trkpt>
      <trkpt lat="37.1632449142634868621826171875" lon="-4.14219682104885578155517578125">
        <ele>504.20001220703125</ele>
        <time>2019-10-31T13:20:48.000Z</time>
      </trkpt>
      <trkpt lat="37.1631848998367786407470703125" lon="-4.1424272395670413970947265625">
        <ele>506.20001220703125</ele>
        <time>2019-10-31T13:20:55.000Z</time>
      </trkpt>
      <trkpt lat="37.1631238795816898345947265625" lon="-4.14267458952963352203369140625">
        <ele>508</ele>
        <time>2019-10-31T13:21:02.000Z</time>
      </trkpt>
      <trkpt lat="37.1630588360130786895751953125" lon="-4.14291263557970523834228515625">
        <ele>509.600006103515625</ele>
        <time>2019-10-31T13:21:09.000Z</time>
      </trkpt>
      <trkpt lat="37.162979543209075927734375" lon="-4.14313190616667270660400390625">
        <ele>510.20001220703125</ele>
        <time>2019-10-31T13:21:16.000Z</time>
      </trkpt>
      <trkpt lat="37.16289614327251911163330078125" lon="-4.14336006157100200653076171875">
        <ele>511.600006103515625</ele>
        <time>2019-10-31T13:21:23.000Z</time>
      </trkpt>
      <trkpt lat="37.162834368646144866943359375" lon="-4.1435732133686542510986328125">
        <ele>513.5999755859375</ele>
        <time>2019-10-31T13:21:30.000Z</time>
      </trkpt>
      <trkpt lat="37.16277234256267547607421875" lon="-4.14379524998366832733154296875">
        <ele>515.4000244140625</ele>
        <time>2019-10-31T13:21:37.000Z</time>
      </trkpt>
      <trkpt lat="37.162736468017101287841796875" lon="-4.14403815753757953643798828125">
        <ele>515.79998779296875</ele>
        <time>2019-10-31T13:21:44.000Z</time>
      </trkpt>
      <trkpt lat="37.16265189461410045623779296875" lon="-4.1442424245178699493408203125">
        <ele>515.5999755859375</ele>
        <time>2019-10-31T13:21:52.000Z</time>
      </trkpt>
      <trkpt lat="37.1625463664531707763671875" lon="-4.1444563306868076324462890625">
        <ele>514.4000244140625</ele>
        <time>2019-10-31T13:22:00.000Z</time>
      </trkpt>
      <trkpt lat="37.16240756213665008544921875" lon="-4.144636876881122589111328125">
        <ele>514</ele>
        <time>2019-10-31T13:22:08.000Z</time>
      </trkpt>
      <trkpt lat="37.16224151663482189178466796875" lon="-4.1447704844176769256591796875">
        <ele>515.4000244140625</ele>
        <time>2019-10-31T13:22:16.000Z</time>
      </trkpt>
      <trkpt lat="37.16206901706755161285400390625" lon="-4.1448657028377056121826171875">
        <ele>517.20001220703125</ele>
        <time>2019-10-31T13:22:23.000Z</time>
      </trkpt>
      <trkpt lat="37.16186902485787868499755859375" lon="-4.1449260525405406951904296875">
        <ele>519.4000244140625</ele>
        <time>2019-10-31T13:22:31.000Z</time>
      </trkpt>
      <trkpt lat="37.161664925515651702880859375" lon="-4.14496351964771747589111328125">
        <ele>520.79998779296875</ele>
        <time>2019-10-31T13:22:39.000Z</time>
      </trkpt>
      <trkpt lat="37.16146870516240596771240234375" lon="-4.145024456083774566650390625">
        <ele>522.20001220703125</ele>
        <time>2019-10-31T13:22:47.000Z</time>
      </trkpt>
      <trkpt lat="37.16128463856875896453857421875" lon="-4.14509796537458896636962890625">
        <ele>523.5999755859375</ele>
        <time>2019-10-31T13:22:56.000Z</time>
      </trkpt>
      <trkpt lat="37.16113124974071979522705078125" lon="-4.145242385566234588623046875">
        <ele>525</ele>
        <time>2019-10-31T13:23:04.000Z</time>
      </trkpt>
      <trkpt lat="37.161009125411510467529296875" lon="-4.14543449878692626953125">
        <ele>526.20001220703125</ele>
        <time>2019-10-31T13:23:11.000Z</time>
      </trkpt>
      <trkpt lat="37.16091566719114780426025390625" lon="-4.145640023052692413330078125">
        <ele>528.4000244140625</ele>
        <time>2019-10-31T13:23:18.000Z</time>
      </trkpt>
      <trkpt lat="37.160844840109348297119140625" lon="-4.14587161503732204437255859375">
        <ele>532.79998779296875</ele>
        <time>2019-10-31T13:23:25.000Z</time>
      </trkpt>
      <trkpt lat="37.16083402745425701141357421875" lon="-4.1461249999701976776123046875">
        <ele>537</ele>
        <time>2019-10-31T13:23:32.000Z</time>
      </trkpt>
      <trkpt lat="37.160868309438228607177734375" lon="-4.14637100882828235626220703125">
        <ele>539</ele>
        <time>2019-10-31T13:23:39.000Z</time>
      </trkpt>
      <trkpt lat="37.16094567440450191497802734375" lon="-4.14659128524363040924072265625">
        <ele>539.79998779296875</ele>
        <time>2019-10-31T13:23:46.000Z</time>
      </trkpt>
      <trkpt lat="37.16105162166059017181396484375" lon="-4.14677971042692661285400390625">
        <ele>541</ele>
        <time>2019-10-31T13:23:53.000Z</time>
      </trkpt>
      <trkpt lat="37.16120056807994842529296875" lon="-4.14692438207566738128662109375">
        <ele>543.20001220703125</ele>
        <time>2019-10-31T13:24:00.000Z</time>
      </trkpt>
      <trkpt lat="37.16135881841182708740234375" lon="-4.14704575203359127044677734375">
        <ele>544</ele>
        <time>2019-10-31T13:24:07.000Z</time>
      </trkpt>
      <trkpt lat="37.16152318753302097320556640625" lon="-4.14714046753942966461181640625">
        <ele>544.4000244140625</ele>
        <time>2019-10-31T13:24:14.000Z</time>
      </trkpt>
      <trkpt lat="37.16169702820479869842529296875" lon="-4.14721590466797351837158203125">
        <ele>543.79998779296875</ele>
        <time>2019-10-31T13:24:21.000Z</time>
      </trkpt>
      <trkpt lat="37.16186634264886379241943359375" lon="-4.14729796350002288818359375">
        <ele>543</ele>
        <time>2019-10-31T13:24:28.000Z</time>
      </trkpt>
      <trkpt lat="37.16203062795102596282958984375" lon="-4.1473956964910030364990234375">
        <ele>543.20001220703125</ele>
        <time>2019-10-31T13:24:35.000Z</time>
      </trkpt>
      <trkpt lat="37.1622042171657085418701171875" lon="-4.1475438885390758514404296875">
        <ele>542.5999755859375</ele>
        <time>2019-10-31T13:24:42.000Z</time>
      </trkpt>
      <trkpt lat="37.1623296104371547698974609375" lon="-4.14771043695509433746337890625">
        <ele>540.4000244140625</ele>
        <time>2019-10-31T13:24:47.000Z</time>
      </trkpt>
      <trkpt lat="37.16242843307554721832275390625" lon="-4.14792300201952457427978515625">
        <ele>539.20001220703125</ele>
        <time>2019-10-31T13:24:52.000Z</time>
      </trkpt>
      <trkpt lat="37.16249280609190464019775390625" lon="-4.1481517441570758819580078125">
        <ele>537.79998779296875</ele>
        <time>2019-10-31T13:24:56.000Z</time>
      </trkpt>
      <trkpt lat="37.16254058293998241424560546875" lon="-4.1484370641410350799560546875">
        <ele>535.79998779296875</ele>
        <time>2019-10-31T13:25:00.000Z</time>
      </trkpt>
      <trkpt lat="37.162564806640148162841796875" lon="-4.148690700531005859375">
        <ele>535</ele>
        <time>2019-10-31T13:25:03.000Z</time>
      </trkpt>
      <trkpt lat="37.16258685104548931121826171875" lon="-4.14897878654301166534423828125">
        <ele>535.4000244140625</ele>
        <time>2019-10-31T13:25:06.000Z</time>
      </trkpt>
      <trkpt lat="37.16262884438037872314453125" lon="-4.14928304962813854217529296875">
        <ele>534.79998779296875</ele>
        <time>2019-10-31T13:25:09.000Z</time>
      </trkpt>
      <trkpt lat="37.1626662276685237884521484375" lon="-4.1495967842638492584228515625">
        <ele>533.5999755859375</ele>
        <time>2019-10-31T13:25:12.000Z</time>
      </trkpt>
      <trkpt lat="37.16270486824214458465576171875" lon="-4.14992644451558589935302734375">
        <ele>531.79998779296875</ele>
        <time>2019-10-31T13:25:15.000Z</time>
      </trkpt>
      <trkpt lat="37.162737809121608734130859375" lon="-4.15015292353928089141845703125">
        <ele>532</ele>
        <time>2019-10-31T13:25:17.000Z</time>
      </trkpt>
      <trkpt lat="37.162765972316265106201171875" lon="-4.1503799892961978912353515625">
        <ele>530.79998779296875</ele>
        <time>2019-10-31T13:25:19.000Z</time>
      </trkpt>
      <trkpt lat="37.16279757209122180938720703125" lon="-4.150603115558624267578125">
        <ele>529.4000244140625</ele>
        <time>2019-10-31T13:25:21.000Z</time>
      </trkpt>
      <trkpt lat="37.1628439240157604217529296875" lon="-4.150921292603015899658203125">
        <ele>528</ele>
        <time>2019-10-31T13:25:24.000Z</time>
      </trkpt>
      <trkpt lat="37.1628878451883792877197265625" lon="-4.15119663812220096588134765625">
        <ele>528</ele>
        <time>2019-10-31T13:25:27.000Z</time>
      </trkpt>
      <trkpt lat="37.16292112134397029876708984375" lon="-4.15142797864973545074462890625">
        <ele>528</ele>
        <time>2019-10-31T13:25:30.000Z</time>
      </trkpt>
      <trkpt lat="37.1629458479583263397216796875" lon="-4.15167407132685184478759765625">
        <ele>530.4000244140625</ele>
        <time>2019-10-31T13:25:34.000Z</time>
      </trkpt>
      <trkpt lat="37.1629808843135833740234375" lon="-4.15190256200730800628662109375">
        <ele>533.5999755859375</ele>
        <time>2019-10-31T13:25:38.000Z</time>
      </trkpt>
      <trkpt lat="37.16303293593227863311767578125" lon="-4.152132309973239898681640625">
        <ele>537</ele>
        <time>2019-10-31T13:25:42.000Z</time>
      </trkpt>
      <trkpt lat="37.16311289928853511810302734375" lon="-4.1523425281047821044921875">
        <ele>540</ele>
        <time>2019-10-31T13:25:46.000Z</time>
      </trkpt>
      <trkpt lat="37.16315715573728084564208984375" lon="-4.1524338908493518829345703125">
        <ele>541.4000244140625</ele>
        <time>2019-10-31T13:25:48.000Z</time>
      </trkpt>
      <trkpt lat="37.16323024593293666839599609375" lon="-4.15254578925669193267822265625">
        <ele>542.20001220703125</ele>
        <time>2019-10-31T13:25:51.000Z</time>
      </trkpt>
      <trkpt lat="37.16331548988819122314453125" lon="-4.15264603681862354278564453125">
        <ele>542.4000244140625</ele>
        <time>2019-10-31T13:25:54.000Z</time>
      </trkpt>
      <trkpt lat="37.16349427588284015655517578125" lon="-4.1527805663645267486572265625">
        <ele>541.79998779296875</ele>
        <time>2019-10-31T13:26:00.000Z</time>
      </trkpt>
      <trkpt lat="37.16368068940937519073486328125" lon="-4.1529084742069244384765625">
        <ele>542</ele>
        <time>2019-10-31T13:26:06.000Z</time>
      </trkpt>
      <trkpt lat="37.16384296305477619171142578125" lon="-4.15302045643329620361328125">
        <ele>542</ele>
        <time>2019-10-31T13:26:11.000Z</time>
      </trkpt>
      <trkpt lat="37.16400607489049434661865234375" lon="-4.153159596025943756103515625">
        <ele>542.79998779296875</ele>
        <time>2019-10-31T13:26:16.000Z</time>
      </trkpt>
      <trkpt lat="37.1641595475375652313232421875" lon="-4.15327937342226505279541015625">
        <ele>543.5999755859375</ele>
        <time>2019-10-31T13:26:23.000Z</time>
      </trkpt>
      <trkpt lat="37.16417706571519374847412109375" lon="-4.1532911919057369232177734375">
        <ele>543.5999755859375</ele>
        <time>2019-10-31T13:26:24.000Z</time>
      </trkpt>
      <trkpt lat="37.1642842702567577362060546875" lon="-4.15338330902159214019775390625">
        <ele>543.5999755859375</ele>
        <time>2019-10-31T13:26:29.000Z</time>
      </trkpt>
      <trkpt lat="37.1643238328397274017333984375" lon="-4.1534018330276012420654296875">
        <ele>543.20001220703125</ele>
        <time>2019-10-31T13:26:30.000Z</time>
      </trkpt>
      <trkpt lat="37.16439968906342983245849609375" lon="-4.15344181470572948455810546875">
        <ele>542.5999755859375</ele>
        <time>2019-10-31T13:26:32.000Z</time>
      </trkpt>
      <trkpt lat="37.16456732712686061859130859375" lon="-4.15355714969336986541748046875">
        <ele>542.4000244140625</ele>
        <time>2019-10-31T13:26:37.000Z</time>
      </trkpt>
      <trkpt lat="37.16473261825740337371826171875" lon="-4.15367533452808856964111328125">
        <ele>541.79998779296875</ele>
        <time>2019-10-31T13:26:42.000Z</time>
      </trkpt>
      <trkpt lat="37.16491769067943096160888671875" lon="-4.1538123786449432373046875">
        <ele>541</ele>
        <time>2019-10-31T13:26:48.000Z</time>
      </trkpt>
      <trkpt lat="37.1651006676256656646728515625" lon="-4.1539251990616321563720703125">
        <ele>539.5999755859375</ele>
        <time>2019-10-31T13:26:54.000Z</time>
      </trkpt>
      <trkpt lat="37.16526151634752750396728515625" lon="-4.15403743274509906768798828125">
        <ele>538.79998779296875</ele>
        <time>2019-10-31T13:26:59.000Z</time>
      </trkpt>
      <trkpt lat="37.16543653048574924468994140625" lon="-4.15416173636913299560546875">
        <ele>540.4000244140625</ele>
        <time>2019-10-31T13:27:04.000Z</time>
      </trkpt>
      <trkpt lat="37.165624201297760009765625" lon="-4.15429710410535335540771484375">
        <ele>538.20001220703125</ele>
        <time>2019-10-31T13:27:09.000Z</time>
      </trkpt>
      <trkpt lat="37.16575889848172664642333984375" lon="-4.15445233695209026336669921875">
        <ele>536.4000244140625</ele>
        <time>2019-10-31T13:27:13.000Z</time>
      </trkpt>
      <trkpt lat="37.16589937917888164520263671875" lon="-4.15466523729264736175537109375">
        <ele>531.79998779296875</ele>
        <time>2019-10-31T13:27:17.000Z</time>
      </trkpt>
      <trkpt lat="37.16598923318088054656982421875" lon="-4.15487344376742839813232421875">
        <ele>528.4000244140625</ele>
        <time>2019-10-31T13:27:20.000Z</time>
      </trkpt>
      <trkpt lat="37.1660531871020793914794921875" lon="-4.155120961368083953857421875">
        <ele>526.4000244140625</ele>
        <time>2019-10-31T13:27:23.000Z</time>
      </trkpt>
      <trkpt lat="37.16606785543262958526611328125" lon="-4.15521190501749515533447265625">
        <ele>526</ele>
        <time>2019-10-31T13:27:24.000Z</time>
      </trkpt>
      <trkpt lat="37.1660937555134296417236328125" lon="-4.15550694800913333892822265625">
        <ele>526.79998779296875</ele>
        <time>2019-10-31T13:27:27.000Z</time>
      </trkpt>
      <trkpt lat="37.166113369166851043701171875" lon="-4.15582831017673015594482421875">
        <ele>527.79998779296875</ele>
        <time>2019-10-31T13:27:30.000Z</time>
      </trkpt>
      <trkpt lat="37.16612317599356174468994140625" lon="-4.1560573875904083251953125">
        <ele>528.20001220703125</ele>
        <time>2019-10-31T13:27:32.000Z</time>
      </trkpt>
      <trkpt lat="37.1661366708576679229736328125" lon="-4.1562909074127674102783203125">
        <ele>527.79998779296875</ele>
        <time>2019-10-31T13:27:34.000Z</time>
      </trkpt>
      <trkpt lat="37.16614446602761745452880859375" lon="-4.1565262712538242340087890625">
        <ele>525.5999755859375</ele>
        <time>2019-10-31T13:27:36.000Z</time>
      </trkpt>
      <trkpt lat="37.1661507524549961090087890625" lon="-4.15676373057067394256591796875">
        <ele>521.79998779296875</ele>
        <time>2019-10-31T13:27:38.000Z</time>
      </trkpt>
      <trkpt lat="37.1661343239247798919677734375" lon="-4.15700621902942657470703125">
        <ele>519.4000244140625</ele>
        <time>2019-10-31T13:27:40.000Z</time>
      </trkpt>
      <trkpt lat="37.166074477136135101318359375" lon="-4.15724284015595912933349609375">
        <ele>519.20001220703125</ele>
        <time>2019-10-31T13:27:42.000Z</time>
      </trkpt>
      <trkpt lat="37.165987305343151092529296875" lon="-4.15747535414993762969970703125">
        <ele>519.4000244140625</ele>
        <time>2019-10-31T13:27:44.000Z</time>
      </trkpt>
      <trkpt lat="37.165892757475376129150390625" lon="-4.157723374664783477783203125">
        <ele>520.5999755859375</ele>
        <time>2019-10-31T13:27:46.000Z</time>
      </trkpt>
      <trkpt lat="37.16585411690175533294677734375" lon="-4.15785639546811580657958984375">
        <ele>521.79998779296875</ele>
        <time>2019-10-31T13:27:47.000Z</time>
      </trkpt>
      <trkpt lat="37.16580030508339405059814453125" lon="-4.1581352613866329193115234375">
        <ele>524.79998779296875</ele>
        <time>2019-10-31T13:27:49.000Z</time>
      </trkpt>
      <trkpt lat="37.16580717824399471282958984375" lon="-4.158412031829357147216796875">
        <ele>525.5999755859375</ele>
        <time>2019-10-31T13:27:51.000Z</time>
      </trkpt>
      <trkpt lat="37.16588160954415798187255859375" lon="-4.158672206103801727294921875">
        <ele>522.4000244140625</ele>
        <time>2019-10-31T13:27:53.000Z</time>
      </trkpt>
      <trkpt lat="37.1659876406192779541015625" lon="-4.15890748612582683563232421875">
        <ele>516.4000244140625</ele>
        <time>2019-10-31T13:27:55.000Z</time>
      </trkpt>
      <trkpt lat="37.1660977788269519805908203125" lon="-4.15913161821663379669189453125">
        <ele>515</ele>
        <time>2019-10-31T13:27:57.000Z</time>
      </trkpt>
      <trkpt lat="37.16621135361492633819580078125" lon="-4.1593492962419986724853515625">
        <ele>516.79998779296875</ele>
        <time>2019-10-31T13:27:59.000Z</time>
      </trkpt>
      <trkpt lat="37.166350074112415313720703125" lon="-4.15954585187137126922607421875">
        <ele>517</ele>
        <time>2019-10-31T13:28:01.000Z</time>
      </trkpt>
      <trkpt lat="37.166523076593875885009765625" lon="-4.15969689376652240753173828125">
        <ele>516.4000244140625</ele>
        <time>2019-10-31T13:28:03.000Z</time>
      </trkpt>
      <trkpt lat="37.16671460308134555816650390625" lon="-4.159805774688720703125">
        <ele>514.79998779296875</ele>
        <time>2019-10-31T13:28:05.000Z</time>
      </trkpt>
      <trkpt lat="37.16690788976848125457763671875" lon="-4.15989738889038562774658203125">
        <ele>513.79998779296875</ele>
        <time>2019-10-31T13:28:07.000Z</time>
      </trkpt>
      <trkpt lat="37.16709581203758716583251953125" lon="-4.1599873267114162445068359375">
        <ele>513.4000244140625</ele>
        <time>2019-10-31T13:28:09.000Z</time>
      </trkpt>
      <trkpt lat="37.16728172264993190765380859375" lon="-4.16008296422660350799560546875">
        <ele>514</ele>
        <time>2019-10-31T13:28:11.000Z</time>
      </trkpt>
      <trkpt lat="37.16744969598948955535888671875" lon="-4.1601985506713390350341796875">
        <ele>514</ele>
        <time>2019-10-31T13:28:13.000Z</time>
      </trkpt>
      <trkpt lat="37.167593277990818023681640625" lon="-4.160344563424587249755859375">
        <ele>513.5999755859375</ele>
        <time>2019-10-31T13:28:15.000Z</time>
      </trkpt>
      <trkpt lat="37.16774540953338146209716796875" lon="-4.1606199927628040313720703125">
        <ele>510.600006103515625</ele>
        <time>2019-10-31T13:28:18.000Z</time>
      </trkpt>
      <trkpt lat="37.167819924652576446533203125" lon="-4.16082928888499736785888671875">
        <ele>508.79998779296875</ele>
        <time>2019-10-31T13:28:20.000Z</time>
      </trkpt>
      <trkpt lat="37.1678432263433933258056640625" lon="-4.16093825362622737884521484375">
        <ele>508.20001220703125</ele>
        <time>2019-10-31T13:28:21.000Z</time>
      </trkpt>
      <trkpt lat="37.16789343394339084625244140625" lon="-4.16127855889499187469482421875">
        <ele>507.600006103515625</ele>
        <time>2019-10-31T13:28:24.000Z</time>
      </trkpt>
      <trkpt lat="37.1679320745170116424560546875" lon="-4.16150520555675029754638671875">
        <ele>507.20001220703125</ele>
        <time>2019-10-31T13:28:26.000Z</time>
      </trkpt>
      <trkpt lat="37.16794104315340518951416015625" lon="-4.1616149246692657470703125">
        <ele>507</ele>
        <time>2019-10-31T13:28:27.000Z</time>
      </trkpt>
      <trkpt lat="37.167982198297977447509765625" lon="-4.16193234734237194061279296875">
        <ele>505.79998779296875</ele>
        <time>2019-10-31T13:28:30.000Z</time>
      </trkpt>
      <trkpt lat="37.168057300150394439697265625" lon="-4.16222990490496158599853515625">
        <ele>506.399993896484375</ele>
        <time>2019-10-31T13:28:33.000Z</time>
      </trkpt>
      <trkpt lat="37.16820138506591320037841796875" lon="-4.1624928452074527740478515625">
        <ele>508</ele>
        <time>2019-10-31T13:28:36.000Z</time>
      </trkpt>
      <trkpt lat="37.16824044473469257354736328125" lon="-4.162584878504276275634765625">
        <ele>508.20001220703125</ele>
        <time>2019-10-31T13:28:37.000Z</time>
      </trkpt>
      <trkpt lat="37.16833532787859439849853515625" lon="-4.16283130645751953125">
        <ele>509</ele>
        <time>2019-10-31T13:28:40.000Z</time>
      </trkpt>
      <trkpt lat="37.16845032759010791778564453125" lon="-4.16301528923213481903076171875">
        <ele>508.79998779296875</ele>
        <time>2019-10-31T13:28:43.000Z</time>
      </trkpt>
      <trkpt lat="37.16859617270529270172119140625" lon="-4.1632311232388019561767578125">
        <ele>507.79998779296875</ele>
        <time>2019-10-31T13:28:47.000Z</time>
      </trkpt>
      <trkpt lat="37.1687154471874237060546875" lon="-4.1634468734264373779296875">
        <ele>506.600006103515625</ele>
        <time>2019-10-31T13:28:51.000Z</time>
      </trkpt>
      <trkpt lat="37.16882835142314434051513671875" lon="-4.16367595084011554718017578125">
        <ele>505.600006103515625</ele>
        <time>2019-10-31T13:28:55.000Z</time>
      </trkpt>
      <trkpt lat="37.1689295209944248199462890625" lon="-4.1639063693583011627197265625">
        <ele>503.600006103515625</ele>
        <time>2019-10-31T13:28:59.000Z</time>
      </trkpt>
      <trkpt lat="37.169049046933650970458984375" lon="-4.1641038469970226287841796875">
        <ele>502.399993896484375</ele>
        <time>2019-10-31T13:29:03.000Z</time>
      </trkpt>
      <trkpt lat="37.169149629771709442138671875" lon="-4.16424307040870189666748046875">
        <ele>502.399993896484375</ele>
        <time>2019-10-31T13:29:07.000Z</time>
      </trkpt>
      <trkpt lat="37.1691875159740447998046875" lon="-4.16429436765611171722412109375">
        <ele>502.399993896484375</ele>
        <time>2019-10-31T13:29:10.000Z</time>
      </trkpt>
      <trkpt lat="37.16918550431728363037109375" lon="-4.16429520584642887115478515625">
        <ele>502.399993896484375</ele>
        <time>2019-10-31T13:29:12.000Z</time>
      </trkpt>
      <trkpt lat="37.1691813133656978607177734375" lon="-4.1643003188073635101318359375">
        <ele>502.399993896484375</ele>
        <time>2019-10-31T13:29:15.000Z</time>
      </trkpt>
      <trkpt lat="37.1692671440541744232177734375" lon="-4.1644062660634517669677734375">
        <ele>502.20001220703125</ele>
        <time>2019-10-31T13:29:31.000Z</time>
      </trkpt>
      <trkpt lat="37.1693445928394794464111328125" lon="-4.16449754498898983001708984375">
        <ele>502.20001220703125</ele>
        <time>2019-10-31T13:29:40.000Z</time>
      </trkpt>
      <trkpt lat="37.16933629475533962249755859375" lon="-4.16459226049482822418212890625">
        <ele>502.79998779296875</ele>
        <time>2019-10-31T13:29:48.000Z</time>
      </trkpt>
      <trkpt lat="37.16916530393064022064208984375" lon="-4.16451497934758663177490234375">
        <ele>503.600006103515625</ele>
        <time>2019-10-31T13:30:00.000Z</time>
      </trkpt>
      <trkpt lat="37.16914837248623371124267578125" lon="-4.16452906094491481781005859375">
        <ele>503.79998779296875</ele>
        <time>2019-10-31T13:30:01.000Z</time>
      </trkpt>
      <trkpt lat="37.16910813935101032257080078125" lon="-4.16469485498964786529541015625">
        <ele>504.600006103515625</ele>
        <time>2019-10-31T13:30:06.000Z</time>
      </trkpt>
      <trkpt lat="37.16911735944449901580810546875" lon="-4.16495452634990215301513671875">
        <ele>503.79998779296875</ele>
        <time>2019-10-31T13:30:11.000Z</time>
      </trkpt>
      <trkpt lat="37.16912381350994110107421875" lon="-4.1652251780033111572265625">
        <ele>504.399993896484375</ele>
        <time>2019-10-31T13:30:16.000Z</time>
      </trkpt>
      <trkpt lat="37.16910042800009250640869140625" lon="-4.1654861904680728912353515625">
        <ele>505.600006103515625</ele>
        <time>2019-10-31T13:30:21.000Z</time>
      </trkpt>
      <trkpt lat="37.169048376381397247314453125" lon="-4.16574963368475437164306640625">
        <ele>505.20001220703125</ele>
        <time>2019-10-31T13:30:26.000Z</time>
      </trkpt>
      <trkpt lat="37.16897436417639255523681640625" lon="-4.1660110652446746826171875">
        <ele>503</ele>
        <time>2019-10-31T13:30:31.000Z</time>
      </trkpt>
      <trkpt lat="37.16889389790594577789306640625" lon="-4.1662670485675334930419921875">
        <ele>501.600006103515625</ele>
        <time>2019-10-31T13:30:36.000Z</time>
      </trkpt>
      <trkpt lat="37.16882902197539806365966796875" lon="-4.1665206849575042724609375">
        <ele>501.600006103515625</ele>
        <time>2019-10-31T13:30:41.000Z</time>
      </trkpt>
      <trkpt lat="37.16876481659710407257080078125" lon="-4.16676409542560577392578125">
        <ele>502</ele>
        <time>2019-10-31T13:30:46.000Z</time>
      </trkpt>
      <trkpt lat="37.16869608499109745025634765625" lon="-4.1670184023678302764892578125">
        <ele>502.399993896484375</ele>
        <time>2019-10-31T13:30:51.000Z</time>
      </trkpt>
      <trkpt lat="37.168627940118312835693359375" lon="-4.16726793162524700164794921875">
        <ele>503</ele>
        <time>2019-10-31T13:30:56.000Z</time>
      </trkpt>
      <trkpt lat="37.16855661012232303619384765625" lon="-4.1675206460058689117431640625">
        <ele>502.600006103515625</ele>
        <time>2019-10-31T13:31:01.000Z</time>
      </trkpt>
      <trkpt lat="37.16849357821047306060791015625" lon="-4.1677395813167095184326171875">
        <ele>502.600006103515625</ele>
        <time>2019-10-31T13:31:05.000Z</time>
      </trkpt>
      <trkpt lat="37.1684309653937816619873046875" lon="-4.16795474477112293243408203125">
        <ele>504</ele>
        <time>2019-10-31T13:31:09.000Z</time>
      </trkpt>
      <trkpt lat="37.16836600564420223236083984375" lon="-4.168224222958087921142578125">
        <ele>505.399993896484375</ele>
        <time>2019-10-31T13:31:14.000Z</time>
      </trkpt>
      <trkpt lat="37.1683250181376934051513671875" lon="-4.16845313273370265960693359375">
        <ele>507.20001220703125</ele>
        <time>2019-10-31T13:31:18.000Z</time>
      </trkpt>
      <trkpt lat="37.168300710618495941162109375" lon="-4.168692268431186676025390625">
        <ele>507.20001220703125</ele>
        <time>2019-10-31T13:31:22.000Z</time>
      </trkpt>
      <trkpt lat="37.16829375363886356353759765625" lon="-4.16892838664352893829345703125">
        <ele>507.79998779296875</ele>
        <time>2019-10-31T13:31:26.000Z</time>
      </trkpt>
      <trkpt lat="37.16833256185054779052734375" lon="-4.169164001941680908203125">
        <ele>508.399993896484375</ele>
        <time>2019-10-31T13:31:30.000Z</time>
      </trkpt>
      <trkpt lat="37.16840774752199649810791015625" lon="-4.16939090006053447723388671875">
        <ele>509.20001220703125</ele>
        <time>2019-10-31T13:31:34.000Z</time>
      </trkpt>
      <trkpt lat="37.1685115993022918701171875" lon="-4.16960044763982295989990234375">
        <ele>510.600006103515625</ele>
        <time>2019-10-31T13:31:38.000Z</time>
      </trkpt>
      <trkpt lat="37.1686110086739063262939453125" lon="-4.1697411797940731048583984375">
        <ele>510.79998779296875</ele>
        <time>2019-10-31T13:31:41.000Z</time>
      </trkpt>
      <trkpt lat="37.16875878162682056427001953125" lon="-4.1698806546628475189208984375">
        <ele>511</ele>
        <time>2019-10-31T13:31:45.000Z</time>
      </trkpt>
      <trkpt lat="37.16885483823716640472412109375" lon="-4.16995936073362827301025390625">
        <ele>511.79998779296875</ele>
        <time>2019-10-31T13:31:48.000Z</time>
      </trkpt>
      <trkpt lat="37.1690156869590282440185546875" lon="-4.17007268406450748443603515625">
        <ele>512.79998779296875</ele>
        <time>2019-10-31T13:31:53.000Z</time>
      </trkpt>
      <trkpt lat="37.16918860562145709991455078125" lon="-4.17019464075565338134765625">
        <ele>513.79998779296875</ele>
        <time>2019-10-31T13:31:58.000Z</time>
      </trkpt>
      <trkpt lat="37.169360183179378509521484375" lon="-4.17031802237033843994140625">
        <ele>513.79998779296875</ele>
        <time>2019-10-31T13:32:03.000Z</time>
      </trkpt>
      <trkpt lat="37.16951499693095684051513671875" lon="-4.1704566590487957000732421875">
        <ele>513.79998779296875</ele>
        <time>2019-10-31T13:32:08.000Z</time>
      </trkpt>
      <trkpt lat="37.16964994557201862335205078125" lon="-4.17061583139002323150634765625">
        <ele>512.79998779296875</ele>
        <time>2019-10-31T13:32:13.000Z</time>
      </trkpt>
      <trkpt lat="37.1696971356868743896484375" lon="-4.170685820281505584716796875">
        <ele>512.4000244140625</ele>
        <time>2019-10-31T13:32:15.000Z</time>
      </trkpt>
      <trkpt lat="37.1698005683720111846923828125" lon="-4.17088287882506847381591796875">
        <ele>511.79998779296875</ele>
        <time>2019-10-31T13:32:20.000Z</time>
      </trkpt>
      <trkpt lat="37.1698800288140773773193359375" lon="-4.1710920073091983795166015625">
        <ele>512</ele>
        <time>2019-10-31T13:32:25.000Z</time>
      </trkpt>
      <trkpt lat="37.169927470386028289794921875" lon="-4.171354360878467559814453125">
        <ele>510.600006103515625</ele>
        <time>2019-10-31T13:32:31.000Z</time>
      </trkpt>
      <trkpt lat="37.16992654837667942047119140625" lon="-4.1715831868350505828857421875">
        <ele>510.79998779296875</ele>
        <time>2019-10-31T13:32:36.000Z</time>
      </trkpt>
      <trkpt lat="37.16990509070456027984619140625" lon="-4.1718162037432193756103515625">
        <ele>512</ele>
        <time>2019-10-31T13:32:41.000Z</time>
      </trkpt>
      <trkpt lat="37.16986552812159061431884765625" lon="-4.17204670608043670654296875">
        <ele>512.20001220703125</ele>
        <time>2019-10-31T13:32:46.000Z</time>
      </trkpt>
      <trkpt lat="37.169801406562328338623046875" lon="-4.17230528779327869415283203125">
        <ele>513.4000244140625</ele>
        <time>2019-10-31T13:32:52.000Z</time>
      </trkpt>
      <trkpt lat="37.169749103486537933349609375" lon="-4.17252103798091411590576171875">
        <ele>514.4000244140625</ele>
        <time>2019-10-31T13:32:57.000Z</time>
      </trkpt>
      <trkpt lat="37.1696973033249378204345703125" lon="-4.17277668602764606475830078125">
        <ele>517.20001220703125</ele>
        <time>2019-10-31T13:33:03.000Z</time>
      </trkpt>
      <trkpt lat="37.16966821812093257904052734375" lon="-4.17302881367504596710205078125">
        <ele>520</ele>
        <time>2019-10-31T13:33:09.000Z</time>
      </trkpt>
      <trkpt lat="37.169673331081867218017578125" lon="-4.1732944361865520477294921875">
        <ele>521.79998779296875</ele>
        <time>2019-10-31T13:33:15.000Z</time>
      </trkpt>
      <trkpt lat="37.16970224864780902862548828125" lon="-4.17354178614914417266845703125">
        <ele>522.79998779296875</ele>
        <time>2019-10-31T13:33:21.000Z</time>
      </trkpt>
      <trkpt lat="37.1697455830872058868408203125" lon="-4.1737621463835239410400390625">
        <ele>523.4000244140625</ele>
        <time>2019-10-31T13:33:27.000Z</time>
      </trkpt>
      <trkpt lat="37.16979897581040859222412109375" lon="-4.17397898621857166290283203125">
        <ele>525</ele>
        <time>2019-10-31T13:33:33.000Z</time>
      </trkpt>
      <trkpt lat="37.1698555536568164825439453125" lon="-4.17419859208166599273681640625">
        <ele>527.4000244140625</ele>
        <time>2019-10-31T13:33:39.000Z</time>
      </trkpt>
      <trkpt lat="37.16990701854228973388671875" lon="-4.174422807991504669189453125">
        <ele>529.20001220703125</ele>
        <time>2019-10-31T13:33:45.000Z</time>
      </trkpt>
      <trkpt lat="37.16995722614228725433349609375" lon="-4.17467594146728515625">
        <ele>529.4000244140625</ele>
        <time>2019-10-31T13:33:52.000Z</time>
      </trkpt>
      <trkpt lat="37.16998388059437274932861328125" lon="-4.17490703053772449493408203125">
        <ele>529.20001220703125</ele>
        <time>2019-10-31T13:33:58.000Z</time>
      </trkpt>
      <trkpt lat="37.1699893288314342498779296875" lon="-4.17514239437878131866455078125">
        <ele>528.4000244140625</ele>
        <time>2019-10-31T13:34:04.000Z</time>
      </trkpt>
      <trkpt lat="37.1699896641075611114501953125" lon="-4.17539569549262523651123046875">
        <ele>527.5999755859375</ele>
        <time>2019-10-31T13:34:11.000Z</time>
      </trkpt>
      <trkpt lat="37.16995689086616039276123046875" lon="-4.175647906959056854248046875">
        <ele>527.5999755859375</ele>
        <time>2019-10-31T13:34:18.000Z</time>
      </trkpt>
      <trkpt lat="37.169905006885528564453125" lon="-4.1758681833744049072265625">
        <ele>529</ele>
        <time>2019-10-31T13:34:24.000Z</time>
      </trkpt>
      <trkpt lat="37.1698320843279361724853515625" lon="-4.17608368210494518280029296875">
        <ele>530.79998779296875</ele>
        <time>2019-10-31T13:34:30.000Z</time>
      </trkpt>
      <trkpt lat="37.1697512827813625335693359375" lon="-4.17628727853298187255859375">
        <ele>532</ele>
        <time>2019-10-31T13:34:36.000Z</time>
      </trkpt>
      <trkpt lat="37.169637121260166168212890625" lon="-4.17650696821510791778564453125">
        <ele>533.79998779296875</ele>
        <time>2019-10-31T13:34:43.000Z</time>
      </trkpt>
      <trkpt lat="37.16949907131493091583251953125" lon="-4.1767038591206073760986328125">
        <ele>535</ele>
        <time>2019-10-31T13:34:50.000Z</time>
      </trkpt>
      <trkpt lat="37.16937300749123096466064453125" lon="-4.1768678091466426849365234375">
        <ele>535.5999755859375</ele>
        <time>2019-10-31T13:34:56.000Z</time>
      </trkpt>
      <trkpt lat="37.16921878047287464141845703125" lon="-4.17703905142843723297119140625">
        <ele>536.20001220703125</ele>
        <time>2019-10-31T13:35:03.000Z</time>
      </trkpt>
      <trkpt lat="37.1690589375793933868408203125" lon="-4.177207611501216888427734375">
        <ele>536.5999755859375</ele>
        <time>2019-10-31T13:35:10.000Z</time>
      </trkpt>
      <trkpt lat="37.168921642005443572998046875" lon="-4.1773594915866851806640625">
        <ele>536.4000244140625</ele>
        <time>2019-10-31T13:35:16.000Z</time>
      </trkpt>
      <trkpt lat="37.1687742881476879119873046875" lon="-4.17753609828650951385498046875">
        <ele>536.4000244140625</ele>
        <time>2019-10-31T13:35:23.000Z</time>
      </trkpt>
      <trkpt lat="37.16862986795604228973388671875" lon="-4.1777133755385875701904296875">
        <ele>536.79998779296875</ele>
        <time>2019-10-31T13:35:30.000Z</time>
      </trkpt>
      <trkpt lat="37.16850279830396175384521484375" lon="-4.17789886705577373504638671875">
        <ele>537.4000244140625</ele>
        <time>2019-10-31T13:35:37.000Z</time>
      </trkpt>
      <trkpt lat="37.16840037144720554351806640625" lon="-4.17809483595192432403564453125">
        <ele>538.79998779296875</ele>
        <time>2019-10-31T13:35:43.000Z</time>
      </trkpt>
      <trkpt lat="37.168300710618495941162109375" lon="-4.17829935438930988311767578125">
        <ele>540.5999755859375</ele>
        <time>2019-10-31T13:35:49.000Z</time>
      </trkpt>
      <trkpt lat="37.16821814887225627899169921875" lon="-4.17851024307310581207275390625">
        <ele>542.20001220703125</ele>
        <time>2019-10-31T13:35:55.000Z</time>
      </trkpt>
      <trkpt lat="37.16813407838344573974609375" lon="-4.1787520609796047210693359375">
        <ele>543.20001220703125</ele>
        <time>2019-10-31T13:36:02.000Z</time>
      </trkpt>
      <trkpt lat="37.1680708788335323333740234375" lon="-4.17897485196590423583984375">
        <ele>543.79998779296875</ele>
        <time>2019-10-31T13:36:08.000Z</time>
      </trkpt>
      <trkpt lat="37.1680118702352046966552734375" lon="-4.17920208536088466644287109375">
        <ele>544.5999755859375</ele>
        <time>2019-10-31T13:36:14.000Z</time>
      </trkpt>
      <trkpt lat="37.1679588966071605682373046875" lon="-4.17942009866237640380859375">
        <ele>545</ele>
        <time>2019-10-31T13:36:20.000Z</time>
      </trkpt>
      <trkpt lat="37.1679065935313701629638671875" lon="-4.17964448221027851104736328125">
        <ele>545.79998779296875</ele>
        <time>2019-10-31T13:36:26.000Z</time>
      </trkpt>
      <trkpt lat="37.16784431599080562591552734375" lon="-4.17989091016352176666259765625">
        <ele>548.5999755859375</ele>
        <time>2019-10-31T13:36:33.000Z</time>
      </trkpt>
      <trkpt lat="37.1677718125283718109130859375" lon="-4.18013264425098896026611328125">
        <ele>550.5999755859375</ele>
        <time>2019-10-31T13:36:40.000Z</time>
      </trkpt>
      <trkpt lat="37.1677067689597606658935546875" lon="-4.1803540103137493133544921875">
        <ele>553.5999755859375</ele>
        <time>2019-10-31T13:36:46.000Z</time>
      </trkpt>
      <trkpt lat="37.1676350198686122894287109375" lon="-4.1805625520646572113037109375">
        <ele>556.5999755859375</ele>
        <time>2019-10-31T13:36:52.000Z</time>
      </trkpt>
      <trkpt lat="37.16755765490233898162841796875" lon="-4.18076614849269390106201171875">
        <ele>559.5999755859375</ele>
        <time>2019-10-31T13:36:58.000Z</time>
      </trkpt>
      <trkpt lat="37.16746218502521514892578125" lon="-4.181000925600528717041015625">
        <ele>561.5999755859375</ele>
        <time>2019-10-31T13:37:05.000Z</time>
      </trkpt>
      <trkpt lat="37.16735632158815860748291015625" lon="-4.18122245930135250091552734375">
        <ele>562.79998779296875</ele>
        <time>2019-10-31T13:37:12.000Z</time>
      </trkpt>
      <trkpt lat="37.16725456528365612030029296875" lon="-4.18144357390701770782470703125">
        <ele>563</ele>
        <time>2019-10-31T13:37:19.000Z</time>
      </trkpt>
      <trkpt lat="37.1671468578279018402099609375" lon="-4.181663095951080322265625">
        <ele>562.79998779296875</ele>
        <time>2019-10-31T13:37:26.000Z</time>
      </trkpt>
      <trkpt lat="37.16702858917415142059326171875" lon="-4.18186048977077007293701171875">
        <ele>561.5999755859375</ele>
        <time>2019-10-31T13:37:33.000Z</time>
      </trkpt>
      <trkpt lat="37.1669183671474456787109375" lon="-4.1820598952472209930419921875">
        <ele>561.20001220703125</ele>
        <time>2019-10-31T13:37:40.000Z</time>
      </trkpt>
      <trkpt lat="37.1668088994920253753662109375" lon="-4.182251505553722381591796875">
        <ele>560.4000244140625</ele>
        <time>2019-10-31T13:37:47.000Z</time>
      </trkpt>
      <trkpt lat="37.16666196472942829132080078125" lon="-4.18243666179478168487548828125">
        <ele>559.20001220703125</ele>
        <time>2019-10-31T13:37:54.000Z</time>
      </trkpt>
      <trkpt lat="37.16653145849704742431640625" lon="-4.1825966723263263702392578125">
        <ele>558.4000244140625</ele>
        <time>2019-10-31T13:38:00.000Z</time>
      </trkpt>
      <trkpt lat="37.1663958393037319183349609375" lon="-4.1827532462775707244873046875">
        <ele>558.4000244140625</ele>
        <time>2019-10-31T13:38:06.000Z</time>
      </trkpt>
      <trkpt lat="37.166256867349147796630859375" lon="-4.1829141788184642791748046875">
        <ele>558.5999755859375</ele>
        <time>2019-10-31T13:38:12.000Z</time>
      </trkpt>
      <trkpt lat="37.1661195717751979827880859375" lon="-4.18307888321578502655029296875">
        <ele>559.20001220703125</ele>
        <time>2019-10-31T13:38:18.000Z</time>
      </trkpt>
      <trkpt lat="37.1659777499735355377197265625" lon="-4.1832353733479976654052734375">
        <ele>559.5999755859375</ele>
        <time>2019-10-31T13:38:24.000Z</time>
      </trkpt>
      <trkpt lat="37.165837101638317108154296875" lon="-4.18338574469089508056640625">
        <ele>560</ele>
        <time>2019-10-31T13:38:30.000Z</time>
      </trkpt>
      <trkpt lat="37.1657038293778896331787109375" lon="-4.18354039080440998077392578125">
        <ele>560.4000244140625</ele>
        <time>2019-10-31T13:38:36.000Z</time>
      </trkpt>
      <trkpt lat="37.1655693836510181427001953125" lon="-4.18369847349822521209716796875">
        <ele>561.79998779296875</ele>
        <time>2019-10-31T13:38:42.000Z</time>
      </trkpt>
      <trkpt lat="37.1654245443642139434814453125" lon="-4.1838566400110721588134765625">
        <ele>563.4000244140625</ele>
        <time>2019-10-31T13:38:48.000Z</time>
      </trkpt>
      <trkpt lat="37.16528154909610748291015625" lon="-4.18402955867350101470947265625">
        <ele>565.20001220703125</ele>
        <time>2019-10-31T13:38:54.000Z</time>
      </trkpt>
      <trkpt lat="37.16514743864536285400390625" lon="-4.18423072434961795806884765625">
        <ele>566</ele>
        <time>2019-10-31T13:39:00.000Z</time>
      </trkpt>
      <trkpt lat="37.16503403149545192718505859375" lon="-4.18443155474960803985595703125">
        <ele>565.79998779296875</ele>
        <time>2019-10-31T13:39:05.000Z</time>
      </trkpt>
      <trkpt lat="37.1649025194346904754638671875" lon="-4.18466490693390369415283203125">
        <ele>565</ele>
        <time>2019-10-31T13:39:10.000Z</time>
      </trkpt>
      <trkpt lat="37.1647878549993038177490234375" lon="-4.18486825190484523773193359375">
        <ele>564.5999755859375</ele>
        <time>2019-10-31T13:39:14.000Z</time>
      </trkpt>
      <trkpt lat="37.16467536985874176025390625" lon="-4.18507863767445087432861328125">
        <ele>564.20001220703125</ele>
        <time>2019-10-31T13:39:18.000Z</time>
      </trkpt>
      <trkpt lat="37.16456145979464054107666015625" lon="-4.1852761991322040557861328125">
        <ele>564.4000244140625</ele>
        <time>2019-10-31T13:39:22.000Z</time>
      </trkpt>
      <trkpt lat="37.16445048339664936065673828125" lon="-4.185472838580608367919921875">
        <ele>565</ele>
        <time>2019-10-31T13:39:26.000Z</time>
      </trkpt>
      <trkpt lat="37.16434319503605365753173828125" lon="-4.18566637672483921051025390625">
        <ele>565.4000244140625</ele>
        <time>2019-10-31T13:39:30.000Z</time>
      </trkpt>
      <trkpt lat="37.16423624195158481597900390625" lon="-4.18585781939327716827392578125">
        <ele>565.4000244140625</ele>
        <time>2019-10-31T13:39:34.000Z</time>
      </trkpt>
      <trkpt lat="37.16412484645843505859375" lon="-4.18608748354017734527587890625">
        <ele>564.79998779296875</ele>
        <time>2019-10-31T13:39:39.000Z</time>
      </trkpt>
      <trkpt lat="37.16410196386277675628662109375" lon="-4.1861304827034473419189453125">
        <ele>564.5999755859375</ele>
        <time>2019-10-31T13:39:40.000Z</time>
      </trkpt>
      <trkpt lat="37.1639935858547687530517578125" lon="-4.1863460652530193328857421875">
        <ele>563.5999755859375</ele>
        <time>2019-10-31T13:39:45.000Z</time>
      </trkpt>
      <trkpt lat="37.16387364082038402557373046875" lon="-4.1865626536309719085693359375">
        <ele>563.4000244140625</ele>
        <time>2019-10-31T13:39:51.000Z</time>
      </trkpt>
      <trkpt lat="37.163805328309535980224609375" lon="-4.18670958839356899261474609375">
        <ele>564</ele>
        <time>2019-10-31T13:39:55.000Z</time>
      </trkpt>
      <trkpt lat="37.16369879432022571563720703125" lon="-4.1869307868182659149169921875">
        <ele>564.79998779296875</ele>
        <time>2019-10-31T13:40:01.000Z</time>
      </trkpt>
      <trkpt lat="37.16360541991889476776123046875" lon="-4.18713555671274662017822265625">
        <ele>565</ele>
        <time>2019-10-31T13:40:06.000Z</time>
      </trkpt>
      <trkpt lat="37.1635298989713191986083984375" lon="-4.18734342791140079498291015625">
        <ele>564.4000244140625</ele>
        <time>2019-10-31T13:40:11.000Z</time>
      </trkpt>
      <trkpt lat="37.1634819544851779937744140625" lon="-4.18757627718150615692138671875">
        <ele>563.5999755859375</ele>
        <time>2019-10-31T13:40:16.000Z</time>
      </trkpt>
      <trkpt lat="37.1635215170681476593017578125" lon="-4.187848269939422607421875">
        <ele>562.4000244140625</ele>
        <time>2019-10-31T13:40:21.000Z</time>
      </trkpt>
      <trkpt lat="37.16352830640971660614013671875" lon="-4.18808857910335063934326171875">
        <ele>561.4000244140625</ele>
        <time>2019-10-31T13:40:25.000Z</time>
      </trkpt>
      <trkpt lat="37.16347374022006988525390625" lon="-4.18831723742187023162841796875">
        <ele>561</ele>
        <time>2019-10-31T13:40:29.000Z</time>
      </trkpt>
      <trkpt lat="37.1633682958781719207763671875" lon="-4.18851823545992374420166015625">
        <ele>560.5999755859375</ele>
        <time>2019-10-31T13:40:33.000Z</time>
      </trkpt>
      <trkpt lat="37.16329403221607208251953125" lon="-4.1886812634766101837158203125">
        <ele>560.79998779296875</ele>
        <time>2019-10-31T13:40:36.000Z</time>
      </trkpt>
      <trkpt lat="37.16328598558902740478515625" lon="-4.18895074166357517242431640625">
        <ele>559.79998779296875</ele>
        <time>2019-10-31T13:40:40.000Z</time>
      </trkpt>
      <trkpt lat="37.16334423981606960296630859375" lon="-4.18910295702517032623291015625">
        <ele>558.79998779296875</ele>
        <time>2019-10-31T13:40:42.000Z</time>
      </trkpt>
      <trkpt lat="37.1634648554027080535888671875" lon="-4.18936044909060001373291015625">
        <ele>557.79998779296875</ele>
        <time>2019-10-31T13:40:45.000Z</time>
      </trkpt>
      <trkpt lat="37.1636112034320831298828125" lon="-4.18964912183582782745361328125">
        <ele>556.20001220703125</ele>
        <time>2019-10-31T13:40:48.000Z</time>
      </trkpt>
      <trkpt lat="37.1637186594307422637939453125" lon="-4.1898637823760509490966796875">
        <ele>555</ele>
        <time>2019-10-31T13:40:50.000Z</time>
      </trkpt>
      <trkpt lat="37.16383256949484348297119140625" lon="-4.19009168632328510284423828125">
        <ele>553</ele>
        <time>2019-10-31T13:40:52.000Z</time>
      </trkpt>
      <trkpt lat="37.1639486588537693023681640625" lon="-4.19033325277268886566162109375">
        <ele>550.5999755859375</ele>
        <time>2019-10-31T13:40:54.000Z</time>
      </trkpt>
      <trkpt lat="37.16407187283039093017578125" lon="-4.19058085419237613677978515625">
        <ele>548.20001220703125</ele>
        <time>2019-10-31T13:40:56.000Z</time>
      </trkpt>
      <trkpt lat="37.1641986072063446044921875" lon="-4.19083197601139545440673828125">
        <ele>546.5999755859375</ele>
        <time>2019-10-31T13:40:58.000Z</time>
      </trkpt>
      <trkpt lat="37.164327688515186309814453125" lon="-4.19109131209552288055419921875">
        <ele>543.79998779296875</ele>
        <time>2019-10-31T13:41:00.000Z</time>
      </trkpt>
      <trkpt lat="37.1644649840891361236572265625" lon="-4.19135618023574352264404296875">
        <ele>540.20001220703125</ele>
        <time>2019-10-31T13:41:02.000Z</time>
      </trkpt>
      <trkpt lat="37.1646034531295299530029296875" lon="-4.19163194485008716583251953125">
        <ele>537.20001220703125</ele>
        <time>2019-10-31T13:41:04.000Z</time>
      </trkpt>
      <trkpt lat="37.1647409163415431976318359375" lon="-4.19190737418830394744873046875">
        <ele>533</ele>
        <time>2019-10-31T13:41:06.000Z</time>
      </trkpt>
      <trkpt lat="37.16487544588744640350341796875" lon="-4.19218347407877445220947265625">
        <ele>528.5999755859375</ele>
        <time>2019-10-31T13:41:08.000Z</time>
      </trkpt>
      <trkpt lat="37.16500871814787387847900390625" lon="-4.192455299198627471923828125">
        <ele>525.20001220703125</ele>
        <time>2019-10-31T13:41:10.000Z</time>
      </trkpt>
      <trkpt lat="37.165142409503459930419921875" lon="-4.192712791264057159423828125">
        <ele>523.20001220703125</ele>
        <time>2019-10-31T13:41:12.000Z</time>
      </trkpt>
      <trkpt lat="37.16522145085036754608154296875" lon="-4.19283156283199787139892578125">
        <ele>522.5999755859375</ele>
        <time>2019-10-31T13:41:13.000Z</time>
      </trkpt>
      <trkpt lat="37.16539026238024234771728515625" lon="-4.1930167190730571746826171875">
        <ele>520.5999755859375</ele>
        <time>2019-10-31T13:41:15.000Z</time>
      </trkpt>
      <trkpt lat="37.16556544415652751922607421875" lon="-4.19314253143966197967529296875">
        <ele>520.20001220703125</ele>
        <time>2019-10-31T13:41:17.000Z</time>
      </trkpt>
      <trkpt lat="37.16572268866002559661865234375" lon="-4.19319801963865756988525390625">
        <ele>519.79998779296875</ele>
        <time>2019-10-31T13:41:19.000Z</time>
      </trkpt>
      <trkpt lat="37.1658553741872310638427734375" lon="-4.193231128156185150146484375">
        <ele>519.5999755859375</ele>
        <time>2019-10-31T13:41:21.000Z</time>
      </trkpt>
      <trkpt lat="37.1658838726580142974853515625" lon="-4.1933991014957427978515625">
        <ele>520</ele>
        <time>2019-10-31T13:41:25.000Z</time>
      </trkpt>
      <trkpt lat="37.1657604910433292388916015625" lon="-4.19348501600325107574462890625">
        <ele>520.79998779296875</ele>
        <time>2019-10-31T13:41:29.000Z</time>
      </trkpt>
      <trkpt lat="37.16569905169308185577392578125" lon="-4.19351787306368350982666015625">
        <ele>521</ele>
        <time>2019-10-31T13:41:31.000Z</time>
      </trkpt>
      <trkpt lat="37.16554499231278896331787109375" lon="-4.19362046755850315093994140625">
        <ele>521.4000244140625</ele>
        <time>2019-10-31T13:41:35.000Z</time>
      </trkpt>
      <trkpt lat="37.1653568185865879058837890625" lon="-4.1937211342155933380126953125">
        <ele>521.79998779296875</ele>
        <time>2019-10-31T13:41:39.000Z</time>
      </trkpt>
      <trkpt lat="37.16519513167440891265869140625" lon="-4.19379732571542263031005859375">
        <ele>522</ele>
        <time>2019-10-31T13:41:43.000Z</time>
      </trkpt>
      <trkpt lat="37.16500218026340007781982421875" lon="-4.19386538676917552947998046875">
        <ele>522.4000244140625</ele>
        <time>2019-10-31T13:41:48.000Z</time>
      </trkpt>
      <trkpt lat="37.16482431627810001373291015625" lon="-4.19393931515514850616455078125">
        <ele>522.5999755859375</ele>
        <time>2019-10-31T13:41:53.000Z</time>
      </trkpt>
      <trkpt lat="37.16462214477360248565673828125" lon="-4.19401994906365871429443359375">
        <ele>522.79998779296875</ele>
        <time>2019-10-31T13:41:59.000Z</time>
      </trkpt>
      <trkpt lat="37.1644331328570842742919921875" lon="-4.19410980306565761566162109375">
        <ele>523.20001220703125</ele>
        <time>2019-10-31T13:42:05.000Z</time>
      </trkpt>
      <trkpt lat="37.1642715297639369964599609375" lon="-4.19421114027500152587890625">
        <ele>523.5999755859375</ele>
        <time>2019-10-31T13:42:10.000Z</time>
      </trkpt>
      <trkpt lat="37.164100706577301025390625" lon="-4.19432940892875194549560546875">
        <ele>523.79998779296875</ele>
        <time>2019-10-31T13:42:15.000Z</time>
      </trkpt>
      <trkpt lat="37.163937427103519439697265625" lon="-4.19445111416280269622802734375">
        <ele>525</ele>
        <time>2019-10-31T13:42:20.000Z</time>
      </trkpt>
      <trkpt lat="37.16376475989818572998046875" lon="-4.19456125237047672271728515625">
        <ele>526.20001220703125</ele>
        <time>2019-10-31T13:42:25.000Z</time>
      </trkpt>
      <trkpt lat="37.16359117068350315093994140625" lon="-4.1946780122816562652587890625">
        <ele>527.4000244140625</ele>
        <time>2019-10-31T13:42:30.000Z</time>
      </trkpt>
      <trkpt lat="37.163424454629421234130859375" lon="-4.194782786071300506591796875">
        <ele>527.79998779296875</ele>
        <time>2019-10-31T13:42:35.000Z</time>
      </trkpt>
      <trkpt lat="37.1632402203977108001708984375" lon="-4.19490558095276355743408203125">
        <ele>528</ele>
        <time>2019-10-31T13:42:41.000Z</time>
      </trkpt>
      <trkpt lat="37.1630735881626605987548828125" lon="-4.1950111091136932373046875">
        <ele>528.4000244140625</ele>
        <time>2019-10-31T13:42:47.000Z</time>
      </trkpt>
      <trkpt lat="37.1629046089947223663330078125" lon="-4.19510741718113422393798828125">
        <ele>528.5999755859375</ele>
        <time>2019-10-31T13:42:53.000Z</time>
      </trkpt>
      <trkpt lat="37.16270972974598407745361328125" lon="-4.1951618157327175140380859375">
        <ele>528.79998779296875</ele>
        <time>2019-10-31T13:43:00.000Z</time>
      </trkpt>
      <trkpt lat="37.16252666898071765899658203125" lon="-4.195189811289310455322265625">
        <ele>529.5999755859375</ele>
        <time>2019-10-31T13:43:07.000Z</time>
      </trkpt>
      <trkpt lat="37.16234587132930755615234375" lon="-4.1952147893607616424560546875">
        <ele>530.5999755859375</ele>
        <time>2019-10-31T13:43:14.000Z</time>
      </trkpt>
      <trkpt lat="37.162163145840167999267578125" lon="-4.1952349059283733367919921875">
        <ele>532</ele>
        <time>2019-10-31T13:43:21.000Z</time>
      </trkpt>
      <trkpt lat="37.1619765646755695343017578125" lon="-4.1952573694288730621337890625">
        <ele>533.5999755859375</ele>
        <time>2019-10-31T13:43:28.000Z</time>
      </trkpt>
      <trkpt lat="37.16178671456873416900634765625" lon="-4.19527505524456501007080078125">
        <ele>534.79998779296875</ele>
        <time>2019-10-31T13:43:35.000Z</time>
      </trkpt>
      <trkpt lat="37.16160583309829235076904296875" lon="-4.19530807994306087493896484375">
        <ele>535.79998779296875</ele>
        <time>2019-10-31T13:43:42.000Z</time>
      </trkpt>
      <trkpt lat="37.16143392026424407958984375" lon="-4.19538670219480991363525390625">
        <ele>537.4000244140625</ele>
        <time>2019-10-31T13:43:50.000Z</time>
      </trkpt>
      <trkpt lat="37.1612748317420482635498046875" lon="-4.19551871716976165771484375">
        <ele>539.5999755859375</ele>
        <time>2019-10-31T13:43:59.000Z</time>
      </trkpt>
      <trkpt lat="37.1611356921494007110595703125" lon="-4.195683002471923828125">
        <ele>541.20001220703125</ele>
        <time>2019-10-31T13:44:09.000Z</time>
      </trkpt>
      <trkpt lat="37.16100954450666904449462890625" lon="-4.1958712600171566009521484375">
        <ele>542.79998779296875</ele>
        <time>2019-10-31T13:44:19.000Z</time>
      </trkpt>
      <trkpt lat="37.1609023399651050567626953125" lon="-4.196053482592105865478515625">
        <ele>544</ele>
        <time>2019-10-31T13:44:28.000Z</time>
      </trkpt>
      <trkpt lat="37.160742245614528656005859375" lon="-4.19619706459343433380126953125">
        <ele>544.5999755859375</ele>
        <time>2019-10-31T13:44:37.000Z</time>
      </trkpt>
      <trkpt lat="37.1605419181287288665771484375" lon="-4.1962625272572040557861328125">
        <ele>545.5999755859375</ele>
        <time>2019-10-31T13:44:45.000Z</time>
      </trkpt>
      <trkpt lat="37.16040772385895252227783203125" lon="-4.19640786945819854736328125">
        <ele>546.5999755859375</ele>
        <time>2019-10-31T13:44:52.000Z</time>
      </trkpt>
      <trkpt lat="37.1603119187057018280029296875" lon="-4.1966164112091064453125">
        <ele>547.79998779296875</ele>
        <time>2019-10-31T13:45:00.000Z</time>
      </trkpt>
      <trkpt lat="37.1602223999798297882080078125" lon="-4.1968197561800479888916015625">
        <ele>548.79998779296875</ele>
        <time>2019-10-31T13:45:08.000Z</time>
      </trkpt>
      <trkpt lat="37.1601332165300846099853515625" lon="-4.19701815582811832427978515625">
        <ele>549.79998779296875</ele>
        <time>2019-10-31T13:45:16.000Z</time>
      </trkpt>
      <trkpt lat="37.16002651490271091461181640625" lon="-4.19723373837769031524658203125">
        <ele>550.5999755859375</ele>
        <time>2019-10-31T13:45:25.000Z</time>
      </trkpt>
      <trkpt lat="37.15993188321590423583984375" lon="-4.19743557460606098175048828125">
        <ele>551.4000244140625</ele>
        <time>2019-10-31T13:45:33.000Z</time>
      </trkpt>
      <trkpt lat="37.15983859263360500335693359375" lon="-4.19765400700271129608154296875">
        <ele>553.79998779296875</ele>
        <time>2019-10-31T13:45:41.000Z</time>
      </trkpt>
      <trkpt lat="37.15973985381424427032470703125" lon="-4.19785751961171627044677734375">
        <ele>555.5999755859375</ele>
        <time>2019-10-31T13:45:49.000Z</time>
      </trkpt>
      <trkpt lat="37.15964128263294696807861328125" lon="-4.19806136749684810638427734375">
        <ele>556.5999755859375</ele>
        <time>2019-10-31T13:45:57.000Z</time>
      </trkpt>
      <trkpt lat="37.15954120270907878875732421875" lon="-4.198263622820377349853515625">
        <ele>557</ele>
        <time>2019-10-31T13:46:06.000Z</time>
      </trkpt>
      <trkpt lat="37.1594358421862125396728515625" lon="-4.198453724384307861328125">
        <ele>557.4000244140625</ele>
        <time>2019-10-31T13:46:13.000Z</time>
      </trkpt>
      <trkpt lat="37.159313298761844635009765625" lon="-4.198550619184970855712890625">
        <ele>556.4000244140625</ele>
        <time>2019-10-31T13:46:20.000Z</time>
      </trkpt>
      <trkpt lat="37.1593104489147663116455078125" lon="-4.1985504515469074249267578125">
        <ele>556.20001220703125</ele>
        <time>2019-10-31T13:46:24.000Z</time>
      </trkpt>
      <trkpt lat="37.159291841089725494384765625" lon="-4.1985906846821308135986328125">
        <ele>556.20001220703125</ele>
        <time>2019-10-31T13:47:44.000Z</time>
      </trkpt>
      <trkpt lat="37.1592846326529979705810546875" lon="-4.198553301393985748291015625">
        <ele>555.5999755859375</ele>
        <time>2019-10-31T13:47:50.000Z</time>
      </trkpt>
      <trkpt lat="37.15924247168004512786865234375" lon="-4.19877449981868267059326171875">
        <ele>556.4000244140625</ele>
        <time>2019-10-31T13:49:02.000Z</time>
      </trkpt>
      <trkpt lat="37.15910685248672962188720703125" lon="-4.1989725641906261444091796875">
        <ele>555</ele>
        <time>2019-10-31T13:49:06.000Z</time>
      </trkpt>
      <trkpt lat="37.15899000875651836395263671875" lon="-4.19918772764503955841064453125">
        <ele>553</ele>
        <time>2019-10-31T13:49:09.000Z</time>
      </trkpt>
      <trkpt lat="37.1588789485394954681396484375" lon="-4.1994385980069637298583984375">
        <ele>550</ele>
        <time>2019-10-31T13:49:12.000Z</time>
      </trkpt>
      <trkpt lat="37.158763445913791656494140625" lon="-4.199735485017299652099609375">
        <ele>547.4000244140625</ele>
        <time>2019-10-31T13:49:15.000Z</time>
      </trkpt>
      <trkpt lat="37.15868256054818630218505859375" lon="-4.19995651580393314361572265625">
        <ele>545.5999755859375</ele>
        <time>2019-10-31T13:49:17.000Z</time>
      </trkpt>
      <trkpt lat="37.1586026810109615325927734375" lon="-4.2002013511955738067626953125">
        <ele>544</ele>
        <time>2019-10-31T13:49:19.000Z</time>
      </trkpt>
      <trkpt lat="37.15853671543300151824951171875" lon="-4.20047502033412456512451171875">
        <ele>542.20001220703125</ele>
        <time>2019-10-31T13:49:21.000Z</time>
      </trkpt>
      <trkpt lat="37.15849581174552440643310546875" lon="-4.20077073387801647186279296875">
        <ele>541.79998779296875</ele>
        <time>2019-10-31T13:49:23.000Z</time>
      </trkpt>
      <trkpt lat="37.15845842845737934112548828125" lon="-4.20105337165296077728271484375">
        <ele>540.20001220703125</ele>
        <time>2019-10-31T13:49:25.000Z</time>
      </trkpt>
      <trkpt lat="37.1584202907979488372802734375" lon="-4.20132628642022609710693359375">
        <ele>538.79998779296875</ele>
        <time>2019-10-31T13:49:27.000Z</time>
      </trkpt>
      <trkpt lat="37.1583824045956134796142578125" lon="-4.20158863998949527740478515625">
        <ele>537.5999755859375</ele>
        <time>2019-10-31T13:49:29.000Z</time>
      </trkpt>
      <trkpt lat="37.15833957307040691375732421875" lon="-4.20184613205492496490478515625">
        <ele>537.79998779296875</ele>
        <time>2019-10-31T13:49:31.000Z</time>
      </trkpt>
      <trkpt lat="37.15829045511782169342041015625" lon="-4.20210513286292552947998046875">
        <ele>537.79998779296875</ele>
        <time>2019-10-31T13:49:33.000Z</time>
      </trkpt>
      <trkpt lat="37.1582333743572235107421875" lon="-4.2023538239300251007080078125">
        <ele>537.5999755859375</ele>
        <time>2019-10-31T13:49:35.000Z</time>
      </trkpt>
      <trkpt lat="37.15816506184637546539306640625" lon="-4.20258633792400360107421875">
        <ele>537</ele>
        <time>2019-10-31T13:49:37.000Z</time>
      </trkpt>
      <trkpt lat="37.15809247456490993499755859375" lon="-4.202799238264560699462890625">
        <ele>536.20001220703125</ele>
        <time>2019-10-31T13:49:39.000Z</time>
      </trkpt>
      <trkpt lat="37.15801117010414600372314453125" lon="-4.2030106298625469207763671875">
        <ele>535.5999755859375</ele>
        <time>2019-10-31T13:49:41.000Z</time>
      </trkpt>
      <trkpt lat="37.15792156755924224853515625" lon="-4.20322596095502376556396484375">
        <ele>535.4000244140625</ele>
        <time>2019-10-31T13:49:43.000Z</time>
      </trkpt>
      <trkpt lat="37.15783095918595790863037109375" lon="-4.203464426100254058837890625">
        <ele>534.20001220703125</ele>
        <time>2019-10-31T13:49:45.000Z</time>
      </trkpt>
      <trkpt lat="37.15773087926208972930908203125" lon="-4.2037284560501575469970703125">
        <ele>532.5999755859375</ele>
        <time>2019-10-31T13:49:47.000Z</time>
      </trkpt>
      <trkpt lat="37.15763515792787075042724609375" lon="-4.2040099203586578369140625">
        <ele>530.20001220703125</ele>
        <time>2019-10-31T13:49:49.000Z</time>
      </trkpt>
      <trkpt lat="37.157565839588642120361328125" lon="-4.20429666526615619659423828125">
        <ele>526.20001220703125</ele>
        <time>2019-10-31T13:49:51.000Z</time>
      </trkpt>
      <trkpt lat="37.1575199067592620849609375" lon="-4.20459774322807788848876953125">
        <ele>523.79998779296875</ele>
        <time>2019-10-31T13:49:53.000Z</time>
      </trkpt>
      <trkpt lat="37.15749241411685943603515625" lon="-4.20490519143640995025634765625">
        <ele>520.79998779296875</ele>
        <time>2019-10-31T13:49:55.000Z</time>
      </trkpt>
      <trkpt lat="37.15749375522136688232421875" lon="-4.20505690388381481170654296875">
        <ele>519.5999755859375</ele>
        <time>2019-10-31T13:49:56.000Z</time>
      </trkpt>
      <trkpt lat="37.15753759257495403289794921875" lon="-4.20535513199865818023681640625">
        <ele>516.20001220703125</ele>
        <time>2019-10-31T13:49:58.000Z</time>
      </trkpt>
      <trkpt lat="37.15767882764339447021484375" lon="-4.2056284658610820770263671875">
        <ele>513.20001220703125</ele>
        <time>2019-10-31T13:50:00.000Z</time>
      </trkpt>
      <trkpt lat="37.15784504078328609466552734375" lon="-4.205834157764911651611328125">
        <ele>509.79998779296875</ele>
        <time>2019-10-31T13:50:02.000Z</time>
      </trkpt>
      <trkpt lat="37.15803614817559719085693359375" lon="-4.20603356324136257171630859375">
        <ele>508.20001220703125</ele>
        <time>2019-10-31T13:50:05.000Z</time>
      </trkpt>
      <trkpt lat="37.15814846567809581756591796875" lon="-4.20613146387040615081787109375">
        <ele>507.20001220703125</ele>
        <time>2019-10-31T13:50:08.000Z</time>
      </trkpt>
      <trkpt lat="37.15827318839728832244873046875" lon="-4.2061404325067996978759765625">
        <ele>508</ele>
        <time>2019-10-31T13:50:12.000Z</time>
      </trkpt>
      <trkpt lat="37.1584266610443592071533203125" lon="-4.20614537782967090606689453125">
        <ele>509.20001220703125</ele>
        <time>2019-10-31T13:50:16.000Z</time>
      </trkpt>
      <trkpt lat="37.15850754640996456146240234375" lon="-4.20618049800395965576171875">
        <ele>509.399993896484375</ele>
        <time>2019-10-31T13:50:18.000Z</time>
      </trkpt>
      <trkpt lat="37.158630676567554473876953125" lon="-4.20640756376087665557861328125">
        <ele>508.20001220703125</ele>
        <time>2019-10-31T13:50:23.000Z</time>
      </trkpt>
      <trkpt lat="37.15856663882732391357421875" lon="-4.20666337944567203521728515625">
        <ele>505.600006103515625</ele>
        <time>2019-10-31T13:50:27.000Z</time>
      </trkpt>
      <trkpt lat="37.15837427414953708648681640625" lon="-4.206776954233646392822265625">
        <ele>503</ele>
        <time>2019-10-31T13:50:30.000Z</time>
      </trkpt>
      <trkpt lat="37.15812583453953266143798828125" lon="-4.20671920292079448699951171875">
        <ele>501.399993896484375</ele>
        <time>2019-10-31T13:50:33.000Z</time>
      </trkpt>
      <trkpt lat="37.15794880874454975128173828125" lon="-4.206660948693752288818359375">
        <ele>500.20001220703125</ele>
        <time>2019-10-31T13:50:35.000Z</time>
      </trkpt>
      <trkpt lat="37.15776323340833187103271484375" lon="-4.20662465505301952362060546875">
        <ele>500.600006103515625</ele>
        <time>2019-10-31T13:50:37.000Z</time>
      </trkpt>
      <trkpt lat="37.15756952762603759765625" lon="-4.20660252682864665985107421875">
        <ele>500.79998779296875</ele>
        <time>2019-10-31T13:50:39.000Z</time>
      </trkpt>
      <trkpt lat="37.15737498365342617034912109375" lon="-4.20657880604267120361328125">
        <ele>501</ele>
        <time>2019-10-31T13:50:41.000Z</time>
      </trkpt>
      <trkpt lat="37.15717582963407039642333984375" lon="-4.2065513134002685546875">
        <ele>500.600006103515625</ele>
        <time>2019-10-31T13:50:43.000Z</time>
      </trkpt>
      <trkpt lat="37.156972400844097137451171875" lon="-4.2065152712166309356689453125">
        <ele>499.600006103515625</ele>
        <time>2019-10-31T13:50:45.000Z</time>
      </trkpt>
      <trkpt lat="37.15675857849419116973876953125" lon="-4.2065055482089519500732421875">
        <ele>497.600006103515625</ele>
        <time>2019-10-31T13:50:47.000Z</time>
      </trkpt>
      <trkpt lat="37.1565578319132328033447265625" lon="-4.2064850963652133941650390625">
        <ele>495.600006103515625</ele>
        <time>2019-10-31T13:50:49.000Z</time>
      </trkpt>
      <trkpt lat="37.15637150220572948455810546875" lon="-4.20649163424968719482421875">
        <ele>494.20001220703125</ele>
        <time>2019-10-31T13:50:51.000Z</time>
      </trkpt>
      <trkpt lat="37.15612809173762798309326171875" lon="-4.20654452405869960784912109375">
        <ele>492</ele>
        <time>2019-10-31T13:50:54.000Z</time>
      </trkpt>
      <trkpt lat="37.1559452824294567108154296875" lon="-4.20671635307371616363525390625">
        <ele>491</ele>
        <time>2019-10-31T13:50:57.000Z</time>
      </trkpt>
      <trkpt lat="37.15589918196201324462890625" lon="-4.20677326619625091552734375">
        <ele>491</ele>
        <time>2019-10-31T13:50:58.000Z</time>
      </trkpt>
      <trkpt lat="37.15580371208488941192626953125" lon="-4.20692707411944866180419921875">
        <ele>491</ele>
        <time>2019-10-31T13:51:02.000Z</time>
      </trkpt>
      <trkpt lat="37.15577588416635990142822265625" lon="-4.20700930058956146240234375">
        <ele>491</ele>
        <time>2019-10-31T13:51:13.000Z</time>
      </trkpt>
      <trkpt lat="37.15572190470993518829345703125" lon="-4.20694014988839626312255859375">
        <ele>491.20001220703125</ele>
        <time>2019-10-31T13:51:18.000Z</time>
      </trkpt>
      <trkpt lat="37.1557431109249591827392578125" lon="-4.20684174634516239166259765625">
        <ele>491</ele>
        <time>2019-10-31T13:51:22.000Z</time>
      </trkpt>
      <trkpt lat="37.155845873057842254638671875" lon="-4.20665499754250049591064453125">
        <ele>491</ele>
        <time>2019-10-31T13:51:31.000Z</time>
      </trkpt>
      <trkpt lat="37.15585333295166492462158203125" lon="-4.20664317905902862548828125">
        <ele>491</ele>
        <time>2019-10-31T13:51:33.000Z</time>
      </trkpt>
      <trkpt lat="37.15585333295166492462158203125" lon="-4.2066577635705471038818359375">
        <ele>491</ele>
        <time>2019-10-31T13:51:37.000Z</time>
      </trkpt>
      <trkpt lat="37.15575861744582653045654296875" lon="-4.20703536830842494964599609375">
        <ele>491</ele>
        <time>2019-10-31T13:57:04.000Z</time>
      </trkpt>
      <trkpt lat="37.1556777320802211761474609375" lon="-4.2072525434195995330810546875">
        <ele>491.399993896484375</ele>
        <time>2019-10-31T13:57:11.000Z</time>
      </trkpt>
      <trkpt lat="37.15560908429324626922607421875" lon="-4.20749075710773468017578125">
        <ele>492</ele>
        <time>2019-10-31T13:57:18.000Z</time>
      </trkpt>
      <trkpt lat="37.15551562607288360595703125" lon="-4.20769586227834224700927734375">
        <ele>492.600006103515625</ele>
        <time>2019-10-31T13:57:26.000Z</time>
      </trkpt>
      <trkpt lat="37.15545720420777797698974609375" lon="-4.207920916378498077392578125">
        <ele>493.79998779296875</ele>
        <time>2019-10-31T13:57:35.000Z</time>
      </trkpt>
      <trkpt lat="37.1554011292755603790283203125" lon="-4.208148233592510223388671875">
        <ele>494.79998779296875</ele>
        <time>2019-10-31T13:57:44.000Z</time>
      </trkpt>
      <trkpt lat="37.15536885894834995269775390625" lon="-4.20839608646929264068603515625">
        <ele>494.79998779296875</ele>
        <time>2019-10-31T13:57:52.000Z</time>
      </trkpt>
      <trkpt lat="37.15535243041813373565673828125" lon="-4.2086436040699481964111328125">
        <ele>494.79998779296875</ele>
        <time>2019-10-31T13:58:00.000Z</time>
      </trkpt>
      <trkpt lat="37.1553387679159641265869140625" lon="-4.20887410640716552734375">
        <ele>495.600006103515625</ele>
        <time>2019-10-31T13:58:08.000Z</time>
      </trkpt>
      <trkpt lat="37.155322842299938201904296875" lon="-4.2090999148786067962646484375">
        <ele>497.20001220703125</ele>
        <time>2019-10-31T13:58:16.000Z</time>
      </trkpt>
      <trkpt lat="37.15531286783516407012939453125" lon="-4.20934592373669147491455078125">
        <ele>498.79998779296875</ele>
        <time>2019-10-31T13:58:25.000Z</time>
      </trkpt>
      <trkpt lat="37.15530280955135822296142578125" lon="-4.20959972776472568511962890625">
        <ele>500.399993896484375</ele>
        <time>2019-10-31T13:58:34.000Z</time>
      </trkpt>
      <trkpt lat="37.1552924998104572296142578125" lon="-4.20982872135937213897705078125">
        <ele>502</ele>
        <time>2019-10-31T13:58:42.000Z</time>
      </trkpt>
      <trkpt lat="37.1552864648401737213134765625" lon="-4.2100695334374904632568359375">
        <ele>503.79998779296875</ele>
        <time>2019-10-31T13:58:51.000Z</time>
      </trkpt>
      <trkpt lat="37.1552703715860843658447265625" lon="-4.2103092558681964874267578125">
        <ele>506.20001220703125</ele>
        <time>2019-10-31T13:59:00.000Z</time>
      </trkpt>
      <trkpt lat="37.1552053280174732208251953125" lon="-4.21053372323513031005859375">
        <ele>508.600006103515625</ele>
        <time>2019-10-31T13:59:10.000Z</time>
      </trkpt>
      <trkpt lat="37.15523541904985904693603515625" lon="-4.21069222502410411834716796875">
        <ele>510.20001220703125</ele>
        <time>2019-10-31T13:59:17.000Z</time>
      </trkpt>
      <trkpt lat="37.1552512608468532562255859375" lon="-4.21093597076833248138427734375">
        <ele>511.20001220703125</ele>
        <time>2019-10-31T13:59:27.000Z</time>
      </trkpt>
      <trkpt lat="37.1552586369216442108154296875" lon="-4.21116110868752002716064453125">
        <ele>511.79998779296875</ele>
        <time>2019-10-31T13:59:35.000Z</time>
      </trkpt>
      <trkpt lat="37.15526944957673549652099609375" lon="-4.2113928683102130889892578125">
        <ele>513.5999755859375</ele>
        <time>2019-10-31T13:59:45.000Z</time>
      </trkpt>
      <trkpt lat="37.15528185479342937469482421875" lon="-4.21162546612322330474853515625">
        <ele>516.20001220703125</ele>
        <time>2019-10-31T13:59:57.000Z</time>
      </trkpt>
      <trkpt lat="37.15528503991663455963134765625" lon="-4.21166486106812953948974609375">
        <ele>516.5999755859375</ele>
        <time>2019-10-31T13:59:59.000Z</time>
      </trkpt>
      <trkpt lat="37.1552653424441814422607421875" lon="-4.2118924297392368316650390625">
        <ele>518.79998779296875</ele>
        <time>2019-10-31T14:00:10.000Z</time>
      </trkpt>
      <trkpt lat="37.15524178929626941680908203125" lon="-4.21213206835091114044189453125">
        <ele>520.79998779296875</ele>
        <time>2019-10-31T14:00:22.000Z</time>
      </trkpt>
      <trkpt lat="37.155200131237506866455078125" lon="-4.21227791346609592437744140625">
        <ele>522.20001220703125</ele>
        <time>2019-10-31T14:00:29.000Z</time>
      </trkpt>
      <trkpt lat="37.155151180922985076904296875" lon="-4.21250992454588413238525390625">
        <ele>525.20001220703125</ele>
        <time>2019-10-31T14:00:41.000Z</time>
      </trkpt>
      <trkpt lat="37.15510097332298755645751953125" lon="-4.21258586458861827850341796875">
        <ele>526.4000244140625</ele>
        <time>2019-10-31T14:00:51.000Z</time>
      </trkpt>
      <trkpt lat="37.155099213123321533203125" lon="-4.21273858286440372467041015625">
        <ele>528.4000244140625</ele>
        <time>2019-10-31T14:01:02.000Z</time>
      </trkpt>
      <trkpt lat="37.15510256588459014892578125" lon="-4.212942011654376983642578125">
        <ele>531.20001220703125</ele>
        <time>2019-10-31T14:01:19.000Z</time>
      </trkpt>
      <trkpt lat="37.155098877847194671630859375" lon="-4.21294125728309154510498046875">
        <ele>531.20001220703125</ele>
        <time>2019-10-31T14:01:23.000Z</time>
      </trkpt>
      <trkpt lat="37.15494121424853801727294921875" lon="-4.21462467871606349945068359375">
        <ele>545.5999755859375</ele>
        <time>2019-10-31T14:04:01.000Z</time>
      </trkpt>
      <trkpt lat="37.154884301126003265380859375" lon="-4.21485501341521739959716796875">
        <ele>544.79998779296875</ele>
        <time>2019-10-31T14:04:08.000Z</time>
      </trkpt>
      <trkpt lat="37.154827974736690521240234375" lon="-4.2151020281016826629638671875">
        <ele>544.20001220703125</ele>
        <time>2019-10-31T14:04:15.000Z</time>
      </trkpt>
      <trkpt lat="37.1547825448215007781982421875" lon="-4.21535004861652851104736328125">
        <ele>544.4000244140625</ele>
        <time>2019-10-31T14:04:21.000Z</time>
      </trkpt>
      <trkpt lat="37.154756896197795867919921875" lon="-4.215599410235881805419921875">
        <ele>544.20001220703125</ele>
        <time>2019-10-31T14:04:27.000Z</time>
      </trkpt>
      <trkpt lat="37.154704593122005462646484375" lon="-4.2158473469316959381103515625">
        <ele>545</ele>
        <time>2019-10-31T14:04:34.000Z</time>
      </trkpt>
      <trkpt lat="37.15469763614237308502197265625" lon="-4.2161061801016330718994140625">
        <ele>546</ele>
        <time>2019-10-31T14:04:42.000Z</time>
      </trkpt>
      <trkpt lat="37.15468053705990314483642578125" lon="-4.21636627055704593658447265625">
        <ele>547.5999755859375</ele>
        <time>2019-10-31T14:04:49.000Z</time>
      </trkpt>
      <trkpt lat="37.15466897003352642059326171875" lon="-4.216622672975063323974609375">
        <ele>549.20001220703125</ele>
        <time>2019-10-31T14:04:56.000Z</time>
      </trkpt>
      <trkpt lat="37.15476502664387226104736328125" lon="-4.21681587584316730499267578125">
        <ele>549.79998779296875</ele>
        <time>2019-10-31T14:05:03.000Z</time>
      </trkpt>
      <trkpt lat="37.15483275242149829864501953125" lon="-4.21703363768756389617919921875">
        <ele>550.5999755859375</ele>
        <time>2019-10-31T14:05:12.000Z</time>
      </trkpt>
      <trkpt lat="37.1548586525022983551025390625" lon="-4.217269085347652435302734375">
        <ele>552.4000244140625</ele>
        <time>2019-10-31T14:05:22.000Z</time>
      </trkpt>
      <trkpt lat="37.1547972969710826873779296875" lon="-4.2175072990357875823974609375">
        <ele>555</ele>
        <time>2019-10-31T14:05:32.000Z</time>
      </trkpt>
      <trkpt lat="37.15470685623586177825927734375" lon="-4.217723049223423004150390625">
        <ele>557.4000244140625</ele>
        <time>2019-10-31T14:05:41.000Z</time>
      </trkpt>
      <trkpt lat="37.15462219901382923126220703125" lon="-4.217941649258136749267578125">
        <ele>560.4000244140625</ele>
        <time>2019-10-31T14:05:50.000Z</time>
      </trkpt>
      <trkpt lat="37.15453930199146270751953125" lon="-4.21814340166747570037841796875">
        <ele>561.79998779296875</ele>
        <time>2019-10-31T14:05:59.000Z</time>
      </trkpt>
      <trkpt lat="37.1544702351093292236328125" lon="-4.21835831366479396820068359375">
        <ele>563.20001220703125</ele>
        <time>2019-10-31T14:06:08.000Z</time>
      </trkpt>
      <trkpt lat="37.15440074913203716278076171875" lon="-4.21859242022037506103515625">
        <ele>564.20001220703125</ele>
        <time>2019-10-31T14:06:18.000Z</time>
      </trkpt>
      <trkpt lat="37.1543409861624240875244140625" lon="-4.21881227754056453704833984375">
        <ele>565</ele>
        <time>2019-10-31T14:06:27.000Z</time>
      </trkpt>
      <trkpt lat="37.15426948852837085723876953125" lon="-4.2190351523458957672119140625">
        <ele>567.4000244140625</ele>
        <time>2019-10-31T14:06:36.000Z</time>
      </trkpt>
      <trkpt lat="37.15419656597077846527099609375" lon="-4.21924863941967487335205078125">
        <ele>569.79998779296875</ele>
        <time>2019-10-31T14:06:45.000Z</time>
      </trkpt>
      <trkpt lat="37.1541143395006656646728515625" lon="-4.219474531710147857666015625">
        <ele>571.79998779296875</ele>
        <time>2019-10-31T14:06:55.000Z</time>
      </trkpt>
      <trkpt lat="37.154017277061939239501953125" lon="-4.21967075206339359283447265625">
        <ele>573.4000244140625</ele>
        <time>2019-10-31T14:07:04.000Z</time>
      </trkpt>
      <trkpt lat="37.1539017744362354278564453125" lon="-4.2198471911251544952392578125">
        <ele>574.20001220703125</ele>
        <time>2019-10-31T14:07:13.000Z</time>
      </trkpt>
      <trkpt lat="37.15378350578248500823974609375" lon="-4.22002337872982025146484375">
        <ele>574.79998779296875</ele>
        <time>2019-10-31T14:07:22.000Z</time>
      </trkpt>
      <trkpt lat="37.15365744195878505706787109375" lon="-4.22019369900226593017578125">
        <ele>576.4000244140625</ele>
        <time>2019-10-31T14:07:30.000Z</time>
      </trkpt>
      <trkpt lat="37.1535421907901763916015625" lon="-4.22038455493748188018798828125">
        <ele>577.79998779296875</ele>
        <time>2019-10-31T14:07:38.000Z</time>
      </trkpt>
      <trkpt lat="37.15344588272273540496826171875" lon="-4.22060617245733737945556640625">
        <ele>579.4000244140625</ele>
        <time>2019-10-31T14:07:46.000Z</time>
      </trkpt>
      <trkpt lat="37.153371535241603851318359375" lon="-4.22083432786166667938232421875">
        <ele>580.5999755859375</ele>
        <time>2019-10-31T14:07:54.000Z</time>
      </trkpt>
      <trkpt lat="37.15330439619719982147216796875" lon="-4.221045970916748046875">
        <ele>580.20001220703125</ele>
        <time>2019-10-31T14:08:02.000Z</time>
      </trkpt>
      <trkpt lat="37.15323382057249546051025390625" lon="-4.22127353958785533905029296875">
        <ele>580.4000244140625</ele>
        <time>2019-10-31T14:08:11.000Z</time>
      </trkpt>
      <trkpt lat="37.153158299624919891357421875" lon="-4.2215037904679775238037109375">
        <ele>580.4000244140625</ele>
        <time>2019-10-31T14:08:20.000Z</time>
      </trkpt>
      <trkpt lat="37.15308286249637603759765625" lon="-4.2217312753200531005859375">
        <ele>580.79998779296875</ele>
        <time>2019-10-31T14:08:29.000Z</time>
      </trkpt>
      <trkpt lat="37.15300952084362506866455078125" lon="-4.22196420840919017791748046875">
        <ele>582.5999755859375</ele>
        <time>2019-10-31T14:08:38.000Z</time>
      </trkpt>
      <trkpt lat="37.15295143425464630126953125" lon="-4.22220376320183277130126953125">
        <ele>584.4000244140625</ele>
        <time>2019-10-31T14:08:47.000Z</time>
      </trkpt>
      <trkpt lat="37.1529174037277698516845703125" lon="-4.22243912704288959503173828125">
        <ele>586</ele>
        <time>2019-10-31T14:08:55.000Z</time>
      </trkpt>
      <trkpt lat="37.15289904735982418060302734375" lon="-4.2226832918822765350341796875">
        <ele>587</ele>
        <time>2019-10-31T14:09:03.000Z</time>
      </trkpt>
      <trkpt lat="37.15287691913545131683349609375" lon="-4.222931228578090667724609375">
        <ele>586.79998779296875</ele>
        <time>2019-10-31T14:09:11.000Z</time>
      </trkpt>
      <trkpt lat="37.15285009704530239105224609375" lon="-4.22317455522716045379638671875">
        <ele>586.79998779296875</ele>
        <time>2019-10-31T14:09:19.000Z</time>
      </trkpt>
      <trkpt lat="37.15282738208770751953125" lon="-4.22341310419142246246337890625">
        <ele>586.79998779296875</ele>
        <time>2019-10-31T14:09:27.000Z</time>
      </trkpt>
      <trkpt lat="37.1527977101504802703857421875" lon="-4.2236555926501750946044921875">
        <ele>586.4000244140625</ele>
        <time>2019-10-31T14:09:35.000Z</time>
      </trkpt>
      <trkpt lat="37.152730487287044525146484375" lon="-4.22389221377670764923095703125">
        <ele>586.5999755859375</ele>
        <time>2019-10-31T14:09:43.000Z</time>
      </trkpt>
      <trkpt lat="37.1526317484676837921142578125" lon="-4.22410125844180583953857421875">
        <ele>587</ele>
        <time>2019-10-31T14:09:51.000Z</time>
      </trkpt>
      <trkpt lat="37.152503170073032379150390625" lon="-4.2242875881493091583251953125">
        <ele>587.5999755859375</ele>
        <time>2019-10-31T14:09:59.000Z</time>
      </trkpt>
      <trkpt lat="37.15236981399357318878173828125" lon="-4.22447660006582736968994140625">
        <ele>588.5999755859375</ele>
        <time>2019-10-31T14:10:07.000Z</time>
      </trkpt>
      <trkpt lat="37.15223587118089199066162109375" lon="-4.22466049902141094207763671875">
        <ele>590.20001220703125</ele>
        <time>2019-10-31T14:10:15.000Z</time>
      </trkpt>
      <trkpt lat="37.152135372161865234375" lon="-4.22486199997365474700927734375">
        <ele>591.79998779296875</ele>
        <time>2019-10-31T14:10:23.000Z</time>
      </trkpt>
      <trkpt lat="37.15208047069609165191650390625" lon="-4.22508604824542999267578125">
        <ele>591.5999755859375</ele>
        <time>2019-10-31T14:10:31.000Z</time>
      </trkpt>
      <trkpt lat="37.1520530618727207183837890625" lon="-4.22532887198030948638916015625">
        <ele>591</ele>
        <time>2019-10-31T14:10:40.000Z</time>
      </trkpt>
      <trkpt lat="37.15205750428140163421630859375" lon="-4.22556524164974689483642578125">
        <ele>590.20001220703125</ele>
        <time>2019-10-31T14:10:48.000Z</time>
      </trkpt>
      <trkpt lat="37.15209170244634151458740234375" lon="-4.225817956030368804931640625">
        <ele>590.4000244140625</ele>
        <time>2019-10-31T14:10:56.000Z</time>
      </trkpt>
      <trkpt lat="37.15211994946002960205078125" lon="-4.2260471172630786895751953125">
        <ele>592.20001220703125</ele>
        <time>2019-10-31T14:11:04.000Z</time>
      </trkpt>
      <trkpt lat="37.15215708129107952117919921875" lon="-4.2262942157685756683349609375">
        <ele>594.79998779296875</ele>
        <time>2019-10-31T14:11:12.000Z</time>
      </trkpt>
      <trkpt lat="37.15219907462596893310546875" lon="-4.22653553076088428497314453125">
        <ele>599</ele>
        <time>2019-10-31T14:11:20.000Z</time>
      </trkpt>
      <trkpt lat="37.15222832746803760528564453125" lon="-4.2267860658466815948486328125">
        <ele>601.79998779296875</ele>
        <time>2019-10-31T14:11:28.000Z</time>
      </trkpt>
      <trkpt lat="37.15220443904399871826171875" lon="-4.227016903460025787353515625">
        <ele>602.79998779296875</ele>
        <time>2019-10-31T14:11:36.000Z</time>
      </trkpt>
      <trkpt lat="37.15208508074283599853515625" lon="-4.22721195034682750701904296875">
        <ele>603.5999755859375</ele>
        <time>2019-10-31T14:11:45.000Z</time>
      </trkpt>
      <trkpt lat="37.15193714015185832977294921875" lon="-4.22736383043229579925537109375">
        <ele>604.79998779296875</ele>
        <time>2019-10-31T14:11:53.000Z</time>
      </trkpt>
      <trkpt lat="37.151758857071399688720703125" lon="-4.22745267860591411590576171875">
        <ele>606.20001220703125</ele>
        <time>2019-10-31T14:12:01.000Z</time>
      </trkpt>
      <trkpt lat="37.1515585295855998992919921875" lon="-4.22750900499522686004638671875">
        <ele>608.79998779296875</ele>
        <time>2019-10-31T14:12:09.000Z</time>
      </trkpt>
      <trkpt lat="37.1513811685144901275634765625" lon="-4.22755292616784572601318359375">
        <ele>610.5999755859375</ele>
        <time>2019-10-31T14:12:16.000Z</time>
      </trkpt>
      <trkpt lat="37.1512059867382049560546875" lon="-4.227613024413585662841796875">
        <ele>612.4000244140625</ele>
        <time>2019-10-31T14:12:23.000Z</time>
      </trkpt>
      <trkpt lat="37.1510297991335391998291015625" lon="-4.22771184705197811126708984375">
        <ele>614.20001220703125</ele>
        <time>2019-10-31T14:12:31.000Z</time>
      </trkpt>
      <trkpt lat="37.15086601674556732177734375" lon="-4.22782994806766510009765625">
        <ele>615.20001220703125</ele>
        <time>2019-10-31T14:12:39.000Z</time>
      </trkpt>
      <trkpt lat="37.1507106162607669830322265625" lon="-4.22796715982258319854736328125">
        <ele>616.5999755859375</ele>
        <time>2019-10-31T14:12:47.000Z</time>
      </trkpt>
      <trkpt lat="37.15054926462471485137939453125" lon="-4.22811887226998805999755859375">
        <ele>617.5999755859375</ele>
        <time>2019-10-31T14:12:55.000Z</time>
      </trkpt>
      <trkpt lat="37.150396294891834259033203125" lon="-4.22824426554143428802490234375">
        <ele>618.4000244140625</ele>
        <time>2019-10-31T14:13:03.000Z</time>
      </trkpt>
      <trkpt lat="37.15023041702806949615478515625" lon="-4.2283348739147186279296875">
        <ele>618.79998779296875</ele>
        <time>2019-10-31T14:13:11.000Z</time>
      </trkpt>
      <trkpt lat="37.150051295757293701171875" lon="-4.22839430160820484161376953125">
        <ele>619</ele>
        <time>2019-10-31T14:13:19.000Z</time>
      </trkpt>
      <trkpt lat="37.14987234212458133697509765625" lon="-4.22844341956079006195068359375">
        <ele>619.20001220703125</ele>
        <time>2019-10-31T14:13:27.000Z</time>
      </trkpt>
      <trkpt lat="37.1496829949319362640380859375" lon="-4.228508882224559783935546875">
        <ele>619</ele>
        <time>2019-10-31T14:13:36.000Z</time>
      </trkpt>
      <trkpt lat="37.149532623589038848876953125" lon="-4.2286310903728008270263671875">
        <ele>620</ele>
        <time>2019-10-31T14:13:44.000Z</time>
      </trkpt>
      <trkpt lat="37.14946062304079532623291015625" lon="-4.22885078005492687225341796875">
        <ele>623</ele>
        <time>2019-10-31T14:13:52.000Z</time>
      </trkpt>
      <trkpt lat="37.149495743215084075927734375" lon="-4.22908815555274486541748046875">
        <ele>625</ele>
        <time>2019-10-31T14:14:00.000Z</time>
      </trkpt>
      <trkpt lat="37.1495725214481353759765625" lon="-4.22930809669196605682373046875">
        <ele>626</ele>
        <time>2019-10-31T14:14:08.000Z</time>
      </trkpt>
      <trkpt lat="37.1496937237679958343505859375" lon="-4.22949216328561305999755859375">
        <ele>626.5999755859375</ele>
        <time>2019-10-31T14:14:16.000Z</time>
      </trkpt>
      <trkpt lat="37.1498570032417774200439453125" lon="-4.22960766591131687164306640625">
        <ele>627.5999755859375</ele>
        <time>2019-10-31T14:14:24.000Z</time>
      </trkpt>
      <trkpt lat="37.1500204503536224365234375" lon="-4.22971948049962520599365234375">
        <ele>629</ele>
        <time>2019-10-31T14:14:32.000Z</time>
      </trkpt>
      <trkpt lat="37.15018833987414836883544921875" lon="-4.22980162315070629119873046875">
        <ele>631.20001220703125</ele>
        <time>2019-10-31T14:14:40.000Z</time>
      </trkpt>
      <trkpt lat="37.1503565646708011627197265625" lon="-4.22988426871597766876220703125">
        <ele>633.20001220703125</ele>
        <time>2019-10-31T14:14:48.000Z</time>
      </trkpt>
      <trkpt lat="37.15052110143005847930908203125" lon="-4.22997596673667430877685546875">
        <ele>634.20001220703125</ele>
        <time>2019-10-31T14:14:56.000Z</time>
      </trkpt>
      <trkpt lat="37.15070634149014949798583984375" lon="-4.23008375801146030426025390625">
        <ele>635.20001220703125</ele>
        <time>2019-10-31T14:15:05.000Z</time>
      </trkpt>
      <trkpt lat="37.1508698724210262298583984375" lon="-4.23019674606621265411376953125">
        <ele>635.5999755859375</ele>
        <time>2019-10-31T14:15:13.000Z</time>
      </trkpt>
      <trkpt lat="37.1510361693799495697021484375" lon="-4.23031191341578960418701171875">
        <ele>636.4000244140625</ele>
        <time>2019-10-31T14:15:21.000Z</time>
      </trkpt>
      <trkpt lat="37.15119483880698680877685546875" lon="-4.23043697141110897064208984375">
        <ele>637.4000244140625</ele>
        <time>2019-10-31T14:15:29.000Z</time>
      </trkpt>
      <trkpt lat="37.15135526843369007110595703125" lon="-4.23058055341243743896484375">
        <ele>638</ele>
        <time>2019-10-31T14:15:38.000Z</time>
      </trkpt>
      <trkpt lat="37.151511423289775848388671875" lon="-4.2307071201503276824951171875">
        <ele>638.5999755859375</ele>
        <time>2019-10-31T14:15:46.000Z</time>
      </trkpt>
      <trkpt lat="37.15167042799293994903564453125" lon="-4.23084567300975322723388671875">
        <ele>639.5999755859375</ele>
        <time>2019-10-31T14:15:54.000Z</time>
      </trkpt>
      <trkpt lat="37.15183437801897525787353515625" lon="-4.23099101521074771881103515625">
        <ele>640.5999755859375</ele>
        <time>2019-10-31T14:16:03.000Z</time>
      </trkpt>
      <trkpt lat="37.15199229307472705841064453125" lon="-4.23110819421708583831787109375">
        <ele>641.5999755859375</ele>
        <time>2019-10-31T14:16:11.000Z</time>
      </trkpt>
      <trkpt lat="37.1521442569792270660400390625" lon="-4.2312348447740077972412109375">
        <ele>643.20001220703125</ele>
        <time>2019-10-31T14:16:19.000Z</time>
      </trkpt>
      <trkpt lat="37.15230627916753292083740234375" lon="-4.23135395161807537078857421875">
        <ele>645</ele>
        <time>2019-10-31T14:16:27.000Z</time>
      </trkpt>
      <trkpt lat="37.15247333049774169921875" lon="-4.2314876429736614227294921875">
        <ele>646.79998779296875</ele>
        <time>2019-10-31T14:16:36.000Z</time>
      </trkpt>
      <trkpt lat="37.15263032354414463043212890625" lon="-4.23164010979235172271728515625">
        <ele>648.4000244140625</ele>
        <time>2019-10-31T14:16:45.000Z</time>
      </trkpt>
      <trkpt lat="37.15273375622928142547607421875" lon="-4.231830127537250518798828125">
        <ele>649.79998779296875</ele>
        <time>2019-10-31T14:16:54.000Z</time>
      </trkpt>
      <trkpt lat="37.1527697145938873291015625" lon="-4.232054762542247772216796875">
        <ele>651.4000244140625</ele>
        <time>2019-10-31T14:17:03.000Z</time>
      </trkpt>
      <trkpt lat="37.15273576788604259490966796875" lon="-4.23229515552520751953125">
        <ele>652.79998779296875</ele>
        <time>2019-10-31T14:17:12.000Z</time>
      </trkpt>
      <trkpt lat="37.1526290662586688995361328125" lon="-4.232479222118854522705078125">
        <ele>654.79998779296875</ele>
        <time>2019-10-31T14:17:21.000Z</time>
      </trkpt>
      <trkpt lat="37.1524838916957378387451171875" lon="-4.23263688571751117706298828125">
        <ele>657</ele>
        <time>2019-10-31T14:17:30.000Z</time>
      </trkpt>
      <trkpt lat="37.1523336879909038543701171875" lon="-4.232773594558238983154296875">
        <ele>659</ele>
        <time>2019-10-31T14:17:39.000Z</time>
      </trkpt>
      <trkpt lat="37.15219907462596893310546875" lon="-4.23293419182300567626953125">
        <ele>661.20001220703125</ele>
        <time>2019-10-31T14:17:47.000Z</time>
      </trkpt>
      <trkpt lat="37.15205901302397251129150390625" lon="-4.23307693563401699066162109375">
        <ele>662.79998779296875</ele>
        <time>2019-10-31T14:17:55.000Z</time>
      </trkpt>
      <trkpt lat="37.151896320283412933349609375" lon="-4.23322496004402637481689453125">
        <ele>663.79998779296875</ele>
        <time>2019-10-31T14:18:04.000Z</time>
      </trkpt>
      <trkpt lat="37.1517692506313323974609375" lon="-4.23339310102164745330810546875">
        <ele>665.5999755859375</ele>
        <time>2019-10-31T14:18:12.000Z</time>
      </trkpt>
      <trkpt lat="37.151633463799953460693359375" lon="-4.23354213126003742218017578125">
        <ele>666.79998779296875</ele>
        <time>2019-10-31T14:18:20.000Z</time>
      </trkpt>
      <trkpt lat="37.15157680213451385498046875" lon="-4.23360315151512622833251953125">
        <ele>667.20001220703125</ele>
        <time>2019-10-31T14:18:26.000Z</time>
      </trkpt>
      <trkpt lat="37.15156867168843746185302734375" lon="-4.23360080458223819732666015625">
        <ele>667.20001220703125</ele>
        <time>2019-10-31T14:18:29.000Z</time>
      </trkpt>
      <trkpt lat="37.15144864283502101898193359375" lon="-4.2337001301348209381103515625">
        <ele>667.20001220703125</ele>
        <time>2019-10-31T14:20:31.000Z</time>
      </trkpt>
      <trkpt lat="37.15133565478026866912841796875" lon="-4.2338362522423267364501953125">
        <ele>668</ele>
        <time>2019-10-31T14:20:44.000Z</time>
      </trkpt>
      <trkpt lat="37.1513332240283489227294921875" lon="-4.23383583314716815948486328125">
        <ele>668</ele>
        <time>2019-10-31T14:20:48.000Z</time>
      </trkpt>
      <trkpt lat="37.151253931224346160888671875" lon="-4.23390858806669712066650390625">
        <ele>668.4000244140625</ele>
        <time>2019-10-31T14:20:56.000Z</time>
      </trkpt>
      <trkpt lat="37.15111353434622287750244140625" lon="-4.23405828885734081268310546875">
        <ele>669.5999755859375</ele>
        <time>2019-10-31T14:21:07.000Z</time>
      </trkpt>
      <trkpt lat="37.15097473002970218658447265625" lon="-4.23420061357319355010986328125">
        <ele>671.20001220703125</ele>
        <time>2019-10-31T14:21:16.000Z</time>
      </trkpt>
      <trkpt lat="37.15083927847445011138916015625" lon="-4.23436623997986316680908203125">
        <ele>673.4000244140625</ele>
        <time>2019-10-31T14:21:25.000Z</time>
      </trkpt>
      <trkpt lat="37.15071975253522396087646484375" lon="-4.23455030657351016998291015625">
        <ele>675.20001220703125</ele>
        <time>2019-10-31T14:21:34.000Z</time>
      </trkpt>
      <trkpt lat="37.1505791880190372467041015625" lon="-4.2347183637320995330810546875">
        <ele>676.79998779296875</ele>
        <time>2019-10-31T14:21:43.000Z</time>
      </trkpt>
      <trkpt lat="37.15044951997697353363037109375" lon="-4.234893210232257843017578125">
        <ele>678.4000244140625</ele>
        <time>2019-10-31T14:21:52.000Z</time>
      </trkpt>
      <trkpt lat="37.150358073413372039794921875" lon="-4.23508725129067897796630859375">
        <ele>679</ele>
        <time>2019-10-31T14:22:00.000Z</time>
      </trkpt>
      <trkpt lat="37.15032094158232212066650390625" lon="-4.235313646495342254638671875">
        <ele>679.20001220703125</ele>
        <time>2019-10-31T14:22:08.000Z</time>
      </trkpt>
      <trkpt lat="37.15034390799701213836669921875" lon="-4.2355407960712909698486328125">
        <ele>680.20001220703125</ele>
        <time>2019-10-31T14:22:16.000Z</time>
      </trkpt>
      <trkpt lat="37.15038799680769443511962890625" lon="-4.23575947992503643035888671875">
        <ele>682.4000244140625</ele>
        <time>2019-10-31T14:22:24.000Z</time>
      </trkpt>
      <trkpt lat="37.15043074451386928558349609375" lon="-4.23599953763186931610107421875">
        <ele>684.20001220703125</ele>
        <time>2019-10-31T14:22:33.000Z</time>
      </trkpt>
      <trkpt lat="37.15047399513423442840576171875" lon="-4.23624076880514621734619140625">
        <ele>685.4000244140625</ele>
        <time>2019-10-31T14:22:42.000Z</time>
      </trkpt>
      <trkpt lat="37.1505084447562694549560546875" lon="-4.23646288923919200897216796875">
        <ele>688</ele>
        <time>2019-10-31T14:22:50.000Z</time>
      </trkpt>
      <trkpt lat="37.150534093379974365234375" lon="-4.236698336899280548095703125">
        <ele>690.5999755859375</ele>
        <time>2019-10-31T14:22:59.000Z</time>
      </trkpt>
      <trkpt lat="37.1505335904657840728759765625" lon="-4.236935712397098541259765625">
        <ele>692.20001220703125</ele>
        <time>2019-10-31T14:23:08.000Z</time>
      </trkpt>
      <trkpt lat="37.15051741339266300201416015625" lon="-4.23717551864683628082275390625">
        <ele>694</ele>
        <time>2019-10-31T14:23:17.000Z</time>
      </trkpt>
      <trkpt lat="37.1504913456737995147705078125" lon="-4.2373985610902309417724609375">
        <ele>695.5999755859375</ele>
        <time>2019-10-31T14:23:25.000Z</time>
      </trkpt>
      <trkpt lat="37.15047039091587066650390625" lon="-4.23763970844447612762451171875">
        <ele>697.5999755859375</ele>
        <time>2019-10-31T14:23:34.000Z</time>
      </trkpt>
      <trkpt lat="37.1504678763449192047119140625" lon="-4.2378860525786876678466796875">
        <ele>698.20001220703125</ele>
        <time>2019-10-31T14:23:43.000Z</time>
      </trkpt>
      <trkpt lat="37.150501571595668792724609375" lon="-4.23812694847583770751953125">
        <ele>699.20001220703125</ele>
        <time>2019-10-31T14:23:52.000Z</time>
      </trkpt>
      <trkpt lat="37.1505461633205413818359375" lon="-4.23835183493793010711669921875">
        <ele>700.5999755859375</ele>
        <time>2019-10-31T14:24:01.000Z</time>
      </trkpt>
      <trkpt lat="37.150620259344577789306640625" lon="-4.23857982270419597625732421875">
        <ele>702.4000244140625</ele>
        <time>2019-10-31T14:24:10.000Z</time>
      </trkpt>
      <trkpt lat="37.1506814472377300262451171875" lon="-4.238795153796672821044921875">
        <ele>703.4000244140625</ele>
        <time>2019-10-31T14:24:18.000Z</time>
      </trkpt>
      <trkpt lat="37.150741629302501678466796875" lon="-4.23902708105742931365966796875">
        <ele>704</ele>
        <time>2019-10-31T14:24:27.000Z</time>
      </trkpt>
      <trkpt lat="37.15080524794757366180419921875" lon="-4.23924140632152557373046875">
        <ele>704.20001220703125</ele>
        <time>2019-10-31T14:24:35.000Z</time>
      </trkpt>
      <trkpt lat="37.150828801095485687255859375" lon="-4.2394890077412128448486328125">
        <ele>704.4000244140625</ele>
        <time>2019-10-31T14:24:45.000Z</time>
      </trkpt>
      <trkpt lat="37.1507582254707813262939453125" lon="-4.23971774987876415252685546875">
        <ele>704.4000244140625</ele>
        <time>2019-10-31T14:24:54.000Z</time>
      </trkpt>
      <trkpt lat="37.15064833872020244598388671875" lon="-4.2399258725345134735107421875">
        <ele>704.5999755859375</ele>
        <time>2019-10-31T14:25:03.000Z</time>
      </trkpt>
      <trkpt lat="37.1505372785031795501708984375" lon="-4.240120835602283477783203125">
        <ele>705</ele>
        <time>2019-10-31T14:25:12.000Z</time>
      </trkpt>
      <trkpt lat="37.1504115499556064605712890625" lon="-4.2403094284236431121826171875">
        <ele>706</ele>
        <time>2019-10-31T14:25:20.000Z</time>
      </trkpt>
      <trkpt lat="37.1503076143562793731689453125" lon="-4.2405136115849018096923828125">
        <ele>707.79998779296875</ele>
        <time>2019-10-31T14:25:28.000Z</time>
      </trkpt>
      <trkpt lat="37.1501999907195568084716796875" lon="-4.24071687273681163787841796875">
        <ele>709.5999755859375</ele>
        <time>2019-10-31T14:25:36.000Z</time>
      </trkpt>
      <trkpt lat="37.15010183863341808319091796875" lon="-4.24092692323029041290283203125">
        <ele>710.79998779296875</ele>
        <time>2019-10-31T14:25:44.000Z</time>
      </trkpt>
      <trkpt lat="37.15000594966113567352294921875" lon="-4.24111987464129924774169921875">
        <ele>712.20001220703125</ele>
        <time>2019-10-31T14:25:52.000Z</time>
      </trkpt>
      <trkpt lat="37.14991039596498012542724609375" lon="-4.24132741056382656097412109375">
        <ele>714</ele>
        <time>2019-10-31T14:26:00.000Z</time>
      </trkpt>
      <trkpt lat="37.14980629272758960723876953125" lon="-4.24153327010571956634521484375">
        <ele>715.20001220703125</ele>
        <time>2019-10-31T14:26:09.000Z</time>
      </trkpt>
      <trkpt lat="37.149761281907558441162109375" lon="-4.2416227050125598907470703125">
        <ele>715.4000244140625</ele>
        <time>2019-10-31T14:26:16.000Z</time>
      </trkpt>
      <trkpt lat="37.14976153336465358734130859375" lon="-4.24160786904394626617431640625">
        <ele>715.4000244140625</ele>
        <time>2019-10-31T14:26:19.000Z</time>
      </trkpt>
      <trkpt lat="37.1496784687042236328125" lon="-4.241760671138763427734375">
        <ele>715.20001220703125</ele>
        <time>2019-10-31T14:28:43.000Z</time>
      </trkpt>
      <trkpt lat="37.14957176707684993743896484375" lon="-4.24196862615644931793212890625">
        <ele>715</ele>
        <time>2019-10-31T14:28:49.000Z</time>
      </trkpt>
      <trkpt lat="37.14948073960840702056884765625" lon="-4.2421772517263889312744140625">
        <ele>715.20001220703125</ele>
        <time>2019-10-31T14:28:55.000Z</time>
      </trkpt>
      <trkpt lat="37.1493805758655071258544921875" lon="-4.24237422645092010498046875">
        <ele>715.79998779296875</ele>
        <time>2019-10-31T14:29:01.000Z</time>
      </trkpt>
      <trkpt lat="37.1492694318294525146484375" lon="-4.24260623753070831298828125">
        <ele>715</ele>
        <time>2019-10-31T14:29:07.000Z</time>
      </trkpt>
      <trkpt lat="37.14915585704147815704345703125" lon="-4.24283280037343502044677734375">
        <ele>713.79998779296875</ele>
        <time>2019-10-31T14:29:12.000Z</time>
      </trkpt>
      <trkpt lat="37.1490523405373096466064453125" lon="-4.24308191053569316864013671875">
        <ele>713.4000244140625</ele>
        <time>2019-10-31T14:29:17.000Z</time>
      </trkpt>
      <trkpt lat="37.14897581376135349273681640625" lon="-4.24329020082950592041015625">
        <ele>713.5999755859375</ele>
        <time>2019-10-31T14:29:21.000Z</time>
      </trkpt>
      <trkpt lat="37.14889685623347759246826171875" lon="-4.2435381375253200531005859375">
        <ele>713.5999755859375</ele>
        <time>2019-10-31T14:29:25.000Z</time>
      </trkpt>
      <trkpt lat="37.1488049067556858062744140625" lon="-4.243788756430149078369140625">
        <ele>712.20001220703125</ele>
        <time>2019-10-31T14:29:29.000Z</time>
      </trkpt>
      <trkpt lat="37.14871496893465518951416015625" lon="-4.24402269534766674041748046875">
        <ele>711.20001220703125</ele>
        <time>2019-10-31T14:29:33.000Z</time>
      </trkpt>
      <trkpt lat="37.14866928756237030029296875" lon="-4.24412897787988185882568359375">
        <ele>711</ele>
        <time>2019-10-31T14:29:35.000Z</time>
      </trkpt>
      <trkpt lat="37.1485561318695545196533203125" lon="-4.24433366395533084869384765625">
        <ele>711.20001220703125</ele>
        <time>2019-10-31T14:29:39.000Z</time>
      </trkpt>
      <trkpt lat="37.14843048714101314544677734375" lon="-4.24456433393061161041259765625">
        <ele>712.4000244140625</ele>
        <time>2019-10-31T14:29:44.000Z</time>
      </trkpt>
      <trkpt lat="37.14838673360645771026611328125" lon="-4.2446549423038959503173828125">
        <ele>713.20001220703125</ele>
        <time>2019-10-31T14:29:46.000Z</time>
      </trkpt>
      <trkpt lat="37.14826385490596294403076171875" lon="-4.24484747461974620819091796875">
        <ele>714.4000244140625</ele>
        <time>2019-10-31T14:29:51.000Z</time>
      </trkpt>
      <trkpt lat="37.148151956498622894287109375" lon="-4.24504076130688190460205078125">
        <ele>714.79998779296875</ele>
        <time>2019-10-31T14:29:56.000Z</time>
      </trkpt>
      <trkpt lat="37.14803234674036502838134765625" lon="-4.24524276517331600189208984375">
        <ele>714.79998779296875</ele>
        <time>2019-10-31T14:30:02.000Z</time>
      </trkpt>
      <trkpt lat="37.14799446053802967071533203125" lon="-4.2453130893409252166748046875">
        <ele>715</ele>
        <time>2019-10-31T14:30:04.000Z</time>
      </trkpt>
      <trkpt lat="37.14787912555038928985595703125" lon="-4.2455199547111988067626953125">
        <ele>715.4000244140625</ele>
        <time>2019-10-31T14:30:10.000Z</time>
      </trkpt>
      <trkpt lat="37.14777351357042789459228515625" lon="-4.24572573043406009674072265625">
        <ele>715.79998779296875</ele>
        <time>2019-10-31T14:30:16.000Z</time>
      </trkpt>
      <trkpt lat="37.14769070036709308624267578125" lon="-4.24594516865909099578857421875">
        <ele>715.79998779296875</ele>
        <time>2019-10-31T14:30:22.000Z</time>
      </trkpt>
      <trkpt lat="37.14764443226158618927001953125" lon="-4.24619042314589023590087890625">
        <ele>715.4000244140625</ele>
        <time>2019-10-31T14:30:27.000Z</time>
      </trkpt>
      <trkpt lat="37.14761861599981784820556640625" lon="-4.24643584527075290679931640625">
        <ele>714.5999755859375</ele>
        <time>2019-10-31T14:30:31.000Z</time>
      </trkpt>
      <trkpt lat="37.1476046182215213775634765625" lon="-4.2467222549021244049072265625">
        <ele>713.20001220703125</ele>
        <time>2019-10-31T14:30:35.000Z</time>
      </trkpt>
      <trkpt lat="37.1475868485867977142333984375" lon="-4.246963150799274444580078125">
        <ele>711.5999755859375</ele>
        <time>2019-10-31T14:30:38.000Z</time>
      </trkpt>
      <trkpt lat="37.147572599351406097412109375" lon="-4.24721402116119861602783203125">
        <ele>710</ele>
        <time>2019-10-31T14:30:41.000Z</time>
      </trkpt>
      <trkpt lat="37.14755508117377758026123046875" lon="-4.24745826981961727142333984375">
        <ele>709.20001220703125</ele>
        <time>2019-10-31T14:30:44.000Z</time>
      </trkpt>
      <trkpt lat="37.14753529988229274749755859375" lon="-4.24774124287068843841552734375">
        <ele>708.5999755859375</ele>
        <time>2019-10-31T14:30:48.000Z</time>
      </trkpt>
      <trkpt lat="37.14751367457211017608642578125" lon="-4.24796638078987598419189453125">
        <ele>709.4000244140625</ele>
        <time>2019-10-31T14:30:52.000Z</time>
      </trkpt>
      <trkpt lat="37.147487103939056396484375" lon="-4.24816243350505828857421875">
        <ele>710</ele>
        <time>2019-10-31T14:30:56.000Z</time>
      </trkpt>
      <trkpt lat="37.14746036566793918609619140625" lon="-4.248310960829257965087890625">
        <ele>711</ele>
        <time>2019-10-31T14:31:00.000Z</time>
      </trkpt>
      <trkpt lat="37.14742667041718959808349609375" lon="-4.24841565079987049102783203125">
        <ele>711.79998779296875</ele>
        <time>2019-10-31T14:31:04.000Z</time>
      </trkpt>
      <trkpt lat="37.1474232338368892669677734375" lon="-4.2484348453581333160400390625">
        <ele>712</ele>
        <time>2019-10-31T14:31:05.000Z</time>
      </trkpt>
      <trkpt lat="37.14742432348430156707763671875" lon="-4.24848991446197032928466796875">
        <ele>712.5999755859375</ele>
        <time>2019-10-31T14:31:09.000Z</time>
      </trkpt>
      <trkpt lat="37.1474332921206951141357421875" lon="-4.24849075265228748321533203125">
        <ele>712.5999755859375</ele>
        <time>2019-10-31T14:31:13.000Z</time>
      </trkpt>
      <trkpt lat="37.14739029295742511749267578125" lon="-4.2486179061233997344970703125">
        <ele>713.5999755859375</ele>
        <time>2019-10-31T14:31:56.000Z</time>
      </trkpt>
      <trkpt lat="37.1473072282969951629638671875" lon="-4.24883692525327205657958984375">
        <ele>714.79998779296875</ele>
        <time>2019-10-31T14:32:05.000Z</time>
      </trkpt>
      <trkpt lat="37.1472612954676151275634765625" lon="-4.24906767904758453369140625">
        <ele>716.20001220703125</ele>
        <time>2019-10-31T14:32:14.000Z</time>
      </trkpt>
      <trkpt lat="37.14724679477512836456298828125" lon="-4.2492344789206981658935546875">
        <ele>717</ele>
        <time>2019-10-31T14:32:21.000Z</time>
      </trkpt>
      <trkpt lat="37.147215195000171661376953125" lon="-4.24925811588764190673828125">
        <ele>717</ele>
        <time>2019-10-31T14:32:24.000Z</time>
      </trkpt>
      <trkpt lat="37.14721645228564739227294921875" lon="-4.2491493187844753265380859375">
        <ele>716.5999755859375</ele>
        <time>2019-10-31T14:32:30.000Z</time>
      </trkpt>
      <trkpt lat="37.14724947698414325714111328125" lon="-4.24892879091203212738037109375">
        <ele>715.20001220703125</ele>
        <time>2019-10-31T14:32:35.000Z</time>
      </trkpt>
      <trkpt lat="37.1473221480846405029296875" lon="-4.248667024075984954833984375">
        <ele>713.5999755859375</ele>
        <time>2019-10-31T14:32:39.000Z</time>
      </trkpt>
      <trkpt lat="37.147399596869945526123046875" lon="-4.2484381981194019317626953125">
        <ele>711.79998779296875</ele>
        <time>2019-10-31T14:32:42.000Z</time>
      </trkpt>
      <trkpt lat="37.1474643051624298095703125" lon="-4.2481964640319347381591796875">
        <ele>710</ele>
        <time>2019-10-31T14:32:46.000Z</time>
      </trkpt>
      <trkpt lat="37.1474758721888065338134765625" lon="-4.24812111072242259979248046875">
        <ele>709.79998779296875</ele>
        <time>2019-10-31T14:32:48.000Z</time>
      </trkpt>
      <trkpt lat="37.1473863534629344940185546875" lon="-4.24815245904028415679931640625">
        <ele>709.5999755859375</ele>
        <time>2019-10-31T14:32:55.000Z</time>
      </trkpt>
      <trkpt lat="37.14731502346694469451904296875" lon="-4.2483865655958652496337890625">
        <ele>711</ele>
        <time>2019-10-31T14:33:02.000Z</time>
      </trkpt>
      <trkpt lat="37.1472388319671154022216796875" lon="-4.2486142180860042572021484375">
        <ele>713</ele>
        <time>2019-10-31T14:33:09.000Z</time>
      </trkpt>
      <trkpt lat="37.14716280810534954071044921875" lon="-4.24882519058883190155029296875">
        <ele>714.20001220703125</ele>
        <time>2019-10-31T14:33:16.000Z</time>
      </trkpt>
      <trkpt lat="37.147119976580142974853515625" lon="-4.24905284307897090911865234375">
        <ele>715.5999755859375</ele>
        <time>2019-10-31T14:33:24.000Z</time>
      </trkpt>
      <trkpt lat="37.14711922220885753631591796875" lon="-4.249289967119693756103515625">
        <ele>716.5999755859375</ele>
        <time>2019-10-31T14:33:32.000Z</time>
      </trkpt>
      <trkpt lat="37.1470380015671253204345703125" lon="-4.24951133318245410919189453125">
        <ele>716.5999755859375</ele>
        <time>2019-10-31T14:33:40.000Z</time>
      </trkpt>
      <trkpt lat="37.14702316559851169586181640625" lon="-4.249563552439212799072265625">
        <ele>716.5999755859375</ele>
        <time>2019-10-31T14:33:42.000Z</time>
      </trkpt>
      <trkpt lat="37.146956026554107666015625" lon="-4.24978894181549549102783203125">
        <ele>717.4000244140625</ele>
        <time>2019-10-31T14:33:51.000Z</time>
      </trkpt>
      <trkpt lat="37.14695376344025135040283203125" lon="-4.24979564733803272247314453125">
        <ele>717.4000244140625</ele>
        <time>2019-10-31T14:33:54.000Z</time>
      </trkpt>
      <trkpt lat="37.14695460163056850433349609375" lon="-4.24979246221482753753662109375">
        <ele>717.4000244140625</ele>
        <time>2019-10-31T14:33:56.000Z</time>
      </trkpt>
      <trkpt lat="37.147206477820873260498046875" lon="-4.2498376406729221343994140625">
        <ele>717.5999755859375</ele>
        <time>2019-10-31T14:34:50.000Z</time>
      </trkpt>
      <trkpt lat="37.14711964130401611328125" lon="-4.25003922544419765472412109375">
        <ele>718</ele>
        <time>2019-10-31T14:35:05.000Z</time>
      </trkpt>
      <trkpt lat="37.1471208147704601287841796875" lon="-4.25005096010863780975341796875">
        <ele>718</ele>
        <time>2019-10-31T14:35:08.000Z</time>
      </trkpt>
      <trkpt lat="37.14704428799450397491455078125" lon="-4.25005607306957244873046875">
        <ele>718.20001220703125</ele>
        <time>2019-10-31T14:35:13.000Z</time>
      </trkpt>
      <trkpt lat="37.1469464711844921112060546875" lon="-4.2500495351850986480712890625">
        <ele>718.4000244140625</ele>
        <time>2019-10-31T14:35:17.000Z</time>
      </trkpt>
      <trkpt lat="37.14675360359251499176025390625" lon="-4.25006085075438022613525390625">
        <ele>718.4000244140625</ele>
        <time>2019-10-31T14:35:24.000Z</time>
      </trkpt>
      <trkpt lat="37.14655042625963687896728515625" lon="-4.2500783689320087432861328125">
        <ele>718</ele>
        <time>2019-10-31T14:35:32.000Z</time>
      </trkpt>
      <trkpt lat="37.14634976349771022796630859375" lon="-4.25009672529995441436767578125">
        <ele>718.20001220703125</ele>
        <time>2019-10-31T14:35:39.000Z</time>
      </trkpt>
      <trkpt lat="37.14614876545965671539306640625" lon="-4.250120781362056732177734375">
        <ele>718.79998779296875</ele>
        <time>2019-10-31T14:35:45.000Z</time>
      </trkpt>
      <trkpt lat="37.14598431251943111419677734375" lon="-4.25022413022816181182861328125">
        <ele>720.4000244140625</ele>
        <time>2019-10-31T14:35:50.000Z</time>
      </trkpt>
      <trkpt lat="37.1459285728633403778076171875" lon="-4.250453375279903411865234375">
        <ele>721.79998779296875</ele>
        <time>2019-10-31T14:35:55.000Z</time>
      </trkpt>
      <trkpt lat="37.14595279656350612640380859375" lon="-4.25068236887454986572265625">
        <ele>722.4000244140625</ele>
        <time>2019-10-31T14:36:00.000Z</time>
      </trkpt>
      <trkpt lat="37.14598448015749454498291015625" lon="-4.25094790756702423095703125">
        <ele>722.79998779296875</ele>
        <time>2019-10-31T14:36:06.000Z</time>
      </trkpt>
      <trkpt lat="37.14598305523395538330078125" lon="-4.251194335520267486572265625">
        <ele>722.5999755859375</ele>
        <time>2019-10-31T14:36:11.000Z</time>
      </trkpt>
      <trkpt lat="37.1459939517080783843994140625" lon="-4.251451827585697174072265625">
        <ele>721.5999755859375</ele>
        <time>2019-10-31T14:36:16.000Z</time>
      </trkpt>
      <trkpt lat="37.14601918123662471771240234375" lon="-4.2516776360571384429931640625">
        <ele>720.5999755859375</ele>
        <time>2019-10-31T14:36:22.000Z</time>
      </trkpt>
      <trkpt lat="37.14606176130473613739013671875" lon="-4.25193755887448787689208984375">
        <ele>719.5999755859375</ele>
        <time>2019-10-31T14:36:27.000Z</time>
      </trkpt>
      <trkpt lat="37.14608254842460155487060546875" lon="-4.2522092163562774658203125">
        <ele>719.4000244140625</ele>
        <time>2019-10-31T14:36:31.000Z</time>
      </trkpt>
      <trkpt lat="37.14608900249004364013671875" lon="-4.25232949666678905487060546875">
        <ele>719.4000244140625</ele>
        <time>2019-10-31T14:36:33.000Z</time>
      </trkpt>
      <trkpt lat="37.1460965462028980255126953125" lon="-4.2525302432477474212646484375">
        <ele>719.4000244140625</ele>
        <time>2019-10-31T14:36:37.000Z</time>
      </trkpt>
      <trkpt lat="37.14608992449939250946044921875" lon="-4.2527927644550800323486328125">
        <ele>719.4000244140625</ele>
        <time>2019-10-31T14:36:43.000Z</time>
      </trkpt>
      <trkpt lat="37.14606410823762416839599609375" lon="-4.2530197463929653167724609375">
        <ele>720</ele>
        <time>2019-10-31T14:36:49.000Z</time>
      </trkpt>
      <trkpt lat="37.1460234560072422027587890625" lon="-4.25324463285505771636962890625">
        <ele>721.79998779296875</ele>
        <time>2019-10-31T14:36:56.000Z</time>
      </trkpt>
      <trkpt lat="37.1459855698049068450927734375" lon="-4.2534797452390193939208984375">
        <ele>723.20001220703125</ele>
        <time>2019-10-31T14:37:05.000Z</time>
      </trkpt>
      <trkpt lat="37.1459354460239410400390625" lon="-4.2537171207368373870849609375">
        <ele>724.79998779296875</ele>
        <time>2019-10-31T14:37:13.000Z</time>
      </trkpt>
      <trkpt lat="37.14590669609606266021728515625" lon="-4.25395466387271881103515625">
        <ele>726</ele>
        <time>2019-10-31T14:37:20.000Z</time>
      </trkpt>
      <trkpt lat="37.14587308466434478759765625" lon="-4.2541942186653614044189453125">
        <ele>727</ele>
        <time>2019-10-31T14:37:27.000Z</time>
      </trkpt>
      <trkpt lat="37.1458469331264495849609375" lon="-4.254445843398571014404296875">
        <ele>727.5999755859375</ele>
        <time>2019-10-31T14:37:34.000Z</time>
      </trkpt>
      <trkpt lat="37.145798318088054656982421875" lon="-4.25469302572309970855712890625">
        <ele>727.79998779296875</ele>
        <time>2019-10-31T14:37:41.000Z</time>
      </trkpt>
      <trkpt lat="37.1457495354115962982177734375" lon="-4.25493576563894748687744140625">
        <ele>728</ele>
        <time>2019-10-31T14:37:47.000Z</time>
      </trkpt>
      <trkpt lat="37.14571592397987842559814453125" lon="-4.2551688663661479949951171875">
        <ele>728.20001220703125</ele>
        <time>2019-10-31T14:37:52.000Z</time>
      </trkpt>
      <trkpt lat="37.14564509689807891845703125" lon="-4.2553955130279064178466796875">
        <ele>729.4000244140625</ele>
        <time>2019-10-31T14:37:57.000Z</time>
      </trkpt>
      <trkpt lat="37.1455745212733745574951171875" lon="-4.2556181363761425018310546875">
        <ele>730.20001220703125</ele>
        <time>2019-10-31T14:38:02.000Z</time>
      </trkpt>
      <trkpt lat="37.14551928453147411346435546875" lon="-4.25585140474140644073486328125">
        <ele>729.5999755859375</ele>
        <time>2019-10-31T14:38:07.000Z</time>
      </trkpt>
      <trkpt lat="37.1454501338303089141845703125" lon="-4.2560912109911441802978515625">
        <ele>727.79998779296875</ele>
        <time>2019-10-31T14:38:12.000Z</time>
      </trkpt>
      <trkpt lat="37.14540428481996059417724609375" lon="-4.25633604638278484344482421875">
        <ele>727.20001220703125</ele>
        <time>2019-10-31T14:38:17.000Z</time>
      </trkpt>
      <trkpt lat="37.145329602062702178955078125" lon="-4.25654157064855098724365234375">
        <ele>727</ele>
        <time>2019-10-31T14:38:22.000Z</time>
      </trkpt>
      <trkpt lat="37.1452315337955951690673828125" lon="-4.25678514875471591949462890625">
        <ele>727</ele>
        <time>2019-10-31T14:38:28.000Z</time>
      </trkpt>
      <trkpt lat="37.14514008723199367523193359375" lon="-4.25703073851764202117919921875">
        <ele>727</ele>
        <time>2019-10-31T14:38:33.000Z</time>
      </trkpt>
      <trkpt lat="37.1450521610677242279052734375" lon="-4.257285296916961669921875">
        <ele>727</ele>
        <time>2019-10-31T14:38:38.000Z</time>
      </trkpt>
      <trkpt lat="37.1449690125882625579833984375" lon="-4.2575201578438282012939453125">
        <ele>726.79998779296875</ele>
        <time>2019-10-31T14:38:43.000Z</time>
      </trkpt>
      <trkpt lat="37.14488008059561252593994140625" lon="-4.25773330964148044586181640625">
        <ele>727.20001220703125</ele>
        <time>2019-10-31T14:38:48.000Z</time>
      </trkpt>
      <trkpt lat="37.14478871785104274749755859375" lon="-4.25794470123946666717529296875">
        <ele>727.79998779296875</ele>
        <time>2019-10-31T14:38:53.000Z</time>
      </trkpt>
      <trkpt lat="37.14469266124069690704345703125" lon="-4.25815642811357975006103515625">
        <ele>727.79998779296875</ele>
        <time>2019-10-31T14:38:58.000Z</time>
      </trkpt>
      <trkpt lat="37.14459476061165332794189453125" lon="-4.25836647860705852508544921875">
        <ele>728.20001220703125</ele>
        <time>2019-10-31T14:39:03.000Z</time>
      </trkpt>
      <trkpt lat="37.14449853636324405670166015625" lon="-4.25858356989920139312744140625">
        <ele>728.4000244140625</ele>
        <time>2019-10-31T14:39:08.000Z</time>
      </trkpt>
      <trkpt lat="37.1443960256874561309814453125" lon="-4.25879294984042644500732421875">
        <ele>728</ele>
        <time>2019-10-31T14:39:13.000Z</time>
      </trkpt>
      <trkpt lat="37.144282869994640350341796875" lon="-4.259018003940582275390625">
        <ele>728.4000244140625</ele>
        <time>2019-10-31T14:39:19.000Z</time>
      </trkpt>
      <trkpt lat="37.144184298813343048095703125" lon="-4.259216822683811187744140625">
        <ele>729.5999755859375</ele>
        <time>2019-10-31T14:39:25.000Z</time>
      </trkpt>
      <trkpt lat="37.1440895833075046539306640625" lon="-4.25941455177962779998779296875">
        <ele>731</ele>
        <time>2019-10-31T14:39:31.000Z</time>
      </trkpt>
      <trkpt lat="37.14398346841335296630859375" lon="-4.25963063724339008331298828125">
        <ele>732.20001220703125</ele>
        <time>2019-10-31T14:39:38.000Z</time>
      </trkpt>
      <trkpt lat="37.1438854001462459564208984375" lon="-4.2598526738584041595458984375">
        <ele>731.20001220703125</ele>
        <time>2019-10-31T14:39:45.000Z</time>
      </trkpt>
      <trkpt lat="37.14377702213823795318603515625" lon="-4.26007873378694057464599609375">
        <ele>730</ele>
        <time>2019-10-31T14:39:51.000Z</time>
      </trkpt>
      <trkpt lat="37.143639810383319854736328125" lon="-4.26030303351581096649169921875">
        <ele>729.20001220703125</ele>
        <time>2019-10-31T14:39:55.000Z</time>
      </trkpt>
      <trkpt lat="37.14351986534893512725830078125" lon="-4.2605000920593738555908203125">
        <ele>729</ele>
        <time>2019-10-31T14:39:58.000Z</time>
      </trkpt>
      <trkpt lat="37.143414504826068878173828125" lon="-4.260707795619964599609375">
        <ele>729.5999755859375</ele>
        <time>2019-10-31T14:40:01.000Z</time>
      </trkpt>
      <trkpt lat="37.14334803633391857147216796875" lon="-4.26097869873046875">
        <ele>729.79998779296875</ele>
        <time>2019-10-31T14:40:05.000Z</time>
      </trkpt>
      <trkpt lat="37.1433214657008647918701171875" lon="-4.261213056743144989013671875">
        <ele>730.5999755859375</ele>
        <time>2019-10-31T14:40:10.000Z</time>
      </trkpt>
      <trkpt lat="37.14331635273993015289306640625" lon="-4.26128958351910114288330078125">
        <ele>731</ele>
        <time>2019-10-31T14:40:12.000Z</time>
      </trkpt>
      <trkpt lat="37.14332859031856060028076171875" lon="-4.26154573448002338409423828125">
        <ele>732.4000244140625</ele>
        <time>2019-10-31T14:40:19.000Z</time>
      </trkpt>
      <trkpt lat="37.14333261363208293914794921875" lon="-4.261799119412899017333984375">
        <ele>733.20001220703125</ele>
        <time>2019-10-31T14:40:26.000Z</time>
      </trkpt>
      <trkpt lat="37.1433207951486110687255859375" lon="-4.2620390094816684722900390625">
        <ele>733.20001220703125</ele>
        <time>2019-10-31T14:40:32.000Z</time>
      </trkpt>
      <trkpt lat="37.1433181129395961761474609375" lon="-4.2623092420399188995361328125">
        <ele>733</ele>
        <time>2019-10-31T14:40:38.000Z</time>
      </trkpt>
      <trkpt lat="37.14329321868717670440673828125" lon="-4.2625395767390727996826171875">
        <ele>733.79998779296875</ele>
        <time>2019-10-31T14:40:43.000Z</time>
      </trkpt>
      <trkpt lat="37.143256925046443939208984375" lon="-4.26276831887662410736083984375">
        <ele>735</ele>
        <time>2019-10-31T14:40:48.000Z</time>
      </trkpt>
      <trkpt lat="37.1432051248848438262939453125" lon="-4.26299680955708026885986328125">
        <ele>736.20001220703125</ele>
        <time>2019-10-31T14:40:54.000Z</time>
      </trkpt>
      <trkpt lat="37.14314904995262622833251953125" lon="-4.2632409743964672088623046875">
        <ele>735.79998779296875</ele>
        <time>2019-10-31T14:41:02.000Z</time>
      </trkpt>
      <trkpt lat="37.14308551512658596038818359375" lon="-4.26348991692066192626953125">
        <ele>735.79998779296875</ele>
        <time>2019-10-31T14:41:10.000Z</time>
      </trkpt>
      <trkpt lat="37.1430306136608123779296875" lon="-4.2637338303029537200927734375">
        <ele>736.20001220703125</ele>
        <time>2019-10-31T14:41:16.000Z</time>
      </trkpt>
      <trkpt lat="37.14298744685947895050048828125" lon="-4.26399794407188892364501953125">
        <ele>737.4000244140625</ele>
        <time>2019-10-31T14:41:22.000Z</time>
      </trkpt>
      <trkpt lat="37.14295626617968082427978515625" lon="-4.2642330564558506011962890625">
        <ele>737.5999755859375</ele>
        <time>2019-10-31T14:41:27.000Z</time>
      </trkpt>
      <trkpt lat="37.14293564669787883758544921875" lon="-4.26448241807520389556884765625">
        <ele>737.5999755859375</ele>
        <time>2019-10-31T14:41:33.000Z</time>
      </trkpt>
      <trkpt lat="37.1428996883332729339599609375" lon="-4.26471568644046783447265625">
        <ele>738.5999755859375</ele>
        <time>2019-10-31T14:41:39.000Z</time>
      </trkpt>
      <trkpt lat="37.14285937137901782989501953125" lon="-4.26496739499270915985107421875">
        <ele>740.5999755859375</ele>
        <time>2019-10-31T14:41:46.000Z</time>
      </trkpt>
      <trkpt lat="37.142818383872509002685546875" lon="-4.2651939578354358673095703125">
        <ele>742.4000244140625</ele>
        <time>2019-10-31T14:41:53.000Z</time>
      </trkpt>
      <trkpt lat="37.1427652426064014434814453125" lon="-4.26542974077165126800537109375">
        <ele>742.5999755859375</ele>
        <time>2019-10-31T14:42:00.000Z</time>
      </trkpt>
      <trkpt lat="37.142710424959659576416015625" lon="-4.26566510461270809173583984375">
        <ele>742.79998779296875</ele>
        <time>2019-10-31T14:42:07.000Z</time>
      </trkpt>
      <trkpt lat="37.14265300892293453216552734375" lon="-4.2659018933773040771484375">
        <ele>743.4000244140625</ele>
        <time>2019-10-31T14:42:14.000Z</time>
      </trkpt>
      <trkpt lat="37.1425697766244411468505859375" lon="-4.2661271989345550537109375">
        <ele>744.5999755859375</ele>
        <time>2019-10-31T14:42:23.000Z</time>
      </trkpt>
      <trkpt lat="37.1425007097423076629638671875" lon="-4.26635242067277431488037109375">
        <ele>745.79998779296875</ele>
        <time>2019-10-31T14:42:32.000Z</time>
      </trkpt>
      <trkpt lat="37.14241831563413143157958984375" lon="-4.266565740108489990234375">
        <ele>746.79998779296875</ele>
        <time>2019-10-31T14:42:40.000Z</time>
      </trkpt>
      <trkpt lat="37.14233583770692348480224609375" lon="-4.26679364405572414398193359375">
        <ele>747</ele>
        <time>2019-10-31T14:42:47.000Z</time>
      </trkpt>
      <trkpt lat="37.1422727219760417938232421875" lon="-4.2670269124209880828857421875">
        <ele>747.4000244140625</ele>
        <time>2019-10-31T14:42:54.000Z</time>
      </trkpt>
      <trkpt lat="37.1422093547880649566650390625" lon="-4.2672730050981044769287109375">
        <ele>747.5999755859375</ele>
        <time>2019-10-31T14:43:01.000Z</time>
      </trkpt>
      <trkpt lat="37.1421419642865657806396484375" lon="-4.2674895934760570526123046875">
        <ele>748.20001220703125</ele>
        <time>2019-10-31T14:43:07.000Z</time>
      </trkpt>
      <trkpt lat="37.14205839671194553375244140625" lon="-4.26772386766970157623291015625">
        <ele>749.4000244140625</ele>
        <time>2019-10-31T14:43:14.000Z</time>
      </trkpt>
      <trkpt lat="37.141984887421131134033203125" lon="-4.2679345048964023590087890625">
        <ele>751</ele>
        <time>2019-10-31T14:43:20.000Z</time>
      </trkpt>
      <trkpt lat="37.1418928541243076324462890625" lon="-4.26816911436617374420166015625">
        <ele>752.4000244140625</ele>
        <time>2019-10-31T14:43:26.000Z</time>
      </trkpt>
      <trkpt lat="37.1418009884655475616455078125" lon="-4.2683911509811878204345703125">
        <ele>753.5999755859375</ele>
        <time>2019-10-31T14:43:31.000Z</time>
      </trkpt>
      <trkpt lat="37.14170585386455059051513671875" lon="-4.2686345614492893218994140625">
        <ele>754.5999755859375</ele>
        <time>2019-10-31T14:43:36.000Z</time>
      </trkpt>
      <trkpt lat="37.141622789204120635986328125" lon="-4.26883446983993053436279296875">
        <ele>754.5999755859375</ele>
        <time>2019-10-31T14:43:40.000Z</time>
      </trkpt>
      <trkpt lat="37.14155011810362339019775390625" lon="-4.26904586143791675567626953125">
        <ele>754.20001220703125</ele>
        <time>2019-10-31T14:43:44.000Z</time>
      </trkpt>
      <trkpt lat="37.14147962629795074462890625" lon="-4.2692544870078563690185546875">
        <ele>753.20001220703125</ele>
        <time>2019-10-31T14:43:48.000Z</time>
      </trkpt>
      <trkpt lat="37.14136772789061069488525390625" lon="-4.26949094049632549285888671875">
        <ele>752</ele>
        <time>2019-10-31T14:43:53.000Z</time>
      </trkpt>
      <trkpt lat="37.1412791311740875244140625" lon="-4.26972697488963603973388671875">
        <ele>751</ele>
        <time>2019-10-31T14:43:58.000Z</time>
      </trkpt>
      <trkpt lat="37.14120025746524333953857421875" lon="-4.2699562199413776397705078125">
        <ele>751.79998779296875</ele>
        <time>2019-10-31T14:44:03.000Z</time>
      </trkpt>
      <trkpt lat="37.14112222194671630859375" lon="-4.2701800167560577392578125">
        <ele>753</ele>
        <time>2019-10-31T14:44:08.000Z</time>
      </trkpt>
      <trkpt lat="37.14103613980114459991455078125" lon="-4.2703987844288349151611328125">
        <ele>753.79998779296875</ele>
        <time>2019-10-31T14:44:13.000Z</time>
      </trkpt>
      <trkpt lat="37.14095500297844409942626953125" lon="-4.2706118524074554443359375">
        <ele>753.79998779296875</ele>
        <time>2019-10-31T14:44:18.000Z</time>
      </trkpt>
      <trkpt lat="37.14087151922285556793212890625" lon="-4.27083380520343780517578125">
        <ele>753.20001220703125</ele>
        <time>2019-10-31T14:44:23.000Z</time>
      </trkpt>
      <trkpt lat="37.1407931484282016754150390625" lon="-4.27104695700109004974365234375">
        <ele>753.4000244140625</ele>
        <time>2019-10-31T14:44:28.000Z</time>
      </trkpt>
      <trkpt lat="37.1407116763293743133544921875" lon="-4.2712604440748691558837890625">
        <ele>753.4000244140625</ele>
        <time>2019-10-31T14:44:33.000Z</time>
      </trkpt>
      <trkpt lat="37.14062693528831005096435546875" lon="-4.27147082984447479248046875">
        <ele>753.79998779296875</ele>
        <time>2019-10-31T14:44:38.000Z</time>
      </trkpt>
      <trkpt lat="37.1405527554452419281005859375" lon="-4.27167761139571666717529296875">
        <ele>754.4000244140625</ele>
        <time>2019-10-31T14:44:43.000Z</time>
      </trkpt>
      <trkpt lat="37.1404917351901531219482421875" lon="-4.27189956419169902801513671875">
        <ele>754.79998779296875</ele>
        <time>2019-10-31T14:44:48.000Z</time>
      </trkpt>
      <trkpt lat="37.1404236741364002227783203125" lon="-4.2721157334744930267333984375">
        <ele>755.20001220703125</ele>
        <time>2019-10-31T14:44:54.000Z</time>
      </trkpt>
      <trkpt lat="37.14036039076745510101318359375" lon="-4.2723417095839977264404296875">
        <ele>755.4000244140625</ele>
        <time>2019-10-31T14:45:01.000Z</time>
      </trkpt>
      <trkpt lat="37.14029015041887760162353515625" lon="-4.2725576274096965789794921875">
        <ele>755.20001220703125</ele>
        <time>2019-10-31T14:45:06.000Z</time>
      </trkpt>
      <trkpt lat="37.1402265317738056182861328125" lon="-4.27279843948781490325927734375">
        <ele>755.4000244140625</ele>
        <time>2019-10-31T14:45:11.000Z</time>
      </trkpt>
      <trkpt lat="37.14016492478549480438232421875" lon="-4.27301016636192798614501953125">
        <ele>756</ele>
        <time>2019-10-31T14:45:15.000Z</time>
      </trkpt>
      <trkpt lat="37.14009988121688365936279296875" lon="-4.27323463372886180877685546875">
        <ele>755.79998779296875</ele>
        <time>2019-10-31T14:45:19.000Z</time>
      </trkpt>
      <trkpt lat="37.1400324068963527679443359375" lon="-4.2734675668179988861083984375">
        <ele>754</ele>
        <time>2019-10-31T14:45:23.000Z</time>
      </trkpt>
      <trkpt lat="37.13995470665395259857177734375" lon="-4.27368767559528350830078125">
        <ele>752.20001220703125</ele>
        <time>2019-10-31T14:45:27.000Z</time>
      </trkpt>
      <trkpt lat="37.13984725065529346466064453125" lon="-4.2739190161228179931640625">
        <ele>750.79998779296875</ele>
        <time>2019-10-31T14:45:31.000Z</time>
      </trkpt>
      <trkpt lat="37.13974063284695148468017578125" lon="-4.27410149015486240386962890625">
        <ele>750.5999755859375</ele>
        <time>2019-10-31T14:45:34.000Z</time>
      </trkpt>
      <trkpt lat="37.1396173350512981414794921875" lon="-4.27429108880460262298583984375">
        <ele>751</ele>
        <time>2019-10-31T14:45:37.000Z</time>
      </trkpt>
      <trkpt lat="37.1395060233771800994873046875" lon="-4.27447934634983539581298828125">
        <ele>751</ele>
        <time>2019-10-31T14:45:41.000Z</time>
      </trkpt>
      <trkpt lat="37.13948138058185577392578125" lon="-4.27453617565333843231201171875">
        <ele>751</ele>
        <time>2019-10-31T14:45:44.000Z</time>
      </trkpt>
      <trkpt lat="37.1394838951528072357177734375" lon="-4.274521172046661376953125">
        <ele>751</ele>
        <time>2019-10-31T14:45:48.000Z</time>
      </trkpt>
      <trkpt lat="37.1394020877778530120849609375" lon="-4.27463759668171405792236328125">
        <ele>751.20001220703125</ele>
        <time>2019-10-31T14:45:58.000Z</time>
      </trkpt>
      <trkpt lat="37.1392823942005634307861328125" lon="-4.2748363316059112548828125">
        <ele>750.79998779296875</ele>
        <time>2019-10-31T14:46:03.000Z</time>
      </trkpt>
      <trkpt lat="37.13913881219923496246337890625" lon="-4.27504864521324634552001953125">
        <ele>750.20001220703125</ele>
        <time>2019-10-31T14:46:08.000Z</time>
      </trkpt>
      <trkpt lat="37.13899992406368255615234375" lon="-4.27526657469570636749267578125">
        <ele>749.5999755859375</ele>
        <time>2019-10-31T14:46:12.000Z</time>
      </trkpt>
      <trkpt lat="37.13887847028672695159912109375" lon="-4.27544829435646533966064453125">
        <ele>748.4000244140625</ele>
        <time>2019-10-31T14:46:15.000Z</time>
      </trkpt>
      <trkpt lat="37.13875441811978816986083984375" lon="-4.2756475321948528289794921875">
        <ele>747.4000244140625</ele>
        <time>2019-10-31T14:46:18.000Z</time>
      </trkpt>
      <trkpt lat="37.1386527456343173980712890625" lon="-4.27581843920052051544189453125">
        <ele>746.79998779296875</ele>
        <time>2019-10-31T14:46:21.000Z</time>
      </trkpt>
      <trkpt lat="37.1385531686246395111083984375" lon="-4.27599932067096233367919921875">
        <ele>746.20001220703125</ele>
        <time>2019-10-31T14:46:25.000Z</time>
      </trkpt>
      <trkpt lat="37.13851335458457469940185546875" lon="-4.27612504921853542327880859375">
        <ele>745.79998779296875</ele>
        <time>2019-10-31T14:46:28.000Z</time>
      </trkpt>
      <trkpt lat="37.1384720318019390106201171875" lon="-4.27637348882853984832763671875">
        <ele>744</ele>
        <time>2019-10-31T14:46:33.000Z</time>
      </trkpt>
      <trkpt lat="37.1384462155401706695556640625" lon="-4.27648521959781646728515625">
        <ele>742.5999755859375</ele>
        <time>2019-10-31T14:46:35.000Z</time>
      </trkpt>
      <trkpt lat="37.138442695140838623046875" lon="-4.2767606489360332489013671875">
        <ele>739.4000244140625</ele>
        <time>2019-10-31T14:46:39.000Z</time>
      </trkpt>
      <trkpt lat="37.138449065387248992919921875" lon="-4.27696340717375278472900390625">
        <ele>737.5999755859375</ele>
        <time>2019-10-31T14:46:42.000Z</time>
      </trkpt>
      <trkpt lat="37.13842785917222499847412109375" lon="-4.27718795835971832275390625">
        <ele>735.4000244140625</ele>
        <time>2019-10-31T14:46:46.000Z</time>
      </trkpt>
      <trkpt lat="37.138399444520473480224609375" lon="-4.27728108130395412445068359375">
        <ele>734.79998779296875</ele>
        <time>2019-10-31T14:46:48.000Z</time>
      </trkpt>
      <trkpt lat="37.1382943354547023773193359375" lon="-4.27749364636838436126708984375">
        <ele>733.20001220703125</ele>
        <time>2019-10-31T14:46:53.000Z</time>
      </trkpt>
      <trkpt lat="37.13823281228542327880859375" lon="-4.277597330510616302490234375">
        <ele>732.4000244140625</ele>
        <time>2019-10-31T14:46:56.000Z</time>
      </trkpt>
      <trkpt lat="37.13819199241697788238525390625" lon="-4.27765089087188243865966796875">
        <ele>732</ele>
        <time>2019-10-31T14:46:58.000Z</time>
      </trkpt>
      <trkpt lat="37.138126529753208160400390625" lon="-4.27774183452129364013671875">
        <ele>731.20001220703125</ele>
        <time>2019-10-31T14:47:01.000Z</time>
      </trkpt>
      <trkpt lat="37.13807514868676662445068359375" lon="-4.2778120748698711395263671875">
        <ele>730.79998779296875</ele>
        <time>2019-10-31T14:47:03.000Z</time>
      </trkpt>
      <trkpt lat="37.1379956044256687164306640625" lon="-4.27789832465350627899169921875">
        <ele>730.20001220703125</ele>
        <time>2019-10-31T14:47:06.000Z</time>
      </trkpt>
      <trkpt lat="37.13791874237358570098876953125" lon="-4.2779954709112644195556640625">
        <ele>729.5999755859375</ele>
        <time>2019-10-31T14:47:09.000Z</time>
      </trkpt>
      <trkpt lat="37.137787900865077972412109375" lon="-4.27816964685916900634765625">
        <ele>727</ele>
        <time>2019-10-31T14:47:14.000Z</time>
      </trkpt>
      <trkpt lat="37.13765152730047702789306640625" lon="-4.27834306843578815460205078125">
        <ele>724.79998779296875</ele>
        <time>2019-10-31T14:47:21.000Z</time>
      </trkpt>
      <trkpt lat="37.13761749677360057830810546875" lon="-4.27842487581074237823486328125">
        <ele>724.4000244140625</ele>
        <time>2019-10-31T14:47:27.000Z</time>
      </trkpt>
      <trkpt lat="37.1376140601933002471923828125" lon="-4.27843560464680194854736328125">
        <ele>724.4000244140625</ele>
        <time>2019-10-31T14:47:30.000Z</time>
      </trkpt>
      <trkpt lat="37.13755882345139980316162109375" lon="-4.2785242013633251190185546875">
        <ele>724</ele>
        <time>2019-10-31T14:47:56.000Z</time>
      </trkpt>
      <trkpt lat="37.13743343017995357513427734375" lon="-4.27869133651256561279296875">
        <ele>724</ele>
        <time>2019-10-31T14:48:02.000Z</time>
      </trkpt>
      <trkpt lat="37.13740560226142406463623046875" lon="-4.2787464894354343414306640625">
        <ele>724</ele>
        <time>2019-10-31T14:48:04.000Z</time>
      </trkpt>
      <trkpt lat="37.1373193524777889251708984375" lon="-4.2789449729025363922119140625">
        <ele>725</ele>
        <time>2019-10-31T14:48:14.000Z</time>
      </trkpt>
      <trkpt lat="37.13727182708680629730224609375" lon="-4.27914991043508052825927734375">
        <ele>726</ele>
        <time>2019-10-31T14:48:23.000Z</time>
      </trkpt>
      <trkpt lat="37.1372942067682743072509765625" lon="-4.27922233007848262786865234375">
        <ele>726.20001220703125</ele>
        <time>2019-10-31T14:48:29.000Z</time>
      </trkpt>
      <trkpt lat="37.1372995711863040924072265625" lon="-4.27922400645911693572998046875">
        <ele>726.20001220703125</ele>
        <time>2019-10-31T14:48:32.000Z</time>
      </trkpt>
      <trkpt lat="37.1372774429619312286376953125" lon="-4.27933280356228351593017578125">
        <ele>726.5999755859375</ele>
        <time>2019-10-31T14:48:42.000Z</time>
      </trkpt>
      <trkpt lat="37.1372704021632671356201171875" lon="-4.2794550955295562744140625">
        <ele>727.20001220703125</ele>
        <time>2019-10-31T14:48:46.000Z</time>
      </trkpt>
      <trkpt lat="37.1372479386627674102783203125" lon="-4.279711246490478515625">
        <ele>728</ele>
        <time>2019-10-31T14:48:53.000Z</time>
      </trkpt>
      <trkpt lat="37.1372325159609317779541015625" lon="-4.27996362559497356414794921875">
        <ele>727.5999755859375</ele>
        <time>2019-10-31T14:49:00.000Z</time>
      </trkpt>
      <trkpt lat="37.1371584199368953704833984375" lon="-4.2801932059228420257568359375">
        <ele>727</ele>
        <time>2019-10-31T14:49:07.000Z</time>
      </trkpt>
      <trkpt lat="37.13710485957562923431396484375" lon="-4.28043401800096035003662109375">
        <ele>726.4000244140625</ele>
        <time>2019-10-31T14:49:16.000Z</time>
      </trkpt>
      <trkpt lat="37.1370303444564342498779296875" lon="-4.28066150285303592681884765625">
        <ele>726</ele>
        <time>2019-10-31T14:49:23.000Z</time>
      </trkpt>
      <trkpt lat="37.13692163117229938507080078125" lon="-4.28086753003299236297607421875">
        <ele>726</ele>
        <time>2019-10-31T14:49:28.000Z</time>
      </trkpt>
      <trkpt lat="37.136794812977313995361328125" lon="-4.2810967750847339630126953125">
        <ele>726</ele>
        <time>2019-10-31T14:49:33.000Z</time>
      </trkpt>
      <trkpt lat="37.13667805306613445281982421875" lon="-4.28130154497921466827392578125">
        <ele>725.4000244140625</ele>
        <time>2019-10-31T14:49:38.000Z</time>
      </trkpt>
      <trkpt lat="37.13655467145144939422607421875" lon="-4.281512014567852020263671875">
        <ele>726</ele>
        <time>2019-10-31T14:49:43.000Z</time>
      </trkpt>
      <trkpt lat="37.13643363676965236663818359375" lon="-4.28170437924563884735107421875">
        <ele>726</ele>
        <time>2019-10-31T14:49:48.000Z</time>
      </trkpt>
      <trkpt lat="37.13630908168852329254150390625" lon="-4.281924404203891754150390625">
        <ele>726.20001220703125</ele>
        <time>2019-10-31T14:49:53.000Z</time>
      </trkpt>
      <trkpt lat="37.13619492016732692718505859375" lon="-4.28211475722491741180419921875">
        <ele>728</ele>
        <time>2019-10-31T14:49:57.000Z</time>
      </trkpt>
      <trkpt lat="37.13607690297067165374755859375" lon="-4.28231575526297092437744140625">
        <ele>729.79998779296875</ele>
        <time>2019-10-31T14:50:01.000Z</time>
      </trkpt>
      <trkpt lat="37.1359495818614959716796875" lon="-4.28252580575644969940185546875">
        <ele>731</ele>
        <time>2019-10-31T14:50:05.000Z</time>
      </trkpt>
      <trkpt lat="37.1358129568397998809814453125" lon="-4.28274122066795825958251953125">
        <ele>731</ele>
        <time>2019-10-31T14:50:09.000Z</time>
      </trkpt>
      <trkpt lat="37.1356627531349658966064453125" lon="-4.2829599045217037200927734375">
        <ele>729.4000244140625</ele>
        <time>2019-10-31T14:50:13.000Z</time>
      </trkpt>
      <trkpt lat="37.1355159021914005279541015625" lon="-4.28317540325224399566650390625">
        <ele>726.4000244140625</ele>
        <time>2019-10-31T14:50:17.000Z</time>
      </trkpt>
      <trkpt lat="37.13536955416202545166015625" lon="-4.2833796702325344085693359375">
        <ele>724.20001220703125</ele>
        <time>2019-10-31T14:50:21.000Z</time>
      </trkpt>
      <trkpt lat="37.135210298001766204833984375" lon="-4.2835590429604053497314453125">
        <ele>723</ele>
        <time>2019-10-31T14:50:25.000Z</time>
      </trkpt>
      <trkpt lat="37.13507710956037044525146484375" lon="-4.283719472587108612060546875">
        <ele>722.79998779296875</ele>
        <time>2019-10-31T14:50:29.000Z</time>
      </trkpt>
      <trkpt lat="37.13491802103817462921142578125" lon="-4.28388937376439571380615234375">
        <ele>722.79998779296875</ele>
        <time>2019-10-31T14:50:34.000Z</time>
      </trkpt>
      <trkpt lat="37.134744934737682342529296875" lon="-4.28406941704452037811279296875">
        <ele>723.20001220703125</ele>
        <time>2019-10-31T14:50:39.000Z</time>
      </trkpt>
      <trkpt lat="37.1345814876258373260498046875" lon="-4.28421744145452976226806640625">
        <ele>723.4000244140625</ele>
        <time>2019-10-31T14:50:43.000Z</time>
      </trkpt>
      <trkpt lat="37.1344168670475482940673828125" lon="-4.28435909561812877655029296875">
        <ele>723</ele>
        <time>2019-10-31T14:50:47.000Z</time>
      </trkpt>
      <trkpt lat="37.1343803219497203826904296875" lon="-4.28439144976437091827392578125">
        <ele>722.79998779296875</ele>
        <time>2019-10-31T14:50:48.000Z</time>
      </trkpt>
      <trkpt lat="37.13421888649463653564453125" lon="-4.2845244705677032470703125">
        <ele>722.4000244140625</ele>
        <time>2019-10-31T14:50:52.000Z</time>
      </trkpt>
      <trkpt lat="37.13406340219080448150634765625" lon="-4.28465388715267181396484375">
        <ele>722</ele>
        <time>2019-10-31T14:50:56.000Z</time>
      </trkpt>
      <trkpt lat="37.13386726565659046173095703125" lon="-4.2847834713757038116455078125">
        <ele>722.20001220703125</ele>
        <time>2019-10-31T14:51:01.000Z</time>
      </trkpt>
      <trkpt lat="37.13367029093205928802490234375" lon="-4.28491565398871898651123046875">
        <ele>723</ele>
        <time>2019-10-31T14:51:06.000Z</time>
      </trkpt>
      <trkpt lat="37.1335042454302310943603515625" lon="-4.28501573391258716583251953125">
        <ele>723.79998779296875</ele>
        <time>2019-10-31T14:51:10.000Z</time>
      </trkpt>
      <trkpt lat="37.13331070728600025177001953125" lon="-4.28512671031057834625244140625">
        <ele>724.79998779296875</ele>
        <time>2019-10-31T14:51:15.000Z</time>
      </trkpt>
      <trkpt lat="37.13312161155045032501220703125" lon="-4.2852310650050640106201171875">
        <ele>726</ele>
        <time>2019-10-31T14:51:20.000Z</time>
      </trkpt>
      <trkpt lat="37.13293352164328098297119140625" lon="-4.285348244011402130126953125">
        <ele>727.20001220703125</ele>
        <time>2019-10-31T14:51:25.000Z</time>
      </trkpt>
      <trkpt lat="37.13274769484996795654296875" lon="-4.28545712493360042572021484375">
        <ele>727.79998779296875</ele>
        <time>2019-10-31T14:51:30.000Z</time>
      </trkpt>
      <trkpt lat="37.132570333778858184814453125" lon="-4.285552762448787689208984375">
        <ele>728.4000244140625</ele>
        <time>2019-10-31T14:51:35.000Z</time>
      </trkpt>
      <trkpt lat="37.13239037431776523590087890625" lon="-4.28564806468784809112548828125">
        <ele>729</ele>
        <time>2019-10-31T14:51:40.000Z</time>
      </trkpt>
      <trkpt lat="37.1322110854089260101318359375" lon="-4.2857437022030353546142578125">
        <ele>729</ele>
        <time>2019-10-31T14:51:45.000Z</time>
      </trkpt>
      <trkpt lat="37.1320139430463314056396484375" lon="-4.28584537468850612640380859375">
        <ele>728.79998779296875</ele>
        <time>2019-10-31T14:51:50.000Z</time>
      </trkpt>
      <trkpt lat="37.13182811625301837921142578125" lon="-4.285932295024394989013671875">
        <ele>728.4000244140625</ele>
        <time>2019-10-31T14:51:55.000Z</time>
      </trkpt>
      <trkpt lat="37.131761647760868072509765625" lon="-4.2859596200287342071533203125">
        <ele>728.4000244140625</ele>
        <time>2019-10-31T14:51:57.000Z</time>
      </trkpt>
      <trkpt lat="37.13159593753516674041748046875" lon="-4.2860511504113674163818359375">
        <ele>728</ele>
        <time>2019-10-31T14:52:02.000Z</time>
      </trkpt>
      <trkpt lat="37.13149568997323513031005859375" lon="-4.2861148528754711151123046875">
        <ele>728</ele>
        <time>2019-10-31T14:52:05.000Z</time>
      </trkpt>
      <trkpt lat="37.1313313208520412445068359375" lon="-4.28624183870851993560791015625">
        <ele>728.20001220703125</ele>
        <time>2019-10-31T14:52:10.000Z</time>
      </trkpt>
      <trkpt lat="37.1312941052019596099853515625" lon="-4.28625809960067272186279296875">
        <ele>728.20001220703125</ele>
        <time>2019-10-31T14:52:11.000Z</time>
      </trkpt>
      <trkpt lat="37.1310989744961261749267578125" lon="-4.286124072968959808349609375">
        <ele>729.4000244140625</ele>
        <time>2019-10-31T14:52:16.000Z</time>
      </trkpt>
      <trkpt lat="37.13093846105039119720458984375" lon="-4.28609414957463741302490234375">
        <ele>730.20001220703125</ele>
        <time>2019-10-31T14:52:19.000Z</time>
      </trkpt>
      <trkpt lat="37.130708210170269012451171875" lon="-4.2861061356961727142333984375">
        <ele>731</ele>
        <time>2019-10-31T14:52:23.000Z</time>
      </trkpt>
      <trkpt lat="37.130481898784637451171875" lon="-4.28611963056027889251708984375">
        <ele>731.79998779296875</ele>
        <time>2019-10-31T14:52:27.000Z</time>
      </trkpt>
      <trkpt lat="37.13027201592922210693359375" lon="-4.286132119596004486083984375">
        <ele>731.79998779296875</ele>
        <time>2019-10-31T14:52:31.000Z</time>
      </trkpt>
      <trkpt lat="37.130080573260784149169921875" lon="-4.28615399636328220367431640625">
        <ele>730.5999755859375</ele>
        <time>2019-10-31T14:52:35.000Z</time>
      </trkpt>
      <trkpt lat="37.12998904287815093994140625" lon="-4.28616103716194629669189453125">
        <ele>729.79998779296875</ele>
        <time>2019-10-31T14:52:37.000Z</time>
      </trkpt>
      <trkpt lat="37.12978729046881198883056640625" lon="-4.2862070538103580474853515625">
        <ele>728.4000244140625</ele>
        <time>2019-10-31T14:52:41.000Z</time>
      </trkpt>
      <trkpt lat="37.1296418644487857818603515625" lon="-4.28626866079866886138916015625">
        <ele>727.5999755859375</ele>
        <time>2019-10-31T14:52:44.000Z</time>
      </trkpt>
      <trkpt lat="37.12947464548051357269287109375" lon="-4.2864145897328853607177734375">
        <ele>727.4000244140625</ele>
        <time>2019-10-31T14:52:48.000Z</time>
      </trkpt>
      <trkpt lat="37.12940708734095096588134765625" lon="-4.28651257418096065521240234375">
        <ele>727.20001220703125</ele>
        <time>2019-10-31T14:52:50.000Z</time>
      </trkpt>
      <trkpt lat="37.129376493394374847412109375" lon="-4.2865629494190216064453125">
        <ele>727</ele>
        <time>2019-10-31T14:52:51.000Z</time>
      </trkpt>
      <trkpt lat="37.129269875586032867431640625" lon="-4.286793284118175506591796875">
        <ele>727</ele>
        <time>2019-10-31T14:52:55.000Z</time>
      </trkpt>
      <trkpt lat="37.1291716396808624267578125" lon="-4.2870430648326873779296875">
        <ele>727</ele>
        <time>2019-10-31T14:52:59.000Z</time>
      </trkpt>
      <trkpt lat="37.12907315231859683990478515625" lon="-4.2872883193194866180419921875">
        <ele>726</ele>
        <time>2019-10-31T14:53:03.000Z</time>
      </trkpt>
      <trkpt lat="37.1289887465536594390869140625" lon="-4.28751471452414989471435546875">
        <ele>724.79998779296875</ele>
        <time>2019-10-31T14:53:07.000Z</time>
      </trkpt>
      <trkpt lat="37.12895563803613185882568359375" lon="-4.2876289598643779754638671875">
        <ele>724.4000244140625</ele>
        <time>2019-10-31T14:53:09.000Z</time>
      </trkpt>
      <trkpt lat="37.12887969799339771270751953125" lon="-4.28783423267304897308349609375">
        <ele>724.4000244140625</ele>
        <time>2019-10-31T14:53:13.000Z</time>
      </trkpt>
      <trkpt lat="37.1287983097136020660400390625" lon="-4.2880574427545070648193359375">
        <ele>725</ele>
        <time>2019-10-31T14:53:17.000Z</time>
      </trkpt>
      <trkpt lat="37.12869697250425815582275390625" lon="-4.28829892538487911224365234375">
        <ele>725</ele>
        <time>2019-10-31T14:53:21.000Z</time>
      </trkpt>
      <trkpt lat="37.12857996113598346710205078125" lon="-4.2885422520339488983154296875">
        <ele>725</ele>
        <time>2019-10-31T14:53:25.000Z</time>
      </trkpt>
      <trkpt lat="37.12847703136503696441650390625" lon="-4.28878574632108211517333984375">
        <ele>726</ele>
        <time>2019-10-31T14:53:29.000Z</time>
      </trkpt>
      <trkpt lat="37.1283710002899169921875" lon="-4.28901876322925090789794921875">
        <ele>726.5999755859375</ele>
        <time>2019-10-31T14:53:33.000Z</time>
      </trkpt>
      <trkpt lat="37.1282516419887542724609375" lon="-4.28925312124192714691162109375">
        <ele>727.5999755859375</ele>
        <time>2019-10-31T14:53:37.000Z</time>
      </trkpt>
      <trkpt lat="37.1281502209603786468505859375" lon="-4.28947239182889461517333984375">
        <ele>728</ele>
        <time>2019-10-31T14:53:41.000Z</time>
      </trkpt>
      <trkpt lat="37.1280482970178127288818359375" lon="-4.28966484032571315765380859375">
        <ele>728</ele>
        <time>2019-10-31T14:53:45.000Z</time>
      </trkpt>
      <trkpt lat="37.1279621310532093048095703125" lon="-4.2897988669574260711669921875">
        <ele>728</ele>
        <time>2019-10-31T14:53:48.000Z</time>
      </trkpt>
      <trkpt lat="37.12780698202550411224365234375" lon="-4.28997061215341091156005859375">
        <ele>728.20001220703125</ele>
        <time>2019-10-31T14:53:53.000Z</time>
      </trkpt>
      <trkpt lat="37.12764185853302478790283203125" lon="-4.29007505066692829132080078125">
        <ele>728.5999755859375</ele>
        <time>2019-10-31T14:53:58.000Z</time>
      </trkpt>
      <trkpt lat="37.12750758044421672821044921875" lon="-4.29012232460081577301025390625">
        <ele>729.20001220703125</ele>
        <time>2019-10-31T14:54:02.000Z</time>
      </trkpt>
      <trkpt lat="37.12732384912669658660888671875" lon="-4.2901287786662578582763671875">
        <ele>730</ele>
        <time>2019-10-31T14:54:07.000Z</time>
      </trkpt>
      <trkpt lat="37.127173058688640594482421875" lon="-4.29010723717510700225830078125">
        <ele>730.4000244140625</ele>
        <time>2019-10-31T14:54:11.000Z</time>
      </trkpt>
      <trkpt lat="37.1270987950265407562255859375" lon="-4.29010924883186817169189453125">
        <ele>730.5999755859375</ele>
        <time>2019-10-31T14:54:13.000Z</time>
      </trkpt>
      <trkpt lat="37.1270312368869781494140625" lon="-4.2901250906288623809814453125">
        <ele>731</ele>
        <time>2019-10-31T14:54:15.000Z</time>
      </trkpt>
      <trkpt lat="37.126885391771793365478515625" lon="-4.2902189679443836212158203125">
        <ele>731.79998779296875</ele>
        <time>2019-10-31T14:54:20.000Z</time>
      </trkpt>
      <trkpt lat="37.1268329210579395294189453125" lon="-4.29027822799980640411376953125">
        <ele>732.20001220703125</ele>
        <time>2019-10-31T14:54:22.000Z</time>
      </trkpt>
      <trkpt lat="37.126770727336406707763671875" lon="-4.2903742007911205291748046875">
        <ele>732.79998779296875</ele>
        <time>2019-10-31T14:54:25.000Z</time>
      </trkpt>
      <trkpt lat="37.1267169155180454254150390625" lon="-4.29057679139077663421630859375">
        <ele>733.4000244140625</ele>
        <time>2019-10-31T14:54:30.000Z</time>
      </trkpt>
      <trkpt lat="37.12671465240418910980224609375" lon="-4.29066999815404415130615234375">
        <ele>733.5999755859375</ele>
        <time>2019-10-31T14:54:32.000Z</time>
      </trkpt>
      <trkpt lat="37.126736529171466827392578125" lon="-4.29090335033833980560302734375">
        <ele>734.79998779296875</ele>
        <time>2019-10-31T14:54:37.000Z</time>
      </trkpt>
      <trkpt lat="37.126749269664287567138671875" lon="-4.29095305502414703369140625">
        <ele>735</ele>
        <time>2019-10-31T14:54:38.000Z</time>
      </trkpt>
      <trkpt lat="37.12677567265927791595458984375" lon="-4.291194789111614227294921875">
        <ele>736</ele>
        <time>2019-10-31T14:54:44.000Z</time>
      </trkpt>
      <trkpt lat="37.12675773538649082183837890625" lon="-4.2914403788745403289794921875">
        <ele>737.5999755859375</ele>
        <time>2019-10-31T14:54:50.000Z</time>
      </trkpt>
      <trkpt lat="37.126705683767795562744140625" lon="-4.2916717194020748138427734375">
        <ele>738.20001220703125</ele>
        <time>2019-10-31T14:54:57.000Z</time>
      </trkpt>
      <trkpt lat="37.126717753708362579345703125" lon="-4.2919141240417957305908203125">
        <ele>738.5999755859375</ele>
        <time>2019-10-31T14:55:03.000Z</time>
      </trkpt>
      <trkpt lat="37.126592695713043212890625" lon="-4.2920807562768459320068359375">
        <ele>738.20001220703125</ele>
        <time>2019-10-31T14:55:09.000Z</time>
      </trkpt>
      <trkpt lat="37.12646319530904293060302734375" lon="-4.29225015453994274139404296875">
        <ele>738.79998779296875</ele>
        <time>2019-10-31T14:55:15.000Z</time>
      </trkpt>
      <trkpt lat="37.126322798430919647216796875" lon="-4.292392395436763763427734375">
        <ele>739.79998779296875</ele>
        <time>2019-10-31T14:55:22.000Z</time>
      </trkpt>
      <trkpt lat="37.12615742348134517669677734375" lon="-4.29249943234026432037353515625">
        <ele>741.79998779296875</ele>
        <time>2019-10-31T14:55:30.000Z</time>
      </trkpt>
      <trkpt lat="37.12599263526499271392822265625" lon="-4.2926289327442646026611328125">
        <ele>744.20001220703125</ele>
        <time>2019-10-31T14:55:38.000Z</time>
      </trkpt>
      <trkpt lat="37.12581912986934185028076171875" lon="-4.2927439324557781219482421875">
        <ele>745.4000244140625</ele>
        <time>2019-10-31T14:55:46.000Z</time>
      </trkpt>
      <trkpt lat="37.12565300054848194122314453125" lon="-4.29287779144942760467529296875">
        <ele>746</ele>
        <time>2019-10-31T14:55:54.000Z</time>
      </trkpt>
      <trkpt lat="37.12550480850040912628173828125" lon="-4.29301274009048938751220703125">
        <ele>746.20001220703125</ele>
        <time>2019-10-31T14:56:01.000Z</time>
      </trkpt>
      <trkpt lat="37.12535242550075054168701171875" lon="-4.2931692302227020263671875">
        <ele>746.79998779296875</ele>
        <time>2019-10-31T14:56:08.000Z</time>
      </trkpt>
      <trkpt lat="37.1252044849097728729248046875" lon="-4.2933246307075023651123046875">
        <ele>747.5999755859375</ele>
        <time>2019-10-31T14:56:15.000Z</time>
      </trkpt>
      <trkpt lat="37.1250452287495136260986328125" lon="-4.29347835481166839599609375">
        <ele>748.20001220703125</ele>
        <time>2019-10-31T14:56:22.000Z</time>
      </trkpt>
      <trkpt lat="37.12487633340060710906982421875" lon="-4.2936293967068195343017578125">
        <ele>748.5999755859375</ele>
        <time>2019-10-31T14:56:29.000Z</time>
      </trkpt>
      <trkpt lat="37.12473057210445404052734375" lon="-4.2937631718814373016357421875">
        <ele>749</ele>
        <time>2019-10-31T14:56:35.000Z</time>
      </trkpt>
      <trkpt lat="37.12458397261798381805419921875" lon="-4.29389786906540393829345703125">
        <ele>749.20001220703125</ele>
        <time>2019-10-31T14:56:41.000Z</time>
      </trkpt>
      <trkpt lat="37.12443544529378414154052734375" lon="-4.29404103197157382965087890625">
        <ele>748.5999755859375</ele>
        <time>2019-10-31T14:56:47.000Z</time>
      </trkpt>
      <trkpt lat="37.12429043836891651153564453125" lon="-4.294178076088428497314453125">
        <ele>748</ele>
        <time>2019-10-31T14:56:53.000Z</time>
      </trkpt>
      <trkpt lat="37.124158255755901336669921875" lon="-4.2943364940583705902099609375">
        <ele>747.5999755859375</ele>
        <time>2019-10-31T14:56:59.000Z</time>
      </trkpt>
      <trkpt lat="37.12405054830014705657958984375" lon="-4.2945245839655399322509765625">
        <ele>748.4000244140625</ele>
        <time>2019-10-31T14:57:05.000Z</time>
      </trkpt>
      <trkpt lat="37.12396102957427501678466796875" lon="-4.29473471827805042266845703125">
        <ele>749.4000244140625</ele>
        <time>2019-10-31T14:57:11.000Z</time>
      </trkpt>
      <trkpt lat="37.12387184612452983856201171875" lon="-4.2949751950800418853759765625">
        <ele>750.20001220703125</ele>
        <time>2019-10-31T14:57:17.000Z</time>
      </trkpt>
      <trkpt lat="37.123794145882129669189453125" lon="-4.29518365301191806793212890625">
        <ele>750.79998779296875</ele>
        <time>2019-10-31T14:57:22.000Z</time>
      </trkpt>
      <trkpt lat="37.12371476925909519195556640625" lon="-4.2953954637050628662109375">
        <ele>751.20001220703125</ele>
        <time>2019-10-31T14:57:27.000Z</time>
      </trkpt>
      <trkpt lat="37.1236263401806354522705078125" lon="-4.29563828743994235992431640625">
        <ele>751.4000244140625</ele>
        <time>2019-10-31T14:57:33.000Z</time>
      </trkpt>
      <trkpt lat="37.12357613258063793182373046875" lon="-4.29588588885962963104248046875">
        <ele>751.20001220703125</ele>
        <time>2019-10-31T14:57:40.000Z</time>
      </trkpt>
      <trkpt lat="37.123553752899169921875" lon="-4.29613717831671237945556640625">
        <ele>751.4000244140625</ele>
        <time>2019-10-31T14:57:48.000Z</time>
      </trkpt>
      <trkpt lat="37.12356590665876865386962890625" lon="-4.2963830195367336273193359375">
        <ele>751.4000244140625</ele>
        <time>2019-10-31T14:57:56.000Z</time>
      </trkpt>
      <trkpt lat="37.12356674484908580780029296875" lon="-4.2965379171073436737060546875">
        <ele>751.4000244140625</ele>
        <time>2019-10-31T14:58:01.000Z</time>
      </trkpt>
      <trkpt lat="37.1235609613358974456787109375" lon="-4.2967850156128406524658203125">
        <ele>750.5999755859375</ele>
        <time>2019-10-31T14:58:07.000Z</time>
      </trkpt>
      <trkpt lat="37.123554758727550506591796875" lon="-4.2970421724021434783935546875">
        <ele>749.5999755859375</ele>
        <time>2019-10-31T14:58:13.000Z</time>
      </trkpt>
      <trkpt lat="37.123554088175296783447265625" lon="-4.29730989038944244384765625">
        <ele>749.4000244140625</ele>
        <time>2019-10-31T14:58:19.000Z</time>
      </trkpt>
      <trkpt lat="37.12356724776327610015869140625" lon="-4.297556988894939422607421875">
        <ele>748.79998779296875</ele>
        <time>2019-10-31T14:58:24.000Z</time>
      </trkpt>
      <trkpt lat="37.1236441098153591156005859375" lon="-4.29777936078608036041259765625">
        <ele>748.4000244140625</ele>
        <time>2019-10-31T14:58:29.000Z</time>
      </trkpt>
      <trkpt lat="37.12379624135792255401611328125" lon="-4.2978964559733867645263671875">
        <ele>748.4000244140625</ele>
        <time>2019-10-31T14:58:34.000Z</time>
      </trkpt>
      <trkpt lat="37.1239421702921390533447265625" lon="-4.2979675345122814178466796875">
        <ele>749.20001220703125</ele>
        <time>2019-10-31T14:58:40.000Z</time>
      </trkpt>
      <trkpt lat="37.12394560687243938446044921875" lon="-4.2979596555233001708984375">
        <ele>749.4000244140625</ele>
        <time>2019-10-31T14:58:45.000Z</time>
      </trkpt>
      <trkpt lat="37.12401383556425571441650390625" lon="-4.29800734855234622955322265625">
        <ele>749.5999755859375</ele>
        <time>2019-10-31T14:58:52.000Z</time>
      </trkpt>
      <trkpt lat="37.1241406537592411041259765625" lon="-4.29808932356536388397216796875">
        <ele>749.5999755859375</ele>
        <time>2019-10-31T14:58:57.000Z</time>
      </trkpt>
      <trkpt lat="37.124329246580600738525390625" lon="-4.29820750840008258819580078125">
        <ele>749.4000244140625</ele>
        <time>2019-10-31T14:59:03.000Z</time>
      </trkpt>
      <trkpt lat="37.12449562735855579376220703125" lon="-4.298305995762348175048828125">
        <ele>748.79998779296875</ele>
        <time>2019-10-31T14:59:09.000Z</time>
      </trkpt>
      <trkpt lat="37.1246636845171451568603515625" lon="-4.29842057637870311737060546875">
        <ele>748</ele>
        <time>2019-10-31T14:59:14.000Z</time>
      </trkpt>
      <trkpt lat="37.12484850548207759857177734375" lon="-4.298564158380031585693359375">
        <ele>747</ele>
        <time>2019-10-31T14:59:19.000Z</time>
      </trkpt>
      <trkpt lat="37.1249927580356597900390625" lon="-4.29872400127351284027099609375">
        <ele>745.79998779296875</ele>
        <time>2019-10-31T14:59:23.000Z</time>
      </trkpt>
      <trkpt lat="37.1251308917999267578125" lon="-4.29887470789253711700439453125">
        <ele>745</ele>
        <time>2019-10-31T14:59:27.000Z</time>
      </trkpt>
      <trkpt lat="37.12528989650309085845947265625" lon="-4.29905760101974010467529296875">
        <ele>744.79998779296875</ele>
        <time>2019-10-31T14:59:32.000Z</time>
      </trkpt>
      <trkpt lat="37.12543121539056301116943359375" lon="-4.29923177696764469146728515625">
        <ele>746.20001220703125</ele>
        <time>2019-10-31T14:59:38.000Z</time>
      </trkpt>
      <trkpt lat="37.1254742145538330078125" lon="-4.29945691488683223724365234375">
        <ele>748.4000244140625</ele>
        <time>2019-10-31T14:59:43.000Z</time>
      </trkpt>
      <trkpt lat="37.125383354723453521728515625" lon="-4.29964986629784107208251953125">
        <ele>749.79998779296875</ele>
        <time>2019-10-31T14:59:47.000Z</time>
      </trkpt>
      <trkpt lat="37.1252393536269664764404296875" lon="-4.29983896203339099884033203125">
        <ele>751.20001220703125</ele>
        <time>2019-10-31T14:59:52.000Z</time>
      </trkpt>
      <trkpt lat="37.12509241886436939239501953125" lon="-4.3000318296253681182861328125">
        <ele>752</ele>
        <time>2019-10-31T14:59:57.000Z</time>
      </trkpt>
      <trkpt lat="37.124946825206279754638671875" lon="-4.30022142827510833740234375">
        <ele>752.4000244140625</ele>
        <time>2019-10-31T15:00:02.000Z</time>
      </trkpt>
      <trkpt lat="37.12480039335787296295166015625" lon="-4.300404824316501617431640625">
        <ele>752</ele>
        <time>2019-10-31T15:00:07.000Z</time>
      </trkpt>
      <trkpt lat="37.124651782214641571044921875" lon="-4.3005870468914508819580078125">
        <ele>751.79998779296875</ele>
        <time>2019-10-31T15:00:12.000Z</time>
      </trkpt>
      <trkpt lat="37.1244755946099758148193359375" lon="-4.300769269466400146484375">
        <ele>752.4000244140625</ele>
        <time>2019-10-31T15:00:18.000Z</time>
      </trkpt>
      <trkpt lat="37.124293036758899688720703125" lon="-4.3009270168840885162353515625">
        <ele>752.4000244140625</ele>
        <time>2019-10-31T15:00:24.000Z</time>
      </trkpt>
      <trkpt lat="37.1241440065205097198486328125" lon="-4.30106221698224544525146484375">
        <ele>752.4000244140625</ele>
        <time>2019-10-31T15:00:29.000Z</time>
      </trkpt>
      <trkpt lat="37.123971842229366302490234375" lon="-4.30121250450611114501953125">
        <ele>753</ele>
        <time>2019-10-31T15:00:35.000Z</time>
      </trkpt>
      <trkpt lat="37.12382993660867214202880859375" lon="-4.30136346258223056793212890625">
        <ele>753.5999755859375</ele>
        <time>2019-10-31T15:00:40.000Z</time>
      </trkpt>
      <trkpt lat="37.12370437569916248321533203125" lon="-4.30153839290142059326171875">
        <ele>754.4000244140625</ele>
        <time>2019-10-31T15:00:45.000Z</time>
      </trkpt>
      <trkpt lat="37.123588956892490386962890625" lon="-4.30171499960124492645263671875">
        <ele>755.79998779296875</ele>
        <time>2019-10-31T15:00:50.000Z</time>
      </trkpt>
      <trkpt lat="37.12346398271620273590087890625" lon="-4.30192488245666027069091796875">
        <ele>757.20001220703125</ele>
        <time>2019-10-31T15:00:56.000Z</time>
      </trkpt>
      <trkpt lat="37.1233520843088626861572265625" lon="-4.30214834399521350860595703125">
        <ele>758.79998779296875</ele>
        <time>2019-10-31T15:01:02.000Z</time>
      </trkpt>
      <trkpt lat="37.12326181121170520782470703125" lon="-4.3023690395057201385498046875">
        <ele>761.20001220703125</ele>
        <time>2019-10-31T15:01:08.000Z</time>
      </trkpt>
      <trkpt lat="37.12316039018332958221435546875" lon="-4.30257984437048435211181640625">
        <ele>762.20001220703125</ele>
        <time>2019-10-31T15:01:14.000Z</time>
      </trkpt>
      <trkpt lat="37.12308092974126338958740234375" lon="-4.302807748317718505859375">
        <ele>762.79998779296875</ele>
        <time>2019-10-31T15:01:20.000Z</time>
      </trkpt>
      <trkpt lat="37.12298856116831302642822265625" lon="-4.3030382506549358367919921875">
        <ele>762.79998779296875</ele>
        <time>2019-10-31T15:01:26.000Z</time>
      </trkpt>
      <trkpt lat="37.12288294918835163116455078125" lon="-4.3032394163310527801513671875">
        <ele>760.79998779296875</ele>
        <time>2019-10-31T15:01:31.000Z</time>
      </trkpt>
      <trkpt lat="37.12275981903076171875" lon="-4.30342130362987518310546875">
        <ele>758.5999755859375</ele>
        <time>2019-10-31T15:01:36.000Z</time>
      </trkpt>
      <trkpt lat="37.1226164884865283966064453125" lon="-4.30360503494739532470703125">
        <ele>756.79998779296875</ele>
        <time>2019-10-31T15:01:41.000Z</time>
      </trkpt>
      <trkpt lat="37.1224595792591571807861328125" lon="-4.30373587645590305328369140625">
        <ele>756.20001220703125</ele>
        <time>2019-10-31T15:01:46.000Z</time>
      </trkpt>
      <trkpt lat="37.12229236029088497161865234375" lon="-4.30384987033903598785400390625">
        <ele>755.5999755859375</ele>
        <time>2019-10-31T15:01:51.000Z</time>
      </trkpt>
      <trkpt lat="37.1220951341092586517333984375" lon="-4.3039490282535552978515625">
        <ele>755.20001220703125</ele>
        <time>2019-10-31T15:01:56.000Z</time>
      </trkpt>
      <trkpt lat="37.121925652027130126953125" lon="-4.30404164828360080718994140625">
        <ele>756.4000244140625</ele>
        <time>2019-10-31T15:02:00.000Z</time>
      </trkpt>
      <trkpt lat="37.1217380650341510772705078125" lon="-4.30416502989828586578369140625">
        <ele>757.5999755859375</ele>
        <time>2019-10-31T15:02:04.000Z</time>
      </trkpt>
      <trkpt lat="37.12160990573465824127197265625" lon="-4.30432948283851146697998046875">
        <ele>757.79998779296875</ele>
        <time>2019-10-31T15:02:07.000Z</time>
      </trkpt>
      <trkpt lat="37.12149574421346187591552734375" lon="-4.30453685112297534942626953125">
        <ele>756.79998779296875</ele>
        <time>2019-10-31T15:02:10.000Z</time>
      </trkpt>
      <trkpt lat="37.1213843487203121185302734375" lon="-4.30476601235568523406982421875">
        <ele>755</ele>
        <time>2019-10-31T15:02:13.000Z</time>
      </trkpt>
      <trkpt lat="37.12126356549561023712158203125" lon="-4.30500271730124950408935546875">
        <ele>753.79998779296875</ele>
        <time>2019-10-31T15:02:16.000Z</time>
      </trkpt>
      <trkpt lat="37.12114303372800350189208984375" lon="-4.3052329681813716888427734375">
        <ele>753</ele>
        <time>2019-10-31T15:02:19.000Z</time>
      </trkpt>
      <trkpt lat="37.12103708647191524505615234375" lon="-4.30545517243444919586181640625">
        <ele>752.20001220703125</ele>
        <time>2019-10-31T15:02:22.000Z</time>
      </trkpt>
      <trkpt lat="37.12094807066023349761962890625" lon="-4.3056648038327693939208984375">
        <ele>751.5999755859375</ele>
        <time>2019-10-31T15:02:25.000Z</time>
      </trkpt>
      <trkpt lat="37.1208727173507213592529296875" lon="-4.30586974136531352996826171875">
        <ele>751.4000244140625</ele>
        <time>2019-10-31T15:02:28.000Z</time>
      </trkpt>
      <trkpt lat="37.12077339179813861846923828125" lon="-4.306111894547939300537109375">
        <ele>751.20001220703125</ele>
        <time>2019-10-31T15:02:32.000Z</time>
      </trkpt>
      <trkpt lat="37.12067230604588985443115234375" lon="-4.30635069496929645538330078125">
        <ele>751.4000244140625</ele>
        <time>2019-10-31T15:02:36.000Z</time>
      </trkpt>
      <trkpt lat="37.12056107819080352783203125" lon="-4.30659301578998565673828125">
        <ele>752.5999755859375</ele>
        <time>2019-10-31T15:02:40.000Z</time>
      </trkpt>
      <trkpt lat="37.1204579807817935943603515625" lon="-4.30684288032352924346923828125">
        <ele>753</ele>
        <time>2019-10-31T15:02:44.000Z</time>
      </trkpt>
      <trkpt lat="37.120357565581798553466796875" lon="-4.30708545260131359100341796875">
        <ele>754</ele>
        <time>2019-10-31T15:02:48.000Z</time>
      </trkpt>
      <trkpt lat="37.1202491037547588348388671875" lon="-4.307313524186611175537109375">
        <ele>754.79998779296875</ele>
        <time>2019-10-31T15:02:52.000Z</time>
      </trkpt>
      <trkpt lat="37.12014533579349517822265625" lon="-4.30754595436155796051025390625">
        <ele>754.79998779296875</ele>
        <time>2019-10-31T15:02:56.000Z</time>
      </trkpt>
      <trkpt lat="37.12003947235643863677978515625" lon="-4.30777989327907562255859375">
        <ele>754</ele>
        <time>2019-10-31T15:03:00.000Z</time>
      </trkpt>
      <trkpt lat="37.11992832832038402557373046875" lon="-4.30800813250243663787841796875">
        <ele>753.20001220703125</ele>
        <time>2019-10-31T15:03:04.000Z</time>
      </trkpt>
      <trkpt lat="37.1198350377380847930908203125" lon="-4.3082424066960811614990234375">
        <ele>754</ele>
        <time>2019-10-31T15:03:08.000Z</time>
      </trkpt>
      <trkpt lat="37.11971760727465152740478515625" lon="-4.30845874361693859100341796875">
        <ele>754</ele>
        <time>2019-10-31T15:03:12.000Z</time>
      </trkpt>
      <trkpt lat="37.11958500556647777557373046875" lon="-4.30866678245365619659423828125">
        <ele>753.4000244140625</ele>
        <time>2019-10-31T15:03:16.000Z</time>
      </trkpt>
      <trkpt lat="37.119472436606884002685546875" lon="-4.30886627174913883209228515625">
        <ele>753</ele>
        <time>2019-10-31T15:03:20.000Z</time>
      </trkpt>
      <trkpt lat="37.1193788945674896240234375" lon="-4.3091054074466228485107421875">
        <ele>752.79998779296875</ele>
        <time>2019-10-31T15:03:25.000Z</time>
      </trkpt>
      <trkpt lat="37.119307816028594970703125" lon="-4.3093169666826725006103515625">
        <ele>753.20001220703125</ele>
        <time>2019-10-31T15:03:29.000Z</time>
      </trkpt>
      <trkpt lat="37.1192131005227565765380859375" lon="-4.30951586924493312835693359375">
        <ele>753</ele>
        <time>2019-10-31T15:03:33.000Z</time>
      </trkpt>
      <trkpt lat="37.11910220794379711151123046875" lon="-4.30975399911403656005859375">
        <ele>752.79998779296875</ele>
        <time>2019-10-31T15:03:38.000Z</time>
      </trkpt>
      <trkpt lat="37.1189792454242706298828125" lon="-4.30998257361352443695068359375">
        <ele>751.79998779296875</ele>
        <time>2019-10-31T15:03:43.000Z</time>
      </trkpt>
      <trkpt lat="37.118866927921772003173828125" lon="-4.31020704098045825958251953125">
        <ele>751.4000244140625</ele>
        <time>2019-10-31T15:03:48.000Z</time>
      </trkpt>
      <trkpt lat="37.1187574602663516998291015625" lon="-4.3104344420135021209716796875">
        <ele>752.5999755859375</ele>
        <time>2019-10-31T15:03:53.000Z</time>
      </trkpt>
      <trkpt lat="37.11865126155316829681396484375" lon="-4.31066536344587802886962890625">
        <ele>755.4000244140625</ele>
        <time>2019-10-31T15:03:58.000Z</time>
      </trkpt>
      <trkpt lat="37.1185438893735408782958984375" lon="-4.31089804507791996002197265625">
        <ele>758.20001220703125</ele>
        <time>2019-10-31T15:04:03.000Z</time>
      </trkpt>
      <trkpt lat="37.11844540201127529144287109375" lon="-4.31111765094101428985595703125">
        <ele>760</ele>
        <time>2019-10-31T15:04:08.000Z</time>
      </trkpt>
      <trkpt lat="37.11834481917321681976318359375" lon="-4.31133742444217205047607421875">
        <ele>760.4000244140625</ele>
        <time>2019-10-31T15:04:13.000Z</time>
      </trkpt>
      <trkpt lat="37.1183256246149539947509765625" lon="-4.31138268671929836273193359375">
        <ele>760.4000244140625</ele>
        <time>2019-10-31T15:04:14.000Z</time>
      </trkpt>
      <trkpt lat="37.118239961564540863037109375" lon="-4.3115465529263019561767578125">
        <ele>760</ele>
        <time>2019-10-31T15:04:18.000Z</time>
      </trkpt>
      <trkpt lat="37.11812839843332767486572265625" lon="-4.3117668293416500091552734375">
        <ele>760.4000244140625</ele>
        <time>2019-10-31T15:04:24.000Z</time>
      </trkpt>
      <trkpt lat="37.1180114708840847015380859375" lon="-4.31197109632194042205810546875">
        <ele>761.20001220703125</ele>
        <time>2019-10-31T15:04:30.000Z</time>
      </trkpt>
      <trkpt lat="37.11799177341163158416748046875" lon="-4.31200210936367511749267578125">
        <ele>761.4000244140625</ele>
        <time>2019-10-31T15:04:31.000Z</time>
      </trkpt>
      <trkpt lat="37.11785246618092060089111328125" lon="-4.31217108853161334991455078125">
        <ele>763.4000244140625</ele>
        <time>2019-10-31T15:04:37.000Z</time>
      </trkpt>
      <trkpt lat="37.11771919392049312591552734375" lon="-4.31233227252960205078125">
        <ele>765.5999755859375</ele>
        <time>2019-10-31T15:04:43.000Z</time>
      </trkpt>
      <trkpt lat="37.1175792999565601348876953125" lon="-4.312523715198040008544921875">
        <ele>767.5999755859375</ele>
        <time>2019-10-31T15:04:50.000Z</time>
      </trkpt>
      <trkpt lat="37.11744007654488086700439453125" lon="-4.31267165578901767730712890625">
        <ele>768.5999755859375</ele>
        <time>2019-10-31T15:04:57.000Z</time>
      </trkpt>
      <trkpt lat="37.11730487644672393798828125" lon="-4.31284029968082904815673828125">
        <ele>769.20001220703125</ele>
        <time>2019-10-31T15:05:03.000Z</time>
      </trkpt>
      <trkpt lat="37.1171648986637592315673828125" lon="-4.3130251206457614898681640625">
        <ele>769.4000244140625</ele>
        <time>2019-10-31T15:05:08.000Z</time>
      </trkpt>
      <trkpt lat="37.1170368231832981109619140625" lon="-4.31323039345443248748779296875">
        <ele>769.5999755859375</ele>
        <time>2019-10-31T15:05:15.000Z</time>
      </trkpt>
      <trkpt lat="37.11693146266043186187744140625" lon="-4.313424266874790191650390625">
        <ele>768.79998779296875</ele>
        <time>2019-10-31T15:05:22.000Z</time>
      </trkpt>
      <trkpt lat="37.11684429086744785308837890625" lon="-4.31362166069447994232177734375">
        <ele>768</ele>
        <time>2019-10-31T15:05:27.000Z</time>
      </trkpt>
      <trkpt lat="37.11672954261302947998046875" lon="-4.3138616345822811126708984375">
        <ele>767.5999755859375</ele>
        <time>2019-10-31T15:05:32.000Z</time>
      </trkpt>
      <trkpt lat="37.1166287921369075775146484375" lon="-4.31408233009278774261474609375">
        <ele>768.20001220703125</ele>
        <time>2019-10-31T15:05:37.000Z</time>
      </trkpt>
      <trkpt lat="37.1165223419666290283203125" lon="-4.314323477447032928466796875">
        <ele>768.5999755859375</ele>
        <time>2019-10-31T15:05:41.000Z</time>
      </trkpt>
      <trkpt lat="37.11640776135027408599853515625" lon="-4.31458524428308010101318359375">
        <ele>769.20001220703125</ele>
        <time>2019-10-31T15:05:45.000Z</time>
      </trkpt>
      <trkpt lat="37.11629443801939487457275390625" lon="-4.3147772736847400665283203125">
        <ele>769</ele>
        <time>2019-10-31T15:05:47.000Z</time>
      </trkpt>
      <trkpt lat="37.1161640994250774383544921875" lon="-4.31497852317988872528076171875">
        <ele>768.20001220703125</ele>
        <time>2019-10-31T15:05:50.000Z</time>
      </trkpt>
      <trkpt lat="37.115972824394702911376953125" lon="-4.315258562564849853515625">
        <ele>766.79998779296875</ele>
        <time>2019-10-31T15:05:54.000Z</time>
      </trkpt>
      <trkpt lat="37.115823961794376373291015625" lon="-4.31547976098954677581787109375">
        <ele>766</ele>
        <time>2019-10-31T15:05:57.000Z</time>
      </trkpt>
      <trkpt lat="37.11567132733762264251708984375" lon="-4.3156999535858631134033203125">
        <ele>763.79998779296875</ele>
        <time>2019-10-31T15:06:01.000Z</time>
      </trkpt>
      <trkpt lat="37.1155156753957271575927734375" lon="-4.31592551060020923614501953125">
        <ele>762.4000244140625</ele>
        <time>2019-10-31T15:06:04.000Z</time>
      </trkpt>
      <trkpt lat="37.1153178624808788299560546875" lon="-4.3162323720753192901611328125">
        <ele>761</ele>
        <time>2019-10-31T15:06:07.000Z</time>
      </trkpt>
      <trkpt lat="37.11516489274799823760986328125" lon="-4.3164620362222194671630859375">
        <ele>760.4000244140625</ele>
        <time>2019-10-31T15:06:11.000Z</time>
      </trkpt>
      <trkpt lat="37.1150278486311435699462890625" lon="-4.3167030997574329376220703125">
        <ele>760.20001220703125</ele>
        <time>2019-10-31T15:06:14.000Z</time>
      </trkpt>
      <trkpt lat="37.11489264853298664093017578125" lon="-4.31694592349231243133544921875">
        <ele>760</ele>
        <time>2019-10-31T15:06:17.000Z</time>
      </trkpt>
      <trkpt lat="37.11472534574568271636962890625" lon="-4.3172700516879558563232421875">
        <ele>758.20001220703125</ele>
        <time>2019-10-31T15:06:20.000Z</time>
      </trkpt>
      <trkpt lat="37.1146067418158054351806640625" lon="-4.31751136668026447296142578125">
        <ele>758.20001220703125</ele>
        <time>2019-10-31T15:06:23.000Z</time>
      </trkpt>
      <trkpt lat="37.11448780260980129241943359375" lon="-4.31774027645587921142578125">
        <ele>758.20001220703125</ele>
        <time>2019-10-31T15:06:26.000Z</time>
      </trkpt>
      <trkpt lat="37.1143358387053012847900390625" lon="-4.318037666380405426025390625">
        <ele>758</ele>
        <time>2019-10-31T15:06:30.000Z</time>
      </trkpt>
      <trkpt lat="37.11422377265989780426025390625" lon="-4.31825182400643825531005859375">
        <ele>757.20001220703125</ele>
        <time>2019-10-31T15:06:33.000Z</time>
      </trkpt>
      <trkpt lat="37.11411036550998687744140625" lon="-4.31846581399440765380859375">
        <ele>755.79998779296875</ele>
        <time>2019-10-31T15:06:36.000Z</time>
      </trkpt>
      <trkpt lat="37.11400441825389862060546875" lon="-4.3186748586595058441162109375">
        <ele>755</ele>
        <time>2019-10-31T15:06:39.000Z</time>
      </trkpt>
      <trkpt lat="37.11386762559413909912109375" lon="-4.31894458830356597900390625">
        <ele>755.4000244140625</ele>
        <time>2019-10-31T15:06:43.000Z</time>
      </trkpt>
      <trkpt lat="37.1137489378452301025390625" lon="-4.31921725161373615264892578125">
        <ele>755.5999755859375</ele>
        <time>2019-10-31T15:06:47.000Z</time>
      </trkpt>
      <trkpt lat="37.11366218514740467071533203125" lon="-4.319424368441104888916015625">
        <ele>754.79998779296875</ele>
        <time>2019-10-31T15:06:51.000Z</time>
      </trkpt>
      <trkpt lat="37.11359965614974498748779296875" lon="-4.31966006755828857421875">
        <ele>753.79998779296875</ele>
        <time>2019-10-31T15:06:54.000Z</time>
      </trkpt>
      <trkpt lat="37.113570235669612884521484375" lon="-4.31994102895259857177734375">
        <ele>750.5999755859375</ele>
        <time>2019-10-31T15:06:57.000Z</time>
      </trkpt>
      <trkpt lat="37.113556154072284698486328125" lon="-4.32025627233088016510009765625">
        <ele>746.5999755859375</ele>
        <time>2019-10-31T15:07:00.000Z</time>
      </trkpt>
      <trkpt lat="37.11354701779782772064208984375" lon="-4.3205882795155048370361328125">
        <ele>745.5999755859375</ele>
        <time>2019-10-31T15:07:03.000Z</time>
      </trkpt>
      <trkpt lat="37.11353679187595844268798828125" lon="-4.3209262378513813018798828125">
        <ele>745</ele>
        <time>2019-10-31T15:07:06.000Z</time>
      </trkpt>
      <trkpt lat="37.11353109218180179595947265625" lon="-4.32115732692182064056396484375">
        <ele>744.5999755859375</ele>
        <time>2019-10-31T15:07:08.000Z</time>
      </trkpt>
      <trkpt lat="37.1135222911834716796875" lon="-4.32138363830745220184326171875">
        <ele>744</ele>
        <time>2019-10-31T15:07:10.000Z</time>
      </trkpt>
      <trkpt lat="37.11349940858781337738037109375" lon="-4.32171958498656749725341796875">
        <ele>744</ele>
        <time>2019-10-31T15:07:13.000Z</time>
      </trkpt>
      <trkpt lat="37.11346453987061977386474609375" lon="-4.32194388471543788909912109375">
        <ele>743.5999755859375</ele>
        <time>2019-10-31T15:07:15.000Z</time>
      </trkpt>
      <trkpt lat="37.1134082973003387451171875" lon="-4.32227564044296741485595703125">
        <ele>742.20001220703125</ele>
        <time>2019-10-31T15:07:17.000Z</time>
      </trkpt>
      <trkpt lat="37.113348282873630523681640625" lon="-4.32259666733443737030029296875">
        <ele>741</ele>
        <time>2019-10-31T15:07:21.000Z</time>
      </trkpt>
      <trkpt lat="37.11328449659049510955810546875" lon="-4.32290352880954742431640625">
        <ele>740.20001220703125</ele>
        <time>2019-10-31T15:07:23.000Z</time>
      </trkpt>
      <trkpt lat="37.11322599090635776519775390625" lon="-4.32320888154208660125732421875">
        <ele>740.79998779296875</ele>
        <time>2019-10-31T15:07:27.000Z</time>
      </trkpt>
      <trkpt lat="37.11316949687898159027099609375" lon="-4.32349990122020244598388671875">
        <ele>741</ele>
        <time>2019-10-31T15:07:30.000Z</time>
      </trkpt>
      <trkpt lat="37.1131023578345775604248046875" lon="-4.32386870495975017547607421875">
        <ele>740.4000244140625</ele>
        <time>2019-10-31T15:07:33.000Z</time>
      </trkpt>
      <trkpt lat="37.11304955184459686279296875" lon="-4.32413122616708278656005859375">
        <ele>739.4000244140625</ele>
        <time>2019-10-31T15:07:36.000Z</time>
      </trkpt>
      <trkpt lat="37.11300889961421489715576171875" lon="-4.32438276708126068115234375">
        <ele>738.20001220703125</ele>
        <time>2019-10-31T15:07:40.000Z</time>
      </trkpt>
      <trkpt lat="37.112972103059291839599609375" lon="-4.32462173514068126678466796875">
        <ele>738</ele>
        <time>2019-10-31T15:07:42.000Z</time>
      </trkpt>
      <trkpt lat="37.11293597705662250518798828125" lon="-4.3248479627072811126708984375">
        <ele>737.4000244140625</ele>
        <time>2019-10-31T15:07:45.000Z</time>
      </trkpt>
      <trkpt lat="37.11288727819919586181640625" lon="-4.3251289241015911102294921875">
        <ele>737</ele>
        <time>2019-10-31T15:07:49.000Z</time>
      </trkpt>
      <trkpt lat="37.11285484023392200469970703125" lon="-4.32532045058906078338623046875">
        <ele>737</ele>
        <time>2019-10-31T15:07:52.000Z</time>
      </trkpt>
      <trkpt lat="37.11281083524227142333984375" lon="-4.32554609142243862152099609375">
        <ele>737.5999755859375</ele>
        <time>2019-10-31T15:07:56.000Z</time>
      </trkpt>
      <trkpt lat="37.112752161920070648193359375" lon="-4.32581900618970394134521484375">
        <ele>739.20001220703125</ele>
        <time>2019-10-31T15:08:02.000Z</time>
      </trkpt>
      <trkpt lat="37.11268887855112552642822265625" lon="-4.32610248215496540069580078125">
        <ele>740.4000244140625</ele>
        <time>2019-10-31T15:08:06.000Z</time>
      </trkpt>
      <trkpt lat="37.11262383498251438140869140625" lon="-4.32632979936897754669189453125">
        <ele>741.4000244140625</ele>
        <time>2019-10-31T15:08:11.000Z</time>
      </trkpt>
      <trkpt lat="37.11255460046231746673583984375" lon="-4.32655267417430877685546875">
        <ele>741.5999755859375</ele>
        <time>2019-10-31T15:08:14.000Z</time>
      </trkpt>
      <trkpt lat="37.11246307007968425750732421875" lon="-4.3267665803432464599609375">
        <ele>741.20001220703125</ele>
        <time>2019-10-31T15:08:18.000Z</time>
      </trkpt>
      <trkpt lat="37.1123624034225940704345703125" lon="-4.32695995084941387176513671875">
        <ele>741.20001220703125</ele>
        <time>2019-10-31T15:08:23.000Z</time>
      </trkpt>
      <trkpt lat="37.1122614853084087371826171875" lon="-4.32718978263437747955322265625">
        <ele>742.20001220703125</ele>
        <time>2019-10-31T15:08:27.000Z</time>
      </trkpt>
      <trkpt lat="37.1122413687407970428466796875" lon="-4.327230937778949737548828125">
        <ele>742.20001220703125</ele>
        <time>2019-10-31T15:08:29.000Z</time>
      </trkpt>
      <trkpt lat="37.1121448092162609100341796875" lon="-4.327448867261409759521484375">
        <ele>742.20001220703125</ele>
        <time>2019-10-31T15:08:34.000Z</time>
      </trkpt>
      <trkpt lat="37.1120744012296199798583984375" lon="-4.3276382982730865478515625">
        <ele>743</ele>
        <time>2019-10-31T15:08:40.000Z</time>
      </trkpt>
      <trkpt lat="37.112023942172527313232421875" lon="-4.3278738297522068023681640625">
        <ele>743.79998779296875</ele>
        <time>2019-10-31T15:08:45.000Z</time>
      </trkpt>
      <trkpt lat="37.1120056696236133575439453125" lon="-4.327993690967559814453125">
        <ele>744.20001220703125</ele>
        <time>2019-10-31T15:08:48.000Z</time>
      </trkpt>
      <trkpt lat="37.11197406984865665435791015625" lon="-4.32823886163532733917236328125">
        <ele>744.4000244140625</ele>
        <time>2019-10-31T15:08:53.000Z</time>
      </trkpt>
      <trkpt lat="37.11193643510341644287109375" lon="-4.328552596271038055419921875">
        <ele>744</ele>
        <time>2019-10-31T15:08:58.000Z</time>
      </trkpt>
      <trkpt lat="37.1119024045765399932861328125" lon="-4.3288548476994037628173828125">
        <ele>742.5999755859375</ele>
        <time>2019-10-31T15:09:03.000Z</time>
      </trkpt>
      <trkpt lat="37.11187549866735935211181640625" lon="-4.329114854335784912109375">
        <ele>740.79998779296875</ele>
        <time>2019-10-31T15:09:06.000Z</time>
      </trkpt>
      <trkpt lat="37.11185135878622531890869140625" lon="-4.32939187623560428619384765625">
        <ele>741.20001220703125</ele>
        <time>2019-10-31T15:09:09.000Z</time>
      </trkpt>
      <trkpt lat="37.11183073930442333221435546875" lon="-4.3296719156205654144287109375">
        <ele>740</ele>
        <time>2019-10-31T15:09:12.000Z</time>
      </trkpt>
      <trkpt lat="37.1118081919848918914794921875" lon="-4.32994030416011810302734375">
        <ele>741.4000244140625</ele>
        <time>2019-10-31T15:09:15.000Z</time>
      </trkpt>
      <trkpt lat="37.11178832687437534332275390625" lon="-4.330192096531391143798828125">
        <ele>742.20001220703125</ele>
        <time>2019-10-31T15:09:18.000Z</time>
      </trkpt>
      <trkpt lat="37.11178715340793132781982421875" lon="-4.33048873208463191986083984375">
        <ele>742.20001220703125</ele>
        <time>2019-10-31T15:09:22.000Z</time>
      </trkpt>
      <trkpt lat="37.11183744482696056365966796875" lon="-4.33074630796909332275390625">
        <ele>740.4000244140625</ele>
        <time>2019-10-31T15:09:25.000Z</time>
      </trkpt>
      <trkpt lat="37.11191095411777496337890625" lon="-4.33097102679312229156494140625">
        <ele>740.4000244140625</ele>
        <time>2019-10-31T15:09:29.000Z</time>
      </trkpt>
      <trkpt lat="37.11200860328972339630126953125" lon="-4.33117168955504894256591796875">
        <ele>739.5999755859375</ele>
        <time>2019-10-31T15:09:33.000Z</time>
      </trkpt>
      <trkpt lat="37.1120886504650115966796875" lon="-4.33130563236773014068603515625">
        <ele>739.20001220703125</ele>
        <time>2019-10-31T15:09:36.000Z</time>
      </trkpt>
      <trkpt lat="37.1122212521731853485107421875" lon="-4.3315301835536956787109375">
        <ele>738.4000244140625</ele>
        <time>2019-10-31T15:09:41.000Z</time>
      </trkpt>
      <trkpt lat="37.11235946975648403167724609375" lon="-4.33178641833364963531494140625">
        <ele>738</ele>
        <time>2019-10-31T15:09:47.000Z</time>
      </trkpt>
      <trkpt lat="37.11238444782793521881103515625" lon="-4.3318287469446659088134765625">
        <ele>738</ele>
        <time>2019-10-31T15:09:49.000Z</time>
      </trkpt>
      <trkpt lat="37.11246759630739688873291015625" lon="-4.3319648690521717071533203125">
        <ele>737.79998779296875</ele>
        <time>2019-10-31T15:09:51.000Z</time>
      </trkpt>
      <trkpt lat="37.1125967614352703094482421875" lon="-4.33218858204782009124755859375">
        <ele>737</ele>
        <time>2019-10-31T15:09:57.000Z</time>
      </trkpt>
      <trkpt lat="37.112753503024578094482421875" lon="-4.33245160616934299468994140625">
        <ele>738.20001220703125</ele>
        <time>2019-10-31T15:10:03.000Z</time>
      </trkpt>
      <trkpt lat="37.11287386715412139892578125" lon="-4.332669787108898162841796875">
        <ele>739</ele>
        <time>2019-10-31T15:10:07.000Z</time>
      </trkpt>
      <trkpt lat="37.11299733258783817291259765625" lon="-4.3328818492591381072998046875">
        <ele>739.20001220703125</ele>
        <time>2019-10-31T15:10:12.000Z</time>
      </trkpt>
      <trkpt lat="37.11312641389667987823486328125" lon="-4.33309131301939487457275390625">
        <ele>738.4000244140625</ele>
        <time>2019-10-31T15:10:17.000Z</time>
      </trkpt>
      <trkpt lat="37.11324694566428661346435546875" lon="-4.3333053030073642730712890625">
        <ele>738</ele>
        <time>2019-10-31T15:10:22.000Z</time>
      </trkpt>
      <trkpt lat="37.1133759431540966033935546875" lon="-4.33352231048047542572021484375">
        <ele>738.5999755859375</ele>
        <time>2019-10-31T15:10:27.000Z</time>
      </trkpt>
      <trkpt lat="37.1135016717016696929931640625" lon="-4.33373923413455486297607421875">
        <ele>739</ele>
        <time>2019-10-31T15:10:32.000Z</time>
      </trkpt>
      <trkpt lat="37.11362664587795734405517578125" lon="-4.3339590914547443389892578125">
        <ele>739.79998779296875</ele>
        <time>2019-10-31T15:10:37.000Z</time>
      </trkpt>
      <trkpt lat="37.1137480996549129486083984375" lon="-4.33418313972651958465576171875">
        <ele>741</ele>
        <time>2019-10-31T15:10:42.000Z</time>
      </trkpt>
      <trkpt lat="37.11386418901383876800537109375" lon="-4.33440995402634143829345703125">
        <ele>741.4000244140625</ele>
        <time>2019-10-31T15:10:47.000Z</time>
      </trkpt>
      <trkpt lat="37.11399310268461704254150390625" lon="-4.33468504808843135833740234375">
        <ele>742</ele>
        <time>2019-10-31T15:10:53.000Z</time>
      </trkpt>
      <trkpt lat="37.11408513598144054412841796875" lon="-4.33491253294050693511962890625">
        <ele>743</ele>
        <time>2019-10-31T15:10:58.000Z</time>
      </trkpt>
      <trkpt lat="37.11417549289762973785400390625" lon="-4.3351404368877410888671875">
        <ele>744.4000244140625</ele>
        <time>2019-10-31T15:11:03.000Z</time>
      </trkpt>
      <trkpt lat="37.1142687834799289703369140625" lon="-4.3353588692843914031982421875">
        <ele>744.79998779296875</ele>
        <time>2019-10-31T15:11:10.000Z</time>
      </trkpt>
      <trkpt lat="37.11428512819111347198486328125" lon="-4.335391558706760406494140625">
        <ele>744.5999755859375</ele>
        <time>2019-10-31T15:11:13.000Z</time>
      </trkpt>
      <trkpt lat="37.11428646929562091827392578125" lon="-4.33538611046969890594482421875">
        <ele>744.5999755859375</ele>
        <time>2019-10-31T15:11:16.000Z</time>
      </trkpt>
      <trkpt lat="37.11433944292366504669189453125" lon="-4.3355358950793743133544921875">
        <ele>744</ele>
        <time>2019-10-31T15:11:36.000Z</time>
      </trkpt>
      <trkpt lat="37.114425189793109893798828125" lon="-4.335759691894054412841796875">
        <ele>744.20001220703125</ele>
        <time>2019-10-31T15:11:41.000Z</time>
      </trkpt>
      <trkpt lat="37.11449886672198772430419921875" lon="-4.3359818123281002044677734375">
        <ele>744</ele>
        <time>2019-10-31T15:11:45.000Z</time>
      </trkpt>
      <trkpt lat="37.1145567856729030609130859375" lon="-4.336153306066989898681640625">
        <ele>744.4000244140625</ele>
        <time>2019-10-31T15:11:49.000Z</time>
      </trkpt>
      <trkpt lat="37.11464169435203075408935546875" lon="-4.3364761769771575927734375">
        <ele>744</ele>
        <time>2019-10-31T15:11:54.000Z</time>
      </trkpt>
      <trkpt lat="37.1146957576274871826171875" lon="-4.3367819488048553466796875">
        <ele>744</ele>
        <time>2019-10-31T15:11:58.000Z</time>
      </trkpt>
      <trkpt lat="37.11472584865987300872802734375" lon="-4.33706416748464107513427734375">
        <ele>742.4000244140625</ele>
        <time>2019-10-31T15:12:01.000Z</time>
      </trkpt>
      <trkpt lat="37.11476524360477924346923828125" lon="-4.33739684522151947021484375">
        <ele>741.20001220703125</ele>
        <time>2019-10-31T15:12:04.000Z</time>
      </trkpt>
      <trkpt lat="37.11479189805686473846435546875" lon="-4.337638579308986663818359375">
        <ele>739.20001220703125</ele>
        <time>2019-10-31T15:12:06.000Z</time>
      </trkpt>
      <trkpt lat="37.1148156188428401947021484375" lon="-4.337898083031177520751953125">
        <ele>736</ele>
        <time>2019-10-31T15:12:07.000Z</time>
      </trkpt>
      <trkpt lat="37.11481637321412563323974609375" lon="-4.3380363844335079193115234375">
        <ele>734.4000244140625</ele>
        <time>2019-10-31T15:12:08.000Z</time>
      </trkpt>
      <trkpt lat="37.1147777326405048370361328125" lon="-4.33831893838942050933837890625">
        <ele>730.4000244140625</ele>
        <time>2019-10-31T15:12:11.000Z</time>
      </trkpt>
      <trkpt lat="37.11464119143784046173095703125" lon="-4.3387327529489994049072265625">
        <ele>726.79998779296875</ele>
        <time>2019-10-31T15:12:13.000Z</time>
      </trkpt>
      <trkpt lat="37.11453239433467388153076171875" lon="-4.33900709263980388641357421875">
        <ele>724.79998779296875</ele>
        <time>2019-10-31T15:12:15.000Z</time>
      </trkpt>
      <trkpt lat="37.11441890336573123931884765625" lon="-4.339282102882862091064453125">
        <ele>721.5999755859375</ele>
        <time>2019-10-31T15:12:18.000Z</time>
      </trkpt>
      <trkpt lat="37.11429770104587078094482421875" lon="-4.33956004679203033447265625">
        <ele>718.20001220703125</ele>
        <time>2019-10-31T15:12:19.000Z</time>
      </trkpt>
      <trkpt lat="37.114177756011486053466796875" lon="-4.33984276838600635528564453125">
        <ele>716.5999755859375</ele>
        <time>2019-10-31T15:12:21.000Z</time>
      </trkpt>
      <trkpt lat="37.11406418122351169586181640625" lon="-4.34013663791120052337646484375">
        <ele>717</ele>
        <time>2019-10-31T15:12:23.000Z</time>
      </trkpt>
      <trkpt lat="37.11395001970231533050537109375" lon="-4.34042950160801410675048828125">
        <ele>716.5999755859375</ele>
        <time>2019-10-31T15:12:26.000Z</time>
      </trkpt>
      <trkpt lat="37.11383451707661151885986328125" lon="-4.3407206051051616668701171875">
        <ele>716.79998779296875</ele>
        <time>2019-10-31T15:12:27.000Z</time>
      </trkpt>
      <trkpt lat="37.1137256361544132232666015625" lon="-4.34100684709846973419189453125">
        <ele>717</ele>
        <time>2019-10-31T15:12:29.000Z</time>
      </trkpt>
      <trkpt lat="37.11361893452703952789306640625" lon="-4.34127037413418292999267578125">
        <ele>717</ele>
        <time>2019-10-31T15:12:32.000Z</time>
      </trkpt>
      <trkpt lat="37.1135566569864749908447265625" lon="-4.34138671495020389556884765625">
        <ele>717</ele>
        <time>2019-10-31T15:12:33.000Z</time>
      </trkpt>
      <trkpt lat="37.11341089569032192230224609375" lon="-4.34158251620829105377197265625">
        <ele>717</ele>
        <time>2019-10-31T15:12:34.000Z</time>
      </trkpt>
      <trkpt lat="37.113328166306018829345703125" lon="-4.3416582047939300537109375">
        <ele>717.20001220703125</ele>
        <time>2019-10-31T15:12:36.000Z</time>
      </trkpt>
      <trkpt lat="37.1131415851414203643798828125" lon="-4.34177127666771411895751953125">
        <ele>717.20001220703125</ele>
        <time>2019-10-31T15:12:38.000Z</time>
      </trkpt>
      <trkpt lat="37.112967409193515777587890625" lon="-4.3418816663324832916259765625">
        <ele>717</ele>
        <time>2019-10-31T15:12:40.000Z</time>
      </trkpt>
      <trkpt lat="37.1128140203654766082763671875" lon="-4.34200194664299488067626953125">
        <ele>716.4000244140625</ele>
        <time>2019-10-31T15:12:42.000Z</time>
      </trkpt>
      <trkpt lat="37.11261679418385028839111328125" lon="-4.34219590388238430023193359375">
        <ele>716</ele>
        <time>2019-10-31T15:12:45.000Z</time>
      </trkpt>
      <trkpt lat="37.11245401762425899505615234375" lon="-4.3423998355865478515625">
        <ele>716.79998779296875</ele>
        <time>2019-10-31T15:12:48.000Z</time>
      </trkpt>
      <trkpt lat="37.11231772787868976593017578125" lon="-4.34260192327201366424560546875">
        <ele>717.79998779296875</ele>
        <time>2019-10-31T15:12:51.000Z</time>
      </trkpt>
      <trkpt lat="37.112176157534122467041015625" lon="-4.3428221158683300018310546875">
        <ele>718.79998779296875</ele>
        <time>2019-10-31T15:12:55.000Z</time>
      </trkpt>
      <trkpt lat="37.1120613254606723785400390625" lon="-4.34300802648067474365234375">
        <ele>719.5999755859375</ele>
        <time>2019-10-31T15:12:59.000Z</time>
      </trkpt>
      <trkpt lat="37.11194724775850772857666015625" lon="-4.3431875668466091156005859375">
        <ele>719.4000244140625</ele>
        <time>2019-10-31T15:13:03.000Z</time>
      </trkpt>
      <trkpt lat="37.1118169091641902923583984375" lon="-4.34335662983357906341552734375">
        <ele>719</ele>
        <time>2019-10-31T15:13:07.000Z</time>
      </trkpt>
      <trkpt lat="37.111674584448337554931640625" lon="-4.34351974166929721832275390625">
        <ele>718.5999755859375</ele>
        <time>2019-10-31T15:13:11.000Z</time>
      </trkpt>
      <trkpt lat="37.1115061081945896148681640625" lon="-4.34370615519583225250244140625">
        <ele>719</ele>
        <time>2019-10-31T15:13:15.000Z</time>
      </trkpt>
      <trkpt lat="37.1113683097064495086669921875" lon="-4.34385962784290313720703125">
        <ele>719</ele>
        <time>2019-10-31T15:13:18.000Z</time>
      </trkpt>
      <trkpt lat="37.11123101413249969482421875" lon="-4.34403355233371257781982421875">
        <ele>718.5999755859375</ele>
        <time>2019-10-31T15:13:21.000Z</time>
      </trkpt>
      <trkpt lat="37.11108843795955181121826171875" lon="-4.344224072992801666259765625">
        <ele>718</ele>
        <time>2019-10-31T15:13:24.000Z</time>
      </trkpt>
      <trkpt lat="37.11093731224536895751953125" lon="-4.34441911987960338592529296875">
        <ele>717.20001220703125</ele>
        <time>2019-10-31T15:13:27.000Z</time>
      </trkpt>
      <trkpt lat="37.110843099653720855712890625" lon="-4.3445534817874431610107421875">
        <ele>716.79998779296875</ele>
        <time>2019-10-31T15:13:29.000Z</time>
      </trkpt>
      <trkpt lat="37.11065978743135929107666015625" lon="-4.34473880566656589508056640625">
        <ele>715.79998779296875</ele>
        <time>2019-10-31T15:13:32.000Z</time>
      </trkpt>
      <trkpt lat="37.11052232421934604644775390625" lon="-4.34485112316906452178955078125">
        <ele>715</ele>
        <time>2019-10-31T15:13:34.000Z</time>
      </trkpt>
      <trkpt lat="37.1102501638233661651611328125" lon="-4.34510953724384307861328125">
        <ele>714</ele>
        <time>2019-10-31T15:13:38.000Z</time>
      </trkpt>
      <trkpt lat="37.11001823656260967254638671875" lon="-4.3454052507877349853515625">
        <ele>713</ele>
        <time>2019-10-31T15:13:42.000Z</time>
      </trkpt>
      <trkpt lat="37.1098624169826507568359375" lon="-4.34563097544014453887939453125">
        <ele>711.5999755859375</ele>
        <time>2019-10-31T15:13:45.000Z</time>
      </trkpt>
      <trkpt lat="37.109712548553943634033203125" lon="-4.345853514969348907470703125">
        <ele>710.5999755859375</ele>
        <time>2019-10-31T15:13:48.000Z</time>
      </trkpt>
      <trkpt lat="37.10950434207916259765625" lon="-4.34614176861941814422607421875">
        <ele>708.79998779296875</ele>
        <time>2019-10-31T15:13:51.000Z</time>
      </trkpt>
      <trkpt lat="37.10934801958501338958740234375" lon="-4.3463633023202419281005859375">
        <ele>707.79998779296875</ele>
        <time>2019-10-31T15:13:54.000Z</time>
      </trkpt>
      <trkpt lat="37.10918993689119815826416015625" lon="-4.3465949781239032745361328125">
        <ele>707.20001220703125</ele>
        <time>2019-10-31T15:13:58.000Z</time>
      </trkpt>
      <trkpt lat="37.10903068073093891143798828125" lon="-4.34683243744075298309326171875">
        <ele>706.20001220703125</ele>
        <time>2019-10-31T15:14:01.000Z</time>
      </trkpt>
      <trkpt lat="37.108866311609745025634765625" lon="-4.34707484208047389984130859375">
        <ele>705.4000244140625</ele>
        <time>2019-10-31T15:14:04.000Z</time>
      </trkpt>
      <trkpt lat="37.10869942791759967803955078125" lon="-4.347319342195987701416015625">
        <ele>704.4000244140625</ele>
        <time>2019-10-31T15:14:06.000Z</time>
      </trkpt>
      <trkpt lat="37.108533382415771484375" lon="-4.34756577014923095703125">
        <ele>702.79998779296875</ele>
        <time>2019-10-31T15:14:09.000Z</time>
      </trkpt>
      <trkpt lat="37.10835459642112255096435546875" lon="-4.347804151475429534912109375">
        <ele>701.20001220703125</ele>
        <time>2019-10-31T15:14:13.000Z</time>
      </trkpt>
      <trkpt lat="37.10816851817071437835693359375" lon="-4.3480450473725795745849609375">
        <ele>699.5999755859375</ele>
        <time>2019-10-31T15:14:16.000Z</time>
      </trkpt>
      <trkpt lat="37.1080331504344940185546875" lon="-4.3482136912643909454345703125">
        <ele>698.5999755859375</ele>
        <time>2019-10-31T15:14:18.000Z</time>
      </trkpt>
      <trkpt lat="37.10789568722248077392578125" lon="-4.3483897112309932708740234375">
        <ele>697.79998779296875</ele>
        <time>2019-10-31T15:14:20.000Z</time>
      </trkpt>
      <trkpt lat="37.10775353014469146728515625" lon="-4.348569251596927642822265625">
        <ele>697.4000244140625</ele>
        <time>2019-10-31T15:14:22.000Z</time>
      </trkpt>
      <trkpt lat="37.1076088584959506988525390625" lon="-4.3487528152763843536376953125">
        <ele>696.79998779296875</ele>
        <time>2019-10-31T15:14:24.000Z</time>
      </trkpt>
      <trkpt lat="37.10746041499078273773193359375" lon="-4.348941408097743988037109375">
        <ele>696</ele>
        <time>2019-10-31T15:14:26.000Z</time>
      </trkpt>
      <trkpt lat="37.10731029510498046875" lon="-4.3491323478519916534423828125">
        <ele>694.5999755859375</ele>
        <time>2019-10-31T15:14:28.000Z</time>
      </trkpt>
      <trkpt lat="37.10716704837977886199951171875" lon="-4.34932990930974483489990234375">
        <ele>693.4000244140625</ele>
        <time>2019-10-31T15:14:30.000Z</time>
      </trkpt>
      <trkpt lat="37.1070305071771144866943359375" lon="-4.34954079799354076385498046875">
        <ele>692.5999755859375</ele>
        <time>2019-10-31T15:14:32.000Z</time>
      </trkpt>
      <trkpt lat="37.10691642947494983673095703125" lon="-4.34976316988468170166015625">
        <ele>691.79998779296875</ele>
        <time>2019-10-31T15:14:34.000Z</time>
      </trkpt>
      <trkpt lat="37.1068293415009975433349609375" lon="-4.3499990366399288177490234375">
        <ele>691</ele>
        <time>2019-10-31T15:14:36.000Z</time>
      </trkpt>
      <trkpt lat="37.10675214417278766632080078125" lon="-4.35022928752005100250244140625">
        <ele>691</ele>
        <time>2019-10-31T15:14:38.000Z</time>
      </trkpt>
      <trkpt lat="37.10668676532804965972900390625" lon="-4.35046414844691753387451171875">
        <ele>691.20001220703125</ele>
        <time>2019-10-31T15:14:40.000Z</time>
      </trkpt>
      <trkpt lat="37.1066238172352313995361328125" lon="-4.3506910465657711029052734375">
        <ele>691.79998779296875</ele>
        <time>2019-10-31T15:14:42.000Z</time>
      </trkpt>
      <trkpt lat="37.106535471975803375244140625" lon="-4.351018108427524566650390625">
        <ele>691.20001220703125</ele>
        <time>2019-10-31T15:14:44.000Z</time>
      </trkpt>
      <trkpt lat="37.1064477972686290740966796875" lon="-4.3513270653784275054931640625">
        <ele>689.20001220703125</ele>
        <time>2019-10-31T15:14:47.000Z</time>
      </trkpt>
      <trkpt lat="37.1063594520092010498046875" lon="-4.35164549387991428375244140625">
        <ele>686.79998779296875</ele>
        <time>2019-10-31T15:14:50.000Z</time>
      </trkpt>
      <trkpt lat="37.10627336986362934112548828125" lon="-4.3519624136388301849365234375">
        <ele>686</ele>
        <time>2019-10-31T15:14:53.000Z</time>
      </trkpt>
      <trkpt lat="37.10621100850403308868408203125" lon="-4.35217380523681640625">
        <ele>685.5999755859375</ele>
        <time>2019-10-31T15:14:55.000Z</time>
      </trkpt>
      <trkpt lat="37.10612433962523937225341796875" lon="-4.35248703695833683013916015625">
        <ele>684.4000244140625</ele>
        <time>2019-10-31T15:14:58.000Z</time>
      </trkpt>
      <trkpt lat="37.10604001767933368682861328125" lon="-4.35279331170022487640380859375">
        <ele>684.20001220703125</ele>
        <time>2019-10-31T15:15:01.000Z</time>
      </trkpt>
      <trkpt lat="37.10595502518117427825927734375" lon="-4.35310520231723785400390625">
        <ele>683.79998779296875</ele>
        <time>2019-10-31T15:15:04.000Z</time>
      </trkpt>
      <trkpt lat="37.10587187670171260833740234375" lon="-4.3534089624881744384765625">
        <ele>683.5999755859375</ele>
        <time>2019-10-31T15:15:07.000Z</time>
      </trkpt>
      <trkpt lat="37.1057913266122341156005859375" lon="-4.35370467603206634521484375">
        <ele>683.4000244140625</ele>
        <time>2019-10-31T15:15:10.000Z</time>
      </trkpt>
      <trkpt lat="37.10575260221958160400390625" lon="-4.35400667600333690643310546875">
        <ele>682.5999755859375</ele>
        <time>2019-10-31T15:15:13.000Z</time>
      </trkpt>
      <trkpt lat="37.10577917285263538360595703125" lon="-4.354306161403656005859375">
        <ele>681.5999755859375</ele>
        <time>2019-10-31T15:15:16.000Z</time>
      </trkpt>
      <trkpt lat="37.105824016034603118896484375" lon="-4.35449936427175998687744140625">
        <ele>681</ele>
        <time>2019-10-31T15:15:18.000Z</time>
      </trkpt>
      <trkpt lat="37.10589434020221233367919921875" lon="-4.354773201048374176025390625">
        <ele>680.5999755859375</ele>
        <time>2019-10-31T15:15:21.000Z</time>
      </trkpt>
      <trkpt lat="37.1059616468846797943115234375" lon="-4.35503496788442134857177734375">
        <ele>679</ele>
        <time>2019-10-31T15:15:24.000Z</time>
      </trkpt>
      <trkpt lat="37.10602392442524433135986328125" lon="-4.35527779161930084228515625">
        <ele>676</ele>
        <time>2019-10-31T15:15:27.000Z</time>
      </trkpt>
      <trkpt lat="37.10607991553843021392822265625" lon="-4.35550569556653499603271484375">
        <ele>674.4000244140625</ele>
        <time>2019-10-31T15:15:30.000Z</time>
      </trkpt>
      <trkpt lat="37.10614177398383617401123046875" lon="-4.35572563670575618743896484375">
        <ele>674</ele>
        <time>2019-10-31T15:15:33.000Z</time>
      </trkpt>
      <trkpt lat="37.10621821694076061248779296875" lon="-4.35601280070841312408447265625">
        <ele>675.5999755859375</ele>
        <time>2019-10-31T15:15:37.000Z</time>
      </trkpt>
      <trkpt lat="37.1062654070556163787841796875" lon="-4.35623592697083950042724609375">
        <ele>677.20001220703125</ele>
        <time>2019-10-31T15:15:40.000Z</time>
      </trkpt>
      <trkpt lat="37.10628007538616657257080078125" lon="-4.35639199800789356231689453125">
        <ele>678.20001220703125</ele>
        <time>2019-10-31T15:15:42.000Z</time>
      </trkpt>
      <trkpt lat="37.1061758883297443389892578125" lon="-4.35664915479719638824462890625">
        <ele>679.20001220703125</ele>
        <time>2019-10-31T15:15:46.000Z</time>
      </trkpt>
      <trkpt lat="37.10602442733943462371826171875" lon="-4.3567964248359203338623046875">
        <ele>680.20001220703125</ele>
        <time>2019-10-31T15:15:49.000Z</time>
      </trkpt>
      <trkpt lat="37.10592283867299556732177734375" lon="-4.35689306817948818206787109375">
        <ele>680.4000244140625</ele>
        <time>2019-10-31T15:15:51.000Z</time>
      </trkpt>
      <trkpt lat="37.1057805977761745452880859375" lon="-4.35703807510435581207275390625">
        <ele>680.79998779296875</ele>
        <time>2019-10-31T15:15:54.000Z</time>
      </trkpt>
      <trkpt lat="37.10562410764396190643310546875" lon="-4.3571816571056842803955078125">
        <ele>681.5999755859375</ele>
        <time>2019-10-31T15:15:57.000Z</time>
      </trkpt>
      <trkpt lat="37.1054406277835369110107421875" lon="-4.3573606945574283599853515625">
        <ele>682.20001220703125</ele>
        <time>2019-10-31T15:16:01.000Z</time>
      </trkpt>
      <trkpt lat="37.105259411036968231201171875" lon="-4.357546269893646240234375">
        <ele>682</ele>
        <time>2019-10-31T15:16:05.000Z</time>
      </trkpt>
      <trkpt lat="37.10511147044599056243896484375" lon="-4.35769370757043361663818359375">
        <ele>681.5999755859375</ele>
        <time>2019-10-31T15:16:08.000Z</time>
      </trkpt>
      <trkpt lat="37.10496076382696628570556640625" lon="-4.3578421510756015777587890625">
        <ele>681.5999755859375</ele>
        <time>2019-10-31T15:16:11.000Z</time>
      </trkpt>
      <trkpt lat="37.10481491871178150177001953125" lon="-4.3579923547804355621337890625">
        <ele>681.4000244140625</ele>
        <time>2019-10-31T15:16:14.000Z</time>
      </trkpt>
      <trkpt lat="37.10464895702898502349853515625" lon="-4.35814867727458477020263671875">
        <ele>680.79998779296875</ele>
        <time>2019-10-31T15:16:17.000Z</time>
      </trkpt>
      <trkpt lat="37.10448391735553741455078125" lon="-4.358302988111972808837890625">
        <ele>680.5999755859375</ele>
        <time>2019-10-31T15:16:20.000Z</time>
      </trkpt>
      <trkpt lat="37.10432122461497783660888671875" lon="-4.35844975523650646209716796875">
        <ele>681</ele>
        <time>2019-10-31T15:16:23.000Z</time>
      </trkpt>
      <trkpt lat="37.10415727458894252777099609375" lon="-4.3585856258869171142578125">
        <ele>681</ele>
        <time>2019-10-31T15:16:26.000Z</time>
      </trkpt>
      <trkpt lat="37.103970609605312347412109375" lon="-4.3587054871022701263427734375">
        <ele>681.4000244140625</ele>
        <time>2019-10-31T15:16:29.000Z</time>
      </trkpt>
      <trkpt lat="37.1037860400974750518798828125" lon="-4.35882610268890857696533203125">
        <ele>681.79998779296875</ele>
        <time>2019-10-31T15:16:32.000Z</time>
      </trkpt>
      <trkpt lat="37.1036049909889698028564453125" lon="-4.3589358218014240264892578125">
        <ele>683</ele>
        <time>2019-10-31T15:16:35.000Z</time>
      </trkpt>
      <trkpt lat="37.10343374870717525482177734375" lon="-4.35903967358171939849853515625">
        <ele>683.20001220703125</ele>
        <time>2019-10-31T15:16:38.000Z</time>
      </trkpt>
      <trkpt lat="37.1032673679292201995849609375" lon="-4.35915601439774036407470703125">
        <ele>682.20001220703125</ele>
        <time>2019-10-31T15:16:41.000Z</time>
      </trkpt>
      <trkpt lat="37.103075087070465087890625" lon="-4.3593341298401355743408203125">
        <ele>680.79998779296875</ele>
        <time>2019-10-31T15:16:45.000Z</time>
      </trkpt>
      <trkpt lat="37.10289613343775272369384765625" lon="-4.35952397994697093963623046875">
        <ele>680.5999755859375</ele>
        <time>2019-10-31T15:16:49.000Z</time>
      </trkpt>
      <trkpt lat="37.1027476899325847625732421875" lon="-4.35970251448452472686767578125">
        <ele>682.20001220703125</ele>
        <time>2019-10-31T15:16:53.000Z</time>
      </trkpt>
      <trkpt lat="37.10259371437132358551025390625" lon="-4.35988456942141056060791015625">
        <ele>684.5999755859375</ele>
        <time>2019-10-31T15:16:58.000Z</time>
      </trkpt>
      <trkpt lat="37.10246664471924304962158203125" lon="-4.36005690135061740875244140625">
        <ele>686.5999755859375</ele>
        <time>2019-10-31T15:17:03.000Z</time>
      </trkpt>
      <trkpt lat="37.102403528988361358642578125" lon="-4.36016502790153026580810546875">
        <ele>687.79998779296875</ele>
        <time>2019-10-31T15:17:06.000Z</time>
      </trkpt>
      <trkpt lat="37.1023218892514705657958984375" lon="-4.36033601872622966766357421875">
        <ele>689</ele>
        <time>2019-10-31T15:17:11.000Z</time>
      </trkpt>
      <trkpt lat="37.1022140979766845703125" lon="-4.36054925434291362762451171875">
        <ele>689.5999755859375</ele>
        <time>2019-10-31T15:17:19.000Z</time>
      </trkpt>
      <trkpt lat="37.10215668193995952606201171875" lon="-4.36066894792020320892333984375">
        <ele>690.5999755859375</ele>
        <time>2019-10-31T15:17:23.000Z</time>
      </trkpt>
      <trkpt lat="37.102133296430110931396484375" lon="-4.36071060597896575927734375">
        <ele>691</ele>
        <time>2019-10-31T15:17:25.000Z</time>
      </trkpt>
      <trkpt lat="37.10211577825248241424560546875" lon="-4.360715635120868682861328125">
        <ele>691</ele>
        <time>2019-10-31T15:17:30.000Z</time>
      </trkpt>
      <trkpt lat="37.102010250091552734375" lon="-4.36093465425074100494384765625">
        <ele>693</ele>
        <time>2019-10-31T15:25:07.000Z</time>
      </trkpt>
      <trkpt lat="37.10195350460708141326904296875" lon="-4.36101713217794895172119140625">
        <ele>693.4000244140625</ele>
        <time>2019-10-31T15:25:11.000Z</time>
      </trkpt>
      <trkpt lat="37.10180732421576976776123046875" lon="-4.361179657280445098876953125">
        <ele>694.4000244140625</ele>
        <time>2019-10-31T15:25:19.000Z</time>
      </trkpt>
      <trkpt lat="37.1016620658338069915771484375" lon="-4.36132508330047130584716796875">
        <ele>695.4000244140625</ele>
        <time>2019-10-31T15:25:27.000Z</time>
      </trkpt>
      <trkpt lat="37.10152435116469860076904296875" lon="-4.3614832498133182525634765625">
        <ele>696.79998779296875</ele>
        <time>2019-10-31T15:25:35.000Z</time>
      </trkpt>
      <trkpt lat="37.10137582384049892425537109375" lon="-4.36163253150880336761474609375">
        <ele>698.4000244140625</ele>
        <time>2019-10-31T15:25:43.000Z</time>
      </trkpt>
      <trkpt lat="37.10124338977038860321044921875" lon="-4.361786507070064544677734375">
        <ele>700.79998779296875</ele>
        <time>2019-10-31T15:25:51.000Z</time>
      </trkpt>
      <trkpt lat="37.1011048369109630584716796875" lon="-4.36194165609776973724365234375">
        <ele>702.79998779296875</ele>
        <time>2019-10-31T15:26:00.000Z</time>
      </trkpt>
      <trkpt lat="37.10097215138375759124755859375" lon="-4.36209705658257007598876953125">
        <ele>704.4000244140625</ele>
        <time>2019-10-31T15:26:08.000Z</time>
      </trkpt>
      <trkpt lat="37.10082798264920711517333984375" lon="-4.362266622483730316162109375">
        <ele>704.4000244140625</ele>
        <time>2019-10-31T15:26:17.000Z</time>
      </trkpt>
      <trkpt lat="37.100704349577426910400390625" lon="-4.36243535019457340240478515625">
        <ele>704.5999755859375</ele>
        <time>2019-10-31T15:26:25.000Z</time>
      </trkpt>
      <trkpt lat="37.1005744300782680511474609375" lon="-4.36261187307536602020263671875">
        <ele>704.4000244140625</ele>
        <time>2019-10-31T15:26:34.000Z</time>
      </trkpt>
      <trkpt lat="37.1004466898739337921142578125" lon="-4.36279325745999813079833984375">
        <ele>704.5999755859375</ele>
        <time>2019-10-31T15:26:43.000Z</time>
      </trkpt>
      <trkpt lat="37.10031433962285518646240234375" lon="-4.36297313310205936431884765625">
        <ele>706</ele>
        <time>2019-10-31T15:26:52.000Z</time>
      </trkpt>
      <trkpt lat="37.10019162856042385101318359375" lon="-4.36314462684094905853271484375">
        <ele>708.79998779296875</ele>
        <time>2019-10-31T15:27:01.000Z</time>
      </trkpt>
      <trkpt lat="37.100056596100330352783203125" lon="-4.363317377865314483642578125">
        <ele>711.79998779296875</ele>
        <time>2019-10-31T15:27:10.000Z</time>
      </trkpt>
      <trkpt lat="37.09993246011435985565185546875" lon="-4.36349113471806049346923828125">
        <ele>716</ele>
        <time>2019-10-31T15:27:18.000Z</time>
      </trkpt>
      <trkpt lat="37.09979382343590259552001953125" lon="-4.36367033980786800384521484375">
        <ele>718</ele>
        <time>2019-10-31T15:27:27.000Z</time>
      </trkpt>
      <trkpt lat="37.09967865608632564544677734375" lon="-4.36384602449834346771240234375">
        <ele>719</ele>
        <time>2019-10-31T15:27:36.000Z</time>
      </trkpt>
      <trkpt lat="37.09955309517681598663330078125" lon="-4.36402170918881893157958984375">
        <ele>718.79998779296875</ele>
        <time>2019-10-31T15:27:45.000Z</time>
      </trkpt>
      <trkpt lat="37.0994187332689762115478515625" lon="-4.36421046964824199676513671875">
        <ele>719.79998779296875</ele>
        <time>2019-10-31T15:27:54.000Z</time>
      </trkpt>
      <trkpt lat="37.0992943458259105682373046875" lon="-4.364385567605495452880859375">
        <ele>721.20001220703125</ele>
        <time>2019-10-31T15:28:03.000Z</time>
      </trkpt>
      <trkpt lat="37.09918563254177570343017578125" lon="-4.36457575298845767974853515625">
        <ele>722.4000244140625</ele>
        <time>2019-10-31T15:28:12.000Z</time>
      </trkpt>
      <trkpt lat="37.0991169847548007965087890625" lon="-4.364810697734355926513671875">
        <ele>724.79998779296875</ele>
        <time>2019-10-31T15:28:21.000Z</time>
      </trkpt>
      <trkpt lat="37.09907951764762401580810546875" lon="-4.3650509230792522430419921875">
        <ele>727.79998779296875</ele>
        <time>2019-10-31T15:28:30.000Z</time>
      </trkpt>
      <trkpt lat="37.09903475828468799591064453125" lon="-4.3653198145329952239990234375">
        <ele>731</ele>
        <time>2019-10-31T15:28:40.000Z</time>
      </trkpt>
      <trkpt lat="37.0989989675581455230712890625" lon="-4.36555375345051288604736328125">
        <ele>733.79998779296875</ele>
        <time>2019-10-31T15:28:49.000Z</time>
      </trkpt>
      <trkpt lat="37.09895194508135318756103515625" lon="-4.36577805317938327789306640625">
        <ele>735.20001220703125</ele>
        <time>2019-10-31T15:28:58.000Z</time>
      </trkpt>
      <trkpt lat="37.09890894591808319091796875" lon="-4.36600302346050739288330078125">
        <ele>736</ele>
        <time>2019-10-31T15:29:07.000Z</time>
      </trkpt>
      <trkpt lat="37.09886309690773487091064453125" lon="-4.36624526046216487884521484375">
        <ele>736.5999755859375</ele>
        <time>2019-10-31T15:29:16.000Z</time>
      </trkpt>
      <trkpt lat="37.09879319183528423309326171875" lon="-4.3664793670177459716796875">
        <ele>737</ele>
        <time>2019-10-31T15:29:25.000Z</time>
      </trkpt>
      <trkpt lat="37.09872110746800899505615234375" lon="-4.36671297065913677215576171875">
        <ele>737.5999755859375</ele>
        <time>2019-10-31T15:29:34.000Z</time>
      </trkpt>
      <trkpt lat="37.0986757613718509674072265625" lon="-4.36693240888416767120361328125">
        <ele>738.20001220703125</ele>
        <time>2019-10-31T15:29:42.000Z</time>
      </trkpt>
      <trkpt lat="37.098600156605243682861328125" lon="-4.36716693453490734100341796875">
        <ele>738</ele>
        <time>2019-10-31T15:29:52.000Z</time>
      </trkpt>
      <trkpt lat="37.09853687323629856109619140625" lon="-4.3673827685415744781494140625">
        <ele>737.20001220703125</ele>
        <time>2019-10-31T15:30:00.000Z</time>
      </trkpt>
      <trkpt lat="37.098468728363513946533203125" lon="-4.3676037155091762542724609375">
        <ele>736.5999755859375</ele>
        <time>2019-10-31T15:30:08.000Z</time>
      </trkpt>
      <trkpt lat="37.0984040200710296630859375" lon="-4.367840923368930816650390625">
        <ele>736.79998779296875</ele>
        <time>2019-10-31T15:30:15.000Z</time>
      </trkpt>
      <trkpt lat="37.0983274094760417938232421875" lon="-4.36808190308511257171630859375">
        <ele>737.79998779296875</ele>
        <time>2019-10-31T15:30:23.000Z</time>
      </trkpt>
      <trkpt lat="37.0982650481164455413818359375" lon="-4.3683238886296749114990234375">
        <ele>738.5999755859375</ele>
        <time>2019-10-31T15:30:30.000Z</time>
      </trkpt>
      <trkpt lat="37.09819640032947063446044921875" lon="-4.3685408122837543487548828125">
        <ele>739</ele>
        <time>2019-10-31T15:30:37.000Z</time>
      </trkpt>
      <trkpt lat="37.09819522686302661895751953125" lon="-4.36867567710578441619873046875">
        <ele>738.5999755859375</ele>
        <time>2019-10-31T15:30:42.000Z</time>
      </trkpt>
      <trkpt lat="37.09834744222462177276611328125" lon="-4.3688182532787322998046875">
        <ele>738.4000244140625</ele>
        <time>2019-10-31T15:30:49.000Z</time>
      </trkpt>
      <trkpt lat="37.09851021878421306610107421875" lon="-4.3689169920980930328369140625">
        <ele>738.79998779296875</ele>
        <time>2019-10-31T15:30:55.000Z</time>
      </trkpt>
      <trkpt lat="37.0985890924930572509765625" lon="-4.36898832209408283233642578125">
        <ele>738.5999755859375</ele>
        <time>2019-10-31T15:30:58.000Z</time>
      </trkpt>
      <trkpt lat="37.0985890924930572509765625" lon="-4.36915461905300617218017578125">
        <ele>738</ele>
        <time>2019-10-31T15:31:02.000Z</time>
      </trkpt>
      <trkpt lat="37.09854072891175746917724609375" lon="-4.36938218772411346435546875">
        <ele>737</ele>
        <time>2019-10-31T15:31:08.000Z</time>
      </trkpt>
      <trkpt lat="37.09848515689373016357421875" lon="-4.3696220777928829193115234375">
        <ele>736.20001220703125</ele>
        <time>2019-10-31T15:31:14.000Z</time>
      </trkpt>
      <trkpt lat="37.09843176417052745819091796875" lon="-4.36987864784896373748779296875">
        <ele>736</ele>
        <time>2019-10-31T15:31:20.000Z</time>
      </trkpt>
      <trkpt lat="37.098369486629962921142578125" lon="-4.37011384405195713043212890625">
        <ele>736</ele>
        <time>2019-10-31T15:31:26.000Z</time>
      </trkpt>
      <trkpt lat="37.09832690656185150146484375" lon="-4.3703553266823291778564453125">
        <ele>736</ele>
        <time>2019-10-31T15:31:32.000Z</time>
      </trkpt>
      <trkpt lat="37.09827401675283908843994140625" lon="-4.37061390839517116546630859375">
        <ele>735.4000244140625</ele>
        <time>2019-10-31T15:31:38.000Z</time>
      </trkpt>
      <trkpt lat="37.098218612372875213623046875" lon="-4.370849691331386566162109375">
        <ele>734.79998779296875</ele>
        <time>2019-10-31T15:31:43.000Z</time>
      </trkpt>
      <trkpt lat="37.09815348498523235321044921875" lon="-4.37109318561851978302001953125">
        <ele>734</ele>
        <time>2019-10-31T15:31:48.000Z</time>
      </trkpt>
      <trkpt lat="37.09810503758490085601806640625" lon="-4.37134061940014362335205078125">
        <ele>734</ele>
        <time>2019-10-31T15:31:53.000Z</time>
      </trkpt>
      <trkpt lat="37.09804653190076351165771484375" lon="-4.3715847842395305633544921875">
        <ele>734.79998779296875</ele>
        <time>2019-10-31T15:31:58.000Z</time>
      </trkpt>
      <trkpt lat="37.09798651747405529022216796875" lon="-4.371847473084926605224609375">
        <ele>735.79998779296875</ele>
        <time>2019-10-31T15:32:03.000Z</time>
      </trkpt>
      <trkpt lat="37.0979133434593677520751953125" lon="-4.3721012771129608154296875">
        <ele>736.5999755859375</ele>
        <time>2019-10-31T15:32:08.000Z</time>
      </trkpt>
      <trkpt lat="37.09782457910478115081787109375" lon="-4.3723508901894092559814453125">
        <ele>737.4000244140625</ele>
        <time>2019-10-31T15:32:13.000Z</time>
      </trkpt>
      <trkpt lat="37.09773874841630458831787109375" lon="-4.37255792319774627685546875">
        <ele>737.4000244140625</ele>
        <time>2019-10-31T15:32:17.000Z</time>
      </trkpt>
      <trkpt lat="37.09766599349677562713623046875" lon="-4.3728031776845455169677734375">
        <ele>737.20001220703125</ele>
        <time>2019-10-31T15:32:22.000Z</time>
      </trkpt>
      <trkpt lat="37.09758368320763111114501953125" lon="-4.3730372004210948944091796875">
        <ele>738</ele>
        <time>2019-10-31T15:32:27.000Z</time>
      </trkpt>
      <trkpt lat="37.09749164991080760955810546875" lon="-4.37327331863343715667724609375">
        <ele>739.20001220703125</ele>
        <time>2019-10-31T15:32:32.000Z</time>
      </trkpt>
      <trkpt lat="37.097387127578258514404296875" lon="-4.37351371161639690399169921875">
        <ele>739.79998779296875</ele>
        <time>2019-10-31T15:32:37.000Z</time>
      </trkpt>
      <trkpt lat="37.09729283116757869720458984375" lon="-4.373749159276485443115234375">
        <ele>739.4000244140625</ele>
        <time>2019-10-31T15:32:42.000Z</time>
      </trkpt>
      <trkpt lat="37.09726014174520969390869140625" lon="-4.37385317869484424591064453125">
        <ele>739</ele>
        <time>2019-10-31T15:32:44.000Z</time>
      </trkpt>
      <trkpt lat="37.0971740595996379852294921875" lon="-4.37409943901002407073974609375">
        <ele>738.20001220703125</ele>
        <time>2019-10-31T15:32:49.000Z</time>
      </trkpt>
      <trkpt lat="37.09709535352885723114013671875" lon="-4.37433765269815921783447265625">
        <ele>737.4000244140625</ele>
        <time>2019-10-31T15:32:54.000Z</time>
      </trkpt>
      <trkpt lat="37.09704455919563770294189453125" lon="-4.3744855932891368865966796875">
        <ele>737.4000244140625</ele>
        <time>2019-10-31T15:32:57.000Z</time>
      </trkpt>
      <trkpt lat="37.09694129414856433868408203125" lon="-4.37472045421600341796875">
        <ele>738.20001220703125</ele>
        <time>2019-10-31T15:33:02.000Z</time>
      </trkpt>
      <trkpt lat="37.0968349277973175048828125" lon="-4.3749516271054744720458984375">
        <ele>739</ele>
        <time>2019-10-31T15:33:07.000Z</time>
      </trkpt>
      <trkpt lat="37.0967479236423969268798828125" lon="-4.37518958933651447296142578125">
        <ele>739.79998779296875</ele>
        <time>2019-10-31T15:33:12.000Z</time>
      </trkpt>
      <trkpt lat="37.0966694690287113189697265625" lon="-4.37538052909076213836669921875">
        <ele>739.5999755859375</ele>
        <time>2019-10-31T15:33:16.000Z</time>
      </trkpt>
      <trkpt lat="37.0966061018407344818115234375" lon="-4.375591836869716644287109375">
        <ele>739.4000244140625</ele>
        <time>2019-10-31T15:33:20.000Z</time>
      </trkpt>
      <trkpt lat="37.0965122245252132415771484375" lon="-4.37582745216786861419677734375">
        <ele>740.20001220703125</ele>
        <time>2019-10-31T15:33:25.000Z</time>
      </trkpt>
      <trkpt lat="37.09643418900668621063232421875" lon="-4.375992156565189361572265625">
        <ele>742</ele>
        <time>2019-10-31T15:33:29.000Z</time>
      </trkpt>
      <trkpt lat="37.09635154344141483306884765625" lon="-4.37621586956083774566650390625">
        <ele>744.5999755859375</ele>
        <time>2019-10-31T15:33:35.000Z</time>
      </trkpt>
      <trkpt lat="37.0962877571582794189453125" lon="-4.37642776407301425933837890625">
        <ele>746.4000244140625</ele>
        <time>2019-10-31T15:33:41.000Z</time>
      </trkpt>
      <trkpt lat="37.09626638330519199371337890625" lon="-4.376498423516750335693359375">
        <ele>746.4000244140625</ele>
        <time>2019-10-31T15:33:43.000Z</time>
      </trkpt>
      <trkpt lat="37.0961885154247283935546875" lon="-4.37673973850905895233154296875">
        <ele>746.4000244140625</ele>
        <time>2019-10-31T15:33:49.000Z</time>
      </trkpt>
      <trkpt lat="37.096108384430408477783203125" lon="-4.37695213593542575836181640625">
        <ele>746</ele>
        <time>2019-10-31T15:33:54.000Z</time>
      </trkpt>
      <trkpt lat="37.09595692344009876251220703125" lon="-4.37710904516279697418212890625">
        <ele>745.4000244140625</ele>
        <time>2019-10-31T15:33:58.000Z</time>
      </trkpt>
      <trkpt lat="37.0958671532571315765380859375" lon="-4.377343989908695220947265625">
        <ele>746.20001220703125</ele>
        <time>2019-10-31T15:34:02.000Z</time>
      </trkpt>
      <trkpt lat="37.09579364396631717681884765625" lon="-4.37758949585258960723876953125">
        <ele>747.4000244140625</ele>
        <time>2019-10-31T15:34:07.000Z</time>
      </trkpt>
      <trkpt lat="37.095716781914234161376953125" lon="-4.37780038453638553619384765625">
        <ele>748.20001220703125</ele>
        <time>2019-10-31T15:34:12.000Z</time>
      </trkpt>
      <trkpt lat="37.09564209915697574615478515625" lon="-4.37801890075206756591796875">
        <ele>747.79998779296875</ele>
        <time>2019-10-31T15:34:17.000Z</time>
      </trkpt>
      <trkpt lat="37.0955550111830234527587890625" lon="-4.3782634846866130828857421875">
        <ele>747.4000244140625</ele>
        <time>2019-10-31T15:34:23.000Z</time>
      </trkpt>
      <trkpt lat="37.09551318548619747161865234375" lon="-4.3785090744495391845703125">
        <ele>747.79998779296875</ele>
        <time>2019-10-31T15:34:28.000Z</time>
      </trkpt>
      <trkpt lat="37.095478065311908721923828125" lon="-4.3787516467273235321044921875">
        <ele>748.20001220703125</ele>
        <time>2019-10-31T15:34:33.000Z</time>
      </trkpt>
      <trkpt lat="37.09547027014195919036865234375" lon="-4.3789891898632049560546875">
        <ele>748.20001220703125</ele>
        <time>2019-10-31T15:34:38.000Z</time>
      </trkpt>
      <trkpt lat="37.09544814191758632659912109375" lon="-4.37921918928623199462890625">
        <ele>748</ele>
        <time>2019-10-31T15:34:43.000Z</time>
      </trkpt>
      <trkpt lat="37.09542115218937397003173828125" lon="-4.37944181263446807861328125">
        <ele>747.79998779296875</ele>
        <time>2019-10-31T15:34:48.000Z</time>
      </trkpt>
      <trkpt lat="37.0953920669853687286376953125" lon="-4.37966736964881420135498046875">
        <ele>746.79998779296875</ele>
        <time>2019-10-31T15:34:53.000Z</time>
      </trkpt>
      <trkpt lat="37.095362059772014617919921875" lon="-4.37989376485347747802734375">
        <ele>747.79998779296875</ele>
        <time>2019-10-31T15:34:58.000Z</time>
      </trkpt>
      <trkpt lat="37.0953400991857051849365234375" lon="-4.380119405686855316162109375">
        <ele>749.4000244140625</ele>
        <time>2019-10-31T15:35:03.000Z</time>
      </trkpt>
      <trkpt lat="37.095315791666507720947265625" lon="-4.3803490698337554931640625">
        <ele>750</ele>
        <time>2019-10-31T15:35:08.000Z</time>
      </trkpt>
      <trkpt lat="37.0952623151242733001708984375" lon="-4.3806053884327411651611328125">
        <ele>750.5999755859375</ele>
        <time>2019-10-31T15:35:14.000Z</time>
      </trkpt>
      <trkpt lat="37.095221243798732757568359375" lon="-4.38086112029850482940673828125">
        <ele>751</ele>
        <time>2019-10-31T15:35:20.000Z</time>
      </trkpt>
      <trkpt lat="37.095195762813091278076171875" lon="-4.38110419549047946929931640625">
        <ele>751.5999755859375</ele>
        <time>2019-10-31T15:35:26.000Z</time>
      </trkpt>
      <trkpt lat="37.09517874754965305328369140625" lon="-4.38135079108178615570068359375">
        <ele>752.20001220703125</ele>
        <time>2019-10-31T15:35:33.000Z</time>
      </trkpt>
      <trkpt lat="37.09518964402377605438232421875" lon="-4.38152723014354705810546875">
        <ele>751.5999755859375</ele>
        <time>2019-10-31T15:35:42.000Z</time>
      </trkpt>
      <trkpt lat="37.0951919071376323699951171875" lon="-4.38153603114187717437744140625">
        <ele>751.5999755859375</ele>
        <time>2019-10-31T15:35:45.000Z</time>
      </trkpt>
      <trkpt lat="37.09519148804247379302978515625" lon="-4.3816346861422061920166015625">
        <ele>751.20001220703125</ele>
        <time>2019-10-31T15:35:58.000Z</time>
      </trkpt>
      <trkpt lat="37.0951771549880504608154296875" lon="-4.38186912797391414642333984375">
        <ele>750.20001220703125</ele>
        <time>2019-10-31T15:36:04.000Z</time>
      </trkpt>
      <trkpt lat="37.09516667760908603668212890625" lon="-4.3821094371378421783447265625">
        <ele>748.5999755859375</ele>
        <time>2019-10-31T15:36:09.000Z</time>
      </trkpt>
      <trkpt lat="37.09515251219272613525390625" lon="-4.38233734108507633209228515625">
        <ele>748</ele>
        <time>2019-10-31T15:36:13.000Z</time>
      </trkpt>
      <trkpt lat="37.09513968788087368011474609375" lon="-4.38246105797588825225830078125">
        <ele>747.79998779296875</ele>
        <time>2019-10-31T15:36:15.000Z</time>
      </trkpt>
      <trkpt lat="37.0951033942401409149169921875" lon="-4.382732547819614410400390625">
        <ele>746.79998779296875</ele>
        <time>2019-10-31T15:36:19.000Z</time>
      </trkpt>
      <trkpt lat="37.09507129155099391937255859375" lon="-4.38296598382294178009033203125">
        <ele>745.5999755859375</ele>
        <time>2019-10-31T15:36:22.000Z</time>
      </trkpt>
      <trkpt lat="37.09503491409122943878173828125" lon="-4.3832081370055675506591796875">
        <ele>743.20001220703125</ele>
        <time>2019-10-31T15:36:25.000Z</time>
      </trkpt>
      <trkpt lat="37.09499157965183258056640625" lon="-4.38345397822558879852294921875">
        <ele>740.4000244140625</ele>
        <time>2019-10-31T15:36:28.000Z</time>
      </trkpt>
      <trkpt lat="37.09495293907821178436279296875" lon="-4.38369353301823139190673828125">
        <ele>737.79998779296875</ele>
        <time>2019-10-31T15:36:31.000Z</time>
      </trkpt>
      <trkpt lat="37.094926200807094573974609375" lon="-4.38392185606062412261962890625">
        <ele>735.4000244140625</ele>
        <time>2019-10-31T15:36:34.000Z</time>
      </trkpt>
      <trkpt lat="37.0948956906795501708984375" lon="-4.38418085686862468719482421875">
        <ele>734</ele>
        <time>2019-10-31T15:36:37.000Z</time>
      </trkpt>
      <trkpt lat="37.09486660547554492950439453125" lon="-4.38443901948630809783935546875">
        <ele>732.5999755859375</ele>
        <time>2019-10-31T15:36:40.000Z</time>
      </trkpt>
      <trkpt lat="37.09483492188155651092529296875" lon="-4.38468058593571186065673828125">
        <ele>731.4000244140625</ele>
        <time>2019-10-31T15:36:43.000Z</time>
      </trkpt>
      <trkpt lat="37.09480583667755126953125" lon="-4.3849141895771026611328125">
        <ele>730.4000244140625</ele>
        <time>2019-10-31T15:36:46.000Z</time>
      </trkpt>
      <trkpt lat="37.09479334764182567596435546875" lon="-4.38505844213068485260009765625">
        <ele>730</ele>
        <time>2019-10-31T15:36:48.000Z</time>
      </trkpt>
      <trkpt lat="37.09480005316436290740966796875" lon="-4.3852328695356845855712890625">
        <ele>729.4000244140625</ele>
        <time>2019-10-31T15:36:51.000Z</time>
      </trkpt>
      <trkpt lat="37.09482033737003803253173828125" lon="-4.38541852869093418121337890625">
        <ele>728.20001220703125</ele>
        <time>2019-10-31T15:36:54.000Z</time>
      </trkpt>
      <trkpt lat="37.09486057050526142120361328125" lon="-4.38560142181813716888427734375">
        <ele>727</ele>
        <time>2019-10-31T15:36:57.000Z</time>
      </trkpt>
      <trkpt lat="37.09487892687320709228515625" lon="-4.3858511187136173248291015625">
        <ele>724.5999755859375</ele>
        <time>2019-10-31T15:37:01.000Z</time>
      </trkpt>
      <trkpt lat="37.09490817971527576446533203125" lon="-4.38611120916903018951416015625">
        <ele>722.79998779296875</ele>
        <time>2019-10-31T15:37:05.000Z</time>
      </trkpt>
      <trkpt lat="37.094949670135974884033203125" lon="-4.38637423329055309295654296875">
        <ele>720.4000244140625</ele>
        <time>2019-10-31T15:37:09.000Z</time>
      </trkpt>
      <trkpt lat="37.0950021408498287200927734375" lon="-4.38658964820206165313720703125">
        <ele>718.4000244140625</ele>
        <time>2019-10-31T15:37:13.000Z</time>
      </trkpt>
      <trkpt lat="37.09501647390425205230712890625" lon="-4.38666240312159061431884765625">
        <ele>717.5999755859375</ele>
        <time>2019-10-31T15:37:15.000Z</time>
      </trkpt>
      <trkpt lat="37.095023095607757568359375" lon="-4.386694170534610748291015625">
        <ele>717.4000244140625</ele>
        <time>2019-10-31T15:37:18.000Z</time>
      </trkpt>
      <trkpt lat="37.0950098522007465362548828125" lon="-4.386695511639118194580078125">
        <ele>717.20001220703125</ele>
        <time>2019-10-31T15:37:20.000Z</time>
      </trkpt>
      <trkpt lat="37.09501706063747406005859375" lon="-4.3867620639503002166748046875">
        <ele>716.5999755859375</ele>
        <time>2019-10-31T15:37:23.000Z</time>
      </trkpt>
      <trkpt lat="37.09506877698004245758056640625" lon="-4.386995919048786163330078125">
        <ele>714</ele>
        <time>2019-10-31T15:37:30.000Z</time>
      </trkpt>
      <trkpt lat="37.0951290428638458251953125" lon="-4.38720907084643840789794921875">
        <ele>712.79998779296875</ele>
        <time>2019-10-31T15:37:36.000Z</time>
      </trkpt>
      <trkpt lat="37.09520607255399227142333984375" lon="-4.38745181076228618621826171875">
        <ele>712.4000244140625</ele>
        <time>2019-10-31T15:37:43.000Z</time>
      </trkpt>
      <trkpt lat="37.0952792465686798095703125" lon="-4.38768331892788410186767578125">
        <ele>711.4000244140625</ele>
        <time>2019-10-31T15:37:48.000Z</time>
      </trkpt>
      <trkpt lat="37.09533699788153171539306640625" lon="-4.38793930225074291229248046875">
        <ele>711.4000244140625</ele>
        <time>2019-10-31T15:37:53.000Z</time>
      </trkpt>
      <trkpt lat="37.09543791599571704864501953125" lon="-4.38816435635089874267578125">
        <ele>712.4000244140625</ele>
        <time>2019-10-31T15:37:57.000Z</time>
      </trkpt>
      <trkpt lat="37.095535732805728912353515625" lon="-4.3883861415088176727294921875">
        <ele>711.79998779296875</ele>
        <time>2019-10-31T15:38:01.000Z</time>
      </trkpt>
      <trkpt lat="37.09561091847717761993408203125" lon="-4.38859485089778900146484375">
        <ele>709.5999755859375</ele>
        <time>2019-10-31T15:38:05.000Z</time>
      </trkpt>
      <trkpt lat="37.095645368099212646484375" lon="-4.3887184001505374908447265625">
        <ele>708.4000244140625</ele>
        <time>2019-10-31T15:38:08.000Z</time>
      </trkpt>
      <trkpt lat="37.0954899676144123077392578125" lon="-4.38890925608575344085693359375">
        <ele>705</ele>
        <time>2019-10-31T15:38:14.000Z</time>
      </trkpt>
      <trkpt lat="37.0954725332558155059814453125" lon="-4.388926438987255096435546875">
        <ele>704.79998779296875</ele>
        <time>2019-10-31T15:38:15.000Z</time>
      </trkpt>
      <trkpt lat="37.09544663317501544952392578125" lon="-4.38894689083099365234375">
        <ele>704.4000244140625</ele>
        <time>2019-10-31T15:38:17.000Z</time>
      </trkpt>
      <trkpt lat="37.09553095512092113494873046875" lon="-4.389110840857028961181640625">
        <ele>703.79998779296875</ele>
        <time>2019-10-31T15:38:34.000Z</time>
      </trkpt>
      <trkpt lat="37.09547228179872035980224609375" lon="-4.38917764462530612945556640625">
        <ele>703</ele>
        <time>2019-10-31T15:38:37.000Z</time>
      </trkpt>
      <trkpt lat="37.09531067870557308197021484375" lon="-4.38937830738723278045654296875">
        <ele>702.20001220703125</ele>
        <time>2019-10-31T15:38:42.000Z</time>
      </trkpt>
      <trkpt lat="37.09514890797436237335205078125" lon="-4.38958098180592060089111328125">
        <ele>701.20001220703125</ele>
        <time>2019-10-31T15:38:46.000Z</time>
      </trkpt>
      <trkpt lat="37.094953358173370361328125" lon="-4.38976957462728023529052734375">
        <ele>699.20001220703125</ele>
        <time>2019-10-31T15:38:50.000Z</time>
      </trkpt>
      <trkpt lat="37.09480156190693378448486328125" lon="-4.38989848829805850982666015625">
        <ele>697.5999755859375</ele>
        <time>2019-10-31T15:38:53.000Z</time>
      </trkpt>
      <trkpt lat="37.0946152321994304656982421875" lon="-4.39002824015915393829345703125">
        <ele>695.5999755859375</ele>
        <time>2019-10-31T15:38:57.000Z</time>
      </trkpt>
      <trkpt lat="37.09454054944217205047607421875" lon="-4.3901042640209197998046875">
        <ele>694.5999755859375</ele>
        <time>2019-10-31T15:38:59.000Z</time>
      </trkpt>
      <trkpt lat="37.09443569183349609375" lon="-4.39026561565697193145751953125">
        <ele>692.5999755859375</ele>
        <time>2019-10-31T15:39:03.000Z</time>
      </trkpt>
      <trkpt lat="37.09442320279777050018310546875" lon="-4.39037759788334369659423828125">
        <ele>691.20001220703125</ele>
        <time>2019-10-31T15:39:05.000Z</time>
      </trkpt>
      <trkpt lat="37.09441934712231159210205078125" lon="-4.39042671583592891693115234375">
        <ele>690.5999755859375</ele>
        <time>2019-10-31T15:39:06.000Z</time>
      </trkpt>
      <trkpt lat="37.09432899020612239837646484375" lon="-4.39067012630403041839599609375">
        <ele>687.4000244140625</ele>
        <time>2019-10-31T15:39:12.000Z</time>
      </trkpt>
      <trkpt lat="37.09428875707089900970458984375" lon="-4.39085863530635833740234375">
        <ele>685.79998779296875</ele>
        <time>2019-10-31T15:39:16.000Z</time>
      </trkpt>
      <trkpt lat="37.09410846233367919921875" lon="-4.3910623155534267425537109375">
        <ele>684.79998779296875</ele>
        <time>2019-10-31T15:39:23.000Z</time>
      </trkpt>
      <trkpt lat="37.0940787903964519500732421875" lon="-4.39132005907595157623291015625">
        <ele>683</ele>
        <time>2019-10-31T15:39:27.000Z</time>
      </trkpt>
      <trkpt lat="37.09402606822550296783447265625" lon="-4.39161426387727260589599609375">
        <ele>680</ele>
        <time>2019-10-31T15:39:31.000Z</time>
      </trkpt>
      <trkpt lat="37.09399203769862651824951171875" lon="-4.39186739735305309295654296875">
        <ele>679</ele>
        <time>2019-10-31T15:39:34.000Z</time>
      </trkpt>
      <trkpt lat="37.093965299427509307861328125" lon="-4.3921308405697345733642578125">
        <ele>677</ele>
        <time>2019-10-31T15:39:37.000Z</time>
      </trkpt>
      <trkpt lat="37.0939354598522186279296875" lon="-4.39240149222314357757568359375">
        <ele>674.79998779296875</ele>
        <time>2019-10-31T15:39:40.000Z</time>
      </trkpt>
      <trkpt lat="37.0939057879149913787841796875" lon="-4.3926816992461681365966796875">
        <ele>673.5999755859375</ele>
        <time>2019-10-31T15:39:43.000Z</time>
      </trkpt>
      <trkpt lat="37.09385323338210582733154296875" lon="-4.39295670948922634124755859375">
        <ele>671.5999755859375</ele>
        <time>2019-10-31T15:39:45.000Z</time>
      </trkpt>
      <trkpt lat="37.0937854237854480743408203125" lon="-4.39322912134230136871337890625">
        <ele>669.5999755859375</ele>
        <time>2019-10-31T15:39:49.000Z</time>
      </trkpt>
      <trkpt lat="37.0937230624258518218994140625" lon="-4.39350505359470844268798828125">
        <ele>667</ele>
        <time>2019-10-31T15:39:52.000Z</time>
      </trkpt>
      <trkpt lat="37.09364469163119792938232421875" lon="-4.39376891590654850006103515625">
        <ele>664.79998779296875</ele>
        <time>2019-10-31T15:39:54.000Z</time>
      </trkpt>
      <trkpt lat="37.0935560949146747589111328125" lon="-4.39404032193124294281005859375">
        <ele>663.79998779296875</ele>
        <time>2019-10-31T15:39:58.000Z</time>
      </trkpt>
      <trkpt lat="37.0934672467410564422607421875" lon="-4.39431206323206424713134765625">
        <ele>661.79998779296875</ele>
        <time>2019-10-31T15:40:01.000Z</time>
      </trkpt>
      <trkpt lat="37.0933319628238677978515625" lon="-4.39466427080333232879638671875">
        <ele>658.20001220703125</ele>
        <time>2019-10-31T15:40:04.000Z</time>
      </trkpt>
      <trkpt lat="37.09319307468831539154052734375" lon="-4.3949716351926326751708984375">
        <ele>655.20001220703125</ele>
        <time>2019-10-31T15:40:08.000Z</time>
      </trkpt>
      <trkpt lat="37.093121074140071868896484375" lon="-4.39510591328144073486328125">
        <ele>654.4000244140625</ele>
        <time>2019-10-31T15:40:11.000Z</time>
      </trkpt>
      <trkpt lat="37.0929780788719654083251953125" lon="-4.39528562128543853759765625">
        <ele>654</ele>
        <time>2019-10-31T15:40:14.000Z</time>
      </trkpt>
      <trkpt lat="37.0928151346743106842041015625" lon="-4.39544931985437870025634765625">
        <ele>653.79998779296875</ele>
        <time>2019-10-31T15:40:17.000Z</time>
      </trkpt>
      <trkpt lat="37.09271346218883991241455078125" lon="-4.3955275230109691619873046875">
        <ele>653.5999755859375</ele>
        <time>2019-10-31T15:40:19.000Z</time>
      </trkpt>
      <trkpt lat="37.0926439762115478515625" lon="-4.39562969841063022613525390625">
        <ele>652.5999755859375</ele>
        <time>2019-10-31T15:40:22.000Z</time>
      </trkpt>
      <trkpt lat="37.0926441438496112823486328125" lon="-4.39576850272715091705322265625">
        <ele>650.5999755859375</ele>
        <time>2019-10-31T15:40:26.000Z</time>
      </trkpt>
      <trkpt lat="37.092637605965137481689453125" lon="-4.39586606808006763458251953125">
        <ele>649.5999755859375</ele>
        <time>2019-10-31T15:40:28.000Z</time>
      </trkpt>
      <trkpt lat="37.092574574053287506103515625" lon="-4.395994730293750762939453125">
        <ele>648.5999755859375</ele>
        <time>2019-10-31T15:40:32.000Z</time>
      </trkpt>
      <trkpt lat="37.092562504112720489501953125" lon="-4.39601794816553592681884765625">
        <ele>648.4000244140625</ele>
        <time>2019-10-31T15:40:33.000Z</time>
      </trkpt>
      <trkpt lat="37.09252302534878253936767578125" lon="-4.396132864058017730712890625">
        <ele>648.20001220703125</ele>
        <time>2019-10-31T15:40:37.000Z</time>
      </trkpt>
      <trkpt lat="37.09250274114310741424560546875" lon="-4.39622229896485805511474609375">
        <ele>648.5999755859375</ele>
        <time>2019-10-31T15:40:40.000Z</time>
      </trkpt>
      <trkpt lat="37.09246284328401088714599609375" lon="-4.39633713103830814361572265625">
        <ele>649</ele>
        <time>2019-10-31T15:40:44.000Z</time>
      </trkpt>
      <trkpt lat="37.0924107916653156280517578125" lon="-4.3965752609074115753173828125">
        <ele>648.20001220703125</ele>
        <time>2019-10-31T15:40:51.000Z</time>
      </trkpt>
      <trkpt lat="37.09235572256147861480712890625" lon="-4.3968205153942108154296875">
        <ele>646</ele>
        <time>2019-10-31T15:40:59.000Z</time>
      </trkpt>
      <trkpt lat="37.0922766812145709991455078125" lon="-4.39705051481723785400390625">
        <ele>644</ele>
        <time>2019-10-31T15:41:07.000Z</time>
      </trkpt>
      <trkpt lat="37.0921707339584827423095703125" lon="-4.39726643264293670654296875">
        <ele>643.20001220703125</ele>
        <time>2019-10-31T15:41:16.000Z</time>
      </trkpt>
      <trkpt lat="37.09212237037718296051025390625" lon="-4.39733742736279964447021484375">
        <ele>643.20001220703125</ele>
        <time>2019-10-31T15:41:22.000Z</time>
      </trkpt>
      <trkpt lat="37.09212563931941986083984375" lon="-4.397344551980495452880859375">
        <ele>643</ele>
        <time>2019-10-31T15:41:24.000Z</time>
      </trkpt>
      <trkpt lat="37.09210040979087352752685546875" lon="-4.397277496755123138427734375">
        <ele>644.20001220703125</ele>
        <time>2019-10-31T15:41:35.000Z</time>
      </trkpt>
      <trkpt lat="37.09219562821090221405029296875" lon="-4.3971220962703227996826171875">
        <ele>644.4000244140625</ele>
        <time>2019-10-31T15:41:40.000Z</time>
      </trkpt>
      <trkpt lat="37.0922807045280933380126953125" lon="-4.3968843854963779449462890625">
        <ele>646.4000244140625</ele>
        <time>2019-10-31T15:41:45.000Z</time>
      </trkpt>
      <trkpt lat="37.09232990629971027374267578125" lon="-4.3966255523264408111572265625">
        <ele>649</ele>
        <time>2019-10-31T15:41:49.000Z</time>
      </trkpt>
      <trkpt lat="37.0924012362957000732421875" lon="-4.3963700719177722930908203125">
        <ele>649.79998779296875</ele>
        <time>2019-10-31T15:41:53.000Z</time>
      </trkpt>
      <trkpt lat="37.09247105754911899566650390625" lon="-4.39609187655150890350341796875">
        <ele>648.4000244140625</ele>
        <time>2019-10-31T15:41:57.000Z</time>
      </trkpt>
      <trkpt lat="37.09254330955445766448974609375" lon="-4.39586958847939968109130859375">
        <ele>650.20001220703125</ele>
        <time>2019-10-31T15:42:00.000Z</time>
      </trkpt>
      <trkpt lat="37.09267457015812397003173828125" lon="-4.3956886231899261474609375">
        <ele>651.5999755859375</ele>
        <time>2019-10-31T15:42:03.000Z</time>
      </trkpt>
      <trkpt lat="37.09285075776278972625732421875" lon="-4.395596422255039215087890625">
        <ele>651.5999755859375</ele>
        <time>2019-10-31T15:42:06.000Z</time>
      </trkpt>
      <trkpt lat="37.093056030571460723876953125" lon="-4.3957006931304931640625">
        <ele>649</ele>
        <time>2019-10-31T15:42:09.000Z</time>
      </trkpt>
      <trkpt lat="37.09314630366861820220947265625" lon="-4.39578048884868621826171875">
        <ele>647.79998779296875</ele>
        <time>2019-10-31T15:42:11.000Z</time>
      </trkpt>
      <trkpt lat="37.0932164601981639862060546875" lon="-4.39586095511913299560546875">
        <ele>646.20001220703125</ele>
        <time>2019-10-31T15:42:13.000Z</time>
      </trkpt>
      <trkpt lat="37.09326113574206829071044921875" lon="-4.3959595263004302978515625">
        <ele>644.20001220703125</ele>
        <time>2019-10-31T15:42:20.000Z</time>
      </trkpt>
      <trkpt lat="37.09321738220751285552978515625" lon="-4.39608148299157619476318359375">
        <ele>643</ele>
        <time>2019-10-31T15:42:28.000Z</time>
      </trkpt>
      <trkpt lat="37.0932231657207012176513671875" lon="-4.396319948136806488037109375">
        <ele>640.4000244140625</ele>
        <time>2019-10-31T15:42:32.000Z</time>
      </trkpt>
      <trkpt lat="37.09317983128130435943603515625" lon="-4.39657417125999927520751953125">
        <ele>638.20001220703125</ele>
        <time>2019-10-31T15:42:36.000Z</time>
      </trkpt>
      <trkpt lat="37.09310674108564853668212890625" lon="-4.39684658311307430267333984375">
        <ele>635.20001220703125</ele>
        <time>2019-10-31T15:42:40.000Z</time>
      </trkpt>
      <trkpt lat="37.09301286377012729644775390625" lon="-4.397044144570827484130859375">
        <ele>632.79998779296875</ele>
        <time>2019-10-31T15:42:43.000Z</time>
      </trkpt>
      <trkpt lat="37.0929009653627872467041015625" lon="-4.39723432995378971099853515625">
        <ele>631.4000244140625</ele>
        <time>2019-10-31T15:42:46.000Z</time>
      </trkpt>
      <trkpt lat="37.092771045863628387451171875" lon="-4.39741604961454868316650390625">
        <ele>631.5999755859375</ele>
        <time>2019-10-31T15:42:49.000Z</time>
      </trkpt>
      <trkpt lat="37.092634923756122589111328125" lon="-4.39760816283524036407470703125">
        <ele>632.20001220703125</ele>
        <time>2019-10-31T15:42:52.000Z</time>
      </trkpt>
      <trkpt lat="37.09249234758317470550537109375" lon="-4.3978278525173664093017578125">
        <ele>632.4000244140625</ele>
        <time>2019-10-31T15:42:55.000Z</time>
      </trkpt>
      <trkpt lat="37.09237399511039257049560546875" lon="-4.398003704845905303955078125">
        <ele>631.5999755859375</ele>
        <time>2019-10-31T15:42:57.000Z</time>
      </trkpt>
      <trkpt lat="37.092241980135440826416015625" lon="-4.3982010148465633392333984375">
        <ele>630</ele>
        <time>2019-10-31T15:42:59.000Z</time>
      </trkpt>
      <trkpt lat="37.09209303371608257293701171875" lon="-4.398407042026519775390625">
        <ele>628</ele>
        <time>2019-10-31T15:43:01.000Z</time>
      </trkpt>
      <trkpt lat="37.09193360991775989532470703125" lon="-4.398624636232852935791015625">
        <ele>626</ele>
        <time>2019-10-31T15:43:03.000Z</time>
      </trkpt>
      <trkpt lat="37.09177292883396148681640625" lon="-4.39885237254202365875244140625">
        <ele>625</ele>
        <time>2019-10-31T15:43:05.000Z</time>
      </trkpt>
      <trkpt lat="37.09161174483597278594970703125" lon="-4.3990787677466869354248046875">
        <ele>623.20001220703125</ele>
        <time>2019-10-31T15:43:07.000Z</time>
      </trkpt>
      <trkpt lat="37.09144779480993747711181640625" lon="-4.3993015587329864501953125">
        <ele>620.4000244140625</ele>
        <time>2019-10-31T15:43:09.000Z</time>
      </trkpt>
      <trkpt lat="37.09130329079926013946533203125" lon="-4.39954823814332485198974609375">
        <ele>617</ele>
        <time>2019-10-31T15:43:11.000Z</time>
      </trkpt>
      <trkpt lat="37.09124989807605743408203125" lon="-4.39968871884047985076904296875">
        <ele>615.20001220703125</ele>
        <time>2019-10-31T15:43:12.000Z</time>
      </trkpt>
      <trkpt lat="37.09121142514050006866455078125" lon="-4.3999989330768585205078125">
        <ele>614.20001220703125</ele>
        <time>2019-10-31T15:43:14.000Z</time>
      </trkpt>
      <trkpt lat="37.0912668295204639434814453125" lon="-4.4003209657967090606689453125">
        <ele>613</ele>
        <time>2019-10-31T15:43:16.000Z</time>
      </trkpt>
      <trkpt lat="37.0913308672606945037841796875" lon="-4.4006250612437725067138671875">
        <ele>612.5999755859375</ele>
        <time>2019-10-31T15:43:18.000Z</time>
      </trkpt>
      <trkpt lat="37.09139800630509853363037109375" lon="-4.40091784112155437469482421875">
        <ele>612.20001220703125</ele>
        <time>2019-10-31T15:43:20.000Z</time>
      </trkpt>
      <trkpt lat="37.0914663188159465789794921875" lon="-4.40120249055325984954833984375">
        <ele>611.20001220703125</ele>
        <time>2019-10-31T15:43:22.000Z</time>
      </trkpt>
      <trkpt lat="37.09152993746101856231689453125" lon="-4.40147138200700283050537109375">
        <ele>609.79998779296875</ele>
        <time>2019-10-31T15:43:24.000Z</time>
      </trkpt>
      <trkpt lat="37.0915950648486614227294921875" lon="-4.401741363108158111572265625">
        <ele>608.4000244140625</ele>
        <time>2019-10-31T15:43:26.000Z</time>
      </trkpt>
      <trkpt lat="37.09165164269506931304931640625" lon="-4.40200480632483959197998046875">
        <ele>607.4000244140625</ele>
        <time>2019-10-31T15:43:28.000Z</time>
      </trkpt>
      <trkpt lat="37.09170696325600147247314453125" lon="-4.40225928090512752532958984375">
        <ele>606.20001220703125</ele>
        <time>2019-10-31T15:43:30.000Z</time>
      </trkpt>
      <trkpt lat="37.09175222553312778472900390625" lon="-4.40251325257122516632080078125">
        <ele>605.20001220703125</ele>
        <time>2019-10-31T15:43:32.000Z</time>
      </trkpt>
      <trkpt lat="37.09178474731743335723876953125" lon="-4.40276789478957653045654296875">
        <ele>603.20001220703125</ele>
        <time>2019-10-31T15:43:34.000Z</time>
      </trkpt>
      <trkpt lat="37.09180100820958614349365234375" lon="-4.40303544513881206512451171875">
        <ele>600.20001220703125</ele>
        <time>2019-10-31T15:43:36.000Z</time>
      </trkpt>
      <trkpt lat="37.09181576035916805267333984375" lon="-4.40331271849572658538818359375">
        <ele>598</ele>
        <time>2019-10-31T15:43:38.000Z</time>
      </trkpt>
      <trkpt lat="37.09183872677385807037353515625" lon="-4.40360239706933498382568359375">
        <ele>596.79998779296875</ele>
        <time>2019-10-31T15:43:40.000Z</time>
      </trkpt>
      <trkpt lat="37.09185850806534290313720703125" lon="-4.40389911644160747528076171875">
        <ele>594.5999755859375</ele>
        <time>2019-10-31T15:43:42.000Z</time>
      </trkpt>
      <trkpt lat="37.0918621122837066650390625" lon="-4.4042064808309078216552734375">
        <ele>592.20001220703125</ele>
        <time>2019-10-31T15:43:44.000Z</time>
      </trkpt>
      <trkpt lat="37.0918002538383007049560546875" lon="-4.40450035035610198974609375">
        <ele>590.79998779296875</ele>
        <time>2019-10-31T15:43:46.000Z</time>
      </trkpt>
      <trkpt lat="37.09169941954314708709716796875" lon="-4.404784999787807464599609375">
        <ele>590.20001220703125</ele>
        <time>2019-10-31T15:43:48.000Z</time>
      </trkpt>
      <trkpt lat="37.09159263409674167633056640625" lon="-4.40507434308528900146484375">
        <ele>589.79998779296875</ele>
        <time>2019-10-31T15:43:50.000Z</time>
      </trkpt>
      <trkpt lat="37.09148551337420940399169921875" lon="-4.40537114627659320831298828125">
        <ele>587.5999755859375</ele>
        <time>2019-10-31T15:43:52.000Z</time>
      </trkpt>
      <trkpt lat="37.091383002698421478271484375" lon="-4.40567775629460811614990234375">
        <ele>584.79998779296875</ele>
        <time>2019-10-31T15:43:54.000Z</time>
      </trkpt>
      <trkpt lat="37.09134151227772235870361328125" lon="-4.4058392755687236785888671875">
        <ele>583.5999755859375</ele>
        <time>2019-10-31T15:43:55.000Z</time>
      </trkpt>
      <trkpt lat="37.091305218636989593505859375" lon="-4.40616893582046031951904296875">
        <ele>583.5999755859375</ele>
        <time>2019-10-31T15:43:57.000Z</time>
      </trkpt>
      <trkpt lat="37.0913283526897430419921875" lon="-4.4064883701503276824951171875">
        <ele>582.79998779296875</ele>
        <time>2019-10-31T15:43:59.000Z</time>
      </trkpt>
      <trkpt lat="37.09134377539157867431640625" lon="-4.40664050169289112091064453125">
        <ele>581.79998779296875</ele>
        <time>2019-10-31T15:44:00.000Z</time>
      </trkpt>
      <trkpt lat="37.09136565215885639190673828125" lon="-4.40693118609488010406494140625">
        <ele>578.5999755859375</ele>
        <time>2019-10-31T15:44:02.000Z</time>
      </trkpt>
      <trkpt lat="37.0913841761648654937744140625" lon="-4.4072199426591396331787109375">
        <ele>575.20001220703125</ele>
        <time>2019-10-31T15:44:04.000Z</time>
      </trkpt>
      <trkpt lat="37.09138593636453151702880859375" lon="-4.407517500221729278564453125">
        <ele>573.20001220703125</ele>
        <time>2019-10-31T15:44:06.000Z</time>
      </trkpt>
      <trkpt lat="37.0913717709481716156005859375" lon="-4.4076702184975147247314453125">
        <ele>572.79998779296875</ele>
        <time>2019-10-31T15:44:07.000Z</time>
      </trkpt>
      <trkpt lat="37.0913238264620304107666015625" lon="-4.40797741524875164031982421875">
        <ele>570.5999755859375</ele>
        <time>2019-10-31T15:44:09.000Z</time>
      </trkpt>
      <trkpt lat="37.09127345122396945953369140625" lon="-4.40829291008412837982177734375">
        <ele>568.20001220703125</ele>
        <time>2019-10-31T15:44:11.000Z</time>
      </trkpt>
      <trkpt lat="37.09121645428240299224853515625" lon="-4.4086059741675853729248046875">
        <ele>565.5999755859375</ele>
        <time>2019-10-31T15:44:13.000Z</time>
      </trkpt>
      <trkpt lat="37.0911625586450099945068359375" lon="-4.40892356447875499725341796875">
        <ele>563.20001220703125</ele>
        <time>2019-10-31T15:44:15.000Z</time>
      </trkpt>
      <trkpt lat="37.09112140350043773651123046875" lon="-4.40924811176955699920654296875">
        <ele>562.5999755859375</ele>
        <time>2019-10-31T15:44:17.000Z</time>
      </trkpt>
      <trkpt lat="37.0910887978971004486083984375" lon="-4.40958204679191112518310546875">
        <ele>562.4000244140625</ele>
        <time>2019-10-31T15:44:19.000Z</time>
      </trkpt>
      <trkpt lat="37.0910681784152984619140625" lon="-4.40991128794848918914794921875">
        <ele>560.79998779296875</ele>
        <time>2019-10-31T15:44:21.000Z</time>
      </trkpt>
      <trkpt lat="37.091054432094097137451171875" lon="-4.41022426821291446685791015625">
        <ele>558.79998779296875</ele>
        <time>2019-10-31T15:44:23.000Z</time>
      </trkpt>
      <trkpt lat="37.09106910042464733123779296875" lon="-4.41051159985363483428955078125">
        <ele>555.79998779296875</ele>
        <time>2019-10-31T15:44:25.000Z</time>
      </trkpt>
      <trkpt lat="37.09110497497022151947021484375" lon="-4.4107748754322528839111328125">
        <ele>553.79998779296875</ele>
        <time>2019-10-31T15:44:27.000Z</time>
      </trkpt>
      <trkpt lat="37.091167084872722625732421875" lon="-4.41102675162255764007568359375">
        <ele>552.5999755859375</ele>
        <time>2019-10-31T15:44:29.000Z</time>
      </trkpt>
      <trkpt lat="37.09125316701829433441162109375" lon="-4.41126680932939052581787109375">
        <ele>550.79998779296875</ele>
        <time>2019-10-31T15:44:31.000Z</time>
      </trkpt>
      <trkpt lat="37.09136364050209522247314453125" lon="-4.4114779494702816009521484375">
        <ele>549.20001220703125</ele>
        <time>2019-10-31T15:44:33.000Z</time>
      </trkpt>
      <trkpt lat="37.0914938114583492279052734375" lon="-4.41166042350232601165771484375">
        <ele>548</ele>
        <time>2019-10-31T15:44:35.000Z</time>
      </trkpt>
      <trkpt lat="37.091630436480045318603515625" lon="-4.4118195958435535430908203125">
        <ele>545.20001220703125</ele>
        <time>2019-10-31T15:44:37.000Z</time>
      </trkpt>
      <trkpt lat="37.09182397462427616119384765625" lon="-4.41199050284922122955322265625">
        <ele>543.20001220703125</ele>
        <time>2019-10-31T15:44:40.000Z</time>
      </trkpt>
      <trkpt lat="37.09188918583095073699951171875" lon="-4.4120267964899539947509765625">
        <ele>542.5999755859375</ele>
        <time>2019-10-31T15:44:41.000Z</time>
      </trkpt>
      <trkpt lat="37.092028073966503143310546875" lon="-4.41210307180881500244140625">
        <ele>541.4000244140625</ele>
        <time>2019-10-31T15:44:44.000Z</time>
      </trkpt>
      <trkpt lat="37.09209236316382884979248046875" lon="-4.4121816940605640411376953125">
        <ele>540.20001220703125</ele>
        <time>2019-10-31T15:44:48.000Z</time>
      </trkpt>
      <trkpt lat="37.092262767255306243896484375" lon="-4.41229241900146007537841796875">
        <ele>539.20001220703125</ele>
        <time>2019-10-31T15:44:53.000Z</time>
      </trkpt>
      <trkpt lat="37.09243618883192539215087890625" lon="-4.41239970736205577850341796875">
        <ele>538</ele>
        <time>2019-10-31T15:44:57.000Z</time>
      </trkpt>
      <trkpt lat="37.09260248579084873199462890625" lon="-4.41251068376004695892333984375">
        <ele>537.20001220703125</ele>
        <time>2019-10-31T15:45:01.000Z</time>
      </trkpt>
      <trkpt lat="37.09270977415144443511962890625" lon="-4.4125731289386749267578125">
        <ele>536.4000244140625</ele>
        <time>2019-10-31T15:45:05.000Z</time>
      </trkpt>
      <trkpt lat="37.092861235141754150390625" lon="-4.4126815907657146453857421875">
        <ele>535.5999755859375</ele>
        <time>2019-10-31T15:45:10.000Z</time>
      </trkpt>
      <trkpt lat="37.09305611439049243927001953125" lon="-4.412795417010784149169921875">
        <ele>535.4000244140625</ele>
        <time>2019-10-31T15:45:15.000Z</time>
      </trkpt>
      <trkpt lat="37.09324420429766178131103515625" lon="-4.41288468427956104278564453125">
        <ele>536.20001220703125</ele>
        <time>2019-10-31T15:45:19.000Z</time>
      </trkpt>
      <trkpt lat="37.09345735609531402587890625" lon="-4.4129773043096065521240234375">
        <ele>537.79998779296875</ele>
        <time>2019-10-31T15:45:23.000Z</time>
      </trkpt>
      <trkpt lat="37.093691043555736541748046875" lon="-4.4130443595349788665771484375">
        <ele>538.5999755859375</ele>
        <time>2019-10-31T15:45:27.000Z</time>
      </trkpt>
      <trkpt lat="37.09387787617743015289306640625" lon="-4.41309054382145404815673828125">
        <ele>538.20001220703125</ele>
        <time>2019-10-31T15:45:30.000Z</time>
      </trkpt>
      <trkpt lat="37.09407837130129337310791015625" lon="-4.413147456943988800048828125">
        <ele>537</ele>
        <time>2019-10-31T15:45:34.000Z</time>
      </trkpt>
      <trkpt lat="37.09406848065555095672607421875" lon="-4.41328047774732112884521484375">
        <ele>536.20001220703125</ele>
        <time>2019-10-31T15:45:40.000Z</time>
      </trkpt>
      <trkpt lat="37.09404283203184604644775390625" lon="-4.413287602365016937255859375">
        <ele>536.20001220703125</ele>
        <time>2019-10-31T15:45:41.000Z</time>
      </trkpt>
      <trkpt lat="37.09390201605856418609619140625" lon="-4.41329154185950756072998046875">
        <ele>536.5999755859375</ele>
        <time>2019-10-31T15:45:45.000Z</time>
      </trkpt>
      <trkpt lat="37.0936885289847850799560546875" lon="-4.41327997483313083648681640625">
        <ele>537.20001220703125</ele>
        <time>2019-10-31T15:45:51.000Z</time>
      </trkpt>
      <trkpt lat="37.09349683485925197601318359375" lon="-4.413248710334300994873046875">
        <ele>537.20001220703125</ele>
        <time>2019-10-31T15:45:56.000Z</time>
      </trkpt>
      <trkpt lat="37.09340371191501617431640625" lon="-4.41322557628154754638671875">
        <ele>536.20001220703125</ele>
        <time>2019-10-31T15:45:58.000Z</time>
      </trkpt>
      <trkpt lat="37.0932188071310520172119140625" lon="-4.4131848402321338653564453125">
        <ele>534.79998779296875</ele>
        <time>2019-10-31T15:46:02.000Z</time>
      </trkpt>
      <trkpt lat="37.093025855720043182373046875" lon="-4.41313949413597583770751953125">
        <ele>535</ele>
        <time>2019-10-31T15:46:06.000Z</time>
      </trkpt>
      <trkpt lat="37.0928044058382511138916015625" lon="-4.41312004812061786651611328125">
        <ele>535.20001220703125</ele>
        <time>2019-10-31T15:46:11.000Z</time>
      </trkpt>
      <trkpt lat="37.0926909148693084716796875" lon="-4.4131489656865596771240234375">
        <ele>535.4000244140625</ele>
        <time>2019-10-31T15:46:14.000Z</time>
      </trkpt>
      <trkpt lat="37.09254230372607707977294921875" lon="-4.4133276678621768951416015625">
        <ele>535.4000244140625</ele>
        <time>2019-10-31T15:46:19.000Z</time>
      </trkpt>
      <trkpt lat="37.09252118133008480072021484375" lon="-4.41337284632027149200439453125">
        <ele>535.20001220703125</ele>
        <time>2019-10-31T15:46:20.000Z</time>
      </trkpt>
      <trkpt lat="37.092497460544109344482421875" lon="-4.41341525875031948089599609375">
        <ele>535.20001220703125</ele>
        <time>2019-10-31T15:46:21.000Z</time>
      </trkpt>
      <trkpt lat="37.0924104563891887664794921875" lon="-4.41351617686450481414794921875">
        <ele>535.20001220703125</ele>
        <time>2019-10-31T15:46:24.000Z</time>
      </trkpt>
      <trkpt lat="37.0923504419624805450439453125" lon="-4.41357585601508617401123046875">
        <ele>535</ele>
        <time>2019-10-31T15:46:26.000Z</time>
      </trkpt>
      <trkpt lat="37.09224089048802852630615234375" lon="-4.41372874192893505096435546875">
        <ele>534</ele>
        <time>2019-10-31T15:46:30.000Z</time>
      </trkpt>
      <trkpt lat="37.0921177603304386138916015625" lon="-4.4139291532337665557861328125">
        <ele>532.5999755859375</ele>
        <time>2019-10-31T15:46:34.000Z</time>
      </trkpt>
      <trkpt lat="37.0919792912900447845458984375" lon="-4.41412487067282199859619140625">
        <ele>531.5999755859375</ele>
        <time>2019-10-31T15:46:38.000Z</time>
      </trkpt>
      <trkpt lat="37.09186437539756298065185546875" lon="-4.4143422134220600128173828125">
        <ele>530.4000244140625</ele>
        <time>2019-10-31T15:46:42.000Z</time>
      </trkpt>
      <trkpt lat="37.09174904040992259979248046875" lon="-4.41457313485443592071533203125">
        <ele>529.4000244140625</ele>
        <time>2019-10-31T15:46:46.000Z</time>
      </trkpt>
      <trkpt lat="37.0916309393942356109619140625" lon="-4.414819143712520599365234375">
        <ele>528.5999755859375</ele>
        <time>2019-10-31T15:46:50.000Z</time>
      </trkpt>
      <trkpt lat="37.09150898270308971405029296875" lon="-4.4150714389979839324951171875">
        <ele>527.79998779296875</ele>
        <time>2019-10-31T15:46:54.000Z</time>
      </trkpt>
      <trkpt lat="37.091419883072376251220703125" lon="-4.41527252085506916046142578125">
        <ele>527.20001220703125</ele>
        <time>2019-10-31T15:46:57.000Z</time>
      </trkpt>
      <trkpt lat="37.0913363993167877197265625" lon="-4.4154860079288482666015625">
        <ele>525.4000244140625</ele>
        <time>2019-10-31T15:47:00.000Z</time>
      </trkpt>
      <trkpt lat="37.0912470482289791107177734375" lon="-4.415701590478420257568359375">
        <ele>524</ele>
        <time>2019-10-31T15:47:03.000Z</time>
      </trkpt>
      <trkpt lat="37.09115727804601192474365234375" lon="-4.41592765040695667266845703125">
        <ele>523</ele>
        <time>2019-10-31T15:47:06.000Z</time>
      </trkpt>
      <trkpt lat="37.091067843139171600341796875" lon="-4.41615798510611057281494140625">
        <ele>522.79998779296875</ele>
        <time>2019-10-31T15:47:09.000Z</time>
      </trkpt>
      <trkpt lat="37.09099508821964263916015625" lon="-4.416396282613277435302734375">
        <ele>522</ele>
        <time>2019-10-31T15:47:12.000Z</time>
      </trkpt>
      <trkpt lat="37.09091386757791042327880859375" lon="-4.41662259399890899658203125">
        <ele>522.4000244140625</ele>
        <time>2019-10-31T15:47:15.000Z</time>
      </trkpt>
      <trkpt lat="37.0908363349735736846923828125" lon="-4.4168534316122531890869140625">
        <ele>522.5999755859375</ele>
        <time>2019-10-31T15:47:18.000Z</time>
      </trkpt>
      <trkpt lat="37.09074991755187511444091796875" lon="-4.41706809215247631072998046875">
        <ele>522.4000244140625</ele>
        <time>2019-10-31T15:47:21.000Z</time>
      </trkpt>
      <trkpt lat="37.09066450595855712890625" lon="-4.41727629862725734710693359375">
        <ele>521.79998779296875</ele>
        <time>2019-10-31T15:47:24.000Z</time>
      </trkpt>
      <trkpt lat="37.09056518040597438812255859375" lon="-4.41754451952874660491943359375">
        <ele>521.20001220703125</ele>
        <time>2019-10-31T15:47:28.000Z</time>
      </trkpt>
      <trkpt lat="37.09046945907175540924072265625" lon="-4.41779698245227336883544921875">
        <ele>520</ele>
        <time>2019-10-31T15:47:32.000Z</time>
      </trkpt>
      <trkpt lat="37.090382538735866546630859375" lon="-4.4180367887020111083984375">
        <ele>519.79998779296875</ele>
        <time>2019-10-31T15:47:36.000Z</time>
      </trkpt>
      <trkpt lat="37.0903595723211765289306640625" lon="-4.41809504292905330657958984375">
        <ele>520.20001220703125</ele>
        <time>2019-10-31T15:47:37.000Z</time>
      </trkpt>
      <trkpt lat="37.09031581878662109375" lon="-4.41820652224123477935791015625">
        <ele>520.5999755859375</ele>
        <time>2019-10-31T15:47:39.000Z</time>
      </trkpt>
      <trkpt lat="37.0902179181575775146484375" lon="-4.41841104067862033843994140625">
        <ele>520.5999755859375</ele>
        <time>2019-10-31T15:47:43.000Z</time>
      </trkpt>
      <trkpt lat="37.090194113552570343017578125" lon="-4.41846954636275768280029296875">
        <ele>520.4000244140625</ele>
        <time>2019-10-31T15:47:44.000Z</time>
      </trkpt>
      <trkpt lat="37.09009462036192417144775390625" lon="-4.41869971342384815216064453125">
        <ele>519.5999755859375</ele>
        <time>2019-10-31T15:47:48.000Z</time>
      </trkpt>
      <trkpt lat="37.09005170501768589019775390625" lon="-4.41881052218377590179443359375">
        <ele>519.20001220703125</ele>
        <time>2019-10-31T15:47:50.000Z</time>
      </trkpt>
      <trkpt lat="37.0899917744100093841552734375" lon="-4.41897011362016201019287109375">
        <ele>518.5999755859375</ele>
        <time>2019-10-31T15:47:53.000Z</time>
      </trkpt>
      <trkpt lat="37.08991105668246746063232421875" lon="-4.4191869534552097320556640625">
        <ele>518</ele>
        <time>2019-10-31T15:47:57.000Z</time>
      </trkpt>
      <trkpt lat="37.0898405648767948150634765625" lon="-4.419402368366718292236328125">
        <ele>517.79998779296875</ele>
        <time>2019-10-31T15:48:01.000Z</time>
      </trkpt>
      <trkpt lat="37.08977208472788333892822265625" lon="-4.4196192920207977294921875">
        <ele>517.79998779296875</ele>
        <time>2019-10-31T15:48:05.000Z</time>
      </trkpt>
      <trkpt lat="37.0896868407726287841796875" lon="-4.41984132863581180572509765625">
        <ele>517.79998779296875</ele>
        <time>2019-10-31T15:48:09.000Z</time>
      </trkpt>
      <trkpt lat="37.08966731093823909759521484375" lon="-4.4198984093964099884033203125">
        <ele>517.79998779296875</ele>
        <time>2019-10-31T15:48:10.000Z</time>
      </trkpt>
      <trkpt lat="37.08957192488014698028564453125" lon="-4.42013888619840145111083984375">
        <ele>516.79998779296875</ele>
        <time>2019-10-31T15:48:14.000Z</time>
      </trkpt>
      <trkpt lat="37.08948307670652866363525390625" lon="-4.42039604298770427703857421875">
        <ele>515.4000244140625</ele>
        <time>2019-10-31T15:48:18.000Z</time>
      </trkpt>
      <trkpt lat="37.08938785828649997711181640625" lon="-4.42065504379570484161376953125">
        <ele>514.5999755859375</ele>
        <time>2019-10-31T15:48:22.000Z</time>
      </trkpt>
      <trkpt lat="37.0892903767526149749755859375" lon="-4.4209203310310840606689453125">
        <ele>513.79998779296875</ele>
        <time>2019-10-31T15:48:26.000Z</time>
      </trkpt>
      <trkpt lat="37.08918987773358821868896484375" lon="-4.421178996562957763671875">
        <ele>513.5999755859375</ele>
        <time>2019-10-31T15:48:30.000Z</time>
      </trkpt>
      <trkpt lat="37.08909901790320873260498046875" lon="-4.4214138574898242950439453125">
        <ele>513.5999755859375</ele>
        <time>2019-10-31T15:48:34.000Z</time>
      </trkpt>
      <trkpt lat="37.0890167914330959320068359375" lon="-4.42164729349315166473388671875">
        <ele>513.20001220703125</ele>
        <time>2019-10-31T15:48:38.000Z</time>
      </trkpt>
      <trkpt lat="37.08892735652625560760498046875" lon="-4.42189170978963375091552734375">
        <ele>513.4000244140625</ele>
        <time>2019-10-31T15:48:42.000Z</time>
      </trkpt>
      <trkpt lat="37.08883398212492465972900390625" lon="-4.42215020768344402313232421875">
        <ele>512.20001220703125</ele>
        <time>2019-10-31T15:48:46.000Z</time>
      </trkpt>
      <trkpt lat="37.0887401886284351348876953125" lon="-4.4224034249782562255859375">
        <ele>511.399993896484375</ele>
        <time>2019-10-31T15:48:50.000Z</time>
      </trkpt>
      <trkpt lat="37.088648490607738494873046875" lon="-4.4226537086069583892822265625">
        <ele>510.399993896484375</ele>
        <time>2019-10-31T15:48:54.000Z</time>
      </trkpt>
      <trkpt lat="37.08854799158871173858642578125" lon="-4.42290030419826507568359375">
        <ele>509</ele>
        <time>2019-10-31T15:48:58.000Z</time>
      </trkpt>
      <trkpt lat="37.08845964632928371429443359375" lon="-4.42315452732145786285400390625">
        <ele>507.20001220703125</ele>
        <time>2019-10-31T15:49:02.000Z</time>
      </trkpt>
      <trkpt lat="37.08837130106985569000244140625" lon="-4.42341671325266361236572265625">
        <ele>506.79998779296875</ele>
        <time>2019-10-31T15:49:06.000Z</time>
      </trkpt>
      <trkpt lat="37.08832486532628536224365234375" lon="-4.42355350591242313385009765625">
        <ele>507.20001220703125</ele>
        <time>2019-10-31T15:49:08.000Z</time>
      </trkpt>
      <trkpt lat="37.08822696469724178314208984375" lon="-4.42382859997451305389404296875">
        <ele>508</ele>
        <time>2019-10-31T15:49:12.000Z</time>
      </trkpt>
      <trkpt lat="37.08814582787454128265380859375" lon="-4.4240430928766727447509765625">
        <ele>508</ele>
        <time>2019-10-31T15:49:15.000Z</time>
      </trkpt>
      <trkpt lat="37.0880614221096038818359375" lon="-4.42425691522657871246337890625">
        <ele>507.600006103515625</ele>
        <time>2019-10-31T15:49:18.000Z</time>
      </trkpt>
      <trkpt lat="37.0879797823727130889892578125" lon="-4.42447132430970668792724609375">
        <ele>507.399993896484375</ele>
        <time>2019-10-31T15:49:21.000Z</time>
      </trkpt>
      <trkpt lat="37.0878929458558559417724609375" lon="-4.42468422465026378631591796875">
        <ele>507.79998779296875</ele>
        <time>2019-10-31T15:49:24.000Z</time>
      </trkpt>
      <trkpt lat="37.08781801164150238037109375" lon="-4.42490517161786556243896484375">
        <ele>508</ele>
        <time>2019-10-31T15:49:27.000Z</time>
      </trkpt>
      <trkpt lat="37.08775070495903491973876953125" lon="-4.425134919583797454833984375">
        <ele>508</ele>
        <time>2019-10-31T15:49:30.000Z</time>
      </trkpt>
      <trkpt lat="37.08767258562147617340087890625" lon="-4.42536232061684131622314453125">
        <ele>508</ele>
        <time>2019-10-31T15:49:33.000Z</time>
      </trkpt>
      <trkpt lat="37.08759731613099575042724609375" lon="-4.42558963783085346221923828125">
        <ele>507.79998779296875</ele>
        <time>2019-10-31T15:49:36.000Z</time>
      </trkpt>
      <trkpt lat="37.0875291712582111358642578125" lon="-4.4258178770542144775390625">
        <ele>506.399993896484375</ele>
        <time>2019-10-31T15:49:39.000Z</time>
      </trkpt>
      <trkpt lat="37.0874681510031223297119140625" lon="-4.42602968774735927581787109375">
        <ele>506</ele>
        <time>2019-10-31T15:49:42.000Z</time>
      </trkpt>
      <trkpt lat="37.0873962342739105224609375" lon="-4.4262984953820705413818359375">
        <ele>506</ele>
        <time>2019-10-31T15:49:46.000Z</time>
      </trkpt>
      <trkpt lat="37.087319456040859222412109375" lon="-4.42654249258339405059814453125">
        <ele>506.600006103515625</ele>
        <time>2019-10-31T15:49:50.000Z</time>
      </trkpt>
      <trkpt lat="37.08724804222583770751953125" lon="-4.42678003571927547454833984375">
        <ele>507</ele>
        <time>2019-10-31T15:49:54.000Z</time>
      </trkpt>
      <trkpt lat="37.087175287306308746337890625" lon="-4.42703383974730968475341796875">
        <ele>506.20001220703125</ele>
        <time>2019-10-31T15:49:58.000Z</time>
      </trkpt>
      <trkpt lat="37.087096832692623138427734375" lon="-4.42729820497334003448486328125">
        <ele>505</ele>
        <time>2019-10-31T15:50:02.000Z</time>
      </trkpt>
      <trkpt lat="37.08702265284955501556396484375" lon="-4.42755267955362796783447265625">
        <ele>505</ele>
        <time>2019-10-31T15:50:06.000Z</time>
      </trkpt>
      <trkpt lat="37.086941264569759368896484375" lon="-4.427810423076152801513671875">
        <ele>504.79998779296875</ele>
        <time>2019-10-31T15:50:10.000Z</time>
      </trkpt>
      <trkpt lat="37.08685467950999736785888671875" lon="-4.42808191291987895965576171875">
        <ele>504.20001220703125</ele>
        <time>2019-10-31T15:50:14.000Z</time>
      </trkpt>
      <trkpt lat="37.08677605725824832916259765625" lon="-4.42835264839231967926025390625">
        <ele>505</ele>
        <time>2019-10-31T15:50:18.000Z</time>
      </trkpt>
      <trkpt lat="37.0866872929036617279052734375" lon="-4.4286209531128406524658203125">
        <ele>505</ele>
        <time>2019-10-31T15:50:22.000Z</time>
      </trkpt>
      <trkpt lat="37.0866001211106777191162109375" lon="-4.42889881320297718048095703125">
        <ele>505.20001220703125</ele>
        <time>2019-10-31T15:50:26.000Z</time>
      </trkpt>
      <trkpt lat="37.0865206606686115264892578125" lon="-4.42917893640697002410888671875">
        <ele>504.79998779296875</ele>
        <time>2019-10-31T15:50:30.000Z</time>
      </trkpt>
      <trkpt lat="37.08643172867596149444580078125" lon="-4.42945436574518680572509765625">
        <ele>504.20001220703125</ele>
        <time>2019-10-31T15:50:34.000Z</time>
      </trkpt>
      <trkpt lat="37.08634053356945514678955078125" lon="-4.42972627468407154083251953125">
        <ele>503.600006103515625</ele>
        <time>2019-10-31T15:50:38.000Z</time>
      </trkpt>
      <trkpt lat="37.0862480811774730682373046875" lon="-4.42998225800693035125732421875">
        <ele>503.79998779296875</ele>
        <time>2019-10-31T15:50:42.000Z</time>
      </trkpt>
      <trkpt lat="37.08620323799550533294677734375" lon="-4.43010597489774227142333984375">
        <ele>504.20001220703125</ele>
        <time>2019-10-31T15:50:44.000Z</time>
      </trkpt>
      <trkpt lat="37.08614372648298740386962890625" lon="-4.43032801151275634765625">
        <ele>504.79998779296875</ele>
        <time>2019-10-31T15:50:48.000Z</time>
      </trkpt>
      <trkpt lat="37.0860951952636241912841796875" lon="-4.43059690296649932861328125">
        <ele>505.20001220703125</ele>
        <time>2019-10-31T15:50:53.000Z</time>
      </trkpt>
      <trkpt lat="37.0860589854419231414794921875" lon="-4.4308193586766719818115234375">
        <ele>505.79998779296875</ele>
        <time>2019-10-31T15:50:57.000Z</time>
      </trkpt>
      <trkpt lat="37.08602964878082275390625" lon="-4.43104826845228672027587890625">
        <ele>505.79998779296875</ele>
        <time>2019-10-31T15:51:01.000Z</time>
      </trkpt>
      <trkpt lat="37.086000144481658935546875" lon="-4.4312976300716400146484375">
        <ele>505.20001220703125</ele>
        <time>2019-10-31T15:51:05.000Z</time>
      </trkpt>
      <trkpt lat="37.08595655858516693115234375" lon="-4.4315586425364017486572265625">
        <ele>504.399993896484375</ele>
        <time>2019-10-31T15:51:09.000Z</time>
      </trkpt>
      <trkpt lat="37.08591632544994354248046875" lon="-4.43180389702320098876953125">
        <ele>503.399993896484375</ele>
        <time>2019-10-31T15:51:13.000Z</time>
      </trkpt>
      <trkpt lat="37.08588070236146450042724609375" lon="-4.4320494867861270904541015625">
        <ele>502.600006103515625</ele>
        <time>2019-10-31T15:51:17.000Z</time>
      </trkpt>
      <trkpt lat="37.08587609231472015380859375" lon="-4.432322569191455841064453125">
        <ele>502.600006103515625</ele>
        <time>2019-10-31T15:51:22.000Z</time>
      </trkpt>
      <trkpt lat="37.08585069514811038970947265625" lon="-4.43259917199611663818359375">
        <ele>502</ele>
        <time>2019-10-31T15:51:27.000Z</time>
      </trkpt>
      <trkpt lat="37.08582571707665920257568359375" lon="-4.43283881060779094696044921875">
        <ele>502.20001220703125</ele>
        <time>2019-10-31T15:51:31.000Z</time>
      </trkpt>
      <trkpt lat="37.08579453639686107635498046875" lon="-4.433084987103939056396484375">
        <ele>502.600006103515625</ele>
        <time>2019-10-31T15:51:35.000Z</time>
      </trkpt>
      <trkpt lat="37.0857622660696506500244140625" lon="-4.43333409726619720458984375">
        <ele>502</ele>
        <time>2019-10-31T15:51:39.000Z</time>
      </trkpt>
      <trkpt lat="37.08574726246297359466552734375" lon="-4.4335823692381381988525390625">
        <ele>502</ele>
        <time>2019-10-31T15:51:43.000Z</time>
      </trkpt>
      <trkpt lat="37.085726559162139892578125" lon="-4.43382804282009601593017578125">
        <ele>502</ele>
        <time>2019-10-31T15:51:47.000Z</time>
      </trkpt>
      <trkpt lat="37.08570149727165699005126953125" lon="-4.43406902253627777099609375">
        <ele>501.20001220703125</ele>
        <time>2019-10-31T15:51:51.000Z</time>
      </trkpt>
      <trkpt lat="37.085677273571491241455078125" lon="-4.43431402556598186492919921875">
        <ele>500.399993896484375</ele>
        <time>2019-10-31T15:51:55.000Z</time>
      </trkpt>
      <trkpt lat="37.08565304987132549285888671875" lon="-4.43455718457698822021484375">
        <ele>499.600006103515625</ele>
        <time>2019-10-31T15:51:59.000Z</time>
      </trkpt>
      <trkpt lat="37.08562421612441539764404296875" lon="-4.4348161853849887847900390625">
        <ele>499</ele>
        <time>2019-10-31T15:52:04.000Z</time>
      </trkpt>
      <trkpt lat="37.0855936221778392791748046875" lon="-4.4350683130323886871337890625">
        <ele>498.399993896484375</ele>
        <time>2019-10-31T15:52:10.000Z</time>
      </trkpt>
      <trkpt lat="37.08556571044027805328369140625" lon="-4.4353133998811244964599609375">
        <ele>497.20001220703125</ele>
        <time>2019-10-31T15:52:16.000Z</time>
      </trkpt>
      <trkpt lat="37.0855446718633174896240234375" lon="-4.4355551339685916900634765625">
        <ele>496.399993896484375</ele>
        <time>2019-10-31T15:52:21.000Z</time>
      </trkpt>
      <trkpt lat="37.085507623851299285888671875" lon="-4.43580248393118381500244140625">
        <ele>496.20001220703125</ele>
        <time>2019-10-31T15:52:27.000Z</time>
      </trkpt>
      <trkpt lat="37.08546948619186878204345703125" lon="-4.4360290467739105224609375">
        <ele>496.79998779296875</ele>
        <time>2019-10-31T15:52:33.000Z</time>
      </trkpt>
      <trkpt lat="37.08542816340923309326171875" lon="-4.43628452718257904052734375">
        <ele>498.399993896484375</ele>
        <time>2019-10-31T15:52:40.000Z</time>
      </trkpt>
      <trkpt lat="37.08540075458586215972900390625" lon="-4.43651477806270122528076171875">
        <ele>498.79998779296875</ele>
        <time>2019-10-31T15:52:45.000Z</time>
      </trkpt>
      <trkpt lat="37.085378877818584442138671875" lon="-4.4367500580847263336181640625">
        <ele>499</ele>
        <time>2019-10-31T15:52:50.000Z</time>
      </trkpt>
      <trkpt lat="37.085358090698719024658203125" lon="-4.43698332644999027252197265625">
        <ele>498.79998779296875</ele>
        <time>2019-10-31T15:52:55.000Z</time>
      </trkpt>
      <trkpt lat="37.08532984368503093719482421875" lon="-4.437229000031948089599609375">
        <ele>498.399993896484375</ele>
        <time>2019-10-31T15:53:00.000Z</time>
      </trkpt>
      <trkpt lat="37.08529983647167682647705078125" lon="-4.437471739947795867919921875">
        <ele>497</ele>
        <time>2019-10-31T15:53:05.000Z</time>
      </trkpt>
      <trkpt lat="37.085262872278690338134765625" lon="-4.4377190060913562774658203125">
        <ele>496.79998779296875</ele>
        <time>2019-10-31T15:53:10.000Z</time>
      </trkpt>
      <trkpt lat="37.08525306545197963714599609375" lon="-4.4379570521414279937744140625">
        <ele>497.399993896484375</ele>
        <time>2019-10-31T15:53:15.000Z</time>
      </trkpt>
      <trkpt lat="37.08523160777986049652099609375" lon="-4.4381957687437534332275390625">
        <ele>497.79998779296875</ele>
        <time>2019-10-31T15:53:20.000Z</time>
      </trkpt>
      <trkpt lat="37.08519204519689083099365234375" lon="-4.43847228772938251495361328125">
        <ele>498.20001220703125</ele>
        <time>2019-10-31T15:53:25.000Z</time>
      </trkpt>
      <trkpt lat="37.0851718448102474212646484375" lon="-4.43870413117110729217529296875">
        <ele>497.600006103515625</ele>
        <time>2019-10-31T15:53:29.000Z</time>
      </trkpt>
      <trkpt lat="37.0851440168917179107666015625" lon="-4.4389427639544010162353515625">
        <ele>497</ele>
        <time>2019-10-31T15:53:33.000Z</time>
      </trkpt>
      <trkpt lat="37.08512750454246997833251953125" lon="-4.43918458186089992523193359375">
        <ele>496.79998779296875</ele>
        <time>2019-10-31T15:53:37.000Z</time>
      </trkpt>
      <trkpt lat="37.085095234215259552001953125" lon="-4.4394393078982830047607421875">
        <ele>495.79998779296875</ele>
        <time>2019-10-31T15:53:41.000Z</time>
      </trkpt>
      <trkpt lat="37.085059694945812225341796875" lon="-4.43970107473433017730712890625">
        <ele>493.399993896484375</ele>
        <time>2019-10-31T15:53:45.000Z</time>
      </trkpt>
      <trkpt lat="37.08504586480557918548583984375" lon="-4.43983401171863079071044921875">
        <ele>493.399993896484375</ele>
        <time>2019-10-31T15:53:47.000Z</time>
      </trkpt>
      <trkpt lat="37.0850333757698535919189453125" lon="-4.44010667502880096435546875">
        <ele>493.399993896484375</ele>
        <time>2019-10-31T15:53:51.000Z</time>
      </trkpt>
      <trkpt lat="37.0849961601197719573974609375" lon="-4.4403713755309581756591796875">
        <ele>493.600006103515625</ele>
        <time>2019-10-31T15:53:55.000Z</time>
      </trkpt>
      <trkpt lat="37.084949053823947906494140625" lon="-4.44061470218002796173095703125">
        <ele>493.399993896484375</ele>
        <time>2019-10-31T15:53:59.000Z</time>
      </trkpt>
      <trkpt lat="37.08490102551877498626708984375" lon="-4.44083447568118572235107421875">
        <ele>492.20001220703125</ele>
        <time>2019-10-31T15:54:03.000Z</time>
      </trkpt>
      <trkpt lat="37.08489331416785717010498046875" lon="-4.44088493473827838897705078125">
        <ele>492</ele>
        <time>2019-10-31T15:54:04.000Z</time>
      </trkpt>
      <trkpt lat="37.0848348923027515411376953125" lon="-4.441129602491855621337890625">
        <ele>492.20001220703125</ele>
        <time>2019-10-31T15:54:09.000Z</time>
      </trkpt>
      <trkpt lat="37.08478049375116825103759765625" lon="-4.441346861422061920166015625">
        <ele>493</ele>
        <time>2019-10-31T15:54:13.000Z</time>
      </trkpt>
      <trkpt lat="37.08472299389541149139404296875" lon="-4.44156738929450511932373046875">
        <ele>493</ele>
        <time>2019-10-31T15:54:17.000Z</time>
      </trkpt>
      <trkpt lat="37.08467052318155765533447265625" lon="-4.441789425909519195556640625">
        <ele>493</ele>
        <time>2019-10-31T15:54:21.000Z</time>
      </trkpt>
      <trkpt lat="37.08462081849575042724609375" lon="-4.442008025944232940673828125">
        <ele>492.399993896484375</ele>
        <time>2019-10-31T15:54:25.000Z</time>
      </trkpt>
      <trkpt lat="37.08456843160092830657958984375" lon="-4.4422298111021518707275390625">
        <ele>491</ele>
        <time>2019-10-31T15:54:29.000Z</time>
      </trkpt>
      <trkpt lat="37.0845150388777256011962890625" lon="-4.44245989434421062469482421875">
        <ele>490.399993896484375</ele>
        <time>2019-10-31T15:54:33.000Z</time>
      </trkpt>
      <trkpt lat="37.08447053097188472747802734375" lon="-4.4427028857171535491943359375">
        <ele>490.600006103515625</ele>
        <time>2019-10-31T15:54:37.000Z</time>
      </trkpt>
      <trkpt lat="37.08442426286637783050537109375" lon="-4.4429439492523670196533203125">
        <ele>490.399993896484375</ele>
        <time>2019-10-31T15:54:41.000Z</time>
      </trkpt>
      <trkpt lat="37.08437095396220684051513671875" lon="-4.44319079630076885223388671875">
        <ele>490.399993896484375</ele>
        <time>2019-10-31T15:54:46.000Z</time>
      </trkpt>
      <trkpt lat="37.08433222956955432891845703125" lon="-4.44341476075351238250732421875">
        <ele>490</ele>
        <time>2019-10-31T15:54:51.000Z</time>
      </trkpt>
      <trkpt lat="37.08431445993483066558837890625" lon="-4.44350905716419219970703125">
        <ele>490</ele>
        <time>2019-10-31T15:54:53.000Z</time>
      </trkpt>
      <trkpt lat="37.08426601253449916839599609375" lon="-4.44376093335449695587158203125">
        <ele>490.79998779296875</ele>
        <time>2019-10-31T15:54:58.000Z</time>
      </trkpt>
      <trkpt lat="37.08420566283166408538818359375" lon="-4.44402580149471759796142578125">
        <ele>491.20001220703125</ele>
        <time>2019-10-31T15:55:03.000Z</time>
      </trkpt>
      <trkpt lat="37.0841519348323345184326171875" lon="-4.44425613619387149810791015625">
        <ele>491.79998779296875</ele>
        <time>2019-10-31T15:55:07.000Z</time>
      </trkpt>
      <trkpt lat="37.08409938029944896697998046875" lon="-4.44447507150471210479736328125">
        <ele>492.20001220703125</ele>
        <time>2019-10-31T15:55:11.000Z</time>
      </trkpt>
      <trkpt lat="37.0840567164123058319091796875" lon="-4.444672800600528717041015625">
        <ele>492</ele>
        <time>2019-10-31T15:55:15.000Z</time>
      </trkpt>
      <trkpt lat="37.08401790820062160491943359375" lon="-4.4448925741016864776611328125">
        <ele>491.20001220703125</ele>
        <time>2019-10-31T15:55:20.000Z</time>
      </trkpt>
      <trkpt lat="37.08400399424135684967041015625" lon="-4.44499659352004528045654296875">
        <ele>490.79998779296875</ele>
        <time>2019-10-31T15:55:23.000Z</time>
      </trkpt>
      <trkpt lat="37.0839557982981204986572265625" lon="-4.44522374309599399566650390625">
        <ele>491</ele>
        <time>2019-10-31T15:55:29.000Z</time>
      </trkpt>
      <trkpt lat="37.0839417167007923126220703125" lon="-4.44530622102320194244384765625">
        <ele>491.20001220703125</ele>
        <time>2019-10-31T15:55:31.000Z</time>
      </trkpt>
      <trkpt lat="37.08390374667942523956298828125" lon="-4.445557929575443267822265625">
        <ele>491.399993896484375</ele>
        <time>2019-10-31T15:55:37.000Z</time>
      </trkpt>
      <trkpt lat="37.0839098654687404632568359375" lon="-4.44569698534905910491943359375">
        <ele>491</ele>
        <time>2019-10-31T15:55:41.000Z</time>
      </trkpt>
      <trkpt lat="37.084019668400287628173828125" lon="-4.445651136338710784912109375">
        <ele>490.79998779296875</ele>
        <time>2019-10-31T15:55:47.000Z</time>
      </trkpt>
      <trkpt lat="37.08419702947139739990234375" lon="-4.44556362926959991455078125">
        <ele>491.399993896484375</ele>
        <time>2019-10-31T15:55:53.000Z</time>
      </trkpt>
      <trkpt lat="37.084382437169551849365234375" lon="-4.44547452963888645172119140625">
        <ele>492.20001220703125</ele>
        <time>2019-10-31T15:55:59.000Z</time>
      </trkpt>
      <trkpt lat="37.084568850696086883544921875" lon="-4.4454045407474040985107421875">
        <ele>492.399993896484375</ele>
        <time>2019-10-31T15:56:05.000Z</time>
      </trkpt>
      <trkpt lat="37.08475015126168727874755859375" lon="-4.445333965122699737548828125">
        <ele>492.79998779296875</ele>
        <time>2019-10-31T15:56:11.000Z</time>
      </trkpt>
      <trkpt lat="37.08492927253246307373046875" lon="-4.4452305324375629425048828125">
        <ele>493</ele>
        <time>2019-10-31T15:56:18.000Z</time>
      </trkpt>
      <trkpt lat="37.085111998021602630615234375" lon="-4.4451594538986682891845703125">
        <ele>493</ele>
        <time>2019-10-31T15:56:25.000Z</time>
      </trkpt>
      <trkpt lat="37.08529732190072536468505859375" lon="-4.44510740227997303009033203125">
        <ele>493</ele>
        <time>2019-10-31T15:56:32.000Z</time>
      </trkpt>
      <trkpt lat="37.08549295552074909210205078125" lon="-4.445045292377471923828125">
        <ele>493</ele>
        <time>2019-10-31T15:56:39.000Z</time>
      </trkpt>
      <trkpt lat="37.08568724803626537322998046875" lon="-4.44498267956078052520751953125">
        <ele>493</ele>
        <time>2019-10-31T15:56:46.000Z</time>
      </trkpt>
      <trkpt lat="37.08587299101054668426513671875" lon="-4.4449445419013500213623046875">
        <ele>494</ele>
        <time>2019-10-31T15:56:54.000Z</time>
      </trkpt>
      <trkpt lat="37.08598849363625049591064453125" lon="-4.44493356160819530487060546875">
        <ele>494.79998779296875</ele>
        <time>2019-10-31T15:57:01.000Z</time>
      </trkpt>
      <trkpt lat="37.085993103682994842529296875" lon="-4.44493087939918041229248046875">
        <ele>494.79998779296875</ele>
        <time>2019-10-31T15:57:03.000Z</time>
      </trkpt>
      <trkpt lat="37.08635612390935420989990234375" lon="-4.44474228657782077789306640625">
        <ele>497.79998779296875</ele>
        <time>2019-10-31T15:57:41.000Z</time>
      </trkpt>
      <trkpt lat="37.08653734065592288970947265625" lon="-4.4446551986038684844970703125">
        <ele>498.79998779296875</ele>
        <time>2019-10-31T15:57:56.000Z</time>
      </trkpt>
      <trkpt lat="37.086713276803493499755859375" lon="-4.44457951001822948455810546875">
        <ele>499</ele>
        <time>2019-10-31T15:58:09.000Z</time>
      </trkpt>
      <trkpt lat="37.08685015328228473663330078125" lon="-4.4445442222058773040771484375">
        <ele>499</ele>
        <time>2019-10-31T15:58:19.000Z</time>
      </trkpt>
      <trkpt lat="37.08686842583119869232177734375" lon="-4.44462695159018039703369140625">
        <ele>499</ele>
        <time>2019-10-31T15:58:24.000Z</time>
      </trkpt>
      <trkpt lat="37.08686708472669124603271484375" lon="-4.44463700987398624420166015625">
        <ele>499</ele>
        <time>2019-10-31T15:58:25.000Z</time>
      </trkpt>
      <trkpt lat="37.08697051741182804107666015625" lon="-4.4447866268455982208251953125">
        <ele>499</ele>
        <time>2019-10-31T15:58:39.000Z</time>
      </trkpt>
      <trkpt lat="37.08702818490564823150634765625" lon="-4.4450055621564388275146484375">
        <ele>498.79998779296875</ele>
        <time>2019-10-31T15:58:53.000Z</time>
      </trkpt>
      <trkpt lat="37.08707679994404315948486328125" lon="-4.4452263414859771728515625">
        <ele>498</ele>
        <time>2019-10-31T15:59:07.000Z</time>
      </trkpt>
      <trkpt lat="37.08711904473602771759033203125" lon="-4.44545877166092395782470703125">
        <ele>497.20001220703125</ele>
        <time>2019-10-31T15:59:21.000Z</time>
      </trkpt>
      <trkpt lat="37.0871754549443721771240234375" lon="-4.4456742703914642333984375">
        <ele>498</ele>
        <time>2019-10-31T15:59:35.000Z</time>
      </trkpt>
      <trkpt lat="37.087202109396457672119140625" lon="-4.44580511189997196197509765625">
        <ele>498.399993896484375</ele>
        <time>2019-10-31T15:59:43.000Z</time>
      </trkpt>
      <trkpt lat="37.0872793905436992645263671875" lon="-4.4458333589136600494384765625">
        <ele>498.79998779296875</ele>
        <time>2019-10-31T15:59:51.000Z</time>
      </trkpt>
      <trkpt lat="37.08727897144854068756103515625" lon="-4.44583008997142314910888671875">
        <ele>498.79998779296875</ele>
        <time>2019-10-31T15:59:53.000Z</time>
      </trkpt>
      <trkpt lat="37.0873394049704074859619140625" lon="-4.44589111022651195526123046875">
        <ele>499.20001220703125</ele>
        <time>2019-10-31T16:00:01.000Z</time>
      </trkpt>
      <trkpt lat="37.08746219985187053680419921875" lon="-4.4458673894405364990234375">
        <ele>499.79998779296875</ele>
        <time>2019-10-31T16:00:18.000Z</time>
      </trkpt>
      <trkpt lat="37.08751869387924671173095703125" lon="-4.44584333337843418121337890625">
        <ele>500</ele>
        <time>2019-11-01T07:03:00.000Z</time>
      </trkpt>
      <trkpt lat="37.08751735277473926544189453125" lon="-4.44584148935973644256591796875">
        <ele>500</ele>
        <time>2019-11-01T07:03:01.000Z</time>
      </trkpt>
      <trkpt lat="37.0872143469750881195068359375" lon="-4.44557779468595981597900390625">
        <ele>498</ele>
        <time>2019-11-01T07:03:52.000Z</time>
      </trkpt>
      <trkpt lat="37.0871627144515514373779296875" lon="-4.44535165093839168548583984375">
        <ele>497.600006103515625</ele>
        <time>2019-11-01T07:04:08.000Z</time>
      </trkpt>
      <trkpt lat="37.087144441902637481689453125" lon="-4.44517605006694793701171875">
        <ele>498.399993896484375</ele>
        <time>2019-11-01T07:04:20.000Z</time>
      </trkpt>
      <trkpt lat="37.08708400838077068328857421875" lon="-4.4451758824288845062255859375">
        <ele>498.20001220703125</ele>
        <time>2019-11-01T07:04:26.000Z</time>
      </trkpt>
      <trkpt lat="37.08705626428127288818359375" lon="-4.44517864845693111419677734375">
        <ele>498.20001220703125</ele>
        <time>2019-11-01T07:04:28.000Z</time>
      </trkpt>
      <trkpt lat="37.087019048631191253662109375" lon="-4.44506599567830562591552734375">
        <ele>498.399993896484375</ele>
        <time>2019-11-01T07:04:36.000Z</time>
      </trkpt>
      <trkpt lat="37.08697722293436527252197265625" lon="-4.444845803081989288330078125">
        <ele>499</ele>
        <time>2019-11-01T07:04:51.000Z</time>
      </trkpt>
      <trkpt lat="37.086940594017505645751953125" lon="-4.44461286999285221099853515625">
        <ele>499</ele>
        <time>2019-11-01T07:05:07.000Z</time>
      </trkpt>
      <trkpt lat="37.086898349225521087646484375" lon="-4.44453022442758083343505859375">
        <ele>499</ele>
        <time>2019-11-01T07:05:15.000Z</time>
      </trkpt>
      <trkpt lat="37.0868794061243534088134765625" lon="-4.44452636875212192535400390625">
        <ele>499</ele>
        <time>2019-11-01T07:05:17.000Z</time>
      </trkpt>
      <trkpt lat="37.086793743073940277099609375" lon="-4.44453743286430835723876953125">
        <ele>499</ele>
        <time>2019-11-01T07:05:27.000Z</time>
      </trkpt>
      <trkpt lat="37.08679298870265483856201171875" lon="-4.44453475065529346466064453125">
        <ele>499</ele>
        <time>2019-11-01T07:05:29.000Z</time>
      </trkpt>
      <trkpt lat="37.08673381246626377105712890625" lon="-4.4445730559527873992919921875">
        <ele>499</ele>
        <time>2019-11-01T07:06:24.000Z</time>
      </trkpt>
      <trkpt lat="37.08656148053705692291259765625" lon="-4.4446588866412639617919921875">
        <ele>498.79998779296875</ele>
        <time>2019-11-01T07:06:34.000Z</time>
      </trkpt>
      <trkpt lat="37.08655913360416889190673828125" lon="-4.44465863518416881561279296875">
        <ele>498.79998779296875</ele>
        <time>2019-11-01T07:06:38.000Z</time>
      </trkpt>
      <trkpt lat="37.086480595171451568603515625" lon="-4.444678165018558502197265625">
        <ele>498.399993896484375</ele>
        <time>2019-11-01T07:06:50.000Z</time>
      </trkpt>
      <trkpt lat="37.08648235537111759185791015625" lon="-4.44467447698116302490234375">
        <ele>498.399993896484375</ele>
        <time>2019-11-01T07:06:53.000Z</time>
      </trkpt>
      <trkpt lat="37.08638126961886882781982421875" lon="-4.44472988136112689971923828125">
        <ele>497.79998779296875</ele>
        <time>2019-11-01T07:08:32.000Z</time>
      </trkpt>
      <trkpt lat="37.08627549000084400177001953125" lon="-4.4447842799127101898193359375">
        <ele>497.20001220703125</ele>
        <time>2019-11-01T07:08:37.000Z</time>
      </trkpt>
      <trkpt lat="37.08610718138515949249267578125" lon="-4.44486969150602817535400390625">
        <ele>495.79998779296875</ele>
        <time>2019-11-01T07:08:45.000Z</time>
      </trkpt>
      <trkpt lat="37.08591096103191375732421875" lon="-4.4449205696582794189453125">
        <ele>494.20001220703125</ele>
        <time>2019-11-01T07:08:55.000Z</time>
      </trkpt>
      <trkpt lat="37.08572982810437679290771484375" lon="-4.4449616409838199615478515625">
        <ele>493</ele>
        <time>2019-11-01T07:09:03.000Z</time>
      </trkpt>
      <trkpt lat="37.08553972654044628143310546875" lon="-4.4450263492763042449951171875">
        <ele>493</ele>
        <time>2019-11-01T07:09:12.000Z</time>
      </trkpt>
      <trkpt lat="37.0853636227548122406005859375" lon="-4.44508485496044158935546875">
        <ele>493</ele>
        <time>2019-11-01T07:09:19.000Z</time>
      </trkpt>
      <trkpt lat="37.085179723799228668212890625" lon="-4.4451493956148624420166015625">
        <ele>493</ele>
        <time>2019-11-01T07:09:26.000Z</time>
      </trkpt>
      <trkpt lat="37.0849985070526599884033203125" lon="-4.44517730735242366790771484375">
        <ele>493</ele>
        <time>2019-11-01T07:09:35.000Z</time>
      </trkpt>
      <trkpt lat="37.08483849652111530303955078125" lon="-4.44528744556009769439697265625">
        <ele>493</ele>
        <time>2019-11-01T07:09:44.000Z</time>
      </trkpt>
      <trkpt lat="37.08467404358088970184326171875" lon="-4.44537914358079433441162109375">
        <ele>492.600006103515625</ele>
        <time>2019-11-01T07:09:52.000Z</time>
      </trkpt>
      <trkpt lat="37.0844781585037708282470703125" lon="-4.4454410858452320098876953125">
        <ele>492.399993896484375</ele>
        <time>2019-11-01T07:10:00.000Z</time>
      </trkpt>
      <trkpt lat="37.08428151905536651611328125" lon="-4.445522390305995941162109375">
        <ele>491.79998779296875</ele>
        <time>2019-11-01T07:10:08.000Z</time>
      </trkpt>
      <trkpt lat="37.08408513106405735015869140625" lon="-4.44561702199280261993408203125">
        <ele>490.79998779296875</ele>
        <time>2019-11-01T07:10:15.000Z</time>
      </trkpt>
      <trkpt lat="37.08391212858259677886962890625" lon="-4.44573570974171161651611328125">
        <ele>490.79998779296875</ele>
        <time>2019-11-01T07:10:22.000Z</time>
      </trkpt>
      <trkpt lat="37.083858065307140350341796875" lon="-4.44596956484019756317138671875">
        <ele>490.600006103515625</ele>
        <time>2019-11-01T07:10:31.000Z</time>
      </trkpt>
      <trkpt lat="37.08381221629679203033447265625" lon="-4.4462041743099689483642578125">
        <ele>490.399993896484375</ele>
        <time>2019-11-01T07:10:41.000Z</time>
      </trkpt>
      <trkpt lat="37.08378438837826251983642578125" lon="-4.4464489258825778961181640625">
        <ele>490.20001220703125</ele>
        <time>2019-11-01T07:10:51.000Z</time>
      </trkpt>
      <trkpt lat="37.083752453327178955078125" lon="-4.44669459946453571319580078125">
        <ele>491</ele>
        <time>2019-11-01T07:10:58.000Z</time>
      </trkpt>
      <trkpt lat="37.08372135646641254425048828125" lon="-4.44693465717136859893798828125">
        <ele>491.600006103515625</ele>
        <time>2019-11-01T07:11:05.000Z</time>
      </trkpt>
      <trkpt lat="37.083683051168918609619140625" lon="-4.447175301611423492431640625">
        <ele>490.79998779296875</ele>
        <time>2019-11-01T07:11:11.000Z</time>
      </trkpt>
      <trkpt lat="37.08364583551883697509765625" lon="-4.44741527549922466278076171875">
        <ele>489.600006103515625</ele>
        <time>2019-11-01T07:11:17.000Z</time>
      </trkpt>
      <trkpt lat="37.08361121825873851776123046875" lon="-4.447662793099880218505859375">
        <ele>488.399993896484375</ele>
        <time>2019-11-01T07:11:23.000Z</time>
      </trkpt>
      <trkpt lat="37.08357668481767177581787109375" lon="-4.447913579642772674560546875">
        <ele>488</ele>
        <time>2019-11-01T07:11:29.000Z</time>
      </trkpt>
      <trkpt lat="37.083548605442047119140625" lon="-4.4481450878083705902099609375">
        <ele>489</ele>
        <time>2019-11-01T07:11:34.000Z</time>
      </trkpt>
      <trkpt lat="37.083528153598308563232421875" lon="-4.44839495234191417694091796875">
        <ele>490.20001220703125</ele>
        <time>2019-11-01T07:11:39.000Z</time>
      </trkpt>
      <trkpt lat="37.0835175924003124237060546875" lon="-4.448624365031719207763671875">
        <ele>491</ele>
        <time>2019-11-01T07:11:44.000Z</time>
      </trkpt>
      <trkpt lat="37.0834917761385440826416015625" lon="-4.44888898171484470367431640625">
        <ele>491</ele>
        <time>2019-11-01T07:11:50.000Z</time>
      </trkpt>
      <trkpt lat="37.0834936201572418212890625" lon="-4.44914043880999088287353515625">
        <ele>491</ele>
        <time>2019-11-01T07:11:55.000Z</time>
      </trkpt>
      <trkpt lat="37.0834947936236858367919921875" lon="-4.4494060613214969635009765625">
        <ele>490</ele>
        <time>2019-11-01T07:12:00.000Z</time>
      </trkpt>
      <trkpt lat="37.08349831402301788330078125" lon="-4.4496551714837551116943359375">
        <ele>488.399993896484375</ele>
        <time>2019-11-01T07:12:05.000Z</time>
      </trkpt>
      <trkpt lat="37.083510048687458038330078125" lon="-4.4499026052653789520263671875">
        <ele>486.600006103515625</ele>
        <time>2019-11-01T07:12:10.000Z</time>
      </trkpt>
      <trkpt lat="37.0835038460791110992431640625" lon="-4.45014107041060924530029296875">
        <ele>486</ele>
        <time>2019-11-01T07:12:15.000Z</time>
      </trkpt>
      <trkpt lat="37.08350258879363536834716796875" lon="-4.45039152167737483978271484375">
        <ele>486</ele>
        <time>2019-11-01T07:12:20.000Z</time>
      </trkpt>
      <trkpt lat="37.0834994874894618988037109375" lon="-4.45066326297819614410400390625">
        <ele>486</ele>
        <time>2019-11-01T07:12:25.000Z</time>
      </trkpt>
      <trkpt lat="37.083642147481441497802734375" lon="-4.4508527778089046478271484375">
        <ele>486.600006103515625</ele>
        <time>2019-11-01T07:12:30.000Z</time>
      </trkpt>
      <trkpt lat="37.08382411859929561614990234375" lon="-4.45085470564663410186767578125">
        <ele>487.79998779296875</ele>
        <time>2019-11-01T07:12:35.000Z</time>
      </trkpt>
      <trkpt lat="37.08402578718960285186767578125" lon="-4.45087884552776813507080078125">
        <ele>490.399993896484375</ele>
        <time>2019-11-01T07:12:41.000Z</time>
      </trkpt>
      <trkpt lat="37.0840607397258281707763671875" lon="-4.45093265734612941741943359375">
        <ele>490.20001220703125</ele>
        <time>2019-11-01T07:12:43.000Z</time>
      </trkpt>
      <trkpt lat="37.08397968672215938568115234375" lon="-4.45105687715113162994384765625">
        <ele>488.79998779296875</ele>
        <time>2019-11-01T07:12:49.000Z</time>
      </trkpt>
      <trkpt lat="37.08379025571048259735107421875" lon="-4.451063163578510284423828125">
        <ele>487.20001220703125</ele>
        <time>2019-11-01T07:12:59.000Z</time>
      </trkpt>
      <trkpt lat="37.083595208823680877685546875" lon="-4.4510609842836856842041015625">
        <ele>486.399993896484375</ele>
        <time>2019-11-01T07:13:09.000Z</time>
      </trkpt>
      <trkpt lat="37.08341005258262157440185546875" lon="-4.45107431150972843170166015625">
        <ele>486.600006103515625</ele>
        <time>2019-11-01T07:13:18.000Z</time>
      </trkpt>
      <trkpt lat="37.08322715945541858673095703125" lon="-4.451081939041614532470703125">
        <ele>488</ele>
        <time>2019-11-01T07:13:25.000Z</time>
      </trkpt>
      <trkpt lat="37.08302247337996959686279296875" lon="-4.4511015526950359344482421875">
        <ele>488.600006103515625</ele>
        <time>2019-11-01T07:13:32.000Z</time>
      </trkpt>
      <trkpt lat="37.082830779254436492919921875" lon="-4.45112024433910846710205078125">
        <ele>489</ele>
        <time>2019-11-01T07:13:39.000Z</time>
      </trkpt>
      <trkpt lat="37.08262584172189235687255859375" lon="-4.45113684050738811492919921875">
        <ele>489.20001220703125</ele>
        <time>2019-11-01T07:13:45.000Z</time>
      </trkpt>
      <trkpt lat="37.08244311623275279998779296875" lon="-4.45115293376147747039794921875">
        <ele>491.20001220703125</ele>
        <time>2019-11-01T07:13:50.000Z</time>
      </trkpt>
      <trkpt lat="37.08225779235363006591796875" lon="-4.4511635787785053253173828125">
        <ele>491.79998779296875</ele>
        <time>2019-11-01T07:13:55.000Z</time>
      </trkpt>
      <trkpt lat="37.0820433832705020904541015625" lon="-4.4512316398322582244873046875">
        <ele>490.79998779296875</ele>
        <time>2019-11-01T07:14:00.000Z</time>
      </trkpt>
      <trkpt lat="37.081999965012073516845703125" lon="-4.45126734673976898193359375">
        <ele>490.20001220703125</ele>
        <time>2019-11-01T07:14:01.000Z</time>
      </trkpt>
      <trkpt lat="37.08187784068286418914794921875" lon="-4.45150882937014102935791015625">
        <ele>488</ele>
        <time>2019-11-01T07:14:05.000Z</time>
      </trkpt>
      <trkpt lat="37.08188236691057682037353515625" lon="-4.45178828202188014984130859375">
        <ele>486.399993896484375</ele>
        <time>2019-11-01T07:14:08.000Z</time>
      </trkpt>
      <trkpt lat="37.08192729391157627105712890625" lon="-4.45209740661084651947021484375">
        <ele>484</ele>
        <time>2019-11-01T07:14:11.000Z</time>
      </trkpt>
      <trkpt lat="37.08196048624813556671142578125" lon="-4.45232086814939975738525390625">
        <ele>483.399993896484375</ele>
        <time>2019-11-01T07:14:13.000Z</time>
      </trkpt>
      <trkpt lat="37.0819863863289356231689453125" lon="-4.45242916233837604522705078125">
        <ele>483.399993896484375</ele>
        <time>2019-11-01T07:14:14.000Z</time>
      </trkpt>
      <trkpt lat="37.08212208934128284454345703125" lon="-4.4526882469654083251953125">
        <ele>485.79998779296875</ele>
        <time>2019-11-01T07:14:17.000Z</time>
      </trkpt>
      <trkpt lat="37.082175649702548980712890625" lon="-4.45275806821882724761962890625">
        <ele>486.600006103515625</ele>
        <time>2019-11-01T07:14:18.000Z</time>
      </trkpt>
      <trkpt lat="37.0823214948177337646484375" lon="-4.4529569707810878753662109375">
        <ele>486.79998779296875</ele>
        <time>2019-11-01T07:14:21.000Z</time>
      </trkpt>
      <trkpt lat="37.08236885257065296173095703125" lon="-4.4530127942562103271484375">
        <ele>487</ele>
        <time>2019-11-01T07:14:22.000Z</time>
      </trkpt>
      <trkpt lat="37.0824547670781612396240234375" lon="-4.45311798714101314544677734375">
        <ele>486.20001220703125</ele>
        <time>2019-11-01T07:14:24.000Z</time>
      </trkpt>
      <trkpt lat="37.08253137767314910888671875" lon="-4.45337246172130107879638671875">
        <ele>485.79998779296875</ele>
        <time>2019-11-01T07:14:28.000Z</time>
      </trkpt>
      <trkpt lat="37.08253783173859119415283203125" lon="-4.45360933430492877960205078125">
        <ele>485.600006103515625</ele>
        <time>2019-11-01T07:14:32.000Z</time>
      </trkpt>
      <trkpt lat="37.0825409330427646636962890625" lon="-4.4536597095429897308349609375">
        <ele>485.600006103515625</ele>
        <time>2019-11-01T07:14:33.000Z</time>
      </trkpt>
      <trkpt lat="37.08254269324243068695068359375" lon="-4.4537421874701976776123046875">
        <ele>485.600006103515625</ele>
        <time>2019-11-01T07:14:35.000Z</time>
      </trkpt>
      <trkpt lat="37.0825375802814960479736328125" lon="-4.45381150580942630767822265625">
        <ele>485.600006103515625</ele>
        <time>2019-11-01T07:14:37.000Z</time>
      </trkpt>
      <trkpt lat="37.0825172960758209228515625" lon="-4.453913010656833648681640625">
        <ele>485.399993896484375</ele>
        <time>2019-11-01T07:14:40.000Z</time>
      </trkpt>
      <trkpt lat="37.0824346505105495452880859375" lon="-4.4541116617619991302490234375">
        <ele>485.20001220703125</ele>
        <time>2019-11-01T07:14:53.000Z</time>
      </trkpt>
      <trkpt lat="37.082417048513889312744140625" lon="-4.45405525155365467071533203125">
        <ele>485.20001220703125</ele>
        <time>2019-11-01T07:15:09.000Z</time>
      </trkpt>
      <trkpt lat="37.082449235022068023681640625" lon="-4.45409380830824375152587890625">
        <ele>485.20001220703125</ele>
        <time>2019-11-01T07:15:11.000Z</time>
      </trkpt>
      <trkpt lat="37.08253196440637111663818359375" lon="-4.4542789645493030548095703125">
        <ele>485</ele>
        <time>2019-11-01T07:15:18.000Z</time>
      </trkpt>
      <trkpt lat="37.0823830179870128631591796875" lon="-4.45442187599837779998779296875">
        <ele>485</ele>
        <time>2019-11-01T07:15:25.000Z</time>
      </trkpt>
      <trkpt lat="37.08236751146614551544189453125" lon="-4.45452799089252948760986328125">
        <ele>484.399993896484375</ele>
        <time>2019-11-01T07:15:28.000Z</time>
      </trkpt>
      <trkpt lat="37.082358710467815399169921875" lon="-4.45460191927850246429443359375">
        <ele>483.79998779296875</ele>
        <time>2019-11-01T07:15:34.000Z</time>
      </trkpt>
      <trkpt lat="37.082358039915561676025390625" lon="-4.4546021707355976104736328125">
        <ele>483.79998779296875</ele>
        <time>2019-11-01T07:15:36.000Z</time>
      </trkpt>
      <trkpt lat="37.08240187726914882659912109375" lon="-4.45453234948217868804931640625">
        <ele>484.20001220703125</ele>
        <time>2019-11-01T07:34:31.000Z</time>
      </trkpt>
      <trkpt lat="37.0824021287262439727783203125" lon="-4.4545743428170680999755859375">
        <ele>484</ele>
        <time>2019-11-01T07:34:34.000Z</time>
      </trkpt>
      <trkpt lat="37.08244915120303630828857421875" lon="-4.45453503169119358062744140625">
        <ele>484</ele>
        <time>2019-11-01T07:34:38.000Z</time>
      </trkpt>
      <trkpt lat="37.0823266915977001190185546875" lon="-4.45433638058602809906005859375">
        <ele>485.20001220703125</ele>
        <time>2019-11-01T07:34:52.000Z</time>
      </trkpt>
      <trkpt lat="37.082360722124576568603515625" lon="-4.4543067924678325653076171875">
        <ele>485</ele>
        <time>2019-11-01T07:34:57.000Z</time>
      </trkpt>
      <trkpt lat="37.08236717619001865386962890625" lon="-4.454309307038784027099609375">
        <ele>485</ele>
        <time>2019-11-01T07:34:58.000Z</time>
      </trkpt>
      <trkpt lat="37.08237622864544391632080078125" lon="-4.4543238915503025054931640625">
        <ele>485</ele>
        <time>2019-11-01T07:35:03.000Z</time>
      </trkpt>
      <trkpt lat="37.08244152367115020751953125" lon="-4.45426396094262599945068359375">
        <ele>485</ele>
        <time>2019-11-01T07:35:19.000Z</time>
      </trkpt>
      <trkpt lat="37.08255342207849025726318359375" lon="-4.4542762823402881622314453125">
        <ele>485</ele>
        <time>2019-11-01T07:35:31.000Z</time>
      </trkpt>
      <trkpt lat="37.08258544094860553741455078125" lon="-4.4543792121112346649169921875">
        <ele>484.399993896484375</ele>
        <time>2019-11-01T07:35:38.000Z</time>
      </trkpt>
      <trkpt lat="37.0825878717005252838134765625" lon="-4.4546045176684856414794921875">
        <ele>483.399993896484375</ele>
        <time>2019-11-01T07:35:45.000Z</time>
      </trkpt>
      <trkpt lat="37.0825959183275699615478515625" lon="-4.45483007468283176422119140625">
        <ele>482.600006103515625</ele>
        <time>2019-11-01T07:35:52.000Z</time>
      </trkpt>
      <trkpt lat="37.082597427070140838623046875" lon="-4.4550635106861591339111328125">
        <ele>481.79998779296875</ele>
        <time>2019-11-01T07:36:00.000Z</time>
      </trkpt>
      <trkpt lat="37.08254705183207988739013671875" lon="-4.4552857987582683563232421875">
        <ele>481</ele>
        <time>2019-11-01T07:36:06.000Z</time>
      </trkpt>
      <trkpt lat="37.0825540088117122650146484375" lon="-4.45552476681768894195556640625">
        <ele>481</ele>
        <time>2019-11-01T07:36:12.000Z</time>
      </trkpt>
      <trkpt lat="37.08258108235895633697509765625" lon="-4.45578594692051410675048828125">
        <ele>481.20001220703125</ele>
        <time>2019-11-01T07:36:17.000Z</time>
      </trkpt>
      <trkpt lat="37.08260891027748584747314453125" lon="-4.45604033768177032470703125">
        <ele>481</ele>
        <time>2019-11-01T07:36:22.000Z</time>
      </trkpt>
      <trkpt lat="37.08263891749083995819091796875" lon="-4.45628735236823558807373046875">
        <ele>480.79998779296875</ele>
        <time>2019-11-01T07:36:27.000Z</time>
      </trkpt>
      <trkpt lat="37.0826723612844944000244140625" lon="-4.4565108977258205413818359375">
        <ele>481.600006103515625</ele>
        <time>2019-11-01T07:36:32.000Z</time>
      </trkpt>
      <trkpt lat="37.0827149413526058197021484375" lon="-4.4567603431642055511474609375">
        <ele>482.399993896484375</ele>
        <time>2019-11-01T07:36:38.000Z</time>
      </trkpt>
      <trkpt lat="37.0827454514801502227783203125" lon="-4.45699612610042095184326171875">
        <ele>483.399993896484375</ele>
        <time>2019-11-01T07:36:44.000Z</time>
      </trkpt>
      <trkpt lat="37.0827908813953399658203125" lon="-4.4572372734546661376953125">
        <ele>484</ele>
        <time>2019-11-01T07:36:50.000Z</time>
      </trkpt>
      <trkpt lat="37.0828292705118656158447265625" lon="-4.45748026482760906219482421875">
        <ele>483</ele>
        <time>2019-11-01T07:36:56.000Z</time>
      </trkpt>
      <trkpt lat="37.08286388777196407318115234375" lon="-4.45771059952676296234130859375">
        <ele>481.399993896484375</ele>
        <time>2019-11-01T07:37:01.000Z</time>
      </trkpt>
      <trkpt lat="37.0829006843268871307373046875" lon="-4.4579452089965343475341796875">
        <ele>479.79998779296875</ele>
        <time>2019-11-01T07:37:06.000Z</time>
      </trkpt>
      <trkpt lat="37.082942090928554534912109375" lon="-4.45818132720887660980224609375">
        <ele>479</ele>
        <time>2019-11-01T07:37:11.000Z</time>
      </trkpt>
      <trkpt lat="37.08298467099666595458984375" lon="-4.45842373184859752655029296875">
        <ele>479</ele>
        <time>2019-11-01T07:37:16.000Z</time>
      </trkpt>
      <trkpt lat="37.08302901126444339752197265625" lon="-4.45866865105926990509033203125">
        <ele>478.600006103515625</ele>
        <time>2019-11-01T07:37:21.000Z</time>
      </trkpt>
      <trkpt lat="37.08308835513889789581298828125" lon="-4.45891038514673709869384765625">
        <ele>480</ele>
        <time>2019-11-01T07:37:26.000Z</time>
      </trkpt>
      <trkpt lat="37.0831504650413990020751953125" lon="-4.459146670997142791748046875">
        <ele>484.20001220703125</ele>
        <time>2019-11-01T07:37:31.000Z</time>
      </trkpt>
      <trkpt lat="37.0832074619829654693603515625" lon="-4.45936753414571285247802734375">
        <ele>486.399993896484375</ele>
        <time>2019-11-01T07:37:36.000Z</time>
      </trkpt>
      <trkpt lat="37.08324794657528400421142578125" lon="-4.45962837897241115570068359375">
        <ele>485.399993896484375</ele>
        <time>2019-11-01T07:37:42.000Z</time>
      </trkpt>
      <trkpt lat="37.08327527157962322235107421875" lon="-4.45986055769026279449462890625">
        <ele>482.399993896484375</ele>
        <time>2019-11-01T07:37:48.000Z</time>
      </trkpt>
      <trkpt lat="37.08334115333855152130126953125" lon="-4.46009709499776363372802734375">
        <ele>480.600006103515625</ele>
        <time>2019-11-01T07:37:55.000Z</time>
      </trkpt>
      <trkpt lat="37.0834857411682605743408203125" lon="-4.46023757569491863250732421875">
        <ele>480.20001220703125</ele>
        <time>2019-11-01T07:38:02.000Z</time>
      </trkpt>
      <trkpt lat="37.0836852304637432098388671875" lon="-4.46021343581378459930419921875">
        <ele>479.79998779296875</ele>
        <time>2019-11-01T07:38:09.000Z</time>
      </trkpt>
      <trkpt lat="37.08385999314486980438232421875" lon="-4.4602700136601924896240234375">
        <ele>479.600006103515625</ele>
        <time>2019-11-01T07:38:15.000Z</time>
      </trkpt>
      <trkpt lat="37.0839172415435314178466796875" lon="-4.4604765437543392181396484375">
        <ele>479.79998779296875</ele>
        <time>2019-11-01T07:38:21.000Z</time>
      </trkpt>
      <trkpt lat="37.08392872475087642669677734375" lon="-4.46070696227252483367919921875">
        <ele>480</ele>
        <time>2019-11-01T07:38:27.000Z</time>
      </trkpt>
      <trkpt lat="37.08393677137792110443115234375" lon="-4.4609677232801914215087890625">
        <ele>480.399993896484375</ele>
        <time>2019-11-01T07:38:34.000Z</time>
      </trkpt>
      <trkpt lat="37.0839628390967845916748046875" lon="-4.46120065636932849884033203125">
        <ele>480</ele>
        <time>2019-11-01T07:38:41.000Z</time>
      </trkpt>
      <trkpt lat="37.08398689515888690948486328125" lon="-4.46144004352390766143798828125">
        <ele>479.20001220703125</ele>
        <time>2019-11-01T07:38:48.000Z</time>
      </trkpt>
      <trkpt lat="37.0840101130306720733642578125" lon="-4.4616687856614589691162109375">
        <ele>480</ele>
        <time>2019-11-01T07:38:54.000Z</time>
      </trkpt>
      <trkpt lat="37.0840365998446941375732421875" lon="-4.46191999129951000213623046875">
        <ele>482</ele>
        <time>2019-11-01T07:39:00.000Z</time>
      </trkpt>
      <trkpt lat="37.08405596204102039337158203125" lon="-4.46217320859432220458984375">
        <ele>482</ele>
        <time>2019-11-01T07:39:06.000Z</time>
      </trkpt>
      <trkpt lat="37.08407104946672916412353515625" lon="-4.46239985525608062744140625">
        <ele>480.600006103515625</ele>
        <time>2019-11-01T07:39:11.000Z</time>
      </trkpt>
      <trkpt lat="37.08409083075821399688720703125" lon="-4.4626365602016448974609375">
        <ele>479.79998779296875</ele>
        <time>2019-11-01T07:39:16.000Z</time>
      </trkpt>
      <trkpt lat="37.08410910330712795257568359375" lon="-4.46288189850747585296630859375">
        <ele>479.79998779296875</ele>
        <time>2019-11-01T07:39:21.000Z</time>
      </trkpt>
      <trkpt lat="37.08412184379994869232177734375" lon="-4.4631486944854259490966796875">
        <ele>479.600006103515625</ele>
        <time>2019-11-01T07:39:26.000Z</time>
      </trkpt>
      <trkpt lat="37.0841412059962749481201171875" lon="-4.463416747748851776123046875">
        <ele>479.399993896484375</ele>
        <time>2019-11-01T07:39:31.000Z</time>
      </trkpt>
      <trkpt lat="37.08416861481964588165283203125" lon="-4.46368555538356304168701171875">
        <ele>479.20001220703125</ele>
        <time>2019-11-01T07:39:36.000Z</time>
      </trkpt>
      <trkpt lat="37.08418252877891063690185546875" lon="-4.46391354314982891082763671875">
        <ele>480.20001220703125</ele>
        <time>2019-11-01T07:39:40.000Z</time>
      </trkpt>
      <trkpt lat="37.084198035299777984619140625" lon="-4.4641813449561595916748046875">
        <ele>481.600006103515625</ele>
        <time>2019-11-01T07:39:45.000Z</time>
      </trkpt>
      <trkpt lat="37.08420499227941036224365234375" lon="-4.4644250907003879547119140625">
        <ele>481.600006103515625</ele>
        <time>2019-11-01T07:39:50.000Z</time>
      </trkpt>
      <trkpt lat="37.08422594703733921051025390625" lon="-4.464672692120075225830078125">
        <ele>480.79998779296875</ele>
        <time>2019-11-01T07:39:55.000Z</time>
      </trkpt>
      <trkpt lat="37.0842461474239826202392578125" lon="-4.46490042842924594879150390625">
        <ele>480.79998779296875</ele>
        <time>2019-11-01T07:40:00.000Z</time>
      </trkpt>
      <trkpt lat="37.08426970057189464569091796875" lon="-4.46515624411404132843017578125">
        <ele>481.399993896484375</ele>
        <time>2019-11-01T07:40:06.000Z</time>
      </trkpt>
      <trkpt lat="37.08429568447172641754150390625" lon="-4.4654342718422412872314453125">
        <ele>481.79998779296875</ele>
        <time>2019-11-01T07:40:11.000Z</time>
      </trkpt>
      <trkpt lat="37.08430641330778598785400390625" lon="-4.46566670201718807220458984375">
        <ele>481.399993896484375</ele>
        <time>2019-11-01T07:40:15.000Z</time>
      </trkpt>
      <trkpt lat="37.08433105610311031341552734375" lon="-4.46594364009797573089599609375">
        <ele>480.20001220703125</ele>
        <time>2019-11-01T07:40:20.000Z</time>
      </trkpt>
      <trkpt lat="37.08436491899192333221435546875" lon="-4.466214962303638458251953125">
        <ele>478.600006103515625</ele>
        <time>2019-11-01T07:40:25.000Z</time>
      </trkpt>
      <trkpt lat="37.08439014852046966552734375" lon="-4.466473124921321868896484375">
        <ele>478.20001220703125</ele>
        <time>2019-11-01T07:40:30.000Z</time>
      </trkpt>
      <trkpt lat="37.08441755734384059906005859375" lon="-4.46673698723316192626953125">
        <ele>479</ele>
        <time>2019-11-01T07:40:35.000Z</time>
      </trkpt>
      <trkpt lat="37.084441445767879486083984375" lon="-4.46700965054333209991455078125">
        <ele>479.399993896484375</ele>
        <time>2019-11-01T07:40:40.000Z</time>
      </trkpt>
      <trkpt lat="37.0844645798206329345703125" lon="-4.46727585978806018829345703125">
        <ele>479</ele>
        <time>2019-11-01T07:40:45.000Z</time>
      </trkpt>
      <trkpt lat="37.08449031226336956024169921875" lon="-4.46752731688320636749267578125">
        <ele>479.399993896484375</ele>
        <time>2019-11-01T07:40:50.000Z</time>
      </trkpt>
      <trkpt lat="37.08451042883098125457763671875" lon="-4.46776653639972209930419921875">
        <ele>479.399993896484375</ele>
        <time>2019-11-01T07:40:55.000Z</time>
      </trkpt>
      <trkpt lat="37.08453632891178131103515625" lon="-4.4680272974073886871337890625">
        <ele>479</ele>
        <time>2019-11-01T07:41:01.000Z</time>
      </trkpt>
      <trkpt lat="37.08454026840627193450927734375" lon="-4.46811622940003871917724609375">
        <ele>478.79998779296875</ele>
        <time>2019-11-01T07:41:03.000Z</time>
      </trkpt>
      <trkpt lat="37.084556780755519866943359375" lon="-4.468302391469478607177734375">
        <ele>478.79998779296875</ele>
        <time>2019-11-01T07:41:07.000Z</time>
      </trkpt>
      <trkpt lat="37.084577567875385284423828125" lon="-4.46855896152555942535400390625">
        <ele>478</ele>
        <time>2019-11-01T07:41:12.000Z</time>
      </trkpt>
      <trkpt lat="37.08459089510142803192138671875" lon="-4.4688064791262149810791015625">
        <ele>477.79998779296875</ele>
        <time>2019-11-01T07:41:17.000Z</time>
      </trkpt>
      <trkpt lat="37.0846126042306423187255859375" lon="-4.4690706767141819000244140625">
        <ele>478.79998779296875</ele>
        <time>2019-11-01T07:41:22.000Z</time>
      </trkpt>
      <trkpt lat="37.0846390910446643829345703125" lon="-4.469341076910495758056640625">
        <ele>480.79998779296875</ele>
        <time>2019-11-01T07:41:27.000Z</time>
      </trkpt>
      <trkpt lat="37.08465836942195892333984375" lon="-4.46959714405238628387451171875">
        <ele>481</ele>
        <time>2019-11-01T07:41:32.000Z</time>
      </trkpt>
      <trkpt lat="37.08468125201761722564697265625" lon="-4.46985815651714801788330078125">
        <ele>480</ele>
        <time>2019-11-01T07:41:38.000Z</time>
      </trkpt>
      <trkpt lat="37.0847021229565143585205078125" lon="-4.47010005824267864227294921875">
        <ele>480.20001220703125</ele>
        <time>2019-11-01T07:41:43.000Z</time>
      </trkpt>
      <trkpt lat="37.08472215570509433746337890625" lon="-4.470353610813617706298828125">
        <ele>481.600006103515625</ele>
        <time>2019-11-01T07:41:48.000Z</time>
      </trkpt>
      <trkpt lat="37.0847436971962451934814453125" lon="-4.4706095941364765167236328125">
        <ele>482</ele>
        <time>2019-11-01T07:41:53.000Z</time>
      </trkpt>
      <trkpt lat="37.08477362059056758880615234375" lon="-4.47088661603629589080810546875">
        <ele>479.79998779296875</ele>
        <time>2019-11-01T07:41:58.000Z</time>
      </trkpt>
      <trkpt lat="37.08480111323297023773193359375" lon="-4.47115852497518062591552734375">
        <ele>478</ele>
        <time>2019-11-01T07:42:03.000Z</time>
      </trkpt>
      <trkpt lat="37.08482860587537288665771484375" lon="-4.47138668037950992584228515625">
        <ele>478</ele>
        <time>2019-11-01T07:42:08.000Z</time>
      </trkpt>
      <trkpt lat="37.0848597027361392974853515625" lon="-4.47162531316280364990234375">
        <ele>478.79998779296875</ele>
        <time>2019-11-01T07:42:14.000Z</time>
      </trkpt>
      <trkpt lat="37.08489415235817432403564453125" lon="-4.4718754291534423828125">
        <ele>480.600006103515625</ele>
        <time>2019-11-01T07:42:20.000Z</time>
      </trkpt>
      <trkpt lat="37.0849096588790416717529296875" lon="-4.47214541025459766387939453125">
        <ele>481</ele>
        <time>2019-11-01T07:42:26.000Z</time>
      </trkpt>
      <trkpt lat="37.08492097444832324981689453125" lon="-4.47237809188663959503173828125">
        <ele>481.20001220703125</ele>
        <time>2019-11-01T07:42:31.000Z</time>
      </trkpt>
      <trkpt lat="37.08493237383663654327392578125" lon="-4.47262032888829708099365234375">
        <ele>481</ele>
        <time>2019-11-01T07:42:36.000Z</time>
      </trkpt>
      <trkpt lat="37.08494477905333042144775390625" lon="-4.472861476242542266845703125">
        <ele>481.600006103515625</ele>
        <time>2019-11-01T07:42:41.000Z</time>
      </trkpt>
      <trkpt lat="37.084943018853664398193359375" lon="-4.47310161776840686798095703125">
        <ele>482.399993896484375</ele>
        <time>2019-11-01T07:42:46.000Z</time>
      </trkpt>
      <trkpt lat="37.08480781875550746917724609375" lon="-4.47327964939177036285400390625">
        <ele>482.79998779296875</ele>
        <time>2019-11-01T07:42:51.000Z</time>
      </trkpt>
      <trkpt lat="37.08459508605301380157470703125" lon="-4.47332583367824554443359375">
        <ele>483</ele>
        <time>2019-11-01T07:42:56.000Z</time>
      </trkpt>
      <trkpt lat="37.084412276744842529296875" lon="-4.47335123084485530853271484375">
        <ele>481.79998779296875</ele>
        <time>2019-11-01T07:43:00.000Z</time>
      </trkpt>
      <trkpt lat="37.084201388061046600341796875" lon="-4.4733819924294948577880859375">
        <ele>480.399993896484375</ele>
        <time>2019-11-01T07:43:05.000Z</time>
      </trkpt>
      <trkpt lat="37.08399678580462932586669921875" lon="-4.4734011031687259674072265625">
        <ele>479.399993896484375</ele>
        <time>2019-11-01T07:43:11.000Z</time>
      </trkpt>
      <trkpt lat="37.083825878798961639404296875" lon="-4.47346262633800506591796875">
        <ele>479.399993896484375</ele>
        <time>2019-11-01T07:43:17.000Z</time>
      </trkpt>
      <trkpt lat="37.08380199037492275238037109375" lon="-4.4736880995333194732666015625">
        <ele>480.399993896484375</ele>
        <time>2019-11-01T07:43:27.000Z</time>
      </trkpt>
      <trkpt lat="37.08397348411381244659423828125" lon="-4.473771750926971435546875">
        <ele>481</ele>
        <time>2019-11-01T07:43:35.000Z</time>
      </trkpt>
      <trkpt lat="37.0841764099895954132080078125" lon="-4.47376412339508533477783203125">
        <ele>481.79998779296875</ele>
        <time>2019-11-01T07:43:41.000Z</time>
      </trkpt>
      <trkpt lat="37.084360979497432708740234375" lon="-4.47378859855234622955322265625">
        <ele>482.399993896484375</ele>
        <time>2019-11-01T07:43:46.000Z</time>
      </trkpt>
      <trkpt lat="37.08455602638423442840576171875" lon="-4.4738235510885715484619140625">
        <ele>483</ele>
        <time>2019-11-01T07:43:52.000Z</time>
      </trkpt>
      <trkpt lat="37.08474445156753063201904296875" lon="-4.473829083144664764404296875">
        <ele>483.600006103515625</ele>
        <time>2019-11-01T07:43:58.000Z</time>
      </trkpt>
      <trkpt lat="37.0849267579615116119384765625" lon="-4.4738862477242946624755859375">
        <ele>484.20001220703125</ele>
        <time>2019-11-01T07:44:04.000Z</time>
      </trkpt>
      <trkpt lat="37.08502088673412799835205078125" lon="-4.474079199135303497314453125">
        <ele>484.20001220703125</ele>
        <time>2019-11-01T07:44:10.000Z</time>
      </trkpt>
      <trkpt lat="37.08503446541726589202880859375" lon="-4.4743207655847072601318359375">
        <ele>483.399993896484375</ele>
        <time>2019-11-01T07:44:19.000Z</time>
      </trkpt>
      <trkpt lat="37.0850199647247791290283203125" lon="-4.4745697081089019775390625">
        <ele>483.399993896484375</ele>
        <time>2019-11-01T07:44:27.000Z</time>
      </trkpt>
      <trkpt lat="37.08499708212912082672119140625" lon="-4.474793337285518646240234375">
        <ele>484</ele>
        <time>2019-11-01T07:44:35.000Z</time>
      </trkpt>
      <trkpt lat="37.08497059531509876251220703125" lon="-4.4750332273542881011962890625">
        <ele>484.600006103515625</ele>
        <time>2019-11-01T07:44:45.000Z</time>
      </trkpt>
      <trkpt lat="37.08495701663196086883544921875" lon="-4.47509651072323322296142578125">
        <ele>484.600006103515625</ele>
        <time>2019-11-01T07:44:50.000Z</time>
      </trkpt>
      <trkpt lat="37.08495768718421459197998046875" lon="-4.47508309967815876007080078125">
        <ele>484.600006103515625</ele>
        <time>2019-11-01T07:44:53.000Z</time>
      </trkpt>
      <trkpt lat="37.08496875129640102386474609375" lon="-4.47522408328950405120849609375">
        <ele>484.79998779296875</ele>
        <time>2019-11-01T07:46:09.000Z</time>
      </trkpt>
      <trkpt lat="37.08495081402361392974853515625" lon="-4.47536791674792766571044921875">
        <ele>485.399993896484375</ele>
        <time>2019-11-01T07:46:15.000Z</time>
      </trkpt>
      <trkpt lat="37.084916532039642333984375" lon="-4.4756005145609378814697265625">
        <ele>486.600006103515625</ele>
        <time>2019-11-01T07:46:24.000Z</time>
      </trkpt>
      <trkpt lat="37.08488509990274906158447265625" lon="-4.4758254848420619964599609375">
        <ele>488</ele>
        <time>2019-11-01T07:46:32.000Z</time>
      </trkpt>
      <trkpt lat="37.08485274575650691986083984375" lon="-4.47604919783771038055419921875">
        <ele>490.20001220703125</ele>
        <time>2019-11-01T07:46:40.000Z</time>
      </trkpt>
      <trkpt lat="37.0848181284964084625244140625" lon="-4.47628104127943515777587890625">
        <ele>491.600006103515625</ele>
        <time>2019-11-01T07:46:48.000Z</time>
      </trkpt>
      <trkpt lat="37.08479113876819610595703125" lon="-4.47652478702366352081298828125">
        <ele>492.20001220703125</ele>
        <time>2019-11-01T07:46:56.000Z</time>
      </trkpt>
      <trkpt lat="37.08475266583263874053955078125" lon="-4.47674757800996303558349609375">
        <ele>492.399993896484375</ele>
        <time>2019-11-01T07:47:03.000Z</time>
      </trkpt>
      <trkpt lat="37.08471201360225677490234375" lon="-4.4769774936139583587646484375">
        <ele>493.20001220703125</ele>
        <time>2019-11-01T07:47:10.000Z</time>
      </trkpt>
      <trkpt lat="37.084663398563861846923828125" lon="-4.4772198982536792755126953125">
        <ele>494.20001220703125</ele>
        <time>2019-11-01T07:47:18.000Z</time>
      </trkpt>
      <trkpt lat="37.08461604081094264984130859375" lon="-4.47743724100291728973388671875">
        <ele>494</ele>
        <time>2019-11-01T07:47:26.000Z</time>
      </trkpt>
      <trkpt lat="37.08455652929842472076416015625" lon="-4.4776703417301177978515625">
        <ele>494.600006103515625</ele>
        <time>2019-11-01T07:47:35.000Z</time>
      </trkpt>
      <trkpt lat="37.08449400030076503753662109375" lon="-4.477900005877017974853515625">
        <ele>495.20001220703125</ele>
        <time>2019-11-01T07:47:44.000Z</time>
      </trkpt>
      <trkpt lat="37.0844191499054431915283203125" lon="-4.4781308434903621673583984375">
        <ele>495.79998779296875</ele>
        <time>2019-11-01T07:47:53.000Z</time>
      </trkpt>
      <trkpt lat="37.0843289606273174285888671875" lon="-4.4783588312566280364990234375">
        <ele>497.20001220703125</ele>
        <time>2019-11-01T07:48:01.000Z</time>
      </trkpt>
      <trkpt lat="37.0842339098453521728515625" lon="-4.478554464876651763916015625">
        <ele>498</ele>
        <time>2019-11-01T07:48:06.000Z</time>
      </trkpt>
      <trkpt lat="37.08417967893183231353759765625" lon="-4.4786495156586170196533203125">
        <ele>498.20001220703125</ele>
        <time>2019-11-01T07:48:08.000Z</time>
      </trkpt>
      <trkpt lat="37.08406291902065277099609375" lon="-4.47885462082922458648681640625">
        <ele>498.79998779296875</ele>
        <time>2019-11-01T07:48:12.000Z</time>
      </trkpt>
      <trkpt lat="37.083949260413646697998046875" lon="-4.4790810160338878631591796875">
        <ele>498.600006103515625</ele>
        <time>2019-11-01T07:48:17.000Z</time>
      </trkpt>
      <trkpt lat="37.08384431898593902587890625" lon="-4.47927790693938732147216796875">
        <ele>498.20001220703125</ele>
        <time>2019-11-01T07:48:22.000Z</time>
      </trkpt>
      <trkpt lat="37.08369436673820018768310546875" lon="-4.47950086556375026702880859375">
        <ele>497.399993896484375</ele>
        <time>2019-11-01T07:48:27.000Z</time>
      </trkpt>
      <trkpt lat="37.08356805145740509033203125" lon="-4.4796902127563953399658203125">
        <ele>496.79998779296875</ele>
        <time>2019-11-01T07:48:30.000Z</time>
      </trkpt>
      <trkpt lat="37.083446681499481201171875" lon="-4.47989858686923980712890625">
        <ele>495.79998779296875</ele>
        <time>2019-11-01T07:48:33.000Z</time>
      </trkpt>
      <trkpt lat="37.08333746530115604400634765625" lon="-4.480109475553035736083984375">
        <ele>495.399993896484375</ele>
        <time>2019-11-01T07:48:36.000Z</time>
      </trkpt>
      <trkpt lat="37.08327770233154296875" lon="-4.48024534620344638824462890625">
        <ele>495.600006103515625</ele>
        <time>2019-11-01T07:48:40.000Z</time>
      </trkpt>
      <trkpt lat="37.0832131616771221160888671875" lon="-4.4804563187062740325927734375">
        <ele>497</ele>
        <time>2019-11-01T07:48:50.000Z</time>
      </trkpt>
      <trkpt lat="37.083133198320865631103515625" lon="-4.48066301643848419189453125">
        <ele>497.399993896484375</ele>
        <time>2019-11-01T07:49:00.000Z</time>
      </trkpt>
      <trkpt lat="37.08304904401302337646484375" lon="-4.4808677025139331817626953125">
        <ele>497.399993896484375</ele>
        <time>2019-11-01T07:49:09.000Z</time>
      </trkpt>
      <trkpt lat="37.0829571783542633056640625" lon="-4.48108890093863010406494140625">
        <ele>497.20001220703125</ele>
        <time>2019-11-01T07:49:19.000Z</time>
      </trkpt>
      <trkpt lat="37.0828741975128650665283203125" lon="-4.4812945090234279632568359375">
        <ele>499</ele>
        <time>2019-11-01T07:49:28.000Z</time>
      </trkpt>
      <trkpt lat="37.0827732793986797332763671875" lon="-4.481497518718242645263671875">
        <ele>500.79998779296875</ele>
        <time>2019-11-01T07:49:37.000Z</time>
      </trkpt>
      <trkpt lat="37.0826612971723079681396484375" lon="-4.48168049566447734832763671875">
        <ele>502.399993896484375</ele>
        <time>2019-11-01T07:49:45.000Z</time>
      </trkpt>
      <trkpt lat="37.08254235796630382537841796875" lon="-4.48185282759368419647216796875">
        <ele>502.79998779296875</ele>
        <time>2019-11-01T07:49:51.000Z</time>
      </trkpt>
      <trkpt lat="37.08239592611789703369140625" lon="-4.48198744095861911773681640625">
        <ele>501.79998779296875</ele>
        <time>2019-11-01T07:49:57.000Z</time>
      </trkpt>
      <trkpt lat="37.082228958606719970703125" lon="-4.48208249174058437347412109375">
        <ele>500.399993896484375</ele>
        <time>2019-11-01T07:50:05.000Z</time>
      </trkpt>
      <trkpt lat="37.08205520175397396087646484375" lon="-4.48218072764575481414794921875">
        <ele>498.79998779296875</ele>
        <time>2019-11-01T07:50:14.000Z</time>
      </trkpt>
      <trkpt lat="37.08188991062343120574951171875" lon="-4.48229656554758548736572265625">
        <ele>497.79998779296875</ele>
        <time>2019-11-01T07:50:24.000Z</time>
      </trkpt>
      <trkpt lat="37.081737108528614044189453125" lon="-4.4824321009218692779541015625">
        <ele>497.600006103515625</ele>
        <time>2019-11-01T07:50:34.000Z</time>
      </trkpt>
      <trkpt lat="37.08162655122578144073486328125" lon="-4.48263687081634998321533203125">
        <ele>499</ele>
        <time>2019-11-01T07:50:44.000Z</time>
      </trkpt>
      <trkpt lat="37.08163275383412837982177734375" lon="-4.4828630983829498291015625">
        <ele>501.20001220703125</ele>
        <time>2019-11-01T07:50:53.000Z</time>
      </trkpt>
      <trkpt lat="37.0816916786134243011474609375" lon="-4.48309351690113544464111328125">
        <ele>504.399993896484375</ele>
        <time>2019-11-01T07:51:00.000Z</time>
      </trkpt>
      <trkpt lat="37.081722356379032135009765625" lon="-4.48332502506673336029052734375">
        <ele>507.20001220703125</ele>
        <time>2019-11-01T07:51:05.000Z</time>
      </trkpt>
      <trkpt lat="37.0817107893526554107666015625" lon="-4.4835592992603778839111328125">
        <ele>509.20001220703125</ele>
        <time>2019-11-01T07:51:09.000Z</time>
      </trkpt>
      <trkpt lat="37.08166175521910190582275390625" lon="-4.4837909750640392303466796875">
        <ele>510.600006103515625</ele>
        <time>2019-11-01T07:51:14.000Z</time>
      </trkpt>
      <trkpt lat="37.08159335888922214508056640625" lon="-4.484017789363861083984375">
        <ele>511.399993896484375</ele>
        <time>2019-11-01T07:51:22.000Z</time>
      </trkpt>
      <trkpt lat="37.08149604499340057373046875" lon="-4.48422742076218128204345703125">
        <ele>512</ele>
        <time>2019-11-01T07:51:31.000Z</time>
      </trkpt>
      <trkpt lat="37.08141423761844635009765625" lon="-4.48444836772978305816650390625">
        <ele>513.20001220703125</ele>
        <time>2019-11-01T07:51:40.000Z</time>
      </trkpt>
      <trkpt lat="37.08133435808122158050537109375" lon="-4.48465338908135890960693359375">
        <ele>515</ele>
        <time>2019-11-01T07:51:49.000Z</time>
      </trkpt>
      <trkpt lat="37.08123511634767055511474609375" lon="-4.48485086672008037567138671875">
        <ele>516.20001220703125</ele>
        <time>2019-11-01T07:51:57.000Z</time>
      </trkpt>
      <trkpt lat="37.0811475254595279693603515625" lon="-4.48505236767232418060302734375">
        <ele>518</ele>
        <time>2019-11-01T07:52:05.000Z</time>
      </trkpt>
      <trkpt lat="37.08105993457138538360595703125" lon="-4.4852551259100437164306640625">
        <ele>520.20001220703125</ele>
        <time>2019-11-01T07:52:13.000Z</time>
      </trkpt>
      <trkpt lat="37.08095734007656574249267578125" lon="-4.48547179810702800750732421875">
        <ele>520.79998779296875</ele>
        <time>2019-11-01T07:52:22.000Z</time>
      </trkpt>
      <trkpt lat="37.080869413912296295166015625" lon="-4.4856789149343967437744140625">
        <ele>520.20001220703125</ele>
        <time>2019-11-01T07:52:30.000Z</time>
      </trkpt>
      <trkpt lat="37.08077293820679187774658203125" lon="-4.4858884625136852264404296875">
        <ele>519.4000244140625</ele>
        <time>2019-11-01T07:52:37.000Z</time>
      </trkpt>
      <trkpt lat="37.08066992461681365966796875" lon="-4.48607931844890117645263671875">
        <ele>519.20001220703125</ele>
        <time>2019-11-01T07:52:44.000Z</time>
      </trkpt>
      <trkpt lat="37.0805450342595577239990234375" lon="-4.48627226985991001129150390625">
        <ele>520</ele>
        <time>2019-11-01T07:52:53.000Z</time>
      </trkpt>
      <trkpt lat="37.08044704981148242950439453125" lon="-4.48646723292768001556396484375">
        <ele>521.20001220703125</ele>
        <time>2019-11-01T07:53:02.000Z</time>
      </trkpt>
      <trkpt lat="37.08034160546958446502685546875" lon="-4.48667560704052448272705078125">
        <ele>522.79998779296875</ele>
        <time>2019-11-01T07:53:12.000Z</time>
      </trkpt>
      <trkpt lat="37.08032391965389251708984375" lon="-4.48671265505254268646240234375">
        <ele>522.79998779296875</ele>
        <time>2019-11-01T07:53:15.000Z</time>
      </trkpt>
      <trkpt lat="37.080323584377765655517578125" lon="-4.48670410551130771636962890625">
        <ele>522.79998779296875</ele>
        <time>2019-11-01T07:53:19.000Z</time>
      </trkpt>
      <trkpt lat="37.080321572721004486083984375" lon="-4.48678021319210529327392578125">
        <ele>523.5999755859375</ele>
        <time>2019-11-01T07:53:58.000Z</time>
      </trkpt>
      <trkpt lat="37.08025761879980564117431640625" lon="-4.48699898086488246917724609375">
        <ele>525.20001220703125</ele>
        <time>2019-11-01T07:54:14.000Z</time>
      </trkpt>
      <trkpt lat="37.080182768404483795166015625" lon="-4.48720651678740978240966796875">
        <ele>527</ele>
        <time>2019-11-01T07:54:29.000Z</time>
      </trkpt>
      <trkpt lat="37.0801167190074920654296875" lon="-4.48742344044148921966552734375">
        <ele>528.4000244140625</ele>
        <time>2019-11-01T07:54:45.000Z</time>
      </trkpt>
      <trkpt lat="37.08004807122051715850830078125" lon="-4.48763684369623661041259765625">
        <ele>529.4000244140625</ele>
        <time>2019-11-01T07:55:02.000Z</time>
      </trkpt>
      <trkpt lat="37.07999476231634616851806640625" lon="-4.48785670101642608642578125">
        <ele>530.79998779296875</ele>
        <time>2019-11-01T07:55:21.000Z</time>
      </trkpt>
      <trkpt lat="37.07993659190833568572998046875" lon="-4.4880811683833599090576171875">
        <ele>532.79998779296875</ele>
        <time>2019-11-01T07:55:39.000Z</time>
      </trkpt>
      <trkpt lat="37.079929299652576446533203125" lon="-4.48831074871122837066650390625">
        <ele>535.4000244140625</ele>
        <time>2019-11-01T07:55:57.000Z</time>
      </trkpt>
      <trkpt lat="37.0798986218869686126708984375" lon="-4.48853907175362110137939453125">
        <ele>536.79998779296875</ele>
        <time>2019-11-01T07:56:12.000Z</time>
      </trkpt>
      <trkpt lat="37.07984774373471736907958984375" lon="-4.4887601025402545928955078125">
        <ele>537.20001220703125</ele>
        <time>2019-11-01T07:56:27.000Z</time>
      </trkpt>
      <trkpt lat="37.079805247485637664794921875" lon="-4.4889793731272220611572265625">
        <ele>537.20001220703125</ele>
        <time>2019-11-01T07:56:42.000Z</time>
      </trkpt>
      <trkpt lat="37.07976493053138256072998046875" lon="-4.489206857979297637939453125">
        <ele>537.5999755859375</ele>
        <time>2019-11-01T07:56:58.000Z</time>
      </trkpt>
      <trkpt lat="37.07973383367061614990234375" lon="-4.4894333370029926300048828125">
        <ele>538.4000244140625</ele>
        <time>2019-11-01T07:57:14.000Z</time>
      </trkpt>
      <trkpt lat="37.07971061579883098602294921875" lon="-4.48966182768344879150390625">
        <ele>541.4000244140625</ele>
        <time>2019-11-01T07:57:30.000Z</time>
      </trkpt>
      <trkpt lat="37.07970659248530864715576171875" lon="-4.48988637886941432952880859375">
        <ele>544.4000244140625</ele>
        <time>2019-11-01T07:57:45.000Z</time>
      </trkpt>
      <trkpt lat="37.07967256195843219757080078125" lon="-4.4901179708540439605712890625">
        <ele>546</ele>
        <time>2019-11-01T07:58:00.000Z</time>
      </trkpt>
      <trkpt lat="37.07965202629566192626953125" lon="-4.4903402589261531829833984375">
        <ele>547</ele>
        <time>2019-11-01T07:58:14.000Z</time>
      </trkpt>
      <trkpt lat="37.079640291631221771240234375" lon="-4.49043137021362781524658203125">
        <ele>547.5999755859375</ele>
        <time>2019-11-01T07:58:24.000Z</time>
      </trkpt>
      <trkpt lat="37.07961958833038806915283203125" lon="-4.49053362943232059478759765625">
        <ele>548</ele>
        <time>2019-11-01T07:58:33.000Z</time>
      </trkpt>
      <trkpt lat="37.07958069629967212677001953125" lon="-4.4907734356820583343505859375">
        <ele>548.4000244140625</ele>
        <time>2019-11-01T07:58:41.000Z</time>
      </trkpt>
      <trkpt lat="37.07953291945159435272216796875" lon="-4.4910245575010776519775390625">
        <ele>548.5999755859375</ele>
        <time>2019-11-01T07:58:48.000Z</time>
      </trkpt>
      <trkpt lat="37.07950660027563571929931640625" lon="-4.49124910868704319000244140625">
        <ele>549</ele>
        <time>2019-11-01T07:58:55.000Z</time>
      </trkpt>
      <trkpt lat="37.0794664509594440460205078125" lon="-4.49147039093077182769775390625">
        <ele>548.4000244140625</ele>
        <time>2019-11-01T07:59:02.000Z</time>
      </trkpt>
      <trkpt lat="37.07943401299417018890380859375" lon="-4.49171564541757106781005859375">
        <ele>549</ele>
        <time>2019-11-01T07:59:11.000Z</time>
      </trkpt>
      <trkpt lat="37.07939847372472286224365234375" lon="-4.49195737950503826141357421875">
        <ele>550.20001220703125</ele>
        <time>2019-11-01T07:59:20.000Z</time>
      </trkpt>
      <trkpt lat="37.07935974933207035064697265625" lon="-4.4921886362135410308837890625">
        <ele>551.20001220703125</ele>
        <time>2019-11-01T07:59:29.000Z</time>
      </trkpt>
      <trkpt lat="37.0793139003217220306396484375" lon="-4.4924092479050159454345703125">
        <ele>551.5999755859375</ele>
        <time>2019-11-01T07:59:37.000Z</time>
      </trkpt>
      <trkpt lat="37.07926788367331027984619140625" lon="-4.4926409237086772918701171875">
        <ele>552</ele>
        <time>2019-11-01T07:59:45.000Z</time>
      </trkpt>
      <trkpt lat="37.07919278182089328765869140625" lon="-4.492868073284626007080078125">
        <ele>552</ele>
        <time>2019-11-01T07:59:53.000Z</time>
      </trkpt>
      <trkpt lat="37.0791321806609630584716796875" lon="-4.49308994226157665252685546875">
        <ele>553.20001220703125</ele>
        <time>2019-11-01T08:00:00.000Z</time>
      </trkpt>
      <trkpt lat="37.07906453870236873626708984375" lon="-4.49330988340079784393310546875">
        <ele>554</ele>
        <time>2019-11-01T08:00:07.000Z</time>
      </trkpt>
      <trkpt lat="37.078991197049617767333984375" lon="-4.49352613650262355804443359375">
        <ele>554.79998779296875</ele>
        <time>2019-11-01T08:00:14.000Z</time>
      </trkpt>
      <trkpt lat="37.07890846766531467437744140625" lon="-4.4937369413673877716064453125">
        <ele>554.5999755859375</ele>
        <time>2019-11-01T08:00:21.000Z</time>
      </trkpt>
      <trkpt lat="37.078830935060977935791015625" lon="-4.49397590942680835723876953125">
        <ele>554.5999755859375</ele>
        <time>2019-11-01T08:00:28.000Z</time>
      </trkpt>
      <trkpt lat="37.0787311904132366180419921875" lon="-4.49420951306819915771484375">
        <ele>554</ele>
        <time>2019-11-01T08:00:34.000Z</time>
      </trkpt>
      <trkpt lat="37.07863253541290760040283203125" lon="-4.494409002363681793212890625">
        <ele>554</ele>
        <time>2019-11-01T08:00:41.000Z</time>
      </trkpt>
      <trkpt lat="37.07854829728603363037109375" lon="-4.49461494572460651397705078125">
        <ele>553.4000244140625</ele>
        <time>2019-11-01T08:00:47.000Z</time>
      </trkpt>
      <trkpt lat="37.07844243384897708892822265625" lon="-4.49482549913227558135986328125">
        <ele>553.4000244140625</ele>
        <time>2019-11-01T08:00:53.000Z</time>
      </trkpt>
      <trkpt lat="37.07832575775682926177978515625" lon="-4.4950389862060546875">
        <ele>554.20001220703125</ele>
        <time>2019-11-01T08:01:00.000Z</time>
      </trkpt>
      <trkpt lat="37.0782131887972354888916015625" lon="-4.49524358846247196197509765625">
        <ele>555.20001220703125</ele>
        <time>2019-11-01T08:01:07.000Z</time>
      </trkpt>
      <trkpt lat="37.0780901424586772918701171875" lon="-4.49545204639434814453125">
        <ele>554.4000244140625</ele>
        <time>2019-11-01T08:01:13.000Z</time>
      </trkpt>
      <trkpt lat="37.077957205474376678466796875" lon="-4.495627395808696746826171875">
        <ele>553.20001220703125</ele>
        <time>2019-11-01T08:01:18.000Z</time>
      </trkpt>
      <trkpt lat="37.07782133482396602630615234375" lon="-4.4958273880183696746826171875">
        <ele>551</ele>
        <time>2019-11-01T08:01:23.000Z</time>
      </trkpt>
      <trkpt lat="37.07771521992981433868408203125" lon="-4.49600131250917911529541015625">
        <ele>549.20001220703125</ele>
        <time>2019-11-01T08:01:30.000Z</time>
      </trkpt>
      <trkpt lat="37.0777210034430027008056640625" lon="-4.496007263660430908203125">
        <ele>549.20001220703125</ele>
        <time>2019-11-01T08:01:34.000Z</time>
      </trkpt>
      <trkpt lat="37.0776678621768951416015625" lon="-4.4960798509418964385986328125">
        <ele>548.4000244140625</ele>
        <time>2019-11-01T08:01:43.000Z</time>
      </trkpt>
      <trkpt lat="37.07755344919860363006591796875" lon="-4.4962525181472301483154296875">
        <ele>547</ele>
        <time>2019-11-01T08:01:50.000Z</time>
      </trkpt>
      <trkpt lat="37.07741699181497097015380859375" lon="-4.49642828665673732757568359375">
        <ele>546</ele>
        <time>2019-11-01T08:01:56.000Z</time>
      </trkpt>
      <trkpt lat="37.0772707276046276092529296875" lon="-4.49660145677626132965087890625">
        <ele>547.5999755859375</ele>
        <time>2019-11-01T08:02:02.000Z</time>
      </trkpt>
      <trkpt lat="37.07713116891682147979736328125" lon="-4.496756605803966522216796875">
        <ele>548.4000244140625</ele>
        <time>2019-11-01T08:02:07.000Z</time>
      </trkpt>
      <trkpt lat="37.07697627134621143341064453125" lon="-4.4969431869685649871826171875">
        <ele>546.4000244140625</ele>
        <time>2019-11-01T08:02:12.000Z</time>
      </trkpt>
      <trkpt lat="37.07683143205940723419189453125" lon="-4.49713337235152721405029296875">
        <ele>543.5999755859375</ele>
        <time>2019-11-01T08:02:16.000Z</time>
      </trkpt>
      <trkpt lat="37.07667787559330463409423828125" lon="-4.49733830988407135009765625">
        <ele>543</ele>
        <time>2019-11-01T08:02:20.000Z</time>
      </trkpt>
      <trkpt lat="37.07652985118329524993896484375" lon="-4.49752581305801868438720703125">
        <ele>542.79998779296875</ele>
        <time>2019-11-01T08:02:24.000Z</time>
      </trkpt>
      <trkpt lat="37.07636632025241851806640625" lon="-4.49772831983864307403564453125">
        <ele>541.20001220703125</ele>
        <time>2019-11-01T08:02:28.000Z</time>
      </trkpt>
      <trkpt lat="37.076209746301174163818359375" lon="-4.497945494949817657470703125">
        <ele>539.4000244140625</ele>
        <time>2019-11-01T08:02:32.000Z</time>
      </trkpt>
      <trkpt lat="37.07607664167881011962890625" lon="-4.49811615049839019775390625">
        <ele>538</ele>
        <time>2019-11-01T08:02:35.000Z</time>
      </trkpt>
      <trkpt lat="37.07593456842005252838134765625" lon="-4.49830926954746246337890625">
        <ele>536.4000244140625</ele>
        <time>2019-11-01T08:02:38.000Z</time>
      </trkpt>
      <trkpt lat="37.07578696310520172119140625" lon="-4.4985122792422771453857421875">
        <ele>533.5999755859375</ele>
        <time>2019-11-01T08:02:41.000Z</time>
      </trkpt>
      <trkpt lat="37.07563298754394054412841796875" lon="-4.4987134449183940887451171875">
        <ele>531.20001220703125</ele>
        <time>2019-11-01T08:02:44.000Z</time>
      </trkpt>
      <trkpt lat="37.0754840411245822906494140625" lon="-4.498909749090671539306640625">
        <ele>530</ele>
        <time>2019-11-01T08:02:47.000Z</time>
      </trkpt>
      <trkpt lat="37.075338028371334075927734375" lon="-4.49909557588398456573486328125">
        <ele>529.5999755859375</ele>
        <time>2019-11-01T08:02:50.000Z</time>
      </trkpt>
      <trkpt lat="37.0751953683793544769287109375" lon="-4.49929422698915004730224609375">
        <ele>528.5999755859375</ele>
        <time>2019-11-01T08:02:53.000Z</time>
      </trkpt>
      <trkpt lat="37.07505463622510433197021484375" lon="-4.49948332272469997406005859375">
        <ele>527.79998779296875</ele>
        <time>2019-11-01T08:02:56.000Z</time>
      </trkpt>
      <trkpt lat="37.07492739893496036529541015625" lon="-4.4996351189911365509033203125">
        <ele>526.5999755859375</ele>
        <time>2019-11-01T08:02:59.000Z</time>
      </trkpt>
      <trkpt lat="37.07479144446551799774169921875" lon="-4.49982547201216220855712890625">
        <ele>525.5999755859375</ele>
        <time>2019-11-01T08:03:03.000Z</time>
      </trkpt>
      <trkpt lat="37.07464300096035003662109375" lon="-4.500008113682270050048828125">
        <ele>524.5999755859375</ele>
        <time>2019-11-01T08:03:10.000Z</time>
      </trkpt>
      <trkpt lat="37.0745164342224597930908203125" lon="-4.5001780986785888671875">
        <ele>524</ele>
        <time>2019-11-01T08:03:17.000Z</time>
      </trkpt>
      <trkpt lat="37.0743970759212970733642578125" lon="-4.50038655661046504974365234375">
        <ele>523</ele>
        <time>2019-11-01T08:03:25.000Z</time>
      </trkpt>
      <trkpt lat="37.07428316585719585418701171875" lon="-4.5005956850945949554443359375">
        <ele>521.79998779296875</ele>
        <time>2019-11-01T08:03:32.000Z</time>
      </trkpt>
      <trkpt lat="37.0741630531847476959228515625" lon="-4.50080531649291515350341796875">
        <ele>520.4000244140625</ele>
        <time>2019-11-01T08:03:38.000Z</time>
      </trkpt>
      <trkpt lat="37.0740929804742336273193359375" lon="-4.50097345747053623199462890625">
        <ele>519.20001220703125</ele>
        <time>2019-11-01T08:03:48.000Z</time>
      </trkpt>
      <trkpt lat="37.07401997409760951995849609375" lon="-4.501099102199077606201171875">
        <ele>518.4000244140625</ele>
        <time>2019-11-01T08:07:52.000Z</time>
      </trkpt>
      <trkpt lat="37.07389826886355876922607421875" lon="-4.5013165287673473358154296875">
        <ele>516.4000244140625</ele>
        <time>2019-11-01T08:07:59.000Z</time>
      </trkpt>
      <trkpt lat="37.0737727917730808258056640625" lon="-4.5015140064060688018798828125">
        <ele>514.5999755859375</ele>
        <time>2019-11-01T08:08:04.000Z</time>
      </trkpt>
      <trkpt lat="37.0736484043300151824951171875" lon="-4.5017493702471256256103515625">
        <ele>513.79998779296875</ele>
        <time>2019-11-01T08:08:09.000Z</time>
      </trkpt>
      <trkpt lat="37.07354455254971981048583984375" lon="-4.50195346958935260772705078125">
        <ele>513.4000244140625</ele>
        <time>2019-11-01T08:08:13.000Z</time>
      </trkpt>
      <trkpt lat="37.07343307323753833770751953125" lon="-4.50216016732156276702880859375">
        <ele>513.5999755859375</ele>
        <time>2019-11-01T08:08:17.000Z</time>
      </trkpt>
      <trkpt lat="37.07329946570098400115966796875" lon="-4.50239854864776134490966796875">
        <ele>512.4000244140625</ele>
        <time>2019-11-01T08:08:21.000Z</time>
      </trkpt>
      <trkpt lat="37.0732665248215198516845703125" lon="-4.50246225111186504364013671875">
        <ele>512</ele>
        <time>2019-11-01T08:08:22.000Z</time>
      </trkpt>
      <trkpt lat="37.0731686241924762725830078125" lon="-4.5026549510657787322998046875">
        <ele>511.20001220703125</ele>
        <time>2019-11-01T08:08:25.000Z</time>
      </trkpt>
      <trkpt lat="37.07304281182587146759033203125" lon="-4.50290791690349578857421875">
        <ele>510.399993896484375</ele>
        <time>2019-11-01T08:08:29.000Z</time>
      </trkpt>
      <trkpt lat="37.07294591702520847320556640625" lon="-4.50310262851417064666748046875">
        <ele>509.600006103515625</ele>
        <time>2019-11-01T08:08:32.000Z</time>
      </trkpt>
      <trkpt lat="37.0728434063494205474853515625" lon="-4.5033181272447109222412109375">
        <ele>508.79998779296875</ele>
        <time>2019-11-01T08:08:35.000Z</time>
      </trkpt>
      <trkpt lat="37.07274441607296466827392578125" lon="-4.50353144668042659759521484375">
        <ele>506.600006103515625</ele>
        <time>2019-11-01T08:08:38.000Z</time>
      </trkpt>
      <trkpt lat="37.07265146076679229736328125" lon="-4.5037405751645565032958984375">
        <ele>505.20001220703125</ele>
        <time>2019-11-01T08:08:41.000Z</time>
      </trkpt>
      <trkpt lat="37.07255892455577850341796875" lon="-4.50394433923065662384033203125">
        <ele>504</ele>
        <time>2019-11-01T08:08:44.000Z</time>
      </trkpt>
      <trkpt lat="37.07246881909668445587158203125" lon="-4.50415925122797489166259765625">
        <ele>502.399993896484375</ele>
        <time>2019-11-01T08:08:47.000Z</time>
      </trkpt>
      <trkpt lat="37.07237510941922664642333984375" lon="-4.5043796114623546600341796875">
        <ele>501.399993896484375</ele>
        <time>2019-11-01T08:08:50.000Z</time>
      </trkpt>
      <trkpt lat="37.0722784660756587982177734375" lon="-4.50458119623363018035888671875">
        <ele>500.20001220703125</ele>
        <time>2019-11-01T08:08:53.000Z</time>
      </trkpt>
      <trkpt lat="37.0721772126853466033935546875" lon="-4.50476978905498981475830078125">
        <ele>499.20001220703125</ele>
        <time>2019-11-01T08:08:57.000Z</time>
      </trkpt>
      <trkpt lat="37.07216053269803524017333984375" lon="-4.50480968691408634185791015625">
        <ele>499</ele>
        <time>2019-11-01T08:08:58.000Z</time>
      </trkpt>
      <trkpt lat="37.07210387103259563446044921875" lon="-4.50499040074646472930908203125">
        <ele>498</ele>
        <time>2019-11-01T08:09:04.000Z</time>
      </trkpt>
      <trkpt lat="37.07201175391674041748046875" lon="-4.50518502853810787200927734375">
        <ele>496.600006103515625</ele>
        <time>2019-11-01T08:09:11.000Z</time>
      </trkpt>
      <trkpt lat="37.07199088297784328460693359375" lon="-4.505267255008220672607421875">
        <ele>496</ele>
        <time>2019-11-01T08:09:15.000Z</time>
      </trkpt>
      <trkpt lat="37.071947045624256134033203125" lon="-4.5053559355437755584716796875">
        <ele>495.399993896484375</ele>
        <time>2019-11-01T08:09:19.000Z</time>
      </trkpt>
      <trkpt lat="37.0719317905604839324951171875" lon="-4.5054018683731555938720703125">
        <ele>495.20001220703125</ele>
        <time>2019-11-01T08:09:24.000Z</time>
      </trkpt>
      <trkpt lat="37.0719307847321033477783203125" lon="-4.5054005272686481475830078125">
        <ele>495.20001220703125</ele>
        <time>2019-11-01T08:09:26.000Z</time>
      </trkpt>
      <trkpt lat="37.07182508893311023712158203125" lon="-4.50580193661153316497802734375">
        <ele>492.20001220703125</ele>
        <time>2019-11-01T08:31:36.000Z</time>
      </trkpt>
      <trkpt lat="37.07174797542393207550048828125" lon="-4.50600796379148960113525390625">
        <ele>490.399993896484375</ele>
        <time>2019-11-01T08:31:42.000Z</time>
      </trkpt>
      <trkpt lat="37.0716853626072406768798828125" lon="-4.50624994933605194091796875">
        <ele>489</ele>
        <time>2019-11-01T08:31:48.000Z</time>
      </trkpt>
      <trkpt lat="37.0715975202620029449462890625" lon="-4.50646913610398769378662109375">
        <ele>487.399993896484375</ele>
        <time>2019-11-01T08:31:55.000Z</time>
      </trkpt>
      <trkpt lat="37.071531303226947784423828125" lon="-4.5066910050809383392333984375">
        <ele>486</ele>
        <time>2019-11-01T08:32:03.000Z</time>
      </trkpt>
      <trkpt lat="37.071451507508754730224609375" lon="-4.50690348632633686065673828125">
        <ele>485.20001220703125</ele>
        <time>2019-11-01T08:32:09.000Z</time>
      </trkpt>
      <trkpt lat="37.0713772438466548919677734375" lon="-4.50714848935604095458984375">
        <ele>484.20001220703125</ele>
        <time>2019-11-01T08:32:16.000Z</time>
      </trkpt>
      <trkpt lat="37.07130105234682559967041015625" lon="-4.507366754114627838134765625">
        <ele>482.399993896484375</ele>
        <time>2019-11-01T08:32:22.000Z</time>
      </trkpt>
      <trkpt lat="37.07124556414783000946044921875" lon="-4.5075935684144496917724609375">
        <ele>480.399993896484375</ele>
        <time>2019-11-01T08:32:28.000Z</time>
      </trkpt>
      <trkpt lat="37.07119460217654705047607421875" lon="-4.50781124643981456756591796875">
        <ele>479.399993896484375</ele>
        <time>2019-11-01T08:32:33.000Z</time>
      </trkpt>
      <trkpt lat="37.07113869488239288330078125" lon="-4.5080570876598358154296875">
        <ele>478</ele>
        <time>2019-11-01T08:32:38.000Z</time>
      </trkpt>
      <trkpt lat="37.0710781775414943695068359375" lon="-4.50825146399438381195068359375">
        <ele>476.600006103515625</ele>
        <time>2019-11-01T08:32:42.000Z</time>
      </trkpt>
      <trkpt lat="37.07096971571445465087890625" lon="-4.50844692997634410858154296875">
        <ele>475.399993896484375</ele>
        <time>2019-11-01T08:32:46.000Z</time>
      </trkpt>
      <trkpt lat="37.0708589069545269012451171875" lon="-4.5086563937366008758544921875">
        <ele>473.79998779296875</ele>
        <time>2019-11-01T08:32:50.000Z</time>
      </trkpt>
      <trkpt lat="37.07081289030611515045166015625" lon="-4.5089490897953510284423828125">
        <ele>472.399993896484375</ele>
        <time>2019-11-01T08:32:54.000Z</time>
      </trkpt>
      <trkpt lat="37.07081121392548084259033203125" lon="-4.50922359712421894073486328125">
        <ele>472.20001220703125</ele>
        <time>2019-11-01T08:32:58.000Z</time>
      </trkpt>
      <trkpt lat="37.0708119682967662811279296875" lon="-4.509358964860439300537109375">
        <ele>471.600006103515625</ele>
        <time>2019-11-01T08:33:00.000Z</time>
      </trkpt>
      <trkpt lat="37.07075689919292926788330078125" lon="-4.50965224765241146087646484375">
        <ele>470.399993896484375</ele>
        <time>2019-11-01T08:33:04.000Z</time>
      </trkpt>
      <trkpt lat="37.07071566022932529449462890625" lon="-4.50988073833286762237548828125">
        <ele>468.79998779296875</ele>
        <time>2019-11-01T08:33:07.000Z</time>
      </trkpt>
      <trkpt lat="37.07068741321563720703125" lon="-4.5101272501051425933837890625">
        <ele>467.399993896484375</ele>
        <time>2019-11-01T08:33:10.000Z</time>
      </trkpt>
      <trkpt lat="37.0706577412784099578857421875" lon="-4.51038734056055545806884765625">
        <ele>466.79998779296875</ele>
        <time>2019-11-01T08:33:13.000Z</time>
      </trkpt>
      <trkpt lat="37.07061977125704288482666015625" lon="-4.510652460157871246337890625">
        <ele>466.600006103515625</ele>
        <time>2019-11-01T08:33:16.000Z</time>
      </trkpt>
      <trkpt lat="37.07058523781597614288330078125" lon="-4.5109270513057708740234375">
        <ele>464.79998779296875</ele>
        <time>2019-11-01T08:33:19.000Z</time>
      </trkpt>
      <trkpt lat="37.0705521292984485626220703125" lon="-4.5111853815615177154541015625">
        <ele>463.399993896484375</ele>
        <time>2019-11-01T08:33:22.000Z</time>
      </trkpt>
      <trkpt lat="37.070534527301788330078125" lon="-4.51144111342728137969970703125">
        <ele>462.20001220703125</ele>
        <time>2019-11-01T08:33:25.000Z</time>
      </trkpt>
      <trkpt lat="37.070519439876079559326171875" lon="-4.51168267987668514251708984375">
        <ele>461.20001220703125</ele>
        <time>2019-11-01T08:33:28.000Z</time>
      </trkpt>
      <trkpt lat="37.0705035142600536346435546875" lon="-4.51197906397283077239990234375">
        <ele>460.600006103515625</ele>
        <time>2019-11-01T08:33:32.000Z</time>
      </trkpt>
      <trkpt lat="37.07048750482499599456787109375" lon="-4.51227444224059581756591796875">
        <ele>461.20001220703125</ele>
        <time>2019-11-01T08:33:36.000Z</time>
      </trkpt>
      <trkpt lat="37.0704716630280017852783203125" lon="-4.512550123035907745361328125">
        <ele>461.399993896484375</ele>
        <time>2019-11-01T08:33:40.000Z</time>
      </trkpt>
      <trkpt lat="37.070462442934513092041015625" lon="-4.51281356625258922576904296875">
        <ele>462</ele>
        <time>2019-11-01T08:33:44.000Z</time>
      </trkpt>
      <trkpt lat="37.070448696613311767578125" lon="-4.51307591982185840606689453125">
        <ele>461</ele>
        <time>2019-11-01T08:33:48.000Z</time>
      </trkpt>
      <trkpt lat="37.07043654285371303558349609375" lon="-4.51334380544722080230712890625">
        <ele>461</ele>
        <time>2019-11-01T08:33:52.000Z</time>
      </trkpt>
      <trkpt lat="37.07042614929378032684326171875" lon="-4.5136365853250026702880859375">
        <ele>460</ele>
        <time>2019-11-01T08:33:56.000Z</time>
      </trkpt>
      <trkpt lat="37.07042229361832141876220703125" lon="-4.5138893835246562957763671875">
        <ele>460</ele>
        <time>2019-11-01T08:34:01.000Z</time>
      </trkpt>
      <trkpt lat="37.07043419592082500457763671875" lon="-4.514166153967380523681640625">
        <ele>459</ele>
        <time>2019-11-01T08:34:06.000Z</time>
      </trkpt>
      <trkpt lat="37.07043997943401336669921875" lon="-4.514410905539989471435546875">
        <ele>458.20001220703125</ele>
        <time>2019-11-01T08:34:10.000Z</time>
      </trkpt>
      <trkpt lat="37.070446014404296875" lon="-4.5146632008254528045654296875">
        <ele>458</ele>
        <time>2019-11-01T08:34:14.000Z</time>
      </trkpt>
      <trkpt lat="37.07044810988008975982666015625" lon="-4.51491323299705982208251953125">
        <ele>458</ele>
        <time>2019-11-01T08:34:18.000Z</time>
      </trkpt>
      <trkpt lat="37.07044400274753570556640625" lon="-4.5151674561202526092529296875">
        <ele>458.600006103515625</ele>
        <time>2019-11-01T08:34:22.000Z</time>
      </trkpt>
      <trkpt lat="37.0704253949224948883056640625" lon="-4.51537641696631908416748046875">
        <ele>459</ele>
        <time>2019-11-01T08:34:25.000Z</time>
      </trkpt>
      <trkpt lat="37.07043117843568325042724609375" lon="-4.5156224258244037628173828125">
        <ele>458.79998779296875</ele>
        <time>2019-11-01T08:34:28.000Z</time>
      </trkpt>
      <trkpt lat="37.0704411529004573822021484375" lon="-4.51588737778365612030029296875">
        <ele>458</ele>
        <time>2019-11-01T08:34:32.000Z</time>
      </trkpt>
      <trkpt lat="37.07046051509678363800048828125" lon="-4.51606993563473224639892578125">
        <ele>458</ele>
        <time>2019-11-01T08:34:35.000Z</time>
      </trkpt>
      <trkpt lat="37.0704780332744121551513671875" lon="-4.51629641465842723846435546875">
        <ele>456.79998779296875</ele>
        <time>2019-11-01T08:34:39.000Z</time>
      </trkpt>
      <trkpt lat="37.07049622200429439544677734375" lon="-4.516550637781620025634765625">
        <ele>455.399993896484375</ele>
        <time>2019-11-01T08:34:44.000Z</time>
      </trkpt>
      <trkpt lat="37.07049756310880184173583984375" lon="-4.51660419814288616180419921875">
        <ele>455</ele>
        <time>2019-11-01T08:34:45.000Z</time>
      </trkpt>
      <trkpt lat="37.07049303688108921051025390625" lon="-4.5168585889041423797607421875">
        <ele>452.79998779296875</ele>
        <time>2019-11-01T08:34:49.000Z</time>
      </trkpt>
      <trkpt lat="37.0704914443194866180419921875" lon="-4.51709210872650146484375">
        <ele>452.20001220703125</ele>
        <time>2019-11-01T08:34:52.000Z</time>
      </trkpt>
      <trkpt lat="37.0704996585845947265625" lon="-4.51733459718525409698486328125">
        <ele>452.600006103515625</ele>
        <time>2019-11-01T08:34:55.000Z</time>
      </trkpt>
      <trkpt lat="37.07051105797290802001953125" lon="-4.5175676979124546051025390625">
        <ele>453.399993896484375</ele>
        <time>2019-11-01T08:34:58.000Z</time>
      </trkpt>
      <trkpt lat="37.07052187062799930572509765625" lon="-4.51784019358456134796142578125">
        <ele>453.79998779296875</ele>
        <time>2019-11-01T08:35:02.000Z</time>
      </trkpt>
      <trkpt lat="37.07053930498659610748291015625" lon="-4.5180952548980712890625">
        <ele>452.600006103515625</ele>
        <time>2019-11-01T08:35:06.000Z</time>
      </trkpt>
      <trkpt lat="37.0705430768430233001708984375" lon="-4.5181524194777011871337890625">
        <ele>452.20001220703125</ele>
        <time>2019-11-01T08:35:07.000Z</time>
      </trkpt>
      <trkpt lat="37.07055925391614437103271484375" lon="-4.51840982772409915924072265625">
        <ele>451.20001220703125</ele>
        <time>2019-11-01T08:35:12.000Z</time>
      </trkpt>
      <trkpt lat="37.07058641128242015838623046875" lon="-4.5186875201761722564697265625">
        <ele>451.79998779296875</ele>
        <time>2019-11-01T08:35:17.000Z</time>
      </trkpt>
      <trkpt lat="37.0706082880496978759765625" lon="-4.51895959675312042236328125">
        <ele>452.399993896484375</ele>
        <time>2019-11-01T08:35:22.000Z</time>
      </trkpt>
      <trkpt lat="37.070620693266391754150390625" lon="-4.5192058570683002471923828125">
        <ele>452</ele>
        <time>2019-11-01T08:35:26.000Z</time>
      </trkpt>
      <trkpt lat="37.0706485211849212646484375" lon="-4.51939604245126247406005859375">
        <ele>451.20001220703125</ele>
        <time>2019-11-01T08:35:30.000Z</time>
      </trkpt>
      <trkpt lat="37.07065396942198276519775390625" lon="-4.51965101994574069976806640625">
        <ele>450.20001220703125</ele>
        <time>2019-11-01T08:35:35.000Z</time>
      </trkpt>
      <trkpt lat="37.070665620267391204833984375" lon="-4.5199193246662616729736328125">
        <ele>449.399993896484375</ele>
        <time>2019-11-01T08:35:40.000Z</time>
      </trkpt>
      <trkpt lat="37.0706798695027828216552734375" lon="-4.5201436243951320648193359375">
        <ele>449.399993896484375</ele>
        <time>2019-11-01T08:35:44.000Z</time>
      </trkpt>
      <trkpt lat="37.070679701864719390869140625" lon="-4.5203722827136516571044921875">
        <ele>450.399993896484375</ele>
        <time>2019-11-01T08:35:48.000Z</time>
      </trkpt>
      <trkpt lat="37.07067760638892650604248046875" lon="-4.5206071436405181884765625">
        <ele>451</ele>
        <time>2019-11-01T08:35:52.000Z</time>
      </trkpt>
      <trkpt lat="37.07067090086638927459716796875" lon="-4.52084208838641643524169921875">
        <ele>451.79998779296875</ele>
        <time>2019-11-01T08:35:56.000Z</time>
      </trkpt>
      <trkpt lat="37.0706651173532009124755859375" lon="-4.5210813917219638824462890625">
        <ele>451.20001220703125</ele>
        <time>2019-11-01T08:36:00.000Z</time>
      </trkpt>
      <trkpt lat="37.07065195776522159576416015625" lon="-4.52132153324782848358154296875">
        <ele>450.20001220703125</ele>
        <time>2019-11-01T08:36:04.000Z</time>
      </trkpt>
      <trkpt lat="37.07065547816455364227294921875" lon="-4.52155270613729953765869140625">
        <ele>449</ele>
        <time>2019-11-01T08:36:08.000Z</time>
      </trkpt>
      <trkpt lat="37.0706473477184772491455078125" lon="-4.5218029059469699859619140625">
        <ele>448.399993896484375</ele>
        <time>2019-11-01T08:36:12.000Z</time>
      </trkpt>
      <trkpt lat="37.0706325955688953399658203125" lon="-4.5219987072050571441650390625">
        <ele>449.20001220703125</ele>
        <time>2019-11-01T08:36:15.000Z</time>
      </trkpt>
      <trkpt lat="37.0705169253051280975341796875" lon="-4.52220146544277667999267578125">
        <ele>450</ele>
        <time>2019-11-01T08:36:19.000Z</time>
      </trkpt>
      <trkpt lat="37.0703338645398616790771484375" lon="-4.522290565073490142822265625">
        <ele>449.79998779296875</ele>
        <time>2019-11-01T08:36:23.000Z</time>
      </trkpt>
      <trkpt lat="37.07013261504471302032470703125" lon="-4.522335827350616455078125">
        <ele>449.20001220703125</ele>
        <time>2019-11-01T08:36:27.000Z</time>
      </trkpt>
      <trkpt lat="37.06991233862936496734619140625" lon="-4.522362649440765380859375">
        <ele>449</ele>
        <time>2019-11-01T08:36:31.000Z</time>
      </trkpt>
      <trkpt lat="37.06975140608847141265869140625" lon="-4.52237865887582302093505859375">
        <ele>448.600006103515625</ele>
        <time>2019-11-01T08:36:34.000Z</time>
      </trkpt>
      <trkpt lat="37.06965970806777477264404296875" lon="-4.52254177071154117584228515625">
        <ele>448.20001220703125</ele>
        <time>2019-11-01T08:36:39.000Z</time>
      </trkpt>
      <trkpt lat="37.06978325732052326202392578125" lon="-4.52260312624275684356689453125">
        <ele>448.600006103515625</ele>
        <time>2019-11-01T08:36:43.000Z</time>
      </trkpt>
      <trkpt lat="37.06985265947878360748291015625" lon="-4.52261134050786495208740234375">
        <ele>448.79998779296875</ele>
        <time>2019-11-01T08:36:45.000Z</time>
      </trkpt>
      <trkpt lat="37.0698218978941440582275390625" lon="-4.52264763414859771728515625">
        <ele>448.79998779296875</ele>
        <time>2019-11-01T08:36:52.000Z</time>
      </trkpt>
      <trkpt lat="37.06961863674223423004150390625" lon="-4.522593319416046142578125">
        <ele>448</ele>
        <time>2019-11-01T08:36:58.000Z</time>
      </trkpt>
      <trkpt lat="37.06940791569650173187255859375" lon="-4.5225726999342441558837890625">
        <ele>447.20001220703125</ele>
        <time>2019-11-01T08:37:03.000Z</time>
      </trkpt>
      <trkpt lat="37.0692177303135395050048828125" lon="-4.52256381511688232421875">
        <ele>446.79998779296875</ele>
        <time>2019-11-01T08:37:07.000Z</time>
      </trkpt>
      <trkpt lat="37.06902368925511837005615234375" lon="-4.5226035453379154205322265625">
        <ele>446.79998779296875</ele>
        <time>2019-11-01T08:37:11.000Z</time>
      </trkpt>
      <trkpt lat="37.06880089826881885528564453125" lon="-4.52265224419534206390380859375">
        <ele>447.399993896484375</ele>
        <time>2019-11-01T08:37:15.000Z</time>
      </trkpt>
      <trkpt lat="37.0685874111950397491455078125" lon="-4.52267068438231945037841796875">
        <ele>448.600006103515625</ele>
        <time>2019-11-01T08:37:19.000Z</time>
      </trkpt>
      <trkpt lat="37.068388424813747406005859375" lon="-4.5226893760263919830322265625">
        <ele>449</ele>
        <time>2019-11-01T08:37:23.000Z</time>
      </trkpt>
      <trkpt lat="37.068197317421436309814453125" lon="-4.5227017812430858612060546875">
        <ele>449</ele>
        <time>2019-11-01T08:37:27.000Z</time>
      </trkpt>
      <trkpt lat="37.06811039708554744720458984375" lon="-4.5227180421352386474609375">
        <ele>448.600006103515625</ele>
        <time>2019-11-01T08:37:29.000Z</time>
      </trkpt>
      <trkpt lat="37.0679260790348052978515625" lon="-4.522727094590663909912109375">
        <ele>447.79998779296875</ele>
        <time>2019-11-01T08:37:33.000Z</time>
      </trkpt>
      <trkpt lat="37.06772767938673496246337890625" lon="-4.52275433577597141265869140625">
        <ele>446.399993896484375</ele>
        <time>2019-11-01T08:37:37.000Z</time>
      </trkpt>
      <trkpt lat="37.067519389092922210693359375" lon="-4.52276204712688922882080078125">
        <ele>445</ele>
        <time>2019-11-01T08:37:41.000Z</time>
      </trkpt>
      <trkpt lat="37.06731562502682209014892578125" lon="-4.52276389114558696746826171875">
        <ele>443.79998779296875</ele>
        <time>2019-11-01T08:37:45.000Z</time>
      </trkpt>
      <trkpt lat="37.0671199075877666473388671875" lon="-4.5227728597819805145263671875">
        <ele>443</ele>
        <time>2019-11-01T08:37:49.000Z</time>
      </trkpt>
      <trkpt lat="37.06702175550162792205810546875" lon="-4.5227799005806446075439453125">
        <ele>443.20001220703125</ele>
        <time>2019-11-01T08:37:51.000Z</time>
      </trkpt>
      <trkpt lat="37.0668754912912845611572265625" lon="-4.52280160970985889434814453125">
        <ele>443.79998779296875</ele>
        <time>2019-11-01T08:37:54.000Z</time>
      </trkpt>
      <trkpt lat="37.0666868984699249267578125" lon="-4.5228050462901592254638671875">
        <ele>444</ele>
        <time>2019-11-01T08:37:58.000Z</time>
      </trkpt>
      <trkpt lat="37.06650509499013423919677734375" lon="-4.52279875986278057098388671875">
        <ele>444</ele>
        <time>2019-11-01T08:38:02.000Z</time>
      </trkpt>
      <trkpt lat="37.0664587430655956268310546875" lon="-4.52280177734792232513427734375">
        <ele>444</ele>
        <time>2019-11-01T08:38:03.000Z</time>
      </trkpt>
      <trkpt lat="37.06630610860884189605712890625" lon="-4.5229150168597698211669921875">
        <ele>443.600006103515625</ele>
        <time>2019-11-01T08:38:07.000Z</time>
      </trkpt>
      <trkpt lat="37.0662535540759563446044921875" lon="-4.52310570515692234039306640625">
        <ele>442.79998779296875</ele>
        <time>2019-11-01T08:38:10.000Z</time>
      </trkpt>
      <trkpt lat="37.06620586104691028594970703125" lon="-4.5233698189258575439453125">
        <ele>442.600006103515625</ele>
        <time>2019-11-01T08:38:14.000Z</time>
      </trkpt>
      <trkpt lat="37.06616730429232120513916015625" lon="-4.52363544143736362457275390625">
        <ele>442.399993896484375</ele>
        <time>2019-11-01T08:38:18.000Z</time>
      </trkpt>
      <trkpt lat="37.06612832844257354736328125" lon="-4.52389829792082309722900390625">
        <ele>442.600006103515625</ele>
        <time>2019-11-01T08:38:22.000Z</time>
      </trkpt>
      <trkpt lat="37.06608851440250873565673828125" lon="-4.52415662817656993865966796875">
        <ele>443</ele>
        <time>2019-11-01T08:38:26.000Z</time>
      </trkpt>
      <trkpt lat="37.066050879657268524169921875" lon="-4.52441596426069736480712890625">
        <ele>443</ele>
        <time>2019-11-01T08:38:30.000Z</time>
      </trkpt>
      <trkpt lat="37.0660094730556011199951171875" lon="-4.52467496506869792938232421875">
        <ele>443</ele>
        <time>2019-11-01T08:38:34.000Z</time>
      </trkpt>
      <trkpt lat="37.06596999429166316986083984375" lon="-4.5249350555241107940673828125">
        <ele>444.399993896484375</ele>
        <time>2019-11-01T08:38:38.000Z</time>
      </trkpt>
      <trkpt lat="37.065932862460613250732421875" lon="-4.52518860809504985809326171875">
        <ele>444.600006103515625</ele>
        <time>2019-11-01T08:38:42.000Z</time>
      </trkpt>
      <trkpt lat="37.06589908339083194732666015625" lon="-4.525437466800212860107421875">
        <ele>444</ele>
        <time>2019-11-01T08:38:46.000Z</time>
      </trkpt>
      <trkpt lat="37.06586203537881374359130859375" lon="-4.52568062581121921539306640625">
        <ele>443.20001220703125</ele>
        <time>2019-11-01T08:38:50.000Z</time>
      </trkpt>
      <trkpt lat="37.0658277533948421478271484375" lon="-4.5259217731654644012451171875">
        <ele>442.20001220703125</ele>
        <time>2019-11-01T08:38:54.000Z</time>
      </trkpt>
      <trkpt lat="37.06578793935477733612060546875" lon="-4.52615328133106231689453125">
        <ele>441.399993896484375</ele>
        <time>2019-11-01T08:38:58.000Z</time>
      </trkpt>
      <trkpt lat="37.06576866097748279571533203125" lon="-4.526311866939067840576171875">
        <ele>441.79998779296875</ele>
        <time>2019-11-01T08:39:01.000Z</time>
      </trkpt>
      <trkpt lat="37.0655979216098785400390625" lon="-4.5263559557497501373291015625">
        <ele>440.600006103515625</ele>
        <time>2019-11-01T08:39:06.000Z</time>
      </trkpt>
      <trkpt lat="37.06555701792240142822265625" lon="-4.5263308100402355194091796875">
        <ele>440</ele>
        <time>2019-11-01T08:39:07.000Z</time>
      </trkpt>
      <trkpt lat="37.0653979294002056121826171875" lon="-4.526222683489322662353515625">
        <ele>439.20001220703125</ele>
        <time>2019-11-01T08:39:11.000Z</time>
      </trkpt>
      <trkpt lat="37.065240852534770965576171875" lon="-4.52610642649233341217041015625">
        <ele>440.399993896484375</ele>
        <time>2019-11-01T08:39:15.000Z</time>
      </trkpt>
      <trkpt lat="37.0650861226022243499755859375" lon="-4.52598941512405872344970703125">
        <ele>442</ele>
        <time>2019-11-01T08:39:19.000Z</time>
      </trkpt>
      <trkpt lat="37.0649295486509799957275390625" lon="-4.52586284838616847991943359375">
        <ele>442.79998779296875</ele>
        <time>2019-11-01T08:39:23.000Z</time>
      </trkpt>
      <trkpt lat="37.0647521875798702239990234375" lon="-4.5257061906158924102783203125">
        <ele>444</ele>
        <time>2019-11-01T08:39:28.000Z</time>
      </trkpt>
      <trkpt lat="37.06469493918120861053466796875" lon="-4.52564139850437641143798828125">
        <ele>444</ele>
        <time>2019-11-01T08:39:30.000Z</time>
      </trkpt>
      <trkpt lat="37.06453585065901279449462890625" lon="-4.525517933070659637451171875">
        <ele>443.399993896484375</ele>
        <time>2019-11-01T08:39:35.000Z</time>
      </trkpt>
      <trkpt lat="37.06443610601127147674560546875" lon="-4.52544392086565494537353515625">
        <ele>442.600006103515625</ele>
        <time>2019-11-01T08:39:38.000Z</time>
      </trkpt>
      <trkpt lat="37.06437148153781890869140625" lon="-4.5253953896462917327880859375">
        <ele>442.399993896484375</ele>
        <time>2019-11-01T08:39:40.000Z</time>
      </trkpt>
      <trkpt lat="37.06423393450677394866943359375" lon="-4.525361359119415283203125">
        <ele>441.600006103515625</ele>
        <time>2019-11-01T08:39:44.000Z</time>
      </trkpt>
      <trkpt lat="37.06420325674116611480712890625" lon="-4.52536881901323795318603515625">
        <ele>441.600006103515625</ele>
        <time>2019-11-01T08:39:45.000Z</time>
      </trkpt>
      <trkpt lat="37.064072750508785247802734375" lon="-4.5255070365965366363525390625">
        <ele>441</ele>
        <time>2019-11-01T08:39:49.000Z</time>
      </trkpt>
      <trkpt lat="37.0640397258102893829345703125" lon="-4.52565564773976802825927734375">
        <ele>441</ele>
        <time>2019-11-01T08:39:52.000Z</time>
      </trkpt>
      <trkpt lat="37.06403260119259357452392578125" lon="-4.5258111320436000823974609375">
        <ele>441</ele>
        <time>2019-11-01T08:39:54.000Z</time>
      </trkpt>
      <trkpt lat="37.06409563310444355010986328125" lon="-4.52602093107998371124267578125">
        <ele>441.399993896484375</ele>
        <time>2019-11-01T08:39:58.000Z</time>
      </trkpt>
      <trkpt lat="37.0640809647738933563232421875" lon="-4.52624942176043987274169921875">
        <ele>441.20001220703125</ele>
        <time>2019-11-01T08:40:07.000Z</time>
      </trkpt>
      <trkpt lat="37.06405472941696643829345703125" lon="-4.52647925354540348052978515625">
        <ele>441</ele>
        <time>2019-11-01T08:40:16.000Z</time>
      </trkpt>
      <trkpt lat="37.06405556760728359222412109375" lon="-4.52648185193538665771484375">
        <ele>441</ele>
        <time>2019-11-01T08:40:17.000Z</time>
      </trkpt>
      <trkpt lat="37.064053304493427276611328125" lon="-4.52647321857511997222900390625">
        <ele>441</ele>
        <time>2019-11-01T08:40:21.000Z</time>
      </trkpt>
      <trkpt lat="37.06416453234851360321044921875" lon="-4.52664404176175594329833984375">
        <ele>441.600006103515625</ele>
        <time>2019-11-01T08:43:38.000Z</time>
      </trkpt>
      <trkpt lat="37.06433485262095928192138671875" lon="-4.526763148605823516845703125">
        <ele>442.399993896484375</ele>
        <time>2019-11-01T08:43:44.000Z</time>
      </trkpt>
      <trkpt lat="37.0645077712833881378173828125" lon="-4.5269014500081539154052734375">
        <ele>443</ele>
        <time>2019-11-01T08:43:49.000Z</time>
      </trkpt>
      <trkpt lat="37.06466250121593475341796875" lon="-4.5270248316228389739990234375">
        <ele>442.600006103515625</ele>
        <time>2019-11-01T08:43:53.000Z</time>
      </trkpt>
      <trkpt lat="37.06482536159455776214599609375" lon="-4.5271529071033000946044921875">
        <ele>442</ele>
        <time>2019-11-01T08:43:57.000Z</time>
      </trkpt>
      <trkpt lat="37.064997442066669464111328125" lon="-4.527272097766399383544921875">
        <ele>442</ele>
        <time>2019-11-01T08:44:01.000Z</time>
      </trkpt>
      <trkpt lat="37.06516809761524200439453125" lon="-4.5273899473249912261962890625">
        <ele>441.399993896484375</ele>
        <time>2019-11-01T08:44:05.000Z</time>
      </trkpt>
      <trkpt lat="37.06534855999052524566650390625" lon="-4.52750016935169696807861328125">
        <ele>441</ele>
        <time>2019-11-01T08:44:09.000Z</time>
      </trkpt>
      <trkpt lat="37.065532207489013671875" lon="-4.52760427258908748626708984375">
        <ele>440.600006103515625</ele>
        <time>2019-11-01T08:44:13.000Z</time>
      </trkpt>
      <trkpt lat="37.0657167769968509674072265625" lon="-4.52770669944584369659423828125">
        <ele>440.20001220703125</ele>
        <time>2019-11-01T08:44:17.000Z</time>
      </trkpt>
      <trkpt lat="37.0658921264111995697021484375" lon="-4.52781415544450283050537109375">
        <ele>440.600006103515625</ele>
        <time>2019-11-01T08:44:21.000Z</time>
      </trkpt>
      <trkpt lat="37.06606797873973846435546875" lon="-4.527920521795749664306640625">
        <ele>441.20001220703125</ele>
        <time>2019-11-01T08:44:25.000Z</time>
      </trkpt>
      <trkpt lat="37.06624341197311878204345703125" lon="-4.52802487649023532867431640625">
        <ele>442.600006103515625</ele>
        <time>2019-11-01T08:44:29.000Z</time>
      </trkpt>
      <trkpt lat="37.06641557626426219940185546875" lon="-4.52812738716602325439453125">
        <ele>443.600006103515625</ele>
        <time>2019-11-01T08:44:33.000Z</time>
      </trkpt>
      <trkpt lat="37.06658489070832729339599609375" lon="-4.52822822146117687225341796875">
        <ele>444.20001220703125</ele>
        <time>2019-11-01T08:44:37.000Z</time>
      </trkpt>
      <trkpt lat="37.06674833782017230987548828125" lon="-4.52833416871726512908935546875">
        <ele>444</ele>
        <time>2019-11-01T08:44:41.000Z</time>
      </trkpt>
      <trkpt lat="37.06691823899745941162109375" lon="-4.52843357808887958526611328125">
        <ele>444</ele>
        <time>2019-11-01T08:44:45.000Z</time>
      </trkpt>
      <trkpt lat="37.06708579324185848236083984375" lon="-4.5285302214324474334716796875">
        <ele>444</ele>
        <time>2019-11-01T08:44:49.000Z</time>
      </trkpt>
      <trkpt lat="37.067287378013134002685546875" lon="-4.528653435409069061279296875">
        <ele>442.600006103515625</ele>
        <time>2019-11-01T08:44:54.000Z</time>
      </trkpt>
      <trkpt lat="37.0674558542668819427490234375" lon="-4.52876416034996509552001953125">
        <ele>442.20001220703125</ele>
        <time>2019-11-01T08:44:58.000Z</time>
      </trkpt>
      <trkpt lat="37.0676348917186260223388671875" lon="-4.52886424027383327484130859375">
        <ele>443</ele>
        <time>2019-11-01T08:45:02.000Z</time>
      </trkpt>
      <trkpt lat="37.06779054366052150726318359375" lon="-4.52899776399135589599609375">
        <ele>444</ele>
        <time>2019-11-01T08:45:06.000Z</time>
      </trkpt>
      <trkpt lat="37.06794460304081439971923828125" lon="-4.5291508175432682037353515625">
        <ele>445</ele>
        <time>2019-11-01T08:45:10.000Z</time>
      </trkpt>
      <trkpt lat="37.06809430383145809173583984375" lon="-4.52931317500770092010498046875">
        <ele>445.600006103515625</ele>
        <time>2019-11-01T08:45:14.000Z</time>
      </trkpt>
      <trkpt lat="37.06822204403579235076904296875" lon="-4.52949531376361846923828125">
        <ele>444.79998779296875</ele>
        <time>2019-11-01T08:45:18.000Z</time>
      </trkpt>
      <trkpt lat="37.06832715310156345367431640625" lon="-4.5296966470777988433837890625">
        <ele>443.600006103515625</ele>
        <time>2019-11-01T08:45:22.000Z</time>
      </trkpt>
      <trkpt lat="37.06842103041708469390869140625" lon="-4.52990661375224590301513671875">
        <ele>442.79998779296875</ele>
        <time>2019-11-01T08:45:26.000Z</time>
      </trkpt>
      <trkpt lat="37.0685173384845256805419921875" lon="-4.53010828234255313873291015625">
        <ele>441.79998779296875</ele>
        <time>2019-11-01T08:45:30.000Z</time>
      </trkpt>
      <trkpt lat="37.06861674785614013671875" lon="-4.5303058438003063201904296875">
        <ele>441.399993896484375</ele>
        <time>2019-11-01T08:45:34.000Z</time>
      </trkpt>
      <trkpt lat="37.0687342621386051177978515625" lon="-4.53054405748844146728515625">
        <ele>441.79998779296875</ele>
        <time>2019-11-01T08:45:39.000Z</time>
      </trkpt>
      <trkpt lat="37.0688353478908538818359375" lon="-4.5307467319071292877197265625">
        <ele>442.20001220703125</ele>
        <time>2019-11-01T08:45:43.000Z</time>
      </trkpt>
      <trkpt lat="37.068944983184337615966796875" lon="-4.5309631526470184326171875">
        <ele>442.600006103515625</ele>
        <time>2019-11-01T08:45:47.000Z</time>
      </trkpt>
      <trkpt lat="37.06906341947615146636962890625" lon="-4.53118770383298397064208984375">
        <ele>442.79998779296875</ele>
        <time>2019-11-01T08:45:51.000Z</time>
      </trkpt>
      <trkpt lat="37.069182693958282470703125" lon="-4.53141300939023494720458984375">
        <ele>442.399993896484375</ele>
        <time>2019-11-01T08:45:55.000Z</time>
      </trkpt>
      <trkpt lat="37.0692901499569416046142578125" lon="-4.5316338725388050079345703125">
        <ele>441.20001220703125</ele>
        <time>2019-11-01T08:45:59.000Z</time>
      </trkpt>
      <trkpt lat="37.0693903975188732147216796875" lon="-4.53184903599321842193603515625">
        <ele>440</ele>
        <time>2019-11-01T08:46:03.000Z</time>
      </trkpt>
      <trkpt lat="37.06948586739599704742431640625" lon="-4.53206830658018589019775390625">
        <ele>440.20001220703125</ele>
        <time>2019-11-01T08:46:07.000Z</time>
      </trkpt>
      <trkpt lat="37.06958745606243610382080078125" lon="-4.5322910137474536895751953125">
        <ele>440</ele>
        <time>2019-11-01T08:46:11.000Z</time>
      </trkpt>
      <trkpt lat="37.06970144994556903839111328125" lon="-4.5325273834168910980224609375">
        <ele>440.399993896484375</ele>
        <time>2019-11-01T08:46:15.000Z</time>
      </trkpt>
      <trkpt lat="37.06981007941067218780517578125" lon="-4.53277557156980037689208984375">
        <ele>442</ele>
        <time>2019-11-01T08:46:19.000Z</time>
      </trkpt>
      <trkpt lat="37.06991233862936496734619140625" lon="-4.53304094262421131134033203125">
        <ele>444.79998779296875</ele>
        <time>2019-11-01T08:46:23.000Z</time>
      </trkpt>
      <trkpt lat="37.070001102983951568603515625" lon="-4.53330136835575103759765625">
        <ele>445.20001220703125</ele>
        <time>2019-11-01T08:46:27.000Z</time>
      </trkpt>
      <trkpt lat="37.0700596086680889129638671875" lon="-4.5335680805146694183349609375">
        <ele>445.600006103515625</ele>
        <time>2019-11-01T08:46:31.000Z</time>
      </trkpt>
      <trkpt lat="37.07008819095790386199951171875" lon="-4.53380428254604339599609375">
        <ele>445.79998779296875</ele>
        <time>2019-11-01T08:46:35.000Z</time>
      </trkpt>
      <trkpt lat="37.070094980299472808837890625" lon="-4.53405347652733325958251953125">
        <ele>446</ele>
        <time>2019-11-01T08:46:39.000Z</time>
      </trkpt>
      <trkpt lat="37.0700901187956333160400390625" lon="-4.53429252840578556060791015625">
        <ele>446</ele>
        <time>2019-11-01T08:46:43.000Z</time>
      </trkpt>
      <trkpt lat="37.07007461227476596832275390625" lon="-4.534572064876556396484375">
        <ele>446.399993896484375</ele>
        <time>2019-11-01T08:46:48.000Z</time>
      </trkpt>
      <trkpt lat="37.0700683258473873138427734375" lon="-4.53480876982212066650390625">
        <ele>446.399993896484375</ele>
        <time>2019-11-01T08:46:52.000Z</time>
      </trkpt>
      <trkpt lat="37.0700575970113277435302734375" lon="-4.53507003374397754669189453125">
        <ele>447.20001220703125</ele>
        <time>2019-11-01T08:46:57.000Z</time>
      </trkpt>
      <trkpt lat="37.07004443742334842681884765625" lon="-4.53530657105147838592529296875">
        <ele>448.79998779296875</ele>
        <time>2019-11-01T08:47:02.000Z</time>
      </trkpt>
      <trkpt lat="37.07003756426274776458740234375" lon="-4.53553296625614166259765625">
        <ele>449.79998779296875</ele>
        <time>2019-11-01T08:47:07.000Z</time>
      </trkpt>
      <trkpt lat="37.07004745490849018096923828125" lon="-4.5357669889926910400390625">
        <ele>450.399993896484375</ele>
        <time>2019-11-01T08:47:13.000Z</time>
      </trkpt>
      <trkpt lat="37.07005097530782222747802734375" lon="-4.53580655157566070556640625">
        <ele>450.399993896484375</ele>
        <time>2019-11-01T08:47:14.000Z</time>
      </trkpt>
      <trkpt lat="37.07005868665874004364013671875" lon="-4.53604652546346187591552734375">
        <ele>450.600006103515625</ele>
        <time>2019-11-01T08:47:20.000Z</time>
      </trkpt>
      <trkpt lat="37.0700572617352008819580078125" lon="-4.53631122596561908721923828125">
        <ele>450.399993896484375</ele>
        <time>2019-11-01T08:47:26.000Z</time>
      </trkpt>
      <trkpt lat="37.0700559206306934356689453125" lon="-4.53655748628079891204833984375">
        <ele>450.20001220703125</ele>
        <time>2019-11-01T08:47:32.000Z</time>
      </trkpt>
      <trkpt lat="37.07005667500197887420654296875" lon="-4.5367947779595851898193359375">
        <ele>451.399993896484375</ele>
        <time>2019-11-01T08:47:38.000Z</time>
      </trkpt>
      <trkpt lat="37.07004678435623645782470703125" lon="-4.53703374601900577545166015625">
        <ele>451.600006103515625</ele>
        <time>2019-11-01T08:47:44.000Z</time>
      </trkpt>
      <trkpt lat="37.07003404386341571807861328125" lon="-4.5372665114700794219970703125">
        <ele>452.600006103515625</ele>
        <time>2019-11-01T08:47:50.000Z</time>
      </trkpt>
      <trkpt lat="37.07002381794154644012451171875" lon="-4.53751109540462493896484375">
        <ele>454</ele>
        <time>2019-11-01T08:47:56.000Z</time>
      </trkpt>
      <trkpt lat="37.07000973634421825408935546875" lon="-4.5377526618540287017822265625">
        <ele>455.20001220703125</ele>
        <time>2019-11-01T08:48:02.000Z</time>
      </trkpt>
      <trkpt lat="37.069988362491130828857421875" lon="-4.538001604378223419189453125">
        <ele>455.79998779296875</ele>
        <time>2019-11-01T08:48:08.000Z</time>
      </trkpt>
      <trkpt lat="37.06996522843837738037109375" lon="-4.5382307656109333038330078125">
        <ele>456</ele>
        <time>2019-11-01T08:48:13.000Z</time>
      </trkpt>
      <trkpt lat="37.06993765197694301605224609375" lon="-4.5384580828249454498291015625">
        <ele>455.20001220703125</ele>
        <time>2019-11-01T08:48:18.000Z</time>
      </trkpt>
      <trkpt lat="37.0699177868664264678955078125" lon="-4.5387155748903751373291015625">
        <ele>453.20001220703125</ele>
        <time>2019-11-01T08:48:23.000Z</time>
      </trkpt>
      <trkpt lat="37.0699323713779449462890625" lon="-4.538995362818241119384765625">
        <ele>451.20001220703125</ele>
        <time>2019-11-01T08:48:28.000Z</time>
      </trkpt>
      <trkpt lat="37.06996195949614048004150390625" lon="-4.53924623318016529083251953125">
        <ele>450.399993896484375</ele>
        <time>2019-11-01T08:48:32.000Z</time>
      </trkpt>
      <trkpt lat="37.06999716348946094512939453125" lon="-4.539519064128398895263671875">
        <ele>449.79998779296875</ele>
        <time>2019-11-01T08:48:36.000Z</time>
      </trkpt>
      <trkpt lat="37.0700321160256862640380859375" lon="-4.5398112572729587554931640625">
        <ele>449.20001220703125</ele>
        <time>2019-11-01T08:48:40.000Z</time>
      </trkpt>
      <trkpt lat="37.07005332224071025848388671875" lon="-4.540046788752079010009765625">
        <ele>449.20001220703125</ele>
        <time>2019-11-01T08:48:43.000Z</time>
      </trkpt>
      <trkpt lat="37.0700803957879543304443359375" lon="-4.54029522836208343505859375">
        <ele>448.399993896484375</ele>
        <time>2019-11-01T08:48:46.000Z</time>
      </trkpt>
      <trkpt lat="37.0701072178781032562255859375" lon="-4.54054961912333965301513671875">
        <ele>448.399993896484375</ele>
        <time>2019-11-01T08:48:49.000Z</time>
      </trkpt>
      <trkpt lat="37.070139907300472259521484375" lon="-4.54081482253968715667724609375">
        <ele>447</ele>
        <time>2019-11-01T08:48:52.000Z</time>
      </trkpt>
      <trkpt lat="37.07017444074153900146484375" lon="-4.5410802774131298065185546875">
        <ele>446.399993896484375</ele>
        <time>2019-11-01T08:48:55.000Z</time>
      </trkpt>
      <trkpt lat="37.0702114887535572052001953125" lon="-4.54135629348456859588623046875">
        <ele>445.79998779296875</ele>
        <time>2019-11-01T08:48:58.000Z</time>
      </trkpt>
      <trkpt lat="37.07025415264070034027099609375" lon="-4.54162987880408763885498046875">
        <ele>446.399993896484375</ele>
        <time>2019-11-01T08:49:01.000Z</time>
      </trkpt>
      <trkpt lat="37.070292793214321136474609375" lon="-4.54189944081008434295654296875">
        <ele>446</ele>
        <time>2019-11-01T08:49:04.000Z</time>
      </trkpt>
      <trkpt lat="37.0703392289578914642333984375" lon="-4.54216112382709980010986328125">
        <ele>444.600006103515625</ele>
        <time>2019-11-01T08:49:07.000Z</time>
      </trkpt>
      <trkpt lat="37.07038591615855693817138671875" lon="-4.54242113046348094940185546875">
        <ele>442.600006103515625</ele>
        <time>2019-11-01T08:49:10.000Z</time>
      </trkpt>
      <trkpt lat="37.070424892008304595947265625" lon="-4.542678035795688629150390625">
        <ele>442</ele>
        <time>2019-11-01T08:49:13.000Z</time>
      </trkpt>
      <trkpt lat="37.070464454591274261474609375" lon="-4.54293276183307170867919921875">
        <ele>442.399993896484375</ele>
        <time>2019-11-01T08:49:16.000Z</time>
      </trkpt>
      <trkpt lat="37.0705118961632251739501953125" lon="-4.54319276846945285797119140625">
        <ele>442.79998779296875</ele>
        <time>2019-11-01T08:49:19.000Z</time>
      </trkpt>
      <trkpt lat="37.07056310959160327911376953125" lon="-4.54344891943037509918212890625">
        <ele>443</ele>
        <time>2019-11-01T08:49:22.000Z</time>
      </trkpt>
      <trkpt lat="37.07063376903533935546875" lon="-4.54369115643203258514404296875">
        <ele>442.20001220703125</ele>
        <time>2019-11-01T08:49:25.000Z</time>
      </trkpt>
      <trkpt lat="37.07072027027606964111328125" lon="-4.5439157076179981231689453125">
        <ele>440</ele>
        <time>2019-11-01T08:49:28.000Z</time>
      </trkpt>
      <trkpt lat="37.0708049274981021881103515625" lon="-4.54412810504436492919921875">
        <ele>439.20001220703125</ele>
        <time>2019-11-01T08:49:31.000Z</time>
      </trkpt>
      <trkpt lat="37.07087852060794830322265625" lon="-4.5443364791572093963623046875">
        <ele>439.600006103515625</ele>
        <time>2019-11-01T08:49:34.000Z</time>
      </trkpt>
      <trkpt lat="37.070968039333820343017578125" lon="-4.5446137525141239166259765625">
        <ele>439.20001220703125</ele>
        <time>2019-11-01T08:49:38.000Z</time>
      </trkpt>
      <trkpt lat="37.071049511432647705078125" lon="-4.54489278607070446014404296875">
        <ele>439.399993896484375</ele>
        <time>2019-11-01T08:49:42.000Z</time>
      </trkpt>
      <trkpt lat="37.07113333046436309814453125" lon="-4.5451654493808746337890625">
        <ele>437.79998779296875</ele>
        <time>2019-11-01T08:49:46.000Z</time>
      </trkpt>
      <trkpt lat="37.07121756859123706817626953125" lon="-4.54544163309037685394287109375">
        <ele>436</ele>
        <time>2019-11-01T08:49:50.000Z</time>
      </trkpt>
      <trkpt lat="37.0712961070239543914794921875" lon="-4.54572259448468685150146484375">
        <ele>435</ele>
        <time>2019-11-01T08:49:54.000Z</time>
      </trkpt>
      <trkpt lat="37.07137816585600376129150390625" lon="-4.5459773205220699310302734375">
        <ele>435.399993896484375</ele>
        <time>2019-11-01T08:49:58.000Z</time>
      </trkpt>
      <trkpt lat="37.0714612305164337158203125" lon="-4.5462200604379177093505859375">
        <ele>435.600006103515625</ele>
        <time>2019-11-01T08:50:02.000Z</time>
      </trkpt>
      <trkpt lat="37.071548067033290863037109375" lon="-4.5464705117046833038330078125">
        <ele>436</ele>
        <time>2019-11-01T08:50:06.000Z</time>
      </trkpt>
      <trkpt lat="37.07162476144731044769287109375" lon="-4.5467206276953220367431640625">
        <ele>435.79998779296875</ele>
        <time>2019-11-01T08:50:10.000Z</time>
      </trkpt>
      <trkpt lat="37.07169399596750736236572265625" lon="-4.54696051776409149169921875">
        <ele>435.600006103515625</ele>
        <time>2019-11-01T08:50:14.000Z</time>
      </trkpt>
      <trkpt lat="37.07176390103995800018310546875" lon="-4.5471958816051483154296875">
        <ele>435</ele>
        <time>2019-11-01T08:50:18.000Z</time>
      </trkpt>
      <trkpt lat="37.07184151746332645416259765625" lon="-4.54744138754904270172119140625">
        <ele>434.20001220703125</ele>
        <time>2019-11-01T08:50:22.000Z</time>
      </trkpt>
      <trkpt lat="37.071918211877346038818359375" lon="-4.54769468866288661956787109375">
        <ele>433.399993896484375</ele>
        <time>2019-11-01T08:50:26.000Z</time>
      </trkpt>
      <trkpt lat="37.07199356518685817718505859375" lon="-4.54795419238507747650146484375">
        <ele>433.600006103515625</ele>
        <time>2019-11-01T08:50:30.000Z</time>
      </trkpt>
      <trkpt lat="37.07206682302057743072509765625" lon="-4.54821906052529811859130859375">
        <ele>433.79998779296875</ele>
        <time>2019-11-01T08:50:34.000Z</time>
      </trkpt>
      <trkpt lat="37.07214192487299442291259765625" lon="-4.5484751276671886444091796875">
        <ele>434.20001220703125</ele>
        <time>2019-11-01T08:50:38.000Z</time>
      </trkpt>
      <trkpt lat="37.072205878794193267822265625" lon="-4.5487383194267749786376953125">
        <ele>434.79998779296875</ele>
        <time>2019-11-01T08:50:42.000Z</time>
      </trkpt>
      <trkpt lat="37.072266228497028350830078125" lon="-4.54900193028151988983154296875">
        <ele>434.79998779296875</ele>
        <time>2019-11-01T08:50:46.000Z</time>
      </trkpt>
      <trkpt lat="37.07231828011572360992431640625" lon="-4.54927149228751659393310546875">
        <ele>435.20001220703125</ele>
        <time>2019-11-01T08:50:50.000Z</time>
      </trkpt>
      <trkpt lat="37.072374187409877777099609375" lon="-4.5495406351983547210693359375">
        <ele>435</ele>
        <time>2019-11-01T08:50:54.000Z</time>
      </trkpt>
      <trkpt lat="37.07242556847631931304931640625" lon="-4.549811370670795440673828125">
        <ele>435.20001220703125</ele>
        <time>2019-11-01T08:50:58.000Z</time>
      </trkpt>
      <trkpt lat="37.07246932201087474822998046875" lon="-4.5500777475535869598388671875">
        <ele>436</ele>
        <time>2019-11-01T08:51:02.000Z</time>
      </trkpt>
      <trkpt lat="37.072500251233577728271484375" lon="-4.55032308585941791534423828125">
        <ele>436.399993896484375</ele>
        <time>2019-11-01T08:51:06.000Z</time>
      </trkpt>
      <trkpt lat="37.072536461055278778076171875" lon="-4.55056272447109222412109375">
        <ele>435.600006103515625</ele>
        <time>2019-11-01T08:51:10.000Z</time>
      </trkpt>
      <trkpt lat="37.07256085239350795745849609375" lon="-4.55080487765371799468994140625">
        <ele>434.399993896484375</ele>
        <time>2019-11-01T08:51:14.000Z</time>
      </trkpt>
      <trkpt lat="37.07257392816245555877685546875" lon="-4.5510369725525379180908203125">
        <ele>433.399993896484375</ele>
        <time>2019-11-01T08:51:18.000Z</time>
      </trkpt>
      <trkpt lat="37.07258566282689571380615234375" lon="-4.55128180794417858123779296875">
        <ele>432.399993896484375</ele>
        <time>2019-11-01T08:51:23.000Z</time>
      </trkpt>
      <trkpt lat="37.0725835673511028289794921875" lon="-4.551533348858356475830078125">
        <ele>433.399993896484375</ele>
        <time>2019-11-01T08:51:29.000Z</time>
      </trkpt>
      <trkpt lat="37.07259119488298892974853515625" lon="-4.55169520340859889984130859375">
        <ele>434.20001220703125</ele>
        <time>2019-11-01T08:51:33.000Z</time>
      </trkpt>
      <trkpt lat="37.072591446340084075927734375" lon="-4.5517368614673614501953125">
        <ele>434.399993896484375</ele>
        <time>2019-11-01T08:51:34.000Z</time>
      </trkpt>
      <trkpt lat="37.07258868031203746795654296875" lon="-4.55200030468404293060302734375">
        <ele>436.79998779296875</ele>
        <time>2019-11-01T08:51:40.000Z</time>
      </trkpt>
      <trkpt lat="37.0725869201123714447021484375" lon="-4.55226634629070758819580078125">
        <ele>436.79998779296875</ele>
        <time>2019-11-01T08:51:46.000Z</time>
      </trkpt>
      <trkpt lat="37.07260879687964916229248046875" lon="-4.55243230797350406646728515625">
        <ele>436.20001220703125</ele>
        <time>2019-11-01T08:51:50.000Z</time>
      </trkpt>
      <trkpt lat="37.0727367885410785675048828125" lon="-4.55255837179720401763916015625">
        <ele>436.600006103515625</ele>
        <time>2019-11-01T08:51:56.000Z</time>
      </trkpt>
      <trkpt lat="37.07278749905526638031005859375" lon="-4.55254864878952503204345703125">
        <ele>437.20001220703125</ele>
        <time>2019-11-01T08:51:58.000Z</time>
      </trkpt>
      <trkpt lat="37.0729869045317173004150390625" lon="-4.55253188498318195343017578125">
        <ele>439.79998779296875</ele>
        <time>2019-11-01T08:52:05.000Z</time>
      </trkpt>
      <trkpt lat="37.073179520666599273681640625" lon="-4.55251378007233142852783203125">
        <ele>442.399993896484375</ele>
        <time>2019-11-01T08:52:11.000Z</time>
      </trkpt>
      <trkpt lat="37.073377668857574462890625" lon="-4.55251009203493595123291015625">
        <ele>444.20001220703125</ele>
        <time>2019-11-01T08:52:17.000Z</time>
      </trkpt>
      <trkpt lat="37.073399461805820465087890625" lon="-4.55252869985997676849365234375">
        <ele>444.20001220703125</ele>
        <time>2019-11-01T08:52:18.000Z</time>
      </trkpt>
      <trkpt lat="37.073433659970760345458984375" lon="-4.5526654087007045745849609375">
        <ele>444</ele>
        <time>2019-11-01T08:52:22.000Z</time>
      </trkpt>
      <trkpt lat="37.0734546147286891937255859375" lon="-4.55290186218917369842529296875">
        <ele>442.600006103515625</ele>
        <time>2019-11-01T08:52:28.000Z</time>
      </trkpt>
      <trkpt lat="37.07345285452902317047119140625" lon="-4.55314175225794315338134765625">
        <ele>440</ele>
        <time>2019-11-01T08:52:33.000Z</time>
      </trkpt>
      <trkpt lat="37.0734650082886219024658203125" lon="-4.55341097898781299591064453125">
        <ele>437.600006103515625</ele>
        <time>2019-11-01T08:52:37.000Z</time>
      </trkpt>
      <trkpt lat="37.07347582094371318817138671875" lon="-4.55366428010165691375732421875">
        <ele>436.79998779296875</ele>
        <time>2019-11-01T08:52:40.000Z</time>
      </trkpt>
      <trkpt lat="37.07348504103720188140869140625" lon="-4.5539153181016445159912109375">
        <ele>436</ele>
        <time>2019-11-01T08:52:43.000Z</time>
      </trkpt>
      <trkpt lat="37.07349610514938831329345703125" lon="-4.55415328033268451690673828125">
        <ele>436</ele>
        <time>2019-11-01T08:52:46.000Z</time>
      </trkpt>
      <trkpt lat="37.073469199240207672119140625" lon="-4.55440322868525981903076171875">
        <ele>434.20001220703125</ele>
        <time>2019-11-01T08:52:49.000Z</time>
      </trkpt>
      <trkpt lat="37.0733342505991458892822265625" lon="-4.55464915372431278228759765625">
        <ele>431</ele>
        <time>2019-11-01T08:52:52.000Z</time>
      </trkpt>
      <trkpt lat="37.07320290617644786834716796875" lon="-4.55492760054767131805419921875">
        <ele>427.600006103515625</ele>
        <time>2019-11-01T08:52:55.000Z</time>
      </trkpt>
      <trkpt lat="37.0732326619327068328857421875" lon="-4.55523706041276454925537109375">
        <ele>426.399993896484375</ele>
        <time>2019-11-01T08:52:58.000Z</time>
      </trkpt>
      <trkpt lat="37.07326794974505901336669921875" lon="-4.5555455982685089111328125">
        <ele>429</ele>
        <time>2019-11-01T08:53:01.000Z</time>
      </trkpt>
      <trkpt lat="37.0732889883220195770263671875" lon="-4.55583058297634124755859375">
        <ele>430</ele>
        <time>2019-11-01T08:53:04.000Z</time>
      </trkpt>
      <trkpt lat="37.07326836884021759033203125" lon="-4.55608807504177093505859375">
        <ele>430</ele>
        <time>2019-11-01T08:53:07.000Z</time>
      </trkpt>
      <trkpt lat="37.07323752343654632568359375" lon="-4.556327797472476959228515625">
        <ele>430</ele>
        <time>2019-11-01T08:53:10.000Z</time>
      </trkpt>
      <trkpt lat="37.07319997251033782958984375" lon="-4.55655016936361789703369140625">
        <ele>429.600006103515625</ele>
        <time>2019-11-01T08:53:13.000Z</time>
      </trkpt>
      <trkpt lat="37.07315026782453060150146484375" lon="-4.55682576633989810943603515625">
        <ele>429.20001220703125</ele>
        <time>2019-11-01T08:53:17.000Z</time>
      </trkpt>
      <trkpt lat="37.0731049217283725738525390625" lon="-4.5570799894630908966064453125">
        <ele>429</ele>
        <time>2019-11-01T08:53:21.000Z</time>
      </trkpt>
      <trkpt lat="37.07305521704256534576416015625" lon="-4.55733538605272769927978515625">
        <ele>428.20001220703125</ele>
        <time>2019-11-01T08:53:25.000Z</time>
      </trkpt>
      <trkpt lat="37.073007859289646148681640625" lon="-4.55759203992784023284912109375">
        <ele>427.79998779296875</ele>
        <time>2019-11-01T08:53:29.000Z</time>
      </trkpt>
      <trkpt lat="37.072954215109348297119140625" lon="-4.55785506404936313629150390625">
        <ele>426.79998779296875</ele>
        <time>2019-11-01T08:53:33.000Z</time>
      </trkpt>
      <trkpt lat="37.07291004247963428497314453125" lon="-4.558127224445343017578125">
        <ele>426</ele>
        <time>2019-11-01T08:53:37.000Z</time>
      </trkpt>
      <trkpt lat="37.07286645658314228057861328125" lon="-4.558400809764862060546875">
        <ele>426.20001220703125</ele>
        <time>2019-11-01T08:53:41.000Z</time>
      </trkpt>
      <trkpt lat="37.07282337360084056854248046875" lon="-4.55868084914982318878173828125">
        <ele>427.20001220703125</ele>
        <time>2019-11-01T08:53:45.000Z</time>
      </trkpt>
      <trkpt lat="37.07277794368565082550048828125" lon="-4.55896382220089435577392578125">
        <ele>427.79998779296875</ele>
        <time>2019-11-01T08:53:49.000Z</time>
      </trkpt>
      <trkpt lat="37.07272480241954326629638671875" lon="-4.55924964509904384613037109375">
        <ele>428.20001220703125</ele>
        <time>2019-11-01T08:53:53.000Z</time>
      </trkpt>
      <trkpt lat="37.07267836667597293853759765625" lon="-4.55953680910170078277587890625">
        <ele>428.600006103515625</ele>
        <time>2019-11-01T08:53:57.000Z</time>
      </trkpt>
      <trkpt lat="37.07265322096645832061767578125" lon="-4.55975960008800029754638671875">
        <ele>427.79998779296875</ele>
        <time>2019-11-01T08:54:00.000Z</time>
      </trkpt>
      <trkpt lat="37.07263276912271976470947265625" lon="-4.5599846541881561279296875">
        <ele>426.20001220703125</ele>
        <time>2019-11-01T08:54:03.000Z</time>
      </trkpt>
      <trkpt lat="37.07261349074542522430419921875" lon="-4.5602808706462383270263671875">
        <ele>424.79998779296875</ele>
        <time>2019-11-01T08:54:07.000Z</time>
      </trkpt>
      <trkpt lat="37.07259857095777988433837890625" lon="-4.56057650037109851837158203125">
        <ele>424</ele>
        <time>2019-11-01T08:54:11.000Z</time>
      </trkpt>
      <trkpt lat="37.07258281297981739044189453125" lon="-4.560866095125675201416015625">
        <ele>424.399993896484375</ele>
        <time>2019-11-01T08:54:15.000Z</time>
      </trkpt>
      <trkpt lat="37.07256152294576168060302734375" lon="-4.56115267239511013031005859375">
        <ele>425.399993896484375</ele>
        <time>2019-11-01T08:54:19.000Z</time>
      </trkpt>
      <trkpt lat="37.07254056818783283233642578125" lon="-4.5614464581012725830078125">
        <ele>426.600006103515625</ele>
        <time>2019-11-01T08:54:23.000Z</time>
      </trkpt>
      <trkpt lat="37.0725232176482677459716796875" lon="-4.5617415010929107666015625">
        <ele>427.399993896484375</ele>
        <time>2019-11-01T08:54:27.000Z</time>
      </trkpt>
      <trkpt lat="37.07251106388866901397705078125" lon="-4.56202891655266284942626953125">
        <ele>427.20001220703125</ele>
        <time>2019-11-01T08:54:31.000Z</time>
      </trkpt>
      <trkpt lat="37.0725020952522754669189453125" lon="-4.562306106090545654296875">
        <ele>426.399993896484375</ele>
        <time>2019-11-01T08:54:35.000Z</time>
      </trkpt>
      <trkpt lat="37.07249212078750133514404296875" lon="-4.562582038342952728271484375">
        <ele>426</ele>
        <time>2019-11-01T08:54:39.000Z</time>
      </trkpt>
      <trkpt lat="37.0724933780729770660400390625" lon="-4.56285134889185428619384765625">
        <ele>426.600006103515625</ele>
        <time>2019-11-01T08:54:43.000Z</time>
      </trkpt>
      <trkpt lat="37.07249128259718418121337890625" lon="-4.56309475935995578765869140625">
        <ele>427</ele>
        <time>2019-11-01T08:54:47.000Z</time>
      </trkpt>
      <trkpt lat="37.07248692400753498077392578125" lon="-4.56315175630152225494384765625">
        <ele>427</ele>
        <time>2019-11-01T08:54:48.000Z</time>
      </trkpt>
      <trkpt lat="37.07237561233341693878173828125" lon="-4.5633573643863201141357421875">
        <ele>427</ele>
        <time>2019-11-01T08:54:53.000Z</time>
      </trkpt>
      <trkpt lat="37.07225642167031764984130859375" lon="-4.56352491863071918487548828125">
        <ele>427.399993896484375</ele>
        <time>2019-11-01T08:54:59.000Z</time>
      </trkpt>
      <trkpt lat="37.07222708500921726226806640625" lon="-4.5637831650674343109130859375">
        <ele>428.20001220703125</ele>
        <time>2019-11-01T08:55:04.000Z</time>
      </trkpt>
      <trkpt lat="37.07220889627933502197265625" lon="-4.5640079677104949951171875">
        <ele>428.600006103515625</ele>
        <time>2019-11-01T08:55:08.000Z</time>
      </trkpt>
      <trkpt lat="37.07219104282557964324951171875" lon="-4.56424140371382236480712890625">
        <ele>429.399993896484375</ele>
        <time>2019-11-01T08:55:12.000Z</time>
      </trkpt>
      <trkpt lat="37.07217511720955371856689453125" lon="-4.56448565237224102020263671875">
        <ele>429.600006103515625</ele>
        <time>2019-11-01T08:55:16.000Z</time>
      </trkpt>
      <trkpt lat="37.072159945964813232421875" lon="-4.564733840525150299072265625">
        <ele>430.399993896484375</ele>
        <time>2019-11-01T08:55:20.000Z</time>
      </trkpt>
      <trkpt lat="37.07214259542524814605712890625" lon="-4.5649854652583599090576171875">
        <ele>430.600006103515625</ele>
        <time>2019-11-01T08:55:24.000Z</time>
      </trkpt>
      <trkpt lat="37.07213169895112514495849609375" lon="-4.5652412809431552886962890625">
        <ele>430.79998779296875</ele>
        <time>2019-11-01T08:55:28.000Z</time>
      </trkpt>
      <trkpt lat="37.0721292681992053985595703125" lon="-4.56536323763430118560791015625">
        <ele>430.600006103515625</ele>
        <time>2019-11-01T08:55:30.000Z</time>
      </trkpt>
      <trkpt lat="37.07210102118551731109619140625" lon="-4.5656255073845386505126953125">
        <ele>430</ele>
        <time>2019-11-01T08:55:34.000Z</time>
      </trkpt>
      <trkpt lat="37.0721007697284221649169921875" lon="-4.56589448265731334686279296875">
        <ele>430</ele>
        <time>2019-11-01T08:55:38.000Z</time>
      </trkpt>
      <trkpt lat="37.07210688851773738861083984375" lon="-4.56616555340588092803955078125">
        <ele>429.79998779296875</ele>
        <time>2019-11-01T08:55:42.000Z</time>
      </trkpt>
      <trkpt lat="37.07211770117282867431640625" lon="-4.566439725458621978759765625">
        <ele>429</ele>
        <time>2019-11-01T08:55:46.000Z</time>
      </trkpt>
      <trkpt lat="37.07212516106665134429931640625" lon="-4.56670694053173065185546875">
        <ele>428</ele>
        <time>2019-11-01T08:55:50.000Z</time>
      </trkpt>
      <trkpt lat="37.072146199643611907958984375" lon="-4.56696686334908008575439453125">
        <ele>427</ele>
        <time>2019-11-01T08:55:54.000Z</time>
      </trkpt>
      <trkpt lat="37.07218366675078868865966796875" lon="-4.56722435541450977325439453125">
        <ele>425.20001220703125</ele>
        <time>2019-11-01T08:55:58.000Z</time>
      </trkpt>
      <trkpt lat="37.07223161123692989349365234375" lon="-4.56748218275606632232666015625">
        <ele>423.399993896484375</ele>
        <time>2019-11-01T08:56:02.000Z</time>
      </trkpt>
      <trkpt lat="37.07231341861188411712646484375" lon="-4.567716456949710845947265625">
        <ele>422.399993896484375</ele>
        <time>2019-11-01T08:56:06.000Z</time>
      </trkpt>
      <trkpt lat="37.07242548465728759765625" lon="-4.5679241605103015899658203125">
        <ele>422.399993896484375</ele>
        <time>2019-11-01T08:56:10.000Z</time>
      </trkpt>
      <trkpt lat="37.0725595951080322265625" lon="-4.56811686046421527862548828125">
        <ele>423.20001220703125</ele>
        <time>2019-11-01T08:56:14.000Z</time>
      </trkpt>
      <trkpt lat="37.07270334474742412567138671875" lon="-4.5682932995259761810302734375">
        <ele>423</ele>
        <time>2019-11-01T08:56:18.000Z</time>
      </trkpt>
      <trkpt lat="37.07279135473072528839111328125" lon="-4.56853352487087249755859375">
        <ele>423</ele>
        <time>2019-11-01T08:56:23.000Z</time>
      </trkpt>
      <trkpt lat="37.072776518762111663818359375" lon="-4.56873008050024509429931640625">
        <ele>422.600006103515625</ele>
        <time>2019-11-01T08:56:27.000Z</time>
      </trkpt>
      <trkpt lat="37.07277140580117702484130859375" lon="-4.56878003664314746856689453125">
        <ele>422.399993896484375</ele>
        <time>2019-11-01T08:56:28.000Z</time>
      </trkpt>
      <trkpt lat="37.0727974735200405120849609375" lon="-4.56900559365749359130859375">
        <ele>422</ele>
        <time>2019-11-01T08:56:32.000Z</time>
      </trkpt>
      <trkpt lat="37.0727233774960041046142578125" lon="-4.56921480596065521240234375">
        <ele>422</ele>
        <time>2019-11-01T08:56:36.000Z</time>
      </trkpt>
      <trkpt lat="37.07259454764425754547119140625" lon="-4.56927121616899967193603515625">
        <ele>422.20001220703125</ele>
        <time>2019-11-01T08:56:39.000Z</time>
      </trkpt>
      <trkpt lat="37.07255381159484386444091796875" lon="-4.5692907460033893585205078125">
        <ele>422.399993896484375</ele>
        <time>2019-11-01T08:56:40.000Z</time>
      </trkpt>
      <trkpt lat="37.07238952629268169403076171875" lon="-4.5694831945002079010009765625">
        <ele>423</ele>
        <time>2019-11-01T08:56:45.000Z</time>
      </trkpt>
      <trkpt lat="37.07236387766897678375244140625" lon="-4.5695333182811737060546875">
        <ele>423</ele>
        <time>2019-11-01T08:56:46.000Z</time>
      </trkpt>
      <trkpt lat="37.07232020795345306396484375" lon="-4.5697711966931819915771484375">
        <ele>423.20001220703125</ele>
        <time>2019-11-01T08:56:50.000Z</time>
      </trkpt>
      <trkpt lat="37.0723016001284122467041015625" lon="-4.570009075105190277099609375">
        <ele>424</ele>
        <time>2019-11-01T08:56:54.000Z</time>
      </trkpt>
      <trkpt lat="37.07230302505195140838623046875" lon="-4.57025005482137203216552734375">
        <ele>424</ele>
        <time>2019-11-01T08:56:58.000Z</time>
      </trkpt>
      <trkpt lat="37.07229346968233585357666015625" lon="-4.570483826100826263427734375">
        <ele>423.600006103515625</ele>
        <time>2019-11-01T08:57:02.000Z</time>
      </trkpt>
      <trkpt lat="37.072293050587177276611328125" lon="-4.57072480581700801849365234375">
        <ele>423.399993896484375</ele>
        <time>2019-11-01T08:57:06.000Z</time>
      </trkpt>
      <trkpt lat="37.07229581661522388458251953125" lon="-4.57097567617893218994140625">
        <ele>422.79998779296875</ele>
        <time>2019-11-01T08:57:10.000Z</time>
      </trkpt>
      <trkpt lat="37.0722992531955242156982421875" lon="-4.57122822292149066925048828125">
        <ele>422.20001220703125</ele>
        <time>2019-11-01T08:57:14.000Z</time>
      </trkpt>
      <trkpt lat="37.0723009295761585235595703125" lon="-4.57147431559860706329345703125">
        <ele>421.600006103515625</ele>
        <time>2019-11-01T08:57:18.000Z</time>
      </trkpt>
      <trkpt lat="37.07229749299585819244384765625" lon="-4.57173331640660762786865234375">
        <ele>422.399993896484375</ele>
        <time>2019-11-01T08:57:22.000Z</time>
      </trkpt>
      <trkpt lat="37.072301097214221954345703125" lon="-4.57199156284332275390625">
        <ele>421.600006103515625</ele>
        <time>2019-11-01T08:57:26.000Z</time>
      </trkpt>
      <trkpt lat="37.0723039470613002777099609375" lon="-4.572243355214595794677734375">
        <ele>421.600006103515625</ele>
        <time>2019-11-01T08:57:30.000Z</time>
      </trkpt>
      <trkpt lat="37.07230352796614170074462890625" lon="-4.5724919624626636505126953125">
        <ele>421.600006103515625</ele>
        <time>2019-11-01T08:57:34.000Z</time>
      </trkpt>
      <trkpt lat="37.0723116584122180938720703125" lon="-4.57274593412876129150390625">
        <ele>421.600006103515625</ele>
        <time>2019-11-01T08:57:38.000Z</time>
      </trkpt>
      <trkpt lat="37.07231777720153331756591796875" lon="-4.5729928649961948394775390625">
        <ele>421.20001220703125</ele>
        <time>2019-11-01T08:57:42.000Z</time>
      </trkpt>
      <trkpt lat="37.0723183639347553253173828125" lon="-4.573243148624897003173828125">
        <ele>421</ele>
        <time>2019-11-01T08:57:46.000Z</time>
      </trkpt>
      <trkpt lat="37.07231358624994754791259765625" lon="-4.57349066622555255889892578125">
        <ele>421.20001220703125</ele>
        <time>2019-11-01T08:57:50.000Z</time>
      </trkpt>
      <trkpt lat="37.07231308333575725555419921875" lon="-4.5737351663410663604736328125">
        <ele>421.600006103515625</ele>
        <time>2019-11-01T08:57:54.000Z</time>
      </trkpt>
      <trkpt lat="37.07231358624994754791259765625" lon="-4.573984444141387939453125">
        <ele>421</ele>
        <time>2019-11-01T08:57:58.000Z</time>
      </trkpt>
      <trkpt lat="37.07231157459318637847900390625" lon="-4.57424319349229335784912109375">
        <ele>421.399993896484375</ele>
        <time>2019-11-01T08:58:02.000Z</time>
      </trkpt>
      <trkpt lat="37.0723049528896808624267578125" lon="-4.5745076425373554229736328125">
        <ele>421.600006103515625</ele>
        <time>2019-11-01T08:58:06.000Z</time>
      </trkpt>
      <trkpt lat="37.0722955651581287384033203125" lon="-4.574789106845855712890625">
        <ele>421.399993896484375</ele>
        <time>2019-11-01T08:58:10.000Z</time>
      </trkpt>
      <trkpt lat="37.07227385602891445159912109375" lon="-4.57505908794701099395751953125">
        <ele>421.399993896484375</ele>
        <time>2019-11-01T08:58:14.000Z</time>
      </trkpt>
      <trkpt lat="37.07225239835679531097412109375" lon="-4.5753226988017559051513671875">
        <ele>421.20001220703125</ele>
        <time>2019-11-01T08:58:18.000Z</time>
      </trkpt>
      <trkpt lat="37.07222021184861660003662109375" lon="-4.5755842141807079315185546875">
        <ele>422.79998779296875</ele>
        <time>2019-11-01T08:58:22.000Z</time>
      </trkpt>
      <trkpt lat="37.07218567840754985809326171875" lon="-4.57584547810256481170654296875">
        <ele>425</ele>
        <time>2019-11-01T08:58:26.000Z</time>
      </trkpt>
      <trkpt lat="37.07214360125362873077392578125" lon="-4.576109088957309722900390625">
        <ele>426.399993896484375</ele>
        <time>2019-11-01T08:58:30.000Z</time>
      </trkpt>
      <trkpt lat="37.07210118882358074188232421875" lon="-4.57637588493525981903076171875">
        <ele>426.20001220703125</ele>
        <time>2019-11-01T08:58:34.000Z</time>
      </trkpt>
      <trkpt lat="37.07206045277416706085205078125" lon="-4.57662566564977169036865234375">
        <ele>426.20001220703125</ele>
        <time>2019-11-01T08:58:38.000Z</time>
      </trkpt>
      <trkpt lat="37.07201418466866016387939453125" lon="-4.5768777094781398773193359375">
        <ele>425</ele>
        <time>2019-11-01T08:58:42.000Z</time>
      </trkpt>
      <trkpt lat="37.07196188159286975860595703125" lon="-4.577139057219028472900390625">
        <ele>424</ele>
        <time>2019-11-01T08:58:46.000Z</time>
      </trkpt>
      <trkpt lat="37.0719146914780139923095703125" lon="-4.57737148739397525787353515625">
        <ele>423.600006103515625</ele>
        <time>2019-11-01T08:58:50.000Z</time>
      </trkpt>
      <trkpt lat="37.0718794874846935272216796875" lon="-4.5776014029979705810546875">
        <ele>423.20001220703125</ele>
        <time>2019-11-01T08:58:54.000Z</time>
      </trkpt>
      <trkpt lat="37.07186079584062099456787109375" lon="-4.57772335968911647796630859375">
        <ele>423.20001220703125</ele>
        <time>2019-11-01T08:58:56.000Z</time>
      </trkpt>
      <trkpt lat="37.0719307847321033477783203125" lon="-4.57794397138059139251708984375">
        <ele>424.399993896484375</ele>
        <time>2019-11-01T08:59:00.000Z</time>
      </trkpt>
      <trkpt lat="37.072095908224582672119140625" lon="-4.57805528305470943450927734375">
        <ele>424</ele>
        <time>2019-11-01T08:59:04.000Z</time>
      </trkpt>
      <trkpt lat="37.072237394750118255615234375" lon="-4.57813155837357044219970703125">
        <ele>423.20001220703125</ele>
        <time>2019-11-01T08:59:08.000Z</time>
      </trkpt>
      <trkpt lat="37.07232900895178318023681640625" lon="-4.57818235270678997039794921875">
        <ele>422.79998779296875</ele>
        <time>2019-11-01T08:59:11.000Z</time>
      </trkpt>
      <trkpt lat="37.0725258998572826385498046875" lon="-4.57823775708675384521484375">
        <ele>421.600006103515625</ele>
        <time>2019-11-01T08:59:16.000Z</time>
      </trkpt>
      <trkpt lat="37.07256269641220569610595703125" lon="-4.578258208930492401123046875">
        <ele>421.399993896484375</ele>
        <time>2019-11-01T08:59:17.000Z</time>
      </trkpt>
      <trkpt lat="37.07260427065193653106689453125" lon="-4.57827723585069179534912109375">
        <ele>421.20001220703125</ele>
        <time>2019-11-01T08:59:18.000Z</time>
      </trkpt>
      <trkpt lat="37.07281650044023990631103515625" lon="-4.57836516201496124267578125">
        <ele>420.399993896484375</ele>
        <time>2019-11-01T08:59:23.000Z</time>
      </trkpt>
      <trkpt lat="37.07296335138380527496337890625" lon="-4.5784407667815685272216796875">
        <ele>420</ele>
        <time>2019-11-01T08:59:27.000Z</time>
      </trkpt>
      <trkpt lat="37.07300878129899501800537109375" lon="-4.5786607079207897186279296875">
        <ele>420</ele>
        <time>2019-11-01T08:59:32.000Z</time>
      </trkpt>
      <trkpt lat="37.07300224341452121734619140625" lon="-4.578714184463024139404296875">
        <ele>420.20001220703125</ele>
        <time>2019-11-01T08:59:33.000Z</time>
      </trkpt>
      <trkpt lat="37.0729429833590984344482421875" lon="-4.57895181141793727874755859375">
        <ele>421</ele>
        <time>2019-11-01T08:59:37.000Z</time>
      </trkpt>
      <trkpt lat="37.07289420068264007568359375" lon="-4.57917091436684131622314453125">
        <ele>421</ele>
        <time>2019-11-01T08:59:41.000Z</time>
      </trkpt>
      <trkpt lat="37.07288607023656368255615234375" lon="-4.57922346889972686767578125">
        <ele>420.79998779296875</ele>
        <time>2019-11-01T08:59:42.000Z</time>
      </trkpt>
      <trkpt lat="37.07286603748798370361328125" lon="-4.57932799123227596282958984375">
        <ele>420.79998779296875</ele>
        <time>2019-11-01T08:59:44.000Z</time>
      </trkpt>
      <trkpt lat="37.07273938693106174468994140625" lon="-4.57949227653443813323974609375">
        <ele>420.20001220703125</ele>
        <time>2019-11-01T08:59:49.000Z</time>
      </trkpt>
      <trkpt lat="37.07265623845160007476806640625" lon="-4.57948892377316951751708984375">
        <ele>420</ele>
        <time>2019-11-01T08:59:51.000Z</time>
      </trkpt>
      <trkpt lat="37.072474099695682525634765625" lon="-4.57946428097784519195556640625">
        <ele>419.399993896484375</ele>
        <time>2019-11-01T08:59:55.000Z</time>
      </trkpt>
      <trkpt lat="37.072341330349445343017578125" lon="-4.57945891655981540679931640625">
        <ele>419.20001220703125</ele>
        <time>2019-11-01T08:59:58.000Z</time>
      </trkpt>
      <trkpt lat="37.0721497200429439544677734375" lon="-4.5795820467174053192138671875">
        <ele>419.399993896484375</ele>
        <time>2019-11-01T09:00:03.000Z</time>
      </trkpt>
      <trkpt lat="37.07207285799086093902587890625" lon="-4.579804837703704833984375">
        <ele>419</ele>
        <time>2019-11-01T09:00:07.000Z</time>
      </trkpt>
      <trkpt lat="37.07206078805029392242431640625" lon="-4.579919837415218353271484375">
        <ele>418.600006103515625</ele>
        <time>2019-11-01T09:00:09.000Z</time>
      </trkpt>
      <trkpt lat="37.0720397494733333587646484375" lon="-4.58018328063189983367919921875">
        <ele>418.20001220703125</ele>
        <time>2019-11-01T09:00:14.000Z</time>
      </trkpt>
      <trkpt lat="37.0720206387341022491455078125" lon="-4.580382518470287322998046875">
        <ele>418.600006103515625</ele>
        <time>2019-11-01T09:00:18.000Z</time>
      </trkpt>
      <trkpt lat="37.07199691794812679290771484375" lon="-4.580613188445568084716796875">
        <ele>420.20001220703125</ele>
        <time>2019-11-01T09:00:23.000Z</time>
      </trkpt>
      <trkpt lat="37.07199574448168277740478515625" lon="-4.58065903745591640472412109375">
        <ele>420.20001220703125</ele>
        <time>2019-11-01T09:00:24.000Z</time>
      </trkpt>
      <trkpt lat="37.0719918049871921539306640625" lon="-4.58078744821250438690185546875">
        <ele>420.399993896484375</ele>
        <time>2019-11-01T09:00:27.000Z</time>
      </trkpt>
      <trkpt lat="37.07200504839420318603515625" lon="-4.580943770706653594970703125">
        <ele>420.600006103515625</ele>
        <time>2019-11-01T09:00:31.000Z</time>
      </trkpt>
      <trkpt lat="37.072002030909061431884765625" lon="-4.58105851896107196807861328125">
        <ele>421</ele>
        <time>2019-11-01T09:00:34.000Z</time>
      </trkpt>
      <trkpt lat="37.072053663432598114013671875" lon="-4.5811853371560573577880859375">
        <ele>421.20001220703125</ele>
        <time>2019-11-01T09:00:38.000Z</time>
      </trkpt>
      <trkpt lat="37.0720647275447845458984375" lon="-4.58122439682483673095703125">
        <ele>421.20001220703125</ele>
        <time>2019-11-01T09:00:39.000Z</time>
      </trkpt>
      <trkpt lat="37.07200161181390285491943359375" lon="-4.58146101795136928558349609375">
        <ele>421</ele>
        <time>2019-11-01T09:00:44.000Z</time>
      </trkpt>
      <trkpt lat="37.0718080736696720123291015625" lon="-4.5815786160528659820556640625">
        <ele>420.79998779296875</ele>
        <time>2019-11-01T09:00:49.000Z</time>
      </trkpt>
      <trkpt lat="37.0717644877731800079345703125" lon="-4.581585824489593505859375">
        <ele>420.79998779296875</ele>
        <time>2019-11-01T09:00:50.000Z</time>
      </trkpt>
      <trkpt lat="37.07157815806567668914794921875" lon="-4.581603594124317169189453125">
        <ele>420.600006103515625</ele>
        <time>2019-11-01T09:00:54.000Z</time>
      </trkpt>
      <trkpt lat="37.07139727659523487091064453125" lon="-4.5816282369196414947509765625">
        <ele>420.399993896484375</ele>
        <time>2019-11-01T09:00:58.000Z</time>
      </trkpt>
      <trkpt lat="37.0713598094880580902099609375" lon="-4.58164994604885578155517578125">
        <ele>420.20001220703125</ele>
        <time>2019-11-01T09:00:59.000Z</time>
      </trkpt>
      <trkpt lat="37.07129769958555698394775390625" lon="-4.581864438951015472412109375">
        <ele>419.399993896484375</ele>
        <time>2019-11-01T09:01:03.000Z</time>
      </trkpt>
      <trkpt lat="37.07128998823463916778564453125" lon="-4.5819962024688720703125">
        <ele>418.79998779296875</ele>
        <time>2019-11-01T09:01:05.000Z</time>
      </trkpt>
      <trkpt lat="37.0712672732770442962646484375" lon="-4.58225612528622150421142578125">
        <ele>418</ele>
        <time>2019-11-01T09:01:09.000Z</time>
      </trkpt>
      <trkpt lat="37.07124975509941577911376953125" lon="-4.58251026459038257598876953125">
        <ele>419</ele>
        <time>2019-11-01T09:01:13.000Z</time>
      </trkpt>
      <trkpt lat="37.0712253637611865997314453125" lon="-4.5827534236013889312744140625">
        <ele>419.20001220703125</ele>
        <time>2019-11-01T09:01:17.000Z</time>
      </trkpt>
      <trkpt lat="37.07120197825133800506591796875" lon="-4.58299809135496616363525390625">
        <ele>418.600006103515625</ele>
        <time>2019-11-01T09:01:21.000Z</time>
      </trkpt>
      <trkpt lat="37.071180604398250579833984375" lon="-4.58324518986046314239501953125">
        <ele>418</ele>
        <time>2019-11-01T09:01:25.000Z</time>
      </trkpt>
      <trkpt lat="37.0711552910506725311279296875" lon="-4.58349161781370639801025390625">
        <ele>417.399993896484375</ele>
        <time>2019-11-01T09:01:29.000Z</time>
      </trkpt>
      <trkpt lat="37.0711294747889041900634765625" lon="-4.58373301662504673004150390625">
        <ele>416.600006103515625</ele>
        <time>2019-11-01T09:01:33.000Z</time>
      </trkpt>
      <trkpt lat="37.07110659219324588775634765625" lon="-4.58397827111184597015380859375">
        <ele>416.20001220703125</ele>
        <time>2019-11-01T09:01:37.000Z</time>
      </trkpt>
      <trkpt lat="37.0710842125117778778076171875" lon="-4.5842192508280277252197265625">
        <ele>416.399993896484375</ele>
        <time>2019-11-01T09:01:41.000Z</time>
      </trkpt>
      <trkpt lat="37.0710600726306438446044921875" lon="-4.584459476172924041748046875">
        <ele>416.79998779296875</ele>
        <time>2019-11-01T09:01:45.000Z</time>
      </trkpt>
      <trkpt lat="37.0710359327495098114013671875" lon="-4.5847064070403575897216796875">
        <ele>416.79998779296875</ele>
        <time>2019-11-01T09:01:49.000Z</time>
      </trkpt>
      <trkpt lat="37.07101003266870975494384765625" lon="-4.58495543338358402252197265625">
        <ele>417.79998779296875</ele>
        <time>2019-11-01T09:01:53.000Z</time>
      </trkpt>
      <trkpt lat="37.0709920115768909454345703125" lon="-4.58520739339292049407958984375">
        <ele>418</ele>
        <time>2019-11-01T09:01:57.000Z</time>
      </trkpt>
      <trkpt lat="37.07096829079091548919677734375" lon="-4.58546170033514499664306640625">
        <ele>418</ele>
        <time>2019-11-01T09:02:01.000Z</time>
      </trkpt>
      <trkpt lat="37.0709430612623691558837890625" lon="-4.5857139118015766143798828125">
        <ele>417.600006103515625</ele>
        <time>2019-11-01T09:02:05.000Z</time>
      </trkpt>
      <trkpt lat="37.07092051394283771514892578125" lon="-4.58596662618219852447509765625">
        <ele>417.20001220703125</ele>
        <time>2019-11-01T09:02:09.000Z</time>
      </trkpt>
      <trkpt lat="37.07089352421462535858154296875" lon="-4.58621338941156864166259765625">
        <ele>417.399993896484375</ele>
        <time>2019-11-01T09:02:13.000Z</time>
      </trkpt>
      <trkpt lat="37.0708733238279819488525390625" lon="-4.586464427411556243896484375">
        <ele>416.600006103515625</ele>
        <time>2019-11-01T09:02:17.000Z</time>
      </trkpt>
      <trkpt lat="37.0708481781184673309326171875" lon="-4.586726613342761993408203125">
        <ele>416.600006103515625</ele>
        <time>2019-11-01T09:02:21.000Z</time>
      </trkpt>
      <trkpt lat="37.0708230324089527130126953125" lon="-4.586993157863616943359375">
        <ele>417</ele>
        <time>2019-11-01T09:02:25.000Z</time>
      </trkpt>
      <trkpt lat="37.070797719061374664306640625" lon="-4.587266743183135986328125">
        <ele>416.79998779296875</ele>
        <time>2019-11-01T09:02:29.000Z</time>
      </trkpt>
      <trkpt lat="37.0707720704376697540283203125" lon="-4.587547369301319122314453125">
        <ele>417.399993896484375</ele>
        <time>2019-11-01T09:02:33.000Z</time>
      </trkpt>
      <trkpt lat="37.0707449130713939666748046875" lon="-4.5878358744084835052490234375">
        <ele>416.600006103515625</ele>
        <time>2019-11-01T09:02:37.000Z</time>
      </trkpt>
      <trkpt lat="37.0707217790186405181884765625" lon="-4.5881245471537113189697265625">
        <ele>415.79998779296875</ele>
        <time>2019-11-01T09:02:41.000Z</time>
      </trkpt>
      <trkpt lat="37.07069504074752330780029296875" lon="-4.5884105376899242401123046875">
        <ele>415.20001220703125</ele>
        <time>2019-11-01T09:02:45.000Z</time>
      </trkpt>
      <trkpt lat="37.070669643580913543701171875" lon="-4.58869342692196369171142578125">
        <ele>415.399993896484375</ele>
        <time>2019-11-01T09:02:49.000Z</time>
      </trkpt>
      <trkpt lat="37.0706450007855892181396484375" lon="-4.5889771543443202972412109375">
        <ele>415.600006103515625</ele>
        <time>2019-11-01T09:02:53.000Z</time>
      </trkpt>
      <trkpt lat="37.0706225372850894927978515625" lon="-4.58926876075565814971923828125">
        <ele>415.399993896484375</ele>
        <time>2019-11-01T09:02:57.000Z</time>
      </trkpt>
      <trkpt lat="37.0706061087548732757568359375" lon="-4.5895608700811862945556640625">
        <ele>414.399993896484375</ele>
        <time>2019-11-01T09:03:01.000Z</time>
      </trkpt>
      <trkpt lat="37.07058708183467388153076171875" lon="-4.58985172212123870849609375">
        <ele>413.79998779296875</ele>
        <time>2019-11-01T09:03:05.000Z</time>
      </trkpt>
      <trkpt lat="37.07057140767574310302734375" lon="-4.590138383209705352783203125">
        <ele>412.600006103515625</ele>
        <time>2019-11-01T09:03:09.000Z</time>
      </trkpt>
      <trkpt lat="37.07055975683033466339111328125" lon="-4.59042009897530078887939453125">
        <ele>413</ele>
        <time>2019-11-01T09:03:13.000Z</time>
      </trkpt>
      <trkpt lat="37.0705507881939411163330078125" lon="-4.59069728851318359375">
        <ele>413.600006103515625</ele>
        <time>2019-11-01T09:03:17.000Z</time>
      </trkpt>
      <trkpt lat="37.07056662999093532562255859375" lon="-4.59096056409180164337158203125">
        <ele>414.79998779296875</ele>
        <time>2019-11-01T09:03:21.000Z</time>
      </trkpt>
      <trkpt lat="37.07058741711080074310302734375" lon="-4.59121151827275753021240234375">
        <ele>415.79998779296875</ele>
        <time>2019-11-01T09:03:25.000Z</time>
      </trkpt>
      <trkpt lat="37.070622034370899200439453125" lon="-4.5914685912430286407470703125">
        <ele>415.399993896484375</ele>
        <time>2019-11-01T09:03:29.000Z</time>
      </trkpt>
      <trkpt lat="37.0706619322299957275390625" lon="-4.5917280949652194976806640625">
        <ele>415</ele>
        <time>2019-11-01T09:03:33.000Z</time>
      </trkpt>
      <trkpt lat="37.07074147649109363555908203125" lon="-4.591976366937160491943359375">
        <ele>414</ele>
        <time>2019-11-01T09:03:37.000Z</time>
      </trkpt>
      <trkpt lat="37.07083686254918575286865234375" lon="-4.59222522564232349395751953125">
        <ele>415</ele>
        <time>2019-11-01T09:03:41.000Z</time>
      </trkpt>
      <trkpt lat="37.07094549201428890228271484375" lon="-4.59247332997620105743408203125">
        <ele>415.600006103515625</ele>
        <time>2019-11-01T09:03:45.000Z</time>
      </trkpt>
      <trkpt lat="37.07105764187872409820556640625" lon="-4.5927198417484760284423828125">
        <ele>416</ele>
        <time>2019-11-01T09:03:49.000Z</time>
      </trkpt>
      <trkpt lat="37.07117934711277484893798828125" lon="-4.59296484477818012237548828125">
        <ele>415.600006103515625</ele>
        <time>2019-11-01T09:03:53.000Z</time>
      </trkpt>
      <trkpt lat="37.0712981186807155609130859375" lon="-4.5932091772556304931640625">
        <ele>415.79998779296875</ele>
        <time>2019-11-01T09:03:57.000Z</time>
      </trkpt>
      <trkpt lat="37.07141253165900707244873046875" lon="-4.59345133043825626373291015625">
        <ele>414.600006103515625</ele>
        <time>2019-11-01T09:04:01.000Z</time>
      </trkpt>
      <trkpt lat="37.07151428796350955963134765625" lon="-4.59369457326829433441162109375">
        <ele>415</ele>
        <time>2019-11-01T09:04:05.000Z</time>
      </trkpt>
      <trkpt lat="37.071603052318096160888671875" lon="-4.5939466170966625213623046875">
        <ele>415.600006103515625</ele>
        <time>2019-11-01T09:04:09.000Z</time>
      </trkpt>
      <trkpt lat="37.07167253829538822174072265625" lon="-4.59414468146860599517822265625">
        <ele>416.79998779296875</ele>
        <time>2019-11-01T09:04:12.000Z</time>
      </trkpt>
      <trkpt lat="37.07174277864396572113037109375" lon="-4.59441206417977809906005859375">
        <ele>417.399993896484375</ele>
        <time>2019-11-01T09:04:16.000Z</time>
      </trkpt>
      <trkpt lat="37.0718010328710079193115234375" lon="-4.5946734957396984100341796875">
        <ele>417</ele>
        <time>2019-11-01T09:04:20.000Z</time>
      </trkpt>
      <trkpt lat="37.071847803890705108642578125" lon="-4.59491833113133907318115234375">
        <ele>415.79998779296875</ele>
        <time>2019-11-01T09:04:24.000Z</time>
      </trkpt>
      <trkpt lat="37.07188024185597896575927734375" lon="-4.5951512642204761505126953125">
        <ele>415</ele>
        <time>2019-11-01T09:04:28.000Z</time>
      </trkpt>
      <trkpt lat="37.071892730891704559326171875" lon="-4.5953809283673763275146484375">
        <ele>414.600006103515625</ele>
        <time>2019-11-01T09:04:32.000Z</time>
      </trkpt>
      <trkpt lat="37.07189650274813175201416015625" lon="-4.59548276849091053009033203125">
        <ele>414.399993896484375</ele>
        <time>2019-11-01T09:04:34.000Z</time>
      </trkpt>
      <trkpt lat="37.0718898810446262359619140625" lon="-4.59573036991059780120849609375">
        <ele>415</ele>
        <time>2019-11-01T09:04:41.000Z</time>
      </trkpt>
      <trkpt lat="37.07188828848302364349365234375" lon="-4.5957594551146030426025390625">
        <ele>415.20001220703125</ele>
        <time>2019-11-01T09:04:42.000Z</time>
      </trkpt>
      <trkpt lat="37.071900777518749237060546875" lon="-4.5958680845797061920166015625">
        <ele>415.399993896484375</ele>
        <time>2019-11-01T09:04:45.000Z</time>
      </trkpt>
      <trkpt lat="37.071897089481353759765625" lon="-4.59610654972493648529052734375">
        <ele>413.79998779296875</ele>
        <time>2019-11-01T09:04:49.000Z</time>
      </trkpt>
      <trkpt lat="37.07188996486365795135498046875" lon="-4.59634224884212017059326171875">
        <ele>413</ele>
        <time>2019-11-01T09:04:52.000Z</time>
      </trkpt>
      <trkpt lat="37.07187621854245662689208984375" lon="-4.59657543338835239410400390625">
        <ele>412.20001220703125</ele>
        <time>2019-11-01T09:04:55.000Z</time>
      </trkpt>
      <trkpt lat="37.07183606922626495361328125" lon="-4.59684600122272968292236328125">
        <ele>411.399993896484375</ele>
        <time>2019-11-01T09:04:59.000Z</time>
      </trkpt>
      <trkpt lat="37.07178175449371337890625" lon="-4.5970854721963405609130859375">
        <ele>411.399993896484375</ele>
        <time>2019-11-01T09:05:03.000Z</time>
      </trkpt>
      <trkpt lat="37.0717115141451358795166015625" lon="-4.59730767644941806793212890625">
        <ele>412</ele>
        <time>2019-11-01T09:05:07.000Z</time>
      </trkpt>
      <trkpt lat="37.0716344006359577178955078125" lon="-4.59752418100833892822265625">
        <ele>413.399993896484375</ele>
        <time>2019-11-01T09:05:11.000Z</time>
      </trkpt>
      <trkpt lat="37.07155452109873294830322265625" lon="-4.597727358341217041015625">
        <ele>413.20001220703125</ele>
        <time>2019-11-01T09:05:15.000Z</time>
      </trkpt>
      <trkpt lat="37.0714652538299560546875" lon="-4.597924165427684783935546875">
        <ele>413.20001220703125</ele>
        <time>2019-11-01T09:05:19.000Z</time>
      </trkpt>
      <trkpt lat="37.07137615419924259185791015625" lon="-4.5981244929134845733642578125">
        <ele>413.399993896484375</ele>
        <time>2019-11-01T09:05:23.000Z</time>
      </trkpt>
      <trkpt lat="37.07128244452178478240966796875" lon="-4.5983269996941089630126953125">
        <ele>413</ele>
        <time>2019-11-01T09:05:27.000Z</time>
      </trkpt>
      <trkpt lat="37.0711863040924072265625" lon="-4.59852506406605243682861328125">
        <ele>413.79998779296875</ele>
        <time>2019-11-01T09:05:31.000Z</time>
      </trkpt>
      <trkpt lat="37.071091420948505401611328125" lon="-4.59872782230377197265625">
        <ele>415</ele>
        <time>2019-11-01T09:05:35.000Z</time>
      </trkpt>
      <trkpt lat="37.07103886641561985015869140625" lon="-4.59889805875718593597412109375">
        <ele>415.600006103515625</ele>
        <time>2019-11-01T09:05:38.000Z</time>
      </trkpt>
      <trkpt lat="37.07102880813181400299072265625" lon="-4.59913216531276702880859375">
        <ele>415.79998779296875</ele>
        <time>2019-11-01T09:05:42.000Z</time>
      </trkpt>
      <trkpt lat="37.07104406319558620452880859375" lon="-4.59923685528337955474853515625">
        <ele>415.600006103515625</ele>
        <time>2019-11-01T09:05:44.000Z</time>
      </trkpt>
      <trkpt lat="37.07110910676419734954833984375" lon="-4.59945126436650753021240234375">
        <ele>415</ele>
        <time>2019-11-01T09:05:48.000Z</time>
      </trkpt>
      <trkpt lat="37.07117951475083827972412109375" lon="-4.5996848680078983306884765625">
        <ele>414.600006103515625</ele>
        <time>2019-11-01T09:05:52.000Z</time>
      </trkpt>
      <trkpt lat="37.0712518505752086639404296875" lon="-4.59991863928735256195068359375">
        <ele>414</ele>
        <time>2019-11-01T09:05:56.000Z</time>
      </trkpt>
      <trkpt lat="37.07132242619991302490234375" lon="-4.60016037337481975555419921875">
        <ele>413.79998779296875</ele>
        <time>2019-11-01T09:06:00.000Z</time>
      </trkpt>
      <trkpt lat="37.07140021026134490966796875" lon="-4.60040579549968242645263671875">
        <ele>413.600006103515625</ele>
        <time>2019-11-01T09:06:04.000Z</time>
      </trkpt>
      <trkpt lat="37.07148159854114055633544921875" lon="-4.60065490566194057464599609375">
        <ele>413.20001220703125</ele>
        <time>2019-11-01T09:06:08.000Z</time>
      </trkpt>
      <trkpt lat="37.07156390883028507232666015625" lon="-4.60089999251067638397216796875">
        <ele>413</ele>
        <time>2019-11-01T09:06:12.000Z</time>
      </trkpt>
      <trkpt lat="37.07164554856717586517333984375" lon="-4.601138122379779815673828125">
        <ele>412.600006103515625</ele>
        <time>2019-11-01T09:06:16.000Z</time>
      </trkpt>
      <trkpt lat="37.07172534428536891937255859375" lon="-4.60137373767793178558349609375">
        <ele>412.399993896484375</ele>
        <time>2019-11-01T09:06:20.000Z</time>
      </trkpt>
      <trkpt lat="37.07180916331708431243896484375" lon="-4.60160155780613422393798828125">
        <ele>412</ele>
        <time>2019-11-01T09:06:24.000Z</time>
      </trkpt>
      <trkpt lat="37.071899436414241790771484375" lon="-4.6018343232572078704833984375">
        <ele>412.79998779296875</ele>
        <time>2019-11-01T09:06:28.000Z</time>
      </trkpt>
      <trkpt lat="37.07199255935847759246826171875" lon="-4.602068848907947540283203125">
        <ele>413.600006103515625</ele>
        <time>2019-11-01T09:06:32.000Z</time>
      </trkpt>
      <trkpt lat="37.0720880292356014251708984375" lon="-4.6022993512451648712158203125">
        <ele>414</ele>
        <time>2019-11-01T09:06:36.000Z</time>
      </trkpt>
      <trkpt lat="37.07218282856047153472900390625" lon="-4.60252490825951099395751953125">
        <ele>414.20001220703125</ele>
        <time>2019-11-01T09:06:40.000Z</time>
      </trkpt>
      <trkpt lat="37.07227754406630992889404296875" lon="-4.60275054909288883209228515625">
        <ele>415</ele>
        <time>2019-11-01T09:06:44.000Z</time>
      </trkpt>
      <trkpt lat="37.0723758637905120849609375" lon="-4.60296948440372943878173828125">
        <ele>415</ele>
        <time>2019-11-01T09:06:48.000Z</time>
      </trkpt>
      <trkpt lat="37.07246982492506504058837890625" lon="-4.603188000619411468505859375">
        <ele>414.399993896484375</ele>
        <time>2019-11-01T09:06:52.000Z</time>
      </trkpt>
      <trkpt lat="37.07256353460252285003662109375" lon="-4.6034054271876811981201171875">
        <ele>414</ele>
        <time>2019-11-01T09:06:56.000Z</time>
      </trkpt>
      <trkpt lat="37.0726574957370758056640625" lon="-4.60361824370920658111572265625">
        <ele>415</ele>
        <time>2019-11-01T09:07:00.000Z</time>
      </trkpt>
      <trkpt lat="37.0727538876235485076904296875" lon="-4.60381655953824520111083984375">
        <ele>415</ele>
        <time>2019-11-01T09:07:04.000Z</time>
      </trkpt>
      <trkpt lat="37.07285757176578044891357421875" lon="-4.60401621647179126739501953125">
        <ele>414.600006103515625</ele>
        <time>2019-11-01T09:07:08.000Z</time>
      </trkpt>
      <trkpt lat="37.072967626154422760009765625" lon="-4.60422392003238201141357421875">
        <ele>413.79998779296875</ele>
        <time>2019-11-01T09:07:12.000Z</time>
      </trkpt>
      <trkpt lat="37.07308321259915828704833984375" lon="-4.6044342219829559326171875">
        <ele>412.600006103515625</ele>
        <time>2019-11-01T09:07:16.000Z</time>
      </trkpt>
      <trkpt lat="37.07320340909063816070556640625" lon="-4.6046449430286884307861328125">
        <ele>411.399993896484375</ele>
        <time>2019-11-01T09:07:20.000Z</time>
      </trkpt>
      <trkpt lat="37.0733231864869594573974609375" lon="-4.60485591553151607513427734375">
        <ele>411.399993896484375</ele>
        <time>2019-11-01T09:07:24.000Z</time>
      </trkpt>
      <trkpt lat="37.073439694941043853759765625" lon="-4.605060853064060211181640625">
        <ele>412</ele>
        <time>2019-11-01T09:07:28.000Z</time>
      </trkpt>
      <trkpt lat="37.07356450147926807403564453125" lon="-4.60526746697723865509033203125">
        <ele>413</ele>
        <time>2019-11-01T09:07:32.000Z</time>
      </trkpt>
      <trkpt lat="37.07368838600814342498779296875" lon="-4.6054734103381633758544921875">
        <ele>413.20001220703125</ele>
        <time>2019-11-01T09:07:36.000Z</time>
      </trkpt>
      <trkpt lat="37.073811851441860198974609375" lon="-4.6056725643575191497802734375">
        <ele>413.399993896484375</ele>
        <time>2019-11-01T09:07:40.000Z</time>
      </trkpt>
      <trkpt lat="37.07394034601747989654541015625" lon="-4.6058665215969085693359375">
        <ele>413.79998779296875</ele>
        <time>2019-11-01T09:07:44.000Z</time>
      </trkpt>
      <trkpt lat="37.07406389527022838592529296875" lon="-4.60606324486434459686279296875">
        <ele>413</ele>
        <time>2019-11-01T09:07:48.000Z</time>
      </trkpt>
      <trkpt lat="37.0741868577897548675537109375" lon="-4.60625770501792430877685546875">
        <ele>412</ele>
        <time>2019-11-01T09:07:52.000Z</time>
      </trkpt>
      <trkpt lat="37.07431082613766193389892578125" lon="-4.60644663311541080474853515625">
        <ele>411</ele>
        <time>2019-11-01T09:07:56.000Z</time>
      </trkpt>
      <trkpt lat="37.07443035207688808441162109375" lon="-4.60662349127233028411865234375">
        <ele>411</ele>
        <time>2019-11-01T09:08:00.000Z</time>
      </trkpt>
      <trkpt lat="37.07455088384449481964111328125" lon="-4.6068034507334232330322265625">
        <ele>411.20001220703125</ele>
        <time>2019-11-01T09:08:04.000Z</time>
      </trkpt>
      <trkpt lat="37.07468683831393718719482421875" lon="-4.6069824881851673126220703125">
        <ele>412</ele>
        <time>2019-11-01T09:08:08.000Z</time>
      </trkpt>
      <trkpt lat="37.07482631318271160125732421875" lon="-4.60717133246362209320068359375">
        <ele>411.399993896484375</ele>
        <time>2019-11-01T09:08:12.000Z</time>
      </trkpt>
      <trkpt lat="37.07497383467853069305419921875" lon="-4.607350118458271026611328125">
        <ele>411</ele>
        <time>2019-11-01T09:08:16.000Z</time>
      </trkpt>
      <trkpt lat="37.07510945387184619903564453125" lon="-4.60753678344190120697021484375">
        <ele>410.20001220703125</ele>
        <time>2019-11-01T09:08:20.000Z</time>
      </trkpt>
      <trkpt lat="37.0752345956861972808837890625" lon="-4.60773141123354434967041015625">
        <ele>411</ele>
        <time>2019-11-01T09:08:24.000Z</time>
      </trkpt>
      <trkpt lat="37.075377590954303741455078125" lon="-4.60791178978979587554931640625">
        <ele>411.79998779296875</ele>
        <time>2019-11-01T09:08:28.000Z</time>
      </trkpt>
      <trkpt lat="37.07552201114594936370849609375" lon="-4.60808915086090564727783203125">
        <ele>412</ele>
        <time>2019-11-01T09:08:32.000Z</time>
      </trkpt>
      <trkpt lat="37.075677998363971710205078125" lon="-4.60825729183852672576904296875">
        <ele>412</ele>
        <time>2019-11-01T09:08:36.000Z</time>
      </trkpt>
      <trkpt lat="37.07583532668650150299072265625" lon="-4.60841956548392772674560546875">
        <ele>411.600006103515625</ele>
        <time>2019-11-01T09:08:40.000Z</time>
      </trkpt>
      <trkpt lat="37.0759805850684642791748046875" lon="-4.608596675097942352294921875">
        <ele>411</ele>
        <time>2019-11-01T09:08:44.000Z</time>
      </trkpt>
      <trkpt lat="37.0761224068701267242431640625" lon="-4.6087691746652126312255859375">
        <ele>412</ele>
        <time>2019-11-01T09:08:48.000Z</time>
      </trkpt>
      <trkpt lat="37.07626171410083770751953125" lon="-4.60893505252897739410400390625">
        <ele>413</ele>
        <time>2019-11-01T09:08:52.000Z</time>
      </trkpt>
      <trkpt lat="37.0764045417308807373046875" lon="-4.6091034449636936187744140625">
        <ele>414</ele>
        <time>2019-11-01T09:08:56.000Z</time>
      </trkpt>
      <trkpt lat="37.0765507221221923828125" lon="-4.60926597006618976593017578125">
        <ele>413.79998779296875</ele>
        <time>2019-11-01T09:09:00.000Z</time>
      </trkpt>
      <trkpt lat="37.0766974054276943206787109375" lon="-4.60943226702511310577392578125">
        <ele>412.600006103515625</ele>
        <time>2019-11-01T09:09:04.000Z</time>
      </trkpt>
      <trkpt lat="37.0768449269235134124755859375" lon="-4.60958364419639110565185546875">
        <ele>412</ele>
        <time>2019-11-01T09:09:08.000Z</time>
      </trkpt>
      <trkpt lat="37.0769921131432056427001953125" lon="-4.60972563363611698150634765625">
        <ele>411.399993896484375</ele>
        <time>2019-11-01T09:09:12.000Z</time>
      </trkpt>
      <trkpt lat="37.0771641097962856292724609375" lon="-4.60989763028919696807861328125">
        <ele>410.20001220703125</ele>
        <time>2019-11-01T09:09:17.000Z</time>
      </trkpt>
      <trkpt lat="37.07733971066772937774658203125" lon="-4.61006887257099151611328125">
        <ele>409.79998779296875</ele>
        <time>2019-11-01T09:09:22.000Z</time>
      </trkpt>
      <trkpt lat="37.077481783926486968994140625" lon="-4.6102088503539562225341796875">
        <ele>409.399993896484375</ele>
        <time>2019-11-01T09:09:26.000Z</time>
      </trkpt>
      <trkpt lat="37.077628634870052337646484375" lon="-4.610354863107204437255859375">
        <ele>409.79998779296875</ele>
        <time>2019-11-01T09:09:30.000Z</time>
      </trkpt>
      <trkpt lat="37.07777875475585460662841796875" lon="-4.61050204932689666748046875">
        <ele>410.399993896484375</ele>
        <time>2019-11-01T09:09:34.000Z</time>
      </trkpt>
      <trkpt lat="37.0779305510222911834716796875" lon="-4.61065149866044521331787109375">
        <ele>410.79998779296875</ele>
        <time>2019-11-01T09:09:38.000Z</time>
      </trkpt>
      <trkpt lat="37.07808536477386951446533203125" lon="-4.6108029596507549285888671875">
        <ele>409.600006103515625</ele>
        <time>2019-11-01T09:09:42.000Z</time>
      </trkpt>
      <trkpt lat="37.07823439501225948333740234375" lon="-4.61095400154590606689453125">
        <ele>409.399993896484375</ele>
        <time>2019-11-01T09:09:46.000Z</time>
      </trkpt>
      <trkpt lat="37.07838191650807857513427734375" lon="-4.61109741590917110443115234375">
        <ele>410</ele>
        <time>2019-11-01T09:09:50.000Z</time>
      </trkpt>
      <trkpt lat="37.07852952182292938232421875" lon="-4.61123907007277011871337890625">
        <ele>410.399993896484375</ele>
        <time>2019-11-01T09:09:54.000Z</time>
      </trkpt>
      <trkpt lat="37.07867612130939960479736328125" lon="-4.611378796398639678955078125">
        <ele>411</ele>
        <time>2019-11-01T09:09:58.000Z</time>
      </trkpt>
      <trkpt lat="37.07882079295814037322998046875" lon="-4.61151734925806522369384765625">
        <ele>410.20001220703125</ele>
        <time>2019-11-01T09:10:02.000Z</time>
      </trkpt>
      <trkpt lat="37.07896730862557888031005859375" lon="-4.6116505376994609832763671875">
        <ele>409.79998779296875</ele>
        <time>2019-11-01T09:10:06.000Z</time>
      </trkpt>
      <trkpt lat="37.079112231731414794921875" lon="-4.61178774945437908172607421875">
        <ele>409.79998779296875</ele>
        <time>2019-11-01T09:10:10.000Z</time>
      </trkpt>
      <trkpt lat="37.0792865753173828125" lon="-4.61196578107774257659912109375">
        <ele>410</ele>
        <time>2019-11-01T09:10:15.000Z</time>
      </trkpt>
      <trkpt lat="37.07942940294742584228515625" lon="-4.61211481131613254547119140625">
        <ele>409.399993896484375</ele>
        <time>2019-11-01T09:10:19.000Z</time>
      </trkpt>
      <trkpt lat="37.079567201435565948486328125" lon="-4.61226769722998142242431640625">
        <ele>409.79998779296875</ele>
        <time>2019-11-01T09:10:23.000Z</time>
      </trkpt>
      <trkpt lat="37.07973324693739414215087890625" lon="-4.61245561949908733367919921875">
        <ele>410.399993896484375</ele>
        <time>2019-11-01T09:10:28.000Z</time>
      </trkpt>
      <trkpt lat="37.07989803515374660491943359375" lon="-4.61264287121593952178955078125">
        <ele>411.399993896484375</ele>
        <time>2019-11-01T09:10:33.000Z</time>
      </trkpt>
      <trkpt lat="37.080057375133037567138671875" lon="-4.61282442323863506317138671875">
        <ele>411.79998779296875</ele>
        <time>2019-11-01T09:10:38.000Z</time>
      </trkpt>
      <trkpt lat="37.08021403290331363677978515625" lon="-4.61301033385097980499267578125">
        <ele>412.399993896484375</ele>
        <time>2019-11-01T09:10:43.000Z</time>
      </trkpt>
      <trkpt lat="37.08037395961582660675048828125" lon="-4.613201357424259185791015625">
        <ele>412.600006103515625</ele>
        <time>2019-11-01T09:10:48.000Z</time>
      </trkpt>
      <trkpt lat="37.080504633486270904541015625" lon="-4.61335659027099609375">
        <ele>411.600006103515625</ele>
        <time>2019-11-01T09:10:52.000Z</time>
      </trkpt>
      <trkpt lat="37.080639414489269256591796875" lon="-4.6135180257260799407958984375">
        <ele>410.20001220703125</ele>
        <time>2019-11-01T09:10:56.000Z</time>
      </trkpt>
      <trkpt lat="37.0807649753987789154052734375" lon="-4.61368717253208160400390625">
        <ele>410.20001220703125</ele>
        <time>2019-11-01T09:11:00.000Z</time>
      </trkpt>
      <trkpt lat="37.0809034444391727447509765625" lon="-4.6138935349881649017333984375">
        <ele>411.399993896484375</ele>
        <time>2019-11-01T09:11:05.000Z</time>
      </trkpt>
      <trkpt lat="37.08099036477506160736083984375" lon="-4.61400912143290042877197265625">
        <ele>412.399993896484375</ele>
        <time>2019-11-01T09:11:08.000Z</time>
      </trkpt>
      <trkpt lat="37.08113587461411952972412109375" lon="-4.6142076887190341949462890625">
        <ele>413</ele>
        <time>2019-11-01T09:11:13.000Z</time>
      </trkpt>
      <trkpt lat="37.08125607110559940338134765625" lon="-4.614376835525035858154296875">
        <ele>411.79998779296875</ele>
        <time>2019-11-01T09:11:17.000Z</time>
      </trkpt>
      <trkpt lat="37.08138381130993366241455078125" lon="-4.6145590580999851226806640625">
        <ele>410</ele>
        <time>2019-11-01T09:11:21.000Z</time>
      </trkpt>
      <trkpt lat="37.0815076120197772979736328125" lon="-4.61474337615072727203369140625">
        <ele>409</ele>
        <time>2019-11-01T09:11:25.000Z</time>
      </trkpt>
      <trkpt lat="37.08163711242377758026123046875" lon="-4.61493465118110179901123046875">
        <ele>408.600006103515625</ele>
        <time>2019-11-01T09:11:29.000Z</time>
      </trkpt>
      <trkpt lat="37.0817614160478115081787109375" lon="-4.6151253394782543182373046875">
        <ele>408.20001220703125</ele>
        <time>2019-11-01T09:11:33.000Z</time>
      </trkpt>
      <trkpt lat="37.081882618367671966552734375" lon="-4.615318961441516876220703125">
        <ele>408</ele>
        <time>2019-11-01T09:11:37.000Z</time>
      </trkpt>
      <trkpt lat="37.08199904300272464752197265625" lon="-4.61550998501479625701904296875">
        <ele>409.20001220703125</ele>
        <time>2019-11-01T09:11:41.000Z</time>
      </trkpt>
      <trkpt lat="37.08211722783744335174560546875" lon="-4.6156932972371578216552734375">
        <ele>409.399993896484375</ele>
        <time>2019-11-01T09:11:45.000Z</time>
      </trkpt>
      <trkpt lat="37.0822244323790073394775390625" lon="-4.6158790402114391326904296875">
        <ele>410</ele>
        <time>2019-11-01T09:11:49.000Z</time>
      </trkpt>
      <trkpt lat="37.0823322236537933349609375" lon="-4.6160701476037502288818359375">
        <ele>410</ele>
        <time>2019-11-01T09:11:53.000Z</time>
      </trkpt>
      <trkpt lat="37.0824383385479450225830078125" lon="-4.61626687087118625640869140625">
        <ele>409.399993896484375</ele>
        <time>2019-11-01T09:11:57.000Z</time>
      </trkpt>
      <trkpt lat="37.0825419388711452484130859375" lon="-4.6164590679109096527099609375">
        <ele>409.20001220703125</ele>
        <time>2019-11-01T09:12:01.000Z</time>
      </trkpt>
      <trkpt lat="37.08265048451721668243408203125" lon="-4.61665160022675991058349609375">
        <ele>409.79998779296875</ele>
        <time>2019-11-01T09:12:05.000Z</time>
      </trkpt>
      <trkpt lat="37.08275827579200267791748046875" lon="-4.6168434619903564453125">
        <ele>410</ele>
        <time>2019-11-01T09:12:09.000Z</time>
      </trkpt>
      <trkpt lat="37.08286128938198089599609375" lon="-4.6170337311923503875732421875">
        <ele>410</ele>
        <time>2019-11-01T09:12:13.000Z</time>
      </trkpt>
      <trkpt lat="37.08296346478164196014404296875" lon="-4.61722089909017086029052734375">
        <ele>410</ele>
        <time>2019-11-01T09:12:17.000Z</time>
      </trkpt>
      <trkpt lat="37.08306488581001758575439453125" lon="-4.61740748025476932525634765625">
        <ele>409.399993896484375</ele>
        <time>2019-11-01T09:12:21.000Z</time>
      </trkpt>
      <trkpt lat="37.08318650722503662109375" lon="-4.61763496510684490203857421875">
        <ele>409.20001220703125</ele>
        <time>2019-11-01T09:12:26.000Z</time>
      </trkpt>
      <trkpt lat="37.08330444060266017913818359375" lon="-4.61786203086376190185546875">
        <ele>410.20001220703125</ele>
        <time>2019-11-01T09:12:31.000Z</time>
      </trkpt>
      <trkpt lat="37.0834076218307018280029296875" lon="-4.6180509589612483978271484375">
        <ele>411.399993896484375</ele>
        <time>2019-11-01T09:12:35.000Z</time>
      </trkpt>
      <trkpt lat="37.0834984816610813140869140625" lon="-4.61818716488778591156005859375">
        <ele>412</ele>
        <time>2019-11-01T09:12:38.000Z</time>
      </trkpt>
      <trkpt lat="37.0836718194186687469482421875" lon="-4.6181952953338623046875">
        <ele>411.399993896484375</ele>
        <time>2019-11-01T09:12:42.000Z</time>
      </trkpt>
      <trkpt lat="37.08374549634754657745361328125" lon="-4.61814022623002529144287109375">
        <ele>411.20001220703125</ele>
        <time>2019-11-01T09:12:44.000Z</time>
      </trkpt>
      <trkpt lat="37.08389603532850742340087890625" lon="-4.61801080964505672454833984375">
        <ele>410.20001220703125</ele>
        <time>2019-11-01T09:12:48.000Z</time>
      </trkpt>
      <trkpt lat="37.08406291902065277099609375" lon="-4.61788206361234188079833984375">
        <ele>409.20001220703125</ele>
        <time>2019-11-01T09:12:52.000Z</time>
      </trkpt>
      <trkpt lat="37.084232233464717864990234375" lon="-4.61776035837829113006591796875">
        <ele>407.600006103515625</ele>
        <time>2019-11-01T09:12:56.000Z</time>
      </trkpt>
      <trkpt lat="37.08439526148140430450439453125" lon="-4.61763094179332256317138671875">
        <ele>407.399993896484375</ele>
        <time>2019-11-01T09:13:00.000Z</time>
      </trkpt>
      <trkpt lat="37.08447438664734363555908203125" lon="-4.61757562123239040374755859375">
        <ele>408</ele>
        <time>2019-11-01T09:13:02.000Z</time>
      </trkpt>
      <trkpt lat="37.08459793590009212493896484375" lon="-4.617633707821369171142578125">
        <ele>408</ele>
        <time>2019-11-01T09:13:09.000Z</time>
      </trkpt>
      <trkpt lat="37.0845381729304790496826171875" lon="-4.6176871843636035919189453125">
        <ele>407.600006103515625</ele>
        <time>2019-11-01T09:13:12.000Z</time>
      </trkpt>
      <trkpt lat="37.08449450321495532989501953125" lon="-4.61771719157695770263671875">
        <ele>407.399993896484375</ele>
        <time>2019-11-01T09:13:14.000Z</time>
      </trkpt>
      <trkpt lat="37.08444781601428985595703125" lon="-4.61774527095258235931396484375">
        <ele>407.20001220703125</ele>
        <time>2019-11-01T09:13:16.000Z</time>
      </trkpt>
      <trkpt lat="37.08431580103933811187744140625" lon="-4.61784333921968936920166015625">
        <ele>407.20001220703125</ele>
        <time>2019-11-01T09:13:22.000Z</time>
      </trkpt>
      <trkpt lat="37.08417347632348537445068359375" lon="-4.6179855801165103912353515625">
        <ele>408.600006103515625</ele>
        <time>2019-11-01T09:13:30.000Z</time>
      </trkpt>
      <trkpt lat="37.084024362266063690185546875" lon="-4.61812279187142848968505859375">
        <ele>410</ele>
        <time>2019-11-01T09:13:38.000Z</time>
      </trkpt>
      <trkpt lat="37.083866111934185028076171875" lon="-4.61826033890247344970703125">
        <ele>410.600006103515625</ele>
        <time>2019-11-01T09:13:46.000Z</time>
      </trkpt>
      <trkpt lat="37.08372303284704685211181640625" lon="-4.61841179989278316497802734375">
        <ele>411</ele>
        <time>2019-11-01T09:13:53.000Z</time>
      </trkpt>
      <trkpt lat="37.0835806243121623992919921875" lon="-4.618568457663059234619140625">
        <ele>411</ele>
        <time>2019-11-01T09:14:00.000Z</time>
      </trkpt>
      <trkpt lat="37.0834265649318695068359375" lon="-4.6187104471027851104736328125">
        <ele>410.79998779296875</ele>
        <time>2019-11-01T09:14:07.000Z</time>
      </trkpt>
      <trkpt lat="37.0832577534019947052001953125" lon="-4.6188549511134624481201171875">
        <ele>410.20001220703125</ele>
        <time>2019-11-01T09:14:14.000Z</time>
      </trkpt>
      <trkpt lat="37.08311852999031543731689453125" lon="-4.61904765106737613677978515625">
        <ele>409.600006103515625</ele>
        <time>2019-11-01T09:14:21.000Z</time>
      </trkpt>
      <trkpt lat="37.083039991557598114013671875" lon="-4.6192693524062633514404296875">
        <ele>409.399993896484375</ele>
        <time>2019-11-01T09:14:26.000Z</time>
      </trkpt>
      <trkpt lat="37.08301627077162265777587890625" lon="-4.61939617060124874114990234375">
        <ele>409.20001220703125</ele>
        <time>2019-11-01T09:14:28.000Z</time>
      </trkpt>
      <trkpt lat="37.08298441953957080841064453125" lon="-4.61962784640491008758544921875">
        <ele>408.399993896484375</ele>
        <time>2019-11-01T09:14:31.000Z</time>
      </trkpt>
      <trkpt lat="37.0829117484390735626220703125" lon="-4.619908891618251800537109375">
        <ele>408</ele>
        <time>2019-11-01T09:14:34.000Z</time>
      </trkpt>
      <trkpt lat="37.08280689083039760589599609375" lon="-4.62017007172107696533203125">
        <ele>408</ele>
        <time>2019-11-01T09:14:37.000Z</time>
      </trkpt>
      <trkpt lat="37.0827260054647922515869140625" lon="-4.620307870209217071533203125">
        <ele>408</ele>
        <time>2019-11-01T09:14:39.000Z</time>
      </trkpt>
      <trkpt lat="37.08264805376529693603515625" lon="-4.62042597122490406036376953125">
        <ele>407.600006103515625</ele>
        <time>2019-11-01T09:14:41.000Z</time>
      </trkpt>
      <trkpt lat="37.08252727054059505462646484375" lon="-4.62063677608966827392578125">
        <ele>407.399993896484375</ele>
        <time>2019-11-01T09:14:45.000Z</time>
      </trkpt>
      <trkpt lat="37.082398273050785064697265625" lon="-4.6208300627768039703369140625">
        <ele>408</ele>
        <time>2019-11-01T09:14:50.000Z</time>
      </trkpt>
      <trkpt lat="37.0822757296264171600341796875" lon="-4.62101538665592670440673828125">
        <ele>408.600006103515625</ele>
        <time>2019-11-01T09:14:55.000Z</time>
      </trkpt>
      <trkpt lat="37.0821587182581424713134765625" lon="-4.621198363602161407470703125">
        <ele>409.20001220703125</ele>
        <time>2019-11-01T09:15:00.000Z</time>
      </trkpt>
      <trkpt lat="37.08202569745481014251708984375" lon="-4.62139843963086605072021484375">
        <ele>409.600006103515625</ele>
        <time>2019-11-01T09:15:05.000Z</time>
      </trkpt>
      <trkpt lat="37.0819003880023956298828125" lon="-4.6215988509356975555419921875">
        <ele>409.79998779296875</ele>
        <time>2019-11-01T09:15:10.000Z</time>
      </trkpt>
      <trkpt lat="37.081782706081867218017578125" lon="-4.62177763693034648895263671875">
        <ele>410</ele>
        <time>2019-11-01T09:15:15.000Z</time>
      </trkpt>
      <trkpt lat="37.0816651917994022369384765625" lon="-4.62197142653167247772216796875">
        <ele>410</ele>
        <time>2019-11-01T09:15:20.000Z</time>
      </trkpt>
      <trkpt lat="37.08154943771660327911376953125" lon="-4.62215616367757320404052734375">
        <ele>409.399993896484375</ele>
        <time>2019-11-01T09:15:25.000Z</time>
      </trkpt>
      <trkpt lat="37.08142974413931369781494140625" lon="-4.6223377995193004608154296875">
        <ele>408.79998779296875</ele>
        <time>2019-11-01T09:15:30.000Z</time>
      </trkpt>
      <trkpt lat="37.08131759427487850189208984375" lon="-4.6225342713296413421630859375">
        <ele>408</ele>
        <time>2019-11-01T09:15:35.000Z</time>
      </trkpt>
      <trkpt lat="37.0812011696398258209228515625" lon="-4.6227186731994152069091796875">
        <ele>407.399993896484375</ele>
        <time>2019-11-01T09:15:40.000Z</time>
      </trkpt>
      <trkpt lat="37.08108273334801197052001953125" lon="-4.6229092776775360107421875">
        <ele>407</ele>
        <time>2019-11-01T09:15:45.000Z</time>
      </trkpt>
      <trkpt lat="37.0809684880077838897705078125" lon="-4.6231210045516490936279296875">
        <ele>407</ele>
        <time>2019-11-01T09:15:50.000Z</time>
      </trkpt>
      <trkpt lat="37.08084519021213054656982421875" lon="-4.62330951355397701263427734375">
        <ele>407.20001220703125</ele>
        <time>2019-11-01T09:15:55.000Z</time>
      </trkpt>
      <trkpt lat="37.0807227306067943572998046875" lon="-4.62350263260304927825927734375">
        <ele>407</ele>
        <time>2019-11-01T09:16:00.000Z</time>
      </trkpt>
      <trkpt lat="37.08059926517307758331298828125" lon="-4.623701870441436767578125">
        <ele>407.399993896484375</ele>
        <time>2019-11-01T09:16:05.000Z</time>
      </trkpt>
      <trkpt lat="37.0804803259670734405517578125" lon="-4.62390596978366374969482421875">
        <ele>407.79998779296875</ele>
        <time>2019-11-01T09:16:10.000Z</time>
      </trkpt>
      <trkpt lat="37.0803582854568958282470703125" lon="-4.62410076521337032318115234375">
        <ele>408</ele>
        <time>2019-11-01T09:16:15.000Z</time>
      </trkpt>
      <trkpt lat="37.0802369154989719390869140625" lon="-4.6242931298911571502685546875">
        <ele>407.600006103515625</ele>
        <time>2019-11-01T09:16:20.000Z</time>
      </trkpt>
      <trkpt lat="37.08011697046458721160888671875" lon="-4.62448574602603912353515625">
        <ele>407</ele>
        <time>2019-11-01T09:16:25.000Z</time>
      </trkpt>
      <trkpt lat="37.07999543286859989166259765625" lon="-4.62467861361801624298095703125">
        <ele>406.79998779296875</ele>
        <time>2019-11-01T09:16:30.000Z</time>
      </trkpt>
      <trkpt lat="37.0798780024051666259765625" lon="-4.6248654462397098541259765625">
        <ele>407.399993896484375</ele>
        <time>2019-11-01T09:16:35.000Z</time>
      </trkpt>
      <trkpt lat="37.07975839264690876007080078125" lon="-4.6250495128333568572998046875">
        <ele>408.399993896484375</ele>
        <time>2019-11-01T09:16:40.000Z</time>
      </trkpt>
      <trkpt lat="37.0796366035938262939453125" lon="-4.62522444315254688262939453125">
        <ele>408.79998779296875</ele>
        <time>2019-11-01T09:16:45.000Z</time>
      </trkpt>
      <trkpt lat="37.0795060135424137115478515625" lon="-4.62541923858225345611572265625">
        <ele>408.600006103515625</ele>
        <time>2019-11-01T09:16:50.000Z</time>
      </trkpt>
      <trkpt lat="37.07937248982489109039306640625" lon="-4.62562291882932186126708984375">
        <ele>407.79998779296875</ele>
        <time>2019-11-01T09:16:55.000Z</time>
      </trkpt>
      <trkpt lat="37.07925179041922092437744140625" lon="-4.6258240006864070892333984375">
        <ele>407.399993896484375</ele>
        <time>2019-11-01T09:17:00.000Z</time>
      </trkpt>
      <trkpt lat="37.079117260873317718505859375" lon="-4.62600932456552982330322265625">
        <ele>407.20001220703125</ele>
        <time>2019-11-01T09:17:05.000Z</time>
      </trkpt>
      <trkpt lat="37.0789689011871814727783203125" lon="-4.62618492543697357177734375">
        <ele>407</ele>
        <time>2019-11-01T09:17:11.000Z</time>
      </trkpt>
      <trkpt lat="37.07880738191306591033935546875" lon="-4.626355580985546112060546875">
        <ele>407</ele>
        <time>2019-11-01T09:17:17.000Z</time>
      </trkpt>
      <trkpt lat="37.07864628173410892486572265625" lon="-4.62651525624096393585205078125">
        <ele>406.600006103515625</ele>
        <time>2019-11-01T09:17:23.000Z</time>
      </trkpt>
      <trkpt lat="37.07848166115581989288330078125" lon="-4.62665204890072345733642578125">
        <ele>406</ele>
        <time>2019-11-01T09:17:30.000Z</time>
      </trkpt>
      <trkpt lat="37.07831067033112049102783203125" lon="-4.62678314186632633209228515625">
        <ele>407.399993896484375</ele>
        <time>2019-11-01T09:17:36.000Z</time>
      </trkpt>
      <trkpt lat="37.07813314162194728851318359375" lon="-4.6269096247851848602294921875">
        <ele>408</ele>
        <time>2019-11-01T09:17:42.000Z</time>
      </trkpt>
      <trkpt lat="37.0779624022543430328369140625" lon="-4.6270035021007061004638671875">
        <ele>408</ele>
        <time>2019-11-01T09:17:47.000Z</time>
      </trkpt>
      <trkpt lat="37.07777791656553745269775390625" lon="-4.6270873211324214935302734375">
        <ele>408</ele>
        <time>2019-11-01T09:17:52.000Z</time>
      </trkpt>
      <trkpt lat="37.077589742839336395263671875" lon="-4.62717876769602298736572265625">
        <ele>408</ele>
        <time>2019-11-01T09:17:57.000Z</time>
      </trkpt>
      <trkpt lat="37.07740441896021366119384765625" lon="-4.627272225916385650634765625">
        <ele>408</ele>
        <time>2019-11-01T09:18:02.000Z</time>
      </trkpt>
      <trkpt lat="37.07721414975821971893310546875" lon="-4.62736568413674831390380859375">
        <ele>407.600006103515625</ele>
        <time>2019-11-01T09:18:07.000Z</time>
      </trkpt>
      <trkpt lat="37.07702723331749439239501953125" lon="-4.6274477429687976837158203125">
        <ele>407.600006103515625</ele>
        <time>2019-11-01T09:18:12.000Z</time>
      </trkpt>
      <trkpt lat="37.07683847285807132720947265625" lon="-4.6275372616946697235107421875">
        <ele>408</ele>
        <time>2019-11-01T09:18:17.000Z</time>
      </trkpt>
      <trkpt lat="37.0766544900834560394287109375" lon="-4.6276291273534297943115234375">
        <ele>408</ele>
        <time>2019-11-01T09:18:23.000Z</time>
      </trkpt>
      <trkpt lat="37.0765171945095062255859375" lon="-4.6277077496051788330078125">
        <ele>407.79998779296875</ele>
        <time>2019-11-01T09:18:33.000Z</time>
      </trkpt>
      <trkpt lat="37.076521217823028564453125" lon="-4.62770867161452770233154296875">
        <ele>407.79998779296875</ele>
        <time>2019-11-01T09:18:37.000Z</time>
      </trkpt>
      <trkpt lat="37.07646690309047698974609375" lon="-4.62772317230701446533203125">
        <ele>407.79998779296875</ele>
        <time>2019-11-01T09:20:00.000Z</time>
      </trkpt>
      <trkpt lat="37.0762796513736248016357421875" lon="-4.62782065384089946746826171875">
        <ele>407</ele>
        <time>2019-11-01T09:20:08.000Z</time>
      </trkpt>
      <trkpt lat="37.07608879543840885162353515625" lon="-4.62791905738413333892822265625">
        <ele>406.600006103515625</ele>
        <time>2019-11-01T09:20:15.000Z</time>
      </trkpt>
      <trkpt lat="37.0759163796901702880859375" lon="-4.62799969129264354705810546875">
        <ele>406.600006103515625</ele>
        <time>2019-11-01T09:20:21.000Z</time>
      </trkpt>
      <trkpt lat="37.07573172636330127716064453125" lon="-4.62810781784355640411376953125">
        <ele>406.79998779296875</ele>
        <time>2019-11-01T09:20:27.000Z</time>
      </trkpt>
      <trkpt lat="37.07556157372891902923583984375" lon="-4.628189541399478912353515625">
        <ele>407</ele>
        <time>2019-11-01T09:20:32.000Z</time>
      </trkpt>
      <trkpt lat="37.07536124624311923980712890625" lon="-4.6282829158008098602294921875">
        <ele>407</ele>
        <time>2019-11-01T09:20:38.000Z</time>
      </trkpt>
      <trkpt lat="37.075166366994380950927734375" lon="-4.62837788276374340057373046875">
        <ele>407</ele>
        <time>2019-11-01T09:20:44.000Z</time>
      </trkpt>
      <trkpt lat="37.074964530766010284423828125" lon="-4.62845432572066783905029296875">
        <ele>407</ele>
        <time>2019-11-01T09:20:51.000Z</time>
      </trkpt>
      <trkpt lat="37.07476906478404998779296875" lon="-4.62855021469295024871826171875">
        <ele>406.600006103515625</ele>
        <time>2019-11-01T09:20:57.000Z</time>
      </trkpt>
      <trkpt lat="37.07458223216235637664794921875" lon="-4.62864023633301258087158203125">
        <ele>406</ele>
        <time>2019-11-01T09:21:03.000Z</time>
      </trkpt>
      <trkpt lat="37.07441342063248157501220703125" lon="-4.628725312650203704833984375">
        <ele>405</ele>
        <time>2019-11-01T09:21:09.000Z</time>
      </trkpt>
      <trkpt lat="37.07422901876270771026611328125" lon="-4.62881994433701038360595703125">
        <ele>404.399993896484375</ele>
        <time>2019-11-01T09:21:16.000Z</time>
      </trkpt>
      <trkpt lat="37.07405635155737400054931640625" lon="-4.6289259754121303558349609375">
        <ele>404</ele>
        <time>2019-11-01T09:21:23.000Z</time>
      </trkpt>
      <trkpt lat="37.0738686807453632354736328125" lon="-4.6290242113173007965087890625">
        <ele>405.20001220703125</ele>
        <time>2019-11-01T09:21:29.000Z</time>
      </trkpt>
      <trkpt lat="37.07367883063852787017822265625" lon="-4.62911750189960002899169921875">
        <ele>406.399993896484375</ele>
        <time>2019-11-01T09:21:35.000Z</time>
      </trkpt>
      <trkpt lat="37.07349794916808605194091796875" lon="-4.62921339087188243865966796875">
        <ele>407</ele>
        <time>2019-11-01T09:21:41.000Z</time>
      </trkpt>
      <trkpt lat="37.07331522367894649505615234375" lon="-4.6292860619723796844482421875">
        <ele>407</ele>
        <time>2019-11-01T09:21:47.000Z</time>
      </trkpt>
      <trkpt lat="37.07312629558145999908447265625" lon="-4.629356972873210906982421875">
        <ele>406.600006103515625</ele>
        <time>2019-11-01T09:21:53.000Z</time>
      </trkpt>
      <trkpt lat="37.072930745780467987060546875" lon="-4.62944221682846546173095703125">
        <ele>406</ele>
        <time>2019-11-01T09:21:59.000Z</time>
      </trkpt>
      <trkpt lat="37.07274894230067729949951171875" lon="-4.6295197494328022003173828125">
        <ele>406</ele>
        <time>2019-11-01T09:22:05.000Z</time>
      </trkpt>
      <trkpt lat="37.0725711621344089508056640625" lon="-4.6296028979122638702392578125">
        <ele>406</ele>
        <time>2019-11-01T09:22:11.000Z</time>
      </trkpt>
      <trkpt lat="37.072390951216220855712890625" lon="-4.62967741303145885467529296875">
        <ele>406</ele>
        <time>2019-11-01T09:22:17.000Z</time>
      </trkpt>
      <trkpt lat="37.07220076583325862884521484375" lon="-4.629771709442138671875">
        <ele>406.600006103515625</ele>
        <time>2019-11-01T09:22:23.000Z</time>
      </trkpt>
      <trkpt lat="37.072032876312732696533203125" lon="-4.62985980324447154998779296875">
        <ele>407</ele>
        <time>2019-11-01T09:22:29.000Z</time>
      </trkpt>
      <trkpt lat="37.0718553476035594940185546875" lon="-4.62995971553027629852294921875">
        <ele>407.20001220703125</ele>
        <time>2019-11-01T09:22:35.000Z</time>
      </trkpt>
      <trkpt lat="37.0716612227261066436767578125" lon="-4.63005342520773410797119140625">
        <ele>406.399993896484375</ele>
        <time>2019-11-01T09:22:41.000Z</time>
      </trkpt>
      <trkpt lat="37.07147531211376190185546875" lon="-4.6301430277526378631591796875">
        <ele>405.399993896484375</ele>
        <time>2019-11-01T09:22:47.000Z</time>
      </trkpt>
      <trkpt lat="37.0712815225124359130859375" lon="-4.6302449516952037811279296875">
        <ele>404.399993896484375</ele>
        <time>2019-11-01T09:22:53.000Z</time>
      </trkpt>
      <trkpt lat="37.07109552808105945587158203125" lon="-4.63034293614327907562255859375">
        <ele>404.600006103515625</ele>
        <time>2019-11-01T09:22:59.000Z</time>
      </trkpt>
      <trkpt lat="37.070914395153522491455078125" lon="-4.6304167807102203369140625">
        <ele>405.20001220703125</ele>
        <time>2019-11-01T09:23:06.000Z</time>
      </trkpt>
      <trkpt lat="37.07072236575186252593994140625" lon="-4.63047377765178680419921875">
        <ele>405.600006103515625</ele>
        <time>2019-11-01T09:23:12.000Z</time>
      </trkpt>
      <trkpt lat="37.07054500468075275421142578125" lon="-4.630516357719898223876953125">
        <ele>405.79998779296875</ele>
        <time>2019-11-01T09:23:17.000Z</time>
      </trkpt>
      <trkpt lat="37.07033679820597171783447265625" lon="-4.63056606240570545196533203125">
        <ele>406</ele>
        <time>2019-11-01T09:23:23.000Z</time>
      </trkpt>
      <trkpt lat="37.0701335370540618896484375" lon="-4.63062255643308162689208984375">
        <ele>406</ele>
        <time>2019-11-01T09:23:29.000Z</time>
      </trkpt>
      <trkpt lat="37.06994519568979740142822265625" lon="-4.630666561424732208251953125">
        <ele>406</ele>
        <time>2019-11-01T09:23:35.000Z</time>
      </trkpt>
      <trkpt lat="37.06975073553621768951416015625" lon="-4.63072867132723331451416015625">
        <ele>406.399993896484375</ele>
        <time>2019-11-01T09:23:41.000Z</time>
      </trkpt>
      <trkpt lat="37.0695399306714534759521484375" lon="-4.63078231550753116607666015625">
        <ele>406.399993896484375</ele>
        <time>2019-11-01T09:23:47.000Z</time>
      </trkpt>
      <trkpt lat="37.069361396133899688720703125" lon="-4.63082246482372283935546875">
        <ele>406</ele>
        <time>2019-11-01T09:23:52.000Z</time>
      </trkpt>
      <trkpt lat="37.0691821910440921783447265625" lon="-4.630869068205356597900390625">
        <ele>405.399993896484375</ele>
        <time>2019-11-01T09:23:57.000Z</time>
      </trkpt>
      <trkpt lat="37.0690041594207286834716796875" lon="-4.6309111453592777252197265625">
        <ele>404.79998779296875</ele>
        <time>2019-11-01T09:24:02.000Z</time>
      </trkpt>
      <trkpt lat="37.06879603676497936248779296875" lon="-4.63096059858798980712890625">
        <ele>404</ele>
        <time>2019-11-01T09:24:08.000Z</time>
      </trkpt>
      <trkpt lat="37.06860668957233428955078125" lon="-4.63100829161703586578369140625">
        <ele>405</ele>
        <time>2019-11-01T09:24:15.000Z</time>
      </trkpt>
      <trkpt lat="37.06840275786817073822021484375" lon="-4.63105858303606510162353515625">
        <ele>405.600006103515625</ele>
        <time>2019-11-01T09:24:22.000Z</time>
      </trkpt>
      <trkpt lat="37.06822137348353862762451171875" lon="-4.63111239485442638397216796875">
        <ele>406</ele>
        <time>2019-11-01T09:24:28.000Z</time>
      </trkpt>
      <trkpt lat="37.06803747452795505523681640625" lon="-4.63119118474423885345458984375">
        <ele>405.399993896484375</ele>
        <time>2019-11-01T09:24:34.000Z</time>
      </trkpt>
      <trkpt lat="37.0678427629172801971435546875" lon="-4.63128724135458469390869140625">
        <ele>404.600006103515625</ele>
        <time>2019-11-01T09:24:41.000Z</time>
      </trkpt>
      <trkpt lat="37.06767353229224681854248046875" lon="-4.63138430379331111907958984375">
        <ele>404</ele>
        <time>2019-11-01T09:24:47.000Z</time>
      </trkpt>
      <trkpt lat="37.06751075573265552520751953125" lon="-4.63148186914622783660888671875">
        <ele>403.79998779296875</ele>
        <time>2019-11-01T09:24:53.000Z</time>
      </trkpt>
      <trkpt lat="37.06732601858675479888916015625" lon="-4.631590582430362701416015625">
        <ele>403.399993896484375</ele>
        <time>2019-11-01T09:25:00.000Z</time>
      </trkpt>
      <trkpt lat="37.0671474002301692962646484375" lon="-4.63170583359897136688232421875">
        <ele>403</ele>
        <time>2019-11-01T09:25:07.000Z</time>
      </trkpt>
      <trkpt lat="37.0670945942401885986328125" lon="-4.63174522854387760162353515625">
        <ele>402.79998779296875</ele>
        <time>2019-11-01T09:25:10.000Z</time>
      </trkpt>
      <trkpt lat="37.0670857094228267669677734375" lon="-4.6317520178854465484619140625">
        <ele>402.79998779296875</ele>
        <time>2019-11-01T09:25:15.000Z</time>
      </trkpt>
      <trkpt lat="37.06698655150830745697021484375" lon="-4.6318593062460422515869140625">
        <ele>402.79998779296875</ele>
        <time>2019-11-01T09:26:26.000Z</time>
      </trkpt>
      <trkpt lat="37.0668037422001361846923828125" lon="-4.6319746412336826324462890625">
        <ele>403</ele>
        <time>2019-11-01T09:26:33.000Z</time>
      </trkpt>
      <trkpt lat="37.06663669086992740631103515625" lon="-4.63208184577524662017822265625">
        <ele>403.600006103515625</ele>
        <time>2019-11-01T09:26:39.000Z</time>
      </trkpt>
      <trkpt lat="37.06646754406392574310302734375" lon="-4.63221461512148380279541015625">
        <ele>404</ele>
        <time>2019-11-01T09:26:45.000Z</time>
      </trkpt>
      <trkpt lat="37.06630510278046131134033203125" lon="-4.6323712728917598724365234375">
        <ele>403.600006103515625</ele>
        <time>2019-11-01T09:26:51.000Z</time>
      </trkpt>
      <trkpt lat="37.06616730429232120513916015625" lon="-4.6325295232236385345458984375">
        <ele>403.399993896484375</ele>
        <time>2019-11-01T09:26:58.000Z</time>
      </trkpt>
      <trkpt lat="37.06602849997580051422119140625" lon="-4.63271166197955608367919921875">
        <ele>403.79998779296875</ele>
        <time>2019-11-01T09:27:04.000Z</time>
      </trkpt>
      <trkpt lat="37.06590578891336917877197265625" lon="-4.63289740495383739471435546875">
        <ele>404.399993896484375</ele>
        <time>2019-11-01T09:27:10.000Z</time>
      </trkpt>
      <trkpt lat="37.06579648889601230621337890625" lon="-4.6330860815942287445068359375">
        <ele>404.600006103515625</ele>
        <time>2019-11-01T09:27:16.000Z</time>
      </trkpt>
      <trkpt lat="37.06569909118115901947021484375" lon="-4.63328800164163112640380859375">
        <ele>405</ele>
        <time>2019-11-01T09:27:22.000Z</time>
      </trkpt>
      <trkpt lat="37.06560404039919376373291015625" lon="-4.63351733051240444183349609375">
        <ele>405</ele>
        <time>2019-11-01T09:27:28.000Z</time>
      </trkpt>
      <trkpt lat="37.0655313692986965179443359375" lon="-4.63373760692775249481201171875">
        <ele>405</ele>
        <time>2019-11-01T09:27:34.000Z</time>
      </trkpt>
      <trkpt lat="37.06546850502490997314453125" lon="-4.63397129438817501068115234375">
        <ele>405.20001220703125</ele>
        <time>2019-11-01T09:27:40.000Z</time>
      </trkpt>
      <trkpt lat="37.06541058607399463653564453125" lon="-4.63421554304659366607666015625">
        <ele>404.79998779296875</ele>
        <time>2019-11-01T09:27:46.000Z</time>
      </trkpt>
      <trkpt lat="37.0653654076159000396728515625" lon="-4.63447161018848419189453125">
        <ele>404.399993896484375</ele>
        <time>2019-11-01T09:27:52.000Z</time>
      </trkpt>
      <trkpt lat="37.0653318800032138824462890625" lon="-4.63473287411034107208251953125">
        <ele>403.79998779296875</ele>
        <time>2019-11-01T09:27:58.000Z</time>
      </trkpt>
      <trkpt lat="37.06532341428101062774658203125" lon="-4.6349911205470561981201171875">
        <ele>403.600006103515625</ele>
        <time>2019-11-01T09:28:04.000Z</time>
      </trkpt>
      <trkpt lat="37.06532928161323070526123046875" lon="-4.635235033929347991943359375">
        <ele>404</ele>
        <time>2019-11-01T09:28:10.000Z</time>
      </trkpt>
      <trkpt lat="37.06534185446798801422119140625" lon="-4.6354615129530429840087890625">
        <ele>404</ele>
        <time>2019-11-01T09:28:16.000Z</time>
      </trkpt>
      <trkpt lat="37.065346799790859222412109375" lon="-4.63570064865052700042724609375">
        <ele>404</ele>
        <time>2019-11-01T09:28:22.000Z</time>
      </trkpt>
      <trkpt lat="37.06535710953176021575927734375" lon="-4.63593148626387119293212890625">
        <ele>404</ele>
        <time>2019-11-01T09:28:28.000Z</time>
      </trkpt>
      <trkpt lat="37.06536549143493175506591796875" lon="-4.6361619047820568084716796875">
        <ele>403.20001220703125</ele>
        <time>2019-11-01T09:28:34.000Z</time>
      </trkpt>
      <trkpt lat="37.0653794892132282257080078125" lon="-4.6363962627947330474853515625">
        <ele>403</ele>
        <time>2019-11-01T09:28:41.000Z</time>
      </trkpt>
      <trkpt lat="37.0653808303177356719970703125" lon="-4.63639953173696994781494140625">
        <ele>403</ele>
        <time>2019-11-01T09:28:42.000Z</time>
      </trkpt>
      <trkpt lat="37.06538242287933826446533203125" lon="-4.63639802299439907073974609375">
        <ele>403</ele>
        <time>2019-11-01T09:28:46.000Z</time>
      </trkpt>
      <trkpt lat="37.0653922297060489654541015625" lon="-4.63651771657168865203857421875">
        <ele>403.399993896484375</ele>
        <time>2019-11-01T09:29:04.000Z</time>
      </trkpt>
      <trkpt lat="37.0653781481087207794189453125" lon="-4.6367493085563182830810546875">
        <ele>404</ele>
        <time>2019-11-01T09:29:10.000Z</time>
      </trkpt>
      <trkpt lat="37.06538510508835315704345703125" lon="-4.63698207400739192962646484375">
        <ele>404</ele>
        <time>2019-11-01T09:29:16.000Z</time>
      </trkpt>
      <trkpt lat="37.0653985999524593353271484375" lon="-4.637219868600368499755859375">
        <ele>403.79998779296875</ele>
        <time>2019-11-01T09:29:22.000Z</time>
      </trkpt>
      <trkpt lat="37.06539952196180820465087890625" lon="-4.63746805675327777862548828125">
        <ele>404.399993896484375</ele>
        <time>2019-11-01T09:29:29.000Z</time>
      </trkpt>
      <trkpt lat="37.0653868652880191802978515625" lon="-4.6377172507345676422119140625">
        <ele>404.79998779296875</ele>
        <time>2019-11-01T09:29:36.000Z</time>
      </trkpt>
      <trkpt lat="37.0653664134442806243896484375" lon="-4.63797851465642452239990234375">
        <ele>405</ele>
        <time>2019-11-01T09:29:43.000Z</time>
      </trkpt>
      <trkpt lat="37.0653288625180721282958984375" lon="-4.6382369287312030792236328125">
        <ele>405</ele>
        <time>2019-11-01T09:29:49.000Z</time>
      </trkpt>
      <trkpt lat="37.06528720445930957794189453125" lon="-4.6384598873555660247802734375">
        <ele>405</ele>
        <time>2019-11-01T09:29:54.000Z</time>
      </trkpt>
      <trkpt lat="37.06523020751774311065673828125" lon="-4.63871612213551998138427734375">
        <ele>405</ele>
        <time>2019-11-01T09:29:59.000Z</time>
      </trkpt>
      <trkpt lat="37.06515661440789699554443359375" lon="-4.63897093199193477630615234375">
        <ele>406</ele>
        <time>2019-11-01T09:30:04.000Z</time>
      </trkpt>
      <trkpt lat="37.06507849507033824920654296875" lon="-4.639200009405612945556640625">
        <ele>406</ele>
        <time>2019-11-01T09:30:09.000Z</time>
      </trkpt>
      <trkpt lat="37.06499886699020862579345703125" lon="-4.63943277485668659210205078125">
        <ele>405.20001220703125</ele>
        <time>2019-11-01T09:30:15.000Z</time>
      </trkpt>
      <trkpt lat="37.0648951828479766845703125" lon="-4.639655649662017822265625">
        <ele>404.399993896484375</ele>
        <time>2019-11-01T09:30:22.000Z</time>
      </trkpt>
      <trkpt lat="37.06479367800056934356689453125" lon="-4.639850445091724395751953125">
        <ele>403.600006103515625</ele>
        <time>2019-11-01T09:30:28.000Z</time>
      </trkpt>
      <trkpt lat="37.06467700190842151641845703125" lon="-4.64005655609071254730224609375">
        <ele>403</ele>
        <time>2019-11-01T09:30:34.000Z</time>
      </trkpt>
      <trkpt lat="37.06455521285533905029296875" lon="-4.640247412025928497314453125">
        <ele>402.399993896484375</ele>
        <time>2019-11-01T09:30:39.000Z</time>
      </trkpt>
      <trkpt lat="37.0644242875277996063232421875" lon="-4.6404403634369373321533203125">
        <ele>402.600006103515625</ele>
        <time>2019-11-01T09:30:44.000Z</time>
      </trkpt>
      <trkpt lat="37.0642881654202938079833984375" lon="-4.64062568731606006622314453125">
        <ele>402.79998779296875</ele>
        <time>2019-11-01T09:30:49.000Z</time>
      </trkpt>
      <trkpt lat="37.064160592854022979736328125" lon="-4.64081176556646823883056640625">
        <ele>402.399993896484375</ele>
        <time>2019-11-01T09:30:54.000Z</time>
      </trkpt>
      <trkpt lat="37.06403897143900394439697265625" lon="-4.6409892104566097259521484375">
        <ele>402</ele>
        <time>2019-11-01T09:31:00.000Z</time>
      </trkpt>
      <trkpt lat="37.0639072917401790618896484375" lon="-4.64118123985826969146728515625">
        <ele>402.399993896484375</ele>
        <time>2019-11-01T09:31:09.000Z</time>
      </trkpt>
      <trkpt lat="37.06377645023167133331298828125" lon="-4.6413610316812992095947265625">
        <ele>402.20001220703125</ele>
        <time>2019-11-01T09:31:15.000Z</time>
      </trkpt>
      <trkpt lat="37.06366346217691898345947265625" lon="-4.641538895666599273681640625">
        <ele>402</ele>
        <time>2019-11-01T09:31:20.000Z</time>
      </trkpt>
      <trkpt lat="37.0635284297168254852294921875" lon="-4.64173234999179840087890625">
        <ele>402</ele>
        <time>2019-11-01T09:31:26.000Z</time>
      </trkpt>
      <trkpt lat="37.0633829198777675628662109375" lon="-4.64192739687860012054443359375">
        <ele>402.399993896484375</ele>
        <time>2019-11-01T09:31:32.000Z</time>
      </trkpt>
      <trkpt lat="37.06326448358595371246337890625" lon="-4.64211414568126201629638671875">
        <ele>402.79998779296875</ele>
        <time>2019-11-01T09:31:37.000Z</time>
      </trkpt>
      <trkpt lat="37.06313590519130229949951171875" lon="-4.6422994695603847503662109375">
        <ele>402.79998779296875</ele>
        <time>2019-11-01T09:31:42.000Z</time>
      </trkpt>
      <trkpt lat="37.06299810670316219329833984375" lon="-4.64250524528324604034423828125">
        <ele>403.20001220703125</ele>
        <time>2019-11-01T09:31:48.000Z</time>
      </trkpt>
      <trkpt lat="37.062867768108844757080078125" lon="-4.64270473457872867584228515625">
        <ele>403.79998779296875</ele>
        <time>2019-11-01T09:31:54.000Z</time>
      </trkpt>
      <trkpt lat="37.0627467334270477294921875" lon="-4.642881341278553009033203125">
        <ele>403.79998779296875</ele>
        <time>2019-11-01T09:32:00.000Z</time>
      </trkpt>
      <trkpt lat="37.06262175925076007843017578125" lon="-4.64306096546351909637451171875">
        <ele>403.79998779296875</ele>
        <time>2019-11-01T09:32:06.000Z</time>
      </trkpt>
      <trkpt lat="37.06247675232589244842529296875" lon="-4.6432583592832088470458984375">
        <ele>403.399993896484375</ele>
        <time>2019-11-01T09:32:12.000Z</time>
      </trkpt>
      <trkpt lat="37.0623268000781536102294921875" lon="-4.64346145279705524444580078125">
        <ele>402.399993896484375</ele>
        <time>2019-11-01T09:32:18.000Z</time>
      </trkpt>
      <trkpt lat="37.06219813786447048187255859375" lon="-4.6436534821987152099609375">
        <ele>401.399993896484375</ele>
        <time>2019-11-01T09:32:24.000Z</time>
      </trkpt>
      <trkpt lat="37.062061093747615814208984375" lon="-4.64384886436164379119873046875">
        <ele>401.20001220703125</ele>
        <time>2019-11-01T09:32:31.000Z</time>
      </trkpt>
      <trkpt lat="37.06193611957132816314697265625" lon="-4.64403192512691020965576171875">
        <ele>401.600006103515625</ele>
        <time>2019-11-01T09:32:37.000Z</time>
      </trkpt>
      <trkpt lat="37.061800919473171234130859375" lon="-4.64420157484710216522216796875">
        <ele>402</ele>
        <time>2019-11-01T09:32:43.000Z</time>
      </trkpt>
      <trkpt lat="37.06167426891624927520751953125" lon="-4.6444066800177097320556640625">
        <ele>401.79998779296875</ele>
        <time>2019-11-01T09:32:49.000Z</time>
      </trkpt>
      <trkpt lat="37.061551474034786224365234375" lon="-4.6445823647081851959228515625">
        <ele>401.600006103515625</ele>
        <time>2019-11-01T09:32:54.000Z</time>
      </trkpt>
      <trkpt lat="37.06142918206751346588134765625" lon="-4.64476735331118106842041015625">
        <ele>401</ele>
        <time>2019-11-01T09:32:59.000Z</time>
      </trkpt>
      <trkpt lat="37.0613065548241138458251953125" lon="-4.64493432082235813140869140625">
        <ele>400.399993896484375</ele>
        <time>2019-11-01T09:33:04.000Z</time>
      </trkpt>
      <trkpt lat="37.0611781440675258636474609375" lon="-4.64509449899196624755859375">
        <ele>400.399993896484375</ele>
        <time>2019-11-01T09:33:09.000Z</time>
      </trkpt>
      <trkpt lat="37.0610239170491695404052734375" lon="-4.64526155032217502593994140625">
        <ele>401</ele>
        <time>2019-11-01T09:33:14.000Z</time>
      </trkpt>
      <trkpt lat="37.060847394168376922607421875" lon="-4.64542667381465435028076171875">
        <ele>401.20001220703125</ele>
        <time>2019-11-01T09:33:19.000Z</time>
      </trkpt>
      <trkpt lat="37.060658298432826995849609375" lon="-4.64557939209043979644775390625">
        <ele>401.20001220703125</ele>
        <time>2019-11-01T09:33:24.000Z</time>
      </trkpt>
      <trkpt lat="37.0604928396642208099365234375" lon="-4.6457025222480297088623046875">
        <ele>401.399993896484375</ele>
        <time>2019-11-01T09:33:28.000Z</time>
      </trkpt>
      <trkpt lat="37.06032042391598224639892578125" lon="-4.64581794105470180511474609375">
        <ele>401.600006103515625</ele>
        <time>2019-11-01T09:33:32.000Z</time>
      </trkpt>
      <trkpt lat="37.06012981943786144256591796875" lon="-4.64593227021396160125732421875">
        <ele>401.79998779296875</ele>
        <time>2019-11-01T09:33:37.000Z</time>
      </trkpt>
      <trkpt lat="37.05995329655706882476806640625" lon="-4.64605213142931461334228515625">
        <ele>401.20001220703125</ele>
        <time>2019-11-01T09:33:42.000Z</time>
      </trkpt>
      <trkpt lat="37.05975799821317195892333984375" lon="-4.646175764501094818115234375">
        <ele>400.399993896484375</ele>
        <time>2019-11-01T09:33:47.000Z</time>
      </trkpt>
      <trkpt lat="37.0596486143767833709716796875" lon="-4.646239466965198516845703125">
        <ele>399.79998779296875</ele>
        <time>2019-11-01T09:33:50.000Z</time>
      </trkpt>
      <trkpt lat="37.0594638772308826446533203125" lon="-4.64635916054248809814453125">
        <ele>399.20001220703125</ele>
        <time>2019-11-01T09:33:56.000Z</time>
      </trkpt>
      <trkpt lat="37.059291042387485504150390625" lon="-4.6464773453772068023681640625">
        <ele>399</ele>
        <time>2019-11-01T09:34:01.000Z</time>
      </trkpt>
      <trkpt lat="37.05911032855510711669921875" lon="-4.64659695513546466827392578125">
        <ele>399.399993896484375</ele>
        <time>2019-11-01T09:34:06.000Z</time>
      </trkpt>
      <trkpt lat="37.0589301176369190216064453125" lon="-4.64670876972377300262451171875">
        <ele>399.399993896484375</ele>
        <time>2019-11-01T09:34:11.000Z</time>
      </trkpt>
      <trkpt lat="37.0587406866252422332763671875" lon="-4.64682293124496936798095703125">
        <ele>399.600006103515625</ele>
        <time>2019-11-01T09:34:17.000Z</time>
      </trkpt>
      <trkpt lat="37.0585522614419460296630859375" lon="-4.64695134200155735015869140625">
        <ele>399.20001220703125</ele>
        <time>2019-11-01T09:34:22.000Z</time>
      </trkpt>
      <trkpt lat="37.0583584718406200408935546875" lon="-4.647068269550800323486328125">
        <ele>399</ele>
        <time>2019-11-01T09:34:28.000Z</time>
      </trkpt>
      <trkpt lat="37.05817381851375102996826171875" lon="-4.6471965126693248748779296875">
        <ele>398.79998779296875</ele>
        <time>2019-11-01T09:34:33.000Z</time>
      </trkpt>
      <trkpt lat="37.05801506526768207550048828125" lon="-4.64730463922023773193359375">
        <ele>397.600006103515625</ele>
        <time>2019-11-01T09:34:37.000Z</time>
      </trkpt>
      <trkpt lat="37.05785430036485195159912109375" lon="-4.64741234667599201202392578125">
        <ele>397.20001220703125</ele>
        <time>2019-11-01T09:34:41.000Z</time>
      </trkpt>
      <trkpt lat="37.057686746120452880859375" lon="-4.64750052429735660552978515625">
        <ele>397.79998779296875</ele>
        <time>2019-11-01T09:34:45.000Z</time>
      </trkpt>
      <trkpt lat="37.05752673558890819549560546875" lon="-4.64760504662990570068359375">
        <ele>399</ele>
        <time>2019-11-01T09:34:49.000Z</time>
      </trkpt>
      <trkpt lat="37.057329677045345306396484375" lon="-4.64773706160485744476318359375">
        <ele>400</ele>
        <time>2019-11-01T09:34:54.000Z</time>
      </trkpt>
      <trkpt lat="37.05715843476355075836181640625" lon="-4.6478452719748020172119140625">
        <ele>400</ele>
        <time>2019-11-01T09:34:58.000Z</time>
      </trkpt>
      <trkpt lat="37.0570012740790843963623046875" lon="-4.647959433495998382568359375">
        <ele>399.399993896484375</ele>
        <time>2019-11-01T09:35:02.000Z</time>
      </trkpt>
      <trkpt lat="37.05689691938459873199462890625" lon="-4.64802204631268978118896484375">
        <ele>399.20001220703125</ele>
        <time>2019-11-01T09:35:05.000Z</time>
      </trkpt>
      <trkpt lat="37.0568239130079746246337890625" lon="-4.64807485230267047882080078125">
        <ele>399</ele>
        <time>2019-11-01T09:35:07.000Z</time>
      </trkpt>
      <trkpt lat="37.05662836320698261260986328125" lon="-4.6481976471841335296630859375">
        <ele>399</ele>
        <time>2019-11-01T09:35:12.000Z</time>
      </trkpt>
      <trkpt lat="37.05654613673686981201171875" lon="-4.64824550785124301910400390625">
        <ele>399</ele>
        <time>2019-11-01T09:35:14.000Z</time>
      </trkpt>
      <trkpt lat="37.05638126470148563385009765625" lon="-4.6483553946018218994140625">
        <ele>399</ele>
        <time>2019-11-01T09:35:18.000Z</time>
      </trkpt>
      <trkpt lat="37.056220583617687225341796875" lon="-4.64846670627593994140625">
        <ele>398.600006103515625</ele>
        <time>2019-11-01T09:35:22.000Z</time>
      </trkpt>
      <trkpt lat="37.05603023059666156768798828125" lon="-4.6485962904989719390869140625">
        <ele>398.20001220703125</ele>
        <time>2019-11-01T09:35:27.000Z</time>
      </trkpt>
      <trkpt lat="37.055973149836063385009765625" lon="-4.6486472524702548980712890625">
        <ele>398</ele>
        <time>2019-11-01T09:35:29.000Z</time>
      </trkpt>
      <trkpt lat="37.05582487396895885467529296875" lon="-4.64879401959478855133056640625">
        <ele>398</ele>
        <time>2019-11-01T09:35:34.000Z</time>
      </trkpt>
      <trkpt lat="37.0556588284671306610107421875" lon="-4.64897741563618183135986328125">
        <ele>398</ele>
        <time>2019-11-01T09:35:39.000Z</time>
      </trkpt>
      <trkpt lat="37.055519521236419677734375" lon="-4.6491779945790767669677734375">
        <ele>398</ele>
        <time>2019-11-01T09:35:44.000Z</time>
      </trkpt>
      <trkpt lat="37.05543042160570621490478515625" lon="-4.64934219606220722198486328125">
        <ele>397.600006103515625</ele>
        <time>2019-11-01T09:35:48.000Z</time>
      </trkpt>
      <trkpt lat="37.0553755201399326324462890625" lon="-4.64946909807622432708740234375">
        <ele>397</ele>
        <time>2019-11-01T09:35:51.000Z</time>
      </trkpt>
      <trkpt lat="37.05527837388217449188232421875" lon="-4.6496869437396526336669921875">
        <ele>397</ele>
        <time>2019-11-01T09:35:56.000Z</time>
      </trkpt>
      <trkpt lat="37.0552598498761653900146484375" lon="-4.6497260034084320068359375">
        <ele>397</ele>
        <time>2019-11-01T09:35:57.000Z</time>
      </trkpt>
      <trkpt lat="37.055168487131595611572265625" lon="-4.6499347127974033355712890625">
        <ele>397</ele>
        <time>2019-11-01T09:36:02.000Z</time>
      </trkpt>
      <trkpt lat="37.05509413965046405792236328125" lon="-4.65010075829923152923583984375">
        <ele>397</ele>
        <time>2019-11-01T09:36:06.000Z</time>
      </trkpt>
      <trkpt lat="37.0550006814301013946533203125" lon="-4.65032388456165790557861328125">
        <ele>397</ele>
        <time>2019-11-01T09:36:11.000Z</time>
      </trkpt>
      <trkpt lat="37.05489699728786945343017578125" lon="-4.650547094643115997314453125">
        <ele>397</ele>
        <time>2019-11-01T09:36:16.000Z</time>
      </trkpt>
      <trkpt lat="37.05480538308620452880859375" lon="-4.6507695503532886505126953125">
        <ele>396.600006103515625</ele>
        <time>2019-11-01T09:36:21.000Z</time>
      </trkpt>
      <trkpt lat="37.05470337532460689544677734375" lon="-4.6509801037609577178955078125">
        <ele>396.600006103515625</ele>
        <time>2019-11-01T09:36:26.000Z</time>
      </trkpt>
      <trkpt lat="37.0545960031449794769287109375" lon="-4.6512198261916637420654296875">
        <ele>397.20001220703125</ele>
        <time>2019-11-01T09:36:31.000Z</time>
      </trkpt>
      <trkpt lat="37.0544940792024135589599609375" lon="-4.65146332047879695892333984375">
        <ele>398.20001220703125</ele>
        <time>2019-11-01T09:36:36.000Z</time>
      </trkpt>
      <trkpt lat="37.05439944751560688018798828125" lon="-4.6516861952841281890869140625">
        <ele>398.79998779296875</ele>
        <time>2019-11-01T09:36:41.000Z</time>
      </trkpt>
      <trkpt lat="37.054307498037815093994140625" lon="-4.65190236456692218780517578125">
        <ele>399</ele>
        <time>2019-11-01T09:36:46.000Z</time>
      </trkpt>
      <trkpt lat="37.05424773506820201873779296875" lon="-4.652038402855396270751953125">
        <ele>398.399993896484375</ele>
        <time>2019-11-01T09:36:49.000Z</time>
      </trkpt>
      <trkpt lat="37.054147236049175262451171875" lon="-4.6522668935358524322509765625">
        <ele>397.399993896484375</ele>
        <time>2019-11-01T09:36:55.000Z</time>
      </trkpt>
      <trkpt lat="37.0540511794388294219970703125" lon="-4.6524848230183124542236328125">
        <ele>397</ele>
        <time>2019-11-01T09:37:00.000Z</time>
      </trkpt>
      <trkpt lat="37.05401438288390636444091796875" lon="-4.6525847353041172027587890625">
        <ele>397.20001220703125</ele>
        <time>2019-11-01T09:37:03.000Z</time>
      </trkpt>
      <trkpt lat="37.05402930267155170440673828125" lon="-4.6525740064680576324462890625">
        <ele>397.20001220703125</ele>
        <time>2019-11-01T09:37:08.000Z</time>
      </trkpt>
      <trkpt lat="37.05407322384417057037353515625" lon="-4.65246579609811305999755859375">
        <ele>397.20001220703125</ele>
        <time>2019-11-01T09:37:13.000Z</time>
      </trkpt>
      <trkpt lat="37.05417296849191188812255859375" lon="-4.65223143808543682098388671875">
        <ele>397.600006103515625</ele>
        <time>2019-11-01T09:37:19.000Z</time>
      </trkpt>
      <trkpt lat="37.05426868982613086700439453125" lon="-4.6520191244781017303466796875">
        <ele>398.600006103515625</ele>
        <time>2019-11-01T09:37:24.000Z</time>
      </trkpt>
      <trkpt lat="37.05434462986886501312255859375" lon="-4.6518712677061557769775390625">
        <ele>399</ele>
        <time>2019-11-01T09:37:29.000Z</time>
      </trkpt>
      <trkpt lat="37.05449382774531841278076171875" lon="-4.65193103067576885223388671875">
        <ele>398.399993896484375</ele>
        <time>2019-11-01T09:37:35.000Z</time>
      </trkpt>
      <trkpt lat="37.05453691072762012481689453125" lon="-4.65201728045940399169921875">
        <ele>398.20001220703125</ele>
        <time>2019-11-01T09:37:38.000Z</time>
      </trkpt>
      <trkpt lat="37.05445812083780765533447265625" lon="-4.65225574560463428497314453125">
        <ele>398</ele>
        <time>2019-11-01T09:37:45.000Z</time>
      </trkpt>
      <trkpt lat="37.05435812473297119140625" lon="-4.6524704061448574066162109375">
        <ele>398.79998779296875</ele>
        <time>2019-11-01T09:37:51.000Z</time>
      </trkpt>
      <trkpt lat="37.05425594933331012725830078125" lon="-4.652682803571224212646484375">
        <ele>399</ele>
        <time>2019-11-01T09:37:56.000Z</time>
      </trkpt>
      <trkpt lat="37.05415067262947559356689453125" lon="-4.652900062501430511474609375">
        <ele>399</ele>
        <time>2019-11-01T09:38:02.000Z</time>
      </trkpt>
      <trkpt lat="37.054047323763370513916015625" lon="-4.653103239834308624267578125">
        <ele>399</ele>
        <time>2019-11-01T09:38:08.000Z</time>
      </trkpt>
      <trkpt lat="37.0539517700672149658203125" lon="-4.65333826839923858642578125">
        <ele>400.399993896484375</ele>
        <time>2019-11-01T09:38:14.000Z</time>
      </trkpt>
      <trkpt lat="37.05390307120978832244873046875" lon="-4.6535898931324481964111328125">
        <ele>401.600006103515625</ele>
        <time>2019-11-01T09:38:20.000Z</time>
      </trkpt>
      <trkpt lat="37.0538101159036159515380859375" lon="-4.6538084931671619415283203125">
        <ele>401.79998779296875</ele>
        <time>2019-11-01T09:38:26.000Z</time>
      </trkpt>
      <trkpt lat="37.0537185855209827423095703125" lon="-4.65401443652808666229248046875">
        <ele>402</ele>
        <time>2019-11-01T09:38:32.000Z</time>
      </trkpt>
      <trkpt lat="37.05367483198642730712890625" lon="-4.65423404239118099212646484375">
        <ele>402.399993896484375</ele>
        <time>2019-11-01T09:38:39.000Z</time>
      </trkpt>
      <trkpt lat="37.05352588556706905364990234375" lon="-4.6543992497026920318603515625">
        <ele>401.20001220703125</ele>
        <time>2019-11-01T09:38:47.000Z</time>
      </trkpt>
      <trkpt lat="37.053332515060901641845703125" lon="-4.65448516421020030975341796875">
        <ele>399.79998779296875</ele>
        <time>2019-11-01T09:38:53.000Z</time>
      </trkpt>
      <trkpt lat="37.05315842293202877044677734375" lon="-4.65457166545093059539794921875">
        <ele>398.600006103515625</ele>
        <time>2019-11-01T09:38:58.000Z</time>
      </trkpt>
      <trkpt lat="37.0529766194522380828857421875" lon="-4.654660262167453765869140625">
        <ele>397.399993896484375</ele>
        <time>2019-11-01T09:39:03.000Z</time>
      </trkpt>
      <trkpt lat="37.052783332765102386474609375" lon="-4.65475447475910186767578125">
        <ele>396.399993896484375</ele>
        <time>2019-11-01T09:39:08.000Z</time>
      </trkpt>
      <trkpt lat="37.0525789819657802581787109375" lon="-4.65485564433038234710693359375">
        <ele>396.600006103515625</ele>
        <time>2019-11-01T09:39:13.000Z</time>
      </trkpt>
      <trkpt lat="37.05238795839250087738037109375" lon="-4.654964692890644073486328125">
        <ele>397.399993896484375</ele>
        <time>2019-11-01T09:39:18.000Z</time>
      </trkpt>
      <trkpt lat="37.05221512354910373687744140625" lon="-4.65505043976008892059326171875">
        <ele>398</ele>
        <time>2019-11-01T09:39:23.000Z</time>
      </trkpt>
      <trkpt lat="37.0520214177668094635009765625" lon="-4.65515772812068462371826171875">
        <ele>398.79998779296875</ele>
        <time>2019-11-01T09:39:29.000Z</time>
      </trkpt>
      <trkpt lat="37.05185319297015666961669921875" lon="-4.65525361709296703338623046875">
        <ele>399.600006103515625</ele>
        <time>2019-11-01T09:39:34.000Z</time>
      </trkpt>
      <trkpt lat="37.05167951993644237518310546875" lon="-4.655391834676265716552734375">
        <ele>399.79998779296875</ele>
        <time>2019-11-01T09:39:40.000Z</time>
      </trkpt>
      <trkpt lat="37.05167851410806179046630859375" lon="-4.65564287267625331878662109375">
        <ele>400.399993896484375</ele>
        <time>2019-11-01T09:39:46.000Z</time>
      </trkpt>
      <trkpt lat="37.05173693597316741943359375" lon="-4.65587354265153408050537109375">
        <ele>400.79998779296875</ele>
        <time>2019-11-01T09:39:51.000Z</time>
      </trkpt>
      <trkpt lat="37.0518044941127300262451171875" lon="-4.6561242453753948211669921875">
        <ele>399.20001220703125</ele>
        <time>2019-11-01T09:39:57.000Z</time>
      </trkpt>
      <trkpt lat="37.05186040140688419342041015625" lon="-4.65621351264417171478271484375">
        <ele>398.79998779296875</ele>
        <time>2019-11-01T09:40:00.000Z</time>
      </trkpt>
      <trkpt lat="37.05201462842524051666259765625" lon="-4.6563629619777202606201171875">
        <ele>397.79998779296875</ele>
        <time>2019-11-01T09:40:07.000Z</time>
      </trkpt>
      <trkpt lat="37.0520499162375926971435546875" lon="-4.65661282651126384735107421875">
        <ele>395.20001220703125</ele>
        <time>2019-11-01T09:40:15.000Z</time>
      </trkpt>
      <trkpt lat="37.0519939251244068145751953125" lon="-4.65683427639305591583251953125">
        <ele>395.20001220703125</ele>
        <time>2019-11-01T09:40:24.000Z</time>
      </trkpt>
      <trkpt lat="37.05199166201055049896240234375" lon="-4.65683880262076854705810546875">
        <ele>395.20001220703125</ele>
        <time>2019-11-01T09:40:25.000Z</time>
      </trkpt>
      <trkpt lat="37.05199384130537509918212890625" lon="-4.6568370424211025238037109375">
        <ele>395.20001220703125</ele>
        <time>2019-11-01T09:40:28.000Z</time>
      </trkpt>
      <trkpt lat="37.05199887044727802276611328125" lon="-4.65707181952893733978271484375">
        <ele>396.600006103515625</ele>
        <time>2019-11-01T09:41:17.000Z</time>
      </trkpt>
      <trkpt lat="37.05204949714243412017822265625" lon="-4.65728170238435268402099609375">
        <ele>397.600006103515625</ele>
        <time>2019-11-01T09:41:25.000Z</time>
      </trkpt>
      <trkpt lat="37.05187917686998844146728515625" lon="-4.657390750944614410400390625">
        <ele>400.79998779296875</ele>
        <time>2019-11-01T09:41:32.000Z</time>
      </trkpt>
      <trkpt lat="37.05179736949503421783447265625" lon="-4.65760692022740840911865234375">
        <ele>403.20001220703125</ele>
        <time>2019-11-01T09:41:39.000Z</time>
      </trkpt>
      <trkpt lat="37.05179854296147823333740234375" lon="-4.657665006816387176513671875">
        <ele>403.399993896484375</ele>
        <time>2019-11-01T09:41:41.000Z</time>
      </trkpt>
      <trkpt lat="37.05185822211205959320068359375" lon="-4.65788134373724460601806640625">
        <ele>404</ele>
        <time>2019-11-01T09:41:48.000Z</time>
      </trkpt>
      <trkpt lat="37.051859982311725616455078125" lon="-4.65812324546277523040771484375">
        <ele>404.600006103515625</ele>
        <time>2019-11-01T09:41:56.000Z</time>
      </trkpt>
      <trkpt lat="37.05186660401523113250732421875" lon="-4.65821326710283756256103515625">
        <ele>404.20001220703125</ele>
        <time>2019-11-01T09:41:59.000Z</time>
      </trkpt>
      <trkpt lat="37.0518108643591403961181640625" lon="-4.65822248719632625579833984375">
        <ele>404.600006103515625</ele>
        <time>2019-11-01T09:42:03.000Z</time>
      </trkpt>
      <trkpt lat="37.0518098585307598114013671875" lon="-4.6582143567502498626708984375">
        <ele>404.600006103515625</ele>
        <time>2019-11-01T09:42:07.000Z</time>
      </trkpt>
      <trkpt lat="37.05183659680187702178955078125" lon="-4.6581741236150264739990234375">
        <ele>404.600006103515625</ele>
        <time>2019-11-01T09:47:35.000Z</time>
      </trkpt>
      <trkpt lat="37.05183357931673526763916015625" lon="-4.658171273767948150634765625">
        <ele>404.600006103515625</ele>
        <time>2019-11-01T09:47:36.000Z</time>
      </trkpt>
      <trkpt lat="37.05164096318185329437255859375" lon="-4.65791822411119937896728515625">
        <ele>404</ele>
        <time>2019-11-01T09:51:16.000Z</time>
      </trkpt>
      <trkpt lat="37.05164129845798015594482421875" lon="-4.657912440598011016845703125">
        <ele>404</ele>
        <time>2019-11-01T09:51:17.000Z</time>
      </trkpt>
      <trkpt lat="37.05159218050539493560791015625" lon="-4.65806373395025730133056640625">
        <ele>404</ele>
        <time>2019-11-01T09:53:24.000Z</time>
      </trkpt>
      <trkpt lat="37.051535435020923614501953125" lon="-4.6580569446086883544921875">
        <ele>404</ele>
        <time>2019-11-01T09:53:29.000Z</time>
      </trkpt>
      <trkpt lat="37.05147533677518367767333984375" lon="-4.65806390158832073211669921875">
        <ele>403.600006103515625</ele>
        <time>2019-11-01T09:53:36.000Z</time>
      </trkpt>
      <trkpt lat="37.051580362021923065185546875" lon="-4.658020399510860443115234375">
        <ele>404</ele>
        <time>2019-11-01T09:54:12.000Z</time>
      </trkpt>
      <trkpt lat="37.05158245749771595001220703125" lon="-4.6580215729773044586181640625">
        <ele>404</ele>
        <time>2019-11-01T09:54:13.000Z</time>
      </trkpt>
      <trkpt lat="37.05189895816147327423095703125" lon="-4.6579377539455890655517578125">
        <ele>404.20001220703125</ele>
        <time>2019-11-01T09:57:54.000Z</time>
      </trkpt>
      <trkpt lat="37.05184078775346279144287109375" lon="-4.65789944864809513092041015625">
        <ele>404.20001220703125</ele>
        <time>2019-11-01T09:58:06.000Z</time>
      </trkpt>
      <trkpt lat="37.05181027762591838836669921875" lon="-4.65801595710217952728271484375">
        <ele>404.600006103515625</ele>
        <time>2019-11-01T09:59:06.000Z</time>
      </trkpt>
      <trkpt lat="37.0518353395164012908935546875" lon="-4.65803389437496662139892578125">
        <ele>404.79998779296875</ele>
        <time>2019-11-01T09:59:11.000Z</time>
      </trkpt>
      <trkpt lat="37.05193382687866687774658203125" lon="-4.6581727825105190277099609375">
        <ele>404</ele>
        <time>2019-11-01T09:59:56.000Z</time>
      </trkpt>
      <trkpt lat="37.0519523508846759796142578125" lon="-4.658222235739231109619140625">
        <ele>403.600006103515625</ele>
        <time>2019-11-01T10:00:01.000Z</time>
      </trkpt>
      <trkpt lat="37.051951847970485687255859375" lon="-4.6582267619669437408447265625">
        <ele>403.600006103515625</ele>
        <time>2019-11-01T10:00:02.000Z</time>
      </trkpt>
      <trkpt lat="37.05193500034511089324951171875" lon="-4.65823304839432239532470703125">
        <ele>403.600006103515625</ele>
        <time>2019-11-01T10:00:06.000Z</time>
      </trkpt>
      <trkpt lat="37.05197506584227085113525390625" lon="-4.6582193858921527862548828125">
        <ele>403.399993896484375</ele>
        <time>2019-11-01T10:00:39.000Z</time>
      </trkpt>
      <trkpt lat="37.05197791568934917449951171875" lon="-4.65820957906544208526611328125">
        <ele>403.399993896484375</ele>
        <time>2019-11-01T10:00:44.000Z</time>
      </trkpt>
      <trkpt lat="37.0520398579537868499755859375" lon="-4.65825249440968036651611328125">
        <ele>402.79998779296875</ele>
        <time>2019-11-01T10:00:51.000Z</time>
      </trkpt>
      <trkpt lat="37.052120156586170196533203125" lon="-4.658330194652080535888671875">
        <ele>402</ele>
        <time>2019-11-01T10:00:56.000Z</time>
      </trkpt>
      <trkpt lat="37.05225217156112194061279296875" lon="-4.6585142612457275390625">
        <ele>400.79998779296875</ele>
        <time>2019-11-01T10:01:06.000Z</time>
      </trkpt>
      <trkpt lat="37.05231587402522563934326171875" lon="-4.658661782741546630859375">
        <ele>400.399993896484375</ele>
        <time>2019-11-01T10:01:13.000Z</time>
      </trkpt>
      <trkpt lat="37.05224655568599700927734375" lon="-4.65856547467410564422607421875">
        <ele>401</ele>
        <time>2019-11-01T10:01:20.000Z</time>
      </trkpt>
      <trkpt lat="37.05212183296680450439453125" lon="-4.65839867480099201202392578125">
        <ele>401.79998779296875</ele>
        <time>2019-11-01T10:01:30.000Z</time>
      </trkpt>
      <trkpt lat="37.0519617386162281036376953125" lon="-4.658278562128543853759765625">
        <ele>403.399993896484375</ele>
        <time>2019-11-01T10:01:42.000Z</time>
      </trkpt>
      <trkpt lat="37.0519000478088855743408203125" lon="-4.65824360959231853485107421875">
        <ele>404</ele>
        <time>2019-11-01T10:01:47.000Z</time>
      </trkpt>
      <trkpt lat="37.05187230370938777923583984375" lon="-4.65821452438831329345703125">
        <ele>404.20001220703125</ele>
        <time>2019-11-01T10:01:51.000Z</time>
      </trkpt>
      <trkpt lat="37.05180105753242969512939453125" lon="-4.65817940421402454376220703125">
        <ele>404.600006103515625</ele>
        <time>2019-11-01T10:01:57.000Z</time>
      </trkpt>
      <trkpt lat="37.05176786519587039947509765625" lon="-4.6581707708537578582763671875">
        <ele>404.600006103515625</ele>
        <time>2019-11-01T10:02:00.000Z</time>
      </trkpt>
      <trkpt lat="37.05174372531473636627197265625" lon="-4.65819583274424076080322265625">
        <ele>404.399993896484375</ele>
        <time>2019-11-01T10:02:05.000Z</time>
      </trkpt>
      <trkpt lat="37.05175462178885936737060546875" lon="-4.65800690464675426483154296875">
        <ele>404.399993896484375</ele>
        <time>2019-11-01T10:09:51.000Z</time>
      </trkpt>
      <trkpt lat="37.0516817830502986907958984375" lon="-4.65796868316829204559326171875">
        <ele>404</ele>
        <time>2019-11-01T10:09:58.000Z</time>
      </trkpt>
      <trkpt lat="37.051769793033599853515625" lon="-4.6579796634614467620849609375">
        <ele>404.399993896484375</ele>
        <time>2019-11-01T10:09:59.000Z</time>
      </trkpt>
      <trkpt lat="37.05177004449069499969482421875" lon="-4.65800807811319828033447265625">
        <ele>404.399993896484375</ele>
        <time>2019-11-01T10:10:01.000Z</time>
      </trkpt>
      <trkpt lat="37.05174825154244899749755859375" lon="-4.6581563539803028106689453125">
        <ele>404.600006103515625</ele>
        <time>2019-11-01T10:10:05.000Z</time>
      </trkpt>
      <trkpt lat="37.05179996788501739501953125" lon="-4.65817269869148731231689453125">
        <ele>404.600006103515625</ele>
        <time>2019-11-01T10:10:06.000Z</time>
      </trkpt>
      <trkpt lat="37.05198780633509159088134765625" lon="-4.65826909057796001434326171875">
        <ele>403.20001220703125</ele>
        <time>2019-11-01T10:10:14.000Z</time>
      </trkpt>
      <trkpt lat="37.05212376080453395843505859375" lon="-4.6584000997245311737060546875">
        <ele>401.79998779296875</ele>
        <time>2019-11-01T10:10:20.000Z</time>
      </trkpt>
      <trkpt lat="37.052233479917049407958984375" lon="-4.65857704170048236846923828125">
        <ele>401</ele>
        <time>2019-11-01T10:10:28.000Z</time>
      </trkpt>
      <trkpt lat="37.0523070730268955230712890625" lon="-4.65879262425005435943603515625">
        <ele>400.399993896484375</ele>
        <time>2019-11-01T10:10:39.000Z</time>
      </trkpt>
      <trkpt lat="37.05233934335410594940185546875" lon="-4.65898356400430202484130859375">
        <ele>400.79998779296875</ele>
        <time>2019-11-01T10:10:49.000Z</time>
      </trkpt>
      <trkpt lat="37.05233045853674411773681640625" lon="-4.65897551737725734710693359375">
        <ele>400.79998779296875</ele>
        <time>2019-11-01T10:10:52.000Z</time>
      </trkpt>
      <trkpt lat="37.0523915626108646392822265625" lon="-4.65906822122633457183837890625">
        <ele>400.600006103515625</ele>
        <time>2019-11-01T10:11:46.000Z</time>
      </trkpt>
      <trkpt lat="37.052509747445583343505859375" lon="-4.65923820622265338897705078125">
        <ele>400.399993896484375</ele>
        <time>2019-11-01T10:11:53.000Z</time>
      </trkpt>
      <trkpt lat="37.05254604108631610870361328125" lon="-4.65945965610444545745849609375">
        <ele>399.79998779296875</ele>
        <time>2019-11-01T10:11:58.000Z</time>
      </trkpt>
      <trkpt lat="37.0525920577347278594970703125" lon="-4.65970122255384922027587890625">
        <ele>399.79998779296875</ele>
        <time>2019-11-01T10:12:03.000Z</time>
      </trkpt>
      <trkpt lat="37.0526302792131900787353515625" lon="-4.65994589030742645263671875">
        <ele>401.20001220703125</ele>
        <time>2019-11-01T10:12:08.000Z</time>
      </trkpt>
      <trkpt lat="37.05266573466360569000244140625" lon="-4.660203047096729278564453125">
        <ele>402.600006103515625</ele>
        <time>2019-11-01T10:12:13.000Z</time>
      </trkpt>
      <trkpt lat="37.0527030341327190399169921875" lon="-4.6604727767407894134521484375">
        <ele>403.20001220703125</ele>
        <time>2019-11-01T10:12:18.000Z</time>
      </trkpt>
      <trkpt lat="37.052735388278961181640625" lon="-4.66073621995747089385986328125">
        <ele>402.20001220703125</ele>
        <time>2019-11-01T10:12:23.000Z</time>
      </trkpt>
      <trkpt lat="37.05275977961719036102294921875" lon="-4.66100133955478668212890625">
        <ele>400.79998779296875</ele>
        <time>2019-11-01T10:12:28.000Z</time>
      </trkpt>
      <trkpt lat="37.05279615707695484161376953125" lon="-4.661269895732402801513671875">
        <ele>400</ele>
        <time>2019-11-01T10:12:33.000Z</time>
      </trkpt>
      <trkpt lat="37.0528227277100086212158203125" lon="-4.6615416370332241058349609375">
        <ele>400</ele>
        <time>2019-11-01T10:12:38.000Z</time>
      </trkpt>
      <trkpt lat="37.05284611321985721588134765625" lon="-4.66176719404757022857666015625">
        <ele>401.399993896484375</ele>
        <time>2019-11-01T10:12:42.000Z</time>
      </trkpt>
      <trkpt lat="37.052869834005832672119140625" lon="-4.66199518181383609771728515625">
        <ele>402.399993896484375</ele>
        <time>2019-11-01T10:12:46.000Z</time>
      </trkpt>
      <trkpt lat="37.0528896152973175048828125" lon="-4.66222350485622882843017578125">
        <ele>402.600006103515625</ele>
        <time>2019-11-01T10:12:50.000Z</time>
      </trkpt>
      <trkpt lat="37.05291249789297580718994140625" lon="-4.66245199553668498992919921875">
        <ele>402.20001220703125</ele>
        <time>2019-11-01T10:12:54.000Z</time>
      </trkpt>
      <trkpt lat="37.05294334329664707183837890625" lon="-4.6626812405884265899658203125">
        <ele>401.600006103515625</ele>
        <time>2019-11-01T10:12:58.000Z</time>
      </trkpt>
      <trkpt lat="37.05297267995774745941162109375" lon="-4.66290964744985103607177734375">
        <ele>400.79998779296875</ele>
        <time>2019-11-01T10:13:02.000Z</time>
      </trkpt>
      <trkpt lat="37.05300184898078441619873046875" lon="-4.66313838958740234375">
        <ele>400.600006103515625</ele>
        <time>2019-11-01T10:13:06.000Z</time>
      </trkpt>
      <trkpt lat="37.0530316047370433807373046875" lon="-4.66336595825850963592529296875">
        <ele>401.600006103515625</ele>
        <time>2019-11-01T10:13:10.000Z</time>
      </trkpt>
      <trkpt lat="37.05305784009397029876708984375" lon="-4.66359042562544345855712890625">
        <ele>402.600006103515625</ele>
        <time>2019-11-01T10:13:14.000Z</time>
      </trkpt>
      <trkpt lat="37.05308633856475353240966796875" lon="-4.6638148091733455657958984375">
        <ele>403.399993896484375</ele>
        <time>2019-11-01T10:13:18.000Z</time>
      </trkpt>
      <trkpt lat="37.05311349593102931976318359375" lon="-4.6640374325215816497802734375">
        <ele>402.600006103515625</ele>
        <time>2019-11-01T10:13:22.000Z</time>
      </trkpt>
      <trkpt lat="37.053140737116336822509765625" lon="-4.66425980441272258758544921875">
        <ele>402</ele>
        <time>2019-11-01T10:13:26.000Z</time>
      </trkpt>
      <trkpt lat="37.05317460000514984130859375" lon="-4.66453758068382740020751953125">
        <ele>402</ele>
        <time>2019-11-01T10:13:31.000Z</time>
      </trkpt>
      <trkpt lat="37.0532066188752651214599609375" lon="-4.6648139320313930511474609375">
        <ele>402</ele>
        <time>2019-11-01T10:13:36.000Z</time>
      </trkpt>
      <trkpt lat="37.0532381348311901092529296875" lon="-4.665088020265102386474609375">
        <ele>402.20001220703125</ele>
        <time>2019-11-01T10:13:41.000Z</time>
      </trkpt>
      <trkpt lat="37.0532713271677494049072265625" lon="-4.66535858809947967529296875">
        <ele>402.399993896484375</ele>
        <time>2019-11-01T10:13:46.000Z</time>
      </trkpt>
      <trkpt lat="37.05330192111432552337646484375" lon="-4.66562722809612751007080078125">
        <ele>403.79998779296875</ele>
        <time>2019-11-01T10:13:51.000Z</time>
      </trkpt>
      <trkpt lat="37.05333846621215343475341796875" lon="-4.6659008972346782684326171875">
        <ele>406</ele>
        <time>2019-11-01T10:13:56.000Z</time>
      </trkpt>
      <trkpt lat="37.0533776096999645233154296875" lon="-4.666178338229656219482421875">
        <ele>406.79998779296875</ele>
        <time>2019-11-01T10:14:01.000Z</time>
      </trkpt>
      <trkpt lat="37.05340954475104808807373046875" lon="-4.66640104539692401885986328125">
        <ele>406.600006103515625</ele>
        <time>2019-11-01T10:14:05.000Z</time>
      </trkpt>
      <trkpt lat="37.053451873362064361572265625" lon="-4.666669182479381561279296875">
        <ele>406.79998779296875</ele>
        <time>2019-11-01T10:14:10.000Z</time>
      </trkpt>
      <trkpt lat="37.05349135212600231170654296875" lon="-4.66688870452344417572021484375">
        <ele>408.20001220703125</ele>
        <time>2019-11-01T10:14:14.000Z</time>
      </trkpt>
      <trkpt lat="37.05353057943284511566162109375" lon="-4.66711216606199741363525390625">
        <ele>409.600006103515625</ele>
        <time>2019-11-01T10:14:18.000Z</time>
      </trkpt>
      <trkpt lat="37.053574584424495697021484375" lon="-4.6673352085053920745849609375">
        <ele>409.79998779296875</ele>
        <time>2019-11-01T10:14:22.000Z</time>
      </trkpt>
      <trkpt lat="37.0536310784518718719482421875" lon="-4.66760569252073764801025390625">
        <ele>409.399993896484375</ele>
        <time>2019-11-01T10:14:27.000Z</time>
      </trkpt>
      <trkpt lat="37.0536793582141399383544921875" lon="-4.6678247116506099700927734375">
        <ele>408.600006103515625</ele>
        <time>2019-11-01T10:14:31.000Z</time>
      </trkpt>
      <trkpt lat="37.053729481995105743408203125" lon="-4.66804088093340396881103515625">
        <ele>408.20001220703125</ele>
        <time>2019-11-01T10:14:35.000Z</time>
      </trkpt>
      <trkpt lat="37.0537806116044521331787109375" lon="-4.6682592295110225677490234375">
        <ele>408.600006103515625</ele>
        <time>2019-11-01T10:14:39.000Z</time>
      </trkpt>
      <trkpt lat="37.05383366905152797698974609375" lon="-4.668479003012180328369140625">
        <ele>408.600006103515625</ele>
        <time>2019-11-01T10:14:43.000Z</time>
      </trkpt>
      <trkpt lat="37.053888738155364990234375" lon="-4.6686964295804500579833984375">
        <ele>408</ele>
        <time>2019-11-01T10:14:47.000Z</time>
      </trkpt>
      <trkpt lat="37.053958810865879058837890625" lon="-4.66896104626357555389404296875">
        <ele>408</ele>
        <time>2019-11-01T10:14:52.000Z</time>
      </trkpt>
      <trkpt lat="37.0540283806622028350830078125" lon="-4.6692134253680706024169921875">
        <ele>408</ele>
        <time>2019-11-01T10:14:57.000Z</time>
      </trkpt>
      <trkpt lat="37.0541048236191272735595703125" lon="-4.6694643795490264892578125">
        <ele>408</ele>
        <time>2019-11-01T10:15:02.000Z</time>
      </trkpt>
      <trkpt lat="37.05417933873832225799560546875" lon="-4.6697206981480121612548828125">
        <ele>408</ele>
        <time>2019-11-01T10:15:07.000Z</time>
      </trkpt>
      <trkpt lat="37.054260559380054473876953125" lon="-4.66997810639441013336181640625">
        <ele>409.20001220703125</ele>
        <time>2019-11-01T10:15:12.000Z</time>
      </trkpt>
      <trkpt lat="37.05433004535734653472900390625" lon="-4.67018731869757175445556640625">
        <ele>410.600006103515625</ele>
        <time>2019-11-01T10:15:16.000Z</time>
      </trkpt>
      <trkpt lat="37.0544199831783771514892578125" lon="-4.6704448945820331573486328125">
        <ele>411.399993896484375</ele>
        <time>2019-11-01T10:15:21.000Z</time>
      </trkpt>
      <trkpt lat="37.05450992099940776824951171875" lon="-4.67070213519036769866943359375">
        <ele>411.399993896484375</ele>
        <time>2019-11-01T10:15:26.000Z</time>
      </trkpt>
      <trkpt lat="37.0545847713947296142578125" lon="-4.6709069050848484039306640625">
        <ele>411</ele>
        <time>2019-11-01T10:15:30.000Z</time>
      </trkpt>
      <trkpt lat="37.0546623878180980682373046875" lon="-4.67111452482640743255615234375">
        <ele>410</ele>
        <time>2019-11-01T10:15:34.000Z</time>
      </trkpt>
      <trkpt lat="37.05474427901208400726318359375" lon="-4.6713233180344104766845703125">
        <ele>410.600006103515625</ele>
        <time>2019-11-01T10:15:38.000Z</time>
      </trkpt>
      <trkpt lat="37.05483019351959228515625" lon="-4.67153479345142841339111328125">
        <ele>410.399993896484375</ele>
        <time>2019-11-01T10:15:42.000Z</time>
      </trkpt>
      <trkpt lat="37.05491241998970508575439453125" lon="-4.671741910278797149658203125">
        <ele>410</ele>
        <time>2019-11-01T10:15:46.000Z</time>
      </trkpt>
      <trkpt lat="37.0549973286688327789306640625" lon="-4.67194207012653350830078125">
        <ele>408.79998779296875</ele>
        <time>2019-11-01T10:15:50.000Z</time>
      </trkpt>
      <trkpt lat="37.05508525483310222625732421875" lon="-4.67214600183069705963134765625">
        <ele>408.399993896484375</ele>
        <time>2019-11-01T10:15:54.000Z</time>
      </trkpt>
      <trkpt lat="37.05517862923443317413330078125" lon="-4.6723549626767635345458984375">
        <ele>408.399993896484375</ele>
        <time>2019-11-01T10:15:58.000Z</time>
      </trkpt>
      <trkpt lat="37.055277116596698760986328125" lon="-4.67256643809378147125244140625">
        <ele>409.600006103515625</ele>
        <time>2019-11-01T10:16:02.000Z</time>
      </trkpt>
      <trkpt lat="37.05537795089185237884521484375" lon="-4.67278034426271915435791015625">
        <ele>411</ele>
        <time>2019-11-01T10:16:06.000Z</time>
      </trkpt>
      <trkpt lat="37.05548725090920925140380859375" lon="-4.67299458570778369903564453125">
        <ele>412</ele>
        <time>2019-11-01T10:16:10.000Z</time>
      </trkpt>
      <trkpt lat="37.0555914379656314849853515625" lon="-4.67320530675351619720458984375">
        <ele>412.600006103515625</ele>
        <time>2019-11-01T10:16:14.000Z</time>
      </trkpt>
      <trkpt lat="37.055693529546260833740234375" lon="-4.6734151057898998260498046875">
        <ele>412.79998779296875</ele>
        <time>2019-11-01T10:16:18.000Z</time>
      </trkpt>
      <trkpt lat="37.05579587258398532867431640625" lon="-4.67362037859857082366943359375">
        <ele>412.399993896484375</ele>
        <time>2019-11-01T10:16:22.000Z</time>
      </trkpt>
      <trkpt lat="37.05589528195559978485107421875" lon="-4.67382288537919521331787109375">
        <ele>412.600006103515625</ele>
        <time>2019-11-01T10:16:26.000Z</time>
      </trkpt>
      <trkpt lat="37.0559910871088504791259765625" lon="-4.67402078211307525634765625">
        <ele>413</ele>
        <time>2019-11-01T10:16:30.000Z</time>
      </trkpt>
      <trkpt lat="37.0560869760811328887939453125" lon="-4.67421901412308216094970703125">
        <ele>413</ele>
        <time>2019-11-01T10:16:34.000Z</time>
      </trkpt>
      <trkpt lat="37.05618294887244701385498046875" lon="-4.67442235909402370452880859375">
        <ele>413.20001220703125</ele>
        <time>2019-11-01T10:16:38.000Z</time>
      </trkpt>
      <trkpt lat="37.0562817715108394622802734375" lon="-4.67463056556880474090576171875">
        <ele>413.399993896484375</ele>
        <time>2019-11-01T10:16:42.000Z</time>
      </trkpt>
      <trkpt lat="37.056376822292804718017578125" lon="-4.67484246008098125457763671875">
        <ele>414</ele>
        <time>2019-11-01T10:16:46.000Z</time>
      </trkpt>
      <trkpt lat="37.0564688555896282196044921875" lon="-4.67505200766026973724365234375">
        <ele>414</ele>
        <time>2019-11-01T10:16:50.000Z</time>
      </trkpt>
      <trkpt lat="37.05655946396291255950927734375" lon="-4.6752665005624294281005859375">
        <ele>414</ele>
        <time>2019-11-01T10:16:54.000Z</time>
      </trkpt>
      <trkpt lat="37.05664462409913539886474609375" lon="-4.6754827536642551422119140625">
        <ele>414</ele>
        <time>2019-11-01T10:16:58.000Z</time>
      </trkpt>
      <trkpt lat="37.0567270182073116302490234375" lon="-4.67570613138377666473388671875">
        <ele>414.600006103515625</ele>
        <time>2019-11-01T10:17:02.000Z</time>
      </trkpt>
      <trkpt lat="37.05680555664002895355224609375" lon="-4.67593722045421600341796875">
        <ele>415</ele>
        <time>2019-11-01T10:17:06.000Z</time>
      </trkpt>
      <trkpt lat="37.056882083415985107421875" lon="-4.6761737577617168426513671875">
        <ele>415.20001220703125</ele>
        <time>2019-11-01T10:17:10.000Z</time>
      </trkpt>
      <trkpt lat="37.05694444477558135986328125" lon="-4.67639587819576263427734375">
        <ele>414.399993896484375</ele>
        <time>2019-11-01T10:17:14.000Z</time>
      </trkpt>
      <trkpt lat="37.057017870247364044189453125" lon="-4.67665605247020721435546875">
        <ele>413.20001220703125</ele>
        <time>2019-11-01T10:17:19.000Z</time>
      </trkpt>
      <trkpt lat="37.05709288828074932098388671875" lon="-4.67690340243279933929443359375">
        <ele>413</ele>
        <time>2019-11-01T10:17:24.000Z</time>
      </trkpt>
      <trkpt lat="37.05715189687907695770263671875" lon="-4.67711647041141986846923828125">
        <ele>412.600006103515625</ele>
        <time>2019-11-01T10:17:28.000Z</time>
      </trkpt>
      <trkpt lat="37.057213000953197479248046875" lon="-4.6773435361683368682861328125">
        <ele>411.79998779296875</ele>
        <time>2019-11-01T10:17:32.000Z</time>
      </trkpt>
      <trkpt lat="37.05728240311145782470703125" lon="-4.677589796483516693115234375">
        <ele>410.79998779296875</ele>
        <time>2019-11-01T10:17:36.000Z</time>
      </trkpt>
      <trkpt lat="37.05735088326036930084228515625" lon="-4.67785005457699298858642578125">
        <ele>409</ele>
        <time>2019-11-01T10:17:40.000Z</time>
      </trkpt>
      <trkpt lat="37.05742548219859600067138671875" lon="-4.67813336290419101715087890625">
        <ele>408.79998779296875</ele>
        <time>2019-11-01T10:17:44.000Z</time>
      </trkpt>
      <trkpt lat="37.05748348496854305267333984375" lon="-4.6783466823399066925048828125">
        <ele>407.79998779296875</ele>
        <time>2019-11-01T10:17:47.000Z</time>
      </trkpt>
      <trkpt lat="37.05754333175718784332275390625" lon="-4.6785696409642696380615234375">
        <ele>407</ele>
        <time>2019-11-01T10:17:50.000Z</time>
      </trkpt>
      <trkpt lat="37.057611308991909027099609375" lon="-4.6787996403872966766357421875">
        <ele>407</ele>
        <time>2019-11-01T10:17:53.000Z</time>
      </trkpt>
      <trkpt lat="37.05768205225467681884765625" lon="-4.67903944663703441619873046875">
        <ele>407</ele>
        <time>2019-11-01T10:17:56.000Z</time>
      </trkpt>
      <trkpt lat="37.0577532984316349029541015625" lon="-4.6792834438383579254150390625">
        <ele>407.20001220703125</ele>
        <time>2019-11-01T10:17:59.000Z</time>
      </trkpt>
      <trkpt lat="37.057819850742816925048828125" lon="-4.67953498475253582000732421875">
        <ele>406.600006103515625</ele>
        <time>2019-11-01T10:18:02.000Z</time>
      </trkpt>
      <trkpt lat="37.05788900144398212432861328125" lon="-4.679792560636997222900390625">
        <ele>405.20001220703125</ele>
        <time>2019-11-01T10:18:05.000Z</time>
      </trkpt>
      <trkpt lat="37.057960666716098785400390625" lon="-4.6800505556166172027587890625">
        <ele>402.79998779296875</ele>
        <time>2019-11-01T10:18:08.000Z</time>
      </trkpt>
      <trkpt lat="37.05802948214113712310791015625" lon="-4.68031550757586956024169921875">
        <ele>401.399993896484375</ele>
        <time>2019-11-01T10:18:11.000Z</time>
      </trkpt>
      <trkpt lat="37.058098800480365753173828125" lon="-4.6805933676660060882568359375">
        <ele>399.79998779296875</ele>
        <time>2019-11-01T10:18:14.000Z</time>
      </trkpt>
      <trkpt lat="37.058165855705738067626953125" lon="-4.6808756701648235321044921875">
        <ele>399.399993896484375</ele>
        <time>2019-11-01T10:18:17.000Z</time>
      </trkpt>
      <trkpt lat="37.05822863616049289703369140625" lon="-4.68117046169936656951904296875">
        <ele>400</ele>
        <time>2019-11-01T10:18:20.000Z</time>
      </trkpt>
      <trkpt lat="37.058279849588871002197265625" lon="-4.68146835453808307647705078125">
        <ele>398.600006103515625</ele>
        <time>2019-11-01T10:18:23.000Z</time>
      </trkpt>
      <trkpt lat="37.0583296380937099456787109375" lon="-4.6817738749086856842041015625">
        <ele>397.399993896484375</ele>
        <time>2019-11-01T10:18:26.000Z</time>
      </trkpt>
      <trkpt lat="37.05838001333177089691162109375" lon="-4.68207679688930511474609375">
        <ele>395.20001220703125</ele>
        <time>2019-11-01T10:18:29.000Z</time>
      </trkpt>
      <trkpt lat="37.0584245212376117706298828125" lon="-4.68238499946892261505126953125">
        <ele>392.79998779296875</ele>
        <time>2019-11-01T10:18:32.000Z</time>
      </trkpt>
      <trkpt lat="37.05846500582993030548095703125" lon="-4.6826915256679058074951171875">
        <ele>391.600006103515625</ele>
        <time>2019-11-01T10:18:35.000Z</time>
      </trkpt>
      <trkpt lat="37.05850088037550449371337890625" lon="-4.68299687840044498443603515625">
        <ele>391</ele>
        <time>2019-11-01T10:18:38.000Z</time>
      </trkpt>
      <trkpt lat="37.0585418678820133209228515625" lon="-4.68330114148557186126708984375">
        <ele>390.79998779296875</ele>
        <time>2019-11-01T10:18:41.000Z</time>
      </trkpt>
      <trkpt lat="37.05857849679887294769287109375" lon="-4.68360858969390392303466796875">
        <ele>390</ele>
        <time>2019-11-01T10:18:44.000Z</time>
      </trkpt>
      <trkpt lat="37.0586156286299228668212890625" lon="-4.68390765599906444549560546875">
        <ele>389.20001220703125</ele>
        <time>2019-11-01T10:18:47.000Z</time>
      </trkpt>
      <trkpt lat="37.058651335537433624267578125" lon="-4.68421359546482563018798828125">
        <ele>387.79998779296875</ele>
        <time>2019-11-01T10:18:50.000Z</time>
      </trkpt>
      <trkpt lat="37.05868796445429325103759765625" lon="-4.6845147572457790374755859375">
        <ele>387.399993896484375</ele>
        <time>2019-11-01T10:18:53.000Z</time>
      </trkpt>
      <trkpt lat="37.05872216261923313140869140625" lon="-4.68480988405644893646240234375">
        <ele>386.399993896484375</ele>
        <time>2019-11-01T10:18:56.000Z</time>
      </trkpt>
      <trkpt lat="37.058754265308380126953125" lon="-4.68509838916361331939697265625">
        <ele>387</ele>
        <time>2019-11-01T10:18:59.000Z</time>
      </trkpt>
      <trkpt lat="37.058787457644939422607421875" lon="-4.68537717126309871673583984375">
        <ele>387</ele>
        <time>2019-11-01T10:19:02.000Z</time>
      </trkpt>
      <trkpt lat="37.05882224254310131072998046875" lon="-4.68564924784004688262939453125">
        <ele>387.79998779296875</ele>
        <time>2019-11-01T10:19:05.000Z</time>
      </trkpt>
      <trkpt lat="37.05885224975645542144775390625" lon="-4.685908667743206024169921875">
        <ele>388</ele>
        <time>2019-11-01T10:19:08.000Z</time>
      </trkpt>
      <trkpt lat="37.0588855259120464324951171875" lon="-4.68616154976189136505126953125">
        <ele>388.600006103515625</ele>
        <time>2019-11-01T10:19:11.000Z</time>
      </trkpt>
      <trkpt lat="37.0589130185544490814208984375" lon="-4.68640261329710483551025390625">
        <ele>388.399993896484375</ele>
        <time>2019-11-01T10:19:14.000Z</time>
      </trkpt>
      <trkpt lat="37.0589371584355831146240234375" lon="-4.68663613311946392059326171875">
        <ele>389</ele>
        <time>2019-11-01T10:19:17.000Z</time>
      </trkpt>
      <trkpt lat="37.05896138213574886322021484375" lon="-4.68685942701995372772216796875">
        <ele>389.79998779296875</ele>
        <time>2019-11-01T10:19:20.000Z</time>
      </trkpt>
      <trkpt lat="37.0589921437203884124755859375" lon="-4.68714541755616664886474609375">
        <ele>391.600006103515625</ele>
        <time>2019-11-01T10:19:24.000Z</time>
      </trkpt>
      <trkpt lat="37.0590156130492687225341796875" lon="-4.68741313554346561431884765625">
        <ele>393.399993896484375</ele>
        <time>2019-11-01T10:19:28.000Z</time>
      </trkpt>
      <trkpt lat="37.05903899855911731719970703125" lon="-4.68766643665730953216552734375">
        <ele>394.399993896484375</ele>
        <time>2019-11-01T10:19:32.000Z</time>
      </trkpt>
      <trkpt lat="37.059066407382488250732421875" lon="-4.68790783546864986419677734375">
        <ele>394.79998779296875</ele>
        <time>2019-11-01T10:19:36.000Z</time>
      </trkpt>
      <trkpt lat="37.0590960793197154998779296875" lon="-4.68813951127231121063232421875">
        <ele>394</ele>
        <time>2019-11-01T10:19:40.000Z</time>
      </trkpt>
      <trkpt lat="37.0591245777904987335205078125" lon="-4.6883954107761383056640625">
        <ele>393.600006103515625</ele>
        <time>2019-11-01T10:19:44.000Z</time>
      </trkpt>
      <trkpt lat="37.059161625802516937255859375" lon="-4.688661284744739532470703125">
        <ele>392.399993896484375</ele>
        <time>2019-11-01T10:19:48.000Z</time>
      </trkpt>
      <trkpt lat="37.0591933093965053558349609375" lon="-4.68893310986459255218505859375">
        <ele>392.600006103515625</ele>
        <time>2019-11-01T10:19:52.000Z</time>
      </trkpt>
      <trkpt lat="37.05922189168632030487060546875" lon="-4.68921415507793426513671875">
        <ele>391</ele>
        <time>2019-11-01T10:19:56.000Z</time>
      </trkpt>
      <trkpt lat="37.059242092072963714599609375" lon="-4.68944021500647068023681640625">
        <ele>390.20001220703125</ele>
        <time>2019-11-01T10:19:59.000Z</time>
      </trkpt>
      <trkpt lat="37.05926681868731975555419921875" lon="-4.68967440538108348846435546875">
        <ele>390</ele>
        <time>2019-11-01T10:20:02.000Z</time>
      </trkpt>
      <trkpt lat="37.05929129384458065032958984375" lon="-4.6899083442986011505126953125">
        <ele>389.600006103515625</ele>
        <time>2019-11-01T10:20:05.000Z</time>
      </trkpt>
      <trkpt lat="37.05931576900184154510498046875" lon="-4.690141864120960235595703125">
        <ele>389</ele>
        <time>2019-11-01T10:20:08.000Z</time>
      </trkpt>
      <trkpt lat="37.05934368073940277099609375" lon="-4.69037823379039764404296875">
        <ele>388.79998779296875</ele>
        <time>2019-11-01T10:20:11.000Z</time>
      </trkpt>
      <trkpt lat="37.05937293358147144317626953125" lon="-4.69061016105115413665771484375">
        <ele>388</ele>
        <time>2019-11-01T10:20:14.000Z</time>
      </trkpt>
      <trkpt lat="37.05940780229866504669189453125" lon="-4.69084267504513263702392578125">
        <ele>387</ele>
        <time>2019-11-01T10:20:17.000Z</time>
      </trkpt>
      <trkpt lat="37.05945231020450592041015625" lon="-4.69107015989720821380615234375">
        <ele>385.399993896484375</ele>
        <time>2019-11-01T10:20:20.000Z</time>
      </trkpt>
      <trkpt lat="37.05950402654707431793212890625" lon="-4.6913014166057109832763671875">
        <ele>384.600006103515625</ele>
        <time>2019-11-01T10:20:23.000Z</time>
      </trkpt>
      <trkpt lat="37.05956487916409969329833984375" lon="-4.69152999110519886016845703125">
        <ele>384.399993896484375</ele>
        <time>2019-11-01T10:20:26.000Z</time>
      </trkpt>
      <trkpt lat="37.05962992273271083831787109375" lon="-4.69175546430051326751708984375">
        <ele>384.79998779296875</ele>
        <time>2019-11-01T10:20:29.000Z</time>
      </trkpt>
      <trkpt lat="37.05969630740582942962646484375" lon="-4.69198043458163738250732421875">
        <ele>383.79998779296875</ele>
        <time>2019-11-01T10:20:32.000Z</time>
      </trkpt>
      <trkpt lat="37.0597706548869609832763671875" lon="-4.69219819642603397369384765625">
        <ele>382.600006103515625</ele>
        <time>2019-11-01T10:20:35.000Z</time>
      </trkpt>
      <trkpt lat="37.0598554797470569610595703125" lon="-4.69240589998662471771240234375">
        <ele>381.20001220703125</ele>
        <time>2019-11-01T10:20:38.000Z</time>
      </trkpt>
      <trkpt lat="37.059942148625850677490234375" lon="-4.69260756857693195343017578125">
        <ele>380.399993896484375</ele>
        <time>2019-11-01T10:20:41.000Z</time>
      </trkpt>
      <trkpt lat="37.06003510393202304840087890625" lon="-4.69280538149178028106689453125">
        <ele>381</ele>
        <time>2019-11-01T10:20:44.000Z</time>
      </trkpt>
      <trkpt lat="37.060128562152385711669921875" lon="-4.69300034455955028533935546875">
        <ele>381</ele>
        <time>2019-11-01T10:20:47.000Z</time>
      </trkpt>
      <trkpt lat="37.06022352911531925201416015625" lon="-4.69319396652281284332275390625">
        <ele>381.399993896484375</ele>
        <time>2019-11-01T10:20:50.000Z</time>
      </trkpt>
      <trkpt lat="37.060351185500621795654296875" lon="-4.69344575889408588409423828125">
        <ele>382</ele>
        <time>2019-11-01T10:20:54.000Z</time>
      </trkpt>
      <trkpt lat="37.06047481857240200042724609375" lon="-4.69369235448539257049560546875">
        <ele>382</ele>
        <time>2019-11-01T10:20:58.000Z</time>
      </trkpt>
      <trkpt lat="37.0605982840061187744140625" lon="-4.693943895399570465087890625">
        <ele>381.79998779296875</ele>
        <time>2019-11-01T10:21:02.000Z</time>
      </trkpt>
      <trkpt lat="37.0607235096395015716552734375" lon="-4.694198705255985260009765625">
        <ele>381</ele>
        <time>2019-11-01T10:21:06.000Z</time>
      </trkpt>
      <trkpt lat="37.06085301004350185394287109375" lon="-4.6944466419517993927001953125">
        <ele>381</ele>
        <time>2019-11-01T10:21:10.000Z</time>
      </trkpt>
      <trkpt lat="37.0609820075333118438720703125" lon="-4.6946923993527889251708984375">
        <ele>381</ele>
        <time>2019-11-01T10:21:14.000Z</time>
      </trkpt>
      <trkpt lat="37.061098180711269378662109375" lon="-4.69493287615478038787841796875">
        <ele>381</ele>
        <time>2019-11-01T10:21:18.000Z</time>
      </trkpt>
      <trkpt lat="37.06121879629790782928466796875" lon="-4.6951678209006786346435546875">
        <ele>381</ele>
        <time>2019-11-01T10:21:22.000Z</time>
      </trkpt>
      <trkpt lat="37.06133262254297733306884765625" lon="-4.69540360383689403533935546875">
        <ele>381</ele>
        <time>2019-11-01T10:21:26.000Z</time>
      </trkpt>
      <trkpt lat="37.0614510588347911834716796875" lon="-4.69563662074506282806396484375">
        <ele>381</ele>
        <time>2019-11-01T10:21:30.000Z</time>
      </trkpt>
      <trkpt lat="37.06156295724213123321533203125" lon="-4.6958739124238491058349609375">
        <ele>381</ele>
        <time>2019-11-01T10:21:34.000Z</time>
      </trkpt>
      <trkpt lat="37.06167125143110752105712890625" lon="-4.69610969536006450653076171875">
        <ele>381</ele>
        <time>2019-11-01T10:21:38.000Z</time>
      </trkpt>
      <trkpt lat="37.06177636049687862396240234375" lon="-4.69634623266756534576416015625">
        <ele>381.20001220703125</ele>
        <time>2019-11-01T10:21:42.000Z</time>
      </trkpt>
      <trkpt lat="37.06187929026782512664794921875" lon="-4.69658813439309597015380859375">
        <ele>381.600006103515625</ele>
        <time>2019-11-01T10:21:46.000Z</time>
      </trkpt>
      <trkpt lat="37.0619807951152324676513671875" lon="-4.69683489762246608734130859375">
        <ele>382</ele>
        <time>2019-11-01T10:21:50.000Z</time>
      </trkpt>
      <trkpt lat="37.0620729960501194000244140625" lon="-4.6970866061747074127197265625">
        <ele>382</ele>
        <time>2019-11-01T10:21:54.000Z</time>
      </trkpt>
      <trkpt lat="37.0621615089476108551025390625" lon="-4.69733856618404388427734375">
        <ele>382.20001220703125</ele>
        <time>2019-11-01T10:21:58.000Z</time>
      </trkpt>
      <trkpt lat="37.0622459985315799713134765625" lon="-4.6975873410701751708984375">
        <ele>382</ele>
        <time>2019-11-01T10:22:02.000Z</time>
      </trkpt>
      <trkpt lat="37.0623234473168849945068359375" lon="-4.69782832078635692596435546875">
        <ele>382</ele>
        <time>2019-11-01T10:22:06.000Z</time>
      </trkpt>
      <trkpt lat="37.06239603459835052490234375" lon="-4.69807106070220470428466796875">
        <ele>382</ele>
        <time>2019-11-01T10:22:10.000Z</time>
      </trkpt>
      <trkpt lat="37.062464095652103424072265625" lon="-4.69830893911421298980712890625">
        <ele>382</ele>
        <time>2019-11-01T10:22:14.000Z</time>
      </trkpt>
      <trkpt lat="37.0625256188213825225830078125" lon="-4.6985406987369060516357421875">
        <ele>382</ele>
        <time>2019-11-01T10:22:18.000Z</time>
      </trkpt>
      <trkpt lat="37.06258102320134639739990234375" lon="-4.69877094961702823638916015625">
        <ele>383</ele>
        <time>2019-11-01T10:22:22.000Z</time>
      </trkpt>
      <trkpt lat="37.06263332627713680267333984375" lon="-4.6990020386874675750732421875">
        <ele>383</ele>
        <time>2019-11-01T10:22:26.000Z</time>
      </trkpt>
      <trkpt lat="37.0626823604106903076171875" lon="-4.6992327086627483367919921875">
        <ele>382.79998779296875</ele>
        <time>2019-11-01T10:22:30.000Z</time>
      </trkpt>
      <trkpt lat="37.06272787414491176605224609375" lon="-4.6994648873805999755859375">
        <ele>381.600006103515625</ele>
        <time>2019-11-01T10:22:34.000Z</time>
      </trkpt>
      <trkpt lat="37.0627646706998348236083984375" lon="-4.69969379715621471405029296875">
        <ele>381.399993896484375</ele>
        <time>2019-11-01T10:22:38.000Z</time>
      </trkpt>
      <trkpt lat="37.06280046142637729644775390625" lon="-4.69992480240762233734130859375">
        <ele>382</ele>
        <time>2019-11-01T10:22:42.000Z</time>
      </trkpt>
      <trkpt lat="37.06283214502036571502685546875" lon="-4.70015513710677623748779296875">
        <ele>383</ele>
        <time>2019-11-01T10:22:46.000Z</time>
      </trkpt>
      <trkpt lat="37.06286081112921237945556640625" lon="-4.70038999803364276885986328125">
        <ele>382.79998779296875</ele>
        <time>2019-11-01T10:22:50.000Z</time>
      </trkpt>
      <trkpt lat="37.06289282999932765960693359375" lon="-4.7006224282085895538330078125">
        <ele>382.79998779296875</ele>
        <time>2019-11-01T10:22:54.000Z</time>
      </trkpt>
      <trkpt lat="37.06292065791785717010498046875" lon="-4.700860641896724700927734375">
        <ele>383</ele>
        <time>2019-11-01T10:22:58.000Z</time>
      </trkpt>
      <trkpt lat="37.0629373379051685333251953125" lon="-4.70109902322292327880859375">
        <ele>382.20001220703125</ele>
        <time>2019-11-01T10:23:02.000Z</time>
      </trkpt>
      <trkpt lat="37.06295083276927471160888671875" lon="-4.70134067349135875701904296875">
        <ele>380.79998779296875</ele>
        <time>2019-11-01T10:23:06.000Z</time>
      </trkpt>
      <trkpt lat="37.06296944059431552886962890625" lon="-4.701580815017223358154296875">
        <ele>380.20001220703125</ele>
        <time>2019-11-01T10:23:10.000Z</time>
      </trkpt>
      <trkpt lat="37.0629854500293731689453125" lon="-4.70181844197213649749755859375">
        <ele>381</ele>
        <time>2019-11-01T10:23:14.000Z</time>
      </trkpt>
      <trkpt lat="37.0629983581602573394775390625" lon="-4.70205120742321014404296875">
        <ele>382.79998779296875</ele>
        <time>2019-11-01T10:23:18.000Z</time>
      </trkpt>
      <trkpt lat="37.0629990287125110626220703125" lon="-4.7022927738726139068603515625">
        <ele>384.20001220703125</ele>
        <time>2019-11-01T10:23:22.000Z</time>
      </trkpt>
      <trkpt lat="37.0629990287125110626220703125" lon="-4.70253341831266880035400390625">
        <ele>384.600006103515625</ele>
        <time>2019-11-01T10:23:26.000Z</time>
      </trkpt>
      <trkpt lat="37.06299240700900554656982421875" lon="-4.70277280546724796295166015625">
        <ele>384.600006103515625</ele>
        <time>2019-11-01T10:23:30.000Z</time>
      </trkpt>
      <trkpt lat="37.06298603676259517669677734375" lon="-4.70301101915538311004638671875">
        <ele>384.399993896484375</ele>
        <time>2019-11-01T10:23:34.000Z</time>
      </trkpt>
      <trkpt lat="37.06297698430716991424560546875" lon="-4.7032503224909305572509765625">
        <ele>384</ele>
        <time>2019-11-01T10:23:38.000Z</time>
      </trkpt>
      <trkpt lat="37.0629621483385562896728515625" lon="-4.70349289476871490478515625">
        <ele>384</ele>
        <time>2019-11-01T10:23:42.000Z</time>
      </trkpt>
      <trkpt lat="37.0629457198083400726318359375" lon="-4.70373789779841899871826171875">
        <ele>384</ele>
        <time>2019-11-01T10:23:46.000Z</time>
      </trkpt>
      <trkpt lat="37.0629239268600940704345703125" lon="-4.7039829008281230926513671875">
        <ele>384</ele>
        <time>2019-11-01T10:23:50.000Z</time>
      </trkpt>
      <trkpt lat="37.062900960445404052734375" lon="-4.7042263112962245941162109375">
        <ele>384.20001220703125</ele>
        <time>2019-11-01T10:23:54.000Z</time>
      </trkpt>
      <trkpt lat="37.06287288106977939605712890625" lon="-4.70447265543043613433837890625">
        <ele>384.79998779296875</ele>
        <time>2019-11-01T10:23:58.000Z</time>
      </trkpt>
      <trkpt lat="37.0628404431045055389404296875" lon="-4.7047238610684871673583984375">
        <ele>385</ele>
        <time>2019-11-01T10:24:02.000Z</time>
      </trkpt>
      <trkpt lat="37.0628002099692821502685546875" lon="-4.70497079193592071533203125">
        <ele>384.79998779296875</ele>
        <time>2019-11-01T10:24:06.000Z</time>
      </trkpt>
      <trkpt lat="37.06275955773890018463134765625" lon="-4.70521747134625911712646484375">
        <ele>384</ele>
        <time>2019-11-01T10:24:10.000Z</time>
      </trkpt>
      <trkpt lat="37.06271479837596416473388671875" lon="-4.705470018088817596435546875">
        <ele>382.79998779296875</ele>
        <time>2019-11-01T10:24:14.000Z</time>
      </trkpt>
      <trkpt lat="37.0626671053469181060791015625" lon="-4.705720804631710052490234375">
        <ele>381.20001220703125</ele>
        <time>2019-11-01T10:24:18.000Z</time>
      </trkpt>
      <trkpt lat="37.06261471845209598541259765625" lon="-4.70596966333687305450439453125">
        <ele>380.20001220703125</ele>
        <time>2019-11-01T10:24:22.000Z</time>
      </trkpt>
      <trkpt lat="37.06256425939500331878662109375" lon="-4.70622179098427295684814453125">
        <ele>380.600006103515625</ele>
        <time>2019-11-01T10:24:26.000Z</time>
      </trkpt>
      <trkpt lat="37.06251363269984722137451171875" lon="-4.70647660084068775177001953125">
        <ele>381.600006103515625</ele>
        <time>2019-11-01T10:24:30.000Z</time>
      </trkpt>
      <trkpt lat="37.0624632574617862701416015625" lon="-4.7067358531057834625244140625">
        <ele>383</ele>
        <time>2019-11-01T10:24:34.000Z</time>
      </trkpt>
      <trkpt lat="37.0624139718711376190185546875" lon="-4.70699862577021121978759765625">
        <ele>384.20001220703125</ele>
        <time>2019-11-01T10:24:38.000Z</time>
      </trkpt>
      <trkpt lat="37.06236778758466243743896484375" lon="-4.70724823884665966033935546875">
        <ele>384.79998779296875</ele>
        <time>2019-11-01T10:24:42.000Z</time>
      </trkpt>
      <trkpt lat="37.06232763826847076416015625" lon="-4.70747907646000385284423828125">
        <ele>384.399993896484375</ele>
        <time>2019-11-01T10:24:46.000Z</time>
      </trkpt>
      <trkpt lat="37.062289416790008544921875" lon="-4.7077162005007266998291015625">
        <ele>383.79998779296875</ele>
        <time>2019-11-01T10:24:50.000Z</time>
      </trkpt>
      <trkpt lat="37.06225865520536899566650390625" lon="-4.7079626284539699554443359375">
        <ele>383.600006103515625</ele>
        <time>2019-11-01T10:24:54.000Z</time>
      </trkpt>
      <trkpt lat="37.06222780980169773101806640625" lon="-4.7082127444446086883544921875">
        <ele>383.399993896484375</ele>
        <time>2019-11-01T10:24:58.000Z</time>
      </trkpt>
      <trkpt lat="37.0622027479112148284912109375" lon="-4.708467386662960052490234375">
        <ele>383.399993896484375</ele>
        <time>2019-11-01T10:25:02.000Z</time>
      </trkpt>
      <trkpt lat="37.06217919476330280303955078125" lon="-4.70872722566127777099609375">
        <ele>383</ele>
        <time>2019-11-01T10:25:06.000Z</time>
      </trkpt>
      <trkpt lat="37.0621655322611331939697265625" lon="-4.70899117179214954376220703125">
        <ele>382.20001220703125</ele>
        <time>2019-11-01T10:25:10.000Z</time>
      </trkpt>
      <trkpt lat="37.06215455196797847747802734375" lon="-4.7092521004378795623779296875">
        <ele>382.20001220703125</ele>
        <time>2019-11-01T10:25:14.000Z</time>
      </trkpt>
      <trkpt lat="37.06214935518801212310791015625" lon="-4.70950515009462833404541015625">
        <ele>382.20001220703125</ele>
        <time>2019-11-01T10:25:18.000Z</time>
      </trkpt>
      <trkpt lat="37.06214600242674350738525390625" lon="-4.70975317060947418212890625">
        <ele>383</ele>
        <time>2019-11-01T10:25:22.000Z</time>
      </trkpt>
      <trkpt lat="37.0621457509696483612060546875" lon="-4.7099964134395122528076171875">
        <ele>383</ele>
        <time>2019-11-01T10:25:26.000Z</time>
      </trkpt>
      <trkpt lat="37.0621444098651409149169921875" lon="-4.710237644612789154052734375">
        <ele>383.600006103515625</ele>
        <time>2019-11-01T10:25:30.000Z</time>
      </trkpt>
      <trkpt lat="37.0621450804173946380615234375" lon="-4.7104807198047637939453125">
        <ele>384.600006103515625</ele>
        <time>2019-11-01T10:25:34.000Z</time>
      </trkpt>
      <trkpt lat="37.06214415840804576873779296875" lon="-4.7107189334928989410400390625">
        <ele>385.399993896484375</ele>
        <time>2019-11-01T10:25:38.000Z</time>
      </trkpt>
      <trkpt lat="37.06214633770287036895751953125" lon="-4.7109559737145900726318359375">
        <ele>385.600006103515625</ele>
        <time>2019-11-01T10:25:42.000Z</time>
      </trkpt>
      <trkpt lat="37.062149941921234130859375" lon="-4.7111997194588184356689453125">
        <ele>384.79998779296875</ele>
        <time>2019-11-01T10:25:46.000Z</time>
      </trkpt>
      <trkpt lat="37.06215036101639270782470703125" lon="-4.711444638669490814208984375">
        <ele>384</ele>
        <time>2019-11-01T10:25:50.000Z</time>
      </trkpt>
      <trkpt lat="37.06214801408350467681884765625" lon="-4.7116919048130512237548828125">
        <ele>383.20001220703125</ele>
        <time>2019-11-01T10:25:54.000Z</time>
      </trkpt>
      <trkpt lat="37.0621480979025363922119140625" lon="-4.71193690784275531768798828125">
        <ele>381.399993896484375</ele>
        <time>2019-11-01T10:25:58.000Z</time>
      </trkpt>
      <trkpt lat="37.062148265540599822998046875" lon="-4.71218450926244258880615234375">
        <ele>381.20001220703125</ele>
        <time>2019-11-01T10:26:02.000Z</time>
      </trkpt>
      <trkpt lat="37.062149941921234130859375" lon="-4.71242330968379974365234375">
        <ele>381.600006103515625</ele>
        <time>2019-11-01T10:26:06.000Z</time>
      </trkpt>
      <trkpt lat="37.0621484331786632537841796875" lon="-4.71266294829547405242919921875">
        <ele>382.600006103515625</ele>
        <time>2019-11-01T10:26:10.000Z</time>
      </trkpt>
      <trkpt lat="37.06215086393058300018310546875" lon="-4.7128988988697528839111328125">
        <ele>383.399993896484375</ele>
        <time>2019-11-01T10:26:14.000Z</time>
      </trkpt>
      <trkpt lat="37.06215329468250274658203125" lon="-4.71312831155955791473388671875">
        <ele>383.399993896484375</ele>
        <time>2019-11-01T10:26:18.000Z</time>
      </trkpt>
      <trkpt lat="37.06215488724410533905029296875" lon="-4.713357053697109222412109375">
        <ele>384.20001220703125</ele>
        <time>2019-11-01T10:26:22.000Z</time>
      </trkpt>
      <trkpt lat="37.06215572543442249298095703125" lon="-4.71358914859592914581298828125">
        <ele>384.20001220703125</ele>
        <time>2019-11-01T10:26:26.000Z</time>
      </trkpt>
      <trkpt lat="37.06215740181505680084228515625" lon="-4.71381696872413158416748046875">
        <ele>384.399993896484375</ele>
        <time>2019-11-01T10:26:30.000Z</time>
      </trkpt>
      <trkpt lat="37.06215865910053253173828125" lon="-4.7140891291201114654541015625">
        <ele>384.20001220703125</ele>
        <time>2019-11-01T10:26:35.000Z</time>
      </trkpt>
      <trkpt lat="37.06216108985245227813720703125" lon="-4.71436179243028163909912109375">
        <ele>384.79998779296875</ele>
        <time>2019-11-01T10:26:40.000Z</time>
      </trkpt>
      <trkpt lat="37.06216930411756038665771484375" lon="-4.714613668620586395263671875">
        <ele>385.600006103515625</ele>
        <time>2019-11-01T10:26:45.000Z</time>
      </trkpt>
      <trkpt lat="37.06218841485679149627685546875" lon="-4.71485900692641735076904296875">
        <ele>386.399993896484375</ele>
        <time>2019-11-01T10:26:50.000Z</time>
      </trkpt>
      <trkpt lat="37.06219780258834362030029296875" lon="-4.7149058617651462554931640625">
        <ele>386.399993896484375</ele>
        <time>2019-11-01T10:26:51.000Z</time>
      </trkpt>
      <trkpt lat="37.06224490888416767120361328125" lon="-4.7150275669991970062255859375">
        <ele>387</ele>
        <time>2019-11-01T10:26:54.000Z</time>
      </trkpt>
      <trkpt lat="37.0623003132641315460205078125" lon="-4.715244658291339874267578125">
        <ele>387.79998779296875</ele>
        <time>2019-11-01T10:27:00.000Z</time>
      </trkpt>
      <trkpt lat="37.0623063482344150543212890625" lon="-4.715384133160114288330078125">
        <ele>388</ele>
        <time>2019-11-01T10:27:04.000Z</time>
      </trkpt>
      <trkpt lat="37.0623444020748138427734375" lon="-4.71549443900585174560546875">
        <ele>388</ele>
        <time>2019-11-01T10:27:08.000Z</time>
      </trkpt>
      <trkpt lat="37.062360160052776336669921875" lon="-4.7155817784368991851806640625">
        <ele>388</ele>
        <time>2019-11-01T10:27:12.000Z</time>
      </trkpt>
      <trkpt lat="37.062348760664463043212890625" lon="-4.71562259830534458160400390625">
        <ele>388</ele>
        <time>2019-11-01T10:27:15.000Z</time>
      </trkpt>
      <trkpt lat="37.06233945675194263458251953125" lon="-4.7156334109604358673095703125">
        <ele>388</ele>
        <time>2019-11-01T10:27:20.000Z</time>
      </trkpt>
      <trkpt lat="37.06223451532423496246337890625" lon="-4.71563768573105335235595703125">
        <ele>388</ele>
        <time>2019-11-01T10:32:03.000Z</time>
      </trkpt>
      <trkpt lat="37.0621698908507823944091796875" lon="-4.71570541150867938995361328125">
        <ele>388.399993896484375</ele>
        <time>2019-11-01T10:32:07.000Z</time>
      </trkpt>
      <trkpt lat="37.06218640320003032684326171875" lon="-4.71595284529030323028564453125">
        <ele>388.600006103515625</ele>
        <time>2019-11-01T10:32:14.000Z</time>
      </trkpt>
      <trkpt lat="37.06218590028584003448486328125" lon="-4.7162033803761005401611328125">
        <ele>388.600006103515625</ele>
        <time>2019-11-01T10:32:20.000Z</time>
      </trkpt>
      <trkpt lat="37.06218774430453777313232421875" lon="-4.716430194675922393798828125">
        <ele>388.20001220703125</ele>
        <time>2019-11-01T10:32:26.000Z</time>
      </trkpt>
      <trkpt lat="37.062193192541599273681640625" lon="-4.716671593487262725830078125">
        <ele>388.399993896484375</ele>
        <time>2019-11-01T10:32:32.000Z</time>
      </trkpt>
      <trkpt lat="37.0621903426945209503173828125" lon="-4.7169191949069499969482421875">
        <ele>389</ele>
        <time>2019-11-01T10:32:38.000Z</time>
      </trkpt>
      <trkpt lat="37.062187492847442626953125" lon="-4.7171567380428314208984375">
        <ele>389.600006103515625</ele>
        <time>2019-11-01T10:32:44.000Z</time>
      </trkpt>
      <trkpt lat="37.0621765963733196258544921875" lon="-4.7173946164548397064208984375">
        <ele>390</ele>
        <time>2019-11-01T10:32:50.000Z</time>
      </trkpt>
      <trkpt lat="37.0621588267385959625244140625" lon="-4.7176517732441425323486328125">
        <ele>390</ele>
        <time>2019-11-01T10:32:57.000Z</time>
      </trkpt>
      <trkpt lat="37.06210996024310588836669921875" lon="-4.7178811021149158477783203125">
        <ele>390.20001220703125</ele>
        <time>2019-11-01T10:33:04.000Z</time>
      </trkpt>
      <trkpt lat="37.062052376568317413330078125" lon="-4.7181312181055545806884765625">
        <ele>391</ele>
        <time>2019-11-01T10:33:11.000Z</time>
      </trkpt>
      <trkpt lat="37.061992026865482330322265625" lon="-4.7183565236628055572509765625">
        <ele>392.399993896484375</ele>
        <time>2019-11-01T10:33:17.000Z</time>
      </trkpt>
      <trkpt lat="37.06193947233259677886962890625" lon="-4.71857420168817043304443359375">
        <ele>393.600006103515625</ele>
        <time>2019-11-01T10:33:23.000Z</time>
      </trkpt>
      <trkpt lat="37.06188281066715717315673828125" lon="-4.71881476230919361114501953125">
        <ele>394.600006103515625</ele>
        <time>2019-11-01T10:33:30.000Z</time>
      </trkpt>
      <trkpt lat="37.0618275739252567291259765625" lon="-4.71904727630317211151123046875">
        <ele>395.399993896484375</ele>
        <time>2019-11-01T10:33:37.000Z</time>
      </trkpt>
      <trkpt lat="37.0617672242224216461181640625" lon="-4.71928465180099010467529296875">
        <ele>396.600006103515625</ele>
        <time>2019-11-01T10:33:45.000Z</time>
      </trkpt>
      <trkpt lat="37.06170997582376003265380859375" lon="-4.71951372921466827392578125">
        <ele>399</ele>
        <time>2019-11-01T10:33:53.000Z</time>
      </trkpt>
      <trkpt lat="37.0616572536528110504150390625" lon="-4.71974615938961505889892578125">
        <ele>400.79998779296875</ele>
        <time>2019-11-01T10:34:01.000Z</time>
      </trkpt>
      <trkpt lat="37.061604447662830352783203125" lon="-4.71998437307775020599365234375">
        <ele>401</ele>
        <time>2019-11-01T10:34:09.000Z</time>
      </trkpt>
      <trkpt lat="37.061565555632114410400390625" lon="-4.72022845409810543060302734375">
        <ele>401</ele>
        <time>2019-11-01T10:34:17.000Z</time>
      </trkpt>
      <trkpt lat="37.0615382306277751922607421875" lon="-4.72047320567071437835693359375">
        <ele>401</ele>
        <time>2019-11-01T10:34:25.000Z</time>
      </trkpt>
      <trkpt lat="37.0615305192768573760986328125" lon="-4.72072533331811428070068359375">
        <ele>401</ele>
        <time>2019-11-01T10:34:33.000Z</time>
      </trkpt>
      <trkpt lat="37.06154149957001209259033203125" lon="-4.72096840851008892059326171875">
        <ele>401</ele>
        <time>2019-11-01T10:34:40.000Z</time>
      </trkpt>
      <trkpt lat="37.0615684054791927337646484375" lon="-4.72121064551174640655517578125">
        <ele>401.20001220703125</ele>
        <time>2019-11-01T10:34:47.000Z</time>
      </trkpt>
      <trkpt lat="37.0616014301776885986328125" lon="-4.7214370407164096832275390625">
        <ele>402.20001220703125</ele>
        <time>2019-11-01T10:34:54.000Z</time>
      </trkpt>
      <trkpt lat="37.06163571216166019439697265625" lon="-4.7216620109975337982177734375">
        <ele>403.79998779296875</ele>
        <time>2019-11-01T10:35:01.000Z</time>
      </trkpt>
      <trkpt lat="37.0616805553436279296875" lon="-4.721910953521728515625">
        <ele>405.399993896484375</ele>
        <time>2019-11-01T10:35:09.000Z</time>
      </trkpt>
      <trkpt lat="37.06172405742108821868896484375" lon="-4.7221632488071918487548828125">
        <ele>408</ele>
        <time>2019-11-01T10:35:17.000Z</time>
      </trkpt>
      <trkpt lat="37.06176496110856533050537109375" lon="-4.7224103473126888275146484375">
        <ele>409</ele>
        <time>2019-11-01T10:35:25.000Z</time>
      </trkpt>
      <trkpt lat="37.06180326640605926513671875" lon="-4.722632803022861480712890625">
        <ele>410.20001220703125</ele>
        <time>2019-11-01T10:35:34.000Z</time>
      </trkpt>
      <trkpt lat="37.06180502660572528839111328125" lon="-4.722637832164764404296875">
        <ele>410.20001220703125</ele>
        <time>2019-11-01T10:35:36.000Z</time>
      </trkpt>
      <trkpt lat="37.0618037693202495574951171875" lon="-4.72263590432703495025634765625">
        <ele>410.20001220703125</ele>
        <time>2019-11-01T10:35:38.000Z</time>
      </trkpt>
      <trkpt lat="37.06182539463043212890625" lon="-4.722779653966426849365234375">
        <ele>410.79998779296875</ele>
        <time>2019-11-01T10:37:02.000Z</time>
      </trkpt>
      <trkpt lat="37.06184140406548976898193359375" lon="-4.72302750684320926666259765625">
        <ele>412.399993896484375</ele>
        <time>2019-11-01T10:37:09.000Z</time>
      </trkpt>
      <trkpt lat="37.06184911541640758514404296875" lon="-4.72326345741748809814453125">
        <ele>414.600006103515625</ele>
        <time>2019-11-01T10:37:15.000Z</time>
      </trkpt>
      <trkpt lat="37.061837129294872283935546875" lon="-4.723518602550029754638671875">
        <ele>416.79998779296875</ele>
        <time>2019-11-01T10:37:21.000Z</time>
      </trkpt>
      <trkpt lat="37.06180200912058353424072265625" lon="-4.723763354122638702392578125">
        <ele>418.399993896484375</ele>
        <time>2019-11-01T10:37:27.000Z</time>
      </trkpt>
      <trkpt lat="37.06175372935831546783447265625" lon="-4.72398354671895503997802734375">
        <ele>419.20001220703125</ele>
        <time>2019-11-01T10:37:32.000Z</time>
      </trkpt>
      <trkpt lat="37.0616854168474674224853515625" lon="-4.72421354614198207855224609375">
        <ele>419.399993896484375</ele>
        <time>2019-11-01T10:37:37.000Z</time>
      </trkpt>
      <trkpt lat="37.0615925453603267669677734375" lon="-4.7244538553059101104736328125">
        <ele>419</ele>
        <time>2019-11-01T10:37:42.000Z</time>
      </trkpt>
      <trkpt lat="37.061511576175689697265625" lon="-4.72465954720973968505859375">
        <ele>418.600006103515625</ele>
        <time>2019-11-01T10:37:46.000Z</time>
      </trkpt>
      <trkpt lat="37.0614198781549930572509765625" lon="-4.7248707711696624755859375">
        <ele>418.20001220703125</ele>
        <time>2019-11-01T10:37:50.000Z</time>
      </trkpt>
      <trkpt lat="37.0613243244588375091552734375" lon="-4.72508526407182216644287109375">
        <ele>417.600006103515625</ele>
        <time>2019-11-01T10:37:54.000Z</time>
      </trkpt>
      <trkpt lat="37.0612156949937343597412109375" lon="-4.72529246471822261810302734375">
        <ele>416.79998779296875</ele>
        <time>2019-11-01T10:37:58.000Z</time>
      </trkpt>
      <trkpt lat="37.06109507940709590911865234375" lon="-4.72552346996963024139404296875">
        <ele>416.600006103515625</ele>
        <time>2019-11-01T10:38:03.000Z</time>
      </trkpt>
      <trkpt lat="37.06099533475935459136962890625" lon="-4.72571290098130702972412109375">
        <ele>416.600006103515625</ele>
        <time>2019-11-01T10:38:07.000Z</time>
      </trkpt>
      <trkpt lat="37.06087161786854267120361328125" lon="-4.72594432532787322998046875">
        <ele>416.79998779296875</ele>
        <time>2019-11-01T10:38:12.000Z</time>
      </trkpt>
      <trkpt lat="37.060754187405109405517578125" lon="-4.7261738218367099761962890625">
        <ele>417.600006103515625</ele>
        <time>2019-11-01T10:38:17.000Z</time>
      </trkpt>
      <trkpt lat="37.06063323654234409332275390625" lon="-4.72638730891048908233642578125">
        <ele>418.20001220703125</ele>
        <time>2019-11-01T10:38:22.000Z</time>
      </trkpt>
      <trkpt lat="37.0605166442692279815673828125" lon="-4.7265996225178241729736328125">
        <ele>419.79998779296875</ele>
        <time>2019-11-01T10:38:27.000Z</time>
      </trkpt>
      <trkpt lat="37.060393430292606353759765625" lon="-4.7268051467835903167724609375">
        <ele>421.20001220703125</ele>
        <time>2019-11-01T10:38:32.000Z</time>
      </trkpt>
      <trkpt lat="37.0602735690772533416748046875" lon="-4.727014191448688507080078125">
        <ele>421.600006103515625</ele>
        <time>2019-11-01T10:38:37.000Z</time>
      </trkpt>
      <trkpt lat="37.06016267649829387664794921875" lon="-4.72722600214183330535888671875">
        <ele>422</ele>
        <time>2019-11-01T10:38:42.000Z</time>
      </trkpt>
      <trkpt lat="37.06005656160414218902587890625" lon="-4.7274378128349781036376953125">
        <ele>422.600006103515625</ele>
        <time>2019-11-01T10:38:47.000Z</time>
      </trkpt>
      <trkpt lat="37.0599456690251827239990234375" lon="-4.72765012644231319427490234375">
        <ele>423.399993896484375</ele>
        <time>2019-11-01T10:38:52.000Z</time>
      </trkpt>
      <trkpt lat="37.05983008258044719696044921875" lon="-4.72786302678287029266357421875">
        <ele>423.600006103515625</ele>
        <time>2019-11-01T10:38:57.000Z</time>
      </trkpt>
      <trkpt lat="37.059719860553741455078125" lon="-4.72808062098920345306396484375">
        <ele>422.79998779296875</ele>
        <time>2019-11-01T10:39:02.000Z</time>
      </trkpt>
      <trkpt lat="37.0596046932041645050048828125" lon="-4.72829838283360004425048828125">
        <ele>422.600006103515625</ele>
        <time>2019-11-01T10:39:07.000Z</time>
      </trkpt>
      <trkpt lat="37.059498913586139678955078125" lon="-4.72852067090570926666259765625">
        <ele>423</ele>
        <time>2019-11-01T10:39:12.000Z</time>
      </trkpt>
      <trkpt lat="37.05940277315676212310791015625" lon="-4.7287443839013576507568359375">
        <ele>423.600006103515625</ele>
        <time>2019-11-01T10:39:17.000Z</time>
      </trkpt>
      <trkpt lat="37.059307806193828582763671875" lon="-4.72896583378314971923828125">
        <ele>424</ele>
        <time>2019-11-01T10:39:22.000Z</time>
      </trkpt>
      <trkpt lat="37.059221304953098297119140625" lon="-4.72918485291302204132080078125">
        <ele>424</ele>
        <time>2019-11-01T10:39:27.000Z</time>
      </trkpt>
      <trkpt lat="37.059143520891666412353515625" lon="-4.7294112481176853179931640625">
        <ele>424</ele>
        <time>2019-11-01T10:39:32.000Z</time>
      </trkpt>
      <trkpt lat="37.0590679161250591278076171875" lon="-4.729637391865253448486328125">
        <ele>424.399993896484375</ele>
        <time>2019-11-01T10:39:37.000Z</time>
      </trkpt>
      <trkpt lat="37.05899407155811786651611328125" lon="-4.7298682294785976409912109375">
        <ele>425.20001220703125</ele>
        <time>2019-11-01T10:39:42.000Z</time>
      </trkpt>
      <trkpt lat="37.0589187182486057281494140625" lon="-4.73010233603417873382568359375">
        <ele>425.79998779296875</ele>
        <time>2019-11-01T10:39:47.000Z</time>
      </trkpt>
      <trkpt lat="37.0588429458439350128173828125" lon="-4.73033334128558635711669921875">
        <ele>427</ele>
        <time>2019-11-01T10:39:52.000Z</time>
      </trkpt>
      <trkpt lat="37.05876792781054973602294921875" lon="-4.73056434653699398040771484375">
        <ele>427.79998779296875</ele>
        <time>2019-11-01T10:39:57.000Z</time>
      </trkpt>
      <trkpt lat="37.05869215540587902069091796875" lon="-4.73079334013164043426513671875">
        <ele>428</ele>
        <time>2019-11-01T10:40:02.000Z</time>
      </trkpt>
      <trkpt lat="37.0586179755628108978271484375" lon="-4.73102099262177944183349609375">
        <ele>428.399993896484375</ele>
        <time>2019-11-01T10:40:07.000Z</time>
      </trkpt>
      <trkpt lat="37.05855318345129489898681640625" lon="-4.73124680109322071075439453125">
        <ele>429</ele>
        <time>2019-11-01T10:40:12.000Z</time>
      </trkpt>
      <trkpt lat="37.05847322009503841400146484375" lon="-4.73149247467517852783203125">
        <ele>429</ele>
        <time>2019-11-01T10:40:17.000Z</time>
      </trkpt>
      <trkpt lat="37.0583935081958770751953125" lon="-4.73173077218234539031982421875">
        <ele>429.399993896484375</ele>
        <time>2019-11-01T10:40:22.000Z</time>
      </trkpt>
      <trkpt lat="37.05831706523895263671875" lon="-4.7319640405476093292236328125">
        <ele>429.399993896484375</ele>
        <time>2019-11-01T10:40:27.000Z</time>
      </trkpt>
      <trkpt lat="37.058239281177520751953125" lon="-4.732200913131237030029296875">
        <ele>429.79998779296875</ele>
        <time>2019-11-01T10:40:32.000Z</time>
      </trkpt>
      <trkpt lat="37.0581599883735179901123046875" lon="-4.7324359416961669921875">
        <ele>429.600006103515625</ele>
        <time>2019-11-01T10:40:37.000Z</time>
      </trkpt>
      <trkpt lat="37.058078683912754058837890625" lon="-4.7326805256307125091552734375">
        <ele>429.399993896484375</ele>
        <time>2019-11-01T10:40:42.000Z</time>
      </trkpt>
      <trkpt lat="37.057997547090053558349609375" lon="-4.73293039016425609588623046875">
        <ele>429.79998779296875</ele>
        <time>2019-11-01T10:40:47.000Z</time>
      </trkpt>
      <trkpt lat="37.0579155720770359039306640625" lon="-4.73318587057292461395263671875">
        <ele>430</ele>
        <time>2019-11-01T10:40:52.000Z</time>
      </trkpt>
      <trkpt lat="37.05784826539456844329833984375" lon="-4.7333948314189910888671875">
        <ele>430</ele>
        <time>2019-11-01T10:40:56.000Z</time>
      </trkpt>
      <trkpt lat="37.057777941226959228515625" lon="-4.73360345698893070220947265625">
        <ele>430</ele>
        <time>2019-11-01T10:41:00.000Z</time>
      </trkpt>
      <trkpt lat="37.0577097125351428985595703125" lon="-4.7338197939097881317138671875">
        <ele>430.20001220703125</ele>
        <time>2019-11-01T10:41:04.000Z</time>
      </trkpt>
      <trkpt lat="37.05763838253915309906005859375" lon="-4.734043590724468231201171875">
        <ele>430.600006103515625</ele>
        <time>2019-11-01T10:41:08.000Z</time>
      </trkpt>
      <trkpt lat="37.0575705729424953460693359375" lon="-4.73425774835050106048583984375">
        <ele>431.79998779296875</ele>
        <time>2019-11-01T10:41:12.000Z</time>
      </trkpt>
      <trkpt lat="37.05750125460326671600341796875" lon="-4.73446930758655071258544921875">
        <ele>432</ele>
        <time>2019-11-01T10:41:16.000Z</time>
      </trkpt>
      <trkpt lat="37.05748759210109710693359375" lon="-4.7345211915671825408935546875">
        <ele>432</ele>
        <time>2019-11-01T10:41:17.000Z</time>
      </trkpt>
      <trkpt lat="37.05741911195218563079833984375" lon="-4.734745658934116363525390625">
        <ele>432.79998779296875</ele>
        <time>2019-11-01T10:41:21.000Z</time>
      </trkpt>
      <trkpt lat="37.0573321916162967681884765625" lon="-4.73499870859086513519287109375">
        <ele>433</ele>
        <time>2019-11-01T10:41:25.000Z</time>
      </trkpt>
      <trkpt lat="37.05725851468741893768310546875" lon="-4.7352091781795024871826171875">
        <ele>433</ele>
        <time>2019-11-01T10:41:28.000Z</time>
      </trkpt>
      <trkpt lat="37.0571876876056194305419921875" lon="-4.73542534746229648590087890625">
        <ele>432.79998779296875</ele>
        <time>2019-11-01T10:41:31.000Z</time>
      </trkpt>
      <trkpt lat="37.0571092329919338226318359375" lon="-4.73565283231437206268310546875">
        <ele>431.79998779296875</ele>
        <time>2019-11-01T10:41:34.000Z</time>
      </trkpt>
      <trkpt lat="37.057030610740184783935546875" lon="-4.7358844242990016937255859375">
        <ele>429.79998779296875</ele>
        <time>2019-11-01T10:41:37.000Z</time>
      </trkpt>
      <trkpt lat="37.056951485574245452880859375" lon="-4.7361281700432300567626953125">
        <ele>428.600006103515625</ele>
        <time>2019-11-01T10:41:40.000Z</time>
      </trkpt>
      <trkpt lat="37.05686808563768863677978515625" lon="-4.7363792918622493743896484375">
        <ele>427.399993896484375</ele>
        <time>2019-11-01T10:41:43.000Z</time>
      </trkpt>
      <trkpt lat="37.0567895472049713134765625" lon="-4.7366295754909515380859375">
        <ele>426.399993896484375</ele>
        <time>2019-11-01T10:41:46.000Z</time>
      </trkpt>
      <trkpt lat="37.05670950002968311309814453125" lon="-4.7368825413286685943603515625">
        <ele>426</ele>
        <time>2019-11-01T10:41:49.000Z</time>
      </trkpt>
      <trkpt lat="37.05662836320698261260986328125" lon="-4.7371282987296581268310546875">
        <ele>426</ele>
        <time>2019-11-01T10:41:52.000Z</time>
      </trkpt>
      <trkpt lat="37.05655007623136043548583984375" lon="-4.7373733855783939361572265625">
        <ele>426</ele>
        <time>2019-11-01T10:41:55.000Z</time>
      </trkpt>
      <trkpt lat="37.0564671792089939117431640625" lon="-4.73761595785617828369140625">
        <ele>426</ele>
        <time>2019-11-01T10:41:58.000Z</time>
      </trkpt>
      <trkpt lat="37.0563900656998157501220703125" lon="-4.73785341717302799224853515625">
        <ele>426</ele>
        <time>2019-11-01T10:42:01.000Z</time>
      </trkpt>
      <trkpt lat="37.05631286837160587310791015625" lon="-4.7380865179002285003662109375">
        <ele>425.20001220703125</ele>
        <time>2019-11-01T10:42:04.000Z</time>
      </trkpt>
      <trkpt lat="37.05623910762369632720947265625" lon="-4.73831660114228725433349609375">
        <ele>424.20001220703125</ele>
        <time>2019-11-01T10:42:07.000Z</time>
      </trkpt>
      <trkpt lat="37.05616484396159648895263671875" lon="-4.738540314137935638427734375">
        <ele>423.399993896484375</ele>
        <time>2019-11-01T10:42:10.000Z</time>
      </trkpt>
      <trkpt lat="37.05609208904206752777099609375" lon="-4.73876335658133029937744140625">
        <ele>422.600006103515625</ele>
        <time>2019-11-01T10:42:13.000Z</time>
      </trkpt>
      <trkpt lat="37.05602285452187061309814453125" lon="-4.73898950032889842987060546875">
        <ele>422</ele>
        <time>2019-11-01T10:42:16.000Z</time>
      </trkpt>
      <trkpt lat="37.05595261417329311370849609375" lon="-4.73921128548681735992431640625">
        <ele>422</ele>
        <time>2019-11-01T10:42:19.000Z</time>
      </trkpt>
      <trkpt lat="37.05587818287312984466552734375" lon="-4.73943089134991168975830078125">
        <ele>422</ele>
        <time>2019-11-01T10:42:22.000Z</time>
      </trkpt>
      <trkpt lat="37.0558036677539348602294921875" lon="-4.73965116776525974273681640625">
        <ele>422</ele>
        <time>2019-11-01T10:42:25.000Z</time>
      </trkpt>
      <trkpt lat="37.05573384650051593780517578125" lon="-4.73987144418060779571533203125">
        <ele>422</ele>
        <time>2019-11-01T10:42:28.000Z</time>
      </trkpt>
      <trkpt lat="37.05567148514091968536376953125" lon="-4.740089289844036102294921875">
        <ele>422</ele>
        <time>2019-11-01T10:42:31.000Z</time>
      </trkpt>
      <trkpt lat="37.0556041784584522247314453125" lon="-4.74037234671413898468017578125">
        <ele>422.399993896484375</ele>
        <time>2019-11-01T10:42:35.000Z</time>
      </trkpt>
      <trkpt lat="37.0555431582033634185791015625" lon="-4.74064878188073635101318359375">
        <ele>422.600006103515625</ele>
        <time>2019-11-01T10:42:39.000Z</time>
      </trkpt>
      <trkpt lat="37.0554955489933490753173828125" lon="-4.7409336827695369720458984375">
        <ele>421.600006103515625</ele>
        <time>2019-11-01T10:42:43.000Z</time>
      </trkpt>
      <trkpt lat="37.055466882884502410888671875" lon="-4.74115739576518535614013671875">
        <ele>420</ele>
        <time>2019-11-01T10:42:46.000Z</time>
      </trkpt>
      <trkpt lat="37.05543972551822662353515625" lon="-4.7413842938840389251708984375">
        <ele>418.600006103515625</ele>
        <time>2019-11-01T10:42:49.000Z</time>
      </trkpt>
      <trkpt lat="37.05540443770587444305419921875" lon="-4.74167942069470882415771484375">
        <ele>417.20001220703125</ele>
        <time>2019-11-01T10:42:53.000Z</time>
      </trkpt>
      <trkpt lat="37.05537040717899799346923828125" lon="-4.74197454750537872314453125">
        <ele>417.20001220703125</ele>
        <time>2019-11-01T10:42:57.000Z</time>
      </trkpt>
      <trkpt lat="37.05533637665212154388427734375" lon="-4.74226824939250946044921875">
        <ele>416.79998779296875</ele>
        <time>2019-11-01T10:43:01.000Z</time>
      </trkpt>
      <trkpt lat="37.05530536361038684844970703125" lon="-4.7425621189177036285400390625">
        <ele>417.79998779296875</ele>
        <time>2019-11-01T10:43:05.000Z</time>
      </trkpt>
      <trkpt lat="37.05527116544544696807861328125" lon="-4.74285774864256381988525390625">
        <ele>418.20001220703125</ele>
        <time>2019-11-01T10:43:09.000Z</time>
      </trkpt>
      <trkpt lat="37.055236883461475372314453125" lon="-4.743151701986789703369140625">
        <ele>418.399993896484375</ele>
        <time>2019-11-01T10:43:13.000Z</time>
      </trkpt>
      <trkpt lat="37.05520226620137691497802734375" lon="-4.7434462420642375946044921875">
        <ele>418.600006103515625</ele>
        <time>2019-11-01T10:43:17.000Z</time>
      </trkpt>
      <trkpt lat="37.05516823567450046539306640625" lon="-4.7437422908842563629150390625">
        <ele>418.79998779296875</ele>
        <time>2019-11-01T10:43:21.000Z</time>
      </trkpt>
      <trkpt lat="37.0551341213285923004150390625" lon="-4.74403942935168743133544921875">
        <ele>419.600006103515625</ele>
        <time>2019-11-01T10:43:25.000Z</time>
      </trkpt>
      <trkpt lat="37.05510847270488739013671875" lon="-4.7442636452615261077880859375">
        <ele>420.399993896484375</ele>
        <time>2019-11-01T10:43:28.000Z</time>
      </trkpt>
      <trkpt lat="37.05508307553827762603759765625" lon="-4.7444866038858890533447265625">
        <ele>421.399993896484375</ele>
        <time>2019-11-01T10:43:31.000Z</time>
      </trkpt>
      <trkpt lat="37.05505692400038242340087890625" lon="-4.7447102330625057220458984375">
        <ele>420.600006103515625</ele>
        <time>2019-11-01T10:43:34.000Z</time>
      </trkpt>
      <trkpt lat="37.05503328703343868255615234375" lon="-4.7449388913810253143310546875">
        <ele>420</ele>
        <time>2019-11-01T10:43:37.000Z</time>
      </trkpt>
      <trkpt lat="37.05501082353293895721435546875" lon="-4.7451724112033843994140625">
        <ele>419.20001220703125</ele>
        <time>2019-11-01T10:43:40.000Z</time>
      </trkpt>
      <trkpt lat="37.054980732500553131103515625" lon="-4.74540584720671176910400390625">
        <ele>418.399993896484375</ele>
        <time>2019-11-01T10:43:43.000Z</time>
      </trkpt>
      <trkpt lat="37.05495114438235759735107421875" lon="-4.745640791952610015869140625">
        <ele>417.79998779296875</ele>
        <time>2019-11-01T10:43:46.000Z</time>
      </trkpt>
      <trkpt lat="37.05492675304412841796875" lon="-4.74587850272655487060546875">
        <ele>417.79998779296875</ele>
        <time>2019-11-01T10:43:49.000Z</time>
      </trkpt>
      <trkpt lat="37.0549111627042293548583984375" lon="-4.74612283520400524139404296875">
        <ele>417</ele>
        <time>2019-11-01T10:43:52.000Z</time>
      </trkpt>
      <trkpt lat="37.05488861538469791412353515625" lon="-4.746372364461421966552734375">
        <ele>417</ele>
        <time>2019-11-01T10:43:55.000Z</time>
      </trkpt>
      <trkpt lat="37.054862044751644134521484375" lon="-4.746627844870090484619140625">
        <ele>416.399993896484375</ele>
        <time>2019-11-01T10:43:58.000Z</time>
      </trkpt>
      <trkpt lat="37.05483765341341495513916015625" lon="-4.74689044989645481109619140625">
        <ele>416.20001220703125</ele>
        <time>2019-11-01T10:44:01.000Z</time>
      </trkpt>
      <trkpt lat="37.05480798147618770599365234375" lon="-4.7471590898931026458740234375">
        <ele>415.600006103515625</ele>
        <time>2019-11-01T10:44:04.000Z</time>
      </trkpt>
      <trkpt lat="37.05477864481508731842041015625" lon="-4.74743141792714595794677734375">
        <ele>413.79998779296875</ele>
        <time>2019-11-01T10:44:07.000Z</time>
      </trkpt>
      <trkpt lat="37.05473975278437137603759765625" lon="-4.7477122955024242401123046875">
        <ele>412.399993896484375</ele>
        <time>2019-11-01T10:44:10.000Z</time>
      </trkpt>
      <trkpt lat="37.05470287241041660308837890625" lon="-4.74799602292478084564208984375">
        <ele>410.600006103515625</ele>
        <time>2019-11-01T10:44:13.000Z</time>
      </trkpt>
      <trkpt lat="37.0546499826014041900634765625" lon="-4.748276062309741973876953125">
        <ele>409.79998779296875</ele>
        <time>2019-11-01T10:44:16.000Z</time>
      </trkpt>
      <trkpt lat="37.054596841335296630859375" lon="-4.74855995737016201019287109375">
        <ele>410</ele>
        <time>2019-11-01T10:44:19.000Z</time>
      </trkpt>
      <trkpt lat="37.05453942529857158660888671875" lon="-4.7488421760499477386474609375">
        <ele>410.600006103515625</ele>
        <time>2019-11-01T10:44:22.000Z</time>
      </trkpt>
      <trkpt lat="37.05447144806385040283203125" lon="-4.7491251491010189056396484375">
        <ele>411</ele>
        <time>2019-11-01T10:44:25.000Z</time>
      </trkpt>
      <trkpt lat="37.05440707504749298095703125" lon="-4.74940292537212371826171875">
        <ele>411</ele>
        <time>2019-11-01T10:44:28.000Z</time>
      </trkpt>
      <trkpt lat="37.05433599650859832763671875" lon="-4.74967206828296184539794921875">
        <ele>410.399993896484375</ele>
        <time>2019-11-01T10:44:31.000Z</time>
      </trkpt>
      <trkpt lat="37.0542597211897373199462890625" lon="-4.7499348409473896026611328125">
        <ele>409.20001220703125</ele>
        <time>2019-11-01T10:44:34.000Z</time>
      </trkpt>
      <trkpt lat="37.0541869662702083587646484375" lon="-4.7501886449754238128662109375">
        <ele>407.600006103515625</ele>
        <time>2019-11-01T10:44:37.000Z</time>
      </trkpt>
      <trkpt lat="37.05411337316036224365234375" lon="-4.75043633021414279937744140625">
        <ele>406.20001220703125</ele>
        <time>2019-11-01T10:44:40.000Z</time>
      </trkpt>
      <trkpt lat="37.0540431328117847442626953125" lon="-4.75067269988358020782470703125">
        <ele>406</ele>
        <time>2019-11-01T10:44:43.000Z</time>
      </trkpt>
      <trkpt lat="37.0539811067283153533935546875" lon="-4.7508923895657062530517578125">
        <ele>406.399993896484375</ele>
        <time>2019-11-01T10:44:46.000Z</time>
      </trkpt>
      <trkpt lat="37.05392017029225826263427734375" lon="-4.751109145581722259521484375">
        <ele>407.20001220703125</ele>
        <time>2019-11-01T10:44:49.000Z</time>
      </trkpt>
      <trkpt lat="37.05384657718241214752197265625" lon="-4.7513869218528270721435546875">
        <ele>407.79998779296875</ele>
        <time>2019-11-01T10:44:53.000Z</time>
      </trkpt>
      <trkpt lat="37.05377650447189807891845703125" lon="-4.75165665149688720703125">
        <ele>407.20001220703125</ele>
        <time>2019-11-01T10:44:57.000Z</time>
      </trkpt>
      <trkpt lat="37.05370358191430568695068359375" lon="-4.75190819241106510162353515625">
        <ele>406.600006103515625</ele>
        <time>2019-11-01T10:45:01.000Z</time>
      </trkpt>
      <trkpt lat="37.0536267198622226715087890625" lon="-4.75215487182140350341796875">
        <ele>406</ele>
        <time>2019-11-01T10:45:05.000Z</time>
      </trkpt>
      <trkpt lat="37.05355413258075714111328125" lon="-4.75239283405244350433349609375">
        <ele>405.399993896484375</ele>
        <time>2019-11-01T10:45:09.000Z</time>
      </trkpt>
      <trkpt lat="37.053485400974750518798828125" lon="-4.75262769497931003570556640625">
        <ele>405</ele>
        <time>2019-11-01T10:45:13.000Z</time>
      </trkpt>
      <trkpt lat="37.0534165017306804656982421875" lon="-4.75285400636494159698486328125">
        <ele>405.20001220703125</ele>
        <time>2019-11-01T10:45:17.000Z</time>
      </trkpt>
      <trkpt lat="37.05334961414337158203125" lon="-4.75307260639965534210205078125">
        <ele>405.20001220703125</ele>
        <time>2019-11-01T10:45:21.000Z</time>
      </trkpt>
      <trkpt lat="37.053280882537364959716796875" lon="-4.75330512039363384246826171875">
        <ele>404.20001220703125</ele>
        <time>2019-11-01T10:45:25.000Z</time>
      </trkpt>
      <trkpt lat="37.053212821483612060546875" lon="-4.7535569965839385986328125">
        <ele>404</ele>
        <time>2019-11-01T10:45:29.000Z</time>
      </trkpt>
      <trkpt lat="37.05313093028962612152099609375" lon="-4.75381247699260711669921875">
        <ele>404</ele>
        <time>2019-11-01T10:45:33.000Z</time>
      </trkpt>
      <trkpt lat="37.053054906427860260009765625" lon="-4.75407340563833713531494140625">
        <ele>403.79998779296875</ele>
        <time>2019-11-01T10:45:37.000Z</time>
      </trkpt>
      <trkpt lat="37.0529836602509021759033203125" lon="-4.75433642975986003875732421875">
        <ele>403.20001220703125</ele>
        <time>2019-11-01T10:45:41.000Z</time>
      </trkpt>
      <trkpt lat="37.05291568301618099212646484375" lon="-4.75459274835884571075439453125">
        <ele>403.20001220703125</ele>
        <time>2019-11-01T10:45:45.000Z</time>
      </trkpt>
      <trkpt lat="37.05286203883588314056396484375" lon="-4.75485384464263916015625">
        <ele>403.79998779296875</ele>
        <time>2019-11-01T10:45:49.000Z</time>
      </trkpt>
      <trkpt lat="37.05280185677111148834228515625" lon="-4.7551272623240947723388671875">
        <ele>405</ele>
        <time>2019-11-01T10:45:53.000Z</time>
      </trkpt>
      <trkpt lat="37.05275173299014568328857421875" lon="-4.755409397184848785400390625">
        <ele>404.79998779296875</ele>
        <time>2019-11-01T10:45:57.000Z</time>
      </trkpt>
      <trkpt lat="37.0527110807597637176513671875" lon="-4.75569069385528564453125">
        <ele>403.600006103515625</ele>
        <time>2019-11-01T10:46:01.000Z</time>
      </trkpt>
      <trkpt lat="37.0526715181767940521240234375" lon="-4.7559724934399127960205078125">
        <ele>402.600006103515625</ele>
        <time>2019-11-01T10:46:05.000Z</time>
      </trkpt>
      <trkpt lat="37.05263908021152019500732421875" lon="-4.75625320337712764739990234375">
        <ele>402</ele>
        <time>2019-11-01T10:46:09.000Z</time>
      </trkpt>
      <trkpt lat="37.052627764642238616943359375" lon="-4.75653936155140399932861328125">
        <ele>402.20001220703125</ele>
        <time>2019-11-01T10:46:13.000Z</time>
      </trkpt>
      <trkpt lat="37.05261426977813243865966796875" lon="-4.75681479088962078094482421875">
        <ele>403</ele>
        <time>2019-11-01T10:46:17.000Z</time>
      </trkpt>
      <trkpt lat="37.05260471440851688385009765625" lon="-4.7570889629423618316650390625">
        <ele>402.79998779296875</ele>
        <time>2019-11-01T10:46:21.000Z</time>
      </trkpt>
      <trkpt lat="37.052598260343074798583984375" lon="-4.7573595307767391204833984375">
        <ele>402</ele>
        <time>2019-11-01T10:46:25.000Z</time>
      </trkpt>
      <trkpt lat="37.052601613104343414306640625" lon="-4.75762884132564067840576171875">
        <ele>402.399993896484375</ele>
        <time>2019-11-01T10:46:29.000Z</time>
      </trkpt>
      <trkpt lat="37.05260940827429294586181640625" lon="-4.75788750685751438140869140625">
        <ele>403.399993896484375</ele>
        <time>2019-11-01T10:46:33.000Z</time>
      </trkpt>
      <trkpt lat="37.0526296086609363555908203125" lon="-4.75813410244882106781005859375">
        <ele>404.20001220703125</ele>
        <time>2019-11-01T10:46:37.000Z</time>
      </trkpt>
      <trkpt lat="37.0526455342769622802734375" lon="-4.75837768055498600006103515625">
        <ele>404</ele>
        <time>2019-11-01T10:46:41.000Z</time>
      </trkpt>
      <trkpt lat="37.0526507310569286346435546875" lon="-4.75843668915331363677978515625">
        <ele>403.79998779296875</ele>
        <time>2019-11-01T10:46:42.000Z</time>
      </trkpt>
      <trkpt lat="37.0526758767664432525634765625" lon="-4.75868160836398601531982421875">
        <ele>403</ele>
        <time>2019-11-01T10:46:46.000Z</time>
      </trkpt>
      <trkpt lat="37.05270244739949703216552734375" lon="-4.758925102651119232177734375">
        <ele>402.399993896484375</ele>
        <time>2019-11-01T10:46:50.000Z</time>
      </trkpt>
      <trkpt lat="37.0527191273868083953857421875" lon="-4.7591727040708065032958984375">
        <ele>402.399993896484375</ele>
        <time>2019-11-01T10:46:54.000Z</time>
      </trkpt>
      <trkpt lat="37.05274083651602268218994140625" lon="-4.759431369602680206298828125">
        <ele>402.399993896484375</ele>
        <time>2019-11-01T10:46:58.000Z</time>
      </trkpt>
      <trkpt lat="37.05276564694941043853759765625" lon="-4.7596970759332180023193359375">
        <ele>401.399993896484375</ele>
        <time>2019-11-01T10:47:02.000Z</time>
      </trkpt>
      <trkpt lat="37.05278961919248104095458984375" lon="-4.75995800457894802093505859375">
        <ele>401</ele>
        <time>2019-11-01T10:47:06.000Z</time>
      </trkpt>
      <trkpt lat="37.05281191505491733551025390625" lon="-4.7602123953402042388916015625">
        <ele>401</ele>
        <time>2019-11-01T10:47:10.000Z</time>
      </trkpt>
      <trkpt lat="37.0528327859938144683837890625" lon="-4.7604621760547161102294921875">
        <ele>401.399993896484375</ele>
        <time>2019-11-01T10:47:14.000Z</time>
      </trkpt>
      <trkpt lat="37.0528512261807918548583984375" lon="-4.7607119567692279815673828125">
        <ele>402</ele>
        <time>2019-11-01T10:47:18.000Z</time>
      </trkpt>
      <trkpt lat="37.0528713427484035491943359375" lon="-4.7609598934650421142578125">
        <ele>402.20001220703125</ele>
        <time>2019-11-01T10:47:22.000Z</time>
      </trkpt>
      <trkpt lat="37.05289573408663272857666015625" lon="-4.7612017951905727386474609375">
        <ele>403</ele>
        <time>2019-11-01T10:47:26.000Z</time>
      </trkpt>
      <trkpt lat="37.052915431559085845947265625" lon="-4.76144629530608654022216796875">
        <ele>403.79998779296875</ele>
        <time>2019-11-01T10:47:30.000Z</time>
      </trkpt>
      <trkpt lat="37.0529367215931415557861328125" lon="-4.76168668828904628753662109375">
        <ele>404</ele>
        <time>2019-11-01T10:47:34.000Z</time>
      </trkpt>
      <trkpt lat="37.052957005798816680908203125" lon="-4.761926494538784027099609375">
        <ele>404</ele>
        <time>2019-11-01T10:47:38.000Z</time>
      </trkpt>
      <trkpt lat="37.05297620035707950592041015625" lon="-4.76216227747499942779541015625">
        <ele>403.399993896484375</ele>
        <time>2019-11-01T10:47:42.000Z</time>
      </trkpt>
      <trkpt lat="37.0529940538108348846435546875" lon="-4.7623983956873416900634765625">
        <ele>403.20001220703125</ele>
        <time>2019-11-01T10:47:46.000Z</time>
      </trkpt>
      <trkpt lat="37.05301257781684398651123046875" lon="-4.76264499127864837646484375">
        <ele>403</ele>
        <time>2019-11-01T10:47:50.000Z</time>
      </trkpt>
      <trkpt lat="37.0530316047370433807373046875" lon="-4.76288613863289356231689453125">
        <ele>403</ele>
        <time>2019-11-01T10:47:54.000Z</time>
      </trkpt>
      <trkpt lat="37.05304694361984729766845703125" lon="-4.7631217539310455322265625">
        <ele>403</ele>
        <time>2019-11-01T10:47:58.000Z</time>
      </trkpt>
      <trkpt lat="37.0530627854168415069580078125" lon="-4.763354100286960601806640625">
        <ele>403.79998779296875</ele>
        <time>2019-11-01T10:48:02.000Z</time>
      </trkpt>
      <trkpt lat="37.0530711673200130462646484375" lon="-4.76363631896674633026123046875">
        <ele>404.79998779296875</ele>
        <time>2019-11-01T10:48:07.000Z</time>
      </trkpt>
      <trkpt lat="37.0530720055103302001953125" lon="-4.763904623687267303466796875">
        <ele>406.20001220703125</ele>
        <time>2019-11-01T10:48:12.000Z</time>
      </trkpt>
      <trkpt lat="37.0530601032078266143798828125" lon="-4.76416714489459991455078125">
        <ele>407</ele>
        <time>2019-11-01T10:48:17.000Z</time>
      </trkpt>
      <trkpt lat="37.05303856171667575836181640625" lon="-4.7644268162548542022705078125">
        <ele>408</ele>
        <time>2019-11-01T10:48:22.000Z</time>
      </trkpt>
      <trkpt lat="37.0530081354081630706787109375" lon="-4.76468690671026706695556640625">
        <ele>407.79998779296875</ele>
        <time>2019-11-01T10:48:27.000Z</time>
      </trkpt>
      <trkpt lat="37.05298156477510929107666015625" lon="-4.76493836380541324615478515625">
        <ele>407.399993896484375</ele>
        <time>2019-11-01T10:48:32.000Z</time>
      </trkpt>
      <trkpt lat="37.0529508031904697418212890625" lon="-4.765190072357654571533203125">
        <ele>406.600006103515625</ele>
        <time>2019-11-01T10:48:37.000Z</time>
      </trkpt>
      <trkpt lat="37.05291618593037128448486328125" lon="-4.7654423676431179046630859375">
        <ele>405.79998779296875</ele>
        <time>2019-11-01T10:48:42.000Z</time>
      </trkpt>
      <trkpt lat="37.05287528224289417266845703125" lon="-4.7656975127756595611572265625">
        <ele>405.600006103515625</ele>
        <time>2019-11-01T10:48:47.000Z</time>
      </trkpt>
      <trkpt lat="37.05283622257411479949951171875" lon="-4.76596011780202388763427734375">
        <ele>406.399993896484375</ele>
        <time>2019-11-01T10:48:52.000Z</time>
      </trkpt>
      <trkpt lat="37.05279867164790630340576171875" lon="-4.7662131674587726593017578125">
        <ele>407.20001220703125</ele>
        <time>2019-11-01T10:48:57.000Z</time>
      </trkpt>
      <trkpt lat="37.05276112072169780731201171875" lon="-4.76645817048847675323486328125">
        <ele>407.79998779296875</ele>
        <time>2019-11-01T10:49:02.000Z</time>
      </trkpt>
      <trkpt lat="37.05272709019482135772705078125" lon="-4.76669420488178730010986328125">
        <ele>409</ele>
        <time>2019-11-01T10:49:07.000Z</time>
      </trkpt>
      <trkpt lat="37.05269305966794490814208984375" lon="-4.7669246233999729156494140625">
        <ele>409.79998779296875</ele>
        <time>2019-11-01T10:49:12.000Z</time>
      </trkpt>
      <trkpt lat="37.05266506411135196685791015625" lon="-4.76715504191815853118896484375">
        <ele>411</ele>
        <time>2019-11-01T10:49:17.000Z</time>
      </trkpt>
      <trkpt lat="37.0526252500712871551513671875" lon="-4.7674101032316684722900390625">
        <ele>412.79998779296875</ele>
        <time>2019-11-01T10:49:23.000Z</time>
      </trkpt>
      <trkpt lat="37.05260991118848323822021484375" lon="-4.767492078244686126708984375">
        <ele>413.20001220703125</ele>
        <time>2019-11-01T10:49:25.000Z</time>
      </trkpt>
      <trkpt lat="37.05257621593773365020751953125" lon="-4.76772652007639408111572265625">
        <ele>414.79998779296875</ele>
        <time>2019-11-01T10:49:31.000Z</time>
      </trkpt>
      <trkpt lat="37.052537910640239715576171875" lon="-4.76795886643230915069580078125">
        <ele>416</ele>
        <time>2019-11-01T10:49:37.000Z</time>
      </trkpt>
      <trkpt lat="37.05249608494341373443603515625" lon="-4.76821267046034336090087890625">
        <ele>416.79998779296875</ele>
        <time>2019-11-01T10:49:44.000Z</time>
      </trkpt>
      <trkpt lat="37.05246289260685443878173828125" lon="-4.76843747310340404510498046875">
        <ele>417.399993896484375</ele>
        <time>2019-11-01T10:49:50.000Z</time>
      </trkpt>
      <trkpt lat="37.05243405885994434356689453125" lon="-4.7686626948416233062744140625">
        <ele>418.20001220703125</ele>
        <time>2019-11-01T10:49:56.000Z</time>
      </trkpt>
      <trkpt lat="37.05240539275109767913818359375" lon="-4.76888976059854030609130859375">
        <ele>418.79998779296875</ele>
        <time>2019-11-01T10:50:02.000Z</time>
      </trkpt>
      <trkpt lat="37.05236859619617462158203125" lon="-4.7691464982926845550537109375">
        <ele>420.20001220703125</ele>
        <time>2019-11-01T10:50:09.000Z</time>
      </trkpt>
      <trkpt lat="37.05233749933540821075439453125" lon="-4.76937138475477695465087890625">
        <ele>421.79998779296875</ele>
        <time>2019-11-01T10:50:15.000Z</time>
      </trkpt>
      <trkpt lat="37.05230480991303920745849609375" lon="-4.7695992887020111083984375">
        <ele>423</ele>
        <time>2019-11-01T10:50:21.000Z</time>
      </trkpt>
      <trkpt lat="37.052273713052272796630859375" lon="-4.76982283405959606170654296875">
        <ele>424.399993896484375</ele>
        <time>2019-11-01T10:50:27.000Z</time>
      </trkpt>
      <trkpt lat="37.0522383414208889007568359375" lon="-4.770046882331371307373046875">
        <ele>425.399993896484375</ele>
        <time>2019-11-01T10:50:33.000Z</time>
      </trkpt>
      <trkpt lat="37.0522014610469341278076171875" lon="-4.77027042768895626068115234375">
        <ele>426</ele>
        <time>2019-11-01T10:50:39.000Z</time>
      </trkpt>
      <trkpt lat="37.05216617323458194732666015625" lon="-4.7704978287220001220703125">
        <ele>426.20001220703125</ele>
        <time>2019-11-01T10:50:45.000Z</time>
      </trkpt>
      <trkpt lat="37.05213314853608608245849609375" lon="-4.77072757668793201446533203125">
        <ele>426.20001220703125</ele>
        <time>2019-11-01T10:50:51.000Z</time>
      </trkpt>
      <trkpt lat="37.05209760926663875579833984375" lon="-4.77095506154000759124755859375">
        <ele>426.399993896484375</ele>
        <time>2019-11-01T10:50:57.000Z</time>
      </trkpt>
      <trkpt lat="37.0520683564245700836181640625" lon="-4.77118246257305145263671875">
        <ele>427.79998779296875</ele>
        <time>2019-11-01T10:51:03.000Z</time>
      </trkpt>
      <trkpt lat="37.0520338229835033416748046875" lon="-4.77141254581511020660400390625">
        <ele>427.600006103515625</ele>
        <time>2019-11-01T10:51:09.000Z</time>
      </trkpt>
      <trkpt lat="37.052002139389514923095703125" lon="-4.77164355106651782989501953125">
        <ele>428</ele>
        <time>2019-11-01T10:51:15.000Z</time>
      </trkpt>
      <trkpt lat="37.05197162926197052001953125" lon="-4.77186701260507106781005859375">
        <ele>429</ele>
        <time>2019-11-01T10:51:21.000Z</time>
      </trkpt>
      <trkpt lat="37.0519345812499523162841796875" lon="-4.77209533564746379852294921875">
        <ele>429.20001220703125</ele>
        <time>2019-11-01T10:51:27.000Z</time>
      </trkpt>
      <trkpt lat="37.0518980361521244049072265625" lon="-4.77232516743242740631103515625">
        <ele>430.399993896484375</ele>
        <time>2019-11-01T10:51:33.000Z</time>
      </trkpt>
      <trkpt lat="37.05186794511973857879638671875" lon="-4.77255248464643955230712890625">
        <ele>431</ele>
        <time>2019-11-01T10:51:39.000Z</time>
      </trkpt>
      <trkpt lat="37.05184020102024078369140625" lon="-4.7727845795452594757080078125">
        <ele>431.79998779296875</ele>
        <time>2019-11-01T10:51:45.000Z</time>
      </trkpt>
      <trkpt lat="37.05180893652141094207763671875" lon="-4.77300996892154216766357421875">
        <ele>433</ele>
        <time>2019-11-01T10:51:51.000Z</time>
      </trkpt>
      <trkpt lat="37.05177540890872478485107421875" lon="-4.77326712571084499359130859375">
        <ele>435.399993896484375</ele>
        <time>2019-11-01T10:51:58.000Z</time>
      </trkpt>
      <trkpt lat="37.051759399473667144775390625" lon="-4.77350349538028240203857421875">
        <ele>437.399993896484375</ele>
        <time>2019-11-01T10:52:04.000Z</time>
      </trkpt>
      <trkpt lat="37.05174439586699008941650390625" lon="-4.77373852394521236419677734375">
        <ele>438.79998779296875</ele>
        <time>2019-11-01T10:52:10.000Z</time>
      </trkpt>
      <trkpt lat="37.05173970200121402740478515625" lon="-4.77397304959595203399658203125">
        <ele>440.20001220703125</ele>
        <time>2019-11-01T10:52:16.000Z</time>
      </trkpt>
      <trkpt lat="37.05174774862825870513916015625" lon="-4.7742140293121337890625">
        <ele>440.399993896484375</ele>
        <time>2019-11-01T10:52:22.000Z</time>
      </trkpt>
      <trkpt lat="37.05175981856882572174072265625" lon="-4.77444595657289028167724609375">
        <ele>440.79998779296875</ele>
        <time>2019-11-01T10:52:28.000Z</time>
      </trkpt>
      <trkpt lat="37.051787562668323516845703125" lon="-4.77467159740626811981201171875">
        <ele>440.79998779296875</ele>
        <time>2019-11-01T10:52:34.000Z</time>
      </trkpt>
      <trkpt lat="37.0518194139003753662109375" lon="-4.774897657334804534912109375">
        <ele>441</ele>
        <time>2019-11-01T10:52:40.000Z</time>
      </trkpt>
      <trkpt lat="37.05185436643660068511962890625" lon="-4.775120951235294342041015625">
        <ele>441.399993896484375</ele>
        <time>2019-11-01T10:52:46.000Z</time>
      </trkpt>
      <trkpt lat="37.05189761705696582794189453125" lon="-4.775346256792545318603515625">
        <ele>441.600006103515625</ele>
        <time>2019-11-01T10:52:52.000Z</time>
      </trkpt>
      <trkpt lat="37.0519466511905193328857421875" lon="-4.7755653597414493560791015625">
        <ele>442</ele>
        <time>2019-11-01T10:52:58.000Z</time>
      </trkpt>
      <trkpt lat="37.0520076714456081390380859375" lon="-4.7757844626903533935546875">
        <ele>442.399993896484375</ele>
        <time>2019-11-01T10:53:04.000Z</time>
      </trkpt>
      <trkpt lat="37.05206525512039661407470703125" lon="-4.77600666694343090057373046875">
        <ele>443.399993896484375</ele>
        <time>2019-11-01T10:53:10.000Z</time>
      </trkpt>
      <trkpt lat="37.0521290414035320281982421875" lon="-4.7762241773307323455810546875">
        <ele>445.399993896484375</ele>
        <time>2019-11-01T10:53:16.000Z</time>
      </trkpt>
      <trkpt lat="37.05219031311571598052978515625" lon="-4.7764464654028415679931640625">
        <ele>447</ele>
        <time>2019-11-01T10:53:22.000Z</time>
      </trkpt>
      <trkpt lat="37.05225233919918537139892578125" lon="-4.776665233075618743896484375">
        <ele>447.20001220703125</ele>
        <time>2019-11-01T10:53:28.000Z</time>
      </trkpt>
      <trkpt lat="37.0523184724152088165283203125" lon="-4.77691174484789371490478515625">
        <ele>447.399993896484375</ele>
        <time>2019-11-01T10:53:35.000Z</time>
      </trkpt>
      <trkpt lat="37.05237739719450473785400390625" lon="-4.77712514810264110565185546875">
        <ele>447</ele>
        <time>2019-11-01T10:53:41.000Z</time>
      </trkpt>
      <trkpt lat="37.05243959091603755950927734375" lon="-4.7773584164679050445556640625">
        <ele>447.399993896484375</ele>
        <time>2019-11-01T10:53:48.000Z</time>
      </trkpt>
      <trkpt lat="37.05249734222888946533203125" lon="-4.7775867395102977752685546875">
        <ele>448.399993896484375</ele>
        <time>2019-11-01T10:53:55.000Z</time>
      </trkpt>
      <trkpt lat="37.05255894921720027923583984375" lon="-4.7778197564184665679931640625">
        <ele>449.600006103515625</ele>
        <time>2019-11-01T10:54:02.000Z</time>
      </trkpt>
      <trkpt lat="37.05262684263288974761962890625" lon="-4.7780608199536800384521484375">
        <ele>451.399993896484375</ele>
        <time>2019-11-01T10:54:09.000Z</time>
      </trkpt>
      <trkpt lat="37.0526963286101818084716796875" lon="-4.77830783464014530181884765625">
        <ele>452.399993896484375</ele>
        <time>2019-11-01T10:54:16.000Z</time>
      </trkpt>
      <trkpt lat="37.0527603663504123687744140625" lon="-4.778558202087879180908203125">
        <ele>452.600006103515625</ele>
        <time>2019-11-01T10:54:23.000Z</time>
      </trkpt>
      <trkpt lat="37.0528207160532474517822265625" lon="-4.7787726111710071563720703125">
        <ele>452.399993896484375</ele>
        <time>2019-11-01T10:54:29.000Z</time>
      </trkpt>
      <trkpt lat="37.05288953147828578948974609375" lon="-4.77902029640972614288330078125">
        <ele>453.20001220703125</ele>
        <time>2019-11-01T10:54:36.000Z</time>
      </trkpt>
      <trkpt lat="37.05294854007661342620849609375" lon="-4.77923621423542499542236328125">
        <ele>455</ele>
        <time>2019-11-01T10:54:42.000Z</time>
      </trkpt>
      <trkpt lat="37.05300805158913135528564453125" lon="-4.77945045568048954010009765625">
        <ele>456.79998779296875</ele>
        <time>2019-11-01T10:54:48.000Z</time>
      </trkpt>
      <trkpt lat="37.0530668087303638458251953125" lon="-4.7796718217432498931884765625">
        <ele>458</ele>
        <time>2019-11-01T10:54:54.000Z</time>
      </trkpt>
      <trkpt lat="37.05312221311032772064208984375" lon="-4.77988732047379016876220703125">
        <ele>458</ele>
        <time>2019-11-01T10:55:00.000Z</time>
      </trkpt>
      <trkpt lat="37.053180299699306488037109375" lon="-4.78013995103538036346435546875">
        <ele>459</ele>
        <time>2019-11-01T10:55:07.000Z</time>
      </trkpt>
      <trkpt lat="37.053225226700305938720703125" lon="-4.78036056272685527801513671875">
        <ele>459</ele>
        <time>2019-11-01T10:55:13.000Z</time>
      </trkpt>
      <trkpt lat="37.0532636158168315887451171875" lon="-4.7805938310921192169189453125">
        <ele>458.79998779296875</ele>
        <time>2019-11-01T10:55:19.000Z</time>
      </trkpt>
      <trkpt lat="37.0532973110675811767578125" lon="-4.7808323800563812255859375">
        <ele>459.79998779296875</ele>
        <time>2019-11-01T10:55:25.000Z</time>
      </trkpt>
      <trkpt lat="37.05332220532000064849853515625" lon="-4.7810786403715610504150390625">
        <ele>461.20001220703125</ele>
        <time>2019-11-01T10:55:31.000Z</time>
      </trkpt>
      <trkpt lat="37.05333678983151912689208984375" lon="-4.78133789263665676116943359375">
        <ele>462.600006103515625</ele>
        <time>2019-11-01T10:55:37.000Z</time>
      </trkpt>
      <trkpt lat="37.05334098078310489654541015625" lon="-4.781603515148162841796875">
        <ele>463.399993896484375</ele>
        <time>2019-11-01T10:55:43.000Z</time>
      </trkpt>
      <trkpt lat="37.05333461053669452667236328125" lon="-4.78186209686100482940673828125">
        <ele>463.20001220703125</ele>
        <time>2019-11-01T10:55:49.000Z</time>
      </trkpt>
      <trkpt lat="37.053321786224842071533203125" lon="-4.7821280546486377716064453125">
        <ele>462.20001220703125</ele>
        <time>2019-11-01T10:55:55.000Z</time>
      </trkpt>
      <trkpt lat="37.05329940654337406158447265625" lon="-4.78236299939453601837158203125">
        <ele>462</ele>
        <time>2019-11-01T10:56:00.000Z</time>
      </trkpt>
      <trkpt lat="37.0532652921974658966064453125" lon="-4.78262300603091716766357421875">
        <ele>463</ele>
        <time>2019-11-01T10:56:06.000Z</time>
      </trkpt>
      <trkpt lat="37.05321676097810268402099609375" lon="-4.7828891314566135406494140625">
        <ele>465</ele>
        <time>2019-11-01T10:56:12.000Z</time>
      </trkpt>
      <trkpt lat="37.05317057669162750244140625" lon="-4.783108569681644439697265625">
        <ele>464.79998779296875</ele>
        <time>2019-11-01T10:56:16.000Z</time>
      </trkpt>
      <trkpt lat="37.05312640406191349029541015625" lon="-4.78334066458046436309814453125">
        <ele>464.79998779296875</ele>
        <time>2019-11-01T10:56:20.000Z</time>
      </trkpt>
      <trkpt lat="37.053076364099979400634765625" lon="-4.78357552550733089447021484375">
        <ele>464.600006103515625</ele>
        <time>2019-11-01T10:56:24.000Z</time>
      </trkpt>
      <trkpt lat="37.05303152091801166534423828125" lon="-4.78379563428461551666259765625">
        <ele>464</ele>
        <time>2019-11-01T10:56:28.000Z</time>
      </trkpt>
      <trkpt lat="37.05298290587961673736572265625" lon="-4.7840532101690769195556640625">
        <ele>462.79998779296875</ele>
        <time>2019-11-01T10:56:33.000Z</time>
      </trkpt>
      <trkpt lat="37.05292758531868457794189453125" lon="-4.78431564755737781524658203125">
        <ele>461.79998779296875</ele>
        <time>2019-11-01T10:56:38.000Z</time>
      </trkpt>
      <trkpt lat="37.05288483761250972747802734375" lon="-4.7845909930765628814697265625">
        <ele>460.79998779296875</ele>
        <time>2019-11-01T10:56:43.000Z</time>
      </trkpt>
      <trkpt lat="37.05284309573471546173095703125" lon="-4.78481571190059185028076171875">
        <ele>460.600006103515625</ele>
        <time>2019-11-01T10:56:47.000Z</time>
      </trkpt>
      <trkpt lat="37.0528163574635982513427734375" lon="-4.78504621423780918121337890625">
        <ele>460.20001220703125</ele>
        <time>2019-11-01T10:56:51.000Z</time>
      </trkpt>
      <trkpt lat="37.05278207547962665557861328125" lon="-4.78527688421308994293212890625">
        <ele>459.600006103515625</ele>
        <time>2019-11-01T10:56:55.000Z</time>
      </trkpt>
      <trkpt lat="37.0527472905814647674560546875" lon="-4.78551459498703479766845703125">
        <ele>460.20001220703125</ele>
        <time>2019-11-01T10:56:59.000Z</time>
      </trkpt>
      <trkpt lat="37.05270429141819477081298828125" lon="-4.78575565852224826812744140625">
        <ele>460.20001220703125</ele>
        <time>2019-11-01T10:57:03.000Z</time>
      </trkpt>
      <trkpt lat="37.0526611246168613433837890625" lon="-4.7859958000481128692626953125">
        <ele>460</ele>
        <time>2019-11-01T10:57:07.000Z</time>
      </trkpt>
      <trkpt lat="37.05261678434908390045166015625" lon="-4.78624038398265838623046875">
        <ele>460</ele>
        <time>2019-11-01T10:57:11.000Z</time>
      </trkpt>
      <trkpt lat="37.052569426596164703369140625" lon="-4.78647750802338123321533203125">
        <ele>460.399993896484375</ele>
        <time>2019-11-01T10:57:15.000Z</time>
      </trkpt>
      <trkpt lat="37.0525226555764675140380859375" lon="-4.78674623183906078338623046875">
        <ele>460</ele>
        <time>2019-11-01T10:57:20.000Z</time>
      </trkpt>
      <trkpt lat="37.05247990787029266357421875" lon="-4.78698813356459140777587890625">
        <ele>458.79998779296875</ele>
        <time>2019-11-01T10:57:25.000Z</time>
      </trkpt>
      <trkpt lat="37.052431963384151458740234375" lon="-4.78725518099963665008544921875">
        <ele>457.600006103515625</ele>
        <time>2019-11-01T10:57:30.000Z</time>
      </trkpt>
      <trkpt lat="37.05239298753440380096435546875" lon="-4.787489958107471466064453125">
        <ele>457.79998779296875</ele>
        <time>2019-11-01T10:57:34.000Z</time>
      </trkpt>
      <trkpt lat="37.05234789289534091949462890625" lon="-4.78773982264101505279541015625">
        <ele>458.600006103515625</ele>
        <time>2019-11-01T10:57:38.000Z</time>
      </trkpt>
      <trkpt lat="37.0523010380566120147705078125" lon="-4.7879980690777301788330078125">
        <ele>460</ele>
        <time>2019-11-01T10:57:42.000Z</time>
      </trkpt>
      <trkpt lat="37.052246220409870147705078125" lon="-4.7882639430463314056396484375">
        <ele>461.399993896484375</ele>
        <time>2019-11-01T10:57:46.000Z</time>
      </trkpt>
      <trkpt lat="37.05219584517180919647216796875" lon="-4.7885330021381378173828125">
        <ele>462.399993896484375</ele>
        <time>2019-11-01T10:57:50.000Z</time>
      </trkpt>
      <trkpt lat="37.05214521847665309906005859375" lon="-4.7888027317821979522705078125">
        <ele>462</ele>
        <time>2019-11-01T10:57:54.000Z</time>
      </trkpt>
      <trkpt lat="37.052091658115386962890625" lon="-4.78907824493944644927978515625">
        <ele>460.600006103515625</ele>
        <time>2019-11-01T10:57:58.000Z</time>
      </trkpt>
      <trkpt lat="37.0520385168492794036865234375" lon="-4.78934780694544315338134765625">
        <ele>459.79998779296875</ele>
        <time>2019-11-01T10:58:02.000Z</time>
      </trkpt>
      <trkpt lat="37.051988057792186737060546875" lon="-4.78961686603724956512451171875">
        <ele>459</ele>
        <time>2019-11-01T10:58:06.000Z</time>
      </trkpt>
      <trkpt lat="37.05194338224828243255615234375" lon="-4.78988760150969028472900390625">
        <ele>459</ele>
        <time>2019-11-01T10:58:10.000Z</time>
      </trkpt>
      <trkpt lat="37.051892168819904327392578125" lon="-4.79015783406794071197509765625">
        <ele>458.79998779296875</ele>
        <time>2019-11-01T10:58:14.000Z</time>
      </trkpt>
      <trkpt lat="37.05184380523860454559326171875" lon="-4.7904335148632526397705078125">
        <ele>458</ele>
        <time>2019-11-01T10:58:18.000Z</time>
      </trkpt>
      <trkpt lat="37.0517954416573047637939453125" lon="-4.7907087765634059906005859375">
        <ele>458</ele>
        <time>2019-11-01T10:58:22.000Z</time>
      </trkpt>
      <trkpt lat="37.0517434738576412200927734375" lon="-4.79098613373935222625732421875">
        <ele>458.20001220703125</ele>
        <time>2019-11-01T10:58:26.000Z</time>
      </trkpt>
      <trkpt lat="37.05169360153377056121826171875" lon="-4.7912673465907573699951171875">
        <ele>460</ele>
        <time>2019-11-01T10:58:30.000Z</time>
      </trkpt>
      <trkpt lat="37.051635682582855224609375" lon="-4.79155920445919036865234375">
        <ele>462.399993896484375</ele>
        <time>2019-11-01T10:58:34.000Z</time>
      </trkpt>
      <trkpt lat="37.051594443619251251220703125" lon="-4.7917799837887287139892578125">
        <ele>464.20001220703125</ele>
        <time>2019-11-01T10:58:37.000Z</time>
      </trkpt>
      <trkpt lat="37.05154440365731716156005859375" lon="-4.79205683805048465728759765625">
        <ele>464.79998779296875</ele>
        <time>2019-11-01T10:58:41.000Z</time>
      </trkpt>
      <trkpt lat="37.051498554646968841552734375" lon="-4.7923134081065654754638671875">
        <ele>464</ele>
        <time>2019-11-01T10:58:45.000Z</time>
      </trkpt>
      <trkpt lat="37.0514457486569881439208984375" lon="-4.7925702296197414398193359375">
        <ele>463</ele>
        <time>2019-11-01T10:58:49.000Z</time>
      </trkpt>
      <trkpt lat="37.051395960152149200439453125" lon="-4.79283585213124752044677734375">
        <ele>462</ele>
        <time>2019-11-01T10:58:53.000Z</time>
      </trkpt>
      <trkpt lat="37.05134692601859569549560546875" lon="-4.79310977272689342498779296875">
        <ele>460.600006103515625</ele>
        <time>2019-11-01T10:58:57.000Z</time>
      </trkpt>
      <trkpt lat="37.05130183137953281402587890625" lon="-4.79338872246444225311279296875">
        <ele>459.399993896484375</ele>
        <time>2019-11-01T10:59:01.000Z</time>
      </trkpt>
      <trkpt lat="37.05125237815082073211669921875" lon="-4.79366415180265903472900390625">
        <ele>459</ele>
        <time>2019-11-01T10:59:05.000Z</time>
      </trkpt>
      <trkpt lat="37.0512053556740283966064453125" lon="-4.793936647474765777587890625">
        <ele>458</ele>
        <time>2019-11-01T10:59:09.000Z</time>
      </trkpt>
      <trkpt lat="37.05115799792110919952392578125" lon="-4.794217608869075775146484375">
        <ele>457.600006103515625</ele>
        <time>2019-11-01T10:59:13.000Z</time>
      </trkpt>
      <trkpt lat="37.05111642368137836456298828125" lon="-4.79449714533984661102294921875">
        <ele>457</ele>
        <time>2019-11-01T10:59:17.000Z</time>
      </trkpt>
      <trkpt lat="37.051068060100078582763671875" lon="-4.7947746701538562774658203125">
        <ele>456.399993896484375</ele>
        <time>2019-11-01T10:59:21.000Z</time>
      </trkpt>
      <trkpt lat="37.05102271400392055511474609375" lon="-4.7950428910553455352783203125">
        <ele>456.20001220703125</ele>
        <time>2019-11-01T10:59:25.000Z</time>
      </trkpt>
      <trkpt lat="37.050980888307094573974609375" lon="-4.79530247859656810760498046875">
        <ele>456</ele>
        <time>2019-11-01T10:59:29.000Z</time>
      </trkpt>
      <trkpt lat="37.05093235708773136138916015625" lon="-4.7955716215074062347412109375">
        <ele>455.79998779296875</ele>
        <time>2019-11-01T10:59:33.000Z</time>
      </trkpt>
      <trkpt lat="37.050887010991573333740234375" lon="-4.79584671556949615478515625">
        <ele>454.600006103515625</ele>
        <time>2019-11-01T10:59:37.000Z</time>
      </trkpt>
      <trkpt lat="37.05083864741027355194091796875" lon="-4.79612206108868122100830078125">
        <ele>453.399993896484375</ele>
        <time>2019-11-01T10:59:41.000Z</time>
      </trkpt>
      <trkpt lat="37.0507839135825634002685546875" lon="-4.79639925062656402587890625">
        <ele>453.600006103515625</ele>
        <time>2019-11-01T10:59:45.000Z</time>
      </trkpt>
      <trkpt lat="37.0507326163351535797119140625" lon="-4.79668498970568180084228515625">
        <ele>454.79998779296875</ele>
        <time>2019-11-01T10:59:49.000Z</time>
      </trkpt>
      <trkpt lat="37.05067955888807773590087890625" lon="-4.7969673760235309600830078125">
        <ele>456.20001220703125</ele>
        <time>2019-11-01T10:59:53.000Z</time>
      </trkpt>
      <trkpt lat="37.05062784254550933837890625" lon="-4.79724825359880924224853515625">
        <ele>457.20001220703125</ele>
        <time>2019-11-01T10:59:57.000Z</time>
      </trkpt>
      <trkpt lat="37.0505760423839092254638671875" lon="-4.797532819211483001708984375">
        <ele>457</ele>
        <time>2019-11-01T11:00:01.000Z</time>
      </trkpt>
      <trkpt lat="37.0505200512707233428955078125" lon="-4.7978161275386810302734375">
        <ele>457.399993896484375</ele>
        <time>2019-11-01T11:00:05.000Z</time>
      </trkpt>
      <trkpt lat="37.05046531744301319122314453125" lon="-4.7981006093323230743408203125">
        <ele>457.20001220703125</ele>
        <time>2019-11-01T11:00:09.000Z</time>
      </trkpt>
      <trkpt lat="37.05041720531880855560302734375" lon="-4.79831996373832225799560546875">
        <ele>457</ele>
        <time>2019-11-01T11:00:12.000Z</time>
      </trkpt>
      <trkpt lat="37.0503778941929340362548828125" lon="-4.79853923432528972625732421875">
        <ele>456.79998779296875</ele>
        <time>2019-11-01T11:00:15.000Z</time>
      </trkpt>
      <trkpt lat="37.0503148622810840606689453125" lon="-4.79882639832794666290283203125">
        <ele>456.600006103515625</ele>
        <time>2019-11-01T11:00:19.000Z</time>
      </trkpt>
      <trkpt lat="37.05026431940495967864990234375" lon="-4.7991118021309375762939453125">
        <ele>457.399993896484375</ele>
        <time>2019-11-01T11:00:23.000Z</time>
      </trkpt>
      <trkpt lat="37.05021838657557964324951171875" lon="-4.7993946075439453125">
        <ele>457.399993896484375</ele>
        <time>2019-11-01T11:00:27.000Z</time>
      </trkpt>
      <trkpt lat="37.050192989408969879150390625" lon="-4.7996713779866695404052734375">
        <ele>457.79998779296875</ele>
        <time>2019-11-01T11:00:31.000Z</time>
      </trkpt>
      <trkpt lat="37.05017647705972194671630859375" lon="-4.79994018562138080596923828125">
        <ele>458.20001220703125</ele>
        <time>2019-11-01T11:00:35.000Z</time>
      </trkpt>
      <trkpt lat="37.05018100328743457794189453125" lon="-4.800213687121868133544921875">
        <ele>458.20001220703125</ele>
        <time>2019-11-01T11:00:39.000Z</time>
      </trkpt>
      <trkpt lat="37.0501968450844287872314453125" lon="-4.80047830380499362945556640625">
        <ele>458.399993896484375</ele>
        <time>2019-11-01T11:00:43.000Z</time>
      </trkpt>
      <trkpt lat="37.05021989531815052032470703125" lon="-4.8007321916520595550537109375">
        <ele>458.399993896484375</ele>
        <time>2019-11-01T11:00:47.000Z</time>
      </trkpt>
      <trkpt lat="37.0502503216266632080078125" lon="-4.80098180472850799560546875">
        <ele>458.79998779296875</ele>
        <time>2019-11-01T11:00:51.000Z</time>
      </trkpt>
      <trkpt lat="37.05028460361063480377197265625" lon="-4.80122060514986515045166015625">
        <ele>458.399993896484375</ele>
        <time>2019-11-01T11:00:55.000Z</time>
      </trkpt>
      <trkpt lat="37.05033573321998119354248046875" lon="-4.8014612495899200439453125">
        <ele>458.399993896484375</ele>
        <time>2019-11-01T11:00:59.000Z</time>
      </trkpt>
      <trkpt lat="37.05038401298224925994873046875" lon="-4.8016981221735477447509765625">
        <ele>458.600006103515625</ele>
        <time>2019-11-01T11:01:03.000Z</time>
      </trkpt>
      <trkpt lat="37.0504382438957691192626953125" lon="-4.8019344918429851531982421875">
        <ele>459</ele>
        <time>2019-11-01T11:01:07.000Z</time>
      </trkpt>
      <trkpt lat="37.05050856806337833404541015625" lon="-4.8021621443331241607666015625">
        <ele>458.20001220703125</ele>
        <time>2019-11-01T11:01:11.000Z</time>
      </trkpt>
      <trkpt lat="37.050586603581905364990234375" lon="-4.80239071883261203765869140625">
        <ele>458</ele>
        <time>2019-11-01T11:01:15.000Z</time>
      </trkpt>
      <trkpt lat="37.05065541900694370269775390625" lon="-4.80262306518852710723876953125">
        <ele>457.79998779296875</ele>
        <time>2019-11-01T11:01:19.000Z</time>
      </trkpt>
      <trkpt lat="37.05072968266904354095458984375" lon="-4.80285356752574443817138671875">
        <ele>458</ele>
        <time>2019-11-01T11:01:23.000Z</time>
      </trkpt>
      <trkpt lat="37.05080394633114337921142578125" lon="-4.80308038182556629180908203125">
        <ele>458</ele>
        <time>2019-11-01T11:01:27.000Z</time>
      </trkpt>
      <trkpt lat="37.050878964364528656005859375" lon="-4.80330459773540496826171875">
        <ele>457.600006103515625</ele>
        <time>2019-11-01T11:01:31.000Z</time>
      </trkpt>
      <trkpt lat="37.05095146782696247100830078125" lon="-4.80352479033172130584716796875">
        <ele>457.79998779296875</ele>
        <time>2019-11-01T11:01:35.000Z</time>
      </trkpt>
      <trkpt lat="37.05102522857487201690673828125" lon="-4.80374540202319622039794921875">
        <ele>458</ele>
        <time>2019-11-01T11:01:39.000Z</time>
      </trkpt>
      <trkpt lat="37.0511005818843841552734375" lon="-4.80396048165857791900634765625">
        <ele>458.399993896484375</ele>
        <time>2019-11-01T11:01:43.000Z</time>
      </trkpt>
      <trkpt lat="37.05117308534681797027587890625" lon="-4.80417556129395961761474609375">
        <ele>459.399993896484375</ele>
        <time>2019-11-01T11:01:47.000Z</time>
      </trkpt>
      <trkpt lat="37.0512429066002368927001953125" lon="-4.8043873719871044158935546875">
        <ele>459.79998779296875</ele>
        <time>2019-11-01T11:01:51.000Z</time>
      </trkpt>
      <trkpt lat="37.0513247139751911163330078125" lon="-4.80464310385286808013916015625">
        <ele>459.600006103515625</ele>
        <time>2019-11-01T11:01:56.000Z</time>
      </trkpt>
      <trkpt lat="37.0514063537120819091796875" lon="-4.80488617904484272003173828125">
        <ele>459</ele>
        <time>2019-11-01T11:02:01.000Z</time>
      </trkpt>
      <trkpt lat="37.05148388631641864776611328125" lon="-4.805126823484897613525390625">
        <ele>459</ele>
        <time>2019-11-01T11:02:06.000Z</time>
      </trkpt>
      <trkpt lat="37.0515610836446285247802734375" lon="-4.80536512099206447601318359375">
        <ele>459</ele>
        <time>2019-11-01T11:02:11.000Z</time>
      </trkpt>
      <trkpt lat="37.0516355149447917938232421875" lon="-4.805612303316593170166015625">
        <ele>459.20001220703125</ele>
        <time>2019-11-01T11:02:16.000Z</time>
      </trkpt>
      <trkpt lat="37.05170852132141590118408203125" lon="-4.8058562166988849639892578125">
        <ele>460</ele>
        <time>2019-11-01T11:02:21.000Z</time>
      </trkpt>
      <trkpt lat="37.0517818629741668701171875" lon="-4.8061002977192401885986328125">
        <ele>461</ele>
        <time>2019-11-01T11:02:26.000Z</time>
      </trkpt>
      <trkpt lat="37.05184615217149257659912109375" lon="-4.806348569691181182861328125">
        <ele>462</ele>
        <time>2019-11-01T11:02:31.000Z</time>
      </trkpt>
      <trkpt lat="37.0519030652940273284912109375" lon="-4.8066084086894989013671875">
        <ele>461.600006103515625</ele>
        <time>2019-11-01T11:02:36.000Z</time>
      </trkpt>
      <trkpt lat="37.05195193178951740264892578125" lon="-4.80687218718230724334716796875">
        <ele>460.20001220703125</ele>
        <time>2019-11-01T11:02:41.000Z</time>
      </trkpt>
      <trkpt lat="37.0519924163818359375" lon="-4.8071383126080036163330078125">
        <ele>459.600006103515625</ele>
        <time>2019-11-01T11:02:46.000Z</time>
      </trkpt>
      <trkpt lat="37.0520261116325855255126953125" lon="-4.80741114355623722076416015625">
        <ele>459.20001220703125</ele>
        <time>2019-11-01T11:02:51.000Z</time>
      </trkpt>
      <trkpt lat="37.052049748599529266357421875" lon="-4.807685315608978271484375">
        <ele>460.600006103515625</ele>
        <time>2019-11-01T11:02:56.000Z</time>
      </trkpt>
      <trkpt lat="37.0520656742155551910400390625" lon="-4.8079540394246578216552734375">
        <ele>461.79998779296875</ele>
        <time>2019-11-01T11:03:01.000Z</time>
      </trkpt>
      <trkpt lat="37.0520707033574581146240234375" lon="-4.8082199133932590484619140625">
        <ele>463.600006103515625</ele>
        <time>2019-11-01T11:03:06.000Z</time>
      </trkpt>
      <trkpt lat="37.052066512405872344970703125" lon="-4.8084874637424945831298828125">
        <ele>465.20001220703125</ele>
        <time>2019-11-01T11:03:11.000Z</time>
      </trkpt>
      <trkpt lat="37.0520559512078762054443359375" lon="-4.80875878594815731048583984375">
        <ele>465.79998779296875</ele>
        <time>2019-11-01T11:03:16.000Z</time>
      </trkpt>
      <trkpt lat="37.05203692428767681121826171875" lon="-4.809029437601566314697265625">
        <ele>465</ele>
        <time>2019-11-01T11:03:21.000Z</time>
      </trkpt>
      <trkpt lat="37.0520083419978618621826171875" lon="-4.80929941870272159576416015625">
        <ele>465.20001220703125</ele>
        <time>2019-11-01T11:03:26.000Z</time>
      </trkpt>
      <trkpt lat="37.0519744791090488433837890625" lon="-4.80956554412841796875">
        <ele>465.600006103515625</ele>
        <time>2019-11-01T11:03:31.000Z</time>
      </trkpt>
      <trkpt lat="37.0519282110035419464111328125" lon="-4.809831418097019195556640625">
        <ele>467.399993896484375</ele>
        <time>2019-11-01T11:03:36.000Z</time>
      </trkpt>
      <trkpt lat="37.0518755726516246795654296875" lon="-4.81009318493306636810302734375">
        <ele>468.600006103515625</ele>
        <time>2019-11-01T11:03:41.000Z</time>
      </trkpt>
      <trkpt lat="37.05181614495813846588134765625" lon="-4.8103554546833038330078125">
        <ele>471</ele>
        <time>2019-11-01T11:03:46.000Z</time>
      </trkpt>
      <trkpt lat="37.0517525263130664825439453125" lon="-4.81061370112001895904541015625">
        <ele>473.600006103515625</ele>
        <time>2019-11-01T11:03:51.000Z</time>
      </trkpt>
      <trkpt lat="37.05168521963059902191162109375" lon="-4.81086767278611660003662109375">
        <ele>475.20001220703125</ele>
        <time>2019-11-01T11:03:56.000Z</time>
      </trkpt>
      <trkpt lat="37.0516170747578144073486328125" lon="-4.811124913394451141357421875">
        <ele>475.79998779296875</ele>
        <time>2019-11-01T11:04:01.000Z</time>
      </trkpt>
      <trkpt lat="37.0515500195324420928955078125" lon="-4.81138114817440509796142578125">
        <ele>476</ele>
        <time>2019-11-01T11:04:06.000Z</time>
      </trkpt>
      <trkpt lat="37.05147969536483287811279296875" lon="-4.811641238629817962646484375">
        <ele>476.20001220703125</ele>
        <time>2019-11-01T11:04:11.000Z</time>
      </trkpt>
      <trkpt lat="37.05141398124396800994873046875" lon="-4.81189705431461334228515625">
        <ele>476.600006103515625</ele>
        <time>2019-11-01T11:04:16.000Z</time>
      </trkpt>
      <trkpt lat="37.0513501949608325958251953125" lon="-4.81215613894164562225341796875">
        <ele>477</ele>
        <time>2019-11-01T11:04:21.000Z</time>
      </trkpt>
      <trkpt lat="37.05128540284931659698486328125" lon="-4.8124195821583271026611328125">
        <ele>477</ele>
        <time>2019-11-01T11:04:26.000Z</time>
      </trkpt>
      <trkpt lat="37.05121432431042194366455078125" lon="-4.81267816387116909027099609375">
        <ele>476.79998779296875</ele>
        <time>2019-11-01T11:04:31.000Z</time>
      </trkpt>
      <trkpt lat="37.05114777199923992156982421875" lon="-4.8129345662891864776611328125">
        <ele>476.20001220703125</ele>
        <time>2019-11-01T11:04:36.000Z</time>
      </trkpt>
      <trkpt lat="37.0510818064212799072265625" lon="-4.81319013051688671112060546875">
        <ele>475.20001220703125</ele>
        <time>2019-11-01T11:04:41.000Z</time>
      </trkpt>
      <trkpt lat="37.05101684667170047760009765625" lon="-4.813439659774303436279296875">
        <ele>475</ele>
        <time>2019-11-01T11:04:46.000Z</time>
      </trkpt>
      <trkpt lat="37.050954401493072509765625" lon="-4.81368784792721271514892578125">
        <ele>476</ele>
        <time>2019-11-01T11:04:51.000Z</time>
      </trkpt>
      <trkpt lat="37.05088575370609760284423828125" lon="-4.81394483707845211029052734375">
        <ele>476.399993896484375</ele>
        <time>2019-11-01T11:04:56.000Z</time>
      </trkpt>
      <trkpt lat="37.05082473345100879669189453125" lon="-4.814200736582279205322265625">
        <ele>477.399993896484375</ele>
        <time>2019-11-01T11:05:01.000Z</time>
      </trkpt>
      <trkpt lat="37.05075918696820735931396484375" lon="-4.81446124613285064697265625">
        <ele>477.79998779296875</ele>
        <time>2019-11-01T11:05:06.000Z</time>
      </trkpt>
      <trkpt lat="37.05068861134350299835205078125" lon="-4.81471739709377288818359375">
        <ele>479.399993896484375</ele>
        <time>2019-11-01T11:05:11.000Z</time>
      </trkpt>
      <trkpt lat="37.050621472299098968505859375" lon="-4.81497363187372684478759765625">
        <ele>480.20001220703125</ele>
        <time>2019-11-01T11:05:16.000Z</time>
      </trkpt>
      <trkpt lat="37.05056346952915191650390625" lon="-4.815187789499759674072265625">
        <ele>480.20001220703125</ele>
        <time>2019-11-01T11:05:20.000Z</time>
      </trkpt>
      <trkpt lat="37.0504962466657161712646484375" lon="-4.81545726768672466278076171875">
        <ele>479</ele>
        <time>2019-11-01T11:05:25.000Z</time>
      </trkpt>
      <trkpt lat="37.05044603906571865081787109375" lon="-4.8156781308352947235107421875">
        <ele>478</ele>
        <time>2019-11-01T11:05:29.000Z</time>
      </trkpt>
      <trkpt lat="37.05038803629577159881591796875" lon="-4.8159161768853664398193359375">
        <ele>477.600006103515625</ele>
        <time>2019-11-01T11:05:33.000Z</time>
      </trkpt>
      <trkpt lat="37.05032609403133392333984375" lon="-4.816160760819911956787109375">
        <ele>476.79998779296875</ele>
        <time>2019-11-01T11:05:37.000Z</time>
      </trkpt>
      <trkpt lat="37.05025744624435901641845703125" lon="-4.81639671139419078826904296875">
        <ele>476.20001220703125</ele>
        <time>2019-11-01T11:05:41.000Z</time>
      </trkpt>
      <trkpt lat="37.0501944981515407562255859375" lon="-4.81662738136947154998779296875">
        <ele>475.399993896484375</ele>
        <time>2019-11-01T11:05:45.000Z</time>
      </trkpt>
      <trkpt lat="37.0501351542770862579345703125" lon="-4.81685922481119632720947265625">
        <ele>475</ele>
        <time>2019-11-01T11:05:49.000Z</time>
      </trkpt>
      <trkpt lat="37.0500724576413631439208984375" lon="-4.81709023006260395050048828125">
        <ele>474.600006103515625</ele>
        <time>2019-11-01T11:05:53.000Z</time>
      </trkpt>
      <trkpt lat="37.050019986927509307861328125" lon="-4.81733095832169055938720703125">
        <ele>473.399993896484375</ele>
        <time>2019-11-01T11:05:57.000Z</time>
      </trkpt>
      <trkpt lat="37.04996542073786258697509765625" lon="-4.817594401538372039794921875">
        <ele>472.399993896484375</ele>
        <time>2019-11-01T11:06:01.000Z</time>
      </trkpt>
      <trkpt lat="37.049908004701137542724609375" lon="-4.81788131408393383026123046875">
        <ele>472</ele>
        <time>2019-11-01T11:06:05.000Z</time>
      </trkpt>
      <trkpt lat="37.0498588867485523223876953125" lon="-4.81811181642115116119384765625">
        <ele>472</ele>
        <time>2019-11-01T11:06:08.000Z</time>
      </trkpt>
      <trkpt lat="37.04981873743236064910888671875" lon="-4.81836059130728244781494140625">
        <ele>472</ele>
        <time>2019-11-01T11:06:11.000Z</time>
      </trkpt>
      <trkpt lat="37.04977749846875667572021484375" lon="-4.818626381456851959228515625">
        <ele>471.20001220703125</ele>
        <time>2019-11-01T11:06:14.000Z</time>
      </trkpt>
      <trkpt lat="37.04973542131483554840087890625" lon="-4.81891362927854061126708984375">
        <ele>470.20001220703125</ele>
        <time>2019-11-01T11:06:17.000Z</time>
      </trkpt>
      <trkpt lat="37.0496969483792781829833984375" lon="-4.819223172962665557861328125">
        <ele>469.20001220703125</ele>
        <time>2019-11-01T11:06:20.000Z</time>
      </trkpt>
      <trkpt lat="37.0496634207665920257568359375" lon="-4.8195515759289264678955078125">
        <ele>467.79998779296875</ele>
        <time>2019-11-01T11:06:23.000Z</time>
      </trkpt>
      <trkpt lat="37.04964213073253631591796875" lon="-4.819781072437763214111328125">
        <ele>466.20001220703125</ele>
        <time>2019-11-01T11:06:25.000Z</time>
      </trkpt>
      <trkpt lat="37.04962377436459064483642578125" lon="-4.82001970522105693817138671875">
        <ele>464.600006103515625</ele>
        <time>2019-11-01T11:06:27.000Z</time>
      </trkpt>
      <trkpt lat="37.04960550181567668914794921875" lon="-4.820267893373966217041015625">
        <ele>463.399993896484375</ele>
        <time>2019-11-01T11:06:29.000Z</time>
      </trkpt>
      <trkpt lat="37.04958521761000156402587890625" lon="-4.820517338812351226806640625">
        <ele>462.399993896484375</ele>
        <time>2019-11-01T11:06:31.000Z</time>
      </trkpt>
      <trkpt lat="37.0495638437569141387939453125" lon="-4.820769131183624267578125">
        <ele>461.600006103515625</ele>
        <time>2019-11-01T11:06:33.000Z</time>
      </trkpt>
      <trkpt lat="37.04954649321734905242919921875" lon="-4.82101731933653354644775390625">
        <ele>460.79998779296875</ele>
        <time>2019-11-01T11:06:35.000Z</time>
      </trkpt>
      <trkpt lat="37.04953207634389400482177734375" lon="-4.821262657642364501953125">
        <ele>460</ele>
        <time>2019-11-01T11:06:37.000Z</time>
      </trkpt>
      <trkpt lat="37.0495152287185192108154296875" lon="-4.82150447554886341094970703125">
        <ele>459.20001220703125</ele>
        <time>2019-11-01T11:06:39.000Z</time>
      </trkpt>
      <trkpt lat="37.04949771054089069366455078125" lon="-4.82173933647572994232177734375">
        <ele>459.399993896484375</ele>
        <time>2019-11-01T11:06:41.000Z</time>
      </trkpt>
      <trkpt lat="37.04947642050683498382568359375" lon="-4.82197000645101070404052734375">
        <ele>460.20001220703125</ele>
        <time>2019-11-01T11:06:43.000Z</time>
      </trkpt>
      <trkpt lat="37.04946242272853851318359375" lon="-4.82219782657921314239501953125">
        <ele>461</ele>
        <time>2019-11-01T11:06:45.000Z</time>
      </trkpt>
      <trkpt lat="37.04945010133087635040283203125" lon="-4.8224232159554958343505859375">
        <ele>461.600006103515625</ele>
        <time>2019-11-01T11:06:47.000Z</time>
      </trkpt>
      <trkpt lat="37.04943266697227954864501953125" lon="-4.8227440752089023590087890625">
        <ele>461</ele>
        <time>2019-11-01T11:06:50.000Z</time>
      </trkpt>
      <trkpt lat="37.049414478242397308349609375" lon="-4.82305102050304412841796875">
        <ele>460.399993896484375</ele>
        <time>2019-11-01T11:06:53.000Z</time>
      </trkpt>
      <trkpt lat="37.0493920147418975830078125" lon="-4.823339693248271942138671875">
        <ele>459</ele>
        <time>2019-11-01T11:06:56.000Z</time>
      </trkpt>
      <trkpt lat="37.049382962286472320556640625" lon="-4.8236090876162052154541015625">
        <ele>457.79998779296875</ele>
        <time>2019-11-01T11:06:59.000Z</time>
      </trkpt>
      <trkpt lat="37.0493673719465732574462890625" lon="-4.8238528333604335784912109375">
        <ele>457.20001220703125</ele>
        <time>2019-11-01T11:07:02.000Z</time>
      </trkpt>
      <trkpt lat="37.04935136251151561737060546875" lon="-4.82413890771567821502685546875">
        <ele>456.79998779296875</ele>
        <time>2019-11-01T11:07:06.000Z</time>
      </trkpt>
      <trkpt lat="37.04933828674256801605224609375" lon="-4.82440687716007232666015625">
        <ele>457.399993896484375</ele>
        <time>2019-11-01T11:07:10.000Z</time>
      </trkpt>
      <trkpt lat="37.049313224852085113525390625" lon="-4.8246766068041324615478515625">
        <ele>458.600006103515625</ele>
        <time>2019-11-01T11:07:14.000Z</time>
      </trkpt>
      <trkpt lat="37.04928698949515819549560546875" lon="-4.82493870891630649566650390625">
        <ele>459.600006103515625</ele>
        <time>2019-11-01T11:07:18.000Z</time>
      </trkpt>
      <trkpt lat="37.04925580881536006927490234375" lon="-4.825205840170383453369140625">
        <ele>460</ele>
        <time>2019-11-01T11:07:22.000Z</time>
      </trkpt>
      <trkpt lat="37.0492282323539257049560546875" lon="-4.8254661820828914642333984375">
        <ele>460</ele>
        <time>2019-11-01T11:07:26.000Z</time>
      </trkpt>
      <trkpt lat="37.04919529147446155548095703125" lon="-4.82573146931827068328857421875">
        <ele>459.399993896484375</ele>
        <time>2019-11-01T11:07:30.000Z</time>
      </trkpt>
      <trkpt lat="37.0491578243672847747802734375" lon="-4.82600086368620395660400390625">
        <ele>459.600006103515625</ele>
        <time>2019-11-01T11:07:34.000Z</time>
      </trkpt>
      <trkpt lat="37.0491095446050167083740234375" lon="-4.82627679593861103057861328125">
        <ele>459.20001220703125</ele>
        <time>2019-11-01T11:07:38.000Z</time>
      </trkpt>
      <trkpt lat="37.04905916936695575714111328125" lon="-4.82655440457165241241455078125">
        <ele>457.399993896484375</ele>
        <time>2019-11-01T11:07:42.000Z</time>
      </trkpt>
      <trkpt lat="37.04900569282472133636474609375" lon="-4.82683620415627956390380859375">
        <ele>455.79998779296875</ele>
        <time>2019-11-01T11:07:46.000Z</time>
      </trkpt>
      <trkpt lat="37.04895372502505779266357421875" lon="-4.8271100409328937530517578125">
        <ele>456</ele>
        <time>2019-11-01T11:07:50.000Z</time>
      </trkpt>
      <trkpt lat="37.048894129693508148193359375" lon="-4.827393181622028350830078125">
        <ele>456.79998779296875</ele>
        <time>2019-11-01T11:07:54.000Z</time>
      </trkpt>
      <trkpt lat="37.048835456371307373046875" lon="-4.8276706226170063018798828125">
        <ele>456.79998779296875</ele>
        <time>2019-11-01T11:07:58.000Z</time>
      </trkpt>
      <trkpt lat="37.0487816445529460906982421875" lon="-4.8279478959739208221435546875">
        <ele>456</ele>
        <time>2019-11-01T11:08:02.000Z</time>
      </trkpt>
      <trkpt lat="37.048723809421062469482421875" lon="-4.82823514379560947418212890625">
        <ele>455.79998779296875</ele>
        <time>2019-11-01T11:08:06.000Z</time>
      </trkpt>
      <trkpt lat="37.0486673153936862945556640625" lon="-4.828516356647014617919921875">
        <ele>455.399993896484375</ele>
        <time>2019-11-01T11:08:10.000Z</time>
      </trkpt>
      <trkpt lat="37.04861023463308811187744140625" lon="-4.828791283071041107177734375">
        <ele>455.20001220703125</ele>
        <time>2019-11-01T11:08:14.000Z</time>
      </trkpt>
      <trkpt lat="37.0485489629209041595458984375" lon="-4.82907601632177829742431640625">
        <ele>455.600006103515625</ele>
        <time>2019-11-01T11:08:18.000Z</time>
      </trkpt>
      <trkpt lat="37.04849758185446262359619140625" lon="-4.829352535307407379150390625">
        <ele>456.399993896484375</ele>
        <time>2019-11-01T11:08:22.000Z</time>
      </trkpt>
      <trkpt lat="37.04844008199870586395263671875" lon="-4.82963056303560733795166015625">
        <ele>457</ele>
        <time>2019-11-01T11:08:26.000Z</time>
      </trkpt>
      <trkpt lat="37.048383168876171112060546875" lon="-4.8299183137714862823486328125">
        <ele>457.600006103515625</ele>
        <time>2019-11-01T11:08:30.000Z</time>
      </trkpt>
      <trkpt lat="37.0483270101249217987060546875" lon="-4.83020757324993610382080078125">
        <ele>457</ele>
        <time>2019-11-01T11:08:34.000Z</time>
      </trkpt>
      <trkpt lat="37.04827613197267055511474609375" lon="-4.830425418913364410400390625">
        <ele>456.600006103515625</ele>
        <time>2019-11-01T11:08:37.000Z</time>
      </trkpt>
      <trkpt lat="37.04823053441941738128662109375" lon="-4.83064661733806133270263671875">
        <ele>457</ele>
        <time>2019-11-01T11:08:40.000Z</time>
      </trkpt>
      <trkpt lat="37.04817605204880237579345703125" lon="-4.8308684863150119781494140625">
        <ele>457.20001220703125</ele>
        <time>2019-11-01T11:08:43.000Z</time>
      </trkpt>
      <trkpt lat="37.0481590367853641510009765625" lon="-4.8309435881674289703369140625">
        <ele>457.20001220703125</ele>
        <time>2019-11-01T11:08:44.000Z</time>
      </trkpt>
      <trkpt lat="37.04810388386249542236328125" lon="-4.83123444020748138427734375">
        <ele>458.20001220703125</ele>
        <time>2019-11-01T11:08:48.000Z</time>
      </trkpt>
      <trkpt lat="37.04803992994129657745361328125" lon="-4.83152017928659915924072265625">
        <ele>458</ele>
        <time>2019-11-01T11:08:52.000Z</time>
      </trkpt>
      <trkpt lat="37.0479957573115825653076171875" lon="-4.83180499635636806488037109375">
        <ele>457.79998779296875</ele>
        <time>2019-11-01T11:08:56.000Z</time>
      </trkpt>
      <trkpt lat="37.0479458011686801910400390625" lon="-4.83209115453064441680908203125">
        <ele>458</ele>
        <time>2019-11-01T11:09:00.000Z</time>
      </trkpt>
      <trkpt lat="37.04790414310991764068603515625" lon="-4.832378067076206207275390625">
        <ele>458</ele>
        <time>2019-11-01T11:09:04.000Z</time>
      </trkpt>
      <trkpt lat="37.04786382615566253662109375" lon="-4.83266598545014858245849609375">
        <ele>458</ele>
        <time>2019-11-01T11:09:08.000Z</time>
      </trkpt>
      <trkpt lat="37.04782761633396148681640625" lon="-4.83295239508152008056640625">
        <ele>458.20001220703125</ele>
        <time>2019-11-01T11:09:12.000Z</time>
      </trkpt>
      <trkpt lat="37.0478014647960662841796875" lon="-4.83322924934327602386474609375">
        <ele>458.20001220703125</ele>
        <time>2019-11-01T11:09:16.000Z</time>
      </trkpt>
      <trkpt lat="37.04777942039072513580322265625" lon="-4.83351004309952259063720703125">
        <ele>458</ele>
        <time>2019-11-01T11:09:20.000Z</time>
      </trkpt>
      <trkpt lat="37.04776181839406490325927734375" lon="-4.83379594981670379638671875">
        <ele>457.20001220703125</ele>
        <time>2019-11-01T11:09:24.000Z</time>
      </trkpt>
      <trkpt lat="37.0477496646344661712646484375" lon="-4.83407749794423580169677734375">
        <ele>456.600006103515625</ele>
        <time>2019-11-01T11:09:28.000Z</time>
      </trkpt>
      <trkpt lat="37.0477386005222797393798828125" lon="-4.83435787260532379150390625">
        <ele>456.399993896484375</ele>
        <time>2019-11-01T11:09:32.000Z</time>
      </trkpt>
      <trkpt lat="37.04773843288421630859375" lon="-4.83463992364704608917236328125">
        <ele>457.399993896484375</ele>
        <time>2019-11-01T11:09:36.000Z</time>
      </trkpt>
      <trkpt lat="37.0477412827312946319580078125" lon="-4.83490747399628162384033203125">
        <ele>457.600006103515625</ele>
        <time>2019-11-01T11:09:40.000Z</time>
      </trkpt>
      <trkpt lat="37.04775008372962474822998046875" lon="-4.83513998799026012420654296875">
        <ele>457.399993896484375</ele>
        <time>2019-11-01T11:09:44.000Z</time>
      </trkpt>
      <trkpt lat="37.04775385558605194091796875" lon="-4.835371077060699462890625">
        <ele>457.399993896484375</ele>
        <time>2019-11-01T11:09:49.000Z</time>
      </trkpt>
      <trkpt lat="37.0477654226124286651611328125" lon="-4.835564196109771728515625">
        <ele>458</ele>
        <time>2019-11-01T11:09:55.000Z</time>
      </trkpt>
      <trkpt lat="37.047834657132625579833984375" lon="-4.835598729550838470458984375">
        <ele>458</ele>
        <time>2019-11-01T11:10:00.000Z</time>
      </trkpt>
      <trkpt lat="37.04785167239606380462646484375" lon="-4.8355901800096035003662109375">
        <ele>458</ele>
        <time>2019-11-01T11:10:01.000Z</time>
      </trkpt>
      <trkpt lat="37.04785955138504505157470703125" lon="-4.83535104431211948394775390625">
        <ele>457.79998779296875</ele>
        <time>2019-11-01T11:10:09.000Z</time>
      </trkpt>
      <trkpt lat="37.04787195660173892974853515625" lon="-4.8352827318012714385986328125">
        <ele>457.79998779296875</ele>
        <time>2019-11-01T11:10:11.000Z</time>
      </trkpt>
      <trkpt lat="37.04788587056100368499755859375" lon="-4.8352196998894214630126953125">
        <ele>457.79998779296875</ele>
        <time>2019-11-01T11:10:13.000Z</time>
      </trkpt>
      <trkpt lat="37.04796466045081615447998046875" lon="-4.83515926636755466461181640625">
        <ele>457.79998779296875</ele>
        <time>2019-11-01T11:10:21.000Z</time>
      </trkpt>
      <trkpt lat="37.04785753972828388214111328125" lon="-4.83522699214518070220947265625">
        <ele>457.79998779296875</ele>
        <time>2019-11-01T11:13:27.000Z</time>
      </trkpt>
      <trkpt lat="37.04785804264247417449951171875" lon="-4.8354617692530155181884765625">
        <ele>458</ele>
        <time>2019-11-01T11:13:34.000Z</time>
      </trkpt>
      <trkpt lat="37.04784764908254146575927734375" lon="-4.8357055149972438812255859375">
        <ele>458.20001220703125</ele>
        <time>2019-11-01T11:13:41.000Z</time>
      </trkpt>
      <trkpt lat="37.04783692024648189544677734375" lon="-4.83593056909739971160888671875">
        <ele>458.399993896484375</ele>
        <time>2019-11-01T11:13:47.000Z</time>
      </trkpt>
      <trkpt lat="37.0478418655693531036376953125" lon="-4.83616710640490055084228515625">
        <ele>458.600006103515625</ele>
        <time>2019-11-01T11:13:53.000Z</time>
      </trkpt>
      <trkpt lat="37.047822587192058563232421875" lon="-4.83639442361891269683837890625">
        <ele>458.79998779296875</ele>
        <time>2019-11-01T11:14:00.000Z</time>
      </trkpt>
      <trkpt lat="37.04781395383179187774658203125" lon="-4.8364424519240856170654296875">
        <ele>458.79998779296875</ele>
        <time>2019-11-01T11:14:04.000Z</time>
      </trkpt>
      <trkpt lat="37.04781554639339447021484375" lon="-4.83644622378051280975341796875">
        <ele>458.79998779296875</ele>
        <time>2019-11-01T11:14:07.000Z</time>
      </trkpt>
      <trkpt lat="37.04781563021242618560791015625" lon="-4.836558289825916290283203125">
        <ele>458.600006103515625</ele>
        <time>2019-11-01T11:14:24.000Z</time>
      </trkpt>
      <trkpt lat="37.04783029854297637939453125" lon="-4.83678703196346759796142578125">
        <ele>458.20001220703125</ele>
        <time>2019-11-01T11:14:30.000Z</time>
      </trkpt>
      <trkpt lat="37.047851085662841796875" lon="-4.8370184563100337982177734375">
        <ele>458</ele>
        <time>2019-11-01T11:14:36.000Z</time>
      </trkpt>
      <trkpt lat="37.0478750579059123992919921875" lon="-4.837242923676967620849609375">
        <ele>458</ele>
        <time>2019-11-01T11:14:41.000Z</time>
      </trkpt>
      <trkpt lat="37.04790581949055194854736328125" lon="-4.837473593652248382568359375">
        <ele>458</ele>
        <time>2019-11-01T11:14:46.000Z</time>
      </trkpt>
      <trkpt lat="37.04793758690357208251953125" lon="-4.83770568855106830596923828125">
        <ele>458</ele>
        <time>2019-11-01T11:14:51.000Z</time>
      </trkpt>
      <trkpt lat="37.04796248115599155426025390625" lon="-4.83794893138110637664794921875">
        <ele>457.79998779296875</ele>
        <time>2019-11-01T11:14:56.000Z</time>
      </trkpt>
      <trkpt lat="37.04800070263445377349853515625" lon="-4.83818680979311466217041015625">
        <ele>458</ele>
        <time>2019-11-01T11:15:01.000Z</time>
      </trkpt>
      <trkpt lat="37.04804043285548686981201171875" lon="-4.838426448404788970947265625">
        <ele>458</ele>
        <time>2019-11-01T11:15:06.000Z</time>
      </trkpt>
      <trkpt lat="37.048082090914249420166015625" lon="-4.8386817611753940582275390625">
        <ele>458.399993896484375</ele>
        <time>2019-11-01T11:15:11.000Z</time>
      </trkpt>
      <trkpt lat="37.0481315441429615020751953125" lon="-4.83893430791795253753662109375">
        <ele>459.600006103515625</ele>
        <time>2019-11-01T11:15:16.000Z</time>
      </trkpt>
      <trkpt lat="37.0481845177710056304931640625" lon="-4.83919112943112850189208984375">
        <ele>459.20001220703125</ele>
        <time>2019-11-01T11:15:21.000Z</time>
      </trkpt>
      <trkpt lat="37.04823271371424198150634765625" lon="-4.83944996260106563568115234375">
        <ele>458.399993896484375</ele>
        <time>2019-11-01T11:15:26.000Z</time>
      </trkpt>
      <trkpt lat="37.048295326530933380126953125" lon="-4.83970762230455875396728515625">
        <ele>457.79998779296875</ele>
        <time>2019-11-01T11:15:31.000Z</time>
      </trkpt>
      <trkpt lat="37.04834796488285064697265625" lon="-4.83996846713125705718994140625">
        <ele>457</ele>
        <time>2019-11-01T11:15:36.000Z</time>
      </trkpt>
      <trkpt lat="37.048406302928924560546875" lon="-4.84022595919668674468994140625">
        <ele>457.20001220703125</ele>
        <time>2019-11-01T11:15:41.000Z</time>
      </trkpt>
      <trkpt lat="37.04845131374895572662353515625" lon="-4.84049216844141483306884765625">
        <ele>457.600006103515625</ele>
        <time>2019-11-01T11:15:46.000Z</time>
      </trkpt>
      <trkpt lat="37.04849774949252605438232421875" lon="-4.84071495942771434783935546875">
        <ele>458.20001220703125</ele>
        <time>2019-11-01T11:15:50.000Z</time>
      </trkpt>
      <trkpt lat="37.04854653216898441314697265625" lon="-4.8409406840801239013671875">
        <ele>459</ele>
        <time>2019-11-01T11:15:54.000Z</time>
      </trkpt>
      <trkpt lat="37.0485935546457767486572265625" lon="-4.8411587812006473541259765625">
        <ele>458.399993896484375</ele>
        <time>2019-11-01T11:15:58.000Z</time>
      </trkpt>
      <trkpt lat="37.0486490428447723388671875" lon="-4.8414273373782634735107421875">
        <ele>459.399993896484375</ele>
        <time>2019-11-01T11:16:03.000Z</time>
      </trkpt>
      <trkpt lat="37.04868332482874393463134765625" lon="-4.8415912874042987823486328125">
        <ele>460.399993896484375</ele>
        <time>2019-11-01T11:16:06.000Z</time>
      </trkpt>
      <trkpt lat="37.04873462207615375518798828125" lon="-4.841844253242015838623046875">
        <ele>461.20001220703125</ele>
        <time>2019-11-01T11:16:11.000Z</time>
      </trkpt>
      <trkpt lat="37.04877736978232860565185546875" lon="-4.8420854844152927398681640625">
        <ele>461.79998779296875</ele>
        <time>2019-11-01T11:16:16.000Z</time>
      </trkpt>
      <trkpt lat="37.048830427229404449462890625" lon="-4.84234976582229137420654296875">
        <ele>460.79998779296875</ele>
        <time>2019-11-01T11:16:21.000Z</time>
      </trkpt>
      <trkpt lat="37.04888306558132171630859375" lon="-4.84262117184698581695556640625">
        <ele>459.20001220703125</ele>
        <time>2019-11-01T11:16:26.000Z</time>
      </trkpt>
      <trkpt lat="37.04893159680068492889404296875" lon="-4.84288738109171390533447265625">
        <ele>457.600006103515625</ele>
        <time>2019-11-01T11:16:31.000Z</time>
      </trkpt>
      <trkpt lat="37.0489864982664585113525390625" lon="-4.843157865107059478759765625">
        <ele>457</ele>
        <time>2019-11-01T11:16:36.000Z</time>
      </trkpt>
      <trkpt lat="37.04903301782906055450439453125" lon="-4.843386523425579071044921875">
        <ele>457</ele>
        <time>2019-11-01T11:16:40.000Z</time>
      </trkpt>
      <trkpt lat="37.04908079467713832855224609375" lon="-4.84365767799317836761474609375">
        <ele>455.79998779296875</ele>
        <time>2019-11-01T11:16:45.000Z</time>
      </trkpt>
      <trkpt lat="37.04912270419299602508544921875" lon="-4.843880720436573028564453125">
        <ele>455</ele>
        <time>2019-11-01T11:16:49.000Z</time>
      </trkpt>
      <trkpt lat="37.0491715706884860992431640625" lon="-4.84411918558180332183837890625">
        <ele>454</ele>
        <time>2019-11-01T11:16:53.000Z</time>
      </trkpt>
      <trkpt lat="37.049218006432056427001953125" lon="-4.8443656973540782928466796875">
        <ele>453.600006103515625</ele>
        <time>2019-11-01T11:16:57.000Z</time>
      </trkpt>
      <trkpt lat="37.04926553182303905487060546875" lon="-4.8446054197847843170166015625">
        <ele>453</ele>
        <time>2019-11-01T11:17:01.000Z</time>
      </trkpt>
      <trkpt lat="37.04931481741368770599365234375" lon="-4.8448411189019680023193359375">
        <ele>454</ele>
        <time>2019-11-01T11:17:05.000Z</time>
      </trkpt>
      <trkpt lat="37.04935974441468715667724609375" lon="-4.84506902284920215606689453125">
        <ele>454</ele>
        <time>2019-11-01T11:17:09.000Z</time>
      </trkpt>
      <trkpt lat="37.04940400086343288421630859375" lon="-4.84530706889927387237548828125">
        <ele>453.399993896484375</ele>
        <time>2019-11-01T11:17:13.000Z</time>
      </trkpt>
      <trkpt lat="37.04944993369281291961669921875" lon="-4.8455421812832355499267578125">
        <ele>453.399993896484375</ele>
        <time>2019-11-01T11:17:17.000Z</time>
      </trkpt>
      <trkpt lat="37.04949737526476383209228515625" lon="-4.8457740247249603271484375">
        <ele>453</ele>
        <time>2019-11-01T11:17:21.000Z</time>
      </trkpt>
      <trkpt lat="37.04954280517995357513427734375" lon="-4.8460015095770359039306640625">
        <ele>453.20001220703125</ele>
        <time>2019-11-01T11:17:25.000Z</time>
      </trkpt>
      <trkpt lat="37.04959846101701259613037109375" lon="-4.846266545355319976806640625">
        <ele>453.399993896484375</ele>
        <time>2019-11-01T11:17:30.000Z</time>
      </trkpt>
      <trkpt lat="37.0496516861021518707275390625" lon="-4.846539460122585296630859375">
        <ele>455.20001220703125</ele>
        <time>2019-11-01T11:17:35.000Z</time>
      </trkpt>
      <trkpt lat="37.04970248043537139892578125" lon="-4.84680558554828166961669921875">
        <ele>456.600006103515625</ele>
        <time>2019-11-01T11:17:40.000Z</time>
      </trkpt>
      <trkpt lat="37.04975553788244724273681640625" lon="-4.84707062132656574249267578125">
        <ele>457</ele>
        <time>2019-11-01T11:17:45.000Z</time>
      </trkpt>
      <trkpt lat="37.049803398549556732177734375" lon="-4.84734102152287960052490234375">
        <ele>456.20001220703125</ele>
        <time>2019-11-01T11:17:50.000Z</time>
      </trkpt>
      <trkpt lat="37.0498505048453807830810546875" lon="-4.84760991297662258148193359375">
        <ele>455</ele>
        <time>2019-11-01T11:17:55.000Z</time>
      </trkpt>
      <trkpt lat="37.0498882234096527099609375" lon="-4.8478311114013195037841796875">
        <ele>455</ele>
        <time>2019-11-01T11:17:59.000Z</time>
      </trkpt>
      <trkpt lat="37.04992451705038547515869140625" lon="-4.84810427762567996978759765625">
        <ele>454.79998779296875</ele>
        <time>2019-11-01T11:18:04.000Z</time>
      </trkpt>
      <trkpt lat="37.04996458254754543304443359375" lon="-4.8483757674694061279296875">
        <ele>455.600006103515625</ele>
        <time>2019-11-01T11:18:09.000Z</time>
      </trkpt>
      <trkpt lat="37.04999844543635845184326171875" lon="-4.848642311990261077880859375">
        <ele>455.399993896484375</ele>
        <time>2019-11-01T11:18:14.000Z</time>
      </trkpt>
      <trkpt lat="37.050029374659061431884765625" lon="-4.84890441410243511199951171875">
        <ele>454.79998779296875</ele>
        <time>2019-11-01T11:18:19.000Z</time>
      </trkpt>
      <trkpt lat="37.0500590465962886810302734375" lon="-4.84917179681360721588134765625">
        <ele>455</ele>
        <time>2019-11-01T11:18:24.000Z</time>
      </trkpt>
      <trkpt lat="37.05008109100162982940673828125" lon="-4.84944269992411136627197265625">
        <ele>455.399993896484375</ele>
        <time>2019-11-01T11:18:29.000Z</time>
      </trkpt>
      <trkpt lat="37.050107158720493316650390625" lon="-4.84971410594880580902099609375">
        <ele>456</ele>
        <time>2019-11-01T11:18:34.000Z</time>
      </trkpt>
      <trkpt lat="37.05012434162199497222900390625" lon="-4.8499850928783416748046875">
        <ele>456.600006103515625</ele>
        <time>2019-11-01T11:18:39.000Z</time>
      </trkpt>
      <trkpt lat="37.050138004124164581298828125" lon="-4.850251637399196624755859375">
        <ele>457.600006103515625</ele>
        <time>2019-11-01T11:18:44.000Z</time>
      </trkpt>
      <trkpt lat="37.0501495711505413055419921875" lon="-4.85052891075611114501953125">
        <ele>458.600006103515625</ele>
        <time>2019-11-01T11:18:49.000Z</time>
      </trkpt>
      <trkpt lat="37.05015937797725200653076171875" lon="-4.85080576501786708831787109375">
        <ele>459.600006103515625</ele>
        <time>2019-11-01T11:18:54.000Z</time>
      </trkpt>
      <trkpt lat="37.0501696877181529998779296875" lon="-4.8510799370706081390380859375">
        <ele>459.399993896484375</ele>
        <time>2019-11-01T11:18:59.000Z</time>
      </trkpt>
      <trkpt lat="37.05017161555588245391845703125" lon="-4.85135243274271488189697265625">
        <ele>459</ele>
        <time>2019-11-01T11:19:04.000Z</time>
      </trkpt>
      <trkpt lat="37.0501773990690708160400390625" lon="-4.85162383876740932464599609375">
        <ele>459</ele>
        <time>2019-11-01T11:19:09.000Z</time>
      </trkpt>
      <trkpt lat="37.05018402077257633209228515625" lon="-4.85189340077340602874755859375">
        <ele>459.399993896484375</ele>
        <time>2019-11-01T11:19:14.000Z</time>
      </trkpt>
      <trkpt lat="37.05019206739962100982666015625" lon="-4.85216363333165645599365234375">
        <ele>459.79998779296875</ele>
        <time>2019-11-01T11:19:19.000Z</time>
      </trkpt>
      <trkpt lat="37.05019558779895305633544921875" lon="-4.85243705101311206817626953125">
        <ele>459.79998779296875</ele>
        <time>2019-11-01T11:19:24.000Z</time>
      </trkpt>
      <trkpt lat="37.05020212568342685699462890625" lon="-4.8527070321142673492431640625">
        <ele>459.399993896484375</ele>
        <time>2019-11-01T11:19:29.000Z</time>
      </trkpt>
      <trkpt lat="37.050210423767566680908203125" lon="-4.85298187471926212310791015625">
        <ele>459.399993896484375</ele>
        <time>2019-11-01T11:19:34.000Z</time>
      </trkpt>
      <trkpt lat="37.050235569477081298828125" lon="-4.85325378365814685821533203125">
        <ele>460</ele>
        <time>2019-11-01T11:19:39.000Z</time>
      </trkpt>
      <trkpt lat="37.05028292723000049591064453125" lon="-4.85350959934294223785400390625">
        <ele>460.79998779296875</ele>
        <time>2019-11-01T11:19:44.000Z</time>
      </trkpt>
      <trkpt lat="37.05034361220896244049072265625" lon="-4.85375317744910717010498046875">
        <ele>461.399993896484375</ele>
        <time>2019-11-01T11:19:49.000Z</time>
      </trkpt>
      <trkpt lat="37.05040387809276580810546875" lon="-4.8539918102324008941650390625">
        <ele>463</ele>
        <time>2019-11-01T11:19:54.000Z</time>
      </trkpt>
      <trkpt lat="37.050468921661376953125" lon="-4.8542322032153606414794921875">
        <ele>462.79998779296875</ele>
        <time>2019-11-01T11:19:59.000Z</time>
      </trkpt>
      <trkpt lat="37.05053086392581462860107421875" lon="-4.8544732667505741119384765625">
        <ele>462.79998779296875</ele>
        <time>2019-11-01T11:20:04.000Z</time>
      </trkpt>
      <trkpt lat="37.0505909621715545654296875" lon="-4.8547076247632503509521484375">
        <ele>462</ele>
        <time>2019-11-01T11:20:09.000Z</time>
      </trkpt>
      <trkpt lat="37.050648629665374755859375" lon="-4.854942150413990020751953125">
        <ele>461.79998779296875</ele>
        <time>2019-11-01T11:20:14.000Z</time>
      </trkpt>
      <trkpt lat="37.05070738680660724639892578125" lon="-4.85517508350312709808349609375">
        <ele>461.600006103515625</ele>
        <time>2019-11-01T11:20:19.000Z</time>
      </trkpt>
      <trkpt lat="37.0507664792239665985107421875" lon="-4.85541053116321563720703125">
        <ele>463</ele>
        <time>2019-11-01T11:20:24.000Z</time>
      </trkpt>
      <trkpt lat="37.05082339234650135040283203125" lon="-4.855648912489414215087890625">
        <ele>464</ele>
        <time>2019-11-01T11:20:29.000Z</time>
      </trkpt>
      <trkpt lat="37.05087435431778430938720703125" lon="-4.85589743591845035552978515625">
        <ele>464.79998779296875</ele>
        <time>2019-11-01T11:20:34.000Z</time>
      </trkpt>
      <trkpt lat="37.050915844738483428955078125" lon="-4.8561543412506580352783203125">
        <ele>465.600006103515625</ele>
        <time>2019-11-01T11:20:39.000Z</time>
      </trkpt>
      <trkpt lat="37.0509559102356433868408203125" lon="-4.8564171977341175079345703125">
        <ele>466.600006103515625</ele>
        <time>2019-11-01T11:20:44.000Z</time>
      </trkpt>
      <trkpt lat="37.050996981561183929443359375" lon="-4.8566777072846889495849609375">
        <ele>467</ele>
        <time>2019-11-01T11:20:49.000Z</time>
      </trkpt>
      <trkpt lat="37.05103461630642414093017578125" lon="-4.85693980939686298370361328125">
        <ele>467.79998779296875</ele>
        <time>2019-11-01T11:20:54.000Z</time>
      </trkpt>
      <trkpt lat="37.05107283778488636016845703125" lon="-4.8571940325200557708740234375">
        <ele>469.399993896484375</ele>
        <time>2019-11-01T11:20:59.000Z</time>
      </trkpt>
      <trkpt lat="37.05110670067369937896728515625" lon="-4.85744305886328220367431640625">
        <ele>470</ele>
        <time>2019-11-01T11:21:04.000Z</time>
      </trkpt>
      <trkpt lat="37.05114793963730335235595703125" lon="-4.857694767415523529052734375">
        <ele>470.600006103515625</ele>
        <time>2019-11-01T11:21:09.000Z</time>
      </trkpt>
      <trkpt lat="37.05119051970541477203369140625" lon="-4.85794463194906711578369140625">
        <ele>470.399993896484375</ele>
        <time>2019-11-01T11:21:14.000Z</time>
      </trkpt>
      <trkpt lat="37.0512318424880504608154296875" lon="-4.858201034367084503173828125">
        <ele>469.79998779296875</ele>
        <time>2019-11-01T11:21:19.000Z</time>
      </trkpt>
      <trkpt lat="37.0512750931084156036376953125" lon="-4.858432374894618988037109375">
        <ele>469</ele>
        <time>2019-11-01T11:21:24.000Z</time>
      </trkpt>
      <trkpt lat="37.05128489993512630462646484375" lon="-4.858476631343364715576171875">
        <ele>468.79998779296875</ele>
        <time>2019-11-01T11:21:25.000Z</time>
      </trkpt>
      <trkpt lat="37.05132295377552509307861328125" lon="-4.85860831104218959808349609375">
        <ele>468.399993896484375</ele>
        <time>2019-11-01T11:21:28.000Z</time>
      </trkpt>
      <trkpt lat="37.05143124796450138092041015625" lon="-4.8588415794074535369873046875">
        <ele>467.600006103515625</ele>
        <time>2019-11-01T11:21:34.000Z</time>
      </trkpt>
      <trkpt lat="37.051566280424594879150390625" lon="-4.85902874730527400970458984375">
        <ele>467.79998779296875</ele>
        <time>2019-11-01T11:21:39.000Z</time>
      </trkpt>
      <trkpt lat="37.0517149753868579864501953125" lon="-4.85916671343147754669189453125">
        <ele>467.399993896484375</ele>
        <time>2019-11-01T11:21:43.000Z</time>
      </trkpt>
      <trkpt lat="37.0518408715724945068359375" lon="-4.859367795288562774658203125">
        <ele>467</ele>
        <time>2019-11-01T11:21:49.000Z</time>
      </trkpt>
      <trkpt lat="37.05190314911305904388427734375" lon="-4.8594343475997447967529296875">
        <ele>467</ele>
        <time>2019-11-01T11:21:55.000Z</time>
      </trkpt>
      <trkpt lat="37.05190314911305904388427734375" lon="-4.85944298096001148223876953125">
        <ele>467</ele>
        <time>2019-11-01T11:21:58.000Z</time>
      </trkpt>
      <trkpt lat="37.05192695371806621551513671875" lon="-4.85953836701810359954833984375">
        <ele>467</ele>
        <time>2019-11-01T11:22:24.000Z</time>
      </trkpt>
      <trkpt lat="37.051980681717395782470703125" lon="-4.85979049466550350189208984375">
        <ele>466.20001220703125</ele>
        <time>2019-11-01T11:22:30.000Z</time>
      </trkpt>
      <trkpt lat="37.05204865895211696624755859375" lon="-4.86004496924579143524169921875">
        <ele>466</ele>
        <time>2019-11-01T11:22:36.000Z</time>
      </trkpt>
      <trkpt lat="37.05211068503558635711669921875" lon="-4.86030212603509426116943359375">
        <ele>466</ele>
        <time>2019-11-01T11:22:42.000Z</time>
      </trkpt>
      <trkpt lat="37.0521654188632965087890625" lon="-4.86053983680903911590576171875">
        <ele>466.79998779296875</ele>
        <time>2019-11-01T11:22:48.000Z</time>
      </trkpt>
      <trkpt lat="37.052244208753108978271484375" lon="-4.86075759865343570709228515625">
        <ele>467.79998779296875</ele>
        <time>2019-11-01T11:22:55.000Z</time>
      </trkpt>
      <trkpt lat="37.05231226980686187744140625" lon="-4.86096982844173908233642578125">
        <ele>469</ele>
        <time>2019-11-01T11:23:01.000Z</time>
      </trkpt>
      <trkpt lat="37.0523929037153720855712890625" lon="-4.86117417924106121063232421875">
        <ele>471</ele>
        <time>2019-11-01T11:23:07.000Z</time>
      </trkpt>
      <trkpt lat="37.05246658064424991607666015625" lon="-4.8613973893225193023681640625">
        <ele>472</ele>
        <time>2019-11-01T11:23:14.000Z</time>
      </trkpt>
      <trkpt lat="37.05253648571670055389404296875" lon="-4.86162613146007061004638671875">
        <ele>472.600006103515625</ele>
        <time>2019-11-01T11:23:21.000Z</time>
      </trkpt>
      <trkpt lat="37.05261133611202239990234375" lon="-4.8618597351014614105224609375">
        <ele>472.600006103515625</ele>
        <time>2019-11-01T11:23:28.000Z</time>
      </trkpt>
      <trkpt lat="37.05267512239515781402587890625" lon="-4.862084873020648956298828125">
        <ele>472</ele>
        <time>2019-11-01T11:23:35.000Z</time>
      </trkpt>
      <trkpt lat="37.0527600310742855072021484375" lon="-4.86229785718023777008056640625">
        <ele>472.399993896484375</ele>
        <time>2019-11-01T11:23:42.000Z</time>
      </trkpt>
      <trkpt lat="37.052837312221527099609375" lon="-4.86252374947071075439453125">
        <ele>472.600006103515625</ele>
        <time>2019-11-01T11:23:49.000Z</time>
      </trkpt>
      <trkpt lat="37.05284158699214458465576171875" lon="-4.862543530762195587158203125">
        <ele>472.600006103515625</ele>
        <time>2019-11-01T11:23:51.000Z</time>
      </trkpt>
      <trkpt lat="37.05284259282052516937255859375" lon="-4.8625584505498409271240234375">
        <ele>472.600006103515625</ele>
        <time>2019-11-01T11:23:54.000Z</time>
      </trkpt>
      <trkpt lat="37.05293898470699787139892578125" lon="-4.862752072513103485107421875">
        <ele>473</ele>
        <time>2019-11-01T11:26:42.000Z</time>
      </trkpt>
      <trkpt lat="37.0530047826468944549560546875" lon="-4.862981736660003662109375">
        <ele>473.20001220703125</ele>
        <time>2019-11-01T11:26:49.000Z</time>
      </trkpt>
      <trkpt lat="37.05305633135139942169189453125" lon="-4.86319740302860736846923828125">
        <ele>473.399993896484375</ele>
        <time>2019-11-01T11:26:55.000Z</time>
      </trkpt>
      <trkpt lat="37.053099162876605987548828125" lon="-4.863444082438945770263671875">
        <ele>473.600006103515625</ele>
        <time>2019-11-01T11:27:02.000Z</time>
      </trkpt>
      <trkpt lat="37.05311500467360019683837890625" lon="-4.86369587481021881103515625">
        <ele>473.600006103515625</ele>
        <time>2019-11-01T11:27:08.000Z</time>
      </trkpt>
      <trkpt lat="37.0530988276004791259765625" lon="-4.86392679624259471893310546875">
        <ele>474</ele>
        <time>2019-11-01T11:27:13.000Z</time>
      </trkpt>
      <trkpt lat="37.053043842315673828125" lon="-4.86415713094174861907958984375">
        <ele>474.600006103515625</ele>
        <time>2019-11-01T11:27:18.000Z</time>
      </trkpt>
      <trkpt lat="37.05297754146158695220947265625" lon="-4.86438578926026821136474609375">
        <ele>475.399993896484375</ele>
        <time>2019-11-01T11:27:23.000Z</time>
      </trkpt>
      <trkpt lat="37.05290528945624828338623046875" lon="-4.86461662687361240386962890625">
        <ele>476</ele>
        <time>2019-11-01T11:27:28.000Z</time>
      </trkpt>
      <trkpt lat="37.05282918177545070648193359375" lon="-4.86484109424054622650146484375">
        <ele>476.399993896484375</ele>
        <time>2019-11-01T11:27:33.000Z</time>
      </trkpt>
      <trkpt lat="37.052749805152416229248046875" lon="-4.8650537431240081787109375">
        <ele>476.79998779296875</ele>
        <time>2019-11-01T11:27:38.000Z</time>
      </trkpt>
      <trkpt lat="37.05266942270100116729736328125" lon="-4.86527033150196075439453125">
        <ele>477</ele>
        <time>2019-11-01T11:27:43.000Z</time>
      </trkpt>
      <trkpt lat="37.05258443020284175872802734375" lon="-4.86550100147724151611328125">
        <ele>477.20001220703125</ele>
        <time>2019-11-01T11:27:48.000Z</time>
      </trkpt>
      <trkpt lat="37.0524941571056842803955078125" lon="-4.865737371146678924560546875">
        <ele>477.399993896484375</ele>
        <time>2019-11-01T11:27:53.000Z</time>
      </trkpt>
      <trkpt lat="37.05240522511303424835205078125" lon="-4.865991175174713134765625">
        <ele>477</ele>
        <time>2019-11-01T11:27:58.000Z</time>
      </trkpt>
      <trkpt lat="37.0523343980312347412109375" lon="-4.86620365642011165618896484375">
        <ele>475.600006103515625</ele>
        <time>2019-11-01T11:28:02.000Z</time>
      </trkpt>
      <trkpt lat="37.0522530935704708099365234375" lon="-4.86642376519739627838134765625">
        <ele>474</ele>
        <time>2019-11-01T11:28:06.000Z</time>
      </trkpt>
      <trkpt lat="37.0521769858896732330322265625" lon="-4.8666469752788543701171875">
        <ele>472.79998779296875</ele>
        <time>2019-11-01T11:28:10.000Z</time>
      </trkpt>
      <trkpt lat="37.0521149598062038421630859375" lon="-4.8668642342090606689453125">
        <ele>472.20001220703125</ele>
        <time>2019-11-01T11:28:14.000Z</time>
      </trkpt>
      <trkpt lat="37.0520639978349208831787109375" lon="-4.867085181176662445068359375">
        <ele>472.20001220703125</ele>
        <time>2019-11-01T11:28:18.000Z</time>
      </trkpt>
      <trkpt lat="37.05203038640320301055908203125" lon="-4.8673119954764842987060546875">
        <ele>472.20001220703125</ele>
        <time>2019-11-01T11:28:22.000Z</time>
      </trkpt>
      <trkpt lat="37.051990740001201629638671875" lon="-4.8675768636167049407958984375">
        <ele>473</ele>
        <time>2019-11-01T11:28:27.000Z</time>
      </trkpt>
      <trkpt lat="37.05196919851005077362060546875" lon="-4.86783158965408802032470703125">
        <ele>473.399993896484375</ele>
        <time>2019-11-01T11:28:32.000Z</time>
      </trkpt>
      <trkpt lat="37.0519510097801685333251953125" lon="-4.86806921660900115966796875">
        <ele>473</ele>
        <time>2019-11-01T11:28:37.000Z</time>
      </trkpt>
      <trkpt lat="37.05193449743092060089111328125" lon="-4.86833467148244380950927734375">
        <ele>473</ele>
        <time>2019-11-01T11:28:43.000Z</time>
      </trkpt>
      <trkpt lat="37.05192024819552898406982421875" lon="-4.86856182105839252471923828125">
        <ele>473</ele>
        <time>2019-11-01T11:28:48.000Z</time>
      </trkpt>
      <trkpt lat="37.051909603178501129150390625" lon="-4.86879064701497554779052734375">
        <ele>474.20001220703125</ele>
        <time>2019-11-01T11:28:53.000Z</time>
      </trkpt>
      <trkpt lat="37.05189124681055545806884765625" lon="-4.86902181990444660186767578125">
        <ele>476.20001220703125</ele>
        <time>2019-11-01T11:28:58.000Z</time>
      </trkpt>
      <trkpt lat="37.05187800340354442596435546875" lon="-4.86925550736486911773681640625">
        <ele>478</ele>
        <time>2019-11-01T11:29:03.000Z</time>
      </trkpt>
      <trkpt lat="37.05186258070170879364013671875" lon="-4.869501851499080657958984375">
        <ele>479.600006103515625</ele>
        <time>2019-11-01T11:29:08.000Z</time>
      </trkpt>
      <trkpt lat="37.0518370158970355987548828125" lon="-4.8697583377361297607421875">
        <ele>480.79998779296875</ele>
        <time>2019-11-01T11:29:13.000Z</time>
      </trkpt>
      <trkpt lat="37.0518085174262523651123046875" lon="-4.87001373432576656341552734375">
        <ele>481.600006103515625</ele>
        <time>2019-11-01T11:29:18.000Z</time>
      </trkpt>
      <trkpt lat="37.05175680108368396759033203125" lon="-4.8702694661915302276611328125">
        <ele>481.79998779296875</ele>
        <time>2019-11-01T11:29:23.000Z</time>
      </trkpt>
      <trkpt lat="37.0516938529908657073974609375" lon="-4.8704803548753261566162109375">
        <ele>481.20001220703125</ele>
        <time>2019-11-01T11:29:27.000Z</time>
      </trkpt>
      <trkpt lat="37.05162252299487590789794921875" lon="-4.87068965099751949310302734375">
        <ele>480.20001220703125</ele>
        <time>2019-11-01T11:29:31.000Z</time>
      </trkpt>
      <trkpt lat="37.05153820104897022247314453125" lon="-4.87089802511036396026611328125">
        <ele>480</ele>
        <time>2019-11-01T11:29:35.000Z</time>
      </trkpt>
      <trkpt lat="37.05143786966800689697265625" lon="-4.8711066506803035736083984375">
        <ele>479.20001220703125</ele>
        <time>2019-11-01T11:29:39.000Z</time>
      </trkpt>
      <trkpt lat="37.0513448305428028106689453125" lon="-4.8713167011737823486328125">
        <ele>478.20001220703125</ele>
        <time>2019-11-01T11:29:43.000Z</time>
      </trkpt>
      <trkpt lat="37.05125589855015277862548828125" lon="-4.87152733840048313140869140625">
        <ele>477</ele>
        <time>2019-11-01T11:29:47.000Z</time>
      </trkpt>
      <trkpt lat="37.0511627756059169769287109375" lon="-4.87172582186758518218994140625">
        <ele>476.600006103515625</ele>
        <time>2019-11-01T11:29:51.000Z</time>
      </trkpt>
      <trkpt lat="37.0511389710009098052978515625" lon="-4.87177460454404354095458984375">
        <ele>476.600006103515625</ele>
        <time>2019-11-01T11:29:52.000Z</time>
      </trkpt>
      <trkpt lat="37.0510340295732021331787109375" lon="-4.872009716928005218505859375">
        <ele>477</ele>
        <time>2019-11-01T11:29:57.000Z</time>
      </trkpt>
      <trkpt lat="37.05092363990843296051025390625" lon="-4.87223812378942966461181640625">
        <ele>477.600006103515625</ele>
        <time>2019-11-01T11:30:02.000Z</time>
      </trkpt>
      <trkpt lat="37.05082506872713565826416015625" lon="-4.87244901247322559356689453125">
        <ele>478.399993896484375</ele>
        <time>2019-11-01T11:30:06.000Z</time>
      </trkpt>
      <trkpt lat="37.05072767101228237152099609375" lon="-4.87266459502279758453369140625">
        <ele>479</ele>
        <time>2019-11-01T11:30:10.000Z</time>
      </trkpt>
      <trkpt lat="37.05061979591846466064453125" lon="-4.8728873021900653839111328125">
        <ele>478.600006103515625</ele>
        <time>2019-11-01T11:30:14.000Z</time>
      </trkpt>
      <trkpt lat="37.05051259137690067291259765625" lon="-4.87310347147285938262939453125">
        <ele>478.20001220703125</ele>
        <time>2019-11-01T11:30:18.000Z</time>
      </trkpt>
      <trkpt lat="37.0504214800894260406494140625" lon="-4.873303882777690887451171875">
        <ele>478.399993896484375</ele>
        <time>2019-11-01T11:30:22.000Z</time>
      </trkpt>
      <trkpt lat="37.05031746067106723785400390625" lon="-4.8735286854207515716552734375">
        <ele>478.600006103515625</ele>
        <time>2019-11-01T11:30:27.000Z</time>
      </trkpt>
      <trkpt lat="37.05021838657557964324951171875" lon="-4.87373077310621738433837890625">
        <ele>478.20001220703125</ele>
        <time>2019-11-01T11:30:32.000Z</time>
      </trkpt>
      <trkpt lat="37.050143368542194366455078125" lon="-4.8738793842494487762451171875">
        <ele>478.600006103515625</ele>
        <time>2019-11-01T11:30:36.000Z</time>
      </trkpt>
      <trkpt lat="37.05009466968476772308349609375" lon="-4.87396580167114734649658203125">
        <ele>478.600006103515625</ele>
        <time>2019-11-01T11:30:42.000Z</time>
      </trkpt>
      <trkpt lat="37.0500919036567211151123046875" lon="-4.8739638738334178924560546875">
        <ele>478.600006103515625</ele>
        <time>2019-11-01T11:30:44.000Z</time>
      </trkpt>
      <trkpt lat="37.05003683455288410186767578125" lon="-4.87399597652256488800048828125">
        <ele>478.600006103515625</ele>
        <time>2019-11-01T11:30:51.000Z</time>
      </trkpt>
      <trkpt lat="37.049917392432689666748046875" lon="-4.87396865151822566986083984375">
        <ele>478</ele>
        <time>2019-11-01T11:30:56.000Z</time>
      </trkpt>
      <trkpt lat="37.0498706214129924774169921875" lon="-4.873948954045772552490234375">
        <ele>477.79998779296875</ele>
        <time>2019-11-01T11:30:59.000Z</time>
      </trkpt>
      <trkpt lat="37.04984673298895359039306640625" lon="-4.87395674921572208404541015625">
        <ele>477.600006103515625</ele>
        <time>2019-11-01T11:31:04.000Z</time>
      </trkpt>
      <trkpt lat="37.0497889816761016845703125" lon="-4.873935543000698089599609375">
        <ele>477.20001220703125</ele>
        <time>2019-11-01T11:32:17.000Z</time>
      </trkpt>
      <trkpt lat="37.04978386871516704559326171875" lon="-4.8739782907068729400634765625">
        <ele>477.20001220703125</ele>
        <time>2019-11-01T11:32:23.000Z</time>
      </trkpt>
      <trkpt lat="37.04993977211415767669677734375" lon="-4.8740606009960174560546875">
        <ele>478.20001220703125</ele>
        <time>2019-11-01T11:36:16.000Z</time>
      </trkpt>
      <trkpt lat="37.04986148513853549957275390625" lon="-4.874306358397006988525390625">
        <ele>477.79998779296875</ele>
        <time>2019-11-01T11:36:24.000Z</time>
      </trkpt>
      <trkpt lat="37.0497686974704265594482421875" lon="-4.87452068366110324859619140625">
        <ele>476.399993896484375</ele>
        <time>2019-11-01T11:36:29.000Z</time>
      </trkpt>
      <trkpt lat="37.0496798492968082427978515625" lon="-4.874738194048404693603515625">
        <ele>475</ele>
        <time>2019-11-01T11:36:34.000Z</time>
      </trkpt>
      <trkpt lat="37.04957834444940090179443359375" lon="-4.8749754019081592559814453125">
        <ele>473.399993896484375</ele>
        <time>2019-11-01T11:36:39.000Z</time>
      </trkpt>
      <trkpt lat="37.04945630393922328948974609375" lon="-4.875204227864742279052734375">
        <ele>472.79998779296875</ele>
        <time>2019-11-01T11:36:43.000Z</time>
      </trkpt>
      <trkpt lat="37.049345076084136962890625" lon="-4.87543347291648387908935546875">
        <ele>473</ele>
        <time>2019-11-01T11:36:47.000Z</time>
      </trkpt>
      <trkpt lat="37.0492379553616046905517578125" lon="-4.8756674118340015411376953125">
        <ele>473.79998779296875</ele>
        <time>2019-11-01T11:36:51.000Z</time>
      </trkpt>
      <trkpt lat="37.049134187400341033935546875" lon="-4.87591710872948169708251953125">
        <ele>473.399993896484375</ele>
        <time>2019-11-01T11:36:55.000Z</time>
      </trkpt>
      <trkpt lat="37.04902463592588901519775390625" lon="-4.876168482005596160888671875">
        <ele>473.600006103515625</ele>
        <time>2019-11-01T11:36:59.000Z</time>
      </trkpt>
      <trkpt lat="37.04891365952789783477783203125" lon="-4.876409880816936492919921875">
        <ele>473</ele>
        <time>2019-11-01T11:37:03.000Z</time>
      </trkpt>
      <trkpt lat="37.048845849931240081787109375" lon="-4.87664985470473766326904296875">
        <ele>473.20001220703125</ele>
        <time>2019-11-01T11:37:07.000Z</time>
      </trkpt>
      <trkpt lat="37.0488436706364154815673828125" lon="-4.87681455910205841064453125">
        <ele>473.20001220703125</ele>
        <time>2019-11-01T11:37:10.000Z</time>
      </trkpt>
      <trkpt lat="37.048831768333911895751953125" lon="-4.87692209891974925994873046875">
        <ele>472.79998779296875</ele>
        <time>2019-11-01T11:37:12.000Z</time>
      </trkpt>
      <trkpt lat="37.04869422130286693572998046875" lon="-4.87711639143526554107666015625">
        <ele>472</ele>
        <time>2019-11-01T11:37:17.000Z</time>
      </trkpt>
      <trkpt lat="37.0486061275005340576171875" lon="-4.87712846137583255767822265625">
        <ele>472</ele>
        <time>2019-11-01T11:37:19.000Z</time>
      </trkpt>
      <trkpt lat="37.04856044612824916839599609375" lon="-4.87714136950671672821044921875">
        <ele>472</ele>
        <time>2019-11-01T11:37:20.000Z</time>
      </trkpt>
      <trkpt lat="37.048434801399707794189453125" lon="-4.87733214162290096282958984375">
        <ele>471.600006103515625</ele>
        <time>2019-11-01T11:37:24.000Z</time>
      </trkpt>
      <trkpt lat="37.04832223244011402130126953125" lon="-4.8775570280849933624267578125">
        <ele>470.79998779296875</ele>
        <time>2019-11-01T11:37:28.000Z</time>
      </trkpt>
      <trkpt lat="37.04821377061307430267333984375" lon="-4.8777736164629459381103515625">
        <ele>470</ele>
        <time>2019-11-01T11:37:32.000Z</time>
      </trkpt>
      <trkpt lat="37.0481057278811931610107421875" lon="-4.8779935576021671295166015625">
        <ele>469.600006103515625</ele>
        <time>2019-11-01T11:37:36.000Z</time>
      </trkpt>
      <trkpt lat="37.047991566359996795654296875" lon="-4.8782165162265300750732421875">
        <ele>469.20001220703125</ele>
        <time>2019-11-01T11:37:40.000Z</time>
      </trkpt>
      <trkpt lat="37.04787614755332469940185546875" lon="-4.87844794057309627532958984375">
        <ele>468.79998779296875</ele>
        <time>2019-11-01T11:37:44.000Z</time>
      </trkpt>
      <trkpt lat="37.04775528050959110260009765625" lon="-4.8786818794906139373779296875">
        <ele>469.20001220703125</ele>
        <time>2019-11-01T11:37:48.000Z</time>
      </trkpt>
      <trkpt lat="37.04762913286685943603515625" lon="-4.87891548313200473785400390625">
        <ele>468.79998779296875</ele>
        <time>2019-11-01T11:37:52.000Z</time>
      </trkpt>
      <trkpt lat="37.0474992133677005767822265625" lon="-4.8791532777249813079833984375">
        <ele>467.79998779296875</ele>
        <time>2019-11-01T11:37:56.000Z</time>
      </trkpt>
      <trkpt lat="37.0473687909543514251708984375" lon="-4.87938788719475269317626953125">
        <ele>467</ele>
        <time>2019-11-01T11:38:00.000Z</time>
      </trkpt>
      <trkpt lat="37.0472410507500171661376953125" lon="-4.8796263523399829864501953125">
        <ele>466.79998779296875</ele>
        <time>2019-11-01T11:38:04.000Z</time>
      </trkpt>
      <trkpt lat="37.04711674712598323822021484375" lon="-4.87986582331359386444091796875">
        <ele>467.20001220703125</ele>
        <time>2019-11-01T11:38:08.000Z</time>
      </trkpt>
      <trkpt lat="37.0469941198825836181640625" lon="-4.88012163899838924407958984375">
        <ele>468</ele>
        <time>2019-11-01T11:38:12.000Z</time>
      </trkpt>
      <trkpt lat="37.046871744096279144287109375" lon="-4.880368821322917938232421875">
        <ele>469</ele>
        <time>2019-11-01T11:38:16.000Z</time>
      </trkpt>
      <trkpt lat="37.046759426593780517578125" lon="-4.880614243447780609130859375">
        <ele>469.600006103515625</ele>
        <time>2019-11-01T11:38:20.000Z</time>
      </trkpt>
      <trkpt lat="37.04665389843285083770751953125" lon="-4.88085002638399600982666015625">
        <ele>469.399993896484375</ele>
        <time>2019-11-01T11:38:24.000Z</time>
      </trkpt>
      <trkpt lat="37.0465587638318538665771484375" lon="-4.881093688309192657470703125">
        <ele>469</ele>
        <time>2019-11-01T11:38:28.000Z</time>
      </trkpt>
      <trkpt lat="37.0464736036956310272216796875" lon="-4.88132997415959835052490234375">
        <ele>469</ele>
        <time>2019-11-01T11:38:32.000Z</time>
      </trkpt>
      <trkpt lat="37.046407721936702728271484375" lon="-4.88155938684940338134765625">
        <ele>468.79998779296875</ele>
        <time>2019-11-01T11:38:36.000Z</time>
      </trkpt>
      <trkpt lat="37.046350054442882537841796875" lon="-4.8817902244627475738525390625">
        <ele>468</ele>
        <time>2019-11-01T11:38:40.000Z</time>
      </trkpt>
      <trkpt lat="37.046295739710330963134765625" lon="-4.8820286057889461517333984375">
        <ele>468</ele>
        <time>2019-11-01T11:38:44.000Z</time>
      </trkpt>
      <trkpt lat="37.04624511301517486572265625" lon="-4.8822735249996185302734375">
        <ele>467.20001220703125</ele>
        <time>2019-11-01T11:38:48.000Z</time>
      </trkpt>
      <trkpt lat="37.04619993455708026885986328125" lon="-4.882513582706451416015625">
        <ele>466.600006103515625</ele>
        <time>2019-11-01T11:38:52.000Z</time>
      </trkpt>
      <trkpt lat="37.04615500755608081817626953125" lon="-4.88274299539625644683837890625">
        <ele>466.399993896484375</ele>
        <time>2019-11-01T11:38:56.000Z</time>
      </trkpt>
      <trkpt lat="37.046110667288303375244140625" lon="-4.8829789459705352783203125">
        <ele>466.600006103515625</ele>
        <time>2019-11-01T11:39:00.000Z</time>
      </trkpt>
      <trkpt lat="37.04606699757277965545654296875" lon="-4.88321858458220958709716796875">
        <ele>467.20001220703125</ele>
        <time>2019-11-01T11:39:04.000Z</time>
      </trkpt>
      <trkpt lat="37.04602575860917568206787109375" lon="-4.883463084697723388671875">
        <ele>468</ele>
        <time>2019-11-01T11:39:08.000Z</time>
      </trkpt>
      <trkpt lat="37.04598317854106426239013671875" lon="-4.883698113262653350830078125">
        <ele>469</ele>
        <time>2019-11-01T11:39:12.000Z</time>
      </trkpt>
      <trkpt lat="37.04594411887228488922119140625" lon="-4.88393188454210758209228515625">
        <ele>469</ele>
        <time>2019-11-01T11:39:16.000Z</time>
      </trkpt>
      <trkpt lat="37.0459051430225372314453125" lon="-4.88416624255478382110595703125">
        <ele>469</ele>
        <time>2019-11-01T11:39:20.000Z</time>
      </trkpt>
      <trkpt lat="37.04586298204958438873291015625" lon="-4.88440110348165035247802734375">
        <ele>469.399993896484375</ele>
        <time>2019-11-01T11:39:24.000Z</time>
      </trkpt>
      <trkpt lat="37.0458137802779674530029296875" lon="-4.8846352100372314453125">
        <ele>470</ele>
        <time>2019-11-01T11:39:28.000Z</time>
      </trkpt>
      <trkpt lat="37.045766673982143402099609375" lon="-4.88487032242119312286376953125">
        <ele>470.79998779296875</ele>
        <time>2019-11-01T11:39:32.000Z</time>
      </trkpt>
      <trkpt lat="37.0457245968282222747802734375" lon="-4.88509730435907840728759765625">
        <ele>471</ele>
        <time>2019-11-01T11:39:36.000Z</time>
      </trkpt>
      <trkpt lat="37.04570305533707141876220703125" lon="-4.88521121442317962646484375">
        <ele>471</ele>
        <time>2019-11-01T11:39:38.000Z</time>
      </trkpt>
      <trkpt lat="37.0456629060208797454833984375" lon="-4.885442554950714111328125">
        <ele>471</ele>
        <time>2019-11-01T11:39:42.000Z</time>
      </trkpt>
      <trkpt lat="37.0456149615347385406494140625" lon="-4.8856638371944427490234375">
        <ele>471</ele>
        <time>2019-11-01T11:39:46.000Z</time>
      </trkpt>
      <trkpt lat="37.04556877724826335906982421875" lon="-4.88588453270494937896728515625">
        <ele>470.20001220703125</ele>
        <time>2019-11-01T11:39:50.000Z</time>
      </trkpt>
      <trkpt lat="37.0455200783908367156982421875" lon="-4.8861565254628658294677734375">
        <ele>470</ele>
        <time>2019-11-01T11:39:55.000Z</time>
      </trkpt>
      <trkpt lat="37.04547741450369358062744140625" lon="-4.88637621514499187469482421875">
        <ele>469.399993896484375</ele>
        <time>2019-11-01T11:39:59.000Z</time>
      </trkpt>
      <trkpt lat="37.045469619333744049072265625" lon="-4.88643237389624118804931640625">
        <ele>469.20001220703125</ele>
        <time>2019-11-01T11:40:00.000Z</time>
      </trkpt>
      <trkpt lat="37.045418322086334228515625" lon="-4.88670277409255504608154296875">
        <ele>469</ele>
        <time>2019-11-01T11:40:05.000Z</time>
      </trkpt>
      <trkpt lat="37.04536140896379947662353515625" lon="-4.88694903440773487091064453125">
        <ele>469.600006103515625</ele>
        <time>2019-11-01T11:40:10.000Z</time>
      </trkpt>
      <trkpt lat="37.04530910588800907135009765625" lon="-4.88720082677900791168212890625">
        <ele>471</ele>
        <time>2019-11-01T11:40:15.000Z</time>
      </trkpt>
      <trkpt lat="37.0452614128589630126953125" lon="-4.8874537087976932525634765625">
        <ele>472</ele>
        <time>2019-11-01T11:40:20.000Z</time>
      </trkpt>
      <trkpt lat="37.0452498458325862884521484375" lon="-4.88750257529318332672119140625">
        <ele>472</ele>
        <time>2019-11-01T11:40:21.000Z</time>
      </trkpt>
      <trkpt lat="37.04520039260387420654296875" lon="-4.887746907770633697509765625">
        <ele>472</ele>
        <time>2019-11-01T11:40:26.000Z</time>
      </trkpt>
      <trkpt lat="37.04515705816447734832763671875" lon="-4.88798922859132289886474609375">
        <ele>472.399993896484375</ele>
        <time>2019-11-01T11:40:31.000Z</time>
      </trkpt>
      <trkpt lat="37.045115567743778228759765625" lon="-4.88823045976459980010986328125">
        <ele>473</ele>
        <time>2019-11-01T11:40:36.000Z</time>
      </trkpt>
      <trkpt lat="37.04507189802825450897216796875" lon="-4.88846900872886180877685546875">
        <ele>473</ele>
        <time>2019-11-01T11:40:41.000Z</time>
      </trkpt>
      <trkpt lat="37.04503267072141170501708984375" lon="-4.88870319910347461700439453125">
        <ele>472.399993896484375</ele>
        <time>2019-11-01T11:40:46.000Z</time>
      </trkpt>
      <trkpt lat="37.04499495215713977813720703125" lon="-4.888935796916484832763671875">
        <ele>473.399993896484375</ele>
        <time>2019-11-01T11:40:51.000Z</time>
      </trkpt>
      <trkpt lat="37.04496041871607303619384765625" lon="-4.88917459733784198760986328125">
        <ele>473.600006103515625</ele>
        <time>2019-11-01T11:40:56.000Z</time>
      </trkpt>
      <trkpt lat="37.04491767100989818572998046875" lon="-4.88940082490444183349609375">
        <ele>474</ele>
        <time>2019-11-01T11:41:01.000Z</time>
      </trkpt>
      <trkpt lat="37.0448646135628223419189453125" lon="-4.8896549642086029052734375">
        <ele>474.399993896484375</ele>
        <time>2019-11-01T11:41:07.000Z</time>
      </trkpt>
      <trkpt lat="37.0448196865618228912353515625" lon="-4.8898948542773723602294921875">
        <ele>475.20001220703125</ele>
        <time>2019-11-01T11:41:13.000Z</time>
      </trkpt>
      <trkpt lat="37.04476495273411273956298828125" lon="-4.8901315592229366302490234375">
        <ele>476</ele>
        <time>2019-11-01T11:41:19.000Z</time>
      </trkpt>
      <trkpt lat="37.04472354613244533538818359375" lon="-4.8903515003621578216552734375">
        <ele>476.79998779296875</ele>
        <time>2019-11-01T11:41:25.000Z</time>
      </trkpt>
      <trkpt lat="37.04468809068202972412109375" lon="-4.8905791528522968292236328125">
        <ele>477.600006103515625</ele>
        <time>2019-11-01T11:41:31.000Z</time>
      </trkpt>
      <trkpt lat="37.0446517132222652435302734375" lon="-4.89079984836280345916748046875">
        <ele>478.399993896484375</ele>
        <time>2019-11-01T11:41:37.000Z</time>
      </trkpt>
      <trkpt lat="37.0446165092289447784423828125" lon="-4.891023226082324981689453125">
        <ele>479.20001220703125</ele>
        <time>2019-11-01T11:41:43.000Z</time>
      </trkpt>
      <trkpt lat="37.04458407126367092132568359375" lon="-4.8912470228970050811767578125">
        <ele>480.20001220703125</ele>
        <time>2019-11-01T11:41:49.000Z</time>
      </trkpt>
      <trkpt lat="37.0445638708770275115966796875" lon="-4.89147794432938098907470703125">
        <ele>481.79998779296875</ele>
        <time>2019-11-01T11:41:55.000Z</time>
      </trkpt>
      <trkpt lat="37.044557668268680572509765625" lon="-4.8917056806385517120361328125">
        <ele>482.600006103515625</ele>
        <time>2019-11-01T11:42:01.000Z</time>
      </trkpt>
      <trkpt lat="37.04454920254647731781005859375" lon="-4.8919346742331981658935546875">
        <ele>483</ele>
        <time>2019-11-01T11:42:07.000Z</time>
      </trkpt>
      <trkpt lat="37.04453428275883197784423828125" lon="-4.892160482704639434814453125">
        <ele>483</ele>
        <time>2019-11-01T11:42:13.000Z</time>
      </trkpt>
      <trkpt lat="37.04452707432210445404052734375" lon="-4.89239140413701534271240234375">
        <ele>483</ele>
        <time>2019-11-01T11:42:19.000Z</time>
      </trkpt>
      <trkpt lat="37.04451433382928371429443359375" lon="-4.892616458237171173095703125">
        <ele>483</ele>
        <time>2019-11-01T11:42:25.000Z</time>
      </trkpt>
      <trkpt lat="37.0444961450994014739990234375" lon="-4.8928751237690448760986328125">
        <ele>483.399993896484375</ele>
        <time>2019-11-01T11:42:32.000Z</time>
      </trkpt>
      <trkpt lat="37.04448516480624675750732421875" lon="-4.8931047879159450531005859375">
        <ele>484.600006103515625</ele>
        <time>2019-11-01T11:42:38.000Z</time>
      </trkpt>
      <trkpt lat="37.04446488060057163238525390625" lon="-4.89335448481142520904541015625">
        <ele>486.399993896484375</ele>
        <time>2019-11-01T11:42:45.000Z</time>
      </trkpt>
      <trkpt lat="37.0444585941731929779052734375" lon="-4.8936046846210956573486328125">
        <ele>488.20001220703125</ele>
        <time>2019-11-01T11:42:52.000Z</time>
      </trkpt>
      <trkpt lat="37.04443504102528095245361328125" lon="-4.8938594944775104522705078125">
        <ele>489</ele>
        <time>2019-11-01T11:42:59.000Z</time>
      </trkpt>
      <trkpt lat="37.0444160141050815582275390625" lon="-4.89411170594394207000732421875">
        <ele>489.79998779296875</ele>
        <time>2019-11-01T11:43:06.000Z</time>
      </trkpt>
      <trkpt lat="37.0444029383361339569091796875" lon="-4.8943402804434299468994140625">
        <ele>490.600006103515625</ele>
        <time>2019-11-01T11:43:12.000Z</time>
      </trkpt>
      <trkpt lat="37.0443925447762012481689453125" lon="-4.894575141370296478271484375">
        <ele>491</ele>
        <time>2019-11-01T11:43:18.000Z</time>
      </trkpt>
      <trkpt lat="37.04437561333179473876953125" lon="-4.89482500590384006500244140625">
        <ele>491.79998779296875</ele>
        <time>2019-11-01T11:43:25.000Z</time>
      </trkpt>
      <trkpt lat="37.04436882399022579193115234375" lon="-4.89507176913321018218994140625">
        <ele>491.79998779296875</ele>
        <time>2019-11-01T11:43:32.000Z</time>
      </trkpt>
      <trkpt lat="37.04438206739723682403564453125" lon="-4.89529657177627086639404296875">
        <ele>492.399993896484375</ele>
        <time>2019-11-01T11:43:40.000Z</time>
      </trkpt>
      <trkpt lat="37.04442900605499744415283203125" lon="-4.8954165168106555938720703125">
        <ele>492.79998779296875</ele>
        <time>2019-11-01T11:43:46.000Z</time>
      </trkpt>
      <trkpt lat="37.04442900605499744415283203125" lon="-4.89544442854821681976318359375">
        <ele>493</ele>
        <time>2019-11-01T11:43:48.000Z</time>
      </trkpt>
      <trkpt lat="37.0444287545979022979736328125" lon="-4.8954476974904537200927734375">
        <ele>493</ele>
        <time>2019-11-01T11:43:51.000Z</time>
      </trkpt>
      <trkpt lat="37.04441727139055728912353515625" lon="-4.89545415155589580535888671875">
        <ele>493.20001220703125</ele>
        <time>2019-11-01T11:45:59.000Z</time>
      </trkpt>
      <trkpt lat="37.0444029383361339569091796875" lon="-4.895588345825672149658203125">
        <ele>494.20001220703125</ele>
        <time>2019-11-01T11:46:04.000Z</time>
      </trkpt>
      <trkpt lat="37.04438441433012485504150390625" lon="-4.89582538604736328125">
        <ele>496</ele>
        <time>2019-11-01T11:46:11.000Z</time>
      </trkpt>
      <trkpt lat="37.04436815343797206878662109375" lon="-4.8960766755044460296630859375">
        <ele>496.79998779296875</ele>
        <time>2019-11-01T11:46:18.000Z</time>
      </trkpt>
      <trkpt lat="37.0443596877157688140869140625" lon="-4.89630256779491901397705078125">
        <ele>497.399993896484375</ele>
        <time>2019-11-01T11:46:24.000Z</time>
      </trkpt>
      <trkpt lat="37.04434820450842380523681640625" lon="-4.89652820862829685211181640625">
        <ele>498.20001220703125</ele>
        <time>2019-11-01T11:46:30.000Z</time>
      </trkpt>
      <trkpt lat="37.0443295128643512725830078125" lon="-4.89678720943629741668701171875">
        <ele>500</ele>
        <time>2019-11-01T11:46:37.000Z</time>
      </trkpt>
      <trkpt lat="37.04431618563830852508544921875" lon="-4.89701318554580211639404296875">
        <ele>501.600006103515625</ele>
        <time>2019-11-01T11:46:43.000Z</time>
      </trkpt>
      <trkpt lat="37.0442993380129337310791015625" lon="-4.89727168343961238861083984375">
        <ele>502.600006103515625</ele>
        <time>2019-11-01T11:46:50.000Z</time>
      </trkpt>
      <trkpt lat="37.044288106262683868408203125" lon="-4.8974977433681488037109375">
        <ele>502.79998779296875</ele>
        <time>2019-11-01T11:46:56.000Z</time>
      </trkpt>
      <trkpt lat="37.04428165219724178314208984375" lon="-4.8977604322135448455810546875">
        <ele>502.399993896484375</ele>
        <time>2019-11-01T11:47:03.000Z</time>
      </trkpt>
      <trkpt lat="37.044267319142818450927734375" lon="-4.8979904316365718841552734375">
        <ele>502</ele>
        <time>2019-11-01T11:47:09.000Z</time>
      </trkpt>
      <trkpt lat="37.04425315372645854949951171875" lon="-4.8982154019176959991455078125">
        <ele>501.399993896484375</ele>
        <time>2019-11-01T11:47:15.000Z</time>
      </trkpt>
      <trkpt lat="37.04424074850976467132568359375" lon="-4.8984767496585845947265625">
        <ele>501.600006103515625</ele>
        <time>2019-11-01T11:47:22.000Z</time>
      </trkpt>
      <trkpt lat="37.04422540962696075439453125" lon="-4.89873834885656833648681640625">
        <ele>502.399993896484375</ele>
        <time>2019-11-01T11:47:29.000Z</time>
      </trkpt>
      <trkpt lat="37.04421023838222026824951171875" lon="-4.89896315149962902069091796875">
        <ele>504.20001220703125</ele>
        <time>2019-11-01T11:47:35.000Z</time>
      </trkpt>
      <trkpt lat="37.0442054606974124908447265625" lon="-4.89919222891330718994140625">
        <ele>505</ele>
        <time>2019-11-01T11:47:41.000Z</time>
      </trkpt>
      <trkpt lat="37.04419163055717945098876953125" lon="-4.8994498886168003082275390625">
        <ele>505.79998779296875</ele>
        <time>2019-11-01T11:47:48.000Z</time>
      </trkpt>
      <trkpt lat="37.0441880263388156890869140625" lon="-4.89967728964984416961669921875">
        <ele>506</ele>
        <time>2019-11-01T11:47:54.000Z</time>
      </trkpt>
      <trkpt lat="37.04417956061661243438720703125" lon="-4.89990393631160259246826171875">
        <ele>506.600006103515625</ele>
        <time>2019-11-01T11:48:00.000Z</time>
      </trkpt>
      <trkpt lat="37.04416883178055286407470703125" lon="-4.9001569859683513641357421875">
        <ele>507.79998779296875</ele>
        <time>2019-11-01T11:48:07.000Z</time>
      </trkpt>
      <trkpt lat="37.04416061751544475555419921875" lon="-4.900410287082195281982421875">
        <ele>509.600006103515625</ele>
        <time>2019-11-01T11:48:14.000Z</time>
      </trkpt>
      <trkpt lat="37.04414519481360912322998046875" lon="-4.9006652645766735076904296875">
        <ele>511.399993896484375</ele>
        <time>2019-11-01T11:48:21.000Z</time>
      </trkpt>
      <trkpt lat="37.044124491512775421142578125" lon="-4.9009256064891815185546875">
        <ele>512.20001220703125</ele>
        <time>2019-11-01T11:48:28.000Z</time>
      </trkpt>
      <trkpt lat="37.04409758560359477996826171875" lon="-4.90118242800235748291015625">
        <ele>513</ele>
        <time>2019-11-01T11:48:35.000Z</time>
      </trkpt>
      <trkpt lat="37.0440679974853992462158203125" lon="-4.90143966861069202423095703125">
        <ele>513.79998779296875</ele>
        <time>2019-11-01T11:48:42.000Z</time>
      </trkpt>
      <trkpt lat="37.04403338022530078887939453125" lon="-4.90169598720967769622802734375">
        <ele>515.4000244140625</ele>
        <time>2019-11-01T11:48:49.000Z</time>
      </trkpt>
      <trkpt lat="37.0439959131181240081787109375" lon="-4.9019517190754413604736328125">
        <ele>517.20001220703125</ele>
        <time>2019-11-01T11:48:56.000Z</time>
      </trkpt>
      <trkpt lat="37.043949477374553680419921875" lon="-4.90219839848577976226806640625">
        <ele>518.20001220703125</ele>
        <time>2019-11-01T11:49:03.000Z</time>
      </trkpt>
      <trkpt lat="37.043903879821300506591796875" lon="-4.902444742619991302490234375">
        <ele>519</ele>
        <time>2019-11-01T11:49:10.000Z</time>
      </trkpt>
      <trkpt lat="37.04383942298591136932373046875" lon="-4.9026853032410144805908203125">
        <ele>519.79998779296875</ele>
        <time>2019-11-01T11:49:17.000Z</time>
      </trkpt>
      <trkpt lat="37.043772451579570770263671875" lon="-4.90292460657656192779541015625">
        <ele>521.20001220703125</ele>
        <time>2019-11-01T11:49:24.000Z</time>
      </trkpt>
      <trkpt lat="37.0437102578580379486083984375" lon="-4.90313851274549961090087890625">
        <ele>521.79998779296875</ele>
        <time>2019-11-01T11:49:30.000Z</time>
      </trkpt>
      <trkpt lat="37.04364244826138019561767578125" lon="-4.90337940864264965057373046875">
        <ele>522</ele>
        <time>2019-11-01T11:49:37.000Z</time>
      </trkpt>
      <trkpt lat="37.043565250933170318603515625" lon="-4.9036156944930553436279296875">
        <ele>522</ele>
        <time>2019-11-01T11:49:44.000Z</time>
      </trkpt>
      <trkpt lat="37.04348755069077014923095703125" lon="-4.90385700948536396026611328125">
        <ele>522.4000244140625</ele>
        <time>2019-11-01T11:49:51.000Z</time>
      </trkpt>
      <trkpt lat="37.0434101857244968414306640625" lon="-4.904062114655971527099609375">
        <ele>523</ele>
        <time>2019-11-01T11:49:57.000Z</time>
      </trkpt>
      <trkpt lat="37.04332142136991024017333984375" lon="-4.90429303608834743499755859375">
        <ele>523.4000244140625</ele>
        <time>2019-11-01T11:50:04.000Z</time>
      </trkpt>
      <trkpt lat="37.04323223792016506195068359375" lon="-4.90452219732105731964111328125">
        <ele>524</ele>
        <time>2019-11-01T11:50:11.000Z</time>
      </trkpt>
      <trkpt lat="37.043127715587615966796875" lon="-4.904749430716037750244140625">
        <ele>525.79998779296875</ele>
        <time>2019-11-01T11:50:18.000Z</time>
      </trkpt>
      <trkpt lat="37.04301883466541767120361328125" lon="-4.9049715511500835418701171875">
        <ele>527.79998779296875</ele>
        <time>2019-11-01T11:50:25.000Z</time>
      </trkpt>
      <trkpt lat="37.04291121102869510650634765625" lon="-4.90519358776509761810302734375">
        <ele>529.79998779296875</ele>
        <time>2019-11-01T11:50:32.000Z</time>
      </trkpt>
      <trkpt lat="37.0427949540317058563232421875" lon="-4.9054124392569065093994140625">
        <ele>531.20001220703125</ele>
        <time>2019-11-01T11:50:39.000Z</time>
      </trkpt>
      <trkpt lat="37.04268121160566806793212890625" lon="-4.9056260101497173309326171875">
        <ele>532</ele>
        <time>2019-11-01T11:50:46.000Z</time>
      </trkpt>
      <trkpt lat="37.04256202094256877899169921875" lon="-4.90583765320479869842529296875">
        <ele>532</ele>
        <time>2019-11-01T11:50:53.000Z</time>
      </trkpt>
      <trkpt lat="37.0424616895616054534912109375" lon="-4.90602993406355381011962890625">
        <ele>531.79998779296875</ele>
        <time>2019-11-01T11:50:59.000Z</time>
      </trkpt>
      <trkpt lat="37.04235129989683628082275390625" lon="-4.90622204728424549102783203125">
        <ele>532</ele>
        <time>2019-11-01T11:51:05.000Z</time>
      </trkpt>
      <trkpt lat="37.0422390662133693695068359375" lon="-4.9064053595066070556640625">
        <ele>532.79998779296875</ele>
        <time>2019-11-01T11:51:11.000Z</time>
      </trkpt>
      <trkpt lat="37.042128257453441619873046875" lon="-4.9065899290144443511962890625">
        <ele>533.4000244140625</ele>
        <time>2019-11-01T11:51:17.000Z</time>
      </trkpt>
      <trkpt lat="37.0419986732304096221923828125" lon="-4.9067947827279567718505859375">
        <ele>533.4000244140625</ele>
        <time>2019-11-01T11:51:24.000Z</time>
      </trkpt>
      <trkpt lat="37.04188543371856212615966796875" lon="-4.9069765023887157440185546875">
        <ele>533.20001220703125</ele>
        <time>2019-11-01T11:51:30.000Z</time>
      </trkpt>
      <trkpt lat="37.041762135922908782958984375" lon="-4.9071778357028961181640625">
        <ele>533.20001220703125</ele>
        <time>2019-11-01T11:51:37.000Z</time>
      </trkpt>
      <trkpt lat="37.04164856113493442535400390625" lon="-4.9073825217783451080322265625">
        <ele>533.5999755859375</ele>
        <time>2019-11-01T11:51:44.000Z</time>
      </trkpt>
      <trkpt lat="37.041543535888195037841796875" lon="-4.9075746349990367889404296875">
        <ele>533.79998779296875</ele>
        <time>2019-11-01T11:51:50.000Z</time>
      </trkpt>
      <trkpt lat="37.04141889698803424835205078125" lon="-4.90778359584510326385498046875">
        <ele>535.5999755859375</ele>
        <time>2019-11-01T11:51:57.000Z</time>
      </trkpt>
      <trkpt lat="37.0412925817072391510009765625" lon="-4.9079907126724720001220703125">
        <ele>538</ele>
        <time>2019-11-01T11:52:04.000Z</time>
      </trkpt>
      <trkpt lat="37.0411692000925540924072265625" lon="-4.9081861786544322967529296875">
        <ele>540.20001220703125</ele>
        <time>2019-11-01T11:52:11.000Z</time>
      </trkpt>
      <trkpt lat="37.04106174409389495849609375" lon="-4.90838407538831233978271484375">
        <ele>541.5999755859375</ele>
        <time>2019-11-01T11:52:18.000Z</time>
      </trkpt>
      <trkpt lat="37.0409512706100940704345703125" lon="-4.90858322940766811370849609375">
        <ele>543.20001220703125</ele>
        <time>2019-11-01T11:52:25.000Z</time>
      </trkpt>
      <trkpt lat="37.0408359356224536895751953125" lon="-4.9087792821228504180908203125">
        <ele>543.5999755859375</ele>
        <time>2019-11-01T11:52:32.000Z</time>
      </trkpt>
      <trkpt lat="37.04070962034165859222412109375" lon="-4.90896695293486118316650390625">
        <ele>543</ele>
        <time>2019-11-01T11:52:39.000Z</time>
      </trkpt>
      <trkpt lat="37.04058540053665637969970703125" lon="-4.90916443057358264923095703125">
        <ele>542.79998779296875</ele>
        <time>2019-11-01T11:52:46.000Z</time>
      </trkpt>
      <trkpt lat="37.0405003242194652557373046875" lon="-4.9092994630336761474609375">
        <ele>542.5999755859375</ele>
        <time>2019-11-01T11:52:54.000Z</time>
      </trkpt>
      <trkpt lat="37.04050443135201930999755859375" lon="-4.909299127757549285888671875">
        <ele>542.5999755859375</ele>
        <time>2019-11-01T11:52:57.000Z</time>
      </trkpt>
      <trkpt lat="37.0404389686882495880126953125" lon="-4.90939375944435596466064453125">
        <ele>542.79998779296875</ele>
        <time>2019-11-01T11:53:54.000Z</time>
      </trkpt>
      <trkpt lat="37.04032405279576778411865234375" lon="-4.90958168171346187591552734375">
        <ele>545</ele>
        <time>2019-11-01T11:54:01.000Z</time>
      </trkpt>
      <trkpt lat="37.04021257348358631134033203125" lon="-4.90978267975151538848876953125">
        <ele>547.20001220703125</ele>
        <time>2019-11-01T11:54:08.000Z</time>
      </trkpt>
      <trkpt lat="37.04009036533534526824951171875" lon="-4.9099812470376491546630859375">
        <ele>549.4000244140625</ele>
        <time>2019-11-01T11:54:15.000Z</time>
      </trkpt>
      <trkpt lat="37.03996513970196247100830078125" lon="-4.91017931140959262847900390625">
        <ele>551</ele>
        <time>2019-11-01T11:54:22.000Z</time>
      </trkpt>
      <trkpt lat="37.03984125517308712005615234375" lon="-4.91038818843662738800048828125">
        <ele>551.20001220703125</ele>
        <time>2019-11-01T11:54:29.000Z</time>
      </trkpt>
      <trkpt lat="37.03972541727125644683837890625" lon="-4.91058851592242717742919921875">
        <ele>551</ele>
        <time>2019-11-01T11:54:36.000Z</time>
      </trkpt>
      <trkpt lat="37.03959985636174678802490234375" lon="-4.9107932858169078826904296875">
        <ele>551</ele>
        <time>2019-11-01T11:54:43.000Z</time>
      </trkpt>
      <trkpt lat="37.03947463072836399078369140625" lon="-4.91099168546497821807861328125">
        <ele>551.20001220703125</ele>
        <time>2019-11-01T11:54:50.000Z</time>
      </trkpt>
      <trkpt lat="37.03936524689197540283203125" lon="-4.9111783504486083984375">
        <ele>551.79998779296875</ele>
        <time>2019-11-01T11:54:56.000Z</time>
      </trkpt>
      <trkpt lat="37.03923574648797512054443359375" lon="-4.9113850481808185577392578125">
        <ele>552.20001220703125</ele>
        <time>2019-11-01T11:55:03.000Z</time>
      </trkpt>
      <trkpt lat="37.03912175260484218597412109375" lon="-4.91156869567930698394775390625">
        <ele>552.79998779296875</ele>
        <time>2019-11-01T11:55:09.000Z</time>
      </trkpt>
      <trkpt lat="37.0389972813427448272705078125" lon="-4.91175997070968151092529296875">
        <ele>553.79998779296875</ele>
        <time>2019-11-01T11:55:15.000Z</time>
      </trkpt>
      <trkpt lat="37.03888538293540477752685546875" lon="-4.91193951107561588287353515625">
        <ele>555.20001220703125</ele>
        <time>2019-11-01T11:55:21.000Z</time>
      </trkpt>
      <trkpt lat="37.038764096796512603759765625" lon="-4.9121253378689289093017578125">
        <ele>556.20001220703125</ele>
        <time>2019-11-01T11:55:27.000Z</time>
      </trkpt>
      <trkpt lat="37.0386350154876708984375" lon="-4.91230865009129047393798828125">
        <ele>557.4000244140625</ele>
        <time>2019-11-01T11:55:33.000Z</time>
      </trkpt>
      <trkpt lat="37.0385004021227359771728515625" lon="-4.91248467005789279937744140625">
        <ele>558.4000244140625</ele>
        <time>2019-11-01T11:55:39.000Z</time>
      </trkpt>
      <trkpt lat="37.03836746513843536376953125" lon="-4.9126647971570491790771484375">
        <ele>559</ele>
        <time>2019-11-01T11:55:45.000Z</time>
      </trkpt>
      <trkpt lat="37.03823092393577098846435546875" lon="-4.91282782517373561859130859375">
        <ele>559</ele>
        <time>2019-11-01T11:55:51.000Z</time>
      </trkpt>
      <trkpt lat="37.03809480182826519012451171875" lon="-4.91299110464751720428466796875">
        <ele>559.4000244140625</ele>
        <time>2019-11-01T11:55:57.000Z</time>
      </trkpt>
      <trkpt lat="37.03796186484396457672119140625" lon="-4.9131445772945880889892578125">
        <ele>560</ele>
        <time>2019-11-01T11:56:03.000Z</time>
      </trkpt>
      <trkpt lat="37.03780914656817913055419921875" lon="-4.91332210600376129150390625">
        <ele>560.5999755859375</ele>
        <time>2019-11-01T11:56:10.000Z</time>
      </trkpt>
      <trkpt lat="37.03768140636384487152099609375" lon="-4.913489408791065216064453125">
        <ele>561.20001220703125</ele>
        <time>2019-11-01T11:56:16.000Z</time>
      </trkpt>
      <trkpt lat="37.03754402697086334228515625" lon="-4.9136495031416416168212890625">
        <ele>562.4000244140625</ele>
        <time>2019-11-01T11:56:22.000Z</time>
      </trkpt>
      <trkpt lat="37.03740128315985202789306640625" lon="-4.91381253115832805633544921875">
        <ele>563</ele>
        <time>2019-11-01T11:56:28.000Z</time>
      </trkpt>
      <trkpt lat="37.03726465813815593719482421875" lon="-4.91396960802376270294189453125">
        <ele>562.5999755859375</ele>
        <time>2019-11-01T11:56:34.000Z</time>
      </trkpt>
      <trkpt lat="37.03712685965001583099365234375" lon="-4.91413020528852939605712890625">
        <ele>562.5999755859375</ele>
        <time>2019-11-01T11:56:40.000Z</time>
      </trkpt>
      <trkpt lat="37.0369839482009410858154296875" lon="-4.91429147310554981231689453125">
        <ele>562.79998779296875</ele>
        <time>2019-11-01T11:56:46.000Z</time>
      </trkpt>
      <trkpt lat="37.03684799373149871826171875" lon="-4.914447627961635589599609375">
        <ele>564</ele>
        <time>2019-11-01T11:56:52.000Z</time>
      </trkpt>
      <trkpt lat="37.03670457936823368072509765625" lon="-4.9146050401031970977783203125">
        <ele>565.4000244140625</ele>
        <time>2019-11-01T11:56:58.000Z</time>
      </trkpt>
      <trkpt lat="37.03656024299561977386474609375" lon="-4.9147592671215534210205078125">
        <ele>566.4000244140625</ele>
        <time>2019-11-01T11:57:04.000Z</time>
      </trkpt>
      <trkpt lat="37.03642026521265506744384765625" lon="-4.914930760860443115234375">
        <ele>567</ele>
        <time>2019-11-01T11:57:10.000Z</time>
      </trkpt>
      <trkpt lat="37.0362681336700916290283203125" lon="-4.91510602645576000213623046875">
        <ele>567</ele>
        <time>2019-11-01T11:57:16.000Z</time>
      </trkpt>
      <trkpt lat="37.03612153418362140655517578125" lon="-4.9152765981853008270263671875">
        <ele>567.5999755859375</ele>
        <time>2019-11-01T11:57:22.000Z</time>
      </trkpt>
      <trkpt lat="37.0359818078577518463134765625" lon="-4.9154361896216869354248046875">
        <ele>568.20001220703125</ele>
        <time>2019-11-01T11:57:27.000Z</time>
      </trkpt>
      <trkpt lat="37.03582942485809326171875" lon="-4.91561313159763813018798828125">
        <ele>568.79998779296875</ele>
        <time>2019-11-01T11:57:32.000Z</time>
      </trkpt>
      <trkpt lat="37.03566824086010456085205078125" lon="-4.915786720812320709228515625">
        <ele>568.79998779296875</ele>
        <time>2019-11-01T11:57:37.000Z</time>
      </trkpt>
      <trkpt lat="37.0355134271085262298583984375" lon="-4.915970452129840850830078125">
        <ele>568.4000244140625</ele>
        <time>2019-11-01T11:57:42.000Z</time>
      </trkpt>
      <trkpt lat="37.0353632234036922454833984375" lon="-4.91614915430545806884765625">
        <ele>567.5999755859375</ele>
        <time>2019-11-01T11:57:47.000Z</time>
      </trkpt>
      <trkpt lat="37.03520438633859157562255859375" lon="-4.91632743738591670989990234375">
        <ele>566.4000244140625</ele>
        <time>2019-11-01T11:57:52.000Z</time>
      </trkpt>
      <trkpt lat="37.03504479490220546722412109375" lon="-4.9165030382573604583740234375">
        <ele>566</ele>
        <time>2019-11-01T11:57:57.000Z</time>
      </trkpt>
      <trkpt lat="37.03488922677934169769287109375" lon="-4.9166800640523433685302734375">
        <ele>566.5999755859375</ele>
        <time>2019-11-01T11:58:02.000Z</time>
      </trkpt>
      <trkpt lat="37.0347352512180805206298828125" lon="-4.916858263313770294189453125">
        <ele>567.5999755859375</ele>
        <time>2019-11-01T11:58:07.000Z</time>
      </trkpt>
      <trkpt lat="37.034576833248138427734375" lon="-4.917030595242977142333984375">
        <ele>568.79998779296875</ele>
        <time>2019-11-01T11:58:12.000Z</time>
      </trkpt>
      <trkpt lat="37.0344187505543231964111328125" lon="-4.91721088998019695281982421875">
        <ele>569</ele>
        <time>2019-11-01T11:58:17.000Z</time>
      </trkpt>
      <trkpt lat="37.03427097760140895843505859375" lon="-4.917382635176181793212890625">
        <ele>569</ele>
        <time>2019-11-01T11:58:22.000Z</time>
      </trkpt>
      <trkpt lat="37.0341210253536701202392578125" lon="-4.91755572147667407989501953125">
        <ele>569</ele>
        <time>2019-11-01T11:58:27.000Z</time>
      </trkpt>
      <trkpt lat="37.033973671495914459228515625" lon="-4.9177242815494537353515625">
        <ele>568.79998779296875</ele>
        <time>2019-11-01T11:58:32.000Z</time>
      </trkpt>
      <trkpt lat="37.03382925130426883697509765625" lon="-4.91789619438350200653076171875">
        <ele>568.79998779296875</ele>
        <time>2019-11-01T11:58:37.000Z</time>
      </trkpt>
      <trkpt lat="37.0336761139333248138427734375" lon="-4.9180583842098712921142578125">
        <ele>569</ele>
        <time>2019-11-01T11:58:42.000Z</time>
      </trkpt>
      <trkpt lat="37.03351627103984355926513671875" lon="-4.9182149581611156463623046875">
        <ele>569.20001220703125</ele>
        <time>2019-11-01T11:58:47.000Z</time>
      </trkpt>
      <trkpt lat="37.03335014171898365020751953125" lon="-4.91836960427463054656982421875">
        <ele>569.79998779296875</ele>
        <time>2019-11-01T11:58:52.000Z</time>
      </trkpt>
      <trkpt lat="37.03317579813301563262939453125" lon="-4.9185214005410671234130859375">
        <ele>570.20001220703125</ele>
        <time>2019-11-01T11:58:57.000Z</time>
      </trkpt>
      <trkpt lat="37.03299541957676410675048828125" lon="-4.91866682656109333038330078125">
        <ele>570.79998779296875</ele>
        <time>2019-11-01T11:59:02.000Z</time>
      </trkpt>
      <trkpt lat="37.03281017951667308807373046875" lon="-4.91880361922085285186767578125">
        <ele>571.5999755859375</ele>
        <time>2019-11-01T11:59:07.000Z</time>
      </trkpt>
      <trkpt lat="37.0326119475066661834716796875" lon="-4.91893756203353404998779296875">
        <ele>572.79998779296875</ele>
        <time>2019-11-01T11:59:12.000Z</time>
      </trkpt>
      <trkpt lat="37.03245311044156551361083984375" lon="-4.919045269489288330078125">
        <ele>573.20001220703125</ele>
        <time>2019-11-01T11:59:16.000Z</time>
      </trkpt>
      <trkpt lat="37.03228664584457874298095703125" lon="-4.9191651307046413421630859375">
        <ele>573</ele>
        <time>2019-11-01T11:59:20.000Z</time>
      </trkpt>
      <trkpt lat="37.032121606171131134033203125" lon="-4.9192818067967891693115234375">
        <ele>572.20001220703125</ele>
        <time>2019-11-01T11:59:24.000Z</time>
      </trkpt>
      <trkpt lat="37.0319611765444278717041015625" lon="-4.91939730942249298095703125">
        <ele>571.79998779296875</ele>
        <time>2019-11-01T11:59:28.000Z</time>
      </trkpt>
      <trkpt lat="37.0317685604095458984375" lon="-4.91953636519610881805419921875">
        <ele>571.4000244140625</ele>
        <time>2019-11-01T11:59:33.000Z</time>
      </trkpt>
      <trkpt lat="37.03156831674277782440185546875" lon="-4.91967097856104373931884765625">
        <ele>571.4000244140625</ele>
        <time>2019-11-01T11:59:38.000Z</time>
      </trkpt>
      <trkpt lat="37.0313928835093975067138671875" lon="-4.919798634946346282958984375">
        <ele>571.5999755859375</ele>
        <time>2019-11-01T11:59:42.000Z</time>
      </trkpt>
      <trkpt lat="37.03120923601090908050537109375" lon="-4.91992780007421970367431640625">
        <ele>571</ele>
        <time>2019-11-01T11:59:46.000Z</time>
      </trkpt>
      <trkpt lat="37.031013853847980499267578125" lon="-4.92006526328623294830322265625">
        <ele>570.20001220703125</ele>
        <time>2019-11-01T11:59:50.000Z</time>
      </trkpt>
      <trkpt lat="37.03081394545733928680419921875" lon="-4.92020624689757823944091796875">
        <ele>569.20001220703125</ele>
        <time>2019-11-01T11:59:54.000Z</time>
      </trkpt>
      <trkpt lat="37.0306083373725414276123046875" lon="-4.92034773342311382293701171875">
        <ele>568.79998779296875</ele>
        <time>2019-11-01T11:59:58.000Z</time>
      </trkpt>
      <trkpt lat="37.0304001308977603912353515625" lon="-4.92049592547118663787841796875">
        <ele>569.5999755859375</ele>
        <time>2019-11-01T12:00:02.000Z</time>
      </trkpt>
      <trkpt lat="37.03023341484367847442626953125" lon="-4.92061293683946132659912109375">
        <ele>569.79998779296875</ele>
        <time>2019-11-01T12:00:05.000Z</time>
      </trkpt>
      <trkpt lat="37.03006007708609104156494140625" lon="-4.92073380388319492340087890625">
        <ele>569.5999755859375</ele>
        <time>2019-11-01T12:00:08.000Z</time>
      </trkpt>
      <trkpt lat="37.0298802852630615234375" lon="-4.920856095850467681884765625">
        <ele>568.79998779296875</ele>
        <time>2019-11-01T12:00:11.000Z</time>
      </trkpt>
      <trkpt lat="37.02968942932784557342529296875" lon="-4.92098811082541942596435546875">
        <ele>568.4000244140625</ele>
        <time>2019-11-01T12:00:14.000Z</time>
      </trkpt>
      <trkpt lat="37.02950234524905681610107421875" lon="-4.9211174435913562774658203125">
        <ele>567.4000244140625</ele>
        <time>2019-11-01T12:00:17.000Z</time>
      </trkpt>
      <trkpt lat="37.02931928448379039764404296875" lon="-4.92124292068183422088623046875">
        <ele>566</ele>
        <time>2019-11-01T12:00:20.000Z</time>
      </trkpt>
      <trkpt lat="37.02913220040500164031982421875" lon="-4.9213772825896739959716796875">
        <ele>565.4000244140625</ele>
        <time>2019-11-01T12:00:23.000Z</time>
      </trkpt>
      <trkpt lat="37.0289386622607707977294921875" lon="-4.92152052931487560272216796875">
        <ele>564.79998779296875</ele>
        <time>2019-11-01T12:00:26.000Z</time>
      </trkpt>
      <trkpt lat="37.02875199727714061737060546875" lon="-4.92165849544107913970947265625">
        <ele>564.5999755859375</ele>
        <time>2019-11-01T12:00:29.000Z</time>
      </trkpt>
      <trkpt lat="37.028565667569637298583984375" lon="-4.921791851520538330078125">
        <ele>563.5999755859375</ele>
        <time>2019-11-01T12:00:32.000Z</time>
      </trkpt>
      <trkpt lat="37.02838939614593982696533203125" lon="-4.921922273933887481689453125">
        <ele>562.79998779296875</ele>
        <time>2019-11-01T12:00:35.000Z</time>
      </trkpt>
      <trkpt lat="37.02822024933993816375732421875" lon="-4.92205227725207805633544921875">
        <ele>562</ele>
        <time>2019-11-01T12:00:38.000Z</time>
      </trkpt>
      <trkpt lat="37.0280604064464569091796875" lon="-4.92218538187444210052490234375">
        <ele>562</ele>
        <time>2019-11-01T12:00:41.000Z</time>
      </trkpt>
      <trkpt lat="37.02791363932192325592041015625" lon="-4.92233156226575374603271484375">
        <ele>562</ele>
        <time>2019-11-01T12:00:44.000Z</time>
      </trkpt>
      <trkpt lat="37.027779109776020050048828125" lon="-4.9224826879799365997314453125">
        <ele>562</ele>
        <time>2019-11-01T12:00:47.000Z</time>
      </trkpt>
      <trkpt lat="37.02763100154697895050048828125" lon="-4.9226912297308444976806640625">
        <ele>562.20001220703125</ele>
        <time>2019-11-01T12:00:51.000Z</time>
      </trkpt>
      <trkpt lat="37.027509212493896484375" lon="-4.92291930131614208221435546875">
        <ele>562</ele>
        <time>2019-11-01T12:00:55.000Z</time>
      </trkpt>
      <trkpt lat="37.0273994095623493194580078125" lon="-4.923161454498767852783203125">
        <ele>562.20001220703125</ele>
        <time>2019-11-01T12:00:59.000Z</time>
      </trkpt>
      <trkpt lat="37.02731634490191936492919921875" lon="-4.92341182194650173187255859375">
        <ele>561.79998779296875</ele>
        <time>2019-11-01T12:01:03.000Z</time>
      </trkpt>
      <trkpt lat="37.02724643982946872711181640625" lon="-4.92369286715984344482421875">
        <ele>560.5999755859375</ele>
        <time>2019-11-01T12:01:07.000Z</time>
      </trkpt>
      <trkpt lat="37.027188353240489959716796875" lon="-4.92397827096283435821533203125">
        <ele>560.5999755859375</ele>
        <time>2019-11-01T12:01:11.000Z</time>
      </trkpt>
      <trkpt lat="37.02713345177471637725830078125" lon="-4.92425839416682720184326171875">
        <ele>560.4000244140625</ele>
        <time>2019-11-01T12:01:15.000Z</time>
      </trkpt>
      <trkpt lat="37.02707192860543727874755859375" lon="-4.92453751154243946075439453125">
        <ele>559.79998779296875</ele>
        <time>2019-11-01T12:01:19.000Z</time>
      </trkpt>
      <trkpt lat="37.02701325528323650360107421875" lon="-4.92482786066830158233642578125">
        <ele>559.4000244140625</ele>
        <time>2019-11-01T12:01:23.000Z</time>
      </trkpt>
      <trkpt lat="37.02696715481579303741455078125" lon="-4.92504998110234737396240234375">
        <ele>558.79998779296875</ele>
        <time>2019-11-01T12:01:26.000Z</time>
      </trkpt>
      <trkpt lat="37.02692708931863307952880859375" lon="-4.92527830414474010467529296875">
        <ele>557.79998779296875</ele>
        <time>2019-11-01T12:01:29.000Z</time>
      </trkpt>
      <trkpt lat="37.02687948010861873626708984375" lon="-4.92551148869097232818603515625">
        <ele>557</ele>
        <time>2019-11-01T12:01:32.000Z</time>
      </trkpt>
      <trkpt lat="37.0268291048705577850341796875" lon="-4.9257486127316951751708984375">
        <ele>555.79998779296875</ele>
        <time>2019-11-01T12:01:35.000Z</time>
      </trkpt>
      <trkpt lat="37.02678241766989231109619140625" lon="-4.9259854853153228759765625">
        <ele>554.79998779296875</ele>
        <time>2019-11-01T12:01:38.000Z</time>
      </trkpt>
      <trkpt lat="37.026734054088592529296875" lon="-4.92621548473834991455078125">
        <ele>553.79998779296875</ele>
        <time>2019-11-01T12:01:41.000Z</time>
      </trkpt>
      <trkpt lat="37.026688791811466217041015625" lon="-4.9264409579336643218994140625">
        <ele>553.20001220703125</ele>
        <time>2019-11-01T12:01:44.000Z</time>
      </trkpt>
      <trkpt lat="37.02664218842983245849609375" lon="-4.9266615696251392364501953125">
        <ele>552.4000244140625</ele>
        <time>2019-11-01T12:01:47.000Z</time>
      </trkpt>
      <trkpt lat="37.02659952454268932342529296875" lon="-4.92688209749758243560791015625">
        <ele>551.79998779296875</ele>
        <time>2019-11-01T12:01:50.000Z</time>
      </trkpt>
      <trkpt lat="37.02655501663684844970703125" lon="-4.927106313407421112060546875">
        <ele>551.20001220703125</ele>
        <time>2019-11-01T12:01:53.000Z</time>
      </trkpt>
      <trkpt lat="37.02651034109294414520263671875" lon="-4.92732868529856204986572265625">
        <ele>551</ele>
        <time>2019-11-01T12:01:56.000Z</time>
      </trkpt>
      <trkpt lat="37.02646038495004177093505859375" lon="-4.92754879407584667205810546875">
        <ele>550.79998779296875</ele>
        <time>2019-11-01T12:01:59.000Z</time>
      </trkpt>
      <trkpt lat="37.02641914598643779754638671875" lon="-4.927767813205718994140625">
        <ele>550.4000244140625</ele>
        <time>2019-11-01T12:02:02.000Z</time>
      </trkpt>
      <trkpt lat="37.026364915072917938232421875" lon="-4.92805606685578823089599609375">
        <ele>550.5999755859375</ele>
        <time>2019-11-01T12:02:06.000Z</time>
      </trkpt>
      <trkpt lat="37.0263223350048065185546875" lon="-4.9282782711088657379150390625">
        <ele>550.79998779296875</ele>
        <time>2019-11-01T12:02:09.000Z</time>
      </trkpt>
      <trkpt lat="37.0262688584625720977783203125" lon="-4.92856937460601329803466796875">
        <ele>551</ele>
        <time>2019-11-01T12:02:13.000Z</time>
      </trkpt>
      <trkpt lat="37.0262111909687519073486328125" lon="-4.92885787971317768096923828125">
        <ele>550.5999755859375</ele>
        <time>2019-11-01T12:02:17.000Z</time>
      </trkpt>
      <trkpt lat="37.02616349793970584869384765625" lon="-4.9290779046714305877685546875">
        <ele>550</ele>
        <time>2019-11-01T12:02:20.000Z</time>
      </trkpt>
      <trkpt lat="37.026116810739040374755859375" lon="-4.92929792962968349456787109375">
        <ele>550</ele>
        <time>2019-11-01T12:02:23.000Z</time>
      </trkpt>
      <trkpt lat="37.0260730572044849395751953125" lon="-4.92951686494052410125732421875">
        <ele>550</ele>
        <time>2019-11-01T12:02:26.000Z</time>
      </trkpt>
      <trkpt lat="37.0260264538228511810302734375" lon="-4.929736554622650146484375">
        <ele>550.5999755859375</ele>
        <time>2019-11-01T12:02:29.000Z</time>
      </trkpt>
      <trkpt lat="37.025978676974773406982421875" lon="-4.92996328510344028472900390625">
        <ele>550.5999755859375</ele>
        <time>2019-11-01T12:02:32.000Z</time>
      </trkpt>
      <trkpt lat="37.0259325765073299407958984375" lon="-4.9301947094500064849853515625">
        <ele>549.4000244140625</ele>
        <time>2019-11-01T12:02:35.000Z</time>
      </trkpt>
      <trkpt lat="37.02588203363120555877685546875" lon="-4.93042529560625553131103515625">
        <ele>548.79998779296875</ele>
        <time>2019-11-01T12:02:38.000Z</time>
      </trkpt>
      <trkpt lat="37.02583484351634979248046875" lon="-4.930654875934123992919921875">
        <ele>547.20001220703125</ele>
        <time>2019-11-01T12:02:41.000Z</time>
      </trkpt>
      <trkpt lat="37.0257870666682720184326171875" lon="-4.93088076822459697723388671875">
        <ele>546.5999755859375</ele>
        <time>2019-11-01T12:02:44.000Z</time>
      </trkpt>
      <trkpt lat="37.0257401280105113983154296875" lon="-4.9311019666492938995361328125">
        <ele>546.5999755859375</ele>
        <time>2019-11-01T12:02:47.000Z</time>
      </trkpt>
      <trkpt lat="37.0256948657333850860595703125" lon="-4.93132266215980052947998046875">
        <ele>547</ele>
        <time>2019-11-01T12:02:50.000Z</time>
      </trkpt>
      <trkpt lat="37.02564834617078304290771484375" lon="-4.93154327385127544403076171875">
        <ele>546.4000244140625</ele>
        <time>2019-11-01T12:02:53.000Z</time>
      </trkpt>
      <trkpt lat="37.02559989877045154571533203125" lon="-4.931766986846923828125">
        <ele>546.4000244140625</ele>
        <time>2019-11-01T12:02:56.000Z</time>
      </trkpt>
      <trkpt lat="37.025556899607181549072265625" lon="-4.93198634125292301177978515625">
        <ele>545.79998779296875</ele>
        <time>2019-11-01T12:02:59.000Z</time>
      </trkpt>
      <trkpt lat="37.025509960949420928955078125" lon="-4.93220351636409759521484375">
        <ele>544.4000244140625</ele>
        <time>2019-11-01T12:03:02.000Z</time>
      </trkpt>
      <trkpt lat="37.0254491083323955535888671875" lon="-4.932490177452564239501953125">
        <ele>543.20001220703125</ele>
        <time>2019-11-01T12:03:06.000Z</time>
      </trkpt>
      <trkpt lat="37.02537761069834232330322265625" lon="-4.9327699653804302215576171875">
        <ele>542.5999755859375</ele>
        <time>2019-11-01T12:03:10.000Z</time>
      </trkpt>
      <trkpt lat="37.0253163389861583709716796875" lon="-4.932982362806797027587890625">
        <ele>542.20001220703125</ele>
        <time>2019-11-01T12:03:13.000Z</time>
      </trkpt>
      <trkpt lat="37.02522656880319118499755859375" lon="-4.9332571215927600860595703125">
        <ele>541.5999755859375</ele>
        <time>2019-11-01T12:03:17.000Z</time>
      </trkpt>
      <trkpt lat="37.02513017691671848297119140625" lon="-4.93352693505585193634033203125">
        <ele>540.5999755859375</ele>
        <time>2019-11-01T12:03:21.000Z</time>
      </trkpt>
      <trkpt lat="37.0250295102596282958984375" lon="-4.933794401586055755615234375">
        <ele>538.79998779296875</ele>
        <time>2019-11-01T12:03:25.000Z</time>
      </trkpt>
      <trkpt lat="37.02493085525929927825927734375" lon="-4.934055246412754058837890625">
        <ele>537.5999755859375</ele>
        <time>2019-11-01T12:03:29.000Z</time>
      </trkpt>
      <trkpt lat="37.0248305238783359527587890625" lon="-4.93431785143911838531494140625">
        <ele>536.79998779296875</ele>
        <time>2019-11-01T12:03:33.000Z</time>
      </trkpt>
      <trkpt lat="37.02473036013543605804443359375" lon="-4.934573583304882049560546875">
        <ele>536.5999755859375</ele>
        <time>2019-11-01T12:03:37.000Z</time>
      </trkpt>
      <trkpt lat="37.02463245950639247894287109375" lon="-4.9348208494484424591064453125">
        <ele>536.20001220703125</ele>
        <time>2019-11-01T12:03:41.000Z</time>
      </trkpt>
      <trkpt lat="37.02454143203794956207275390625" lon="-4.9350662715733051300048828125">
        <ele>536.5999755859375</ele>
        <time>2019-11-01T12:03:45.000Z</time>
      </trkpt>
      <trkpt lat="37.024445123970508575439453125" lon="-4.9353227578103542327880859375">
        <ele>536.4000244140625</ele>
        <time>2019-11-01T12:03:49.000Z</time>
      </trkpt>
      <trkpt lat="37.02435233630239963531494140625" lon="-4.9355745501816272735595703125">
        <ele>535.5999755859375</ele>
        <time>2019-11-01T12:03:53.000Z</time>
      </trkpt>
      <trkpt lat="37.024255357682704925537109375" lon="-4.935831539332866668701171875">
        <ele>534.20001220703125</ele>
        <time>2019-11-01T12:03:57.000Z</time>
      </trkpt>
      <trkpt lat="37.0241539366543292999267578125" lon="-4.93608693592250347137451171875">
        <ele>533.4000244140625</ele>
        <time>2019-11-01T12:04:01.000Z</time>
      </trkpt>
      <trkpt lat="37.0240479893982410430908203125" lon="-4.9363517202436923980712890625">
        <ele>533</ele>
        <time>2019-11-01T12:04:05.000Z</time>
      </trkpt>
      <trkpt lat="37.0239759050309658050537109375" lon="-4.93655883707106113433837890625">
        <ele>533.20001220703125</ele>
        <time>2019-11-01T12:04:08.000Z</time>
      </trkpt>
      <trkpt lat="37.0238813571631908416748046875" lon="-4.9368288181722164154052734375">
        <ele>534.5999755859375</ele>
        <time>2019-11-01T12:04:12.000Z</time>
      </trkpt>
      <trkpt lat="37.02378387562930583953857421875" lon="-4.93709578178822994232177734375">
        <ele>535.20001220703125</ele>
        <time>2019-11-01T12:04:16.000Z</time>
      </trkpt>
      <trkpt lat="37.0236828736960887908935546875" lon="-4.9373585544526576995849609375">
        <ele>535.20001220703125</ele>
        <time>2019-11-01T12:04:20.000Z</time>
      </trkpt>
      <trkpt lat="37.023582123219966888427734375" lon="-4.93761889636516571044921875">
        <ele>533.79998779296875</ele>
        <time>2019-11-01T12:04:24.000Z</time>
      </trkpt>
      <trkpt lat="37.023488581180572509765625" lon="-4.93789114058017730712890625">
        <ele>533</ele>
        <time>2019-11-01T12:04:28.000Z</time>
      </trkpt>
      <trkpt lat="37.0233858190476894378662109375" lon="-4.93815667927265167236328125">
        <ele>532.5999755859375</ele>
        <time>2019-11-01T12:04:32.000Z</time>
      </trkpt>
      <trkpt lat="37.02328431420028209686279296875" lon="-4.93842062540352344512939453125">
        <ele>532.4000244140625</ele>
        <time>2019-11-01T12:04:36.000Z</time>
      </trkpt>
      <trkpt lat="37.02318758703768253326416015625" lon="-4.93868029676377773284912109375">
        <ele>531.79998779296875</ele>
        <time>2019-11-01T12:04:40.000Z</time>
      </trkpt>
      <trkpt lat="37.02309069223701953887939453125" lon="-4.9389400519430637359619140625">
        <ele>529.79998779296875</ele>
        <time>2019-11-01T12:04:44.000Z</time>
      </trkpt>
      <trkpt lat="37.022996060550212860107421875" lon="-4.93919335305690765380859375">
        <ele>527.20001220703125</ele>
        <time>2019-11-01T12:04:48.000Z</time>
      </trkpt>
      <trkpt lat="37.02289941720664501190185546875" lon="-4.9394597299396991729736328125">
        <ele>525.20001220703125</ele>
        <time>2019-11-01T12:04:52.000Z</time>
      </trkpt>
      <trkpt lat="37.0228034444153308868408203125" lon="-4.93973222561180591583251953125">
        <ele>524.4000244140625</ele>
        <time>2019-11-01T12:04:56.000Z</time>
      </trkpt>
      <trkpt lat="37.02270227484405040740966796875" lon="-4.94000178761780261993408203125">
        <ele>525.20001220703125</ele>
        <time>2019-11-01T12:05:00.000Z</time>
      </trkpt>
      <trkpt lat="37.0226052962243556976318359375" lon="-4.940273277461528778076171875">
        <ele>526.79998779296875</ele>
        <time>2019-11-01T12:05:04.000Z</time>
      </trkpt>
      <trkpt lat="37.0225127600133419036865234375" lon="-4.94052599184215068817138671875">
        <ele>527.4000244140625</ele>
        <time>2019-11-01T12:05:08.000Z</time>
      </trkpt>
      <trkpt lat="37.02242550440132617950439453125" lon="-4.94076018221676349639892578125">
        <ele>527.4000244140625</ele>
        <time>2019-11-01T12:05:12.000Z</time>
      </trkpt>
      <trkpt lat="37.02238443307578563690185546875" lon="-4.940867722034454345703125">
        <ele>527.20001220703125</ele>
        <time>2019-11-01T12:05:14.000Z</time>
      </trkpt>
      <trkpt lat="37.02230480499565601348876953125" lon="-4.9410774372518062591552734375">
        <ele>526.5999755859375</ele>
        <time>2019-11-01T12:05:18.000Z</time>
      </trkpt>
      <trkpt lat="37.022220902144908905029296875" lon="-4.94129478000104427337646484375">
        <ele>526</ele>
        <time>2019-11-01T12:05:22.000Z</time>
      </trkpt>
      <trkpt lat="37.0221273601055145263671875" lon="-4.94152964092791080474853515625">
        <ele>526</ele>
        <time>2019-11-01T12:05:26.000Z</time>
      </trkpt>
      <trkpt lat="37.02202853746712207794189453125" lon="-4.94178235530853271484375">
        <ele>525.20001220703125</ele>
        <time>2019-11-01T12:05:30.000Z</time>
      </trkpt>
      <trkpt lat="37.02192686498165130615234375" lon="-4.9420460499823093414306640625">
        <ele>525.5999755859375</ele>
        <time>2019-11-01T12:05:34.000Z</time>
      </trkpt>
      <trkpt lat="37.02184782363474369049072265625" lon="-4.94224947877228260040283203125">
        <ele>525.79998779296875</ele>
        <time>2019-11-01T12:05:37.000Z</time>
      </trkpt>
      <trkpt lat="37.02177037484943866729736328125" lon="-4.94245835579931735992431640625">
        <ele>526.20001220703125</ele>
        <time>2019-11-01T12:05:40.000Z</time>
      </trkpt>
      <trkpt lat="37.02168948948383331298828125" lon="-4.9426646344363689422607421875">
        <ele>526.4000244140625</ele>
        <time>2019-11-01T12:05:43.000Z</time>
      </trkpt>
      <trkpt lat="37.0215850509703159332275390625" lon="-4.94292958639562129974365234375">
        <ele>527.5999755859375</ele>
        <time>2019-11-01T12:05:47.000Z</time>
      </trkpt>
      <trkpt lat="37.0214827917516231536865234375" lon="-4.94318473152816295623779296875">
        <ele>528.20001220703125</ele>
        <time>2019-11-01T12:05:51.000Z</time>
      </trkpt>
      <trkpt lat="37.02138832770287990570068359375" lon="-4.9434347636997699737548828125">
        <ele>527.79998779296875</ele>
        <time>2019-11-01T12:05:55.000Z</time>
      </trkpt>
      <trkpt lat="37.0212940312922000885009765625" lon="-4.94369007647037506103515625">
        <ele>527.4000244140625</ele>
        <time>2019-11-01T12:05:59.000Z</time>
      </trkpt>
      <trkpt lat="37.0211917720735073089599609375" lon="-4.94395695626735687255859375">
        <ele>527.4000244140625</ele>
        <time>2019-11-01T12:06:03.000Z</time>
      </trkpt>
      <trkpt lat="37.0211133174598217010498046875" lon="-4.944165162742137908935546875">
        <ele>527</ele>
        <time>2019-11-01T12:06:06.000Z</time>
      </trkpt>
      <trkpt lat="37.0210303366184234619140625" lon="-4.9443782307207584381103515625">
        <ele>526.20001220703125</ele>
        <time>2019-11-01T12:06:09.000Z</time>
      </trkpt>
      <trkpt lat="37.02095414511859416961669921875" lon="-4.9446018598973751068115234375">
        <ele>524.5999755859375</ele>
        <time>2019-11-01T12:06:12.000Z</time>
      </trkpt>
      <trkpt lat="37.02087501995265483856201171875" lon="-4.94483646936714649200439453125">
        <ele>522.5999755859375</ele>
        <time>2019-11-01T12:06:15.000Z</time>
      </trkpt>
      <trkpt lat="37.02078181318938732147216796875" lon="-4.94507200084626674652099609375">
        <ele>521.20001220703125</ele>
        <time>2019-11-01T12:06:18.000Z</time>
      </trkpt>
      <trkpt lat="37.02069212682545185089111328125" lon="-4.94531692005693912506103515625">
        <ele>520</ele>
        <time>2019-11-01T12:06:21.000Z</time>
      </trkpt>
      <trkpt lat="37.02060093171894550323486328125" lon="-4.94556485675275325775146484375">
        <ele>518.79998779296875</ele>
        <time>2019-11-01T12:06:24.000Z</time>
      </trkpt>
      <trkpt lat="37.02051241882145404815673828125" lon="-4.94581061415374279022216796875">
        <ele>518.5999755859375</ele>
        <time>2019-11-01T12:06:27.000Z</time>
      </trkpt>
      <trkpt lat="37.02042080461978912353515625" lon="-4.946053437888622283935546875">
        <ele>519</ele>
        <time>2019-11-01T12:06:30.000Z</time>
      </trkpt>
      <trkpt lat="37.02032692730426788330078125" lon="-4.94629173539578914642333984375">
        <ele>519.79998779296875</ele>
        <time>2019-11-01T12:06:33.000Z</time>
      </trkpt>
      <trkpt lat="37.02023833058774471282958984375" lon="-4.9465260095894336700439453125">
        <ele>520.79998779296875</ele>
        <time>2019-11-01T12:06:36.000Z</time>
      </trkpt>
      <trkpt lat="37.0201487280428409576416015625" lon="-4.94676061905920505523681640625">
        <ele>520.79998779296875</ele>
        <time>2019-11-01T12:06:39.000Z</time>
      </trkpt>
      <trkpt lat="37.02006247825920581817626953125" lon="-4.946992211043834686279296875">
        <ele>519.5999755859375</ele>
        <time>2019-11-01T12:06:42.000Z</time>
      </trkpt>
      <trkpt lat="37.0199737139046192169189453125" lon="-4.9472139962017536163330078125">
        <ele>517.4000244140625</ele>
        <time>2019-11-01T12:06:45.000Z</time>
      </trkpt>
      <trkpt lat="37.01988972723484039306640625" lon="-4.9474393017590045928955078125">
        <ele>515.4000244140625</ele>
        <time>2019-11-01T12:06:48.000Z</time>
      </trkpt>
      <trkpt lat="37.01980716548860073089599609375" lon="-4.9476682953536510467529296875">
        <ele>514.20001220703125</ele>
        <time>2019-11-01T12:06:51.000Z</time>
      </trkpt>
      <trkpt lat="37.01972049660980701446533203125" lon="-4.94789485819637775421142578125">
        <ele>512.79998779296875</ele>
        <time>2019-11-01T12:06:54.000Z</time>
      </trkpt>
      <trkpt lat="37.01963231898844242095947265625" lon="-4.94812267832458019256591796875">
        <ele>512.4000244140625</ele>
        <time>2019-11-01T12:06:57.000Z</time>
      </trkpt>
      <trkpt lat="37.0195398665964603424072265625" lon="-4.9483522586524486541748046875">
        <ele>512</ele>
        <time>2019-11-01T12:07:00.000Z</time>
      </trkpt>
      <trkpt lat="37.01944858767092227935791015625" lon="-4.9485913105309009552001953125">
        <ele>512.4000244140625</ele>
        <time>2019-11-01T12:07:03.000Z</time>
      </trkpt>
      <trkpt lat="37.01935973949730396270751953125" lon="-4.94883589446544647216796875">
        <ele>513.4000244140625</ele>
        <time>2019-11-01T12:07:06.000Z</time>
      </trkpt>
      <trkpt lat="37.0192709751427173614501953125" lon="-4.9490878544747829437255859375">
        <ele>514</ele>
        <time>2019-11-01T12:07:09.000Z</time>
      </trkpt>
      <trkpt lat="37.01918874867260456085205078125" lon="-4.9493473581969738006591796875">
        <ele>515.4000244140625</ele>
        <time>2019-11-01T12:07:12.000Z</time>
      </trkpt>
      <trkpt lat="37.01910878531634807586669921875" lon="-4.94961775839328765869140625">
        <ele>516.5999755859375</ele>
        <time>2019-11-01T12:07:15.000Z</time>
      </trkpt>
      <trkpt lat="37.019033767282962799072265625" lon="-4.94989427737891674041748046875">
        <ele>516</ele>
        <time>2019-11-01T12:07:18.000Z</time>
      </trkpt>
      <trkpt lat="37.01896763406693935394287109375" lon="-4.9501811899244785308837890625">
        <ele>513.79998779296875</ele>
        <time>2019-11-01T12:07:21.000Z</time>
      </trkpt>
      <trkpt lat="37.01890879310667514801025390625" lon="-4.95047740638256072998046875">
        <ele>508.79998779296875</ele>
        <time>2019-11-01T12:07:24.000Z</time>
      </trkpt>
      <trkpt lat="37.01886378228664398193359375" lon="-4.95077622123062610626220703125">
        <ele>505.600006103515625</ele>
        <time>2019-11-01T12:07:27.000Z</time>
      </trkpt>
      <trkpt lat="37.0188280753791332244873046875" lon="-4.95108216069638729095458984375">
        <ele>503.600006103515625</ele>
        <time>2019-11-01T12:07:30.000Z</time>
      </trkpt>
      <trkpt lat="37.0187885127961635589599609375" lon="-4.951392710208892822265625">
        <ele>502</ele>
        <time>2019-11-01T12:07:33.000Z</time>
      </trkpt>
      <trkpt lat="37.0187533088028430938720703125" lon="-4.951709546148777008056640625">
        <ele>500.20001220703125</ele>
        <time>2019-11-01T12:07:36.000Z</time>
      </trkpt>
      <trkpt lat="37.0187164284288883209228515625" lon="-4.95202411897480487823486328125">
        <ele>499.79998779296875</ele>
        <time>2019-11-01T12:07:39.000Z</time>
      </trkpt>
      <trkpt lat="37.01868499629199504852294921875" lon="-4.9523381888866424560546875">
        <ele>499.399993896484375</ele>
        <time>2019-11-01T12:07:42.000Z</time>
      </trkpt>
      <trkpt lat="37.01864493079483509063720703125" lon="-4.95264655910432338714599609375">
        <ele>498.20001220703125</ele>
        <time>2019-11-01T12:07:45.000Z</time>
      </trkpt>
      <trkpt lat="37.01859111897647380828857421875" lon="-4.95294981636106967926025390625">
        <ele>497.20001220703125</ele>
        <time>2019-11-01T12:07:48.000Z</time>
      </trkpt>
      <trkpt lat="37.018534205853939056396484375" lon="-4.95324955321848392486572265625">
        <ele>496</ele>
        <time>2019-11-01T12:07:51.000Z</time>
      </trkpt>
      <trkpt lat="37.01847226358950138092041015625" lon="-4.9535470269620418548583984375">
        <ele>494.600006103515625</ele>
        <time>2019-11-01T12:07:54.000Z</time>
      </trkpt>
      <trkpt lat="37.018390037119388580322265625" lon="-4.95382991619408130645751953125">
        <ele>493.600006103515625</ele>
        <time>2019-11-01T12:07:57.000Z</time>
      </trkpt>
      <trkpt lat="37.0182983390986919403076171875" lon="-4.95409998111426830291748046875">
        <ele>493.600006103515625</ele>
        <time>2019-11-01T12:08:00.000Z</time>
      </trkpt>
      <trkpt lat="37.01820605434477329254150390625" lon="-4.95435479097068309783935546875">
        <ele>493.79998779296875</ele>
        <time>2019-11-01T12:08:03.000Z</time>
      </trkpt>
      <trkpt lat="37.01810798607766628265380859375" lon="-4.95459350757300853729248046875">
        <ele>492.600006103515625</ele>
        <time>2019-11-01T12:08:06.000Z</time>
      </trkpt>
      <trkpt lat="37.01800958253443241119384765625" lon="-4.95481026358902454376220703125">
        <ele>492.399993896484375</ele>
        <time>2019-11-01T12:08:09.000Z</time>
      </trkpt>
      <trkpt lat="37.0179189741611480712890625" lon="-4.955009333789348602294921875">
        <ele>492.600006103515625</ele>
        <time>2019-11-01T12:08:12.000Z</time>
      </trkpt>
      <trkpt lat="37.017798610031604766845703125" lon="-4.95526053942739963531494140625">
        <ele>493.399993896484375</ele>
        <time>2019-11-01T12:08:16.000Z</time>
      </trkpt>
      <trkpt lat="37.017671875655651092529296875" lon="-4.95550093241035938262939453125">
        <ele>493.79998779296875</ele>
        <time>2019-11-01T12:08:20.000Z</time>
      </trkpt>
      <trkpt lat="37.017540447413921356201171875" lon="-4.95574249885976314544677734375">
        <ele>493.600006103515625</ele>
        <time>2019-11-01T12:08:24.000Z</time>
      </trkpt>
      <trkpt lat="37.01741245575249195098876953125" lon="-4.9559818021953105926513671875">
        <ele>493.399993896484375</ele>
        <time>2019-11-01T12:08:28.000Z</time>
      </trkpt>
      <trkpt lat="37.0172898285090923309326171875" lon="-4.95622529648244380950927734375">
        <ele>493.399993896484375</ele>
        <time>2019-11-01T12:08:32.000Z</time>
      </trkpt>
      <trkpt lat="37.01717508025467395782470703125" lon="-4.95647289790213108062744140625">
        <ele>493.399993896484375</ele>
        <time>2019-11-01T12:08:36.000Z</time>
      </trkpt>
      <trkpt lat="37.0170655287802219390869140625" lon="-4.95672821067273616790771484375">
        <ele>493</ele>
        <time>2019-11-01T12:08:40.000Z</time>
      </trkpt>
      <trkpt lat="37.01696737669408321380615234375" lon="-4.956984780728816986083984375">
        <ele>493.20001220703125</ele>
        <time>2019-11-01T12:08:44.000Z</time>
      </trkpt>
      <trkpt lat="37.016884647309780120849609375" lon="-4.95725124143064022064208984375">
        <ele>494</ele>
        <time>2019-11-01T12:08:48.000Z</time>
      </trkpt>
      <trkpt lat="37.01681180857121944427490234375" lon="-4.9575177021324634552001953125">
        <ele>495.79998779296875</ele>
        <time>2019-11-01T12:08:52.000Z</time>
      </trkpt>
      <trkpt lat="37.016755230724811553955078125" lon="-4.95778550393879413604736328125">
        <ele>497.600006103515625</ele>
        <time>2019-11-01T12:08:56.000Z</time>
      </trkpt>
      <trkpt lat="37.016712985932826995849609375" lon="-4.95805992744863033294677734375">
        <ele>498.20001220703125</ele>
        <time>2019-11-01T12:09:00.000Z</time>
      </trkpt>
      <trkpt lat="37.01667836867272853851318359375" lon="-4.9583397991955280303955078125">
        <ele>498.20001220703125</ele>
        <time>2019-11-01T12:09:04.000Z</time>
      </trkpt>
      <trkpt lat="37.01665573753416538238525390625" lon="-4.95862193405628204345703125">
        <ele>498.20001220703125</ele>
        <time>2019-11-01T12:09:08.000Z</time>
      </trkpt>
      <trkpt lat="37.016645260155200958251953125" lon="-4.95890985243022441864013671875">
        <ele>498.600006103515625</ele>
        <time>2019-11-01T12:09:12.000Z</time>
      </trkpt>
      <trkpt lat="37.016629837453365325927734375" lon="-4.9591967649757862091064453125">
        <ele>499</ele>
        <time>2019-11-01T12:09:16.000Z</time>
      </trkpt>
      <trkpt lat="37.016617096960544586181640625" lon="-4.9594948254525661468505859375">
        <ele>501</ele>
        <time>2019-11-01T12:09:20.000Z</time>
      </trkpt>
      <trkpt lat="37.0166246406733989715576171875" lon="-4.95957403443753719329833984375">
        <ele>501.399993896484375</ele>
        <time>2019-11-01T12:09:21.000Z</time>
      </trkpt>
      <trkpt lat="37.016630508005619049072265625" lon="-4.9598069675266742706298828125">
        <ele>501.79998779296875</ele>
        <time>2019-11-01T12:09:24.000Z</time>
      </trkpt>
      <trkpt lat="37.01663042418658733367919921875" lon="-4.96004945598542690277099609375">
        <ele>501.399993896484375</ele>
        <time>2019-11-01T12:09:27.000Z</time>
      </trkpt>
      <trkpt lat="37.01662145555019378662109375" lon="-4.96030024252831935882568359375">
        <ele>499</ele>
        <time>2019-11-01T12:09:30.000Z</time>
      </trkpt>
      <trkpt lat="37.016614414751529693603515625" lon="-4.96054415591061115264892578125">
        <ele>498</ele>
        <time>2019-11-01T12:09:33.000Z</time>
      </trkpt>
      <trkpt lat="37.01660309918224811553955078125" lon="-4.960785806179046630859375">
        <ele>497</ele>
        <time>2019-11-01T12:09:36.000Z</time>
      </trkpt>
      <trkpt lat="37.01658926904201507568359375" lon="-4.96102578006684780120849609375">
        <ele>496.20001220703125</ele>
        <time>2019-11-01T12:09:39.000Z</time>
      </trkpt>
      <trkpt lat="37.016579546034336090087890625" lon="-4.96126986108720302581787109375">
        <ele>496.20001220703125</ele>
        <time>2019-11-01T12:09:42.000Z</time>
      </trkpt>
      <trkpt lat="37.0165765285491943359375" lon="-4.9615259282290935516357421875">
        <ele>496</ele>
        <time>2019-11-01T12:09:45.000Z</time>
      </trkpt>
      <trkpt lat="37.01657560653984546661376953125" lon="-4.96177562512457370758056640625">
        <ele>494.79998779296875</ele>
        <time>2019-11-01T12:09:48.000Z</time>
      </trkpt>
      <trkpt lat="37.01656571589410305023193359375" lon="-4.96201702393591403961181640625">
        <ele>492</ele>
        <time>2019-11-01T12:09:51.000Z</time>
      </trkpt>
      <trkpt lat="37.0165465213358402252197265625" lon="-4.96224635280668735504150390625">
        <ele>489.79998779296875</ele>
        <time>2019-11-01T12:09:54.000Z</time>
      </trkpt>
      <trkpt lat="37.0165210403501987457275390625" lon="-4.96247031725943088531494140625">
        <ele>488.20001220703125</ele>
        <time>2019-11-01T12:09:57.000Z</time>
      </trkpt>
      <trkpt lat="37.016476951539516448974609375" lon="-4.96269545517861843109130859375">
        <ele>487</ele>
        <time>2019-11-01T12:10:00.000Z</time>
      </trkpt>
      <trkpt lat="37.016427330672740936279296875" lon="-4.9629166536033153533935546875">
        <ele>487</ele>
        <time>2019-11-01T12:10:03.000Z</time>
      </trkpt>
      <trkpt lat="37.0163725130259990692138671875" lon="-4.9631322361528873443603515625">
        <ele>487.600006103515625</ele>
        <time>2019-11-01T12:10:06.000Z</time>
      </trkpt>
      <trkpt lat="37.01630604453384876251220703125" lon="-4.96334203518927097320556640625">
        <ele>487.79998779296875</ele>
        <time>2019-11-01T12:10:09.000Z</time>
      </trkpt>
      <trkpt lat="37.01620814390480518341064453125" lon="-4.9636096693575382232666015625">
        <ele>488.600006103515625</ele>
        <time>2019-11-01T12:10:13.000Z</time>
      </trkpt>
      <trkpt lat="37.0160972513258457183837890625" lon="-4.9638735316693782806396484375">
        <ele>489</ele>
        <time>2019-11-01T12:10:17.000Z</time>
      </trkpt>
      <trkpt lat="37.01597445644438266754150390625" lon="-4.96412892825901508331298828125">
        <ele>489.399993896484375</ele>
        <time>2019-11-01T12:10:21.000Z</time>
      </trkpt>
      <trkpt lat="37.01587303541600704193115234375" lon="-4.96431953273713588714599609375">
        <ele>490</ele>
        <time>2019-11-01T12:10:24.000Z</time>
      </trkpt>
      <trkpt lat="37.0157619751989841461181640625" lon="-4.96449957601726055145263671875">
        <ele>490</ele>
        <time>2019-11-01T12:10:27.000Z</time>
      </trkpt>
      <trkpt lat="37.01564152725040912628173828125" lon="-4.9646714888513088226318359375">
        <ele>489.399993896484375</ele>
        <time>2019-11-01T12:10:30.000Z</time>
      </trkpt>
      <trkpt lat="37.0155157148838043212890625" lon="-4.96483418159186840057373046875">
        <ele>488.399993896484375</ele>
        <time>2019-11-01T12:10:33.000Z</time>
      </trkpt>
      <trkpt lat="37.01539300382137298583984375" lon="-4.9650008976459503173828125">
        <ele>487.79998779296875</ele>
        <time>2019-11-01T12:10:36.000Z</time>
      </trkpt>
      <trkpt lat="37.01526400633156299591064453125" lon="-4.9651784263551235198974609375">
        <ele>487.79998779296875</ele>
        <time>2019-11-01T12:10:39.000Z</time>
      </trkpt>
      <trkpt lat="37.01513844542205333709716796875" lon="-4.9653618223965167999267578125">
        <ele>488.600006103515625</ele>
        <time>2019-11-01T12:10:42.000Z</time>
      </trkpt>
      <trkpt lat="37.01500869356095790863037109375" lon="-4.96554312296211719512939453125">
        <ele>489</ele>
        <time>2019-11-01T12:10:45.000Z</time>
      </trkpt>
      <trkpt lat="37.01488832943141460418701171875" lon="-4.96573649346828460693359375">
        <ele>489.600006103515625</ele>
        <time>2019-11-01T12:10:48.000Z</time>
      </trkpt>
      <trkpt lat="37.014769725501537322998046875" lon="-4.96593506075441837310791015625">
        <ele>489.399993896484375</ele>
        <time>2019-11-01T12:10:51.000Z</time>
      </trkpt>
      <trkpt lat="37.01465749181807041168212890625" lon="-4.96615081094205379486083984375">
        <ele>488.600006103515625</ele>
        <time>2019-11-01T12:10:54.000Z</time>
      </trkpt>
      <trkpt lat="37.01455556787550449371337890625" lon="-4.96637217700481414794921875">
        <ele>487.79998779296875</ele>
        <time>2019-11-01T12:10:57.000Z</time>
      </trkpt>
      <trkpt lat="37.01445917598903179168701171875" lon="-4.9666060321033000946044921875">
        <ele>487</ele>
        <time>2019-11-01T12:11:00.000Z</time>
      </trkpt>
      <trkpt lat="37.01437376439571380615234375" lon="-4.96685187332332134246826171875">
        <ele>486.600006103515625</ele>
        <time>2019-11-01T12:11:03.000Z</time>
      </trkpt>
      <trkpt lat="37.01429606415331363677978515625" lon="-4.96711187995970249176025390625">
        <ele>487</ele>
        <time>2019-11-01T12:11:06.000Z</time>
      </trkpt>
      <trkpt lat="37.01424091123044490814208984375" lon="-4.9673862196505069732666015625">
        <ele>486.20001220703125</ele>
        <time>2019-11-01T12:11:09.000Z</time>
      </trkpt>
      <trkpt lat="37.014197073876857757568359375" lon="-4.967672713100910186767578125">
        <ele>484.399993896484375</ele>
        <time>2019-11-01T12:11:12.000Z</time>
      </trkpt>
      <trkpt lat="37.01417670585215091705322265625" lon="-4.9678626470267772674560546875">
        <ele>482.20001220703125</ele>
        <time>2019-11-01T12:11:14.000Z</time>
      </trkpt>
      <trkpt lat="37.01416329480707645416259765625" lon="-4.968144781887531280517578125">
        <ele>479.79998779296875</ele>
        <time>2019-11-01T12:11:17.000Z</time>
      </trkpt>
      <trkpt lat="37.014165222644805908203125" lon="-4.96842297725379467010498046875">
        <ele>478.79998779296875</ele>
        <time>2019-11-01T12:11:20.000Z</time>
      </trkpt>
      <trkpt lat="37.01417335309088230133056640625" lon="-4.9686874262988567352294921875">
        <ele>478.79998779296875</ele>
        <time>2019-11-01T12:11:23.000Z</time>
      </trkpt>
      <trkpt lat="37.0141880214214324951171875" lon="-4.96894030831754207611083984375">
        <ele>478.600006103515625</ele>
        <time>2019-11-01T12:11:26.000Z</time>
      </trkpt>
      <trkpt lat="37.01420319266617298126220703125" lon="-4.96919126249849796295166015625">
        <ele>478.399993896484375</ele>
        <time>2019-11-01T12:11:29.000Z</time>
      </trkpt>
      <trkpt lat="37.01421710662543773651123046875" lon="-4.96944657526910305023193359375">
        <ele>477.399993896484375</ele>
        <time>2019-11-01T12:11:32.000Z</time>
      </trkpt>
      <trkpt lat="37.0142304338514804840087890625" lon="-4.96970792300999164581298828125">
        <ele>477.20001220703125</ele>
        <time>2019-11-01T12:11:35.000Z</time>
      </trkpt>
      <trkpt lat="37.0142441801726818084716796875" lon="-4.96995653025805950164794921875">
        <ele>477.600006103515625</ele>
        <time>2019-11-01T12:11:38.000Z</time>
      </trkpt>
      <trkpt lat="37.014249376952648162841796875" lon="-4.97018736787140369415283203125">
        <ele>479</ele>
        <time>2019-11-01T12:11:41.000Z</time>
      </trkpt>
      <trkpt lat="37.0142482034862041473388671875" lon="-4.97046866454184055328369140625">
        <ele>480</ele>
        <time>2019-11-01T12:11:45.000Z</time>
      </trkpt>
      <trkpt lat="37.01424342580139636993408203125" lon="-4.97074878774583339691162109375">
        <ele>480.20001220703125</ele>
        <time>2019-11-01T12:11:49.000Z</time>
      </trkpt>
      <trkpt lat="37.01422666199505329132080078125" lon="-4.9710243009030818939208984375">
        <ele>481</ele>
        <time>2019-11-01T12:11:53.000Z</time>
      </trkpt>
      <trkpt lat="37.01420570723712444305419921875" lon="-4.971289671957492828369140625">
        <ele>481</ele>
        <time>2019-11-01T12:11:57.000Z</time>
      </trkpt>
      <trkpt lat="37.01418106444180011749267578125" lon="-4.9715387821197509765625">
        <ele>481</ele>
        <time>2019-11-01T12:12:01.000Z</time>
      </trkpt>
      <trkpt lat="37.01415357179939746856689453125" lon="-4.97177875600755214691162109375">
        <ele>480.399993896484375</ele>
        <time>2019-11-01T12:12:05.000Z</time>
      </trkpt>
      <trkpt lat="37.01412557624280452728271484375" lon="-4.9720080010592937469482421875">
        <ele>481</ele>
        <time>2019-11-01T12:12:09.000Z</time>
      </trkpt>
      <trkpt lat="37.01409389264881610870361328125" lon="-4.97228242456912994384765625">
        <ele>481.79998779296875</ele>
        <time>2019-11-01T12:12:14.000Z</time>
      </trkpt>
      <trkpt lat="37.01406723819673061370849609375" lon="-4.97248300351202487945556640625">
        <ele>482.600006103515625</ele>
        <time>2019-11-01T12:12:18.000Z</time>
      </trkpt>
      <trkpt lat="37.01403622515499591827392578125" lon="-4.9727288447320461273193359375">
        <ele>483.399993896484375</ele>
        <time>2019-11-01T12:12:23.000Z</time>
      </trkpt>
      <trkpt lat="37.0140054635703563690185546875" lon="-4.97297217138111591339111328125">
        <ele>484.20001220703125</ele>
        <time>2019-11-01T12:12:28.000Z</time>
      </trkpt>
      <trkpt lat="37.01397067867219448089599609375" lon="-4.97321725822985172271728515625">
        <ele>485.79998779296875</ele>
        <time>2019-11-01T12:12:33.000Z</time>
      </trkpt>
      <trkpt lat="37.01393262483179569244384765625" lon="-4.973458237946033477783203125">
        <ele>487.79998779296875</ele>
        <time>2019-11-01T12:12:38.000Z</time>
      </trkpt>
      <trkpt lat="37.01389105059206485748291015625" lon="-4.9737046658992767333984375">
        <ele>491</ele>
        <time>2019-11-01T12:12:43.000Z</time>
      </trkpt>
      <trkpt lat="37.01384746469557285308837890625" lon="-4.97395017184317111968994140625">
        <ele>492.600006103515625</ele>
        <time>2019-11-01T12:12:48.000Z</time>
      </trkpt>
      <trkpt lat="37.01381192542612552642822265625" lon="-4.9742064066231250762939453125">
        <ele>493.600006103515625</ele>
        <time>2019-11-01T12:12:53.000Z</time>
      </trkpt>
      <trkpt lat="37.01376850716769695281982421875" lon="-4.97447253204882144927978515625">
        <ele>493.20001220703125</ele>
        <time>2019-11-01T12:12:58.000Z</time>
      </trkpt>
      <trkpt lat="37.013725675642490386962890625" lon="-4.97473941184580326080322265625">
        <ele>492.20001220703125</ele>
        <time>2019-11-01T12:13:03.000Z</time>
      </trkpt>
      <trkpt lat="37.01367647387087345123291015625" lon="-4.9750057049095630645751953125">
        <ele>490.79998779296875</ele>
        <time>2019-11-01T12:13:08.000Z</time>
      </trkpt>
      <trkpt lat="37.013633139431476593017578125" lon="-4.97522749006748199462890625">
        <ele>490.20001220703125</ele>
        <time>2019-11-01T12:13:12.000Z</time>
      </trkpt>
      <trkpt lat="37.01358192600309848785400390625" lon="-4.9754482693970203399658203125">
        <ele>489.399993896484375</ele>
        <time>2019-11-01T12:13:16.000Z</time>
      </trkpt>
      <trkpt lat="37.01352442614734172821044921875" lon="-4.975711293518543243408203125">
        <ele>489</ele>
        <time>2019-11-01T12:13:21.000Z</time>
      </trkpt>
      <trkpt lat="37.01346172951161861419677734375" lon="-4.975961744785308837890625">
        <ele>488</ele>
        <time>2019-11-01T12:13:26.000Z</time>
      </trkpt>
      <trkpt lat="37.01339735649526119232177734375" lon="-4.976219236850738525390625">
        <ele>486.20001220703125</ele>
        <time>2019-11-01T12:13:31.000Z</time>
      </trkpt>
      <trkpt lat="37.01333834789693355560302734375" lon="-4.97643758542835712432861328125">
        <ele>485.399993896484375</ele>
        <time>2019-11-01T12:13:35.000Z</time>
      </trkpt>
      <trkpt lat="37.01327933929860591888427734375" lon="-4.97665819711983203887939453125">
        <ele>484.600006103515625</ele>
        <time>2019-11-01T12:13:39.000Z</time>
      </trkpt>
      <trkpt lat="37.0132185705006122589111328125" lon="-4.97687545605003833770751953125">
        <ele>483.600006103515625</ele>
        <time>2019-11-01T12:13:43.000Z</time>
      </trkpt>
      <trkpt lat="37.0131592266261577606201171875" lon="-4.9770961515605449676513671875">
        <ele>483</ele>
        <time>2019-11-01T12:13:47.000Z</time>
      </trkpt>
      <trkpt lat="37.013089992105960845947265625" lon="-4.97732941992580890655517578125">
        <ele>483.600006103515625</ele>
        <time>2019-11-01T12:13:51.000Z</time>
      </trkpt>
      <trkpt lat="37.01301665045320987701416015625" lon="-4.97755640186369419097900390625">
        <ele>484</ele>
        <time>2019-11-01T12:13:55.000Z</time>
      </trkpt>
      <trkpt lat="37.01293987222015857696533203125" lon="-4.97779168188571929931640625">
        <ele>484.600006103515625</ele>
        <time>2019-11-01T12:13:59.000Z</time>
      </trkpt>
      <trkpt lat="37.0128688775002956390380859375" lon="-4.97802964411675930023193359375">
        <ele>484.600006103515625</ele>
        <time>2019-11-01T12:14:03.000Z</time>
      </trkpt>
      <trkpt lat="37.01279838569462299346923828125" lon="-4.97827179729938507080078125">
        <ele>483.79998779296875</ele>
        <time>2019-11-01T12:14:07.000Z</time>
      </trkpt>
      <trkpt lat="37.012725882232189178466796875" lon="-4.9785304628312587738037109375">
        <ele>483</ele>
        <time>2019-11-01T12:14:11.000Z</time>
      </trkpt>
      <trkpt lat="37.012654133141040802001953125" lon="-4.97878518886864185333251953125">
        <ele>482.20001220703125</ele>
        <time>2019-11-01T12:14:15.000Z</time>
      </trkpt>
      <trkpt lat="37.0125838927924633026123046875" lon="-4.97903027571737766265869140625">
        <ele>482.399993896484375</ele>
        <time>2019-11-01T12:14:19.000Z</time>
      </trkpt>
      <trkpt lat="37.01250636018812656402587890625" lon="-4.9792865104973316192626953125">
        <ele>481.600006103515625</ele>
        <time>2019-11-01T12:14:23.000Z</time>
      </trkpt>
      <trkpt lat="37.01242790557444095611572265625" lon="-4.979554228484630584716796875">
        <ele>480.600006103515625</ele>
        <time>2019-11-01T12:14:27.000Z</time>
      </trkpt>
      <trkpt lat="37.01234777458012104034423828125" lon="-4.979834854602813720703125">
        <ele>480</ele>
        <time>2019-11-01T12:14:31.000Z</time>
      </trkpt>
      <trkpt lat="37.012287341058254241943359375" lon="-4.98004834167659282684326171875">
        <ele>479.79998779296875</ele>
        <time>2019-11-01T12:14:34.000Z</time>
      </trkpt>
      <trkpt lat="37.01222799718379974365234375" lon="-4.98026258312165737152099609375">
        <ele>479.600006103515625</ele>
        <time>2019-11-01T12:14:37.000Z</time>
      </trkpt>
      <trkpt lat="37.01215901412069797515869140625" lon="-4.98054589144885540008544921875">
        <ele>479.20001220703125</ele>
        <time>2019-11-01T12:14:41.000Z</time>
      </trkpt>
      <trkpt lat="37.01208877377212047576904296875" lon="-4.98082450591027736663818359375">
        <ele>479</ele>
        <time>2019-11-01T12:14:45.000Z</time>
      </trkpt>
      <trkpt lat="37.0120320282876491546630859375" lon="-4.981101192533969879150390625">
        <ele>478.399993896484375</ele>
        <time>2019-11-01T12:14:49.000Z</time>
      </trkpt>
      <trkpt lat="37.01197997666895389556884765625" lon="-4.98137787915766239166259765625">
        <ele>477.600006103515625</ele>
        <time>2019-11-01T12:14:53.000Z</time>
      </trkpt>
      <trkpt lat="37.01192901469767093658447265625" lon="-4.9816547334194183349609375">
        <ele>477</ele>
        <time>2019-11-01T12:14:57.000Z</time>
      </trkpt>
      <trkpt lat="37.0118804834783077239990234375" lon="-4.9819258041679859161376953125">
        <ele>476.600006103515625</ele>
        <time>2019-11-01T12:15:01.000Z</time>
      </trkpt>
      <trkpt lat="37.011837065219879150390625" lon="-4.9821936897933483123779296875">
        <ele>476.20001220703125</ele>
        <time>2019-11-01T12:15:05.000Z</time>
      </trkpt>
      <trkpt lat="37.011798508465290069580078125" lon="-4.982459060847759246826171875">
        <ele>476</ele>
        <time>2019-11-01T12:15:09.000Z</time>
      </trkpt>
      <trkpt lat="37.01175936497747898101806640625" lon="-4.98272024095058441162109375">
        <ele>475.79998779296875</ele>
        <time>2019-11-01T12:15:13.000Z</time>
      </trkpt>
      <trkpt lat="37.01173203997313976287841796875" lon="-4.982913024723529815673828125">
        <ele>475.79998779296875</ele>
        <time>2019-11-01T12:15:16.000Z</time>
      </trkpt>
      <trkpt lat="37.0116997696459293365478515625" lon="-4.98317428864538669586181640625">
        <ele>476</ele>
        <time>2019-11-01T12:15:20.000Z</time>
      </trkpt>
      <trkpt lat="37.01166297309100627899169921875" lon="-4.9834234826266765594482421875">
        <ele>476.79998779296875</ele>
        <time>2019-11-01T12:15:24.000Z</time>
      </trkpt>
      <trkpt lat="37.0116300322115421295166015625" lon="-4.98366764746606349945068359375">
        <ele>477</ele>
        <time>2019-11-01T12:15:28.000Z</time>
      </trkpt>
      <trkpt lat="37.0115970075130462646484375" lon="-4.98390669934451580047607421875">
        <ele>477.600006103515625</ele>
        <time>2019-11-01T12:15:32.000Z</time>
      </trkpt>
      <trkpt lat="37.01156423427164554595947265625" lon="-4.9841344356536865234375">
        <ele>477.399993896484375</ele>
        <time>2019-11-01T12:15:36.000Z</time>
      </trkpt>
      <trkpt lat="37.01152861118316650390625" lon="-4.984361417591571807861328125">
        <ele>477</ele>
        <time>2019-11-01T12:15:40.000Z</time>
      </trkpt>
      <trkpt lat="37.0114932395517826080322265625" lon="-4.98458898626267910003662109375">
        <ele>477</ele>
        <time>2019-11-01T12:15:44.000Z</time>
      </trkpt>
      <trkpt lat="37.01145677827298641204833984375" lon="-4.98481513001024723052978515625">
        <ele>477</ele>
        <time>2019-11-01T12:15:48.000Z</time>
      </trkpt>
      <trkpt lat="37.0114167965948581695556640625" lon="-4.9850395135581493377685546875">
        <ele>476.600006103515625</ele>
        <time>2019-11-01T12:15:52.000Z</time>
      </trkpt>
      <trkpt lat="37.011374719440937042236328125" lon="-4.9852678366005420684814453125">
        <ele>476.399993896484375</ele>
        <time>2019-11-01T12:15:56.000Z</time>
      </trkpt>
      <trkpt lat="37.0113314688205718994140625" lon="-4.98549624346196651458740234375">
        <ele>476.600006103515625</ele>
        <time>2019-11-01T12:16:00.000Z</time>
      </trkpt>
      <trkpt lat="37.01128662563860416412353515625" lon="-4.9857264943420886993408203125">
        <ele>477.20001220703125</ele>
        <time>2019-11-01T12:16:04.000Z</time>
      </trkpt>
      <trkpt lat="37.01123666949570178985595703125" lon="-4.98595775105059146881103515625">
        <ele>478</ele>
        <time>2019-11-01T12:16:08.000Z</time>
      </trkpt>
      <trkpt lat="37.01118604280054569244384765625" lon="-4.986186325550079345703125">
        <ele>478</ele>
        <time>2019-11-01T12:16:12.000Z</time>
      </trkpt>
      <trkpt lat="37.01113139279186725616455078125" lon="-4.986420013010501861572265625">
        <ele>478.20001220703125</ele>
        <time>2019-11-01T12:16:16.000Z</time>
      </trkpt>
      <trkpt lat="37.01107339002192020416259765625" lon="-4.98665378428995609283447265625">
        <ele>478.399993896484375</ele>
        <time>2019-11-01T12:16:20.000Z</time>
      </trkpt>
      <trkpt lat="37.01100968755781650543212890625" lon="-4.9868825264275074005126953125">
        <ele>478.20001220703125</ele>
        <time>2019-11-01T12:16:24.000Z</time>
      </trkpt>
      <trkpt lat="37.01095067895948886871337890625" lon="-4.987109005451202392578125">
        <ele>478</ele>
        <time>2019-11-01T12:16:28.000Z</time>
      </trkpt>
      <trkpt lat="37.01088798232376575469970703125" lon="-4.987333975732326507568359375">
        <ele>478</ele>
        <time>2019-11-01T12:16:32.000Z</time>
      </trkpt>
      <trkpt lat="37.01082260347902774810791015625" lon="-4.98755098320543766021728515625">
        <ele>478</ele>
        <time>2019-11-01T12:16:36.000Z</time>
      </trkpt>
      <trkpt lat="37.01075370423495769500732421875" lon="-4.98776036314666271209716796875">
        <ele>478.399993896484375</ele>
        <time>2019-11-01T12:16:40.000Z</time>
      </trkpt>
      <trkpt lat="37.010686397552490234375" lon="-4.98797175474464893341064453125">
        <ele>479</ele>
        <time>2019-11-01T12:16:44.000Z</time>
      </trkpt>
      <trkpt lat="37.0105973817408084869384765625" lon="-4.98822656460106372833251953125">
        <ele>479</ele>
        <time>2019-11-01T12:16:49.000Z</time>
      </trkpt>
      <trkpt lat="37.01050643809139728546142578125" lon="-4.98847651295363903045654296875">
        <ele>479</ele>
        <time>2019-11-01T12:16:54.000Z</time>
      </trkpt>
      <trkpt lat="37.01041222549974918365478515625" lon="-4.98872512020170688629150390625">
        <ele>479</ele>
        <time>2019-11-01T12:16:59.000Z</time>
      </trkpt>
      <trkpt lat="37.01031935401260852813720703125" lon="-4.9889736436307430267333984375">
        <ele>479.79998779296875</ele>
        <time>2019-11-01T12:17:04.000Z</time>
      </trkpt>
      <trkpt lat="37.010218016803264617919921875" lon="-4.9892199039459228515625">
        <ele>480.79998779296875</ele>
        <time>2019-11-01T12:17:09.000Z</time>
      </trkpt>
      <trkpt lat="37.01011651195585727691650390625" lon="-4.9894661642611026763916015625">
        <ele>481</ele>
        <time>2019-11-01T12:17:14.000Z</time>
      </trkpt>
      <trkpt lat="37.01002883724868297576904296875" lon="-4.9896626360714435577392578125">
        <ele>481</ele>
        <time>2019-11-01T12:17:18.000Z</time>
      </trkpt>
      <trkpt lat="37.00994451530277729034423828125" lon="-4.9898654781281948089599609375">
        <ele>481.399993896484375</ele>
        <time>2019-11-01T12:17:22.000Z</time>
      </trkpt>
      <trkpt lat="37.009854577481746673583984375" lon="-4.99006421305239200592041015625">
        <ele>481.79998779296875</ele>
        <time>2019-11-01T12:17:26.000Z</time>
      </trkpt>
      <trkpt lat="37.00976313091814517974853515625" lon="-4.99026621691882610321044921875">
        <ele>482.399993896484375</ele>
        <time>2019-11-01T12:17:30.000Z</time>
      </trkpt>
      <trkpt lat="37.00964125804603099822998046875" lon="-4.9905014969408512115478515625">
        <ele>483.399993896484375</ele>
        <time>2019-11-01T12:17:35.000Z</time>
      </trkpt>
      <trkpt lat="37.00954352505505084991455078125" lon="-4.9906979687511920928955078125">
        <ele>484.20001220703125</ele>
        <time>2019-11-01T12:17:39.000Z</time>
      </trkpt>
      <trkpt lat="37.00943975709378719329833984375" lon="-4.99089485965669155120849609375">
        <ele>484.399993896484375</ele>
        <time>2019-11-01T12:17:43.000Z</time>
      </trkpt>
      <trkpt lat="37.009336240589618682861328125" lon="-4.99109619297087192535400390625">
        <ele>484.399993896484375</ele>
        <time>2019-11-01T12:17:47.000Z</time>
      </trkpt>
      <trkpt lat="37.00923020951449871063232421875" lon="-4.99129819683730602264404296875">
        <ele>484</ele>
        <time>2019-11-01T12:17:51.000Z</time>
      </trkpt>
      <trkpt lat="37.00912526808679103851318359375" lon="-4.991502128541469573974609375">
        <ele>484</ele>
        <time>2019-11-01T12:17:55.000Z</time>
      </trkpt>
      <trkpt lat="37.0090172253549098968505859375" lon="-4.99170589260756969451904296875">
        <ele>484</ele>
        <time>2019-11-01T12:17:59.000Z</time>
      </trkpt>
      <trkpt lat="37.00891471467912197113037109375" lon="-4.991910494863986968994140625">
        <ele>484</ele>
        <time>2019-11-01T12:18:03.000Z</time>
      </trkpt>
      <trkpt lat="37.008813209831714630126953125" lon="-4.99211107380688190460205078125">
        <ele>484.399993896484375</ele>
        <time>2019-11-01T12:18:07.000Z</time>
      </trkpt>
      <trkpt lat="37.00869510881602764129638671875" lon="-4.99233663082122802734375">
        <ele>484.79998779296875</ele>
        <time>2019-11-01T12:18:12.000Z</time>
      </trkpt>
      <trkpt lat="37.00858714990317821502685546875" lon="-4.99254978261888027191162109375">
        <ele>484.399993896484375</ele>
        <time>2019-11-01T12:18:17.000Z</time>
      </trkpt>
      <trkpt lat="37.008490003645420074462890625" lon="-4.99274306930601596832275390625">
        <ele>484</ele>
        <time>2019-11-01T12:18:21.000Z</time>
      </trkpt>
      <trkpt lat="37.00838816352188587188720703125" lon="-4.992944486439228057861328125">
        <ele>484</ele>
        <time>2019-11-01T12:18:25.000Z</time>
      </trkpt>
      <trkpt lat="37.0082786120474338531494140625" lon="-4.99314841814339160919189453125">
        <ele>484.20001220703125</ele>
        <time>2019-11-01T12:18:29.000Z</time>
      </trkpt>
      <trkpt lat="37.00816822238266468048095703125" lon="-4.9933667667210102081298828125">
        <ele>483.79998779296875</ele>
        <time>2019-11-01T12:18:33.000Z</time>
      </trkpt>
      <trkpt lat="37.008050791919231414794921875" lon="-4.99359123408794403076171875">
        <ele>483.399993896484375</ele>
        <time>2019-11-01T12:18:37.000Z</time>
      </trkpt>
      <trkpt lat="37.00793772004544734954833984375" lon="-4.99381645582616329193115234375">
        <ele>483.20001220703125</ele>
        <time>2019-11-01T12:18:41.000Z</time>
      </trkpt>
      <trkpt lat="37.00781987048685550689697265625" lon="-4.99404595233500003814697265625">
        <ele>482.79998779296875</ele>
        <time>2019-11-01T12:18:45.000Z</time>
      </trkpt>
      <trkpt lat="37.00770218856632709503173828125" lon="-4.99427963979542255401611328125">
        <ele>483.20001220703125</ele>
        <time>2019-11-01T12:18:49.000Z</time>
      </trkpt>
      <trkpt lat="37.007583416998386383056640625" lon="-4.99451919458806514739990234375">
        <ele>482.79998779296875</ele>
        <time>2019-11-01T12:18:53.000Z</time>
      </trkpt>
      <trkpt lat="37.00746196322143077850341796875" lon="-4.99475908465683460235595703125">
        <ele>483.600006103515625</ele>
        <time>2019-11-01T12:18:57.000Z</time>
      </trkpt>
      <trkpt lat="37.0073425211012363433837890625" lon="-4.9950025789439678192138671875">
        <ele>484.600006103515625</ele>
        <time>2019-11-01T12:19:01.000Z</time>
      </trkpt>
      <trkpt lat="37.007221318781375885009765625" lon="-4.99525378458201885223388671875">
        <ele>484.600006103515625</ele>
        <time>2019-11-01T12:19:05.000Z</time>
      </trkpt>
      <trkpt lat="37.0071074925363063812255859375" lon="-4.99550591222941875457763671875">
        <ele>484</ele>
        <time>2019-11-01T12:19:09.000Z</time>
      </trkpt>
      <trkpt lat="37.00699961744248867034912109375" lon="-4.995760135352611541748046875">
        <ele>483.600006103515625</ele>
        <time>2019-11-01T12:19:13.000Z</time>
      </trkpt>
      <trkpt lat="37.00689266435801982879638671875" lon="-4.99601771123707294464111328125">
        <ele>484</ele>
        <time>2019-11-01T12:19:17.000Z</time>
      </trkpt>
      <trkpt lat="37.00679392553865909576416015625" lon="-4.99627553857862949371337890625">
        <ele>485</ele>
        <time>2019-11-01T12:19:21.000Z</time>
      </trkpt>
      <trkpt lat="37.0067024789750576019287109375" lon="-4.99652666039764881134033203125">
        <ele>484.79998779296875</ele>
        <time>2019-11-01T12:19:25.000Z</time>
      </trkpt>
      <trkpt lat="37.00661815702915191650390625" lon="-4.996772669255733489990234375">
        <ele>484.600006103515625</ele>
        <time>2019-11-01T12:19:29.000Z</time>
      </trkpt>
      <trkpt lat="37.0065579749643802642822265625" lon="-4.99695849604904651641845703125">
        <ele>484.79998779296875</ele>
        <time>2019-11-01T12:19:32.000Z</time>
      </trkpt>
      <trkpt lat="37.0064922608435153961181640625" lon="-4.9972009845077991485595703125">
        <ele>484.79998779296875</ele>
        <time>2019-11-01T12:19:36.000Z</time>
      </trkpt>
      <trkpt lat="37.00643501244485378265380859375" lon="-4.99743257649242877960205078125">
        <ele>484.399993896484375</ele>
        <time>2019-11-01T12:19:40.000Z</time>
      </trkpt>
      <trkpt lat="37.00638304464519023895263671875" lon="-4.9976559542119503021240234375">
        <ele>483.399993896484375</ele>
        <time>2019-11-01T12:19:44.000Z</time>
      </trkpt>
      <trkpt lat="37.00633660890161991119384765625" lon="-4.9978805892169475555419921875">
        <ele>483.399993896484375</ele>
        <time>2019-11-01T12:19:48.000Z</time>
      </trkpt>
      <trkpt lat="37.00628866441547870635986328125" lon="-4.998111426830291748046875">
        <ele>483.79998779296875</ele>
        <time>2019-11-01T12:19:52.000Z</time>
      </trkpt>
      <trkpt lat="37.00625010766088962554931640625" lon="-4.99834218062460422515869140625">
        <ele>484.600006103515625</ele>
        <time>2019-11-01T12:19:56.000Z</time>
      </trkpt>
      <trkpt lat="37.00621071271598339080810546875" lon="-4.99856580980122089385986328125">
        <ele>484.600006103515625</ele>
        <time>2019-11-01T12:20:00.000Z</time>
      </trkpt>
      <trkpt lat="37.00617383234202861785888671875" lon="-4.99879069626331329345703125">
        <ele>483.79998779296875</ele>
        <time>2019-11-01T12:20:04.000Z</time>
      </trkpt>
      <trkpt lat="37.00614131055772304534912109375" lon="-4.99901273287832736968994140625">
        <ele>484</ele>
        <time>2019-11-01T12:20:08.000Z</time>
      </trkpt>
      <trkpt lat="37.00610694475471973419189453125" lon="-4.99928045086562633514404296875">
        <ele>484.399993896484375</ele>
        <time>2019-11-01T12:20:13.000Z</time>
      </trkpt>
      <trkpt lat="37.00607844628393650054931640625" lon="-4.99955319799482822418212890625">
        <ele>485</ele>
        <time>2019-11-01T12:20:18.000Z</time>
      </trkpt>
      <trkpt lat="37.0060547254979610443115234375" lon="-4.99982007779181003570556640625">
        <ele>484.20001220703125</ele>
        <time>2019-11-01T12:20:23.000Z</time>
      </trkpt>
      <trkpt lat="37.00603569857776165008544921875" lon="-5.0000870414078235626220703125">
        <ele>484.20001220703125</ele>
        <time>2019-11-01T12:20:28.000Z</time>
      </trkpt>
      <trkpt lat="37.00602564029395580291748046875" lon="-5.00035501085221767425537109375">
        <ele>485.20001220703125</ele>
        <time>2019-11-01T12:20:33.000Z</time>
      </trkpt>
      <trkpt lat="37.0060175098478794097900390625" lon="-5.00062021426856517791748046875">
        <ele>485.20001220703125</ele>
        <time>2019-11-01T12:20:38.000Z</time>
      </trkpt>
      <trkpt lat="37.006013654172420501708984375" lon="-5.0008826516568660736083984375">
        <ele>486</ele>
        <time>2019-11-01T12:20:43.000Z</time>
      </trkpt>
      <trkpt lat="37.00601105578243732452392578125" lon="-5.001145340502262115478515625">
        <ele>486.79998779296875</ele>
        <time>2019-11-01T12:20:48.000Z</time>
      </trkpt>
      <trkpt lat="37.00600887648761272430419921875" lon="-5.001411549746990203857421875">
        <ele>487.79998779296875</ele>
        <time>2019-11-01T12:20:53.000Z</time>
      </trkpt>
      <trkpt lat="37.0060108043253421783447265625" lon="-5.0016799382865428924560546875">
        <ele>488.600006103515625</ele>
        <time>2019-11-01T12:20:58.000Z</time>
      </trkpt>
      <trkpt lat="37.00601021759212017059326171875" lon="-5.0019458122551441192626953125">
        <ele>489.600006103515625</ele>
        <time>2019-11-01T12:21:03.000Z</time>
      </trkpt>
      <trkpt lat="37.0060126483440399169921875" lon="-5.00220841728150844573974609375">
        <ele>490.399993896484375</ele>
        <time>2019-11-01T12:21:08.000Z</time>
      </trkpt>
      <trkpt lat="37.006014995276927947998046875" lon="-5.00246574170887470245361328125">
        <ele>491.399993896484375</ele>
        <time>2019-11-01T12:21:13.000Z</time>
      </trkpt>
      <trkpt lat="37.00601491145789623260498046875" lon="-5.00271485187113285064697265625">
        <ele>492.20001220703125</ele>
        <time>2019-11-01T12:21:18.000Z</time>
      </trkpt>
      <trkpt lat="37.006011642515659332275390625" lon="-5.00295222736895084381103515625">
        <ele>493</ele>
        <time>2019-11-01T12:21:23.000Z</time>
      </trkpt>
      <trkpt lat="37.0060037635266780853271484375" lon="-5.00317971222102642059326171875">
        <ele>493</ele>
        <time>2019-11-01T12:21:28.000Z</time>
      </trkpt>
      <trkpt lat="37.00600267387926578521728515625" lon="-5.00340141355991363525390625">
        <ele>493.79998779296875</ele>
        <time>2019-11-01T12:21:33.000Z</time>
      </trkpt>
      <trkpt lat="37.006002925336360931396484375" lon="-5.0036701373755931854248046875">
        <ele>494.600006103515625</ele>
        <time>2019-11-01T12:21:39.000Z</time>
      </trkpt>
      <trkpt lat="37.00600367970764636993408203125" lon="-5.0039008073508739471435546875">
        <ele>495.399993896484375</ele>
        <time>2019-11-01T12:21:44.000Z</time>
      </trkpt>
      <trkpt lat="37.00600552372634410858154296875" lon="-5.00412720255553722381591796875">
        <ele>496</ele>
        <time>2019-11-01T12:21:49.000Z</time>
      </trkpt>
      <trkpt lat="37.0060040988028049468994140625" lon="-5.00435267575085163116455078125">
        <ele>496.20001220703125</ele>
        <time>2019-11-01T12:21:54.000Z</time>
      </trkpt>
      <trkpt lat="37.0060027576982975006103515625" lon="-5.00458267517387866973876953125">
        <ele>496.20001220703125</ele>
        <time>2019-11-01T12:21:59.000Z</time>
      </trkpt>
      <trkpt lat="37.0060037635266780853271484375" lon="-5.0048503093421459197998046875">
        <ele>494.20001220703125</ele>
        <time>2019-11-01T12:22:05.000Z</time>
      </trkpt>
      <trkpt lat="37.00600401498377323150634765625" lon="-5.0050782971084117889404296875">
        <ele>495</ele>
        <time>2019-11-01T12:22:10.000Z</time>
      </trkpt>
      <trkpt lat="37.00600250624120235443115234375" lon="-5.0053119845688343048095703125">
        <ele>495.20001220703125</ele>
        <time>2019-11-01T12:22:15.000Z</time>
      </trkpt>
      <trkpt lat="37.00600233860313892364501953125" lon="-5.0055433250963687896728515625">
        <ele>495.20001220703125</ele>
        <time>2019-11-01T12:22:20.000Z</time>
      </trkpt>
      <trkpt lat="37.0059994049370288848876953125" lon="-5.0057753361761569976806640625">
        <ele>495.20001220703125</ele>
        <time>2019-11-01T12:22:25.000Z</time>
      </trkpt>
      <trkpt lat="37.0059997402131557464599609375" lon="-5.00600642524659633636474609375">
        <ele>495</ele>
        <time>2019-11-01T12:22:30.000Z</time>
      </trkpt>
      <trkpt lat="37.00600015930831432342529296875" lon="-5.0062358379364013671875">
        <ele>495</ele>
        <time>2019-11-01T12:22:35.000Z</time>
      </trkpt>
      <trkpt lat="37.00599948875606060028076171875" lon="-5.00646843574941158294677734375">
        <ele>494.20001220703125</ele>
        <time>2019-11-01T12:22:40.000Z</time>
      </trkpt>
      <trkpt lat="37.00599982403218746185302734375" lon="-5.00670254230499267578125">
        <ele>494.600006103515625</ele>
        <time>2019-11-01T12:22:45.000Z</time>
      </trkpt>
      <trkpt lat="37.006000578403472900390625" lon="-5.0069387443363666534423828125">
        <ele>495</ele>
        <time>2019-11-01T12:22:50.000Z</time>
      </trkpt>
      <trkpt lat="37.0060024224221706390380859375" lon="-5.00717301853001117706298828125">
        <ele>495.399993896484375</ele>
        <time>2019-11-01T12:22:55.000Z</time>
      </trkpt>
      <trkpt lat="37.00600082986056804656982421875" lon="-5.00740620307624340057373046875">
        <ele>496.399993896484375</ele>
        <time>2019-11-01T12:23:00.000Z</time>
      </trkpt>
      <trkpt lat="37.0060071162879467010498046875" lon="-5.007641650736331939697265625">
        <ele>498.20001220703125</ele>
        <time>2019-11-01T12:23:05.000Z</time>
      </trkpt>
      <trkpt lat="37.006011307239532470703125" lon="-5.0078760087490081787109375">
        <ele>499</ele>
        <time>2019-11-01T12:23:10.000Z</time>
      </trkpt>
      <trkpt lat="37.00601776130497455596923828125" lon="-5.008102320134639739990234375">
        <ele>500.600006103515625</ele>
        <time>2019-11-01T12:23:15.000Z</time>
      </trkpt>
      <trkpt lat="37.0060279034078121185302734375" lon="-5.00832787714898586273193359375">
        <ele>501.20001220703125</ele>
        <time>2019-11-01T12:23:20.000Z</time>
      </trkpt>
      <trkpt lat="37.00604324229061603546142578125" lon="-5.00856894068419933319091796875">
        <ele>501.79998779296875</ele>
        <time>2019-11-01T12:23:25.000Z</time>
      </trkpt>
      <trkpt lat="37.0060587488114833831787109375" lon="-5.008813776075839996337890625">
        <ele>502.600006103515625</ele>
        <time>2019-11-01T12:23:30.000Z</time>
      </trkpt>
      <trkpt lat="37.00607232749462127685546875" lon="-5.00904888845980167388916015625">
        <ele>503.20001220703125</ele>
        <time>2019-11-01T12:23:35.000Z</time>
      </trkpt>
      <trkpt lat="37.006086073815822601318359375" lon="-5.00927570275962352752685546875">
        <ele>504</ele>
        <time>2019-11-01T12:23:40.000Z</time>
      </trkpt>
      <trkpt lat="37.00609956867992877960205078125" lon="-5.009507797658443450927734375">
        <ele>505</ele>
        <time>2019-11-01T12:23:45.000Z</time>
      </trkpt>
      <trkpt lat="37.0061127282679080963134765625" lon="-5.009740479290485382080078125">
        <ele>504.399993896484375</ele>
        <time>2019-11-01T12:23:50.000Z</time>
      </trkpt>
      <trkpt lat="37.006127648055553436279296875" lon="-5.00997022725641727447509765625">
        <ele>503.79998779296875</ele>
        <time>2019-11-01T12:23:56.000Z</time>
      </trkpt>
      <trkpt lat="37.00614851899445056915283203125" lon="-5.01022520475089550018310546875">
        <ele>502.600006103515625</ele>
        <time>2019-11-01T12:24:02.000Z</time>
      </trkpt>
      <trkpt lat="37.00617081485688686370849609375" lon="-5.010482110083103179931640625">
        <ele>502.399993896484375</ele>
        <time>2019-11-01T12:24:07.000Z</time>
      </trkpt>
      <trkpt lat="37.0061938650906085968017578125" lon="-5.01073096878826618194580078125">
        <ele>502.399993896484375</ele>
        <time>2019-11-01T12:24:12.000Z</time>
      </trkpt>
      <trkpt lat="37.0062183402478694915771484375" lon="-5.01095744781196117401123046875">
        <ele>502.600006103515625</ele>
        <time>2019-11-01T12:24:17.000Z</time>
      </trkpt>
      <trkpt lat="37.0062431506812572479248046875" lon="-5.01119448803365230560302734375">
        <ele>501.399993896484375</ele>
        <time>2019-11-01T12:24:22.000Z</time>
      </trkpt>
      <trkpt lat="37.00627692975103855133056640625" lon="-5.01146681606769561767578125">
        <ele>499.600006103515625</ele>
        <time>2019-11-01T12:24:27.000Z</time>
      </trkpt>
      <trkpt lat="37.00630542822182178497314453125" lon="-5.011701844632625579833984375">
        <ele>498.79998779296875</ele>
        <time>2019-11-01T12:24:31.000Z</time>
      </trkpt>
      <trkpt lat="37.00633593834936618804931640625" lon="-5.01194802112877368927001953125">
        <ele>497.600006103515625</ele>
        <time>2019-11-01T12:24:35.000Z</time>
      </trkpt>
      <trkpt lat="37.00636376626789569854736328125" lon="-5.01219243742525577545166015625">
        <ele>496</ele>
        <time>2019-11-01T12:24:39.000Z</time>
      </trkpt>
      <trkpt lat="37.0063933543860912322998046875" lon="-5.01241623423993587493896484375">
        <ele>494.79998779296875</ele>
        <time>2019-11-01T12:24:43.000Z</time>
      </trkpt>
      <trkpt lat="37.00642663054168224334716796875" lon="-5.01263567246496677398681640625">
        <ele>493.600006103515625</ele>
        <time>2019-11-01T12:24:47.000Z</time>
      </trkpt>
      <trkpt lat="37.006468959152698516845703125" lon="-5.01286667771637439727783203125">
        <ele>493</ele>
        <time>2019-11-01T12:24:51.000Z</time>
      </trkpt>
      <trkpt lat="37.0065117068588733673095703125" lon="-5.0131168775260448455810546875">
        <ele>492.20001220703125</ele>
        <time>2019-11-01T12:24:55.000Z</time>
      </trkpt>
      <trkpt lat="37.00655051507055759429931640625" lon="-5.0133622996509075164794921875">
        <ele>492</ele>
        <time>2019-11-01T12:24:59.000Z</time>
      </trkpt>
      <trkpt lat="37.0065935142338275909423828125" lon="-5.01359053887426853179931640625">
        <ele>492.600006103515625</ele>
        <time>2019-11-01T12:25:03.000Z</time>
      </trkpt>
      <trkpt lat="37.00663450174033641815185546875" lon="-5.01381668262183666229248046875">
        <ele>493.600006103515625</ele>
        <time>2019-11-01T12:25:07.000Z</time>
      </trkpt>
      <trkpt lat="37.00667121447622776031494140625" lon="-5.0140452571213245391845703125">
        <ele>494</ele>
        <time>2019-11-01T12:25:11.000Z</time>
      </trkpt>
      <trkpt lat="37.00672167353332042694091796875" lon="-5.01426494680345058441162109375">
        <ele>494</ele>
        <time>2019-11-01T12:25:15.000Z</time>
      </trkpt>
      <trkpt lat="37.0067712105810642242431640625" lon="-5.01453115604817867279052734375">
        <ele>493.399993896484375</ele>
        <time>2019-11-01T12:25:20.000Z</time>
      </trkpt>
      <trkpt lat="37.00682259164750576019287109375" lon="-5.01479501836001873016357421875">
        <ele>493.79998779296875</ele>
        <time>2019-11-01T12:25:25.000Z</time>
      </trkpt>
      <trkpt lat="37.00686668045818805694580078125" lon="-5.015053935348987579345703125">
        <ele>495.399993896484375</ele>
        <time>2019-11-01T12:25:30.000Z</time>
      </trkpt>
      <trkpt lat="37.00690942816436290740966796875" lon="-5.01530706882476806640625">
        <ele>497</ele>
        <time>2019-11-01T12:25:35.000Z</time>
      </trkpt>
      <trkpt lat="37.00694848783314228057861328125" lon="-5.01554821617901325225830078125">
        <ele>499</ele>
        <time>2019-11-01T12:25:40.000Z</time>
      </trkpt>
      <trkpt lat="37.00698235072195529937744140625" lon="-5.0157742761075496673583984375">
        <ele>500.20001220703125</ele>
        <time>2019-11-01T12:25:45.000Z</time>
      </trkpt>
      <trkpt lat="37.0070230029523372650146484375" lon="-5.016029588878154754638671875">
        <ele>501.600006103515625</ele>
        <time>2019-11-01T12:25:51.000Z</time>
      </trkpt>
      <trkpt lat="37.00703658163547515869140625" lon="-5.016159005463123321533203125">
        <ele>502.20001220703125</ele>
        <time>2019-11-01T12:25:54.000Z</time>
      </trkpt>
      <trkpt lat="37.00707186944782733917236328125" lon="-5.01641473732888698577880859375">
        <ele>503.399993896484375</ele>
        <time>2019-11-01T12:26:00.000Z</time>
      </trkpt>
      <trkpt lat="37.00709818862378597259521484375" lon="-5.0165883265435695648193359375">
        <ele>504.399993896484375</ele>
        <time>2019-11-01T12:26:04.000Z</time>
      </trkpt>
      <trkpt lat="37.00713054277002811431884765625" lon="-5.0168531946837902069091796875">
        <ele>505.79998779296875</ele>
        <time>2019-11-01T12:26:10.000Z</time>
      </trkpt>
      <trkpt lat="37.00715870596468448638916015625" lon="-5.01711546443402767181396484375">
        <ele>507</ele>
        <time>2019-11-01T12:26:16.000Z</time>
      </trkpt>
      <trkpt lat="37.007178403437137603759765625" lon="-5.01738117076456546783447265625">
        <ele>507</ele>
        <time>2019-11-01T12:26:22.000Z</time>
      </trkpt>
      <trkpt lat="37.00721092522144317626953125" lon="-5.01763581298291683197021484375">
        <ele>506</ele>
        <time>2019-11-01T12:26:28.000Z</time>
      </trkpt>
      <trkpt lat="37.007241435348987579345703125" lon="-5.01789917238056659698486328125">
        <ele>505.600006103515625</ele>
        <time>2019-11-01T12:26:34.000Z</time>
      </trkpt>
      <trkpt lat="37.007262893021106719970703125" lon="-5.01812481321394443511962890625">
        <ele>506</ele>
        <time>2019-11-01T12:26:39.000Z</time>
      </trkpt>
      <trkpt lat="37.00728493742644786834716796875" lon="-5.018394291400909423828125">
        <ele>506.20001220703125</ele>
        <time>2019-11-01T12:26:45.000Z</time>
      </trkpt>
      <trkpt lat="37.00729985721409320831298828125" lon="-5.01862420700490474700927734375">
        <ele>506.79998779296875</ele>
        <time>2019-11-01T12:26:50.000Z</time>
      </trkpt>
      <trkpt lat="37.0073173753917217254638671875" lon="-5.01885554753243923187255859375">
        <ele>507.600006103515625</ele>
        <time>2019-11-01T12:26:55.000Z</time>
      </trkpt>
      <trkpt lat="37.00732936151325702667236328125" lon="-5.01908705569803714752197265625">
        <ele>509</ele>
        <time>2019-11-01T12:27:00.000Z</time>
      </trkpt>
      <trkpt lat="37.0073472149670124053955078125" lon="-5.0193489901721477508544921875">
        <ele>509.79998779296875</ele>
        <time>2019-11-01T12:27:06.000Z</time>
      </trkpt>
      <trkpt lat="37.00736381113529205322265625" lon="-5.019612014293670654296875">
        <ele>509</ele>
        <time>2019-11-01T12:27:12.000Z</time>
      </trkpt>
      <trkpt lat="37.00737814418971538543701171875" lon="-5.01986791379749774932861328125">
        <ele>509.20001220703125</ele>
        <time>2019-11-01T12:27:18.000Z</time>
      </trkpt>
      <trkpt lat="37.0074005238711833953857421875" lon="-5.02009741030633449554443359375">
        <ele>508.600006103515625</ele>
        <time>2019-11-01T12:27:25.000Z</time>
      </trkpt>
      <trkpt lat="37.00746246613562107086181640625" lon="-5.0203199498355388641357421875">
        <ele>508.79998779296875</ele>
        <time>2019-11-01T12:27:34.000Z</time>
      </trkpt>
      <trkpt lat="37.00751326046884059906005859375" lon="-5.02045154571533203125">
        <ele>508.600006103515625</ele>
        <time>2019-11-01T12:27:44.000Z</time>
      </trkpt>
      <trkpt lat="37.007558606564998626708984375" lon="-5.02034517936408519744873046875">
        <ele>509.600006103515625</ele>
        <time>2019-11-01T13:28:08.000Z</time>
      </trkpt>
      <trkpt lat="37.00756774283945560455322265625" lon="-5.02042480744421482086181640625">
        <ele>509.20001220703125</ele>
        <time>2019-11-01T13:28:18.000Z</time>
      </trkpt>
      <trkpt lat="37.00753723271191120147705078125" lon="-5.0204969756305217742919921875">
        <ele>508.600006103515625</ele>
        <time>2019-11-01T13:28:28.000Z</time>
      </trkpt>
      <trkpt lat="37.00760789215564727783203125" lon="-5.02056076191365718841552734375">
        <ele>509.20001220703125</ele>
        <time>2019-11-01T13:28:36.000Z</time>
      </trkpt>
      <trkpt lat="37.00759372673928737640380859375" lon="-5.02060149796307086944580078125">
        <ele>508.79998779296875</ele>
        <time>2019-11-01T13:28:39.000Z</time>
      </trkpt>
      <trkpt lat="37.0075024478137493133544921875" lon="-5.02079964615404605865478515625">
        <ele>507.600006103515625</ele>
        <time>2019-11-01T13:28:46.000Z</time>
      </trkpt>
      <trkpt lat="37.0074568502604961395263671875" lon="-5.02103199250996112823486328125">
        <ele>506.399993896484375</ele>
        <time>2019-11-01T13:28:54.000Z</time>
      </trkpt>
      <trkpt lat="37.00745156966149806976318359375" lon="-5.0212945975363254547119140625">
        <ele>505.399993896484375</ele>
        <time>2019-11-01T13:29:01.000Z</time>
      </trkpt>
      <trkpt lat="37.00745156966149806976318359375" lon="-5.0215296261012554168701171875">
        <ele>504.600006103515625</ele>
        <time>2019-11-01T13:29:07.000Z</time>
      </trkpt>
      <trkpt lat="37.007459364831447601318359375" lon="-5.02177429385483264923095703125">
        <ele>503.600006103515625</ele>
        <time>2019-11-01T13:29:13.000Z</time>
      </trkpt>
      <trkpt lat="37.00745366513729095458984375" lon="-5.0220353901386260986328125">
        <ele>502.399993896484375</ele>
        <time>2019-11-01T13:29:19.000Z</time>
      </trkpt>
      <trkpt lat="37.00745408423244953155517578125" lon="-5.022292546927928924560546875">
        <ele>502</ele>
        <time>2019-11-01T13:29:25.000Z</time>
      </trkpt>
      <trkpt lat="37.00744989328086376190185546875" lon="-5.02256135456264019012451171875">
        <ele>501.399993896484375</ele>
        <time>2019-11-01T13:29:31.000Z</time>
      </trkpt>
      <trkpt lat="37.00744670815765857696533203125" lon="-5.02278707921504974365234375">
        <ele>502.20001220703125</ele>
        <time>2019-11-01T13:29:36.000Z</time>
      </trkpt>
      <trkpt lat="37.00743245892226696014404296875" lon="-5.02305085770785808563232421875">
        <ele>501.600006103515625</ele>
        <time>2019-11-01T13:29:42.000Z</time>
      </trkpt>
      <trkpt lat="37.0074266754090785980224609375" lon="-5.0232831202447414398193359375">
        <ele>501.20001220703125</ele>
        <time>2019-11-01T13:29:47.000Z</time>
      </trkpt>
      <trkpt lat="37.007426507771015167236328125" lon="-5.02351127564907073974609375">
        <ele>501.399993896484375</ele>
        <time>2019-11-01T13:29:52.000Z</time>
      </trkpt>
      <trkpt lat="37.00741611421108245849609375" lon="-5.02374068833887577056884765625">
        <ele>502</ele>
        <time>2019-11-01T13:29:57.000Z</time>
      </trkpt>
      <trkpt lat="37.007407732307910919189453125" lon="-5.02397705800831317901611328125">
        <ele>502</ele>
        <time>2019-11-01T13:30:02.000Z</time>
      </trkpt>
      <trkpt lat="37.007401697337627410888671875" lon="-5.02421393059194087982177734375">
        <ele>502.79998779296875</ele>
        <time>2019-11-01T13:30:07.000Z</time>
      </trkpt>
      <trkpt lat="37.007384933531284332275390625" lon="-5.02447997219860553741455078125">
        <ele>504.20001220703125</ele>
        <time>2019-11-01T13:30:13.000Z</time>
      </trkpt>
      <trkpt lat="37.00736741535365581512451171875" lon="-5.02473494969308376312255859375">
        <ele>506</ele>
        <time>2019-11-01T13:30:19.000Z</time>
      </trkpt>
      <trkpt lat="37.00734947808086872100830078125" lon="-5.02496914006769657135009765625">
        <ele>507.79998779296875</ele>
        <time>2019-11-01T13:30:25.000Z</time>
      </trkpt>
      <trkpt lat="37.0073257572948932647705078125" lon="-5.0252008996903896331787109375">
        <ele>510</ele>
        <time>2019-11-01T13:30:31.000Z</time>
      </trkpt>
      <trkpt lat="37.007304131984710693359375" lon="-5.02543173730373382568359375">
        <ele>513.5999755859375</ele>
        <time>2019-11-01T13:30:37.000Z</time>
      </trkpt>
      <trkpt lat="37.00728560797870159149169921875" lon="-5.02567179501056671142578125">
        <ele>515.4000244140625</ele>
        <time>2019-11-01T13:30:43.000Z</time>
      </trkpt>
      <trkpt lat="37.00726549141108989715576171875" lon="-5.02592501230537891387939453125">
        <ele>515</ele>
        <time>2019-11-01T13:30:50.000Z</time>
      </trkpt>
      <trkpt lat="37.00725660659372806549072265625" lon="-5.02615350298583507537841796875">
        <ele>515.79998779296875</ele>
        <time>2019-11-01T13:30:57.000Z</time>
      </trkpt>
      <trkpt lat="37.00722844339907169342041015625" lon="-5.0263763777911663055419921875">
        <ele>517.4000244140625</ele>
        <time>2019-11-01T13:31:04.000Z</time>
      </trkpt>
      <trkpt lat="37.0071981847286224365234375" lon="-5.02660478465259075164794921875">
        <ele>519.20001220703125</ele>
        <time>2019-11-01T13:31:11.000Z</time>
      </trkpt>
      <trkpt lat="37.007169686257839202880859375" lon="-5.02683595754206180572509765625">
        <ele>521.20001220703125</ele>
        <time>2019-11-01T13:31:18.000Z</time>
      </trkpt>
      <trkpt lat="37.0071514137089252471923828125" lon="-5.02707567997276782989501953125">
        <ele>521.79998779296875</ele>
        <time>2019-11-01T13:31:25.000Z</time>
      </trkpt>
      <trkpt lat="37.007119394838809967041015625" lon="-5.02732537686824798583984375">
        <ele>521.79998779296875</ele>
        <time>2019-11-01T13:31:32.000Z</time>
      </trkpt>
      <trkpt lat="37.00707337819039821624755859375" lon="-5.02756769768893718719482421875">
        <ele>521</ele>
        <time>2019-11-01T13:31:39.000Z</time>
      </trkpt>
      <trkpt lat="37.00704135932028293609619140625" lon="-5.02780490554869174957275390625">
        <ele>520.79998779296875</ele>
        <time>2019-11-01T13:31:46.000Z</time>
      </trkpt>
      <trkpt lat="37.00700816698372364044189453125" lon="-5.02805904485285282135009765625">
        <ele>520.5999755859375</ele>
        <time>2019-11-01T13:31:53.000Z</time>
      </trkpt>
      <trkpt lat="37.0069755613803863525390625" lon="-5.02829977311193943023681640625">
        <ele>520.79998779296875</ele>
        <time>2019-11-01T13:32:00.000Z</time>
      </trkpt>
      <trkpt lat="37.0069438777863979339599609375" lon="-5.0285451114177703857421875">
        <ele>521.20001220703125</ele>
        <time>2019-11-01T13:32:07.000Z</time>
      </trkpt>
      <trkpt lat="37.00689568184316158294677734375" lon="-5.028798244893550872802734375">
        <ele>521.5999755859375</ele>
        <time>2019-11-01T13:32:14.000Z</time>
      </trkpt>
      <trkpt lat="37.006859220564365386962890625" lon="-5.0290247239172458648681640625">
        <ele>522.5999755859375</ele>
        <time>2019-11-01T13:32:20.000Z</time>
      </trkpt>
      <trkpt lat="37.00682728551328182220458984375" lon="-5.02928699366748332977294921875">
        <ele>521.4000244140625</ele>
        <time>2019-11-01T13:32:26.000Z</time>
      </trkpt>
      <trkpt lat="37.00678990222513675689697265625" lon="-5.029552616178989410400390625">
        <ele>520</ele>
        <time>2019-11-01T13:32:32.000Z</time>
      </trkpt>
      <trkpt lat="37.00675335712730884552001953125" lon="-5.029781945049762725830078125">
        <ele>520.79998779296875</ele>
        <time>2019-11-01T13:32:37.000Z</time>
      </trkpt>
      <trkpt lat="37.00671203434467315673828125" lon="-5.0300436280667781829833984375">
        <ele>521.5999755859375</ele>
        <time>2019-11-01T13:32:43.000Z</time>
      </trkpt>
      <trkpt lat="37.0066689513623714447021484375" lon="-5.03030505962669849395751953125">
        <ele>520.4000244140625</ele>
        <time>2019-11-01T13:32:49.000Z</time>
      </trkpt>
      <trkpt lat="37.00662243179976940155029296875" lon="-5.03056841902434825897216796875">
        <ele>519.5999755859375</ele>
        <time>2019-11-01T13:32:55.000Z</time>
      </trkpt>
      <trkpt lat="37.00658286921679973602294921875" lon="-5.03080696798861026763916015625">
        <ele>518.20001220703125</ele>
        <time>2019-11-01T13:33:00.000Z</time>
      </trkpt>
      <trkpt lat="37.0065415464341640472412109375" lon="-5.031047277152538299560546875">
        <ele>517</ele>
        <time>2019-11-01T13:33:05.000Z</time>
      </trkpt>
      <trkpt lat="37.006499469280242919921875" lon="-5.03129865042865276336669921875">
        <ele>517.20001220703125</ele>
        <time>2019-11-01T13:33:10.000Z</time>
      </trkpt>
      <trkpt lat="37.0064550451934337615966796875" lon="-5.0315560586750507354736328125">
        <ele>520.20001220703125</ele>
        <time>2019-11-01T13:33:15.000Z</time>
      </trkpt>
      <trkpt lat="37.00640735216438770294189453125" lon="-5.03181547857820987701416015625">
        <ele>522.79998779296875</ele>
        <time>2019-11-01T13:33:20.000Z</time>
      </trkpt>
      <trkpt lat="37.00636510737240314483642578125" lon="-5.0320623256266117095947265625">
        <ele>524.79998779296875</ele>
        <time>2019-11-01T13:33:25.000Z</time>
      </trkpt>
      <trkpt lat="37.00633007101714611053466796875" lon="-5.0323010422289371490478515625">
        <ele>526.5999755859375</ele>
        <time>2019-11-01T13:33:30.000Z</time>
      </trkpt>
      <trkpt lat="37.00628832913935184478759765625" lon="-5.0325416028499603271484375">
        <ele>527.79998779296875</ele>
        <time>2019-11-01T13:33:35.000Z</time>
      </trkpt>
      <trkpt lat="37.00624675489962100982666015625" lon="-5.03278627060353755950927734375">
        <ele>528.4000244140625</ele>
        <time>2019-11-01T13:33:40.000Z</time>
      </trkpt>
      <trkpt lat="37.0062352716922760009765625" lon="-5.03304091282188892364501953125">
        <ele>528.20001220703125</ele>
        <time>2019-11-01T13:33:45.000Z</time>
      </trkpt>
      <trkpt lat="37.00618338771164417266845703125" lon="-5.0332669727504253387451171875">
        <ele>526.4000244140625</ele>
        <time>2019-11-01T13:33:50.000Z</time>
      </trkpt>
      <trkpt lat="37.00612857006490230560302734375" lon="-5.03350342623889446258544921875">
        <ele>523.4000244140625</ele>
        <time>2019-11-01T13:33:56.000Z</time>
      </trkpt>
      <trkpt lat="37.0060889236629009246826171875" lon="-5.0337289832532405853271484375">
        <ele>519.5999755859375</ele>
        <time>2019-11-01T13:34:02.000Z</time>
      </trkpt>
      <trkpt lat="37.0060446672141551971435546875" lon="-5.03395051695406436920166015625">
        <ele>516.79998779296875</ele>
        <time>2019-11-01T13:34:08.000Z</time>
      </trkpt>
      <trkpt lat="37.00602765195071697235107421875" lon="-5.0340441428124904632568359375">
        <ele>515.5999755859375</ele>
        <time>2019-11-01T13:34:16.000Z</time>
      </trkpt>
      <trkpt lat="37.0059853233397006988525390625" lon="-5.03417062573134899139404296875">
        <ele>514.5999755859375</ele>
        <time>2019-11-01T13:35:56.000Z</time>
      </trkpt>
      <trkpt lat="37.00593695975840091705322265625" lon="-5.03440598957240581512451171875">
        <ele>513.20001220703125</ele>
        <time>2019-11-01T13:36:02.000Z</time>
      </trkpt>
      <trkpt lat="37.0058865845203399658203125" lon="-5.03467865288257598876953125">
        <ele>511</ele>
        <time>2019-11-01T13:36:07.000Z</time>
      </trkpt>
      <trkpt lat="37.00583905912935733795166015625" lon="-5.03492449410259723663330078125">
        <ele>509.20001220703125</ele>
        <time>2019-11-01T13:36:11.000Z</time>
      </trkpt>
      <trkpt lat="37.0058264024555683135986328125" lon="-5.034988783299922943115234375">
        <ele>508.600006103515625</ele>
        <time>2019-11-01T13:36:12.000Z</time>
      </trkpt>
      <trkpt lat="37.00578491203486919403076171875" lon="-5.03525507636368274688720703125">
        <ele>507</ele>
        <time>2019-11-01T13:36:16.000Z</time>
      </trkpt>
      <trkpt lat="37.0057388953864574432373046875" lon="-5.03552363254129886627197265625">
        <ele>506.20001220703125</ele>
        <time>2019-11-01T13:36:20.000Z</time>
      </trkpt>
      <trkpt lat="37.0056946389377117156982421875" lon="-5.03579302690923213958740234375">
        <ele>506</ele>
        <time>2019-11-01T13:36:24.000Z</time>
      </trkpt>
      <trkpt lat="37.00565348379313945770263671875" lon="-5.036055631935596466064453125">
        <ele>506.20001220703125</ele>
        <time>2019-11-01T13:36:28.000Z</time>
      </trkpt>
      <trkpt lat="37.00561123900115489959716796875" lon="-5.03631589002907276153564453125">
        <ele>506.399993896484375</ele>
        <time>2019-11-01T13:36:32.000Z</time>
      </trkpt>
      <trkpt lat="37.0055668987333774566650390625" lon="-5.0365741364657878875732421875">
        <ele>507.20001220703125</ele>
        <time>2019-11-01T13:36:36.000Z</time>
      </trkpt>
      <trkpt lat="37.0055189542472362518310546875" lon="-5.0368359871208667755126953125">
        <ele>508</ele>
        <time>2019-11-01T13:36:40.000Z</time>
      </trkpt>
      <trkpt lat="37.0054669864475727081298828125" lon="-5.0370884500443935394287109375">
        <ele>509.20001220703125</ele>
        <time>2019-11-01T13:36:44.000Z</time>
      </trkpt>
      <trkpt lat="37.00542130507528781890869140625" lon="-5.0373348779976367950439453125">
        <ele>509.79998779296875</ele>
        <time>2019-11-01T13:36:48.000Z</time>
      </trkpt>
      <trkpt lat="37.0053794793784618377685546875" lon="-5.03757770173251628875732421875">
        <ele>511</ele>
        <time>2019-11-01T13:36:52.000Z</time>
      </trkpt>
      <trkpt lat="37.00534251518547534942626953125" lon="-5.0378123112022876739501953125">
        <ele>511</ele>
        <time>2019-11-01T13:36:56.000Z</time>
      </trkpt>
      <trkpt lat="37.0053072273731231689453125" lon="-5.03804256208240985870361328125">
        <ele>510.79998779296875</ele>
        <time>2019-11-01T13:37:00.000Z</time>
      </trkpt>
      <trkpt lat="37.00526925735175609588623046875" lon="-5.03827658481895923614501953125">
        <ele>511.20001220703125</ele>
        <time>2019-11-01T13:37:04.000Z</time>
      </trkpt>
      <trkpt lat="37.0052346400916576385498046875" lon="-5.03850474022328853607177734375">
        <ele>511.399993896484375</ele>
        <time>2019-11-01T13:37:08.000Z</time>
      </trkpt>
      <trkpt lat="37.005214355885982513427734375" lon="-5.0387380085885524749755859375">
        <ele>510.600006103515625</ele>
        <time>2019-11-01T13:37:12.000Z</time>
      </trkpt>
      <trkpt lat="37.0051937364041805267333984375" lon="-5.03897932358086109161376953125">
        <ele>509.600006103515625</ele>
        <time>2019-11-01T13:37:16.000Z</time>
      </trkpt>
      <trkpt lat="37.00517755933105945587158203125" lon="-5.0392068922519683837890625">
        <ele>508.600006103515625</ele>
        <time>2019-11-01T13:37:20.000Z</time>
      </trkpt>
      <trkpt lat="37.0051612146198749542236328125" lon="-5.0394410826265811920166015625">
        <ele>507.600006103515625</ele>
        <time>2019-11-01T13:37:24.000Z</time>
      </trkpt>
      <trkpt lat="37.005139254033565521240234375" lon="-5.0396687351167201995849609375">
        <ele>507</ele>
        <time>2019-11-01T13:37:28.000Z</time>
      </trkpt>
      <trkpt lat="37.00511788018047809600830078125" lon="-5.039835870265960693359375">
        <ele>507</ele>
        <time>2019-11-01T13:37:31.000Z</time>
      </trkpt>
      <trkpt lat="37.00509994290769100189208984375" lon="-5.0400651991367340087890625">
        <ele>507</ele>
        <time>2019-11-01T13:37:35.000Z</time>
      </trkpt>
      <trkpt lat="37.00508569367229938507080078125" lon="-5.040290839970111846923828125">
        <ele>507</ele>
        <time>2019-11-01T13:37:39.000Z</time>
      </trkpt>
      <trkpt lat="37.00507429428398609161376953125" lon="-5.04052008502185344696044921875">
        <ele>507</ele>
        <time>2019-11-01T13:37:43.000Z</time>
      </trkpt>
      <trkpt lat="37.0050646550953388214111328125" lon="-5.04075586795806884765625">
        <ele>507</ele>
        <time>2019-11-01T13:37:47.000Z</time>
      </trkpt>
      <trkpt lat="37.005048729479312896728515625" lon="-5.040990896522998809814453125">
        <ele>507.600006103515625</ele>
        <time>2019-11-01T13:37:51.000Z</time>
      </trkpt>
      <trkpt lat="37.005035988986492156982421875" lon="-5.041224919259548187255859375">
        <ele>508.600006103515625</ele>
        <time>2019-11-01T13:37:55.000Z</time>
      </trkpt>
      <trkpt lat="37.00502417050302028656005859375" lon="-5.04145617596805095672607421875">
        <ele>508.399993896484375</ele>
        <time>2019-11-01T13:37:59.000Z</time>
      </trkpt>
      <trkpt lat="37.00500858016312122344970703125" lon="-5.04173194058239459991455078125">
        <ele>507.79998779296875</ele>
        <time>2019-11-01T13:38:04.000Z</time>
      </trkpt>
      <trkpt lat="37.0049915648996829986572265625" lon="-5.0419593416154384613037109375">
        <ele>507.399993896484375</ele>
        <time>2019-11-01T13:38:08.000Z</time>
      </trkpt>
      <trkpt lat="37.0049801655113697052001953125" lon="-5.0421883352100849151611328125">
        <ele>507</ele>
        <time>2019-11-01T13:38:12.000Z</time>
      </trkpt>
      <trkpt lat="37.00496566481888294219970703125" lon="-5.0424148142337799072265625">
        <ele>506.20001220703125</ele>
        <time>2019-11-01T13:38:16.000Z</time>
      </trkpt>
      <trkpt lat="37.0049563609063625335693359375" lon="-5.04264087416231632232666015625">
        <ele>505.399993896484375</ele>
        <time>2019-11-01T13:38:20.000Z</time>
      </trkpt>
      <trkpt lat="37.0049432851374149322509765625" lon="-5.04291915334761142730712890625">
        <ele>505</ele>
        <time>2019-11-01T13:38:25.000Z</time>
      </trkpt>
      <trkpt lat="37.00492945499718189239501953125" lon="-5.04314563237130641937255859375">
        <ele>505</ele>
        <time>2019-11-01T13:38:29.000Z</time>
      </trkpt>
      <trkpt lat="37.00492157600820064544677734375" lon="-5.04337035119533538818359375">
        <ele>505</ele>
        <time>2019-11-01T13:38:33.000Z</time>
      </trkpt>
      <trkpt lat="37.0049074105918407440185546875" lon="-5.043596662580966949462890625">
        <ele>505.600006103515625</ele>
        <time>2019-11-01T13:38:37.000Z</time>
      </trkpt>
      <trkpt lat="37.00489693321287631988525390625" lon="-5.04382305778563022613525390625">
        <ele>506</ele>
        <time>2019-11-01T13:38:41.000Z</time>
      </trkpt>
      <trkpt lat="37.00488402508199214935302734375" lon="-5.04404802806675434112548828125">
        <ele>506</ele>
        <time>2019-11-01T13:38:45.000Z</time>
      </trkpt>
      <trkpt lat="37.0048732124269008636474609375" lon="-5.0442737527191638946533203125">
        <ele>506.79998779296875</ele>
        <time>2019-11-01T13:38:49.000Z</time>
      </trkpt>
      <trkpt lat="37.0048594661056995391845703125" lon="-5.04449897445738315582275390625">
        <ele>507</ele>
        <time>2019-11-01T13:38:53.000Z</time>
      </trkpt>
      <trkpt lat="37.0048457197844982147216796875" lon="-5.0447277165949344635009765625">
        <ele>507.399993896484375</ele>
        <time>2019-11-01T13:38:57.000Z</time>
      </trkpt>
      <trkpt lat="37.00482820160686969757080078125" lon="-5.045002140104770660400390625">
        <ele>507.79998779296875</ele>
        <time>2019-11-01T13:39:02.000Z</time>
      </trkpt>
      <trkpt lat="37.00480758212506771087646484375" lon="-5.04527740180492401123046875">
        <ele>508</ele>
        <time>2019-11-01T13:39:07.000Z</time>
      </trkpt>
      <trkpt lat="37.0047934167087078094482421875" lon="-5.0455022044479846954345703125">
        <ele>509</ele>
        <time>2019-11-01T13:39:11.000Z</time>
      </trkpt>
      <trkpt lat="37.00477925129234790802001953125" lon="-5.04573027603328227996826171875">
        <ele>509.79998779296875</ele>
        <time>2019-11-01T13:39:15.000Z</time>
      </trkpt>
      <trkpt lat="37.004748322069644927978515625" lon="-5.04600771702826023101806640625">
        <ele>511.600006103515625</ele>
        <time>2019-11-01T13:39:20.000Z</time>
      </trkpt>
      <trkpt lat="37.00472208671271800994873046875" lon="-5.04623838700354099273681640625">
        <ele>512</ele>
        <time>2019-11-01T13:39:24.000Z</time>
      </trkpt>
      <trkpt lat="37.0046871341764926910400390625" lon="-5.0464644469320774078369140625">
        <ele>511.20001220703125</ele>
        <time>2019-11-01T13:39:28.000Z</time>
      </trkpt>
      <trkpt lat="37.00465000234544277191162109375" lon="-5.04669134505093097686767578125">
        <ele>510.399993896484375</ele>
        <time>2019-11-01T13:39:32.000Z</time>
      </trkpt>
      <trkpt lat="37.00460708700120449066162109375" lon="-5.04692167975008487701416015625">
        <ele>509.600006103515625</ele>
        <time>2019-11-01T13:39:36.000Z</time>
      </trkpt>
      <trkpt lat="37.00455595739185810089111328125" lon="-5.04714581184089183807373046875">
        <ele>508.79998779296875</ele>
        <time>2019-11-01T13:39:40.000Z</time>
      </trkpt>
      <trkpt lat="37.0044998824596405029296875" lon="-5.04737447015941143035888671875">
        <ele>508.600006103515625</ele>
        <time>2019-11-01T13:39:44.000Z</time>
      </trkpt>
      <trkpt lat="37.00443894602358341217041015625" lon="-5.0476017035543918609619140625">
        <ele>508.399993896484375</ele>
        <time>2019-11-01T13:39:48.000Z</time>
      </trkpt>
      <trkpt lat="37.0043746568262577056884765625" lon="-5.047837235033512115478515625">
        <ele>509</ele>
        <time>2019-11-01T13:39:52.000Z</time>
      </trkpt>
      <trkpt lat="37.0043029077351093292236328125" lon="-5.04805541597306728363037109375">
        <ele>509</ele>
        <time>2019-11-01T13:39:56.000Z</time>
      </trkpt>
      <trkpt lat="37.0042304880917072296142578125" lon="-5.0482766143977642059326171875">
        <ele>509</ele>
        <time>2019-11-01T13:40:00.000Z</time>
      </trkpt>
      <trkpt lat="37.00420911423861980438232421875" lon="-5.04832933656871318817138671875">
        <ele>509</ele>
        <time>2019-11-01T13:40:01.000Z</time>
      </trkpt>
      <trkpt lat="37.00412546284496784210205078125" lon="-5.0485441647469997406005859375">
        <ele>509.600006103515625</ele>
        <time>2019-11-01T13:40:05.000Z</time>
      </trkpt>
      <trkpt lat="37.00403812341392040252685546875" lon="-5.04876351915299892425537109375">
        <ele>510</ele>
        <time>2019-11-01T13:40:09.000Z</time>
      </trkpt>
      <trkpt lat="37.0039468444883823394775390625" lon="-5.04897742532193660736083984375">
        <ele>510.399993896484375</ele>
        <time>2019-11-01T13:40:13.000Z</time>
      </trkpt>
      <trkpt lat="37.00385749340057373046875" lon="-5.04918764345347881317138671875">
        <ele>511</ele>
        <time>2019-11-01T13:40:17.000Z</time>
      </trkpt>
      <trkpt lat="37.0037641189992427825927734375" lon="-5.049389563500881195068359375">
        <ele>511.20001220703125</ele>
        <time>2019-11-01T13:40:21.000Z</time>
      </trkpt>
      <trkpt lat="37.00366898439824581146240234375" lon="-5.049591399729251861572265625">
        <ele>511</ele>
        <time>2019-11-01T13:40:25.000Z</time>
      </trkpt>
      <trkpt lat="37.00356923975050449371337890625" lon="-5.0497883744537830352783203125">
        <ele>510.79998779296875</ele>
        <time>2019-11-01T13:40:29.000Z</time>
      </trkpt>
      <trkpt lat="37.00347133912146091461181640625" lon="-5.049994401633739471435546875">
        <ele>510.79998779296875</ele>
        <time>2019-11-01T13:40:33.000Z</time>
      </trkpt>
      <trkpt lat="37.00337628833949565887451171875" lon="-5.050203613936901092529296875">
        <ele>511.399993896484375</ele>
        <time>2019-11-01T13:40:37.000Z</time>
      </trkpt>
      <trkpt lat="37.0032786391675472259521484375" lon="-5.05040846765041351318359375">
        <ele>511.79998779296875</ele>
        <time>2019-11-01T13:40:41.000Z</time>
      </trkpt>
      <trkpt lat="37.00318031944334506988525390625" lon="-5.05061340518295764923095703125">
        <ele>511.600006103515625</ele>
        <time>2019-11-01T13:40:45.000Z</time>
      </trkpt>
      <trkpt lat="37.00307873077690601348876953125" lon="-5.05081423558294773101806640625">
        <ele>512</ele>
        <time>2019-11-01T13:40:49.000Z</time>
      </trkpt>
      <trkpt lat="37.00297580100595951080322265625" lon="-5.051026381552219390869140625">
        <ele>512.20001220703125</ele>
        <time>2019-11-01T13:40:53.000Z</time>
      </trkpt>
      <trkpt lat="37.0028722845017910003662109375" lon="-5.05125210620462894439697265625">
        <ele>512</ele>
        <time>2019-11-01T13:40:57.000Z</time>
      </trkpt>
      <trkpt lat="37.0027717016637325286865234375" lon="-5.0514714606106281280517578125">
        <ele>511.399993896484375</ele>
        <time>2019-11-01T13:41:01.000Z</time>
      </trkpt>
      <trkpt lat="37.00267422012984752655029296875" lon="-5.0516900606453418731689453125">
        <ele>511.20001220703125</ele>
        <time>2019-11-01T13:41:05.000Z</time>
      </trkpt>
      <trkpt lat="37.00259157456457614898681640625" lon="-5.05192232318222522735595703125">
        <ele>510.600006103515625</ele>
        <time>2019-11-01T13:41:09.000Z</time>
      </trkpt>
      <trkpt lat="37.0025138743221759796142578125" lon="-5.052156932651996612548828125">
        <ele>510.399993896484375</ele>
        <time>2019-11-01T13:41:13.000Z</time>
      </trkpt>
      <trkpt lat="37.00244086794555187225341796875" lon="-5.05239271558821201324462890625">
        <ele>510.600006103515625</ele>
        <time>2019-11-01T13:41:17.000Z</time>
      </trkpt>
      <trkpt lat="37.00237314216792583465576171875" lon="-5.05262858234345912933349609375">
        <ele>511</ele>
        <time>2019-11-01T13:41:21.000Z</time>
      </trkpt>
      <trkpt lat="37.00230642221868038177490234375" lon="-5.05286210216581821441650390625">
        <ele>510.399993896484375</ele>
        <time>2019-11-01T13:41:25.000Z</time>
      </trkpt>
      <trkpt lat="37.00225227512419223785400390625" lon="-5.05309646017849445343017578125">
        <ele>509.600006103515625</ele>
        <time>2019-11-01T13:41:29.000Z</time>
      </trkpt>
      <trkpt lat="37.0021998882293701171875" lon="-5.0533314049243927001953125">
        <ele>508.79998779296875</ele>
        <time>2019-11-01T13:41:33.000Z</time>
      </trkpt>
      <trkpt lat="37.00215269811451435089111328125" lon="-5.05356987006962299346923828125">
        <ele>508.399993896484375</ele>
        <time>2019-11-01T13:41:37.000Z</time>
      </trkpt>
      <trkpt lat="37.00211414135992527008056640625" lon="-5.05380908958613872528076171875">
        <ele>508.399993896484375</ele>
        <time>2019-11-01T13:41:41.000Z</time>
      </trkpt>
      <trkpt lat="37.00207558460533618927001953125" lon="-5.05405182950198650360107421875">
        <ele>508</ele>
        <time>2019-11-01T13:41:45.000Z</time>
      </trkpt>
      <trkpt lat="37.00204121880233287811279296875" lon="-5.0542907975614070892333984375">
        <ele>509.399993896484375</ele>
        <time>2019-11-01T13:41:49.000Z</time>
      </trkpt>
      <trkpt lat="37.00201691128313541412353515625" lon="-5.05452842451632022857666015625">
        <ele>509.79998779296875</ele>
        <time>2019-11-01T13:41:53.000Z</time>
      </trkpt>
      <trkpt lat="37.00199327431619167327880859375" lon="-5.05476043559610843658447265625">
        <ele>509.600006103515625</ele>
        <time>2019-11-01T13:41:57.000Z</time>
      </trkpt>
      <trkpt lat="37.00197516940534114837646484375" lon="-5.05499378778040409088134765625">
        <ele>509.399993896484375</ele>
        <time>2019-11-01T13:42:01.000Z</time>
      </trkpt>
      <trkpt lat="37.001960836350917816162109375" lon="-5.05523116327822208404541015625">
        <ele>510</ele>
        <time>2019-11-01T13:42:05.000Z</time>
      </trkpt>
      <trkpt lat="37.00194147415459156036376953125" lon="-5.05546686239540576934814453125">
        <ele>510</ele>
        <time>2019-11-01T13:42:09.000Z</time>
      </trkpt>
      <trkpt lat="37.00192454271018505096435546875" lon="-5.0557158887386322021484375">
        <ele>509.79998779296875</ele>
        <time>2019-11-01T13:42:13.000Z</time>
      </trkpt>
      <trkpt lat="37.00190392322838306427001953125" lon="-5.0559678487479686737060546875">
        <ele>509.20001220703125</ele>
        <time>2019-11-01T13:42:17.000Z</time>
      </trkpt>
      <trkpt lat="37.00188682414591312408447265625" lon="-5.0562260113656520843505859375">
        <ele>508.20001220703125</ele>
        <time>2019-11-01T13:42:21.000Z</time>
      </trkpt>
      <trkpt lat="37.00186687521636486053466796875" lon="-5.05648492835462093353271484375">
        <ele>507.79998779296875</ele>
        <time>2019-11-01T13:42:25.000Z</time>
      </trkpt>
      <trkpt lat="37.0018466748297214508056640625" lon="-5.05673990584909915924072265625">
        <ele>507.399993896484375</ele>
        <time>2019-11-01T13:42:29.000Z</time>
      </trkpt>
      <trkpt lat="37.00182781554758548736572265625" lon="-5.0569934584200382232666015625">
        <ele>507.20001220703125</ele>
        <time>2019-11-01T13:42:33.000Z</time>
      </trkpt>
      <trkpt lat="37.0018017478287220001220703125" lon="-5.05725002847611904144287109375">
        <ele>507</ele>
        <time>2019-11-01T13:42:37.000Z</time>
      </trkpt>
      <trkpt lat="37.00177274644374847412109375" lon="-5.05750131793320178985595703125">
        <ele>506.600006103515625</ele>
        <time>2019-11-01T13:42:41.000Z</time>
      </trkpt>
      <trkpt lat="37.00173360295593738555908203125" lon="-5.0577635876834392547607421875">
        <ele>506</ele>
        <time>2019-11-01T13:42:45.000Z</time>
      </trkpt>
      <trkpt lat="37.00169638730585575103759765625" lon="-5.0580274499952793121337890625">
        <ele>505.20001220703125</ele>
        <time>2019-11-01T13:42:49.000Z</time>
      </trkpt>
      <trkpt lat="37.0016567409038543701171875" lon="-5.0582996942102909088134765625">
        <ele>505.79998779296875</ele>
        <time>2019-11-01T13:42:53.000Z</time>
      </trkpt>
      <trkpt lat="37.0016056112945079803466796875" lon="-5.05857721902430057525634765625">
        <ele>505.20001220703125</ele>
        <time>2019-11-01T13:42:57.000Z</time>
      </trkpt>
      <trkpt lat="37.001545093953609466552734375" lon="-5.05885834805667400360107421875">
        <ele>503.79998779296875</ele>
        <time>2019-11-01T13:43:01.000Z</time>
      </trkpt>
      <trkpt lat="37.001488767564296722412109375" lon="-5.05913235247135162353515625">
        <ele>503</ele>
        <time>2019-11-01T13:43:05.000Z</time>
      </trkpt>
      <trkpt lat="37.0014352910220623016357421875" lon="-5.059386156499385833740234375">
        <ele>502.79998779296875</ele>
        <time>2019-11-01T13:43:09.000Z</time>
      </trkpt>
      <trkpt lat="37.00137653388082981109619140625" lon="-5.05962478928267955780029296875">
        <ele>503</ele>
        <time>2019-11-01T13:43:13.000Z</time>
      </trkpt>
      <trkpt lat="37.00131735764443874359130859375" lon="-5.059860907495021820068359375">
        <ele>502.399993896484375</ele>
        <time>2019-11-01T13:43:17.000Z</time>
      </trkpt>
      <trkpt lat="37.0012498833239078521728515625" lon="-5.06011647172272205352783203125">
        <ele>502.79998779296875</ele>
        <time>2019-11-01T13:43:21.000Z</time>
      </trkpt>
      <trkpt lat="37.0011680759489536285400390625" lon="-5.06038092076778411865234375">
        <ele>502.79998779296875</ele>
        <time>2019-11-01T13:43:25.000Z</time>
      </trkpt>
      <trkpt lat="37.0010785572230815887451171875" lon="-5.060653500258922576904296875">
        <ele>502.399993896484375</ele>
        <time>2019-11-01T13:43:29.000Z</time>
      </trkpt>
      <trkpt lat="37.0010098256170749664306640625" lon="-5.06086246110498905181884765625">
        <ele>502.20001220703125</ele>
        <time>2019-11-01T13:43:32.000Z</time>
      </trkpt>
      <trkpt lat="37.0009132660925388336181640625" lon="-5.06113487295806407928466796875">
        <ele>501.399993896484375</ele>
        <time>2019-11-01T13:43:36.000Z</time>
      </trkpt>
      <trkpt lat="37.00081410817801952362060546875" lon="-5.06140577606856822967529296875">
        <ele>500.79998779296875</ele>
        <time>2019-11-01T13:43:40.000Z</time>
      </trkpt>
      <trkpt lat="37.0007288642227649688720703125" lon="-5.061616413295269012451171875">
        <ele>500.600006103515625</ele>
        <time>2019-11-01T13:43:43.000Z</time>
      </trkpt>
      <trkpt lat="37.0006510801613330841064453125" lon="-5.0618358515202999114990234375">
        <ele>500.600006103515625</ele>
        <time>2019-11-01T13:43:46.000Z</time>
      </trkpt>
      <trkpt lat="37.0005796663463115692138671875" lon="-5.06204866804182529449462890625">
        <ele>500.600006103515625</ele>
        <time>2019-11-01T13:43:49.000Z</time>
      </trkpt>
      <trkpt lat="37.000493668019771575927734375" lon="-5.06232543848454952239990234375">
        <ele>499.79998779296875</ele>
        <time>2019-11-01T13:43:53.000Z</time>
      </trkpt>
      <trkpt lat="37.00040171854197978973388671875" lon="-5.06260204128921031951904296875">
        <ele>498.79998779296875</ele>
        <time>2019-11-01T13:43:57.000Z</time>
      </trkpt>
      <trkpt lat="37.0003345794975757598876953125" lon="-5.062817372381687164306640625">
        <ele>498.20001220703125</ele>
        <time>2019-11-01T13:44:00.000Z</time>
      </trkpt>
      <trkpt lat="37.000269033014774322509765625" lon="-5.06303320638835430145263671875">
        <ele>497.79998779296875</ele>
        <time>2019-11-01T13:44:03.000Z</time>
      </trkpt>
      <trkpt lat="37.0002142153680324554443359375" lon="-5.06325683556497097015380859375">
        <ele>497.79998779296875</ele>
        <time>2019-11-01T13:44:06.000Z</time>
      </trkpt>
      <trkpt lat="37.00016367249190807342529296875" lon="-5.06348867900669574737548828125">
        <ele>498</ele>
        <time>2019-11-01T13:44:09.000Z</time>
      </trkpt>
      <trkpt lat="37.00010969303548336029052734375" lon="-5.06373175419867038726806640625">
        <ele>497.20001220703125</ele>
        <time>2019-11-01T13:44:12.000Z</time>
      </trkpt>
      <trkpt lat="37.00006057508289813995361328125" lon="-5.06399259902536869049072265625">
        <ele>496.20001220703125</ele>
        <time>2019-11-01T13:44:15.000Z</time>
      </trkpt>
      <trkpt lat="37.00002570636570453643798828125" lon="-5.0642652623355388641357421875">
        <ele>495.20001220703125</ele>
        <time>2019-11-01T13:44:18.000Z</time>
      </trkpt>
      <trkpt lat="36.9999942742288112640380859375" lon="-5.0645546056330204010009765625">
        <ele>494.20001220703125</ele>
        <time>2019-11-01T13:44:21.000Z</time>
      </trkpt>
      <trkpt lat="36.99997164309024810791015625" lon="-5.064865238964557647705078125">
        <ele>493</ele>
        <time>2019-11-01T13:44:24.000Z</time>
      </trkpt>
      <trkpt lat="36.9999503530561923980712890625" lon="-5.0651805661618709564208984375">
        <ele>490.399993896484375</ele>
        <time>2019-11-01T13:44:27.000Z</time>
      </trkpt>
      <trkpt lat="36.99994406662881374359130859375" lon="-5.06550888530910015106201171875">
        <ele>488.20001220703125</ele>
        <time>2019-11-01T13:44:30.000Z</time>
      </trkpt>
      <trkpt lat="36.99994004331529140472412109375" lon="-5.06584181450307369232177734375">
        <ele>487</ele>
        <time>2019-11-01T13:44:33.000Z</time>
      </trkpt>
      <trkpt lat="36.99993300251662731170654296875" lon="-5.0660680420696735382080078125">
        <ele>486.20001220703125</ele>
        <time>2019-11-01T13:44:35.000Z</time>
      </trkpt>
      <trkpt lat="36.99992411769926548004150390625" lon="-5.06630181334912776947021484375">
        <ele>484.20001220703125</ele>
        <time>2019-11-01T13:44:37.000Z</time>
      </trkpt>
      <trkpt lat="36.99992210604250431060791015625" lon="-5.0665332376956939697265625">
        <ele>484</ele>
        <time>2019-11-01T13:44:39.000Z</time>
      </trkpt>
      <trkpt lat="36.99992177076637744903564453125" lon="-5.0667697750031948089599609375">
        <ele>483.20001220703125</ele>
        <time>2019-11-01T13:44:41.000Z</time>
      </trkpt>
      <trkpt lat="36.999923028051853179931640625" lon="-5.06701058708131313323974609375">
        <ele>482</ele>
        <time>2019-11-01T13:44:43.000Z</time>
      </trkpt>
      <trkpt lat="36.9999258778989315032958984375" lon="-5.0672633014619350433349609375">
        <ele>482</ele>
        <time>2019-11-01T13:44:45.000Z</time>
      </trkpt>
      <trkpt lat="36.99992277659475803375244140625" lon="-5.06751853041350841522216796875">
        <ele>483</ele>
        <time>2019-11-01T13:44:47.000Z</time>
      </trkpt>
      <trkpt lat="36.99990282766520977020263671875" lon="-5.06777434609830379486083984375">
        <ele>483.20001220703125</ele>
        <time>2019-11-01T13:44:49.000Z</time>
      </trkpt>
      <trkpt lat="36.9998698867857456207275390625" lon="-5.06802747957408428192138671875">
        <ele>481</ele>
        <time>2019-11-01T13:44:51.000Z</time>
      </trkpt>
      <trkpt lat="36.99983107857406139373779296875" lon="-5.06827927194535732269287109375">
        <ele>470.399993896484375</ele>
        <time>2019-11-01T13:44:53.000Z</time>
      </trkpt>
      <trkpt lat="36.9997796975076198577880859375" lon="-5.06853123195469379425048828125">
        <ele>469</ele>
        <time>2019-11-01T13:44:55.000Z</time>
      </trkpt>
      <trkpt lat="36.99972328729927539825439453125" lon="-5.06878000684082508087158203125">
        <ele>466.600006103515625</ele>
        <time>2019-11-01T13:44:57.000Z</time>
      </trkpt>
      <trkpt lat="36.999662183225154876708984375" lon="-5.06903096102178096771240234375">
        <ele>465.20001220703125</ele>
        <time>2019-11-01T13:44:59.000Z</time>
      </trkpt>
      <trkpt lat="36.99960015714168548583984375" lon="-5.06928459741175174713134765625">
        <ele>464.20001220703125</ele>
        <time>2019-11-01T13:45:01.000Z</time>
      </trkpt>
      <trkpt lat="36.99953938834369182586669921875" lon="-5.06954058073461055755615234375">
        <ele>462.79998779296875</ele>
        <time>2019-11-01T13:45:03.000Z</time>
      </trkpt>
      <trkpt lat="36.9994802959263324737548828125" lon="-5.06979891099035739898681640625">
        <ele>460.79998779296875</ele>
        <time>2019-11-01T13:45:05.000Z</time>
      </trkpt>
      <trkpt lat="36.99942179024219512939453125" lon="-5.07006377913057804107666015625">
        <ele>458.399993896484375</ele>
        <time>2019-11-01T13:45:07.000Z</time>
      </trkpt>
      <trkpt lat="36.99936546385288238525390625" lon="-5.07032462395727634429931640625">
        <ele>456.79998779296875</ele>
        <time>2019-11-01T13:45:09.000Z</time>
      </trkpt>
      <trkpt lat="36.99931894429028034210205078125" lon="-5.07058731280267238616943359375">
        <ele>456.20001220703125</ele>
        <time>2019-11-01T13:45:11.000Z</time>
      </trkpt>
      <trkpt lat="36.99928223155438899993896484375" lon="-5.07085335440933704376220703125">
        <ele>455.79998779296875</ele>
        <time>2019-11-01T13:45:13.000Z</time>
      </trkpt>
      <trkpt lat="36.99925012886524200439453125" lon="-5.07111688144505023956298828125">
        <ele>455.20001220703125</ele>
        <time>2019-11-01T13:45:15.000Z</time>
      </trkpt>
      <trkpt lat="36.999228335916996002197265625" lon="-5.07137185893952846527099609375">
        <ele>454.399993896484375</ele>
        <time>2019-11-01T13:45:17.000Z</time>
      </trkpt>
      <trkpt lat="36.99921299703419208526611328125" lon="-5.071616359055042266845703125">
        <ele>454.399993896484375</ele>
        <time>2019-11-01T13:45:19.000Z</time>
      </trkpt>
      <trkpt lat="36.99921349994838237762451171875" lon="-5.07185817696154117584228515625">
        <ele>454.399993896484375</ele>
        <time>2019-11-01T13:45:21.000Z</time>
      </trkpt>
      <trkpt lat="36.99922598898410797119140625" lon="-5.07209471426904201507568359375">
        <ele>454.399993896484375</ele>
        <time>2019-11-01T13:45:23.000Z</time>
      </trkpt>
      <trkpt lat="36.9992476142942905426025390625" lon="-5.07233477197587490081787109375">
        <ele>454</ele>
        <time>2019-11-01T13:45:25.000Z</time>
      </trkpt>
      <trkpt lat="36.99927200563251972198486328125" lon="-5.07256728596985340118408203125">
        <ele>453.399993896484375</ele>
        <time>2019-11-01T13:45:27.000Z</time>
      </trkpt>
      <trkpt lat="36.99929748661816120147705078125" lon="-5.07279024459421634674072265625">
        <ele>452.600006103515625</ele>
        <time>2019-11-01T13:45:29.000Z</time>
      </trkpt>
      <trkpt lat="36.9993354566395282745361328125" lon="-5.0731148757040500640869140625">
        <ele>452.399993896484375</ele>
        <time>2019-11-01T13:45:32.000Z</time>
      </trkpt>
      <trkpt lat="36.99937074445188045501708984375" lon="-5.073422826826572418212890625">
        <ele>452.79998779296875</ele>
        <time>2019-11-01T13:45:35.000Z</time>
      </trkpt>
      <trkpt lat="36.99939454905688762664794921875" lon="-5.07370881736278533935546875">
        <ele>453.20001220703125</ele>
        <time>2019-11-01T13:45:38.000Z</time>
      </trkpt>
      <trkpt lat="36.99942313134670257568359375" lon="-5.07397192530333995819091796875">
        <ele>453.20001220703125</ele>
        <time>2019-11-01T13:45:41.000Z</time>
      </trkpt>
      <trkpt lat="36.99944953434169292449951171875" lon="-5.07422271184623241424560546875">
        <ele>453</ele>
        <time>2019-11-01T13:45:44.000Z</time>
      </trkpt>
      <trkpt lat="36.99946948327124118804931640625" lon="-5.0744586624205112457275390625">
        <ele>451.600006103515625</ele>
        <time>2019-11-01T13:45:47.000Z</time>
      </trkpt>
      <trkpt lat="36.999482810497283935546875" lon="-5.07468539290130138397216796875">
        <ele>450.79998779296875</ele>
        <time>2019-11-01T13:45:50.000Z</time>
      </trkpt>
      <trkpt lat="36.99949957430362701416015625" lon="-5.0749136321246623992919921875">
        <ele>449</ele>
        <time>2019-11-01T13:45:53.000Z</time>
      </trkpt>
      <trkpt lat="36.999513320624828338623046875" lon="-5.075144469738006591796875">
        <ele>447</ele>
        <time>2019-11-01T13:45:56.000Z</time>
      </trkpt>
      <trkpt lat="36.9995222054421901702880859375" lon="-5.0753737986087799072265625">
        <ele>447</ele>
        <time>2019-11-01T13:45:59.000Z</time>
      </trkpt>
      <trkpt lat="36.9995217025279998779296875" lon="-5.07560924626886844635009765625">
        <ele>447.600006103515625</ele>
        <time>2019-11-01T13:46:02.000Z</time>
      </trkpt>
      <trkpt lat="36.99951742775738239288330078125" lon="-5.07585299201309680938720703125">
        <ele>448.399993896484375</ele>
        <time>2019-11-01T13:46:05.000Z</time>
      </trkpt>
      <trkpt lat="36.99950317852199077606201171875" lon="-5.076107718050479888916015625">
        <ele>447.399993896484375</ele>
        <time>2019-11-01T13:46:08.000Z</time>
      </trkpt>
      <trkpt lat="36.99946981854736804962158203125" lon="-5.07635925896465778350830078125">
        <ele>445.20001220703125</ele>
        <time>2019-11-01T13:46:11.000Z</time>
      </trkpt>
      <trkpt lat="36.99942757375538349151611328125" lon="-5.07661641575396060943603515625">
        <ele>443</ele>
        <time>2019-11-01T13:46:14.000Z</time>
      </trkpt>
      <trkpt lat="36.99936990626156330108642578125" lon="-5.07687441073358058929443359375">
        <ele>442.79998779296875</ele>
        <time>2019-11-01T13:46:17.000Z</time>
      </trkpt>
      <trkpt lat="36.999295055866241455078125" lon="-5.07713005878031253814697265625">
        <ele>443</ele>
        <time>2019-11-01T13:46:20.000Z</time>
      </trkpt>
      <trkpt lat="36.99921467341482639312744140625" lon="-5.0773859582841396331787109375">
        <ele>443</ele>
        <time>2019-11-01T13:46:23.000Z</time>
      </trkpt>
      <trkpt lat="36.99912867508828639984130859375" lon="-5.07764453999698162078857421875">
        <ele>443</ele>
        <time>2019-11-01T13:46:26.000Z</time>
      </trkpt>
      <trkpt lat="36.99903429485857486724853515625" lon="-5.07790354080498218536376953125">
        <ele>443.79998779296875</ele>
        <time>2019-11-01T13:46:29.000Z</time>
      </trkpt>
      <trkpt lat="36.99893572367727756500244140625" lon="-5.07817075587809085845947265625">
        <ele>443</ele>
        <time>2019-11-01T13:46:32.000Z</time>
      </trkpt>
      <trkpt lat="36.99883430264890193939208984375" lon="-5.0784501247107982635498046875">
        <ele>442.600006103515625</ele>
        <time>2019-11-01T13:46:35.000Z</time>
      </trkpt>
      <trkpt lat="36.99872575700283050537109375" lon="-5.07873133756220340728759765625">
        <ele>440.79998779296875</ele>
        <time>2019-11-01T13:46:38.000Z</time>
      </trkpt>
      <trkpt lat="36.9986115954816341400146484375" lon="-5.0790127180516719818115234375">
        <ele>439.600006103515625</ele>
        <time>2019-11-01T13:46:41.000Z</time>
      </trkpt>
      <trkpt lat="36.99849818833172321319580078125" lon="-5.07931320928037166595458984375">
        <ele>438.399993896484375</ele>
        <time>2019-11-01T13:46:44.000Z</time>
      </trkpt>
      <trkpt lat="36.99838922359049320220947265625" lon="-5.07961395196616649627685546875">
        <ele>437.79998779296875</ele>
        <time>2019-11-01T13:46:47.000Z</time>
      </trkpt>
      <trkpt lat="36.998285539448261260986328125" lon="-5.079917795956134796142578125">
        <ele>437.399993896484375</ele>
        <time>2019-11-01T13:46:50.000Z</time>
      </trkpt>
      <trkpt lat="36.99817816726863384246826171875" lon="-5.080212838947772979736328125">
        <ele>435.600006103515625</ele>
        <time>2019-11-01T13:46:53.000Z</time>
      </trkpt>
      <trkpt lat="36.9980744831264019012451171875" lon="-5.08049706928431987762451171875">
        <ele>433.79998779296875</ele>
        <time>2019-11-01T13:46:56.000Z</time>
      </trkpt>
      <trkpt lat="36.99798571877181529998779296875" lon="-5.080780796706676483154296875">
        <ele>432.79998779296875</ele>
        <time>2019-11-01T13:46:59.000Z</time>
      </trkpt>
      <trkpt lat="36.9979118742048740386962890625" lon="-5.081061087548732757568359375">
        <ele>432.20001220703125</ele>
        <time>2019-11-01T13:47:02.000Z</time>
      </trkpt>
      <trkpt lat="36.99784155003726482391357421875" lon="-5.08133106864988803863525390625">
        <ele>432.20001220703125</ele>
        <time>2019-11-01T13:47:05.000Z</time>
      </trkpt>
      <trkpt lat="36.99778455309569835662841796875" lon="-5.08160448633134365081787109375">
        <ele>431.600006103515625</ele>
        <time>2019-11-01T13:47:08.000Z</time>
      </trkpt>
      <trkpt lat="36.997735016047954559326171875" lon="-5.08186935447156429290771484375">
        <ele>431.20001220703125</ele>
        <time>2019-11-01T13:47:11.000Z</time>
      </trkpt>
      <trkpt lat="36.9976875744760036468505859375" lon="-5.08213095366954803466796875">
        <ele>431.20001220703125</ele>
        <time>2019-11-01T13:47:14.000Z</time>
      </trkpt>
      <trkpt lat="36.99764407239854335784912109375" lon="-5.08238903246819972991943359375">
        <ele>430</ele>
        <time>2019-11-01T13:47:17.000Z</time>
      </trkpt>
      <trkpt lat="36.997604928910732269287109375" lon="-5.08264635689556598663330078125">
        <ele>429.600006103515625</ele>
        <time>2019-11-01T13:47:20.000Z</time>
      </trkpt>
      <trkpt lat="36.99755874462425708770751953125" lon="-5.08289563469588756561279296875">
        <ele>429.20001220703125</ele>
        <time>2019-11-01T13:47:23.000Z</time>
      </trkpt>
      <trkpt lat="36.99750225059688091278076171875" lon="-5.08314139209687709808349609375">
        <ele>428.600006103515625</ele>
        <time>2019-11-01T13:47:26.000Z</time>
      </trkpt>
      <trkpt lat="36.9974411465227603912353515625" lon="-5.08338488638401031494140625">
        <ele>427.79998779296875</ele>
        <time>2019-11-01T13:47:29.000Z</time>
      </trkpt>
      <trkpt lat="36.9973640330135822296142578125" lon="-5.08361781947314739227294921875">
        <ele>426.600006103515625</ele>
        <time>2019-11-01T13:47:32.000Z</time>
      </trkpt>
      <trkpt lat="36.997276358306407928466796875" lon="-5.08384698070585727691650390625">
        <ele>425.399993896484375</ele>
        <time>2019-11-01T13:47:35.000Z</time>
      </trkpt>
      <trkpt lat="36.99717200361192226409912109375" lon="-5.08406977169215679168701171875">
        <ele>424.20001220703125</ele>
        <time>2019-11-01T13:47:38.000Z</time>
      </trkpt>
      <trkpt lat="36.9970585964620113372802734375" lon="-5.08428803645074367523193359375">
        <ele>423.20001220703125</ele>
        <time>2019-11-01T13:47:41.000Z</time>
      </trkpt>
      <trkpt lat="36.9969378970563411712646484375" lon="-5.0844951532781124114990234375">
        <ele>422.399993896484375</ele>
        <time>2019-11-01T13:47:44.000Z</time>
      </trkpt>
      <trkpt lat="36.99680420570075511932373046875" lon="-5.08469380438327789306640625">
        <ele>422</ele>
        <time>2019-11-01T13:47:47.000Z</time>
      </trkpt>
      <trkpt lat="36.99666037224233150482177734375" lon="-5.0848790444433689117431640625">
        <ele>421.399993896484375</ele>
        <time>2019-11-01T13:47:50.000Z</time>
      </trkpt>
      <trkpt lat="36.99651435948908329010009765625" lon="-5.0850547291338443756103515625">
        <ele>421</ele>
        <time>2019-11-01T13:47:53.000Z</time>
      </trkpt>
      <trkpt lat="36.99636700563132762908935546875" lon="-5.08521775715053081512451171875">
        <ele>421</ele>
        <time>2019-11-01T13:47:56.000Z</time>
      </trkpt>
      <trkpt lat="36.99622132815420627593994140625" lon="-5.08537516929209232330322265625">
        <ele>421</ele>
        <time>2019-11-01T13:47:59.000Z</time>
      </trkpt>
      <trkpt lat="36.9960777461528778076171875" lon="-5.085517577826976776123046875">
        <ele>421.600006103515625</ele>
        <time>2019-11-01T13:48:02.000Z</time>
      </trkpt>
      <trkpt lat="36.99589979834854602813720703125" lon="-5.08570206351578235626220703125">
        <ele>421.79998779296875</ele>
        <time>2019-11-01T13:48:06.000Z</time>
      </trkpt>
      <trkpt lat="36.99572076089680194854736328125" lon="-5.08588545955717563629150390625">
        <ele>421</ele>
        <time>2019-11-01T13:48:10.000Z</time>
      </trkpt>
      <trkpt lat="36.99554289691150188446044921875" lon="-5.08606902323663234710693359375">
        <ele>420.79998779296875</ele>
        <time>2019-11-01T13:48:14.000Z</time>
      </trkpt>
      <trkpt lat="36.99536017142236232757568359375" lon="-5.086250491440296173095703125">
        <ele>420.20001220703125</ele>
        <time>2019-11-01T13:48:18.000Z</time>
      </trkpt>
      <trkpt lat="36.99518658220767974853515625" lon="-5.08642961271107196807861328125">
        <ele>420.79998779296875</ele>
        <time>2019-11-01T13:48:22.000Z</time>
      </trkpt>
      <trkpt lat="36.99502422474324703216552734375" lon="-5.08660110644996166229248046875">
        <ele>421.20001220703125</ele>
        <time>2019-11-01T13:48:26.000Z</time>
      </trkpt>
      <trkpt lat="36.9948702491819858551025390625" lon="-5.086771510541439056396484375">
        <ele>421.20001220703125</ele>
        <time>2019-11-01T13:48:30.000Z</time>
      </trkpt>
      <trkpt lat="36.9947232306003570556640625" lon="-5.08693076670169830322265625">
        <ele>420.20001220703125</ele>
        <time>2019-11-01T13:48:34.000Z</time>
      </trkpt>
      <trkpt lat="36.9945795647799968719482421875" lon="-5.087088681757450103759765625">
        <ele>419.20001220703125</ele>
        <time>2019-11-01T13:48:38.000Z</time>
      </trkpt>
      <trkpt lat="36.9944415986537933349609375" lon="-5.08723628707230091094970703125">
        <ele>419.600006103515625</ele>
        <time>2019-11-01T13:48:42.000Z</time>
      </trkpt>
      <trkpt lat="36.9942764751613140106201171875" lon="-5.0874073617160320281982421875">
        <ele>420.20001220703125</ele>
        <time>2019-11-01T13:48:47.000Z</time>
      </trkpt>
      <trkpt lat="36.99410741217434406280517578125" lon="-5.0875739939510822296142578125">
        <ele>420.79998779296875</ele>
        <time>2019-11-01T13:48:52.000Z</time>
      </trkpt>
      <trkpt lat="36.993945725262165069580078125" lon="-5.0877372734248638153076171875">
        <ele>421</ele>
        <time>2019-11-01T13:48:57.000Z</time>
      </trkpt>
      <trkpt lat="36.99377439916133880615234375" lon="-5.08790331892669200897216796875">
        <ele>421</ele>
        <time>2019-11-01T13:49:02.000Z</time>
      </trkpt>
      <trkpt lat="36.993742547929286956787109375" lon="-5.08793525397777557373046875">
        <ele>421</ele>
        <time>2019-11-01T13:49:03.000Z</time>
      </trkpt>
      <trkpt lat="36.99364339001476764678955078125" lon="-5.08802535943686962127685546875">
        <ele>420.79998779296875</ele>
        <time>2019-11-01T13:49:06.000Z</time>
      </trkpt>
      <trkpt lat="36.993485726416110992431640625" lon="-5.0881660915911197662353515625">
        <ele>420.399993896484375</ele>
        <time>2019-11-01T13:49:11.000Z</time>
      </trkpt>
      <trkpt lat="36.9933276437222957611083984375" lon="-5.08830246515572071075439453125">
        <ele>420.79998779296875</ele>
        <time>2019-11-01T13:49:16.000Z</time>
      </trkpt>
      <trkpt lat="36.99319646693766117095947265625" lon="-5.0884115137159824371337890625">
        <ele>421.20001220703125</ele>
        <time>2019-11-01T13:49:20.000Z</time>
      </trkpt>
      <trkpt lat="36.9930064491927623748779296875" lon="-5.08853472769260406494140625">
        <ele>422</ele>
        <time>2019-11-01T13:49:25.000Z</time>
      </trkpt>
      <trkpt lat="36.99280670844018459320068359375" lon="-5.0886562652885913848876953125">
        <ele>421.20001220703125</ele>
        <time>2019-11-01T13:49:30.000Z</time>
      </trkpt>
      <trkpt lat="36.99264074675738811492919921875" lon="-5.08874603547155857086181640625">
        <ele>420.399993896484375</ele>
        <time>2019-11-01T13:49:34.000Z</time>
      </trkpt>
      <trkpt lat="36.99246548116207122802734375" lon="-5.08882599882781505584716796875">
        <ele>419.79998779296875</ele>
        <time>2019-11-01T13:49:38.000Z</time>
      </trkpt>
      <trkpt lat="36.992280073463916778564453125" lon="-5.08890009485185146331787109375">
        <ele>419.79998779296875</ele>
        <time>2019-11-01T13:49:42.000Z</time>
      </trkpt>
      <trkpt lat="36.9920830987393856048583984375" lon="-5.088982321321964263916015625">
        <ele>420</ele>
        <time>2019-11-01T13:49:46.000Z</time>
      </trkpt>
      <trkpt lat="36.99187983758747577667236328125" lon="-5.089065469801425933837890625">
        <ele>421</ele>
        <time>2019-11-01T13:49:50.000Z</time>
      </trkpt>
      <trkpt lat="36.99166484177112579345703125" lon="-5.08915037848055362701416015625">
        <ele>421.20001220703125</ele>
        <time>2019-11-01T13:49:54.000Z</time>
      </trkpt>
      <trkpt lat="36.99144347570836544036865234375" lon="-5.0892379693686962127685546875">
        <ele>421</ele>
        <time>2019-11-01T13:49:58.000Z</time>
      </trkpt>
      <trkpt lat="36.99123074300587177276611328125" lon="-5.0893191061913967132568359375">
        <ele>421.20001220703125</ele>
        <time>2019-11-01T13:50:02.000Z</time>
      </trkpt>
      <trkpt lat="36.991025470197200775146484375" lon="-5.0893898494541645050048828125">
        <ele>421.600006103515625</ele>
        <time>2019-11-01T13:50:06.000Z</time>
      </trkpt>
      <trkpt lat="36.99082036502659320831298828125" lon="-5.08947744034230709075927734375">
        <ele>421.399993896484375</ele>
        <time>2019-11-01T13:50:10.000Z</time>
      </trkpt>
      <trkpt lat="36.990623809397220611572265625" lon="-5.0895755924284458160400390625">
        <ele>420.79998779296875</ele>
        <time>2019-11-01T13:50:14.000Z</time>
      </trkpt>
      <trkpt lat="36.9904439337551593780517578125" lon="-5.08968246169388294219970703125">
        <ele>419.600006103515625</ele>
        <time>2019-11-01T13:50:18.000Z</time>
      </trkpt>
      <trkpt lat="36.990263722836971282958984375" lon="-5.08981036953628063201904296875">
        <ele>418.600006103515625</ele>
        <time>2019-11-01T13:50:22.000Z</time>
      </trkpt>
      <trkpt lat="36.9900942407548427581787109375" lon="-5.08993945084512233734130859375">
        <ele>418</ele>
        <time>2019-11-01T13:50:26.000Z</time>
      </trkpt>
      <trkpt lat="36.9899353198707103729248046875" lon="-5.090071298182010650634765625">
        <ele>418</ele>
        <time>2019-11-01T13:50:30.000Z</time>
      </trkpt>
      <trkpt lat="36.9897827692329883575439453125" lon="-5.090204067528247833251953125">
        <ele>418.600006103515625</ele>
        <time>2019-11-01T13:50:34.000Z</time>
      </trkpt>
      <trkpt lat="36.98960834182798862457275390625" lon="-5.09037296287715435028076171875">
        <ele>420</ele>
        <time>2019-11-01T13:50:39.000Z</time>
      </trkpt>
      <trkpt lat="36.98945176787674427032470703125" lon="-5.09055049158632755279541015625">
        <ele>420.600006103515625</ele>
        <time>2019-11-01T13:50:44.000Z</time>
      </trkpt>
      <trkpt lat="36.98930474929511547088623046875" lon="-5.09073279798030853271484375">
        <ele>421</ele>
        <time>2019-11-01T13:50:49.000Z</time>
      </trkpt>
      <trkpt lat="36.9891598261892795562744140625" lon="-5.09092231281101703643798828125">
        <ele>422.600006103515625</ele>
        <time>2019-11-01T13:50:54.000Z</time>
      </trkpt>
      <trkpt lat="36.98903066106140613555908203125" lon="-5.0911192037165164947509765625">
        <ele>423.399993896484375</ele>
        <time>2019-11-01T13:50:59.000Z</time>
      </trkpt>
      <trkpt lat="36.9889150746166706085205078125" lon="-5.0913180224597454071044921875">
        <ele>423.399993896484375</ele>
        <time>2019-11-01T13:51:04.000Z</time>
      </trkpt>
      <trkpt lat="36.98880887590348720550537109375" lon="-5.0915004126727581024169921875">
        <ele>423.79998779296875</ele>
        <time>2019-11-01T13:51:09.000Z</time>
      </trkpt>
      <trkpt lat="36.98869429528713226318359375" lon="-5.091730244457721710205078125">
        <ele>423.600006103515625</ele>
        <time>2019-11-01T13:51:15.000Z</time>
      </trkpt>
      <trkpt lat="36.98859580792486667633056640625" lon="-5.0919205136597156524658203125">
        <ele>423.600006103515625</ele>
        <time>2019-11-01T13:51:20.000Z</time>
      </trkpt>
      <trkpt lat="36.988496482372283935546875" lon="-5.09214858524501323699951171875">
        <ele>424</ele>
        <time>2019-11-01T13:51:26.000Z</time>
      </trkpt>
      <trkpt lat="36.98840553872287273406982421875" lon="-5.0923912413418292999267578125">
        <ele>424</ele>
        <time>2019-11-01T13:51:32.000Z</time>
      </trkpt>
      <trkpt lat="36.9883383996784687042236328125" lon="-5.09261093102395534515380859375">
        <ele>423.600006103515625</ele>
        <time>2019-11-01T13:51:37.000Z</time>
      </trkpt>
      <trkpt lat="36.9882787205278873443603515625" lon="-5.09283690713346004486083984375">
        <ele>423.399993896484375</ele>
        <time>2019-11-01T13:51:42.000Z</time>
      </trkpt>
      <trkpt lat="36.9882242381572723388671875" lon="-5.0930614583194255828857421875">
        <ele>423.399993896484375</ele>
        <time>2019-11-01T13:51:47.000Z</time>
      </trkpt>
      <trkpt lat="36.9881801493465900421142578125" lon="-5.0932817347347736358642578125">
        <ele>424</ele>
        <time>2019-11-01T13:51:52.000Z</time>
      </trkpt>
      <trkpt lat="36.98814176023006439208984375" lon="-5.09353964589536190032958984375">
        <ele>424.399993896484375</ele>
        <time>2019-11-01T13:51:58.000Z</time>
      </trkpt>
      <trkpt lat="36.98811233974993228912353515625" lon="-5.0937952101230621337890625">
        <ele>425.600006103515625</ele>
        <time>2019-11-01T13:52:04.000Z</time>
      </trkpt>
      <trkpt lat="36.988083086907863616943359375" lon="-5.09402445517480373382568359375">
        <ele>426.20001220703125</ele>
        <time>2019-11-01T13:52:09.000Z</time>
      </trkpt>
      <trkpt lat="36.9880584441125392913818359375" lon="-5.0942577235400676727294921875">
        <ele>426.20001220703125</ele>
        <time>2019-11-01T13:52:14.000Z</time>
      </trkpt>
      <trkpt lat="36.98803690262138843536376953125" lon="-5.09449350647628307342529296875">
        <ele>425.600006103515625</ele>
        <time>2019-11-01T13:52:19.000Z</time>
      </trkpt>
      <trkpt lat="36.98800320737063884735107421875" lon="-5.09476013481616973876953125">
        <ele>424.79998779296875</ele>
        <time>2019-11-01T13:52:25.000Z</time>
      </trkpt>
      <trkpt lat="36.98797688819468021392822265625" lon="-5.095026008784770965576171875">
        <ele>424.600006103515625</ele>
        <time>2019-11-01T13:52:31.000Z</time>
      </trkpt>
      <trkpt lat="36.9879518263041973114013671875" lon="-5.0952531583607196807861328125">
        <ele>424.79998779296875</ele>
        <time>2019-11-01T13:52:36.000Z</time>
      </trkpt>
      <trkpt lat="36.987932212650775909423828125" lon="-5.09549145586788654327392578125">
        <ele>424.79998779296875</ele>
        <time>2019-11-01T13:52:41.000Z</time>
      </trkpt>
      <trkpt lat="36.98790765367448329925537109375" lon="-5.0957225449383258819580078125">
        <ele>425</ele>
        <time>2019-11-01T13:52:46.000Z</time>
      </trkpt>
      <trkpt lat="36.98788267560303211212158203125" lon="-5.0959490239620208740234375">
        <ele>425.20001220703125</ele>
        <time>2019-11-01T13:52:51.000Z</time>
      </trkpt>
      <trkpt lat="36.98786071501672267913818359375" lon="-5.09618572890758514404296875">
        <ele>425.79998779296875</ele>
        <time>2019-11-01T13:52:56.000Z</time>
      </trkpt>
      <trkpt lat="36.9878353178501129150390625" lon="-5.09641296230256557464599609375">
        <ele>426.399993896484375</ele>
        <time>2019-11-01T13:53:01.000Z</time>
      </trkpt>
      <trkpt lat="36.98779718019068241119384765625" lon="-5.09667078964412212371826171875">
        <ele>426.600006103515625</ele>
        <time>2019-11-01T13:53:07.000Z</time>
      </trkpt>
      <trkpt lat="36.987767927348613739013671875" lon="-5.096892826259136199951171875">
        <ele>426.20001220703125</ele>
        <time>2019-11-01T13:53:12.000Z</time>
      </trkpt>
      <trkpt lat="36.9877436198294162750244140625" lon="-5.0971203111112117767333984375">
        <ele>425.79998779296875</ele>
        <time>2019-11-01T13:53:17.000Z</time>
      </trkpt>
      <trkpt lat="36.987721659243106842041015625" lon="-5.0973545014858245849609375">
        <ele>425.399993896484375</ele>
        <time>2019-11-01T13:53:22.000Z</time>
      </trkpt>
      <trkpt lat="36.98769944719970226287841796875" lon="-5.0975836627185344696044921875">
        <ele>426</ele>
        <time>2019-11-01T13:53:27.000Z</time>
      </trkpt>
      <trkpt lat="36.98767832480370998382568359375" lon="-5.0978086329996585845947265625">
        <ele>426</ele>
        <time>2019-11-01T13:53:32.000Z</time>
      </trkpt>
      <trkpt lat="36.9876510836184024810791015625" lon="-5.0980735011398792266845703125">
        <ele>425.79998779296875</ele>
        <time>2019-11-01T13:53:38.000Z</time>
      </trkpt>
      <trkpt lat="36.987616382539272308349609375" lon="-5.098317749798297882080078125">
        <ele>426.20001220703125</ele>
        <time>2019-11-01T13:53:44.000Z</time>
      </trkpt>
      <trkpt lat="36.98759433813393115997314453125" lon="-5.098557136952877044677734375">
        <ele>426.600006103515625</ele>
        <time>2019-11-01T13:53:50.000Z</time>
      </trkpt>
      <trkpt lat="36.98756039142608642578125" lon="-5.09881689213216304779052734375">
        <ele>427.600006103515625</ele>
        <time>2019-11-01T13:53:57.000Z</time>
      </trkpt>
      <trkpt lat="36.987535916268825531005859375" lon="-5.09905309416353702545166015625">
        <ele>428.399993896484375</ele>
        <time>2019-11-01T13:54:03.000Z</time>
      </trkpt>
      <trkpt lat="36.9875209964811801910400390625" lon="-5.09928879328072071075439453125">
        <ele>428.79998779296875</ele>
        <time>2019-11-01T13:54:09.000Z</time>
      </trkpt>
      <trkpt lat="36.9875188171863555908203125" lon="-5.09954729117453098297119140625">
        <ele>429</ele>
        <time>2019-11-01T13:54:16.000Z</time>
      </trkpt>
      <trkpt lat="36.98751202784478664398193359375" lon="-5.09978047572076320648193359375">
        <ele>429.600006103515625</ele>
        <time>2019-11-01T13:54:22.000Z</time>
      </trkpt>
      <trkpt lat="36.98751487769186496734619140625" lon="-5.10002254508435726165771484375">
        <ele>430</ele>
        <time>2019-11-01T13:54:28.000Z</time>
      </trkpt>
      <trkpt lat="36.98751521296799182891845703125" lon="-5.100254304707050323486328125">
        <ele>430</ele>
        <time>2019-11-01T13:54:34.000Z</time>
      </trkpt>
      <trkpt lat="36.987525187432765960693359375" lon="-5.1004911772906780242919921875">
        <ele>430.20001220703125</ele>
        <time>2019-11-01T13:54:40.000Z</time>
      </trkpt>
      <trkpt lat="36.98753734119236469268798828125" lon="-5.10074271820485591888427734375">
        <ele>431</ele>
        <time>2019-11-01T13:54:47.000Z</time>
      </trkpt>
      <trkpt lat="36.98755703866481781005859375" lon="-5.10099551640450954437255859375">
        <ele>431.20001220703125</ele>
        <time>2019-11-01T13:54:54.000Z</time>
      </trkpt>
      <trkpt lat="36.98757606558501720428466796875" lon="-5.1012432016432285308837890625">
        <ele>432.79998779296875</ele>
        <time>2019-11-01T13:55:01.000Z</time>
      </trkpt>
      <trkpt lat="36.98759517632424831390380859375" lon="-5.101467669010162353515625">
        <ele>433.600006103515625</ele>
        <time>2019-11-01T13:55:08.000Z</time>
      </trkpt>
      <trkpt lat="36.98762401007115840911865234375" lon="-5.10168987326323986053466796875">
        <ele>434.399993896484375</ele>
        <time>2019-11-01T13:55:15.000Z</time>
      </trkpt>
      <trkpt lat="36.98765167035162448883056640625" lon="-5.1019409112632274627685546875">
        <ele>435</ele>
        <time>2019-11-01T13:55:23.000Z</time>
      </trkpt>
      <trkpt lat="36.9876836054027080535888671875" lon="-5.102178119122982025146484375">
        <ele>435.20001220703125</ele>
        <time>2019-11-01T13:55:31.000Z</time>
      </trkpt>
      <trkpt lat="36.98772258125245571136474609375" lon="-5.10242463089525699615478515625">
        <ele>436.600006103515625</ele>
        <time>2019-11-01T13:55:39.000Z</time>
      </trkpt>
      <trkpt lat="36.98775828815996646881103515625" lon="-5.10266686789691448211669921875">
        <ele>438.399993896484375</ele>
        <time>2019-11-01T13:55:47.000Z</time>
      </trkpt>
      <trkpt lat="36.987794078886508941650390625" lon="-5.10291061364114284515380859375">
        <ele>439.79998779296875</ele>
        <time>2019-11-01T13:55:55.000Z</time>
      </trkpt>
      <trkpt lat="36.987835653126239776611328125" lon="-5.10314849205315113067626953125">
        <ele>441.600006103515625</ele>
        <time>2019-11-01T13:56:03.000Z</time>
      </trkpt>
      <trkpt lat="36.9878750480711460113525390625" lon="-5.10339072905480861663818359375">
        <ele>442.600006103515625</ele>
        <time>2019-11-01T13:56:11.000Z</time>
      </trkpt>
      <trkpt lat="36.9879179634153842926025390625" lon="-5.10363162495195865631103515625">
        <ele>443.600006103515625</ele>
        <time>2019-11-01T13:56:19.000Z</time>
      </trkpt>
      <trkpt lat="36.98795140720903873443603515625" lon="-5.1038747839629650115966796875">
        <ele>445</ele>
        <time>2019-11-01T13:56:27.000Z</time>
      </trkpt>
      <trkpt lat="36.98799214325845241546630859375" lon="-5.1040970720350742340087890625">
        <ele>446.79998779296875</ele>
        <time>2019-11-01T13:56:34.000Z</time>
      </trkpt>
      <trkpt lat="36.9880312867462635040283203125" lon="-5.10432489216327667236328125">
        <ele>448.600006103515625</ele>
        <time>2019-11-01T13:56:41.000Z</time>
      </trkpt>
      <trkpt lat="36.9880671612918376922607421875" lon="-5.10455279611051082611083984375">
        <ele>449.600006103515625</ele>
        <time>2019-11-01T13:56:48.000Z</time>
      </trkpt>
      <trkpt lat="36.98810747824609279632568359375" lon="-5.1048034988343715667724609375">
        <ele>451</ele>
        <time>2019-11-01T13:56:56.000Z</time>
      </trkpt>
      <trkpt lat="36.98814938776195049285888671875" lon="-5.1050283014774322509765625">
        <ele>451.600006103515625</ele>
        <time>2019-11-01T13:57:03.000Z</time>
      </trkpt>
      <trkpt lat="36.98819330893456935882568359375" lon="-5.105276741087436676025390625">
        <ele>452.399993896484375</ele>
        <time>2019-11-01T13:57:11.000Z</time>
      </trkpt>
      <trkpt lat="36.9882307760417461395263671875" lon="-5.10550699196755886077880859375">
        <ele>453.20001220703125</ele>
        <time>2019-11-01T13:57:18.000Z</time>
      </trkpt>
      <trkpt lat="36.988273523747920989990234375" lon="-5.10574621148407459259033203125">
        <ele>453.79998779296875</ele>
        <time>2019-11-01T13:57:25.000Z</time>
      </trkpt>
      <trkpt lat="36.98831032030284404754638671875" lon="-5.1060014404356479644775390625">
        <ele>453.79998779296875</ele>
        <time>2019-11-01T13:57:33.000Z</time>
      </trkpt>
      <trkpt lat="36.9883491285145282745361328125" lon="-5.10622632689774036407470703125">
        <ele>452.399993896484375</ele>
        <time>2019-11-01T13:57:39.000Z</time>
      </trkpt>
      <trkpt lat="36.988387517631053924560546875" lon="-5.106461606919765472412109375">
        <ele>451.600006103515625</ele>
        <time>2019-11-01T13:57:46.000Z</time>
      </trkpt>
      <trkpt lat="36.98842247016727924346923828125" lon="-5.10668431408703327178955078125">
        <ele>450.600006103515625</ele>
        <time>2019-11-01T13:57:55.000Z</time>
      </trkpt>
      <trkpt lat="36.98845700360834598541259765625" lon="-5.10690576396882534027099609375">
        <ele>450.20001220703125</ele>
        <time>2019-11-01T13:58:01.000Z</time>
      </trkpt>
      <trkpt lat="36.98849606327712535858154296875" lon="-5.1071500964462757110595703125">
        <ele>449.600006103515625</ele>
        <time>2019-11-01T13:58:07.000Z</time>
      </trkpt>
      <trkpt lat="36.98853981681168079376220703125" lon="-5.1073837839066982269287109375">
        <ele>449</ele>
        <time>2019-11-01T13:58:13.000Z</time>
      </trkpt>
      <trkpt lat="36.98858239687979221343994140625" lon="-5.1076107658445835113525390625">
        <ele>447.600006103515625</ele>
        <time>2019-11-01T13:58:18.000Z</time>
      </trkpt>
      <trkpt lat="36.9886300899088382720947265625" lon="-5.10788879357278347015380859375">
        <ele>446.20001220703125</ele>
        <time>2019-11-01T13:58:23.000Z</time>
      </trkpt>
      <trkpt lat="36.98866319842636585235595703125" lon="-5.10811024345457553863525390625">
        <ele>445.600006103515625</ele>
        <time>2019-11-01T13:58:27.000Z</time>
      </trkpt>
      <trkpt lat="36.9887095503509044647216796875" lon="-5.1083864271640777587890625">
        <ele>445.20001220703125</ele>
        <time>2019-11-01T13:58:32.000Z</time>
      </trkpt>
      <trkpt lat="36.988751627504825592041015625" lon="-5.10864056646823883056640625">
        <ele>445.399993896484375</ele>
        <time>2019-11-01T13:58:37.000Z</time>
      </trkpt>
      <trkpt lat="36.98879412375390529632568359375" lon="-5.10889210738241672515869140625">
        <ele>445.600006103515625</ele>
        <time>2019-11-01T13:58:42.000Z</time>
      </trkpt>
      <trkpt lat="36.988837458193302154541015625" lon="-5.10917088948190212249755859375">
        <ele>444.20001220703125</ele>
        <time>2019-11-01T13:58:47.000Z</time>
      </trkpt>
      <trkpt lat="36.98887442238628864288330078125" lon="-5.109406672418117523193359375">
        <ele>443.20001220703125</ele>
        <time>2019-11-01T13:58:51.000Z</time>
      </trkpt>
      <trkpt lat="36.98890007100999355316162109375" lon="-5.10965578258037567138671875">
        <ele>442.600006103515625</ele>
        <time>2019-11-01T13:58:55.000Z</time>
      </trkpt>
      <trkpt lat="36.988907195627689361572265625" lon="-5.10990522801876068115234375">
        <ele>443.399993896484375</ele>
        <time>2019-11-01T13:58:59.000Z</time>
      </trkpt>
      <trkpt lat="36.9888999871909618377685546875" lon="-5.11014352552592754364013671875">
        <ele>444.399993896484375</ele>
        <time>2019-11-01T13:59:03.000Z</time>
      </trkpt>
      <trkpt lat="36.98886889033019542694091796875" lon="-5.11041409336030483245849609375">
        <ele>444.600006103515625</ele>
        <time>2019-11-01T13:59:08.000Z</time>
      </trkpt>
      <trkpt lat="36.98882035911083221435546875" lon="-5.1106802187860012054443359375">
        <ele>443.79998779296875</ele>
        <time>2019-11-01T13:59:13.000Z</time>
      </trkpt>
      <trkpt lat="36.98876512236893177032470703125" lon="-5.11091248132288455963134765625">
        <ele>443.20001220703125</ele>
        <time>2019-11-01T13:59:17.000Z</time>
      </trkpt>
      <trkpt lat="36.9887038506567478179931640625" lon="-5.11115287430584430694580078125">
        <ele>442.79998779296875</ele>
        <time>2019-11-01T13:59:21.000Z</time>
      </trkpt>
      <trkpt lat="36.98863453231751918792724609375" lon="-5.1113967038691043853759765625">
        <ele>442.399993896484375</ele>
        <time>2019-11-01T13:59:25.000Z</time>
      </trkpt>
      <trkpt lat="36.9885595142841339111328125" lon="-5.11162008158862590789794921875">
        <ele>443</ele>
        <time>2019-11-01T13:59:29.000Z</time>
      </trkpt>
      <trkpt lat="36.98846940882503986358642578125" lon="-5.11183046735823154449462890625">
        <ele>443</ele>
        <time>2019-11-01T13:59:33.000Z</time>
      </trkpt>
      <trkpt lat="36.9883752800524234771728515625" lon="-5.1120367459952831268310546875">
        <ele>443</ele>
        <time>2019-11-01T13:59:37.000Z</time>
      </trkpt>
      <trkpt lat="36.988274864852428436279296875" lon="-5.11222810484468936920166015625">
        <ele>442.600006103515625</ele>
        <time>2019-11-01T13:59:41.000Z</time>
      </trkpt>
      <trkpt lat="36.988142430782318115234375" lon="-5.11244184337556362152099609375">
        <ele>442</ele>
        <time>2019-11-01T13:59:46.000Z</time>
      </trkpt>
      <trkpt lat="36.98811703361570835113525390625" lon="-5.1124783046543598175048828125">
        <ele>442</ele>
        <time>2019-11-01T13:59:47.000Z</time>
      </trkpt>
      <trkpt lat="36.98798560537397861480712890625" lon="-5.1126565039157867431640625">
        <ele>441.79998779296875</ele>
        <time>2019-11-01T13:59:53.000Z</time>
      </trkpt>
      <trkpt lat="36.9878889620304107666015625" lon="-5.112750045955181121826171875">
        <ele>441.600006103515625</ele>
        <time>2019-11-01T13:59:58.000Z</time>
      </trkpt>
      <trkpt lat="36.98776063509285449981689453125" lon="-5.11286278255283832550048828125">
        <ele>441.20001220703125</ele>
        <time>2019-11-01T14:00:03.000Z</time>
      </trkpt>
      <trkpt lat="36.98761328123509883880615234375" lon="-5.11299219913780689239501953125">
        <ele>441</ele>
        <time>2019-11-01T14:00:08.000Z</time>
      </trkpt>
      <trkpt lat="36.98744597844779491424560546875" lon="-5.11312295682728290557861328125">
        <ele>441.600006103515625</ele>
        <time>2019-11-01T14:00:13.000Z</time>
      </trkpt>
      <trkpt lat="36.9872658513486385345458984375" lon="-5.1132591627538204193115234375">
        <ele>442.399993896484375</ele>
        <time>2019-11-01T14:00:18.000Z</time>
      </trkpt>
      <trkpt lat="36.98709410615265369415283203125" lon="-5.1133724860846996307373046875">
        <ele>443.399993896484375</ele>
        <time>2019-11-01T14:00:23.000Z</time>
      </trkpt>
      <trkpt lat="36.98691925965249538421630859375" lon="-5.11348673142492771148681640625">
        <ele>444</ele>
        <time>2019-11-01T14:00:28.000Z</time>
      </trkpt>
      <trkpt lat="36.98672362603247165679931640625" lon="-5.113588906824588775634765625">
        <ele>445.20001220703125</ele>
        <time>2019-11-01T14:00:33.000Z</time>
      </trkpt>
      <trkpt lat="36.9865263998508453369140625" lon="-5.11366912163794040679931640625">
        <ele>446.79998779296875</ele>
        <time>2019-11-01T14:00:38.000Z</time>
      </trkpt>
      <trkpt lat="36.9863381423056125640869140625" lon="-5.11373014189302921295166015625">
        <ele>446.79998779296875</ele>
        <time>2019-11-01T14:00:43.000Z</time>
      </trkpt>
      <trkpt lat="36.98614829219877719879150390625" lon="-5.1137721352279186248779296875">
        <ele>447</ele>
        <time>2019-11-01T14:00:48.000Z</time>
      </trkpt>
      <trkpt lat="36.98595567606389522552490234375" lon="-5.1137956045567989349365234375">
        <ele>447.20001220703125</ele>
        <time>2019-11-01T14:00:53.000Z</time>
      </trkpt>
      <trkpt lat="36.9857539236545562744140625" lon="-5.11380323208868503570556640625">
        <ele>446.600006103515625</ele>
        <time>2019-11-01T14:00:58.000Z</time>
      </trkpt>
      <trkpt lat="36.9855542667210102081298828125" lon="-5.1137969456613063812255859375">
        <ele>446.20001220703125</ele>
        <time>2019-11-01T14:01:03.000Z</time>
      </trkpt>
      <trkpt lat="36.9853598065674304962158203125" lon="-5.1137852109968662261962890625">
        <ele>446.20001220703125</ele>
        <time>2019-11-01T14:01:08.000Z</time>
      </trkpt>
      <trkpt lat="36.98516048491001129150390625" lon="-5.113747827708721160888671875">
        <ele>446.600006103515625</ele>
        <time>2019-11-01T14:01:13.000Z</time>
      </trkpt>
      <trkpt lat="36.984955631196498870849609375" lon="-5.11369929648935794830322265625">
        <ele>448.600006103515625</ele>
        <time>2019-11-01T14:01:18.000Z</time>
      </trkpt>
      <trkpt lat="36.984755136072635650634765625" lon="-5.1136303134262561798095703125">
        <ele>450.399993896484375</ele>
        <time>2019-11-01T14:01:23.000Z</time>
      </trkpt>
      <trkpt lat="36.98455204255878925323486328125" lon="-5.113551355898380279541015625">
        <ele>451.600006103515625</ele>
        <time>2019-11-01T14:01:28.000Z</time>
      </trkpt>
      <trkpt lat="36.9843439199030399322509765625" lon="-5.1134754158556461334228515625">
        <ele>451.600006103515625</ele>
        <time>2019-11-01T14:01:33.000Z</time>
      </trkpt>
      <trkpt lat="36.98414434678852558135986328125" lon="-5.11339738033711910247802734375">
        <ele>451.20001220703125</ele>
        <time>2019-11-01T14:01:38.000Z</time>
      </trkpt>
      <trkpt lat="36.98394284583628177642822265625" lon="-5.11332211084663867950439453125">
        <ele>451</ele>
        <time>2019-11-01T14:01:43.000Z</time>
      </trkpt>
      <trkpt lat="36.9837407581508159637451171875" lon="-5.11324751190841197967529296875">
        <ele>451.20001220703125</ele>
        <time>2019-11-01T14:01:48.000Z</time>
      </trkpt>
      <trkpt lat="36.98353967629373073577880859375" lon="-5.11316771619021892547607421875">
        <ele>452</ele>
        <time>2019-11-01T14:01:53.000Z</time>
      </trkpt>
      <trkpt lat="36.9833437912166118621826171875" lon="-5.1130814664065837860107421875">
        <ele>453.20001220703125</ele>
        <time>2019-11-01T14:01:58.000Z</time>
      </trkpt>
      <trkpt lat="36.98314053006470203399658203125" lon="-5.11300108395516872406005859375">
        <ele>454</ele>
        <time>2019-11-01T14:02:03.000Z</time>
      </trkpt>
      <trkpt lat="36.98293902911245822906494140625" lon="-5.11291927658021450042724609375">
        <ele>454.399993896484375</ele>
        <time>2019-11-01T14:02:08.000Z</time>
      </trkpt>
      <trkpt lat="36.98272814042866230010986328125" lon="-5.11282942257821559906005859375">
        <ele>454</ele>
        <time>2019-11-01T14:02:13.000Z</time>
      </trkpt>
      <trkpt lat="36.9825555570423603057861328125" lon="-5.11275641620159149169921875">
        <ele>453.20001220703125</ele>
        <time>2019-11-01T14:02:17.000Z</time>
      </trkpt>
      <trkpt lat="36.98236763477325439453125" lon="-5.11267771013081073760986328125">
        <ele>453</ele>
        <time>2019-11-01T14:02:22.000Z</time>
      </trkpt>
      <trkpt lat="36.98217862285673618316650390625" lon="-5.112599171698093414306640625">
        <ele>453.20001220703125</ele>
        <time>2019-11-01T14:02:27.000Z</time>
      </trkpt>
      <trkpt lat="36.98196924291551113128662109375" lon="-5.11252499185502529144287109375">
        <ele>453.79998779296875</ele>
        <time>2019-11-01T14:02:32.000Z</time>
      </trkpt>
      <trkpt lat="36.9817914627492427825927734375" lon="-5.11246279813349246978759765625">
        <ele>453.79998779296875</ele>
        <time>2019-11-01T14:02:36.000Z</time>
      </trkpt>
      <trkpt lat="36.98161435313522815704345703125" lon="-5.11241150088608264923095703125">
        <ele>453.79998779296875</ele>
        <time>2019-11-01T14:02:40.000Z</time>
      </trkpt>
      <trkpt lat="36.9814089126884937286376953125" lon="-5.1123565994203090667724609375">
        <ele>453.600006103515625</ele>
        <time>2019-11-01T14:02:45.000Z</time>
      </trkpt>
      <trkpt lat="36.9812285341322422027587890625" lon="-5.1123234070837497711181640625">
        <ele>453</ele>
        <time>2019-11-01T14:02:49.000Z</time>
      </trkpt>
      <trkpt lat="36.98100482113659381866455078125" lon="-5.11229666881263256072998046875">
        <ele>453.600006103515625</ele>
        <time>2019-11-01T14:02:54.000Z</time>
      </trkpt>
      <trkpt lat="36.98078873567283153533935546875" lon="-5.11229298077523708343505859375">
        <ele>455.20001220703125</ele>
        <time>2019-11-01T14:02:59.000Z</time>
      </trkpt>
      <trkpt lat="36.98057801462709903717041015625" lon="-5.11230085976421833038330078125">
        <ele>455</ele>
        <time>2019-11-01T14:03:04.000Z</time>
      </trkpt>
      <trkpt lat="36.98037140071392059326171875" lon="-5.11232047341763973236083984375">
        <ele>454.600006103515625</ele>
        <time>2019-11-01T14:03:09.000Z</time>
      </trkpt>
      <trkpt lat="36.98019060306251049041748046875" lon="-5.11236355639994144439697265625">
        <ele>454.600006103515625</ele>
        <time>2019-11-01T14:03:13.000Z</time>
      </trkpt>
      <trkpt lat="36.98001793585717678070068359375" lon="-5.11243916116654872894287109375">
        <ele>455.399993896484375</ele>
        <time>2019-11-01T14:03:17.000Z</time>
      </trkpt>
      <trkpt lat="36.97984945960342884063720703125" lon="-5.112530775368213653564453125">
        <ele>456</ele>
        <time>2019-11-01T14:03:21.000Z</time>
      </trkpt>
      <trkpt lat="36.979689784348011016845703125" lon="-5.1126389019191265106201171875">
        <ele>455</ele>
        <time>2019-11-01T14:03:25.000Z</time>
      </trkpt>
      <trkpt lat="36.97953228838741779327392578125" lon="-5.1127656362950801849365234375">
        <ele>454.399993896484375</ele>
        <time>2019-11-01T14:03:29.000Z</time>
      </trkpt>
      <trkpt lat="36.97934486903250217437744140625" lon="-5.11292229406535625457763671875">
        <ele>454.20001220703125</ele>
        <time>2019-11-01T14:03:34.000Z</time>
      </trkpt>
      <trkpt lat="36.97918980382382869720458984375" lon="-5.11304936371743679046630859375">
        <ele>454</ele>
        <time>2019-11-01T14:03:38.000Z</time>
      </trkpt>
      <trkpt lat="36.97901177220046520233154296875" lon="-5.11320694349706172943115234375">
        <ele>454</ele>
        <time>2019-11-01T14:03:43.000Z</time>
      </trkpt>
      <trkpt lat="36.978844217956066131591796875" lon="-5.1133691333234310150146484375">
        <ele>453.399993896484375</ele>
        <time>2019-11-01T14:03:48.000Z</time>
      </trkpt>
      <trkpt lat="36.97868873365223407745361328125" lon="-5.11354674585163593292236328125">
        <ele>453.79998779296875</ele>
        <time>2019-11-01T14:03:53.000Z</time>
      </trkpt>
      <trkpt lat="36.97854221798479557037353515625" lon="-5.1137376017868518829345703125">
        <ele>456.20001220703125</ele>
        <time>2019-11-01T14:03:58.000Z</time>
      </trkpt>
      <trkpt lat="36.9784055091440677642822265625" lon="-5.1139466464519500732421875">
        <ele>458.79998779296875</ele>
        <time>2019-11-01T14:04:03.000Z</time>
      </trkpt>
      <trkpt lat="36.97827433235943317413330078125" lon="-5.1141687668859958648681640625">
        <ele>460.600006103515625</ele>
        <time>2019-11-01T14:04:08.000Z</time>
      </trkpt>
      <trkpt lat="36.97815698571503162384033203125" lon="-5.1143910549581050872802734375">
        <ele>461</ele>
        <time>2019-11-01T14:04:13.000Z</time>
      </trkpt>
      <trkpt lat="36.9780417345464229583740234375" lon="-5.11461778543889522552490234375">
        <ele>461</ele>
        <time>2019-11-01T14:04:18.000Z</time>
      </trkpt>
      <trkpt lat="36.97792162187397480010986328125" lon="-5.1148349605500698089599609375">
        <ele>460.20001220703125</ele>
        <time>2019-11-01T14:04:23.000Z</time>
      </trkpt>
      <trkpt lat="36.97778834961354732513427734375" lon="-5.11504174210131168365478515625">
        <ele>458.79998779296875</ele>
        <time>2019-11-01T14:04:28.000Z</time>
      </trkpt>
      <trkpt lat="36.97765222750604152679443359375" lon="-5.11524793691933155059814453125">
        <ele>458.20001220703125</ele>
        <time>2019-11-01T14:04:33.000Z</time>
      </trkpt>
      <trkpt lat="36.97752046398818492889404296875" lon="-5.1154562272131443023681640625">
        <ele>458</ele>
        <time>2019-11-01T14:04:38.000Z</time>
      </trkpt>
      <trkpt lat="36.97740018367767333984375" lon="-5.11567960493266582489013671875">
        <ele>459.20001220703125</ele>
        <time>2019-11-01T14:04:43.000Z</time>
      </trkpt>
      <trkpt lat="36.9772766344249248504638671875" lon="-5.1158937625586986541748046875">
        <ele>458.79998779296875</ele>
        <time>2019-11-01T14:04:48.000Z</time>
      </trkpt>
      <trkpt lat="36.9771676696836948394775390625" lon="-5.1161140389740467071533203125">
        <ele>458</ele>
        <time>2019-11-01T14:04:53.000Z</time>
      </trkpt>
      <trkpt lat="36.97706423699855804443359375" lon="-5.1163209043443202972412109375">
        <ele>457.399993896484375</ele>
        <time>2019-11-01T14:04:58.000Z</time>
      </trkpt>
      <trkpt lat="36.9769661687314510345458984375" lon="-5.11651947163045406341552734375">
        <ele>458.79998779296875</ele>
        <time>2019-11-01T14:05:03.000Z</time>
      </trkpt>
      <trkpt lat="36.97687916457653045654296875" lon="-5.1167205534875392913818359375">
        <ele>459.20001220703125</ele>
        <time>2019-11-01T14:05:08.000Z</time>
      </trkpt>
      <trkpt lat="36.97678587399423122406005859375" lon="-5.116959102451801300048828125">
        <ele>459.600006103515625</ele>
        <time>2019-11-01T14:05:14.000Z</time>
      </trkpt>
      <trkpt lat="36.9766961038112640380859375" lon="-5.11719371192157268524169921875">
        <ele>460</ele>
        <time>2019-11-01T14:05:20.000Z</time>
      </trkpt>
      <trkpt lat="36.976613961160182952880859375" lon="-5.11743108741939067840576171875">
        <ele>460.600006103515625</ele>
        <time>2019-11-01T14:05:26.000Z</time>
      </trkpt>
      <trkpt lat="36.9765333272516727447509765625" lon="-5.11765890754759311676025390625">
        <ele>461</ele>
        <time>2019-11-01T14:05:32.000Z</time>
      </trkpt>
      <trkpt lat="36.9764588959515094757080078125" lon="-5.1178789325058460235595703125">
        <ele>461</ele>
        <time>2019-11-01T14:05:38.000Z</time>
      </trkpt>
      <trkpt lat="36.97639041580259799957275390625" lon="-5.11810633353888988494873046875">
        <ele>461.20001220703125</ele>
        <time>2019-11-01T14:05:45.000Z</time>
      </trkpt>
      <trkpt lat="36.97633224539458751678466796875" lon="-5.118349157273769378662109375">
        <ele>461.20001220703125</ele>
        <time>2019-11-01T14:05:53.000Z</time>
      </trkpt>
      <trkpt lat="36.976282037794589996337890625" lon="-5.1185654103755950927734375">
        <ele>460.600006103515625</ele>
        <time>2019-11-01T14:06:00.000Z</time>
      </trkpt>
      <trkpt lat="36.97623551823198795318603515625" lon="-5.11879683472216129302978515625">
        <ele>460</ele>
        <time>2019-11-01T14:06:07.000Z</time>
      </trkpt>
      <trkpt lat="36.9761943630874156951904296875" lon="-5.1190321147441864013671875">
        <ele>460.399993896484375</ele>
        <time>2019-11-01T14:06:14.000Z</time>
      </trkpt>
      <trkpt lat="36.97616091929376125335693359375" lon="-5.1192663051187992095947265625">
        <ele>460.79998779296875</ele>
        <time>2019-11-01T14:06:21.000Z</time>
      </trkpt>
      <trkpt lat="36.9761328399181365966796875" lon="-5.119501166045665740966796875">
        <ele>461.399993896484375</ele>
        <time>2019-11-01T14:06:28.000Z</time>
      </trkpt>
      <trkpt lat="36.97609520517289638519287109375" lon="-5.1197296567261219024658203125">
        <ele>461.79998779296875</ele>
        <time>2019-11-01T14:06:35.000Z</time>
      </trkpt>
      <trkpt lat="36.97605899535119533538818359375" lon="-5.119957812130451202392578125">
        <ele>462</ele>
        <time>2019-11-01T14:06:42.000Z</time>
      </trkpt>
      <trkpt lat="36.97602530010044574737548828125" lon="-5.12020214460790157318115234375">
        <ele>462.20001220703125</ele>
        <time>2019-11-01T14:06:49.000Z</time>
      </trkpt>
      <trkpt lat="36.97598959319293498992919921875" lon="-5.12044538743793964385986328125">
        <ele>462.399993896484375</ele>
        <time>2019-11-01T14:06:56.000Z</time>
      </trkpt>
      <trkpt lat="36.9759611785411834716796875" lon="-5.120694078505039215087890625">
        <ele>463.79998779296875</ele>
        <time>2019-11-01T14:07:03.000Z</time>
      </trkpt>
      <trkpt lat="36.97591868229210376739501953125" lon="-5.12093438766896724700927734375">
        <ele>465.600006103515625</ele>
        <time>2019-11-01T14:07:10.000Z</time>
      </trkpt>
      <trkpt lat="36.97588381357491016387939453125" lon="-5.12118182145059108734130859375">
        <ele>467</ele>
        <time>2019-11-01T14:07:17.000Z</time>
      </trkpt>
      <trkpt lat="36.97584374807775020599365234375" lon="-5.121402852237224578857421875">
        <ele>468.20001220703125</ele>
        <time>2019-11-01T14:07:23.000Z</time>
      </trkpt>
      <trkpt lat="36.97578272782266139984130859375" lon="-5.1216182671487331390380859375">
        <ele>469.20001220703125</ele>
        <time>2019-11-01T14:07:29.000Z</time>
      </trkpt>
      <trkpt lat="36.97569890879094600677490234375" lon="-5.121855475008487701416015625">
        <ele>471.20001220703125</ele>
        <time>2019-11-01T14:07:36.000Z</time>
      </trkpt>
      <trkpt lat="36.9756083004176616668701171875" lon="-5.1220591552555561065673828125">
        <ele>471.20001220703125</ele>
        <time>2019-11-01T14:07:42.000Z</time>
      </trkpt>
      <trkpt lat="36.9755132496356964111328125" lon="-5.12225453741848468780517578125">
        <ele>469.79998779296875</ele>
        <time>2019-11-01T14:07:48.000Z</time>
      </trkpt>
      <trkpt lat="36.97541425935924053192138671875" lon="-5.12245235033333301544189453125">
        <ele>468</ele>
        <time>2019-11-01T14:07:54.000Z</time>
      </trkpt>
      <trkpt lat="36.97530378587543964385986328125" lon="-5.12266910634934902191162109375">
        <ele>466.79998779296875</ele>
        <time>2019-11-01T14:08:00.000Z</time>
      </trkpt>
      <trkpt lat="36.97520856745541095733642578125" lon="-5.12286172248423099517822265625">
        <ele>467.20001220703125</ele>
        <time>2019-11-01T14:08:06.000Z</time>
      </trkpt>
      <trkpt lat="36.97510060854256153106689453125" lon="-5.1230659894645214080810546875">
        <ele>467.79998779296875</ele>
        <time>2019-11-01T14:08:12.000Z</time>
      </trkpt>
      <trkpt lat="36.9749994389712810516357421875" lon="-5.12326774187386035919189453125">
        <ele>468.600006103515625</ele>
        <time>2019-11-01T14:08:18.000Z</time>
      </trkpt>
      <trkpt lat="36.97488971985876560211181640625" lon="-5.12347393669188022613525390625">
        <ele>469</ele>
        <time>2019-11-01T14:08:24.000Z</time>
      </trkpt>
      <trkpt lat="36.97477974928915500640869140625" lon="-5.1236701570451259613037109375">
        <ele>469.600006103515625</ele>
        <time>2019-11-01T14:08:30.000Z</time>
      </trkpt>
      <trkpt lat="36.97466860525310039520263671875" lon="-5.12386369518935680389404296875">
        <ele>470</ele>
        <time>2019-11-01T14:08:36.000Z</time>
      </trkpt>
      <trkpt lat="36.97454824112355709075927734375" lon="-5.124051868915557861328125">
        <ele>469.600006103515625</ele>
        <time>2019-11-01T14:08:42.000Z</time>
      </trkpt>
      <trkpt lat="36.9744737260043621063232421875" lon="-5.12426309287548065185546875">
        <ele>469.20001220703125</ele>
        <time>2019-11-01T14:08:49.000Z</time>
      </trkpt>
      <trkpt lat="36.9744874723255634307861328125" lon="-5.12430910952389240264892578125">
        <ele>469.600006103515625</ele>
        <time>2019-11-01T14:08:56.000Z</time>
      </trkpt>
      <trkpt lat="36.97449333965778350830078125" lon="-5.12421372346580028533935546875">
        <ele>469.399993896484375</ele>
        <time>2019-11-01T14:11:05.000Z</time>
      </trkpt>
      <trkpt lat="36.9743999652564525604248046875" lon="-5.1242729835212230682373046875">
        <ele>468.20001220703125</ele>
        <time>2019-11-01T14:11:10.000Z</time>
      </trkpt>
      <trkpt lat="36.97425386868417263031005859375" lon="-5.124431736767292022705078125">
        <ele>467.399993896484375</ele>
        <time>2019-11-01T14:11:17.000Z</time>
      </trkpt>
      <trkpt lat="36.97411472909152507781982421875" lon="-5.12459157966077327728271484375">
        <ele>468.20001220703125</ele>
        <time>2019-11-01T14:11:23.000Z</time>
      </trkpt>
      <trkpt lat="36.97395932860672473907470703125" lon="-5.124762989580631256103515625">
        <ele>468</ele>
        <time>2019-11-01T14:11:29.000Z</time>
      </trkpt>
      <trkpt lat="36.97379521094262599945068359375" lon="-5.12493909336626529693603515625">
        <ele>467.600006103515625</ele>
        <time>2019-11-01T14:11:35.000Z</time>
      </trkpt>
      <trkpt lat="36.9736512936651706695556640625" lon="-5.12509985826909542083740234375">
        <ele>467.79998779296875</ele>
        <time>2019-11-01T14:11:40.000Z</time>
      </trkpt>
      <trkpt lat="36.97350896894931793212890625" lon="-5.12525006197392940521240234375">
        <ele>468</ele>
        <time>2019-11-01T14:11:45.000Z</time>
      </trkpt>
      <trkpt lat="36.9733733497560024261474609375" lon="-5.12539900839328765869140625">
        <ele>469</ele>
        <time>2019-11-01T14:11:50.000Z</time>
      </trkpt>
      <trkpt lat="36.97323597036302089691162109375" lon="-5.12555147521197795867919921875">
        <ele>470.20001220703125</ele>
        <time>2019-11-01T14:11:55.000Z</time>
      </trkpt>
      <trkpt lat="36.97310035116970539093017578125" lon="-5.12570922262966632843017578125">
        <ele>469.79998779296875</ele>
        <time>2019-11-01T14:12:00.000Z</time>
      </trkpt>
      <trkpt lat="36.97296582162380218505859375" lon="-5.12586093507707118988037109375">
        <ele>468.79998779296875</ele>
        <time>2019-11-01T14:12:05.000Z</time>
      </trkpt>
      <trkpt lat="36.9728278554975986480712890625" lon="-5.12601717375218868255615234375">
        <ele>468</ele>
        <time>2019-11-01T14:12:10.000Z</time>
      </trkpt>
      <trkpt lat="36.9726910628378391265869140625" lon="-5.1261763460934162139892578125">
        <ele>468</ele>
        <time>2019-11-01T14:12:15.000Z</time>
      </trkpt>
      <trkpt lat="36.97256625629961490631103515625" lon="-5.126345157623291015625">
        <ele>468.79998779296875</ele>
        <time>2019-11-01T14:12:20.000Z</time>
      </trkpt>
      <trkpt lat="36.9724422879517078399658203125" lon="-5.12651740573346614837646484375">
        <ele>470</ele>
        <time>2019-11-01T14:12:25.000Z</time>
      </trkpt>
      <trkpt lat="36.97231865487992763519287109375" lon="-5.1266886480152606964111328125">
        <ele>470.79998779296875</ele>
        <time>2019-11-01T14:12:30.000Z</time>
      </trkpt>
      <trkpt lat="36.97219560854136943817138671875" lon="-5.1268693618476390838623046875">
        <ele>471</ele>
        <time>2019-11-01T14:12:35.000Z</time>
      </trkpt>
      <trkpt lat="36.97208848781883716583251953125" lon="-5.1270557753741741180419921875">
        <ele>471.20001220703125</ele>
        <time>2019-11-01T14:12:40.000Z</time>
      </trkpt>
      <trkpt lat="36.97199159301817417144775390625" lon="-5.12725585140287876129150390625">
        <ele>472</ele>
        <time>2019-11-01T14:12:45.000Z</time>
      </trkpt>
      <trkpt lat="36.97190090082585811614990234375" lon="-5.1274524070322513580322265625">
        <ele>473.20001220703125</ele>
        <time>2019-11-01T14:12:50.000Z</time>
      </trkpt>
      <trkpt lat="36.97179696522653102874755859375" lon="-5.12768567539751529693603515625">
        <ele>474</ele>
        <time>2019-11-01T14:12:56.000Z</time>
      </trkpt>
      <trkpt lat="36.97170811705291271209716796875" lon="-5.12791265733540058135986328125">
        <ele>474.600006103515625</ele>
        <time>2019-11-01T14:13:02.000Z</time>
      </trkpt>
      <trkpt lat="36.971626393496990203857421875" lon="-5.12814567424356937408447265625">
        <ele>475.20001220703125</ele>
        <time>2019-11-01T14:13:08.000Z</time>
      </trkpt>
      <trkpt lat="36.97154601104557514190673828125" lon="-5.1283911801874637603759765625">
        <ele>475.20001220703125</ele>
        <time>2019-11-01T14:13:14.000Z</time>
      </trkpt>
      <trkpt lat="36.9714763574302196502685546875" lon="-5.12860014103353023529052734375">
        <ele>474.600006103515625</ele>
        <time>2019-11-01T14:13:19.000Z</time>
      </trkpt>
      <trkpt lat="36.97140603326261043548583984375" lon="-5.128817148506641387939453125">
        <ele>473.79998779296875</ele>
        <time>2019-11-01T14:13:24.000Z</time>
      </trkpt>
      <trkpt lat="36.97132699191570281982421875" lon="-5.1290634088218212127685546875">
        <ele>473</ele>
        <time>2019-11-01T14:13:30.000Z</time>
      </trkpt>
      <trkpt lat="36.97124862112104892730712890625" lon="-5.12930002994835376739501953125">
        <ele>472</ele>
        <time>2019-11-01T14:13:36.000Z</time>
      </trkpt>
      <trkpt lat="36.9711682386696338653564453125" lon="-5.12953723780810832977294921875">
        <ele>472.79998779296875</ele>
        <time>2019-11-01T14:13:42.000Z</time>
      </trkpt>
      <trkpt lat="36.9710917957127094268798828125" lon="-5.12978601269423961639404296875">
        <ele>474.20001220703125</ele>
        <time>2019-11-01T14:13:48.000Z</time>
      </trkpt>
      <trkpt lat="36.97101007215678691864013671875" lon="-5.1300251483917236328125">
        <ele>475.79998779296875</ele>
        <time>2019-11-01T14:13:54.000Z</time>
      </trkpt>
      <trkpt lat="36.97093673050403594970703125" lon="-5.130268223583698272705078125">
        <ele>477.600006103515625</ele>
        <time>2019-11-01T14:14:00.000Z</time>
      </trkpt>
      <trkpt lat="36.9708802364766597747802734375" lon="-5.13048254884779453277587890625">
        <ele>479</ele>
        <time>2019-11-01T14:14:05.000Z</time>
      </trkpt>
      <trkpt lat="36.9708138518035411834716796875" lon="-5.13073400594294071197509765625">
        <ele>479.20001220703125</ele>
        <time>2019-11-01T14:14:11.000Z</time>
      </trkpt>
      <trkpt lat="36.9707581959664821624755859375" lon="-5.1309907436370849609375">
        <ele>478.600006103515625</ele>
        <time>2019-11-01T14:14:17.000Z</time>
      </trkpt>
      <trkpt lat="36.97070379741489887237548828125" lon="-5.1312495768070220947265625">
        <ele>478.20001220703125</ele>
        <time>2019-11-01T14:14:23.000Z</time>
      </trkpt>
      <trkpt lat="36.97065509855747222900390625" lon="-5.131508745253086090087890625">
        <ele>477</ele>
        <time>2019-11-01T14:14:29.000Z</time>
      </trkpt>
      <trkpt lat="36.97061176411807537078857421875" lon="-5.13172768056392669677734375">
        <ele>476.79998779296875</ele>
        <time>2019-11-01T14:14:34.000Z</time>
      </trkpt>
      <trkpt lat="36.9705712795257568359375" lon="-5.1319481246173381805419921875">
        <ele>477</ele>
        <time>2019-11-01T14:14:39.000Z</time>
      </trkpt>
      <trkpt lat="36.9705322198569774627685546875" lon="-5.1321690715849399566650390625">
        <ele>477.600006103515625</ele>
        <time>2019-11-01T14:14:44.000Z</time>
      </trkpt>
      <trkpt lat="36.97048687376081943511962890625" lon="-5.1324243843555450439453125">
        <ele>478.20001220703125</ele>
        <time>2019-11-01T14:14:50.000Z</time>
      </trkpt>
      <trkpt lat="36.97044312022626399993896484375" lon="-5.13268464244902133941650390625">
        <ele>478.20001220703125</ele>
        <time>2019-11-01T14:14:56.000Z</time>
      </trkpt>
      <trkpt lat="36.97040221653878688812255859375" lon="-5.1329432241618633270263671875">
        <ele>478</ele>
        <time>2019-11-01T14:15:02.000Z</time>
      </trkpt>
      <trkpt lat="36.9703588820993900299072265625" lon="-5.13320432044565677642822265625">
        <ele>478.399993896484375</ele>
        <time>2019-11-01T14:15:08.000Z</time>
      </trkpt>
      <trkpt lat="36.97031638585031032562255859375" lon="-5.13345594517886638641357421875">
        <ele>478.399993896484375</ele>
        <time>2019-11-01T14:15:14.000Z</time>
      </trkpt>
      <trkpt lat="36.97027564980089664459228515625" lon="-5.13367856852710247039794921875">
        <ele>479.20001220703125</ele>
        <time>2019-11-01T14:15:19.000Z</time>
      </trkpt>
      <trkpt lat="36.970224268734455108642578125" lon="-5.1339376531541347503662109375">
        <ele>479.399993896484375</ele>
        <time>2019-11-01T14:15:25.000Z</time>
      </trkpt>
      <trkpt lat="36.9701811857521533966064453125" lon="-5.1341619528830051422119140625">
        <ele>479.20001220703125</ele>
        <time>2019-11-01T14:15:30.000Z</time>
      </trkpt>
      <trkpt lat="36.9701139628887176513671875" lon="-5.13437124900519847869873046875">
        <ele>478.79998779296875</ele>
        <time>2019-11-01T14:15:35.000Z</time>
      </trkpt>
      <trkpt lat="36.9700182415544986724853515625" lon="-5.1346098817884922027587890625">
        <ele>477.600006103515625</ele>
        <time>2019-11-01T14:15:41.000Z</time>
      </trkpt>
      <trkpt lat="36.9698993861675262451171875" lon="-5.13482973910868167877197265625">
        <ele>477.20001220703125</ele>
        <time>2019-11-01T14:15:47.000Z</time>
      </trkpt>
      <trkpt lat="36.9697617553174495697021484375" lon="-5.135032497346401214599609375">
        <ele>478.20001220703125</ele>
        <time>2019-11-01T14:15:53.000Z</time>
      </trkpt>
      <trkpt lat="36.96961213834583759307861328125" lon="-5.1352227665483951568603515625">
        <ele>479.600006103515625</ele>
        <time>2019-11-01T14:15:59.000Z</time>
      </trkpt>
      <trkpt lat="36.9694724120199680328369140625" lon="-5.1353681087493896484375">
        <ele>480.79998779296875</ele>
        <time>2019-11-01T14:16:04.000Z</time>
      </trkpt>
      <trkpt lat="36.96929463185369968414306640625" lon="-5.13551118783652782440185546875">
        <ele>481.600006103515625</ele>
        <time>2019-11-01T14:16:10.000Z</time>
      </trkpt>
      <trkpt lat="36.96913923136889934539794921875" lon="-5.13563071377575397491455078125">
        <ele>482.399993896484375</ele>
        <time>2019-11-01T14:16:16.000Z</time>
      </trkpt>
      <trkpt lat="36.96897243149578571319580078125" lon="-5.13578108511865139007568359375">
        <ele>483.20001220703125</ele>
        <time>2019-11-01T14:16:22.000Z</time>
      </trkpt>
      <trkpt lat="36.9687894545495510101318359375" lon="-5.1359228231012821197509765625">
        <ele>483.600006103515625</ele>
        <time>2019-11-01T14:16:28.000Z</time>
      </trkpt>
      <trkpt lat="36.9686318747699260711669921875" lon="-5.1360428519546985626220703125">
        <ele>483.79998779296875</ele>
        <time>2019-11-01T14:16:33.000Z</time>
      </trkpt>
      <trkpt lat="36.96847488172352313995361328125" lon="-5.13615491800010204315185546875">
        <ele>483.600006103515625</ele>
        <time>2019-11-01T14:16:38.000Z</time>
      </trkpt>
      <trkpt lat="36.9683195650577545166015625" lon="-5.13628148473799228668212890625">
        <ele>483.399993896484375</ele>
        <time>2019-11-01T14:16:43.000Z</time>
      </trkpt>
      <trkpt lat="36.9681443832814693450927734375" lon="-5.13644057326018810272216796875">
        <ele>483</ele>
        <time>2019-11-01T14:16:49.000Z</time>
      </trkpt>
      <trkpt lat="36.96800683625042438507080078125" lon="-5.136604942381381988525390625">
        <ele>483.20001220703125</ele>
        <time>2019-11-01T14:16:54.000Z</time>
      </trkpt>
      <trkpt lat="36.9678795151412487030029296875" lon="-5.13678289018571376800537109375">
        <ele>483.600006103515625</ele>
        <time>2019-11-01T14:16:59.000Z</time>
      </trkpt>
      <trkpt lat="36.96775336749851703643798828125" lon="-5.1369960419833660125732421875">
        <ele>484</ele>
        <time>2019-11-01T14:17:05.000Z</time>
      </trkpt>
      <trkpt lat="36.9676615856587886810302734375" lon="-5.13719326816499233245849609375">
        <ele>484.20001220703125</ele>
        <time>2019-11-01T14:17:10.000Z</time>
      </trkpt>
      <trkpt lat="36.96757256984710693359375" lon="-5.13741471804678440093994140625">
        <ele>484</ele>
        <time>2019-11-01T14:17:16.000Z</time>
      </trkpt>
      <trkpt lat="36.9674853980541229248046875" lon="-5.1376327313482761383056640625">
        <ele>485.20001220703125</ele>
        <time>2019-11-01T14:17:22.000Z</time>
      </trkpt>
      <trkpt lat="36.9673955440521240234375" lon="-5.13786298222839832305908203125">
        <ele>485.79998779296875</ele>
        <time>2019-11-01T14:17:28.000Z</time>
      </trkpt>
      <trkpt lat="36.96730141527950763702392578125" lon="-5.13808627612888813018798828125">
        <ele>485.600006103515625</ele>
        <time>2019-11-01T14:17:34.000Z</time>
      </trkpt>
      <trkpt lat="36.9672198593616485595703125" lon="-5.138307474553585052490234375">
        <ele>485.399993896484375</ele>
        <time>2019-11-01T14:17:40.000Z</time>
      </trkpt>
      <trkpt lat="36.96712606586515903472900390625" lon="-5.13852439820766448974609375">
        <ele>485.399993896484375</ele>
        <time>2019-11-01T14:17:46.000Z</time>
      </trkpt>
      <trkpt lat="36.96703386493027210235595703125" lon="-5.13875129632651805877685546875">
        <ele>485</ele>
        <time>2019-11-01T14:17:52.000Z</time>
      </trkpt>
      <trkpt lat="36.96693764068186283111572265625" lon="-5.13898707926273345947265625">
        <ele>485.79998779296875</ele>
        <time>2019-11-01T14:17:58.000Z</time>
      </trkpt>
      <trkpt lat="36.96685097180306911468505859375" lon="-5.1392237842082977294921875">
        <ele>486.600006103515625</ele>
        <time>2019-11-01T14:18:04.000Z</time>
      </trkpt>
      <trkpt lat="36.96675776503980159759521484375" lon="-5.1394569687545299530029296875">
        <ele>487.20001220703125</ele>
        <time>2019-11-01T14:18:10.000Z</time>
      </trkpt>
      <trkpt lat="36.96666799485683441162109375" lon="-5.13968043029308319091796875">
        <ele>487.600006103515625</ele>
        <time>2019-11-01T14:18:16.000Z</time>
      </trkpt>
      <trkpt lat="36.96657470427453517913818359375" lon="-5.13990414328873157501220703125">
        <ele>487.399993896484375</ele>
        <time>2019-11-01T14:18:22.000Z</time>
      </trkpt>
      <trkpt lat="36.96647931821644306182861328125" lon="-5.14013581909239292144775390625">
        <ele>487.600006103515625</ele>
        <time>2019-11-01T14:18:28.000Z</time>
      </trkpt>
      <trkpt lat="36.96638795547187328338623046875" lon="-5.14036699198186397552490234375">
        <ele>487.79998779296875</ele>
        <time>2019-11-01T14:18:34.000Z</time>
      </trkpt>
      <trkpt lat="36.9662976823747158050537109375" lon="-5.14059715904295444488525390625">
        <ele>488.399993896484375</ele>
        <time>2019-11-01T14:18:40.000Z</time>
      </trkpt>
      <trkpt lat="36.96620263159275054931640625" lon="-5.1408222131431102752685546875">
        <ele>489.79998779296875</ele>
        <time>2019-11-01T14:18:46.000Z</time>
      </trkpt>
      <trkpt lat="36.96610414423048496246337890625" lon="-5.14105481095612049102783203125">
        <ele>491.79998779296875</ele>
        <time>2019-11-01T14:18:52.000Z</time>
      </trkpt>
      <trkpt lat="36.96600791998207569122314453125" lon="-5.1412865705788135528564453125">
        <ele>493.20001220703125</ele>
        <time>2019-11-01T14:18:58.000Z</time>
      </trkpt>
      <trkpt lat="36.96591270156204700469970703125" lon="-5.14151447452604770660400390625">
        <ele>493.20001220703125</ele>
        <time>2019-11-01T14:19:04.000Z</time>
      </trkpt>
      <trkpt lat="36.965820752084255218505859375" lon="-5.1417428813874721527099609375">
        <ele>493.399993896484375</ele>
        <time>2019-11-01T14:19:10.000Z</time>
      </trkpt>
      <trkpt lat="36.9657283835113048553466796875" lon="-5.141972713172435760498046875">
        <ele>493.600006103515625</ele>
        <time>2019-11-01T14:19:16.000Z</time>
      </trkpt>
      <trkpt lat="36.96563693694770336151123046875" lon="-5.14220061711966991424560546875">
        <ele>493.79998779296875</ele>
        <time>2019-11-01T14:19:22.000Z</time>
      </trkpt>
      <trkpt lat="36.96554414927959442138671875" lon="-5.1424318738281726837158203125">
        <ele>494</ele>
        <time>2019-11-01T14:19:28.000Z</time>
      </trkpt>
      <trkpt lat="36.9654547981917858123779296875" lon="-5.14265927486121654510498046875">
        <ele>492.79998779296875</ele>
        <time>2019-11-01T14:19:34.000Z</time>
      </trkpt>
      <trkpt lat="36.96536687202751636505126953125" lon="-5.14288776554167270660400390625">
        <ele>493.399993896484375</ele>
        <time>2019-11-01T14:19:40.000Z</time>
      </trkpt>
      <trkpt lat="36.96528104133903980255126953125" lon="-5.1431161724030971527099609375">
        <ele>494.79998779296875</ele>
        <time>2019-11-01T14:19:46.000Z</time>
      </trkpt>
      <trkpt lat="36.96519487537443637847900390625" lon="-5.1433491893112659454345703125">
        <ele>496.399993896484375</ele>
        <time>2019-11-01T14:19:52.000Z</time>
      </trkpt>
      <trkpt lat="36.96511457674205303192138671875" lon="-5.143589414656162261962890625">
        <ele>497.20001220703125</ele>
        <time>2019-11-01T14:19:58.000Z</time>
      </trkpt>
      <trkpt lat="36.96503360755741596221923828125" lon="-5.14382536523044109344482421875">
        <ele>497.600006103515625</ele>
        <time>2019-11-01T14:20:04.000Z</time>
      </trkpt>
      <trkpt lat="36.964966468513011932373046875" lon="-5.14403893612325191497802734375">
        <ele>498.600006103515625</ele>
        <time>2019-11-01T14:20:09.000Z</time>
      </trkpt>
      <trkpt lat="36.9648922048509120941162109375" lon="-5.1442909799516201019287109375">
        <ele>499</ele>
        <time>2019-11-01T14:20:15.000Z</time>
      </trkpt>
      <trkpt lat="36.96481852792203426361083984375" lon="-5.14453447423875331878662109375">
        <ele>498.20001220703125</ele>
        <time>2019-11-01T14:20:21.000Z</time>
      </trkpt>
      <trkpt lat="36.9647473655641078948974609375" lon="-5.144779644906520843505859375">
        <ele>497.600006103515625</ele>
        <time>2019-11-01T14:20:27.000Z</time>
      </trkpt>
      <trkpt lat="36.964679472148418426513671875" lon="-5.14502481557428836822509765625">
        <ele>497.399993896484375</ele>
        <time>2019-11-01T14:20:33.000Z</time>
      </trkpt>
      <trkpt lat="36.9646196253597736358642578125" lon="-5.1452793739736080169677734375">
        <ele>496.79998779296875</ele>
        <time>2019-11-01T14:20:39.000Z</time>
      </trkpt>
      <trkpt lat="36.9645569287240505218505859375" lon="-5.1455197669565677642822265625">
        <ele>496.399993896484375</ele>
        <time>2019-11-01T14:20:45.000Z</time>
      </trkpt>
      <trkpt lat="36.9644949026405811309814453125" lon="-5.1457661949098110198974609375">
        <ele>497.79998779296875</ele>
        <time>2019-11-01T14:20:51.000Z</time>
      </trkpt>
      <trkpt lat="36.9644301943480968475341796875" lon="-5.14601421542465686798095703125">
        <ele>500</ele>
        <time>2019-11-01T14:20:57.000Z</time>
      </trkpt>
      <trkpt lat="36.9643695093691349029541015625" lon="-5.1462645828723907470703125">
        <ele>501.600006103515625</ele>
        <time>2019-11-01T14:21:03.000Z</time>
      </trkpt>
      <trkpt lat="36.96430538780987262725830078125" lon="-5.146494917571544647216796875">
        <ele>503.399993896484375</ele>
        <time>2019-11-01T14:21:09.000Z</time>
      </trkpt>
      <trkpt lat="36.96425777859985828399658203125" lon="-5.14671712182462215423583984375">
        <ele>504.600006103515625</ele>
        <time>2019-11-01T14:21:15.000Z</time>
      </trkpt>
      <trkpt lat="36.9642025418579578399658203125" lon="-5.14694988727569580078125">
        <ele>505.399993896484375</ele>
        <time>2019-11-01T14:21:22.000Z</time>
      </trkpt>
      <trkpt lat="36.964162476360797882080078125" lon="-5.14719204045832157135009765625">
        <ele>506</ele>
        <time>2019-11-01T14:21:29.000Z</time>
      </trkpt>
      <trkpt lat="36.96412115357816219329833984375" lon="-5.1474318467080593109130859375">
        <ele>506.399993896484375</ele>
        <time>2019-11-01T14:21:36.000Z</time>
      </trkpt>
      <trkpt lat="36.96408092044293880462646484375" lon="-5.14765706844627857208251953125">
        <ele>506.399993896484375</ele>
        <time>2019-11-01T14:21:43.000Z</time>
      </trkpt>
      <trkpt lat="36.96405443362891674041748046875" lon="-5.14790140092372894287109375">
        <ele>506.600006103515625</ele>
        <time>2019-11-01T14:21:50.000Z</time>
      </trkpt>
      <trkpt lat="36.96404286660254001617431640625" lon="-5.1481426320970058441162109375">
        <ele>507.399993896484375</ele>
        <time>2019-11-01T14:21:57.000Z</time>
      </trkpt>
      <trkpt lat="36.96402124129235744476318359375" lon="-5.14838528819382190704345703125">
        <ele>508</ele>
        <time>2019-11-01T14:22:05.000Z</time>
      </trkpt>
      <trkpt lat="36.96399358101189136505126953125" lon="-5.148610174655914306640625">
        <ele>508.600006103515625</ele>
        <time>2019-11-01T14:22:13.000Z</time>
      </trkpt>
      <trkpt lat="36.963958628475666046142578125" lon="-5.148834474384784698486328125">
        <ele>509.79998779296875</ele>
        <time>2019-11-01T14:22:21.000Z</time>
      </trkpt>
      <trkpt lat="36.96391697041690349578857421875" lon="-5.149071514606475830078125">
        <ele>509.79998779296875</ele>
        <time>2019-11-01T14:22:30.000Z</time>
      </trkpt>
      <trkpt lat="36.96386332623660564422607421875" lon="-5.149307548999786376953125">
        <ele>511</ele>
        <time>2019-11-01T14:22:39.000Z</time>
      </trkpt>
      <trkpt lat="36.96379627101123332977294921875" lon="-5.14954048208892345428466796875">
        <ele>512.20001220703125</ele>
        <time>2019-11-01T14:22:48.000Z</time>
      </trkpt>
      <trkpt lat="36.96369116194546222686767578125" lon="-5.14973628334701061248779296875">
        <ele>512.79998779296875</ele>
        <time>2019-11-01T14:22:56.000Z</time>
      </trkpt>
      <trkpt lat="36.9635819457471370697021484375" lon="-5.149944238364696502685546875">
        <ele>512.4000244140625</ele>
        <time>2019-11-01T14:23:05.000Z</time>
      </trkpt>
      <trkpt lat="36.96346334181725978851318359375" lon="-5.15013073571026325225830078125">
        <ele>512.4000244140625</ele>
        <time>2019-11-01T14:23:14.000Z</time>
      </trkpt>
      <trkpt lat="36.9633459113538265228271484375" lon="-5.15030591748654842376708984375">
        <ele>513.5999755859375</ele>
        <time>2019-11-01T14:23:22.000Z</time>
      </trkpt>
      <trkpt lat="36.96323082782328128814697265625" lon="-5.1505106873810291290283203125">
        <ele>515.20001220703125</ele>
        <time>2019-11-01T14:23:31.000Z</time>
      </trkpt>
      <trkpt lat="36.96312253363430500030517578125" lon="-5.15070774592459201812744140625">
        <ele>516.79998779296875</ele>
        <time>2019-11-01T14:23:40.000Z</time>
      </trkpt>
      <trkpt lat="36.963005773723125457763671875" lon="-5.15088628046214580535888671875">
        <ele>519.20001220703125</ele>
        <time>2019-11-01T14:23:48.000Z</time>
      </trkpt>
      <trkpt lat="36.96289706043899059295654296875" lon="-5.1510679163038730621337890625">
        <ele>521.4000244140625</ele>
        <time>2019-11-01T14:23:56.000Z</time>
      </trkpt>
      <trkpt lat="36.962809972465038299560546875" lon="-5.1512710936367511749267578125">
        <ele>523.5999755859375</ele>
        <time>2019-11-01T14:24:04.000Z</time>
      </trkpt>
      <trkpt lat="36.96273579262197017669677734375" lon="-5.15147971920669078826904296875">
        <ele>525</ele>
        <time>2019-11-01T14:24:12.000Z</time>
      </trkpt>
      <trkpt lat="36.96268499828875064849853515625" lon="-5.1517049409449100494384765625">
        <ele>526</ele>
        <time>2019-11-01T14:24:20.000Z</time>
      </trkpt>
      <trkpt lat="36.96265331469476222991943359375" lon="-5.1519272290170192718505859375">
        <ele>527.20001220703125</ele>
        <time>2019-11-01T14:24:28.000Z</time>
      </trkpt>
      <trkpt lat="36.9626311026513576507568359375" lon="-5.1521625928580760955810546875">
        <ele>528.20001220703125</ele>
        <time>2019-11-01T14:24:36.000Z</time>
      </trkpt>
      <trkpt lat="36.962610147893428802490234375" lon="-5.1524063386023044586181640625">
        <ele>530.20001220703125</ele>
        <time>2019-11-01T14:24:45.000Z</time>
      </trkpt>
      <trkpt lat="36.96257351897656917572021484375" lon="-5.152631811797618865966796875">
        <ele>531.4000244140625</ele>
        <time>2019-11-01T14:24:53.000Z</time>
      </trkpt>
      <trkpt lat="36.96252356283366680145263671875" lon="-5.15287731774151325225830078125">
        <ele>533.5999755859375</ele>
        <time>2019-11-01T14:25:02.000Z</time>
      </trkpt>
      <trkpt lat="36.96245449595153331756591796875" lon="-5.153089463710784912109375">
        <ele>534.4000244140625</ele>
        <time>2019-11-01T14:25:10.000Z</time>
      </trkpt>
      <trkpt lat="36.9623726047575473785400390625" lon="-5.153291635215282440185546875">
        <ele>534.79998779296875</ele>
        <time>2019-11-01T14:25:18.000Z</time>
      </trkpt>
      <trkpt lat="36.96228870190680027008056640625" lon="-5.15349514782428741455078125">
        <ele>535.4000244140625</ele>
        <time>2019-11-01T14:25:26.000Z</time>
      </trkpt>
      <trkpt lat="36.96225970052182674407958984375" lon="-5.15364610590040683746337890625">
        <ele>535.4000244140625</ele>
        <time>2019-11-01T14:25:37.000Z</time>
      </trkpt>
      <trkpt lat="36.96217303164303302764892578125" lon="-5.15373897738754749298095703125">
        <ele>535.5999755859375</ele>
        <time>2019-11-01T14:27:42.000Z</time>
      </trkpt>
      <trkpt lat="36.96208770386874675750732421875" lon="-5.1539522968232631683349609375">
        <ele>535.4000244140625</ele>
        <time>2019-11-01T14:27:51.000Z</time>
      </trkpt>
      <trkpt lat="36.9619954191148281097412109375" lon="-5.1541663706302642822265625">
        <ele>534.20001220703125</ele>
        <time>2019-11-01T14:28:00.000Z</time>
      </trkpt>
      <trkpt lat="36.96190699003636837005615234375" lon="-5.1543817855417728424072265625">
        <ele>532.5999755859375</ele>
        <time>2019-11-01T14:28:09.000Z</time>
      </trkpt>
      <trkpt lat="36.96182786487042903900146484375" lon="-5.15460918657481670379638671875">
        <ele>532.79998779296875</ele>
        <time>2019-11-01T14:28:18.000Z</time>
      </trkpt>
      <trkpt lat="36.96173985488712787628173828125" lon="-5.15482828952372074127197265625">
        <ele>535.20001220703125</ele>
        <time>2019-11-01T14:28:27.000Z</time>
      </trkpt>
      <trkpt lat="36.96165955625474452972412109375" lon="-5.15503347851336002349853515625">
        <ele>537.79998779296875</ele>
        <time>2019-11-01T14:28:35.000Z</time>
      </trkpt>
      <trkpt lat="36.96156333200633525848388671875" lon="-5.15525492839515209197998046875">
        <ele>540.20001220703125</ele>
        <time>2019-11-01T14:28:44.000Z</time>
      </trkpt>
      <trkpt lat="36.96145654655992984771728515625" lon="-5.1554479636251926422119140625">
        <ele>541.5999755859375</ele>
        <time>2019-11-01T14:28:52.000Z</time>
      </trkpt>
      <trkpt lat="36.96135294623672962188720703125" lon="-5.1556337065994739532470703125">
        <ele>542.20001220703125</ele>
        <time>2019-11-01T14:29:00.000Z</time>
      </trkpt>
      <trkpt lat="36.9612293131649494171142578125" lon="-5.155807547271251678466796875">
        <ele>543</ele>
        <time>2019-11-01T14:29:09.000Z</time>
      </trkpt>
      <trkpt lat="36.96109109558165073394775390625" lon="-5.155980549752712249755859375">
        <ele>543.5999755859375</ele>
        <time>2019-11-01T14:29:18.000Z</time>
      </trkpt>
      <trkpt lat="36.9609520398080348968505859375" lon="-5.156136117875576019287109375">
        <ele>543.20001220703125</ele>
        <time>2019-11-01T14:29:26.000Z</time>
      </trkpt>
      <trkpt lat="36.9607921130955219268798828125" lon="-5.1562942005693912506103515625">
        <ele>542.5999755859375</ele>
        <time>2019-11-01T14:29:35.000Z</time>
      </trkpt>
      <trkpt lat="36.96063545532524585723876953125" lon="-5.156426467001438140869140625">
        <ele>542.79998779296875</ele>
        <time>2019-11-01T14:29:43.000Z</time>
      </trkpt>
      <trkpt lat="36.96047619916498661041259765625" lon="-5.1565369404852390289306640625">
        <ele>544.20001220703125</ele>
        <time>2019-11-01T14:29:51.000Z</time>
      </trkpt>
      <trkpt lat="36.9603153504431247711181640625" lon="-5.15664364211261272430419921875">
        <ele>546.4000244140625</ele>
        <time>2019-11-01T14:29:59.000Z</time>
      </trkpt>
      <trkpt lat="36.96013891138136386871337890625" lon="-5.15674623660743236541748046875">
        <ele>549.5999755859375</ele>
        <time>2019-11-01T14:30:08.000Z</time>
      </trkpt>
      <trkpt lat="36.959953419864177703857421875" lon="-5.156835503876209259033203125">
        <ele>552.20001220703125</ele>
        <time>2019-11-01T14:30:17.000Z</time>
      </trkpt>
      <trkpt lat="36.95976407267153263092041015625" lon="-5.15690750442445278167724609375">
        <ele>554.79998779296875</ele>
        <time>2019-11-01T14:30:26.000Z</time>
      </trkpt>
      <trkpt lat="36.9595673494040966033935546875" lon="-5.1569614000618457794189453125">
        <ele>556.5999755859375</ele>
        <time>2019-11-01T14:30:35.000Z</time>
      </trkpt>
      <trkpt lat="36.95938303135335445404052734375" lon="-5.1569982804358005523681640625">
        <ele>556.5999755859375</ele>
        <time>2019-11-01T14:30:44.000Z</time>
      </trkpt>
      <trkpt lat="36.95918706245720386505126953125" lon="-5.1570341549813747406005859375">
        <ele>557.4000244140625</ele>
        <time>2019-11-01T14:30:53.000Z</time>
      </trkpt>
      <trkpt lat="36.95900668390095233917236328125" lon="-5.15707396902143955230712890625">
        <ele>558.4000244140625</ele>
        <time>2019-11-01T14:31:02.000Z</time>
      </trkpt>
      <trkpt lat="36.958824209868907928466796875" lon="-5.1571060717105865478515625">
        <ele>559.5999755859375</ele>
        <time>2019-11-01T14:31:11.000Z</time>
      </trkpt>
      <trkpt lat="36.95863343775272369384765625" lon="-5.1571243442595005035400390625">
        <ele>561.5999755859375</ele>
        <time>2019-11-01T14:31:20.000Z</time>
      </trkpt>
      <trkpt lat="36.95844291709363460540771484375" lon="-5.15716482885181903839111328125">
        <ele>563.79998779296875</ele>
        <time>2019-11-01T14:31:29.000Z</time>
      </trkpt>
      <trkpt lat="36.95825801230967044830322265625" lon="-5.1572061516344547271728515625">
        <ele>564.79998779296875</ele>
        <time>2019-11-01T14:31:38.000Z</time>
      </trkpt>
      <trkpt lat="36.95805609226226806640625" lon="-5.15722065232694149017333984375">
        <ele>565</ele>
        <time>2019-11-01T14:31:47.000Z</time>
      </trkpt>
      <trkpt lat="36.95787613280117511749267578125" lon="-5.1572426967322826385498046875">
        <ele>564.79998779296875</ele>
        <time>2019-11-01T14:31:55.000Z</time>
      </trkpt>
      <trkpt lat="36.95767530240118503570556640625" lon="-5.157259292900562286376953125">
        <ele>564.5999755859375</ele>
        <time>2019-11-01T14:32:04.000Z</time>
      </trkpt>
      <trkpt lat="36.95749274455010890960693359375" lon="-5.1572668366134166717529296875">
        <ele>565</ele>
        <time>2019-11-01T14:32:12.000Z</time>
      </trkpt>
      <trkpt lat="36.95730700157582759857177734375" lon="-5.15727044083178043365478515625">
        <ele>565.20001220703125</ele>
        <time>2019-11-01T14:32:20.000Z</time>
      </trkpt>
      <trkpt lat="36.957121677696704864501953125" lon="-5.15730044804513454437255859375">
        <ele>565.5999755859375</ele>
        <time>2019-11-01T14:32:28.000Z</time>
      </trkpt>
      <trkpt lat="36.95692596025764942169189453125" lon="-5.15730321407318115234375">
        <ele>566.20001220703125</ele>
        <time>2019-11-01T14:32:37.000Z</time>
      </trkpt>
      <trkpt lat="36.9567312486469745635986328125" lon="-5.1573124341666698455810546875">
        <ele>567.4000244140625</ele>
        <time>2019-11-01T14:32:46.000Z</time>
      </trkpt>
      <trkpt lat="36.95654441602528095245361328125" lon="-5.157322324812412261962890625">
        <ele>569.4000244140625</ele>
        <time>2019-11-01T14:32:54.000Z</time>
      </trkpt>
      <trkpt lat="36.95636563003063201904296875" lon="-5.15736767090857028961181640625">
        <ele>571.5999755859375</ele>
        <time>2019-11-01T14:33:02.000Z</time>
      </trkpt>
      <trkpt lat="36.95618567056953907012939453125" lon="-5.1574413478374481201171875">
        <ele>573.79998779296875</ele>
        <time>2019-11-01T14:33:11.000Z</time>
      </trkpt>
      <trkpt lat="36.95603798143565654754638671875" lon="-5.1575632207095623016357421875">
        <ele>575.5999755859375</ele>
        <time>2019-11-01T14:33:19.000Z</time>
      </trkpt>
      <trkpt lat="36.9559705071151256561279296875" lon="-5.15763455070555210113525390625">
        <ele>576.20001220703125</ele>
        <time>2019-11-01T14:33:23.000Z</time>
      </trkpt>
      <trkpt lat="36.95584452711045742034912109375" lon="-5.157810486853122711181640625">
        <ele>578.4000244140625</ele>
        <time>2019-11-01T14:33:31.000Z</time>
      </trkpt>
      <trkpt lat="36.9557311199605464935302734375" lon="-5.15800905413925647735595703125">
        <ele>580</ele>
        <time>2019-11-01T14:33:39.000Z</time>
      </trkpt>
      <trkpt lat="36.95563732646405696868896484375" lon="-5.15821457840502262115478515625">
        <ele>580.4000244140625</ele>
        <time>2019-11-01T14:33:47.000Z</time>
      </trkpt>
      <trkpt lat="36.955582089722156524658203125" lon="-5.158443152904510498046875">
        <ele>580</ele>
        <time>2019-11-01T14:33:55.000Z</time>
      </trkpt>
      <trkpt lat="36.95555635727941989898681640625" lon="-5.1586778461933135986328125">
        <ele>579.79998779296875</ele>
        <time>2019-11-01T14:34:03.000Z</time>
      </trkpt>
      <trkpt lat="36.955546550452709197998046875" lon="-5.15890943817794322967529296875">
        <ele>580</ele>
        <time>2019-11-01T14:34:11.000Z</time>
      </trkpt>
      <trkpt lat="36.9555537588894367218017578125" lon="-5.15914195217192173004150390625">
        <ele>581.4000244140625</ele>
        <time>2019-11-01T14:34:19.000Z</time>
      </trkpt>
      <trkpt lat="36.95556876249611377716064453125" lon="-5.15939206816256046295166015625">
        <ele>583</ele>
        <time>2019-11-01T14:34:28.000Z</time>
      </trkpt>
      <trkpt lat="36.9555949978530406951904296875" lon="-5.1596251688897609710693359375">
        <ele>584.20001220703125</ele>
        <time>2019-11-01T14:34:36.000Z</time>
      </trkpt>
      <trkpt lat="36.95561100728809833526611328125" lon="-5.15987654216587543487548828125">
        <ele>585.20001220703125</ele>
        <time>2019-11-01T14:34:45.000Z</time>
      </trkpt>
      <trkpt lat="36.9556110911071300506591796875" lon="-5.16012699343264102935791015625">
        <ele>587.5999755859375</ele>
        <time>2019-11-01T14:34:54.000Z</time>
      </trkpt>
      <trkpt lat="36.9555909745395183563232421875" lon="-5.1603530533611774444580078125">
        <ele>589.5999755859375</ele>
        <time>2019-11-01T14:35:02.000Z</time>
      </trkpt>
      <trkpt lat="36.9555648230016231536865234375" lon="-5.1605837233364582061767578125">
        <ele>590.20001220703125</ele>
        <time>2019-11-01T14:35:10.000Z</time>
      </trkpt>
      <trkpt lat="36.95549231953918933868408203125" lon="-5.16081263311207294464111328125">
        <ele>591.20001220703125</ele>
        <time>2019-11-01T14:35:19.000Z</time>
      </trkpt>
      <trkpt lat="36.95541822351515293121337890625" lon="-5.16102788038551807403564453125">
        <ele>590.79998779296875</ele>
        <time>2019-11-01T14:35:27.000Z</time>
      </trkpt>
      <trkpt lat="36.95532401092350482940673828125" lon="-5.1612425409257411956787109375">
        <ele>591.20001220703125</ele>
        <time>2019-11-01T14:35:35.000Z</time>
      </trkpt>
      <trkpt lat="36.95521906949579715728759765625" lon="-5.16142509877681732177734375">
        <ele>591.5999755859375</ele>
        <time>2019-11-01T14:35:43.000Z</time>
      </trkpt>
      <trkpt lat="36.9551004655659198760986328125" lon="-5.16161955893039703369140625">
        <ele>592.4000244140625</ele>
        <time>2019-11-01T14:35:52.000Z</time>
      </trkpt>
      <trkpt lat="36.95495621301233768463134765625" lon="-5.1617880351841449737548828125">
        <ele>594.79998779296875</ele>
        <time>2019-11-01T14:36:01.000Z</time>
      </trkpt>
      <trkpt lat="36.954794861376285552978515625" lon="-5.16193731687963008880615234375">
        <ele>597.20001220703125</ele>
        <time>2019-11-01T14:36:10.000Z</time>
      </trkpt>
      <trkpt lat="36.9546287320554256439208984375" lon="-5.1620696671307086944580078125">
        <ele>598.5999755859375</ele>
        <time>2019-11-01T14:36:19.000Z</time>
      </trkpt>
      <trkpt lat="36.95446084253489971160888671875" lon="-5.162154324352741241455078125">
        <ele>600.5999755859375</ele>
        <time>2019-11-01T14:36:27.000Z</time>
      </trkpt>
      <trkpt lat="36.95439579896628856658935546875" lon="-5.16220000572502613067626953125">
        <ele>601.20001220703125</ele>
        <time>2019-11-01T14:36:33.000Z</time>
      </trkpt>
      <trkpt lat="36.95439579896628856658935546875" lon="-5.16220252029597759246826171875">
        <ele>601</ele>
        <time>2019-11-01T14:36:35.000Z</time>
      </trkpt>
      <trkpt lat="36.954325139522552490234375" lon="-5.162225067615509033203125">
        <ele>602</ele>
        <time>2019-11-01T14:37:51.000Z</time>
      </trkpt>
      <trkpt lat="36.954154483973979949951171875" lon="-5.16232858411967754364013671875">
        <ele>602.5999755859375</ele>
        <time>2019-11-01T14:38:00.000Z</time>
      </trkpt>
      <trkpt lat="36.9539709202945232391357421875" lon="-5.16243151389062404632568359375">
        <ele>603.20001220703125</ele>
        <time>2019-11-01T14:38:09.000Z</time>
      </trkpt>
      <trkpt lat="36.95378257893025875091552734375" lon="-5.162515752017498016357421875">
        <ele>604</ele>
        <time>2019-11-01T14:38:18.000Z</time>
      </trkpt>
      <trkpt lat="36.95361108519136905670166015625" lon="-5.16263636760413646697998046875">
        <ele>604</ele>
        <time>2019-11-01T14:38:27.000Z</time>
      </trkpt>
      <trkpt lat="36.9534240849316120147705078125" lon="-5.16273359768092632293701171875">
        <ele>605</ele>
        <time>2019-11-01T14:38:36.000Z</time>
      </trkpt>
      <trkpt lat="36.95326675660908222198486328125" lon="-5.16286251135170459747314453125">
        <ele>605.79998779296875</ele>
        <time>2019-11-01T14:38:44.000Z</time>
      </trkpt>
      <trkpt lat="36.95314572192728519439697265625" lon="-5.16303434036672115325927734375">
        <ele>606.5999755859375</ele>
        <time>2019-11-01T14:38:52.000Z</time>
      </trkpt>
      <trkpt lat="36.953042037785053253173828125" lon="-5.16322276555001735687255859375">
        <ele>608.5999755859375</ele>
        <time>2019-11-01T14:39:00.000Z</time>
      </trkpt>
      <trkpt lat="36.95295327343046665191650390625" lon="-5.16343147493898868560791015625">
        <ele>610.79998779296875</ele>
        <time>2019-11-01T14:39:08.000Z</time>
      </trkpt>
      <trkpt lat="36.9528762437403202056884765625" lon="-5.16363658010959625244140625">
        <ele>612.4000244140625</ele>
        <time>2019-11-01T14:39:16.000Z</time>
      </trkpt>
      <trkpt lat="36.9527977891266345977783203125" lon="-5.16386590898036956787109375">
        <ele>613.4000244140625</ele>
        <time>2019-11-01T14:39:25.000Z</time>
      </trkpt>
      <trkpt lat="36.95271313190460205078125" lon="-5.1640826649963855743408203125">
        <ele>613.4000244140625</ele>
        <time>2019-11-01T14:39:34.000Z</time>
      </trkpt>
      <trkpt lat="36.95263342000544071197509765625" lon="-5.16428961418569087982177734375">
        <ele>613.4000244140625</ele>
        <time>2019-11-01T14:39:42.000Z</time>
      </trkpt>
      <trkpt lat="36.95253887213766574859619140625" lon="-5.16448960639536380767822265625">
        <ele>614.4000244140625</ele>
        <time>2019-11-01T14:39:50.000Z</time>
      </trkpt>
      <trkpt lat="36.95243510417640209197998046875" lon="-5.16468708403408527374267578125">
        <ele>616.20001220703125</ele>
        <time>2019-11-01T14:39:58.000Z</time>
      </trkpt>
      <trkpt lat="36.95232622325420379638671875" lon="-5.16489981673657894134521484375">
        <ele>618.4000244140625</ele>
        <time>2019-11-01T14:40:07.000Z</time>
      </trkpt>
      <trkpt lat="36.9522211141884326934814453125" lon="-5.16509444452822208404541015625">
        <ele>619.5999755859375</ele>
        <time>2019-11-01T14:40:15.000Z</time>
      </trkpt>
      <trkpt lat="36.9521178491413593292236328125" lon="-5.16528571955859661102294921875">
        <ele>620.79998779296875</ele>
        <time>2019-11-01T14:40:23.000Z</time>
      </trkpt>
      <trkpt lat="36.951999664306640625" lon="-5.1654911600053310394287109375">
        <ele>622.20001220703125</ele>
        <time>2019-11-01T14:40:32.000Z</time>
      </trkpt>
      <trkpt lat="36.951881982386112213134765625" lon="-5.165689475834369659423828125">
        <ele>623</ele>
        <time>2019-11-01T14:40:41.000Z</time>
      </trkpt>
      <trkpt lat="36.95177880115807056427001953125" lon="-5.1658763922750949859619140625">
        <ele>623.5999755859375</ele>
        <time>2019-11-01T14:40:49.000Z</time>
      </trkpt>
      <trkpt lat="36.95165726356208324432373046875" lon="-5.16607311554253101348876953125">
        <ele>623</ele>
        <time>2019-11-01T14:40:58.000Z</time>
      </trkpt>
      <trkpt lat="36.951519884169101715087890625" lon="-5.16624368727207183837890625">
        <ele>622.4000244140625</ele>
        <time>2019-11-01T14:41:07.000Z</time>
      </trkpt>
      <trkpt lat="36.95136222057044506072998046875" lon="-5.16638190485537052154541015625">
        <ele>623.20001220703125</ele>
        <time>2019-11-01T14:41:16.000Z</time>
      </trkpt>
      <trkpt lat="36.95119894109666347503662109375" lon="-5.166481398046016693115234375">
        <ele>624.5999755859375</ele>
        <time>2019-11-01T14:41:24.000Z</time>
      </trkpt>
      <trkpt lat="36.951007582247257232666015625" lon="-5.16656228341162204742431640625">
        <ele>626.4000244140625</ele>
        <time>2019-11-01T14:41:33.000Z</time>
      </trkpt>
      <trkpt lat="36.950809098780155181884765625" lon="-5.1666066236793994903564453125">
        <ele>627.5999755859375</ele>
        <time>2019-11-01T14:41:42.000Z</time>
      </trkpt>
      <trkpt lat="36.9506124593317508697509765625" lon="-5.16663235612213611602783203125">
        <ele>629</ele>
        <time>2019-11-01T14:41:51.000Z</time>
      </trkpt>
      <trkpt lat="36.9504230283200740814208984375" lon="-5.166628919541835784912109375">
        <ele>630.4000244140625</ele>
        <time>2019-11-01T14:41:59.000Z</time>
      </trkpt>
      <trkpt lat="36.95024290122091770172119140625" lon="-5.1666481979191303253173828125">
        <ele>632.20001220703125</ele>
        <time>2019-11-01T14:42:07.000Z</time>
      </trkpt>
      <trkpt lat="36.95005296729505062103271484375" lon="-5.16667091287672519683837890625">
        <ele>633.79998779296875</ele>
        <time>2019-11-01T14:42:15.000Z</time>
      </trkpt>
      <trkpt lat="36.94987627677619457244873046875" lon="-5.1667209528386592864990234375">
        <ele>635</ele>
        <time>2019-11-01T14:42:23.000Z</time>
      </trkpt>
      <trkpt lat="36.9496867619454860687255859375" lon="-5.16678281128406524658203125">
        <ele>636.4000244140625</ele>
        <time>2019-11-01T14:42:31.000Z</time>
      </trkpt>
      <trkpt lat="36.949500180780887603759765625" lon="-5.1668523810803890228271484375">
        <ele>637.4000244140625</ele>
        <time>2019-11-01T14:42:40.000Z</time>
      </trkpt>
      <trkpt lat="36.9493295252323150634765625" lon="-5.16692857258021831512451171875">
        <ele>637.79998779296875</ele>
        <time>2019-11-01T14:42:48.000Z</time>
      </trkpt>
      <trkpt lat="36.9491530023515224456787109375" lon="-5.16700811684131622314453125">
        <ele>639.4000244140625</ele>
        <time>2019-11-01T14:42:56.000Z</time>
      </trkpt>
      <trkpt lat="36.9489781558513641357421875" lon="-5.16711942851543426513671875">
        <ele>640.5999755859375</ele>
        <time>2019-11-01T14:43:05.000Z</time>
      </trkpt>
      <trkpt lat="36.94882200099527835845947265625" lon="-5.16724021174013614654541015625">
        <ele>642.4000244140625</ele>
        <time>2019-11-01T14:43:13.000Z</time>
      </trkpt>
      <trkpt lat="36.94867908954620361328125" lon="-5.16738002188503742218017578125">
        <ele>643.79998779296875</ele>
        <time>2019-11-01T14:43:21.000Z</time>
      </trkpt>
      <trkpt lat="36.94853584282100200653076171875" lon="-5.167517401278018951416015625">
        <ele>644</ele>
        <time>2019-11-01T14:43:29.000Z</time>
      </trkpt>
      <trkpt lat="36.94838044233620166778564453125" lon="-5.1676637493073940277099609375">
        <ele>644</ele>
        <time>2019-11-01T14:43:37.000Z</time>
      </trkpt>
      <trkpt lat="36.94824851118028163909912109375" lon="-5.16782828606665134429931640625">
        <ele>643.79998779296875</ele>
        <time>2019-11-01T14:43:45.000Z</time>
      </trkpt>
      <trkpt lat="36.948123537003993988037109375" lon="-5.1679899729788303375244140625">
        <ele>643.5999755859375</ele>
        <time>2019-11-01T14:43:53.000Z</time>
      </trkpt>
      <trkpt lat="36.94800929166376590728759765625" lon="-5.168165825307369232177734375">
        <ele>644.20001220703125</ele>
        <time>2019-11-01T14:44:01.000Z</time>
      </trkpt>
      <trkpt lat="36.94789211265742778778076171875" lon="-5.16837042756378650665283203125">
        <ele>645.5999755859375</ele>
        <time>2019-11-01T14:44:09.000Z</time>
      </trkpt>
      <trkpt lat="36.94779572077095508575439453125" lon="-5.16858181916177272796630859375">
        <ele>647.5999755859375</ele>
        <time>2019-11-01T14:44:17.000Z</time>
      </trkpt>
      <trkpt lat="36.94770955480635166168212890625" lon="-5.16879857517778873443603515625">
        <ele>650</ele>
        <time>2019-11-01T14:44:25.000Z</time>
      </trkpt>
      <trkpt lat="36.94763797335326671600341796875" lon="-5.16901348717510700225830078125">
        <ele>652.4000244140625</ele>
        <time>2019-11-01T14:44:33.000Z</time>
      </trkpt>
      <trkpt lat="36.94755918346345424652099609375" lon="-5.16924382187426090240478515625">
        <ele>654.4000244140625</ele>
        <time>2019-11-01T14:44:42.000Z</time>
      </trkpt>
      <trkpt lat="36.94750092923641204833984375" lon="-5.16945806331932544708251953125">
        <ele>655.4000244140625</ele>
        <time>2019-11-01T14:44:50.000Z</time>
      </trkpt>
      <trkpt lat="36.9474679045379161834716796875" lon="-5.16967917792499065399169921875">
        <ele>655.79998779296875</ele>
        <time>2019-11-01T14:44:58.000Z</time>
      </trkpt>
      <trkpt lat="36.94743814878165721893310546875" lon="-5.16991688869893550872802734375">
        <ele>657</ele>
        <time>2019-11-01T14:45:07.000Z</time>
      </trkpt>
      <trkpt lat="36.94742591120302677154541015625" lon="-5.17014638520777225494384765625">
        <ele>658</ele>
        <time>2019-11-01T14:45:15.000Z</time>
      </trkpt>
      <trkpt lat="36.94741954095661640167236328125" lon="-5.17039767466485500335693359375">
        <ele>659</ele>
        <time>2019-11-01T14:45:24.000Z</time>
      </trkpt>
      <trkpt lat="36.94742314517498016357421875" lon="-5.170626081526279449462890625">
        <ele>658.5999755859375</ele>
        <time>2019-11-01T14:45:32.000Z</time>
      </trkpt>
      <trkpt lat="36.94743119180202484130859375" lon="-5.1708666421473026275634765625">
        <ele>658.79998779296875</ele>
        <time>2019-11-01T14:45:41.000Z</time>
      </trkpt>
      <trkpt lat="36.9474524818360805511474609375" lon="-5.17109186388552188873291015625">
        <ele>659.20001220703125</ele>
        <time>2019-11-01T14:45:49.000Z</time>
      </trkpt>
      <trkpt lat="36.9474653899669647216796875" lon="-5.1712116412818431854248046875">
        <ele>659.4000244140625</ele>
        <time>2019-11-01T14:45:54.000Z</time>
      </trkpt>
      <trkpt lat="36.94747737608850002288818359375" lon="-5.17122949473559856414794921875">
        <ele>659.4000244140625</ele>
        <time>2019-11-01T14:45:59.000Z</time>
      </trkpt>
      <trkpt lat="36.9474707543849945068359375" lon="-5.17138254828751087188720703125">
        <ele>660.5999755859375</ele>
        <time>2019-11-01T14:46:53.000Z</time>
      </trkpt>
      <trkpt lat="36.947485506534576416015625" lon="-5.17148732207715511322021484375">
        <ele>661</ele>
        <time>2019-11-01T14:46:57.000Z</time>
      </trkpt>
      <trkpt lat="36.94749296642839908599853515625" lon="-5.17159326933324337005615234375">
        <ele>661</ele>
        <time>2019-11-01T14:47:01.000Z</time>
      </trkpt>
      <trkpt lat="36.94751392118632793426513671875" lon="-5.17182762734591960906982421875">
        <ele>661.5999755859375</ele>
        <time>2019-11-01T14:47:09.000Z</time>
      </trkpt>
      <trkpt lat="36.94753973744809627532958984375" lon="-5.17206366173923015594482421875">
        <ele>661.79998779296875</ele>
        <time>2019-11-01T14:47:17.000Z</time>
      </trkpt>
      <trkpt lat="36.94756119512021541595458984375" lon="-5.17229852266609668731689453125">
        <ele>663</ele>
        <time>2019-11-01T14:47:25.000Z</time>
      </trkpt>
      <trkpt lat="36.9475577585399150848388671875" lon="-5.1725326292216777801513671875">
        <ele>665.4000244140625</ele>
        <time>2019-11-01T14:47:33.000Z</time>
      </trkpt>
      <trkpt lat="36.94753571413457393646240234375" lon="-5.1727632991969585418701171875">
        <ele>668.5999755859375</ele>
        <time>2019-11-01T14:47:41.000Z</time>
      </trkpt>
      <trkpt lat="36.9474930502474308013916015625" lon="-5.17299874685704708099365234375">
        <ele>670.79998779296875</ele>
        <time>2019-11-01T14:47:49.000Z</time>
      </trkpt>
      <trkpt lat="36.94745340384542942047119140625" lon="-5.17322455532848834991455078125">
        <ele>671</ele>
        <time>2019-11-01T14:47:57.000Z</time>
      </trkpt>
      <trkpt lat="36.94742180407047271728515625" lon="-5.17344851978123188018798828125">
        <ele>671</ele>
        <time>2019-11-01T14:48:05.000Z</time>
      </trkpt>
      <trkpt lat="36.94737360812723636627197265625" lon="-5.17367013730108737945556640625">
        <ele>672</ele>
        <time>2019-11-01T14:48:13.000Z</time>
      </trkpt>
      <trkpt lat="36.94733303971588611602783203125" lon="-5.1739092729985713958740234375">
        <ele>673.5999755859375</ele>
        <time>2019-11-01T14:48:21.000Z</time>
      </trkpt>
      <trkpt lat="36.94729532115161418914794921875" lon="-5.1741382665932178497314453125">
        <ele>675.20001220703125</ele>
        <time>2019-11-01T14:48:29.000Z</time>
      </trkpt>
      <trkpt lat="36.94725810550153255462646484375" lon="-5.17436985857784748077392578125">
        <ele>676.5999755859375</ele>
        <time>2019-11-01T14:48:37.000Z</time>
      </trkpt>
      <trkpt lat="36.94722608663141727447509765625" lon="-5.17459281720221042633056640625">
        <ele>678.4000244140625</ele>
        <time>2019-11-01T14:48:45.000Z</time>
      </trkpt>
      <trkpt lat="36.947212256491184234619140625" lon="-5.17482080496847629547119140625">
        <ele>680.20001220703125</ele>
        <time>2019-11-01T14:48:53.000Z</time>
      </trkpt>
      <trkpt lat="36.947222985327243804931640625" lon="-5.175057761371135711669921875">
        <ele>681.4000244140625</ele>
        <time>2019-11-01T14:49:01.000Z</time>
      </trkpt>
      <trkpt lat="36.947251148521900177001953125" lon="-5.17528541386127471923828125">
        <ele>681.79998779296875</ele>
        <time>2019-11-01T14:49:09.000Z</time>
      </trkpt>
      <trkpt lat="36.94729716517031192779541015625" lon="-5.1755139045417308807373046875">
        <ele>682.79998779296875</ele>
        <time>2019-11-01T14:49:17.000Z</time>
      </trkpt>
      <trkpt lat="36.94736606441438198089599609375" lon="-5.17573610879480838775634765625">
        <ele>682.5999755859375</ele>
        <time>2019-11-01T14:49:25.000Z</time>
      </trkpt>
      <trkpt lat="36.94745340384542942047119140625" lon="-5.1759568043053150177001953125">
        <ele>682.20001220703125</ele>
        <time>2019-11-01T14:49:33.000Z</time>
      </trkpt>
      <trkpt lat="36.9475533999502658843994140625" lon="-5.17617079429328441619873046875">
        <ele>682</ele>
        <time>2019-11-01T14:49:41.000Z</time>
      </trkpt>
      <trkpt lat="36.94765423424541950225830078125" lon="-5.1763705350458621978759765625">
        <ele>682.20001220703125</ele>
        <time>2019-11-01T14:49:49.000Z</time>
      </trkpt>
      <trkpt lat="36.94775682874023914337158203125" lon="-5.17657513730227947235107421875">
        <ele>683.5999755859375</ele>
        <time>2019-11-01T14:49:57.000Z</time>
      </trkpt>
      <trkpt lat="36.9478410668671131134033203125" lon="-5.1767832599580287933349609375">
        <ele>685.4000244140625</ele>
        <time>2019-11-01T14:50:05.000Z</time>
      </trkpt>
      <trkpt lat="36.9479094631969928741455078125" lon="-5.17699942924082279205322265625">
        <ele>687</ele>
        <time>2019-11-01T14:50:13.000Z</time>
      </trkpt>
      <trkpt lat="36.94796805270016193389892578125" lon="-5.17723613418638706207275390625">
        <ele>687.20001220703125</ele>
        <time>2019-11-01T14:50:21.000Z</time>
      </trkpt>
      <trkpt lat="36.94798238575458526611328125" lon="-5.17747535370290279388427734375">
        <ele>687.20001220703125</ele>
        <time>2019-11-01T14:50:29.000Z</time>
      </trkpt>
      <trkpt lat="36.94797392003238201141357421875" lon="-5.17770878970623016357421875">
        <ele>688.20001220703125</ele>
        <time>2019-11-01T14:50:37.000Z</time>
      </trkpt>
      <trkpt lat="36.947946846485137939453125" lon="-5.177951194345951080322265625">
        <ele>688</ele>
        <time>2019-11-01T14:50:45.000Z</time>
      </trkpt>
      <trkpt lat="36.94791491143405437469482421875" lon="-5.17818798311054706573486328125">
        <ele>688.79998779296875</ele>
        <time>2019-11-01T14:50:53.000Z</time>
      </trkpt>
      <trkpt lat="36.94788507185876369476318359375" lon="-5.17843206413090229034423828125">
        <ele>688.5999755859375</ele>
        <time>2019-11-01T14:51:01.000Z</time>
      </trkpt>
      <trkpt lat="36.94784550927579402923583984375" lon="-5.178658626973628997802734375">
        <ele>689.4000244140625</ele>
        <time>2019-11-01T14:51:09.000Z</time>
      </trkpt>
      <trkpt lat="36.9477944634854793548583984375" lon="-5.178876221179962158203125">
        <ele>690.79998779296875</ele>
        <time>2019-11-01T14:51:16.000Z</time>
      </trkpt>
      <trkpt lat="36.9477669708430767059326171875" lon="-5.17912457697093486785888671875">
        <ele>693.20001220703125</ele>
        <time>2019-11-01T14:51:24.000Z</time>
      </trkpt>
      <trkpt lat="36.94771952927112579345703125" lon="-5.1793611980974674224853515625">
        <ele>695</ele>
        <time>2019-11-01T14:51:32.000Z</time>
      </trkpt>
      <trkpt lat="36.94768055342137813568115234375" lon="-5.17959077842533588409423828125">
        <ele>696.79998779296875</ele>
        <time>2019-11-01T14:51:40.000Z</time>
      </trkpt>
      <trkpt lat="36.947649456560611724853515625" lon="-5.1798319257795810699462890625">
        <ele>697.79998779296875</ele>
        <time>2019-11-01T14:51:48.000Z</time>
      </trkpt>
      <trkpt lat="36.9476117379963397979736328125" lon="-5.18007047474384307861328125">
        <ele>698.79998779296875</ele>
        <time>2019-11-01T14:51:56.000Z</time>
      </trkpt>
      <trkpt lat="36.94752280600368976593017578125" lon="-5.180288739502429962158203125">
        <ele>699.79998779296875</ele>
        <time>2019-11-01T14:52:04.000Z</time>
      </trkpt>
      <trkpt lat="36.94741032086312770843505859375" lon="-5.18048730678856372833251953125">
        <ele>700</ele>
        <time>2019-11-01T14:52:12.000Z</time>
      </trkpt>
      <trkpt lat="36.9472928903996944427490234375" lon="-5.18066919408738613128662109375">
        <ele>698.5999755859375</ele>
        <time>2019-11-01T14:52:18.000Z</time>
      </trkpt>
      <trkpt lat="36.94717277772724628448486328125" lon="-5.1808377541601657867431640625">
        <ele>697.20001220703125</ele>
        <time>2019-11-01T14:52:24.000Z</time>
      </trkpt>
      <trkpt lat="36.9470353983342647552490234375" lon="-5.18101771362125873565673828125">
        <ele>695.4000244140625</ele>
        <time>2019-11-01T14:52:31.000Z</time>
      </trkpt>
      <trkpt lat="36.94687706418335437774658203125" lon="-5.18118887208402156829833984375">
        <ele>694</ele>
        <time>2019-11-01T14:52:38.000Z</time>
      </trkpt>
      <trkpt lat="36.94674245081841945648193359375" lon="-5.18136908300220966339111328125">
        <ele>692.79998779296875</ele>
        <time>2019-11-01T14:52:43.000Z</time>
      </trkpt>
      <trkpt lat="36.946607418358325958251953125" lon="-5.1815705001354217529296875">
        <ele>692.4000244140625</ele>
        <time>2019-11-01T14:52:47.000Z</time>
      </trkpt>
      <trkpt lat="36.94649300538003444671630859375" lon="-5.18175263889133930206298828125">
        <ele>692.5999755859375</ele>
        <time>2019-11-01T14:52:50.000Z</time>
      </trkpt>
      <trkpt lat="36.9463903270661830902099609375" lon="-5.18196721561253070831298828125">
        <ele>692.79998779296875</ele>
        <time>2019-11-01T14:52:53.000Z</time>
      </trkpt>
      <trkpt lat="36.94629167206585407257080078125" lon="-5.18220459111034870147705078125">
        <ele>693.79998779296875</ele>
        <time>2019-11-01T14:52:56.000Z</time>
      </trkpt>
      <trkpt lat="36.94619226269423961639404296875" lon="-5.182427801191806793212890625">
        <ele>695.79998779296875</ele>
        <time>2019-11-01T14:52:59.000Z</time>
      </trkpt>
      <trkpt lat="36.94608715362846851348876953125" lon="-5.18263877369463443756103515625">
        <ele>697.4000244140625</ele>
        <time>2019-11-01T14:53:02.000Z</time>
      </trkpt>
      <trkpt lat="36.94599151611328125" lon="-5.1828393526375293731689453125">
        <ele>698.5999755859375</ele>
        <time>2019-11-01T14:53:05.000Z</time>
      </trkpt>
      <trkpt lat="36.94586419500410556793212890625" lon="-5.1830566115677356719970703125">
        <ele>699</ele>
        <time>2019-11-01T14:53:09.000Z</time>
      </trkpt>
      <trkpt lat="36.94574852474033832550048828125" lon="-5.18323003314435482025146484375">
        <ele>699</ele>
        <time>2019-11-01T14:53:13.000Z</time>
      </trkpt>
      <trkpt lat="36.94562916643917560577392578125" lon="-5.1833674125373363494873046875">
        <ele>698.20001220703125</ele>
        <time>2019-11-01T14:53:18.000Z</time>
      </trkpt>
      <trkpt lat="36.94558524526655673980712890625" lon="-5.18341460265219211578369140625">
        <ele>697.79998779296875</ele>
        <time>2019-11-01T14:53:20.000Z</time>
      </trkpt>
      <trkpt lat="36.94545431993901729583740234375" lon="-5.1835853420197963714599609375">
        <ele>696.5999755859375</ele>
        <time>2019-11-01T14:53:27.000Z</time>
      </trkpt>
      <trkpt lat="36.94542649202048778533935546875" lon="-5.1836067996919155120849609375">
        <ele>696.4000244140625</ele>
        <time>2019-11-01T14:53:28.000Z</time>
      </trkpt>
      <trkpt lat="36.9452621228992938995361328125" lon="-5.18373579718172550201416015625">
        <ele>696</ele>
        <time>2019-11-01T14:53:34.000Z</time>
      </trkpt>
      <trkpt lat="36.94522985257208347320556640625" lon="-5.18375205807387828826904296875">
        <ele>696</ele>
        <time>2019-11-01T14:53:35.000Z</time>
      </trkpt>
      <trkpt lat="36.9451699219644069671630859375" lon="-5.18378265202045440673828125">
        <ele>696</ele>
        <time>2019-11-01T14:53:37.000Z</time>
      </trkpt>
      <trkpt lat="36.9450522400438785552978515625" lon="-5.183855406939983367919921875">
        <ele>696</ele>
        <time>2019-11-01T14:53:41.000Z</time>
      </trkpt>
      <trkpt lat="36.9448732025921344757080078125" lon="-5.1839469373226165771484375">
        <ele>696.4000244140625</ele>
        <time>2019-11-01T14:53:47.000Z</time>
      </trkpt>
      <trkpt lat="36.9446812570095062255859375" lon="-5.18401793204247951507568359375">
        <ele>696.79998779296875</ele>
        <time>2019-11-01T14:53:53.000Z</time>
      </trkpt>
      <trkpt lat="36.94447983987629413604736328125" lon="-5.18408238887786865234375">
        <ele>697</ele>
        <time>2019-11-01T14:53:59.000Z</time>
      </trkpt>
      <trkpt lat="36.9443049095571041107177734375" lon="-5.18413729034364223480224609375">
        <ele>696.4000244140625</ele>
        <time>2019-11-01T14:54:05.000Z</time>
      </trkpt>
      <trkpt lat="36.9440940208733081817626953125" lon="-5.18421054817736148834228515625">
        <ele>694.79998779296875</ele>
        <time>2019-11-01T14:54:11.000Z</time>
      </trkpt>
      <trkpt lat="36.9439250417053699493408203125" lon="-5.184313394129276275634765625">
        <ele>694.20001220703125</ele>
        <time>2019-11-01T14:54:16.000Z</time>
      </trkpt>
      <trkpt lat="36.94374189712107181549072265625" lon="-5.1844728179275989532470703125">
        <ele>694.4000244140625</ele>
        <time>2019-11-01T14:54:21.000Z</time>
      </trkpt>
      <trkpt lat="36.94359018467366695404052734375" lon="-5.1846619136631488800048828125">
        <ele>694.79998779296875</ele>
        <time>2019-11-01T14:54:26.000Z</time>
      </trkpt>
      <trkpt lat="36.943460516631603240966796875" lon="-5.184886045753955841064453125">
        <ele>695.20001220703125</ele>
        <time>2019-11-01T14:54:31.000Z</time>
      </trkpt>
      <trkpt lat="36.94336186163127422332763671875" lon="-5.18508528359234333038330078125">
        <ele>695.4000244140625</ele>
        <time>2019-11-01T14:54:35.000Z</time>
      </trkpt>
      <trkpt lat="36.943268738687038421630859375" lon="-5.18529231660068035125732421875">
        <ele>695.20001220703125</ele>
        <time>2019-11-01T14:54:39.000Z</time>
      </trkpt>
      <trkpt lat="36.94316689856350421905517578125" lon="-5.1854974217712879180908203125">
        <ele>694.79998779296875</ele>
        <time>2019-11-01T14:54:43.000Z</time>
      </trkpt>
      <trkpt lat="36.9430365599691867828369140625" lon="-5.185700766742229461669921875">
        <ele>694.5999755859375</ele>
        <time>2019-11-01T14:54:48.000Z</time>
      </trkpt>
      <trkpt lat="36.94301468320190906524658203125" lon="-5.18573856912553310394287109375">
        <ele>694.4000244140625</ele>
        <time>2019-11-01T14:54:49.000Z</time>
      </trkpt>
      <trkpt lat="36.94288342259824275970458984375" lon="-5.18590553663671016693115234375">
        <ele>694.4000244140625</ele>
        <time>2019-11-01T14:54:53.000Z</time>
      </trkpt>
      <trkpt lat="36.9427193887531757354736328125" lon="-5.18605708144605159759521484375">
        <ele>694</ele>
        <time>2019-11-01T14:54:57.000Z</time>
      </trkpt>
      <trkpt lat="36.94253289140760898590087890625" lon="-5.18622974865138530731201171875">
        <ele>693.4000244140625</ele>
        <time>2019-11-01T14:55:01.000Z</time>
      </trkpt>
      <trkpt lat="36.9423753954470157623291015625" lon="-5.1863768510520458221435546875">
        <ele>693</ele>
        <time>2019-11-01T14:55:04.000Z</time>
      </trkpt>
      <trkpt lat="36.94221437908709049224853515625" lon="-5.18653920851647853851318359375">
        <ele>692.79998779296875</ele>
        <time>2019-11-01T14:55:07.000Z</time>
      </trkpt>
      <trkpt lat="36.94205361418426036834716796875" lon="-5.18671891652047634124755859375">
        <ele>692</ele>
        <time>2019-11-01T14:55:10.000Z</time>
      </trkpt>
      <trkpt lat="36.9419096969068050384521484375" lon="-5.186931230127811431884765625">
        <ele>690.5999755859375</ele>
        <time>2019-11-01T14:55:13.000Z</time>
      </trkpt>
      <trkpt lat="36.9417957030236721038818359375" lon="-5.1871818490326404571533203125">
        <ele>690</ele>
        <time>2019-11-01T14:55:16.000Z</time>
      </trkpt>
      <trkpt lat="36.94176812656223773956298828125" lon="-5.18727354705333709716796875">
        <ele>690.4000244140625</ele>
        <time>2019-11-01T14:55:17.000Z</time>
      </trkpt>
      <trkpt lat="36.94170291535556316375732421875" lon="-5.18755895085632801055908203125">
        <ele>691</ele>
        <time>2019-11-01T14:55:20.000Z</time>
      </trkpt>
      <trkpt lat="36.94166603498160839080810546875" lon="-5.18785567022860050201416015625">
        <ele>690.20001220703125</ele>
        <time>2019-11-01T14:55:23.000Z</time>
      </trkpt>
      <trkpt lat="36.94165865890681743621826171875" lon="-5.18805147148668766021728515625">
        <ele>689.5999755859375</ele>
        <time>2019-11-01T14:55:25.000Z</time>
      </trkpt>
      <trkpt lat="36.94167575798928737640380859375" lon="-5.18835171125829219818115234375">
        <ele>687.20001220703125</ele>
        <time>2019-11-01T14:55:28.000Z</time>
      </trkpt>
      <trkpt lat="36.94169604219496250152587890625" lon="-5.18864910118281841278076171875">
        <ele>687.4000244140625</ele>
        <time>2019-11-01T14:55:31.000Z</time>
      </trkpt>
      <trkpt lat="36.9417152367532253265380859375" lon="-5.18893785774707794189453125">
        <ele>688</ele>
        <time>2019-11-01T14:55:34.000Z</time>
      </trkpt>
      <trkpt lat="36.941745914518833160400390625" lon="-5.18922351300716400146484375">
        <ele>688.4000244140625</ele>
        <time>2019-11-01T14:55:37.000Z</time>
      </trkpt>
      <trkpt lat="36.941771395504474639892578125" lon="-5.18949399702250957489013671875">
        <ele>689.20001220703125</ele>
        <time>2019-11-01T14:55:40.000Z</time>
      </trkpt>
      <trkpt lat="36.9417685456573963165283203125" lon="-5.18973690457642078399658203125">
        <ele>690</ele>
        <time>2019-11-01T14:55:43.000Z</time>
      </trkpt>
      <trkpt lat="36.941755972802639007568359375" lon="-5.189808905124664306640625">
        <ele>689.79998779296875</ele>
        <time>2019-11-01T14:55:44.000Z</time>
      </trkpt>
      <trkpt lat="36.94168212823569774627685546875" lon="-5.19007067196071147918701171875">
        <ele>688.79998779296875</ele>
        <time>2019-11-01T14:55:48.000Z</time>
      </trkpt>
      <trkpt lat="36.94158305414021015167236328125" lon="-5.1902972348034381866455078125">
        <ele>687.5999755859375</ele>
        <time>2019-11-01T14:55:52.000Z</time>
      </trkpt>
      <trkpt lat="36.94146235473453998565673828125" lon="-5.1904942095279693603515625">
        <ele>685.79998779296875</ele>
        <time>2019-11-01T14:55:56.000Z</time>
      </trkpt>
      <trkpt lat="36.94131701253354549407958984375" lon="-5.19064265303313732147216796875">
        <ele>684.20001220703125</ele>
        <time>2019-11-01T14:56:00.000Z</time>
      </trkpt>
      <trkpt lat="36.941146440804004669189453125" lon="-5.1907602511346340179443359375">
        <ele>683.20001220703125</ele>
        <time>2019-11-01T14:56:04.000Z</time>
      </trkpt>
      <trkpt lat="36.940967738628387451171875" lon="-5.19085136242210865020751953125">
        <ele>682.4000244140625</ele>
        <time>2019-11-01T14:56:08.000Z</time>
      </trkpt>
      <trkpt lat="36.9407866895198822021484375" lon="-5.1909121312201023101806640625">
        <ele>681</ele>
        <time>2019-11-01T14:56:12.000Z</time>
      </trkpt>
      <trkpt lat="36.94056699983775615692138671875" lon="-5.19097960554063320159912109375">
        <ele>680.5999755859375</ele>
        <time>2019-11-01T14:56:17.000Z</time>
      </trkpt>
      <trkpt lat="36.94038963876664638519287109375" lon="-5.19103509373962879180908203125">
        <ele>680</ele>
        <time>2019-11-01T14:56:21.000Z</time>
      </trkpt>
      <trkpt lat="36.9402118586003780364990234375" lon="-5.1911002211272716522216796875">
        <ele>680.20001220703125</ele>
        <time>2019-11-01T14:56:25.000Z</time>
      </trkpt>
      <trkpt lat="36.940030641853809356689453125" lon="-5.191173814237117767333984375">
        <ele>681.79998779296875</ele>
        <time>2019-11-01T14:56:29.000Z</time>
      </trkpt>
      <trkpt lat="36.939983367919921875" lon="-5.19119761884212493896484375">
        <ele>682.5999755859375</ele>
        <time>2019-11-01T14:56:30.000Z</time>
      </trkpt>
      <trkpt lat="36.93981044925749301910400390625" lon="-5.19130381755530834197998046875">
        <ele>684.4000244140625</ele>
        <time>2019-11-01T14:56:34.000Z</time>
      </trkpt>
      <trkpt lat="36.93965010344982147216796875" lon="-5.1914284564554691314697265625">
        <ele>684.79998779296875</ele>
        <time>2019-11-01T14:56:38.000Z</time>
      </trkpt>
      <trkpt lat="36.9394911825656890869140625" lon="-5.1915746368467807769775390625">
        <ele>684.5999755859375</ele>
        <time>2019-11-01T14:56:42.000Z</time>
      </trkpt>
      <trkpt lat="36.93941549398005008697509765625" lon="-5.1916571147739887237548828125">
        <ele>684.5999755859375</ele>
        <time>2019-11-01T14:56:44.000Z</time>
      </trkpt>
      <trkpt lat="36.93927325308322906494140625" lon="-5.1918398402631282806396484375">
        <ele>684.4000244140625</ele>
        <time>2019-11-01T14:56:48.000Z</time>
      </trkpt>
      <trkpt lat="36.93914207629859447479248046875" lon="-5.1920292712748050689697265625">
        <ele>683.79998779296875</ele>
        <time>2019-11-01T14:56:52.000Z</time>
      </trkpt>
      <trkpt lat="36.93899656645953655242919921875" lon="-5.1922304369509220123291015625">
        <ele>683.4000244140625</ele>
        <time>2019-11-01T14:56:56.000Z</time>
      </trkpt>
      <trkpt lat="36.93884569220244884490966796875" lon="-5.19243604503571987152099609375">
        <ele>683.5999755859375</ele>
        <time>2019-11-01T14:57:00.000Z</time>
      </trkpt>
      <trkpt lat="36.93870353512465953826904296875" lon="-5.19265715964138507843017578125">
        <ele>682.5999755859375</ele>
        <time>2019-11-01T14:57:04.000Z</time>
      </trkpt>
      <trkpt lat="36.93857378326356410980224609375" lon="-5.1929019950330257415771484375">
        <ele>681.5999755859375</ele>
        <time>2019-11-01T14:57:08.000Z</time>
      </trkpt>
      <trkpt lat="36.93847923539578914642333984375" lon="-5.1931118778884410858154296875">
        <ele>680.20001220703125</ele>
        <time>2019-11-01T14:57:11.000Z</time>
      </trkpt>
      <trkpt lat="36.93838971666991710662841796875" lon="-5.19331530667841434478759765625">
        <ele>678.79998779296875</ele>
        <time>2019-11-01T14:57:14.000Z</time>
      </trkpt>
      <trkpt lat="36.9383031316101551055908203125" lon="-5.19352971576154232025146484375">
        <ele>677</ele>
        <time>2019-11-01T14:57:17.000Z</time>
      </trkpt>
      <trkpt lat="36.938280500471591949462890625" lon="-5.193609930574893951416015625">
        <ele>676.5999755859375</ele>
        <time>2019-11-01T14:57:18.000Z</time>
      </trkpt>
      <trkpt lat="36.93821956403553485870361328125" lon="-5.19386046566069126129150390625">
        <ele>675.4000244140625</ele>
        <time>2019-11-01T14:57:21.000Z</time>
      </trkpt>
      <trkpt lat="36.93817631341516971588134765625" lon="-5.19412499852478504180908203125">
        <ele>675</ele>
        <time>2019-11-01T14:57:24.000Z</time>
      </trkpt>
      <trkpt lat="36.938151754438877105712890625" lon="-5.19440126605331897735595703125">
        <ele>675.4000244140625</ele>
        <time>2019-11-01T14:57:27.000Z</time>
      </trkpt>
      <trkpt lat="36.9381448812782764434814453125" lon="-5.19467870704829692840576171875">
        <ele>675</ele>
        <time>2019-11-01T14:57:30.000Z</time>
      </trkpt>
      <trkpt lat="36.93814949132502079010009765625" lon="-5.194959752261638641357421875">
        <ele>673.20001220703125</ele>
        <time>2019-11-01T14:57:33.000Z</time>
      </trkpt>
      <trkpt lat="36.9381519220769405364990234375" lon="-5.19523928873240947723388671875">
        <ele>672</ele>
        <time>2019-11-01T14:57:36.000Z</time>
      </trkpt>
      <trkpt lat="36.9381556101143360137939453125" lon="-5.19552125595510005950927734375">
        <ele>670.79998779296875</ele>
        <time>2019-11-01T14:57:39.000Z</time>
      </trkpt>
      <trkpt lat="36.93813691847026348114013671875" lon="-5.1957830227911472320556640625">
        <ele>669.4000244140625</ele>
        <time>2019-11-01T14:57:42.000Z</time>
      </trkpt>
      <trkpt lat="36.93810959346592426300048828125" lon="-5.1960408501327037811279296875">
        <ele>669</ele>
        <time>2019-11-01T14:57:45.000Z</time>
      </trkpt>
      <trkpt lat="36.93807120434939861297607421875" lon="-5.1962745375931262969970703125">
        <ele>669.5999755859375</ele>
        <time>2019-11-01T14:57:48.000Z</time>
      </trkpt>
      <trkpt lat="36.93805209361016750335693359375" lon="-5.19646279513835906982421875">
        <ele>669.4000244140625</ele>
        <time>2019-11-01T14:57:52.000Z</time>
      </trkpt>
      <trkpt lat="36.9380396045744419097900390625" lon="-5.19645474851131439208984375">
        <ele>669.4000244140625</ele>
        <time>2019-11-01T14:57:57.000Z</time>
      </trkpt>
      <trkpt lat="36.938010938465595245361328125" lon="-5.19653731025755405426025390625">
        <ele>669.79998779296875</ele>
        <time>2019-11-01T14:58:39.000Z</time>
      </trkpt>
      <trkpt lat="36.93793424405157566070556640625" lon="-5.19678709097206592559814453125">
        <ele>670.5999755859375</ele>
        <time>2019-11-01T14:58:45.000Z</time>
      </trkpt>
      <trkpt lat="36.93787003867328166961669921875" lon="-5.196946598589420318603515625">
        <ele>671</ele>
        <time>2019-11-01T14:58:48.000Z</time>
      </trkpt>
      <trkpt lat="36.9377485848963260650634765625" lon="-5.197188667953014373779296875">
        <ele>670.4000244140625</ele>
        <time>2019-11-01T14:58:52.000Z</time>
      </trkpt>
      <trkpt lat="36.93761958740651607513427734375" lon="-5.19737147726118564605712890625">
        <ele>668.5999755859375</ele>
        <time>2019-11-01T14:58:55.000Z</time>
      </trkpt>
      <trkpt lat="36.93747323937714099884033203125" lon="-5.1975524425506591796875">
        <ele>665.5999755859375</ele>
        <time>2019-11-01T14:58:58.000Z</time>
      </trkpt>
      <trkpt lat="36.93731515668332576751708984375" lon="-5.19774765707552433013916015625">
        <ele>662.5999755859375</ele>
        <time>2019-11-01T14:59:01.000Z</time>
      </trkpt>
      <trkpt lat="36.93714500404894351959228515625" lon="-5.19794966094195842742919921875">
        <ele>661.4000244140625</ele>
        <time>2019-11-01T14:59:04.000Z</time>
      </trkpt>
      <trkpt lat="36.9369744323194026947021484375" lon="-5.1981572806835174560546875">
        <ele>662</ele>
        <time>2019-11-01T14:59:07.000Z</time>
      </trkpt>
      <trkpt lat="36.936801932752132415771484375" lon="-5.1983716897666454315185546875">
        <ele>664.20001220703125</ele>
        <time>2019-11-01T14:59:10.000Z</time>
      </trkpt>
      <trkpt lat="36.9366257451474666595458984375" lon="-5.1985971629619598388671875">
        <ele>663.79998779296875</ele>
        <time>2019-11-01T14:59:13.000Z</time>
      </trkpt>
      <trkpt lat="36.936445869505405426025390625" lon="-5.1988263241946697235107421875">
        <ele>661</ele>
        <time>2019-11-01T14:59:16.000Z</time>
      </trkpt>
      <trkpt lat="36.93626456893980503082275390625" lon="-5.19905657507479190826416015625">
        <ele>658.20001220703125</ele>
        <time>2019-11-01T14:59:19.000Z</time>
      </trkpt>
      <trkpt lat="36.9360909797251224517822265625" lon="-5.199291519820690155029296875">
        <ele>658.20001220703125</ele>
        <time>2019-11-01T14:59:22.000Z</time>
      </trkpt>
      <trkpt lat="36.9359364174306392669677734375" lon="-5.19952587783336639404296875">
        <ele>659.5999755859375</ele>
        <time>2019-11-01T14:59:25.000Z</time>
      </trkpt>
      <trkpt lat="36.93582988344132900238037109375" lon="-5.199782364070415496826171875">
        <ele>659.79998779296875</ele>
        <time>2019-11-01T14:59:28.000Z</time>
      </trkpt>
      <trkpt lat="36.93578369915485382080078125" lon="-5.19995394162833690643310546875">
        <ele>659.79998779296875</ele>
        <time>2019-11-01T14:59:30.000Z</time>
      </trkpt>
      <trkpt lat="36.93573801778256893157958984375" lon="-5.20018930546939373016357421875">
        <ele>660.4000244140625</ele>
        <time>2019-11-01T14:59:33.000Z</time>
      </trkpt>
      <trkpt lat="36.93572946824133396148681640625" lon="-5.20047806203365325927734375">
        <ele>659.5999755859375</ele>
        <time>2019-11-01T14:59:37.000Z</time>
      </trkpt>
      <trkpt lat="36.93574740551412105560302734375" lon="-5.20076279528439044952392578125">
        <ele>660</ele>
        <time>2019-11-01T14:59:41.000Z</time>
      </trkpt>
      <trkpt lat="36.935765258967876434326171875" lon="-5.20103721879422664642333984375">
        <ele>660.4000244140625</ele>
        <time>2019-11-01T14:59:45.000Z</time>
      </trkpt>
      <trkpt lat="36.93578193895518779754638671875" lon="-5.201310552656650543212890625">
        <ele>660.79998779296875</ele>
        <time>2019-11-01T14:59:49.000Z</time>
      </trkpt>
      <trkpt lat="36.9357872195541858673095703125" lon="-5.201573073863983154296875">
        <ele>661.20001220703125</ele>
        <time>2019-11-01T14:59:53.000Z</time>
      </trkpt>
      <trkpt lat="36.93577087484300136566162109375" lon="-5.20184020511806011199951171875">
        <ele>660.4000244140625</ele>
        <time>2019-11-01T14:59:57.000Z</time>
      </trkpt>
      <trkpt lat="36.93572728894650936126708984375" lon="-5.20211110822856426239013671875">
        <ele>659.79998779296875</ele>
        <time>2019-11-01T15:00:01.000Z</time>
      </trkpt>
      <trkpt lat="36.93566090427339076995849609375" lon="-5.2023678459227085113525390625">
        <ele>658.79998779296875</ele>
        <time>2019-11-01T15:00:05.000Z</time>
      </trkpt>
      <trkpt lat="36.93553023040294647216796875" lon="-5.20260446704924106597900390625">
        <ele>656.5999755859375</ele>
        <time>2019-11-01T15:00:09.000Z</time>
      </trkpt>
      <trkpt lat="36.93549108691513538360595703125" lon="-5.20266096107661724090576171875">
        <ele>656.20001220703125</ele>
        <time>2019-11-01T15:00:10.000Z</time>
      </trkpt>
      <trkpt lat="36.9353520311415195465087890625" lon="-5.2028221450746059417724609375">
        <ele>653.79998779296875</ele>
        <time>2019-11-01T15:00:13.000Z</time>
      </trkpt>
      <trkpt lat="36.9352417252957820892333984375" lon="-5.20292499102652072906494140625">
        <ele>651.79998779296875</ele>
        <time>2019-11-01T15:00:15.000Z</time>
      </trkpt>
      <trkpt lat="36.93504399619996547698974609375" lon="-5.20306865684688091278076171875">
        <ele>649.79998779296875</ele>
        <time>2019-11-01T15:00:18.000Z</time>
      </trkpt>
      <trkpt lat="36.93480108864605426788330078125" lon="-5.2032207883894443511962890625">
        <ele>649.20001220703125</ele>
        <time>2019-11-01T15:00:21.000Z</time>
      </trkpt>
      <trkpt lat="36.9346348755061626434326171875" lon="-5.203339643776416778564453125">
        <ele>650.4000244140625</ele>
        <time>2019-11-01T15:00:23.000Z</time>
      </trkpt>
      <trkpt lat="36.9344759546220302581787109375" lon="-5.20348892547190189361572265625">
        <ele>650.79998779296875</ele>
        <time>2019-11-01T15:00:25.000Z</time>
      </trkpt>
      <trkpt lat="36.9344058819115161895751953125" lon="-5.2035758458077907562255859375">
        <ele>650.5999755859375</ele>
        <time>2019-11-01T15:00:26.000Z</time>
      </trkpt>
      <trkpt lat="36.93428166210651397705078125" lon="-5.20377391017973423004150390625">
        <ele>649.5999755859375</ele>
        <time>2019-11-01T15:00:28.000Z</time>
      </trkpt>
      <trkpt lat="36.9341839291155338287353515625" lon="-5.20399552769958972930908203125">
        <ele>647.79998779296875</ele>
        <time>2019-11-01T15:00:30.000Z</time>
      </trkpt>
      <trkpt lat="36.9340806640684604644775390625" lon="-5.20421597175300121307373046875">
        <ele>647</ele>
        <time>2019-11-01T15:00:32.000Z</time>
      </trkpt>
      <trkpt lat="36.93398687057197093963623046875" lon="-5.20444295369088649749755859375">
        <ele>646.20001220703125</ele>
        <time>2019-11-01T15:00:34.000Z</time>
      </trkpt>
      <trkpt lat="36.9339053146541118621826171875" lon="-5.2046804130077362060546875">
        <ele>644.4000244140625</ele>
        <time>2019-11-01T15:00:36.000Z</time>
      </trkpt>
      <trkpt lat="36.933831386268138885498046875" lon="-5.20492994226515293121337890625">
        <ele>641.79998779296875</ele>
        <time>2019-11-01T15:00:38.000Z</time>
      </trkpt>
      <trkpt lat="36.93376424722373485565185546875" lon="-5.20518827252089977264404296875">
        <ele>639.5999755859375</ele>
        <time>2019-11-01T15:00:40.000Z</time>
      </trkpt>
      <trkpt lat="36.93369082175195217132568359375" lon="-5.20544760860502719879150390625">
        <ele>638</ele>
        <time>2019-11-01T15:00:42.000Z</time>
      </trkpt>
      <trkpt lat="36.93361588753759860992431640625" lon="-5.20570727996528148651123046875">
        <ele>638.20001220703125</ele>
        <time>2019-11-01T15:00:44.000Z</time>
      </trkpt>
      <trkpt lat="36.93353726528584957122802734375" lon="-5.20596628077328205108642578125">
        <ele>637.79998779296875</ele>
        <time>2019-11-01T15:00:46.000Z</time>
      </trkpt>
      <trkpt lat="36.933458559215068817138671875" lon="-5.2062235213816165924072265625">
        <ele>636.79998779296875</ele>
        <time>2019-11-01T15:00:48.000Z</time>
      </trkpt>
      <trkpt lat="36.93337968550622463226318359375" lon="-5.2064801752567291259765625">
        <ele>636.4000244140625</ele>
        <time>2019-11-01T15:00:50.000Z</time>
      </trkpt>
      <trkpt lat="36.93331330083310604095458984375" lon="-5.20673741586506366729736328125">
        <ele>636</ele>
        <time>2019-11-01T15:00:52.000Z</time>
      </trkpt>
      <trkpt lat="36.93326720036566257476806640625" lon="-5.2070032060146331787109375">
        <ele>636.4000244140625</ele>
        <time>2019-11-01T15:00:54.000Z</time>
      </trkpt>
      <trkpt lat="36.9332652725279331207275390625" lon="-5.20727880299091339111328125">
        <ele>636.5999755859375</ele>
        <time>2019-11-01T15:00:56.000Z</time>
      </trkpt>
      <trkpt lat="36.93330810405313968658447265625" lon="-5.2075461857020854949951171875">
        <ele>635.20001220703125</ele>
        <time>2019-11-01T15:00:58.000Z</time>
      </trkpt>
      <trkpt lat="36.93341153673827648162841796875" lon="-5.20781147293746471405029296875">
        <ele>633.5999755859375</ele>
        <time>2019-11-01T15:01:00.000Z</time>
      </trkpt>
      <trkpt lat="36.93353089503943920135498046875" lon="-5.20806594751775264739990234375">
        <ele>633.4000244140625</ele>
        <time>2019-11-01T15:01:02.000Z</time>
      </trkpt>
      <trkpt lat="36.93364572711288928985595703125" lon="-5.20831279456615447998046875">
        <ele>632.5999755859375</ele>
        <time>2019-11-01T15:01:04.000Z</time>
      </trkpt>
      <trkpt lat="36.93376190029084682464599609375" lon="-5.20856752060353755950927734375">
        <ele>632.4000244140625</ele>
        <time>2019-11-01T15:01:06.000Z</time>
      </trkpt>
      <trkpt lat="36.93387002684175968170166015625" lon="-5.20882987417280673980712890625">
        <ele>629.4000244140625</ele>
        <time>2019-11-01T15:01:08.000Z</time>
      </trkpt>
      <trkpt lat="36.93395619280636310577392578125" lon="-5.20910136401653289794921875">
        <ele>625.4000244140625</ele>
        <time>2019-11-01T15:01:10.000Z</time>
      </trkpt>
      <trkpt lat="36.93403196521103382110595703125" lon="-5.20938090048730373382568359375">
        <ele>623.5999755859375</ele>
        <time>2019-11-01T15:01:12.000Z</time>
      </trkpt>
      <trkpt lat="36.93409382365643978118896484375" lon="-5.20966370590031147003173828125">
        <ele>623.5999755859375</ele>
        <time>2019-11-01T15:01:14.000Z</time>
      </trkpt>
      <trkpt lat="36.9341537542641162872314453125" lon="-5.20994919352233409881591796875">
        <ele>622.79998779296875</ele>
        <time>2019-11-01T15:01:16.000Z</time>
      </trkpt>
      <trkpt lat="36.934210918843746185302734375" lon="-5.210236608982086181640625">
        <ele>621.5999755859375</ele>
        <time>2019-11-01T15:01:18.000Z</time>
      </trkpt>
      <trkpt lat="36.934265233576297760009765625" lon="-5.21052486263215541839599609375">
        <ele>618.79998779296875</ele>
        <time>2019-11-01T15:01:20.000Z</time>
      </trkpt>
      <trkpt lat="36.934301443397998809814453125" lon="-5.210814289748668670654296875">
        <ele>618</ele>
        <time>2019-11-01T15:01:22.000Z</time>
      </trkpt>
      <trkpt lat="36.93435517139732837677001953125" lon="-5.21110053174197673797607421875">
        <ele>617.20001220703125</ele>
        <time>2019-11-01T15:01:24.000Z</time>
      </trkpt>
      <trkpt lat="36.934416778385639190673828125" lon="-5.2113767154514789581298828125">
        <ele>613.79998779296875</ele>
        <time>2019-11-01T15:01:26.000Z</time>
      </trkpt>
      <trkpt lat="36.9344705902040004730224609375" lon="-5.2116489596664905548095703125">
        <ele>610.20001220703125</ele>
        <time>2019-11-01T15:01:28.000Z</time>
      </trkpt>
      <trkpt lat="36.9345376454293727874755859375" lon="-5.211913324892520904541015625">
        <ele>608.79998779296875</ele>
        <time>2019-11-01T15:01:30.000Z</time>
      </trkpt>
      <trkpt lat="36.93464241921901702880859375" lon="-5.21216352470219135284423828125">
        <ele>607.5999755859375</ele>
        <time>2019-11-01T15:01:32.000Z</time>
      </trkpt>
      <trkpt lat="36.9347892701625823974609375" lon="-5.2123922668397426605224609375">
        <ele>605.5999755859375</ele>
        <time>2019-11-01T15:01:34.000Z</time>
      </trkpt>
      <trkpt lat="36.93496763706207275390625" lon="-5.212604999542236328125">
        <ele>604</ele>
        <time>2019-11-01T15:01:36.000Z</time>
      </trkpt>
      <trkpt lat="36.9351352751255035400390625" lon="-5.21280759014189243316650390625">
        <ele>603.20001220703125</ele>
        <time>2019-11-01T15:01:38.000Z</time>
      </trkpt>
      <trkpt lat="36.93530358374118804931640625" lon="-5.2130142040550708770751953125">
        <ele>601.79998779296875</ele>
        <time>2019-11-01T15:01:40.000Z</time>
      </trkpt>
      <trkpt lat="36.93546988070011138916015625" lon="-5.21322165615856647491455078125">
        <ele>599.79998779296875</ele>
        <time>2019-11-01T15:01:42.000Z</time>
      </trkpt>
      <trkpt lat="36.93563927896320819854736328125" lon="-5.21342617459595203399658203125">
        <ele>597.5999755859375</ele>
        <time>2019-11-01T15:01:44.000Z</time>
      </trkpt>
      <trkpt lat="36.935801804065704345703125" lon="-5.2136311121284961700439453125">
        <ele>595.79998779296875</ele>
        <time>2019-11-01T15:01:46.000Z</time>
      </trkpt>
      <trkpt lat="36.935970783233642578125" lon="-5.21383906714618206024169921875">
        <ele>594.5999755859375</ele>
        <time>2019-11-01T15:01:48.000Z</time>
      </trkpt>
      <trkpt lat="36.9361238367855548858642578125" lon="-5.21403989754617214202880859375">
        <ele>593.4000244140625</ele>
        <time>2019-11-01T15:01:50.000Z</time>
      </trkpt>
      <trkpt lat="36.936271525919437408447265625" lon="-5.2142369560897350311279296875">
        <ele>593</ele>
        <time>2019-11-01T15:01:52.000Z</time>
      </trkpt>
      <trkpt lat="36.936402954161167144775390625" lon="-5.21443652920424938201904296875">
        <ele>592.20001220703125</ele>
        <time>2019-11-01T15:01:54.000Z</time>
      </trkpt>
      <trkpt lat="36.93652709014713764190673828125" lon="-5.2146421372890472412109375">
        <ele>594</ele>
        <time>2019-11-01T15:01:56.000Z</time>
      </trkpt>
      <trkpt lat="36.93662096746265888214111328125" lon="-5.2148484997451305389404296875">
        <ele>593.5999755859375</ele>
        <time>2019-11-01T15:01:58.000Z</time>
      </trkpt>
      <trkpt lat="36.93665047176182270050048828125" lon="-5.21494648419320583343505859375">
        <ele>594</ele>
        <time>2019-11-01T15:01:59.000Z</time>
      </trkpt>
      <trkpt lat="36.9367155991494655609130859375" lon="-5.21523633040487766265869140625">
        <ele>593.79998779296875</ele>
        <time>2019-11-01T15:02:02.000Z</time>
      </trkpt>
      <trkpt lat="36.93675038404762744903564453125" lon="-5.21549281664192676544189453125">
        <ele>593.79998779296875</ele>
        <time>2019-11-01T15:02:05.000Z</time>
      </trkpt>
      <trkpt lat="36.9367741048336029052734375" lon="-5.215716026723384857177734375">
        <ele>594.79998779296875</ele>
        <time>2019-11-01T15:02:08.000Z</time>
      </trkpt>
      <trkpt lat="36.93680553697049617767333984375" lon="-5.21597259677946567535400390625">
        <ele>595.79998779296875</ele>
        <time>2019-11-01T15:02:12.000Z</time>
      </trkpt>
      <trkpt lat="36.93683571182191371917724609375" lon="-5.21624232642352581024169921875">
        <ele>597</ele>
        <time>2019-11-01T15:02:17.000Z</time>
      </trkpt>
      <trkpt lat="36.93685431964695453643798828125" lon="-5.21634810604155063629150390625">
        <ele>597.4000244140625</ele>
        <time>2019-11-01T15:02:19.000Z</time>
      </trkpt>
      <trkpt lat="36.93689891137182712554931640625" lon="-5.2165899239480495452880859375">
        <ele>598.20001220703125</ele>
        <time>2019-11-01T15:02:24.000Z</time>
      </trkpt>
      <trkpt lat="36.9369462691247463226318359375" lon="-5.21682252176105976104736328125">
        <ele>598.79998779296875</ele>
        <time>2019-11-01T15:02:29.000Z</time>
      </trkpt>
      <trkpt lat="36.9370046071708202362060546875" lon="-5.2170663513243198394775390625">
        <ele>599.5999755859375</ele>
        <time>2019-11-01T15:02:34.000Z</time>
      </trkpt>
      <trkpt lat="36.937048025429248809814453125" lon="-5.21730112843215465545654296875">
        <ele>600</ele>
        <time>2019-11-01T15:02:39.000Z</time>
      </trkpt>
      <trkpt lat="36.93711600266396999359130859375" lon="-5.2175390906631946563720703125">
        <ele>600.5999755859375</ele>
        <time>2019-11-01T15:02:44.000Z</time>
      </trkpt>
      <trkpt lat="36.93712505511939525604248046875" lon="-5.217585526406764984130859375">
        <ele>600.5999755859375</ele>
        <time>2019-11-01T15:02:45.000Z</time>
      </trkpt>
      <trkpt lat="36.9371584989130496978759765625" lon="-5.2177674137055873870849609375">
        <ele>600.5999755859375</ele>
        <time>2019-11-01T15:02:49.000Z</time>
      </trkpt>
      <trkpt lat="36.9372138194739818572998046875" lon="-5.21800638176500797271728515625">
        <ele>600.4000244140625</ele>
        <time>2019-11-01T15:02:54.000Z</time>
      </trkpt>
      <trkpt lat="36.93723251111805438995361328125" lon="-5.2181000076234340667724609375">
        <ele>600.20001220703125</ele>
        <time>2019-11-01T15:02:56.000Z</time>
      </trkpt>
      <trkpt lat="36.93726151250302791595458984375" lon="-5.2183516323566436767578125">
        <ele>599.4000244140625</ele>
        <time>2019-11-01T15:03:01.000Z</time>
      </trkpt>
      <trkpt lat="36.9372622668743133544921875" lon="-5.218626558780670166015625">
        <ele>599.4000244140625</ele>
        <time>2019-11-01T15:03:06.000Z</time>
      </trkpt>
      <trkpt lat="36.93725145421922206878662109375" lon="-5.2188858948647975921630859375">
        <ele>600.20001220703125</ele>
        <time>2019-11-01T15:03:11.000Z</time>
      </trkpt>
      <trkpt lat="36.9372309185564517974853515625" lon="-5.21915939636528491973876953125">
        <ele>601</ele>
        <time>2019-11-01T15:03:16.000Z</time>
      </trkpt>
      <trkpt lat="36.937201917171478271484375" lon="-5.2194310538470745086669921875">
        <ele>601</ele>
        <time>2019-11-01T15:03:21.000Z</time>
      </trkpt>
      <trkpt lat="36.93716914393007755279541015625" lon="-5.21966658532619476318359375">
        <ele>600.20001220703125</ele>
        <time>2019-11-01T15:03:25.000Z</time>
      </trkpt>
      <trkpt lat="36.9371313415467739105224609375" lon="-5.219915024936199188232421875">
        <ele>599.4000244140625</ele>
        <time>2019-11-01T15:03:29.000Z</time>
      </trkpt>
      <trkpt lat="36.9370988197624683380126953125" lon="-5.22016153670847415924072265625">
        <ele>599.20001220703125</ele>
        <time>2019-11-01T15:03:33.000Z</time>
      </trkpt>
      <trkpt lat="36.9370664656162261962890625" lon="-5.2204060368239879608154296875">
        <ele>597.5999755859375</ele>
        <time>2019-11-01T15:03:37.000Z</time>
      </trkpt>
      <trkpt lat="36.93702933378517627716064453125" lon="-5.22066009230911731719970703125">
        <ele>596</ele>
        <time>2019-11-01T15:03:41.000Z</time>
      </trkpt>
      <trkpt lat="36.9369940459728240966796875" lon="-5.220930576324462890625">
        <ele>594.4000244140625</ele>
        <time>2019-11-01T15:03:45.000Z</time>
      </trkpt>
      <trkpt lat="36.9369680620729923248291015625" lon="-5.22122360765933990478515625">
        <ele>593.20001220703125</ele>
        <time>2019-11-01T15:03:49.000Z</time>
      </trkpt>
      <trkpt lat="36.9369459338486194610595703125" lon="-5.2214524336159229278564453125">
        <ele>593.20001220703125</ele>
        <time>2019-11-01T15:03:52.000Z</time>
      </trkpt>
      <trkpt lat="36.93691886030137538909912109375" lon="-5.2216829359531402587890625">
        <ele>593</ele>
        <time>2019-11-01T15:03:55.000Z</time>
      </trkpt>
      <trkpt lat="36.9368839077651500701904296875" lon="-5.22191804833710193634033203125">
        <ele>591.79998779296875</ele>
        <time>2019-11-01T15:03:58.000Z</time>
      </trkpt>
      <trkpt lat="36.936848871409893035888671875" lon="-5.2221538312733173370361328125">
        <ele>590.79998779296875</ele>
        <time>2019-11-01T15:04:01.000Z</time>
      </trkpt>
      <trkpt lat="36.93681023083627223968505859375" lon="-5.22239045239984989166259765625">
        <ele>589.20001220703125</ele>
        <time>2019-11-01T15:04:04.000Z</time>
      </trkpt>
      <trkpt lat="36.93677435629069805145263671875" lon="-5.2226295880973339080810546875">
        <ele>589</ele>
        <time>2019-11-01T15:04:07.000Z</time>
      </trkpt>
      <trkpt lat="36.936741583049297332763671875" lon="-5.2228770218789577484130859375">
        <ele>588.5999755859375</ele>
        <time>2019-11-01T15:04:10.000Z</time>
      </trkpt>
      <trkpt lat="36.93671400658786296844482421875" lon="-5.22312797605991363525390625">
        <ele>587.79998779296875</ele>
        <time>2019-11-01T15:04:13.000Z</time>
      </trkpt>
      <trkpt lat="36.93668031133711338043212890625" lon="-5.22337063215672969818115234375">
        <ele>587.4000244140625</ele>
        <time>2019-11-01T15:04:16.000Z</time>
      </trkpt>
      <trkpt lat="36.9366453588008880615234375" lon="-5.22359727881848812103271484375">
        <ele>586.79998779296875</ele>
        <time>2019-11-01T15:04:19.000Z</time>
      </trkpt>
      <trkpt lat="36.9366009347140789031982421875" lon="-5.22387824021279811859130859375">
        <ele>586.5999755859375</ele>
        <time>2019-11-01T15:04:23.000Z</time>
      </trkpt>
      <trkpt lat="36.93656246177852153778076171875" lon="-5.22414453327655792236328125">
        <ele>586.79998779296875</ele>
        <time>2019-11-01T15:04:27.000Z</time>
      </trkpt>
      <trkpt lat="36.93651326000690460205078125" lon="-5.22440697066485881805419921875">
        <ele>586</ele>
        <time>2019-11-01T15:04:31.000Z</time>
      </trkpt>
      <trkpt lat="36.93646405823528766632080078125" lon="-5.224674604833126068115234375">
        <ele>585.79998779296875</ele>
        <time>2019-11-01T15:04:35.000Z</time>
      </trkpt>
      <trkpt lat="36.93639398552477359771728515625" lon="-5.22492849268019199371337890625">
        <ele>585.20001220703125</ele>
        <time>2019-11-01T15:04:39.000Z</time>
      </trkpt>
      <trkpt lat="36.93632039241492748260498046875" lon="-5.2251786924898624420166015625">
        <ele>584.5999755859375</ele>
        <time>2019-11-01T15:04:43.000Z</time>
      </trkpt>
      <trkpt lat="36.9362448714673519134521484375" lon="-5.2254058420658111572265625">
        <ele>584</ele>
        <time>2019-11-01T15:04:47.000Z</time>
      </trkpt>
      <trkpt lat="36.93620572797954082489013671875" lon="-5.22551438771188259124755859375">
        <ele>583.79998779296875</ele>
        <time>2019-11-01T15:04:49.000Z</time>
      </trkpt>
      <trkpt lat="36.93612274713814258575439453125" lon="-5.22575276903808116912841796875">
        <ele>583</ele>
        <time>2019-11-01T15:04:53.000Z</time>
      </trkpt>
      <trkpt lat="36.93602518178522586822509765625" lon="-5.2260101772844791412353515625">
        <ele>583</ele>
        <time>2019-11-01T15:04:57.000Z</time>
      </trkpt>
      <trkpt lat="36.93591923452913761138916015625" lon="-5.2262777276337146759033203125">
        <ele>583</ele>
        <time>2019-11-01T15:05:01.000Z</time>
      </trkpt>
      <trkpt lat="36.93583088926970958709716796875" lon="-5.226485095918178558349609375">
        <ele>583.20001220703125</ele>
        <time>2019-11-01T15:05:04.000Z</time>
      </trkpt>
      <trkpt lat="36.93573902361094951629638671875" lon="-5.22670461796224117279052734375">
        <ele>583.20001220703125</ele>
        <time>2019-11-01T15:05:07.000Z</time>
      </trkpt>
      <trkpt lat="36.9356450624763965606689453125" lon="-5.226930342614650726318359375">
        <ele>582.5999755859375</ele>
        <time>2019-11-01T15:05:10.000Z</time>
      </trkpt>
      <trkpt lat="36.93555864505469799041748046875" lon="-5.227160342037677764892578125">
        <ele>581.79998779296875</ele>
        <time>2019-11-01T15:05:13.000Z</time>
      </trkpt>
      <trkpt lat="36.93546359427273273468017578125" lon="-5.22739830426871776580810546875">
        <ele>580.5999755859375</ele>
        <time>2019-11-01T15:05:16.000Z</time>
      </trkpt>
      <trkpt lat="36.935379020869731903076171875" lon="-5.22764339111745357513427734375">
        <ele>579</ele>
        <time>2019-11-01T15:05:19.000Z</time>
      </trkpt>
      <trkpt lat="36.93529930897057056427001953125" lon="-5.22790004499256610870361328125">
        <ele>577.5999755859375</ele>
        <time>2019-11-01T15:05:22.000Z</time>
      </trkpt>
      <trkpt lat="36.9352249614894390106201171875" lon="-5.22816650569438934326171875">
        <ele>576.20001220703125</ele>
        <time>2019-11-01T15:05:25.000Z</time>
      </trkpt>
      <trkpt lat="36.93514642305672168731689453125" lon="-5.22843648679554462432861328125">
        <ele>576</ele>
        <time>2019-11-01T15:05:28.000Z</time>
      </trkpt>
      <trkpt lat="36.93506947718560695648193359375" lon="-5.22871610708534717559814453125">
        <ele>575</ele>
        <time>2019-11-01T15:05:31.000Z</time>
      </trkpt>
      <trkpt lat="36.9349869154393672943115234375" lon="-5.229000337421894073486328125">
        <ele>573.5999755859375</ele>
        <time>2019-11-01T15:05:34.000Z</time>
      </trkpt>
      <trkpt lat="36.934902928769588470458984375" lon="-5.22929378785192966461181640625">
        <ele>572.5999755859375</ele>
        <time>2019-11-01T15:05:37.000Z</time>
      </trkpt>
      <trkpt lat="36.93483193404972553253173828125" lon="-5.229594446718692779541015625">
        <ele>572.5999755859375</ele>
        <time>2019-11-01T15:05:40.000Z</time>
      </trkpt>
      <trkpt lat="36.934771500527858734130859375" lon="-5.22990130819380283355712890625">
        <ele>572.20001220703125</ele>
        <time>2019-11-01T15:05:43.000Z</time>
      </trkpt>
      <trkpt lat="36.934719868004322052001953125" lon="-5.23020423017442226409912109375">
        <ele>571.5999755859375</ele>
        <time>2019-11-01T15:05:46.000Z</time>
      </trkpt>
      <trkpt lat="36.9346881844103336334228515625" lon="-5.23050581105053424835205078125">
        <ele>569.79998779296875</ele>
        <time>2019-11-01T15:05:49.000Z</time>
      </trkpt>
      <trkpt lat="36.934678964316844940185546875" lon="-5.2308131754398345947265625">
        <ele>567.5999755859375</ele>
        <time>2019-11-01T15:05:52.000Z</time>
      </trkpt>
      <trkpt lat="36.9346714206039905548095703125" lon="-5.23111559450626373291015625">
        <ele>566.79998779296875</ele>
        <time>2019-11-01T15:05:55.000Z</time>
      </trkpt>
      <trkpt lat="36.93466815166175365447998046875" lon="-5.23141893558204174041748046875">
        <ele>566.79998779296875</ele>
        <time>2019-11-01T15:05:58.000Z</time>
      </trkpt>
      <trkpt lat="36.9346725940704345703125" lon="-5.2317251265048980712890625">
        <ele>566.5999755859375</ele>
        <time>2019-11-01T15:06:01.000Z</time>
      </trkpt>
      <trkpt lat="36.93467728793621063232421875" lon="-5.23202561773359775543212890625">
        <ele>565.20001220703125</ele>
        <time>2019-11-01T15:06:04.000Z</time>
      </trkpt>
      <trkpt lat="36.9346791319549083709716796875" lon="-5.2323220856487751007080078125">
        <ele>564.20001220703125</ele>
        <time>2019-11-01T15:06:07.000Z</time>
      </trkpt>
      <trkpt lat="36.93467619828879833221435546875" lon="-5.23260916583240032196044921875">
        <ele>563.4000244140625</ele>
        <time>2019-11-01T15:06:10.000Z</time>
      </trkpt>
      <trkpt lat="36.9346818141639232635498046875" lon="-5.232887528836727142333984375">
        <ele>564</ele>
        <time>2019-11-01T15:06:13.000Z</time>
      </trkpt>
      <trkpt lat="36.93467804230749607086181640625" lon="-5.2331466972827911376953125">
        <ele>564.5999755859375</ele>
        <time>2019-11-01T15:06:16.000Z</time>
      </trkpt>
      <trkpt lat="36.93467837758362293243408203125" lon="-5.233398489654064178466796875">
        <ele>564.5999755859375</ele>
        <time>2019-11-01T15:06:19.000Z</time>
      </trkpt>
      <trkpt lat="36.93467871285974979400634765625" lon="-5.23363645188510417938232421875">
        <ele>563.79998779296875</ele>
        <time>2019-11-01T15:06:22.000Z</time>
      </trkpt>
      <trkpt lat="36.934670917689800262451171875" lon="-5.2339283935725688934326171875">
        <ele>563</ele>
        <time>2019-11-01T15:06:26.000Z</time>
      </trkpt>
      <trkpt lat="36.93464032374322414398193359375" lon="-5.2341855503618717193603515625">
        <ele>562.79998779296875</ele>
        <time>2019-11-01T15:06:30.000Z</time>
      </trkpt>
      <trkpt lat="36.93459288217127323150634765625" lon="-5.234420411288738250732421875">
        <ele>563</ele>
        <time>2019-11-01T15:06:34.000Z</time>
      </trkpt>
      <trkpt lat="36.93453554995357990264892578125" lon="-5.234678573906421661376953125">
        <ele>563.20001220703125</ele>
        <time>2019-11-01T15:06:39.000Z</time>
      </trkpt>
      <trkpt lat="36.9344781339168548583984375" lon="-5.2349258400499820709228515625">
        <ele>564.4000244140625</ele>
        <time>2019-11-01T15:06:44.000Z</time>
      </trkpt>
      <trkpt lat="36.93442113697528839111328125" lon="-5.23516145534813404083251953125">
        <ele>564.20001220703125</ele>
        <time>2019-11-01T15:06:49.000Z</time>
      </trkpt>
      <trkpt lat="36.93436481058597564697265625" lon="-5.2353922091424465179443359375">
        <ele>563.79998779296875</ele>
        <time>2019-11-01T15:06:54.000Z</time>
      </trkpt>
      <trkpt lat="36.93430856801569461822509765625" lon="-5.23565028794109821319580078125">
        <ele>564</ele>
        <time>2019-11-01T15:07:00.000Z</time>
      </trkpt>
      <trkpt lat="36.934248469769954681396484375" lon="-5.2358803711831569671630859375">
        <ele>564.79998779296875</ele>
        <time>2019-11-01T15:07:06.000Z</time>
      </trkpt>
      <trkpt lat="36.93419314920902252197265625" lon="-5.2361127175390720367431640625">
        <ele>566</ele>
        <time>2019-11-01T15:07:13.000Z</time>
      </trkpt>
      <trkpt lat="36.93418619222939014434814453125" lon="-5.236150436103343963623046875">
        <ele>566.20001220703125</ele>
        <time>2019-11-01T15:07:14.000Z</time>
      </trkpt>
      <trkpt lat="36.9341413490474224090576171875" lon="-5.23637448437511920928955078125">
        <ele>567.20001220703125</ele>
        <time>2019-11-01T15:07:20.000Z</time>
      </trkpt>
      <trkpt lat="36.93411092273890972137451171875" lon="-5.23652737028896808624267578125">
        <ele>568</ele>
        <time>2019-11-01T15:07:24.000Z</time>
      </trkpt>
      <trkpt lat="36.9340618886053562164306640625" lon="-5.236753933131694793701171875">
        <ele>568.5999755859375</ele>
        <time>2019-11-01T15:07:30.000Z</time>
      </trkpt>
      <trkpt lat="36.93400514312088489532470703125" lon="-5.2369904704391956329345703125">
        <ele>569</ele>
        <time>2019-11-01T15:07:36.000Z</time>
      </trkpt>
      <trkpt lat="36.93394839763641357421875" lon="-5.2372258342802524566650390625">
        <ele>569.5999755859375</ele>
        <time>2019-11-01T15:07:42.000Z</time>
      </trkpt>
      <trkpt lat="36.93389349617063999176025390625" lon="-5.23748491890728473663330078125">
        <ele>570</ele>
        <time>2019-11-01T15:07:48.000Z</time>
      </trkpt>
      <trkpt lat="36.93383113481104373931884765625" lon="-5.2377305924892425537109375">
        <ele>571</ele>
        <time>2019-11-01T15:07:54.000Z</time>
      </trkpt>
      <trkpt lat="36.93376759998500347137451171875" lon="-5.23797911591827869415283203125">
        <ele>571</ele>
        <time>2019-11-01T15:08:00.000Z</time>
      </trkpt>
      <trkpt lat="36.93377874791622161865234375" lon="-5.23820308037102222442626953125">
        <ele>570.20001220703125</ele>
        <time>2019-11-01T15:08:06.000Z</time>
      </trkpt>
      <trkpt lat="36.9338546879589557647705078125" lon="-5.23840852081775665283203125">
        <ele>570.79998779296875</ele>
        <time>2019-11-01T15:08:13.000Z</time>
      </trkpt>
      <trkpt lat="36.93397748284041881561279296875" lon="-5.23857884109020233154296875">
        <ele>571</ele>
        <time>2019-11-01T15:08:22.000Z</time>
      </trkpt>
      <trkpt lat="36.9340786524116992950439453125" lon="-5.2386452257633209228515625">
        <ele>572</ele>
        <time>2019-11-01T15:08:31.000Z</time>
      </trkpt>
      <trkpt lat="36.9341168738901615142822265625" lon="-5.23867866955697536468505859375">
        <ele>572.4000244140625</ele>
        <time>2019-11-01T15:09:12.000Z</time>
      </trkpt>
      <trkpt lat="36.93411209620535373687744140625" lon="-5.23868537507951259613037109375">
        <ele>572.4000244140625</ele>
        <time>2019-11-01T15:09:15.000Z</time>
      </trkpt>
      <trkpt lat="36.9342047162353992462158203125" lon="-5.238770283758640289306640625">
        <ele>572.79998779296875</ele>
        <time>2019-11-01T15:09:43.000Z</time>
      </trkpt>
      <trkpt lat="36.93424000404775142669677734375" lon="-5.23899802006781101226806640625">
        <ele>574.4000244140625</ele>
        <time>2019-11-01T15:09:50.000Z</time>
      </trkpt>
      <trkpt lat="36.93422860465943813323974609375" lon="-5.23923640139400959014892578125">
        <ele>575.79998779296875</ele>
        <time>2019-11-01T15:09:57.000Z</time>
      </trkpt>
      <trkpt lat="36.9342265091836452484130859375" lon="-5.23948584683239459991455078125">
        <ele>576.79998779296875</ele>
        <time>2019-11-01T15:10:03.000Z</time>
      </trkpt>
      <trkpt lat="36.93422676064074039459228515625" lon="-5.23975440301001071929931640625">
        <ele>576.4000244140625</ele>
        <time>2019-11-01T15:10:09.000Z</time>
      </trkpt>
      <trkpt lat="36.93421653471887111663818359375" lon="-5.24000099860131740570068359375">
        <ele>575.4000244140625</ele>
        <time>2019-11-01T15:10:14.000Z</time>
      </trkpt>
      <trkpt lat="36.93421469070017337799072265625" lon="-5.24028397165238857269287109375">
        <ele>574.20001220703125</ele>
        <time>2019-11-01T15:10:19.000Z</time>
      </trkpt>
      <trkpt lat="36.93421184085309505462646484375" lon="-5.2405417151749134063720703125">
        <ele>572.79998779296875</ele>
        <time>2019-11-01T15:10:23.000Z</time>
      </trkpt>
      <trkpt lat="36.93421737290918827056884765625" lon="-5.24082510732114315032958984375">
        <ele>569.79998779296875</ele>
        <time>2019-11-01T15:10:27.000Z</time>
      </trkpt>
      <trkpt lat="36.93421200849115848541259765625" lon="-5.24105452001094818115234375">
        <ele>567.4000244140625</ele>
        <time>2019-11-01T15:10:30.000Z</time>
      </trkpt>
      <trkpt lat="36.93420982919633388519287109375" lon="-5.24130128324031829833984375">
        <ele>565.5999755859375</ele>
        <time>2019-11-01T15:10:33.000Z</time>
      </trkpt>
      <trkpt lat="36.93422072567045688629150390625" lon="-5.24157947860658168792724609375">
        <ele>563.79998779296875</ele>
        <time>2019-11-01T15:10:36.000Z</time>
      </trkpt>
      <trkpt lat="36.93423447199165821075439453125" lon="-5.24186412803828716278076171875">
        <ele>562.5999755859375</ele>
        <time>2019-11-01T15:10:39.000Z</time>
      </trkpt>
      <trkpt lat="36.93424855358898639678955078125" lon="-5.2421610988676548004150390625">
        <ele>561.5999755859375</ele>
        <time>2019-11-01T15:10:42.000Z</time>
      </trkpt>
      <trkpt lat="36.93425618112087249755859375" lon="-5.24247081018984317779541015625">
        <ele>560.5999755859375</ele>
        <time>2019-11-01T15:10:45.000Z</time>
      </trkpt>
      <trkpt lat="36.93427361547946929931640625" lon="-5.2427873946726322174072265625">
        <ele>559.5999755859375</ele>
        <time>2019-11-01T15:10:48.000Z</time>
      </trkpt>
      <trkpt lat="36.93428895436227321624755859375" lon="-5.2431203238666057586669921875">
        <ele>558.5999755859375</ele>
        <time>2019-11-01T15:10:51.000Z</time>
      </trkpt>
      <trkpt lat="36.93429239094257354736328125" lon="-5.24334554560482501983642578125">
        <ele>557.79998779296875</ele>
        <time>2019-11-01T15:10:53.000Z</time>
      </trkpt>
      <trkpt lat="36.93430705927312374114990234375" lon="-5.2436802349984645843505859375">
        <ele>556.4000244140625</ele>
        <time>2019-11-01T15:10:56.000Z</time>
      </trkpt>
      <trkpt lat="36.93431024439632892608642578125" lon="-5.2440094761550426483154296875">
        <ele>554.20001220703125</ele>
        <time>2019-11-01T15:10:59.000Z</time>
      </trkpt>
      <trkpt lat="36.93432097323238849639892578125" lon="-5.2443273179233074188232421875">
        <ele>554</ele>
        <time>2019-11-01T15:11:02.000Z</time>
      </trkpt>
      <trkpt lat="36.9343317858874797821044921875" lon="-5.24462412111461162567138671875">
        <ele>552</ele>
        <time>2019-11-01T15:11:05.000Z</time>
      </trkpt>
      <trkpt lat="36.9343405030667781829833984375" lon="-5.2449053339660167694091796875">
        <ele>552.5999755859375</ele>
        <time>2019-11-01T15:11:08.000Z</time>
      </trkpt>
      <trkpt lat="36.9343495555222034454345703125" lon="-5.24516676552593708038330078125">
        <ele>552.4000244140625</ele>
        <time>2019-11-01T15:11:11.000Z</time>
      </trkpt>
      <trkpt lat="36.93435005843639373779296875" lon="-5.2454136125743389129638671875">
        <ele>552.4000244140625</ele>
        <time>2019-11-01T15:11:14.000Z</time>
      </trkpt>
      <trkpt lat="36.9343522377312183380126953125" lon="-5.24570639245212078094482421875">
        <ele>553</ele>
        <time>2019-11-01T15:11:18.000Z</time>
      </trkpt>
      <trkpt lat="36.93436271511018276214599609375" lon="-5.24596237577497959136962890625">
        <ele>555.20001220703125</ele>
        <time>2019-11-01T15:11:22.000Z</time>
      </trkpt>
      <trkpt lat="36.93433505482971668243408203125" lon="-5.24622104130685329437255859375">
        <ele>555.4000244140625</ele>
        <time>2019-11-01T15:11:27.000Z</time>
      </trkpt>
      <trkpt lat="36.93432784639298915863037109375" lon="-5.246413238346576690673828125">
        <ele>555.79998779296875</ele>
        <time>2019-11-01T15:11:31.000Z</time>
      </trkpt>
      <trkpt lat="36.9343039579689502716064453125" lon="-5.246550701558589935302734375">
        <ele>556.5999755859375</ele>
        <time>2019-11-01T15:11:34.000Z</time>
      </trkpt>
      <trkpt lat="36.93427990190684795379638671875" lon="-5.24679386056959629058837890625">
        <ele>557.79998779296875</ele>
        <time>2019-11-01T15:11:39.000Z</time>
      </trkpt>
      <trkpt lat="36.93427839316427707672119140625" lon="-5.24684348143637180328369140625">
        <ele>558</ele>
        <time>2019-11-01T15:11:40.000Z</time>
      </trkpt>
      <trkpt lat="36.9342922233045101165771484375" lon="-5.24708018638193607330322265625">
        <ele>558.5999755859375</ele>
        <time>2019-11-01T15:11:45.000Z</time>
      </trkpt>
      <trkpt lat="36.93429063074290752410888671875" lon="-5.24716752581298351287841796875">
        <ele>558.79998779296875</ele>
        <time>2019-11-01T15:11:47.000Z</time>
      </trkpt>
      <trkpt lat="36.9342865236103534698486328125" lon="-5.24725084193050861358642578125">
        <ele>558.5999755859375</ele>
        <time>2019-11-01T15:11:49.000Z</time>
      </trkpt>
      <trkpt lat="36.93429297767579555511474609375" lon="-5.24734052829444408416748046875">
        <ele>558.20001220703125</ele>
        <time>2019-11-01T15:11:51.000Z</time>
      </trkpt>
      <trkpt lat="36.93431862629950046539306640625" lon="-5.24756667204201221466064453125">
        <ele>557.20001220703125</ele>
        <time>2019-11-01T15:11:56.000Z</time>
      </trkpt>
      <trkpt lat="36.9343197159469127655029296875" lon="-5.2476126886904239654541015625">
        <ele>557.20001220703125</ele>
        <time>2019-11-01T15:11:57.000Z</time>
      </trkpt>
      <trkpt lat="36.934298090636730194091796875" lon="-5.247838832437992095947265625">
        <ele>557.20001220703125</ele>
        <time>2019-11-01T15:12:02.000Z</time>
      </trkpt>
      <trkpt lat="36.93423044867813587188720703125" lon="-5.2480941452085971832275390625">
        <ele>557.20001220703125</ele>
        <time>2019-11-01T15:12:08.000Z</time>
      </trkpt>
      <trkpt lat="36.93414160050451755523681640625" lon="-5.24833227507770061492919921875">
        <ele>557.4000244140625</ele>
        <time>2019-11-01T15:12:14.000Z</time>
      </trkpt>
      <trkpt lat="36.93411276675760746002197265625" lon="-5.24852505885064601898193359375">
        <ele>557.5999755859375</ele>
        <time>2019-11-01T15:12:18.000Z</time>
      </trkpt>
      <trkpt lat="36.9340863637626171112060546875" lon="-5.2487532980740070343017578125">
        <ele>558.79998779296875</ele>
        <time>2019-11-01T15:12:23.000Z</time>
      </trkpt>
      <trkpt lat="36.93406976759433746337890625" lon="-5.24893283843994140625">
        <ele>560.4000244140625</ele>
        <time>2019-11-01T15:12:27.000Z</time>
      </trkpt>
      <trkpt lat="36.9340655766427516937255859375" lon="-5.249186642467975616455078125">
        <ele>562.5999755859375</ele>
        <time>2019-11-01T15:12:33.000Z</time>
      </trkpt>
      <trkpt lat="36.93406934849917888641357421875" lon="-5.2492277137935161590576171875">
        <ele>563</ele>
        <time>2019-11-01T15:12:34.000Z</time>
      </trkpt>
      <trkpt lat="36.93407714366912841796875" lon="-5.24937808513641357421875">
        <ele>564</ele>
        <time>2019-11-01T15:12:38.000Z</time>
      </trkpt>
      <trkpt lat="36.934108324348926544189453125" lon="-5.24961152113974094390869140625">
        <ele>564.79998779296875</ele>
        <time>2019-11-01T15:12:46.000Z</time>
      </trkpt>
      <trkpt lat="36.9341644831001758575439453125" lon="-5.2498426102101802825927734375">
        <ele>565.5999755859375</ele>
        <time>2019-11-01T15:12:55.000Z</time>
      </trkpt>
      <trkpt lat="36.93421971984207630157470703125" lon="-5.25007872842252254486083984375">
        <ele>566.5999755859375</ele>
        <time>2019-11-01T15:13:04.000Z</time>
      </trkpt>
      <trkpt lat="36.934264563024044036865234375" lon="-5.25031979195773601531982421875">
        <ele>567.4000244140625</ele>
        <time>2019-11-01T15:13:12.000Z</time>
      </trkpt>
      <trkpt lat="36.934312172234058380126953125" lon="-5.250555239617824554443359375">
        <ele>568.20001220703125</ele>
        <time>2019-11-01T15:13:20.000Z</time>
      </trkpt>
      <trkpt lat="36.93432918749749660491943359375" lon="-5.2507803775370121002197265625">
        <ele>569</ele>
        <time>2019-11-01T15:13:29.000Z</time>
      </trkpt>
      <trkpt lat="36.934367157518863677978515625" lon="-5.25101649574935436248779296875">
        <ele>569.5999755859375</ele>
        <time>2019-11-01T15:13:37.000Z</time>
      </trkpt>
      <trkpt lat="36.934426836669445037841796875" lon="-5.25125202722847461700439453125">
        <ele>571.5999755859375</ele>
        <time>2019-11-01T15:13:45.000Z</time>
      </trkpt>
      <trkpt lat="36.93446262739598751068115234375" lon="-5.25149929337203502655029296875">
        <ele>572.4000244140625</ele>
        <time>2019-11-01T15:13:54.000Z</time>
      </trkpt>
      <trkpt lat="36.93451459519565105438232421875" lon="-5.2517339028418064117431640625">
        <ele>572.5999755859375</ele>
        <time>2019-11-01T15:14:03.000Z</time>
      </trkpt>
      <trkpt lat="36.93458349443972110748291015625" lon="-5.25197823531925678253173828125">
        <ele>573</ele>
        <time>2019-11-01T15:14:11.000Z</time>
      </trkpt>
      <trkpt lat="36.9346372224390506744384765625" lon="-5.25222013704478740692138671875">
        <ele>572.4000244140625</ele>
        <time>2019-11-01T15:14:18.000Z</time>
      </trkpt>
      <trkpt lat="36.9346516393125057220458984375" lon="-5.25244996882975101470947265625">
        <ele>572.20001220703125</ele>
        <time>2019-11-01T15:14:24.000Z</time>
      </trkpt>
      <trkpt lat="36.93464585579931735992431640625" lon="-5.25270176120102405548095703125">
        <ele>573.20001220703125</ele>
        <time>2019-11-01T15:14:31.000Z</time>
      </trkpt>
      <trkpt lat="36.93462900817394256591796875" lon="-5.25293444283306598663330078125">
        <ele>574</ele>
        <time>2019-11-01T15:14:38.000Z</time>
      </trkpt>
      <trkpt lat="36.934606544673442840576171875" lon="-5.25318087078630924224853515625">
        <ele>573.79998779296875</ele>
        <time>2019-11-01T15:14:46.000Z</time>
      </trkpt>
      <trkpt lat="36.934597492218017578125" lon="-5.25340986438095569610595703125">
        <ele>573</ele>
        <time>2019-11-01T15:14:52.000Z</time>
      </trkpt>
      <trkpt lat="36.93457628600299358367919921875" lon="-5.25366534478962421417236328125">
        <ele>572.4000244140625</ele>
        <time>2019-11-01T15:14:59.000Z</time>
      </trkpt>
      <trkpt lat="36.93455181084573268890380859375" lon="-5.25390389375388622283935546875">
        <ele>572</ele>
        <time>2019-11-01T15:15:06.000Z</time>
      </trkpt>
      <trkpt lat="36.934541501104831695556640625" lon="-5.2541391737759113311767578125">
        <ele>572</ele>
        <time>2019-11-01T15:15:12.000Z</time>
      </trkpt>
      <trkpt lat="36.9345359690487384796142578125" lon="-5.25437847711145877838134765625">
        <ele>572</ele>
        <time>2019-11-01T15:15:19.000Z</time>
      </trkpt>
      <trkpt lat="36.93450755439698696136474609375" lon="-5.25462121702730655670166015625">
        <ele>572.20001220703125</ele>
        <time>2019-11-01T15:15:26.000Z</time>
      </trkpt>
      <trkpt lat="36.9344943948090076446533203125" lon="-5.25486999191343784332275390625">
        <ele>572.20001220703125</ele>
        <time>2019-11-01T15:15:32.000Z</time>
      </trkpt>
      <trkpt lat="36.93447335623204708099365234375" lon="-5.25513150729238986968994140625">
        <ele>571.5999755859375</ele>
        <time>2019-11-01T15:15:38.000Z</time>
      </trkpt>
      <trkpt lat="36.93444569595158100128173828125" lon="-5.25539956055581569671630859375">
        <ele>569.79998779296875</ele>
        <time>2019-11-01T15:15:43.000Z</time>
      </trkpt>
      <trkpt lat="36.93445290438830852508544921875" lon="-5.25563366711139678955078125">
        <ele>567.5999755859375</ele>
        <time>2019-11-01T15:15:47.000Z</time>
      </trkpt>
      <trkpt lat="36.93443454802036285400390625" lon="-5.25589023716747760772705078125">
        <ele>565</ele>
        <time>2019-11-01T15:15:52.000Z</time>
      </trkpt>
      <trkpt lat="36.9343747012317180633544921875" lon="-5.25610229931771755218505859375">
        <ele>563.79998779296875</ele>
        <time>2019-11-01T15:15:57.000Z</time>
      </trkpt>
      <trkpt lat="36.9343612901866436004638671875" lon="-5.256273709237575531005859375">
        <ele>563.4000244140625</ele>
        <time>2019-11-01T15:16:07.000Z</time>
      </trkpt>
      <trkpt lat="36.934367828071117401123046875" lon="-5.25626993738114833831787109375">
        <ele>563.4000244140625</ele>
        <time>2019-11-01T15:16:10.000Z</time>
      </trkpt>
      <trkpt lat="36.9343451969325542449951171875" lon="-5.2563432790338993072509765625">
        <ele>563.20001220703125</ele>
        <time>2019-11-01T15:16:53.000Z</time>
      </trkpt>
      <trkpt lat="36.93433756940066814422607421875" lon="-5.25657554157078266143798828125">
        <ele>561.79998779296875</ele>
        <time>2019-11-01T15:16:58.000Z</time>
      </trkpt>
      <trkpt lat="36.9343371503055095672607421875" lon="-5.25684602558612823486328125">
        <ele>561</ele>
        <time>2019-11-01T15:17:02.000Z</time>
      </trkpt>
      <trkpt lat="36.93434469401836395263671875" lon="-5.25708071887493133544921875">
        <ele>559.4000244140625</ele>
        <time>2019-11-01T15:17:05.000Z</time>
      </trkpt>
      <trkpt lat="36.93435399793088436126708984375" lon="-5.25731449015438556671142578125">
        <ele>559</ele>
        <time>2019-11-01T15:17:08.000Z</time>
      </trkpt>
      <trkpt lat="36.9343901239335536956787109375" lon="-5.2575529552996158599853515625">
        <ele>558.5999755859375</ele>
        <time>2019-11-01T15:17:11.000Z</time>
      </trkpt>
      <trkpt lat="36.9344581849873065948486328125" lon="-5.2577809430658817291259765625">
        <ele>558.20001220703125</ele>
        <time>2019-11-01T15:17:14.000Z</time>
      </trkpt>
      <trkpt lat="36.93453018553555011749267578125" lon="-5.25800616480410099029541015625">
        <ele>557.5999755859375</ele>
        <time>2019-11-01T15:17:17.000Z</time>
      </trkpt>
      <trkpt lat="36.93459455855190753936767578125" lon="-5.25822308845818042755126953125">
        <ele>556.20001220703125</ele>
        <time>2019-11-01T15:17:20.000Z</time>
      </trkpt>
      <trkpt lat="36.93469128571450710296630859375" lon="-5.2584920637309551239013671875">
        <ele>555.5999755859375</ele>
        <time>2019-11-01T15:17:24.000Z</time>
      </trkpt>
      <trkpt lat="36.934789605438709259033203125" lon="-5.258752070367336273193359375">
        <ele>555.5999755859375</ele>
        <time>2019-11-01T15:17:28.000Z</time>
      </trkpt>
      <trkpt lat="36.9348219595849514007568359375" lon="-5.25887033902108669281005859375">
        <ele>556</ele>
        <time>2019-11-01T15:17:31.000Z</time>
      </trkpt>
      <trkpt lat="36.93485070951282978057861328125" lon="-5.25890864431858062744140625">
        <ele>556.4000244140625</ele>
        <time>2019-11-01T15:17:36.000Z</time>
      </trkpt>
      <trkpt lat="36.93491005338728427886962890625" lon="-5.25890453718602657318115234375">
        <ele>556.5999755859375</ele>
        <time>2019-11-01T15:17:40.000Z</time>
      </trkpt>
      <trkpt lat="36.9351030886173248291015625" lon="-5.25897192768752574920654296875">
        <ele>557.4000244140625</ele>
        <time>2019-11-01T15:17:48.000Z</time>
      </trkpt>
      <trkpt lat="36.9350398890674114227294921875" lon="-5.2591284178197383880615234375">
        <ele>557.79998779296875</ele>
        <time>2019-11-01T15:17:55.000Z</time>
      </trkpt>
      <trkpt lat="36.9349761866033077239990234375" lon="-5.25915800593793392181396484375">
        <ele>557.5999755859375</ele>
        <time>2019-11-01T15:18:00.000Z</time>
      </trkpt>
      <trkpt lat="36.93498817272484302520751953125" lon="-5.25917409919202327728271484375">
        <ele>557.79998779296875</ele>
        <time>2019-11-01T15:18:04.000Z</time>
      </trkpt>
      <trkpt lat="36.93501063622534275054931640625" lon="-5.25921885855495929718017578125">
        <ele>558</ele>
        <time>2019-11-01T15:18:52.000Z</time>
      </trkpt>
      <trkpt lat="36.93497476167976856231689453125" lon="-5.2590407431125640869140625">
        <ele>557.20001220703125</ele>
        <time>2019-11-01T15:18:58.000Z</time>
      </trkpt>
      <trkpt lat="36.93502002395689487457275390625" lon="-5.2589641325175762176513671875">
        <ele>557.20001220703125</ele>
        <time>2019-11-01T15:19:02.000Z</time>
      </trkpt>
      <trkpt lat="36.93517886102199554443359375" lon="-5.25892331264913082122802734375">
        <ele>557.5999755859375</ele>
        <time>2019-11-01T15:19:11.000Z</time>
      </trkpt>
      <trkpt lat="36.9352055154740810394287109375" lon="-5.258920378983020782470703125">
        <ele>557.5999755859375</ele>
        <time>2019-11-01T15:19:15.000Z</time>
      </trkpt>
      <trkpt lat="36.935300566256046295166015625" lon="-5.25899087078869342803955078125">
        <ele>558.20001220703125</ele>
        <time>2019-11-01T15:19:52.000Z</time>
      </trkpt>
      <trkpt lat="36.93519704975187778472900390625" lon="-5.259170494973659515380859375">
        <ele>559</ele>
        <time>2019-11-01T15:19:59.000Z</time>
      </trkpt>
      <trkpt lat="36.9351743347942829132080078125" lon="-5.259187929332256317138671875">
        <ele>559.20001220703125</ele>
        <time>2019-11-01T15:20:02.000Z</time>
      </trkpt>
      <trkpt lat="36.93510711193084716796875" lon="-5.25925238616764545440673828125">
        <ele>559.4000244140625</ele>
        <time>2019-11-01T15:20:08.000Z</time>
      </trkpt>
      <trkpt lat="36.93510786630213260650634765625" lon="-5.2594841457903385162353515625">
        <ele>561.5999755859375</ele>
        <time>2019-11-01T15:20:16.000Z</time>
      </trkpt>
      <trkpt lat="36.93513133563101291656494140625" lon="-5.259713642299175262451171875">
        <ele>563.4000244140625</ele>
        <time>2019-11-01T15:20:24.000Z</time>
      </trkpt>
      <trkpt lat="36.9351049326360225677490234375" lon="-5.25995026342570781707763671875">
        <ele>563.5999755859375</ele>
        <time>2019-11-01T15:20:33.000Z</time>
      </trkpt>
      <trkpt lat="36.9350885041058063507080078125" lon="-5.260185711085796356201171875">
        <ele>564</ele>
        <time>2019-11-01T15:20:41.000Z</time>
      </trkpt>
      <trkpt lat="36.93513250909745693206787109375" lon="-5.26032795198261737823486328125">
        <ele>565.20001220703125</ele>
        <time>2019-11-01T15:20:46.000Z</time>
      </trkpt>
      <trkpt lat="36.93518045358359813690185546875" lon="-5.260545797646045684814453125">
        <ele>566</ele>
        <time>2019-11-01T15:20:55.000Z</time>
      </trkpt>
      <trkpt lat="36.93518565036356449127197265625" lon="-5.2605959214270114898681640625">
        <ele>566.4000244140625</ele>
        <time>2019-11-01T15:20:57.000Z</time>
      </trkpt>
      <trkpt lat="36.93524633534252643585205078125" lon="-5.2608044631779193878173828125">
        <ele>567</ele>
        <time>2019-11-01T15:21:07.000Z</time>
      </trkpt>
      <trkpt lat="36.9353205151855945587158203125" lon="-5.2610203810036182403564453125">
        <ele>567.79998779296875</ele>
        <time>2019-11-01T15:21:17.000Z</time>
      </trkpt>
      <trkpt lat="36.935301236808300018310546875" lon="-5.261031948029994964599609375">
        <ele>567.5999755859375</ele>
        <time>2019-11-01T15:21:19.000Z</time>
      </trkpt>
      <trkpt lat="36.93529042415320873260498046875" lon="-5.2610482089221477508544921875">
        <ele>567.5999755859375</ele>
        <time>2019-11-01T15:21:24.000Z</time>
      </trkpt>
      <trkpt lat="36.93527114577591419219970703125" lon="-5.26111048646271228790283203125">
        <ele>567.79998779296875</ele>
        <time>2019-11-01T15:21:28.000Z</time>
      </trkpt>
      <trkpt lat="36.93526058457791805267333984375" lon="-5.26121106930077075958251953125">
        <ele>568</ele>
        <time>2019-11-01T15:21:32.000Z</time>
      </trkpt>
      <trkpt lat="36.9352601654827594757080078125" lon="-5.26132472790777683258056640625">
        <ele>568</ele>
        <time>2019-11-01T15:21:37.000Z</time>
      </trkpt>
      <trkpt lat="36.93525572307407855987548828125" lon="-5.26134987361729145050048828125">
        <ele>568.20001220703125</ele>
        <time>2019-11-01T15:21:42.000Z</time>
      </trkpt>
      <trkpt lat="36.935211382806301116943359375" lon="-5.2614723332226276397705078125">
        <ele>569</ele>
        <time>2019-11-01T15:22:15.000Z</time>
      </trkpt>
      <trkpt lat="36.9352434016764163970947265625" lon="-5.26171297766268253326416015625">
        <ele>570.4000244140625</ele>
        <time>2019-11-01T15:22:25.000Z</time>
      </trkpt>
      <trkpt lat="36.93525823764503002166748046875" lon="-5.261946581304073333740234375">
        <ele>571.79998779296875</ele>
        <time>2019-11-01T15:22:35.000Z</time>
      </trkpt>
      <trkpt lat="36.93528891541063785552978515625" lon="-5.26216727681457996368408203125">
        <ele>574</ele>
        <time>2019-11-01T15:22:44.000Z</time>
      </trkpt>
      <trkpt lat="36.93531372584402561187744140625" lon="-5.262253023684024810791015625">
        <ele>575.20001220703125</ele>
        <time>2019-11-01T15:22:51.000Z</time>
      </trkpt>
      <trkpt lat="36.93531590513885021209716796875" lon="-5.26225478388369083404541015625">
        <ele>575.20001220703125</ele>
        <time>2019-11-01T15:22:53.000Z</time>
      </trkpt>
      <trkpt lat="36.9352548010647296905517578125" lon="-5.26222653687000274658203125">
        <ele>575.4000244140625</ele>
        <time>2019-11-01T15:23:35.000Z</time>
      </trkpt>
      <trkpt lat="36.9352306611835956573486328125" lon="-5.26195605285465717315673828125">
        <ele>572</ele>
        <time>2019-11-01T15:23:43.000Z</time>
      </trkpt>
      <trkpt lat="36.93519403226673603057861328125" lon="-5.2617351897060871124267578125">
        <ele>570.79998779296875</ele>
        <time>2019-11-01T15:23:47.000Z</time>
      </trkpt>
      <trkpt lat="36.93518196232616901397705078125" lon="-5.26153963990509510040283203125">
        <ele>569.5999755859375</ele>
        <time>2019-11-01T15:23:51.000Z</time>
      </trkpt>
      <trkpt lat="36.93516653962433338165283203125" lon="-5.261288098990917205810546875">
        <ele>568</ele>
        <time>2019-11-01T15:23:57.000Z</time>
      </trkpt>
      <trkpt lat="36.93514441139996051788330078125" lon="-5.26106304489076137542724609375">
        <ele>567.20001220703125</ele>
        <time>2019-11-01T15:24:08.000Z</time>
      </trkpt>
      <trkpt lat="36.93515346385538578033447265625" lon="-5.26081242598593235015869140625">
        <ele>566.4000244140625</ele>
        <time>2019-11-01T15:24:15.000Z</time>
      </trkpt>
      <trkpt lat="36.93513016216456890106201171875" lon="-5.260516293346881866455078125">
        <ele>565.20001220703125</ele>
        <time>2019-11-01T15:24:23.000Z</time>
      </trkpt>
      <trkpt lat="36.935082636773586273193359375" lon="-5.26028520427644252777099609375">
        <ele>564.20001220703125</ele>
        <time>2019-11-01T15:24:26.000Z</time>
      </trkpt>
      <trkpt lat="36.935097388923168182373046875" lon="-5.2600440569221973419189453125">
        <ele>563.79998779296875</ele>
        <time>2019-11-01T15:24:31.000Z</time>
      </trkpt>
      <trkpt lat="36.93508724682033061981201171875" lon="-5.2598023228347301483154296875">
        <ele>562.79998779296875</ele>
        <time>2019-11-01T15:24:36.000Z</time>
      </trkpt>
      <trkpt lat="36.93506629206240177154541015625" lon="-5.25957089848816394805908203125">
        <ele>561.4000244140625</ele>
        <time>2019-11-01T15:24:41.000Z</time>
      </trkpt>
      <trkpt lat="36.93507182411849498748779296875" lon="-5.25937266647815704345703125">
        <ele>560.4000244140625</ele>
        <time>2019-11-01T15:24:49.000Z</time>
      </trkpt>
      <trkpt lat="36.93509026430547237396240234375" lon="-5.25936101563274860382080078125">
        <ele>560.4000244140625</ele>
        <time>2019-11-01T15:24:52.000Z</time>
      </trkpt>
      <trkpt lat="36.93509328179061412811279296875" lon="-5.25936822406947612762451171875">
        <ele>560.5999755859375</ele>
        <time>2019-11-01T15:24:57.000Z</time>
      </trkpt>
      <trkpt lat="36.93510015495121479034423828125" lon="-5.25938599370419979095458984375">
        <ele>560.79998779296875</ele>
        <time>2019-11-01T15:24:58.000Z</time>
      </trkpt>
      <trkpt lat="36.9351424835622310638427734375" lon="-5.259385406970977783203125">
        <ele>561.20001220703125</ele>
        <time>2019-11-01T15:25:03.000Z</time>
      </trkpt>
      <trkpt lat="36.9351525418460369110107421875" lon="-5.25939412415027618408203125">
        <ele>561.20001220703125</ele>
        <time>2019-11-01T15:25:06.000Z</time>
      </trkpt>
      <trkpt lat="36.9350601732730865478515625" lon="-5.25923612527549266815185546875">
        <ele>558.79998779296875</ele>
        <time>2019-11-01T15:25:10.000Z</time>
      </trkpt>
      <trkpt lat="36.93497040309011936187744140625" lon="-5.25908709503710269927978515625">
        <ele>557.4000244140625</ele>
        <time>2019-11-01T15:25:22.000Z</time>
      </trkpt>
      <trkpt lat="36.93490988574922084808349609375" lon="-5.25890202261507511138916015625">
        <ele>556.5999755859375</ele>
        <time>2019-11-01T15:25:52.000Z</time>
      </trkpt>
      <trkpt lat="36.93491390906274318695068359375" lon="-5.2589078061282634735107421875">
        <ele>556.5999755859375</ele>
        <time>2019-11-01T15:25:56.000Z</time>
      </trkpt>
      <trkpt lat="36.93497375585138797760009765625" lon="-5.25893990881741046905517578125">
        <ele>556.79998779296875</ele>
        <time>2019-11-01T15:26:05.000Z</time>
      </trkpt>
      <trkpt lat="36.9350791163742542266845703125" lon="-5.2591212093830108642578125">
        <ele>558</ele>
        <time>2019-11-01T15:26:18.000Z</time>
      </trkpt>
      <trkpt lat="36.93512856960296630859375" lon="-5.25916571728885173797607421875">
        <ele>558.79998779296875</ele>
        <time>2019-11-01T15:26:22.000Z</time>
      </trkpt>
      <trkpt lat="36.93514625541865825653076171875" lon="-5.259183906018733978271484375">
        <ele>559</ele>
        <time>2019-11-01T15:26:25.000Z</time>
      </trkpt>
      <trkpt lat="36.935147009789943695068359375" lon="-5.259200669825077056884765625">
        <ele>559.20001220703125</ele>
        <time>2019-11-01T15:26:27.000Z</time>
      </trkpt>
      <trkpt lat="36.9351733289659023284912109375" lon="-5.2594030089676380157470703125">
        <ele>561.4000244140625</ele>
        <time>2019-11-01T15:27:31.000Z</time>
      </trkpt>
      <trkpt lat="36.93516067229211330413818359375" lon="-5.25941750966012477874755859375">
        <ele>561.4000244140625</ele>
        <time>2019-11-01T15:27:32.000Z</time>
      </trkpt>
      <trkpt lat="36.93502823822200298309326171875" lon="-5.2593765221536159515380859375">
        <ele>560</ele>
        <time>2019-11-01T15:29:13.000Z</time>
      </trkpt>
      <trkpt lat="36.93504097871482372283935546875" lon="-5.2593637816607952117919921875">
        <ele>560</ele>
        <time>2019-11-01T15:29:14.000Z</time>
      </trkpt>
      <trkpt lat="36.9350925274193286895751953125" lon="-5.25916839949786663055419921875">
        <ele>558.4000244140625</ele>
        <time>2019-11-01T15:30:04.000Z</time>
      </trkpt>
      <trkpt lat="36.9350439123809337615966796875" lon="-5.2592404000461101531982421875">
        <ele>558.5999755859375</ele>
        <time>2019-11-01T15:30:09.000Z</time>
      </trkpt>
      <trkpt lat="36.93507316522300243377685546875" lon="-5.2593537233769893646240234375">
        <ele>560.20001220703125</ele>
        <time>2019-11-01T15:30:12.000Z</time>
      </trkpt>
      <trkpt lat="36.93502304144203662872314453125" lon="-5.25917954742908477783203125">
        <ele>558</ele>
        <time>2019-11-01T15:30:27.000Z</time>
      </trkpt>
      <trkpt lat="36.9349332712590694427490234375" lon="-5.25912917219102382659912109375">
        <ele>557.4000244140625</ele>
        <time>2019-11-01T15:30:28.000Z</time>
      </trkpt>
      <trkpt lat="36.93490125238895416259765625" lon="-5.25910503230988979339599609375">
        <ele>557.20001220703125</ele>
        <time>2019-11-01T15:30:30.000Z</time>
      </trkpt>
      <trkpt lat="36.9349019229412078857421875" lon="-5.2590938843786716461181640625">
        <ele>557.20001220703125</ele>
        <time>2019-11-01T15:30:33.000Z</time>
      </trkpt>
      <trkpt lat="36.935048438608646392822265625" lon="-5.2592286653816699981689453125">
        <ele>558.5999755859375</ele>
        <time>2019-11-01T15:31:20.000Z</time>
      </trkpt>
      <trkpt lat="36.93507769145071506500244140625" lon="-5.25925741530954837799072265625">
        <ele>559.20001220703125</ele>
        <time>2019-11-01T15:31:25.000Z</time>
      </trkpt>
      <trkpt lat="36.93509780801832675933837890625" lon="-5.25927233509719371795654296875">
        <ele>559.5999755859375</ele>
        <time>2019-11-01T15:31:28.000Z</time>
      </trkpt>
      <trkpt lat="36.93510266952216625213623046875" lon="-5.25927468203008174896240234375">
        <ele>559.5999755859375</ele>
        <time>2019-11-01T15:31:29.000Z</time>
      </trkpt>
      <trkpt lat="36.93497945554554462432861328125" lon="-5.25900444947183132171630859375">
        <ele>557.20001220703125</ele>
        <time>2019-11-01T15:34:48.000Z</time>
      </trkpt>
      <trkpt lat="36.93496068008244037628173828125" lon="-5.25894661433994770050048828125">
        <ele>556.79998779296875</ele>
        <time>2019-11-01T15:34:54.000Z</time>
      </trkpt>
      <trkpt lat="36.935042403638362884521484375" lon="-5.25889297015964984893798828125">
        <ele>557</ele>
        <time>2019-11-01T15:35:05.000Z</time>
      </trkpt>
      <trkpt lat="36.93512982688844203948974609375" lon="-5.2589202113449573516845703125">
        <ele>557.4000244140625</ele>
        <time>2019-11-01T15:35:10.000Z</time>
      </trkpt>
      <trkpt lat="36.93515329621732234954833984375" lon="-5.25912632234394550323486328125">
        <ele>558.4000244140625</ele>
        <time>2019-11-01T15:35:16.000Z</time>
      </trkpt>
      <trkpt lat="36.9350610114634037017822265625" lon="-5.2591827325522899627685546875">
        <ele>558.20001220703125</ele>
        <time>2019-11-01T15:35:20.000Z</time>
      </trkpt>
      <trkpt lat="36.9349731691181659698486328125" lon="-5.2592269890010356903076171875">
        <ele>558</ele>
        <time>2019-11-01T15:35:26.000Z</time>
      </trkpt>
      <trkpt lat="36.93495715968310832977294921875" lon="-5.259231515228748321533203125">
        <ele>557.79998779296875</ele>
        <time>2019-11-01T15:35:30.000Z</time>
      </trkpt>
      <trkpt lat="36.93490318022668361663818359375" lon="-5.2592977322638034820556640625">
        <ele>558</ele>
        <time>2019-11-01T15:36:03.000Z</time>
      </trkpt>
      <trkpt lat="36.9349389709532260894775390625" lon="-5.25954164564609527587890625">
        <ele>559</ele>
        <time>2019-11-01T15:36:13.000Z</time>
      </trkpt>
      <trkpt lat="36.93499923683702945709228515625" lon="-5.25977357290685176849365234375">
        <ele>560.79998779296875</ele>
        <time>2019-11-01T15:36:22.000Z</time>
      </trkpt>
      <trkpt lat="36.93503695540130138397216796875" lon="-5.25992847047746181488037109375">
        <ele>562.20001220703125</ele>
        <time>2019-11-01T15:36:31.000Z</time>
      </trkpt>
      <trkpt lat="36.93505086936056613922119140625" lon="-5.25994791649281978607177734375">
        <ele>562.4000244140625</ele>
        <time>2019-11-01T15:36:33.000Z</time>
      </trkpt>
      <trkpt lat="36.93506076000630855560302734375" lon="-5.2600246109068393707275390625">
        <ele>562.79998779296875</ele>
        <time>2019-11-01T15:36:37.000Z</time>
      </trkpt>
      <trkpt lat="36.935105435550212860107421875" lon="-5.2602532692253589630126953125">
        <ele>564.5999755859375</ele>
        <time>2019-11-01T15:36:45.000Z</time>
      </trkpt>
      <trkpt lat="36.93516788072884082794189453125" lon="-5.26048368774354457855224609375">
        <ele>565.5999755859375</ele>
        <time>2019-11-01T15:36:55.000Z</time>
      </trkpt>
      <trkpt lat="36.93521062843501567840576171875" lon="-5.26070731692016124725341796875">
        <ele>566.79998779296875</ele>
        <time>2019-11-01T15:37:04.000Z</time>
      </trkpt>
      <trkpt lat="36.93526963703334331512451171875" lon="-5.2609335444867610931396484375">
        <ele>567.5999755859375</ele>
        <time>2019-11-01T15:37:13.000Z</time>
      </trkpt>
      <trkpt lat="36.93531087599694728851318359375" lon="-5.2611722610890865325927734375">
        <ele>568</ele>
        <time>2019-11-01T15:37:23.000Z</time>
      </trkpt>
      <trkpt lat="36.9353391230106353759765625" lon="-5.2614091336727142333984375">
        <ele>568.5999755859375</ele>
        <time>2019-11-01T15:37:32.000Z</time>
      </trkpt>
      <trkpt lat="36.9353915937244892120361328125" lon="-5.261634774506092071533203125">
        <ele>569.20001220703125</ele>
        <time>2019-11-01T15:37:40.000Z</time>
      </trkpt>
      <trkpt lat="36.9354003109037876129150390625" lon="-5.2618597447872161865234375">
        <ele>570</ele>
        <time>2019-11-01T15:37:50.000Z</time>
      </trkpt>
      <trkpt lat="36.9354009814560413360595703125" lon="-5.2621019817888736724853515625">
        <ele>572.4000244140625</ele>
        <time>2019-11-01T15:38:00.000Z</time>
      </trkpt>
      <trkpt lat="36.93539117462933063507080078125" lon="-5.262328796088695526123046875">
        <ele>574.4000244140625</ele>
        <time>2019-11-01T15:38:10.000Z</time>
      </trkpt>
      <trkpt lat="36.93540559150278568267822265625" lon="-5.26235385797917842864990234375">
        <ele>574.20001220703125</ele>
        <time>2019-11-01T15:38:11.000Z</time>
      </trkpt>
      <trkpt lat="36.93555772304534912109375" lon="-5.2625204063951969146728515625">
        <ele>571.5999755859375</ele>
        <time>2019-11-01T15:38:16.000Z</time>
      </trkpt>
      <trkpt lat="36.935592256486415863037109375" lon="-5.2625676803290843963623046875">
        <ele>570.79998779296875</ele>
        <time>2019-11-01T15:38:17.000Z</time>
      </trkpt>
      <trkpt lat="36.9356755726039409637451171875" lon="-5.2627437002956867218017578125">
        <ele>568.20001220703125</ele>
        <time>2019-11-01T15:38:21.000Z</time>
      </trkpt>
      <trkpt lat="36.9356225989758968353271484375" lon="-5.26304486207664012908935546875">
        <ele>571</ele>
        <time>2019-11-01T15:38:32.000Z</time>
      </trkpt>
      <trkpt lat="36.9354392029345035552978515625" lon="-5.2631570957601070404052734375">
        <ele>577.5999755859375</ele>
        <time>2019-11-01T15:38:35.000Z</time>
      </trkpt>
      <trkpt lat="36.9352343492209911346435546875" lon="-5.26330688036978244781494140625">
        <ele>582</ele>
        <time>2019-11-01T15:38:39.000Z</time>
      </trkpt>
      <trkpt lat="36.93523116409778594970703125" lon="-5.26347703300416469573974609375">
        <ele>582.4000244140625</ele>
        <time>2019-11-01T15:38:42.000Z</time>
      </trkpt>
      <trkpt lat="36.93527810275554656982421875" lon="-5.26371139101684093475341796875">
        <ele>582</ele>
        <time>2019-11-01T15:38:47.000Z</time>
      </trkpt>
      <trkpt lat="36.935340464115142822265625" lon="-5.26395413093268871307373046875">
        <ele>583</ele>
        <time>2019-11-01T15:38:53.000Z</time>
      </trkpt>
      <trkpt lat="36.9353644363582134246826171875" lon="-5.2641315758228302001953125">
        <ele>583.79998779296875</ele>
        <time>2019-11-01T15:38:59.000Z</time>
      </trkpt>
      <trkpt lat="36.93535320460796356201171875" lon="-5.26436333544552326202392578125">
        <ele>587.20001220703125</ele>
        <time>2019-11-01T15:39:09.000Z</time>
      </trkpt>
      <trkpt lat="36.93540274165570735931396484375" lon="-5.2645982801914215087890625">
        <ele>589.20001220703125</ele>
        <time>2019-11-01T15:39:19.000Z</time>
      </trkpt>
      <trkpt lat="36.93539134226739406585693359375" lon="-5.2648318000137805938720703125">
        <ele>592</ele>
        <time>2019-11-01T15:39:29.000Z</time>
      </trkpt>
      <trkpt lat="36.93542830646038055419921875" lon="-5.264927186071872711181640625">
        <ele>592.4000244140625</ele>
        <time>2019-11-01T15:39:33.000Z</time>
      </trkpt>
      <trkpt lat="36.93561379797756671905517578125" lon="-5.264976136386394500732421875">
        <ele>589.79998779296875</ele>
        <time>2019-11-01T15:39:40.000Z</time>
      </trkpt>
      <trkpt lat="36.93567750044167041778564453125" lon="-5.26518191210925579071044921875">
        <ele>592.4000244140625</ele>
        <time>2019-11-01T15:39:48.000Z</time>
      </trkpt>
      <trkpt lat="36.93574891425669193267822265625" lon="-5.26541434228420257568359375">
        <ele>593.5999755859375</ele>
        <time>2019-11-01T15:39:56.000Z</time>
      </trkpt>
      <trkpt lat="36.93577942438423633575439453125" lon="-5.26564300060272216796875">
        <ele>594.4000244140625</ele>
        <time>2019-11-01T15:40:04.000Z</time>
      </trkpt>
      <trkpt lat="36.93589241243898868560791015625" lon="-5.26586067862808704376220703125">
        <ele>593</ele>
        <time>2019-11-01T15:40:10.000Z</time>
      </trkpt>
      <trkpt lat="36.9359984435141086578369140625" lon="-5.26604826562106609344482421875">
        <ele>592.20001220703125</ele>
        <time>2019-11-01T15:40:15.000Z</time>
      </trkpt>
      <trkpt lat="36.93613640964031219482421875" lon="-5.2662148140370845794677734375">
        <ele>591.79998779296875</ele>
        <time>2019-11-01T15:40:23.000Z</time>
      </trkpt>
      <trkpt lat="36.93616247735917568206787109375" lon="-5.26624850928783416748046875">
        <ele>591.5999755859375</ele>
        <time>2019-11-01T15:40:25.000Z</time>
      </trkpt>
      <trkpt lat="36.93632441572844982147216796875" lon="-5.266402401030063629150390625">
        <ele>590.79998779296875</ele>
        <time>2019-11-01T15:40:33.000Z</time>
      </trkpt>
      <trkpt lat="36.93639390170574188232421875" lon="-5.26651270687580108642578125">
        <ele>590.79998779296875</ele>
        <time>2019-11-01T15:40:39.000Z</time>
      </trkpt>
      <trkpt lat="36.93647143431007862091064453125" lon="-5.26658512651920318603515625">
        <ele>589</ele>
        <time>2019-11-01T15:40:48.000Z</time>
      </trkpt>
      <trkpt lat="36.9364683330059051513671875" lon="-5.26658638380467891693115234375">
        <ele>589.20001220703125</ele>
        <time>2019-11-01T15:40:50.000Z</time>
      </trkpt>
      <trkpt lat="36.93664326332509517669677734375" lon="-5.26667053811252117156982421875">
        <ele>586.79998779296875</ele>
        <time>2019-11-01T15:41:44.000Z</time>
      </trkpt>
      <trkpt lat="36.93672389723360538482666015625" lon="-5.26668646372854709625244140625">
        <ele>585.5999755859375</ele>
        <time>2019-11-01T15:41:48.000Z</time>
      </trkpt>
      <trkpt lat="36.93689589388668537139892578125" lon="-5.266617648303508758544921875">
        <ele>583.20001220703125</ele>
        <time>2019-11-01T15:41:54.000Z</time>
      </trkpt>
      <trkpt lat="36.937078870832920074462890625" lon="-5.26650859974324703216552734375">
        <ele>581.79998779296875</ele>
        <time>2019-11-01T15:42:01.000Z</time>
      </trkpt>
      <trkpt lat="36.9372225366532802581787109375" lon="-5.26636250317096710205078125">
        <ele>580.20001220703125</ele>
        <time>2019-11-01T15:42:06.000Z</time>
      </trkpt>
      <trkpt lat="36.93736276589334011077880859375" lon="-5.26627223007380962371826171875">
        <ele>579.20001220703125</ele>
        <time>2019-11-01T15:42:09.000Z</time>
      </trkpt>
      <trkpt lat="36.93753878585994243621826171875" lon="-5.2661578170955181121826171875">
        <ele>578</ele>
        <time>2019-11-01T15:42:12.000Z</time>
      </trkpt>
      <trkpt lat="36.93775788880884647369384765625" lon="-5.2660233713686466217041015625">
        <ele>576</ele>
        <time>2019-11-01T15:42:15.000Z</time>
      </trkpt>
      <trkpt lat="36.9379829429090023040771484375" lon="-5.26584827341139316558837890625">
        <ele>572.4000244140625</ele>
        <time>2019-11-01T15:42:18.000Z</time>
      </trkpt>
      <trkpt lat="36.93818637169897556304931640625" lon="-5.26564777828752994537353515625">
        <ele>569.20001220703125</ele>
        <time>2019-11-01T15:42:21.000Z</time>
      </trkpt>
      <trkpt lat="36.938408911228179931640625" lon="-5.2654775418341159820556640625">
        <ele>567.5999755859375</ele>
        <time>2019-11-01T15:42:24.000Z</time>
      </trkpt>
      <trkpt lat="36.9384908862411975860595703125" lon="-5.26542951352894306182861328125">
        <ele>566.79998779296875</ele>
        <time>2019-11-01T15:42:25.000Z</time>
      </trkpt>
      <trkpt lat="36.93867000751197338104248046875" lon="-5.26534619741141796112060546875">
        <ele>564.4000244140625</ele>
        <time>2019-11-01T15:42:27.000Z</time>
      </trkpt>
      <trkpt lat="36.93887821398675441741943359375" lon="-5.26527176611125469207763671875">
        <ele>562.4000244140625</ele>
        <time>2019-11-01T15:42:29.000Z</time>
      </trkpt>
      <trkpt lat="36.93910284899175167083740234375" lon="-5.26519976556301116943359375">
        <ele>561</ele>
        <time>2019-11-01T15:42:31.000Z</time>
      </trkpt>
      <trkpt lat="36.9393284060060977935791015625" lon="-5.26511938311159610748291015625">
        <ele>560</ele>
        <time>2019-11-01T15:42:33.000Z</time>
      </trkpt>
      <trkpt lat="36.9395443238317966461181640625" lon="-5.2650477178394794464111328125">
        <ele>557.79998779296875</ele>
        <time>2019-11-01T15:42:35.000Z</time>
      </trkpt>
      <trkpt lat="36.9397451542317867279052734375" lon="-5.26499382220208644866943359375">
        <ele>552.4000244140625</ele>
        <time>2019-11-01T15:42:37.000Z</time>
      </trkpt>
      <trkpt lat="36.9399339146912097930908203125" lon="-5.26502181775867938995361328125">
        <ele>548.4000244140625</ele>
        <time>2019-11-01T15:42:39.000Z</time>
      </trkpt>
      <trkpt lat="36.94010700099170207977294921875" lon="-5.265192724764347076416015625">
        <ele>546.20001220703125</ele>
        <time>2019-11-01T15:42:41.000Z</time>
      </trkpt>
      <trkpt lat="36.94020087830722332000732421875" lon="-5.26541174389421939849853515625">
        <ele>542.79998779296875</ele>
        <time>2019-11-01T15:42:43.000Z</time>
      </trkpt>
      <trkpt lat="36.94017958827316761016845703125" lon="-5.26573277078568935394287109375">
        <ele>544.79998779296875</ele>
        <time>2019-11-01T15:42:46.000Z</time>
      </trkpt>
      <trkpt lat="36.94011085666716098785400390625" lon="-5.2660357765853404998779296875">
        <ele>548.20001220703125</ele>
        <time>2019-11-01T15:42:49.000Z</time>
      </trkpt>
      <trkpt lat="36.9401038996875286102294921875" lon="-5.2661437354981899261474609375">
        <ele>547.79998779296875</ele>
        <time>2019-11-01T15:42:50.000Z</time>
      </trkpt>
      <trkpt lat="36.94011010229587554931640625" lon="-5.266367532312870025634765625">
        <ele>545.5999755859375</ele>
        <time>2019-11-01T15:42:52.000Z</time>
      </trkpt>
      <trkpt lat="36.9401297159492969512939453125" lon="-5.2665936760604381561279296875">
        <ele>540.79998779296875</ele>
        <time>2019-11-01T15:42:54.000Z</time>
      </trkpt>
      <trkpt lat="36.94014337845146656036376953125" lon="-5.2669172175228595733642578125">
        <ele>534.4000244140625</ele>
        <time>2019-11-01T15:42:57.000Z</time>
      </trkpt>
      <trkpt lat="36.94015276618301868438720703125" lon="-5.26721301488578319549560546875">
        <ele>532</ele>
        <time>2019-11-01T15:43:00.000Z</time>
      </trkpt>
      <trkpt lat="36.94032208062708377838134765625" lon="-5.2674083970487117767333984375">
        <ele>527</ele>
        <time>2019-11-01T15:43:03.000Z</time>
      </trkpt>
      <trkpt lat="36.94050581194460391998291015625" lon="-5.26738534681499004364013671875">
        <ele>523.5999755859375</ele>
        <time>2019-11-01T15:43:05.000Z</time>
      </trkpt>
      <trkpt lat="36.9406820833683013916015625" lon="-5.26725743897259235382080078125">
        <ele>521.79998779296875</ele>
        <time>2019-11-01T15:43:07.000Z</time>
      </trkpt>
      <trkpt lat="36.94086271338164806365966796875" lon="-5.2671425230801105499267578125">
        <ele>521.20001220703125</ele>
        <time>2019-11-01T15:43:09.000Z</time>
      </trkpt>
      <trkpt lat="36.94105985574424266815185546875" lon="-5.26714436709880828857421875">
        <ele>520</ele>
        <time>2019-11-01T15:43:11.000Z</time>
      </trkpt>
      <trkpt lat="36.94124408997595310211181640625" lon="-5.2672384120523929595947265625">
        <ele>519.4000244140625</ele>
        <time>2019-11-01T15:43:13.000Z</time>
      </trkpt>
      <trkpt lat="36.941365040838718414306640625" lon="-5.2674147672951221466064453125">
        <ele>517.5999755859375</ele>
        <time>2019-11-01T15:43:15.000Z</time>
      </trkpt>
      <trkpt lat="36.94144257344305515289306640625" lon="-5.26763923466205596923828125">
        <ele>515</ele>
        <time>2019-11-01T15:43:17.000Z</time>
      </trkpt>
      <trkpt lat="36.9414731673896312713623046875" lon="-5.26775850914418697357177734375">
        <ele>513.4000244140625</ele>
        <time>2019-11-01T15:43:18.000Z</time>
      </trkpt>
      <trkpt lat="36.94153569638729095458984375" lon="-5.26799655519425868988037109375">
        <ele>510.20001220703125</ele>
        <time>2019-11-01T15:43:20.000Z</time>
      </trkpt>
      <trkpt lat="36.94162412546575069427490234375" lon="-5.2682224474847316741943359375">
        <ele>507.79998779296875</ele>
        <time>2019-11-01T15:43:22.000Z</time>
      </trkpt>
      <trkpt lat="36.9417360238730907440185546875" lon="-5.2684417180716991424560546875">
        <ele>506.600006103515625</ele>
        <time>2019-11-01T15:43:24.000Z</time>
      </trkpt>
      <trkpt lat="36.941859908401966094970703125" lon="-5.2686653472483158111572265625">
        <ele>505.79998779296875</ele>
        <time>2019-11-01T15:43:26.000Z</time>
      </trkpt>
      <trkpt lat="36.9419910013675689697265625" lon="-5.2688782475888729095458984375">
        <ele>504.600006103515625</ele>
        <time>2019-11-01T15:43:28.000Z</time>
      </trkpt>
      <trkpt lat="36.942065767943859100341796875" lon="-5.26896961033344268798828125">
        <ele>504.399993896484375</ele>
        <time>2019-11-01T15:43:29.000Z</time>
      </trkpt>
      <trkpt lat="36.94224505685269832611083984375" lon="-5.2691139467060565948486328125">
        <ele>505.600006103515625</ele>
        <time>2019-11-01T15:43:31.000Z</time>
      </trkpt>
      <trkpt lat="36.94239509291946887969970703125" lon="-5.269260965287685394287109375">
        <ele>507.20001220703125</ele>
        <time>2019-11-01T15:43:33.000Z</time>
      </trkpt>
      <trkpt lat="36.94244018755853176116943359375" lon="-5.269560031592845916748046875">
        <ele>506.79998779296875</ele>
        <time>2019-11-01T15:43:36.000Z</time>
      </trkpt>
      <trkpt lat="36.94229543209075927734375" lon="-5.26972289197146892547607421875">
        <ele>504.20001220703125</ele>
        <time>2019-11-01T15:43:38.000Z</time>
      </trkpt>
      <trkpt lat="36.94222477264702320098876953125" lon="-5.269803106784820556640625">
        <ele>503</ele>
        <time>2019-11-01T15:43:39.000Z</time>
      </trkpt>
      <trkpt lat="36.9421594776213169097900390625" lon="-5.26989103294909000396728515625">
        <ele>501.79998779296875</ele>
        <time>2019-11-01T15:43:40.000Z</time>
      </trkpt>
      <trkpt lat="36.94206065498292446136474609375" lon="-5.27009404264390468597412109375">
        <ele>499.20001220703125</ele>
        <time>2019-11-01T15:43:42.000Z</time>
      </trkpt>
      <trkpt lat="36.942000053822994232177734375" lon="-5.27031473815441131591796875">
        <ele>497.399993896484375</ele>
        <time>2019-11-01T15:43:44.000Z</time>
      </trkpt>
      <trkpt lat="36.941980607807636260986328125" lon="-5.27042898349463939666748046875">
        <ele>496.79998779296875</ele>
        <time>2019-11-01T15:43:45.000Z</time>
      </trkpt>
      <trkpt lat="36.94195403717458248138427734375" lon="-5.27065898291766643524169921875">
        <ele>495.79998779296875</ele>
        <time>2019-11-01T15:43:47.000Z</time>
      </trkpt>
      <trkpt lat="36.94196996279060840606689453125" lon="-5.27088445611298084259033203125">
        <ele>495</ele>
        <time>2019-11-01T15:43:49.000Z</time>
      </trkpt>
      <trkpt lat="36.94200013764202594757080078125" lon="-5.27111579664051532745361328125">
        <ele>494.600006103515625</ele>
        <time>2019-11-01T15:43:51.000Z</time>
      </trkpt>
      <trkpt lat="36.9419358484447002410888671875" lon="-5.27135702781379222869873046875">
        <ele>492</ele>
        <time>2019-11-01T15:43:53.000Z</time>
      </trkpt>
      <trkpt lat="36.9418433122336864471435546875" lon="-5.271589793264865875244140625">
        <ele>491.399993896484375</ele>
        <time>2019-11-01T15:43:55.000Z</time>
      </trkpt>
      <trkpt lat="36.9417433999478816986083984375" lon="-5.271822474896907806396484375">
        <ele>490</ele>
        <time>2019-11-01T15:43:57.000Z</time>
      </trkpt>
      <trkpt lat="36.9416401349008083343505859375" lon="-5.2720543183386325836181640625">
        <ele>486</ele>
        <time>2019-11-01T15:43:59.000Z</time>
      </trkpt>
      <trkpt lat="36.94154986180365085601806640625" lon="-5.27229823172092437744140625">
        <ele>481.79998779296875</ele>
        <time>2019-11-01T15:44:01.000Z</time>
      </trkpt>
      <trkpt lat="36.94150962866842746734619140625" lon="-5.27256645262241363525390625">
        <ele>478.600006103515625</ele>
        <time>2019-11-01T15:44:03.000Z</time>
      </trkpt>
      <trkpt lat="36.941511221230030059814453125" lon="-5.27283693663775920867919921875">
        <ele>475.600006103515625</ele>
        <time>2019-11-01T15:44:05.000Z</time>
      </trkpt>
      <trkpt lat="36.94165865890681743621826171875" lon="-5.2730490826070308685302734375">
        <ele>475.79998779296875</ele>
        <time>2019-11-01T15:44:07.000Z</time>
      </trkpt>
      <trkpt lat="36.94181523285806179046630859375" lon="-5.27325603179633617401123046875">
        <ele>474.600006103515625</ele>
        <time>2019-11-01T15:44:09.000Z</time>
      </trkpt>
      <trkpt lat="36.941981613636016845703125" lon="-5.2734604664146900177001953125">
        <ele>471.20001220703125</ele>
        <time>2019-11-01T15:44:11.000Z</time>
      </trkpt>
      <trkpt lat="36.94216073490679264068603515625" lon="-5.273661799728870391845703125">
        <ele>468.600006103515625</ele>
        <time>2019-11-01T15:44:13.000Z</time>
      </trkpt>
      <trkpt lat="36.94234848953783512115478515625" lon="-5.2738581039011478424072265625">
        <ele>467.79998779296875</ele>
        <time>2019-11-01T15:44:15.000Z</time>
      </trkpt>
      <trkpt lat="36.9425339810550212860107421875" lon="-5.2740713395178318023681640625">
        <ele>468.79998779296875</ele>
        <time>2019-11-01T15:44:17.000Z</time>
      </trkpt>
      <trkpt lat="36.94267689250409603118896484375" lon="-5.274335034191608428955078125">
        <ele>468.79998779296875</ele>
        <time>2019-11-01T15:44:19.000Z</time>
      </trkpt>
      <trkpt lat="36.94272701628506183624267578125" lon="-5.27462949045002460479736328125">
        <ele>468.600006103515625</ele>
        <time>2019-11-01T15:44:21.000Z</time>
      </trkpt>
      <trkpt lat="36.94265292026102542877197265625" lon="-5.274918079376220703125">
        <ele>465.79998779296875</ele>
        <time>2019-11-01T15:44:23.000Z</time>
      </trkpt>
      <trkpt lat="36.94257111288607120513916015625" lon="-5.2751790918409824371337890625">
        <ele>463.600006103515625</ele>
        <time>2019-11-01T15:44:25.000Z</time>
      </trkpt>
      <trkpt lat="36.9425185583531856536865234375" lon="-5.2754328958690166473388671875">
        <ele>462.20001220703125</ele>
        <time>2019-11-01T15:44:27.000Z</time>
      </trkpt>
      <trkpt lat="36.9425054825842380523681640625" lon="-5.2755572833120822906494140625">
        <ele>461.600006103515625</ele>
        <time>2019-11-01T15:44:28.000Z</time>
      </trkpt>
      <trkpt lat="36.94262861274182796478271484375" lon="-5.2758325450122356414794921875">
        <ele>460.399993896484375</ele>
        <time>2019-11-01T15:44:31.000Z</time>
      </trkpt>
      <trkpt lat="36.942694075405597686767578125" lon="-5.275907814502716064453125">
        <ele>461</ele>
        <time>2019-11-01T15:44:32.000Z</time>
      </trkpt>
      <trkpt lat="36.9428890384733676910400390625" lon="-5.276130773127079010009765625">
        <ele>461.600006103515625</ele>
        <time>2019-11-01T15:44:35.000Z</time>
      </trkpt>
      <trkpt lat="36.9430687464773654937744140625" lon="-5.276358425617218017578125">
        <ele>461.600006103515625</ele>
        <time>2019-11-01T15:44:38.000Z</time>
      </trkpt>
      <trkpt lat="36.94319623522460460662841796875" lon="-5.276628993451595306396484375">
        <ele>463.20001220703125</ele>
        <time>2019-11-01T15:44:41.000Z</time>
      </trkpt>
      <trkpt lat="36.9431921280920505523681640625" lon="-5.276943482458591461181640625">
        <ele>461.600006103515625</ele>
        <time>2019-11-01T15:44:44.000Z</time>
      </trkpt>
      <trkpt lat="36.9431458599865436553955078125" lon="-5.27714154683053493499755859375">
        <ele>461</ele>
        <time>2019-11-01T15:44:46.000Z</time>
      </trkpt>
      <trkpt lat="36.9430885277688503265380859375" lon="-5.2774541079998016357421875">
        <ele>458.79998779296875</ele>
        <time>2019-11-01T15:44:49.000Z</time>
      </trkpt>
      <trkpt lat="36.94313622079789638519287109375" lon="-5.2777543477714061737060546875">
        <ele>456.20001220703125</ele>
        <time>2019-11-01T15:44:52.000Z</time>
      </trkpt>
      <trkpt lat="36.943302266299724578857421875" lon="-5.277993567287921905517578125">
        <ele>452.79998779296875</ele>
        <time>2019-11-01T15:44:55.000Z</time>
      </trkpt>
      <trkpt lat="36.94342254661023616790771484375" lon="-5.27816195972263813018798828125">
        <ele>451.399993896484375</ele>
        <time>2019-11-01T15:44:57.000Z</time>
      </trkpt>
      <trkpt lat="36.94347669370472431182861328125" lon="-5.27825768105685710906982421875">
        <ele>450.600006103515625</ele>
        <time>2019-11-01T15:44:58.000Z</time>
      </trkpt>
      <trkpt lat="36.943569481372833251953125" lon="-5.2784681506454944610595703125">
        <ele>450.399993896484375</ele>
        <time>2019-11-01T15:45:00.000Z</time>
      </trkpt>
      <trkpt lat="36.94364064373075962066650390625" lon="-5.2786887623369693756103515625">
        <ele>449.79998779296875</ele>
        <time>2019-11-01T15:45:02.000Z</time>
      </trkpt>
      <trkpt lat="36.9437000714242458343505859375" lon="-5.27890895493328571319580078125">
        <ele>449.399993896484375</ele>
        <time>2019-11-01T15:45:04.000Z</time>
      </trkpt>
      <trkpt lat="36.94380073808133602142333984375" lon="-5.2792070992290973663330078125">
        <ele>451.79998779296875</ele>
        <time>2019-11-01T15:45:07.000Z</time>
      </trkpt>
      <trkpt lat="36.9439136423170566558837890625" lon="-5.27945838868618011474609375">
        <ele>453.600006103515625</ele>
        <time>2019-11-01T15:45:10.000Z</time>
      </trkpt>
      <trkpt lat="36.9440242834389209747314453125" lon="-5.2796724624931812286376953125">
        <ele>453.20001220703125</ele>
        <time>2019-11-01T15:45:13.000Z</time>
      </trkpt>
      <trkpt lat="36.9441506825387477874755859375" lon="-5.27991771697998046875">
        <ele>452.79998779296875</ele>
        <time>2019-11-01T15:45:17.000Z</time>
      </trkpt>
      <trkpt lat="36.944259144365787506103515625" lon="-5.2801317907869815826416015625">
        <ele>452.399993896484375</ele>
        <time>2019-11-01T15:45:21.000Z</time>
      </trkpt>
      <trkpt lat="36.944288313388824462890625" lon="-5.28018526732921600341796875">
        <ele>452.399993896484375</ele>
        <time>2019-11-01T15:45:22.000Z</time>
      </trkpt>
      <trkpt lat="36.94439761340618133544921875" lon="-5.280374698340892791748046875">
        <ele>452.399993896484375</ele>
        <time>2019-11-01T15:45:26.000Z</time>
      </trkpt>
      <trkpt lat="36.94450146518647670745849609375" lon="-5.28056505136191844940185546875">
        <ele>454.600006103515625</ele>
        <time>2019-11-01T15:45:30.000Z</time>
      </trkpt>
      <trkpt lat="36.94460188038647174835205078125" lon="-5.2807845734059810638427734375">
        <ele>455.399993896484375</ele>
        <time>2019-11-01T15:45:35.000Z</time>
      </trkpt>
      <trkpt lat="36.94469559006392955780029296875" lon="-5.2809917740523815155029296875">
        <ele>455.79998779296875</ele>
        <time>2019-11-01T15:45:40.000Z</time>
      </trkpt>
      <trkpt lat="36.94472224451601505279541015625" lon="-5.281062684953212738037109375">
        <ele>455.600006103515625</ele>
        <time>2019-11-01T15:45:42.000Z</time>
      </trkpt>
      <trkpt lat="36.944779492914676666259765625" lon="-5.28119469992816448211669921875">
        <ele>455.20001220703125</ele>
        <time>2019-11-01T15:45:46.000Z</time>
      </trkpt>
      <trkpt lat="36.94485736079514026641845703125" lon="-5.2813642658293247222900390625">
        <ele>454</ele>
        <time>2019-11-01T15:45:52.000Z</time>
      </trkpt>
      <trkpt lat="36.94494620896875858306884765625" lon="-5.28144297190010547637939453125">
        <ele>453.399993896484375</ele>
        <time>2019-11-01T15:45:56.000Z</time>
      </trkpt>
      <trkpt lat="36.9449741207063198089599609375" lon="-5.2814685367047786712646484375">
        <ele>453.20001220703125</ele>
        <time>2019-11-01T15:45:57.000Z</time>
      </trkpt>
      <trkpt lat="36.9451082311570644378662109375" lon="-5.28162720613181591033935546875">
        <ele>449.399993896484375</ele>
        <time>2019-11-01T15:46:01.000Z</time>
      </trkpt>
      <trkpt lat="36.94527335464954376220703125" lon="-5.2818370051681995391845703125">
        <ele>447</ele>
        <time>2019-11-01T15:46:05.000Z</time>
      </trkpt>
      <trkpt lat="36.9454233907163143157958984375" lon="-5.2819924056529998779296875">
        <ele>446</ele>
        <time>2019-11-01T15:46:08.000Z</time>
      </trkpt>
      <trkpt lat="36.9455786235630512237548828125" lon="-5.2821387536823749542236328125">
        <ele>444.399993896484375</ele>
        <time>2019-11-01T15:46:12.000Z</time>
      </trkpt>
      <trkpt lat="36.94568683393299579620361328125" lon="-5.2822450362145900726318359375">
        <ele>442</ele>
        <time>2019-11-01T15:46:15.000Z</time>
      </trkpt>
      <trkpt lat="36.94576260633766651153564453125" lon="-5.2823308669030666351318359375">
        <ele>439.600006103515625</ele>
        <time>2019-11-01T15:46:17.000Z</time>
      </trkpt>
      <trkpt lat="36.945908032357692718505859375" lon="-5.282547287642955780029296875">
        <ele>436.79998779296875</ele>
        <time>2019-11-01T15:46:21.000Z</time>
      </trkpt>
      <trkpt lat="36.945958323776721954345703125" lon="-5.282779633998870849609375">
        <ele>434.20001220703125</ele>
        <time>2019-11-01T15:46:24.000Z</time>
      </trkpt>
      <trkpt lat="36.94591901265084743499755859375" lon="-5.28304995037615299224853515625">
        <ele>436.20001220703125</ele>
        <time>2019-11-01T15:46:27.000Z</time>
      </trkpt>
      <trkpt lat="36.94586520083248615264892578125" lon="-5.283208787441253662109375">
        <ele>438.600006103515625</ele>
        <time>2019-11-01T15:46:29.000Z</time>
      </trkpt>
      <trkpt lat="36.945769228041172027587890625" lon="-5.28347223065793514251708984375">
        <ele>440.399993896484375</ele>
        <time>2019-11-01T15:46:33.000Z</time>
      </trkpt>
      <trkpt lat="36.9457221217453479766845703125" lon="-5.2835713885724544525146484375">
        <ele>440.79998779296875</ele>
        <time>2019-11-01T15:46:35.000Z</time>
      </trkpt>
      <trkpt lat="36.94562874734401702880859375" lon="-5.28377515263855457305908203125">
        <ele>441.20001220703125</ele>
        <time>2019-11-01T15:46:40.000Z</time>
      </trkpt>
      <trkpt lat="36.94561324082314968109130859375" lon="-5.28381027281284332275390625">
        <ele>441.399993896484375</ele>
        <time>2019-11-01T15:46:41.000Z</time>
      </trkpt>
      <trkpt lat="36.9455883465707302093505859375" lon="-5.28388327918946743011474609375">
        <ele>441.20001220703125</ele>
        <time>2019-11-01T15:46:43.000Z</time>
      </trkpt>
      <trkpt lat="36.94553755223751068115234375" lon="-5.28408385813236236572265625">
        <ele>440</ele>
        <time>2019-11-01T15:46:48.000Z</time>
      </trkpt>
      <trkpt lat="36.94553579203784465789794921875" lon="-5.28427907265722751617431640625">
        <ele>439.600006103515625</ele>
        <time>2019-11-01T15:46:53.000Z</time>
      </trkpt>
      <trkpt lat="36.9455323554575443267822265625" lon="-5.284346044063568115234375">
        <ele>439.399993896484375</ele>
        <time>2019-11-01T15:46:55.000Z</time>
      </trkpt>
      <trkpt lat="36.9454958103597164154052734375" lon="-5.2845418453216552734375">
        <ele>439.79998779296875</ele>
        <time>2019-11-01T15:47:01.000Z</time>
      </trkpt>
      <trkpt lat="36.94548063911497592926025390625" lon="-5.28461585752665996551513671875">
        <ele>440</ele>
        <time>2019-11-01T15:47:03.000Z</time>
      </trkpt>
      <trkpt lat="36.94544761441648006439208984375" lon="-5.28476237319409847259521484375">
        <ele>440.20001220703125</ele>
        <time>2019-11-01T15:47:07.000Z</time>
      </trkpt>
      <trkpt lat="36.94545398466289043426513671875" lon="-5.284952223300933837890625">
        <ele>439.20001220703125</ele>
        <time>2019-11-01T15:47:12.000Z</time>
      </trkpt>
      <trkpt lat="36.94546622224152088165283203125" lon="-5.28519429266452789306640625">
        <ele>438.399993896484375</ele>
        <time>2019-11-01T15:47:18.000Z</time>
      </trkpt>
      <trkpt lat="36.9454679824411869049072265625" lon="-5.28547248803079128265380859375">
        <ele>437.399993896484375</ele>
        <time>2019-11-01T15:47:23.000Z</time>
      </trkpt>
      <trkpt lat="36.94546840153634548187255859375" lon="-5.285732746124267578125">
        <ele>436.399993896484375</ele>
        <time>2019-11-01T15:47:27.000Z</time>
      </trkpt>
      <trkpt lat="36.945462785661220550537109375" lon="-5.2860192395746707916259765625">
        <ele>436.399993896484375</ele>
        <time>2019-11-01T15:47:31.000Z</time>
      </trkpt>
      <trkpt lat="36.945435293018817901611328125" lon="-5.28629944659769535064697265625">
        <ele>436.600006103515625</ele>
        <time>2019-11-01T15:47:35.000Z</time>
      </trkpt>
      <trkpt lat="36.94541760720312595367431640625" lon="-5.28652441687881946563720703125">
        <ele>437.600006103515625</ele>
        <time>2019-11-01T15:47:39.000Z</time>
      </trkpt>
      <trkpt lat="36.94541073404252529144287109375" lon="-5.28656749986112117767333984375">
        <ele>437.79998779296875</ele>
        <time>2019-11-01T15:47:40.000Z</time>
      </trkpt>
      <trkpt lat="36.9453598558902740478515625" lon="-5.28676061891019344329833984375">
        <ele>437.600006103515625</ele>
        <time>2019-11-01T15:47:45.000Z</time>
      </trkpt>
      <trkpt lat="36.94533110596239566802978515625" lon="-5.28683739714324474334716796875">
        <ele>437.399993896484375</ele>
        <time>2019-11-01T15:47:47.000Z</time>
      </trkpt>
      <trkpt lat="36.945236138999462127685546875" lon="-5.28708449564874172210693359375">
        <ele>436.79998779296875</ele>
        <time>2019-11-01T15:47:52.000Z</time>
      </trkpt>
      <trkpt lat="36.9452041201293468475341796875" lon="-5.28720150701701641082763671875">
        <ele>436.20001220703125</ele>
        <time>2019-11-01T15:47:54.000Z</time>
      </trkpt>
      <trkpt lat="36.94515424780547618865966796875" lon="-5.287465788424015045166015625">
        <ele>435.79998779296875</ele>
        <time>2019-11-01T15:47:58.000Z</time>
      </trkpt>
      <trkpt lat="36.94510395638644695281982421875" lon="-5.2877589873969554901123046875">
        <ele>437.20001220703125</ele>
        <time>2019-11-01T15:48:02.000Z</time>
      </trkpt>
      <trkpt lat="36.945086605846881866455078125" lon="-5.28798454441130161285400390625">
        <ele>437.600006103515625</ele>
        <time>2019-11-01T15:48:05.000Z</time>
      </trkpt>
      <trkpt lat="36.945157013833522796630859375" lon="-5.2882458083331584930419921875">
        <ele>437.399993896484375</ele>
        <time>2019-11-01T15:48:09.000Z</time>
      </trkpt>
      <trkpt lat="36.9451793096959590911865234375" lon="-5.2882984466850757598876953125">
        <ele>437.399993896484375</ele>
        <time>2019-11-01T15:48:10.000Z</time>
      </trkpt>
      <trkpt lat="36.94529674015939235687255859375" lon="-5.28851562179625034332275390625">
        <ele>437.79998779296875</ele>
        <time>2019-11-01T15:48:15.000Z</time>
      </trkpt>
      <trkpt lat="36.945344768464565277099609375" lon="-5.2885931544005870819091796875">
        <ele>438</ele>
        <time>2019-11-01T15:48:17.000Z</time>
      </trkpt>
      <trkpt lat="36.94546110928058624267578125" lon="-5.2887731976807117462158203125">
        <ele>438.79998779296875</ele>
        <time>2019-11-01T15:48:22.000Z</time>
      </trkpt>
      <trkpt lat="36.94560100324451923370361328125" lon="-5.2889592759311199188232421875">
        <ele>439.79998779296875</ele>
        <time>2019-11-01T15:48:28.000Z</time>
      </trkpt>
      <trkpt lat="36.945747770369052886962890625" lon="-5.28915055096149444580078125">
        <ele>439.600006103515625</ele>
        <time>2019-11-01T15:48:35.000Z</time>
      </trkpt>
      <trkpt lat="36.9458292424678802490234375" lon="-5.2892720885574817657470703125">
        <ele>439.399993896484375</ele>
        <time>2019-11-01T15:48:39.000Z</time>
      </trkpt>
      <trkpt lat="36.94586436264216899871826171875" lon="-5.28934509493410587310791015625">
        <ele>439</ele>
        <time>2019-11-01T15:48:41.000Z</time>
      </trkpt>
      <trkpt lat="36.94593996740877628326416015625" lon="-5.2895765192806720733642578125">
        <ele>437</ele>
        <time>2019-11-01T15:48:46.000Z</time>
      </trkpt>
      <trkpt lat="36.94601892493665218353271484375" lon="-5.2898732386529445648193359375">
        <ele>433.79998779296875</ele>
        <time>2019-11-01T15:48:50.000Z</time>
      </trkpt>
      <trkpt lat="36.94606619887053966522216796875" lon="-5.28997373767197132110595703125">
        <ele>433</ele>
        <time>2019-11-01T15:48:51.000Z</time>
      </trkpt>
      <trkpt lat="36.94615186192095279693603515625" lon="-5.2901863865554332733154296875">
        <ele>431</ele>
        <time>2019-11-01T15:48:53.000Z</time>
      </trkpt>
      <trkpt lat="36.9461827911436557769775390625" lon="-5.29028956778347492218017578125">
        <ele>429.79998779296875</ele>
        <time>2019-11-01T15:48:54.000Z</time>
      </trkpt>
      <trkpt lat="36.94623048417270183563232421875" lon="-5.2906036376953125">
        <ele>426</ele>
        <time>2019-11-01T15:48:57.000Z</time>
      </trkpt>
      <trkpt lat="36.94630105979740619659423828125" lon="-5.29091008007526397705078125">
        <ele>422.20001220703125</ele>
        <time>2019-11-01T15:49:00.000Z</time>
      </trkpt>
      <trkpt lat="36.946393512189388275146484375" lon="-5.29116488993167877197265625">
        <ele>421</ele>
        <time>2019-11-01T15:49:03.000Z</time>
      </trkpt>
      <trkpt lat="36.94642997346818447113037109375" lon="-5.29123806394636631011962890625">
        <ele>420</ele>
        <time>2019-11-01T15:49:04.000Z</time>
      </trkpt>
      <trkpt lat="36.94661353714764118194580078125" lon="-5.29137737117707729339599609375">
        <ele>420.20001220703125</ele>
        <time>2019-11-01T15:49:07.000Z</time>
      </trkpt>
      <trkpt lat="36.946787796914577484130859375" lon="-5.29155942611396312713623046875">
        <ele>419.79998779296875</ele>
        <time>2019-11-01T15:49:10.000Z</time>
      </trkpt>
      <trkpt lat="36.9468533433973789215087890625" lon="-5.29168766923248767852783203125">
        <ele>420.20001220703125</ele>
        <time>2019-11-01T15:49:12.000Z</time>
      </trkpt>
      <trkpt lat="36.9468764774501323699951171875" lon="-5.29175003059208393096923828125">
        <ele>420.600006103515625</ele>
        <time>2019-11-01T15:49:13.000Z</time>
      </trkpt>
      <trkpt lat="36.94690975360572338104248046875" lon="-5.29198723845183849334716796875">
        <ele>418.79998779296875</ele>
        <time>2019-11-01T15:49:18.000Z</time>
      </trkpt>
      <trkpt lat="36.9469562731683254241943359375" lon="-5.2921075187623500823974609375">
        <ele>418</ele>
        <time>2019-11-01T15:49:22.000Z</time>
      </trkpt>
      <trkpt lat="36.94708040915429592132568359375" lon="-5.29225747101008892059326171875">
        <ele>416.399993896484375</ele>
        <time>2019-11-01T15:49:30.000Z</time>
      </trkpt>
      <trkpt lat="36.94709314964711666107177734375" lon="-5.29226048849523067474365234375">
        <ele>416.399993896484375</ele>
        <time>2019-11-01T15:49:34.000Z</time>
      </trkpt>
      <trkpt lat="36.94716758094727993011474609375" lon="-5.29240834526717662811279296875">
        <ele>415.20001220703125</ele>
        <time>2019-11-01T15:49:55.000Z</time>
      </trkpt>
      <trkpt lat="36.94722977466881275177001953125" lon="-5.29262091033160686492919921875">
        <ele>412.20001220703125</ele>
        <time>2019-11-01T15:49:59.000Z</time>
      </trkpt>
      <trkpt lat="36.94733035750687122344970703125" lon="-5.29287136159837245941162109375">
        <ele>407.399993896484375</ele>
        <time>2019-11-01T15:50:03.000Z</time>
      </trkpt>
      <trkpt lat="36.94740076549351215362548828125" lon="-5.29308208264410495758056640625">
        <ele>403.79998779296875</ele>
        <time>2019-11-01T15:50:07.000Z</time>
      </trkpt>
      <trkpt lat="36.94740847684442996978759765625" lon="-5.2931063063442707061767578125">
        <ele>403.399993896484375</ele>
        <time>2019-11-01T15:50:08.000Z</time>
      </trkpt>
      <trkpt lat="36.9474400766193866729736328125" lon="-5.29318199492990970611572265625">
        <ele>402.399993896484375</ele>
        <time>2019-11-01T15:50:17.000Z</time>
      </trkpt>
      <trkpt lat="36.94751492701470851898193359375" lon="-5.29324167408049106597900390625">
        <ele>401.399993896484375</ele>
        <time>2019-11-01T15:50:23.000Z</time>
      </trkpt>
      <trkpt lat="36.947674266993999481201171875" lon="-5.29337444342672824859619140625">
        <ele>399.79998779296875</ele>
        <time>2019-11-01T15:50:31.000Z</time>
      </trkpt>
      <trkpt lat="36.9477465189993381500244140625" lon="-5.29344334267079830169677734375">
        <ele>399</ele>
        <time>2019-11-01T15:50:33.000Z</time>
      </trkpt>
      <trkpt lat="36.9478688947856426239013671875" lon="-5.2936461009085178375244140625">
        <ele>397.399993896484375</ele>
        <time>2019-11-01T15:50:37.000Z</time>
      </trkpt>
      <trkpt lat="36.947967298328876495361328125" lon="-5.29387752525508403778076171875">
        <ele>396.20001220703125</ele>
        <time>2019-11-01T15:50:41.000Z</time>
      </trkpt>
      <trkpt lat="36.94802337326109409332275390625" lon="-5.29409654438495635986328125">
        <ele>396.600006103515625</ele>
        <time>2019-11-01T15:50:45.000Z</time>
      </trkpt>
      <trkpt lat="36.94808355532586574554443359375" lon="-5.29425336979329586029052734375">
        <ele>399.20001220703125</ele>
        <time>2019-11-01T15:50:49.000Z</time>
      </trkpt>
      <trkpt lat="36.94819486699998378753662109375" lon="-5.2944641746580600738525390625">
        <ele>401.79998779296875</ele>
        <time>2019-11-01T15:50:55.000Z</time>
      </trkpt>
      <trkpt lat="36.948215402662754058837890625" lon="-5.29449175111949443817138671875">
        <ele>402.20001220703125</ele>
        <time>2019-11-01T15:50:56.000Z</time>
      </trkpt>
      <trkpt lat="36.94836619310081005096435546875" lon="-5.29464866034686565399169921875">
        <ele>403.20001220703125</ele>
        <time>2019-11-01T15:51:04.000Z</time>
      </trkpt>
      <trkpt lat="36.9484958611428737640380859375" lon="-5.2947731316089630126953125">
        <ele>403.79998779296875</ele>
        <time>2019-11-01T15:51:15.000Z</time>
      </trkpt>
      <trkpt lat="36.94849058054387569427490234375" lon="-5.2947739697992801666259765625">
        <ele>404</ele>
        <time>2019-11-01T15:51:19.000Z</time>
      </trkpt>
      <trkpt lat="36.948574148118495941162109375" lon="-5.294869355857372283935546875">
        <ele>403.79998779296875</ele>
        <time>2019-11-01T15:51:32.000Z</time>
      </trkpt>
      <trkpt lat="36.94861396215856075286865234375" lon="-5.29504730366170406341552734375">
        <ele>407.20001220703125</ele>
        <time>2019-11-01T15:51:40.000Z</time>
      </trkpt>
      <trkpt lat="36.94861429743468761444091796875" lon="-5.29504738748073577880859375">
        <ele>407.20001220703125</ele>
        <time>2019-11-01T15:51:41.000Z</time>
      </trkpt>
      <trkpt lat="36.9486179016530513763427734375" lon="-5.29504680074751377105712890625">
        <ele>407</ele>
        <time>2019-11-01T15:51:43.000Z</time>
      </trkpt>
      <trkpt lat="36.94861480034887790679931640625" lon="-5.29519448988139629364013671875">
        <ele>412</ele>
        <time>2019-11-01T15:51:49.000Z</time>
      </trkpt>
      <trkpt lat="36.94863910786807537078857421875" lon="-5.295458771288394927978515625">
        <ele>418.399993896484375</ele>
        <time>2019-11-01T15:51:55.000Z</time>
      </trkpt>
      <trkpt lat="36.94863776676356792449951171875" lon="-5.29573411680757999420166015625">
        <ele>426.600006103515625</ele>
        <time>2019-11-01T15:52:00.000Z</time>
      </trkpt>
      <trkpt lat="36.94858697243034839630126953125" lon="-5.29598155058920383453369140625">
        <ele>432.600006103515625</ele>
        <time>2019-11-01T15:52:04.000Z</time>
      </trkpt>
      <trkpt lat="36.94917353801429271697998046875" lon="-5.29868706129491329193115234375">
        <ele>402.79998779296875</ele>
        <time>2019-11-01T15:53:06.000Z</time>
      </trkpt>
      <trkpt lat="36.94929105229675769805908203125" lon="-5.2987657673656940460205078125">
        <ele>401.20001220703125</ele>
        <time>2019-11-01T15:53:07.000Z</time>
      </trkpt>
      <trkpt lat="36.94931167177855968475341796875" lon="-5.2988901548087596893310546875">
        <ele>400.600006103515625</ele>
        <time>2019-11-01T15:53:10.000Z</time>
      </trkpt>
      <trkpt lat="36.9492012821137905120849609375" lon="-5.2991181425750255584716796875">
        <ele>399.600006103515625</ele>
        <time>2019-11-01T15:53:16.000Z</time>
      </trkpt>
      <trkpt lat="36.9492304511368274688720703125" lon="-5.29935811646282672882080078125">
        <ele>398.600006103515625</ele>
        <time>2019-11-01T15:53:21.000Z</time>
      </trkpt>
      <trkpt lat="36.94925417192280292510986328125" lon="-5.29958576895296573638916015625">
        <ele>398.399993896484375</ele>
        <time>2019-11-01T15:53:25.000Z</time>
      </trkpt>
      <trkpt lat="36.9493199698626995086669921875" lon="-5.299855582416057586669921875">
        <ele>398.399993896484375</ele>
        <time>2019-11-01T15:53:29.000Z</time>
      </trkpt>
      <trkpt lat="36.94934620521962642669677734375" lon="-5.30010226182639598846435546875">
        <ele>398.79998779296875</ele>
        <time>2019-11-01T15:53:33.000Z</time>
      </trkpt>
      <trkpt lat="36.94935643114149570465087890625" lon="-5.300160683691501617431640625">
        <ele>398.79998779296875</ele>
        <time>2019-11-01T15:53:34.000Z</time>
      </trkpt>
      <trkpt lat="36.94940923713147640228271484375" lon="-5.3003999032080173492431640625">
        <ele>399.600006103515625</ele>
        <time>2019-11-01T15:53:38.000Z</time>
      </trkpt>
      <trkpt lat="36.94944108836352825164794921875" lon="-5.30064113438129425048828125">
        <ele>401.600006103515625</ele>
        <time>2019-11-01T15:53:42.000Z</time>
      </trkpt>
      <trkpt lat="36.949464641511440277099609375" lon="-5.30087775550782680511474609375">
        <ele>403.79998779296875</ele>
        <time>2019-11-01T15:53:46.000Z</time>
      </trkpt>
      <trkpt lat="36.9494695030152797698974609375" lon="-5.3011073358356952667236328125">
        <ele>408.20001220703125</ele>
        <time>2019-11-01T15:53:50.000Z</time>
      </trkpt>
      <trkpt lat="36.94944779388606548309326171875" lon="-5.3013306297361850738525390625">
        <ele>413.20001220703125</ele>
        <time>2019-11-01T15:53:54.000Z</time>
      </trkpt>
      <trkpt lat="36.94942465983331203460693359375" lon="-5.30156725086271762847900390625">
        <ele>414</ele>
        <time>2019-11-01T15:53:58.000Z</time>
      </trkpt>
      <trkpt lat="36.9495628774166107177734375" lon="-5.30455715954303741455078125">
        <ele>391.600006103515625</ele>
        <time>2019-11-01T15:54:45.000Z</time>
      </trkpt>
      <trkpt lat="36.94949238561093807220458984375" lon="-5.30479663051664829254150390625">
        <ele>387.79998779296875</ele>
        <time>2019-11-01T15:54:49.000Z</time>
      </trkpt>
      <trkpt lat="36.949478723108768463134765625" lon="-5.30496527440845966339111328125">
        <ele>385.399993896484375</ele>
        <time>2019-11-01T15:54:52.000Z</time>
      </trkpt>
      <trkpt lat="36.94949624128639698028564453125" lon="-5.3052325733006000518798828125">
        <ele>383.399993896484375</ele>
        <time>2019-11-01T15:54:56.000Z</time>
      </trkpt>
      <trkpt lat="36.94950898177921772003173828125" lon="-5.3054380975663661956787109375">
        <ele>383</ele>
        <time>2019-11-01T15:54:59.000Z</time>
      </trkpt>
      <trkpt lat="36.9495161063969135284423828125" lon="-5.30557346530258655548095703125">
        <ele>383.600006103515625</ele>
        <time>2019-11-01T15:55:01.000Z</time>
      </trkpt>
      <trkpt lat="36.9495120830833911895751953125" lon="-5.3057431988418102264404296875">
        <ele>384.79998779296875</ele>
        <time>2019-11-01T15:55:04.000Z</time>
      </trkpt>
      <trkpt lat="36.94953496567904949188232421875" lon="-5.3059970028698444366455078125">
        <ele>389</ele>
        <time>2019-11-01T15:55:08.000Z</time>
      </trkpt>
      <trkpt lat="36.9495496340095996856689453125" lon="-5.30623798258602619171142578125">
        <ele>396.600006103515625</ele>
        <time>2019-11-01T15:55:12.000Z</time>
      </trkpt>
      <trkpt lat="36.94956212304532527923583984375" lon="-5.306468904018402099609375">
        <ele>404.79998779296875</ele>
        <time>2019-11-01T15:55:16.000Z</time>
      </trkpt>
      <trkpt lat="36.94958508946001529693603515625" lon="-5.30671273358166217803955078125">
        <ele>413</ele>
        <time>2019-11-01T15:55:20.000Z</time>
      </trkpt>
      <trkpt lat="36.9496109895408153533935546875" lon="-5.30714708380401134490966796875">
        <ele>422.399993896484375</ele>
        <time>2019-11-01T15:55:26.000Z</time>
      </trkpt>
      <trkpt lat="36.94962968118488788604736328125" lon="-5.30743324197828769683837890625">
        <ele>423.79998779296875</ele>
        <time>2019-11-01T15:55:30.000Z</time>
      </trkpt>
      <trkpt lat="36.95042059756815433502197265625" lon="-5.309418328106403350830078125">
        <ele>384</ele>
        <time>2019-11-01T15:56:19.000Z</time>
      </trkpt>
      <trkpt lat="36.95053643546998500823974609375" lon="-5.30954833142459392547607421875">
        <ele>384.20001220703125</ele>
        <time>2019-11-01T15:56:22.000Z</time>
      </trkpt>
      <trkpt lat="36.95063651539385318756103515625" lon="-5.30975720845162868499755859375">
        <ele>382.20001220703125</ele>
        <time>2019-11-01T15:56:26.000Z</time>
      </trkpt>
      <trkpt lat="36.95073106326162815093994140625" lon="-5.3099646605551242828369140625">
        <ele>381.20001220703125</ele>
        <time>2019-11-01T15:56:30.000Z</time>
      </trkpt>
      <trkpt lat="36.95079124532639980316162109375" lon="-5.31011863611638545989990234375">
        <ele>381.399993896484375</ele>
        <time>2019-11-01T15:56:33.000Z</time>
      </trkpt>
      <trkpt lat="36.95091445930302143096923828125" lon="-5.31032667495310306549072265625">
        <ele>380</ele>
        <time>2019-11-01T15:56:37.000Z</time>
      </trkpt>
      <trkpt lat="36.9510194845497608184814453125" lon="-5.3105188719928264617919921875">
        <ele>378</ele>
        <time>2019-11-01T15:56:40.000Z</time>
      </trkpt>
      <trkpt lat="36.9511586241424083709716796875" lon="-5.31072598882019519805908203125">
        <ele>375.399993896484375</ele>
        <time>2019-11-01T15:56:43.000Z</time>
      </trkpt>
      <trkpt lat="36.9513170421123504638671875" lon="-5.31092799268662929534912109375">
        <ele>373.399993896484375</ele>
        <time>2019-11-01T15:56:46.000Z</time>
      </trkpt>
      <trkpt lat="36.9514429382979869842529296875" lon="-5.311100743710994720458984375">
        <ele>374</ele>
        <time>2019-11-01T15:56:49.000Z</time>
      </trkpt>
      <trkpt lat="36.9515606202185153961181640625" lon="-5.31127885915338993072509765625">
        <ele>377</ele>
        <time>2019-11-01T15:56:53.000Z</time>
      </trkpt>
      <trkpt lat="36.95169229991734027862548828125" lon="-5.31143778003752231597900390625">
        <ele>380.600006103515625</ele>
        <time>2019-11-01T15:56:57.000Z</time>
      </trkpt>
      <trkpt lat="36.95181936956942081451416015625" lon="-5.3115971200168132781982421875">
        <ele>384.79998779296875</ele>
        <time>2019-11-01T15:57:01.000Z</time>
      </trkpt>
      <trkpt lat="36.9518576748669147491455078125" lon="-5.31163492240011692047119140625">
        <ele>386</ele>
        <time>2019-11-01T15:57:02.000Z</time>
      </trkpt>
      <trkpt lat="36.95199354551732540130615234375" lon="-5.31178437173366546630859375">
        <ele>390.399993896484375</ele>
        <time>2019-11-01T15:57:06.000Z</time>
      </trkpt>
      <trkpt lat="36.952149532735347747802734375" lon="-5.311957709491252899169921875">
        <ele>395</ele>
        <time>2019-11-01T15:57:11.000Z</time>
      </trkpt>
      <trkpt lat="36.95226713083684444427490234375" lon="-5.3121456317603588104248046875">
        <ele>399.79998779296875</ele>
        <time>2019-11-01T15:57:15.000Z</time>
      </trkpt>
      <trkpt lat="36.95239319466054439544677734375" lon="-5.3123327158391475677490234375">
        <ele>405.399993896484375</ele>
        <time>2019-11-01T15:57:19.000Z</time>
      </trkpt>
      <trkpt lat="36.95363354869186878204345703125" lon="-5.31316302716732025146484375">
        <ele>374.20001220703125</ele>
        <time>2019-11-01T15:57:48.000Z</time>
      </trkpt>
      <trkpt lat="36.9537137635052204132080078125" lon="-5.3132191859185695648193359375">
        <ele>372</ele>
        <time>2019-11-01T15:57:55.000Z</time>
      </trkpt>
      <trkpt lat="36.95385918952524662017822265625" lon="-5.31330241821706295013427734375">
        <ele>370.79998779296875</ele>
        <time>2019-11-01T15:57:59.000Z</time>
      </trkpt>
      <trkpt lat="36.9540289230644702911376953125" lon="-5.31343250535428524017333984375">
        <ele>372.20001220703125</ele>
        <time>2019-11-01T15:58:03.000Z</time>
      </trkpt>
      <trkpt lat="36.9541663862764835357666015625" lon="-5.31352940015494823455810546875">
        <ele>374</ele>
        <time>2019-11-01T15:58:06.000Z</time>
      </trkpt>
      <trkpt lat="36.954359002411365509033203125" lon="-5.3136657737195491790771484375">
        <ele>377</ele>
        <time>2019-11-01T15:58:10.000Z</time>
      </trkpt>
      <trkpt lat="36.95456109009683132171630859375" lon="-5.31379745341837406158447265625">
        <ele>380.20001220703125</ele>
        <time>2019-11-01T15:58:14.000Z</time>
      </trkpt>
      <trkpt lat="36.95471204817295074462890625" lon="-5.31390222720801830291748046875">
        <ele>380.600006103515625</ele>
        <time>2019-11-01T15:58:17.000Z</time>
      </trkpt>
      <trkpt lat="36.9549180753529071807861328125" lon="-5.31404438428580760955810546875">
        <ele>382</ele>
        <time>2019-11-01T15:58:21.000Z</time>
      </trkpt>
      <trkpt lat="36.95511840283870697021484375" lon="-5.3142002038657665252685546875">
        <ele>382</ele>
        <time>2019-11-01T15:58:25.000Z</time>
      </trkpt>
      <trkpt lat="36.95531898178160190582275390625" lon="-5.31434864737093448638916015625">
        <ele>380.20001220703125</ele>
        <time>2019-11-01T15:58:29.000Z</time>
      </trkpt>
      <trkpt lat="36.95547320879995822906494140625" lon="-5.31446523964405059814453125">
        <ele>380.399993896484375</ele>
        <time>2019-11-01T15:58:32.000Z</time>
      </trkpt>
      <trkpt lat="36.955649144947528839111328125" lon="-5.31461552716791629791259765625">
        <ele>381.399993896484375</ele>
        <time>2019-11-01T15:58:36.000Z</time>
      </trkpt>
      <trkpt lat="36.9556804932653903961181640625" lon="-5.3146483004093170166015625">
        <ele>381.399993896484375</ele>
        <time>2019-11-01T15:58:37.000Z</time>
      </trkpt>
      <trkpt lat="36.95584662258625030517578125" lon="-5.314852483570575714111328125">
        <ele>383.20001220703125</ele>
        <time>2019-11-01T15:58:42.000Z</time>
      </trkpt>
      <trkpt lat="36.95600914768874645233154296875" lon="-5.3150702454149723052978515625">
        <ele>381.600006103515625</ele>
        <time>2019-11-01T15:58:46.000Z</time>
      </trkpt>
      <trkpt lat="36.95615884847939014434814453125" lon="-5.3152905218303203582763671875">
        <ele>379.600006103515625</ele>
        <time>2019-11-01T15:58:50.000Z</time>
      </trkpt>
      <trkpt lat="36.95628742687404155731201171875" lon="-5.31549428589642047882080078125">
        <ele>375.79998779296875</ele>
        <time>2019-11-01T15:58:54.000Z</time>
      </trkpt>
      <trkpt lat="36.9564382173120975494384765625" lon="-5.3156864829361438751220703125">
        <ele>372.399993896484375</ele>
        <time>2019-11-01T15:58:58.000Z</time>
      </trkpt>
      <trkpt lat="36.95655765943229198455810546875" lon="-5.31587532721459865570068359375">
        <ele>369.79998779296875</ele>
        <time>2019-11-01T15:59:02.000Z</time>
      </trkpt>
      <trkpt lat="36.95664818398654460906982421875" lon="-5.31608152203261852264404296875">
        <ele>368</ele>
        <time>2019-11-01T15:59:06.000Z</time>
      </trkpt>
      <trkpt lat="36.9567104615271091461181640625" lon="-5.31622434966266155242919921875">
        <ele>367.399993896484375</ele>
        <time>2019-11-01T15:59:09.000Z</time>
      </trkpt>
      <trkpt lat="36.9567949511110782623291015625" lon="-5.31647865660488605499267578125">
        <ele>366.399993896484375</ele>
        <time>2019-11-01T15:59:14.000Z</time>
      </trkpt>
      <trkpt lat="36.95682428777217864990234375" lon="-5.31656951643526554107666015625">
        <ele>366.20001220703125</ele>
        <time>2019-11-01T15:59:16.000Z</time>
      </trkpt>
      <trkpt lat="36.95689125917851924896240234375" lon="-5.31682633794844150543212890625">
        <ele>366</ele>
        <time>2019-11-01T15:59:21.000Z</time>
      </trkpt>
      <trkpt lat="36.956944651901721954345703125" lon="-5.317056588828563690185546875">
        <ele>366.600006103515625</ele>
        <time>2019-11-01T15:59:25.000Z</time>
      </trkpt>
      <trkpt lat="36.9569818675518035888671875" lon="-5.31730980612337589263916015625">
        <ele>367.600006103515625</ele>
        <time>2019-11-01T15:59:29.000Z</time>
      </trkpt>
      <trkpt lat="36.95701966993510723114013671875" lon="-5.3175799548625946044921875">
        <ele>369.600006103515625</ele>
        <time>2019-11-01T15:59:33.000Z</time>
      </trkpt>
      <trkpt lat="36.9570383615791797637939453125" lon="-5.31786787323653697967529296875">
        <ele>370.79998779296875</ele>
        <time>2019-11-01T15:59:37.000Z</time>
      </trkpt>
      <trkpt lat="36.95703777484595775604248046875" lon="-5.31793962232768535614013671875">
        <ele>370.79998779296875</ele>
        <time>2019-11-01T15:59:38.000Z</time>
      </trkpt>
      <trkpt lat="36.9570413790643215179443359375" lon="-5.31820432282984256744384765625">
        <ele>370.600006103515625</ele>
        <time>2019-11-01T15:59:42.000Z</time>
      </trkpt>
      <trkpt lat="36.95704028941690921783447265625" lon="-5.31843834556639194488525390625">
        <ele>369.399993896484375</ele>
        <time>2019-11-01T15:59:46.000Z</time>
      </trkpt>
      <trkpt lat="36.95703961886465549468994140625" lon="-5.3187230788171291351318359375">
        <ele>367</ele>
        <time>2019-11-01T15:59:51.000Z</time>
      </trkpt>
      <trkpt lat="36.95703023113310337066650390625" lon="-5.31897495500743389129638671875">
        <ele>363.399993896484375</ele>
        <time>2019-11-01T15:59:55.000Z</time>
      </trkpt>
      <trkpt lat="36.95699435658752918243408203125" lon="-5.31922004185616970062255859375">
        <ele>359.20001220703125</ele>
        <time>2019-11-01T15:59:59.000Z</time>
      </trkpt>
      <trkpt lat="36.956988908350467681884765625" lon="-5.31928039155900478363037109375">
        <ele>358</ele>
        <time>2019-11-01T16:00:00.000Z</time>
      </trkpt>
      <trkpt lat="36.95697977207601070404052734375" lon="-5.31953536905348300933837890625">
        <ele>354</ele>
        <time>2019-11-01T16:00:04.000Z</time>
      </trkpt>
      <trkpt lat="36.95696300826966762542724609375" lon="-5.31982404179871082305908203125">
        <ele>351</ele>
        <time>2019-11-01T16:00:08.000Z</time>
      </trkpt>
      <trkpt lat="36.95696175098419189453125" lon="-5.32009712420403957366943359375">
        <ele>351</ele>
        <time>2019-11-01T16:00:12.000Z</time>
      </trkpt>
      <trkpt lat="36.956959404051303863525390625" lon="-5.320359058678150177001953125">
        <ele>351.399993896484375</ele>
        <time>2019-11-01T16:00:16.000Z</time>
      </trkpt>
      <trkpt lat="36.956948675215244293212890625" lon="-5.32063021324574947357177734375">
        <ele>352.399993896484375</ele>
        <time>2019-11-01T16:00:20.000Z</time>
      </trkpt>
      <trkpt lat="36.9569340907037258148193359375" lon="-5.3209208138287067413330078125">
        <ele>354</ele>
        <time>2019-11-01T16:00:24.000Z</time>
      </trkpt>
      <trkpt lat="36.956926546990871429443359375" lon="-5.321210660040378570556640625">
        <ele>354.600006103515625</ele>
        <time>2019-11-01T16:00:28.000Z</time>
      </trkpt>
      <trkpt lat="36.95692277513444423675537109375" lon="-5.32148265279829502105712890625">
        <ele>354.600006103515625</ele>
        <time>2019-11-01T16:00:32.000Z</time>
      </trkpt>
      <trkpt lat="36.95691254921257495880126953125" lon="-5.32174341380596160888671875">
        <ele>354.600006103515625</ele>
        <time>2019-11-01T16:00:36.000Z</time>
      </trkpt>
      <trkpt lat="36.95689897052943706512451171875" lon="-5.32200937159359455108642578125">
        <ele>354.20001220703125</ele>
        <time>2019-11-01T16:00:40.000Z</time>
      </trkpt>
      <trkpt lat="36.956896372139453887939453125" lon="-5.32207542099058628082275390625">
        <ele>354</ele>
        <time>2019-11-01T16:00:41.000Z</time>
      </trkpt>
      <trkpt lat="36.9568945281207561492919921875" lon="-5.32234766520559787750244140625">
        <ele>353.399993896484375</ele>
        <time>2019-11-01T16:00:45.000Z</time>
      </trkpt>
      <trkpt lat="36.95689327083528041839599609375" lon="-5.3224848769605159759521484375">
        <ele>353</ele>
        <time>2019-11-01T16:00:47.000Z</time>
      </trkpt>
      <trkpt lat="36.95688866078853607177734375" lon="-5.32272736541926860809326171875">
        <ele>353</ele>
        <time>2019-11-01T16:00:51.000Z</time>
      </trkpt>
      <trkpt lat="36.95688589476048946380615234375" lon="-5.32295803539454936981201171875">
        <ele>352.399993896484375</ele>
        <time>2019-11-01T16:00:55.000Z</time>
      </trkpt>
      <trkpt lat="36.95688941515982151031494140625" lon="-5.3231966681778430938720703125">
        <ele>351.600006103515625</ele>
        <time>2019-11-01T16:00:59.000Z</time>
      </trkpt>
      <trkpt lat="36.956872902810573577880859375" lon="-5.3234397433698177337646484375">
        <ele>350.79998779296875</ele>
        <time>2019-11-01T16:01:03.000Z</time>
      </trkpt>
      <trkpt lat="36.956860162317752838134765625" lon="-5.32373872585594654083251953125">
        <ele>349.79998779296875</ele>
        <time>2019-11-01T16:01:07.000Z</time>
      </trkpt>
      <trkpt lat="36.95683769881725311279296875" lon="-5.3240144066512584686279296875">
        <ele>349.399993896484375</ele>
        <time>2019-11-01T16:01:10.000Z</time>
      </trkpt>
      <trkpt lat="36.956830658018589019775390625" lon="-5.3241978026926517486572265625">
        <ele>349.20001220703125</ele>
        <time>2019-11-01T16:01:12.000Z</time>
      </trkpt>
      <trkpt lat="36.95683107711374759674072265625" lon="-5.3244462423026561737060546875">
        <ele>349.20001220703125</ele>
        <time>2019-11-01T16:01:15.000Z</time>
      </trkpt>
      <trkpt lat="36.95682738907635211944580078125" lon="-5.32467775046825408935546875">
        <ele>348.79998779296875</ele>
        <time>2019-11-01T16:01:18.000Z</time>
      </trkpt>
      <trkpt lat="36.95682973600924015045166015625" lon="-5.3249598853290081024169921875">
        <ele>346.79998779296875</ele>
        <time>2019-11-01T16:01:22.000Z</time>
      </trkpt>
      <trkpt lat="36.95682294666767120361328125" lon="-5.3252314589917659759521484375">
        <ele>346</ele>
        <time>2019-11-01T16:01:26.000Z</time>
      </trkpt>
      <trkpt lat="36.9568073563277721405029296875" lon="-5.32550931908190250396728515625">
        <ele>347</ele>
        <time>2019-11-01T16:01:30.000Z</time>
      </trkpt>
      <trkpt lat="36.956804506480693817138671875" lon="-5.3257380612194538116455078125">
        <ele>349.399993896484375</ele>
        <time>2019-11-01T16:01:34.000Z</time>
      </trkpt>
      <trkpt lat="36.9567926041781902313232421875" lon="-5.32598826102912425994873046875">
        <ele>351.399993896484375</ele>
        <time>2019-11-01T16:01:39.000Z</time>
      </trkpt>
      <trkpt lat="36.95678346790373325347900390625" lon="-5.326266624033451080322265625">
        <ele>352.79998779296875</ele>
        <time>2019-11-01T16:01:44.000Z</time>
      </trkpt>
      <trkpt lat="36.95677542127668857574462890625" lon="-5.32650358043611049652099609375">
        <ele>354.20001220703125</ele>
        <time>2019-11-01T16:01:48.000Z</time>
      </trkpt>
      <trkpt lat="36.95677357725799083709716796875" lon="-5.32673458568751811981201171875">
        <ele>356.399993896484375</ele>
        <time>2019-11-01T16:01:52.000Z</time>
      </trkpt>
      <trkpt lat="36.95677324198186397552490234375" lon="-5.32696894370019435882568359375">
        <ele>358.79998779296875</ele>
        <time>2019-11-01T16:01:56.000Z</time>
      </trkpt>
      <trkpt lat="36.95676888339221477508544921875" lon="-5.3272468037903308868408203125">
        <ele>361.399993896484375</ele>
        <time>2019-11-01T16:02:01.000Z</time>
      </trkpt>
      <trkpt lat="36.95673602633178234100341796875" lon="-5.32751980237662792205810546875">
        <ele>361.600006103515625</ele>
        <time>2019-11-01T16:02:06.000Z</time>
      </trkpt>
      <trkpt lat="36.95670953951776027679443359375" lon="-5.32763647846877574920654296875">
        <ele>361</ele>
        <time>2019-11-01T16:02:08.000Z</time>
      </trkpt>
      <trkpt lat="36.956690847873687744140625" lon="-5.327878631651401519775390625">
        <ele>359.79998779296875</ele>
        <time>2019-11-01T16:02:12.000Z</time>
      </trkpt>
      <trkpt lat="36.95670082233846187591552734375" lon="-5.32800142653286457061767578125">
        <ele>359.399993896484375</ele>
        <time>2019-11-01T16:02:14.000Z</time>
      </trkpt>
      <trkpt lat="36.956682465970516204833984375" lon="-5.328232347965240478515625">
        <ele>357.600006103515625</ele>
        <time>2019-11-01T16:02:18.000Z</time>
      </trkpt>
      <trkpt lat="36.95666394196450710296630859375" lon="-5.32846226356923580169677734375">
        <ele>356</ele>
        <time>2019-11-01T16:02:22.000Z</time>
      </trkpt>
      <trkpt lat="36.95663812570273876190185546875" lon="-5.32869025133550167083740234375">
        <ele>355.399993896484375</ele>
        <time>2019-11-01T16:02:26.000Z</time>
      </trkpt>
      <trkpt lat="36.95660208351910114288330078125" lon="-5.32894338481128215789794921875">
        <ele>353.600006103515625</ele>
        <time>2019-11-01T16:02:31.000Z</time>
      </trkpt>
      <trkpt lat="36.95658565498888492584228515625" lon="-5.32903223298490047454833984375">
        <ele>352.79998779296875</ele>
        <time>2019-11-01T16:02:33.000Z</time>
      </trkpt>
      <trkpt lat="36.95656771771609783172607421875" lon="-5.32916181720793247222900390625">
        <ele>351.600006103515625</ele>
        <time>2019-11-01T16:02:36.000Z</time>
      </trkpt>
      <trkpt lat="36.9565374590456485748291015625" lon="-5.329386703670024871826171875">
        <ele>350</ele>
        <time>2019-11-01T16:02:41.000Z</time>
      </trkpt>
      <trkpt lat="36.95649714209139347076416015625" lon="-5.32966389320790767669677734375">
        <ele>349</ele>
        <time>2019-11-01T16:02:46.000Z</time>
      </trkpt>
      <trkpt lat="36.9564556516706943511962890625" lon="-5.32989020459353923797607421875">
        <ele>348.399993896484375</ele>
        <time>2019-11-01T16:02:50.000Z</time>
      </trkpt>
      <trkpt lat="36.95644031278789043426513671875" lon="-5.329944603145122528076171875">
        <ele>348.399993896484375</ele>
        <time>2019-11-01T16:02:51.000Z</time>
      </trkpt>
      <trkpt lat="36.9563802145421504974365234375" lon="-5.33015658147633075714111328125">
        <ele>348.399993896484375</ele>
        <time>2019-11-01T16:02:55.000Z</time>
      </trkpt>
      <trkpt lat="36.95632481016218662261962890625" lon="-5.33036428503692150115966796875">
        <ele>349.20001220703125</ele>
        <time>2019-11-01T16:02:59.000Z</time>
      </trkpt>
      <trkpt lat="36.95626479573547840118408203125" lon="-5.3305296599864959716796875">
        <ele>350</ele>
        <time>2019-11-01T16:03:03.000Z</time>
      </trkpt>
      <trkpt lat="36.95621701888740062713623046875" lon="-5.3307576477527618408203125">
        <ele>350.79998779296875</ele>
        <time>2019-11-01T16:03:10.000Z</time>
      </trkpt>
      <trkpt lat="36.95621584542095661163330078125" lon="-5.330774746835231781005859375">
        <ele>350.79998779296875</ele>
        <time>2019-11-01T16:03:12.000Z</time>
      </trkpt>
      <trkpt lat="36.95621735416352748870849609375" lon="-5.33077239990234375">
        <ele>350.79998779296875</ele>
        <time>2019-11-01T16:03:15.000Z</time>
      </trkpt>
      <trkpt lat="36.956148706376552581787109375" lon="-5.330823026597499847412109375">
        <ele>351</ele>
        <time>2019-11-01T16:03:38.000Z</time>
      </trkpt>
      <trkpt lat="36.9559708423912525177001953125" lon="-5.33089636825025081634521484375">
        <ele>351.20001220703125</ele>
        <time>2019-11-01T16:03:45.000Z</time>
      </trkpt>
      <trkpt lat="36.9559487141668796539306640625" lon="-5.33092595636844635009765625">
        <ele>351.399993896484375</ele>
        <time>2019-11-01T16:03:46.000Z</time>
      </trkpt>
      <trkpt lat="36.955790631473064422607421875" lon="-5.33109887503087520599365234375">
        <ele>352.79998779296875</ele>
        <time>2019-11-01T16:03:52.000Z</time>
      </trkpt>
      <trkpt lat="36.955691389739513397216796875" lon="-5.33128763549029827117919921875">
        <ele>354.399993896484375</ele>
        <time>2019-11-01T16:03:59.000Z</time>
      </trkpt>
      <trkpt lat="36.95574210025370121002197265625" lon="-5.33153079450130462646484375">
        <ele>356.79998779296875</ele>
        <time>2019-11-01T16:04:05.000Z</time>
      </trkpt>
      <trkpt lat="36.9558065570890903472900390625" lon="-5.33174361102283000946044921875">
        <ele>358.399993896484375</ele>
        <time>2019-11-01T16:04:12.000Z</time>
      </trkpt>
      <trkpt lat="36.9557968340814113616943359375" lon="-5.3317542560398578643798828125">
        <ele>358.399993896484375</ele>
        <time>2019-11-01T16:04:13.000Z</time>
      </trkpt>
      <trkpt lat="36.95575064979493618011474609375" lon="-5.33156189136207103729248046875">
        <ele>357</ele>
        <time>2019-11-01T16:04:20.000Z</time>
      </trkpt>
      <trkpt lat="36.95570555515587329864501953125" lon="-5.33133499324321746826171875">
        <ele>355</ele>
        <time>2019-11-01T16:04:25.000Z</time>
      </trkpt>
      <trkpt lat="36.95554160512983798980712890625" lon="-5.33117665909230709075927734375">
        <ele>352.20001220703125</ele>
        <time>2019-11-01T16:04:31.000Z</time>
      </trkpt>
      <trkpt lat="36.95534882135689258575439453125" lon="-5.331150591373443603515625">
        <ele>350.399993896484375</ele>
        <time>2019-11-01T16:04:35.000Z</time>
      </trkpt>
      <trkpt lat="36.9551552832126617431640625" lon="-5.3312332369387149810791015625">
        <ele>349.399993896484375</ele>
        <time>2019-11-01T16:04:39.000Z</time>
      </trkpt>
      <trkpt lat="36.954947747290134429931640625" lon="-5.3313799202442169189453125">
        <ele>349.20001220703125</ele>
        <time>2019-11-01T16:04:43.000Z</time>
      </trkpt>
      <trkpt lat="36.95477566681802272796630859375" lon="-5.331511013209819793701171875">
        <ele>349</ele>
        <time>2019-11-01T16:04:46.000Z</time>
      </trkpt>
      <trkpt lat="36.95459880866110324859619140625" lon="-5.3315943293273448944091796875">
        <ele>348</ele>
        <time>2019-11-01T16:04:49.000Z</time>
      </trkpt>
      <trkpt lat="36.95442044176161289215087890625" lon="-5.33168829046189785003662109375">
        <ele>346.79998779296875</ele>
        <time>2019-11-01T16:04:53.000Z</time>
      </trkpt>
      <trkpt lat="36.95437677204608917236328125" lon="-5.331706814467906951904296875">
        <ele>346.600006103515625</ele>
        <time>2019-11-01T16:04:54.000Z</time>
      </trkpt>
      <trkpt lat="36.9542934559285640716552734375" lon="-5.33172793686389923095703125">
        <ele>345.79998779296875</ele>
        <time>2019-11-01T16:04:56.000Z</time>
      </trkpt>
      <trkpt lat="36.9541114009916782379150390625" lon="-5.331668592989444732666015625">
        <ele>344.20001220703125</ele>
        <time>2019-11-01T16:05:00.000Z</time>
      </trkpt>
      <trkpt lat="36.95401760749518871307373046875" lon="-5.33157379366457462310791015625">
        <ele>342.79998779296875</ele>
        <time>2019-11-01T16:05:03.000Z</time>
      </trkpt>
      <trkpt lat="36.95399665273725986480712890625" lon="-5.33155225217342376708984375">
        <ele>342.600006103515625</ele>
        <time>2019-11-01T16:05:04.000Z</time>
      </trkpt>
      <trkpt lat="36.95396748371422290802001953125" lon="-5.3315349854528903961181640625">
        <ele>342.600006103515625</ele>
        <time>2019-11-01T16:05:10.000Z</time>
      </trkpt>
      <trkpt lat="36.9540715031325817108154296875" lon="-5.3315815888345241546630859375">
        <ele>343.20001220703125</ele>
        <time>2019-11-01T16:05:40.000Z</time>
      </trkpt>
      <trkpt lat="36.95422514341771602630615234375" lon="-5.3317200578749179840087890625">
        <ele>345.399993896484375</ele>
        <time>2019-11-01T16:05:47.000Z</time>
      </trkpt>
      <trkpt lat="36.9544322602450847625732421875" lon="-5.33169583417475223541259765625">
        <ele>347</ele>
        <time>2019-11-01T16:05:54.000Z</time>
      </trkpt>
      <trkpt lat="36.9546099565923213958740234375" lon="-5.33161218278110027313232421875">
        <ele>348.399993896484375</ele>
        <time>2019-11-01T16:06:01.000Z</time>
      </trkpt>
      <trkpt lat="36.9547839649021625518798828125" lon="-5.3315172158181667327880859375">
        <ele>349.20001220703125</ele>
        <time>2019-11-01T16:06:08.000Z</time>
      </trkpt>
      <trkpt lat="36.95496912114322185516357421875" lon="-5.3314059041440486907958984375">
        <ele>349.600006103515625</ele>
        <time>2019-11-01T16:06:16.000Z</time>
      </trkpt>
      <trkpt lat="36.9551215879619121551513671875" lon="-5.33128805458545684814453125">
        <ele>349.600006103515625</ele>
        <time>2019-11-01T16:06:23.000Z</time>
      </trkpt>
      <trkpt lat="36.9552811793982982635498046875" lon="-5.33117062412202358245849609375">
        <ele>349.79998779296875</ele>
        <time>2019-11-01T16:06:31.000Z</time>
      </trkpt>
      <trkpt lat="36.9554796628654003143310546875" lon="-5.3311356715857982635498046875">
        <ele>351.399993896484375</ele>
        <time>2019-11-01T16:06:39.000Z</time>
      </trkpt>
      <trkpt lat="36.955666244029998779296875" lon="-5.33118453808128833770751953125">
        <ele>353.20001220703125</ele>
        <time>2019-11-01T16:06:47.000Z</time>
      </trkpt>
      <trkpt lat="36.955831535160541534423828125" lon="-5.33109803684055805206298828125">
        <ele>353</ele>
        <time>2019-11-01T16:06:54.000Z</time>
      </trkpt>
      <trkpt lat="36.955982409417629241943359375" lon="-5.33094917424023151397705078125">
        <ele>351.79998779296875</ele>
        <time>2019-11-01T16:07:00.000Z</time>
      </trkpt>
      <trkpt lat="36.95615046657621860504150390625" lon="-5.3308496810495853424072265625">
        <ele>351.399993896484375</ele>
        <time>2019-11-01T16:07:07.000Z</time>
      </trkpt>
      <trkpt lat="36.95619438774883747100830078125" lon="-5.330869965255260467529296875">
        <ele>351.79998779296875</ele>
        <time>2019-11-01T16:07:09.000Z</time>
      </trkpt>
      <trkpt lat="36.95616044104099273681640625" lon="-5.3310649283230304718017578125">
        <ele>353.79998779296875</ele>
        <time>2019-11-01T16:07:15.000Z</time>
      </trkpt>
      <trkpt lat="36.95606161840260028839111328125" lon="-5.331301800906658172607421875">
        <ele>356.79998779296875</ele>
        <time>2019-11-01T16:07:21.000Z</time>
      </trkpt>
      <trkpt lat="36.95597612299025058746337890625" lon="-5.331521071493625640869140625">
        <ele>358.399993896484375</ele>
        <time>2019-11-01T16:07:26.000Z</time>
      </trkpt>
      <trkpt lat="36.95587478578090667724609375" lon="-5.33175115473568439483642578125">
        <ele>358.79998779296875</ele>
        <time>2019-11-01T16:07:31.000Z</time>
      </trkpt>
      <trkpt lat="36.95575970225036144256591796875" lon="-5.33197738230228424072265625">
        <ele>358.79998779296875</ele>
        <time>2019-11-01T16:07:36.000Z</time>
      </trkpt>
      <trkpt lat="36.95566297508776187896728515625" lon="-5.33221475780010223388671875">
        <ele>358.79998779296875</ele>
        <time>2019-11-01T16:07:41.000Z</time>
      </trkpt>
      <trkpt lat="36.955593489110469818115234375" lon="-5.3324700705707073211669921875">
        <ele>357.20001220703125</ele>
        <time>2019-11-01T16:07:46.000Z</time>
      </trkpt>
      <trkpt lat="36.9554873742163181304931640625" lon="-5.33270359039306640625">
        <ele>355.399993896484375</ele>
        <time>2019-11-01T16:07:51.000Z</time>
      </trkpt>
      <trkpt lat="36.9553777389228343963623046875" lon="-5.332897044718265533447265625">
        <ele>353.79998779296875</ele>
        <time>2019-11-01T16:07:55.000Z</time>
      </trkpt>
      <trkpt lat="36.9552533514797687530517578125" lon="-5.33311975188553333282470703125">
        <ele>352.399993896484375</ele>
        <time>2019-11-01T16:07:59.000Z</time>
      </trkpt>
      <trkpt lat="36.95511949248611927032470703125" lon="-5.3333598934113979339599609375">
        <ele>351.20001220703125</ele>
        <time>2019-11-01T16:08:03.000Z</time>
      </trkpt>
      <trkpt lat="36.955061070621013641357421875" lon="-5.3334842808544635772705078125">
        <ele>351</ele>
        <time>2019-11-01T16:08:05.000Z</time>
      </trkpt>
      <trkpt lat="36.95504154078662395477294921875" lon="-5.33373179845511913299560546875">
        <ele>352.600006103515625</ele>
        <time>2019-11-01T16:08:09.000Z</time>
      </trkpt>
      <trkpt lat="36.95512913167476654052734375" lon="-5.33394184894859790802001953125">
        <ele>355.79998779296875</ele>
        <time>2019-11-01T16:08:14.000Z</time>
      </trkpt>
      <trkpt lat="36.95518084801733493804931640625" lon="-5.334000103175640106201171875">
        <ele>357.20001220703125</ele>
        <time>2019-11-01T16:08:16.000Z</time>
      </trkpt>
      <trkpt lat="36.95533306337893009185791015625" lon="-5.33416346646845340728759765625">
        <ele>360.399993896484375</ele>
        <time>2019-11-01T16:08:23.000Z</time>
      </trkpt>
      <trkpt lat="36.9554753042757511138916015625" lon="-5.33433093689382076263427734375">
        <ele>363.399993896484375</ele>
        <time>2019-11-01T16:08:31.000Z</time>
      </trkpt>
      <trkpt lat="36.9556234963238239288330078125" lon="-5.3344981558620929718017578125">
        <ele>364.79998779296875</ele>
        <time>2019-11-01T16:08:40.000Z</time>
      </trkpt>
      <trkpt lat="36.9557673297822475433349609375" lon="-5.3346497006714344024658203125">
        <ele>367</ele>
        <time>2019-11-01T16:08:49.000Z</time>
      </trkpt>
      <trkpt lat="36.95591929368674755096435546875" lon="-5.33481239341199398040771484375">
        <ele>369.600006103515625</ele>
        <time>2019-11-01T16:08:59.000Z</time>
      </trkpt>
      <trkpt lat="36.95595583878457546234130859375" lon="-5.33483452163636684417724609375">
        <ele>369.399993896484375</ele>
        <time>2019-11-01T16:09:02.000Z</time>
      </trkpt>
      <trkpt lat="36.95594963617622852325439453125" lon="-5.33482245169579982757568359375">
        <ele>369.399993896484375</ele>
        <time>2019-11-01T16:09:05.000Z</time>
      </trkpt>
      <trkpt lat="36.9560053758323192596435546875" lon="-5.33485882915556430816650390625">
        <ele>370.20001220703125</ele>
        <time>2019-11-01T16:09:11.000Z</time>
      </trkpt>
      <trkpt lat="36.95605994202196598052978515625" lon="-5.33491440117359161376953125">
        <ele>371</ele>
        <time>2019-11-01T16:09:17.000Z</time>
      </trkpt>
      <trkpt lat="36.95610017515718936920166015625" lon="-5.33495237119495868682861328125">
        <ele>371.399993896484375</ele>
        <time>2019-11-01T16:09:22.000Z</time>
      </trkpt>
      <trkpt lat="36.95622808299958705902099609375" lon="-5.33512906171381473541259765625">
        <ele>374.20001220703125</ele>
        <time>2019-11-01T16:09:41.000Z</time>
      </trkpt>
      <trkpt lat="36.95625121705234050750732421875" lon="-5.3351599909365177154541015625">
        <ele>374.79998779296875</ele>
        <time>2019-11-01T16:09:44.000Z</time>
      </trkpt>
      <trkpt lat="36.9563488662242889404296875" lon="-5.3353551216423511505126953125">
        <ele>377</ele>
        <time>2019-11-01T16:09:58.000Z</time>
      </trkpt>
      <trkpt lat="36.95646445266902446746826171875" lon="-5.33552602864801883697509765625">
        <ele>376.600006103515625</ele>
        <time>2019-11-01T16:10:13.000Z</time>
      </trkpt>
      <trkpt lat="36.95651608519256114959716796875" lon="-5.3355730511248111724853515625">
        <ele>376.399993896484375</ele>
        <time>2019-11-01T16:10:21.000Z</time>
      </trkpt>
      <trkpt lat="36.9568807817995548248291015625" lon="-5.33581000752747058868408203125">
        <ele>377.79998779296875</ele>
        <time>2019-11-01T16:11:02.000Z</time>
      </trkpt>
      <trkpt lat="36.9570462405681610107421875" lon="-5.33589835278689861297607421875">
        <ele>376.600006103515625</ele>
        <time>2019-11-01T16:11:10.000Z</time>
      </trkpt>
      <trkpt lat="36.9572348333895206451416015625" lon="-5.336029194295406341552734375">
        <ele>371.20001220703125</ele>
        <time>2019-11-01T16:11:16.000Z</time>
      </trkpt>
      <trkpt lat="36.95731219835579395294189453125" lon="-5.33607973717153072357177734375">
        <ele>368.79998779296875</ele>
        <time>2019-11-01T16:11:18.000Z</time>
      </trkpt>
      <trkpt lat="36.95749961771070957183837890625" lon="-5.3362016938626766204833984375">
        <ele>365</ele>
        <time>2019-11-01T16:11:23.000Z</time>
      </trkpt>
      <trkpt lat="36.95766516029834747314453125" lon="-5.3363354690372943878173828125">
        <ele>363.79998779296875</ele>
        <time>2019-11-01T16:11:28.000Z</time>
      </trkpt>
      <trkpt lat="36.95781938731670379638671875" lon="-5.3364732675254344940185546875">
        <ele>361.79998779296875</ele>
        <time>2019-11-01T16:11:36.000Z</time>
      </trkpt>
      <trkpt lat="36.95788484998047351837158203125" lon="-5.336579382419586181640625">
        <ele>361.20001220703125</ele>
        <time>2019-11-01T16:11:43.000Z</time>
      </trkpt>
      <trkpt lat="36.95786657743155956268310546875" lon="-5.3365698270499706268310546875">
        <ele>361.399993896484375</ele>
        <time>2019-11-01T16:11:46.000Z</time>
      </trkpt>
      <trkpt lat="36.95786674506962299346923828125" lon="-5.3366838209331035614013671875">
        <ele>360.79998779296875</ele>
        <time>2019-11-01T16:11:56.000Z</time>
      </trkpt>
      <trkpt lat="36.957887448370456695556640625" lon="-5.33672631718218326568603515625">
        <ele>360.399993896484375</ele>
        <time>2019-11-01T16:12:00.000Z</time>
      </trkpt>
      <trkpt lat="36.9578892923891544342041015625" lon="-5.33674006350338459014892578125">
        <ele>360.20001220703125</ele>
        <time>2019-11-01T16:12:01.000Z</time>
      </trkpt>
      <trkpt lat="36.9578839279711246490478515625" lon="-5.33676923252642154693603515625">
        <ele>360</ele>
        <time>2019-11-01T16:12:03.000Z</time>
      </trkpt>
      <trkpt lat="36.9578589498996734619140625" lon="-5.33678214065730571746826171875">
        <ele>360.20001220703125</ele>
        <time>2019-11-01T16:12:07.000Z</time>
      </trkpt>
      <trkpt lat="36.95778208784759044647216796875" lon="-5.336745679378509521484375">
        <ele>361</ele>
        <time>2019-11-01T16:12:14.000Z</time>
      </trkpt>
      <trkpt lat="36.95766457356512546539306640625" lon="-5.33665993250906467437744140625">
        <ele>361.79998779296875</ele>
        <time>2019-11-01T16:12:27.000Z</time>
      </trkpt>
      <trkpt lat="36.9576381705701351165771484375" lon="-5.336545519530773162841796875">
        <ele>362.399993896484375</ele>
        <time>2019-11-01T16:12:35.000Z</time>
      </trkpt>
      <trkpt lat="36.95765652693808078765869140625" lon="-5.336385928094387054443359375">
        <ele>363.399993896484375</ele>
        <time>2019-11-01T16:12:48.000Z</time>
      </trkpt>
      <trkpt lat="36.9576780684292316436767578125" lon="-5.3363827429711818695068359375">
        <ele>363.399993896484375</ele>
        <time>2019-11-01T16:12:52.000Z</time>
      </trkpt>
      <trkpt lat="36.95776616223156452178955078125" lon="-5.3364430926740169525146484375">
        <ele>362.20001220703125</ele>
        <time>2019-11-01T16:13:01.000Z</time>
      </trkpt>
      <trkpt lat="36.95795073173940181732177734375" lon="-5.33659421838819980621337890625">
        <ele>361</ele>
        <time>2019-11-01T16:13:07.000Z</time>
      </trkpt>
      <trkpt lat="36.9581430964171886444091796875" lon="-5.33672891557216644287109375">
        <ele>358.600006103515625</ele>
        <time>2019-11-01T16:13:12.000Z</time>
      </trkpt>
      <trkpt lat="36.95830042473971843719482421875" lon="-5.3368489444255828857421875">
        <ele>357.20001220703125</ele>
        <time>2019-11-01T16:13:16.000Z</time>
      </trkpt>
      <trkpt lat="36.958458758890628814697265625" lon="-5.33698582090437412261962890625">
        <ele>355.600006103515625</ele>
        <time>2019-11-01T16:13:20.000Z</time>
      </trkpt>
      <trkpt lat="36.9586201943457126617431640625" lon="-5.33712848089635372161865234375">
        <ele>355.399993896484375</ele>
        <time>2019-11-01T16:13:24.000Z</time>
      </trkpt>
      <trkpt lat="36.9587787799537181854248046875" lon="-5.33727801404893398284912109375">
        <ele>354.600006103515625</ele>
        <time>2019-11-01T16:13:28.000Z</time>
      </trkpt>
      <trkpt lat="36.95892705582082271575927734375" lon="-5.3374257870018482208251953125">
        <ele>354.20001220703125</ele>
        <time>2019-11-01T16:13:32.000Z</time>
      </trkpt>
      <trkpt lat="36.95906032808125019073486328125" lon="-5.3375538624823093414306640625">
        <ele>353.600006103515625</ele>
        <time>2019-11-01T16:13:36.000Z</time>
      </trkpt>
      <trkpt lat="36.959119923412799835205078125" lon="-5.3376011364161968231201171875">
        <ele>353.399993896484375</ele>
        <time>2019-11-01T16:13:38.000Z</time>
      </trkpt>
      <trkpt lat="36.9592297263443470001220703125" lon="-5.3377241827547550201416015625">
        <ele>353</ele>
        <time>2019-11-01T16:13:43.000Z</time>
      </trkpt>
      <trkpt lat="36.95938537828624248504638671875" lon="-5.3378928266465663909912109375">
        <ele>352</ele>
        <time>2019-11-01T16:13:49.000Z</time>
      </trkpt>
      <trkpt lat="36.9595086760818958282470703125" lon="-5.3380323015153408050537109375">
        <ele>352</ele>
        <time>2019-11-01T16:13:53.000Z</time>
      </trkpt>
      <trkpt lat="36.9596401043236255645751953125" lon="-5.3381985984742641448974609375">
        <ele>351.600006103515625</ele>
        <time>2019-11-01T16:13:58.000Z</time>
      </trkpt>
      <trkpt lat="36.95977329276502132415771484375" lon="-5.33836615271866321563720703125">
        <ele>352.79998779296875</ele>
        <time>2019-11-01T16:14:03.000Z</time>
      </trkpt>
      <trkpt lat="36.95993539877235889434814453125" lon="-5.3385414183139801025390625">
        <ele>353.600006103515625</ele>
        <time>2019-11-01T16:14:09.000Z</time>
      </trkpt>
      <trkpt lat="36.96007202379405498504638671875" lon="-5.33870310522615909576416015625">
        <ele>354.79998779296875</ele>
        <time>2019-11-01T16:14:14.000Z</time>
      </trkpt>
      <trkpt lat="36.9602251611649990081787109375" lon="-5.3388822264969348907470703125">
        <ele>355.399993896484375</ele>
        <time>2019-11-01T16:14:20.000Z</time>
      </trkpt>
      <trkpt lat="36.96036673150956630706787109375" lon="-5.33902396447956562042236328125">
        <ele>356</ele>
        <time>2019-11-01T16:14:26.000Z</time>
      </trkpt>
      <trkpt lat="36.96054275147616863250732421875" lon="-5.3391636908054351806640625">
        <ele>357</ele>
        <time>2019-11-01T16:14:33.000Z</time>
      </trkpt>
      <trkpt lat="36.9607069529592990875244140625" lon="-5.3392607532441616058349609375">
        <ele>358</ele>
        <time>2019-11-01T16:14:39.000Z</time>
      </trkpt>
      <trkpt lat="36.9608702324330806732177734375" lon="-5.33937449567019939422607421875">
        <ele>359.399993896484375</ele>
        <time>2019-11-01T16:14:45.000Z</time>
      </trkpt>
      <trkpt lat="36.9610254652798175811767578125" lon="-5.339499972760677337646484375">
        <ele>362</ele>
        <time>2019-11-01T16:14:51.000Z</time>
      </trkpt>
      <trkpt lat="36.961179859936237335205078125" lon="-5.33963802270591259002685546875">
        <ele>363</ele>
        <time>2019-11-01T16:14:57.000Z</time>
      </trkpt>
      <trkpt lat="36.96133266203105449676513671875" lon="-5.339785628020763397216796875">
        <ele>365.20001220703125</ele>
        <time>2019-11-01T16:15:03.000Z</time>
      </trkpt>
      <trkpt lat="36.96147951297461986541748046875" lon="-5.33992786891758441925048828125">
        <ele>366.79998779296875</ele>
        <time>2019-11-01T16:15:09.000Z</time>
      </trkpt>
      <trkpt lat="36.96164547465741634368896484375" lon="-5.340047143399715423583984375">
        <ele>368.600006103515625</ele>
        <time>2019-11-01T16:15:15.000Z</time>
      </trkpt>
      <trkpt lat="36.96182099170982837677001953125" lon="-5.34010313451290130615234375">
        <ele>368.79998779296875</ele>
        <time>2019-11-01T16:15:21.000Z</time>
      </trkpt>
      <trkpt lat="36.96200422011315822601318359375" lon="-5.3401341475546360015869140625">
        <ele>370.399993896484375</ele>
        <time>2019-11-01T16:15:27.000Z</time>
      </trkpt>
      <trkpt lat="36.9622039608657360076904296875" lon="-5.34016172401607036590576171875">
        <ele>371.399993896484375</ele>
        <time>2019-11-01T16:15:34.000Z</time>
      </trkpt>
      <trkpt lat="36.96238450706005096435546875" lon="-5.340212769806385040283203125">
        <ele>371.79998779296875</ele>
        <time>2019-11-01T16:15:41.000Z</time>
      </trkpt>
      <trkpt lat="36.96257050149142742156982421875" lon="-5.34029047004878520965576171875">
        <ele>373.399993896484375</ele>
        <time>2019-11-01T16:15:49.000Z</time>
      </trkpt>
      <trkpt lat="36.96272824890911579132080078125" lon="-5.340407229959964752197265625">
        <ele>375.20001220703125</ele>
        <time>2019-11-01T16:15:57.000Z</time>
      </trkpt>
      <trkpt lat="36.962885744869709014892578125" lon="-5.34055986441671848297119140625">
        <ele>375.600006103515625</ele>
        <time>2019-11-01T16:16:06.000Z</time>
      </trkpt>
      <trkpt lat="36.96296327747404575347900390625" lon="-5.34065977670252323150634765625">
        <ele>377.20001220703125</ele>
        <time>2019-11-01T16:16:13.000Z</time>
      </trkpt>
      <trkpt lat="36.96296378038823604583740234375" lon="-5.3406578488647937774658203125">
        <ele>377.20001220703125</ele>
        <time>2019-11-01T16:16:16.000Z</time>
      </trkpt>
      <trkpt lat="36.96397681720554828643798828125" lon="-5.34185755066573619842529296875">
        <ele>387.79998779296875</ele>
        <time>2019-11-01T16:20:10.000Z</time>
      </trkpt>
      <trkpt lat="36.96417764760553836822509765625" lon="-5.3419681079685688018798828125">
        <ele>387.399993896484375</ele>
        <time>2019-11-01T16:20:16.000Z</time>
      </trkpt>
      <trkpt lat="36.964382417500019073486328125" lon="-5.34201814793050289154052734375">
        <ele>384.600006103515625</ele>
        <time>2019-11-01T16:20:21.000Z</time>
      </trkpt>
      <trkpt lat="36.9645456969738006591796875" lon="-5.34213147126138210296630859375">
        <ele>382.79998779296875</ele>
        <time>2019-11-01T16:20:27.000Z</time>
      </trkpt>
      <trkpt lat="36.96467670612037181854248046875" lon="-5.3423124365508556365966796875">
        <ele>383.399993896484375</ele>
        <time>2019-11-01T16:20:34.000Z</time>
      </trkpt>
      <trkpt lat="36.964802853763103485107421875" lon="-5.34251184202730655670166015625">
        <ele>384.399993896484375</ele>
        <time>2019-11-01T16:20:41.000Z</time>
      </trkpt>
      <trkpt lat="36.96492749266326427459716796875" lon="-5.34267948009073734283447265625">
        <ele>385.399993896484375</ele>
        <time>2019-11-01T16:20:48.000Z</time>
      </trkpt>
      <trkpt lat="36.9650745950639247894287109375" lon="-5.3428150154650211334228515625">
        <ele>385.600006103515625</ele>
        <time>2019-11-01T16:20:55.000Z</time>
      </trkpt>
      <trkpt lat="36.96526519954204559326171875" lon="-5.34282289445400238037109375">
        <ele>384.79998779296875</ele>
        <time>2019-11-01T16:21:03.000Z</time>
      </trkpt>
      <trkpt lat="36.9654631800949573516845703125" lon="-5.34280017949640750885009765625">
        <ele>383.600006103515625</ele>
        <time>2019-11-01T16:21:12.000Z</time>
      </trkpt>
      <trkpt lat="36.96564649231731891632080078125" lon="-5.34279146231710910797119140625">
        <ele>382.600006103515625</ele>
        <time>2019-11-01T16:21:21.000Z</time>
      </trkpt>
      <trkpt lat="36.965739615261554718017578125" lon="-5.342780649662017822265625">
        <ele>382.20001220703125</ele>
        <time>2019-11-01T16:21:30.000Z</time>
      </trkpt>
      <trkpt lat="36.96566610597074031829833984375" lon="-5.34290763549506664276123046875">
        <ele>383.399993896484375</ele>
        <time>2019-11-01T16:22:47.000Z</time>
      </trkpt>
      <trkpt lat="36.965676248073577880859375" lon="-5.34315506927669048309326171875">
        <ele>384.20001220703125</ele>
        <time>2019-11-01T16:22:53.000Z</time>
      </trkpt>
      <trkpt lat="36.9656187482178211212158203125" lon="-5.34329337067902088165283203125">
        <ele>385</ele>
        <time>2019-11-01T16:22:56.000Z</time>
      </trkpt>
      <trkpt lat="36.9655104540288448333740234375" lon="-5.3434778563678264617919921875">
        <ele>386.399993896484375</ele>
        <time>2019-11-01T16:23:00.000Z</time>
      </trkpt>
      <trkpt lat="36.9654641859233379364013671875" lon="-5.34358271397650241851806640625">
        <ele>386.399993896484375</ele>
        <time>2019-11-01T16:23:02.000Z</time>
      </trkpt>
      <trkpt lat="36.96543962694704532623291015625" lon="-5.34375286661088466644287109375">
        <ele>387</ele>
        <time>2019-11-01T16:23:05.000Z</time>
      </trkpt>
      <trkpt lat="36.96545857004821300506591796875" lon="-5.34398722462356090545654296875">
        <ele>385.600006103515625</ele>
        <time>2019-11-01T16:23:09.000Z</time>
      </trkpt>
      <trkpt lat="36.96549628861248493194580078125" lon="-5.3442271985113620758056640625">
        <ele>383.399993896484375</ele>
        <time>2019-11-01T16:23:14.000Z</time>
      </trkpt>
      <trkpt lat="36.96557407267391681671142578125" lon="-5.34433892928063869476318359375">
        <ele>381</ele>
        <time>2019-11-01T16:23:21.000Z</time>
      </trkpt>
      <trkpt lat="36.965580023825168609619140625" lon="-5.344334654510021209716796875">
        <ele>380.79998779296875</ele>
        <time>2019-11-01T16:23:23.000Z</time>
      </trkpt>
      <trkpt lat="36.96581765078008174896240234375" lon="-5.3440246917307376861572265625">
        <ele>374.79998779296875</ele>
        <time>2019-11-01T16:23:52.000Z</time>
      </trkpt>
      <trkpt lat="36.965865008533000946044921875" lon="-5.34394497983157634735107421875">
        <ele>373.79998779296875</ele>
        <time>2019-11-01T16:23:59.000Z</time>
      </trkpt>
      <trkpt lat="36.96587062440812587738037109375" lon="-5.3439368493854999542236328125">
        <ele>373.600006103515625</ele>
        <time>2019-11-01T16:24:00.000Z</time>
      </trkpt>
      <trkpt lat="36.9659258611500263214111328125" lon="-5.3439375199377536773681640625">
        <ele>372.79998779296875</ele>
        <time>2019-11-01T16:24:05.000Z</time>
      </trkpt>
      <trkpt lat="36.96596601046621799468994140625" lon="-5.343951098620891571044921875">
        <ele>372.399993896484375</ele>
        <time>2019-11-01T16:24:09.000Z</time>
      </trkpt>
      <trkpt lat="36.96606307290494441986083984375" lon="-5.3437920100986957550048828125">
        <ele>371.79998779296875</ele>
        <time>2019-11-01T16:24:25.000Z</time>
      </trkpt>
      <trkpt lat="36.9659627415239810943603515625" lon="-5.34375722520053386688232421875">
        <ele>373.20001220703125</ele>
        <time>2019-11-02T09:03:22.000Z</time>
      </trkpt>
      <trkpt lat="36.965970285236835479736328125" lon="-5.34375764429569244384765625">
        <ele>373.20001220703125</ele>
        <time>2019-11-02T09:03:26.000Z</time>
      </trkpt>
      <trkpt lat="36.96594539098441600799560546875" lon="-5.34382092766463756561279296875">
        <ele>372.79998779296875</ele>
        <time>2019-11-02T09:03:33.000Z</time>
      </trkpt>
      <trkpt lat="36.96579602546989917755126953125" lon="-5.34395654685795307159423828125">
        <ele>375.20001220703125</ele>
        <time>2019-11-02T09:03:47.000Z</time>
      </trkpt>
      <trkpt lat="36.96577808819711208343505859375" lon="-5.343975238502025604248046875">
        <ele>375.600006103515625</ele>
        <time>2019-11-02T09:03:48.000Z</time>
      </trkpt>
      <trkpt lat="36.96580088697373867034912109375" lon="-5.34393257461488246917724609375">
        <ele>375.20001220703125</ele>
        <time>2019-11-02T09:03:49.000Z</time>
      </trkpt>
      <trkpt lat="36.9657726399600505828857421875" lon="-5.3440521843731403350830078125">
        <ele>375.399993896484375</ele>
        <time>2019-11-02T09:04:02.000Z</time>
      </trkpt>
      <trkpt lat="36.965704746544361114501953125" lon="-5.34411228261888027191162109375">
        <ele>376.600006103515625</ele>
        <time>2019-11-02T09:04:11.000Z</time>
      </trkpt>
      <trkpt lat="36.965703070163726806640625" lon="-5.3441105224192142486572265625">
        <ele>376.600006103515625</ele>
        <time>2019-11-02T09:04:13.000Z</time>
      </trkpt>
      <trkpt lat="36.96539436466991901397705078125" lon="-5.34280923195183277130126953125">
        <ele>384</ele>
        <time>2019-11-02T09:07:21.000Z</time>
      </trkpt>
      <trkpt lat="36.965188086032867431640625" lon="-5.3428341262042522430419921875">
        <ele>385.20001220703125</ele>
        <time>2019-11-02T09:07:27.000Z</time>
      </trkpt>
      <trkpt lat="36.96498951874673366546630859375" lon="-5.34271786920726299285888671875">
        <ele>385.20001220703125</ele>
        <time>2019-11-02T09:07:32.000Z</time>
      </trkpt>
      <trkpt lat="36.9648580066859722137451171875" lon="-5.34253899939358234405517578125">
        <ele>384.20001220703125</ele>
        <time>2019-11-02T09:07:36.000Z</time>
      </trkpt>
      <trkpt lat="36.96472062729299068450927734375" lon="-5.3423439525067806243896484375">
        <ele>383.20001220703125</ele>
        <time>2019-11-02T09:07:40.000Z</time>
      </trkpt>
      <trkpt lat="36.96462658233940601348876953125" lon="-5.34220539964735507965087890625">
        <ele>382.600006103515625</ele>
        <time>2019-11-02T09:07:43.000Z</time>
      </trkpt>
      <trkpt lat="36.9644679129123687744140625" lon="-5.34206290729343891143798828125">
        <ele>383.600006103515625</ele>
        <time>2019-11-02T09:07:47.000Z</time>
      </trkpt>
      <trkpt lat="36.9642873667180538177490234375" lon="-5.34198663197457790374755859375">
        <ele>386</ele>
        <time>2019-11-02T09:07:51.000Z</time>
      </trkpt>
      <trkpt lat="36.964088715612888336181640625" lon="-5.34192309714853763580322265625">
        <ele>388.20001220703125</ele>
        <time>2019-11-02T09:07:57.000Z</time>
      </trkpt>
      <trkpt lat="36.96391345001757144927978515625" lon="-5.34183592535555362701416015625">
        <ele>387</ele>
        <time>2019-11-02T09:08:05.000Z</time>
      </trkpt>
      <trkpt lat="36.96377389132976531982421875" lon="-5.34173794090747833251953125">
        <ele>384.399993896484375</ele>
        <time>2019-11-02T09:08:15.000Z</time>
      </trkpt>
      <trkpt lat="36.96370549499988555908203125" lon="-5.34167088568210601806640625">
        <ele>383.20001220703125</ele>
        <time>2019-11-02T09:08:19.000Z</time>
      </trkpt>
      <trkpt lat="36.9635547883808612823486328125" lon="-5.34148204140365123748779296875">
        <ele>381.20001220703125</ele>
        <time>2019-11-02T09:08:24.000Z</time>
      </trkpt>
      <trkpt lat="36.96352553553879261016845703125" lon="-5.34143409691751003265380859375">
        <ele>380.79998779296875</ele>
        <time>2019-11-02T09:08:25.000Z</time>
      </trkpt>
      <trkpt lat="36.96338857524096965789794921875" lon="-5.34121348522603511810302734375">
        <ele>380.600006103515625</ele>
        <time>2019-11-02T09:08:30.000Z</time>
      </trkpt>
      <trkpt lat="36.96325295604765415191650390625" lon="-5.341018103063106536865234375">
        <ele>380.600006103515625</ele>
        <time>2019-11-02T09:08:34.000Z</time>
      </trkpt>
      <trkpt lat="36.96311297826468944549560546875" lon="-5.340833701193332672119140625">
        <ele>378.399993896484375</ele>
        <time>2019-11-02T09:08:38.000Z</time>
      </trkpt>
      <trkpt lat="36.9629439152777194976806640625" lon="-5.34066245891153812408447265625">
        <ele>377.20001220703125</ele>
        <time>2019-11-02T09:08:42.000Z</time>
      </trkpt>
      <trkpt lat="36.96276110596954822540283203125" lon="-5.34048744477331638336181640625">
        <ele>375.399993896484375</ele>
        <time>2019-11-02T09:08:46.000Z</time>
      </trkpt>
      <trkpt lat="36.96258793585002422332763671875" lon="-5.3403383307158946990966796875">
        <ele>374</ele>
        <time>2019-11-02T09:08:50.000Z</time>
      </trkpt>
      <trkpt lat="36.962379477918148040771484375" lon="-5.340222828090190887451171875">
        <ele>372</ele>
        <time>2019-11-02T09:08:54.000Z</time>
      </trkpt>
      <trkpt lat="36.962320804595947265625" lon="-5.3402042202651500701904296875">
        <ele>371.79998779296875</ele>
        <time>2019-11-02T09:08:55.000Z</time>
      </trkpt>
      <trkpt lat="36.962085105478763580322265625" lon="-5.34014093689620494842529296875">
        <ele>371</ele>
        <time>2019-11-02T09:08:59.000Z</time>
      </trkpt>
      <trkpt lat="36.96190397255122661590576171875" lon="-5.3401187248528003692626953125">
        <ele>369.600006103515625</ele>
        <time>2019-11-02T09:09:02.000Z</time>
      </trkpt>
      <trkpt lat="36.96168084628880023956298828125" lon="-5.34005192108452320098876953125">
        <ele>368.79998779296875</ele>
        <time>2019-11-02T09:09:06.000Z</time>
      </trkpt>
      <trkpt lat="36.96147917769849300384521484375" lon="-5.33993390388786792755126953125">
        <ele>367</ele>
        <time>2019-11-02T09:09:10.000Z</time>
      </trkpt>
      <trkpt lat="36.9613671116530895233154296875" lon="-5.33982125110924243927001953125">
        <ele>366</ele>
        <time>2019-11-02T09:09:13.000Z</time>
      </trkpt>
      <trkpt lat="36.96123442612588405609130859375" lon="-5.339658893644809722900390625">
        <ele>363</ele>
        <time>2019-11-02T09:09:17.000Z</time>
      </trkpt>
      <trkpt lat="36.9610599987208843231201171875" lon="-5.33949284814298152923583984375">
        <ele>362</ele>
        <time>2019-11-02T09:09:22.000Z</time>
      </trkpt>
      <trkpt lat="36.96091004647314548492431640625" lon="-5.33936309628188610076904296875">
        <ele>359.600006103515625</ele>
        <time>2019-11-02T09:09:26.000Z</time>
      </trkpt>
      <trkpt lat="36.96074408479034900665283203125" lon="-5.33923812210559844970703125">
        <ele>358</ele>
        <time>2019-11-02T09:09:30.000Z</time>
      </trkpt>
      <trkpt lat="36.96057736873626708984375" lon="-5.33910895697772502899169921875">
        <ele>356.600006103515625</ele>
        <time>2019-11-02T09:09:34.000Z</time>
      </trkpt>
      <trkpt lat="36.96041132323443889617919921875" lon="-5.3389740921556949615478515625">
        <ele>356</ele>
        <time>2019-11-02T09:09:38.000Z</time>
      </trkpt>
      <trkpt lat="36.96024016477167606353759765625" lon="-5.33883838914334774017333984375">
        <ele>355.399993896484375</ele>
        <time>2019-11-02T09:09:42.000Z</time>
      </trkpt>
      <trkpt lat="36.960090212523937225341796875" lon="-5.33869497478008270263671875">
        <ele>354.79998779296875</ele>
        <time>2019-11-02T09:09:46.000Z</time>
      </trkpt>
      <trkpt lat="36.9599284417927265167236328125" lon="-5.33852205611765384674072265625">
        <ele>353.600006103515625</ele>
        <time>2019-11-02T09:09:51.000Z</time>
      </trkpt>
      <trkpt lat="36.95979374460875988006591796875" lon="-5.33835173584520816802978515625">
        <ele>352.79998779296875</ele>
        <time>2019-11-02T09:09:56.000Z</time>
      </trkpt>
      <trkpt lat="36.95969601161777973175048828125" lon="-5.3382354788482189178466796875">
        <ele>351.79998779296875</ele>
        <time>2019-11-02T09:10:00.000Z</time>
      </trkpt>
      <trkpt lat="36.95956240408122539520263671875" lon="-5.33807144500315189361572265625">
        <ele>351.79998779296875</ele>
        <time>2019-11-02T09:10:06.000Z</time>
      </trkpt>
      <trkpt lat="36.95952401496469974517822265625" lon="-5.3380165435373783111572265625">
        <ele>352</ele>
        <time>2019-11-02T09:10:08.000Z</time>
      </trkpt>
      <trkpt lat="36.959392838180065155029296875" lon="-5.3378589637577533721923828125">
        <ele>352.20001220703125</ele>
        <time>2019-11-02T09:10:14.000Z</time>
      </trkpt>
      <trkpt lat="36.95925302803516387939453125" lon="-5.3377117775380611419677734375">
        <ele>353</ele>
        <time>2019-11-02T09:10:21.000Z</time>
      </trkpt>
      <trkpt lat="36.95911129005253314971923828125" lon="-5.33755361102521419525146484375">
        <ele>353.600006103515625</ele>
        <time>2019-11-02T09:10:27.000Z</time>
      </trkpt>
      <trkpt lat="36.95897298865020275115966796875" lon="-5.33740575425326824188232421875">
        <ele>354.20001220703125</ele>
        <time>2019-11-02T09:10:33.000Z</time>
      </trkpt>
      <trkpt lat="36.95879797451198101043701171875" lon="-5.3372896648943424224853515625">
        <ele>354.600006103515625</ele>
        <time>2019-11-02T09:10:40.000Z</time>
      </trkpt>
      <trkpt lat="36.9586369581520557403564453125" lon="-5.3371622599661350250244140625">
        <ele>355.20001220703125</ele>
        <time>2019-11-02T09:10:48.000Z</time>
      </trkpt>
      <trkpt lat="36.95848449133336544036865234375" lon="-5.33701716922223567962646484375">
        <ele>355.600006103515625</ele>
        <time>2019-11-02T09:10:57.000Z</time>
      </trkpt>
      <trkpt lat="36.9583298452198505401611328125" lon="-5.3368863277137279510498046875">
        <ele>356.600006103515625</ele>
        <time>2019-11-02T09:11:05.000Z</time>
      </trkpt>
      <trkpt lat="36.95818223990499973297119140625" lon="-5.33675414510071277618408203125">
        <ele>358</ele>
        <time>2019-11-02T09:11:13.000Z</time>
      </trkpt>
      <trkpt lat="36.9580341316759586334228515625" lon="-5.33662120811641216278076171875">
        <ele>360</ele>
        <time>2019-11-02T09:11:21.000Z</time>
      </trkpt>
      <trkpt lat="36.95785836316645145416259765625" lon="-5.33650671131908893585205078125">
        <ele>361.600006103515625</ele>
        <time>2019-11-02T09:11:30.000Z</time>
      </trkpt>
      <trkpt lat="36.9576944969594478607177734375" lon="-5.33636815845966339111328125">
        <ele>363.399993896484375</ele>
        <time>2019-11-02T09:11:39.000Z</time>
      </trkpt>
      <trkpt lat="36.95767144672572612762451171875" lon="-5.33634603023529052734375">
        <ele>363.600006103515625</ele>
        <time>2019-11-02T09:11:42.000Z</time>
      </trkpt>
      <trkpt lat="36.9576693512499332427978515625" lon="-5.33634913153946399688720703125">
        <ele>363.600006103515625</ele>
        <time>2019-11-02T09:11:45.000Z</time>
      </trkpt>
      <trkpt lat="36.95665237493813037872314453125" lon="-5.335649661719799041748046875">
        <ele>378</ele>
        <time>2019-11-02T09:18:59.000Z</time>
      </trkpt>
      <trkpt lat="36.956478618085384368896484375" lon="-5.3355681896209716796875">
        <ele>376.79998779296875</ele>
        <time>2019-11-02T09:19:06.000Z</time>
      </trkpt>
      <trkpt lat="36.95634794421494007110595703125" lon="-5.3354101069271564483642578125">
        <ele>377.399993896484375</ele>
        <time>2019-11-02T09:19:12.000Z</time>
      </trkpt>
      <trkpt lat="36.956249289214611053466796875" lon="-5.33519377000629901885986328125">
        <ele>375.399993896484375</ele>
        <time>2019-11-02T09:19:17.000Z</time>
      </trkpt>
      <trkpt lat="36.95614677853882312774658203125" lon="-5.3350050933659076690673828125">
        <ele>372.79998779296875</ele>
        <time>2019-11-02T09:19:23.000Z</time>
      </trkpt>
      <trkpt lat="36.95599456317722797393798828125" lon="-5.3348146565258502960205078125">
        <ele>369.20001220703125</ele>
        <time>2019-11-02T09:19:28.000Z</time>
      </trkpt>
      <trkpt lat="36.95580697618424892425537109375" lon="-5.3346282429993152618408203125">
        <ele>366.399993896484375</ele>
        <time>2019-11-02T09:19:32.000Z</time>
      </trkpt>
      <trkpt lat="36.95562475360929965972900390625" lon="-5.33443571068346500396728515625">
        <ele>363</ele>
        <time>2019-11-02T09:19:36.000Z</time>
      </trkpt>
      <trkpt lat="36.95547857321798801422119140625" lon="-5.33428139984607696533203125">
        <ele>362.399993896484375</ele>
        <time>2019-11-02T09:19:39.000Z</time>
      </trkpt>
      <trkpt lat="36.95531445555388927459716796875" lon="-5.334109403192996978759765625">
        <ele>358.79998779296875</ele>
        <time>2019-11-02T09:19:42.000Z</time>
      </trkpt>
      <trkpt lat="36.95516391657292842864990234375" lon="-5.33392843790352344512939453125">
        <ele>355.79998779296875</ele>
        <time>2019-11-02T09:19:45.000Z</time>
      </trkpt>
      <trkpt lat="36.95501656271517276763916015625" lon="-5.33376968465745449066162109375">
        <ele>352.600006103515625</ele>
        <time>2019-11-02T09:19:48.000Z</time>
      </trkpt>
      <trkpt lat="36.9548758305609226226806640625" lon="-5.3336294554173946380615234375">
        <ele>350</ele>
        <time>2019-11-02T09:19:51.000Z</time>
      </trkpt>
      <trkpt lat="36.9547806121408939361572265625" lon="-5.333520658314228057861328125">
        <ele>348.399993896484375</ele>
        <time>2019-11-02T09:19:53.000Z</time>
      </trkpt>
      <trkpt lat="36.95470827631652355194091796875" lon="-5.33340188674628734588623046875">
        <ele>347.399993896484375</ele>
        <time>2019-11-02T09:19:55.000Z</time>
      </trkpt>
      <trkpt lat="36.95466049946844577789306640625" lon="-5.333200134336948394775390625">
        <ele>347</ele>
        <time>2019-11-02T09:19:59.000Z</time>
      </trkpt>
      <trkpt lat="36.95457399822771549224853515625" lon="-5.3329867310822010040283203125">
        <ele>347.20001220703125</ele>
        <time>2019-11-02T09:20:05.000Z</time>
      </trkpt>
      <trkpt lat="36.95449302904307842254638671875" lon="-5.33276268281042575836181640625">
        <ele>349</ele>
        <time>2019-11-02T09:20:11.000Z</time>
      </trkpt>
      <trkpt lat="36.95442496798932552337646484375" lon="-5.33253251574933528900146484375">
        <ele>350.399993896484375</ele>
        <time>2019-11-02T09:20:17.000Z</time>
      </trkpt>
      <trkpt lat="36.9543568231165409088134765625" lon="-5.33231257461011409759521484375">
        <ele>350.399993896484375</ele>
        <time>2019-11-02T09:20:22.000Z</time>
      </trkpt>
      <trkpt lat="36.95428423583507537841796875" lon="-5.332100428640842437744140625">
        <ele>349.20001220703125</ele>
        <time>2019-11-02T09:20:26.000Z</time>
      </trkpt>
      <trkpt lat="36.95417426526546478271484375" lon="-5.33183882944285869598388671875">
        <ele>346.20001220703125</ele>
        <time>2019-11-02T09:20:30.000Z</time>
      </trkpt>
      <trkpt lat="36.95405733771622180938720703125" lon="-5.331635735929012298583984375">
        <ele>343.399993896484375</ele>
        <time>2019-11-02T09:20:33.000Z</time>
      </trkpt>
      <trkpt lat="36.9539746083319187164306640625" lon="-5.33150204457342624664306640625">
        <ele>342.399993896484375</ele>
        <time>2019-11-02T09:20:35.000Z</time>
      </trkpt>
      <trkpt lat="36.95389129221439361572265625" lon="-5.3312892280519008636474609375">
        <ele>342</ele>
        <time>2019-11-02T09:20:38.000Z</time>
      </trkpt>
      <trkpt lat="36.95377922616899013519287109375" lon="-5.331033580005168914794921875">
        <ele>341.79998779296875</ele>
        <time>2019-11-02T09:20:42.000Z</time>
      </trkpt>
      <trkpt lat="36.953666992485523223876953125" lon="-5.33080651424825191497802734375">
        <ele>340.79998779296875</ele>
        <time>2019-11-02T09:20:46.000Z</time>
      </trkpt>
      <trkpt lat="36.9535700976848602294921875" lon="-5.33060367219150066375732421875">
        <ele>340.600006103515625</ele>
        <time>2019-11-02T09:20:50.000Z</time>
      </trkpt>
      <trkpt lat="36.95345283485949039459228515625" lon="-5.33036495558917522430419921875">
        <ele>341.399993896484375</ele>
        <time>2019-11-02T09:20:55.000Z</time>
      </trkpt>
      <trkpt lat="36.95334152318537235260009765625" lon="-5.330131687223911285400390625">
        <ele>341.79998779296875</ele>
        <time>2019-11-02T09:21:00.000Z</time>
      </trkpt>
      <trkpt lat="36.95322685874998569488525390625" lon="-5.329916439950466156005859375">
        <ele>343.600006103515625</ele>
        <time>2019-11-02T09:21:05.000Z</time>
      </trkpt>
      <trkpt lat="36.9531223364174365997314453125" lon="-5.32969406805932521820068359375">
        <ele>345.20001220703125</ele>
        <time>2019-11-02T09:21:10.000Z</time>
      </trkpt>
      <trkpt lat="36.95302083157002925872802734375" lon="-5.32947295345366001129150390625">
        <ele>345.20001220703125</ele>
        <time>2019-11-02T09:21:15.000Z</time>
      </trkpt>
      <trkpt lat="36.9529231823980808258056640625" lon="-5.32924815081059932708740234375">
        <ele>344.600006103515625</ele>
        <time>2019-11-02T09:21:20.000Z</time>
      </trkpt>
      <trkpt lat="36.95282318629324436187744140625" lon="-5.32901949249207973480224609375">
        <ele>343.399993896484375</ele>
        <time>2019-11-02T09:21:25.000Z</time>
      </trkpt>
      <trkpt lat="36.9527287222445011138916015625" lon="-5.32880156300961971282958984375">
        <ele>343.399993896484375</ele>
        <time>2019-11-02T09:21:30.000Z</time>
      </trkpt>
      <trkpt lat="36.95264138281345367431640625" lon="-5.32858111895620822906494140625">
        <ele>344</ele>
        <time>2019-11-02T09:21:35.000Z</time>
      </trkpt>
      <trkpt lat="36.95255915634334087371826171875" lon="-5.32836712896823883056640625">
        <ele>344.399993896484375</ele>
        <time>2019-11-02T09:21:41.000Z</time>
      </trkpt>
      <trkpt lat="36.95249830372631549835205078125" lon="-5.32825422473251819610595703125">
        <ele>344.600006103515625</ele>
        <time>2019-11-02T09:21:47.000Z</time>
      </trkpt>
      <trkpt lat="36.9525060988962650299072265625" lon="-5.3282578289508819580078125">
        <ele>344.600006103515625</ele>
        <time>2019-11-02T09:21:51.000Z</time>
      </trkpt>
      <trkpt lat="36.952435858547687530517578125" lon="-5.32834894023835659027099609375">
        <ele>344</ele>
        <time>2019-11-02T09:22:10.000Z</time>
      </trkpt>
      <trkpt lat="36.95229764096438884735107421875" lon="-5.3283491916954517364501953125">
        <ele>343.399993896484375</ele>
        <time>2019-11-02T09:22:14.000Z</time>
      </trkpt>
      <trkpt lat="36.95214844308793544769287109375" lon="-5.32835899852216243743896484375">
        <ele>342.399993896484375</ele>
        <time>2019-11-02T09:22:20.000Z</time>
      </trkpt>
      <trkpt lat="36.9521517120301723480224609375" lon="-5.32836201600730419158935546875">
        <ele>342.399993896484375</ele>
        <time>2019-11-02T09:22:23.000Z</time>
      </trkpt>
      <trkpt lat="36.95204635150730609893798828125" lon="-5.3283589147031307220458984375">
        <ele>341.79998779296875</ele>
        <time>2019-11-02T09:22:34.000Z</time>
      </trkpt>
      <trkpt lat="36.95185013115406036376953125" lon="-5.32836302183568477630615234375">
        <ele>341.20001220703125</ele>
        <time>2019-11-02T09:22:40.000Z</time>
      </trkpt>
      <trkpt lat="36.9516605325043201446533203125" lon="-5.3284346871078014373779296875">
        <ele>341.399993896484375</ele>
        <time>2019-11-02T09:22:48.000Z</time>
      </trkpt>
      <trkpt lat="36.9514784775674343109130859375" lon="-5.3284588269889354705810546875">
        <ele>341.600006103515625</ele>
        <time>2019-11-02T09:22:55.000Z</time>
      </trkpt>
      <trkpt lat="36.9512934051454067230224609375" lon="-5.32845807261765003204345703125">
        <ele>341.79998779296875</ele>
        <time>2019-11-02T09:23:01.000Z</time>
      </trkpt>
      <trkpt lat="36.951083354651927947998046875" lon="-5.32849545590579509735107421875">
        <ele>342.600006103515625</ele>
        <time>2019-11-02T09:23:07.000Z</time>
      </trkpt>
      <trkpt lat="36.95089383982121944427490234375" lon="-5.3285325877368450164794921875">
        <ele>343</ele>
        <time>2019-11-02T09:23:12.000Z</time>
      </trkpt>
      <trkpt lat="36.95070038549602031707763671875" lon="-5.328541807830333709716796875">
        <ele>343</ele>
        <time>2019-11-02T09:23:17.000Z</time>
      </trkpt>
      <trkpt lat="36.95051573216915130615234375" lon="-5.32855312339961528778076171875">
        <ele>342.399993896484375</ele>
        <time>2019-11-02T09:23:22.000Z</time>
      </trkpt>
      <trkpt lat="36.9503046758472919464111328125" lon="-5.328588075935840606689453125">
        <ele>342</ele>
        <time>2019-11-02T09:23:28.000Z</time>
      </trkpt>
      <trkpt lat="36.9501105509698390960693359375" lon="-5.3286774270236492156982421875">
        <ele>341.600006103515625</ele>
        <time>2019-11-02T09:23:34.000Z</time>
      </trkpt>
      <trkpt lat="36.94994031451642513275146484375" lon="-5.32875613309442996978759765625">
        <ele>341.399993896484375</ele>
        <time>2019-11-02T09:23:40.000Z</time>
      </trkpt>
      <trkpt lat="36.94976127706468105316162109375" lon="-5.32881195656955242156982421875">
        <ele>341.20001220703125</ele>
        <time>2019-11-02T09:23:46.000Z</time>
      </trkpt>
      <trkpt lat="36.94956329651176929473876953125" lon="-5.3288252837955951690673828125">
        <ele>341</ele>
        <time>2019-11-02T09:23:53.000Z</time>
      </trkpt>
      <trkpt lat="36.9494674913585186004638671875" lon="-5.3288237750530242919921875">
        <ele>341.399993896484375</ele>
        <time>2019-11-02T09:24:01.000Z</time>
      </trkpt>
      <trkpt lat="36.94941309280693531036376953125" lon="-5.32882855273783206939697265625">
        <ele>341.600006103515625</ele>
        <time>2019-11-02T09:24:04.000Z</time>
      </trkpt>
      <trkpt lat="36.94922936148941516876220703125" lon="-5.32884414307773113250732421875">
        <ele>342.600006103515625</ele>
        <time>2019-11-02T09:24:12.000Z</time>
      </trkpt>
      <trkpt lat="36.9490329734981060028076171875" lon="-5.3288866393268108367919921875">
        <ele>345</ele>
        <time>2019-11-02T09:24:20.000Z</time>
      </trkpt>
      <trkpt lat="36.9488529302179813385009765625" lon="-5.32895386219024658203125">
        <ele>346.600006103515625</ele>
        <time>2019-11-02T09:24:28.000Z</time>
      </trkpt>
      <trkpt lat="36.94866945035755634307861328125" lon="-5.3290410339832305908203125">
        <ele>348.20001220703125</ele>
        <time>2019-11-02T09:24:36.000Z</time>
      </trkpt>
      <trkpt lat="36.948501728475093841552734375" lon="-5.32912611030042171478271484375">
        <ele>349.79998779296875</ele>
        <time>2019-11-02T09:24:44.000Z</time>
      </trkpt>
      <trkpt lat="36.94833618588745594024658203125" lon="-5.32922334037721157073974609375">
        <ele>351.20001220703125</ele>
        <time>2019-11-02T09:24:52.000Z</time>
      </trkpt>
      <trkpt lat="36.94816066883504390716552734375" lon="-5.3293402679264545440673828125">
        <ele>352.399993896484375</ele>
        <time>2019-11-02T09:25:01.000Z</time>
      </trkpt>
      <trkpt lat="36.94802370853722095489501953125" lon="-5.32948988489806652069091796875">
        <ele>354</ele>
        <time>2019-11-02T09:25:11.000Z</time>
      </trkpt>
      <trkpt lat="36.94802261888980865478515625" lon="-5.3294894658029079437255859375">
        <ele>354</ele>
        <time>2019-11-02T09:25:12.000Z</time>
      </trkpt>
      <trkpt lat="36.9480227865278720855712890625" lon="-5.329484604299068450927734375">
        <ele>354</ele>
        <time>2019-11-02T09:25:15.000Z</time>
      </trkpt>
      <trkpt lat="36.94790015928447246551513671875" lon="-5.3296007774770259857177734375">
        <ele>355.20001220703125</ele>
        <time>2019-11-02T09:26:01.000Z</time>
      </trkpt>
      <trkpt lat="36.9479020871222019195556640625" lon="-5.32959952019155025482177734375">
        <ele>355.20001220703125</ele>
        <time>2019-11-02T09:26:05.000Z</time>
      </trkpt>
      <trkpt lat="36.94782438687980175018310546875" lon="-5.32963153906166553497314453125">
        <ele>355.600006103515625</ele>
        <time>2019-11-02T09:26:12.000Z</time>
      </trkpt>
      <trkpt lat="36.9476774521172046661376953125" lon="-5.3297043778002262115478515625">
        <ele>356.399993896484375</ele>
        <time>2019-11-02T09:26:24.000Z</time>
      </trkpt>
      <trkpt lat="36.94752297364175319671630859375" lon="-5.3298270888626575469970703125">
        <ele>358.20001220703125</ele>
        <time>2019-11-02T09:26:37.000Z</time>
      </trkpt>
      <trkpt lat="36.94749078713357448577880859375" lon="-5.3298564255237579345703125">
        <ele>358.600006103515625</ele>
        <time>2019-11-02T09:26:42.000Z</time>
      </trkpt>
      <trkpt lat="36.94744368083775043487548828125" lon="-5.32989867031574249267578125">
        <ele>359.20001220703125</ele>
        <time>2019-11-02T09:26:47.000Z</time>
      </trkpt>
      <trkpt lat="36.9473096542060375213623046875" lon="-5.33005381934344768524169921875">
        <ele>361</ele>
        <time>2019-11-02T09:27:00.000Z</time>
      </trkpt>
      <trkpt lat="36.94717227481305599212646484375" lon="-5.33020704053342342376708984375">
        <ele>362.79998779296875</ele>
        <time>2019-11-02T09:27:13.000Z</time>
      </trkpt>
      <trkpt lat="36.94705878384411334991455078125" lon="-5.330381803214550018310546875">
        <ele>363</ele>
        <time>2019-11-02T09:27:27.000Z</time>
      </trkpt>
      <trkpt lat="36.94693230092525482177734375" lon="-5.33056092448532581329345703125">
        <ele>363.399993896484375</ele>
        <time>2019-11-02T09:27:41.000Z</time>
      </trkpt>
      <trkpt lat="36.94679207168519496917724609375" lon="-5.3307108767330646514892578125">
        <ele>364</ele>
        <time>2019-11-02T09:27:55.000Z</time>
      </trkpt>
      <trkpt lat="36.946717388927936553955078125" lon="-5.33076896332204341888427734375">
        <ele>364</ele>
        <time>2019-11-02T09:28:03.000Z</time>
      </trkpt>
      <trkpt lat="36.94672149606049060821533203125" lon="-5.33077315427362918853759765625">
        <ele>364</ele>
        <time>2019-11-02T09:28:07.000Z</time>
      </trkpt>
      <trkpt lat="36.94665829651057720184326171875" lon="-5.3308298997581005096435546875">
        <ele>364.399993896484375</ele>
        <time>2019-11-02T09:28:14.000Z</time>
      </trkpt>
      <trkpt lat="36.9465024769306182861328125" lon="-5.33096023835241794586181640625">
        <ele>365.20001220703125</ele>
        <time>2019-11-02T09:28:21.000Z</time>
      </trkpt>
      <trkpt lat="36.9463215954601764678955078125" lon="-5.3310484997928142547607421875">
        <ele>364.600006103515625</ele>
        <time>2019-11-02T09:28:28.000Z</time>
      </trkpt>
      <trkpt lat="36.946136020123958587646484375" lon="-5.3310850448906421661376953125">
        <ele>363</ele>
        <time>2019-11-02T09:28:34.000Z</time>
      </trkpt>
      <trkpt lat="36.94597114808857440948486328125" lon="-5.33112821169197559356689453125">
        <ele>361.399993896484375</ele>
        <time>2019-11-02T09:28:38.000Z</time>
      </trkpt>
      <trkpt lat="36.9457782804965972900390625" lon="-5.33118671737611293792724609375">
        <ele>358.79998779296875</ele>
        <time>2019-11-02T09:28:42.000Z</time>
      </trkpt>
      <trkpt lat="36.9456104747951030731201171875" lon="-5.33130842261016368865966796875">
        <ele>357.20001220703125</ele>
        <time>2019-11-02T09:28:46.000Z</time>
      </trkpt>
      <trkpt lat="36.94547007791697978973388671875" lon="-5.3314518369734287261962890625">
        <ele>356.20001220703125</ele>
        <time>2019-11-02T09:28:53.000Z</time>
      </trkpt>
      <trkpt lat="36.94545918144285678863525390625" lon="-5.33145862631499767303466796875">
        <ele>356</ele>
        <time>2019-11-02T09:28:57.000Z</time>
      </trkpt>
      <trkpt lat="36.9453630410134792327880859375" lon="-5.331537164747714996337890625">
        <ele>355.79998779296875</ele>
        <time>2019-11-02T09:29:02.000Z</time>
      </trkpt>
      <trkpt lat="36.94526488892734050750732421875" lon="-5.3317130170762538909912109375">
        <ele>356.20001220703125</ele>
        <time>2019-11-02T09:29:09.000Z</time>
      </trkpt>
      <trkpt lat="36.9452664814889430999755859375" lon="-5.3317163698375225067138671875">
        <ele>356.20001220703125</ele>
        <time>2019-11-02T09:29:13.000Z</time>
      </trkpt>
      <trkpt lat="36.94543428719043731689453125" lon="-5.3319125063717365264892578125">
        <ele>355.600006103515625</ele>
        <time>2019-11-02T09:30:34.000Z</time>
      </trkpt>
      <trkpt lat="36.9453945569694042205810546875" lon="-5.3321585990488529205322265625">
        <ele>356</ele>
        <time>2019-11-02T09:30:40.000Z</time>
      </trkpt>
      <trkpt lat="36.94535641930997371673583984375" lon="-5.3324134089052677154541015625">
        <ele>356.600006103515625</ele>
        <time>2019-11-02T09:30:45.000Z</time>
      </trkpt>
      <trkpt lat="36.94529288448393344879150390625" lon="-5.33268188126385211944580078125">
        <ele>355.79998779296875</ele>
        <time>2019-11-02T09:30:50.000Z</time>
      </trkpt>
      <trkpt lat="36.945224069058895111083984375" lon="-5.332913137972354888916015625">
        <ele>354.79998779296875</ele>
        <time>2019-11-02T09:30:54.000Z</time>
      </trkpt>
      <trkpt lat="36.94514787755906581878662109375" lon="-5.33313349820673465728759765625">
        <ele>353.399993896484375</ele>
        <time>2019-11-02T09:30:58.000Z</time>
      </trkpt>
      <trkpt lat="36.945055425167083740234375" lon="-5.333382189273834228515625">
        <ele>352.399993896484375</ele>
        <time>2019-11-02T09:31:02.000Z</time>
      </trkpt>
      <trkpt lat="36.9449734501540660858154296875" lon="-5.33358670771121978759765625">
        <ele>352.399993896484375</ele>
        <time>2019-11-02T09:31:05.000Z</time>
      </trkpt>
      <trkpt lat="36.94488108158111572265625" lon="-5.33378946594893932342529296875">
        <ele>352.20001220703125</ele>
        <time>2019-11-02T09:31:08.000Z</time>
      </trkpt>
      <trkpt lat="36.94477454759180545806884765625" lon="-5.333999432623386383056640625">
        <ele>351.79998779296875</ele>
        <time>2019-11-02T09:31:11.000Z</time>
      </trkpt>
      <trkpt lat="36.94465653039515018463134765625" lon="-5.33421426080167293548583984375">
        <ele>351.20001220703125</ele>
        <time>2019-11-02T09:31:14.000Z</time>
      </trkpt>
      <trkpt lat="36.94453432224690914154052734375" lon="-5.33442020416259765625">
        <ele>350.399993896484375</ele>
        <time>2019-11-02T09:31:17.000Z</time>
      </trkpt>
      <trkpt lat="36.94438914768397808074951171875" lon="-5.33463369123637676239013671875">
        <ele>348.600006103515625</ele>
        <time>2019-11-02T09:31:20.000Z</time>
      </trkpt>
      <trkpt lat="36.94422855041921138763427734375" lon="-5.3348565660417079925537109375">
        <ele>346.600006103515625</ele>
        <time>2019-11-02T09:31:23.000Z</time>
      </trkpt>
      <trkpt lat="36.9440490938723087310791015625" lon="-5.335083715617656707763671875">
        <ele>343.600006103515625</ele>
        <time>2019-11-02T09:31:26.000Z</time>
      </trkpt>
      <trkpt lat="36.94385505281388759613037109375" lon="-5.33531882800161838531494140625">
        <ele>340</ele>
        <time>2019-11-02T09:31:29.000Z</time>
      </trkpt>
      <trkpt lat="36.94371700286865234375" lon="-5.335474647581577301025390625">
        <ele>338.399993896484375</ele>
        <time>2019-11-02T09:31:31.000Z</time>
      </trkpt>
      <trkpt lat="36.94357358850538730621337890625" lon="-5.33563080243766307830810546875">
        <ele>337.399993896484375</ele>
        <time>2019-11-02T09:31:33.000Z</time>
      </trkpt>
      <trkpt lat="36.943424306809902191162109375" lon="-5.33578821457922458648681640625">
        <ele>336.600006103515625</ele>
        <time>2019-11-02T09:31:35.000Z</time>
      </trkpt>
      <trkpt lat="36.94327100180089473724365234375" lon="-5.335946045815944671630859375">
        <ele>336</ele>
        <time>2019-11-02T09:31:37.000Z</time>
      </trkpt>
      <trkpt lat="36.9431123323738574981689453125" lon="-5.33610773272812366485595703125">
        <ele>335.399993896484375</ele>
        <time>2019-11-02T09:31:39.000Z</time>
      </trkpt>
      <trkpt lat="36.94294762797653675079345703125" lon="-5.3362677432596683502197265625">
        <ele>334.20001220703125</ele>
        <time>2019-11-02T09:31:41.000Z</time>
      </trkpt>
      <trkpt lat="36.94278921000659465789794921875" lon="-5.3364310227334499359130859375">
        <ele>332.399993896484375</ele>
        <time>2019-11-02T09:31:43.000Z</time>
      </trkpt>
      <trkpt lat="36.942631043493747711181640625" lon="-5.33660419285297393798828125">
        <ele>330</ele>
        <time>2019-11-02T09:31:45.000Z</time>
      </trkpt>
      <trkpt lat="36.94247438572347164154052734375" lon="-5.33676940016448497772216796875">
        <ele>327.79998779296875</ele>
        <time>2019-11-02T09:31:47.000Z</time>
      </trkpt>
      <trkpt lat="36.94231512956321239471435546875" lon="-5.336933769285678863525390625">
        <ele>325.79998779296875</ele>
        <time>2019-11-02T09:31:49.000Z</time>
      </trkpt>
      <trkpt lat="36.94215905852615833282470703125" lon="-5.3370995633304119110107421875">
        <ele>324.79998779296875</ele>
        <time>2019-11-02T09:31:51.000Z</time>
      </trkpt>
      <trkpt lat="36.9420042447745800018310546875" lon="-5.3372621722519397735595703125">
        <ele>323.600006103515625</ele>
        <time>2019-11-02T09:31:53.000Z</time>
      </trkpt>
      <trkpt lat="36.94185127504169940948486328125" lon="-5.33742905594408512115478515625">
        <ele>322.600006103515625</ele>
        <time>2019-11-02T09:31:55.000Z</time>
      </trkpt>
      <trkpt lat="36.94170760922133922576904296875" lon="-5.33759434707462787628173828125">
        <ele>320.79998779296875</ele>
        <time>2019-11-02T09:31:57.000Z</time>
      </trkpt>
      <trkpt lat="36.94156629033386707305908203125" lon="-5.3377573750913143157958984375">
        <ele>319</ele>
        <time>2019-11-02T09:31:59.000Z</time>
      </trkpt>
      <trkpt lat="36.9414285756647586822509765625" lon="-5.337927527725696563720703125">
        <ele>318.20001220703125</ele>
        <time>2019-11-02T09:32:01.000Z</time>
      </trkpt>
      <trkpt lat="36.94129605777561664581298828125" lon="-5.33809944055974483489990234375">
        <ele>317.600006103515625</ele>
        <time>2019-11-02T09:32:03.000Z</time>
      </trkpt>
      <trkpt lat="36.9411702454090118408203125" lon="-5.338275544345378875732421875">
        <ele>316.79998779296875</ele>
        <time>2019-11-02T09:32:05.000Z</time>
      </trkpt>
      <trkpt lat="36.94104694761335849761962890625" lon="-5.3384527377784252166748046875">
        <ele>315.20001220703125</ele>
        <time>2019-11-02T09:32:07.000Z</time>
      </trkpt>
      <trkpt lat="36.9409276731312274932861328125" lon="-5.33863638527691364288330078125">
        <ele>313.79998779296875</ele>
        <time>2019-11-02T09:32:09.000Z</time>
      </trkpt>
      <trkpt lat="36.9408099912106990814208984375" lon="-5.33882346935570240020751953125">
        <ele>312.399993896484375</ele>
        <time>2019-11-02T09:32:11.000Z</time>
      </trkpt>
      <trkpt lat="36.94069440476596355438232421875" lon="-5.33901424147188663482666015625">
        <ele>312.79998779296875</ele>
        <time>2019-11-02T09:32:13.000Z</time>
      </trkpt>
      <trkpt lat="36.94058476947247982025146484375" lon="-5.3392091207206249237060546875">
        <ele>313.600006103515625</ele>
        <time>2019-11-02T09:32:15.000Z</time>
      </trkpt>
      <trkpt lat="36.94048318080604076385498046875" lon="-5.3394052572548389434814453125">
        <ele>314.600006103515625</ele>
        <time>2019-11-02T09:32:17.000Z</time>
      </trkpt>
      <trkpt lat="36.940394081175327301025390625" lon="-5.33960868604481220245361328125">
        <ele>315.20001220703125</ele>
        <time>2019-11-02T09:32:19.000Z</time>
      </trkpt>
      <trkpt lat="36.94031604565680027008056640625" lon="-5.33981404267251491546630859375">
        <ele>314.20001220703125</ele>
        <time>2019-11-02T09:32:21.000Z</time>
      </trkpt>
      <trkpt lat="36.9402018003165721893310546875" lon="-5.34011344425380229949951171875">
        <ele>311.20001220703125</ele>
        <time>2019-11-02T09:32:24.000Z</time>
      </trkpt>
      <trkpt lat="36.94010281004011631011962890625" lon="-5.340402536094188690185546875">
        <ele>308.20001220703125</ele>
        <time>2019-11-02T09:32:27.000Z</time>
      </trkpt>
      <trkpt lat="36.94000951945781707763671875" lon="-5.34068517386913299560546875">
        <ele>306</ele>
        <time>2019-11-02T09:32:30.000Z</time>
      </trkpt>
      <trkpt lat="36.93991941399872303009033203125" lon="-5.34095834009349346160888671875">
        <ele>304</ele>
        <time>2019-11-02T09:32:33.000Z</time>
      </trkpt>
      <trkpt lat="36.93982553668320178985595703125" lon="-5.34122974611818790435791015625">
        <ele>301.79998779296875</ele>
        <time>2019-11-02T09:32:36.000Z</time>
      </trkpt>
      <trkpt lat="36.939724199473857879638671875" lon="-5.3415020741522312164306640625">
        <ele>300.600006103515625</ele>
        <time>2019-11-02T09:32:39.000Z</time>
      </trkpt>
      <trkpt lat="36.93961095996201038360595703125" lon="-5.34176744520664215087890625">
        <ele>300.20001220703125</ele>
        <time>2019-11-02T09:32:42.000Z</time>
      </trkpt>
      <trkpt lat="36.93949059583246707916259765625" lon="-5.34202183596789836883544921875">
        <ele>300</ele>
        <time>2019-11-02T09:32:45.000Z</time>
      </trkpt>
      <trkpt lat="36.93936570547521114349365234375" lon="-5.342261977493762969970703125">
        <ele>299.600006103515625</ele>
        <time>2019-11-02T09:32:48.000Z</time>
      </trkpt>
      <trkpt lat="36.93924232386052608489990234375" lon="-5.3424797393381595611572265625">
        <ele>299</ele>
        <time>2019-11-02T09:32:51.000Z</time>
      </trkpt>
      <trkpt lat="36.9391212053596973419189453125" lon="-5.3426718525588512420654296875">
        <ele>298</ele>
        <time>2019-11-02T09:32:54.000Z</time>
      </trkpt>
      <trkpt lat="36.9390025176107883453369140625" lon="-5.34284929744899272918701171875">
        <ele>298</ele>
        <time>2019-11-02T09:32:57.000Z</time>
      </trkpt>
      <trkpt lat="36.9388529844582080841064453125" lon="-5.3430582582950592041015625">
        <ele>298.79998779296875</ele>
        <time>2019-11-02T09:33:01.000Z</time>
      </trkpt>
      <trkpt lat="36.9387192092835903167724609375" lon="-5.34323134459555149078369140625">
        <ele>299.79998779296875</ele>
        <time>2019-11-02T09:33:05.000Z</time>
      </trkpt>
      <trkpt lat="36.93859021179378032684326171875" lon="-5.3433916904032230377197265625">
        <ele>300</ele>
        <time>2019-11-02T09:33:09.000Z</time>
      </trkpt>
      <trkpt lat="36.9384429417550563812255859375" lon="-5.34357097931206226348876953125">
        <ele>300</ele>
        <time>2019-11-02T09:33:14.000Z</time>
      </trkpt>
      <trkpt lat="36.9382991082966327667236328125" lon="-5.343736521899700164794921875">
        <ele>298.79998779296875</ele>
        <time>2019-11-02T09:33:19.000Z</time>
      </trkpt>
      <trkpt lat="36.938153766095638275146484375" lon="-5.34389846026897430419921875">
        <ele>297.79998779296875</ele>
        <time>2019-11-02T09:33:24.000Z</time>
      </trkpt>
      <trkpt lat="36.938007585704326629638671875" lon="-5.34405997954308986663818359375">
        <ele>297.79998779296875</ele>
        <time>2019-11-02T09:33:29.000Z</time>
      </trkpt>
      <trkpt lat="36.93786852993071079254150390625" lon="-5.34422141499817371368408203125">
        <ele>298.399993896484375</ele>
        <time>2019-11-02T09:33:34.000Z</time>
      </trkpt>
      <trkpt lat="36.937729977071285247802734375" lon="-5.34437731839716434478759765625">
        <ele>299.79998779296875</ele>
        <time>2019-11-02T09:33:39.000Z</time>
      </trkpt>
      <trkpt lat="36.93759209476411342620849609375" lon="-5.3445286117494106292724609375">
        <ele>301</ele>
        <time>2019-11-02T09:33:44.000Z</time>
      </trkpt>
      <trkpt lat="36.9374538771808147430419921875" lon="-5.3446791507303714752197265625">
        <ele>301</ele>
        <time>2019-11-02T09:33:49.000Z</time>
      </trkpt>
      <trkpt lat="36.93731431849300861358642578125" lon="-5.3448363952338695526123046875">
        <ele>301</ele>
        <time>2019-11-02T09:33:54.000Z</time>
      </trkpt>
      <trkpt lat="36.9371826387941837310791015625" lon="-5.34499137662351131439208984375">
        <ele>301</ele>
        <time>2019-11-02T09:33:59.000Z</time>
      </trkpt>
      <trkpt lat="36.9370780326426029205322265625" lon="-5.3451119922101497650146484375">
        <ele>301</ele>
        <time>2019-11-02T09:34:03.000Z</time>
      </trkpt>
      <trkpt lat="36.9369264878332614898681640625" lon="-5.3452990762889385223388671875">
        <ele>302</ele>
        <time>2019-11-02T09:34:09.000Z</time>
      </trkpt>
      <trkpt lat="36.9367782957851886749267578125" lon="-5.345483310520648956298828125">
        <ele>303.20001220703125</ele>
        <time>2019-11-02T09:34:15.000Z</time>
      </trkpt>
      <trkpt lat="36.93664946593344211578369140625" lon="-5.34564617089927196502685546875">
        <ele>305</ele>
        <time>2019-11-02T09:34:20.000Z</time>
      </trkpt>
      <trkpt lat="36.93650714121758937835693359375" lon="-5.34583493135869503021240234375">
        <ele>306.79998779296875</ele>
        <time>2019-11-02T09:34:26.000Z</time>
      </trkpt>
      <trkpt lat="36.93637353368103504180908203125" lon="-5.346029810607433319091796875">
        <ele>308.20001220703125</ele>
        <time>2019-11-02T09:34:32.000Z</time>
      </trkpt>
      <trkpt lat="36.93624763749539852142333984375" lon="-5.34623474813997745513916015625">
        <ele>308.600006103515625</ele>
        <time>2019-11-02T09:34:38.000Z</time>
      </trkpt>
      <trkpt lat="36.9361204840242862701416015625" lon="-5.3464494086802005767822265625">
        <ele>308.79998779296875</ele>
        <time>2019-11-02T09:34:44.000Z</time>
      </trkpt>
      <trkpt lat="36.9360212422907352447509765625" lon="-5.34663833677768707275390625">
        <ele>309.399993896484375</ele>
        <time>2019-11-02T09:34:49.000Z</time>
      </trkpt>
      <trkpt lat="36.93590573966503143310546875" lon="-5.34686406143009662628173828125">
        <ele>309.399993896484375</ele>
        <time>2019-11-02T09:34:55.000Z</time>
      </trkpt>
      <trkpt lat="36.9358163885772228240966796875" lon="-5.34706371836364269256591796875">
        <ele>309.600006103515625</ele>
        <time>2019-11-02T09:35:00.000Z</time>
      </trkpt>
      <trkpt lat="36.935725025832653045654296875" lon="-5.347289778292179107666015625">
        <ele>310.399993896484375</ele>
        <time>2019-11-02T09:35:06.000Z</time>
      </trkpt>
      <trkpt lat="36.93564346991479396820068359375" lon="-5.3475259803235530853271484375">
        <ele>310.79998779296875</ele>
        <time>2019-11-02T09:35:12.000Z</time>
      </trkpt>
      <trkpt lat="36.935579515993595123291015625" lon="-5.34773913212120532989501953125">
        <ele>310.600006103515625</ele>
        <time>2019-11-02T09:35:17.000Z</time>
      </trkpt>
      <trkpt lat="36.93551941774785518646240234375" lon="-5.34795303829014301300048828125">
        <ele>310.399993896484375</ele>
        <time>2019-11-02T09:35:22.000Z</time>
      </trkpt>
      <trkpt lat="36.93546476773917675018310546875" lon="-5.3481774218380451202392578125">
        <ele>310.20001220703125</ele>
        <time>2019-11-02T09:35:27.000Z</time>
      </trkpt>
      <trkpt lat="36.935415565967559814453125" lon="-5.34840683452785015106201171875">
        <ele>310.399993896484375</ele>
        <time>2019-11-02T09:35:32.000Z</time>
      </trkpt>
      <trkpt lat="36.9353659451007843017578125" lon="-5.34864756278693675994873046875">
        <ele>311.20001220703125</ele>
        <time>2019-11-02T09:35:37.000Z</time>
      </trkpt>
      <trkpt lat="36.93532177247107028961181640625" lon="-5.34891687333583831787109375">
        <ele>311.399993896484375</ele>
        <time>2019-11-02T09:35:42.000Z</time>
      </trkpt>
      <trkpt lat="36.9352846406400203704833984375" lon="-5.3491396643221378326416015625">
        <ele>311.399993896484375</ele>
        <time>2019-11-02T09:35:46.000Z</time>
      </trkpt>
      <trkpt lat="36.93524315021932125091552734375" lon="-5.34940511919558048248291015625">
        <ele>311.399993896484375</ele>
        <time>2019-11-02T09:35:51.000Z</time>
      </trkpt>
      <trkpt lat="36.9351991452276706695556640625" lon="-5.34964601509273052215576171875">
        <ele>310.600006103515625</ele>
        <time>2019-11-02T09:35:56.000Z</time>
      </trkpt>
      <trkpt lat="36.93514491431415081024169921875" lon="-5.3498804569244384765625">
        <ele>309.399993896484375</ele>
        <time>2019-11-02T09:36:01.000Z</time>
      </trkpt>
      <trkpt lat="36.935077942907810211181640625" lon="-5.35011976025998592376708984375">
        <ele>308.20001220703125</ele>
        <time>2019-11-02T09:36:06.000Z</time>
      </trkpt>
      <trkpt lat="36.93500376306474208831787109375" lon="-5.3503592312335968017578125">
        <ele>306.79998779296875</ele>
        <time>2019-11-02T09:36:11.000Z</time>
      </trkpt>
      <trkpt lat="36.93492178805172443389892578125" lon="-5.35057657398283481597900390625">
        <ele>304.79998779296875</ele>
        <time>2019-11-02T09:36:16.000Z</time>
      </trkpt>
      <trkpt lat="36.9348375499248504638671875" lon="-5.3507865406572818756103515625">
        <ele>302</ele>
        <time>2019-11-02T09:36:21.000Z</time>
      </trkpt>
      <trkpt lat="36.93475012667477130889892578125" lon="-5.3509887121617794036865234375">
        <ele>299.79998779296875</ele>
        <time>2019-11-02T09:36:26.000Z</time>
      </trkpt>
      <trkpt lat="36.93464769981801509857177734375" lon="-5.3512197174131870269775390625">
        <ele>299</ele>
        <time>2019-11-02T09:36:32.000Z</time>
      </trkpt>
      <trkpt lat="36.934534125030040740966796875" lon="-5.35143856890499591827392578125">
        <ele>299.600006103515625</ele>
        <time>2019-11-02T09:36:38.000Z</time>
      </trkpt>
      <trkpt lat="36.9344276748597621917724609375" lon="-5.35163017921149730682373046875">
        <ele>301</ele>
        <time>2019-11-02T09:36:44.000Z</time>
      </trkpt>
      <trkpt lat="36.93430714309215545654296875" lon="-5.35183033905923366546630859375">
        <ele>303.399993896484375</ele>
        <time>2019-11-02T09:36:51.000Z</time>
      </trkpt>
      <trkpt lat="36.93419172428548336029052734375" lon="-5.3520087897777557373046875">
        <ele>305.399993896484375</ele>
        <time>2019-11-02T09:36:58.000Z</time>
      </trkpt>
      <trkpt lat="36.93406976759433746337890625" lon="-5.35217734985053539276123046875">
        <ele>307.600006103515625</ele>
        <time>2019-11-02T09:37:05.000Z</time>
      </trkpt>
      <trkpt lat="36.9339368306100368499755859375" lon="-5.35236753523349761962890625">
        <ele>311.20001220703125</ele>
        <time>2019-11-02T09:37:13.000Z</time>
      </trkpt>
      <trkpt lat="36.93380649201571941375732421875" lon="-5.35253458656370639801025390625">
        <ele>314.20001220703125</ele>
        <time>2019-11-02T09:37:20.000Z</time>
      </trkpt>
      <trkpt lat="36.93372485227882862091064453125" lon="-5.3526352532207965850830078125">
        <ele>316</ele>
        <time>2019-11-02T09:37:30.000Z</time>
      </trkpt>
      <trkpt lat="36.933657713234424591064453125" lon="-5.35271010361611843109130859375">
        <ele>316.79998779296875</ele>
        <time>2019-11-02T09:38:43.000Z</time>
      </trkpt>
      <trkpt lat="36.93351496942341327667236328125" lon="-5.35285343416035175323486328125">
        <ele>318.600006103515625</ele>
        <time>2019-11-02T09:38:51.000Z</time>
      </trkpt>
      <trkpt lat="36.93336543627083301544189453125" lon="-5.35301252268254756927490234375">
        <ele>320.600006103515625</ele>
        <time>2019-11-02T09:39:00.000Z</time>
      </trkpt>
      <trkpt lat="36.93321607075631618499755859375" lon="-5.35317311994731426239013671875">
        <ele>321.20001220703125</ele>
        <time>2019-11-02T09:39:08.000Z</time>
      </trkpt>
      <trkpt lat="36.9330624304711818695068359375" lon="-5.35334193147718906402587890625">
        <ele>322</ele>
        <time>2019-11-02T09:39:16.000Z</time>
      </trkpt>
      <trkpt lat="36.9329185970127582550048828125" lon="-5.35349900834262371063232421875">
        <ele>322.600006103515625</ele>
        <time>2019-11-02T09:39:23.000Z</time>
      </trkpt>
      <trkpt lat="36.9327776134014129638671875" lon="-5.3536531515419483184814453125">
        <ele>323</ele>
        <time>2019-11-02T09:39:30.000Z</time>
      </trkpt>
      <trkpt lat="36.93264056928455829620361328125" lon="-5.35380394198000431060791015625">
        <ele>323.600006103515625</ele>
        <time>2019-11-02T09:39:37.000Z</time>
      </trkpt>
      <trkpt lat="36.932508386671543121337890625" lon="-5.3539646230638027191162109375">
        <ele>324</ele>
        <time>2019-11-02T09:39:44.000Z</time>
      </trkpt>
      <trkpt lat="36.93237033672630786895751953125" lon="-5.35414089448750019073486328125">
        <ele>324.600006103515625</ele>
        <time>2019-11-02T09:39:52.000Z</time>
      </trkpt>
      <trkpt lat="36.93224544636905193328857421875" lon="-5.35431884229183197021484375">
        <ele>324.600006103515625</ele>
        <time>2019-11-02T09:39:59.000Z</time>
      </trkpt>
      <trkpt lat="36.932126171886920928955078125" lon="-5.354501903057098388671875">
        <ele>325.600006103515625</ele>
        <time>2019-11-02T09:40:06.000Z</time>
      </trkpt>
      <trkpt lat="36.932001449167728424072265625" lon="-5.354702733457088470458984375">
        <ele>327.79998779296875</ele>
        <time>2019-11-02T09:40:14.000Z</time>
      </trkpt>
      <trkpt lat="36.9318906404078006744384765625" lon="-5.3548839502036571502685546875">
        <ele>329.600006103515625</ele>
        <time>2019-11-02T09:40:21.000Z</time>
      </trkpt>
      <trkpt lat="36.9317699410021305084228515625" lon="-5.35509123466908931732177734375">
        <ele>331.399993896484375</ele>
        <time>2019-11-02T09:40:29.000Z</time>
      </trkpt>
      <trkpt lat="36.9316616468131542205810546875" lon="-5.35528217442333698272705078125">
        <ele>332.399993896484375</ele>
        <time>2019-11-02T09:40:36.000Z</time>
      </trkpt>
      <trkpt lat="36.931550502777099609375" lon="-5.35548602230846881866455078125">
        <ele>333</ele>
        <time>2019-11-02T09:40:44.000Z</time>
      </trkpt>
      <trkpt lat="36.9314365088939666748046875" lon="-5.3556876070797443389892578125">
        <ele>334</ele>
        <time>2019-11-02T09:40:52.000Z</time>
      </trkpt>
      <trkpt lat="36.9313293881714344024658203125" lon="-5.3558683209121227264404296875">
        <ele>335.20001220703125</ele>
        <time>2019-11-02T09:40:59.000Z</time>
      </trkpt>
      <trkpt lat="36.93120977841317653656005859375" lon="-5.35605381242930889129638671875">
        <ele>337</ele>
        <time>2019-11-02T09:41:07.000Z</time>
      </trkpt>
      <trkpt lat="36.93109377287328243255615234375" lon="-5.35624408163130283355712890625">
        <ele>338.79998779296875</ele>
        <time>2019-11-02T09:41:15.000Z</time>
      </trkpt>
      <trkpt lat="36.9309579022228717803955078125" lon="-5.3564359433948993682861328125">
        <ele>340</ele>
        <time>2019-11-02T09:41:23.000Z</time>
      </trkpt>
      <trkpt lat="36.93082563579082489013671875" lon="-5.35659712739288806915283203125">
        <ele>340.399993896484375</ele>
        <time>2019-11-02T09:41:30.000Z</time>
      </trkpt>
      <trkpt lat="36.93067886866629123687744140625" lon="-5.35677038133144378662109375">
        <ele>341.600006103515625</ele>
        <time>2019-11-02T09:41:38.000Z</time>
      </trkpt>
      <trkpt lat="36.930521540343761444091796875" lon="-5.35692284815013408660888671875">
        <ele>343.600006103515625</ele>
        <time>2019-11-02T09:41:46.000Z</time>
      </trkpt>
      <trkpt lat="36.93036404438316822052001953125" lon="-5.35705863498151302337646484375">
        <ele>345.399993896484375</ele>
        <time>2019-11-02T09:41:54.000Z</time>
      </trkpt>
      <trkpt lat="36.930202357470989227294921875" lon="-5.35719408653676509857177734375">
        <ele>347.20001220703125</ele>
        <time>2019-11-02T09:42:02.000Z</time>
      </trkpt>
      <trkpt lat="36.93003430031239986419677734375" lon="-5.357301793992519378662109375">
        <ele>349</ele>
        <time>2019-11-02T09:42:10.000Z</time>
      </trkpt>
      <trkpt lat="36.9298638962209224700927734375" lon="-5.35740933381021022796630859375">
        <ele>350.79998779296875</ele>
        <time>2019-11-02T09:42:18.000Z</time>
      </trkpt>
      <trkpt lat="36.92968075163662433624267578125" lon="-5.35751930437982082366943359375">
        <ele>351.600006103515625</ele>
        <time>2019-11-02T09:42:26.000Z</time>
      </trkpt>
      <trkpt lat="36.9295004568994045257568359375" lon="-5.35760798491537570953369140625">
        <ele>352.20001220703125</ele>
        <time>2019-11-02T09:42:34.000Z</time>
      </trkpt>
      <trkpt lat="36.9293318130075931549072265625" lon="-5.35769314505159854888916015625">
        <ele>352.79998779296875</ele>
        <time>2019-11-02T09:42:41.000Z</time>
      </trkpt>
      <trkpt lat="36.92914749495685100555419921875" lon="-5.3577804006636142730712890625">
        <ele>354.20001220703125</ele>
        <time>2019-11-02T09:42:49.000Z</time>
      </trkpt>
      <trkpt lat="36.9289794377982616424560546875" lon="-5.357861034572124481201171875">
        <ele>355.600006103515625</ele>
        <time>2019-11-02T09:42:56.000Z</time>
      </trkpt>
      <trkpt lat="36.92881490103900432586669921875" lon="-5.3579604439437389373779296875">
        <ele>357.20001220703125</ele>
        <time>2019-11-02T09:43:03.000Z</time>
      </trkpt>
      <trkpt lat="36.9286341033875942230224609375" lon="-5.35805725492537021636962890625">
        <ele>358.79998779296875</ele>
        <time>2019-11-02T09:43:11.000Z</time>
      </trkpt>
      <trkpt lat="36.92845632322132587432861328125" lon="-5.35817074589431285858154296875">
        <ele>360.79998779296875</ele>
        <time>2019-11-02T09:43:19.000Z</time>
      </trkpt>
      <trkpt lat="36.928300671279430389404296875" lon="-5.35828591324388980865478515625">
        <ele>361.79998779296875</ele>
        <time>2019-11-02T09:43:26.000Z</time>
      </trkpt>
      <trkpt lat="36.9281529821455478668212890625" lon="-5.35841499455273151397705078125">
        <ele>363</ele>
        <time>2019-11-02T09:43:33.000Z</time>
      </trkpt>
      <trkpt lat="36.92799414508044719696044921875" lon="-5.358562432229518890380859375">
        <ele>364.600006103515625</ele>
        <time>2019-11-02T09:43:41.000Z</time>
      </trkpt>
      <trkpt lat="36.9278415106236934661865234375" lon="-5.3587305732071399688720703125">
        <ele>364.79998779296875</ele>
        <time>2019-11-02T09:43:49.000Z</time>
      </trkpt>
      <trkpt lat="36.92770748399198055267333984375" lon="-5.35889293067157268524169921875">
        <ele>365</ele>
        <time>2019-11-02T09:43:56.000Z</time>
      </trkpt>
      <trkpt lat="36.927571780979633331298828125" lon="-5.35906098783016204833984375">
        <ele>365</ele>
        <time>2019-11-02T09:44:03.000Z</time>
      </trkpt>
      <trkpt lat="36.92743406631052494049072265625" lon="-5.3592559508979320526123046875">
        <ele>365</ele>
        <time>2019-11-02T09:44:10.000Z</time>
      </trkpt>
      <trkpt lat="36.92730464972555637359619140625" lon="-5.35943842492997646331787109375">
        <ele>364.399993896484375</ele>
        <time>2019-11-02T09:44:16.000Z</time>
      </trkpt>
      <trkpt lat="36.92717439495027065277099609375" lon="-5.359608829021453857421875">
        <ele>362</ele>
        <time>2019-11-02T09:44:22.000Z</time>
      </trkpt>
      <trkpt lat="36.92705201916396617889404296875" lon="-5.35978375934064388275146484375">
        <ele>359.600006103515625</ele>
        <time>2019-11-02T09:44:28.000Z</time>
      </trkpt>
      <trkpt lat="36.92691539414227008819580078125" lon="-5.359967239201068878173828125">
        <ele>358</ele>
        <time>2019-11-02T09:44:34.000Z</time>
      </trkpt>
      <trkpt lat="36.92676200531423091888427734375" lon="-5.36014518700540065765380859375">
        <ele>358.20001220703125</ele>
        <time>2019-11-02T09:44:40.000Z</time>
      </trkpt>
      <trkpt lat="36.9266278110444545745849609375" lon="-5.36029589362442493438720703125">
        <ele>358.399993896484375</ele>
        <time>2019-11-02T09:44:46.000Z</time>
      </trkpt>
      <trkpt lat="36.92648179829120635986328125" lon="-5.3604371286928653717041015625">
        <ele>358.79998779296875</ele>
        <time>2019-11-02T09:44:52.000Z</time>
      </trkpt>
      <trkpt lat="36.92632731981575489044189453125" lon="-5.36057266406714916229248046875">
        <ele>358.600006103515625</ele>
        <time>2019-11-02T09:44:58.000Z</time>
      </trkpt>
      <trkpt lat="36.92617644555866718292236328125" lon="-5.36069788970053195953369140625">
        <ele>359</ele>
        <time>2019-11-02T09:45:04.000Z</time>
      </trkpt>
      <trkpt lat="36.92599833011627197265625" lon="-5.36082454025745391845703125">
        <ele>360.399993896484375</ele>
        <time>2019-11-02T09:45:11.000Z</time>
      </trkpt>
      <trkpt lat="36.9258360564708709716796875" lon="-5.3609244525432586669921875">
        <ele>361</ele>
        <time>2019-11-02T09:45:17.000Z</time>
      </trkpt>
      <trkpt lat="36.9256457872688770294189453125" lon="-5.36103249527513980865478515625">
        <ele>362.20001220703125</ele>
        <time>2019-11-02T09:45:24.000Z</time>
      </trkpt>
      <trkpt lat="36.925462894141674041748046875" lon="-5.3611167334020137786865234375">
        <ele>363.600006103515625</ele>
        <time>2019-11-02T09:45:31.000Z</time>
      </trkpt>
      <trkpt lat="36.9252793304622173309326171875" lon="-5.36119493655860424041748046875">
        <ele>366</ele>
        <time>2019-11-02T09:45:38.000Z</time>
      </trkpt>
      <trkpt lat="36.925093419849872589111328125" lon="-5.36125998012721538543701171875">
        <ele>369</ele>
        <time>2019-11-02T09:45:45.000Z</time>
      </trkpt>
      <trkpt lat="36.92491211928427219390869140625" lon="-5.36131077446043491363525390625">
        <ele>371</ele>
        <time>2019-11-02T09:45:52.000Z</time>
      </trkpt>
      <trkpt lat="36.92472369410097599029541015625" lon="-5.36133952438831329345703125">
        <ele>373.20001220703125</ele>
        <time>2019-11-02T09:45:59.000Z</time>
      </trkpt>
      <trkpt lat="36.92452403716742992401123046875" lon="-5.3613728843629360198974609375">
        <ele>375.399993896484375</ele>
        <time>2019-11-02T09:46:06.000Z</time>
      </trkpt>
      <trkpt lat="36.92433871328830718994140625" lon="-5.36138302646577358245849609375">
        <ele>375.600006103515625</ele>
        <time>2019-11-02T09:46:13.000Z</time>
      </trkpt>
      <trkpt lat="36.92415590398013591766357421875" lon="-5.3613792546093463897705078125">
        <ele>375.20001220703125</ele>
        <time>2019-11-02T09:46:20.000Z</time>
      </trkpt>
      <trkpt lat="36.92395859397947788238525390625" lon="-5.3613705374300479888916015625">
        <ele>374.79998779296875</ele>
        <time>2019-11-02T09:46:27.000Z</time>
      </trkpt>
      <trkpt lat="36.92375575192272663116455078125" lon="-5.3613406978547573089599609375">
        <ele>373.20001220703125</ele>
        <time>2019-11-02T09:46:34.000Z</time>
      </trkpt>
      <trkpt lat="36.92357621155679225921630859375" lon="-5.3613101877272129058837890625">
        <ele>372</ele>
        <time>2019-11-02T09:46:40.000Z</time>
      </trkpt>
      <trkpt lat="36.9233820028603076934814453125" lon="-5.36127322353422641754150390625">
        <ele>371.79998779296875</ele>
        <time>2019-11-02T09:46:46.000Z</time>
      </trkpt>
      <trkpt lat="36.92319885827600955963134765625" lon="-5.3612226806581020355224609375">
        <ele>371.79998779296875</ele>
        <time>2019-11-02T09:46:52.000Z</time>
      </trkpt>
      <trkpt lat="36.9230116903781890869140625" lon="-5.3611671924591064453125">
        <ele>372.20001220703125</ele>
        <time>2019-11-02T09:46:59.000Z</time>
      </trkpt>
      <trkpt lat="36.92283038981258869171142578125" lon="-5.36110776476562023162841796875">
        <ele>372.20001220703125</ele>
        <time>2019-11-02T09:47:05.000Z</time>
      </trkpt>
      <trkpt lat="36.9226370193064212799072265625" lon="-5.36106602288782596588134765625">
        <ele>371</ele>
        <time>2019-11-02T09:47:11.000Z</time>
      </trkpt>
      <trkpt lat="36.92243426106870174407958984375" lon="-5.36101019941270351409912109375">
        <ele>371.399993896484375</ele>
        <time>2019-11-02T09:47:18.000Z</time>
      </trkpt>
      <trkpt lat="36.9222526252269744873046875" lon="-5.3609581477940082550048828125">
        <ele>370</ele>
        <time>2019-11-02T09:47:24.000Z</time>
      </trkpt>
      <trkpt lat="36.92205171100795269012451171875" lon="-5.360918082296848297119140625">
        <ele>369.20001220703125</ele>
        <time>2019-11-02T09:47:30.000Z</time>
      </trkpt>
      <trkpt lat="36.9218447618186473846435546875" lon="-5.36088480614125728607177734375">
        <ele>368.20001220703125</ele>
        <time>2019-11-02T09:47:36.000Z</time>
      </trkpt>
      <trkpt lat="36.92166212014853954315185546875" lon="-5.36087952554225921630859375">
        <ele>366.600006103515625</ele>
        <time>2019-11-02T09:47:41.000Z</time>
      </trkpt>
      <trkpt lat="36.921463720500469207763671875" lon="-5.3608894161880016326904296875">
        <ele>364.399993896484375</ele>
        <time>2019-11-02T09:47:46.000Z</time>
      </trkpt>
      <trkpt lat="36.9212419353425502777099609375" lon="-5.36093073897063732147216796875">
        <ele>362.20001220703125</ele>
        <time>2019-11-02T09:47:51.000Z</time>
      </trkpt>
      <trkpt lat="36.92105275578796863555908203125" lon="-5.36098815500736236572265625">
        <ele>361.79998779296875</ele>
        <time>2019-11-02T09:47:55.000Z</time>
      </trkpt>
      <trkpt lat="36.92083952017128467559814453125" lon="-5.36105361767113208770751953125">
        <ele>361.79998779296875</ele>
        <time>2019-11-02T09:47:59.000Z</time>
      </trkpt>
      <trkpt lat="36.92062913440167903900146484375" lon="-5.36111614666879177093505859375">
        <ele>362</ele>
        <time>2019-11-02T09:48:03.000Z</time>
      </trkpt>
      <trkpt lat="36.92041623406112194061279296875" lon="-5.36117968149483203887939453125">
        <ele>361</ele>
        <time>2019-11-02T09:48:07.000Z</time>
      </trkpt>
      <trkpt lat="36.9201948679983615875244140625" lon="-5.361246652901172637939453125">
        <ele>360.600006103515625</ele>
        <time>2019-11-02T09:48:11.000Z</time>
      </trkpt>
      <trkpt lat="36.91996897570788860321044921875" lon="-5.3612959384918212890625">
        <ele>361.399993896484375</ele>
        <time>2019-11-02T09:48:15.000Z</time>
      </trkpt>
      <trkpt lat="36.9197419099509716033935546875" lon="-5.3613214194774627685546875">
        <ele>362.399993896484375</ele>
        <time>2019-11-02T09:48:19.000Z</time>
      </trkpt>
      <trkpt lat="36.91952557303011417388916015625" lon="-5.3613296337425708770751953125">
        <ele>363.79998779296875</ele>
        <time>2019-11-02T09:48:23.000Z</time>
      </trkpt>
      <trkpt lat="36.9193238206207752227783203125" lon="-5.36131731234490871429443359375">
        <ele>364.399993896484375</ele>
        <time>2019-11-02T09:48:27.000Z</time>
      </trkpt>
      <trkpt lat="36.91914184950292110443115234375" lon="-5.36129082553088665008544921875">
        <ele>365.20001220703125</ele>
        <time>2019-11-02T09:48:31.000Z</time>
      </trkpt>
      <trkpt lat="36.91893297247588634490966796875" lon="-5.3612436354160308837890625">
        <ele>366</ele>
        <time>2019-11-02T09:48:36.000Z</time>
      </trkpt>
      <trkpt lat="36.918717809021472930908203125" lon="-5.36118688993155956268310546875">
        <ele>366</ele>
        <time>2019-11-02T09:48:41.000Z</time>
      </trkpt>
      <trkpt lat="36.9185067526996135711669921875" lon="-5.36110541783273220062255859375">
        <ele>364.600006103515625</ele>
        <time>2019-11-02T09:48:46.000Z</time>
      </trkpt>
      <trkpt lat="36.9183334149420261383056640625" lon="-5.3610265441238880157470703125">
        <ele>363.399993896484375</ele>
        <time>2019-11-02T09:48:50.000Z</time>
      </trkpt>
      <trkpt lat="36.91816904582083225250244140625" lon="-5.36093073897063732147216796875">
        <ele>363</ele>
        <time>2019-11-02T09:48:54.000Z</time>
      </trkpt>
      <trkpt lat="36.91798648796975612640380859375" lon="-5.36080433987081050872802734375">
        <ele>362.79998779296875</ele>
        <time>2019-11-02T09:48:59.000Z</time>
      </trkpt>
      <trkpt lat="36.9178100489079952239990234375" lon="-5.3606664575636386871337890625">
        <ele>363.20001220703125</ele>
        <time>2019-11-02T09:49:04.000Z</time>
      </trkpt>
      <trkpt lat="36.917645595967769622802734375" lon="-5.36049555055797100067138671875">
        <ele>363.79998779296875</ele>
        <time>2019-11-02T09:49:09.000Z</time>
      </trkpt>
      <trkpt lat="36.9174891896545886993408203125" lon="-5.36031165160238742828369140625">
        <ele>363.79998779296875</ele>
        <time>2019-11-02T09:49:14.000Z</time>
      </trkpt>
      <trkpt lat="36.91732817329466342926025390625" lon="-5.3601343743503093719482421875">
        <ele>363.20001220703125</ele>
        <time>2019-11-02T09:49:19.000Z</time>
      </trkpt>
      <trkpt lat="36.91716673783957958221435546875" lon="-5.35995609126985073089599609375">
        <ele>362.600006103515625</ele>
        <time>2019-11-02T09:49:24.000Z</time>
      </trkpt>
      <trkpt lat="36.91701100207865238189697265625" lon="-5.359785854816436767578125">
        <ele>362.20001220703125</ele>
        <time>2019-11-02T09:49:29.000Z</time>
      </trkpt>
      <trkpt lat="36.91685493104159832000732421875" lon="-5.35962022840976715087890625">
        <ele>362.20001220703125</ele>
        <time>2019-11-02T09:49:34.000Z</time>
      </trkpt>
      <trkpt lat="36.91669265739619731903076171875" lon="-5.35946407355368137359619140625">
        <ele>361.79998779296875</ele>
        <time>2019-11-02T09:49:39.000Z</time>
      </trkpt>
      <trkpt lat="36.9165276177227497100830078125" lon="-5.35930079407989978790283203125">
        <ele>361.600006103515625</ele>
        <time>2019-11-02T09:49:44.000Z</time>
      </trkpt>
      <trkpt lat="36.91636224277317523956298828125" lon="-5.359152518212795257568359375">
        <ele>362.20001220703125</ele>
        <time>2019-11-02T09:49:49.000Z</time>
      </trkpt>
      <trkpt lat="36.9161866419017314910888671875" lon="-5.359019078314304351806640625">
        <ele>362.600006103515625</ele>
        <time>2019-11-02T09:49:54.000Z</time>
      </trkpt>
      <trkpt lat="36.91601556725800037384033203125" lon="-5.3588965348899364471435546875">
        <ele>364.20001220703125</ele>
        <time>2019-11-02T09:49:59.000Z</time>
      </trkpt>
      <trkpt lat="36.91584239713847637176513671875" lon="-5.35878648050129413604736328125">
        <ele>366.399993896484375</ele>
        <time>2019-11-02T09:50:04.000Z</time>
      </trkpt>
      <trkpt lat="36.91567140631377696990966796875" lon="-5.35869712941348552703857421875">
        <ele>367.399993896484375</ele>
        <time>2019-11-02T09:50:09.000Z</time>
      </trkpt>
      <trkpt lat="36.91547476686537265777587890625" lon="-5.35859721712768077850341796875">
        <ele>367.600006103515625</ele>
        <time>2019-11-02T09:50:15.000Z</time>
      </trkpt>
      <trkpt lat="36.91530277021229267120361328125" lon="-5.35852580331265926361083984375">
        <ele>367.79998779296875</ele>
        <time>2019-11-02T09:50:20.000Z</time>
      </trkpt>
      <trkpt lat="36.91512624733150005340576171875" lon="-5.35845958627760410308837890625">
        <ele>367.79998779296875</ele>
        <time>2019-11-02T09:50:25.000Z</time>
      </trkpt>
      <trkpt lat="36.91494503058493137359619140625" lon="-5.3583969734609127044677734375">
        <ele>367.399993896484375</ele>
        <time>2019-11-02T09:50:30.000Z</time>
      </trkpt>
      <trkpt lat="36.91476046107709407806396484375" lon="-5.35835020244121551513671875">
        <ele>367</ele>
        <time>2019-11-02T09:50:35.000Z</time>
      </trkpt>
      <trkpt lat="36.91456566564738750457763671875" lon="-5.3583017550408840179443359375">
        <ele>365.20001220703125</ele>
        <time>2019-11-02T09:50:40.000Z</time>
      </trkpt>
      <trkpt lat="36.91436835564672946929931640625" lon="-5.3582574985921382904052734375">
        <ele>364.399993896484375</ele>
        <time>2019-11-02T09:50:45.000Z</time>
      </trkpt>
      <trkpt lat="36.91416911780834197998046875" lon="-5.3582290001213550567626953125">
        <ele>364.20001220703125</ele>
        <time>2019-11-02T09:50:50.000Z</time>
      </trkpt>
      <trkpt lat="36.913964934647083282470703125" lon="-5.35821064375340938568115234375">
        <ele>364.20001220703125</ele>
        <time>2019-11-02T09:50:55.000Z</time>
      </trkpt>
      <trkpt lat="36.91375496797263622283935546875" lon="-5.358203686773777008056640625">
        <ele>364.20001220703125</ele>
        <time>2019-11-02T09:51:00.000Z</time>
      </trkpt>
      <trkpt lat="36.9135486893355846405029296875" lon="-5.35820242948830127716064453125">
        <ele>363.79998779296875</ele>
        <time>2019-11-02T09:51:05.000Z</time>
      </trkpt>
      <trkpt lat="36.913338638842105865478515625" lon="-5.35821516998112201690673828125">
        <ele>364.20001220703125</ele>
        <time>2019-11-02T09:51:10.000Z</time>
      </trkpt>
      <trkpt lat="36.91311995498836040496826171875" lon="-5.35823528654873371124267578125">
        <ele>364.399993896484375</ele>
        <time>2019-11-02T09:51:15.000Z</time>
      </trkpt>
      <trkpt lat="36.91294066607952117919921875" lon="-5.35825942642986774444580078125">
        <ele>364</ele>
        <time>2019-11-02T09:51:19.000Z</time>
      </trkpt>
      <trkpt lat="36.91273958422243595123291015625" lon="-5.35829764790832996368408203125">
        <ele>364</ele>
        <time>2019-11-02T09:51:24.000Z</time>
      </trkpt>
      <trkpt lat="36.91253833472728729248046875" lon="-5.358343832194805145263671875">
        <ele>364.399993896484375</ele>
        <time>2019-11-02T09:51:30.000Z</time>
      </trkpt>
      <trkpt lat="36.9123284518718719482421875" lon="-5.35840116441249847412109375">
        <ele>364.79998779296875</ele>
        <time>2019-11-02T09:51:36.000Z</time>
      </trkpt>
      <trkpt lat="36.912116892635822296142578125" lon="-5.35846075974404811859130859375">
        <ele>365.20001220703125</ele>
        <time>2019-11-02T09:51:42.000Z</time>
      </trkpt>
      <trkpt lat="36.91193978302180767059326171875" lon="-5.35850971005856990814208984375">
        <ele>365.20001220703125</ele>
        <time>2019-11-02T09:51:47.000Z</time>
      </trkpt>
      <trkpt lat="36.91173191182315349578857421875" lon="-5.35857173614203929901123046875">
        <ele>364.79998779296875</ele>
        <time>2019-11-02T09:51:53.000Z</time>
      </trkpt>
      <trkpt lat="36.91154750995337963104248046875" lon="-5.35863091237843036651611328125">
        <ele>365</ele>
        <time>2019-11-02T09:51:58.000Z</time>
      </trkpt>
      <trkpt lat="36.91135489381849765777587890625" lon="-5.3586955368518829345703125">
        <ele>364.399993896484375</ele>
        <time>2019-11-02T09:52:03.000Z</time>
      </trkpt>
      <trkpt lat="36.9111568294465541839599609375" lon="-5.3587600775063037872314453125">
        <ele>363.600006103515625</ele>
        <time>2019-11-02T09:52:08.000Z</time>
      </trkpt>
      <trkpt lat="36.910957507789134979248046875" lon="-5.35883224569261074066162109375">
        <ele>362</ele>
        <time>2019-11-02T09:52:13.000Z</time>
      </trkpt>
      <trkpt lat="36.91076179035007953643798828125" lon="-5.358902402222156524658203125">
        <ele>361.399993896484375</ele>
        <time>2019-11-02T09:52:18.000Z</time>
      </trkpt>
      <trkpt lat="36.9105707667768001556396484375" lon="-5.35896333865821361541748046875">
        <ele>360.600006103515625</ele>
        <time>2019-11-02T09:52:23.000Z</time>
      </trkpt>
      <trkpt lat="36.91038720309734344482421875" lon="-5.35901941359043121337890625">
        <ele>360.399993896484375</ele>
        <time>2019-11-02T09:52:28.000Z</time>
      </trkpt>
      <trkpt lat="36.91020347177982330322265625" lon="-5.35907045938074588775634765625">
        <ele>360.79998779296875</ele>
        <time>2019-11-02T09:52:33.000Z</time>
      </trkpt>
      <trkpt lat="36.91002334468066692352294921875" lon="-5.3591161407530307769775390625">
        <ele>361.399993896484375</ele>
        <time>2019-11-02T09:52:38.000Z</time>
      </trkpt>
      <trkpt lat="36.909812204539775848388671875" lon="-5.35915561951696872711181640625">
        <ele>362.20001220703125</ele>
        <time>2019-11-02T09:52:44.000Z</time>
      </trkpt>
      <trkpt lat="36.9096328318119049072265625" lon="-5.359178669750690460205078125">
        <ele>362.20001220703125</ele>
        <time>2019-11-02T09:52:49.000Z</time>
      </trkpt>
      <trkpt lat="36.9094402156770229339599609375" lon="-5.3591845370829105377197265625">
        <ele>362.399993896484375</ele>
        <time>2019-11-02T09:52:55.000Z</time>
      </trkpt>
      <trkpt lat="36.90924751572310924530029296875" lon="-5.35917405970394611358642578125">
        <ele>362.79998779296875</ele>
        <time>2019-11-02T09:53:02.000Z</time>
      </trkpt>
      <trkpt lat="36.90906009636819362640380859375" lon="-5.35914975218474864959716796875">
        <ele>365.399993896484375</ele>
        <time>2019-11-02T09:53:09.000Z</time>
      </trkpt>
      <trkpt lat="36.90887686796486377716064453125" lon="-5.3591147996485233306884765625">
        <ele>368</ele>
        <time>2019-11-02T09:53:16.000Z</time>
      </trkpt>
      <trkpt lat="36.9086855091154575347900390625" lon="-5.35907146520912647247314453125">
        <ele>370.600006103515625</ele>
        <time>2019-11-02T09:53:24.000Z</time>
      </trkpt>
      <trkpt lat="36.90850320272147655487060546875" lon="-5.35902268253266811370849609375">
        <ele>372.79998779296875</ele>
        <time>2019-11-02T09:53:32.000Z</time>
      </trkpt>
      <trkpt lat="36.908326260745525360107421875" lon="-5.35896182991564273834228515625">
        <ele>374.399993896484375</ele>
        <time>2019-11-02T09:53:40.000Z</time>
      </trkpt>
      <trkpt lat="36.90814076922833919525146484375" lon="-5.3589213453233242034912109375">
        <ele>375.600006103515625</ele>
        <time>2019-11-02T09:53:48.000Z</time>
      </trkpt>
      <trkpt lat="36.90795334987342357635498046875" lon="-5.35887734033167362213134765625">
        <ele>376.79998779296875</ele>
        <time>2019-11-02T09:53:56.000Z</time>
      </trkpt>
      <trkpt lat="36.90777163021266460418701171875" lon="-5.35884649492800235748291015625">
        <ele>378.600006103515625</ele>
        <time>2019-11-02T09:54:04.000Z</time>
      </trkpt>
      <trkpt lat="36.907581947743892669677734375" lon="-5.358829982578754425048828125">
        <ele>381.20001220703125</ele>
        <time>2019-11-02T09:54:12.000Z</time>
      </trkpt>
      <trkpt lat="36.907381452620029449462890625" lon="-5.35882470197975635528564453125">
        <ele>384.600006103515625</ele>
        <time>2019-11-02T09:54:21.000Z</time>
      </trkpt>
      <trkpt lat="36.90719009377062320709228515625" lon="-5.35884163342416286468505859375">
        <ele>385.79998779296875</ele>
        <time>2019-11-02T09:54:29.000Z</time>
      </trkpt>
      <trkpt lat="36.90699152648448944091796875" lon="-5.3588663600385189056396484375">
        <ele>385.79998779296875</ele>
        <time>2019-11-02T09:54:38.000Z</time>
      </trkpt>
      <trkpt lat="36.90680469386279582977294921875" lon="-5.35891480743885040283203125">
        <ele>385</ele>
        <time>2019-11-02T09:54:46.000Z</time>
      </trkpt>
      <trkpt lat="36.90661945380270481109619140625" lon="-5.358998291194438934326171875">
        <ele>384</ele>
        <time>2019-11-02T09:54:54.000Z</time>
      </trkpt>
      <trkpt lat="36.90643505193293094635009765625" lon="-5.35910415463149547576904296875">
        <ele>384</ele>
        <time>2019-11-02T09:55:02.000Z</time>
      </trkpt>
      <trkpt lat="36.9062762148678302764892578125" lon="-5.359216891229152679443359375">
        <ele>384.399993896484375</ele>
        <time>2019-11-02T09:55:09.000Z</time>
      </trkpt>
      <trkpt lat="36.90610815770924091339111328125" lon="-5.359352342784404754638671875">
        <ele>385</ele>
        <time>2019-11-02T09:55:17.000Z</time>
      </trkpt>
      <trkpt lat="36.90595149993896484375" lon="-5.35950095392763614654541015625">
        <ele>385.79998779296875</ele>
        <time>2019-11-02T09:55:25.000Z</time>
      </trkpt>
      <trkpt lat="36.90580054186284542083740234375" lon="-5.3596636466681957244873046875">
        <ele>386.399993896484375</ele>
        <time>2019-11-02T09:55:33.000Z</time>
      </trkpt>
      <trkpt lat="36.90566441975533962249755859375" lon="-5.35982198081910610198974609375">
        <ele>387</ele>
        <time>2019-11-02T09:55:41.000Z</time>
      </trkpt>
      <trkpt lat="36.90552611835300922393798828125" lon="-5.359993390738964080810546875">
        <ele>387</ele>
        <time>2019-11-02T09:55:49.000Z</time>
      </trkpt>
      <trkpt lat="36.9053796865046024322509765625" lon="-5.36017133854329586029052734375">
        <ele>386.79998779296875</ele>
        <time>2019-11-02T09:55:57.000Z</time>
      </trkpt>
      <trkpt lat="36.905243732035160064697265625" lon="-5.36031969822943210601806640625">
        <ele>387.600006103515625</ele>
        <time>2019-11-02T09:56:04.000Z</time>
      </trkpt>
      <trkpt lat="36.90509126521646976470947265625" lon="-5.3604783676564693450927734375">
        <ele>388.600006103515625</ele>
        <time>2019-11-02T09:56:12.000Z</time>
      </trkpt>
      <trkpt lat="36.904927901923656463623046875" lon="-5.36063385196030139923095703125">
        <ele>389</ele>
        <time>2019-11-02T09:56:19.000Z</time>
      </trkpt>
      <trkpt lat="36.9047745130956172943115234375" lon="-5.360756814479827880859375">
        <ele>389.399993896484375</ele>
        <time>2019-11-02T09:56:25.000Z</time>
      </trkpt>
      <trkpt lat="36.904601342976093292236328125" lon="-5.3608842194080352783203125">
        <ele>390.20001220703125</ele>
        <time>2019-11-02T09:56:31.000Z</time>
      </trkpt>
      <trkpt lat="36.90443336963653564453125" lon="-5.3609955310821533203125">
        <ele>390.20001220703125</ele>
        <time>2019-11-02T09:56:37.000Z</time>
      </trkpt>
      <trkpt lat="36.9042692519724369049072265625" lon="-5.361108519136905670166015625">
        <ele>390.20001220703125</ele>
        <time>2019-11-02T09:56:42.000Z</time>
      </trkpt>
      <trkpt lat="36.9040851853787899017333984375" lon="-5.36124036647379398345947265625">
        <ele>389.20001220703125</ele>
        <time>2019-11-02T09:56:47.000Z</time>
      </trkpt>
      <trkpt lat="36.903897263109683990478515625" lon="-5.3613889776170253753662109375">
        <ele>388.399993896484375</ele>
        <time>2019-11-02T09:56:52.000Z</time>
      </trkpt>
      <trkpt lat="36.903728954493999481201171875" lon="-5.36152451299130916595458984375">
        <ele>387.600006103515625</ele>
        <time>2019-11-02T09:56:57.000Z</time>
      </trkpt>
      <trkpt lat="36.90354815684258937835693359375" lon="-5.36166499368846416473388671875">
        <ele>386.20001220703125</ele>
        <time>2019-11-02T09:57:02.000Z</time>
      </trkpt>
      <trkpt lat="36.90339493565261363983154296875" lon="-5.36179122515022754669189453125">
        <ele>384.600006103515625</ele>
        <time>2019-11-02T09:57:06.000Z</time>
      </trkpt>
      <trkpt lat="36.90323299728333950042724609375" lon="-5.36193556152284145355224609375">
        <ele>383.600006103515625</ele>
        <time>2019-11-02T09:57:10.000Z</time>
      </trkpt>
      <trkpt lat="36.90307416021823883056640625" lon="-5.36208274774253368377685546875">
        <ele>383.20001220703125</ele>
        <time>2019-11-02T09:57:14.000Z</time>
      </trkpt>
      <trkpt lat="36.9029231183230876922607421875" lon="-5.362226665019989013671875">
        <ele>383.399993896484375</ele>
        <time>2019-11-02T09:57:18.000Z</time>
      </trkpt>
      <trkpt lat="36.90276009030640125274658203125" lon="-5.3623907826840877532958984375">
        <ele>384</ele>
        <time>2019-11-02T09:57:23.000Z</time>
      </trkpt>
      <trkpt lat="36.9026149995625019073486328125" lon="-5.362548530101776123046875">
        <ele>384.600006103515625</ele>
        <time>2019-11-02T09:57:27.000Z</time>
      </trkpt>
      <trkpt lat="36.9024835713207721710205078125" lon="-5.36270552314817905426025390625">
        <ele>385.20001220703125</ele>
        <time>2019-11-02T09:57:31.000Z</time>
      </trkpt>
      <trkpt lat="36.9023263268172740936279296875" lon="-5.3628926910459995269775390625">
        <ele>386</ele>
        <time>2019-11-02T09:57:36.000Z</time>
      </trkpt>
      <trkpt lat="36.90218173898756504058837890625" lon="-5.36307667382061481475830078125">
        <ele>386</ele>
        <time>2019-11-02T09:57:41.000Z</time>
      </trkpt>
      <trkpt lat="36.90215525217354297637939453125" lon="-5.3631096147000789642333984375">
        <ele>386</ele>
        <time>2019-11-02T09:57:42.000Z</time>
      </trkpt>
      <trkpt lat="36.90202013589441776275634765625" lon="-5.36328412592411041259765625">
        <ele>386.600006103515625</ele>
        <time>2019-11-02T09:57:47.000Z</time>
      </trkpt>
      <trkpt lat="36.901895999908447265625" lon="-5.36346006207168102264404296875">
        <ele>387</ele>
        <time>2019-11-02T09:57:52.000Z</time>
      </trkpt>
      <trkpt lat="36.9017680920660495758056640625" lon="-5.36363608203828334808349609375">
        <ele>387.600006103515625</ele>
        <time>2019-11-02T09:57:57.000Z</time>
      </trkpt>
      <trkpt lat="36.90164814703166484832763671875" lon="-5.36380791105329990386962890625">
        <ele>388.20001220703125</ele>
        <time>2019-11-02T09:58:02.000Z</time>
      </trkpt>
      <trkpt lat="36.901515461504459381103515625" lon="-5.3640081547200679779052734375">
        <ele>388.79998779296875</ele>
        <time>2019-11-02T09:58:08.000Z</time>
      </trkpt>
      <trkpt lat="36.9013877213001251220703125" lon="-5.3641952387988567352294921875">
        <ele>390</ele>
        <time>2019-11-02T09:58:14.000Z</time>
      </trkpt>
      <trkpt lat="36.90125822089612483978271484375" lon="-5.36437804810702800750732421875">
        <ele>391</ele>
        <time>2019-11-02T09:58:20.000Z</time>
      </trkpt>
      <trkpt lat="36.9011307321488857269287109375" lon="-5.3645534813404083251953125">
        <ele>391</ele>
        <time>2019-11-02T09:58:26.000Z</time>
      </trkpt>
      <trkpt lat="36.900988407433032989501953125" lon="-5.36472137086093425750732421875">
        <ele>390.600006103515625</ele>
        <time>2019-11-02T09:58:32.000Z</time>
      </trkpt>
      <trkpt lat="36.90084935165941715240478515625" lon="-5.36487744189798831939697265625">
        <ele>389.600006103515625</ele>
        <time>2019-11-02T09:58:38.000Z</time>
      </trkpt>
      <trkpt lat="36.9006965495645999908447265625" lon="-5.36503535695374011993408203125">
        <ele>388.79998779296875</ele>
        <time>2019-11-02T09:58:44.000Z</time>
      </trkpt>
      <trkpt lat="36.900533102452754974365234375" lon="-5.3651923500001430511474609375">
        <ele>388.20001220703125</ele>
        <time>2019-11-02T09:58:50.000Z</time>
      </trkpt>
      <trkpt lat="36.90036755986511707305908203125" lon="-5.36532461643218994140625">
        <ele>388</ele>
        <time>2019-11-02T09:58:56.000Z</time>
      </trkpt>
      <trkpt lat="36.900203526020050048828125" lon="-5.36543835885822772979736328125">
        <ele>389.20001220703125</ele>
        <time>2019-11-02T09:59:02.000Z</time>
      </trkpt>
      <trkpt lat="36.90003328956663608551025390625" lon="-5.36553441546857357025146484375">
        <ele>390.399993896484375</ele>
        <time>2019-11-02T09:59:08.000Z</time>
      </trkpt>
      <trkpt lat="36.89984151162207126617431640625" lon="-5.36563198082149028778076171875">
        <ele>392.20001220703125</ele>
        <time>2019-11-02T09:59:15.000Z</time>
      </trkpt>
      <trkpt lat="36.89964185468852519989013671875" lon="-5.36570884287357330322265625">
        <ele>394.399993896484375</ele>
        <time>2019-11-02T09:59:22.000Z</time>
      </trkpt>
      <trkpt lat="36.89945393241941928863525390625" lon="-5.3657743893563747406005859375">
        <ele>396.20001220703125</ele>
        <time>2019-11-02T09:59:29.000Z</time>
      </trkpt>
      <trkpt lat="36.899265088140964508056640625" lon="-5.3658260218799114227294921875">
        <ele>397.399993896484375</ele>
        <time>2019-11-02T09:59:36.000Z</time>
      </trkpt>
      <trkpt lat="36.8990785069763660430908203125" lon="-5.3658759780228137969970703125">
        <ele>397.79998779296875</ele>
        <time>2019-11-02T09:59:43.000Z</time>
      </trkpt>
      <trkpt lat="36.89887943677604198455810546875" lon="-5.36591830663383007049560546875">
        <ele>398.79998779296875</ele>
        <time>2019-11-02T09:59:50.000Z</time>
      </trkpt>
      <trkpt lat="36.89869654364883899688720703125" lon="-5.365966670215129852294921875">
        <ele>400.20001220703125</ele>
        <time>2019-11-02T09:59:57.000Z</time>
      </trkpt>
      <trkpt lat="36.89851281233131885528564453125" lon="-5.36601101048290729522705078125">
        <ele>402.600006103515625</ele>
        <time>2019-11-02T10:00:04.000Z</time>
      </trkpt>
      <trkpt lat="36.89833746291697025299072265625" lon="-5.366062223911285400390625">
        <ele>405</ele>
        <time>2019-11-02T10:00:11.000Z</time>
      </trkpt>
      <trkpt lat="36.89813981764018535614013671875" lon="-5.36613657139241695404052734375">
        <ele>407.399993896484375</ele>
        <time>2019-11-02T10:00:19.000Z</time>
      </trkpt>
      <trkpt lat="36.897945441305637359619140625" lon="-5.36621837876737117767333984375">
        <ele>408</ele>
        <time>2019-11-02T10:00:27.000Z</time>
      </trkpt>
      <trkpt lat="36.897755675017833709716796875" lon="-5.36631309427320957183837890625">
        <ele>407.79998779296875</ele>
        <time>2019-11-02T10:00:35.000Z</time>
      </trkpt>
      <trkpt lat="36.89758367836475372314453125" lon="-5.36640982143580913543701171875">
        <ele>407.399993896484375</ele>
        <time>2019-11-02T10:00:42.000Z</time>
      </trkpt>
      <trkpt lat="36.89741595648229122161865234375" lon="-5.3665116615593433380126953125">
        <ele>406.79998779296875</ele>
        <time>2019-11-02T10:00:49.000Z</time>
      </trkpt>
      <trkpt lat="36.89722669310867786407470703125" lon="-5.36662540398538112640380859375">
        <ele>406.20001220703125</ele>
        <time>2019-11-02T10:00:57.000Z</time>
      </trkpt>
      <trkpt lat="36.89706592820584774017333984375" lon="-5.36676052026450634002685546875">
        <ele>406</ele>
        <time>2019-11-02T10:01:03.000Z</time>
      </trkpt>
      <trkpt lat="36.89691388048231601715087890625" lon="-5.3668962232768535614013671875">
        <ele>406.399993896484375</ele>
        <time>2019-11-02T10:01:09.000Z</time>
      </trkpt>
      <trkpt lat="36.8967474997043609619140625" lon="-5.36705221049487590789794921875">
        <ele>406.600006103515625</ele>
        <time>2019-11-02T10:01:16.000Z</time>
      </trkpt>
      <trkpt lat="36.89660542644560337066650390625" lon="-5.36720610223710536956787109375">
        <ele>407.600006103515625</ele>
        <time>2019-11-02T10:01:22.000Z</time>
      </trkpt>
      <trkpt lat="36.89647215418517589569091796875" lon="-5.3673612512648105621337890625">
        <ele>408.79998779296875</ele>
        <time>2019-11-02T10:01:28.000Z</time>
      </trkpt>
      <trkpt lat="36.896341480314731597900390625" lon="-5.36751757375895977020263671875">
        <ele>410</ele>
        <time>2019-11-02T10:01:34.000Z</time>
      </trkpt>
      <trkpt lat="36.8961937911808490753173828125" lon="-5.3676824457943439483642578125">
        <ele>411.399993896484375</ele>
        <time>2019-11-02T10:01:41.000Z</time>
      </trkpt>
      <trkpt lat="36.896064542233943939208984375" lon="-5.3678427077829837799072265625">
        <ele>411.399993896484375</ele>
        <time>2019-11-02T10:01:47.000Z</time>
      </trkpt>
      <trkpt lat="36.895919032394886016845703125" lon="-5.368021242320537567138671875">
        <ele>410.79998779296875</ele>
        <time>2019-11-02T10:01:54.000Z</time>
      </trkpt>
      <trkpt lat="36.89579238183796405792236328125" lon="-5.3681917302310466766357421875">
        <ele>409.399993896484375</ele>
        <time>2019-11-02T10:02:00.000Z</time>
      </trkpt>
      <trkpt lat="36.89568039961159229278564453125" lon="-5.3683902136981487274169921875">
        <ele>408.20001220703125</ele>
        <time>2019-11-02T10:02:06.000Z</time>
      </trkpt>
      <trkpt lat="36.8955638073384761810302734375" lon="-5.3686014376580715179443359375">
        <ele>406.600006103515625</ele>
        <time>2019-11-02T10:02:12.000Z</time>
      </trkpt>
      <trkpt lat="36.89544637687504291534423828125" lon="-5.368795730173587799072265625">
        <ele>404.79998779296875</ele>
        <time>2019-11-02T10:02:17.000Z</time>
      </trkpt>
      <trkpt lat="36.8953170441091060638427734375" lon="-5.36900821141898632049560546875">
        <ele>404.399993896484375</ele>
        <time>2019-11-02T10:02:22.000Z</time>
      </trkpt>
      <trkpt lat="36.89519341103732585906982421875" lon="-5.36922044120728969573974609375">
        <ele>405</ele>
        <time>2019-11-02T10:02:27.000Z</time>
      </trkpt>
      <trkpt lat="36.8950907327234745025634765625" lon="-5.3694067709147930145263671875">
        <ele>405.79998779296875</ele>
        <time>2019-11-02T10:02:32.000Z</time>
      </trkpt>
      <trkpt lat="36.89499006606638431549072265625" lon="-5.3695988841354846954345703125">
        <ele>406.600006103515625</ele>
        <time>2019-11-02T10:02:37.000Z</time>
      </trkpt>
      <trkpt lat="36.8948828615248203277587890625" lon="-5.36978085525333881378173828125">
        <ele>407</ele>
        <time>2019-11-02T10:02:42.000Z</time>
      </trkpt>
      <trkpt lat="36.89475595951080322265625" lon="-5.369994677603244781494140625">
        <ele>407.600006103515625</ele>
        <time>2019-11-02T10:02:48.000Z</time>
      </trkpt>
      <trkpt lat="36.89463417045772075653076171875" lon="-5.37019793875515460968017578125">
        <ele>407.600006103515625</ele>
        <time>2019-11-02T10:02:54.000Z</time>
      </trkpt>
      <trkpt lat="36.894510872662067413330078125" lon="-5.37038703449070453643798828125">
        <ele>407.79998779296875</ele>
        <time>2019-11-02T10:03:00.000Z</time>
      </trkpt>
      <trkpt lat="36.8943889997899532318115234375" lon="-5.3705688379704952239990234375">
        <ele>408.600006103515625</ele>
        <time>2019-11-02T10:03:06.000Z</time>
      </trkpt>
      <trkpt lat="36.8942719884216785430908203125" lon="-5.3707440197467803955078125">
        <ele>408.79998779296875</ele>
        <time>2019-11-02T10:03:12.000Z</time>
      </trkpt>
      <trkpt lat="36.89412874169647693634033203125" lon="-5.370926745235919952392578125">
        <ele>408.399993896484375</ele>
        <time>2019-11-02T10:03:19.000Z</time>
      </trkpt>
      <trkpt lat="36.89398239366710186004638671875" lon="-5.37111139856278896331787109375">
        <ele>408</ele>
        <time>2019-11-02T10:03:26.000Z</time>
      </trkpt>
      <trkpt lat="36.8938480317592620849609375" lon="-5.37128792144358158111572265625">
        <ele>407.600006103515625</ele>
        <time>2019-11-02T10:03:33.000Z</time>
      </trkpt>
      <trkpt lat="36.89370679669082164764404296875" lon="-5.37145455367863178253173828125">
        <ele>407</ele>
        <time>2019-11-02T10:03:40.000Z</time>
      </trkpt>
      <trkpt lat="36.8935457803308963775634765625" lon="-5.37161984480917453765869140625">
        <ele>407</ele>
        <time>2019-11-02T10:03:47.000Z</time>
      </trkpt>
      <trkpt lat="36.89339767210185527801513671875" lon="-5.37175881676375865936279296875">
        <ele>407.600006103515625</ele>
        <time>2019-11-02T10:03:53.000Z</time>
      </trkpt>
      <trkpt lat="36.8932356499135494232177734375" lon="-5.37188739515841007232666015625">
        <ele>408.600006103515625</ele>
        <time>2019-11-02T10:03:59.000Z</time>
      </trkpt>
      <trkpt lat="36.89307295717298984527587890625" lon="-5.3720021434128284454345703125">
        <ele>410</ele>
        <time>2019-11-02T10:04:05.000Z</time>
      </trkpt>
      <trkpt lat="36.89290322363376617431640625" lon="-5.3721044026315212249755859375">
        <ele>411.600006103515625</ele>
        <time>2019-11-02T10:04:11.000Z</time>
      </trkpt>
      <trkpt lat="36.892720498144626617431640625" lon="-5.37219584919512271881103515625">
        <ele>412</ele>
        <time>2019-11-02T10:04:17.000Z</time>
      </trkpt>
      <trkpt lat="36.89253148622810840606689453125" lon="-5.3722723759710788726806640625">
        <ele>412.600006103515625</ele>
        <time>2019-11-02T10:04:23.000Z</time>
      </trkpt>
      <trkpt lat="36.8923441506922245025634765625" lon="-5.3723307140171527862548828125">
        <ele>413.399993896484375</ele>
        <time>2019-11-02T10:04:30.000Z</time>
      </trkpt>
      <trkpt lat="36.89214826561510562896728515625" lon="-5.37238829769194126129150390625">
        <ele>414.399993896484375</ele>
        <time>2019-11-02T10:04:37.000Z</time>
      </trkpt>
      <trkpt lat="36.891963779926300048828125" lon="-5.3724450431764125823974609375">
        <ele>414.600006103515625</ele>
        <time>2019-11-02T10:04:44.000Z</time>
      </trkpt>
      <trkpt lat="36.89176739193499088287353515625" lon="-5.37249885499477386474609375">
        <ele>414.399993896484375</ele>
        <time>2019-11-02T10:04:51.000Z</time>
      </trkpt>
      <trkpt lat="36.89156404696404933929443359375" lon="-5.372567586600780487060546875">
        <ele>415.20001220703125</ele>
        <time>2019-11-02T10:04:58.000Z</time>
      </trkpt>
      <trkpt lat="36.8913862667977809906005859375" lon="-5.372643359005451202392578125">
        <ele>416</ele>
        <time>2019-11-02T10:05:04.000Z</time>
      </trkpt>
      <trkpt lat="36.89121686853468418121337890625" lon="-5.3727280162274837493896484375">
        <ele>416.79998779296875</ele>
        <time>2019-11-02T10:05:10.000Z</time>
      </trkpt>
      <trkpt lat="36.89105358906090259552001953125" lon="-5.3728322871029376983642578125">
        <ele>417.399993896484375</ele>
        <time>2019-11-02T10:05:16.000Z</time>
      </trkpt>
      <trkpt lat="36.89089424908161163330078125" lon="-5.3729499690234661102294921875">
        <ele>417.600006103515625</ele>
        <time>2019-11-02T10:05:22.000Z</time>
      </trkpt>
      <trkpt lat="36.89073172397911548614501953125" lon="-5.3730981610715389251708984375">
        <ele>416.79998779296875</ele>
        <time>2019-11-02T10:05:29.000Z</time>
      </trkpt>
      <trkpt lat="36.89059057272970676422119140625" lon="-5.37325800396502017974853515625">
        <ele>416.600006103515625</ele>
        <time>2019-11-02T10:05:36.000Z</time>
      </trkpt>
      <trkpt lat="36.89045839011669158935546875" lon="-5.3734371252357959747314453125">
        <ele>416</ele>
        <time>2019-11-02T10:05:43.000Z</time>
      </trkpt>
      <trkpt lat="36.89033911563456058502197265625" lon="-5.37361859343945980072021484375">
        <ele>415.600006103515625</ele>
        <time>2019-11-02T10:05:50.000Z</time>
      </trkpt>
      <trkpt lat="36.89023082144558429718017578125" lon="-5.37380903027951717376708984375">
        <ele>415.399993896484375</ele>
        <time>2019-11-02T10:05:57.000Z</time>
      </trkpt>
      <trkpt lat="36.89013292081654071807861328125" lon="-5.3740174882113933563232421875">
        <ele>415</ele>
        <time>2019-11-02T10:06:05.000Z</time>
      </trkpt>
      <trkpt lat="36.89004239626228809356689453125" lon="-5.37423164583742618560791015625">
        <ele>414.79998779296875</ele>
        <time>2019-11-02T10:06:13.000Z</time>
      </trkpt>
      <trkpt lat="36.88995338045060634613037109375" lon="-5.37444789893925189971923828125">
        <ele>415</ele>
        <time>2019-11-02T10:06:21.000Z</time>
      </trkpt>
      <trkpt lat="36.88986067660152912139892578125" lon="-5.37465912289917469024658203125">
        <ele>415.20001220703125</ele>
        <time>2019-11-02T10:06:29.000Z</time>
      </trkpt>
      <trkpt lat="36.88977442681789398193359375" lon="-5.374858863651752471923828125">
        <ele>415.20001220703125</ele>
        <time>2019-11-02T10:06:37.000Z</time>
      </trkpt>
      <trkpt lat="36.88968046568334102630615234375" lon="-5.37505676038563251495361328125">
        <ele>415.79998779296875</ele>
        <time>2019-11-02T10:06:45.000Z</time>
      </trkpt>
      <trkpt lat="36.8895886838436126708984375" lon="-5.37526144646108150482177734375">
        <ele>417</ele>
        <time>2019-11-02T10:06:53.000Z</time>
      </trkpt>
      <trkpt lat="36.88949606381356716156005859375" lon="-5.3754809685051441192626953125">
        <ele>419.20001220703125</ele>
        <time>2019-11-02T10:07:02.000Z</time>
      </trkpt>
      <trkpt lat="36.88940335996448993682861328125" lon="-5.37569202482700347900390625">
        <ele>421.79998779296875</ele>
        <time>2019-11-02T10:07:10.000Z</time>
      </trkpt>
      <trkpt lat="36.88931250013411045074462890625" lon="-5.37591489963233470916748046875">
        <ele>424.79998779296875</ele>
        <time>2019-11-02T10:07:19.000Z</time>
      </trkpt>
      <trkpt lat="36.88921912573277950286865234375" lon="-5.37613417021930217742919921875">
        <ele>427.399993896484375</ele>
        <time>2019-11-02T10:07:28.000Z</time>
      </trkpt>
      <trkpt lat="36.88912801444530487060546875" lon="-5.37634656764566898345947265625">
        <ele>429.399993896484375</ele>
        <time>2019-11-02T10:07:36.000Z</time>
      </trkpt>
      <trkpt lat="36.88903438858687877655029296875" lon="-5.37655946798622608184814453125">
        <ele>430.600006103515625</ele>
        <time>2019-11-02T10:07:44.000Z</time>
      </trkpt>
      <trkpt lat="36.888950653374195098876953125" lon="-5.37677706219255924224853515625">
        <ele>433.79998779296875</ele>
        <time>2019-11-02T10:07:52.000Z</time>
      </trkpt>
      <trkpt lat="36.888868175446987152099609375" lon="-5.376991890370845794677734375">
        <ele>438.20001220703125</ele>
        <time>2019-11-02T10:08:00.000Z</time>
      </trkpt>
      <trkpt lat="36.8887845240533351898193359375" lon="-5.37720403634011745452880859375">
        <ele>442.399993896484375</ele>
        <time>2019-11-02T10:08:08.000Z</time>
      </trkpt>
      <trkpt lat="36.88868871890008449554443359375" lon="-5.3774200379848480224609375">
        <ele>445.399993896484375</ele>
        <time>2019-11-02T10:08:16.000Z</time>
      </trkpt>
      <trkpt lat="36.888589896261692047119140625" lon="-5.3776372969150543212890625">
        <ele>447.399993896484375</ele>
        <time>2019-11-02T10:08:25.000Z</time>
      </trkpt>
      <trkpt lat="36.8884961865842342376708984375" lon="-5.37784106098115444183349609375">
        <ele>449.79998779296875</ele>
        <time>2019-11-02T10:08:33.000Z</time>
      </trkpt>
      <trkpt lat="36.88840725459158420562744140625" lon="-5.37805865518748760223388671875">
        <ele>454</ele>
        <time>2019-11-02T10:08:41.000Z</time>
      </trkpt>
      <trkpt lat="36.888315975666046142578125" lon="-5.378252528607845306396484375">
        <ele>461.399993896484375</ele>
        <time>2019-11-02T10:08:48.000Z</time>
      </trkpt>
      <trkpt lat="36.8882256187498569488525390625" lon="-5.37845880724489688873291015625">
        <ele>470.399993896484375</ele>
        <time>2019-11-02T10:08:55.000Z</time>
      </trkpt>
      <trkpt lat="36.8881525285542011260986328125" lon="-5.3786060772836208343505859375">
        <ele>477.600006103515625</ele>
        <time>2019-11-02T10:09:00.000Z</time>
      </trkpt>
      <trkpt lat="36.887276284396648406982421875" lon="-5.38111788220703601837158203125">
        <ele>476.600006103515625</ele>
        <time>2019-11-02T10:10:32.000Z</time>
      </trkpt>
      <trkpt lat="36.88711007125675678253173828125" lon="-5.38119055330753326416015625">
        <ele>472.399993896484375</ele>
        <time>2019-11-02T10:10:35.000Z</time>
      </trkpt>
      <trkpt lat="36.887057013809680938720703125" lon="-5.38125970400869846343994140625">
        <ele>470.79998779296875</ele>
        <time>2019-11-02T10:10:38.000Z</time>
      </trkpt>
      <trkpt lat="36.88697562552988529205322265625" lon="-5.3814740292727947235107421875">
        <ele>468</ele>
        <time>2019-11-02T10:10:45.000Z</time>
      </trkpt>
      <trkpt lat="36.8868875317275524139404296875" lon="-5.38170562125742435455322265625">
        <ele>464.79998779296875</ele>
        <time>2019-11-02T10:10:53.000Z</time>
      </trkpt>
      <trkpt lat="36.886820979416370391845703125" lon="-5.38193746469914913177490234375">
        <ele>462.79998779296875</ele>
        <time>2019-11-02T10:10:59.000Z</time>
      </trkpt>
      <trkpt lat="36.886735819280147552490234375" lon="-5.3821834735572338104248046875">
        <ele>463</ele>
        <time>2019-11-02T10:11:04.000Z</time>
      </trkpt>
      <trkpt lat="36.88665929250419139862060546875" lon="-5.38242830894887447357177734375">
        <ele>463.399993896484375</ele>
        <time>2019-11-02T10:11:08.000Z</time>
      </trkpt>
      <trkpt lat="36.88658150844275951385498046875" lon="-5.38268563337624073028564453125">
        <ele>461.20001220703125</ele>
        <time>2019-11-02T10:11:12.000Z</time>
      </trkpt>
      <trkpt lat="36.88651311211287975311279296875" lon="-5.3829103522002696990966796875">
        <ele>459</ele>
        <time>2019-11-02T10:11:16.000Z</time>
      </trkpt>
      <trkpt lat="36.8864379264414310455322265625" lon="-5.383165664970874786376953125">
        <ele>457.20001220703125</ele>
        <time>2019-11-02T10:11:21.000Z</time>
      </trkpt>
      <trkpt lat="36.88637061975896358489990234375" lon="-5.3834013640880584716796875">
        <ele>456.600006103515625</ele>
        <time>2019-11-02T10:11:26.000Z</time>
      </trkpt>
      <trkpt lat="36.88634044490754604339599609375" lon="-5.38349934853613376617431640625">
        <ele>456.600006103515625</ele>
        <time>2019-11-02T10:11:28.000Z</time>
      </trkpt>
      <trkpt lat="36.8862847052514553070068359375" lon="-5.38371719419956207275390625">
        <ele>456</ele>
        <time>2019-11-02T10:11:33.000Z</time>
      </trkpt>
      <trkpt lat="36.88622108660638332366943359375" lon="-5.38395934738218784332275390625">
        <ele>454.20001220703125</ele>
        <time>2019-11-02T10:11:39.000Z</time>
      </trkpt>
      <trkpt lat="36.8861619941890239715576171875" lon="-5.38421608507633209228515625">
        <ele>452.600006103515625</ele>
        <time>2019-11-02T10:11:45.000Z</time>
      </trkpt>
      <trkpt lat="36.88609468750655651092529296875" lon="-5.38447299040853977203369140625">
        <ele>451.399993896484375</ele>
        <time>2019-11-02T10:11:50.000Z</time>
      </trkpt>
      <trkpt lat="36.8860181607306003570556640625" lon="-5.38472838699817657470703125">
        <ele>449.79998779296875</ele>
        <time>2019-11-02T10:11:54.000Z</time>
      </trkpt>
      <trkpt lat="36.88593559898436069488525390625" lon="-5.385003648698329925537109375">
        <ele>448.79998779296875</ele>
        <time>2019-11-02T10:11:58.000Z</time>
      </trkpt>
      <trkpt lat="36.88584876246750354766845703125" lon="-5.38528687320649623870849609375">
        <ele>446.600006103515625</ele>
        <time>2019-11-02T10:12:02.000Z</time>
      </trkpt>
      <trkpt lat="36.8857692182064056396484375" lon="-5.38551385514438152313232421875">
        <ele>445.79998779296875</ele>
        <time>2019-11-02T10:12:05.000Z</time>
      </trkpt>
      <trkpt lat="36.88567609526216983795166015625" lon="-5.3857484646141529083251953125">
        <ele>444.20001220703125</ele>
        <time>2019-11-02T10:12:08.000Z</time>
      </trkpt>
      <trkpt lat="36.88557366840541362762451171875" lon="-5.3859925456345081329345703125">
        <ele>442.600006103515625</ele>
        <time>2019-11-02T10:12:11.000Z</time>
      </trkpt>
      <trkpt lat="36.88546537421643733978271484375" lon="-5.38625246845185756683349609375">
        <ele>440.399993896484375</ele>
        <time>2019-11-02T10:12:14.000Z</time>
      </trkpt>
      <trkpt lat="36.8853606842458248138427734375" lon="-5.38649923168122768402099609375">
        <ele>438.79998779296875</ele>
        <time>2019-11-02T10:12:17.000Z</time>
      </trkpt>
      <trkpt lat="36.885244846343994140625" lon="-5.3867542929947376251220703125">
        <ele>437.399993896484375</ele>
        <time>2019-11-02T10:12:20.000Z</time>
      </trkpt>
      <trkpt lat="36.88511970452964305877685546875" lon="-5.3870174847543239593505859375">
        <ele>435.79998779296875</ele>
        <time>2019-11-02T10:12:23.000Z</time>
      </trkpt>
      <trkpt lat="36.88498668372631072998046875" lon="-5.3872887231409549713134765625">
        <ele>433.399993896484375</ele>
        <time>2019-11-02T10:12:26.000Z</time>
      </trkpt>
      <trkpt lat="36.88488450832664966583251953125" lon="-5.38758066482841968536376953125">
        <ele>431.79998779296875</ele>
        <time>2019-11-02T10:12:29.000Z</time>
      </trkpt>
      <trkpt lat="36.88484561629593372344970703125" lon="-5.38778744637966156005859375">
        <ele>431.20001220703125</ele>
        <time>2019-11-02T10:12:31.000Z</time>
      </trkpt>
      <trkpt lat="36.8848286010324954986572265625" lon="-5.38809397257864475250244140625">
        <ele>431.20001220703125</ele>
        <time>2019-11-02T10:12:34.000Z</time>
      </trkpt>
      <trkpt lat="36.8848172016441822052001953125" lon="-5.38818265311419963836669921875">
        <ele>431.399993896484375</ele>
        <time>2019-11-02T10:12:35.000Z</time>
      </trkpt>
      <trkpt lat="36.88476900570094585418701171875" lon="-5.388418100774288177490234375">
        <ele>431.600006103515625</ele>
        <time>2019-11-02T10:12:38.000Z</time>
      </trkpt>
      <trkpt lat="36.8847296945750713348388671875" lon="-5.38864064030349254608154296875">
        <ele>431.600006103515625</ele>
        <time>2019-11-02T10:12:41.000Z</time>
      </trkpt>
      <trkpt lat="36.88471267931163311004638671875" lon="-5.38888514041900634765625">
        <ele>431.20001220703125</ele>
        <time>2019-11-02T10:12:44.000Z</time>
      </trkpt>
      <trkpt lat="36.88471502624452114105224609375" lon="-5.3891501761972904205322265625">
        <ele>429</ele>
        <time>2019-11-02T10:12:47.000Z</time>
      </trkpt>
      <trkpt lat="36.88471703790128231048583984375" lon="-5.38943373598158359527587890625">
        <ele>426.399993896484375</ele>
        <time>2019-11-02T10:12:50.000Z</time>
      </trkpt>
      <trkpt lat="36.884727515280246734619140625" lon="-5.3897503204643726348876953125">
        <ele>423.79998779296875</ele>
        <time>2019-11-02T10:12:53.000Z</time>
      </trkpt>
      <trkpt lat="36.88473480753600597381591796875" lon="-5.3900827467441558837890625">
        <ele>421.79998779296875</ele>
        <time>2019-11-02T10:12:56.000Z</time>
      </trkpt>
      <trkpt lat="36.88472877256572246551513671875" lon="-5.3904091380536556243896484375">
        <ele>419.79998779296875</ele>
        <time>2019-11-02T10:12:59.000Z</time>
      </trkpt>
      <trkpt lat="36.88471385277807712554931640625" lon="-5.3907330147922039031982421875">
        <ele>419.399993896484375</ele>
        <time>2019-11-02T10:13:02.000Z</time>
      </trkpt>
      <trkpt lat="36.884688623249530792236328125" lon="-5.39104926399886608123779296875">
        <ele>419.399993896484375</ele>
        <time>2019-11-02T10:13:05.000Z</time>
      </trkpt>
      <trkpt lat="36.8846431933343410491943359375" lon="-5.39133642800152301788330078125">
        <ele>419.600006103515625</ele>
        <time>2019-11-02T10:13:08.000Z</time>
      </trkpt>
      <trkpt lat="36.884587369859218597412109375" lon="-5.3915205784142017364501953125">
        <ele>418</ele>
        <time>2019-11-02T10:13:10.000Z</time>
      </trkpt>
      <trkpt lat="36.884474046528339385986328125" lon="-5.391801036894321441650390625">
        <ele>415.600006103515625</ele>
        <time>2019-11-02T10:13:13.000Z</time>
      </trkpt>
      <trkpt lat="36.8843503296375274658203125" lon="-5.39207755587995052337646484375">
        <ele>415.20001220703125</ele>
        <time>2019-11-02T10:13:16.000Z</time>
      </trkpt>
      <trkpt lat="36.88420616090297698974609375" lon="-5.39233840070664882659912109375">
        <ele>415.20001220703125</ele>
        <time>2019-11-02T10:13:19.000Z</time>
      </trkpt>
      <trkpt lat="36.8840324878692626953125" lon="-5.392593629658222198486328125">
        <ele>412.600006103515625</ele>
        <time>2019-11-02T10:13:22.000Z</time>
      </trkpt>
      <trkpt lat="36.88391245901584625244140625" lon="-5.39276906289160251617431640625">
        <ele>410.399993896484375</ele>
        <time>2019-11-02T10:13:24.000Z</time>
      </trkpt>
      <trkpt lat="36.88379066996276378631591796875" lon="-5.3929419815540313720703125">
        <ele>407.79998779296875</ele>
        <time>2019-11-02T10:13:26.000Z</time>
      </trkpt>
      <trkpt lat="36.8836812861263751983642578125" lon="-5.393130071461200714111328125">
        <ele>405</ele>
        <time>2019-11-02T10:13:28.000Z</time>
      </trkpt>
      <trkpt lat="36.8835885822772979736328125" lon="-5.39332964457571506500244140625">
        <ele>402.399993896484375</ele>
        <time>2019-11-02T10:13:30.000Z</time>
      </trkpt>
      <trkpt lat="36.8835099600255489349365234375" lon="-5.393537767231464385986328125">
        <ele>400.79998779296875</ele>
        <time>2019-11-02T10:13:32.000Z</time>
      </trkpt>
      <trkpt lat="36.8834237940609455108642578125" lon="-5.3938457183539867401123046875">
        <ele>399.600006103515625</ele>
        <time>2019-11-02T10:13:35.000Z</time>
      </trkpt>
      <trkpt lat="36.88337878324091434478759765625" lon="-5.39413045160472393035888671875">
        <ele>398</ele>
        <time>2019-11-02T10:13:38.000Z</time>
      </trkpt>
      <trkpt lat="36.8833471834659576416015625" lon="-5.39441116154193878173828125">
        <ele>398.399993896484375</ele>
        <time>2019-11-02T10:13:42.000Z</time>
      </trkpt>
      <trkpt lat="36.88334056176245212554931640625" lon="-5.3945031948387622833251953125">
        <ele>398.600006103515625</ele>
        <time>2019-11-02T10:13:44.000Z</time>
      </trkpt>
      <trkpt lat="36.8833838962018489837646484375" lon="-5.39464225061237812042236328125">
        <ele>399.20001220703125</ele>
        <time>2019-11-02T10:13:55.000Z</time>
      </trkpt>
      <trkpt lat="36.88346863724291324615478515625" lon="-5.39456798695027828216552734375">
        <ele>400.79998779296875</ele>
        <time>2019-11-02T10:20:13.000Z</time>
      </trkpt>
      <trkpt lat="36.88347014598548412322998046875" lon="-5.394564382731914520263671875">
        <ele>400.79998779296875</ele>
        <time>2019-11-02T10:20:14.000Z</time>
      </trkpt>
      <trkpt lat="36.88348204828798770904541015625" lon="-5.39457636885344982147216796875">
        <ele>401.20001220703125</ele>
        <time>2019-11-02T10:20:28.000Z</time>
      </trkpt>
      <trkpt lat="36.883434019982814788818359375" lon="-5.3946289233863353729248046875">
        <ele>400</ele>
        <time>2019-11-02T10:20:34.000Z</time>
      </trkpt>
      <trkpt lat="36.883270405232906341552734375" lon="-5.3946617804467678070068359375">
        <ele>397.600006103515625</ele>
        <time>2019-11-02T11:10:11.000Z</time>
      </trkpt>
      <trkpt lat="36.88326009549200534820556640625" lon="-5.3946500457823276519775390625">
        <ele>397.399993896484375</ele>
        <time>2019-11-02T11:10:16.000Z</time>
      </trkpt>
      <trkpt lat="36.88326177187263965606689453125" lon="-5.39470084011554718017578125">
        <ele>397.399993896484375</ele>
        <time>2019-11-02T11:10:18.000Z</time>
      </trkpt>
      <trkpt lat="36.88323830254375934600830078125" lon="-5.3946393169462680816650390625">
        <ele>397</ele>
        <time>2019-11-02T11:10:29.000Z</time>
      </trkpt>
      <trkpt lat="36.88308876939117908477783203125" lon="-5.39451283402740955352783203125">
        <ele>394.600006103515625</ele>
        <time>2019-11-02T11:10:36.000Z</time>
      </trkpt>
      <trkpt lat="36.88302037306129932403564453125" lon="-5.3943523205816745758056640625">
        <ele>393.20001220703125</ele>
        <time>2019-11-02T11:10:41.000Z</time>
      </trkpt>
      <trkpt lat="36.8829711712896823883056640625" lon="-5.39411838166415691375732421875">
        <ele>392</ele>
        <time>2019-11-02T11:10:47.000Z</time>
      </trkpt>
      <trkpt lat="36.8829396553337574005126953125" lon="-5.39386491291224956512451171875">
        <ele>390.79998779296875</ele>
        <time>2019-11-02T11:10:53.000Z</time>
      </trkpt>
      <trkpt lat="36.88288693316280841827392578125" lon="-5.39361814968287944793701171875">
        <ele>389.20001220703125</ele>
        <time>2019-11-02T11:10:58.000Z</time>
      </trkpt>
      <trkpt lat="36.88285374082624912261962890625" lon="-5.393370129168033599853515625">
        <ele>388</ele>
        <time>2019-11-02T11:11:02.000Z</time>
      </trkpt>
      <trkpt lat="36.88279540278017520904541015625" lon="-5.39310987107455730438232421875">
        <ele>388</ele>
        <time>2019-11-02T11:11:06.000Z</time>
      </trkpt>
      <trkpt lat="36.88262474723160266876220703125" lon="-5.39300610311329364776611328125">
        <ele>388.20001220703125</ele>
        <time>2019-11-02T11:11:09.000Z</time>
      </trkpt>
      <trkpt lat="36.8825192190706729888916015625" lon="-5.3929827176034450531005859375">
        <ele>389</ele>
        <time>2019-11-02T11:11:11.000Z</time>
      </trkpt>
      <trkpt lat="36.8824417702853679656982421875" lon="-5.39296335540711879730224609375">
        <ele>389.79998779296875</ele>
        <time>2019-11-02T11:11:13.000Z</time>
      </trkpt>
      <trkpt lat="36.882245130836963653564453125" lon="-5.3929270617663860321044921875">
        <ele>391.600006103515625</ele>
        <time>2019-11-02T11:11:21.000Z</time>
      </trkpt>
      <trkpt lat="36.88205234706401824951171875" lon="-5.3928871639072895050048828125">
        <ele>395</ele>
        <time>2019-11-02T11:11:30.000Z</time>
      </trkpt>
      <trkpt lat="36.8818764947354793548583984375" lon="-5.39296737872064113616943359375">
        <ele>395.20001220703125</ele>
        <time>2019-11-02T11:11:37.000Z</time>
      </trkpt>
      <trkpt lat="36.881721429526805877685546875" lon="-5.39314943365752696990966796875">
        <ele>393.600006103515625</ele>
        <time>2019-11-02T11:11:41.000Z</time>
      </trkpt>
      <trkpt lat="36.881583295762538909912109375" lon="-5.39333450607955455780029296875">
        <ele>392</ele>
        <time>2019-11-02T11:11:44.000Z</time>
      </trkpt>
      <trkpt lat="36.88142680563032627105712890625" lon="-5.39354640059173107147216796875">
        <ele>390</ele>
        <time>2019-11-02T11:11:47.000Z</time>
      </trkpt>
      <trkpt lat="36.88124123029410839080810546875" lon="-5.393789224326610565185546875">
        <ele>386.399993896484375</ele>
        <time>2019-11-02T11:11:50.000Z</time>
      </trkpt>
      <trkpt lat="36.881105862557888031005859375" lon="-5.39396516047418117523193359375">
        <ele>383</ele>
        <time>2019-11-02T11:11:52.000Z</time>
      </trkpt>
      <trkpt lat="36.88096311874687671661376953125" lon="-5.394153334200382232666015625">
        <ele>379.600006103515625</ele>
        <time>2019-11-02T11:11:54.000Z</time>
      </trkpt>
      <trkpt lat="36.8808140046894550323486328125" lon="-5.39434536360204219818115234375">
        <ele>377.399993896484375</ele>
        <time>2019-11-02T11:11:56.000Z</time>
      </trkpt>
      <trkpt lat="36.88066036440432071685791015625" lon="-5.394549630582332611083984375">
        <ele>375.600006103515625</ele>
        <time>2019-11-02T11:11:58.000Z</time>
      </trkpt>
      <trkpt lat="36.8804986774921417236328125" lon="-5.394764207303524017333984375">
        <ele>372.600006103515625</ele>
        <time>2019-11-02T11:12:00.000Z</time>
      </trkpt>
      <trkpt lat="36.88032760284841060638427734375" lon="-5.39498238824307918548583984375">
        <ele>370.20001220703125</ele>
        <time>2019-11-02T11:12:02.000Z</time>
      </trkpt>
      <trkpt lat="36.88015510328114032745361328125" lon="-5.3952057659626007080078125">
        <ele>366.79998779296875</ele>
        <time>2019-11-02T11:12:04.000Z</time>
      </trkpt>
      <trkpt lat="36.87997807748615741729736328125" lon="-5.3954376094043254852294921875">
        <ele>364.20001220703125</ele>
        <time>2019-11-02T11:12:06.000Z</time>
      </trkpt>
      <trkpt lat="36.87980004586279392242431640625" lon="-5.39567255415022373199462890625">
        <ele>362.20001220703125</ele>
        <time>2019-11-02T11:12:08.000Z</time>
      </trkpt>
      <trkpt lat="36.87962369062006473541259765625" lon="-5.3959120251238346099853515625">
        <ele>360</ele>
        <time>2019-11-02T11:12:10.000Z</time>
      </trkpt>
      <trkpt lat="36.8794423900544643402099609375" lon="-5.396148227155208587646484375">
        <ele>357.399993896484375</ele>
        <time>2019-11-02T11:12:12.000Z</time>
      </trkpt>
      <trkpt lat="36.8792623467743396759033203125" lon="-5.3963918052613735198974609375">
        <ele>355</ele>
        <time>2019-11-02T11:12:14.000Z</time>
      </trkpt>
      <trkpt lat="36.879087500274181365966796875" lon="-5.3966365568339824676513671875">
        <ele>354</ele>
        <time>2019-11-02T11:12:16.000Z</time>
      </trkpt>
      <trkpt lat="36.87891240231692790985107421875" lon="-5.39688742719590663909912109375">
        <ele>350.600006103515625</ele>
        <time>2019-11-02T11:12:18.000Z</time>
      </trkpt>
      <trkpt lat="36.87873017974197864532470703125" lon="-5.39714341051876544952392578125">
        <ele>347</ele>
        <time>2019-11-02T11:12:20.000Z</time>
      </trkpt>
      <trkpt lat="36.87854829244315624237060546875" lon="-5.397405512630939483642578125">
        <ele>344.79998779296875</ele>
        <time>2019-11-02T11:12:22.000Z</time>
      </trkpt>
      <trkpt lat="36.8783678300678730010986328125" lon="-5.39766660891473293304443359375">
        <ele>343</ele>
        <time>2019-11-02T11:12:24.000Z</time>
      </trkpt>
      <trkpt lat="36.87818954698741436004638671875" lon="-5.39792913012206554412841796875">
        <ele>341.399993896484375</ele>
        <time>2019-11-02T11:12:26.000Z</time>
      </trkpt>
      <trkpt lat="36.87801252119243144989013671875" lon="-5.39819014258682727813720703125">
        <ele>339.399993896484375</ele>
        <time>2019-11-02T11:12:28.000Z</time>
      </trkpt>
      <trkpt lat="36.87783658504486083984375" lon="-5.398454926908016204833984375">
        <ele>337.600006103515625</ele>
        <time>2019-11-02T11:12:30.000Z</time>
      </trkpt>
      <trkpt lat="36.87766970135271549224853515625" lon="-5.398721806704998016357421875">
        <ele>335.20001220703125</ele>
        <time>2019-11-02T11:12:32.000Z</time>
      </trkpt>
      <trkpt lat="36.87750759534537792205810546875" lon="-5.3989838249981403350830078125">
        <ele>332.79998779296875</ele>
        <time>2019-11-02T11:12:34.000Z</time>
      </trkpt>
      <trkpt lat="36.87734448350965976715087890625" lon="-5.39924508891999721527099609375">
        <ele>330.79998779296875</ele>
        <time>2019-11-02T11:12:36.000Z</time>
      </trkpt>
      <trkpt lat="36.8771886639297008514404296875" lon="-5.3995038382709026336669921875">
        <ele>329.20001220703125</ele>
        <time>2019-11-02T11:12:38.000Z</time>
      </trkpt>
      <trkpt lat="36.87704022042453289031982421875" lon="-5.3997547924518585205078125">
        <ele>327.600006103515625</ele>
        <time>2019-11-02T11:12:40.000Z</time>
      </trkpt>
      <trkpt lat="36.8768966384232044219970703125" lon="-5.40000130422413349151611328125">
        <ele>325.79998779296875</ele>
        <time>2019-11-02T11:12:42.000Z</time>
      </trkpt>
      <trkpt lat="36.8767585046589374542236328125" lon="-5.40024605579674243927001953125">
        <ele>325.20001220703125</ele>
        <time>2019-11-02T11:12:44.000Z</time>
      </trkpt>
      <trkpt lat="36.8766243942081928253173828125" lon="-5.400484688580036163330078125">
        <ele>325.20001220703125</ele>
        <time>2019-11-02T11:12:46.000Z</time>
      </trkpt>
      <trkpt lat="36.87650243751704692840576171875" lon="-5.40071711875498294830322265625">
        <ele>326</ele>
        <time>2019-11-02T11:12:48.000Z</time>
      </trkpt>
      <trkpt lat="36.87638224102556705474853515625" lon="-5.40094125084578990936279296875">
        <ele>325.79998779296875</ele>
        <time>2019-11-02T11:12:50.000Z</time>
      </trkpt>
      <trkpt lat="36.876267157495021820068359375" lon="-5.40114526636898517608642578125">
        <ele>325</ele>
        <time>2019-11-02T11:12:52.000Z</time>
      </trkpt>
      <trkpt lat="36.8761588633060455322265625" lon="-5.40133872069418430328369140625">
        <ele>324</ele>
        <time>2019-11-02T11:12:54.000Z</time>
      </trkpt>
      <trkpt lat="36.87605668790638446807861328125" lon="-5.40152898989617824554443359375">
        <ele>324</ele>
        <time>2019-11-02T11:12:56.000Z</time>
      </trkpt>
      <trkpt lat="36.875910423696041107177734375" lon="-5.4018014855682849884033203125">
        <ele>324.20001220703125</ele>
        <time>2019-11-02T11:12:59.000Z</time>
      </trkpt>
      <trkpt lat="36.87577731907367706298828125" lon="-5.40206140838563442230224609375">
        <ele>323.600006103515625</ele>
        <time>2019-11-02T11:13:02.000Z</time>
      </trkpt>
      <trkpt lat="36.875648908317089080810546875" lon="-5.40231051854789257049560546875">
        <ele>322.79998779296875</ele>
        <time>2019-11-02T11:13:05.000Z</time>
      </trkpt>
      <trkpt lat="36.8755178153514862060546875" lon="-5.402559377253055572509765625">
        <ele>321</ele>
        <time>2019-11-02T11:13:08.000Z</time>
      </trkpt>
      <trkpt lat="36.87538077123463153839111328125" lon="-5.402805805206298828125">
        <ele>319.600006103515625</ele>
        <time>2019-11-02T11:13:11.000Z</time>
      </trkpt>
      <trkpt lat="36.87524246983230113983154296875" lon="-5.4030493833124637603759765625">
        <ele>318.399993896484375</ele>
        <time>2019-11-02T11:13:14.000Z</time>
      </trkpt>
      <trkpt lat="36.87510140240192413330078125" lon="-5.4032899439334869384765625">
        <ele>317.20001220703125</ele>
        <time>2019-11-02T11:13:17.000Z</time>
      </trkpt>
      <trkpt lat="36.87495279125869274139404296875" lon="-5.4035419039428234100341796875">
        <ele>317.399993896484375</ele>
        <time>2019-11-02T11:13:20.000Z</time>
      </trkpt>
      <trkpt lat="36.87479428946971893310546875" lon="-5.40380484424531459808349609375">
        <ele>317</ele>
        <time>2019-11-02T11:13:23.000Z</time>
      </trkpt>
      <trkpt lat="36.8746291659772396087646484375" lon="-5.404067449271678924560546875">
        <ele>316.399993896484375</ele>
        <time>2019-11-02T11:13:26.000Z</time>
      </trkpt>
      <trkpt lat="36.874460689723491668701171875" lon="-5.40432502515614032745361328125">
        <ele>312</ele>
        <time>2019-11-02T11:13:29.000Z</time>
      </trkpt>
      <trkpt lat="36.8742905370891094207763671875" lon="-5.40458519943058490753173828125">
        <ele>307.79998779296875</ele>
        <time>2019-11-02T11:13:32.000Z</time>
      </trkpt>
      <trkpt lat="36.87411510385572910308837890625" lon="-5.40484202094376087188720703125">
        <ele>306</ele>
        <time>2019-11-02T11:13:35.000Z</time>
      </trkpt>
      <trkpt lat="36.87399574555456638336181640625" lon="-5.40501485578715801239013671875">
        <ele>306.399993896484375</ele>
        <time>2019-11-02T11:13:37.000Z</time>
      </trkpt>
      <trkpt lat="36.8738774769008159637451171875" lon="-5.40519020520150661468505859375">
        <ele>307.20001220703125</ele>
        <time>2019-11-02T11:13:39.000Z</time>
      </trkpt>
      <trkpt lat="36.8737014569342136383056640625" lon="-5.4054399020969867706298828125">
        <ele>307.600006103515625</ele>
        <time>2019-11-02T11:13:42.000Z</time>
      </trkpt>
      <trkpt lat="36.873533986508846282958984375" lon="-5.40568121708929538726806640625">
        <ele>306.600006103515625</ele>
        <time>2019-11-02T11:13:45.000Z</time>
      </trkpt>
      <trkpt lat="36.87337766401469707489013671875" lon="-5.40591741912066936492919921875">
        <ele>305.79998779296875</ele>
        <time>2019-11-02T11:13:48.000Z</time>
      </trkpt>
      <trkpt lat="36.87322360463440418243408203125" lon="-5.4061277210712432861328125">
        <ele>305</ele>
        <time>2019-11-02T11:13:51.000Z</time>
      </trkpt>
      <trkpt lat="36.87308144755661487579345703125" lon="-5.406317822635173797607421875">
        <ele>305.20001220703125</ele>
        <time>2019-11-02T11:13:54.000Z</time>
      </trkpt>
      <trkpt lat="36.8729380331933498382568359375" lon="-5.4065399430692195892333984375">
        <ele>306.399993896484375</ele>
        <time>2019-11-02T11:13:58.000Z</time>
      </trkpt>
      <trkpt lat="36.87282194383442401885986328125" lon="-5.406731553375720977783203125">
        <ele>307.20001220703125</ele>
        <time>2019-11-02T11:14:02.000Z</time>
      </trkpt>
      <trkpt lat="36.8727003224194049835205078125" lon="-5.40693129412829875946044921875">
        <ele>307.600006103515625</ele>
        <time>2019-11-02T11:14:07.000Z</time>
      </trkpt>
      <trkpt lat="36.87259630300104618072509765625" lon="-5.40712726302444934844970703125">
        <ele>308</ele>
        <time>2019-11-02T11:14:12.000Z</time>
      </trkpt>
      <trkpt lat="36.8725137412548065185546875" lon="-5.40735642425715923309326171875">
        <ele>308.20001220703125</ele>
        <time>2019-11-02T11:14:17.000Z</time>
      </trkpt>
      <trkpt lat="36.87245808541774749755859375" lon="-5.40753680281341075897216796875">
        <ele>308.20001220703125</ele>
        <time>2019-11-02T11:14:21.000Z</time>
      </trkpt>
      <trkpt lat="36.8723787926137447357177734375" lon="-5.407772250473499298095703125">
        <ele>307.399993896484375</ele>
        <time>2019-11-02T11:14:26.000Z</time>
      </trkpt>
      <trkpt lat="36.8723125755786895751953125" lon="-5.40802328847348690032958984375">
        <ele>307.600006103515625</ele>
        <time>2019-11-02T11:14:31.000Z</time>
      </trkpt>
      <trkpt lat="36.8722642958164215087890625" lon="-5.40827206335961818695068359375">
        <ele>307.20001220703125</ele>
        <time>2019-11-02T11:14:36.000Z</time>
      </trkpt>
      <trkpt lat="36.872248537838459014892578125" lon="-5.40837096981704235076904296875">
        <ele>307.399993896484375</ele>
        <time>2019-11-02T11:14:38.000Z</time>
      </trkpt>
      <trkpt lat="36.8722061254084110260009765625" lon="-5.40861890651285648345947265625">
        <ele>307.79998779296875</ele>
        <time>2019-11-02T11:14:43.000Z</time>
      </trkpt>
      <trkpt lat="36.87218341045081615447998046875" lon="-5.40886684320867061614990234375">
        <ele>308</ele>
        <time>2019-11-02T11:14:48.000Z</time>
      </trkpt>
      <trkpt lat="36.872175447642803192138671875" lon="-5.4091037996113300323486328125">
        <ele>308.20001220703125</ele>
        <time>2019-11-02T11:14:53.000Z</time>
      </trkpt>
      <trkpt lat="36.872170083224773406982421875" lon="-5.4093297757208347320556640625">
        <ele>309</ele>
        <time>2019-11-02T11:14:58.000Z</time>
      </trkpt>
      <trkpt lat="36.8721816502511501312255859375" lon="-5.40955583564937114715576171875">
        <ele>311.79998779296875</ele>
        <time>2019-11-02T11:15:03.000Z</time>
      </trkpt>
      <trkpt lat="36.87218944542109966278076171875" lon="-5.4096016846597194671630859375">
        <ele>312.399993896484375</ele>
        <time>2019-11-02T11:15:04.000Z</time>
      </trkpt>
      <trkpt lat="36.87221911735832691192626953125" lon="-5.409826822578907012939453125">
        <ele>314.79998779296875</ele>
        <time>2019-11-02T11:15:09.000Z</time>
      </trkpt>
      <trkpt lat="36.87223621644079685211181640625" lon="-5.4099604301154613494873046875">
        <ele>316</ele>
        <time>2019-11-02T11:15:12.000Z</time>
      </trkpt>
      <trkpt lat="36.8722450174391269683837890625" lon="-5.41005112230777740478515625">
        <ele>316.20001220703125</ele>
        <time>2019-11-02T11:15:14.000Z</time>
      </trkpt>
      <trkpt lat="36.87228248454630374908447265625" lon="-5.41028506122529506683349609375">
        <ele>317.399993896484375</ele>
        <time>2019-11-02T11:15:20.000Z</time>
      </trkpt>
      <trkpt lat="36.8723177723586559295654296875" lon="-5.4104683734476566314697265625">
        <ele>318.600006103515625</ele>
        <time>2019-11-02T11:15:25.000Z</time>
      </trkpt>
      <trkpt lat="36.87234342098236083984375" lon="-5.4106138832867145538330078125">
        <ele>319</ele>
        <time>2019-11-02T11:15:29.000Z</time>
      </trkpt>
      <trkpt lat="36.87237686477601528167724609375" lon="-5.4108430445194244384765625">
        <ele>318.600006103515625</ele>
        <time>2019-11-02T11:15:35.000Z</time>
      </trkpt>
      <trkpt lat="36.87241693027317523956298828125" lon="-5.411063320934772491455078125">
        <ele>316.79998779296875</ele>
        <time>2019-11-02T11:15:41.000Z</time>
      </trkpt>
      <trkpt lat="36.87244945205748081207275390625" lon="-5.41128619574010372161865234375">
        <ele>315</ele>
        <time>2019-11-02T11:15:47.000Z</time>
      </trkpt>
      <trkpt lat="36.8724833987653255462646484375" lon="-5.41154469363391399383544921875">
        <ele>313.399993896484375</ele>
        <time>2019-11-02T11:15:54.000Z</time>
      </trkpt>
      <trkpt lat="36.8725041858851909637451171875" lon="-5.4117863439023494720458984375">
        <ele>313.79998779296875</ele>
        <time>2019-11-02T11:16:00.000Z</time>
      </trkpt>
      <trkpt lat="36.87252757139503955841064453125" lon="-5.41203352622687816619873046875">
        <ele>315.79998779296875</ele>
        <time>2019-11-02T11:16:07.000Z</time>
      </trkpt>
      <trkpt lat="36.87253058888018131256103515625" lon="-5.41226989589631557464599609375">
        <ele>317.79998779296875</ele>
        <time>2019-11-02T11:16:14.000Z</time>
      </trkpt>
      <trkpt lat="36.87252438627183437347412109375" lon="-5.4125145636498928070068359375">
        <ele>320.399993896484375</ele>
        <time>2019-11-02T11:16:22.000Z</time>
      </trkpt>
      <trkpt lat="36.87251198105514049530029296875" lon="-5.41274867020547389984130859375">
        <ele>322.20001220703125</ele>
        <time>2019-11-02T11:16:29.000Z</time>
      </trkpt>
      <trkpt lat="36.872499994933605194091796875" lon="-5.41299912147223949432373046875">
        <ele>322.399993896484375</ele>
        <time>2019-11-02T11:16:37.000Z</time>
      </trkpt>
      <trkpt lat="36.872476525604724884033203125" lon="-5.41325376369059085845947265625">
        <ele>322.79998779296875</ele>
        <time>2019-11-02T11:16:45.000Z</time>
      </trkpt>
      <trkpt lat="36.8724547326564788818359375" lon="-5.41348895989358425140380859375">
        <ele>322.600006103515625</ele>
        <time>2019-11-02T11:16:52.000Z</time>
      </trkpt>
      <trkpt lat="36.8724374659359455108642578125" lon="-5.4137346334755420684814453125">
        <ele>321.79998779296875</ele>
        <time>2019-11-02T11:16:59.000Z</time>
      </trkpt>
      <trkpt lat="36.8724300898611545562744140625" lon="-5.41396580636501312255859375">
        <ele>321.20001220703125</ele>
        <time>2019-11-02T11:17:05.000Z</time>
      </trkpt>
      <trkpt lat="36.87242925167083740234375" lon="-5.4142271541059017181396484375">
        <ele>321.600006103515625</ele>
        <time>2019-11-02T11:17:12.000Z</time>
      </trkpt>
      <trkpt lat="36.8724307604134082794189453125" lon="-5.41445153765380382537841796875">
        <ele>322</ele>
        <time>2019-11-02T11:17:18.000Z</time>
      </trkpt>
      <trkpt lat="36.87244224362075328826904296875" lon="-5.41470609605312347412109375">
        <ele>323.20001220703125</ele>
        <time>2019-11-02T11:17:25.000Z</time>
      </trkpt>
      <trkpt lat="36.87246973626315593719482421875" lon="-5.41495260782539844512939453125">
        <ele>325</ele>
        <time>2019-11-02T11:17:32.000Z</time>
      </trkpt>
      <trkpt lat="36.87250913120806217193603515625" lon="-5.41520155034959316253662109375">
        <ele>326</ele>
        <time>2019-11-02T11:17:39.000Z</time>
      </trkpt>
      <trkpt lat="36.8725460954010486602783203125" lon="-5.41542492806911468505859375">
        <ele>326</ele>
        <time>2019-11-02T11:17:45.000Z</time>
      </trkpt>
      <trkpt lat="36.87260887585580348968505859375" lon="-5.41566858999431133270263671875">
        <ele>325.600006103515625</ele>
        <time>2019-11-02T11:17:52.000Z</time>
      </trkpt>
      <trkpt lat="36.87271314673125743865966796875" lon="-5.415875203907489776611328125">
        <ele>326</ele>
        <time>2019-11-02T11:17:59.000Z</time>
      </trkpt>
      <trkpt lat="36.87288346700370311737060546875" lon="-5.41601694189012050628662109375">
        <ele>326.600006103515625</ele>
        <time>2019-11-02T11:18:06.000Z</time>
      </trkpt>
      <trkpt lat="36.87306426465511322021484375" lon="-5.416030772030353546142578125">
        <ele>327.20001220703125</ele>
        <time>2019-11-02T11:18:12.000Z</time>
      </trkpt>
      <trkpt lat="36.8732540309429168701171875" lon="-5.41599397547543048858642578125">
        <ele>328</ele>
        <time>2019-11-02T11:18:18.000Z</time>
      </trkpt>
      <trkpt lat="36.87345243059098720550537109375" lon="-5.41596933268010616302490234375">
        <ele>327.79998779296875</ele>
        <time>2019-11-02T11:18:24.000Z</time>
      </trkpt>
      <trkpt lat="36.873652674257755279541015625" lon="-5.41596229188144207000732421875">
        <ele>328.600006103515625</ele>
        <time>2019-11-02T11:18:30.000Z</time>
      </trkpt>
      <trkpt lat="36.8738466314971446990966796875" lon="-5.41603756137192249298095703125">
        <ele>329</ele>
        <time>2019-11-02T11:18:37.000Z</time>
      </trkpt>
      <trkpt lat="36.87398694455623626708984375" lon="-5.41623294353485107421875">
        <ele>328.399993896484375</ele>
        <time>2019-11-02T11:18:43.000Z</time>
      </trkpt>
      <trkpt lat="36.8740568496286869049072265625" lon="-5.416447855532169342041015625">
        <ele>327.399993896484375</ele>
        <time>2019-11-02T11:18:48.000Z</time>
      </trkpt>
      <trkpt lat="36.874065063893795013427734375" lon="-5.416691266000270843505859375">
        <ele>325.79998779296875</ele>
        <time>2019-11-02T11:18:53.000Z</time>
      </trkpt>
      <trkpt lat="36.87399742193520069122314453125" lon="-5.41694666258990764617919921875">
        <ele>324</ele>
        <time>2019-11-02T11:18:58.000Z</time>
      </trkpt>
      <trkpt lat="36.873987950384616851806640625" lon="-5.417172722518444061279296875">
        <ele>324</ele>
        <time>2019-11-02T11:19:02.000Z</time>
      </trkpt>
      <trkpt lat="36.87406481243669986724853515625" lon="-5.417377240955829620361328125">
        <ele>324.20001220703125</ele>
        <time>2019-11-02T11:19:08.000Z</time>
      </trkpt>
      <trkpt lat="36.87419020570814609527587890625" lon="-5.41754395700991153717041015625">
        <ele>325</ele>
        <time>2019-11-02T11:19:15.000Z</time>
      </trkpt>
      <trkpt lat="36.87431073747575283050537109375" lon="-5.4177197255194187164306640625">
        <ele>326.399993896484375</ele>
        <time>2019-11-02T11:19:23.000Z</time>
      </trkpt>
      <trkpt lat="36.87443831004202365875244140625" lon="-5.4178960807621479034423828125">
        <ele>328.79998779296875</ele>
        <time>2019-11-02T11:19:31.000Z</time>
      </trkpt>
      <trkpt lat="36.87456772662699222564697265625" lon="-5.41807788424193859100341796875">
        <ele>331.600006103515625</ele>
        <time>2019-11-02T11:19:39.000Z</time>
      </trkpt>
      <trkpt lat="36.87468834221363067626953125" lon="-5.41825465857982635498046875">
        <ele>334.20001220703125</ele>
        <time>2019-11-02T11:19:47.000Z</time>
      </trkpt>
      <trkpt lat="36.87481197528541088104248046875" lon="-5.4184466041624546051025390625">
        <ele>336.399993896484375</ele>
        <time>2019-11-02T11:19:57.000Z</time>
      </trkpt>
      <trkpt lat="36.87494977377355098724365234375" lon="-5.41860862635076045989990234375">
        <ele>337.399993896484375</ele>
        <time>2019-11-02T11:20:06.000Z</time>
      </trkpt>
      <trkpt lat="36.8751277215778827667236328125" lon="-5.4187166690826416015625">
        <ele>338.600006103515625</ele>
        <time>2019-11-02T11:20:16.000Z</time>
      </trkpt>
      <trkpt lat="36.87530499882996082305908203125" lon="-5.418806858360767364501953125">
        <ele>340.79998779296875</ele>
        <time>2019-11-02T11:20:25.000Z</time>
      </trkpt>
      <trkpt lat="36.87535696662962436676025390625" lon="-5.4189247079193592071533203125">
        <ele>342.20001220703125</ele>
        <time>2019-11-02T11:20:32.000Z</time>
      </trkpt>
      <trkpt lat="36.8753459863364696502685546875" lon="-5.41906736791133880615234375">
        <ele>343.600006103515625</ele>
        <time>2019-11-02T11:20:37.000Z</time>
      </trkpt>
      <trkpt lat="36.8752430565655231475830078125" lon="-5.41927146725356578826904296875">
        <ele>342.399993896484375</ele>
        <time>2019-11-02T11:20:45.000Z</time>
      </trkpt>
      <trkpt lat="36.875237189233303070068359375" lon="-5.4195050708949565887451171875">
        <ele>342</ele>
        <time>2019-11-02T11:20:53.000Z</time>
      </trkpt>
      <trkpt lat="36.8753268755972385406494140625" lon="-5.419702045619487762451171875">
        <ele>343.399993896484375</ele>
        <time>2019-11-02T11:21:00.000Z</time>
      </trkpt>
      <trkpt lat="36.87545268796384334564208984375" lon="-5.41987605392932891845703125">
        <ele>344.20001220703125</ele>
        <time>2019-11-02T11:21:07.000Z</time>
      </trkpt>
      <trkpt lat="36.87560892663896083831787109375" lon="-5.4199882037937641143798828125">
        <ele>346.79998779296875</ele>
        <time>2019-11-02T11:21:13.000Z</time>
      </trkpt>
      <trkpt lat="36.87577689997851848602294921875" lon="-5.420107729732990264892578125">
        <ele>347.79998779296875</ele>
        <time>2019-11-02T11:21:20.000Z</time>
      </trkpt>
      <trkpt lat="36.87594554387032985687255859375" lon="-5.4202322848141193389892578125">
        <ele>349.20001220703125</ele>
        <time>2019-11-02T11:21:25.000Z</time>
      </trkpt>
      <trkpt lat="36.8761258386075496673583984375" lon="-5.4203689098358154296875">
        <ele>347</ele>
        <time>2019-11-02T11:21:30.000Z</time>
      </trkpt>
      <trkpt lat="36.87627889215946197509765625" lon="-5.42050729505717754364013671875">
        <ele>345.79998779296875</ele>
        <time>2019-11-02T11:21:34.000Z</time>
      </trkpt>
      <trkpt lat="36.87631417997181415557861328125" lon="-5.42054803110659122467041015625">
        <ele>345.20001220703125</ele>
        <time>2019-11-02T11:21:35.000Z</time>
      </trkpt>
      <trkpt lat="36.8764403276145458221435546875" lon="-5.42073092423379421234130859375">
        <ele>343.399993896484375</ele>
        <time>2019-11-02T11:21:39.000Z</time>
      </trkpt>
      <trkpt lat="36.87655474059283733367919921875" lon="-5.42092085815966129302978515625">
        <ele>344</ele>
        <time>2019-11-02T11:21:43.000Z</time>
      </trkpt>
      <trkpt lat="36.876665465533733367919921875" lon="-5.4211113788187503814697265625">
        <ele>345</ele>
        <time>2019-11-02T11:21:47.000Z</time>
      </trkpt>
      <trkpt lat="36.87677451409399509429931640625" lon="-5.4213031567633152008056640625">
        <ele>345.600006103515625</ele>
        <time>2019-11-02T11:21:51.000Z</time>
      </trkpt>
      <trkpt lat="36.8768879212439060211181640625" lon="-5.4214847087860107421875">
        <ele>346.20001220703125</ele>
        <time>2019-11-02T11:21:55.000Z</time>
      </trkpt>
      <trkpt lat="36.876997053623199462890625" lon="-5.421727783977985382080078125">
        <ele>344.79998779296875</ele>
        <time>2019-11-02T11:22:00.000Z</time>
      </trkpt>
      <trkpt lat="36.877026222646236419677734375" lon="-5.42195753194391727447509765625">
        <ele>343.600006103515625</ele>
        <time>2019-11-02T11:22:04.000Z</time>
      </trkpt>
      <trkpt lat="36.87700116075575351715087890625" lon="-5.42221519164741039276123046875">
        <ele>343.399993896484375</ele>
        <time>2019-11-02T11:22:08.000Z</time>
      </trkpt>
      <trkpt lat="36.8769526295363903045654296875" lon="-5.42250185273587703704833984375">
        <ele>343.600006103515625</ele>
        <time>2019-11-02T11:22:12.000Z</time>
      </trkpt>
      <trkpt lat="36.8769368715584278106689453125" lon="-5.42257569730281829833984375">
        <ele>343.79998779296875</ele>
        <time>2019-11-02T11:22:13.000Z</time>
      </trkpt>
      <trkpt lat="36.876832433044910430908203125" lon="-5.422836206853389739990234375">
        <ele>343.79998779296875</ele>
        <time>2019-11-02T11:22:17.000Z</time>
      </trkpt>
      <trkpt lat="36.87679613940417766571044921875" lon="-5.42288993485271930694580078125">
        <ele>343.399993896484375</ele>
        <time>2019-11-02T11:22:18.000Z</time>
      </trkpt>
      <trkpt lat="36.87676445581018924713134765625" lon="-5.42294207029044628143310546875">
        <ele>343.20001220703125</ele>
        <time>2019-11-02T11:22:19.000Z</time>
      </trkpt>
      <trkpt lat="36.8767261505126953125" lon="-5.4231646098196506500244140625">
        <ele>343.600006103515625</ele>
        <time>2019-11-02T11:22:23.000Z</time>
      </trkpt>
      <trkpt lat="36.87675104476511478424072265625" lon="-5.423282794654369354248046875">
        <ele>343.79998779296875</ele>
        <time>2019-11-02T11:22:25.000Z</time>
      </trkpt>
      <trkpt lat="36.87681977637112140655517578125" lon="-5.4235109500586986541748046875">
        <ele>346</ele>
        <time>2019-11-02T11:22:29.000Z</time>
      </trkpt>
      <trkpt lat="36.87688616104423999786376953125" lon="-5.4237067513167858123779296875">
        <ele>347</ele>
        <time>2019-11-02T11:22:33.000Z</time>
      </trkpt>
      <trkpt lat="36.8769527971744537353515625" lon="-5.42391738854348659515380859375">
        <ele>347.399993896484375</ele>
        <time>2019-11-02T11:22:38.000Z</time>
      </trkpt>
      <trkpt lat="36.87701708637177944183349609375" lon="-5.4241328872740268707275390625">
        <ele>347</ele>
        <time>2019-11-02T11:22:43.000Z</time>
      </trkpt>
      <trkpt lat="36.87702965922653675079345703125" lon="-5.42417504824697971343994140625">
        <ele>347</ele>
        <time>2019-11-02T11:22:44.000Z</time>
      </trkpt>
      <trkpt lat="36.8771028332412242889404296875" lon="-5.424428097903728485107421875">
        <ele>347</ele>
        <time>2019-11-02T11:22:50.000Z</time>
      </trkpt>
      <trkpt lat="36.8771658651530742645263671875" lon="-5.4246642999351024627685546875">
        <ele>347</ele>
        <time>2019-11-02T11:22:56.000Z</time>
      </trkpt>
      <trkpt lat="36.87720601446926593780517578125" lon="-5.4248091392219066619873046875">
        <ele>346.600006103515625</ele>
        <time>2019-11-02T11:23:02.000Z</time>
      </trkpt>
      <trkpt lat="36.87722043134272098541259765625" lon="-5.42481626383960247039794921875">
        <ele>346.600006103515625</ele>
        <time>2019-11-02T11:23:07.000Z</time>
      </trkpt>
      <trkpt lat="36.87718237750232219696044921875" lon="-5.4248818941414356231689453125">
        <ele>346.399993896484375</ele>
        <time>2019-11-02T11:24:05.000Z</time>
      </trkpt>
      <trkpt lat="36.87700786627829074859619140625" lon="-5.4249848239123821258544921875">
        <ele>346.399993896484375</ele>
        <time>2019-11-02T11:24:13.000Z</time>
      </trkpt>
      <trkpt lat="36.876851879060268402099609375" lon="-5.42512656189501285552978515625">
        <ele>347</ele>
        <time>2019-11-02T11:24:23.000Z</time>
      </trkpt>
      <trkpt lat="36.87684508971869945526123046875" lon="-5.42514231987297534942626953125">
        <ele>347</ele>
        <time>2019-11-02T11:24:24.000Z</time>
      </trkpt>
      <trkpt lat="36.87684525735676288604736328125" lon="-5.42518003843724727630615234375">
        <ele>346.79998779296875</ele>
        <time>2019-11-02T11:24:30.000Z</time>
      </trkpt>
      <trkpt lat="36.8768688105046749114990234375" lon="-5.42531448416411876678466796875">
        <ele>345.600006103515625</ele>
        <time>2019-11-03T08:22:43.000Z</time>
      </trkpt>
      <trkpt lat="36.877002753317356109619140625" lon="-5.42522027157247066497802734375">
        <ele>345.399993896484375</ele>
        <time>2019-11-03T08:22:46.000Z</time>
      </trkpt>
      <trkpt lat="36.877022869884967803955078125" lon="-5.42525229044258594512939453125">
        <ele>345.20001220703125</ele>
        <time>2019-11-03T08:22:56.000Z</time>
      </trkpt>
      <trkpt lat="36.8768758513033390045166015625" lon="-5.42529302649199962615966796875">
        <ele>345.79998779296875</ele>
        <time>2019-11-03T08:23:05.000Z</time>
      </trkpt>
      <trkpt lat="36.87707659788429737091064453125" lon="-5.42523317970335483551025390625">
        <ele>345</ele>
        <time>2019-11-03T08:23:08.000Z</time>
      </trkpt>
      <trkpt lat="36.87693561427295207977294921875" lon="-5.4251668788492679595947265625">
        <ele>346.20001220703125</ele>
        <time>2019-11-03T08:23:23.000Z</time>
      </trkpt>
      <trkpt lat="36.87686269171535968780517578125" lon="-5.4251316748559474945068359375">
        <ele>347</ele>
        <time>2019-11-03T08:23:33.000Z</time>
      </trkpt>
      <trkpt lat="36.87682765536010265350341796875" lon="-5.42517601512372493743896484375">
        <ele>347</ele>
        <time>2019-11-03T08:23:42.000Z</time>
      </trkpt>
      <trkpt lat="36.876827068626880645751953125" lon="-5.42517869733273983001708984375">
        <ele>347</ele>
        <time>2019-11-03T08:23:43.000Z</time>
      </trkpt>
      <trkpt lat="36.8768401443958282470703125" lon="-5.42515070177614688873291015625">
        <ele>347</ele>
        <time>2019-11-03T08:23:50.000Z</time>
      </trkpt>
      <trkpt lat="36.87684408389031887054443359375" lon="-5.4251467622816562652587890625">
        <ele>347</ele>
        <time>2019-11-03T08:23:51.000Z</time>
      </trkpt>
      <trkpt lat="36.8768802098929882049560546875" lon="-5.42496420443058013916015625">
        <ele>347.79998779296875</ele>
        <time>2019-11-03T08:24:15.000Z</time>
      </trkpt>
      <trkpt lat="36.8769539706408977508544921875" lon="-5.424968563020229339599609375">
        <ele>347</ele>
        <time>2019-11-03T08:24:19.000Z</time>
      </trkpt>
      <trkpt lat="36.87713208608329296112060546875" lon="-5.42495892383158206939697265625">
        <ele>346</ele>
        <time>2019-11-03T08:24:30.000Z</time>
      </trkpt>
      <trkpt lat="36.8771378695964813232421875" lon="-5.424961186945438385009765625">
        <ele>346</ele>
        <time>2019-11-03T08:24:32.000Z</time>
      </trkpt>
      <trkpt lat="36.8771440722048282623291015625" lon="-5.4249519668519496917724609375">
        <ele>346</ele>
        <time>2019-11-03T08:24:34.000Z</time>
      </trkpt>
      <trkpt lat="36.8772151507437229156494140625" lon="-5.42492405511438846588134765625">
        <ele>346.20001220703125</ele>
        <time>2019-11-03T08:24:46.000Z</time>
      </trkpt>
      <trkpt lat="36.87725613825023174285888671875" lon="-5.42501508258283138275146484375">
        <ele>345.79998779296875</ele>
        <time>2019-11-03T08:24:50.000Z</time>
      </trkpt>
      <trkpt lat="36.87731464393436908721923828125" lon="-5.42522714473307132720947265625">
        <ele>345.20001220703125</ele>
        <time>2019-11-03T08:24:57.000Z</time>
      </trkpt>
      <trkpt lat="36.877382956445217132568359375" lon="-5.42547642253339290618896484375">
        <ele>343.79998779296875</ele>
        <time>2019-11-03T08:25:05.000Z</time>
      </trkpt>
      <trkpt lat="36.8774511851370334625244140625" lon="-5.4257083497941493988037109375">
        <ele>343.79998779296875</ele>
        <time>2019-11-03T08:25:11.000Z</time>
      </trkpt>
      <trkpt lat="36.8775267899036407470703125" lon="-5.42593893595039844512939453125">
        <ele>343.399993896484375</ele>
        <time>2019-11-03T08:25:17.000Z</time>
      </trkpt>
      <trkpt lat="36.87760792672634124755859375" lon="-5.426155440509319305419921875">
        <ele>343.79998779296875</ele>
        <time>2019-11-03T08:25:25.000Z</time>
      </trkpt>
      <trkpt lat="36.87760733999311923980712890625" lon="-5.4261603020131587982177734375">
        <ele>343.79998779296875</ele>
        <time>2019-11-03T08:25:26.000Z</time>
      </trkpt>
      <trkpt lat="36.87760985456407070159912109375" lon="-5.426155440509319305419921875">
        <ele>343.79998779296875</ele>
        <time>2019-11-03T08:25:30.000Z</time>
      </trkpt>
      <trkpt lat="36.87765629030764102935791015625" lon="-5.42633221484720706939697265625">
        <ele>343.79998779296875</ele>
        <time>2019-11-03T08:25:45.000Z</time>
      </trkpt>
      <trkpt lat="36.87772787176072597503662109375" lon="-5.42653924785554409027099609375">
        <ele>344.79998779296875</ele>
        <time>2019-11-03T08:25:51.000Z</time>
      </trkpt>
      <trkpt lat="36.87780112959444522857666015625" lon="-5.426768995821475982666015625">
        <ele>345.20001220703125</ele>
        <time>2019-11-03T08:25:57.000Z</time>
      </trkpt>
      <trkpt lat="36.87787924893200397491455078125" lon="-5.42698332108557224273681640625">
        <ele>346.79998779296875</ele>
        <time>2019-11-03T08:26:02.000Z</time>
      </trkpt>
      <trkpt lat="36.87795736826956272125244140625" lon="-5.427202172577381134033203125">
        <ele>347</ele>
        <time>2019-11-03T08:26:07.000Z</time>
      </trkpt>
      <trkpt lat="36.878052838146686553955078125" lon="-5.42743460275232791900634765625">
        <ele>348</ele>
        <time>2019-11-03T08:26:12.000Z</time>
      </trkpt>
      <trkpt lat="36.8781395070254802703857421875" lon="-5.42763233184814453125">
        <ele>348.20001220703125</ele>
        <time>2019-11-03T08:26:16.000Z</time>
      </trkpt>
      <trkpt lat="36.87822441570460796356201171875" lon="-5.4278393648564815521240234375">
        <ele>348</ele>
        <time>2019-11-03T08:26:20.000Z</time>
      </trkpt>
      <trkpt lat="36.8783046305179595947265625" lon="-5.42805117554962635040283203125">
        <ele>347</ele>
        <time>2019-11-03T08:26:24.000Z</time>
      </trkpt>
      <trkpt lat="36.87839725054800510406494140625" lon="-5.42826793156564235687255859375">
        <ele>345.399993896484375</ele>
        <time>2019-11-03T08:26:28.000Z</time>
      </trkpt>
      <trkpt lat="36.87849783338606357574462890625" lon="-5.42849692516028881072998046875">
        <ele>344.600006103515625</ele>
        <time>2019-11-03T08:26:32.000Z</time>
      </trkpt>
      <trkpt lat="36.87860880978405475616455078125" lon="-5.42872424237430095672607421875">
        <ele>344</ele>
        <time>2019-11-03T08:26:36.000Z</time>
      </trkpt>
      <trkpt lat="36.8787312693893909454345703125" lon="-5.42897150851786136627197265625">
        <ele>343.20001220703125</ele>
        <time>2019-11-03T08:26:40.000Z</time>
      </trkpt>
      <trkpt lat="36.87883243896067142486572265625" lon="-5.429168231785297393798828125">
        <ele>343.79998779296875</ele>
        <time>2019-11-03T08:26:43.000Z</time>
      </trkpt>
      <trkpt lat="36.8789408169686794281005859375" lon="-5.429369397461414337158203125">
        <ele>343.20001220703125</ele>
        <time>2019-11-03T08:26:46.000Z</time>
      </trkpt>
      <trkpt lat="36.8790645338594913482666015625" lon="-5.42957215569913387298583984375">
        <ele>341.20001220703125</ele>
        <time>2019-11-03T08:26:49.000Z</time>
      </trkpt>
      <trkpt lat="36.87920627184212207794189453125" lon="-5.42978891171514987945556640625">
        <ele>339.79998779296875</ele>
        <time>2019-11-03T08:26:52.000Z</time>
      </trkpt>
      <trkpt lat="36.87937726266682147979736328125" lon="-5.43000617064535617828369140625">
        <ele>338.79998779296875</ele>
        <time>2019-11-03T08:26:55.000Z</time>
      </trkpt>
      <trkpt lat="36.87956417910754680633544921875" lon="-5.43020968325436115264892578125">
        <ele>339</ele>
        <time>2019-11-03T08:26:58.000Z</time>
      </trkpt>
      <trkpt lat="36.87977171503007411956787109375" lon="-5.4304079152643680572509765625">
        <ele>337.600006103515625</ele>
        <time>2019-11-03T08:27:01.000Z</time>
      </trkpt>
      <trkpt lat="36.87999148853123188018798828125" lon="-5.43059022165834903717041015625">
        <ele>335.79998779296875</ele>
        <time>2019-11-03T08:27:04.000Z</time>
      </trkpt>
      <trkpt lat="36.88022266142070293426513671875" lon="-5.4307602904736995697021484375">
        <ele>333.600006103515625</ele>
        <time>2019-11-03T08:27:07.000Z</time>
      </trkpt>
      <trkpt lat="36.88038040883839130401611328125" lon="-5.43087788857519626617431640625">
        <ele>331.79998779296875</ele>
        <time>2019-11-03T08:27:09.000Z</time>
      </trkpt>
      <trkpt lat="36.8805417604744434356689453125" lon="-5.43099707923829555511474609375">
        <ele>330.399993896484375</ele>
        <time>2019-11-03T08:27:11.000Z</time>
      </trkpt>
      <trkpt lat="36.880702860653400421142578125" lon="-5.43111911974847316741943359375">
        <ele>328.600006103515625</ele>
        <time>2019-11-03T08:27:13.000Z</time>
      </trkpt>
      <trkpt lat="36.88086421228945255279541015625" lon="-5.43124736286699771881103515625">
        <ele>329</ele>
        <time>2019-11-03T08:27:15.000Z</time>
      </trkpt>
      <trkpt lat="36.88101944513618946075439453125" lon="-5.43139471672475337982177734375">
        <ele>327.20001220703125</ele>
        <time>2019-11-03T08:27:17.000Z</time>
      </trkpt>
      <trkpt lat="36.8811737559735774993896484375" lon="-5.4315508715808391571044921875">
        <ele>326.20001220703125</ele>
        <time>2019-11-03T08:27:19.000Z</time>
      </trkpt>
      <trkpt lat="36.8813266418874263763427734375" lon="-5.43172739446163177490234375">
        <ele>324.399993896484375</ele>
        <time>2019-11-03T08:27:21.000Z</time>
      </trkpt>
      <trkpt lat="36.881463937461376190185546875" lon="-5.43192395009100437164306640625">
        <ele>321.79998779296875</ele>
        <time>2019-11-03T08:27:23.000Z</time>
      </trkpt>
      <trkpt lat="36.88158472068607807159423828125" lon="-5.432135425508022308349609375">
        <ele>320.20001220703125</ele>
        <time>2019-11-03T08:27:25.000Z</time>
      </trkpt>
      <trkpt lat="36.8816937692463397979736328125" lon="-5.4323645867407321929931640625">
        <ele>318.399993896484375</ele>
        <time>2019-11-03T08:27:27.000Z</time>
      </trkpt>
      <trkpt lat="36.881791837513446807861328125" lon="-5.432601459324359893798828125">
        <ele>316.399993896484375</ele>
        <time>2019-11-03T08:27:29.000Z</time>
      </trkpt>
      <trkpt lat="36.88187657855451107025146484375" lon="-5.43285199441015720367431640625">
        <ele>316.20001220703125</ele>
        <time>2019-11-03T08:27:31.000Z</time>
      </trkpt>
      <trkpt lat="36.881944052875041961669921875" lon="-5.43311468325555324554443359375">
        <ele>315.600006103515625</ele>
        <time>2019-11-03T08:27:33.000Z</time>
      </trkpt>
      <trkpt lat="36.88199878670275211334228515625" lon="-5.43338298797607421875">
        <ele>315.399993896484375</ele>
        <time>2019-11-03T08:27:35.000Z</time>
      </trkpt>
      <trkpt lat="36.88202410005033016204833984375" lon="-5.43365992605686187744140625">
        <ele>314.600006103515625</ele>
        <time>2019-11-03T08:27:37.000Z</time>
      </trkpt>
      <trkpt lat="36.88203223049640655517578125" lon="-5.43393694795668125152587890625">
        <ele>313.399993896484375</ele>
        <time>2019-11-03T08:27:39.000Z</time>
      </trkpt>
      <trkpt lat="36.88203030265867710113525390625" lon="-5.43421505950391292572021484375">
        <ele>311.79998779296875</ele>
        <time>2019-11-03T08:27:41.000Z</time>
      </trkpt>
      <trkpt lat="36.88201605342328548431396484375" lon="-5.434493087232112884521484375">
        <ele>311.399993896484375</ele>
        <time>2019-11-03T08:27:43.000Z</time>
      </trkpt>
      <trkpt lat="36.88198864459991455078125" lon="-5.43477698229253292083740234375">
        <ele>309.79998779296875</ele>
        <time>2019-11-03T08:27:45.000Z</time>
      </trkpt>
      <trkpt lat="36.881952099502086639404296875" lon="-5.43505408801138401031494140625">
        <ele>308.399993896484375</ele>
        <time>2019-11-03T08:27:47.000Z</time>
      </trkpt>
      <trkpt lat="36.88189753331243991851806640625" lon="-5.435334630310535430908203125">
        <ele>306.600006103515625</ele>
        <time>2019-11-03T08:27:49.000Z</time>
      </trkpt>
      <trkpt lat="36.8818520195782184600830078125" lon="-5.4356110654771327972412109375">
        <ele>305.20001220703125</ele>
        <time>2019-11-03T08:27:51.000Z</time>
      </trkpt>
      <trkpt lat="36.881801225244998931884765625" lon="-5.43589152395725250244140625">
        <ele>303.600006103515625</ele>
        <time>2019-11-03T08:27:53.000Z</time>
      </trkpt>
      <trkpt lat="36.881737522780895233154296875" lon="-5.43617273680865764617919921875">
        <ele>302.20001220703125</ele>
        <time>2019-11-03T08:27:55.000Z</time>
      </trkpt>
      <trkpt lat="36.88167675398290157318115234375" lon="-5.436453782021999359130859375">
        <ele>300</ele>
        <time>2019-11-03T08:27:57.000Z</time>
      </trkpt>
      <trkpt lat="36.8816092796623706817626953125" lon="-5.4367352463304996490478515625">
        <ele>297.79998779296875</ele>
        <time>2019-11-03T08:27:59.000Z</time>
      </trkpt>
      <trkpt lat="36.88152956776320934295654296875" lon="-5.43701939284801483154296875">
        <ele>295.20001220703125</ele>
        <time>2019-11-03T08:28:01.000Z</time>
      </trkpt>
      <trkpt lat="36.8814627639949321746826171875" lon="-5.43730379082262516021728515625">
        <ele>293.79998779296875</ele>
        <time>2019-11-03T08:28:03.000Z</time>
      </trkpt>
      <trkpt lat="36.8813950382173061370849609375" lon="-5.43758709914982318878173828125">
        <ele>293.600006103515625</ele>
        <time>2019-11-03T08:28:05.000Z</time>
      </trkpt>
      <trkpt lat="36.881330497562885284423828125" lon="-5.43786537833511829376220703125">
        <ele>293.79998779296875</ele>
        <time>2019-11-03T08:28:07.000Z</time>
      </trkpt>
      <trkpt lat="36.8812763504683971405029296875" lon="-5.43814097531139850616455078125">
        <ele>294.20001220703125</ele>
        <time>2019-11-03T08:28:09.000Z</time>
      </trkpt>
      <trkpt lat="36.88122580759227275848388671875" lon="-5.4384159855544567108154296875">
        <ele>294.20001220703125</ele>
        <time>2019-11-03T08:28:11.000Z</time>
      </trkpt>
      <trkpt lat="36.8811851553618907928466796875" lon="-5.43868931941688060760498046875">
        <ele>293</ele>
        <time>2019-11-03T08:28:13.000Z</time>
      </trkpt>
      <trkpt lat="36.88116109929978847503662109375" lon="-5.43896441347897052764892578125">
        <ele>290.399993896484375</ele>
        <time>2019-11-03T08:28:15.000Z</time>
      </trkpt>
      <trkpt lat="36.88115556724369525909423828125" lon="-5.43924168683588504791259765625">
        <ele>286.600006103515625</ele>
        <time>2019-11-03T08:28:17.000Z</time>
      </trkpt>
      <trkpt lat="36.8811740912497043609619140625" lon="-5.43952566571533679962158203125">
        <ele>283</ele>
        <time>2019-11-03T08:28:19.000Z</time>
      </trkpt>
      <trkpt lat="36.88120502047240734100341796875" lon="-5.43981031514704227447509765625">
        <ele>281.79998779296875</ele>
        <time>2019-11-03T08:28:21.000Z</time>
      </trkpt>
      <trkpt lat="36.8812389671802520751953125" lon="-5.44009211473166942596435546875">
        <ele>281.79998779296875</ele>
        <time>2019-11-03T08:28:23.000Z</time>
      </trkpt>
      <trkpt lat="36.88128682784736156463623046875" lon="-5.44037508778274059295654296875">
        <ele>282</ele>
        <time>2019-11-03T08:28:25.000Z</time>
      </trkpt>
      <trkpt lat="36.8813423998653888702392578125" lon="-5.44065512716770172119140625">
        <ele>280.399993896484375</ele>
        <time>2019-11-03T08:28:27.000Z</time>
      </trkpt>
      <trkpt lat="36.8813900090754032135009765625" lon="-5.44093902222812175750732421875">
        <ele>278.600006103515625</ele>
        <time>2019-11-03T08:28:29.000Z</time>
      </trkpt>
      <trkpt lat="36.88144289888441562652587890625" lon="-5.44122241437435150146484375">
        <ele>278.20001220703125</ele>
        <time>2019-11-03T08:28:31.000Z</time>
      </trkpt>
      <trkpt lat="36.88149821944534778594970703125" lon="-5.44150362722575664520263671875">
        <ele>279.399993896484375</ele>
        <time>2019-11-03T08:28:33.000Z</time>
      </trkpt>
      <trkpt lat="36.88156929798424243927001953125" lon="-5.44177838601171970367431640625">
        <ele>281.600006103515625</ele>
        <time>2019-11-03T08:28:35.000Z</time>
      </trkpt>
      <trkpt lat="36.8816578947007656097412109375" lon="-5.44204425998032093048095703125">
        <ele>282.20001220703125</ele>
        <time>2019-11-03T08:28:37.000Z</time>
      </trkpt>
      <trkpt lat="36.88176174648106098175048828125" lon="-5.44229689054191112518310546875">
        <ele>279.79998779296875</ele>
        <time>2019-11-03T08:28:39.000Z</time>
      </trkpt>
      <trkpt lat="36.8818795122206211090087890625" lon="-5.44254206120967864990234375">
        <ele>278.20001220703125</ele>
        <time>2019-11-03T08:28:41.000Z</time>
      </trkpt>
      <trkpt lat="36.88201370649039745330810546875" lon="-5.44277549721300601959228515625">
        <ele>276.399993896484375</ele>
        <time>2019-11-03T08:28:43.000Z</time>
      </trkpt>
      <trkpt lat="36.88216223381459712982177734375" lon="-5.4429973661899566650390625">
        <ele>275.600006103515625</ele>
        <time>2019-11-03T08:28:45.000Z</time>
      </trkpt>
      <trkpt lat="36.88231260515749454498291015625" lon="-5.4432161338627338409423828125">
        <ele>273.79998779296875</ele>
        <time>2019-11-03T08:28:47.000Z</time>
      </trkpt>
      <trkpt lat="36.8824655748903751373291015625" lon="-5.44343532063066959381103515625">
        <ele>272.600006103515625</ele>
        <time>2019-11-03T08:28:49.000Z</time>
      </trkpt>
      <trkpt lat="36.8826157785952091217041015625" lon="-5.443661212921142578125">
        <ele>273.600006103515625</ele>
        <time>2019-11-03T08:28:51.000Z</time>
      </trkpt>
      <trkpt lat="36.8827478773891925811767578125" lon="-5.44389599002897739410400390625">
        <ele>272.399993896484375</ele>
        <time>2019-11-03T08:28:53.000Z</time>
      </trkpt>
      <trkpt lat="36.88286514021456241607666015625" lon="-5.44414862059056758880615234375">
        <ele>269.20001220703125</ele>
        <time>2019-11-03T08:28:55.000Z</time>
      </trkpt>
      <trkpt lat="36.8829651363193988800048828125" lon="-5.44441214762628078460693359375">
        <ele>265</ele>
        <time>2019-11-03T08:28:57.000Z</time>
      </trkpt>
      <trkpt lat="36.8830486200749874114990234375" lon="-5.4446853138506412506103515625">
        <ele>259.79998779296875</ele>
        <time>2019-11-03T08:28:59.000Z</time>
      </trkpt>
      <trkpt lat="36.88311240635812282562255859375" lon="-5.44496367685496807098388671875">
        <ele>257.600006103515625</ele>
        <time>2019-11-03T08:29:01.000Z</time>
      </trkpt>
      <trkpt lat="36.88315666280686855316162109375" lon="-5.445244051516056060791015625">
        <ele>257</ele>
        <time>2019-11-03T08:29:03.000Z</time>
      </trkpt>
      <trkpt lat="36.88317962922155857086181640625" lon="-5.44552375562489032745361328125">
        <ele>258.399993896484375</ele>
        <time>2019-11-03T08:29:05.000Z</time>
      </trkpt>
      <trkpt lat="36.883194632828235626220703125" lon="-5.44579734094440937042236328125">
        <ele>257.79998779296875</ele>
        <time>2019-11-03T08:29:07.000Z</time>
      </trkpt>
      <trkpt lat="36.883210055530071258544921875" lon="-5.446064807474613189697265625">
        <ele>255</ele>
        <time>2019-11-03T08:29:09.000Z</time>
      </trkpt>
      <trkpt lat="36.8832246400415897369384765625" lon="-5.44632305391132831573486328125">
        <ele>253.399993896484375</ele>
        <time>2019-11-03T08:29:11.000Z</time>
      </trkpt>
      <trkpt lat="36.88324064947664737701416015625" lon="-5.44657208025455474853515625">
        <ele>251.8000030517578125</ele>
        <time>2019-11-03T08:29:13.000Z</time>
      </trkpt>
      <trkpt lat="36.88326361589133739471435546875" lon="-5.44681138359010219573974609375">
        <ele>250.600006103515625</ele>
        <time>2019-11-03T08:29:15.000Z</time>
      </trkpt>
      <trkpt lat="36.8832829780876636505126953125" lon="-5.44703953899443149566650390625">
        <ele>249.399993896484375</ele>
        <time>2019-11-03T08:29:17.000Z</time>
      </trkpt>
      <trkpt lat="36.8833242170512676239013671875" lon="-5.4473470710217952728271484375">
        <ele>247.399993896484375</ele>
        <time>2019-11-03T08:29:20.000Z</time>
      </trkpt>
      <trkpt lat="36.88337777741253376007080078125" lon="-5.44759240932762622833251953125">
        <ele>244.1999969482421875</ele>
        <time>2019-11-03T08:29:23.000Z</time>
      </trkpt>
      <trkpt lat="36.883442737162113189697265625" lon="-5.4478462971746921539306640625">
        <ele>241.399993896484375</ele>
        <time>2019-11-03T08:29:27.000Z</time>
      </trkpt>
      <trkpt lat="36.88351708464324474334716796875" lon="-5.44810085557401180267333984375">
        <ele>239.8000030517578125</ele>
        <time>2019-11-03T08:29:32.000Z</time>
      </trkpt>
      <trkpt lat="36.88358279876410961151123046875" lon="-5.44831660576164722442626953125">
        <ele>239</ele>
        <time>2019-11-03T08:29:37.000Z</time>
      </trkpt>
      <trkpt lat="36.88367717899382114410400390625" lon="-5.44855381362140178680419921875">
        <ele>239.600006103515625</ele>
        <time>2019-11-03T08:29:43.000Z</time>
      </trkpt>
      <trkpt lat="36.8837226927280426025390625" lon="-5.448658503592014312744140625">
        <ele>240.600006103515625</ele>
        <time>2019-11-03T08:29:46.000Z</time>
      </trkpt>
      <trkpt lat="36.8838137201964855194091796875" lon="-5.448853969573974609375">
        <ele>243</ele>
        <time>2019-11-03T08:29:52.000Z</time>
      </trkpt>
      <trkpt lat="36.88391757197678089141845703125" lon="-5.4490579850971698760986328125">
        <ele>247.1999969482421875</ele>
        <time>2019-11-03T08:29:59.000Z</time>
      </trkpt>
      <trkpt lat="36.88394607044756412506103515625" lon="-5.44911204837262630462646484375">
        <ele>248.600006103515625</ele>
        <time>2019-11-03T08:30:01.000Z</time>
      </trkpt>
      <trkpt lat="36.88405930995941162109375" lon="-5.44931505806744098663330078125">
        <ele>252.399993896484375</ele>
        <time>2019-11-03T08:30:09.000Z</time>
      </trkpt>
      <trkpt lat="36.8841107748448848724365234375" lon="-5.44940357096493244171142578125">
        <ele>254.600006103515625</ele>
        <time>2019-11-03T08:30:13.000Z</time>
      </trkpt>
      <trkpt lat="36.88423289917409420013427734375" lon="-5.44959635473787784576416015625">
        <ele>258.79998779296875</ele>
        <time>2019-11-03T08:30:21.000Z</time>
      </trkpt>
      <trkpt lat="36.8842985294759273529052734375" lon="-5.4496758989989757537841796875">
        <ele>260.399993896484375</ele>
        <time>2019-11-03T08:30:25.000Z</time>
      </trkpt>
      <trkpt lat="36.88443557359278202056884765625" lon="-5.449836663901805877685546875">
        <ele>264.79998779296875</ele>
        <time>2019-11-03T08:30:33.000Z</time>
      </trkpt>
      <trkpt lat="36.8845903873443603515625" lon="-5.44999516569077968597412109375">
        <ele>268.600006103515625</ele>
        <time>2019-11-03T08:30:42.000Z</time>
      </trkpt>
      <trkpt lat="36.88472114503383636474609375" lon="-5.45015023089945316314697265625">
        <ele>274.79998779296875</ele>
        <time>2019-11-03T08:30:50.000Z</time>
      </trkpt>
      <trkpt lat="36.88486187718808650970458984375" lon="-5.45030035078525543212890625">
        <ele>279.20001220703125</ele>
        <time>2019-11-03T08:30:59.000Z</time>
      </trkpt>
      <trkpt lat="36.88500772230327129364013671875" lon="-5.4504426755011081695556640625">
        <ele>283</ele>
        <time>2019-11-03T08:31:07.000Z</time>
      </trkpt>
      <trkpt lat="36.885151304304599761962890625" lon="-5.4505824856460094451904296875">
        <ele>284</ele>
        <time>2019-11-03T08:31:16.000Z</time>
      </trkpt>
      <trkpt lat="36.88528709113597869873046875" lon="-5.4507320187985897064208984375">
        <ele>285.79998779296875</ele>
        <time>2019-11-03T08:31:24.000Z</time>
      </trkpt>
      <trkpt lat="36.8854431621730327606201171875" lon="-5.4508879221975803375244140625">
        <ele>288</ele>
        <time>2019-11-03T08:31:34.000Z</time>
      </trkpt>
      <trkpt lat="36.885592527687549591064453125" lon="-5.45102722942829132080078125">
        <ele>290.20001220703125</ele>
        <time>2019-11-03T08:31:43.000Z</time>
      </trkpt>
      <trkpt lat="36.88575002364814281463623046875" lon="-5.4511779360473155975341796875">
        <ele>291.600006103515625</ele>
        <time>2019-11-03T08:31:52.000Z</time>
      </trkpt>
      <trkpt lat="36.88589285127818584442138671875" lon="-5.45131984166800975799560546875">
        <ele>293.600006103515625</ele>
        <time>2019-11-03T08:32:00.000Z</time>
      </trkpt>
      <trkpt lat="36.88602981157600879669189453125" lon="-5.451478846371173858642578125">
        <ele>293.79998779296875</ele>
        <time>2019-11-03T08:32:09.000Z</time>
      </trkpt>
      <trkpt lat="36.88619367778301239013671875" lon="-5.4516218416392803192138671875">
        <ele>294.79998779296875</ele>
        <time>2019-11-03T08:32:19.000Z</time>
      </trkpt>
      <trkpt lat="36.88634480349719524383544921875" lon="-5.45178093016147613525390625">
        <ele>297.20001220703125</ele>
        <time>2019-11-03T08:32:28.000Z</time>
      </trkpt>
      <trkpt lat="36.88648603856563568115234375" lon="-5.451929457485675811767578125">
        <ele>298</ele>
        <time>2019-11-03T08:32:37.000Z</time>
      </trkpt>
      <trkpt lat="36.8866248428821563720703125" lon="-5.4520999453961849212646484375">
        <ele>301.79998779296875</ele>
        <time>2019-11-03T08:32:47.000Z</time>
      </trkpt>
      <trkpt lat="36.886760294437408447265625" lon="-5.45226733200252056121826171875">
        <ele>303</ele>
        <time>2019-11-03T08:32:57.000Z</time>
      </trkpt>
      <trkpt lat="36.88689909875392913818359375" lon="-5.45244167558848857879638671875">
        <ele>305.399993896484375</ele>
        <time>2019-11-03T08:33:07.000Z</time>
      </trkpt>
      <trkpt lat="36.88703186810016632080078125" lon="-5.45260411687195301055908203125">
        <ele>307.79998779296875</ele>
        <time>2019-11-03T08:33:16.000Z</time>
      </trkpt>
      <trkpt lat="36.887163631618022918701171875" lon="-5.45278047211468219757080078125">
        <ele>310</ele>
        <time>2019-11-03T08:33:26.000Z</time>
      </trkpt>
      <trkpt lat="36.88729581423103809356689453125" lon="-5.4529512114822864532470703125">
        <ele>311.399993896484375</ele>
        <time>2019-11-03T08:33:36.000Z</time>
      </trkpt>
      <trkpt lat="36.8874206207692623138427734375" lon="-5.45312295667827129364013671875">
        <ele>312.399993896484375</ele>
        <time>2019-11-03T08:33:46.000Z</time>
      </trkpt>
      <trkpt lat="36.8875413201749324798583984375" lon="-5.4533099569380283355712890625">
        <ele>311.600006103515625</ele>
        <time>2019-11-03T08:33:56.000Z</time>
      </trkpt>
      <trkpt lat="36.8876640312373638153076171875" lon="-5.45347516424953937530517578125">
        <ele>311.79998779296875</ele>
        <time>2019-11-03T08:34:06.000Z</time>
      </trkpt>
      <trkpt lat="36.887795627117156982421875" lon="-5.45365805737674236297607421875">
        <ele>312.399993896484375</ele>
        <time>2019-11-03T08:34:16.000Z</time>
      </trkpt>
      <trkpt lat="36.887915320694446563720703125" lon="-5.45386056415736675262451171875">
        <ele>313.600006103515625</ele>
        <time>2019-11-03T08:34:26.000Z</time>
      </trkpt>
      <trkpt lat="36.88801984302699565887451171875" lon="-5.454055108129978179931640625">
        <ele>316.79998779296875</ele>
        <time>2019-11-03T08:34:35.000Z</time>
      </trkpt>
      <trkpt lat="36.8881357647478580474853515625" lon="-5.454254932701587677001953125">
        <ele>318.20001220703125</ele>
        <time>2019-11-03T08:34:45.000Z</time>
      </trkpt>
      <trkpt lat="36.88825269229710102081298828125" lon="-5.45444511808454990386962890625">
        <ele>319.399993896484375</ele>
        <time>2019-11-03T08:34:53.000Z</time>
      </trkpt>
      <trkpt lat="36.88835687935352325439453125" lon="-5.454648546874523162841796875">
        <ele>321.79998779296875</ele>
        <time>2019-11-03T08:35:02.000Z</time>
      </trkpt>
      <trkpt lat="36.88845134340226650238037109375" lon="-5.45485205948352813720703125">
        <ele>324.600006103515625</ele>
        <time>2019-11-03T08:35:10.000Z</time>
      </trkpt>
      <trkpt lat="36.88854689709842205047607421875" lon="-5.45505682937800884246826171875">
        <ele>327.20001220703125</ele>
        <time>2019-11-03T08:35:17.000Z</time>
      </trkpt>
      <trkpt lat="36.88863893039524555206298828125" lon="-5.4552706517279148101806640625">
        <ele>328.399993896484375</ele>
        <time>2019-11-03T08:35:25.000Z</time>
      </trkpt>
      <trkpt lat="36.88873046077787876129150390625" lon="-5.455477349460124969482421875">
        <ele>329.600006103515625</ele>
        <time>2019-11-03T08:35:33.000Z</time>
      </trkpt>
      <trkpt lat="36.88882601447403430938720703125" lon="-5.4556736536324024200439453125">
        <ele>332.79998779296875</ele>
        <time>2019-11-03T08:35:41.000Z</time>
      </trkpt>
      <trkpt lat="36.888920478522777557373046875" lon="-5.45586702413856983184814453125">
        <ele>332.399993896484375</ele>
        <time>2019-11-03T08:35:48.000Z</time>
      </trkpt>
      <trkpt lat="36.88902952708303928375244140625" lon="-5.45607657171785831451416015625">
        <ele>332.399993896484375</ele>
        <time>2019-11-03T08:35:56.000Z</time>
      </trkpt>
      <trkpt lat="36.8891442753374576568603515625" lon="-5.45627857558429241180419921875">
        <ele>333.20001220703125</ele>
        <time>2019-11-03T08:36:04.000Z</time>
      </trkpt>
      <trkpt lat="36.8892569281160831451416015625" lon="-5.45646800659596920013427734375">
        <ele>329.399993896484375</ele>
        <time>2019-11-03T08:36:12.000Z</time>
      </trkpt>
      <trkpt lat="36.88937989063560962677001953125" lon="-5.4566657356917858123779296875">
        <ele>326.20001220703125</ele>
        <time>2019-11-03T08:36:20.000Z</time>
      </trkpt>
      <trkpt lat="36.88949882984161376953125" lon="-5.45683563686907291412353515625">
        <ele>323.20001220703125</ele>
        <time>2019-11-03T08:36:27.000Z</time>
      </trkpt>
      <trkpt lat="36.889641322195529937744140625" lon="-5.45701752416789531707763671875">
        <ele>321</ele>
        <time>2019-11-03T08:36:35.000Z</time>
      </trkpt>
      <trkpt lat="36.8897930346429347991943359375" lon="-5.45718558132648468017578125">
        <ele>321.79998779296875</ele>
        <time>2019-11-03T08:36:43.000Z</time>
      </trkpt>
      <trkpt lat="36.88994608819484710693359375" lon="-5.45733687467873096466064453125">
        <ele>323</ele>
        <time>2019-11-03T08:36:51.000Z</time>
      </trkpt>
      <trkpt lat="36.89010106958448886871337890625" lon="-5.4574781097471714019775390625">
        <ele>324.79998779296875</ele>
        <time>2019-11-03T08:36:59.000Z</time>
      </trkpt>
      <trkpt lat="36.89025982283055782318115234375" lon="-5.4576078616082668304443359375">
        <ele>325.20001220703125</ele>
        <time>2019-11-03T08:37:07.000Z</time>
      </trkpt>
      <trkpt lat="36.89042259939014911651611328125" lon="-5.45773585326969623565673828125">
        <ele>324.79998779296875</ele>
        <time>2019-11-03T08:37:15.000Z</time>
      </trkpt>
      <trkpt lat="36.890596188604831695556640625" lon="-5.45786510221660137176513671875">
        <ele>325.399993896484375</ele>
        <time>2019-11-03T08:37:24.000Z</time>
      </trkpt>
      <trkpt lat="36.89075854606926441192626953125" lon="-5.4579910822212696075439453125">
        <ele>327.399993896484375</ele>
        <time>2019-11-03T08:37:32.000Z</time>
      </trkpt>
      <trkpt lat="36.89093255437910556793212890625" lon="-5.4581201635301113128662109375">
        <ele>333.79998779296875</ele>
        <time>2019-11-03T08:37:40.000Z</time>
      </trkpt>
      <trkpt lat="36.89108669757843017578125" lon="-5.45823968946933746337890625">
        <ele>334.600006103515625</ele>
        <time>2019-11-03T08:37:48.000Z</time>
      </trkpt>
      <trkpt lat="36.8912370689213275909423828125" lon="-5.45837019570171833038330078125">
        <ele>334.79998779296875</ele>
        <time>2019-11-03T08:37:56.000Z</time>
      </trkpt>
      <trkpt lat="36.8913959898054599761962890625" lon="-5.45852609910070896148681640625">
        <ele>334.79998779296875</ele>
        <time>2019-11-03T08:38:04.000Z</time>
      </trkpt>
      <trkpt lat="36.891539990901947021484375" lon="-5.45869222842156887054443359375">
        <ele>336</ele>
        <time>2019-11-03T08:38:12.000Z</time>
      </trkpt>
      <trkpt lat="36.89166731201112270355224609375" lon="-5.458867661654949188232421875">
        <ele>339</ele>
        <time>2019-11-03T08:38:20.000Z</time>
      </trkpt>
      <trkpt lat="36.89177342690527439117431640625" lon="-5.45905239880084991455078125">
        <ele>341.79998779296875</ele>
        <time>2019-11-03T08:38:28.000Z</time>
      </trkpt>
      <trkpt lat="36.89187719486653804779052734375" lon="-5.4592597670853137969970703125">
        <ele>343.600006103515625</ele>
        <time>2019-11-03T08:38:36.000Z</time>
      </trkpt>
      <trkpt lat="36.89196637831628322601318359375" lon="-5.45945607125759124755859375">
        <ele>342.79998779296875</ele>
        <time>2019-11-03T08:38:43.000Z</time>
      </trkpt>
      <trkpt lat="36.89204466529190540313720703125" lon="-5.459670312702655792236328125">
        <ele>342.79998779296875</ele>
        <time>2019-11-03T08:38:51.000Z</time>
      </trkpt>
      <trkpt lat="36.89210618846118450164794921875" lon="-5.45988178811967372894287109375">
        <ele>342</ele>
        <time>2019-11-03T08:38:58.000Z</time>
      </trkpt>
      <trkpt lat="36.89213745296001434326171875" lon="-5.4601110331714153289794921875">
        <ele>343.79998779296875</ele>
        <time>2019-11-03T08:39:06.000Z</time>
      </trkpt>
      <trkpt lat="36.892163269221782684326171875" lon="-5.46036106534302234649658203125">
        <ele>345.20001220703125</ele>
        <time>2019-11-03T08:39:14.000Z</time>
      </trkpt>
      <trkpt lat="36.89217441715300083160400390625" lon="-5.46058930456638336181640625">
        <ele>345.600006103515625</ele>
        <time>2019-11-03T08:39:21.000Z</time>
      </trkpt>
      <trkpt lat="36.89216234721243381500244140625" lon="-5.4608394205570220947265625">
        <ele>348.79998779296875</ele>
        <time>2019-11-03T08:39:29.000Z</time>
      </trkpt>
      <trkpt lat="36.89213971607387065887451171875" lon="-5.4610675759613513946533203125">
        <ele>354</ele>
        <time>2019-11-03T08:39:36.000Z</time>
      </trkpt>
      <trkpt lat="36.89211674965918064117431640625" lon="-5.46129162423312664031982421875">
        <ele>356.79998779296875</ele>
        <time>2019-11-03T08:39:46.000Z</time>
      </trkpt>
      <trkpt lat="36.89212127588689327239990234375" lon="-5.4613012634217739105224609375">
        <ele>356.600006103515625</ele>
        <time>2019-11-03T08:39:50.000Z</time>
      </trkpt>
      <trkpt lat="36.8921118043363094329833984375" lon="-5.46144635416567325592041015625">
        <ele>356.79998779296875</ele>
        <time>2019-11-03T08:40:14.000Z</time>
      </trkpt>
      <trkpt lat="36.89208406023681163787841796875" lon="-5.461700744926929473876953125">
        <ele>356.79998779296875</ele>
        <time>2019-11-03T08:40:22.000Z</time>
      </trkpt>
      <trkpt lat="36.89205036498606204986572265625" lon="-5.46194692142307758331298828125">
        <ele>356.20001220703125</ele>
        <time>2019-11-03T08:40:29.000Z</time>
      </trkpt>
      <trkpt lat="36.89200870692729949951171875" lon="-5.462176837027072906494140625">
        <ele>359.20001220703125</ele>
        <time>2019-11-03T08:40:35.000Z</time>
      </trkpt>
      <trkpt lat="36.8919626064598560333251953125" lon="-5.46242393553256988525390625">
        <ele>360.399993896484375</ele>
        <time>2019-11-03T08:40:41.000Z</time>
      </trkpt>
      <trkpt lat="36.8919351138174533843994140625" lon="-5.46265284530818462371826171875">
        <ele>358.79998779296875</ele>
        <time>2019-11-03T08:40:46.000Z</time>
      </trkpt>
      <trkpt lat="36.8919109739363193511962890625" lon="-5.46291251666843891143798828125">
        <ele>357.600006103515625</ele>
        <time>2019-11-03T08:40:52.000Z</time>
      </trkpt>
      <trkpt lat="36.89192061312496662139892578125" lon="-5.46315257437527179718017578125">
        <ele>357.600006103515625</ele>
        <time>2019-11-03T08:40:57.000Z</time>
      </trkpt>
      <trkpt lat="36.89193804748356342315673828125" lon="-5.46340872533619403839111328125">
        <ele>358.399993896484375</ele>
        <time>2019-11-03T08:41:02.000Z</time>
      </trkpt>
      <trkpt lat="36.89196738414466381072998046875" lon="-5.46367024071514606475830078125">
        <ele>358.600006103515625</ele>
        <time>2019-11-03T08:41:07.000Z</time>
      </trkpt>
      <trkpt lat="36.8920102156698703765869140625" lon="-5.463922284543514251708984375">
        <ele>357.399993896484375</ele>
        <time>2019-11-03T08:41:12.000Z</time>
      </trkpt>
      <trkpt lat="36.8920695595443248748779296875" lon="-5.464175753295421600341796875">
        <ele>357.600006103515625</ele>
        <time>2019-11-03T08:41:17.000Z</time>
      </trkpt>
      <trkpt lat="36.89213049598038196563720703125" lon="-5.46441740356385707855224609375">
        <ele>359.20001220703125</ele>
        <time>2019-11-03T08:41:22.000Z</time>
      </trkpt>
      <trkpt lat="36.89219553954899311065673828125" lon="-5.46465092338621616363525390625">
        <ele>361</ele>
        <time>2019-11-03T08:41:27.000Z</time>
      </trkpt>
      <trkpt lat="36.89226008020341396331787109375" lon="-5.464890897274017333984375">
        <ele>361.600006103515625</ele>
        <time>2019-11-03T08:41:32.000Z</time>
      </trkpt>
      <trkpt lat="36.89233249984681606292724609375" lon="-5.4651344753801822662353515625">
        <ele>361</ele>
        <time>2019-11-03T08:41:37.000Z</time>
      </trkpt>
      <trkpt lat="36.8923575617372989654541015625" lon="-5.465230531990528106689453125">
        <ele>360.79998779296875</ele>
        <time>2019-11-03T08:41:39.000Z</time>
      </trkpt>
      <trkpt lat="36.89243308268487453460693359375" lon="-5.46548726968467235565185546875">
        <ele>361.600006103515625</ele>
        <time>2019-11-03T08:41:44.000Z</time>
      </trkpt>
      <trkpt lat="36.89251254312694072723388671875" lon="-5.465743839740753173828125">
        <ele>359.20001220703125</ele>
        <time>2019-11-03T08:41:49.000Z</time>
      </trkpt>
      <trkpt lat="36.89259200356900691986083984375" lon="-5.46595196239650249481201171875">
        <ele>357.600006103515625</ele>
        <time>2019-11-03T08:41:53.000Z</time>
      </trkpt>
      <trkpt lat="36.89260943792760372161865234375" lon="-5.46600208617746829986572265625">
        <ele>357.600006103515625</ele>
        <time>2019-11-03T08:41:54.000Z</time>
      </trkpt>
      <trkpt lat="36.892670206725597381591796875" lon="-5.46625454910099506378173828125">
        <ele>358.79998779296875</ele>
        <time>2019-11-03T08:42:00.000Z</time>
      </trkpt>
      <trkpt lat="36.8927320651710033416748046875" lon="-5.46646929346024990081787109375">
        <ele>357.600006103515625</ele>
        <time>2019-11-03T08:42:05.000Z</time>
      </trkpt>
      <trkpt lat="36.8928075022995471954345703125" lon="-5.46669962815940380096435546875">
        <ele>355.79998779296875</ele>
        <time>2019-11-03T08:42:10.000Z</time>
      </trkpt>
      <trkpt lat="36.89289358444511890411376953125" lon="-5.4669516719877719879150390625">
        <ele>356</ele>
        <time>2019-11-03T08:42:15.000Z</time>
      </trkpt>
      <trkpt lat="36.89295980148017406463623046875" lon="-5.4671649076044559478759765625">
        <ele>355.600006103515625</ele>
        <time>2019-11-03T08:42:19.000Z</time>
      </trkpt>
      <trkpt lat="36.893024258315563201904296875" lon="-5.46738610602915287017822265625">
        <ele>354.600006103515625</ele>
        <time>2019-11-03T08:42:23.000Z</time>
      </trkpt>
      <trkpt lat="36.8931008689105510711669921875" lon="-5.4676228947937488555908203125">
        <ele>354</ele>
        <time>2019-11-03T08:42:27.000Z</time>
      </trkpt>
      <trkpt lat="36.89317387528717517852783203125" lon="-5.4678614437580108642578125">
        <ele>353</ele>
        <time>2019-11-03T08:42:31.000Z</time>
      </trkpt>
      <trkpt lat="36.89325232990086078643798828125" lon="-5.468106530606746673583984375">
        <ele>352</ele>
        <time>2019-11-03T08:42:35.000Z</time>
      </trkpt>
      <trkpt lat="36.8933358974754810333251953125" lon="-5.46834633685648441314697265625">
        <ele>350.399993896484375</ele>
        <time>2019-11-03T08:42:39.000Z</time>
      </trkpt>
      <trkpt lat="36.8934089876711368560791015625" lon="-5.46857566572725772857666015625">
        <ele>349.20001220703125</ele>
        <time>2019-11-03T08:42:43.000Z</time>
      </trkpt>
      <trkpt lat="36.8934904597699642181396484375" lon="-5.46880248002707958221435546875">
        <ele>348.20001220703125</ele>
        <time>2019-11-03T08:42:47.000Z</time>
      </trkpt>
      <trkpt lat="36.893573440611362457275390625" lon="-5.4690394364297389984130859375">
        <ele>348</ele>
        <time>2019-11-03T08:42:51.000Z</time>
      </trkpt>
      <trkpt lat="36.893649883568286895751953125" lon="-5.46927890740334987640380859375">
        <ele>346.79998779296875</ele>
        <time>2019-11-03T08:42:55.000Z</time>
      </trkpt>
      <trkpt lat="36.8937295116484165191650390625" lon="-5.46952533535659313201904296875">
        <ele>344.79998779296875</ele>
        <time>2019-11-03T08:42:59.000Z</time>
      </trkpt>
      <trkpt lat="36.893806122243404388427734375" lon="-5.46977142803370952606201171875">
        <ele>344.399993896484375</ele>
        <time>2019-11-03T08:43:03.000Z</time>
      </trkpt>
      <trkpt lat="36.89387560822069644927978515625" lon="-5.47001064755022525787353515625">
        <ele>344</ele>
        <time>2019-11-03T08:43:07.000Z</time>
      </trkpt>
      <trkpt lat="36.89394467510282993316650390625" lon="-5.4702414013445377349853515625">
        <ele>344.79998779296875</ele>
        <time>2019-11-03T08:43:11.000Z</time>
      </trkpt>
      <trkpt lat="36.8939875066280364990234375" lon="-5.47041289508342742919921875">
        <ele>346</ele>
        <time>2019-11-03T08:43:14.000Z</time>
      </trkpt>
      <trkpt lat="36.89402765594422817230224609375" lon="-5.470651276409626007080078125">
        <ele>346.600006103515625</ele>
        <time>2019-11-03T08:43:18.000Z</time>
      </trkpt>
      <trkpt lat="36.89407912082970142364501953125" lon="-5.47088018618524074554443359375">
        <ele>345.20001220703125</ele>
        <time>2019-11-03T08:43:22.000Z</time>
      </trkpt>
      <trkpt lat="36.8941291607916355133056640625" lon="-5.4711077548563480377197265625">
        <ele>344</ele>
        <time>2019-11-03T08:43:26.000Z</time>
      </trkpt>
      <trkpt lat="36.89417031593620777130126953125" lon="-5.4713478125631809234619140625">
        <ele>343</ele>
        <time>2019-11-03T08:43:30.000Z</time>
      </trkpt>
      <trkpt lat="36.8942029215395450592041015625" lon="-5.47157923690974712371826171875">
        <ele>343.399993896484375</ele>
        <time>2019-11-03T08:43:34.000Z</time>
      </trkpt>
      <trkpt lat="36.8942280672490596771240234375" lon="-5.47184879891574382781982421875">
        <ele>344.600006103515625</ele>
        <time>2019-11-03T08:43:39.000Z</time>
      </trkpt>
      <trkpt lat="36.89423519186675548553466796875" lon="-5.4720713384449481964111328125">
        <ele>345.20001220703125</ele>
        <time>2019-11-03T08:43:43.000Z</time>
      </trkpt>
      <trkpt lat="36.89422563649713993072509765625" lon="-5.47233880497515201568603515625">
        <ele>346</ele>
        <time>2019-11-03T08:43:48.000Z</time>
      </trkpt>
      <trkpt lat="36.89419445581734180450439453125" lon="-5.47261289320886135101318359375">
        <ele>347</ele>
        <time>2019-11-03T08:43:53.000Z</time>
      </trkpt>
      <trkpt lat="36.894175596535205841064453125" lon="-5.47278103418648242950439453125">
        <ele>347</ele>
        <time>2019-11-03T08:43:56.000Z</time>
      </trkpt>
      <trkpt lat="36.89415003173053264617919921875" lon="-5.4730174876749515533447265625">
        <ele>347.79998779296875</ele>
        <time>2019-11-03T08:44:00.000Z</time>
      </trkpt>
      <trkpt lat="36.89411985687911510467529296875" lon="-5.47326047904789447784423828125">
        <ele>347.399993896484375</ele>
        <time>2019-11-03T08:44:04.000Z</time>
      </trkpt>
      <trkpt lat="36.89407643862068653106689453125" lon="-5.47350573353469371795654296875">
        <ele>346.600006103515625</ele>
        <time>2019-11-03T08:44:08.000Z</time>
      </trkpt>
      <trkpt lat="36.8940372951328754425048828125" lon="-5.47374227084219455718994140625">
        <ele>345.79998779296875</ele>
        <time>2019-11-03T08:44:12.000Z</time>
      </trkpt>
      <trkpt lat="36.893996559083461761474609375" lon="-5.47398635186254978179931640625">
        <ele>345</ele>
        <time>2019-11-03T08:44:16.000Z</time>
      </trkpt>
      <trkpt lat="36.89395154826343059539794921875" lon="-5.47426312230527400970458984375">
        <ele>344.600006103515625</ele>
        <time>2019-11-03T08:44:20.000Z</time>
      </trkpt>
      <trkpt lat="36.893912069499492645263671875" lon="-5.47455246560275554656982421875">
        <ele>344.79998779296875</ele>
        <time>2019-11-03T08:44:24.000Z</time>
      </trkpt>
      <trkpt lat="36.89387376420199871063232421875" lon="-5.4748504422605037689208984375">
        <ele>344.79998779296875</ele>
        <time>2019-11-03T08:44:28.000Z</time>
      </trkpt>
      <trkpt lat="36.89385406672954559326171875" lon="-5.47508454881608486175537109375">
        <ele>344.20001220703125</ele>
        <time>2019-11-03T08:44:31.000Z</time>
      </trkpt>
      <trkpt lat="36.89383721910417079925537109375" lon="-5.475327037274837493896484375">
        <ele>343</ele>
        <time>2019-11-03T08:44:34.000Z</time>
      </trkpt>
      <trkpt lat="36.89382984302937984466552734375" lon="-5.47557136975228786468505859375">
        <ele>341.600006103515625</ele>
        <time>2019-11-03T08:44:37.000Z</time>
      </trkpt>
      <trkpt lat="36.89382615499198436737060546875" lon="-5.47581888735294342041015625">
        <ele>340.20001220703125</ele>
        <time>2019-11-03T08:44:40.000Z</time>
      </trkpt>
      <trkpt lat="36.8938324414193630218505859375" lon="-5.4760631360113620758056640625">
        <ele>339.600006103515625</ele>
        <time>2019-11-03T08:44:43.000Z</time>
      </trkpt>
      <trkpt lat="36.8938401527702808380126953125" lon="-5.47630562447011470794677734375">
        <ele>338.399993896484375</ele>
        <time>2019-11-03T08:44:46.000Z</time>
      </trkpt>
      <trkpt lat="36.89385146833956241607666015625" lon="-5.4765466041862964630126953125">
        <ele>338</ele>
        <time>2019-11-03T08:44:49.000Z</time>
      </trkpt>
      <trkpt lat="36.89386823214590549468994140625" lon="-5.4767846502363681793212890625">
        <ele>337.20001220703125</ele>
        <time>2019-11-03T08:44:52.000Z</time>
      </trkpt>
      <trkpt lat="36.89388751052320003509521484375" lon="-5.477021522819995880126953125">
        <ele>337.20001220703125</ele>
        <time>2019-11-03T08:44:55.000Z</time>
      </trkpt>
      <trkpt lat="36.89390771090984344482421875" lon="-5.47726325690746307373046875">
        <ele>337.600006103515625</ele>
        <time>2019-11-03T08:44:58.000Z</time>
      </trkpt>
      <trkpt lat="36.8939226306974887847900390625" lon="-5.47750256024301052093505859375">
        <ele>337.600006103515625</ele>
        <time>2019-11-03T08:45:01.000Z</time>
      </trkpt>
      <trkpt lat="36.8939417414367198944091796875" lon="-5.477736331522464752197265625">
        <ele>337</ele>
        <time>2019-11-03T08:45:04.000Z</time>
      </trkpt>
      <trkpt lat="36.8939672224223613739013671875" lon="-5.47796239145100116729736328125">
        <ele>335.600006103515625</ele>
        <time>2019-11-03T08:45:07.000Z</time>
      </trkpt>
      <trkpt lat="36.8940158374607563018798828125" lon="-5.47824628651142120361328125">
        <ele>334.20001220703125</ele>
        <time>2019-11-03T08:45:11.000Z</time>
      </trkpt>
      <trkpt lat="36.89406168647110462188720703125" lon="-5.47850403003394603729248046875">
        <ele>334.20001220703125</ele>
        <time>2019-11-03T08:45:15.000Z</time>
      </trkpt>
      <trkpt lat="36.8940973095595836639404296875" lon="-5.47873738221824169158935546875">
        <ele>334.79998779296875</ele>
        <time>2019-11-03T08:45:19.000Z</time>
      </trkpt>
      <trkpt lat="36.89412186853587627410888671875" lon="-5.4789642803370952606201171875">
        <ele>335.20001220703125</ele>
        <time>2019-11-03T08:45:23.000Z</time>
      </trkpt>
      <trkpt lat="36.89414265565574169158935546875" lon="-5.4792318306863307952880859375">
        <ele>336.79998779296875</ele>
        <time>2019-11-03T08:45:28.000Z</time>
      </trkpt>
      <trkpt lat="36.89417215995490550994873046875" lon="-5.47948085702955722808837890625">
        <ele>337</ele>
        <time>2019-11-03T08:45:33.000Z</time>
      </trkpt>
      <trkpt lat="36.89420987851917743682861328125" lon="-5.47972242347896099090576171875">
        <ele>337.79998779296875</ele>
        <time>2019-11-03T08:45:38.000Z</time>
      </trkpt>
      <trkpt lat="36.8942216970026493072509765625" lon="-5.47981202602386474609375">
        <ele>338.20001220703125</ele>
        <time>2019-11-03T08:45:40.000Z</time>
      </trkpt>
      <trkpt lat="36.8942491896450519561767578125" lon="-5.48007278703153133392333984375">
        <ele>340</ele>
        <time>2019-11-03T08:45:46.000Z</time>
      </trkpt>
      <trkpt lat="36.894280202686786651611328125" lon="-5.48033044673502445220947265625">
        <ele>341</ele>
        <time>2019-11-03T08:45:52.000Z</time>
      </trkpt>
      <trkpt lat="36.894318424165248870849609375" lon="-5.4805927164852619171142578125">
        <ele>341.399993896484375</ele>
        <time>2019-11-03T08:45:58.000Z</time>
      </trkpt>
      <trkpt lat="36.894359327852725982666015625" lon="-5.48085850663483142852783203125">
        <ele>341.79998779296875</ele>
        <time>2019-11-03T08:46:04.000Z</time>
      </trkpt>
      <trkpt lat="36.89438874833285808563232421875" lon="-5.4810874164104461669921875">
        <ele>342.20001220703125</ele>
        <time>2019-11-03T08:46:09.000Z</time>
      </trkpt>
      <trkpt lat="36.8944221921265125274658203125" lon="-5.48131884075701236724853515625">
        <ele>341.79998779296875</ele>
        <time>2019-11-03T08:46:14.000Z</time>
      </trkpt>
      <trkpt lat="36.89445798285305500030517578125" lon="-5.48155638389289379119873046875">
        <ele>341.600006103515625</ele>
        <time>2019-11-03T08:46:19.000Z</time>
      </trkpt>
      <trkpt lat="36.8944855593144893646240234375" lon="-5.48179778270423412322998046875">
        <ele>341.600006103515625</ele>
        <time>2019-11-03T08:46:24.000Z</time>
      </trkpt>
      <trkpt lat="36.89452168531715869903564453125" lon="-5.4820541851222515106201171875">
        <ele>341.79998779296875</ele>
        <time>2019-11-03T08:46:29.000Z</time>
      </trkpt>
      <trkpt lat="36.89455437473952770233154296875" lon="-5.4822778142988681793212890625">
        <ele>342</ele>
        <time>2019-11-03T08:46:33.000Z</time>
      </trkpt>
      <trkpt lat="36.894589327275753021240234375" lon="-5.4825037904083728790283203125">
        <ele>342</ele>
        <time>2019-11-03T08:46:37.000Z</time>
      </trkpt>
      <trkpt lat="36.89462377689778804779052734375" lon="-5.48273756168782711029052734375">
        <ele>340.399993896484375</ele>
        <time>2019-11-03T08:46:41.000Z</time>
      </trkpt>
      <trkpt lat="36.8946555443108081817626953125" lon="-5.48296253196895122528076171875">
        <ele>339.600006103515625</ele>
        <time>2019-11-03T08:46:45.000Z</time>
      </trkpt>
      <trkpt lat="36.894699968397617340087890625" lon="-5.48323377035558223724365234375">
        <ele>339</ele>
        <time>2019-11-03T08:46:50.000Z</time>
      </trkpt>
      <trkpt lat="36.89470943994820117950439453125" lon="-5.48328825272619724273681640625">
        <ele>339.20001220703125</ele>
        <time>2019-11-03T08:46:51.000Z</time>
      </trkpt>
      <trkpt lat="36.894740872085094451904296875" lon="-5.48351573757827281951904296875">
        <ele>338.600006103515625</ele>
        <time>2019-11-03T08:46:55.000Z</time>
      </trkpt>
      <trkpt lat="36.8947806023061275482177734375" lon="-5.48377105034887790679931640625">
        <ele>338.399993896484375</ele>
        <time>2019-11-03T08:46:59.000Z</time>
      </trkpt>
      <trkpt lat="36.8948104418814182281494140625" lon="-5.4840376786887645721435546875">
        <ele>337.79998779296875</ele>
        <time>2019-11-03T08:47:03.000Z</time>
      </trkpt>
      <trkpt lat="36.8948496691882610321044921875" lon="-5.484325177967548370361328125">
        <ele>336.600006103515625</ele>
        <time>2019-11-03T08:47:07.000Z</time>
      </trkpt>
      <trkpt lat="36.8948815204203128814697265625" lon="-5.4846099950373172760009765625">
        <ele>335.79998779296875</ele>
        <time>2019-11-03T08:47:11.000Z</time>
      </trkpt>
      <trkpt lat="36.89492292702198028564453125" lon="-5.4848979972302913665771484375">
        <ele>335</ele>
        <time>2019-11-03T08:47:15.000Z</time>
      </trkpt>
      <trkpt lat="36.89495109021663665771484375" lon="-5.4851236380636692047119140625">
        <ele>334.79998779296875</ele>
        <time>2019-11-03T08:47:18.000Z</time>
      </trkpt>
      <trkpt lat="36.8949831090867519378662109375" lon="-5.48542127944529056549072265625">
        <ele>334</ele>
        <time>2019-11-03T08:47:22.000Z</time>
      </trkpt>
      <trkpt lat="36.8950163014233112335205078125" lon="-5.4856503568589687347412109375">
        <ele>332.600006103515625</ele>
        <time>2019-11-03T08:47:25.000Z</time>
      </trkpt>
      <trkpt lat="36.8950451351702213287353515625" lon="-5.4858766682446002960205078125">
        <ele>331.20001220703125</ele>
        <time>2019-11-03T08:47:28.000Z</time>
      </trkpt>
      <trkpt lat="36.895081512629985809326171875" lon="-5.4861049912869930267333984375">
        <ele>329.79998779296875</ele>
        <time>2019-11-03T08:47:31.000Z</time>
      </trkpt>
      <trkpt lat="36.89511797390878200531005859375" lon="-5.48632870428264141082763671875">
        <ele>329.20001220703125</ele>
        <time>2019-11-03T08:47:34.000Z</time>
      </trkpt>
      <trkpt lat="36.8951534293591976165771484375" lon="-5.48662357963621616363525390625">
        <ele>328.20001220703125</ele>
        <time>2019-11-03T08:47:38.000Z</time>
      </trkpt>
      <trkpt lat="36.89518184401094913482666015625" lon="-5.48684737645089626312255859375">
        <ele>327.600006103515625</ele>
        <time>2019-11-03T08:47:41.000Z</time>
      </trkpt>
      <trkpt lat="36.895209252834320068359375" lon="-5.4871416650712490081787109375">
        <ele>326.600006103515625</ele>
        <time>2019-11-03T08:47:45.000Z</time>
      </trkpt>
      <trkpt lat="36.89522308297455310821533203125" lon="-5.4874232970178127288818359375">
        <ele>327.20001220703125</ele>
        <time>2019-11-03T08:47:49.000Z</time>
      </trkpt>
      <trkpt lat="36.89524202607572078704833984375" lon="-5.487590767443180084228515625">
        <ele>327.79998779296875</ele>
        <time>2019-11-03T08:47:54.000Z</time>
      </trkpt>
      <trkpt lat="36.89523817040026187896728515625" lon="-5.4875879175961017608642578125">
        <ele>327.79998779296875</ele>
        <time>2019-11-03T08:47:58.000Z</time>
      </trkpt>
      <trkpt lat="36.89520950429141521453857421875" lon="-5.48765840940177440643310546875">
        <ele>328</ele>
        <time>2019-11-03T08:48:27.000Z</time>
      </trkpt>
      <trkpt lat="36.89520397223532199859619140625" lon="-5.48788891173899173736572265625">
        <ele>328.399993896484375</ele>
        <time>2019-11-03T08:48:32.000Z</time>
      </trkpt>
      <trkpt lat="36.8951903097331523895263671875" lon="-5.48813433386385440826416015625">
        <ele>329</ele>
        <time>2019-11-03T08:48:36.000Z</time>
      </trkpt>
      <trkpt lat="36.8951755575835704803466796875" lon="-5.4883996210992336273193359375">
        <ele>329</ele>
        <time>2019-11-03T08:48:40.000Z</time>
      </trkpt>
      <trkpt lat="36.8951494060456752777099609375" lon="-5.48866759054362773895263671875">
        <ele>328.79998779296875</ele>
        <time>2019-11-03T08:48:44.000Z</time>
      </trkpt>
      <trkpt lat="36.89511478878557682037353515625" lon="-5.48893681727349758148193359375">
        <ele>328.79998779296875</ele>
        <time>2019-11-03T08:48:48.000Z</time>
      </trkpt>
      <trkpt lat="36.89507103525102138519287109375" lon="-5.4892109893262386322021484375">
        <ele>328</ele>
        <time>2019-11-03T08:48:52.000Z</time>
      </trkpt>
      <trkpt lat="36.8950179778039455413818359375" lon="-5.48948868177831172943115234375">
        <ele>326.399993896484375</ele>
        <time>2019-11-03T08:48:56.000Z</time>
      </trkpt>
      <trkpt lat="36.8949673511087894439697265625" lon="-5.489708371460437774658203125">
        <ele>325.600006103515625</ele>
        <time>2019-11-03T08:48:59.000Z</time>
      </trkpt>
      <trkpt lat="36.8949080072343349456787109375" lon="-5.48993040807545185089111328125">
        <ele>324.600006103515625</ele>
        <time>2019-11-03T08:49:02.000Z</time>
      </trkpt>
      <trkpt lat="36.8948453105986118316650390625" lon="-5.4901506006717681884765625">
        <ele>323.79998779296875</ele>
        <time>2019-11-03T08:49:05.000Z</time>
      </trkpt>
      <trkpt lat="36.89477280713617801666259765625" lon="-5.49037716351449489593505859375">
        <ele>322.399993896484375</ele>
        <time>2019-11-03T08:49:08.000Z</time>
      </trkpt>
      <trkpt lat="36.894686557352542877197265625" lon="-5.490604229271411895751953125">
        <ele>320.600006103515625</ele>
        <time>2019-11-03T08:49:11.000Z</time>
      </trkpt>
      <trkpt lat="36.89459167420864105224609375" lon="-5.49083255231380462646484375">
        <ele>319.399993896484375</ele>
        <time>2019-11-03T08:49:14.000Z</time>
      </trkpt>
      <trkpt lat="36.89448446966707706451416015625" lon="-5.491067580878734588623046875">
        <ele>318</ele>
        <time>2019-11-03T08:49:17.000Z</time>
      </trkpt>
      <trkpt lat="36.8943702243268489837646484375" lon="-5.49130286090075969696044921875">
        <ele>316.20001220703125</ele>
        <time>2019-11-03T08:49:20.000Z</time>
      </trkpt>
      <trkpt lat="36.8942374549806118011474609375" lon="-5.4915401525795459747314453125">
        <ele>314.20001220703125</ele>
        <time>2019-11-03T08:49:23.000Z</time>
      </trkpt>
      <trkpt lat="36.89409554935991764068603515625" lon="-5.491779707372188568115234375">
        <ele>312</ele>
        <time>2019-11-03T08:49:26.000Z</time>
      </trkpt>
      <trkpt lat="36.893944256007671356201171875" lon="-5.49201138317584991455078125">
        <ele>311</ele>
        <time>2019-11-03T08:49:29.000Z</time>
      </trkpt>
      <trkpt lat="36.8937824852764606475830078125" lon="-5.49223509617149829864501953125">
        <ele>311</ele>
        <time>2019-11-03T08:49:32.000Z</time>
      </trkpt>
      <trkpt lat="36.89361576922237873077392578125" lon="-5.49244590103626251220703125">
        <ele>311.399993896484375</ele>
        <time>2019-11-03T08:49:35.000Z</time>
      </trkpt>
      <trkpt lat="36.8934368155896663665771484375" lon="-5.49265217967331409454345703125">
        <ele>310.399993896484375</ele>
        <time>2019-11-03T08:49:38.000Z</time>
      </trkpt>
      <trkpt lat="36.8932517431676387786865234375" lon="-5.49285938031971454620361328125">
        <ele>308.600006103515625</ele>
        <time>2019-11-03T08:49:41.000Z</time>
      </trkpt>
      <trkpt lat="36.89306222833693027496337890625" lon="-5.49305283464491367340087890625">
        <ele>308</ele>
        <time>2019-11-03T08:49:44.000Z</time>
      </trkpt>
      <trkpt lat="36.89287112094461917877197265625" lon="-5.49322801642119884490966796875">
        <ele>308</ele>
        <time>2019-11-03T08:49:47.000Z</time>
      </trkpt>
      <trkpt lat="36.8926799297332763671875" lon="-5.49339699558913707733154296875">
        <ele>308.20001220703125</ele>
        <time>2019-11-03T08:49:50.000Z</time>
      </trkpt>
      <trkpt lat="36.89248354174196720123291015625" lon="-5.493561364710330963134765625">
        <ele>308.399993896484375</ele>
        <time>2019-11-03T08:49:53.000Z</time>
      </trkpt>
      <trkpt lat="36.89228841103613376617431640625" lon="-5.49371131695806980133056640625">
        <ele>308.20001220703125</ele>
        <time>2019-11-03T08:49:56.000Z</time>
      </trkpt>
      <trkpt lat="36.89208858646452426910400390625" lon="-5.4938589222729206085205078125">
        <ele>308</ele>
        <time>2019-11-03T08:49:59.000Z</time>
      </trkpt>
      <trkpt lat="36.891897730529308319091796875" lon="-5.4939994029700756072998046875">
        <ele>307.79998779296875</ele>
        <time>2019-11-03T08:50:02.000Z</time>
      </trkpt>
      <trkpt lat="36.89171290956437587738037109375" lon="-5.49412228167057037353515625">
        <ele>307.20001220703125</ele>
        <time>2019-11-03T08:50:05.000Z</time>
      </trkpt>
      <trkpt lat="36.89153051935136318206787109375" lon="-5.49423887394368648529052734375">
        <ele>306.399993896484375</ele>
        <time>2019-11-03T08:50:08.000Z</time>
      </trkpt>
      <trkpt lat="36.8913456983864307403564453125" lon="-5.49434222280979156494140625">
        <ele>305.399993896484375</ele>
        <time>2019-11-03T08:50:11.000Z</time>
      </trkpt>
      <trkpt lat="36.89115903340280055999755859375" lon="-5.494445823132991790771484375">
        <ele>304.79998779296875</ele>
        <time>2019-11-03T08:50:14.000Z</time>
      </trkpt>
      <trkpt lat="36.89096524380147457122802734375" lon="-5.4945512674748897552490234375">
        <ele>304.79998779296875</ele>
        <time>2019-11-03T08:50:17.000Z</time>
      </trkpt>
      <trkpt lat="36.89077346585690975189208984375" lon="-5.49464539624750614166259765625">
        <ele>304.79998779296875</ele>
        <time>2019-11-03T08:50:20.000Z</time>
      </trkpt>
      <trkpt lat="36.89058487303555011749267578125" lon="-5.49473692663013935089111328125">
        <ele>304.79998779296875</ele>
        <time>2019-11-03T08:50:23.000Z</time>
      </trkpt>
      <trkpt lat="36.8903955258429050445556640625" lon="-5.4948114417493343353271484375">
        <ele>304.600006103515625</ele>
        <time>2019-11-03T08:50:26.000Z</time>
      </trkpt>
      <trkpt lat="36.89020584337413311004638671875" lon="-5.49488562159240245819091796875">
        <ele>303.79998779296875</ele>
        <time>2019-11-03T08:50:29.000Z</time>
      </trkpt>
      <trkpt lat="36.8900143168866634368896484375" lon="-5.49496709369122982025146484375">
        <ele>303.399993896484375</ele>
        <time>2019-11-03T08:50:32.000Z</time>
      </trkpt>
      <trkpt lat="36.8898260593414306640625" lon="-5.4950360767543315887451171875">
        <ele>303.20001220703125</ele>
        <time>2019-11-03T08:50:35.000Z</time>
      </trkpt>
      <trkpt lat="36.8896344490349292755126953125" lon="-5.49510606564581394195556640625">
        <ele>303</ele>
        <time>2019-11-03T08:50:38.000Z</time>
      </trkpt>
      <trkpt lat="36.88945113681256771087646484375" lon="-5.49516976810991764068603515625">
        <ele>303.20001220703125</ele>
        <time>2019-11-03T08:50:41.000Z</time>
      </trkpt>
      <trkpt lat="36.8892681598663330078125" lon="-5.4952204786241054534912109375">
        <ele>303.600006103515625</ele>
        <time>2019-11-03T08:50:44.000Z</time>
      </trkpt>
      <trkpt lat="36.889035142958164215087890625" lon="-5.49527018330991268157958984375">
        <ele>302.20001220703125</ele>
        <time>2019-11-03T08:50:48.000Z</time>
      </trkpt>
      <trkpt lat="36.88880137167870998382568359375" lon="-5.49530639313161373138427734375">
        <ele>301.20001220703125</ele>
        <time>2019-11-03T08:50:52.000Z</time>
      </trkpt>
      <trkpt lat="36.88861428759992122650146484375" lon="-5.49534109421074390411376953125">
        <ele>300.600006103515625</ele>
        <time>2019-11-03T08:50:55.000Z</time>
      </trkpt>
      <trkpt lat="36.88842502422630786895751953125" lon="-5.49537227489054203033447265625">
        <ele>300</ele>
        <time>2019-11-03T08:50:58.000Z</time>
      </trkpt>
      <trkpt lat="36.8882410414516925811767578125" lon="-5.49539188854396343231201171875">
        <ele>299.600006103515625</ele>
        <time>2019-11-03T08:51:01.000Z</time>
      </trkpt>
      <trkpt lat="36.8880539573729038238525390625" lon="-5.49541099928319454193115234375">
        <ele>299.399993896484375</ele>
        <time>2019-11-03T08:51:04.000Z</time>
      </trkpt>
      <trkpt lat="36.88786259852349758148193359375" lon="-5.49542591907083988189697265625">
        <ele>299</ele>
        <time>2019-11-03T08:51:07.000Z</time>
      </trkpt>
      <trkpt lat="36.8876682221889495849609375" lon="-5.495446622371673583984375">
        <ele>299</ele>
        <time>2019-11-03T08:51:10.000Z</time>
      </trkpt>
      <trkpt lat="36.88747384585440158843994140625" lon="-5.49545307643711566925048828125">
        <ele>299.399993896484375</ele>
        <time>2019-11-03T08:51:13.000Z</time>
      </trkpt>
      <trkpt lat="36.88728508539497852325439453125" lon="-5.49545190297067165374755859375">
        <ele>300</ele>
        <time>2019-11-03T08:51:16.000Z</time>
      </trkpt>
      <trkpt lat="36.8870977498590946197509765625" lon="-5.495438911020755767822265625">
        <ele>300.79998779296875</ele>
        <time>2019-11-03T08:51:19.000Z</time>
      </trkpt>
      <trkpt lat="36.88691318035125732421875" lon="-5.495425164699554443359375">
        <ele>300.20001220703125</ele>
        <time>2019-11-03T08:51:22.000Z</time>
      </trkpt>
      <trkpt lat="36.88673204742372035980224609375" lon="-5.49540479667484760284423828125">
        <ele>300.399993896484375</ele>
        <time>2019-11-03T08:51:25.000Z</time>
      </trkpt>
      <trkpt lat="36.88655016012489795684814453125" lon="-5.49537948332726955413818359375">
        <ele>299.20001220703125</ele>
        <time>2019-11-03T08:51:28.000Z</time>
      </trkpt>
      <trkpt lat="36.88636944629251956939697265625" lon="-5.4953448660671710968017578125">
        <ele>297.600006103515625</ele>
        <time>2019-11-03T08:51:31.000Z</time>
      </trkpt>
      <trkpt lat="36.88618772663176059722900390625" lon="-5.495312511920928955078125">
        <ele>295.600006103515625</ele>
        <time>2019-11-03T08:51:34.000Z</time>
      </trkpt>
      <trkpt lat="36.88601053319871425628662109375" lon="-5.4952709376811981201171875">
        <ele>295</ele>
        <time>2019-11-03T08:51:37.000Z</time>
      </trkpt>
      <trkpt lat="36.88582831062376499176025390625" lon="-5.49523782916367053985595703125">
        <ele>294.399993896484375</ele>
        <time>2019-11-03T08:51:40.000Z</time>
      </trkpt>
      <trkpt lat="36.8856496922671794891357421875" lon="-5.49519256688654422760009765625">
        <ele>293.399993896484375</ele>
        <time>2019-11-03T08:51:43.000Z</time>
      </trkpt>
      <trkpt lat="36.8854636140167713165283203125" lon="-5.49515836872160434722900390625">
        <ele>291.79998779296875</ele>
        <time>2019-11-03T08:51:46.000Z</time>
      </trkpt>
      <trkpt lat="36.88527778722345829010009765625" lon="-5.49512735567986965179443359375">
        <ele>291</ele>
        <time>2019-11-03T08:51:49.000Z</time>
      </trkpt>
      <trkpt lat="36.88505047000944614410400390625" lon="-5.4950917325913906097412109375">
        <ele>291</ele>
        <time>2019-11-03T08:51:53.000Z</time>
      </trkpt>
      <trkpt lat="36.8848319537937641143798828125" lon="-5.49506147392094135284423828125">
        <ele>290.20001220703125</ele>
        <time>2019-11-03T08:51:57.000Z</time>
      </trkpt>
      <trkpt lat="36.88461695797741413116455078125" lon="-5.49503649584949016571044921875">
        <ele>290.600006103515625</ele>
        <time>2019-11-03T08:52:01.000Z</time>
      </trkpt>
      <trkpt lat="36.88441311009228229522705078125" lon="-5.49501755274832248687744140625">
        <ele>291.399993896484375</ele>
        <time>2019-11-03T08:52:05.000Z</time>
      </trkpt>
      <trkpt lat="36.88422032631933689117431640625" lon="-5.495001040399074554443359375">
        <ele>291.600006103515625</ele>
        <time>2019-11-03T08:52:09.000Z</time>
      </trkpt>
      <trkpt lat="36.88407666049897670745849609375" lon="-5.494990311563014984130859375">
        <ele>290.600006103515625</ele>
        <time>2019-11-03T08:52:12.000Z</time>
      </trkpt>
      <trkpt lat="36.88387214206159114837646484375" lon="-5.49497111700475215911865234375">
        <ele>289.79998779296875</ele>
        <time>2019-11-03T08:52:16.000Z</time>
      </trkpt>
      <trkpt lat="36.88364834524691104888916015625" lon="-5.49497799016535282135009765625">
        <ele>289.20001220703125</ele>
        <time>2019-11-03T08:52:20.000Z</time>
      </trkpt>
      <trkpt lat="36.88341222703456878662109375" lon="-5.4950008727610111236572265625">
        <ele>288.79998779296875</ele>
        <time>2019-11-03T08:52:24.000Z</time>
      </trkpt>
      <trkpt lat="36.88318801112473011016845703125" lon="-5.49502844922244548797607421875">
        <ele>287.79998779296875</ele>
        <time>2019-11-03T08:52:28.000Z</time>
      </trkpt>
      <trkpt lat="36.8829762004315853118896484375" lon="-5.49506147392094135284423828125">
        <ele>287.399993896484375</ele>
        <time>2019-11-03T08:52:32.000Z</time>
      </trkpt>
      <trkpt lat="36.8827834166586399078369140625" lon="-5.4950910620391368865966796875">
        <ele>287.399993896484375</ele>
        <time>2019-11-03T08:52:36.000Z</time>
      </trkpt>
      <trkpt lat="36.88256842084228992462158203125" lon="-5.49513959325850009918212890625">
        <ele>287</ele>
        <time>2019-11-03T08:52:40.000Z</time>
      </trkpt>
      <trkpt lat="36.88235945999622344970703125" lon="-5.49518845975399017333984375">
        <ele>287.399993896484375</ele>
        <time>2019-11-03T08:52:44.000Z</time>
      </trkpt>
      <trkpt lat="36.8821614794433116912841796875" lon="-5.49524880945682525634765625">
        <ele>288.399993896484375</ele>
        <time>2019-11-03T08:52:48.000Z</time>
      </trkpt>
      <trkpt lat="36.88197833485901355743408203125" lon="-5.49530706368386745452880859375">
        <ele>289.20001220703125</ele>
        <time>2019-11-03T08:52:52.000Z</time>
      </trkpt>
      <trkpt lat="36.8818010576069355010986328125" lon="-5.49536339007318019866943359375">
        <ele>289.399993896484375</ele>
        <time>2019-11-03T08:52:56.000Z</time>
      </trkpt>
      <trkpt lat="36.88159410841763019561767578125" lon="-5.495452322065830230712890625">
        <ele>288.600006103515625</ele>
        <time>2019-11-03T08:53:01.000Z</time>
      </trkpt>
      <trkpt lat="36.8813933618366718292236328125" lon="-5.49554645083844661712646484375">
        <ele>287.79998779296875</ele>
        <time>2019-11-03T08:53:06.000Z</time>
      </trkpt>
      <trkpt lat="36.88118926249444484710693359375" lon="-5.495645441114902496337890625">
        <ele>286.600006103515625</ele>
        <time>2019-11-03T08:53:11.000Z</time>
      </trkpt>
      <trkpt lat="36.8809833191335201263427734375" lon="-5.49574744887650012969970703125">
        <ele>286.600006103515625</ele>
        <time>2019-11-03T08:53:16.000Z</time>
      </trkpt>
      <trkpt lat="36.8807801418006420135498046875" lon="-5.495861358940601348876953125">
        <ele>286.600006103515625</ele>
        <time>2019-11-03T08:53:21.000Z</time>
      </trkpt>
      <trkpt lat="36.880585514008998870849609375" lon="-5.49597644247114658355712890625">
        <ele>286</ele>
        <time>2019-11-03T08:53:26.000Z</time>
      </trkpt>
      <trkpt lat="36.88038694672286510467529296875" lon="-5.49610921181738376617431640625">
        <ele>285</ele>
        <time>2019-11-03T08:53:31.000Z</time>
      </trkpt>
      <trkpt lat="36.880194582045078277587890625" lon="-5.49625120125710964202880859375">
        <ele>287</ele>
        <time>2019-11-03T08:53:36.000Z</time>
      </trkpt>
      <trkpt lat="36.8800083361566066741943359375" lon="-5.4963922686874866485595703125">
        <ele>290</ele>
        <time>2019-11-03T08:53:41.000Z</time>
      </trkpt>
      <trkpt lat="36.87985335476696491241455078125" lon="-5.49652285873889923095703125">
        <ele>292.20001220703125</ele>
        <time>2019-11-03T08:53:45.000Z</time>
      </trkpt>
      <trkpt lat="36.87969862483441829681396484375" lon="-5.49664380960166454315185546875">
        <ele>293</ele>
        <time>2019-11-03T08:53:49.000Z</time>
      </trkpt>
      <trkpt lat="36.87954775057733058929443359375" lon="-5.49677037633955478668212890625">
        <ele>293</ele>
        <time>2019-11-03T08:53:53.000Z</time>
      </trkpt>
      <trkpt lat="36.87939771451056003570556640625" lon="-5.4969085939228534698486328125">
        <ele>293</ele>
        <time>2019-11-03T08:53:57.000Z</time>
      </trkpt>
      <trkpt lat="36.879244744777679443359375" lon="-5.49706206656992435455322265625">
        <ele>292.600006103515625</ele>
        <time>2019-11-03T08:54:01.000Z</time>
      </trkpt>
      <trkpt lat="36.87909185886383056640625" lon="-5.4972100071609020233154296875">
        <ele>292</ele>
        <time>2019-11-03T08:54:05.000Z</time>
      </trkpt>
      <trkpt lat="36.87893855385482311248779296875" lon="-5.49736415036022663116455078125">
        <ele>292.399993896484375</ele>
        <time>2019-11-03T08:54:09.000Z</time>
      </trkpt>
      <trkpt lat="36.87878583557903766632080078125" lon="-5.49752675928175449371337890625">
        <ele>292.20001220703125</ele>
        <time>2019-11-03T08:54:13.000Z</time>
      </trkpt>
      <trkpt lat="36.8786310218274593353271484375" lon="-5.497707389295101165771484375">
        <ele>291.399993896484375</ele>
        <time>2019-11-03T08:54:17.000Z</time>
      </trkpt>
      <trkpt lat="36.87847159802913665771484375" lon="-5.49789011478424072265625">
        <ele>290.20001220703125</ele>
        <time>2019-11-03T08:54:21.000Z</time>
      </trkpt>
      <trkpt lat="36.87831343151628971099853515625" lon="-5.49808130599558353424072265625">
        <ele>289</ele>
        <time>2019-11-03T08:54:25.000Z</time>
      </trkpt>
      <trkpt lat="36.8781492300331592559814453125" lon="-5.49829068593680858612060546875">
        <ele>287</ele>
        <time>2019-11-03T08:54:29.000Z</time>
      </trkpt>
      <trkpt lat="36.8779926560819149017333984375" lon="-5.49850559793412685394287109375">
        <ele>285.79998779296875</ele>
        <time>2019-11-03T08:54:33.000Z</time>
      </trkpt>
      <trkpt lat="36.87784220091998577117919921875" lon="-5.49872495234012603759765625">
        <ele>284.600006103515625</ele>
        <time>2019-11-03T08:54:37.000Z</time>
      </trkpt>
      <trkpt lat="36.87770088203251361846923828125" lon="-5.498953945934772491455078125">
        <ele>283.79998779296875</ele>
        <time>2019-11-03T08:54:41.000Z</time>
      </trkpt>
      <trkpt lat="36.87756367027759552001953125" lon="-5.49918369390070438385009765625">
        <ele>283</ele>
        <time>2019-11-03T08:54:45.000Z</time>
      </trkpt>
      <trkpt lat="36.87743224203586578369140625" lon="-5.49941293895244598388671875">
        <ele>282.600006103515625</ele>
        <time>2019-11-03T08:54:49.000Z</time>
      </trkpt>
      <trkpt lat="36.87729855068027973175048828125" lon="-5.4996612109243869781494140625">
        <ele>284.20001220703125</ele>
        <time>2019-11-03T08:54:53.000Z</time>
      </trkpt>
      <trkpt lat="36.87720299698412418365478515625" lon="-5.49985642544925212860107421875">
        <ele>285</ele>
        <time>2019-11-03T08:54:56.000Z</time>
      </trkpt>
      <trkpt lat="36.87708212994039058685302734375" lon="-5.500110648572444915771484375">
        <ele>286</ele>
        <time>2019-11-03T08:55:00.000Z</time>
      </trkpt>
      <trkpt lat="36.87696176581084728240966796875" lon="-5.5003585852682590484619140625">
        <ele>286.399993896484375</ele>
        <time>2019-11-03T08:55:04.000Z</time>
      </trkpt>
      <trkpt lat="36.87685489654541015625" lon="-5.50060794688761234283447265625">
        <ele>286</ele>
        <time>2019-11-03T08:55:08.000Z</time>
      </trkpt>
      <trkpt lat="36.87674886547029018402099609375" lon="-5.50086812116205692291259765625">
        <ele>285.79998779296875</ele>
        <time>2019-11-03T08:55:12.000Z</time>
      </trkpt>
      <trkpt lat="36.87664794735610485076904296875" lon="-5.5011235177516937255859375">
        <ele>285.79998779296875</ele>
        <time>2019-11-03T08:55:16.000Z</time>
      </trkpt>
      <trkpt lat="36.87655650079250335693359375" lon="-5.50137522630393505096435546875">
        <ele>285.79998779296875</ele>
        <time>2019-11-03T08:55:20.000Z</time>
      </trkpt>
      <trkpt lat="36.87645901925861835479736328125" lon="-5.50162819214165210723876953125">
        <ele>285.399993896484375</ele>
        <time>2019-11-03T08:55:24.000Z</time>
      </trkpt>
      <trkpt lat="36.8763729371130466461181640625" lon="-5.50188031978905200958251953125">
        <ele>285.399993896484375</ele>
        <time>2019-11-03T08:55:28.000Z</time>
      </trkpt>
      <trkpt lat="36.876287274062633514404296875" lon="-5.50213672220706939697265625">
        <ele>284.79998779296875</ele>
        <time>2019-11-03T08:55:32.000Z</time>
      </trkpt>
      <trkpt lat="36.87620622105896472930908203125" lon="-5.5023906938731670379638671875">
        <ele>285.399993896484375</ele>
        <time>2019-11-03T08:55:36.000Z</time>
      </trkpt>
      <trkpt lat="36.87613447196781635284423828125" lon="-5.50263938494026660919189453125">
        <ele>287.20001220703125</ele>
        <time>2019-11-03T08:55:40.000Z</time>
      </trkpt>
      <trkpt lat="36.87606741674244403839111328125" lon="-5.502867288887500762939453125">
        <ele>288.20001220703125</ele>
        <time>2019-11-03T08:55:44.000Z</time>
      </trkpt>
      <trkpt lat="36.876020729541778564453125" lon="-5.50308630801737308502197265625">
        <ele>288.600006103515625</ele>
        <time>2019-11-03T08:55:48.000Z</time>
      </trkpt>
      <trkpt lat="36.87596180476248264312744140625" lon="-5.503321252763271331787109375">
        <ele>288.79998779296875</ele>
        <time>2019-11-03T08:55:52.000Z</time>
      </trkpt>
      <trkpt lat="36.87589810229837894439697265625" lon="-5.50356407649815082550048828125">
        <ele>289</ele>
        <time>2019-11-03T08:55:56.000Z</time>
      </trkpt>
      <trkpt lat="36.87584127299487590789794921875" lon="-5.50380497239530086517333984375">
        <ele>288</ele>
        <time>2019-11-03T08:56:00.000Z</time>
      </trkpt>
      <trkpt lat="36.8757898919284343719482421875" lon="-5.5040570162236690521240234375">
        <ele>286</ele>
        <time>2019-11-03T08:56:04.000Z</time>
      </trkpt>
      <trkpt lat="36.87573842704296112060546875" lon="-5.5043153464794158935546875">
        <ele>283.600006103515625</ele>
        <time>2019-11-03T08:56:08.000Z</time>
      </trkpt>
      <trkpt lat="36.87569475732743740081787109375" lon="-5.504573173820972442626953125">
        <ele>281.20001220703125</ele>
        <time>2019-11-03T08:56:12.000Z</time>
      </trkpt>
      <trkpt lat="36.87565351836383342742919921875" lon="-5.50481893122196197509765625">
        <ele>279.600006103515625</ele>
        <time>2019-11-03T08:56:16.000Z</time>
      </trkpt>
      <trkpt lat="36.87561294995248317718505859375" lon="-5.50504649989306926727294921875">
        <ele>278.79998779296875</ele>
        <time>2019-11-03T08:56:20.000Z</time>
      </trkpt>
      <trkpt lat="36.87556684948503971099853515625" lon="-5.5052861385047435760498046875">
        <ele>279.399993896484375</ele>
        <time>2019-11-03T08:56:24.000Z</time>
      </trkpt>
      <trkpt lat="36.87551873736083507537841796875" lon="-5.5055479891598224639892578125">
        <ele>280</ele>
        <time>2019-11-03T08:56:28.000Z</time>
      </trkpt>
      <trkpt lat="36.87546350061893463134765625" lon="-5.5058098398149013519287109375">
        <ele>279.600006103515625</ele>
        <time>2019-11-03T08:56:32.000Z</time>
      </trkpt>
      <trkpt lat="36.87541446648538112640380859375" lon="-5.50607060082256793975830078125">
        <ele>279.20001220703125</ele>
        <time>2019-11-03T08:56:36.000Z</time>
      </trkpt>
      <trkpt lat="36.87535696662962436676025390625" lon="-5.5063348822295665740966796875">
        <ele>278</ele>
        <time>2019-11-03T08:56:40.000Z</time>
      </trkpt>
      <trkpt lat="36.8752956949174404144287109375" lon="-5.506599582731723785400390625">
        <ele>277</ele>
        <time>2019-11-03T08:56:44.000Z</time>
      </trkpt>
      <trkpt lat="36.8752256222069263458251953125" lon="-5.506877861917018890380859375">
        <ele>275.600006103515625</ele>
        <time>2019-11-03T08:56:48.000Z</time>
      </trkpt>
      <trkpt lat="36.8751646019518375396728515625" lon="-5.5071033351123332977294921875">
        <ele>274.600006103515625</ele>
        <time>2019-11-03T08:56:51.000Z</time>
      </trkpt>
      <trkpt lat="36.8751019053161144256591796875" lon="-5.5073319934308528900146484375">
        <ele>274</ele>
        <time>2019-11-03T08:56:54.000Z</time>
      </trkpt>
      <trkpt lat="36.8750365264713764190673828125" lon="-5.50756475888192653656005859375">
        <ele>273.20001220703125</ele>
        <time>2019-11-03T08:56:57.000Z</time>
      </trkpt>
      <trkpt lat="36.87496636994183063507080078125" lon="-5.5077997036278247833251953125">
        <ele>273.600006103515625</ele>
        <time>2019-11-03T08:57:00.000Z</time>
      </trkpt>
      <trkpt lat="36.87489428557455539703369140625" lon="-5.50803330726921558380126953125">
        <ele>273.20001220703125</ele>
        <time>2019-11-03T08:57:03.000Z</time>
      </trkpt>
      <trkpt lat="36.87482689507305622100830078125" lon="-5.50826079212129116058349609375">
        <ele>272</ele>
        <time>2019-11-03T08:57:06.000Z</time>
      </trkpt>
      <trkpt lat="36.8747592531144618988037109375" lon="-5.50847436301410198211669921875">
        <ele>270.79998779296875</ele>
        <time>2019-11-03T08:57:09.000Z</time>
      </trkpt>
      <trkpt lat="36.874674595892429351806640625" lon="-5.50873973406851291656494140625">
        <ele>269.399993896484375</ele>
        <time>2019-11-03T08:57:13.000Z</time>
      </trkpt>
      <trkpt lat="36.8745989911258220672607421875" lon="-5.50898280926048755645751953125">
        <ele>268.600006103515625</ele>
        <time>2019-11-03T08:57:17.000Z</time>
      </trkpt>
      <trkpt lat="36.874519027769565582275390625" lon="-5.50923896022140979766845703125">
        <ele>268</ele>
        <time>2019-11-03T08:57:22.000Z</time>
      </trkpt>
      <trkpt lat="36.8744504638016223907470703125" lon="-5.5094526149332523345947265625">
        <ele>268</ele>
        <time>2019-11-03T08:57:26.000Z</time>
      </trkpt>
      <trkpt lat="36.87443554401397705078125" lon="-5.5095086060464382171630859375">
        <ele>267.79998779296875</ele>
        <time>2019-11-03T08:57:27.000Z</time>
      </trkpt>
      <trkpt lat="36.874358765780925750732421875" lon="-5.50976400263607501983642578125">
        <ele>267</ele>
        <time>2019-11-03T08:57:32.000Z</time>
      </trkpt>
      <trkpt lat="36.87428961507976055145263671875" lon="-5.510008670389652252197265625">
        <ele>266.20001220703125</ele>
        <time>2019-11-03T08:57:37.000Z</time>
      </trkpt>
      <trkpt lat="36.874242089688777923583984375" lon="-5.5101838521659374237060546875">
        <ele>267.20001220703125</ele>
        <time>2019-11-03T08:57:41.000Z</time>
      </trkpt>
      <trkpt lat="36.87417997978627681732177734375" lon="-5.51043388433754444122314453125">
        <ele>268.79998779296875</ele>
        <time>2019-11-03T08:57:47.000Z</time>
      </trkpt>
      <trkpt lat="36.87411812134087085723876953125" lon="-5.51065617240965366363525390625">
        <ele>270.20001220703125</ele>
        <time>2019-11-03T08:57:53.000Z</time>
      </trkpt>
      <trkpt lat="36.87405190430581569671630859375" lon="-5.51090092398226261138916015625">
        <ele>271.20001220703125</ele>
        <time>2019-11-03T08:58:00.000Z</time>
      </trkpt>
      <trkpt lat="36.874010749161243438720703125" lon="-5.51106856204569339752197265625">
        <ele>271.79998779296875</ele>
        <time>2019-11-03T08:58:05.000Z</time>
      </trkpt>
      <trkpt lat="36.87395702116191387176513671875" lon="-5.51130828447639942169189453125">
        <ele>272</ele>
        <time>2019-11-03T08:58:13.000Z</time>
      </trkpt>
      <trkpt lat="36.87389851547777652740478515625" lon="-5.5115407146513462066650390625">
        <ele>273.20001220703125</ele>
        <time>2019-11-03T08:58:21.000Z</time>
      </trkpt>
      <trkpt lat="36.87385191209614276885986328125" lon="-5.5117670260369777679443359375">
        <ele>275.79998779296875</ele>
        <time>2019-11-03T08:58:29.000Z</time>
      </trkpt>
      <trkpt lat="36.873805560171604156494140625" lon="-5.51199124194681644439697265625">
        <ele>279</ele>
        <time>2019-11-03T08:58:37.000Z</time>
      </trkpt>
      <trkpt lat="36.87376054935157299041748046875" lon="-5.51221369765698909759521484375">
        <ele>282.20001220703125</ele>
        <time>2019-11-03T08:58:45.000Z</time>
      </trkpt>
      <trkpt lat="36.8737131915986537933349609375" lon="-5.512440092861652374267578125">
        <ele>285.79998779296875</ele>
        <time>2019-11-03T08:58:53.000Z</time>
      </trkpt>
      <trkpt lat="36.8736749701201915740966796875" lon="-5.51267151720821857452392578125">
        <ele>288.20001220703125</ele>
        <time>2019-11-03T08:59:01.000Z</time>
      </trkpt>
      <trkpt lat="36.87363398261368274688720703125" lon="-5.5129143409430980682373046875">
        <ele>289.600006103515625</ele>
        <time>2019-11-03T08:59:10.000Z</time>
      </trkpt>
      <trkpt lat="36.87359458766877651214599609375" lon="-5.5131594277918338775634765625">
        <ele>289.79998779296875</ele>
        <time>2019-11-03T08:59:19.000Z</time>
      </trkpt>
      <trkpt lat="36.8735572881996631622314453125" lon="-5.51338096149265766143798828125">
        <ele>290.79998779296875</ele>
        <time>2019-11-03T08:59:27.000Z</time>
      </trkpt>
      <trkpt lat="36.87353155575692653656005859375" lon="-5.5136070214211940765380859375">
        <ele>291.600006103515625</ele>
        <time>2019-11-03T08:59:35.000Z</time>
      </trkpt>
      <trkpt lat="36.8734959326684474945068359375" lon="-5.513852946460247039794921875">
        <ele>291.600006103515625</ele>
        <time>2019-11-03T08:59:44.000Z</time>
      </trkpt>
      <trkpt lat="36.8734664283692836761474609375" lon="-5.51408336497843265533447265625">
        <ele>291.600006103515625</ele>
        <time>2019-11-03T08:59:52.000Z</time>
      </trkpt>
      <trkpt lat="36.8734369240701198577880859375" lon="-5.51432107575237751007080078125">
        <ele>292</ele>
        <time>2019-11-03T09:00:00.000Z</time>
      </trkpt>
      <trkpt lat="36.8734101019799709320068359375" lon="-5.51456616260111331939697265625">
        <ele>293.600006103515625</ele>
        <time>2019-11-03T09:00:08.000Z</time>
      </trkpt>
      <trkpt lat="36.87338705174624919891357421875" lon="-5.51480739377439022064208984375">
        <ele>295.600006103515625</ele>
        <time>2019-11-03T09:00:16.000Z</time>
      </trkpt>
      <trkpt lat="36.87336458824574947357177734375" lon="-5.5150500498712062835693359375">
        <ele>299</ele>
        <time>2019-11-03T09:00:24.000Z</time>
      </trkpt>
      <trkpt lat="36.8733463995158672332763671875" lon="-5.51527552306652069091796875">
        <ele>303</ele>
        <time>2019-11-03T09:00:31.000Z</time>
      </trkpt>
      <trkpt lat="36.87332854606211185455322265625" lon="-5.515526644885540008544921875">
        <ele>305.399993896484375</ele>
        <time>2019-11-03T09:00:39.000Z</time>
      </trkpt>
      <trkpt lat="36.87331547029316425323486328125" lon="-5.51576259545981884002685546875">
        <ele>307</ele>
        <time>2019-11-03T09:00:46.000Z</time>
      </trkpt>
      <trkpt lat="36.8733058311045169830322265625" lon="-5.51599678583443164825439453125">
        <ele>308.79998779296875</ele>
        <time>2019-11-03T09:00:53.000Z</time>
      </trkpt>
      <trkpt lat="36.87330910004675388336181640625" lon="-5.5162483267486095428466796875">
        <ele>308.399993896484375</ele>
        <time>2019-11-03T09:01:00.000Z</time>
      </trkpt>
      <trkpt lat="36.8733071722090244293212890625" lon="-5.516488216817378997802734375">
        <ele>308.600006103515625</ele>
        <time>2019-11-03T09:01:06.000Z</time>
      </trkpt>
      <trkpt lat="36.87330541200935840606689453125" lon="-5.51673866808414459228515625">
        <ele>308</ele>
        <time>2019-11-03T09:01:12.000Z</time>
      </trkpt>
      <trkpt lat="36.873310022056102752685546875" lon="-5.51699121482670307159423828125">
        <ele>307.600006103515625</ele>
        <time>2019-11-03T09:01:18.000Z</time>
      </trkpt>
      <trkpt lat="36.8733195774257183074951171875" lon="-5.51724552176892757415771484375">
        <ele>306.20001220703125</ele>
        <time>2019-11-03T09:01:23.000Z</time>
      </trkpt>
      <trkpt lat="36.87333089299499988555908203125" lon="-5.517474599182605743408203125">
        <ele>304.600006103515625</ele>
        <time>2019-11-03T09:01:27.000Z</time>
      </trkpt>
      <trkpt lat="36.87333516776561737060546875" lon="-5.51759689114987850189208984375">
        <ele>303.600006103515625</ele>
        <time>2019-11-03T09:01:29.000Z</time>
      </trkpt>
      <trkpt lat="36.873353607952594757080078125" lon="-5.51785874180495738983154296875">
        <ele>300.20001220703125</ele>
        <time>2019-11-03T09:01:33.000Z</time>
      </trkpt>
      <trkpt lat="36.87337967567145824432373046875" lon="-5.518157891929149627685546875">
        <ele>297.20001220703125</ele>
        <time>2019-11-03T09:01:37.000Z</time>
      </trkpt>
      <trkpt lat="36.87341521494090557098388671875" lon="-5.518414713442325592041015625">
        <ele>294</ele>
        <time>2019-11-03T09:01:40.000Z</time>
      </trkpt>
      <trkpt lat="36.87346081249415874481201171875" lon="-5.51870497874915599822998046875">
        <ele>291.79998779296875</ele>
        <time>2019-11-03T09:01:43.000Z</time>
      </trkpt>
      <trkpt lat="36.8735115230083465576171875" lon="-5.51902391016483306884765625">
        <ele>291.20001220703125</ele>
        <time>2019-11-03T09:01:46.000Z</time>
      </trkpt>
      <trkpt lat="36.87355183996260166168212890625" lon="-5.519249550998210906982421875">
        <ele>291.20001220703125</ele>
        <time>2019-11-03T09:01:48.000Z</time>
      </trkpt>
      <trkpt lat="36.87360498122870922088623046875" lon="-5.51948256790637969970703125">
        <ele>290.399993896484375</ele>
        <time>2019-11-03T09:01:50.000Z</time>
      </trkpt>
      <trkpt lat="36.87365711666643619537353515625" lon="-5.51972371526062488555908203125">
        <ele>288.79998779296875</ele>
        <time>2019-11-03T09:01:52.000Z</time>
      </trkpt>
      <trkpt lat="36.8737182207405567169189453125" lon="-5.51997207105159759521484375">
        <ele>288.20001220703125</ele>
        <time>2019-11-03T09:01:54.000Z</time>
      </trkpt>
      <trkpt lat="36.87378753907978534698486328125" lon="-5.5202277190983295440673828125">
        <ele>288.399993896484375</ele>
        <time>2019-11-03T09:01:56.000Z</time>
      </trkpt>
      <trkpt lat="36.87386247329413890838623046875" lon="-5.52048848010599613189697265625">
        <ele>288.20001220703125</ele>
        <time>2019-11-03T09:01:58.000Z</time>
      </trkpt>
      <trkpt lat="36.873949058353900909423828125" lon="-5.5207494087517261505126953125">
        <ele>287.399993896484375</ele>
        <time>2019-11-03T09:02:00.000Z</time>
      </trkpt>
      <trkpt lat="36.8740399181842803955078125" lon="-5.521015115082263946533203125">
        <ele>286</ele>
        <time>2019-11-03T09:02:02.000Z</time>
      </trkpt>
      <trkpt lat="36.8741356395184993743896484375" lon="-5.52127872593700885772705078125">
        <ele>283.20001220703125</ele>
        <time>2019-11-03T09:02:04.000Z</time>
      </trkpt>
      <trkpt lat="36.87423949129879474639892578125" lon="-5.5215460248291492462158203125">
        <ele>278.79998779296875</ele>
        <time>2019-11-03T09:02:06.000Z</time>
      </trkpt>
      <trkpt lat="36.87434828840196132659912109375" lon="-5.52181382663547992706298828125">
        <ele>275.79998779296875</ele>
        <time>2019-11-03T09:02:08.000Z</time>
      </trkpt>
      <trkpt lat="36.87446328811347484588623046875" lon="-5.52208204753696918487548828125">
        <ele>273</ele>
        <time>2019-11-03T09:02:10.000Z</time>
      </trkpt>
      <trkpt lat="36.874588765203952789306640625" lon="-5.5223506875336170196533203125">
        <ele>271.20001220703125</ele>
        <time>2019-11-03T09:02:12.000Z</time>
      </trkpt>
      <trkpt lat="36.8747250549495220184326171875" lon="-5.52261429838836193084716796875">
        <ele>270.79998779296875</ele>
        <time>2019-11-03T09:02:14.000Z</time>
      </trkpt>
      <trkpt lat="36.87486344017088413238525390625" lon="-5.52287614904344081878662109375">
        <ele>269.79998779296875</ele>
        <time>2019-11-03T09:02:16.000Z</time>
      </trkpt>
      <trkpt lat="36.87499947845935821533203125" lon="-5.5231405980885028839111328125">
        <ele>268.600006103515625</ele>
        <time>2019-11-03T09:02:18.000Z</time>
      </trkpt>
      <trkpt lat="36.87513870187103748321533203125" lon="-5.5234021134674549102783203125">
        <ele>265.20001220703125</ele>
        <time>2019-11-03T09:02:20.000Z</time>
      </trkpt>
      <trkpt lat="36.875280104577541351318359375" lon="-5.52366237156093120574951171875">
        <ele>261.79998779296875</ele>
        <time>2019-11-03T09:02:22.000Z</time>
      </trkpt>
      <trkpt lat="36.8754185736179351806640625" lon="-5.52392841316759586334228515625">
        <ele>259.79998779296875</ele>
        <time>2019-11-03T09:02:24.000Z</time>
      </trkpt>
      <trkpt lat="36.87556006014347076416015625" lon="-5.52418858744204044342041015625">
        <ele>257.399993896484375</ele>
        <time>2019-11-03T09:02:26.000Z</time>
      </trkpt>
      <trkpt lat="36.8756960146129131317138671875" lon="-5.5244506895542144775390625">
        <ele>255.1999969482421875</ele>
        <time>2019-11-03T09:02:28.000Z</time>
      </trkpt>
      <trkpt lat="36.875827945768833160400390625" lon="-5.52470885217189788818359375">
        <ele>253.1999969482421875</ele>
        <time>2019-11-03T09:02:30.000Z</time>
      </trkpt>
      <trkpt lat="36.875955350697040557861328125" lon="-5.5249725468456745147705078125">
        <ele>252.1999969482421875</ele>
        <time>2019-11-03T09:02:32.000Z</time>
      </trkpt>
      <trkpt lat="36.876075379550457000732421875" lon="-5.52523791790008544921875">
        <ele>251.8000030517578125</ele>
        <time>2019-11-03T09:02:34.000Z</time>
      </trkpt>
      <trkpt lat="36.87618996016681194305419921875" lon="-5.52550169639289379119873046875">
        <ele>252</ele>
        <time>2019-11-03T09:02:36.000Z</time>
      </trkpt>
      <trkpt lat="36.87630361877381801605224609375" lon="-5.5257621221244335174560546875">
        <ele>252.600006103515625</ele>
        <time>2019-11-03T09:02:38.000Z</time>
      </trkpt>
      <trkpt lat="36.87641224823892116546630859375" lon="-5.5260186083614826202392578125">
        <ele>254.1999969482421875</ele>
        <time>2019-11-03T09:02:40.000Z</time>
      </trkpt>
      <trkpt lat="36.87651400454342365264892578125" lon="-5.5262700654566287994384765625">
        <ele>254.1999969482421875</ele>
        <time>2019-11-03T09:02:42.000Z</time>
      </trkpt>
      <trkpt lat="36.87661475501954555511474609375" lon="-5.52652026526629924774169921875">
        <ele>252.600006103515625</ele>
        <time>2019-11-03T09:02:44.000Z</time>
      </trkpt>
      <trkpt lat="36.87671466730535030364990234375" lon="-5.526771806180477142333984375">
        <ele>250</ele>
        <time>2019-11-03T09:02:46.000Z</time>
      </trkpt>
      <trkpt lat="36.87681692652404308319091796875" lon="-5.52701563574373722076416015625">
        <ele>247.399993896484375</ele>
        <time>2019-11-03T09:02:48.000Z</time>
      </trkpt>
      <trkpt lat="36.87691801227629184722900390625" lon="-5.52725217305123805999755859375">
        <ele>245.399993896484375</ele>
        <time>2019-11-03T09:02:50.000Z</time>
      </trkpt>
      <trkpt lat="36.8770198523998260498046875" lon="-5.52748225629329681396484375">
        <ele>243.1999969482421875</ele>
        <time>2019-11-03T09:02:52.000Z</time>
      </trkpt>
      <trkpt lat="36.877124123275279998779296875" lon="-5.52770555019378662109375">
        <ele>241.399993896484375</ele>
        <time>2019-11-03T09:02:54.000Z</time>
      </trkpt>
      <trkpt lat="36.87722797505557537078857421875" lon="-5.52791853435337543487548828125">
        <ele>241.8000030517578125</ele>
        <time>2019-11-03T09:02:56.000Z</time>
      </trkpt>
      <trkpt lat="36.87733124010264873504638671875" lon="-5.528118610382080078125">
        <ele>241.8000030517578125</ele>
        <time>2019-11-03T09:02:58.000Z</time>
      </trkpt>
      <trkpt lat="36.87743366695940494537353515625" lon="-5.52830728702247142791748046875">
        <ele>241.600006103515625</ele>
        <time>2019-11-03T09:03:00.000Z</time>
      </trkpt>
      <trkpt lat="36.8775816075503826141357421875" lon="-5.52856293506920337677001953125">
        <ele>241.8000030517578125</ele>
        <time>2019-11-03T09:03:03.000Z</time>
      </trkpt>
      <trkpt lat="36.87772233970463275909423828125" lon="-5.5287926830351352691650390625">
        <ele>241.600006103515625</ele>
        <time>2019-11-03T09:03:06.000Z</time>
      </trkpt>
      <trkpt lat="36.87785091809928417205810546875" lon="-5.52899342961609363555908203125">
        <ele>241.600006103515625</ele>
        <time>2019-11-03T09:03:09.000Z</time>
      </trkpt>
      <trkpt lat="36.8780007027089595794677734375" lon="-5.52921228110790252685546875">
        <ele>241.8000030517578125</ele>
        <time>2019-11-03T09:03:13.000Z</time>
      </trkpt>
      <trkpt lat="36.8781271018087863922119140625" lon="-5.52938067354261875152587890625">
        <ele>241.399993896484375</ele>
        <time>2019-11-03T09:03:17.000Z</time>
      </trkpt>
      <trkpt lat="36.878264062106609344482421875" lon="-5.52956406958401203155517578125">
        <ele>242.399993896484375</ele>
        <time>2019-11-03T09:03:22.000Z</time>
      </trkpt>
      <trkpt lat="36.87840026803314685821533203125" lon="-5.5297314561903476715087890625">
        <ele>243.600006103515625</ele>
        <time>2019-11-03T09:03:27.000Z</time>
      </trkpt>
      <trkpt lat="36.8785411678254604339599609375" lon="-5.52990789525210857391357421875">
        <ele>245.8000030517578125</ele>
        <time>2019-11-03T09:03:33.000Z</time>
      </trkpt>
      <trkpt lat="36.87868994660675525665283203125" lon="-5.5300833284854888916015625">
        <ele>247.1999969482421875</ele>
        <time>2019-11-03T09:03:40.000Z</time>
      </trkpt>
      <trkpt lat="36.87883260659873485565185546875" lon="-5.53024501539766788482666015625">
        <ele>247.600006103515625</ele>
        <time>2019-11-03T09:03:47.000Z</time>
      </trkpt>
      <trkpt lat="36.878915168344974517822265625" lon="-5.53034006617963314056396484375">
        <ele>248.1999969482421875</ele>
        <time>2019-11-03T09:03:51.000Z</time>
      </trkpt>
      <trkpt lat="36.87893738038837909698486328125" lon="-5.5303654633462429046630859375">
        <ele>248.399993896484375</ele>
        <time>2019-11-03T09:03:52.000Z</time>
      </trkpt>
      <trkpt lat="36.87906512059271335601806640625" lon="-5.53049110807478427886962890625">
        <ele>249</ele>
        <time>2019-11-03T09:03:58.000Z</time>
      </trkpt>
      <trkpt lat="36.87921079806983470916748046875" lon="-5.5306390486657619476318359375">
        <ele>249.600006103515625</ele>
        <time>2019-11-03T09:04:05.000Z</time>
      </trkpt>
      <trkpt lat="36.87927785329520702362060546875" lon="-5.53070367313921451568603515625">
        <ele>250.1999969482421875</ele>
        <time>2019-11-03T09:04:08.000Z</time>
      </trkpt>
      <trkpt lat="36.879318170249462127685546875" lon="-5.53074776194989681243896484375">
        <ele>250.8000030517578125</ele>
        <time>2019-11-03T09:04:10.000Z</time>
      </trkpt>
      <trkpt lat="36.8794055096805095672607421875" lon="-5.5308348499238491058349609375">
        <ele>252</ele>
        <time>2019-11-03T09:04:14.000Z</time>
      </trkpt>
      <trkpt lat="36.87955630011856555938720703125" lon="-5.5309706367552280426025390625">
        <ele>253.600006103515625</ele>
        <time>2019-11-03T09:04:21.000Z</time>
      </trkpt>
      <trkpt lat="36.8797116167843341827392578125" lon="-5.5310983769595623016357421875">
        <ele>256.20001220703125</ele>
        <time>2019-11-03T09:04:28.000Z</time>
      </trkpt>
      <trkpt lat="36.87986768782138824462890625" lon="-5.5312234349548816680908203125">
        <ele>258.399993896484375</ele>
        <time>2019-11-03T09:04:35.000Z</time>
      </trkpt>
      <trkpt lat="36.880033649504184722900390625" lon="-5.5313528515398502349853515625">
        <ele>259.79998779296875</ele>
        <time>2019-11-03T09:04:42.000Z</time>
      </trkpt>
      <trkpt lat="36.880196593701839447021484375" lon="-5.5314849503338336944580078125">
        <ele>260.399993896484375</ele>
        <time>2019-11-03T09:04:49.000Z</time>
      </trkpt>
      <trkpt lat="36.88035761006176471710205078125" lon="-5.53160338662564754486083984375">
        <ele>261.20001220703125</ele>
        <time>2019-11-03T09:04:56.000Z</time>
      </trkpt>
      <trkpt lat="36.8805176205933094024658203125" lon="-5.53171620704233646392822265625">
        <ele>261</ele>
        <time>2019-11-03T09:05:03.000Z</time>
      </trkpt>
      <trkpt lat="36.88068483956158161163330078125" lon="-5.5318267643451690673828125">
        <ele>261.20001220703125</ele>
        <time>2019-11-03T09:05:10.000Z</time>
      </trkpt>
      <trkpt lat="36.8808528967201709747314453125" lon="-5.5319412611424922943115234375">
        <ele>261.600006103515625</ele>
        <time>2019-11-03T09:05:17.000Z</time>
      </trkpt>
      <trkpt lat="36.8810356222093105316162109375" lon="-5.5320542491972446441650390625">
        <ele>262.600006103515625</ele>
        <time>2019-11-03T09:05:24.000Z</time>
      </trkpt>
      <trkpt lat="36.8812176771461963653564453125" lon="-5.5321591906249523162841796875">
        <ele>262.79998779296875</ele>
        <time>2019-11-03T09:05:31.000Z</time>
      </trkpt>
      <trkpt lat="36.88140098936855792999267578125" lon="-5.532262958586215972900390625">
        <ele>263</ele>
        <time>2019-11-03T09:05:38.000Z</time>
      </trkpt>
      <trkpt lat="36.88157885335385799407958984375" lon="-5.53237502463161945343017578125">
        <ele>263</ele>
        <time>2019-11-03T09:05:45.000Z</time>
      </trkpt>
      <trkpt lat="36.88175671733915805816650390625" lon="-5.53248834796249866485595703125">
        <ele>264</ele>
        <time>2019-11-03T09:05:52.000Z</time>
      </trkpt>
      <trkpt lat="36.88193843699991703033447265625" lon="-5.53259865380823612213134765625">
        <ele>266</ele>
        <time>2019-11-03T09:05:59.000Z</time>
      </trkpt>
      <trkpt lat="36.882118396461009979248046875" lon="-5.53270946256816387176513671875">
        <ele>266.79998779296875</ele>
        <time>2019-11-03T09:06:06.000Z</time>
      </trkpt>
      <trkpt lat="36.88229215331375598907470703125" lon="-5.53282462991774082183837890625">
        <ele>267.399993896484375</ele>
        <time>2019-11-03T09:06:13.000Z</time>
      </trkpt>
      <trkpt lat="36.8824571929872035980224609375" lon="-5.53293460048735141754150390625">
        <ele>268.399993896484375</ele>
        <time>2019-11-03T09:06:19.000Z</time>
      </trkpt>
      <trkpt lat="36.88262256793677806854248046875" lon="-5.5330570600926876068115234375">
        <ele>268.20001220703125</ele>
        <time>2019-11-03T09:06:25.000Z</time>
      </trkpt>
      <trkpt lat="36.88278450630605220794677734375" lon="-5.533185303211212158203125">
        <ele>267.79998779296875</ele>
        <time>2019-11-03T09:06:31.000Z</time>
      </trkpt>
      <trkpt lat="36.88295759260654449462890625" lon="-5.5333225987851619720458984375">
        <ele>267.20001220703125</ele>
        <time>2019-11-03T09:06:37.000Z</time>
      </trkpt>
      <trkpt lat="36.88312984071671962738037109375" lon="-5.53346601314842700958251953125">
        <ele>267</ele>
        <time>2019-11-03T09:06:43.000Z</time>
      </trkpt>
      <trkpt lat="36.88330519013106822967529296875" lon="-5.5336236767470836639404296875">
        <ele>267</ele>
        <time>2019-11-03T09:06:49.000Z</time>
      </trkpt>
      <trkpt lat="36.88345623202621936798095703125" lon="-5.5337654985487461090087890625">
        <ele>267.20001220703125</ele>
        <time>2019-11-03T09:06:54.000Z</time>
      </trkpt>
      <trkpt lat="36.88360802829265594482421875" lon="-5.5339126847684383392333984375">
        <ele>267</ele>
        <time>2019-11-03T09:06:59.000Z</time>
      </trkpt>
      <trkpt lat="36.88375278376042842864990234375" lon="-5.5340664088726043701171875">
        <ele>265.79998779296875</ele>
        <time>2019-11-03T09:07:04.000Z</time>
      </trkpt>
      <trkpt lat="36.883909441530704498291015625" lon="-5.534241087734699249267578125">
        <ele>265</ele>
        <time>2019-11-03T09:07:09.000Z</time>
      </trkpt>
      <trkpt lat="36.88404480926692485809326171875" lon="-5.53439388982951641082763671875">
        <ele>264.20001220703125</ele>
        <time>2019-11-03T09:07:13.000Z</time>
      </trkpt>
      <trkpt lat="36.88418176956474781036376953125" lon="-5.53454627282917499542236328125">
        <ele>263</ele>
        <time>2019-11-03T09:07:17.000Z</time>
      </trkpt>
      <trkpt lat="36.8843156285583972930908203125" lon="-5.5346965603530406951904296875">
        <ele>262.20001220703125</ele>
        <time>2019-11-03T09:07:21.000Z</time>
      </trkpt>
      <trkpt lat="36.88446859829127788543701171875" lon="-5.534874759614467620849609375">
        <ele>262.20001220703125</ele>
        <time>2019-11-03T09:07:26.000Z</time>
      </trkpt>
      <trkpt lat="36.88461628742516040802001953125" lon="-5.53505304269492626190185546875">
        <ele>262.399993896484375</ele>
        <time>2019-11-03T09:07:31.000Z</time>
      </trkpt>
      <trkpt lat="36.8847528286278247833251953125" lon="-5.5352437309920787811279296875">
        <ele>263.20001220703125</ele>
        <time>2019-11-03T09:07:36.000Z</time>
      </trkpt>
      <trkpt lat="36.8848849274218082427978515625" lon="-5.53545637987554073333740234375">
        <ele>263.399993896484375</ele>
        <time>2019-11-03T09:07:41.000Z</time>
      </trkpt>
      <trkpt lat="36.8849989213049411773681640625" lon="-5.53564044646918773651123046875">
        <ele>263.20001220703125</ele>
        <time>2019-11-03T09:07:45.000Z</time>
      </trkpt>
      <trkpt lat="36.88513018190860748291015625" lon="-5.53585519082844257354736328125">
        <ele>262</ele>
        <time>2019-11-03T09:07:49.000Z</time>
      </trkpt>
      <trkpt lat="36.885272674262523651123046875" lon="-5.53609642200171947479248046875">
        <ele>261</ele>
        <time>2019-11-03T09:07:53.000Z</time>
      </trkpt>
      <trkpt lat="36.88537585549056529998779296875" lon="-5.5362911336123943328857421875">
        <ele>260.79998779296875</ele>
        <time>2019-11-03T09:07:56.000Z</time>
      </trkpt>
      <trkpt lat="36.885485909879207611083984375" lon="-5.536495484411716461181640625">
        <ele>259.600006103515625</ele>
        <time>2019-11-03T09:07:59.000Z</time>
      </trkpt>
      <trkpt lat="36.8855990655720233917236328125" lon="-5.53670997731387615203857421875">
        <ele>258.600006103515625</ele>
        <time>2019-11-03T09:08:02.000Z</time>
      </trkpt>
      <trkpt lat="36.88571565784513950347900390625" lon="-5.536944083869457244873046875">
        <ele>257.399993896484375</ele>
        <time>2019-11-03T09:08:05.000Z</time>
      </trkpt>
      <trkpt lat="36.88583669252693653106689453125" lon="-5.53719185292720794677734375">
        <ele>256</ele>
        <time>2019-11-03T09:08:08.000Z</time>
      </trkpt>
      <trkpt lat="36.8859521113336086273193359375" lon="-5.53745462559163570404052734375">
        <ele>254.399993896484375</ele>
        <time>2019-11-03T09:08:11.000Z</time>
      </trkpt>
      <trkpt lat="36.8860607407987117767333984375" lon="-5.53772552870213985443115234375">
        <ele>253.600006103515625</ele>
        <time>2019-11-03T09:08:14.000Z</time>
      </trkpt>
      <trkpt lat="36.88616509549319744110107421875" lon="-5.538004226982593536376953125">
        <ele>253.1999969482421875</ele>
        <time>2019-11-03T09:08:17.000Z</time>
      </trkpt>
      <trkpt lat="36.886274479329586029052734375" lon="-5.5382940731942653656005859375">
        <ele>251.8000030517578125</ele>
        <time>2019-11-03T09:08:20.000Z</time>
      </trkpt>
      <trkpt lat="36.886379420757293701171875" lon="-5.538594983518123626708984375">
        <ele>250</ele>
        <time>2019-11-03T09:08:23.000Z</time>
      </trkpt>
      <trkpt lat="36.88646835274994373321533203125" lon="-5.5389104783535003662109375">
        <ele>248</ele>
        <time>2019-11-03T09:08:26.000Z</time>
      </trkpt>
      <trkpt lat="36.88653004355728626251220703125" lon="-5.53912379778921604156494140625">
        <ele>247</ele>
        <time>2019-11-03T09:08:28.000Z</time>
      </trkpt>
      <trkpt lat="36.88659123145043849945068359375" lon="-5.5393394641578197479248046875">
        <ele>246.399993896484375</ele>
        <time>2019-11-03T09:08:30.000Z</time>
      </trkpt>
      <trkpt lat="36.8866494856774806976318359375" lon="-5.53955697454512119293212890625">
        <ele>245.399993896484375</ele>
        <time>2019-11-03T09:08:32.000Z</time>
      </trkpt>
      <trkpt lat="36.886703632771968841552734375" lon="-5.53977658040821552276611328125">
        <ele>244.399993896484375</ele>
        <time>2019-11-03T09:08:34.000Z</time>
      </trkpt>
      <trkpt lat="36.886749565601348876953125" lon="-5.53999970667064189910888671875">
        <ele>243.1999969482421875</ele>
        <time>2019-11-03T09:08:36.000Z</time>
      </trkpt>
      <trkpt lat="36.8867909722030162811279296875" lon="-5.54022367112338542938232421875">
        <ele>242</ele>
        <time>2019-11-03T09:08:38.000Z</time>
      </trkpt>
      <trkpt lat="36.88682944513857364654541015625" lon="-5.54044579155743122100830078125">
        <ele>241.600006103515625</ele>
        <time>2019-11-03T09:08:40.000Z</time>
      </trkpt>
      <trkpt lat="36.88686783425509929656982421875" lon="-5.54066841490566730499267578125">
        <ele>241</ele>
        <time>2019-11-03T09:08:42.000Z</time>
      </trkpt>
      <trkpt lat="36.88690605573356151580810546875" lon="-5.540890954434871673583984375">
        <ele>240.8000030517578125</ele>
        <time>2019-11-03T09:08:44.000Z</time>
      </trkpt>
      <trkpt lat="36.88697696663439273834228515625" lon="-5.54121525026857852935791015625">
        <ele>240</ele>
        <time>2019-11-03T09:08:47.000Z</time>
      </trkpt>
      <trkpt lat="36.88701451756060123443603515625" lon="-5.5414352752268314361572265625">
        <ele>239</ele>
        <time>2019-11-03T09:08:49.000Z</time>
      </trkpt>
      <trkpt lat="36.88705039210617542266845703125" lon="-5.5416572280228137969970703125">
        <ele>238</ele>
        <time>2019-11-03T09:08:51.000Z</time>
      </trkpt>
      <trkpt lat="36.88708760775625705718994140625" lon="-5.54187842644751071929931640625">
        <ele>237</ele>
        <time>2019-11-03T09:08:53.000Z</time>
      </trkpt>
      <trkpt lat="36.887124069035053253173828125" lon="-5.542099960148334503173828125">
        <ele>236.399993896484375</ele>
        <time>2019-11-03T09:08:55.000Z</time>
      </trkpt>
      <trkpt lat="36.8871584348380565643310546875" lon="-5.5423217453062534332275390625">
        <ele>235.399993896484375</ele>
        <time>2019-11-03T09:08:57.000Z</time>
      </trkpt>
      <trkpt lat="36.8872070498764514923095703125" lon="-5.542651824653148651123046875">
        <ele>234.399993896484375</ele>
        <time>2019-11-03T09:09:00.000Z</time>
      </trkpt>
      <trkpt lat="36.8872553296387195587158203125" lon="-5.54298047907650470733642578125">
        <ele>234.600006103515625</ele>
        <time>2019-11-03T09:09:03.000Z</time>
      </trkpt>
      <trkpt lat="36.88730117864906787872314453125" lon="-5.5433108098804950714111328125">
        <ele>234.1999969482421875</ele>
        <time>2019-11-03T09:09:06.000Z</time>
      </trkpt>
      <trkpt lat="36.88734568655490875244140625" lon="-5.54363711737096309661865234375">
        <ele>234.8000030517578125</ele>
        <time>2019-11-03T09:09:09.000Z</time>
      </trkpt>
      <trkpt lat="36.887390613555908203125" lon="-5.54395210929214954376220703125">
        <ele>234.1999969482421875</ele>
        <time>2019-11-03T09:09:12.000Z</time>
      </trkpt>
      <trkpt lat="36.88743495382368564605712890625" lon="-5.54427565075457096099853515625">
        <ele>233.399993896484375</ele>
        <time>2019-11-03T09:09:15.000Z</time>
      </trkpt>
      <trkpt lat="36.8874739296734333038330078125" lon="-5.54459902457892894744873046875">
        <ele>231.8000030517578125</ele>
        <time>2019-11-03T09:09:18.000Z</time>
      </trkpt>
      <trkpt lat="36.8875086307525634765625" lon="-5.544924326241016387939453125">
        <ele>231.1999969482421875</ele>
        <time>2019-11-03T09:09:21.000Z</time>
      </trkpt>
      <trkpt lat="36.887531764805316925048828125" lon="-5.545256249606609344482421875">
        <ele>230.8000030517578125</ele>
        <time>2019-11-03T09:09:24.000Z</time>
      </trkpt>
      <trkpt lat="36.88755263574421405792236328125" lon="-5.54558875970542430877685546875">
        <ele>229.600006103515625</ele>
        <time>2019-11-03T09:09:27.000Z</time>
      </trkpt>
      <trkpt lat="36.88756118528544902801513671875" lon="-5.54592286236584186553955078125">
        <ele>228.399993896484375</ele>
        <time>2019-11-03T09:09:30.000Z</time>
      </trkpt>
      <trkpt lat="36.88756118528544902801513671875" lon="-5.546148754656314849853515625">
        <ele>227.399993896484375</ele>
        <time>2019-11-03T09:09:32.000Z</time>
      </trkpt>
      <trkpt lat="36.88755783252418041229248046875" lon="-5.54637850262224674224853515625">
        <ele>226.600006103515625</ele>
        <time>2019-11-03T09:09:34.000Z</time>
      </trkpt>
      <trkpt lat="36.8875560723245143890380859375" lon="-5.54660313762724399566650390625">
        <ele>225.8000030517578125</ele>
        <time>2019-11-03T09:09:36.000Z</time>
      </trkpt>
      <trkpt lat="36.88754559494554996490478515625" lon="-5.5469351448118686676025390625">
        <ele>224.8000030517578125</ele>
        <time>2019-11-03T09:09:39.000Z</time>
      </trkpt>
      <trkpt lat="36.88752807676792144775390625" lon="-5.54725055582821369171142578125">
        <ele>223.399993896484375</ele>
        <time>2019-11-03T09:09:42.000Z</time>
      </trkpt>
      <trkpt lat="36.88750016503036022186279296875" lon="-5.5475580878555774688720703125">
        <ele>222.600006103515625</ele>
        <time>2019-11-03T09:09:45.000Z</time>
      </trkpt>
      <trkpt lat="36.88746529631316661834716796875" lon="-5.547865368425846099853515625">
        <ele>221.399993896484375</ele>
        <time>2019-11-03T09:09:48.000Z</time>
      </trkpt>
      <trkpt lat="36.88742824830114841461181640625" lon="-5.54815613664686679840087890625">
        <ele>220.399993896484375</ele>
        <time>2019-11-03T09:09:51.000Z</time>
      </trkpt>
      <trkpt lat="36.887388937175273895263671875" lon="-5.548437349498271942138671875">
        <ele>220.1999969482421875</ele>
        <time>2019-11-03T09:09:54.000Z</time>
      </trkpt>
      <trkpt lat="36.88734241761267185211181640625" lon="-5.54870230145752429962158203125">
        <ele>219.8000030517578125</ele>
        <time>2019-11-03T09:09:57.000Z</time>
      </trkpt>
      <trkpt lat="36.8872927129268646240234375" lon="-5.54895862005650997161865234375">
        <ele>218.8000030517578125</ele>
        <time>2019-11-03T09:10:00.000Z</time>
      </trkpt>
      <trkpt lat="36.88724585808813571929931640625" lon="-5.5492049641907215118408203125">
        <ele>219</ele>
        <time>2019-11-03T09:10:03.000Z</time>
      </trkpt>
      <trkpt lat="36.8871922977268695831298828125" lon="-5.5494507215917110443115234375">
        <ele>218.600006103515625</ele>
        <time>2019-11-03T09:10:06.000Z</time>
      </trkpt>
      <trkpt lat="36.8871410004794597625732421875" lon="-5.54969497025012969970703125">
        <ele>217.1999969482421875</ele>
        <time>2019-11-03T09:10:09.000Z</time>
      </trkpt>
      <trkpt lat="36.88708894886076450347900390625" lon="-5.5499365366995334625244140625">
        <ele>216.600006103515625</ele>
        <time>2019-11-03T09:10:12.000Z</time>
      </trkpt>
      <trkpt lat="36.88703681342303752899169921875" lon="-5.5501779355108737945556640625">
        <ele>216</ele>
        <time>2019-11-03T09:10:15.000Z</time>
      </trkpt>
      <trkpt lat="36.886983923614025115966796875" lon="-5.55041120387613773345947265625">
        <ele>216</ele>
        <time>2019-11-03T09:10:18.000Z</time>
      </trkpt>
      <trkpt lat="36.88692650757730007171630859375" lon="-5.55064673535525798797607421875">
        <ele>216</ele>
        <time>2019-11-03T09:10:21.000Z</time>
      </trkpt>
      <trkpt lat="36.88686599023640155792236328125" lon="-5.5508779920637607574462890625">
        <ele>216</ele>
        <time>2019-11-03T09:10:24.000Z</time>
      </trkpt>
      <trkpt lat="36.886808909475803375244140625" lon="-5.5510952509939670562744140625">
        <ele>215.399993896484375</ele>
        <time>2019-11-03T09:10:27.000Z</time>
      </trkpt>
      <trkpt lat="36.8867540918290615081787109375" lon="-5.55132483132183551788330078125">
        <ele>214.8000030517578125</ele>
        <time>2019-11-03T09:10:30.000Z</time>
      </trkpt>
      <trkpt lat="36.88670187257230281829833984375" lon="-5.5515492148697376251220703125">
        <ele>213.600006103515625</ele>
        <time>2019-11-03T09:10:33.000Z</time>
      </trkpt>
      <trkpt lat="36.886636912822723388671875" lon="-5.55182757787406444549560546875">
        <ele>212.399993896484375</ele>
        <time>2019-11-03T09:10:37.000Z</time>
      </trkpt>
      <trkpt lat="36.886574886739253997802734375" lon="-5.552102588117122650146484375">
        <ele>211.399993896484375</ele>
        <time>2019-11-03T09:10:41.000Z</time>
      </trkpt>
      <trkpt lat="36.886513195931911468505859375" lon="-5.55236871354281902313232421875">
        <ele>211.399993896484375</ele>
        <time>2019-11-03T09:10:45.000Z</time>
      </trkpt>
      <trkpt lat="36.88645116984844207763671875" lon="-5.55263064801692962646484375">
        <ele>212.399993896484375</ele>
        <time>2019-11-03T09:10:49.000Z</time>
      </trkpt>
      <trkpt lat="36.88639207743108272552490234375" lon="-5.55287464521825313568115234375">
        <ele>213</ele>
        <time>2019-11-03T09:10:53.000Z</time>
      </trkpt>
      <trkpt lat="36.8863403610885143280029296875" lon="-5.55309257470071315765380859375">
        <ele>213.1999969482421875</ele>
        <time>2019-11-03T09:10:57.000Z</time>
      </trkpt>
      <trkpt lat="36.88629182986915111541748046875" lon="-5.55331184528768062591552734375">
        <ele>214</ele>
        <time>2019-11-03T09:11:01.000Z</time>
      </trkpt>
      <trkpt lat="36.8862394429743289947509765625" lon="-5.5535446107387542724609375">
        <ele>213.399993896484375</ele>
        <time>2019-11-03T09:11:05.000Z</time>
      </trkpt>
      <trkpt lat="36.88618940301239490509033203125" lon="-5.55378274060785770416259765625">
        <ele>212</ele>
        <time>2019-11-03T09:11:09.000Z</time>
      </trkpt>
      <trkpt lat="36.88614229671657085418701171875" lon="-5.5540166795253753662109375">
        <ele>211</ele>
        <time>2019-11-03T09:11:13.000Z</time>
      </trkpt>
      <trkpt lat="36.88608446158468723297119140625" lon="-5.55426034145057201385498046875">
        <ele>211</ele>
        <time>2019-11-03T09:11:17.000Z</time>
      </trkpt>
      <trkpt lat="36.8860355950891971588134765625" lon="-5.5545050092041492462158203125">
        <ele>210.1999969482421875</ele>
        <time>2019-11-03T09:11:21.000Z</time>
      </trkpt>
      <trkpt lat="36.88599544577300548553466796875" lon="-5.554733164608478546142578125">
        <ele>209.8000030517578125</ele>
        <time>2019-11-03T09:11:25.000Z</time>
      </trkpt>
      <trkpt lat="36.885952614247798919677734375" lon="-5.55495318956673145294189453125">
        <ele>210.8000030517578125</ele>
        <time>2019-11-03T09:11:29.000Z</time>
      </trkpt>
      <trkpt lat="36.88590399920940399169921875" lon="-5.55518201552331447601318359375">
        <ele>211.8000030517578125</ele>
        <time>2019-11-03T09:11:33.000Z</time>
      </trkpt>
      <trkpt lat="36.88585446216166019439697265625" lon="-5.5554162897169589996337890625">
        <ele>213</ele>
        <time>2019-11-03T09:11:37.000Z</time>
      </trkpt>
      <trkpt lat="36.885800063610076904296875" lon="-5.55565324611961841583251953125">
        <ele>213.1999969482421875</ele>
        <time>2019-11-03T09:11:41.000Z</time>
      </trkpt>
      <trkpt lat="36.88575522042810916900634765625" lon="-5.55588416755199432373046875">
        <ele>213.1999969482421875</ele>
        <time>2019-11-03T09:11:45.000Z</time>
      </trkpt>
      <trkpt lat="36.88571196980774402618408203125" lon="-5.556134283542633056640625">
        <ele>212.600006103515625</ele>
        <time>2019-11-03T09:11:49.000Z</time>
      </trkpt>
      <trkpt lat="36.8856704793870449066162109375" lon="-5.5563828907907009124755859375">
        <ele>211</ele>
        <time>2019-11-03T09:11:53.000Z</time>
      </trkpt>
      <trkpt lat="36.88564323820173740386962890625" lon="-5.5566273070871829986572265625">
        <ele>210.399993896484375</ele>
        <time>2019-11-03T09:11:57.000Z</time>
      </trkpt>
      <trkpt lat="36.88561473973095417022705078125" lon="-5.55687868036329746246337890625">
        <ele>209.600006103515625</ele>
        <time>2019-11-03T09:12:01.000Z</time>
      </trkpt>
      <trkpt lat="36.885587163269519805908203125" lon="-5.5571298860013484954833984375">
        <ele>209.1999969482421875</ele>
        <time>2019-11-03T09:12:05.000Z</time>
      </trkpt>
      <trkpt lat="36.88556713052093982696533203125" lon="-5.55738612078130245208740234375">
        <ele>209.1999969482421875</ele>
        <time>2019-11-03T09:12:09.000Z</time>
      </trkpt>
      <trkpt lat="36.88554869033396244049072265625" lon="-5.55763439275324344635009765625">
        <ele>210</ele>
        <time>2019-11-03T09:12:13.000Z</time>
      </trkpt>
      <trkpt lat="36.88552823849022388458251953125" lon="-5.55787478573620319366455078125">
        <ele>210</ele>
        <time>2019-11-03T09:12:17.000Z</time>
      </trkpt>
      <trkpt lat="36.8855038471519947052001953125" lon="-5.55811450816690921783447265625">
        <ele>210</ele>
        <time>2019-11-03T09:12:21.000Z</time>
      </trkpt>
      <trkpt lat="36.88548155128955841064453125" lon="-5.55836252868175506591796875">
        <ele>210</ele>
        <time>2019-11-03T09:12:25.000Z</time>
      </trkpt>
      <trkpt lat="36.88545607030391693115234375" lon="-5.55861591361463069915771484375">
        <ele>209</ele>
        <time>2019-11-03T09:12:29.000Z</time>
      </trkpt>
      <trkpt lat="36.885426230728626251220703125" lon="-5.55888178758323192596435546875">
        <ele>209</ele>
        <time>2019-11-03T09:12:33.000Z</time>
      </trkpt>
      <trkpt lat="36.885397732257843017578125" lon="-5.55917314253747463226318359375">
        <ele>209</ele>
        <time>2019-11-03T09:12:37.000Z</time>
      </trkpt>
      <trkpt lat="36.8853749334812164306640625" lon="-5.5594040639698505401611328125">
        <ele>208.1999969482421875</ele>
        <time>2019-11-03T09:12:40.000Z</time>
      </trkpt>
      <trkpt lat="36.88535339199006557464599609375" lon="-5.55964387021958827972412109375">
        <ele>207</ele>
        <time>2019-11-03T09:12:43.000Z</time>
      </trkpt>
      <trkpt lat="36.8853325210511684417724609375" lon="-5.55988962762057781219482421875">
        <ele>205.600006103515625</ele>
        <time>2019-11-03T09:12:46.000Z</time>
      </trkpt>
      <trkpt lat="36.88531047664582729339599609375" lon="-5.560145191848278045654296875">
        <ele>205</ele>
        <time>2019-11-03T09:12:49.000Z</time>
      </trkpt>
      <trkpt lat="36.885292120277881622314453125" lon="-5.56040176190435886383056640625">
        <ele>204.600006103515625</ele>
        <time>2019-11-03T09:12:52.000Z</time>
      </trkpt>
      <trkpt lat="36.88526387326419353485107421875" lon="-5.56065020151436328887939453125">
        <ele>203.8000030517578125</ele>
        <time>2019-11-03T09:12:55.000Z</time>
      </trkpt>
      <trkpt lat="36.8852312676608562469482421875" lon="-5.56090316735208034515380859375">
        <ele>202.600006103515625</ele>
        <time>2019-11-03T09:12:58.000Z</time>
      </trkpt>
      <trkpt lat="36.88519581221044063568115234375" lon="-5.5611582286655902862548828125">
        <ele>201</ele>
        <time>2019-11-03T09:13:01.000Z</time>
      </trkpt>
      <trkpt lat="36.8851451016962528228759765625" lon="-5.56141220033168792724609375">
        <ele>198.1999969482421875</ele>
        <time>2019-11-03T09:13:04.000Z</time>
      </trkpt>
      <trkpt lat="36.88508919440209865570068359375" lon="-5.56166474707424640655517578125">
        <ele>197</ele>
        <time>2019-11-03T09:13:07.000Z</time>
      </trkpt>
      <trkpt lat="36.88502800650894641876220703125" lon="-5.561916790902614593505859375">
        <ele>196.1999969482421875</ele>
        <time>2019-11-03T09:13:10.000Z</time>
      </trkpt>
      <trkpt lat="36.88495575450360774993896484375" lon="-5.56215844117105007171630859375">
        <ele>196</ele>
        <time>2019-11-03T09:13:13.000Z</time>
      </trkpt>
      <trkpt lat="36.8848840892314910888671875" lon="-5.5624071322381496429443359375">
        <ele>196</ele>
        <time>2019-11-03T09:13:16.000Z</time>
      </trkpt>
      <trkpt lat="36.88480990938842296600341796875" lon="-5.56265062652528285980224609375">
        <ele>196.8000030517578125</ele>
        <time>2019-11-03T09:13:19.000Z</time>
      </trkpt>
      <trkpt lat="36.8847380764782428741455078125" lon="-5.56289680302143096923828125">
        <ele>197.399993896484375</ele>
        <time>2019-11-03T09:13:22.000Z</time>
      </trkpt>
      <trkpt lat="36.8846633099019527435302734375" lon="-5.5631464160978794097900390625">
        <ele>197</ele>
        <time>2019-11-03T09:13:25.000Z</time>
      </trkpt>
      <trkpt lat="36.88458703458309173583984375" lon="-5.56339024566113948822021484375">
        <ele>197</ele>
        <time>2019-11-03T09:13:28.000Z</time>
      </trkpt>
      <trkpt lat="36.8845166265964508056640625" lon="-5.5636469833552837371826171875">
        <ele>195.8000030517578125</ele>
        <time>2019-11-03T09:13:31.000Z</time>
      </trkpt>
      <trkpt lat="36.88444353640079498291015625" lon="-5.56390053592622280120849609375">
        <ele>195.600006103515625</ele>
        <time>2019-11-03T09:13:34.000Z</time>
      </trkpt>
      <trkpt lat="36.88436751253902912139892578125" lon="-5.5641579441726207733154296875">
        <ele>194.1999969482421875</ele>
        <time>2019-11-03T09:13:37.000Z</time>
      </trkpt>
      <trkpt lat="36.88428939320147037506103515625" lon="-5.5644130893051624298095703125">
        <ele>192.399993896484375</ele>
        <time>2019-11-03T09:13:40.000Z</time>
      </trkpt>
      <trkpt lat="36.8842113576829433441162109375" lon="-5.56467552669346332550048828125">
        <ele>191.600006103515625</ele>
        <time>2019-11-03T09:13:43.000Z</time>
      </trkpt>
      <trkpt lat="36.88412896357476711273193359375" lon="-5.5649384669959545135498046875">
        <ele>191.1999969482421875</ele>
        <time>2019-11-03T09:13:46.000Z</time>
      </trkpt>
      <trkpt lat="36.88404564745724201202392578125" lon="-5.56520509533584117889404296875">
        <ele>190.600006103515625</ele>
        <time>2019-11-03T09:13:49.000Z</time>
      </trkpt>
      <trkpt lat="36.8839652650058269500732421875" lon="-5.56546635925769805908203125">
        <ele>189.8000030517578125</ele>
        <time>2019-11-03T09:13:52.000Z</time>
      </trkpt>
      <trkpt lat="36.8838911689817905426025390625" lon="-5.5657129548490047454833984375">
        <ele>189.8000030517578125</ele>
        <time>2019-11-03T09:13:55.000Z</time>
      </trkpt>
      <trkpt lat="36.88381631858646869659423828125" lon="-5.5659600533545017242431640625">
        <ele>190.1999969482421875</ele>
        <time>2019-11-03T09:13:58.000Z</time>
      </trkpt>
      <trkpt lat="36.883745826780796051025390625" lon="-5.56618058122694492340087890625">
        <ele>190.1999969482421875</ele>
        <time>2019-11-03T09:14:01.000Z</time>
      </trkpt>
      <trkpt lat="36.88366494141519069671630859375" lon="-5.5664539150893688201904296875">
        <ele>189.399993896484375</ele>
        <time>2019-11-03T09:14:05.000Z</time>
      </trkpt>
      <trkpt lat="36.88359134830534458160400390625" lon="-5.56672272272408008575439453125">
        <ele>188.1999969482421875</ele>
        <time>2019-11-03T09:14:09.000Z</time>
      </trkpt>
      <trkpt lat="36.883506439626216888427734375" lon="-5.56698859669268131256103515625">
        <ele>188.399993896484375</ele>
        <time>2019-11-03T09:14:13.000Z</time>
      </trkpt>
      <trkpt lat="36.88342119567096233367919921875" lon="-5.56725899688899517059326171875">
        <ele>189</ele>
        <time>2019-11-03T09:14:17.000Z</time>
      </trkpt>
      <trkpt lat="36.88333712518215179443359375" lon="-5.56753023527562618255615234375">
        <ele>188.600006103515625</ele>
        <time>2019-11-03T09:14:21.000Z</time>
      </trkpt>
      <trkpt lat="36.8832467682659626007080078125" lon="-5.5678037367761135101318359375">
        <ele>187.600006103515625</ele>
        <time>2019-11-03T09:14:25.000Z</time>
      </trkpt>
      <trkpt lat="36.8831621110439300537109375" lon="-5.56807321496307849884033203125">
        <ele>186</ele>
        <time>2019-11-03T09:14:29.000Z</time>
      </trkpt>
      <trkpt lat="36.88307829201221466064453125" lon="-5.56833791546523571014404296875">
        <ele>186.399993896484375</ele>
        <time>2019-11-03T09:14:33.000Z</time>
      </trkpt>
      <trkpt lat="36.88299916684627532958984375" lon="-5.56860311888158321380615234375">
        <ele>186.8000030517578125</ele>
        <time>2019-11-03T09:14:37.000Z</time>
      </trkpt>
      <trkpt lat="36.88292062841355800628662109375" lon="-5.56886899285018444061279296875">
        <ele>187.1999969482421875</ele>
        <time>2019-11-03T09:14:41.000Z</time>
      </trkpt>
      <trkpt lat="36.88284628093242645263671875" lon="-5.56914593093097209930419921875">
        <ele>187.399993896484375</ele>
        <time>2019-11-03T09:14:45.000Z</time>
      </trkpt>
      <trkpt lat="36.8827646411955356597900390625" lon="-5.56941591203212738037109375">
        <ele>187.1999969482421875</ele>
        <time>2019-11-03T09:14:49.000Z</time>
      </trkpt>
      <trkpt lat="36.88270102255046367645263671875" lon="-5.56962621398270130157470703125">
        <ele>187</ele>
        <time>2019-11-03T09:14:52.000Z</time>
      </trkpt>
      <trkpt lat="36.88263799063861370086669921875" lon="-5.5698425509035587310791015625">
        <ele>186.1999969482421875</ele>
        <time>2019-11-03T09:14:55.000Z</time>
      </trkpt>
      <trkpt lat="36.8825720250606536865234375" lon="-5.57006224058568477630615234375">
        <ele>185.8000030517578125</ele>
        <time>2019-11-03T09:14:58.000Z</time>
      </trkpt>
      <trkpt lat="36.88250438310205936431884765625" lon="-5.57028402574360370635986328125">
        <ele>185.1999969482421875</ele>
        <time>2019-11-03T09:15:01.000Z</time>
      </trkpt>
      <trkpt lat="36.8824405968189239501953125" lon="-5.5705050565302371978759765625">
        <ele>185.600006103515625</ele>
        <time>2019-11-03T09:15:04.000Z</time>
      </trkpt>
      <trkpt lat="36.88237689435482025146484375" lon="-5.57072340510785579681396484375">
        <ele>184.8000030517578125</ele>
        <time>2019-11-03T09:15:07.000Z</time>
      </trkpt>
      <trkpt lat="36.88231042586266994476318359375" lon="-5.570932365953922271728515625">
        <ele>183.600006103515625</ele>
        <time>2019-11-03T09:15:10.000Z</time>
      </trkpt>
      <trkpt lat="36.8822241760790348052978515625" lon="-5.57119865901768207550048828125">
        <ele>182.1999969482421875</ele>
        <time>2019-11-03T09:15:14.000Z</time>
      </trkpt>
      <trkpt lat="36.88214488327503204345703125" lon="-5.5714689753949642181396484375">
        <ele>181.399993896484375</ele>
        <time>2019-11-03T09:15:18.000Z</time>
      </trkpt>
      <trkpt lat="36.882066093385219573974609375" lon="-5.57173878885805606842041015625">
        <ele>180</ele>
        <time>2019-11-03T09:15:22.000Z</time>
      </trkpt>
      <trkpt lat="36.88198822550475597381591796875" lon="-5.57200491428375244140625">
        <ele>178.600006103515625</ele>
        <time>2019-11-03T09:15:26.000Z</time>
      </trkpt>
      <trkpt lat="36.88190775923430919647216796875" lon="-5.5722686089575290679931640625">
        <ele>177.399993896484375</ele>
        <time>2019-11-03T09:15:30.000Z</time>
      </trkpt>
      <trkpt lat="36.88183064572513103485107421875" lon="-5.57252936996519565582275390625">
        <ele>176.399993896484375</ele>
        <time>2019-11-03T09:15:34.000Z</time>
      </trkpt>
      <trkpt lat="36.88175923191010951995849609375" lon="-5.57278702966868877410888671875">
        <ele>177</ele>
        <time>2019-11-03T09:15:38.000Z</time>
      </trkpt>
      <trkpt lat="36.8816981278359889984130859375" lon="-5.5730407498776912689208984375">
        <ele>177.600006103515625</ele>
        <time>2019-11-03T09:15:42.000Z</time>
      </trkpt>
      <trkpt lat="36.88162378035485744476318359375" lon="-5.5732803046703338623046875">
        <ele>178</ele>
        <time>2019-11-03T09:15:46.000Z</time>
      </trkpt>
      <trkpt lat="36.8815506063401699066162109375" lon="-5.5735131539404392242431640625">
        <ele>178</ele>
        <time>2019-11-03T09:15:50.000Z</time>
      </trkpt>
      <trkpt lat="36.8814788572490215301513671875" lon="-5.57373988442122936248779296875">
        <ele>177.600006103515625</ele>
        <time>2019-11-03T09:15:54.000Z</time>
      </trkpt>
      <trkpt lat="36.881403587758541107177734375" lon="-5.57396552525460720062255859375">
        <ele>176.8000030517578125</ele>
        <time>2019-11-03T09:15:58.000Z</time>
      </trkpt>
      <trkpt lat="36.8813310004770755767822265625" lon="-5.5741920880973339080810546875">
        <ele>176</ele>
        <time>2019-11-03T09:16:02.000Z</time>
      </trkpt>
      <trkpt lat="36.88125346787273883819580078125" lon="-5.57443222962319850921630859375">
        <ele>174.1999969482421875</ele>
        <time>2019-11-03T09:16:06.000Z</time>
      </trkpt>
      <trkpt lat="36.88117518089711666107177734375" lon="-5.5746785737574100494384765625">
        <ele>173</ele>
        <time>2019-11-03T09:16:10.000Z</time>
      </trkpt>
      <trkpt lat="36.88111080788075923919677734375" lon="-5.574915111064910888671875">
        <ele>172.600006103515625</ele>
        <time>2019-11-03T09:16:14.000Z</time>
      </trkpt>
      <trkpt lat="36.8810383044183254241943359375" lon="-5.57516933418810367584228515625">
        <ele>172.8000030517578125</ele>
        <time>2019-11-03T09:16:18.000Z</time>
      </trkpt>
      <trkpt lat="36.88094954006373882293701171875" lon="-5.5754433386027812957763671875">
        <ele>173.600006103515625</ele>
        <time>2019-11-03T09:16:22.000Z</time>
      </trkpt>
      <trkpt lat="36.88088558614253997802734375" lon="-5.57565607130527496337890625">
        <ele>174</ele>
        <time>2019-11-03T09:16:25.000Z</time>
      </trkpt>
      <trkpt lat="36.88082649372518062591552734375" lon="-5.57586888782680034637451171875">
        <ele>174.600006103515625</ele>
        <time>2019-11-03T09:16:28.000Z</time>
      </trkpt>
      <trkpt lat="36.8807576783001422882080078125" lon="-5.57607944123446941375732421875">
        <ele>174.399993896484375</ele>
        <time>2019-11-03T09:16:31.000Z</time>
      </trkpt>
      <trkpt lat="36.88067561946809291839599609375" lon="-5.5763549543917179107666015625">
        <ele>174</ele>
        <time>2019-11-03T09:16:35.000Z</time>
      </trkpt>
      <trkpt lat="36.88065759837627410888671875" lon="-5.5764250271022319793701171875">
        <ele>174</ele>
        <time>2019-11-03T09:16:36.000Z</time>
      </trkpt>
      <trkpt lat="36.88060889951884746551513671875" lon="-5.57664538733661174774169921875">
        <ele>173.1999969482421875</ele>
        <time>2019-11-03T09:16:39.000Z</time>
      </trkpt>
      <trkpt lat="36.880533881485462188720703125" lon="-5.576849989593029022216796875">
        <ele>172</ele>
        <time>2019-11-03T09:16:42.000Z</time>
      </trkpt>
      <trkpt lat="36.88044914044439792633056640625" lon="-5.57705325074493885040283203125">
        <ele>171.1999969482421875</ele>
        <time>2019-11-03T09:16:45.000Z</time>
      </trkpt>
      <trkpt lat="36.88035509549081325531005859375" lon="-5.5772660672664642333984375">
        <ele>171</ele>
        <time>2019-11-03T09:16:48.000Z</time>
      </trkpt>
      <trkpt lat="36.88026037998497486114501953125" lon="-5.57748206891119480133056640625">
        <ele>171.399993896484375</ele>
        <time>2019-11-03T09:16:51.000Z</time>
      </trkpt>
      <trkpt lat="36.8801605515182018280029296875" lon="-5.57769211940467357635498046875">
        <ele>171.1999969482421875</ele>
        <time>2019-11-03T09:16:54.000Z</time>
      </trkpt>
      <trkpt lat="36.88005418516695499420166015625" lon="-5.577900074422359466552734375">
        <ele>170.8000030517578125</ele>
        <time>2019-11-03T09:16:57.000Z</time>
      </trkpt>
      <trkpt lat="36.8799402751028537750244140625" lon="-5.578113980591297149658203125">
        <ele>170.399993896484375</ele>
        <time>2019-11-03T09:17:00.000Z</time>
      </trkpt>
      <trkpt lat="36.87982116825878620147705078125" lon="-5.57831992395222187042236328125">
        <ele>170</ele>
        <time>2019-11-03T09:17:03.000Z</time>
      </trkpt>
      <trkpt lat="36.8797069229185581207275390625" lon="-5.57852603495121002197265625">
        <ele>169.8000030517578125</ele>
        <time>2019-11-03T09:17:06.000Z</time>
      </trkpt>
      <trkpt lat="36.87959485687315464019775390625" lon="-5.5787273682653903961181640625">
        <ele>169.399993896484375</ele>
        <time>2019-11-03T09:17:09.000Z</time>
      </trkpt>
      <trkpt lat="36.87948354519903659820556640625" lon="-5.5789235047996044158935546875">
        <ele>168.399993896484375</ele>
        <time>2019-11-03T09:17:12.000Z</time>
      </trkpt>
      <trkpt lat="36.87937290407717227935791015625" lon="-5.5791221559047698974609375">
        <ele>166.399993896484375</ele>
        <time>2019-11-03T09:17:15.000Z</time>
      </trkpt>
      <trkpt lat="36.87926611863076686859130859375" lon="-5.57932307012379169464111328125">
        <ele>165</ele>
        <time>2019-11-03T09:17:18.000Z</time>
      </trkpt>
      <trkpt lat="36.87916821800172328948974609375" lon="-5.57951350696384906768798828125">
        <ele>164.399993896484375</ele>
        <time>2019-11-03T09:17:21.000Z</time>
      </trkpt>
      <trkpt lat="36.87903963960707187652587890625" lon="-5.579767562448978424072265625">
        <ele>164.600006103515625</ele>
        <time>2019-11-03T09:17:25.000Z</time>
      </trkpt>
      <trkpt lat="36.8789134919643402099609375" lon="-5.58000971563160419464111328125">
        <ele>166.1999969482421875</ele>
        <time>2019-11-03T09:17:29.000Z</time>
      </trkpt>
      <trkpt lat="36.87878466211259365081787109375" lon="-5.5802458338439464569091796875">
        <ele>167.1999969482421875</ele>
        <time>2019-11-03T09:17:33.000Z</time>
      </trkpt>
      <trkpt lat="36.87867142260074615478515625" lon="-5.5804686248302459716796875">
        <ele>167.8000030517578125</ele>
        <time>2019-11-03T09:17:37.000Z</time>
      </trkpt>
      <trkpt lat="36.87856270931661128997802734375" lon="-5.58067339472472667694091796875">
        <ele>168.600006103515625</ele>
        <time>2019-11-03T09:17:41.000Z</time>
      </trkpt>
      <trkpt lat="36.87845055945217609405517578125" lon="-5.58088260702788829803466796875">
        <ele>169</ele>
        <time>2019-11-03T09:17:45.000Z</time>
      </trkpt>
      <trkpt lat="36.87834075652062892913818359375" lon="-5.58109223842620849609375">
        <ele>168.600006103515625</ele>
        <time>2019-11-03T09:17:49.000Z</time>
      </trkpt>
      <trkpt lat="36.8782347254455089569091796875" lon="-5.58130136691033840179443359375">
        <ele>168.8000030517578125</ele>
        <time>2019-11-03T09:17:53.000Z</time>
      </trkpt>
      <trkpt lat="36.8781301192939281463623046875" lon="-5.58150689117610454559326171875">
        <ele>169.1999969482421875</ele>
        <time>2019-11-03T09:17:57.000Z</time>
      </trkpt>
      <trkpt lat="36.87802593223750591278076171875" lon="-5.58171451091766357421875">
        <ele>169</ele>
        <time>2019-11-03T09:18:01.000Z</time>
      </trkpt>
      <trkpt lat="36.87791462056338787078857421875" lon="-5.58191760443150997161865234375">
        <ele>168.1999969482421875</ele>
        <time>2019-11-03T09:18:05.000Z</time>
      </trkpt>
      <trkpt lat="36.87781118787825107574462890625" lon="-5.5821109749376773834228515625">
        <ele>167.8000030517578125</ele>
        <time>2019-11-03T09:18:09.000Z</time>
      </trkpt>
      <trkpt lat="36.877689398825168609619140625" lon="-5.5823429860174655914306640625">
        <ele>167.399993896484375</ele>
        <time>2019-11-03T09:18:14.000Z</time>
      </trkpt>
      <trkpt lat="36.877584122121334075927734375" lon="-5.582535266876220703125">
        <ele>167</ele>
        <time>2019-11-03T09:18:18.000Z</time>
      </trkpt>
      <trkpt lat="36.877479851245880126953125" lon="-5.58273316361010074615478515625">
        <ele>167.399993896484375</ele>
        <time>2019-11-03T09:18:22.000Z</time>
      </trkpt>
      <trkpt lat="36.8773797713220119476318359375" lon="-5.58293022215366363525390625">
        <ele>167.600006103515625</ele>
        <time>2019-11-03T09:18:26.000Z</time>
      </trkpt>
      <trkpt lat="36.8772812001407146453857421875" lon="-5.5831225030124187469482421875">
        <ele>168</ele>
        <time>2019-11-03T09:18:30.000Z</time>
      </trkpt>
      <trkpt lat="36.8771631829440593719482421875" lon="-5.58336080051958560943603515625">
        <ele>168.399993896484375</ele>
        <time>2019-11-03T09:18:35.000Z</time>
      </trkpt>
      <trkpt lat="36.87704206444323062896728515625" lon="-5.58359163813292980194091796875">
        <ele>168.8000030517578125</ele>
        <time>2019-11-03T09:18:40.000Z</time>
      </trkpt>
      <trkpt lat="36.87692320905625820159912109375" lon="-5.58381744660437107086181640625">
        <ele>169</ele>
        <time>2019-11-03T09:18:45.000Z</time>
      </trkpt>
      <trkpt lat="36.87680150382220745086669921875" lon="-5.5840451829135417938232421875">
        <ele>168.600006103515625</ele>
        <time>2019-11-03T09:18:50.000Z</time>
      </trkpt>
      <trkpt lat="36.87668256461620330810546875" lon="-5.58427459560334682464599609375">
        <ele>168.399993896484375</ele>
        <time>2019-11-03T09:18:55.000Z</time>
      </trkpt>
      <trkpt lat="36.876583993434906005859375" lon="-5.584466457366943359375">
        <ele>168.600006103515625</ele>
        <time>2019-11-03T09:18:59.000Z</time>
      </trkpt>
      <trkpt lat="36.87645466066896915435791015625" lon="-5.5846956185996532440185546875">
        <ele>168.1999969482421875</ele>
        <time>2019-11-03T09:19:04.000Z</time>
      </trkpt>
      <trkpt lat="36.87634737230837345123291015625" lon="-5.5848954431712627410888671875">
        <ele>167.399993896484375</ele>
        <time>2019-11-03T09:19:08.000Z</time>
      </trkpt>
      <trkpt lat="36.87624343670904636383056640625" lon="-5.58509878814220428466796875">
        <ele>166.8000030517578125</ele>
        <time>2019-11-03T09:19:12.000Z</time>
      </trkpt>
      <trkpt lat="36.87613816000521183013916015625" lon="-5.5852954275906085968017578125">
        <ele>166.399993896484375</ele>
        <time>2019-11-03T09:19:16.000Z</time>
      </trkpt>
      <trkpt lat="36.87603020109236240386962890625" lon="-5.58549600653350353240966796875">
        <ele>166.8000030517578125</ele>
        <time>2019-11-03T09:19:20.000Z</time>
      </trkpt>
      <trkpt lat="36.8759228289127349853515625" lon="-5.58570002205669879913330078125">
        <ele>166.600006103515625</ele>
        <time>2019-11-03T09:19:24.000Z</time>
      </trkpt>
      <trkpt lat="36.87581084668636322021484375" lon="-5.5859096534550189971923828125">
        <ele>166</ele>
        <time>2019-11-03T09:19:28.000Z</time>
      </trkpt>
      <trkpt lat="36.875693500041961669921875" lon="-5.58612816967070102691650390625">
        <ele>166</ele>
        <time>2019-11-03T09:19:32.000Z</time>
      </trkpt>
      <trkpt lat="36.8755766563117504119873046875" lon="-5.5863488651812076568603515625">
        <ele>166</ele>
        <time>2019-11-03T09:19:36.000Z</time>
      </trkpt>
      <trkpt lat="36.87545419670641422271728515625" lon="-5.5865748412907123565673828125">
        <ele>164.8000030517578125</ele>
        <time>2019-11-03T09:19:40.000Z</time>
      </trkpt>
      <trkpt lat="36.87532796524465084075927734375" lon="-5.5868055112659931182861328125">
        <ele>163.8000030517578125</ele>
        <time>2019-11-03T09:19:44.000Z</time>
      </trkpt>
      <trkpt lat="36.8752021528780460357666015625" lon="-5.58705034665763378143310546875">
        <ele>163.399993896484375</ele>
        <time>2019-11-03T09:19:48.000Z</time>
      </trkpt>
      <trkpt lat="36.8750690482556819915771484375" lon="-5.5872946791350841522216796875">
        <ele>163</ele>
        <time>2019-11-03T09:19:52.000Z</time>
      </trkpt>
      <trkpt lat="36.874935440719127655029296875" lon="-5.58754018507897853851318359375">
        <ele>163</ele>
        <time>2019-11-03T09:19:56.000Z</time>
      </trkpt>
      <trkpt lat="36.874806694686412811279296875" lon="-5.58778879232704639434814453125">
        <ele>162</ele>
        <time>2019-11-03T09:20:00.000Z</time>
      </trkpt>
      <trkpt lat="36.8746784515678882598876953125" lon="-5.588032118976116180419921875">
        <ele>161.399993896484375</ele>
        <time>2019-11-03T09:20:04.000Z</time>
      </trkpt>
      <trkpt lat="36.874551884829998016357421875" lon="-5.5882820673286914825439453125">
        <ele>161.8000030517578125</ele>
        <time>2019-11-03T09:20:08.000Z</time>
      </trkpt>
      <trkpt lat="36.874452643096446990966796875" lon="-5.58847778476774692535400390625">
        <ele>162.399993896484375</ele>
        <time>2019-11-03T09:20:11.000Z</time>
      </trkpt>
      <trkpt lat="36.8743267469108104705810546875" lon="-5.58872153051197528839111328125">
        <ele>162.399993896484375</ele>
        <time>2019-11-03T09:20:15.000Z</time>
      </trkpt>
      <trkpt lat="36.874199174344539642333984375" lon="-5.58895714581012725830078125">
        <ele>161.8000030517578125</ele>
        <time>2019-11-03T09:20:19.000Z</time>
      </trkpt>
      <trkpt lat="36.87407487072050571441650390625" lon="-5.58919728733599185943603515625">
        <ele>161.1999969482421875</ele>
        <time>2019-11-03T09:20:23.000Z</time>
      </trkpt>
      <trkpt lat="36.87394377775490283966064453125" lon="-5.5894431285560131072998046875">
        <ele>160.8000030517578125</ele>
        <time>2019-11-03T09:20:27.000Z</time>
      </trkpt>
      <trkpt lat="36.8738204799592494964599609375" lon="-5.58968310244381427764892578125">
        <ele>161.1999969482421875</ele>
        <time>2019-11-03T09:20:31.000Z</time>
      </trkpt>
      <trkpt lat="36.8736934103071689605712890625" lon="-5.58992198668420314788818359375">
        <ele>161.399993896484375</ele>
        <time>2019-11-03T09:20:35.000Z</time>
      </trkpt>
      <trkpt lat="36.8735660053789615631103515625" lon="-5.59015567414462566375732421875">
        <ele>161</ele>
        <time>2019-11-03T09:20:39.000Z</time>
      </trkpt>
      <trkpt lat="36.873443461954593658447265625" lon="-5.59038651175796985626220703125">
        <ele>159.8000030517578125</ele>
        <time>2019-11-03T09:20:43.000Z</time>
      </trkpt>
      <trkpt lat="36.873322091996669769287109375" lon="-5.5906154215335845947265625">
        <ele>158.1999969482421875</ele>
        <time>2019-11-03T09:20:47.000Z</time>
      </trkpt>
      <trkpt lat="36.873200722038745880126953125" lon="-5.59084433130919933319091796875">
        <ele>157.399993896484375</ele>
        <time>2019-11-03T09:20:51.000Z</time>
      </trkpt>
      <trkpt lat="36.87308463267982006072998046875" lon="-5.59106360189616680145263671875">
        <ele>157.8000030517578125</ele>
        <time>2019-11-03T09:20:55.000Z</time>
      </trkpt>
      <trkpt lat="36.872970722615718841552734375" lon="-5.5912683717906475067138671875">
        <ele>158</ele>
        <time>2019-11-03T09:20:59.000Z</time>
      </trkpt>
      <trkpt lat="36.8728605844080448150634765625" lon="-5.59147029183804988861083984375">
        <ele>158.1999969482421875</ele>
        <time>2019-11-03T09:21:03.000Z</time>
      </trkpt>
      <trkpt lat="36.872750781476497650146484375" lon="-5.5916737206280231475830078125">
        <ele>159</ele>
        <time>2019-11-03T09:21:07.000Z</time>
      </trkpt>
      <trkpt lat="36.87264357693493366241455078125" lon="-5.59187882579863071441650390625">
        <ele>159.600006103515625</ele>
        <time>2019-11-03T09:21:11.000Z</time>
      </trkpt>
      <trkpt lat="36.87253528274595737457275390625" lon="-5.59208502061665058135986328125">
        <ele>160</ele>
        <time>2019-11-03T09:21:15.000Z</time>
      </trkpt>
      <trkpt lat="36.87242698855698108673095703125" lon="-5.59229020960628986358642578125">
        <ele>160.1999969482421875</ele>
        <time>2019-11-03T09:21:19.000Z</time>
      </trkpt>
      <trkpt lat="36.87231819145381450653076171875" lon="-5.5924998410046100616455078125">
        <ele>160.8000030517578125</ele>
        <time>2019-11-03T09:21:23.000Z</time>
      </trkpt>
      <trkpt lat="36.8722121603786945343017578125" lon="-5.592712573707103729248046875">
        <ele>161.1999969482421875</ele>
        <time>2019-11-03T09:21:27.000Z</time>
      </trkpt>
      <trkpt lat="36.87210294418036937713623046875" lon="-5.59292438440024852752685546875">
        <ele>161.600006103515625</ele>
        <time>2019-11-03T09:21:31.000Z</time>
      </trkpt>
      <trkpt lat="36.87199599109590053558349609375" lon="-5.5931382067501544952392578125">
        <ele>161.8000030517578125</ele>
        <time>2019-11-03T09:21:35.000Z</time>
      </trkpt>
      <trkpt lat="36.87188451178371906280517578125" lon="-5.59335085563361644744873046875">
        <ele>161</ele>
        <time>2019-11-03T09:21:39.000Z</time>
      </trkpt>
      <trkpt lat="36.87177185900509357452392578125" lon="-5.5935606546700000762939453125">
        <ele>159.600006103515625</ele>
        <time>2019-11-03T09:21:43.000Z</time>
      </trkpt>
      <trkpt lat="36.87165937386453151702880859375" lon="-5.59376710094511508941650390625">
        <ele>158.600006103515625</ele>
        <time>2019-11-03T09:21:47.000Z</time>
      </trkpt>
      <trkpt lat="36.87154420651495456695556640625" lon="-5.5939760617911815643310546875">
        <ele>158.399993896484375</ele>
        <time>2019-11-03T09:21:51.000Z</time>
      </trkpt>
      <trkpt lat="36.871441863477230072021484375" lon="-5.5941879563033580780029296875">
        <ele>158.8000030517578125</ele>
        <time>2019-11-03T09:21:55.000Z</time>
      </trkpt>
      <trkpt lat="36.87133348546922206878662109375" lon="-5.5943938158452510833740234375">
        <ele>159</ele>
        <time>2019-11-03T09:21:59.000Z</time>
      </trkpt>
      <trkpt lat="36.87121731229126453399658203125" lon="-5.5945993401110172271728515625">
        <ele>158.600006103515625</ele>
        <time>2019-11-03T09:22:03.000Z</time>
      </trkpt>
      <trkpt lat="36.8711002171039581298828125" lon="-5.594813413918018341064453125">
        <ele>157.8000030517578125</ele>
        <time>2019-11-03T09:22:07.000Z</time>
      </trkpt>
      <trkpt lat="36.87098563648760318756103515625" lon="-5.5950244702398777008056640625">
        <ele>158.1999969482421875</ele>
        <time>2019-11-03T09:22:11.000Z</time>
      </trkpt>
      <trkpt lat="36.87087692320346832275390625" lon="-5.5952279828488826751708984375">
        <ele>158.8000030517578125</ele>
        <time>2019-11-03T09:22:15.000Z</time>
      </trkpt>
      <trkpt lat="36.87076955102384090423583984375" lon="-5.59542302973568439483642578125">
        <ele>159.399993896484375</ele>
        <time>2019-11-03T09:22:19.000Z</time>
      </trkpt>
      <trkpt lat="36.87066460959613323211669921875" lon="-5.59562402777373790740966796875">
        <ele>160.1999969482421875</ele>
        <time>2019-11-03T09:22:23.000Z</time>
      </trkpt>
      <trkpt lat="36.87055799178779125213623046875" lon="-5.5958242714405059814453125">
        <ele>160.8000030517578125</ele>
        <time>2019-11-03T09:22:27.000Z</time>
      </trkpt>
      <trkpt lat="36.8704482726752758026123046875" lon="-5.59602870605885982513427734375">
        <ele>161</ele>
        <time>2019-11-03T09:22:31.000Z</time>
      </trkpt>
      <trkpt lat="36.8703399784862995147705078125" lon="-5.59622920118272304534912109375">
        <ele>160.600006103515625</ele>
        <time>2019-11-03T09:22:35.000Z</time>
      </trkpt>
      <trkpt lat="36.8702320195734500885009765625" lon="-5.59643371962010860443115234375">
        <ele>160</ele>
        <time>2019-11-03T09:22:39.000Z</time>
      </trkpt>
      <trkpt lat="36.87012456357479095458984375" lon="-5.5966321192681789398193359375">
        <ele>160</ele>
        <time>2019-11-03T09:22:43.000Z</time>
      </trkpt>
      <trkpt lat="36.8700254894793033599853515625" lon="-5.59682213701307773590087890625">
        <ele>160.399993896484375</ele>
        <time>2019-11-03T09:22:47.000Z</time>
      </trkpt>
      <trkpt lat="36.869908310472965240478515625" lon="-5.59704534709453582763671875">
        <ele>161.1999969482421875</ele>
        <time>2019-11-03T09:22:52.000Z</time>
      </trkpt>
      <trkpt lat="36.86985206790268421173095703125" lon="-5.59715322218835353851318359375">
        <ele>161.600006103515625</ele>
        <time>2019-11-03T09:22:55.000Z</time>
      </trkpt>
      <trkpt lat="36.8698310293257236480712890625" lon="-5.59719580225646495819091796875">
        <ele>161.8000030517578125</ele>
        <time>2019-11-03T09:23:01.000Z</time>
      </trkpt>
      <trkpt lat="36.8697985075414180755615234375" lon="-5.59715238399803638458251953125">
        <ele>161.399993896484375</ele>
        <time>2019-11-03T09:23:31.000Z</time>
      </trkpt>
      <trkpt lat="36.86972416006028652191162109375" lon="-5.59697292745113372802734375">
        <ele>160.600006103515625</ele>
        <time>2019-11-03T09:23:39.000Z</time>
      </trkpt>
      <trkpt lat="36.86963832937180995941162109375" lon="-5.59702430851757526397705078125">
        <ele>160.399993896484375</ele>
        <time>2019-11-03T09:23:42.000Z</time>
      </trkpt>
      <trkpt lat="36.86947220005095005035400390625" lon="-5.59713779948651790618896484375">
        <ele>159.8000030517578125</ele>
        <time>2019-11-03T09:23:49.000Z</time>
      </trkpt>
      <trkpt lat="36.86929902993142604827880859375" lon="-5.59728213585913181304931640625">
        <ele>159.1999969482421875</ele>
        <time>2019-11-03T09:23:55.000Z</time>
      </trkpt>
      <trkpt lat="36.869121082127094268798828125" lon="-5.59741624630987644195556640625">
        <ele>159</ele>
        <time>2019-11-03T09:24:00.000Z</time>
      </trkpt>
      <trkpt lat="36.86894707381725311279296875" lon="-5.59754650108516216278076171875">
        <ele>159</ele>
        <time>2019-11-03T09:24:05.000Z</time>
      </trkpt>
      <trkpt lat="36.8687708862125873565673828125" lon="-5.59767843224108219146728515625">
        <ele>159.600006103515625</ele>
        <time>2019-11-03T09:24:11.000Z</time>
      </trkpt>
      <trkpt lat="36.8686086125671863555908203125" lon="-5.59778991155326366424560546875">
        <ele>159.600006103515625</ele>
        <time>2019-11-03T09:24:17.000Z</time>
      </trkpt>
      <trkpt lat="36.868459247052669525146484375" lon="-5.59792653657495975494384765625">
        <ele>159</ele>
        <time>2019-11-03T09:24:24.000Z</time>
      </trkpt>
      <trkpt lat="36.86844550073146820068359375" lon="-5.5979427136480808258056640625">
        <ele>159</ele>
        <time>2019-11-03T09:24:29.000Z</time>
      </trkpt>
      <trkpt lat="36.8683983944356441497802734375" lon="-5.5979775823652744293212890625">
        <ele>158.600006103515625</ele>
        <time>2019-11-03T09:24:42.000Z</time>
      </trkpt>
      <trkpt lat="36.86822153627872467041015625" lon="-5.59810557402670383453369140625">
        <ele>156.600006103515625</ele>
        <time>2019-11-03T09:24:48.000Z</time>
      </trkpt>
      <trkpt lat="36.86804710887372493743896484375" lon="-5.59818486683070659637451171875">
        <ele>154.8000030517578125</ele>
        <time>2019-11-03T09:24:52.000Z</time>
      </trkpt>
      <trkpt lat="36.8678931333124637603759765625" lon="-5.59823281131684780120849609375">
        <ele>153.1999969482421875</ele>
        <time>2019-11-03T09:24:55.000Z</time>
      </trkpt>
      <trkpt lat="36.86766908504068851470947265625" lon="-5.59821076691150665283203125">
        <ele>150.8000030517578125</ele>
        <time>2019-11-03T09:24:59.000Z</time>
      </trkpt>
      <trkpt lat="36.86746624298393726348876953125" lon="-5.5980919115245342254638671875">
        <ele>148.600006103515625</ele>
        <time>2019-11-03T09:25:03.000Z</time>
      </trkpt>
      <trkpt lat="36.86731494963169097900390625" lon="-5.59796509332954883575439453125">
        <ele>147</ele>
        <time>2019-11-03T09:25:06.000Z</time>
      </trkpt>
      <trkpt lat="36.86719517223536968231201171875" lon="-5.5978880636394023895263671875">
        <ele>146</ele>
        <time>2019-11-03T09:25:08.000Z</time>
      </trkpt>
      <trkpt lat="36.86699802987277507781982421875" lon="-5.597812123596668243408203125">
        <ele>145</ele>
        <time>2019-11-03T09:25:11.000Z</time>
      </trkpt>
      <trkpt lat="36.8667877279222011566162109375" lon="-5.59778287075459957122802734375">
        <ele>145</ele>
        <time>2019-11-03T09:25:14.000Z</time>
      </trkpt>
      <trkpt lat="36.8666636757552623748779296875" lon="-5.5977822840213775634765625">
        <ele>145.399993896484375</ele>
        <time>2019-11-03T09:25:16.000Z</time>
      </trkpt>
      <trkpt lat="36.8665230274200439453125" lon="-5.597840286791324615478515625">
        <ele>145.600006103515625</ele>
        <time>2019-11-03T09:25:20.000Z</time>
      </trkpt>
      <trkpt lat="36.86632730998098850250244140625" lon="-5.59785814024507999420166015625">
        <ele>146.600006103515625</ele>
        <time>2019-11-03T09:25:30.000Z</time>
      </trkpt>
      <trkpt lat="36.866311132907867431640625" lon="-5.5978565476834774017333984375">
        <ele>146.8000030517578125</ele>
        <time>2019-11-03T09:25:31.000Z</time>
      </trkpt>
      <trkpt lat="36.86622069217264652252197265625" lon="-5.5978330783545970916748046875">
        <ele>147.600006103515625</ele>
        <time>2019-11-03T09:25:36.000Z</time>
      </trkpt>
      <trkpt lat="36.8660249747335910797119140625" lon="-5.59784020297229290008544921875">
        <ele>149</ele>
        <time>2019-11-03T09:25:46.000Z</time>
      </trkpt>
      <trkpt lat="36.86589329503476619720458984375" lon="-5.59769150801002979278564453125">
        <ele>150.8000030517578125</ele>
        <time>2019-11-03T09:25:54.000Z</time>
      </trkpt>
      <trkpt lat="36.8658191151916980743408203125" lon="-5.59761439450085163116455078125">
        <ele>151.1999969482421875</ele>
        <time>2019-11-03T09:26:00.000Z</time>
      </trkpt>
      <trkpt lat="36.8657594360411167144775390625" lon="-5.59767834842205047607421875">
        <ele>150.8000030517578125</ele>
        <time>2019-11-03T09:26:08.000Z</time>
      </trkpt>
      <trkpt lat="36.86573001556098461151123046875" lon="-5.59786752797663211822509765625">
        <ele>149.600006103515625</ele>
        <time>2019-11-03T09:26:15.000Z</time>
      </trkpt>
      <trkpt lat="36.86556606553494930267333984375" lon="-5.59799912385642528533935546875">
        <ele>149</ele>
        <time>2019-11-03T09:26:25.000Z</time>
      </trkpt>
      <trkpt lat="36.86540194787085056304931640625" lon="-5.59812627732753753662109375">
        <ele>148.8000030517578125</ele>
        <time>2019-11-03T09:26:32.000Z</time>
      </trkpt>
      <trkpt lat="36.8652514927089214324951171875" lon="-5.59829031117260456085205078125">
        <ele>149.600006103515625</ele>
        <time>2019-11-03T09:26:38.000Z</time>
      </trkpt>
      <trkpt lat="36.8651250936090946197509765625" lon="-5.5984771437942981719970703125">
        <ele>150.8000030517578125</ele>
        <time>2019-11-03T09:26:44.000Z</time>
      </trkpt>
      <trkpt lat="36.8650030530989170074462890625" lon="-5.5986566841602325439453125">
        <ele>151.8000030517578125</ele>
        <time>2019-11-03T09:26:50.000Z</time>
      </trkpt>
      <trkpt lat="36.8648733012378215789794921875" lon="-5.5988285131752490997314453125">
        <ele>152.600006103515625</ele>
        <time>2019-11-03T09:26:55.000Z</time>
      </trkpt>
      <trkpt lat="36.86473709531128406524658203125" lon="-5.59900746680796146392822265625">
        <ele>152.399993896484375</ele>
        <time>2019-11-03T09:27:00.000Z</time>
      </trkpt>
      <trkpt lat="36.86460147611796855926513671875" lon="-5.5991892702877521514892578125">
        <ele>150.8000030517578125</ele>
        <time>2019-11-03T09:27:05.000Z</time>
      </trkpt>
      <trkpt lat="36.86445328406989574432373046875" lon="-5.599386580288410186767578125">
        <ele>149.1999969482421875</ele>
        <time>2019-11-03T09:27:11.000Z</time>
      </trkpt>
      <trkpt lat="36.86432135291397571563720703125" lon="-5.599556900560855865478515625">
        <ele>148.1999969482421875</ele>
        <time>2019-11-03T09:27:16.000Z</time>
      </trkpt>
      <trkpt lat="36.8641806207597255706787109375" lon="-5.5997397936880588531494140625">
        <ele>147.8000030517578125</ele>
        <time>2019-11-03T09:27:21.000Z</time>
      </trkpt>
      <trkpt lat="36.8640347756445407867431640625" lon="-5.59993148781359195709228515625">
        <ele>146.8000030517578125</ele>
        <time>2019-11-03T09:27:26.000Z</time>
      </trkpt>
      <trkpt lat="36.86390393413603305816650390625" lon="-5.60010516084730625152587890625">
        <ele>146</ele>
        <time>2019-11-03T09:27:31.000Z</time>
      </trkpt>
      <trkpt lat="36.8637759424746036529541015625" lon="-5.60027296654880046844482421875">
        <ele>145.8000030517578125</ele>
        <time>2019-11-03T09:27:36.000Z</time>
      </trkpt>
      <trkpt lat="36.8636428378522396087646484375" lon="-5.60044697485864162445068359375">
        <ele>146.399993896484375</ele>
        <time>2019-11-03T09:27:41.000Z</time>
      </trkpt>
      <trkpt lat="36.863512583076953887939453125" lon="-5.6006259284913539886474609375">
        <ele>147.8000030517578125</ele>
        <time>2019-11-03T09:27:46.000Z</time>
      </trkpt>
      <trkpt lat="36.863381154835224151611328125" lon="-5.6008069775998592376708984375">
        <ele>148.600006103515625</ele>
        <time>2019-11-03T09:27:51.000Z</time>
      </trkpt>
      <trkpt lat="36.863226257264614105224609375" lon="-5.60097704641520977020263671875">
        <ele>149.399993896484375</ele>
        <time>2019-11-03T09:27:57.000Z</time>
      </trkpt>
      <trkpt lat="36.86307496391236782073974609375" lon="-5.60118743218481540679931640625">
        <ele>149.8000030517578125</ele>
        <time>2019-11-03T09:28:03.000Z</time>
      </trkpt>
      <trkpt lat="36.86294739134609699249267578125" lon="-5.60137770138680934906005859375">
        <ele>149.1999969482421875</ele>
        <time>2019-11-03T09:28:07.000Z</time>
      </trkpt>
      <trkpt lat="36.86280188150703907012939453125" lon="-5.6015774421393871307373046875">
        <ele>148.1999969482421875</ele>
        <time>2019-11-03T09:28:11.000Z</time>
      </trkpt>
      <trkpt lat="36.86264120042324066162109375" lon="-5.6017343513667583465576171875">
        <ele>147.600006103515625</ele>
        <time>2019-11-03T09:28:15.000Z</time>
      </trkpt>
      <trkpt lat="36.862457133829593658447265625" lon="-5.60187692753970623016357421875">
        <ele>146.600006103515625</ele>
        <time>2019-11-03T09:28:19.000Z</time>
      </trkpt>
      <trkpt lat="36.8622454069554805755615234375" lon="-5.6020109541714191436767578125">
        <ele>145.8000030517578125</ele>
        <time>2019-11-03T09:28:23.000Z</time>
      </trkpt>
      <trkpt lat="36.86206997372210025787353515625" lon="-5.602111034095287322998046875">
        <ele>145</ele>
        <time>2019-11-03T09:28:26.000Z</time>
      </trkpt>
      <trkpt lat="36.86188288964331150054931640625" lon="-5.6022111140191555023193359375">
        <ele>144.1999969482421875</ele>
        <time>2019-11-03T09:28:29.000Z</time>
      </trkpt>
      <trkpt lat="36.86169295571744441986083984375" lon="-5.6023059971630573272705078125">
        <ele>144</ele>
        <time>2019-11-03T09:28:32.000Z</time>
      </trkpt>
      <trkpt lat="36.86149933375418186187744140625" lon="-5.60238889418542385101318359375">
        <ele>144.399993896484375</ele>
        <time>2019-11-03T09:28:35.000Z</time>
      </trkpt>
      <trkpt lat="36.861365474760532379150390625" lon="-5.60242560692131519317626953125">
        <ele>144.399993896484375</ele>
        <time>2019-11-03T09:28:37.000Z</time>
      </trkpt>
      <trkpt lat="36.86115802265703678131103515625" lon="-5.60244488529860973358154296875">
        <ele>144.1999969482421875</ele>
        <time>2019-11-03T09:28:40.000Z</time>
      </trkpt>
      <trkpt lat="36.86094160191714763641357421875" lon="-5.60243080370128154754638671875">
        <ele>143.399993896484375</ele>
        <time>2019-11-03T09:28:43.000Z</time>
      </trkpt>
      <trkpt lat="36.86087203212082386016845703125" lon="-5.60243130661547183990478515625">
        <ele>143.1999969482421875</ele>
        <time>2019-11-03T09:28:44.000Z</time>
      </trkpt>
      <trkpt lat="36.86067111790180206298828125" lon="-5.60243499465286731719970703125">
        <ele>142.399993896484375</ele>
        <time>2019-11-03T09:28:47.000Z</time>
      </trkpt>
      <trkpt lat="36.86060666106641292572021484375" lon="-5.602430887520313262939453125">
        <ele>142</ele>
        <time>2019-11-03T09:28:48.000Z</time>
      </trkpt>
      <trkpt lat="36.8604142963886260986328125" lon="-5.60241219587624073028564453125">
        <ele>140.600006103515625</ele>
        <time>2019-11-03T09:28:51.000Z</time>
      </trkpt>
      <trkpt lat="36.86023249290883541107177734375" lon="-5.6024055741727352142333984375">
        <ele>140.399993896484375</ele>
        <time>2019-11-03T09:28:54.000Z</time>
      </trkpt>
      <trkpt lat="36.8601244501769542694091796875" lon="-5.60242292471230030059814453125">
        <ele>140.399993896484375</ele>
        <time>2019-11-03T09:28:56.000Z</time>
      </trkpt>
      <trkpt lat="36.85991331003606319427490234375" lon="-5.60249693691730499267578125">
        <ele>140.8000030517578125</ele>
        <time>2019-11-03T09:29:01.000Z</time>
      </trkpt>
      <trkpt lat="36.85971097089350223541259765625" lon="-5.602566339075565338134765625">
        <ele>141.1999969482421875</ele>
        <time>2019-11-03T09:29:06.000Z</time>
      </trkpt>
      <trkpt lat="36.8595615215599536895751953125" lon="-5.6026075780391693115234375">
        <ele>141.1999969482421875</ele>
        <time>2019-11-03T09:29:10.000Z</time>
      </trkpt>
      <trkpt lat="36.85949455015361309051513671875" lon="-5.60261822305619716644287109375">
        <ele>141.600006103515625</ele>
        <time>2019-11-03T09:29:12.000Z</time>
      </trkpt>
      <trkpt lat="36.85933479107916355133056640625" lon="-5.602670945227146148681640625">
        <ele>142.1999969482421875</ele>
        <time>2019-11-03T09:29:19.000Z</time>
      </trkpt>
      <trkpt lat="36.85914167203009128570556640625" lon="-5.6027307920157909393310546875">
        <ele>143.600006103515625</ele>
        <time>2019-11-03T09:29:27.000Z</time>
      </trkpt>
      <trkpt lat="36.85897864401340484619140625" lon="-5.6028484739363193511962890625">
        <ele>145</ele>
        <time>2019-11-03T09:29:35.000Z</time>
      </trkpt>
      <trkpt lat="36.858878396451473236083984375" lon="-5.6030442751944065093994140625">
        <ele>145.399993896484375</ele>
        <time>2019-11-03T09:29:43.000Z</time>
      </trkpt>
      <trkpt lat="36.8588626384735107421875" lon="-5.6031619571149349212646484375">
        <ele>145.399993896484375</ele>
        <time>2019-11-03T09:29:47.000Z</time>
      </trkpt>
      <trkpt lat="36.858816035091876983642578125" lon="-5.60339237563312053680419921875">
        <ele>145.600006103515625</ele>
        <time>2019-11-03T09:29:56.000Z</time>
      </trkpt>
      <trkpt lat="36.85876733623445034027099609375" lon="-5.6035383045673370361328125">
        <ele>145.1999969482421875</ele>
        <time>2019-11-03T09:30:06.000Z</time>
      </trkpt>
      <trkpt lat="36.85876448638737201690673828125" lon="-5.6036839820444583892822265625">
        <ele>145</ele>
        <time>2019-11-03T09:33:30.000Z</time>
      </trkpt>
      <trkpt lat="36.85873095877468585968017578125" lon="-5.6039193458855152130126953125">
        <ele>145</ele>
        <time>2019-11-03T09:33:39.000Z</time>
      </trkpt>
      <trkpt lat="36.8587075732648372650146484375" lon="-5.6041587330400943756103515625">
        <ele>145</ele>
        <time>2019-11-03T09:33:45.000Z</time>
      </trkpt>
      <trkpt lat="36.8586901389062404632568359375" lon="-5.60441295616328716278076171875">
        <ele>145</ele>
        <time>2019-11-03T09:33:51.000Z</time>
      </trkpt>
      <trkpt lat="36.85867463238537311553955078125" lon="-5.60466223396360874176025390625">
        <ele>145.600006103515625</ele>
        <time>2019-11-03T09:33:57.000Z</time>
      </trkpt>
      <trkpt lat="36.85865736566483974456787109375" lon="-5.6049147807061672210693359375">
        <ele>145.600006103515625</ele>
        <time>2019-11-03T09:34:03.000Z</time>
      </trkpt>
      <trkpt lat="36.8586341477930545806884765625" lon="-5.60513832606375217437744140625">
        <ele>144.8000030517578125</ele>
        <time>2019-11-03T09:34:08.000Z</time>
      </trkpt>
      <trkpt lat="36.85857170261442661285400390625" lon="-5.605373941361904144287109375">
        <ele>144</ele>
        <time>2019-11-03T09:34:14.000Z</time>
      </trkpt>
      <trkpt lat="36.85845251195132732391357421875" lon="-5.6055746041238307952880859375">
        <ele>143</ele>
        <time>2019-11-03T09:34:20.000Z</time>
      </trkpt>
      <trkpt lat="36.858312450349330902099609375" lon="-5.60575288720428943634033203125">
        <ele>142.600006103515625</ele>
        <time>2019-11-03T09:34:25.000Z</time>
      </trkpt>
      <trkpt lat="36.858165264129638671875" lon="-5.60593645088374614715576171875">
        <ele>142.600006103515625</ele>
        <time>2019-11-03T09:34:30.000Z</time>
      </trkpt>
      <trkpt lat="36.8580289743840694427490234375" lon="-5.60613401234149932861328125">
        <ele>143.399993896484375</ele>
        <time>2019-11-03T09:34:35.000Z</time>
      </trkpt>
      <trkpt lat="36.85790282674133777618408203125" lon="-5.6063210964202880859375">
        <ele>144.8000030517578125</ele>
        <time>2019-11-03T09:34:40.000Z</time>
      </trkpt>
      <trkpt lat="36.8577852286398410797119140625" lon="-5.60652293264865875244140625">
        <ele>145</ele>
        <time>2019-11-03T09:34:45.000Z</time>
      </trkpt>
      <trkpt lat="36.857670731842517852783203125" lon="-5.6067306362092494964599609375">
        <ele>144.399993896484375</ele>
        <time>2019-11-03T09:34:50.000Z</time>
      </trkpt>
      <trkpt lat="36.857554055750370025634765625" lon="-5.60690808109939098358154296875">
        <ele>144.399993896484375</ele>
        <time>2019-11-03T09:34:55.000Z</time>
      </trkpt>
      <trkpt lat="36.85743905603885650634765625" lon="-5.607089884579181671142578125">
        <ele>144.600006103515625</ele>
        <time>2019-11-03T09:35:00.000Z</time>
      </trkpt>
      <trkpt lat="36.85733738355338573455810546875" lon="-5.60727654956281185150146484375">
        <ele>144.8000030517578125</ele>
        <time>2019-11-03T09:35:05.000Z</time>
      </trkpt>
      <trkpt lat="36.8572166003286838531494140625" lon="-5.60747888870537281036376953125">
        <ele>145.399993896484375</ele>
        <time>2019-11-03T09:35:11.000Z</time>
      </trkpt>
      <trkpt lat="36.8570885248482227325439453125" lon="-5.60768927447497844696044921875">
        <ele>145.1999969482421875</ele>
        <time>2019-11-03T09:35:17.000Z</time>
      </trkpt>
      <trkpt lat="36.85697679407894611358642578125" lon="-5.6078833155333995819091796875">
        <ele>144.600006103515625</ele>
        <time>2019-11-03T09:35:22.000Z</time>
      </trkpt>
      <trkpt lat="36.856868751347064971923828125" lon="-5.60808607377111911773681640625">
        <ele>143.600006103515625</ele>
        <time>2019-11-03T09:35:27.000Z</time>
      </trkpt>
      <trkpt lat="36.85676808468997478485107421875" lon="-5.60828019864857196807861328125">
        <ele>143.1999969482421875</ele>
        <time>2019-11-03T09:35:32.000Z</time>
      </trkpt>
      <trkpt lat="36.8566630594432353973388671875" lon="-5.60851170681416988372802734375">
        <ele>143.8000030517578125</ele>
        <time>2019-11-03T09:35:38.000Z</time>
      </trkpt>
      <trkpt lat="36.85657815076410770416259765625" lon="-5.60873315669596195220947265625">
        <ele>144.399993896484375</ele>
        <time>2019-11-03T09:35:44.000Z</time>
      </trkpt>
      <trkpt lat="36.85650472529232501983642578125" lon="-5.60894371010363101959228515625">
        <ele>144.8000030517578125</ele>
        <time>2019-11-03T09:35:50.000Z</time>
      </trkpt>
      <trkpt lat="36.85643934644758701324462890625" lon="-5.60915929265320301055908203125">
        <ele>145.1999969482421875</ele>
        <time>2019-11-03T09:35:56.000Z</time>
      </trkpt>
      <trkpt lat="36.85636709444224834442138671875" lon="-5.60939767397940158843994140625">
        <ele>144.8000030517578125</ele>
        <time>2019-11-03T09:36:02.000Z</time>
      </trkpt>
      <trkpt lat="36.856270618736743927001953125" lon="-5.60963454656302928924560546875">
        <ele>144.1999969482421875</ele>
        <time>2019-11-03T09:36:08.000Z</time>
      </trkpt>
      <trkpt lat="36.8561876378953456878662109375" lon="-5.609863288700580596923828125">
        <ele>144</ele>
        <time>2019-11-03T09:36:14.000Z</time>
      </trkpt>
      <trkpt lat="36.85608713887631893157958984375" lon="-5.610100664198398590087890625">
        <ele>144.1999969482421875</ele>
        <time>2019-11-03T09:36:20.000Z</time>
      </trkpt>
      <trkpt lat="36.85597297735512256622314453125" lon="-5.6103090383112430572509765625">
        <ele>143.8000030517578125</ele>
        <time>2019-11-03T09:36:26.000Z</time>
      </trkpt>
      <trkpt lat="36.8558617495000362396240234375" lon="-5.61049486510455608367919921875">
        <ele>143.1999969482421875</ele>
        <time>2019-11-03T09:36:31.000Z</time>
      </trkpt>
      <trkpt lat="36.8557340092957019805908203125" lon="-5.6106986291706562042236328125">
        <ele>142.1999969482421875</ele>
        <time>2019-11-03T09:36:36.000Z</time>
      </trkpt>
      <trkpt lat="36.8555972166359424591064453125" lon="-5.610920749604701995849609375">
        <ele>141.1999969482421875</ele>
        <time>2019-11-03T09:36:41.000Z</time>
      </trkpt>
      <trkpt lat="36.8554671294987201690673828125" lon="-5.611135661602020263671875">
        <ele>141</ele>
        <time>2019-11-03T09:36:46.000Z</time>
      </trkpt>
      <trkpt lat="36.85544474981725215911865234375" lon="-5.61117748729884624481201171875">
        <ele>141.1999969482421875</ele>
        <time>2019-11-03T09:36:47.000Z</time>
      </trkpt>
      <trkpt lat="36.8553675524890422821044921875" lon="-5.61136700212955474853515625">
        <ele>141.1999969482421875</ele>
        <time>2019-11-03T09:36:51.000Z</time>
      </trkpt>
      <trkpt lat="36.8553118966519832611083984375" lon="-5.61157621443271636962890625">
        <ele>142</ele>
        <time>2019-11-03T09:36:55.000Z</time>
      </trkpt>
      <trkpt lat="36.8553256429731845855712890625" lon="-5.61179841868579387664794921875">
        <ele>142.600006103515625</ele>
        <time>2019-11-03T09:37:00.000Z</time>
      </trkpt>
      <trkpt lat="36.85539328493177890777587890625" lon="-5.6120199523866176605224609375">
        <ele>142.8000030517578125</ele>
        <time>2019-11-03T09:37:07.000Z</time>
      </trkpt>
      <trkpt lat="36.855451203882694244384765625" lon="-5.6122593395411968231201171875">
        <ele>142.1999969482421875</ele>
        <time>2019-11-03T09:37:14.000Z</time>
      </trkpt>
      <trkpt lat="36.85549587942659854888916015625" lon="-5.612476766109466552734375">
        <ele>142.8000030517578125</ele>
        <time>2019-11-03T09:37:20.000Z</time>
      </trkpt>
      <trkpt lat="36.8555219471454620361328125" lon="-5.612736605107784271240234375">
        <ele>144.600006103515625</ele>
        <time>2019-11-03T09:37:27.000Z</time>
      </trkpt>
      <trkpt lat="36.85552907176315784454345703125" lon="-5.61298579908907413482666015625">
        <ele>145</ele>
        <time>2019-11-03T09:37:33.000Z</time>
      </trkpt>
      <trkpt lat="36.8555261380970478057861328125" lon="-5.61321864835917949676513671875">
        <ele>144</ele>
        <time>2019-11-03T09:37:38.000Z</time>
      </trkpt>
      <trkpt lat="36.8555187620222568511962890625" lon="-5.6134807504713535308837890625">
        <ele>143.600006103515625</ele>
        <time>2019-11-03T09:37:43.000Z</time>
      </trkpt>
      <trkpt lat="36.85550861991941928863525390625" lon="-5.61370588839054107666015625">
        <ele>143</ele>
        <time>2019-11-03T09:37:47.000Z</time>
      </trkpt>
      <trkpt lat="36.8554959632456302642822265625" lon="-5.61398190446197986602783203125">
        <ele>143</ele>
        <time>2019-11-03T09:37:52.000Z</time>
      </trkpt>
      <trkpt lat="36.855479367077350616455078125" lon="-5.61423285864293575286865234375">
        <ele>142.600006103515625</ele>
        <time>2019-11-03T09:37:57.000Z</time>
      </trkpt>
      <trkpt lat="36.85544642619788646697998046875" lon="-5.61451314948499202728271484375">
        <ele>141.1999969482421875</ele>
        <time>2019-11-03T09:38:02.000Z</time>
      </trkpt>
      <trkpt lat="36.855390183627605438232421875" lon="-5.61473987996578216552734375">
        <ele>140</ele>
        <time>2019-11-03T09:38:06.000Z</time>
      </trkpt>
      <trkpt lat="36.85531684197485446929931640625" lon="-5.6149482540786266326904296875">
        <ele>139.1999969482421875</ele>
        <time>2019-11-03T09:38:10.000Z</time>
      </trkpt>
      <trkpt lat="36.8552210368216037750244140625" lon="-5.61514430679380893707275390625">
        <ele>138.8000030517578125</ele>
        <time>2019-11-03T09:38:14.000Z</time>
      </trkpt>
      <trkpt lat="36.85512020252645015716552734375" lon="-5.61533323489129543304443359375">
        <ele>138.600006103515625</ele>
        <time>2019-11-03T09:38:18.000Z</time>
      </trkpt>
      <trkpt lat="36.85500872321426868438720703125" lon="-5.6155460514128208160400390625">
        <ele>138.1999969482421875</ele>
        <time>2019-11-03T09:38:22.000Z</time>
      </trkpt>
      <trkpt lat="36.8549843318760395050048828125" lon="-5.61560086905956268310546875">
        <ele>138.1999969482421875</ele>
        <time>2019-11-03T09:38:23.000Z</time>
      </trkpt>
      <trkpt lat="36.8549229763448238372802734375" lon="-5.6157871149480342864990234375">
        <ele>137.399993896484375</ele>
        <time>2019-11-03T09:38:26.000Z</time>
      </trkpt>
      <trkpt lat="36.85489020310342311859130859375" lon="-5.61607168056070804595947265625">
        <ele>135.8000030517578125</ele>
        <time>2019-11-03T09:38:30.000Z</time>
      </trkpt>
      <trkpt lat="36.85486941598355770111083984375" lon="-5.61635163612663745880126953125">
        <ele>135</ele>
        <time>2019-11-03T09:38:34.000Z</time>
      </trkpt>
      <trkpt lat="36.85485265217721462249755859375" lon="-5.61660225503146648406982421875">
        <ele>134.1999969482421875</ele>
        <time>2019-11-03T09:38:38.000Z</time>
      </trkpt>
      <trkpt lat="36.8548210524022579193115234375" lon="-5.61687449924647808074951171875">
        <ele>133.399993896484375</ele>
        <time>2019-11-03T09:38:43.000Z</time>
      </trkpt>
      <trkpt lat="36.85480487532913684844970703125" lon="-5.6169733218848705291748046875">
        <ele>133</ele>
        <time>2019-11-03T09:38:45.000Z</time>
      </trkpt>
      <trkpt lat="36.8546943180263042449951171875" lon="-5.61715386807918548583984375">
        <ele>133.399993896484375</ele>
        <time>2019-11-03T09:38:52.000Z</time>
      </trkpt>
      <trkpt lat="36.85469272546470165252685546875" lon="-5.61716149561107158660888671875">
        <ele>133.399993896484375</ele>
        <time>2019-11-03T09:38:56.000Z</time>
      </trkpt>
      <trkpt lat="36.85461527667939662933349609375" lon="-5.6171751581132411956787109375">
        <ele>133.8000030517578125</ele>
        <time>2019-11-03T09:39:28.000Z</time>
      </trkpt>
      <trkpt lat="36.85441075824201107025146484375" lon="-5.617208518087863922119140625">
        <ele>135</ele>
        <time>2019-11-03T09:39:35.000Z</time>
      </trkpt>
      <trkpt lat="36.8542138673365116119384765625" lon="-5.61719812452793121337890625">
        <ele>136</ele>
        <time>2019-11-03T09:39:41.000Z</time>
      </trkpt>
      <trkpt lat="36.8540064990520477294921875" lon="-5.61720005236566066741943359375">
        <ele>136</ele>
        <time>2019-11-03T09:39:47.000Z</time>
      </trkpt>
      <trkpt lat="36.85380826704204082489013671875" lon="-5.6172083504498004913330078125">
        <ele>135.399993896484375</ele>
        <time>2019-11-03T09:39:53.000Z</time>
      </trkpt>
      <trkpt lat="36.85361363925039768218994140625" lon="-5.61720675788819789886474609375">
        <ele>135.399993896484375</ele>
        <time>2019-11-03T09:39:59.000Z</time>
      </trkpt>
      <trkpt lat="36.85342135839164257049560546875" lon="-5.61721681617200374603271484375">
        <ele>136</ele>
        <time>2019-11-03T09:40:05.000Z</time>
      </trkpt>
      <trkpt lat="36.85322186909615993499755859375" lon="-5.6172365136444568634033203125">
        <ele>136</ele>
        <time>2019-11-03T09:40:11.000Z</time>
      </trkpt>
      <trkpt lat="36.85301818884909152984619140625" lon="-5.61726115643978118896484375">
        <ele>136</ele>
        <time>2019-11-03T09:40:17.000Z</time>
      </trkpt>
      <trkpt lat="36.852808892726898193359375" lon="-5.61727079562842845916748046875">
        <ele>136.1999969482421875</ele>
        <time>2019-11-03T09:40:23.000Z</time>
      </trkpt>
      <trkpt lat="36.85261703096330165863037109375" lon="-5.6173055805265903472900390625">
        <ele>136.8000030517578125</ele>
        <time>2019-11-03T09:40:28.000Z</time>
      </trkpt>
      <trkpt lat="36.8524409271776676177978515625" lon="-5.61735637485980987548828125">
        <ele>137.600006103515625</ele>
        <time>2019-11-03T09:40:33.000Z</time>
      </trkpt>
      <trkpt lat="36.8522508256137371063232421875" lon="-5.6174222566187381744384765625">
        <ele>139</ele>
        <time>2019-11-03T09:40:39.000Z</time>
      </trkpt>
      <trkpt lat="36.85206659138202667236328125" lon="-5.61751822941005229949951171875">
        <ele>139.8000030517578125</ele>
        <time>2019-11-03T09:40:46.000Z</time>
      </trkpt>
      <trkpt lat="36.8518763221800327301025390625" lon="-5.61760674230754375457763671875">
        <ele>140</ele>
        <time>2019-11-03T09:40:53.000Z</time>
      </trkpt>
      <trkpt lat="36.85170273296535015106201171875" lon="-5.617669858038425445556640625">
        <ele>140.399993896484375</ele>
        <time>2019-11-03T09:40:59.000Z</time>
      </trkpt>
      <trkpt lat="36.851530484855175018310546875" lon="-5.6177374161779880523681640625">
        <ele>141.1999969482421875</ele>
        <time>2019-11-03T09:41:05.000Z</time>
      </trkpt>
      <trkpt lat="36.8513430655002593994140625" lon="-5.61781243421137332916259765625">
        <ele>141</ele>
        <time>2019-11-03T09:41:11.000Z</time>
      </trkpt>
      <trkpt lat="36.85114382766187191009521484375" lon="-5.61788351275026798248291015625">
        <ele>140.399993896484375</ele>
        <time>2019-11-03T09:41:17.000Z</time>
      </trkpt>
      <trkpt lat="36.85094702057540416717529296875" lon="-5.617982335388660430908203125">
        <ele>139.399993896484375</ele>
        <time>2019-11-03T09:41:23.000Z</time>
      </trkpt>
      <trkpt lat="36.85077234171330928802490234375" lon="-5.61811502091586589813232421875">
        <ele>139</ele>
        <time>2019-11-03T09:41:29.000Z</time>
      </trkpt>
      <trkpt lat="36.8505972437560558319091796875" lon="-5.61824795790016651153564453125">
        <ele>138.399993896484375</ele>
        <time>2019-11-03T09:41:34.000Z</time>
      </trkpt>
      <trkpt lat="36.8504379875957965850830078125" lon="-5.61838609166443347930908203125">
        <ele>138</ele>
        <time>2019-11-03T09:41:38.000Z</time>
      </trkpt>
      <trkpt lat="36.850272528827190399169921875" lon="-5.61855339445173740386962890625">
        <ele>138</ele>
        <time>2019-11-03T09:41:42.000Z</time>
      </trkpt>
      <trkpt lat="36.850096173584461212158203125" lon="-5.61872698366641998291015625">
        <ele>137.8000030517578125</ele>
        <time>2019-11-03T09:41:46.000Z</time>
      </trkpt>
      <trkpt lat="36.849949657917022705078125" lon="-5.61889336444437503814697265625">
        <ele>137.600006103515625</ele>
        <time>2019-11-03T09:41:50.000Z</time>
      </trkpt>
      <trkpt lat="36.84980289079248905181884765625" lon="-5.61907659284770488739013671875">
        <ele>137.600006103515625</ele>
        <time>2019-11-03T09:41:55.000Z</time>
      </trkpt>
      <trkpt lat="36.8497540242969989776611328125" lon="-5.61914968304336071014404296875">
        <ele>138.1999969482421875</ele>
        <time>2019-11-03T09:41:57.000Z</time>
      </trkpt>
      <trkpt lat="36.8496162258088588714599609375" lon="-5.61934112571179866790771484375">
        <ele>140</ele>
        <time>2019-11-03T09:42:03.000Z</time>
      </trkpt>
      <trkpt lat="36.84951388277113437652587890625" lon="-5.6194654293358325958251953125">
        <ele>141.1999969482421875</ele>
        <time>2019-11-03T09:42:08.000Z</time>
      </trkpt>
      <trkpt lat="36.84937474317848682403564453125" lon="-5.6196531839668750762939453125">
        <ele>141.600006103515625</ele>
        <time>2019-11-03T09:42:15.000Z</time>
      </trkpt>
      <trkpt lat="36.8492373637855052947998046875" lon="-5.6198228336870670318603515625">
        <ele>142</ele>
        <time>2019-11-03T09:42:21.000Z</time>
      </trkpt>
      <trkpt lat="36.8490915186703205108642578125" lon="-5.620000027120113372802734375">
        <ele>142.600006103515625</ele>
        <time>2019-11-03T09:42:27.000Z</time>
      </trkpt>
      <trkpt lat="36.848949529230594635009765625" lon="-5.62017160467803478240966796875">
        <ele>143.1999969482421875</ele>
        <time>2019-11-03T09:42:33.000Z</time>
      </trkpt>
      <trkpt lat="36.84880712069571018218994140625" lon="-5.62033505178987979888916015625">
        <ele>143.399993896484375</ele>
        <time>2019-11-03T09:42:39.000Z</time>
      </trkpt>
      <trkpt lat="36.8486684001982212066650390625" lon="-5.62049782834947109222412109375">
        <ele>142.1999969482421875</ele>
        <time>2019-11-03T09:42:45.000Z</time>
      </trkpt>
      <trkpt lat="36.84850922785699367523193359375" lon="-5.62066831625998020172119140625">
        <ele>141.1999969482421875</ele>
        <time>2019-11-03T09:42:52.000Z</time>
      </trkpt>
      <trkpt lat="36.848368160426616668701171875" lon="-5.6208434142172336578369140625">
        <ele>140.8000030517578125</ele>
        <time>2019-11-03T09:42:58.000Z</time>
      </trkpt>
      <trkpt lat="36.84823731891810894012451171875" lon="-5.62099906615912914276123046875">
        <ele>141.600006103515625</ele>
        <time>2019-11-03T09:43:03.000Z</time>
      </trkpt>
      <trkpt lat="36.84807957150042057037353515625" lon="-5.621176175773143768310546875">
        <ele>142.399993896484375</ele>
        <time>2019-11-03T09:43:09.000Z</time>
      </trkpt>
      <trkpt lat="36.847926266491413116455078125" lon="-5.621366612613201141357421875">
        <ele>142.8000030517578125</ele>
        <time>2019-11-03T09:43:15.000Z</time>
      </trkpt>
      <trkpt lat="36.84779425151646137237548828125" lon="-5.621520839631557464599609375">
        <ele>143.1999969482421875</ele>
        <time>2019-11-03T09:43:20.000Z</time>
      </trkpt>
      <trkpt lat="36.84765695594251155853271484375" lon="-5.62169912271201610565185546875">
        <ele>143.600006103515625</ele>
        <time>2019-11-03T09:43:26.000Z</time>
      </trkpt>
      <trkpt lat="36.84752116911113262176513671875" lon="-5.621869526803493499755859375">
        <ele>143.600006103515625</ele>
        <time>2019-11-03T09:43:32.000Z</time>
      </trkpt>
      <trkpt lat="36.847384460270404815673828125" lon="-5.6220420263707637786865234375">
        <ele>143.8000030517578125</ele>
        <time>2019-11-03T09:43:38.000Z</time>
      </trkpt>
      <trkpt lat="36.847237609326839447021484375" lon="-5.62221662141382694244384765625">
        <ele>144.1999969482421875</ele>
        <time>2019-11-03T09:43:44.000Z</time>
      </trkpt>
      <trkpt lat="36.84708815999329090118408203125" lon="-5.62238073907792568206787109375">
        <ele>145</ele>
        <time>2019-11-03T09:43:50.000Z</time>
      </trkpt>
      <trkpt lat="36.84695966541767120361328125" lon="-5.6225385703146457672119140625">
        <ele>145.600006103515625</ele>
        <time>2019-11-03T09:43:56.000Z</time>
      </trkpt>
      <trkpt lat="36.846818514168262481689453125" lon="-5.622710399329662322998046875">
        <ele>146</ele>
        <time>2019-11-03T09:44:03.000Z</time>
      </trkpt>
      <trkpt lat="36.84671818278729915618896484375" lon="-5.6228983215987682342529296875">
        <ele>145.8000030517578125</ele>
        <time>2019-11-03T09:44:11.000Z</time>
      </trkpt>
      <trkpt lat="36.84671550057828426361083984375" lon="-5.62294852919876575469970703125">
        <ele>145.600006103515625</ele>
        <time>2019-11-03T09:44:17.000Z</time>
      </trkpt>
      <trkpt lat="36.84671550057828426361083984375" lon="-5.6229472719132900238037109375">
        <ele>145.600006103515625</ele>
        <time>2019-11-03T09:44:19.000Z</time>
      </trkpt>
      <trkpt lat="36.8467590026557445526123046875" lon="-5.6230621039867401123046875">
        <ele>145.1999969482421875</ele>
        <time>2019-11-03T09:51:53.000Z</time>
      </trkpt>
      <trkpt lat="36.846881546080112457275390625" lon="-5.6232579052448272705078125">
        <ele>143.399993896484375</ele>
        <time>2019-11-03T09:51:59.000Z</time>
      </trkpt>
      <trkpt lat="36.8470017425715923309326171875" lon="-5.62344172038137912750244140625">
        <ele>141.8000030517578125</ele>
        <time>2019-11-03T09:52:03.000Z</time>
      </trkpt>
      <trkpt lat="36.84712705202400684356689453125" lon="-5.62365931458771228790283203125">
        <ele>139.399993896484375</ele>
        <time>2019-11-03T09:52:07.000Z</time>
      </trkpt>
      <trkpt lat="36.84725730679929256439208984375" lon="-5.62388562597334384918212890625">
        <ele>138.1999969482421875</ele>
        <time>2019-11-03T09:52:11.000Z</time>
      </trkpt>
      <trkpt lat="36.84738353826105594635009765625" lon="-5.6241073273122310638427734375">
        <ele>138.399993896484375</ele>
        <time>2019-11-03T09:52:15.000Z</time>
      </trkpt>
      <trkpt lat="36.84751865454018115997314453125" lon="-5.624327771365642547607421875">
        <ele>138.399993896484375</ele>
        <time>2019-11-03T09:52:19.000Z</time>
      </trkpt>
      <trkpt lat="36.8476471491158008575439453125" lon="-5.624549388885498046875">
        <ele>138.8000030517578125</ele>
        <time>2019-11-03T09:52:23.000Z</time>
      </trkpt>
      <trkpt lat="36.8477876298129558563232421875" lon="-5.6247842498123645782470703125">
        <ele>137.600006103515625</ele>
        <time>2019-11-03T09:52:27.000Z</time>
      </trkpt>
      <trkpt lat="36.847896091639995574951171875" lon="-5.62496311962604522705078125">
        <ele>137.600006103515625</ele>
        <time>2019-11-03T09:52:30.000Z</time>
      </trkpt>
      <trkpt lat="36.8480410985648632049560546875" lon="-5.6251922808587551116943359375">
        <ele>138.600006103515625</ele>
        <time>2019-11-03T09:52:34.000Z</time>
      </trkpt>
      <trkpt lat="36.84818719513714313507080078125" lon="-5.62542135827243328094482421875">
        <ele>140</ele>
        <time>2019-11-03T09:52:38.000Z</time>
      </trkpt>
      <trkpt lat="36.84833019040524959564208984375" lon="-5.62564498744904994964599609375">
        <ele>141.399993896484375</ele>
        <time>2019-11-03T09:52:42.000Z</time>
      </trkpt>
      <trkpt lat="36.84847285039722919464111328125" lon="-5.6258705444633960723876953125">
        <ele>142.600006103515625</ele>
        <time>2019-11-03T09:52:46.000Z</time>
      </trkpt>
      <trkpt lat="36.8486150912940502166748046875" lon="-5.6260854564607143402099609375">
        <ele>142.1999969482421875</ele>
        <time>2019-11-03T09:52:50.000Z</time>
      </trkpt>
      <trkpt lat="36.84875263832509517669677734375" lon="-5.626300871372222900390625">
        <ele>141.600006103515625</ele>
        <time>2019-11-03T09:52:54.000Z</time>
      </trkpt>
      <trkpt lat="36.84889613650739192962646484375" lon="-5.62651117332279682159423828125">
        <ele>141.399993896484375</ele>
        <time>2019-11-03T09:52:58.000Z</time>
      </trkpt>
      <trkpt lat="36.849038712680339813232421875" lon="-5.62671150080859661102294921875">
        <ele>140.8000030517578125</ele>
        <time>2019-11-03T09:53:02.000Z</time>
      </trkpt>
      <trkpt lat="36.849176846444606781005859375" lon="-5.62692054547369480133056640625">
        <ele>141.600006103515625</ele>
        <time>2019-11-03T09:53:06.000Z</time>
      </trkpt>
      <trkpt lat="36.84931707568466663360595703125" lon="-5.62712623737752437591552734375">
        <ele>142.1999969482421875</ele>
        <time>2019-11-03T09:53:10.000Z</time>
      </trkpt>
      <trkpt lat="36.849459148943424224853515625" lon="-5.6273316778242588043212890625">
        <ele>141.1999969482421875</ele>
        <time>2019-11-03T09:53:14.000Z</time>
      </trkpt>
      <trkpt lat="36.84959954582154750823974609375" lon="-5.62753410078585147857666015625">
        <ele>140</ele>
        <time>2019-11-03T09:53:18.000Z</time>
      </trkpt>
      <trkpt lat="36.849748156964778900146484375" lon="-5.6277380324900150299072265625">
        <ele>141</ele>
        <time>2019-11-03T09:53:22.000Z</time>
      </trkpt>
      <trkpt lat="36.8498931638896465301513671875" lon="-5.627939365804195404052734375">
        <ele>142</ele>
        <time>2019-11-03T09:53:26.000Z</time>
      </trkpt>
      <trkpt lat="36.8500447086989879608154296875" lon="-5.62813642434775829315185546875">
        <ele>142.600006103515625</ele>
        <time>2019-11-03T09:53:30.000Z</time>
      </trkpt>
      <trkpt lat="36.8501939065754413604736328125" lon="-5.62833624891936779022216796875">
        <ele>142.600006103515625</ele>
        <time>2019-11-03T09:53:34.000Z</time>
      </trkpt>
      <trkpt lat="36.85033120214939117431640625" lon="-5.62854789197444915771484375">
        <ele>142.399993896484375</ele>
        <time>2019-11-03T09:53:38.000Z</time>
      </trkpt>
      <trkpt lat="36.850479058921337127685546875" lon="-5.628770180046558380126953125">
        <ele>142</ele>
        <time>2019-11-03T09:53:42.000Z</time>
      </trkpt>
      <trkpt lat="36.85059766285121440887451171875" lon="-5.6289403326809406280517578125">
        <ele>141.600006103515625</ele>
        <time>2019-11-03T09:53:45.000Z</time>
      </trkpt>
      <trkpt lat="36.85071735642850399017333984375" lon="-5.62911794520914554595947265625">
        <ele>140.8000030517578125</ele>
        <time>2019-11-03T09:53:48.000Z</time>
      </trkpt>
      <trkpt lat="36.8508307635784149169921875" lon="-5.62930687330663204193115234375">
        <ele>139.8000030517578125</ele>
        <time>2019-11-03T09:53:51.000Z</time>
      </trkpt>
      <trkpt lat="36.85093863867223262786865234375" lon="-5.62949714250862598419189453125">
        <ele>138</ele>
        <time>2019-11-03T09:53:54.000Z</time>
      </trkpt>
      <trkpt lat="36.85104961507022380828857421875" lon="-5.6296886689960956573486328125">
        <ele>138.1999969482421875</ele>
        <time>2019-11-03T09:53:57.000Z</time>
      </trkpt>
      <trkpt lat="36.8511615134775638580322265625" lon="-5.6298775970935821533203125">
        <ele>137.399993896484375</ele>
        <time>2019-11-03T09:54:00.000Z</time>
      </trkpt>
      <trkpt lat="36.85128615237772464752197265625" lon="-5.63006241805851459503173828125">
        <ele>136.600006103515625</ele>
        <time>2019-11-03T09:54:03.000Z</time>
      </trkpt>
      <trkpt lat="36.85141154564917087554931640625" lon="-5.630249083042144775390625">
        <ele>136.399993896484375</ele>
        <time>2019-11-03T09:54:06.000Z</time>
      </trkpt>
      <trkpt lat="36.85153576545417308807373046875" lon="-5.63043541274964809417724609375">
        <ele>136.600006103515625</ele>
        <time>2019-11-03T09:54:09.000Z</time>
      </trkpt>
      <trkpt lat="36.8516600690782070159912109375" lon="-5.630620233714580535888671875">
        <ele>137</ele>
        <time>2019-11-03T09:54:12.000Z</time>
      </trkpt>
      <trkpt lat="36.85178236104547977447509765625" lon="-5.630801618099212646484375">
        <ele>136.600006103515625</ele>
        <time>2019-11-03T09:54:15.000Z</time>
      </trkpt>
      <trkpt lat="36.85190071351826190948486328125" lon="-5.6309754587709903717041015625">
        <ele>136.8000030517578125</ele>
        <time>2019-11-03T09:54:18.000Z</time>
      </trkpt>
      <trkpt lat="36.8520550243556499481201171875" lon="-5.63120034523308277130126953125">
        <ele>137</ele>
        <time>2019-11-03T09:54:22.000Z</time>
      </trkpt>
      <trkpt lat="36.85220195911824703216552734375" lon="-5.63141995109617710113525390625">
        <ele>136.1999969482421875</ele>
        <time>2019-11-03T09:54:26.000Z</time>
      </trkpt>
      <trkpt lat="36.85234428383409976959228515625" lon="-5.63162840902805328369140625">
        <ele>135</ele>
        <time>2019-11-03T09:54:30.000Z</time>
      </trkpt>
      <trkpt lat="36.85246481560170650482177734375" lon="-5.63175740651786327362060546875">
        <ele>135.399993896484375</ele>
        <time>2019-11-03T09:54:33.000Z</time>
      </trkpt>
      <trkpt lat="36.8526387400925159454345703125" lon="-5.63184776343405246734619140625">
        <ele>135.399993896484375</ele>
        <time>2019-11-03T09:54:37.000Z</time>
      </trkpt>
      <trkpt lat="36.852828003466129302978515625" lon="-5.63190777786076068878173828125">
        <ele>134.399993896484375</ele>
        <time>2019-11-03T09:54:41.000Z</time>
      </trkpt>
      <trkpt lat="36.8529109843075275421142578125" lon="-5.63198220916092395782470703125">
        <ele>133.8000030517578125</ele>
        <time>2019-11-03T09:54:43.000Z</time>
      </trkpt>
      <trkpt lat="36.8530650436878204345703125" lon="-5.63215688802301883697509765625">
        <ele>133.1999969482421875</ele>
        <time>2019-11-03T09:54:47.000Z</time>
      </trkpt>
      <trkpt lat="36.853211559355258941650390625" lon="-5.6323393620550632476806640625">
        <ele>133.1999969482421875</ele>
        <time>2019-11-03T09:54:51.000Z</time>
      </trkpt>
      <trkpt lat="36.853342987596988677978515625" lon="-5.6325428746640682220458984375">
        <ele>134.8000030517578125</ele>
        <time>2019-11-03T09:54:55.000Z</time>
      </trkpt>
      <trkpt lat="36.853388585150241851806640625" lon="-5.63265527598559856414794921875">
        <ele>135.600006103515625</ele>
        <time>2019-11-03T09:54:57.000Z</time>
      </trkpt>
      <trkpt lat="36.853409707546234130859375" lon="-5.63290120102465152740478515625">
        <ele>137.1999969482421875</ele>
        <time>2019-11-03T09:55:01.000Z</time>
      </trkpt>
      <trkpt lat="36.85340392403304576873779296875" lon="-5.63296255655586719512939453125">
        <ele>137.399993896484375</ele>
        <time>2019-11-03T09:55:02.000Z</time>
      </trkpt>
      <trkpt lat="36.8534035049378871917724609375" lon="-5.6331436894834041595458984375">
        <ele>137.8000030517578125</ele>
        <time>2019-11-03T09:55:05.000Z</time>
      </trkpt>
      <trkpt lat="36.85353317297995090484619140625" lon="-5.63334309495985507965087890625">
        <ele>136.8000030517578125</ele>
        <time>2019-11-03T09:55:10.000Z</time>
      </trkpt>
      <trkpt lat="36.85356862843036651611328125" lon="-5.6333751976490020751953125">
        <ele>136.399993896484375</ele>
        <time>2019-11-03T09:55:11.000Z</time>
      </trkpt>
      <trkpt lat="36.853662170469760894775390625" lon="-5.63361165113747119903564453125">
        <ele>135.1999969482421875</ele>
        <time>2019-11-03T09:55:16.000Z</time>
      </trkpt>
      <trkpt lat="36.85371556319296360015869140625" lon="-5.6336942128837108612060546875">
        <ele>134.8000030517578125</ele>
        <time>2019-11-03T09:55:18.000Z</time>
      </trkpt>
      <trkpt lat="36.85374489985406398773193359375" lon="-5.6337213702499866485595703125">
        <ele>134.8000030517578125</ele>
        <time>2019-11-03T09:55:19.000Z</time>
      </trkpt>
      <trkpt lat="36.853849925100803375244140625" lon="-5.6337652914226055145263671875">
        <ele>135</ele>
        <time>2019-11-03T09:55:25.000Z</time>
      </trkpt>
      <trkpt lat="36.85385906137526035308837890625" lon="-5.63376939855515956878662109375">
        <ele>135.1999969482421875</ele>
        <time>2019-11-03T09:55:28.000Z</time>
      </trkpt>
      <trkpt lat="36.85395495034754276275634765625" lon="-5.6339004077017307281494140625">
        <ele>136.600006103515625</ele>
        <time>2019-11-03T09:56:23.000Z</time>
      </trkpt>
      <trkpt lat="36.8540670163929462432861328125" lon="-5.634093694388866424560546875">
        <ele>137.600006103515625</ele>
        <time>2019-11-03T09:56:29.000Z</time>
      </trkpt>
      <trkpt lat="36.8542076647281646728515625" lon="-5.63429796136915683746337890625">
        <ele>138.600006103515625</ele>
        <time>2019-11-03T09:56:35.000Z</time>
      </trkpt>
      <trkpt lat="36.85433381237089633941650390625" lon="-5.634506084024906158447265625">
        <ele>139.1999969482421875</ele>
        <time>2019-11-03T09:56:41.000Z</time>
      </trkpt>
      <trkpt lat="36.85444378294050693511962890625" lon="-5.63469073735177516937255859375">
        <ele>138.8000030517578125</ele>
        <time>2019-11-03T09:56:46.000Z</time>
      </trkpt>
      <trkpt lat="36.85456029139459133148193359375" lon="-5.63489693216979503631591796875">
        <ele>138.600006103515625</ele>
        <time>2019-11-03T09:56:51.000Z</time>
      </trkpt>
      <trkpt lat="36.85469808988273143768310546875" lon="-5.6350976787507534027099609375">
        <ele>138.600006103515625</ele>
        <time>2019-11-03T09:56:56.000Z</time>
      </trkpt>
      <trkpt lat="36.85482080094516277313232421875" lon="-5.63530781306326389312744140625">
        <ele>139</ele>
        <time>2019-11-03T09:57:01.000Z</time>
      </trkpt>
      <trkpt lat="36.85492448508739471435546875" lon="-5.63549171201884746551513671875">
        <ele>139</ele>
        <time>2019-11-03T09:57:05.000Z</time>
      </trkpt>
      <trkpt lat="36.8550614453852176666259765625" lon="-5.63570930622518062591552734375">
        <ele>138.8000030517578125</ele>
        <time>2019-11-03T09:57:10.000Z</time>
      </trkpt>
      <trkpt lat="36.85517803765833377838134765625" lon="-5.63588415272533893585205078125">
        <ele>139</ele>
        <time>2019-11-03T09:57:14.000Z</time>
      </trkpt>
      <trkpt lat="36.8553088791668415069580078125" lon="-5.63604206778109073638916015625">
        <ele>139</ele>
        <time>2019-11-03T09:57:18.000Z</time>
      </trkpt>
      <trkpt lat="36.85543167404830455780029296875" lon="-5.636213310062885284423828125">
        <ele>138.600006103515625</ele>
        <time>2019-11-03T09:57:22.000Z</time>
      </trkpt>
      <trkpt lat="36.8555636890232563018798828125" lon="-5.6363846361637115478515625">
        <ele>137.8000030517578125</ele>
        <time>2019-11-03T09:57:26.000Z</time>
      </trkpt>
      <trkpt lat="36.855647005140781402587890625" lon="-5.6365085206925868988037109375">
        <ele>137.399993896484375</ele>
        <time>2019-11-03T09:57:29.000Z</time>
      </trkpt>
      <trkpt lat="36.8557910062372684478759765625" lon="-5.63668915070593357086181640625">
        <ele>137</ele>
        <time>2019-11-03T09:57:34.000Z</time>
      </trkpt>
      <trkpt lat="36.8558768369257450103759765625" lon="-5.63677665777504444122314453125">
        <ele>137</ele>
        <time>2019-11-03T09:57:37.000Z</time>
      </trkpt>
      <trkpt lat="36.85603667981922626495361328125" lon="-5.63685880042612552642822265625">
        <ele>137.1999969482421875</ele>
        <time>2019-11-03T09:57:42.000Z</time>
      </trkpt>
      <trkpt lat="36.8560582213103771209716796875" lon="-5.63687346875667572021484375">
        <ele>137.1999969482421875</ele>
        <time>2019-11-03T09:57:45.000Z</time>
      </trkpt>
      <trkpt lat="36.85609334148466587066650390625" lon="-5.63674740493297576904296875">
        <ele>138.1999969482421875</ele>
        <time>2019-11-03T09:57:51.000Z</time>
      </trkpt>
      <trkpt lat="36.85622929595410823822021484375" lon="-5.63658705912530422210693359375">
        <ele>139.399993896484375</ele>
        <time>2019-11-03T09:57:57.000Z</time>
      </trkpt>
      <trkpt lat="36.8563643284142017364501953125" lon="-5.6364253722131252288818359375">
        <ele>140</ele>
        <time>2019-11-03T09:58:03.000Z</time>
      </trkpt>
      <trkpt lat="36.85652048327028751373291015625" lon="-5.6362708099186420440673828125">
        <ele>139.8000030517578125</ele>
        <time>2019-11-03T09:58:10.000Z</time>
      </trkpt>
      <trkpt lat="36.85665811412036418914794921875" lon="-5.63612219877541065216064453125">
        <ele>139.399993896484375</ele>
        <time>2019-11-03T09:58:17.000Z</time>
      </trkpt>
      <trkpt lat="36.85682876966893672943115234375" lon="-5.6359590031206607818603515625">
        <ele>138.8000030517578125</ele>
        <time>2019-11-03T09:58:23.000Z</time>
      </trkpt>
      <trkpt lat="36.8569845892488956451416015625" lon="-5.63579094596207141876220703125">
        <ele>138.1999969482421875</ele>
        <time>2019-11-03T09:58:29.000Z</time>
      </trkpt>
      <trkpt lat="36.857014596462249755859375" lon="-5.6357803009450435638427734375">
        <ele>138.1999969482421875</ele>
        <time>2019-11-03T09:58:30.000Z</time>
      </trkpt>
      <trkpt lat="36.8571545742452144622802734375" lon="-5.63592731952667236328125">
        <ele>137.600006103515625</ele>
        <time>2019-11-03T09:58:36.000Z</time>
      </trkpt>
      <trkpt lat="36.857172511518001556396484375" lon="-5.6359573267400264739990234375">
        <ele>137.600006103515625</ele>
        <time>2019-11-03T09:58:37.000Z</time>
      </trkpt>
      <trkpt lat="36.85730486176908016204833984375" lon="-5.63614130951464176177978515625">
        <ele>138</ele>
        <time>2019-11-03T09:58:43.000Z</time>
      </trkpt>
      <trkpt lat="36.85734995640814304351806640625" lon="-5.63632001169025897979736328125">
        <ele>137.8000030517578125</ele>
        <time>2019-11-03T09:58:49.000Z</time>
      </trkpt>
      <trkpt lat="36.85720260255038738250732421875" lon="-5.63649351708590984344482421875">
        <ele>138.1999969482421875</ele>
        <time>2019-11-03T09:58:56.000Z</time>
      </trkpt>
      <trkpt lat="36.8570534884929656982421875" lon="-5.63667121343314647674560546875">
        <ele>138.8000030517578125</ele>
        <time>2019-11-03T09:59:02.000Z</time>
      </trkpt>
      <trkpt lat="36.856894902884960174560546875" lon="-5.63681286759674549102783203125">
        <ele>139.600006103515625</ele>
        <time>2019-11-03T09:59:08.000Z</time>
      </trkpt>
      <trkpt lat="36.85678753070533275604248046875" lon="-5.6368236802518367767333984375">
        <ele>140</ele>
        <time>2019-11-03T09:59:12.000Z</time>
      </trkpt>
      <trkpt lat="36.856650151312351226806640625" lon="-5.63663617707788944244384765625">
        <ele>139.8000030517578125</ele>
        <time>2019-11-03T09:59:18.000Z</time>
      </trkpt>
      <trkpt lat="36.8565224111080169677734375" lon="-5.63645370304584503173828125">
        <ele>139.8000030517578125</ele>
        <time>2019-11-03T09:59:24.000Z</time>
      </trkpt>
      <trkpt lat="36.85647019185125827789306640625" lon="-5.63641388900578022003173828125">
        <ele>140</ele>
        <time>2019-11-03T09:59:26.000Z</time>
      </trkpt>
      <trkpt lat="36.856375224888324737548828125" lon="-5.63643031753599643707275390625">
        <ele>140</ele>
        <time>2019-11-03T09:59:30.000Z</time>
      </trkpt>
      <trkpt lat="36.85620901174843311309814453125" lon="-5.63659460283815860748291015625">
        <ele>139.399993896484375</ele>
        <time>2019-11-03T09:59:36.000Z</time>
      </trkpt>
      <trkpt lat="36.856097616255283355712890625" lon="-5.636757127940654754638671875">
        <ele>138.1999969482421875</ele>
        <time>2019-11-03T09:59:41.000Z</time>
      </trkpt>
      <trkpt lat="36.85618353076279163360595703125" lon="-5.6369185633957386016845703125">
        <ele>137.399993896484375</ele>
        <time>2019-11-03T09:59:46.000Z</time>
      </trkpt>
      <trkpt lat="36.85632971115410327911376953125" lon="-5.6370523385703563690185546875">
        <ele>137.600006103515625</ele>
        <time>2019-11-03T09:59:51.000Z</time>
      </trkpt>
      <trkpt lat="36.8564964272081851959228515625" lon="-5.63715484924614429473876953125">
        <ele>138.399993896484375</ele>
        <time>2019-11-03T09:59:56.000Z</time>
      </trkpt>
      <trkpt lat="36.8566189706325531005859375" lon="-5.6372296996414661407470703125">
        <ele>139</ele>
        <time>2019-11-03T10:00:03.000Z</time>
      </trkpt>
      <trkpt lat="36.85661704279482364654541015625" lon="-5.6372320465743541717529296875">
        <ele>139</ele>
        <time>2019-11-03T10:00:07.000Z</time>
      </trkpt>
      <trkpt lat="36.8566657416522502899169921875" lon="-5.63727454282343387603759765625">
        <ele>139.1999969482421875</ele>
        <time>2019-11-03T10:00:13.000Z</time>
      </trkpt>
      <trkpt lat="36.85670622624456882476806640625" lon="-5.63736657612025737762451171875">
        <ele>139.600006103515625</ele>
        <time>2019-11-03T10:00:23.000Z</time>
      </trkpt>
      <trkpt lat="36.8567009456455707550048828125" lon="-5.637370683252811431884765625">
        <ele>139.600006103515625</ele>
        <time>2019-11-03T10:00:25.000Z</time>
      </trkpt>
      <trkpt lat="36.85671963728964328765869140625" lon="-5.63743161968886852264404296875">
        <ele>139.600006103515625</ele>
        <time>2019-11-03T10:40:07.000Z</time>
      </trkpt>
      <trkpt lat="36.856683008372783660888671875" lon="-5.6372756324708461761474609375">
        <ele>139.399993896484375</ele>
        <time>2019-11-03T10:40:15.000Z</time>
      </trkpt>
      <trkpt lat="36.856621988117694854736328125" lon="-5.63731444068253040313720703125">
        <ele>139</ele>
        <time>2019-11-03T10:40:16.000Z</time>
      </trkpt>
      <trkpt lat="36.85657932423055171966552734375" lon="-5.6372655741870403289794921875">
        <ele>138.600006103515625</ele>
        <time>2019-11-03T10:40:19.000Z</time>
      </trkpt>
      <trkpt lat="36.85641068033874034881591796875" lon="-5.63715551979839801788330078125">
        <ele>137.8000030517578125</ele>
        <time>2019-11-03T10:40:25.000Z</time>
      </trkpt>
      <trkpt lat="36.85622694902122020721435546875" lon="-5.6370432861149311065673828125">
        <ele>137</ele>
        <time>2019-11-03T10:40:33.000Z</time>
      </trkpt>
      <trkpt lat="36.85603894293308258056640625" lon="-5.63705510459840297698974609375">
        <ele>135.8000030517578125</ele>
        <time>2019-11-03T10:40:39.000Z</time>
      </trkpt>
      <trkpt lat="36.855871640145778656005859375" lon="-5.63693725503981113433837890625">
        <ele>135.8000030517578125</ele>
        <time>2019-11-03T10:40:44.000Z</time>
      </trkpt>
      <trkpt lat="36.85576778836548328399658203125" lon="-5.636708177626132965087890625">
        <ele>136.8000030517578125</ele>
        <time>2019-11-03T10:40:50.000Z</time>
      </trkpt>
      <trkpt lat="36.85562789440155029296875" lon="-5.63653894700109958648681640625">
        <ele>137</ele>
        <time>2019-11-03T10:40:55.000Z</time>
      </trkpt>
      <trkpt lat="36.85548598878085613250732421875" lon="-5.63636544160544872283935546875">
        <ele>137.600006103515625</ele>
        <time>2019-11-03T10:41:00.000Z</time>
      </trkpt>
      <trkpt lat="36.85535623691976070404052734375" lon="-5.63617215491831302642822265625">
        <ele>138.8000030517578125</ele>
        <time>2019-11-03T10:41:05.000Z</time>
      </trkpt>
      <trkpt lat="36.8552253954112529754638671875" lon="-5.63597886823117733001708984375">
        <ele>139</ele>
        <time>2019-11-03T10:41:10.000Z</time>
      </trkpt>
      <trkpt lat="36.855081729590892791748046875" lon="-5.63576697371900081634521484375">
        <ele>139</ele>
        <time>2019-11-03T10:41:15.000Z</time>
      </trkpt>
      <trkpt lat="36.8549658916890621185302734375" lon="-5.635589025914669036865234375">
        <ele>139</ele>
        <time>2019-11-03T10:41:19.000Z</time>
      </trkpt>
      <trkpt lat="36.8548478744924068450927734375" lon="-5.63541158102452754974365234375">
        <ele>139</ele>
        <time>2019-11-03T10:41:23.000Z</time>
      </trkpt>
      <trkpt lat="36.8547278456389904022216796875" lon="-5.63524008728563785552978515625">
        <ele>138.600006103515625</ele>
        <time>2019-11-03T10:41:27.000Z</time>
      </trkpt>
      <trkpt lat="36.854612343013286590576171875" lon="-5.63506297767162322998046875">
        <ele>138.1999969482421875</ele>
        <time>2019-11-03T10:41:31.000Z</time>
      </trkpt>
      <trkpt lat="36.8545008637011051177978515625" lon="-5.634883604943752288818359375">
        <ele>138.399993896484375</ele>
        <time>2019-11-03T10:41:35.000Z</time>
      </trkpt>
      <trkpt lat="36.85437153093516826629638671875" lon="-5.63469685614109039306640625">
        <ele>138.600006103515625</ele>
        <time>2019-11-03T10:41:39.000Z</time>
      </trkpt>
      <trkpt lat="36.85424144379794597625732421875" lon="-5.63450046814978122711181640625">
        <ele>138.8000030517578125</ele>
        <time>2019-11-03T10:41:43.000Z</time>
      </trkpt>
      <trkpt lat="36.85411269776523113250732421875" lon="-5.6342978775501251220703125">
        <ele>138</ele>
        <time>2019-11-03T10:41:47.000Z</time>
      </trkpt>
      <trkpt lat="36.85396919958293437957763671875" lon="-5.63409344293177127838134765625">
        <ele>136.8000030517578125</ele>
        <time>2019-11-03T10:41:51.000Z</time>
      </trkpt>
      <trkpt lat="36.85381664894521236419677734375" lon="-5.63388506881892681121826171875">
        <ele>135</ele>
        <time>2019-11-03T10:41:55.000Z</time>
      </trkpt>
      <trkpt lat="36.8536703847348690032958984375" lon="-5.63367619179189205169677734375">
        <ele>134.8000030517578125</ele>
        <time>2019-11-03T10:41:59.000Z</time>
      </trkpt>
      <trkpt lat="36.853599138557910919189453125" lon="-5.63358801417052745819091796875">
        <ele>135.1999969482421875</ele>
        <time>2019-11-03T10:42:01.000Z</time>
      </trkpt>
      <trkpt lat="36.8534152396023273468017578125" lon="-5.6334622018039226531982421875">
        <ele>136.399993896484375</ele>
        <time>2019-11-03T10:42:06.000Z</time>
      </trkpt>
      <trkpt lat="36.8533699773252010345458984375" lon="-5.63322759233415126800537109375">
        <ele>137.1999969482421875</ele>
        <time>2019-11-03T10:42:11.000Z</time>
      </trkpt>
      <trkpt lat="36.85321516357362270355224609375" lon="-5.63310622237622737884521484375">
        <ele>136.399993896484375</ele>
        <time>2019-11-03T10:42:16.000Z</time>
      </trkpt>
      <trkpt lat="36.85307937674224376678466796875" lon="-5.6331721879541873931884765625">
        <ele>135.1999969482421875</ele>
        <time>2019-11-03T10:42:20.000Z</time>
      </trkpt>
      <trkpt lat="36.85301483608782291412353515625" lon="-5.63323245383799076080322265625">
        <ele>134.600006103515625</ele>
        <time>2019-11-03T10:42:23.000Z</time>
      </trkpt>
      <trkpt lat="36.8530115671455860137939453125" lon="-5.6332392431795597076416015625">
        <ele>134.399993896484375</ele>
        <time>2019-11-03T10:42:25.000Z</time>
      </trkpt>
      <trkpt lat="36.85301399789750576019287109375" lon="-5.633235387504100799560546875">
        <ele>134.399993896484375</ele>
        <time>2019-11-03T10:42:28.000Z</time>
      </trkpt>
      <trkpt lat="36.85294099152088165283203125" lon="-5.633306801319122314453125">
        <ele>133.8000030517578125</ele>
        <time>2019-11-03T10:42:41.000Z</time>
      </trkpt>
      <trkpt lat="36.852756254374980926513671875" lon="-5.63346161507070064544677734375">
        <ele>133.1999969482421875</ele>
        <time>2019-11-03T10:42:46.000Z</time>
      </trkpt>
      <trkpt lat="36.8526132591068744659423828125" lon="-5.6336201168596744537353515625">
        <ele>133</ele>
        <time>2019-11-03T10:42:49.000Z</time>
      </trkpt>
      <trkpt lat="36.85252298600971698760986328125" lon="-5.63375146128237247467041015625">
        <ele>133.600006103515625</ele>
        <time>2019-11-03T10:42:51.000Z</time>
      </trkpt>
      <trkpt lat="36.852434389293193817138671875" lon="-5.63398338854312896728515625">
        <ele>134.399993896484375</ele>
        <time>2019-11-03T10:42:54.000Z</time>
      </trkpt>
      <trkpt lat="36.85241452418267726898193359375" lon="-5.63405421562492847442626953125">
        <ele>134.8000030517578125</ele>
        <time>2019-11-03T10:42:55.000Z</time>
      </trkpt>
      <trkpt lat="36.85235895216464996337890625" lon="-5.63429829664528369903564453125">
        <ele>136</ele>
        <time>2019-11-03T10:42:59.000Z</time>
      </trkpt>
      <trkpt lat="36.85231813229620456695556640625" lon="-5.63453734852373600006103515625">
        <ele>137</ele>
        <time>2019-11-03T10:43:04.000Z</time>
      </trkpt>
      <trkpt lat="36.85227370820939540863037109375" lon="-5.63479333184659481048583984375">
        <ele>136.8000030517578125</ele>
        <time>2019-11-03T10:43:10.000Z</time>
      </trkpt>
      <trkpt lat="36.852231882512569427490234375" lon="-5.63504495657980442047119140625">
        <ele>135.600006103515625</ele>
        <time>2019-11-03T10:43:16.000Z</time>
      </trkpt>
      <trkpt lat="36.85219894163310527801513671875" lon="-5.6353089027106761932373046875">
        <ele>134.1999969482421875</ele>
        <time>2019-11-03T10:43:22.000Z</time>
      </trkpt>
      <trkpt lat="36.8521780706942081451416015625" lon="-5.6355328671634197235107421875">
        <ele>132</ele>
        <time>2019-11-03T10:43:27.000Z</time>
      </trkpt>
      <trkpt lat="36.8521552719175815582275390625" lon="-5.63576227985322475433349609375">
        <ele>130.600006103515625</ele>
        <time>2019-11-03T10:43:32.000Z</time>
      </trkpt>
      <trkpt lat="36.8521381728351116180419921875" lon="-5.63600753434002399444580078125">
        <ele>130.600006103515625</ele>
        <time>2019-11-03T10:43:37.000Z</time>
      </trkpt>
      <trkpt lat="36.852128617465496063232421875" lon="-5.63628698699176311492919921875">
        <ele>131.399993896484375</ele>
        <time>2019-11-03T10:43:42.000Z</time>
      </trkpt>
      <trkpt lat="36.85213088057935237884521484375" lon="-5.6365115381777286529541015625">
        <ele>131</ele>
        <time>2019-11-03T10:43:46.000Z</time>
      </trkpt>
      <trkpt lat="36.8521391786634922027587890625" lon="-5.6367360055446624755859375">
        <ele>130.600006103515625</ele>
        <time>2019-11-03T10:43:50.000Z</time>
      </trkpt>
      <trkpt lat="36.852158792316913604736328125" lon="-5.63701386563479900360107421875">
        <ele>129</ele>
        <time>2019-11-03T10:43:55.000Z</time>
      </trkpt>
      <trkpt lat="36.8521817587316036224365234375" lon="-5.63725836575031280517578125">
        <ele>128</ele>
        <time>2019-11-03T10:43:59.000Z</time>
      </trkpt>
      <trkpt lat="36.85221612453460693359375" lon="-5.63751342706382274627685546875">
        <ele>130</ele>
        <time>2019-11-03T10:44:03.000Z</time>
      </trkpt>
      <trkpt lat="36.85225409455597400665283203125" lon="-5.637769997119903564453125">
        <ele>131.600006103515625</ele>
        <time>2019-11-03T10:44:07.000Z</time>
      </trkpt>
      <trkpt lat="36.8523014523088932037353515625" lon="-5.63802908174693584442138671875">
        <ele>131.8000030517578125</ele>
        <time>2019-11-03T10:44:11.000Z</time>
      </trkpt>
      <trkpt lat="36.8523587845265865325927734375" lon="-5.6382999010384082794189453125">
        <ele>129.399993896484375</ele>
        <time>2019-11-03T10:44:15.000Z</time>
      </trkpt>
      <trkpt lat="36.85242491774260997772216796875" lon="-5.638579688966274261474609375">
        <ele>127.59999847412109375</ele>
        <time>2019-11-03T10:44:19.000Z</time>
      </trkpt>
      <trkpt lat="36.8524999357759952545166015625" lon="-5.63885989598929882049560546875">
        <ele>125</ele>
        <time>2019-11-03T10:44:23.000Z</time>
      </trkpt>
      <trkpt lat="36.85257981531322002410888671875" lon="-5.63913725316524505615234375">
        <ele>124</ele>
        <time>2019-11-03T10:44:27.000Z</time>
      </trkpt>
      <trkpt lat="36.85266246087849140167236328125" lon="-5.6394101679325103759765625">
        <ele>123</ele>
        <time>2019-11-03T10:44:31.000Z</time>
      </trkpt>
      <trkpt lat="36.8527366407215595245361328125" lon="-5.63967562280595302581787109375">
        <ele>122.40000152587890625</ele>
        <time>2019-11-03T10:44:35.000Z</time>
      </trkpt>
      <trkpt lat="36.85281065292656421661376953125" lon="-5.6399340368807315826416015625">
        <ele>121.8000030517578125</ele>
        <time>2019-11-03T10:44:39.000Z</time>
      </trkpt>
      <trkpt lat="36.85288198292255401611328125" lon="-5.6401995755732059478759765625">
        <ele>122.59999847412109375</ele>
        <time>2019-11-03T10:44:43.000Z</time>
      </trkpt>
      <trkpt lat="36.852948367595672607421875" lon="-5.64046586863696575164794921875">
        <ele>124.59999847412109375</ele>
        <time>2019-11-03T10:44:47.000Z</time>
      </trkpt>
      <trkpt lat="36.853005699813365936279296875" lon="-5.6407217681407928466796875">
        <ele>126</ele>
        <time>2019-11-03T10:44:51.000Z</time>
      </trkpt>
      <trkpt lat="36.8530561588704586029052734375" lon="-5.640970207750797271728515625">
        <ele>126.40000152587890625</ele>
        <time>2019-11-03T10:44:55.000Z</time>
      </trkpt>
      <trkpt lat="36.853105612099170684814453125" lon="-5.64121596515178680419921875">
        <ele>127</ele>
        <time>2019-11-03T10:44:59.000Z</time>
      </trkpt>
      <trkpt lat="36.85314710251986980438232421875" lon="-5.64145225100219249725341796875">
        <ele>127</ele>
        <time>2019-11-03T10:45:03.000Z</time>
      </trkpt>
      <trkpt lat="36.85318381525576114654541015625" lon="-5.64169297926127910614013671875">
        <ele>127</ele>
        <time>2019-11-03T10:45:07.000Z</time>
      </trkpt>
      <trkpt lat="36.85322270728647708892822265625" lon="-5.641939826309680938720703125">
        <ele>127</ele>
        <time>2019-11-03T10:45:11.000Z</time>
      </trkpt>
      <trkpt lat="36.853251792490482330322265625" lon="-5.64218063838779926300048828125">
        <ele>127.59999847412109375</ele>
        <time>2019-11-03T10:45:15.000Z</time>
      </trkpt>
      <trkpt lat="36.85327827930450439453125" lon="-5.64241499640047550201416015625">
        <ele>127.59999847412109375</ele>
        <time>2019-11-03T10:45:19.000Z</time>
      </trkpt>
      <trkpt lat="36.8532968871295452117919921875" lon="-5.6426541320979595184326171875">
        <ele>127.8000030517578125</ele>
        <time>2019-11-03T10:45:23.000Z</time>
      </trkpt>
      <trkpt lat="36.853315494954586029052734375" lon="-5.64288589172065258026123046875">
        <ele>128.600006103515625</ele>
        <time>2019-11-03T10:45:27.000Z</time>
      </trkpt>
      <trkpt lat="36.85332429595291614532470703125" lon="-5.64315981231629848480224609375">
        <ele>129.600006103515625</ele>
        <time>2019-11-03T10:45:32.000Z</time>
      </trkpt>
      <trkpt lat="36.85333200730383396148681640625" lon="-5.6434276141226291656494140625">
        <ele>130</ele>
        <time>2019-11-03T10:45:37.000Z</time>
      </trkpt>
      <trkpt lat="36.8533428199589252471923828125" lon="-5.64368317835032939910888671875">
        <ele>129.8000030517578125</ele>
        <time>2019-11-03T10:45:42.000Z</time>
      </trkpt>
      <trkpt lat="36.85334072448313236236572265625" lon="-5.64392440952360630035400390625">
        <ele>128.600006103515625</ele>
        <time>2019-11-03T10:45:47.000Z</time>
      </trkpt>
      <trkpt lat="36.853331588208675384521484375" lon="-5.64417502842843532562255859375">
        <ele>127.40000152587890625</ele>
        <time>2019-11-03T10:45:52.000Z</time>
      </trkpt>
      <trkpt lat="36.8533170036971569061279296875" lon="-5.6444414891302585601806640625">
        <ele>125.59999847412109375</ele>
        <time>2019-11-03T10:45:57.000Z</time>
      </trkpt>
      <trkpt lat="36.85330300591886043548583984375" lon="-5.64471733756363391876220703125">
        <ele>124.1999969482421875</ele>
        <time>2019-11-03T10:46:02.000Z</time>
      </trkpt>
      <trkpt lat="36.8532824702560901641845703125" lon="-5.6449896655976772308349609375">
        <ele>123.8000030517578125</ele>
        <time>2019-11-03T10:46:07.000Z</time>
      </trkpt>
      <trkpt lat="36.85326025821268558502197265625" lon="-5.64525277353823184967041015625">
        <ele>124.59999847412109375</ele>
        <time>2019-11-03T10:46:12.000Z</time>
      </trkpt>
      <trkpt lat="36.8532378785312175750732421875" lon="-5.6455039791762828826904296875">
        <ele>126</ele>
        <time>2019-11-03T10:46:17.000Z</time>
      </trkpt>
      <trkpt lat="36.8532160855829715728759765625" lon="-5.64575686119496822357177734375">
        <ele>126.8000030517578125</ele>
        <time>2019-11-03T10:46:22.000Z</time>
      </trkpt>
      <trkpt lat="36.853194124996662139892578125" lon="-5.64601619727909564971923828125">
        <ele>128.1999969482421875</ele>
        <time>2019-11-03T10:46:27.000Z</time>
      </trkpt>
      <trkpt lat="36.8531698174774646759033203125" lon="-5.64627151004970073699951171875">
        <ele>129</ele>
        <time>2019-11-03T10:46:32.000Z</time>
      </trkpt>
      <trkpt lat="36.85314358212053775787353515625" lon="-5.646537803113460540771484375">
        <ele>128.1999969482421875</ele>
        <time>2019-11-03T10:46:37.000Z</time>
      </trkpt>
      <trkpt lat="36.85311659239232540130615234375" lon="-5.646800994873046875">
        <ele>126.59999847412109375</ele>
        <time>2019-11-03T10:46:42.000Z</time>
      </trkpt>
      <trkpt lat="36.85310385189950466156005859375" lon="-5.6469624303281307220458984375">
        <ele>126</ele>
        <time>2019-11-03T10:46:45.000Z</time>
      </trkpt>
      <trkpt lat="36.8530873395502567291259765625" lon="-5.6472309865057468414306640625">
        <ele>125.40000152587890625</ele>
        <time>2019-11-03T10:46:50.000Z</time>
      </trkpt>
      <trkpt lat="36.8530699051916599273681640625" lon="-5.6475089304149150848388671875">
        <ele>125.40000152587890625</ele>
        <time>2019-11-03T10:46:55.000Z</time>
      </trkpt>
      <trkpt lat="36.85305691324174404144287109375" lon="-5.64774404279887676239013671875">
        <ele>125.40000152587890625</ele>
        <time>2019-11-03T10:46:59.000Z</time>
      </trkpt>
      <trkpt lat="36.85304048471152782440185546875" lon="-5.6479907222092151641845703125">
        <ele>125.59999847412109375</ele>
        <time>2019-11-03T10:47:03.000Z</time>
      </trkpt>
      <trkpt lat="36.853029169142246246337890625" lon="-5.64824813045561313629150390625">
        <ele>126</ele>
        <time>2019-11-03T10:47:07.000Z</time>
      </trkpt>
      <trkpt lat="36.85302757658064365386962890625" lon="-5.64851157367229461669921875">
        <ele>126.40000152587890625</ele>
        <time>2019-11-03T10:47:11.000Z</time>
      </trkpt>
      <trkpt lat="36.85303260572254657745361328125" lon="-5.6487893499433994293212890625">
        <ele>125.8000030517578125</ele>
        <time>2019-11-03T10:47:15.000Z</time>
      </trkpt>
      <trkpt lat="36.8530367128551006317138671875" lon="-5.64907676540315151214599609375">
        <ele>124.8000030517578125</ele>
        <time>2019-11-03T10:47:19.000Z</time>
      </trkpt>
      <trkpt lat="36.85304014943540096282958984375" lon="-5.64930341206490993499755859375">
        <ele>124.1999969482421875</ele>
        <time>2019-11-03T10:47:22.000Z</time>
      </trkpt>
      <trkpt lat="36.8530507944524288177490234375" lon="-5.649535842239856719970703125">
        <ele>123.40000152587890625</ele>
        <time>2019-11-03T10:47:25.000Z</time>
      </trkpt>
      <trkpt lat="36.85306646861135959625244140625" lon="-5.6497670151293277740478515625">
        <ele>123.1999969482421875</ele>
        <time>2019-11-03T10:47:28.000Z</time>
      </trkpt>
      <trkpt lat="36.8530836515128612518310546875" lon="-5.6500137783586978912353515625">
        <ele>122.8000030517578125</ele>
        <time>2019-11-03T10:47:31.000Z</time>
      </trkpt>
      <trkpt lat="36.85309647582471370697021484375" lon="-5.65027177333831787109375">
        <ele>122.40000152587890625</ele>
        <time>2019-11-03T10:47:34.000Z</time>
      </trkpt>
      <trkpt lat="36.85311801731586456298828125" lon="-5.650533623993396759033203125">
        <ele>121.40000152587890625</ele>
        <time>2019-11-03T10:47:37.000Z</time>
      </trkpt>
      <trkpt lat="36.85314626432955265045166015625" lon="-5.65079815685749053955078125">
        <ele>121</ele>
        <time>2019-11-03T10:47:40.000Z</time>
      </trkpt>
      <trkpt lat="36.85317375697195529937744140625" lon="-5.65106176771223545074462890625">
        <ele>121</ele>
        <time>2019-11-03T10:47:43.000Z</time>
      </trkpt>
      <trkpt lat="36.85320510528981685638427734375" lon="-5.651327557861804962158203125">
        <ele>121.40000152587890625</ele>
        <time>2019-11-03T10:47:46.000Z</time>
      </trkpt>
      <trkpt lat="36.8532412312924861907958984375" lon="-5.6515946052968502044677734375">
        <ele>120.8000030517578125</ele>
        <time>2019-11-03T10:47:49.000Z</time>
      </trkpt>
      <trkpt lat="36.853281296789646148681640625" lon="-5.6518631614744663238525390625">
        <ele>119.40000152587890625</ele>
        <time>2019-11-03T10:47:52.000Z</time>
      </trkpt>
      <trkpt lat="36.85332454741001129150390625" lon="-5.6521276943385601043701171875">
        <ele>119</ele>
        <time>2019-11-03T10:47:55.000Z</time>
      </trkpt>
      <trkpt lat="36.85336955823004245758056640625" lon="-5.65238946117460727691650390625">
        <ele>118.8000030517578125</ele>
        <time>2019-11-03T10:47:58.000Z</time>
      </trkpt>
      <trkpt lat="36.85341666452586650848388671875" lon="-5.65264108590781688690185546875">
        <ele>118</ele>
        <time>2019-11-03T10:48:01.000Z</time>
      </trkpt>
      <trkpt lat="36.85346712358295917510986328125" lon="-5.65288935787975788116455078125">
        <ele>117.40000152587890625</ele>
        <time>2019-11-03T10:48:04.000Z</time>
      </trkpt>
      <trkpt lat="36.853522360324859619140625" lon="-5.653134696185588836669921875">
        <ele>115.8000030517578125</ele>
        <time>2019-11-03T10:48:07.000Z</time>
      </trkpt>
      <trkpt lat="36.8535800278186798095703125" lon="-5.65337441861629486083984375">
        <ele>115</ele>
        <time>2019-11-03T10:48:10.000Z</time>
      </trkpt>
      <trkpt lat="36.85363576747477054595947265625" lon="-5.65360986627638339996337890625">
        <ele>115</ele>
        <time>2019-11-03T10:48:13.000Z</time>
      </trkpt>
      <trkpt lat="36.85369561426341533660888671875" lon="-5.65383098088204860687255859375">
        <ele>115</ele>
        <time>2019-11-03T10:48:16.000Z</time>
      </trkpt>
      <trkpt lat="36.85375059954822063446044921875" lon="-5.654046647250652313232421875">
        <ele>115</ele>
        <time>2019-11-03T10:48:19.000Z</time>
      </trkpt>
      <trkpt lat="36.85383190400898456573486328125" lon="-5.65432702191174030303955078125">
        <ele>115</ele>
        <time>2019-11-03T10:48:23.000Z</time>
      </trkpt>
      <trkpt lat="36.853897869586944580078125" lon="-5.654551573097705841064453125">
        <ele>115</ele>
        <time>2019-11-03T10:48:26.000Z</time>
      </trkpt>
      <trkpt lat="36.8539671041071414947509765625" lon="-5.65476472489535808563232421875">
        <ele>115</ele>
        <time>2019-11-03T10:48:29.000Z</time>
      </trkpt>
      <trkpt lat="36.8540569581091403961181640625" lon="-5.655039735138416290283203125">
        <ele>115.1999969482421875</ele>
        <time>2019-11-03T10:48:33.000Z</time>
      </trkpt>
      <trkpt lat="36.8541370891034603118896484375" lon="-5.65530829131603240966796875">
        <ele>114.59999847412109375</ele>
        <time>2019-11-03T10:48:37.000Z</time>
      </trkpt>
      <trkpt lat="36.85421168804168701171875" lon="-5.65557575784623622894287109375">
        <ele>114.1999969482421875</ele>
        <time>2019-11-03T10:48:41.000Z</time>
      </trkpt>
      <trkpt lat="36.85428888536989688873291015625" lon="-5.65583744086325168609619140625">
        <ele>114</ele>
        <time>2019-11-03T10:48:45.000Z</time>
      </trkpt>
      <trkpt lat="36.85436247847974300384521484375" lon="-5.65609945915639400482177734375">
        <ele>114.8000030517578125</ele>
        <time>2019-11-03T10:48:49.000Z</time>
      </trkpt>
      <trkpt lat="36.854423917829990386962890625" lon="-5.65636399202048778533935546875">
        <ele>115</ele>
        <time>2019-11-03T10:48:53.000Z</time>
      </trkpt>
      <trkpt lat="36.8544753827154636383056640625" lon="-5.6566240824759006500244140625">
        <ele>114.40000152587890625</ele>
        <time>2019-11-03T10:48:57.000Z</time>
      </trkpt>
      <trkpt lat="36.85452206991612911224365234375" lon="-5.6569127552211284637451171875">
        <ele>114</ele>
        <time>2019-11-03T10:49:01.000Z</time>
      </trkpt>
      <trkpt lat="36.85455836355686187744140625" lon="-5.65720000304281711578369140625">
        <ele>113.1999969482421875</ele>
        <time>2019-11-03T10:49:05.000Z</time>
      </trkpt>
      <trkpt lat="36.8545786477625370025634765625" lon="-5.657489933073520660400390625">
        <ele>113</ele>
        <time>2019-11-03T10:49:09.000Z</time>
      </trkpt>
      <trkpt lat="36.85459323227405548095703125" lon="-5.65777081064879894256591796875">
        <ele>113</ele>
        <time>2019-11-03T10:49:13.000Z</time>
      </trkpt>
      <trkpt lat="36.85460102744400501251220703125" lon="-5.65784029662609100341796875">
        <ele>112.8000030517578125</ele>
        <time>2019-11-03T10:49:14.000Z</time>
      </trkpt>
      <trkpt lat="36.854620389640331268310546875" lon="-5.65811212174594402313232421875">
        <ele>112.8000030517578125</ele>
        <time>2019-11-03T10:49:18.000Z</time>
      </trkpt>
      <trkpt lat="36.854604296386241912841796875" lon="-5.6583705358207225799560546875">
        <ele>113.59999847412109375</ele>
        <time>2019-11-03T10:49:22.000Z</time>
      </trkpt>
      <trkpt lat="36.85456104576587677001953125" lon="-5.65861604176461696624755859375">
        <ele>114.8000030517578125</ele>
        <time>2019-11-03T10:49:26.000Z</time>
      </trkpt>
      <trkpt lat="36.85451905243098735809326171875" lon="-5.658859871327877044677734375">
        <ele>115.1999969482421875</ele>
        <time>2019-11-03T10:49:30.000Z</time>
      </trkpt>
      <trkpt lat="36.85447630472481250762939453125" lon="-5.6591081432998180389404296875">
        <ele>114.8000030517578125</ele>
        <time>2019-11-03T10:49:34.000Z</time>
      </trkpt>
      <trkpt lat="36.85442651621997356414794921875" lon="-5.6593619473278522491455078125">
        <ele>114.1999969482421875</ele>
        <time>2019-11-03T10:49:38.000Z</time>
      </trkpt>
      <trkpt lat="36.85436901636421680450439453125" lon="-5.65961432643234729766845703125">
        <ele>113.40000152587890625</ele>
        <time>2019-11-03T10:49:42.000Z</time>
      </trkpt>
      <trkpt lat="36.85429827310144901275634765625" lon="-5.6598651967942714691162109375">
        <ele>113.40000152587890625</ele>
        <time>2019-11-03T10:49:46.000Z</time>
      </trkpt>
      <trkpt lat="36.85421344824135303497314453125" lon="-5.66012361086905002593994140625">
        <ele>114</ele>
        <time>2019-11-03T10:49:50.000Z</time>
      </trkpt>
      <trkpt lat="36.8541176430881023406982421875" lon="-5.66038881428539752960205078125">
        <ele>115.1999969482421875</ele>
        <time>2019-11-03T10:49:54.000Z</time>
      </trkpt>
      <trkpt lat="36.85400624759495258331298828125" lon="-5.66065267659723758697509765625">
        <ele>115.1999969482421875</ele>
        <time>2019-11-03T10:49:58.000Z</time>
      </trkpt>
      <trkpt lat="36.8539141304790973663330078125" lon="-5.6608517467975616455078125">
        <ele>115.1999969482421875</ele>
        <time>2019-11-03T10:50:01.000Z</time>
      </trkpt>
      <trkpt lat="36.8538101948797702789306640625" lon="-5.66105484031140804290771484375">
        <ele>114</ele>
        <time>2019-11-03T10:50:04.000Z</time>
      </trkpt>
      <trkpt lat="36.85369611717760562896728515625" lon="-5.6612626276910305023193359375">
        <ele>113.40000152587890625</ele>
        <time>2019-11-03T10:50:07.000Z</time>
      </trkpt>
      <trkpt lat="36.853573322296142578125" lon="-5.66147007979452610015869140625">
        <ele>112.8000030517578125</ele>
        <time>2019-11-03T10:50:10.000Z</time>
      </trkpt>
      <trkpt lat="36.8534440733492374420166015625" lon="-5.66167778335511684417724609375">
        <ele>113</ele>
        <time>2019-11-03T10:50:13.000Z</time>
      </trkpt>
      <trkpt lat="36.8533079512417316436767578125" lon="-5.6618835590779781341552734375">
        <ele>112.8000030517578125</ele>
        <time>2019-11-03T10:50:16.000Z</time>
      </trkpt>
      <trkpt lat="36.853166632354259490966796875" lon="-5.66209704615175724029541015625">
        <ele>113</ele>
        <time>2019-11-03T10:50:19.000Z</time>
      </trkpt>
      <trkpt lat="36.8530239723622798919677734375" lon="-5.66230617463588714599609375">
        <ele>112.8000030517578125</ele>
        <time>2019-11-03T10:50:22.000Z</time>
      </trkpt>
      <trkpt lat="36.852889358997344970703125" lon="-5.66250541247427463531494140625">
        <ele>112.1999969482421875</ele>
        <time>2019-11-03T10:50:25.000Z</time>
      </trkpt>
      <trkpt lat="36.85276388190686702728271484375" lon="-5.6626962684094905853271484375">
        <ele>111.40000152587890625</ele>
        <time>2019-11-03T10:50:28.000Z</time>
      </trkpt>
      <trkpt lat="36.8526441045105457305908203125" lon="-5.66287404857575893402099609375">
        <ele>110.1999969482421875</ele>
        <time>2019-11-03T10:50:31.000Z</time>
      </trkpt>
      <trkpt lat="36.85250404290854930877685546875" lon="-5.66311460919678211212158203125">
        <ele>108.8000030517578125</ele>
        <time>2019-11-03T10:50:35.000Z</time>
      </trkpt>
      <trkpt lat="36.85238443315029144287109375" lon="-5.66335248760879039764404296875">
        <ele>107.59999847412109375</ele>
        <time>2019-11-03T10:50:39.000Z</time>
      </trkpt>
      <trkpt lat="36.85227320529520511627197265625" lon="-5.66360394470393657684326171875">
        <ele>107.1999969482421875</ele>
        <time>2019-11-03T10:50:43.000Z</time>
      </trkpt>
      <trkpt lat="36.85217932797968387603759765625" lon="-5.663859844207763671875">
        <ele>107.8000030517578125</ele>
        <time>2019-11-03T10:50:47.000Z</time>
      </trkpt>
      <trkpt lat="36.85216055251657962799072265625" lon="-5.663924552500247955322265625">
        <ele>108</ele>
        <time>2019-11-03T10:50:48.000Z</time>
      </trkpt>
      <trkpt lat="36.852093748748302459716796875" lon="-5.664192102849483489990234375">
        <ele>108.1999969482421875</ele>
        <time>2019-11-03T10:50:52.000Z</time>
      </trkpt>
      <trkpt lat="36.85204069130122661590576171875" lon="-5.66446602344512939453125">
        <ele>109</ele>
        <time>2019-11-03T10:50:56.000Z</time>
      </trkpt>
      <trkpt lat="36.85200179927051067352294921875" lon="-5.66475494764745235443115234375">
        <ele>110.40000152587890625</ele>
        <time>2019-11-03T10:51:00.000Z</time>
      </trkpt>
      <trkpt lat="36.85198880732059478759765625" lon="-5.66503289155662059783935546875">
        <ele>109</ele>
        <time>2019-11-03T10:51:04.000Z</time>
      </trkpt>
      <trkpt lat="36.85199559666216373443603515625" lon="-5.66530647687613964080810546875">
        <ele>108</ele>
        <time>2019-11-03T10:51:08.000Z</time>
      </trkpt>
      <trkpt lat="36.85201521031558513641357421875" lon="-5.665575452148914337158203125">
        <ele>106.40000152587890625</ele>
        <time>2019-11-03T10:51:12.000Z</time>
      </trkpt>
      <trkpt lat="36.8520453013479709625244140625" lon="-5.665841661393642425537109375">
        <ele>105.1999969482421875</ele>
        <time>2019-11-03T10:51:16.000Z</time>
      </trkpt>
      <trkpt lat="36.8520939163863658905029296875" lon="-5.66610208712518215179443359375">
        <ele>104</ele>
        <time>2019-11-03T10:51:20.000Z</time>
      </trkpt>
      <trkpt lat="36.8521468900144100189208984375" lon="-5.6663551367819309234619140625">
        <ele>103.59999847412109375</ele>
        <time>2019-11-03T10:51:24.000Z</time>
      </trkpt>
      <trkpt lat="36.8522105924785137176513671875" lon="-5.666598714888095855712890625">
        <ele>103.1999969482421875</ele>
        <time>2019-11-03T10:51:28.000Z</time>
      </trkpt>
      <trkpt lat="36.85227940790355205535888671875" lon="-5.66684321500360965728759765625">
        <ele>103.59999847412109375</ele>
        <time>2019-11-03T10:51:32.000Z</time>
      </trkpt>
      <trkpt lat="36.85234822332859039306640625" lon="-5.66709257662296295166015625">
        <ele>103</ele>
        <time>2019-11-03T10:51:36.000Z</time>
      </trkpt>
      <trkpt lat="36.85242106206715106964111328125" lon="-5.66733975894749164581298828125">
        <ele>102.59999847412109375</ele>
        <time>2019-11-03T10:51:40.000Z</time>
      </trkpt>
      <trkpt lat="36.85249616391956806182861328125" lon="-5.6675829179584980010986328125">
        <ele>103</ele>
        <time>2019-11-03T10:51:44.000Z</time>
      </trkpt>
      <trkpt lat="36.85256975702941417694091796875" lon="-5.6678290106356143951416015625">
        <ele>104</ele>
        <time>2019-11-03T10:51:48.000Z</time>
      </trkpt>
      <trkpt lat="36.8526461161673069000244140625" lon="-5.66808038391172885894775390625">
        <ele>104</ele>
        <time>2019-11-03T10:51:52.000Z</time>
      </trkpt>
      <trkpt lat="36.85272214002907276153564453125" lon="-5.668328739702701568603515625">
        <ele>104.1999969482421875</ele>
        <time>2019-11-03T10:51:56.000Z</time>
      </trkpt>
      <trkpt lat="36.8527963198721408843994140625" lon="-5.668580867350101470947265625">
        <ele>104</ele>
        <time>2019-11-03T10:52:00.000Z</time>
      </trkpt>
      <trkpt lat="36.8528700806200504302978515625" lon="-5.6688294745981693267822265625">
        <ele>104</ele>
        <time>2019-11-03T10:52:04.000Z</time>
      </trkpt>
      <trkpt lat="36.8529404886066913604736328125" lon="-5.66906827501952648162841796875">
        <ele>104</ele>
        <time>2019-11-03T10:52:08.000Z</time>
      </trkpt>
      <trkpt lat="36.8530060350894927978515625" lon="-5.669294334948062896728515625">
        <ele>104.8000030517578125</ele>
        <time>2019-11-03T10:52:12.000Z</time>
      </trkpt>
      <trkpt lat="36.8530685640871524810791015625" lon="-5.6695171259343624114990234375">
        <ele>105</ele>
        <time>2019-11-03T10:52:16.000Z</time>
      </trkpt>
      <trkpt lat="36.853129081428050994873046875" lon="-5.66975424997508525848388671875">
        <ele>105.8000030517578125</ele>
        <time>2019-11-03T10:52:20.000Z</time>
      </trkpt>
      <trkpt lat="36.853181384503841400146484375" lon="-5.66997326910495758056640625">
        <ele>105.8000030517578125</ele>
        <time>2019-11-03T10:52:23.000Z</time>
      </trkpt>
      <trkpt lat="36.85323469340801239013671875" lon="-5.67019765265285968780517578125">
        <ele>105.8000030517578125</ele>
        <time>2019-11-03T10:52:26.000Z</time>
      </trkpt>
      <trkpt lat="36.853295378386974334716796875" lon="-5.67042111419141292572021484375">
        <ele>105.1999969482421875</ele>
        <time>2019-11-03T10:52:29.000Z</time>
      </trkpt>
      <trkpt lat="36.85337659902870655059814453125" lon="-5.6706272251904010772705078125">
        <ele>105</ele>
        <time>2019-11-03T10:52:32.000Z</time>
      </trkpt>
      <trkpt lat="36.85345463454723358154296875" lon="-5.67083132453262805938720703125">
        <ele>104</ele>
        <time>2019-11-03T10:52:35.000Z</time>
      </trkpt>
      <trkpt lat="36.85351406224071979522705078125" lon="-5.67104405723512172698974609375">
        <ele>103.1999969482421875</ele>
        <time>2019-11-03T10:52:38.000Z</time>
      </trkpt>
      <trkpt lat="36.85357927344739437103271484375" lon="-5.67125528119504451751708984375">
        <ele>103</ele>
        <time>2019-11-03T10:52:41.000Z</time>
      </trkpt>
      <trkpt lat="36.8536455743014812469482421875" lon="-5.671480000019073486328125">
        <ele>103.8000030517578125</ele>
        <time>2019-11-03T10:52:44.000Z</time>
      </trkpt>
      <trkpt lat="36.8537114560604095458984375" lon="-5.67171427421271800994873046875">
        <ele>105</ele>
        <time>2019-11-03T10:52:47.000Z</time>
      </trkpt>
      <trkpt lat="36.85378043912351131439208984375" lon="-5.67195542156696319580078125">
        <ele>104.8000030517578125</ele>
        <time>2019-11-03T10:52:50.000Z</time>
      </trkpt>
      <trkpt lat="36.85385428369045257568359375" lon="-5.672204531729221343994140625">
        <ele>104.8000030517578125</ele>
        <time>2019-11-03T10:52:53.000Z</time>
      </trkpt>
      <trkpt lat="36.85392611660063266754150390625" lon="-5.67244970239698886871337890625">
        <ele>105.40000152587890625</ele>
        <time>2019-11-03T10:52:56.000Z</time>
      </trkpt>
      <trkpt lat="36.8540011346340179443359375" lon="-5.67269898019731044769287109375">
        <ele>106.40000152587890625</ele>
        <time>2019-11-03T10:52:59.000Z</time>
      </trkpt>
      <trkpt lat="36.8540770746767520904541015625" lon="-5.67295446060597896575927734375">
        <ele>106.1999969482421875</ele>
        <time>2019-11-03T10:53:02.000Z</time>
      </trkpt>
      <trkpt lat="36.8541444651782512664794921875" lon="-5.67320088855922222137451171875">
        <ele>106.1999969482421875</ele>
        <time>2019-11-03T10:53:05.000Z</time>
      </trkpt>
      <trkpt lat="36.8542081676423549652099609375" lon="-5.67344882525503635406494140625">
        <ele>105.59999847412109375</ele>
        <time>2019-11-03T10:53:08.000Z</time>
      </trkpt>
      <trkpt lat="36.85426541604101657867431640625" lon="-5.67370665259659290313720703125">
        <ele>105</ele>
        <time>2019-11-03T10:53:11.000Z</time>
      </trkpt>
      <trkpt lat="36.85430514626204967498779296875" lon="-5.6739783100783824920654296875">
        <ele>104.59999847412109375</ele>
        <time>2019-11-03T10:53:14.000Z</time>
      </trkpt>
      <trkpt lat="36.85433330945670604705810546875" lon="-5.6742498837411403656005859375">
        <ele>104</ele>
        <time>2019-11-03T10:53:17.000Z</time>
      </trkpt>
      <trkpt lat="36.8543439544737339019775390625" lon="-5.67452975548803806304931640625">
        <ele>104.40000152587890625</ele>
        <time>2019-11-03T10:53:20.000Z</time>
      </trkpt>
      <trkpt lat="36.8543442897498607635498046875" lon="-5.67479177378118038177490234375">
        <ele>105.40000152587890625</ele>
        <time>2019-11-03T10:53:23.000Z</time>
      </trkpt>
      <trkpt lat="36.85432643629610538482666015625" lon="-5.67506100051105022430419921875">
        <ele>106.1999969482421875</ele>
        <time>2019-11-03T10:53:26.000Z</time>
      </trkpt>
      <trkpt lat="36.8543077446520328521728515625" lon="-5.675334669649600982666015625">
        <ele>106.40000152587890625</ele>
        <time>2019-11-03T10:53:29.000Z</time>
      </trkpt>
      <trkpt lat="36.854269690811634063720703125" lon="-5.6756127811968326568603515625">
        <ele>108</ele>
        <time>2019-11-03T10:53:32.000Z</time>
      </trkpt>
      <trkpt lat="36.85421235859394073486328125" lon="-5.675897933542728424072265625">
        <ele>108.59999847412109375</ele>
        <time>2019-11-03T10:53:35.000Z</time>
      </trkpt>
      <trkpt lat="36.85413901694118976593017578125" lon="-5.6761673279106616973876953125">
        <ele>110.59999847412109375</ele>
        <time>2019-11-03T10:53:38.000Z</time>
      </trkpt>
      <trkpt lat="36.8540468998253345489501953125" lon="-5.67641786299645900726318359375">
        <ele>110.59999847412109375</ele>
        <time>2019-11-03T10:53:41.000Z</time>
      </trkpt>
      <trkpt lat="36.85394338332116603851318359375" lon="-5.67665423266589641571044921875">
        <ele>110</ele>
        <time>2019-11-03T10:53:44.000Z</time>
      </trkpt>
      <trkpt lat="36.8538222648203372955322265625" lon="-5.67688607610762119293212890625">
        <ele>111.1999969482421875</ele>
        <time>2019-11-03T10:53:47.000Z</time>
      </trkpt>
      <trkpt lat="36.85368589125573635101318359375" lon="-5.67710937000811100006103515625">
        <ele>112.59999847412109375</ele>
        <time>2019-11-03T10:53:50.000Z</time>
      </trkpt>
      <trkpt lat="36.8535505235195159912109375" lon="-5.67731908522546291351318359375">
        <ele>113.1999969482421875</ele>
        <time>2019-11-03T10:53:53.000Z</time>
      </trkpt>
      <trkpt lat="36.85349813662469387054443359375" lon="-5.67738018929958343505859375">
        <ele>113.1999969482421875</ele>
        <time>2019-11-03T10:53:54.000Z</time>
      </trkpt>
      <trkpt lat="36.8533297441899776458740234375" lon="-5.6775694526731967926025390625">
        <ele>113</ele>
        <time>2019-11-03T10:53:57.000Z</time>
      </trkpt>
      <trkpt lat="36.85315556824207305908203125" lon="-5.67776282317936420440673828125">
        <ele>111.8000030517578125</ele>
        <time>2019-11-03T10:54:00.000Z</time>
      </trkpt>
      <trkpt lat="36.852976866066455841064453125" lon="-5.677968598902225494384765625">
        <ele>111.1999969482421875</ele>
        <time>2019-11-03T10:54:03.000Z</time>
      </trkpt>
      <trkpt lat="36.85281819663941860198974609375" lon="-5.6781615503132343292236328125">
        <ele>111</ele>
        <time>2019-11-03T10:54:06.000Z</time>
      </trkpt>
      <trkpt lat="36.85265290550887584686279296875" lon="-5.67835659720003604888916015625">
        <ele>111.1999969482421875</ele>
        <time>2019-11-03T10:54:09.000Z</time>
      </trkpt>
      <trkpt lat="36.85249440371990203857421875" lon="-5.67854686640202999114990234375">
        <ele>111.59999847412109375</ele>
        <time>2019-11-03T10:54:12.000Z</time>
      </trkpt>
      <trkpt lat="36.852337829768657684326171875" lon="-5.678740404546260833740234375">
        <ele>112.1999969482421875</ele>
        <time>2019-11-03T10:54:15.000Z</time>
      </trkpt>
      <trkpt lat="36.8521763943135738372802734375" lon="-5.67894232459366321563720703125">
        <ele>113</ele>
        <time>2019-11-03T10:54:18.000Z</time>
      </trkpt>
      <trkpt lat="36.85201252810657024383544921875" lon="-5.67914164625108242034912109375">
        <ele>113.59999847412109375</ele>
        <time>2019-11-03T10:54:21.000Z</time>
      </trkpt>
      <trkpt lat="36.85185025446116924285888671875" lon="-5.6793262995779514312744140625">
        <ele>113.8000030517578125</ele>
        <time>2019-11-03T10:54:24.000Z</time>
      </trkpt>
      <trkpt lat="36.851673983037471771240234375" lon="-5.67949770949780941009521484375">
        <ele>113.59999847412109375</ele>
        <time>2019-11-03T10:54:27.000Z</time>
      </trkpt>
      <trkpt lat="36.85149016790091991424560546875" lon="-5.6796622462570667266845703125">
        <ele>113</ele>
        <time>2019-11-03T10:54:30.000Z</time>
      </trkpt>
      <trkpt lat="36.85129503719508647918701171875" lon="-5.67981521598994731903076171875">
        <ele>111.59999847412109375</ele>
        <time>2019-11-03T10:54:33.000Z</time>
      </trkpt>
      <trkpt lat="36.85109169222414493560791015625" lon="-5.67995988763868808746337890625">
        <ele>111</ele>
        <time>2019-11-03T10:54:36.000Z</time>
      </trkpt>
      <trkpt lat="36.85088164173066616058349609375" lon="-5.68010070361196994781494140625">
        <ele>111.1999969482421875</ele>
        <time>2019-11-03T10:54:39.000Z</time>
      </trkpt>
      <trkpt lat="36.85067712329328060150146484375" lon="-5.6802359037101268768310546875">
        <ele>111.40000152587890625</ele>
        <time>2019-11-03T10:54:42.000Z</time>
      </trkpt>
      <trkpt lat="36.85048266313970088958740234375" lon="-5.68036942742764949798583984375">
        <ele>111</ele>
        <time>2019-11-03T10:54:45.000Z</time>
      </trkpt>
      <trkpt lat="36.85028962790966033935546875" lon="-5.6804933957755565643310546875">
        <ele>110</ele>
        <time>2019-11-03T10:54:48.000Z</time>
      </trkpt>
      <trkpt lat="36.8501079082489013671875" lon="-5.6806194595992565155029296875">
        <ele>109.1999969482421875</ele>
        <time>2019-11-03T10:54:51.000Z</time>
      </trkpt>
      <trkpt lat="36.84993213973939418792724609375" lon="-5.68073538132011890411376953125">
        <ele>109.40000152587890625</ele>
        <time>2019-11-03T10:54:54.000Z</time>
      </trkpt>
      <trkpt lat="36.84976215474307537078857421875" lon="-5.68084937520325183868408203125">
        <ele>109.8000030517578125</ele>
        <time>2019-11-03T10:54:57.000Z</time>
      </trkpt>
      <trkpt lat="36.84959820471704006195068359375" lon="-5.68096588365733623504638671875">
        <ele>110.59999847412109375</ele>
        <time>2019-11-03T10:55:00.000Z</time>
      </trkpt>
      <trkpt lat="36.84942654334008693695068359375" lon="-5.68109446205198764801025390625">
        <ele>111.59999847412109375</ele>
        <time>2019-11-03T10:55:03.000Z</time>
      </trkpt>
      <trkpt lat="36.84923954308032989501953125" lon="-5.68124416284263134002685546875">
        <ele>112.59999847412109375</ele>
        <time>2019-11-03T10:55:06.000Z</time>
      </trkpt>
      <trkpt lat="36.8490524590015411376953125" lon="-5.68141096271574497222900390625">
        <ele>113</ele>
        <time>2019-11-03T10:55:09.000Z</time>
      </trkpt>
      <trkpt lat="36.84886529110372066497802734375" lon="-5.68159796297550201416015625">
        <ele>112.59999847412109375</ele>
        <time>2019-11-03T10:55:12.000Z</time>
      </trkpt>
      <trkpt lat="36.84867586009204387664794921875" lon="-5.68180709145963191986083984375">
        <ele>112.40000152587890625</ele>
        <time>2019-11-03T10:55:15.000Z</time>
      </trkpt>
      <trkpt lat="36.84850151650607585906982421875" lon="-5.682021416723728179931640625">
        <ele>113.1999969482421875</ele>
        <time>2019-11-03T10:55:18.000Z</time>
      </trkpt>
      <trkpt lat="36.8483408354222774505615234375" lon="-5.68222601898014545440673828125">
        <ele>114.40000152587890625</ele>
        <time>2019-11-03T10:55:21.000Z</time>
      </trkpt>
      <trkpt lat="36.84817663393914699554443359375" lon="-5.6824289448559284210205078125">
        <ele>114.59999847412109375</ele>
        <time>2019-11-03T10:55:24.000Z</time>
      </trkpt>
      <trkpt lat="36.84801653958857059478759765625" lon="-5.682632289826869964599609375">
        <ele>114.59999847412109375</ele>
        <time>2019-11-03T10:55:27.000Z</time>
      </trkpt>
      <trkpt lat="36.8478550203144550323486328125" lon="-5.68284108303487300872802734375">
        <ele>114</ele>
        <time>2019-11-03T10:55:30.000Z</time>
      </trkpt>
      <trkpt lat="36.84769132174551486968994140625" lon="-5.6830522231757640838623046875">
        <ele>114</ele>
        <time>2019-11-03T10:55:33.000Z</time>
      </trkpt>
      <trkpt lat="36.8475328199565410614013671875" lon="-5.68326118402183055877685546875">
        <ele>114.40000152587890625</ele>
        <time>2019-11-03T10:55:36.000Z</time>
      </trkpt>
      <trkpt lat="36.847376413643360137939453125" lon="-5.683461762964725494384765625">
        <ele>114.40000152587890625</ele>
        <time>2019-11-03T10:55:39.000Z</time>
      </trkpt>
      <trkpt lat="36.84722159989178180694580078125" lon="-5.68366116844117641448974609375">
        <ele>114.1999969482421875</ele>
        <time>2019-11-03T10:55:42.000Z</time>
      </trkpt>
      <trkpt lat="36.84707592241466045379638671875" lon="-5.6838651001453399658203125">
        <ele>114</ele>
        <time>2019-11-03T10:55:45.000Z</time>
      </trkpt>
      <trkpt lat="36.8469427339732646942138671875" lon="-5.68406668491661548614501953125">
        <ele>113.1999969482421875</ele>
        <time>2019-11-03T10:55:48.000Z</time>
      </trkpt>
      <trkpt lat="36.8468203581869602203369140625" lon="-5.68427857942879199981689453125">
        <ele>112.40000152587890625</ele>
        <time>2019-11-03T10:55:51.000Z</time>
      </trkpt>
      <trkpt lat="36.8467167578637599945068359375" lon="-5.68448661826550960540771484375">
        <ele>111.8000030517578125</ele>
        <time>2019-11-03T10:55:54.000Z</time>
      </trkpt>
      <trkpt lat="36.84662933461368083953857421875" lon="-5.68468543700873851776123046875">
        <ele>111.59999847412109375</ele>
        <time>2019-11-03T10:55:57.000Z</time>
      </trkpt>
      <trkpt lat="36.8465263210237026214599609375" lon="-5.68493572063744068145751953125">
        <ele>111.8000030517578125</ele>
        <time>2019-11-03T10:56:01.000Z</time>
      </trkpt>
      <trkpt lat="36.84642917476594448089599609375" lon="-5.6851631216704845428466796875">
        <ele>112.59999847412109375</ele>
        <time>2019-11-03T10:56:05.000Z</time>
      </trkpt>
      <trkpt lat="36.84633865021169185638427734375" lon="-5.6853917799890041351318359375">
        <ele>113.59999847412109375</ele>
        <time>2019-11-03T10:56:09.000Z</time>
      </trkpt>
      <trkpt lat="36.846254579722881317138671875" lon="-5.68560912273824214935302734375">
        <ele>114.40000152587890625</ele>
        <time>2019-11-03T10:56:13.000Z</time>
      </trkpt>
      <trkpt lat="36.8461705930531024932861328125" lon="-5.68582202307879924774169921875">
        <ele>114.40000152587890625</ele>
        <time>2019-11-03T10:56:17.000Z</time>
      </trkpt>
      <trkpt lat="36.8460904620587825775146484375" lon="-5.68603324703872203826904296875">
        <ele>114.1999969482421875</ele>
        <time>2019-11-03T10:56:21.000Z</time>
      </trkpt>
      <trkpt lat="36.84600203298032283782958984375" lon="-5.68623810075223445892333984375">
        <ele>113.59999847412109375</ele>
        <time>2019-11-03T10:56:25.000Z</time>
      </trkpt>
      <trkpt lat="36.8459037132561206817626953125" lon="-5.6864743866026401519775390625">
        <ele>113</ele>
        <time>2019-11-03T10:56:30.000Z</time>
      </trkpt>
      <trkpt lat="36.8458084948360919952392578125" lon="-5.68672140128910541534423828125">
        <ele>113.59999847412109375</ele>
        <time>2019-11-03T10:56:35.000Z</time>
      </trkpt>
      <trkpt lat="36.8457276932895183563232421875" lon="-5.6869229860603809356689453125">
        <ele>114</ele>
        <time>2019-11-03T10:56:39.000Z</time>
      </trkpt>
      <trkpt lat="36.84564362280070781707763671875" lon="-5.68713781423866748809814453125">
        <ele>114.40000152587890625</ele>
        <time>2019-11-03T10:56:43.000Z</time>
      </trkpt>
      <trkpt lat="36.8455533497035503387451171875" lon="-5.6873467750847339630126953125">
        <ele>115</ele>
        <time>2019-11-03T10:56:47.000Z</time>
      </trkpt>
      <trkpt lat="36.84546575881540775299072265625" lon="-5.68754986859858036041259765625">
        <ele>115.59999847412109375</ele>
        <time>2019-11-03T10:56:51.000Z</time>
      </trkpt>
      <trkpt lat="36.8453790061175823211669921875" lon="-5.6877584941685199737548828125">
        <ele>115.8000030517578125</ele>
        <time>2019-11-03T10:56:55.000Z</time>
      </trkpt>
      <trkpt lat="36.845291666686534881591796875" lon="-5.68796686828136444091796875">
        <ele>116</ele>
        <time>2019-11-03T10:56:59.000Z</time>
      </trkpt>
      <trkpt lat="36.84519686736166477203369140625" lon="-5.68818471394479274749755859375">
        <ele>115.8000030517578125</ele>
        <time>2019-11-03T10:57:03.000Z</time>
      </trkpt>
      <trkpt lat="36.84510299004614353179931640625" lon="-5.688400380313396453857421875">
        <ele>115</ele>
        <time>2019-11-03T10:57:07.000Z</time>
      </trkpt>
      <trkpt lat="36.84500810690224170684814453125" lon="-5.68862669169902801513671875">
        <ele>114.59999847412109375</ele>
        <time>2019-11-03T10:57:11.000Z</time>
      </trkpt>
      <trkpt lat="36.84491288848221302032470703125" lon="-5.68885308690369129180908203125">
        <ele>114.40000152587890625</ele>
        <time>2019-11-03T10:57:15.000Z</time>
      </trkpt>
      <trkpt lat="36.84482471086084842681884765625" lon="-5.689061544835567474365234375">
        <ele>114</ele>
        <time>2019-11-03T10:57:19.000Z</time>
      </trkpt>
      <trkpt lat="36.84472412802278995513916015625" lon="-5.6892967410385608673095703125">
        <ele>113.59999847412109375</ele>
        <time>2019-11-03T10:57:24.000Z</time>
      </trkpt>
      <trkpt lat="36.84462019242346286773681640625" lon="-5.68953503854572772979736328125">
        <ele>113.1999969482421875</ele>
        <time>2019-11-03T10:57:29.000Z</time>
      </trkpt>
      <trkpt lat="36.84453587047755718231201171875" lon="-5.68973670713603496551513671875">
        <ele>113</ele>
        <time>2019-11-03T10:57:33.000Z</time>
      </trkpt>
      <trkpt lat="36.8444578349590301513671875" lon="-5.689938962459564208984375">
        <ele>113.1999969482421875</ele>
        <time>2019-11-03T10:57:37.000Z</time>
      </trkpt>
      <trkpt lat="36.8443621136248111724853515625" lon="-5.6901835463941097259521484375">
        <ele>113.40000152587890625</ele>
        <time>2019-11-03T10:57:42.000Z</time>
      </trkpt>
      <trkpt lat="36.8442662246525287628173828125" lon="-5.69041999988257884979248046875">
        <ele>113.40000152587890625</ele>
        <time>2019-11-03T10:57:47.000Z</time>
      </trkpt>
      <trkpt lat="36.84416069649159908294677734375" lon="-5.69065670482814311981201171875">
        <ele>113.59999847412109375</ele>
        <time>2019-11-03T10:57:52.000Z</time>
      </trkpt>
      <trkpt lat="36.8440489657223224639892578125" lon="-5.6908978521823883056640625">
        <ele>113.1999969482421875</ele>
        <time>2019-11-03T10:57:57.000Z</time>
      </trkpt>
      <trkpt lat="36.84396288357675075531005859375" lon="-5.69109742529690265655517578125">
        <ele>113.8000030517578125</ele>
        <time>2019-11-03T10:58:01.000Z</time>
      </trkpt>
      <trkpt lat="36.84387269429862499237060546875" lon="-5.69129758514463901519775390625">
        <ele>114.40000152587890625</ele>
        <time>2019-11-03T10:58:05.000Z</time>
      </trkpt>
      <trkpt lat="36.8437872827053070068359375" lon="-5.691496320068836212158203125">
        <ele>115.1999969482421875</ele>
        <time>2019-11-03T10:58:09.000Z</time>
      </trkpt>
      <trkpt lat="36.843719221651554107666015625" lon="-5.69164208136498928070068359375">
        <ele>115.8000030517578125</ele>
        <time>2019-11-03T10:58:12.000Z</time>
      </trkpt>
      <trkpt lat="36.84362643398344516754150390625" lon="-5.6918552331626415252685546875">
        <ele>116.40000152587890625</ele>
        <time>2019-11-03T10:58:16.000Z</time>
      </trkpt>
      <trkpt lat="36.8435418605804443359375" lon="-5.69206050597131252288818359375">
        <ele>117</ele>
        <time>2019-11-03T10:58:20.000Z</time>
      </trkpt>
      <trkpt lat="36.84350430965423583984375" lon="-5.69216310046613216400146484375">
        <ele>117</ele>
        <time>2019-11-03T10:58:22.000Z</time>
      </trkpt>
      <trkpt lat="36.8434305489063262939453125" lon="-5.6923695467412471771240234375">
        <ele>116.59999847412109375</ele>
        <time>2019-11-03T10:58:26.000Z</time>
      </trkpt>
      <trkpt lat="36.84340573847293853759765625" lon="-5.6924174912273883819580078125">
        <ele>116.40000152587890625</ele>
        <time>2019-11-03T10:58:27.000Z</time>
      </trkpt>
      <trkpt lat="36.8433163873851299285888671875" lon="-5.692620836198329925537109375">
        <ele>115.40000152587890625</ele>
        <time>2019-11-03T10:58:31.000Z</time>
      </trkpt>
      <trkpt lat="36.843229047954082489013671875" lon="-5.6928221695125102996826171875">
        <ele>114</ele>
        <time>2019-11-03T10:58:35.000Z</time>
      </trkpt>
      <trkpt lat="36.84313726611435413360595703125" lon="-5.6930357404053211212158203125">
        <ele>114</ele>
        <time>2019-11-03T10:58:39.000Z</time>
      </trkpt>
      <trkpt lat="36.84303819201886653900146484375" lon="-5.693251155316829681396484375">
        <ele>114</ele>
        <time>2019-11-03T10:58:43.000Z</time>
      </trkpt>
      <trkpt lat="36.842942722141742706298828125" lon="-5.6934752874076366424560546875">
        <ele>113.59999847412109375</ele>
        <time>2019-11-03T10:58:47.000Z</time>
      </trkpt>
      <trkpt lat="36.842842809855937957763671875" lon="-5.6936908699572086334228515625">
        <ele>113</ele>
        <time>2019-11-03T10:58:51.000Z</time>
      </trkpt>
      <trkpt lat="36.8427492678165435791015625" lon="-5.69390804506838321685791015625">
        <ele>113</ele>
        <time>2019-11-03T10:58:55.000Z</time>
      </trkpt>
      <trkpt lat="36.84265346266329288482666015625" lon="-5.69413234479725360870361328125">
        <ele>113.59999847412109375</ele>
        <time>2019-11-03T10:58:59.000Z</time>
      </trkpt>
      <trkpt lat="36.84255120344460010528564453125" lon="-5.69434843026101589202880859375">
        <ele>114.40000152587890625</ele>
        <time>2019-11-03T10:59:03.000Z</time>
      </trkpt>
      <trkpt lat="36.84245950542390346527099609375" lon="-5.6945558823645114898681640625">
        <ele>114.59999847412109375</ele>
        <time>2019-11-03T10:59:07.000Z</time>
      </trkpt>
      <trkpt lat="36.84237183071672916412353515625" lon="-5.69476366974413394927978515625">
        <ele>114.1999969482421875</ele>
        <time>2019-11-03T10:59:11.000Z</time>
      </trkpt>
      <trkpt lat="36.84228046797215938568115234375" lon="-5.694975145161151885986328125">
        <ele>113.1999969482421875</ele>
        <time>2019-11-03T10:59:15.000Z</time>
      </trkpt>
      <trkpt lat="36.8421875126659870147705078125" lon="-5.6951979361474514007568359375">
        <ele>112.40000152587890625</ele>
        <time>2019-11-03T10:59:19.000Z</time>
      </trkpt>
      <trkpt lat="36.8420852534472942352294921875" lon="-5.6954265944659709930419921875">
        <ele>111.8000030517578125</ele>
        <time>2019-11-03T10:59:23.000Z</time>
      </trkpt>
      <trkpt lat="36.84198961593210697174072265625" lon="-5.6956555880606174468994140625">
        <ele>112.1999969482421875</ele>
        <time>2019-11-03T10:59:27.000Z</time>
      </trkpt>
      <trkpt lat="36.841889955103397369384765625" lon="-5.6958760321140289306640625">
        <ele>112.59999847412109375</ele>
        <time>2019-11-03T10:59:31.000Z</time>
      </trkpt>
      <trkpt lat="36.841794736683368682861328125" lon="-5.6960981525480747222900390625">
        <ele>112.8000030517578125</ele>
        <time>2019-11-03T10:59:35.000Z</time>
      </trkpt>
      <trkpt lat="36.84169775806367397308349609375" lon="-5.696309544146060943603515625">
        <ele>113.59999847412109375</ele>
        <time>2019-11-03T10:59:39.000Z</time>
      </trkpt>
      <trkpt lat="36.8416007794439792633056640625" lon="-5.69652806036174297332763671875">
        <ele>114</ele>
        <time>2019-11-03T10:59:43.000Z</time>
      </trkpt>
      <trkpt lat="36.84149893932044506072998046875" lon="-5.69675688631832599639892578125">
        <ele>114</ele>
        <time>2019-11-03T10:59:47.000Z</time>
      </trkpt>
      <trkpt lat="36.841398440301418304443359375" lon="-5.69699057377874851226806640625">
        <ele>113.59999847412109375</ele>
        <time>2019-11-03T10:59:51.000Z</time>
      </trkpt>
      <trkpt lat="36.841303221881389617919921875" lon="-5.697232224047183990478515625">
        <ele>112.59999847412109375</ele>
        <time>2019-11-03T10:59:55.000Z</time>
      </trkpt>
      <trkpt lat="36.84120909310877323150634765625" lon="-5.6974751316010951995849609375">
        <ele>112</ele>
        <time>2019-11-03T10:59:59.000Z</time>
      </trkpt>
      <trkpt lat="36.841112785041332244873046875" lon="-5.6977093219757080078125">
        <ele>112.59999847412109375</ele>
        <time>2019-11-03T11:00:03.000Z</time>
      </trkpt>
      <trkpt lat="36.8410165607929229736328125" lon="-5.697934627532958984375">
        <ele>113</ele>
        <time>2019-11-03T11:00:07.000Z</time>
      </trkpt>
      <trkpt lat="36.8409282155334949493408203125" lon="-5.69815984927117824554443359375">
        <ele>113</ele>
        <time>2019-11-03T11:00:11.000Z</time>
      </trkpt>
      <trkpt lat="36.8408433906733989715576171875" lon="-5.698383562266826629638671875">
        <ele>113</ele>
        <time>2019-11-03T11:00:15.000Z</time>
      </trkpt>
      <trkpt lat="36.84074004180729389190673828125" lon="-5.6986107118427753448486328125">
        <ele>112.8000030517578125</ele>
        <time>2019-11-03T11:00:19.000Z</time>
      </trkpt>
      <trkpt lat="36.8406435661017894744873046875" lon="-5.69883811287581920623779296875">
        <ele>112.40000152587890625</ele>
        <time>2019-11-03T11:00:23.000Z</time>
      </trkpt>
      <trkpt lat="36.8405579030513763427734375" lon="-5.699057467281818389892578125">
        <ele>112</ele>
        <time>2019-11-03T11:00:27.000Z</time>
      </trkpt>
      <trkpt lat="36.84047617949545383453369140625" lon="-5.699284113943576812744140625">
        <ele>112</ele>
        <time>2019-11-03T11:00:31.000Z</time>
      </trkpt>
      <trkpt lat="36.8404018320143222808837890625" lon="-5.69952241145074367523193359375">
        <ele>112</ele>
        <time>2019-11-03T11:00:35.000Z</time>
      </trkpt>
      <trkpt lat="36.84032815508544445037841796875" lon="-5.69977286271750926971435546875">
        <ele>112</ele>
        <time>2019-11-03T11:00:39.000Z</time>
      </trkpt>
      <trkpt lat="36.8402677215635776519775390625" lon="-5.7000346295535564422607421875">
        <ele>111.40000152587890625</ele>
        <time>2019-11-03T11:00:43.000Z</time>
      </trkpt>
      <trkpt lat="36.84022271074354648590087890625" lon="-5.70030678994953632354736328125">
        <ele>112</ele>
        <time>2019-11-03T11:00:47.000Z</time>
      </trkpt>
      <trkpt lat="36.84019655920565128326416015625" lon="-5.70058674551546573638916015625">
        <ele>113.59999847412109375</ele>
        <time>2019-11-03T11:00:51.000Z</time>
      </trkpt>
      <trkpt lat="36.8401798792183399200439453125" lon="-5.7008635997772216796875">
        <ele>114.59999847412109375</ele>
        <time>2019-11-03T11:00:55.000Z</time>
      </trkpt>
      <trkpt lat="36.840184070169925689697265625" lon="-5.70114430971443653106689453125">
        <ele>113.8000030517578125</ele>
        <time>2019-11-03T11:00:59.000Z</time>
      </trkpt>
      <trkpt lat="36.8402010016143321990966796875" lon="-5.70142225362360477447509765625">
        <ele>113.59999847412109375</ele>
        <time>2019-11-03T11:01:03.000Z</time>
      </trkpt>
      <trkpt lat="36.84024274349212646484375" lon="-5.70170170627534389495849609375">
        <ele>113.40000152587890625</ele>
        <time>2019-11-03T11:01:07.000Z</time>
      </trkpt>
      <trkpt lat="36.840261854231357574462890625" lon="-5.7017715275287628173828125">
        <ele>113.40000152587890625</ele>
        <time>2019-11-03T11:01:08.000Z</time>
      </trkpt>
      <trkpt lat="36.8403518758714199066162109375" lon="-5.70204838179051876068115234375">
        <ele>112.8000030517578125</ele>
        <time>2019-11-03T11:01:12.000Z</time>
      </trkpt>
      <trkpt lat="36.840420104563236236572265625" lon="-5.70231861434876918792724609375">
        <ele>111</ele>
        <time>2019-11-03T11:01:16.000Z</time>
      </trkpt>
      <trkpt lat="36.84044994413852691650390625" lon="-5.702445767819881439208984375">
        <ele>111</ele>
        <time>2019-11-03T11:01:18.000Z</time>
      </trkpt>
      <trkpt lat="36.84050283394753932952880859375" lon="-5.70268758572638034820556640625">
        <ele>110.59999847412109375</ele>
        <time>2019-11-03T11:01:22.000Z</time>
      </trkpt>
      <trkpt lat="36.84053217060863971710205078125" lon="-5.70279621519148349761962890625">
        <ele>110.59999847412109375</ele>
        <time>2019-11-03T11:01:24.000Z</time>
      </trkpt>
      <trkpt lat="36.84060760773718357086181640625" lon="-5.70306477136909961700439453125">
        <ele>110</ele>
        <time>2019-11-03T11:01:29.000Z</time>
      </trkpt>
      <trkpt lat="36.8406770937144756317138671875" lon="-5.70330910384654998779296875">
        <ele>110.1999969482421875</ele>
        <time>2019-11-03T11:01:33.000Z</time>
      </trkpt>
      <trkpt lat="36.84075093828141689300537109375" lon="-5.703551508486270904541015625">
        <ele>110.8000030517578125</ele>
        <time>2019-11-03T11:01:37.000Z</time>
      </trkpt>
      <trkpt lat="36.84081564657390117645263671875" lon="-5.70379818789660930633544921875">
        <ele>110.40000152587890625</ele>
        <time>2019-11-03T11:01:41.000Z</time>
      </trkpt>
      <trkpt lat="36.84087599627673625946044921875" lon="-5.70404461584985256195068359375">
        <ele>109.1999969482421875</ele>
        <time>2019-11-03T11:01:45.000Z</time>
      </trkpt>
      <trkpt lat="36.8409322388470172882080078125" lon="-5.704284422099590301513671875">
        <ele>109</ele>
        <time>2019-11-03T11:01:49.000Z</time>
      </trkpt>
      <trkpt lat="36.84098093770444393157958984375" lon="-5.704525820910930633544921875">
        <ele>109</ele>
        <time>2019-11-03T11:01:53.000Z</time>
      </trkpt>
      <trkpt lat="36.8410160578787326812744140625" lon="-5.70476026274263858795166015625">
        <ele>108</ele>
        <time>2019-11-03T11:01:57.000Z</time>
      </trkpt>
      <trkpt lat="36.841039694845676422119140625" lon="-5.70499126799404621124267578125">
        <ele>107.40000152587890625</ele>
        <time>2019-11-03T11:02:01.000Z</time>
      </trkpt>
      <trkpt lat="36.84105134569108486175537109375" lon="-5.7052206806838512420654296875">
        <ele>106.8000030517578125</ele>
        <time>2019-11-03T11:02:05.000Z</time>
      </trkpt>
      <trkpt lat="36.84105520136654376983642578125" lon="-5.70549300871789455413818359375">
        <ele>105.8000030517578125</ele>
        <time>2019-11-03T11:02:10.000Z</time>
      </trkpt>
      <trkpt lat="36.84104782529175281524658203125" lon="-5.70571999065577983856201171875">
        <ele>105</ele>
        <time>2019-11-03T11:02:14.000Z</time>
      </trkpt>
      <trkpt lat="36.8410331569612026214599609375" lon="-5.70595636032521724700927734375">
        <ele>104.40000152587890625</ele>
        <time>2019-11-03T11:02:18.000Z</time>
      </trkpt>
      <trkpt lat="36.84102033264935016632080078125" lon="-5.70619675330817699432373046875">
        <ele>104.40000152587890625</ele>
        <time>2019-11-03T11:02:22.000Z</time>
      </trkpt>
      <trkpt lat="36.84099937789142131805419921875" lon="-5.706441588699817657470703125">
        <ele>104.1999969482421875</ele>
        <time>2019-11-03T11:02:26.000Z</time>
      </trkpt>
      <trkpt lat="36.8409825302660465240478515625" lon="-5.70669882930815219879150390625">
        <ele>104</ele>
        <time>2019-11-03T11:02:30.000Z</time>
      </trkpt>
      <trkpt lat="36.84097087942063808441162109375" lon="-5.70695933885872364044189453125">
        <ele>103.1999969482421875</ele>
        <time>2019-11-03T11:02:34.000Z</time>
      </trkpt>
      <trkpt lat="36.84095310978591442108154296875" lon="-5.70722378790378570556640625">
        <ele>102.1999969482421875</ele>
        <time>2019-11-03T11:02:38.000Z</time>
      </trkpt>
      <trkpt lat="36.8409349210560321807861328125" lon="-5.70749041624367237091064453125">
        <ele>101.1999969482421875</ele>
        <time>2019-11-03T11:02:42.000Z</time>
      </trkpt>
      <trkpt lat="36.84091354720294475555419921875" lon="-5.7077567093074321746826171875">
        <ele>101</ele>
        <time>2019-11-03T11:02:46.000Z</time>
      </trkpt>
      <trkpt lat="36.84089695103466510772705078125" lon="-5.7080249302089214324951171875">
        <ele>101.59999847412109375</ele>
        <time>2019-11-03T11:02:50.000Z</time>
      </trkpt>
      <trkpt lat="36.840886808931827545166015625" lon="-5.7082921452820301055908203125">
        <ele>102.40000152587890625</ele>
        <time>2019-11-03T11:02:54.000Z</time>
      </trkpt>
      <trkpt lat="36.84086644090712070465087890625" lon="-5.70855760015547275543212890625">
        <ele>102.8000030517578125</ele>
        <time>2019-11-03T11:02:58.000Z</time>
      </trkpt>
      <trkpt lat="36.84084364213049411773681640625" lon="-5.70881576277315616607666015625">
        <ele>102.59999847412109375</ele>
        <time>2019-11-03T11:03:02.000Z</time>
      </trkpt>
      <trkpt lat="36.8408252857625484466552734375" lon="-5.70906906388700008392333984375">
        <ele>102.59999847412109375</ele>
        <time>2019-11-03T11:03:06.000Z</time>
      </trkpt>
      <trkpt lat="36.84080793522298336029052734375" lon="-5.7093271426856517791748046875">
        <ele>102.59999847412109375</ele>
        <time>2019-11-03T11:03:10.000Z</time>
      </trkpt>
      <trkpt lat="36.840790249407291412353515625" lon="-5.70958941243588924407958984375">
        <ele>103.40000152587890625</ele>
        <time>2019-11-03T11:03:14.000Z</time>
      </trkpt>
      <trkpt lat="36.84077180922031402587890625" lon="-5.709846317768096923828125">
        <ele>104</ele>
        <time>2019-11-03T11:03:18.000Z</time>
      </trkpt>
      <trkpt lat="36.840752698481082916259765625" lon="-5.71009241044521331787109375">
        <ele>105.40000152587890625</ele>
        <time>2019-11-03T11:03:22.000Z</time>
      </trkpt>
      <trkpt lat="36.84073870070278644561767578125" lon="-5.71033305488526821136474609375">
        <ele>107.59999847412109375</ele>
        <time>2019-11-03T11:03:26.000Z</time>
      </trkpt>
      <trkpt lat="36.84072931297123432159423828125" lon="-5.71045962162315845489501953125">
        <ele>109</ele>
        <time>2019-11-03T11:03:28.000Z</time>
      </trkpt>
      <trkpt lat="36.840709112584590911865234375" lon="-5.71070118807256221771240234375">
        <ele>110.8000030517578125</ele>
        <time>2019-11-03T11:03:32.000Z</time>
      </trkpt>
      <trkpt lat="36.8406848050653934478759765625" lon="-5.71093319915235042572021484375">
        <ele>111.8000030517578125</ele>
        <time>2019-11-03T11:03:36.000Z</time>
      </trkpt>
      <trkpt lat="36.84065404348075389862060546875" lon="-5.71115783415734767913818359375">
        <ele>112</ele>
        <time>2019-11-03T11:03:40.000Z</time>
      </trkpt>
      <trkpt lat="36.84063627384603023529052734375" lon="-5.71126453578472137451171875">
        <ele>111.8000030517578125</ele>
        <time>2019-11-03T11:03:42.000Z</time>
      </trkpt>
      <trkpt lat="36.84057642705738544464111328125" lon="-5.71152546443045139312744140625">
        <ele>111</ele>
        <time>2019-11-03T11:03:47.000Z</time>
      </trkpt>
      <trkpt lat="36.84049847535789012908935546875" lon="-5.71177792735397815704345703125">
        <ele>111.1999969482421875</ele>
        <time>2019-11-03T11:03:52.000Z</time>
      </trkpt>
      <trkpt lat="36.84041214175522327423095703125" lon="-5.71202988736331462860107421875">
        <ele>110</ele>
        <time>2019-11-03T11:03:57.000Z</time>
      </trkpt>
      <trkpt lat="36.84031474404036998748779296875" lon="-5.71226977743208408355712890625">
        <ele>109</ele>
        <time>2019-11-03T11:04:02.000Z</time>
      </trkpt>
      <trkpt lat="36.84022220782935619354248046875" lon="-5.71246306411921977996826171875">
        <ele>109</ele>
        <time>2019-11-03T11:04:06.000Z</time>
      </trkpt>
      <trkpt lat="36.8401208706200122833251953125" lon="-5.71265584789216518402099609375">
        <ele>109</ele>
        <time>2019-11-03T11:04:10.000Z</time>
      </trkpt>
      <trkpt lat="36.8400119058787822723388671875" lon="-5.71284997276961803436279296875">
        <ele>108.8000030517578125</ele>
        <time>2019-11-03T11:04:14.000Z</time>
      </trkpt>
      <trkpt lat="36.839885003864765167236328125" lon="-5.7130421698093414306640625">
        <ele>108.1999969482421875</ele>
        <time>2019-11-03T11:04:18.000Z</time>
      </trkpt>
      <trkpt lat="36.8397547490894794464111328125" lon="-5.71323595941066741943359375">
        <ele>108.40000152587890625</ele>
        <time>2019-11-03T11:04:22.000Z</time>
      </trkpt>
      <trkpt lat="36.83962994255125522613525390625" lon="-5.713432095944881439208984375">
        <ele>109</ele>
        <time>2019-11-03T11:04:26.000Z</time>
      </trkpt>
      <trkpt lat="36.839505471289157867431640625" lon="-5.7136243768036365509033203125">
        <ele>109.59999847412109375</ele>
        <time>2019-11-03T11:04:30.000Z</time>
      </trkpt>
      <trkpt lat="36.839386112987995147705078125" lon="-5.7138255424797534942626953125">
        <ele>110</ele>
        <time>2019-11-03T11:04:34.000Z</time>
      </trkpt>
      <trkpt lat="36.8392618931829929351806640625" lon="-5.71402008645236492156982421875">
        <ele>110</ele>
        <time>2019-11-03T11:04:38.000Z</time>
      </trkpt>
      <trkpt lat="36.839135996997356414794921875" lon="-5.7142258621752262115478515625">
        <ele>110</ele>
        <time>2019-11-03T11:04:42.000Z</time>
      </trkpt>
      <trkpt lat="36.8390101008117198944091796875" lon="-5.7144219987094402313232421875">
        <ele>110</ele>
        <time>2019-11-03T11:04:46.000Z</time>
      </trkpt>
      <trkpt lat="36.83888621628284454345703125" lon="-5.7146201469004154205322265625">
        <ele>110.40000152587890625</ele>
        <time>2019-11-03T11:04:50.000Z</time>
      </trkpt>
      <trkpt lat="36.83875872753560543060302734375" lon="-5.7148204743862152099609375">
        <ele>111</ele>
        <time>2019-11-03T11:04:54.000Z</time>
      </trkpt>
      <trkpt lat="36.83862545527517795562744140625" lon="-5.7150258310139179229736328125">
        <ele>111</ele>
        <time>2019-11-03T11:04:58.000Z</time>
      </trkpt>
      <trkpt lat="36.83849821798503398895263671875" lon="-5.71522875688970088958740234375">
        <ele>111</ele>
        <time>2019-11-03T11:05:02.000Z</time>
      </trkpt>
      <trkpt lat="36.83837416581809520721435546875" lon="-5.71542204357683658599853515625">
        <ele>111</ele>
        <time>2019-11-03T11:05:06.000Z</time>
      </trkpt>
      <trkpt lat="36.838251538574695587158203125" lon="-5.71561533026397228240966796875">
        <ele>111</ele>
        <time>2019-11-03T11:05:10.000Z</time>
      </trkpt>
      <trkpt lat="36.83812178671360015869140625" lon="-5.71582236327230930328369140625">
        <ele>111</ele>
        <time>2019-11-03T11:05:14.000Z</time>
      </trkpt>
      <trkpt lat="36.837983988225460052490234375" lon="-5.7160380296409130096435546875">
        <ele>109.8000030517578125</ele>
        <time>2019-11-03T11:05:18.000Z</time>
      </trkpt>
      <trkpt lat="36.83784225024282932281494140625" lon="-5.7162536121904850006103515625">
        <ele>108.8000030517578125</ele>
        <time>2019-11-03T11:05:22.000Z</time>
      </trkpt>
      <trkpt lat="36.83769707567989826202392578125" lon="-5.716465674340724945068359375">
        <ele>108.40000152587890625</ele>
        <time>2019-11-03T11:05:26.000Z</time>
      </trkpt>
      <trkpt lat="36.83754234574735164642333984375" lon="-5.71667295880615711212158203125">
        <ele>107.40000152587890625</ele>
        <time>2019-11-03T11:05:30.000Z</time>
      </trkpt>
      <trkpt lat="36.83737076818943023681640625" lon="-5.71686892770230770111083984375">
        <ele>108.40000152587890625</ele>
        <time>2019-11-03T11:05:34.000Z</time>
      </trkpt>
      <trkpt lat="36.83719349093735218048095703125" lon="-5.717040002346038818359375">
        <ele>108.59999847412109375</ele>
        <time>2019-11-03T11:05:38.000Z</time>
      </trkpt>
      <trkpt lat="36.83700975961983203887939453125" lon="-5.71720118634402751922607421875">
        <ele>108.59999847412109375</ele>
        <time>2019-11-03T11:05:42.000Z</time>
      </trkpt>
      <trkpt lat="36.8368137069046497344970703125" lon="-5.7173472829163074493408203125">
        <ele>108.1999969482421875</ele>
        <time>2019-11-03T11:05:46.000Z</time>
      </trkpt>
      <trkpt lat="36.836615391075611114501953125" lon="-5.717471502721309661865234375">
        <ele>109</ele>
        <time>2019-11-03T11:05:50.000Z</time>
      </trkpt>
      <trkpt lat="36.83639754541218280792236328125" lon="-5.71759195066988468170166015625">
        <ele>110.59999847412109375</ele>
        <time>2019-11-03T11:05:54.000Z</time>
      </trkpt>
      <trkpt lat="36.8361736647784709930419921875" lon="-5.71768566034734249114990234375">
        <ele>111.8000030517578125</ele>
        <time>2019-11-03T11:05:58.000Z</time>
      </trkpt>
      <trkpt lat="36.83594542555510997772216796875" lon="-5.71776193566620349884033203125">
        <ele>111.8000030517578125</ele>
        <time>2019-11-03T11:06:02.000Z</time>
      </trkpt>
      <trkpt lat="36.8357210420072078704833984375" lon="-5.71782496757805347442626953125">
        <ele>112</ele>
        <time>2019-11-03T11:06:06.000Z</time>
      </trkpt>
      <trkpt lat="36.83550872839987277984619140625" lon="-5.7178689725697040557861328125">
        <ele>112</ele>
        <time>2019-11-03T11:06:10.000Z</time>
      </trkpt>
      <trkpt lat="36.83529029600322246551513671875" lon="-5.71790032088756561279296875">
        <ele>112</ele>
        <time>2019-11-03T11:06:14.000Z</time>
      </trkpt>
      <trkpt lat="36.83507555164396762847900390625" lon="-5.71794130839407444000244140625">
        <ele>112.59999847412109375</ele>
        <time>2019-11-03T11:06:18.000Z</time>
      </trkpt>
      <trkpt lat="36.83487740345299243927001953125" lon="-5.717973746359348297119140625">
        <ele>112.8000030517578125</ele>
        <time>2019-11-03T11:06:22.000Z</time>
      </trkpt>
      <trkpt lat="36.83469216339290142059326171875" lon="-5.7180077768862247467041015625">
        <ele>113.1999969482421875</ele>
        <time>2019-11-03T11:06:26.000Z</time>
      </trkpt>
      <trkpt lat="36.8344872258603572845458984375" lon="-5.71805781684815883636474609375">
        <ele>112.8000030517578125</ele>
        <time>2019-11-03T11:06:30.000Z</time>
      </trkpt>
      <trkpt lat="36.83427709154784679412841796875" lon="-5.718111880123615264892578125">
        <ele>111.1999969482421875</ele>
        <time>2019-11-03T11:06:34.000Z</time>
      </trkpt>
      <trkpt lat="36.8340728245675563812255859375" lon="-5.718171559274196624755859375">
        <ele>110.1999969482421875</ele>
        <time>2019-11-03T11:06:38.000Z</time>
      </trkpt>
      <trkpt lat="36.83388791978359222412109375" lon="-5.7182391174137592315673828125">
        <ele>109.59999847412109375</ele>
        <time>2019-11-03T11:06:42.000Z</time>
      </trkpt>
      <trkpt lat="36.833683736622333526611328125" lon="-5.718327462673187255859375">
        <ele>109.40000152587890625</ele>
        <time>2019-11-03T11:06:47.000Z</time>
      </trkpt>
      <trkpt lat="36.83348533697426319122314453125" lon="-5.71843433193862438201904296875">
        <ele>110</ele>
        <time>2019-11-03T11:06:52.000Z</time>
      </trkpt>
      <trkpt lat="36.83329573832452297210693359375" lon="-5.71856089867651462554931640625">
        <ele>111</ele>
        <time>2019-11-03T11:06:57.000Z</time>
      </trkpt>
      <trkpt lat="36.8331182934343814849853515625" lon="-5.71869232691824436187744140625">
        <ele>112</ele>
        <time>2019-11-03T11:07:02.000Z</time>
      </trkpt>
      <trkpt lat="36.83294520713388919830322265625" lon="-5.718846134841442108154296875">
        <ele>112.1999969482421875</ele>
        <time>2019-11-03T11:07:07.000Z</time>
      </trkpt>
      <trkpt lat="36.8327897228300571441650390625" lon="-5.71900983341038227081298828125">
        <ele>111.8000030517578125</ele>
        <time>2019-11-03T11:07:12.000Z</time>
      </trkpt>
      <trkpt lat="36.8326378427445888519287109375" lon="-5.71918032132089138031005859375">
        <ele>111.1999969482421875</ele>
        <time>2019-11-03T11:07:17.000Z</time>
      </trkpt>
      <trkpt lat="36.832501552999019622802734375" lon="-5.7193438522517681121826171875">
        <ele>111.40000152587890625</ele>
        <time>2019-11-03T11:07:22.000Z</time>
      </trkpt>
      <trkpt lat="36.8323625810444355010986328125" lon="-5.71954610757529735565185546875">
        <ele>111.8000030517578125</ele>
        <time>2019-11-03T11:07:28.000Z</time>
      </trkpt>
      <trkpt lat="36.83225671760737895965576171875" lon="-5.71973369456827640533447265625">
        <ele>112.1999969482421875</ele>
        <time>2019-11-03T11:07:33.000Z</time>
      </trkpt>
      <trkpt lat="36.83216082863509654998779296875" lon="-5.7199376262724399566650390625">
        <ele>112.59999847412109375</ele>
        <time>2019-11-03T11:07:38.000Z</time>
      </trkpt>
      <trkpt lat="36.8320688791573047637939453125" lon="-5.7201473414897918701171875">
        <ele>112.59999847412109375</ele>
        <time>2019-11-03T11:07:43.000Z</time>
      </trkpt>
      <trkpt lat="36.831974498927593231201171875" lon="-5.72039167396724224090576171875">
        <ele>111.8000030517578125</ele>
        <time>2019-11-03T11:07:49.000Z</time>
      </trkpt>
      <trkpt lat="36.83189596049487590789794921875" lon="-5.72059862315654754638671875">
        <ele>111.40000152587890625</ele>
        <time>2019-11-03T11:07:54.000Z</time>
      </trkpt>
      <trkpt lat="36.83180987834930419921875" lon="-5.72081445716321468353271484375">
        <ele>111.8000030517578125</ele>
        <time>2019-11-03T11:07:59.000Z</time>
      </trkpt>
      <trkpt lat="36.83172865770757198333740234375" lon="-5.72102098725736141204833984375">
        <ele>111.40000152587890625</ele>
        <time>2019-11-03T11:08:04.000Z</time>
      </trkpt>
      <trkpt lat="36.83163176290690898895263671875" lon="-5.72125978767871856689453125">
        <ele>110.59999847412109375</ele>
        <time>2019-11-03T11:08:10.000Z</time>
      </trkpt>
      <trkpt lat="36.831539310514926910400390625" lon="-5.72150043211877346038818359375">
        <ele>111</ele>
        <time>2019-11-03T11:08:16.000Z</time>
      </trkpt>
      <trkpt lat="36.8314449302852153778076171875" lon="-5.72172389365732669830322265625">
        <ele>112</ele>
        <time>2019-11-03T11:08:22.000Z</time>
      </trkpt>
      <trkpt lat="36.8313617818057537078857421875" lon="-5.7219449244439601898193359375">
        <ele>113.59999847412109375</ele>
        <time>2019-11-03T11:08:28.000Z</time>
      </trkpt>
      <trkpt lat="36.8312863446772098541259765625" lon="-5.72215723805129528045654296875">
        <ele>114.59999847412109375</ele>
        <time>2019-11-03T11:08:34.000Z</time>
      </trkpt>
      <trkpt lat="36.8311981670558452606201171875" lon="-5.72236494161188602447509765625">
        <ele>115.40000152587890625</ele>
        <time>2019-11-03T11:08:40.000Z</time>
      </trkpt>
      <trkpt lat="36.831113509833812713623046875" lon="-5.7225678674876689910888671875">
        <ele>116.40000152587890625</ele>
        <time>2019-11-03T11:08:46.000Z</time>
      </trkpt>
      <trkpt lat="36.8310311995446681976318359375" lon="-5.72278956882655620574951171875">
        <ele>117.40000152587890625</ele>
        <time>2019-11-03T11:08:53.000Z</time>
      </trkpt>
      <trkpt lat="36.83094360865652561187744140625" lon="-5.7230040617287158966064453125">
        <ele>118.59999847412109375</ele>
        <time>2019-11-03T11:09:00.000Z</time>
      </trkpt>
      <trkpt lat="36.83085375465452671051025390625" lon="-5.72320782579481601715087890625">
        <ele>119.59999847412109375</ele>
        <time>2019-11-03T11:09:07.000Z</time>
      </trkpt>
      <trkpt lat="36.83078049682080745697021484375" lon="-5.7234154455363750457763671875">
        <ele>120.1999969482421875</ele>
        <time>2019-11-03T11:09:14.000Z</time>
      </trkpt>
      <trkpt lat="36.83070279657840728759765625" lon="-5.723630525171756744384765625">
        <ele>121.40000152587890625</ele>
        <time>2019-11-03T11:09:21.000Z</time>
      </trkpt>
      <trkpt lat="36.83061872608959674835205078125" lon="-5.7238407433032989501953125">
        <ele>122.8000030517578125</ele>
        <time>2019-11-03T11:09:28.000Z</time>
      </trkpt>
      <trkpt lat="36.8305376730859279632568359375" lon="-5.72405976243317127227783203125">
        <ele>124.59999847412109375</ele>
        <time>2019-11-03T11:09:35.000Z</time>
      </trkpt>
      <trkpt lat="36.83045092038810253143310546875" lon="-5.7242848165333271026611328125">
        <ele>127</ele>
        <time>2019-11-03T11:09:42.000Z</time>
      </trkpt>
      <trkpt lat="36.83036240749061107635498046875" lon="-5.7245054282248020172119140625">
        <ele>128</ele>
        <time>2019-11-03T11:09:49.000Z</time>
      </trkpt>
      <trkpt lat="36.830272637307643890380859375" lon="-5.72472059167921543121337890625">
        <ele>129.1999969482421875</ele>
        <time>2019-11-03T11:09:56.000Z</time>
      </trkpt>
      <trkpt lat="36.8301842920482158660888671875" lon="-5.724930725991725921630859375">
        <ele>130.1999969482421875</ele>
        <time>2019-11-03T11:10:03.000Z</time>
      </trkpt>
      <trkpt lat="36.83010089211165904998779296875" lon="-5.7251447997987270355224609375">
        <ele>131</ele>
        <time>2019-11-03T11:10:10.000Z</time>
      </trkpt>
      <trkpt lat="36.8300060927867889404296875" lon="-5.7253831811249256134033203125">
        <ele>130.600006103515625</ele>
        <time>2019-11-03T11:10:17.000Z</time>
      </trkpt>
      <trkpt lat="36.829909868538379669189453125" lon="-5.7256068103015422821044921875">
        <ele>129.399993896484375</ele>
        <time>2019-11-03T11:10:23.000Z</time>
      </trkpt>
      <trkpt lat="36.82982965372502803802490234375" lon="-5.72580956853926181793212890625">
        <ele>128.399993896484375</ele>
        <time>2019-11-03T11:10:28.000Z</time>
      </trkpt>
      <trkpt lat="36.8297343514859676361083984375" lon="-5.72605029679834842681884765625">
        <ele>127.1999969482421875</ele>
        <time>2019-11-03T11:10:34.000Z</time>
      </trkpt>
      <trkpt lat="36.82964558713138103485107421875" lon="-5.7262800447642803192138671875">
        <ele>126</ele>
        <time>2019-11-03T11:10:40.000Z</time>
      </trkpt>
      <trkpt lat="36.82955020107328891754150390625" lon="-5.72651800699532032012939453125">
        <ele>125</ele>
        <time>2019-11-03T11:10:46.000Z</time>
      </trkpt>
      <trkpt lat="36.82945800013840198516845703125" lon="-5.72674599476158618927001953125">
        <ele>124.8000030517578125</ele>
        <time>2019-11-03T11:10:51.000Z</time>
      </trkpt>
      <trkpt lat="36.82935020886361598968505859375" lon="-5.7269915007054805755615234375">
        <ele>125.1999969482421875</ele>
        <time>2019-11-03T11:10:56.000Z</time>
      </trkpt>
      <trkpt lat="36.82924828492105007171630859375" lon="-5.7272245176136493682861328125">
        <ele>124.1999969482421875</ele>
        <time>2019-11-03T11:11:01.000Z</time>
      </trkpt>
      <trkpt lat="36.82914284057915210723876953125" lon="-5.72746784426271915435791015625">
        <ele>123</ele>
        <time>2019-11-03T11:11:06.000Z</time>
      </trkpt>
      <trkpt lat="36.8290413357317447662353515625" lon="-5.7277099974453449249267578125">
        <ele>122.8000030517578125</ele>
        <time>2019-11-03T11:11:11.000Z</time>
      </trkpt>
      <trkpt lat="36.82893999852240085601806640625" lon="-5.7279579341411590576171875">
        <ele>123.1999969482421875</ele>
        <time>2019-11-03T11:11:16.000Z</time>
      </trkpt>
      <trkpt lat="36.82883656583726406097412109375" lon="-5.72820243425667285919189453125">
        <ele>123</ele>
        <time>2019-11-03T11:11:21.000Z</time>
      </trkpt>
      <trkpt lat="36.82874084450304508209228515625" lon="-5.7284345291554927825927734375">
        <ele>122.40000152587890625</ele>
        <time>2019-11-03T11:11:26.000Z</time>
      </trkpt>
      <trkpt lat="36.82865937240421772003173828125" lon="-5.72865136899054050445556640625">
        <ele>122.59999847412109375</ele>
        <time>2019-11-03T11:11:31.000Z</time>
      </trkpt>
      <trkpt lat="36.82857471518218517303466796875" lon="-5.72888907976448535919189453125">
        <ele>123.59999847412109375</ele>
        <time>2019-11-03T11:11:37.000Z</time>
      </trkpt>
      <trkpt lat="36.8284901417791843414306640625" lon="-5.72910918854176998138427734375">
        <ele>124.59999847412109375</ele>
        <time>2019-11-03T11:11:43.000Z</time>
      </trkpt>
      <trkpt lat="36.82841998524963855743408203125" lon="-5.7293164730072021484375">
        <ele>125.1999969482421875</ele>
        <time>2019-11-03T11:11:49.000Z</time>
      </trkpt>
      <trkpt lat="36.82833214290440082550048828125" lon="-5.729550831019878387451171875">
        <ele>125.59999847412109375</ele>
        <time>2019-11-03T11:11:56.000Z</time>
      </trkpt>
      <trkpt lat="36.82824647985398769378662109375" lon="-5.72976113297045230865478515625">
        <ele>125.40000152587890625</ele>
        <time>2019-11-03T11:12:02.000Z</time>
      </trkpt>
      <trkpt lat="36.82816416956484317779541015625" lon="-5.7299747876822948455810546875">
        <ele>125.8000030517578125</ele>
        <time>2019-11-03T11:12:08.000Z</time>
      </trkpt>
      <trkpt lat="36.82807934470474720001220703125" lon="-5.73018659837543964385986328125">
        <ele>126.1999969482421875</ele>
        <time>2019-11-03T11:12:14.000Z</time>
      </trkpt>
      <trkpt lat="36.82799108326435089111328125" lon="-5.73040721006691455841064453125">
        <ele>127</ele>
        <time>2019-11-03T11:12:20.000Z</time>
      </trkpt>
      <trkpt lat="36.82790231890976428985595703125" lon="-5.73063679039478302001953125">
        <ele>128.1999969482421875</ele>
        <time>2019-11-03T11:12:26.000Z</time>
      </trkpt>
      <trkpt lat="36.827818416059017181396484375" lon="-5.7308693043887615203857421875">
        <ele>128.399993896484375</ele>
        <time>2019-11-03T11:12:32.000Z</time>
      </trkpt>
      <trkpt lat="36.82772579602897167205810546875" lon="-5.73109544813632965087890625">
        <ele>127.1999969482421875</ele>
        <time>2019-11-03T11:12:38.000Z</time>
      </trkpt>
      <trkpt lat="36.82764247991144657135009765625" lon="-5.7313155569136142730712890625">
        <ele>126.40000152587890625</ele>
        <time>2019-11-03T11:12:44.000Z</time>
      </trkpt>
      <trkpt lat="36.8275473453104496002197265625" lon="-5.7315593026578426361083984375">
        <ele>125.8000030517578125</ele>
        <time>2019-11-03T11:12:50.000Z</time>
      </trkpt>
      <trkpt lat="36.8274625204503536224365234375" lon="-5.7317752204835414886474609375">
        <ele>125.59999847412109375</ele>
        <time>2019-11-03T11:12:55.000Z</time>
      </trkpt>
      <trkpt lat="36.82738347910344600677490234375" lon="-5.73199507780373096466064453125">
        <ele>126</ele>
        <time>2019-11-03T11:13:00.000Z</time>
      </trkpt>
      <trkpt lat="36.8273009173572063446044921875" lon="-5.7322080619633197784423828125">
        <ele>126</ele>
        <time>2019-11-03T11:13:05.000Z</time>
      </trkpt>
      <trkpt lat="36.82722221128642559051513671875" lon="-5.7324263267219066619873046875">
        <ele>126.59999847412109375</ele>
        <time>2019-11-03T11:13:11.000Z</time>
      </trkpt>
      <trkpt lat="36.8271436728537082672119140625" lon="-5.73265515267848968505859375">
        <ele>127</ele>
        <time>2019-11-03T11:13:17.000Z</time>
      </trkpt>
      <trkpt lat="36.82707452215254306793212890625" lon="-5.73287911713123321533203125">
        <ele>127.1999969482421875</ele>
        <time>2019-11-03T11:13:22.000Z</time>
      </trkpt>
      <trkpt lat="36.8269958160817623138427734375" lon="-5.73311724700033664703369140625">
        <ele>127.8000030517578125</ele>
        <time>2019-11-03T11:13:27.000Z</time>
      </trkpt>
      <trkpt lat="36.82692180387675762176513671875" lon="-5.73336660861968994140625">
        <ele>127.1999969482421875</ele>
        <time>2019-11-03T11:13:32.000Z</time>
      </trkpt>
      <trkpt lat="36.8268697522580623626708984375" lon="-5.7335840351879596710205078125">
        <ele>126.8000030517578125</ele>
        <time>2019-11-03T11:13:36.000Z</time>
      </trkpt>
      <trkpt lat="36.82680294848978519439697265625" lon="-5.73384446091949939727783203125">
        <ele>126.40000152587890625</ele>
        <time>2019-11-03T11:13:41.000Z</time>
      </trkpt>
      <trkpt lat="36.826746873557567596435546875" lon="-5.7340876199305057525634765625">
        <ele>126</ele>
        <time>2019-11-03T11:13:46.000Z</time>
      </trkpt>
      <trkpt lat="36.8267011083662509918212890625" lon="-5.73430479504168033599853515625">
        <ele>125.8000030517578125</ele>
        <time>2019-11-03T11:13:50.000Z</time>
      </trkpt>
      <trkpt lat="36.8266491405665874481201171875" lon="-5.73453613556921482086181640625">
        <ele>125.59999847412109375</ele>
        <time>2019-11-03T11:13:54.000Z</time>
      </trkpt>
      <trkpt lat="36.82659574784338474273681640625" lon="-5.73478893376886844635009765625">
        <ele>124.40000152587890625</ele>
        <time>2019-11-03T11:13:59.000Z</time>
      </trkpt>
      <trkpt lat="36.82653724215924739837646484375" lon="-5.73502563871443271636962890625">
        <ele>123.40000152587890625</ele>
        <time>2019-11-03T11:14:04.000Z</time>
      </trkpt>
      <trkpt lat="36.82650438509881496429443359375" lon="-5.7351745851337909698486328125">
        <ele>122.59999847412109375</ele>
        <time>2019-11-03T11:14:07.000Z</time>
      </trkpt>
      <trkpt lat="36.8264546804130077362060546875" lon="-5.73542595840990543365478515625">
        <ele>122</ele>
        <time>2019-11-03T11:14:13.000Z</time>
      </trkpt>
      <trkpt lat="36.82639391161501407623291015625" lon="-5.73566249571740627288818359375">
        <ele>122</ele>
        <time>2019-11-03T11:14:20.000Z</time>
      </trkpt>
      <trkpt lat="36.82633490301668643951416015625" lon="-5.73590389452874660491943359375">
        <ele>122</ele>
        <time>2019-11-03T11:14:26.000Z</time>
      </trkpt>
      <trkpt lat="36.82629056274890899658203125" lon="-5.7361438684165477752685546875">
        <ele>122.59999847412109375</ele>
        <time>2019-11-03T11:14:32.000Z</time>
      </trkpt>
      <trkpt lat="36.8262360803782939910888671875" lon="-5.73636624030768871307373046875">
        <ele>122.8000030517578125</ele>
        <time>2019-11-03T11:14:37.000Z</time>
      </trkpt>
      <trkpt lat="36.826178245246410369873046875" lon="-5.73658727109432220458984375">
        <ele>123</ele>
        <time>2019-11-03T11:14:42.000Z</time>
      </trkpt>
      <trkpt lat="36.82612418197095394134521484375" lon="-5.73680453002452850341796875">
        <ele>123</ele>
        <time>2019-11-03T11:14:47.000Z</time>
      </trkpt>
      <trkpt lat="36.8260738067328929901123046875" lon="-5.73702421970665454864501953125">
        <ele>123</ele>
        <time>2019-11-03T11:14:52.000Z</time>
      </trkpt>
      <trkpt lat="36.8260127864778041839599609375" lon="-5.73723896406590938568115234375">
        <ele>123.8000030517578125</ele>
        <time>2019-11-03T11:14:57.000Z</time>
      </trkpt>
      <trkpt lat="36.8259433843195438385009765625" lon="-5.73748715221881866455078125">
        <ele>124.8000030517578125</ele>
        <time>2019-11-03T11:15:03.000Z</time>
      </trkpt>
      <trkpt lat="36.82587440125644207000732421875" lon="-5.7377250306308269500732421875">
        <ele>125.8000030517578125</ele>
        <time>2019-11-03T11:15:09.000Z</time>
      </trkpt>
      <trkpt lat="36.82581371627748012542724609375" lon="-5.73794002644717693328857421875">
        <ele>126.59999847412109375</ele>
        <time>2019-11-03T11:15:15.000Z</time>
      </trkpt>
      <trkpt lat="36.82574900798499584197998046875" lon="-5.73817153461277484893798828125">
        <ele>127</ele>
        <time>2019-11-03T11:15:22.000Z</time>
      </trkpt>
      <trkpt lat="36.82568865828216075897216796875" lon="-5.738398768007755279541015625">
        <ele>127.40000152587890625</ele>
        <time>2019-11-03T11:15:29.000Z</time>
      </trkpt>
      <trkpt lat="36.8256235308945178985595703125" lon="-5.73862231336534023284912109375">
        <ele>129.399993896484375</ele>
        <time>2019-11-03T11:15:36.000Z</time>
      </trkpt>
      <trkpt lat="36.82555555365979671478271484375" lon="-5.73884426616132259368896484375">
        <ele>131.399993896484375</ele>
        <time>2019-11-03T11:15:43.000Z</time>
      </trkpt>
      <trkpt lat="36.8254991434514522552490234375" lon="-5.73908063583076000213623046875">
        <ele>133.399993896484375</ele>
        <time>2019-11-03T11:15:50.000Z</time>
      </trkpt>
      <trkpt lat="36.8254377879202365875244140625" lon="-5.7393118925392627716064453125">
        <ele>134.8000030517578125</ele>
        <time>2019-11-03T11:15:57.000Z</time>
      </trkpt>
      <trkpt lat="36.8253693915903568267822265625" lon="-5.739540718495845794677734375">
        <ele>136.1999969482421875</ele>
        <time>2019-11-03T11:16:04.000Z</time>
      </trkpt>
      <trkpt lat="36.825312562286853790283203125" lon="-5.7397762499749660491943359375">
        <ele>136.8000030517578125</ele>
        <time>2019-11-03T11:16:11.000Z</time>
      </trkpt>
      <trkpt lat="36.82525078766047954559326171875" lon="-5.74001203291118144989013671875">
        <ele>137.399993896484375</ele>
        <time>2019-11-03T11:16:18.000Z</time>
      </trkpt>
      <trkpt lat="36.82518725283443927764892578125" lon="-5.74024404399096965789794921875">
        <ele>138</ele>
        <time>2019-11-03T11:16:25.000Z</time>
      </trkpt>
      <trkpt lat="36.8251296691596508026123046875" lon="-5.74047739617526531219482421875">
        <ele>138.600006103515625</ele>
        <time>2019-11-03T11:16:32.000Z</time>
      </trkpt>
      <trkpt lat="36.8250740133225917816162109375" lon="-5.74072231538593769073486328125">
        <ele>139.600006103515625</ele>
        <time>2019-11-03T11:16:39.000Z</time>
      </trkpt>
      <trkpt lat="36.82501651346683502197265625" lon="-5.74095952324569225311279296875">
        <ele>141</ele>
        <time>2019-11-03T11:16:46.000Z</time>
      </trkpt>
      <trkpt lat="36.8249627016484737396240234375" lon="-5.741206370294094085693359375">
        <ele>141.600006103515625</ele>
        <time>2019-11-03T11:16:53.000Z</time>
      </trkpt>
      <trkpt lat="36.82491970248520374298095703125" lon="-5.741451121866703033447265625">
        <ele>142.8000030517578125</ele>
        <time>2019-11-03T11:17:00.000Z</time>
      </trkpt>
      <trkpt lat="36.8248701654374599456787109375" lon="-5.74169126339256763458251953125">
        <ele>142.399993896484375</ele>
        <time>2019-11-03T11:17:07.000Z</time>
      </trkpt>
      <trkpt lat="36.82482096366584300994873046875" lon="-5.74192964471876621246337890625">
        <ele>142.8000030517578125</ele>
        <time>2019-11-03T11:17:14.000Z</time>
      </trkpt>
      <trkpt lat="36.824783496558666229248046875" lon="-5.7421711273491382598876953125">
        <ele>143.399993896484375</ele>
        <time>2019-11-03T11:17:21.000Z</time>
      </trkpt>
      <trkpt lat="36.8247273378074169158935546875" lon="-5.742408670485019683837890625">
        <ele>144</ele>
        <time>2019-11-03T11:17:28.000Z</time>
      </trkpt>
      <trkpt lat="36.824655421078205108642578125" lon="-5.74263338930904865264892578125">
        <ele>145</ele>
        <time>2019-11-03T11:17:35.000Z</time>
      </trkpt>
      <trkpt lat="36.82459942996501922607421875" lon="-5.7428628019988536834716796875">
        <ele>146.399993896484375</ele>
        <time>2019-11-03T11:17:42.000Z</time>
      </trkpt>
      <trkpt lat="36.8245312012732028961181640625" lon="-5.74308517388999462127685546875">
        <ele>147.8000030517578125</ele>
        <time>2019-11-03T11:17:49.000Z</time>
      </trkpt>
      <trkpt lat="36.82445953600108623504638671875" lon="-5.743323303759098052978515625">
        <ele>148.8000030517578125</ele>
        <time>2019-11-03T11:17:56.000Z</time>
      </trkpt>
      <trkpt lat="36.82437948882579803466796875" lon="-5.7435578294098377227783203125">
        <ele>150.1999969482421875</ele>
        <time>2019-11-03T11:18:03.000Z</time>
      </trkpt>
      <trkpt lat="36.82428938336670398712158203125" lon="-5.74377684853971004486083984375">
        <ele>151.399993896484375</ele>
        <time>2019-11-03T11:18:10.000Z</time>
      </trkpt>
      <trkpt lat="36.82418880052864551544189453125" lon="-5.7439849711954593658447265625">
        <ele>151.8000030517578125</ele>
        <time>2019-11-03T11:18:17.000Z</time>
      </trkpt>
      <trkpt lat="36.824058629572391510009765625" lon="-5.7441683672368526458740234375">
        <ele>151.1999969482421875</ele>
        <time>2019-11-03T11:18:24.000Z</time>
      </trkpt>
      <trkpt lat="36.82390046305954456329345703125" lon="-5.7443232648074626922607421875">
        <ele>151.399993896484375</ele>
        <time>2019-11-03T11:18:31.000Z</time>
      </trkpt>
      <trkpt lat="36.8237379379570484161376953125" lon="-5.7444308884441852569580078125">
        <ele>151.399993896484375</ele>
        <time>2019-11-03T11:18:37.000Z</time>
      </trkpt>
      <trkpt lat="36.8235625885426998138427734375" lon="-5.7445049844682216644287109375">
        <ele>151.399993896484375</ele>
        <time>2019-11-03T11:18:43.000Z</time>
      </trkpt>
      <trkpt lat="36.8233649432659149169921875" lon="-5.744563825428485870361328125">
        <ele>152.1999969482421875</ele>
        <time>2019-11-03T11:18:50.000Z</time>
      </trkpt>
      <trkpt lat="36.82316872291266918182373046875" lon="-5.74461738578975200653076171875">
        <ele>154.399993896484375</ele>
        <time>2019-11-03T11:18:57.000Z</time>
      </trkpt>
      <trkpt lat="36.82297996245324611663818359375" lon="-5.7446749694645404815673828125">
        <ele>156</ele>
        <time>2019-11-03T11:19:04.000Z</time>
      </trkpt>
      <trkpt lat="36.82279908098280429840087890625" lon="-5.74473255313932895660400390625">
        <ele>156.8000030517578125</ele>
        <time>2019-11-03T11:19:10.000Z</time>
      </trkpt>
      <trkpt lat="36.82260797359049320220947265625" lon="-5.744822658598423004150390625">
        <ele>157.8000030517578125</ele>
        <time>2019-11-03T11:19:17.000Z</time>
      </trkpt>
      <trkpt lat="36.82242474518716335296630859375" lon="-5.7449150271713733673095703125">
        <ele>158.600006103515625</ele>
        <time>2019-11-03T11:19:24.000Z</time>
      </trkpt>
      <trkpt lat="36.8222446180880069732666015625" lon="-5.745005719363689422607421875">
        <ele>160.1999969482421875</ele>
        <time>2019-11-03T11:19:31.000Z</time>
      </trkpt>
      <trkpt lat="36.8220587074756622314453125" lon="-5.74510060250759124755859375">
        <ele>162.399993896484375</ele>
        <time>2019-11-03T11:19:38.000Z</time>
      </trkpt>
      <trkpt lat="36.82187497615814208984375" lon="-5.74519925750792026519775390625">
        <ele>163.8000030517578125</ele>
        <time>2019-11-03T11:19:45.000Z</time>
      </trkpt>
      <trkpt lat="36.821696273982524871826171875" lon="-5.74530201964080333709716796875">
        <ele>165.1999969482421875</ele>
        <time>2019-11-03T11:19:52.000Z</time>
      </trkpt>
      <trkpt lat="36.82151547633111476898193359375" lon="-5.74541584588587284088134765625">
        <ele>165.8000030517578125</ele>
        <time>2019-11-03T11:19:59.000Z</time>
      </trkpt>
      <trkpt lat="36.82133249938488006591796875" lon="-5.74553553946316242218017578125">
        <ele>167</ele>
        <time>2019-11-03T11:20:06.000Z</time>
      </trkpt>
      <trkpt lat="36.82115555740892887115478515625" lon="-5.74565112590789794921875">
        <ele>168.1999969482421875</ele>
        <time>2019-11-03T11:20:13.000Z</time>
      </trkpt>
      <trkpt lat="36.82098808698356151580810546875" lon="-5.74576587416231632232666015625">
        <ele>168.8000030517578125</ele>
        <time>2019-11-03T11:20:20.000Z</time>
      </trkpt>
      <trkpt lat="36.820820868015289306640625" lon="-5.74586645700037479400634765625">
        <ele>169.600006103515625</ele>
        <time>2019-11-03T11:20:27.000Z</time>
      </trkpt>
      <trkpt lat="36.8206567503511905670166015625" lon="-5.7459676265716552734375">
        <ele>171</ele>
        <time>2019-11-03T11:20:34.000Z</time>
      </trkpt>
      <trkpt lat="36.8204904533922672271728515625" lon="-5.74607734568417072296142578125">
        <ele>171.399993896484375</ele>
        <time>2019-11-03T11:20:41.000Z</time>
      </trkpt>
      <trkpt lat="36.82032189331948757171630859375" lon="-5.7461924292147159576416015625">
        <ele>172</ele>
        <time>2019-11-03T11:20:48.000Z</time>
      </trkpt>
      <trkpt lat="36.82016062550246715545654296875" lon="-5.74629913084208965301513671875">
        <ele>173</ele>
        <time>2019-11-03T11:20:54.000Z</time>
      </trkpt>
      <trkpt lat="36.8199771456420421600341796875" lon="-5.74640977196395397186279296875">
        <ele>174.399993896484375</ele>
        <time>2019-11-03T11:21:01.000Z</time>
      </trkpt>
      <trkpt lat="36.8198108486831188201904296875" lon="-5.7465146295726299285888671875">
        <ele>175.399993896484375</ele>
        <time>2019-11-03T11:21:08.000Z</time>
      </trkpt>
      <trkpt lat="36.81964027695357799530029296875" lon="-5.7466235943138599395751953125">
        <ele>176.1999969482421875</ele>
        <time>2019-11-03T11:21:15.000Z</time>
      </trkpt>
      <trkpt lat="36.81946509517729282379150390625" lon="-5.74674605391919612884521484375">
        <ele>177.1999969482421875</ele>
        <time>2019-11-03T11:21:22.000Z</time>
      </trkpt>
      <trkpt lat="36.81929133832454681396484375" lon="-5.74686574749648571014404296875">
        <ele>178.399993896484375</ele>
        <time>2019-11-03T11:21:29.000Z</time>
      </trkpt>
      <trkpt lat="36.81911825202405452728271484375" lon="-5.746991224586963653564453125">
        <ele>179.8000030517578125</ele>
        <time>2019-11-03T11:21:36.000Z</time>
      </trkpt>
      <trkpt lat="36.81893804110586643218994140625" lon="-5.747127346694469451904296875">
        <ele>181.1999969482421875</ele>
        <time>2019-11-03T11:21:43.000Z</time>
      </trkpt>
      <trkpt lat="36.8187818862497806549072265625" lon="-5.74725382961332798004150390625">
        <ele>182.600006103515625</ele>
        <time>2019-11-03T11:21:49.000Z</time>
      </trkpt>
      <trkpt lat="36.818629167973995208740234375" lon="-5.74737905524671077728271484375">
        <ele>183.8000030517578125</ele>
        <time>2019-11-03T11:21:55.000Z</time>
      </trkpt>
      <trkpt lat="36.81845306418836116790771484375" lon="-5.74752171523869037628173828125">
        <ele>185.399993896484375</ele>
        <time>2019-11-03T11:22:03.000Z</time>
      </trkpt>
      <trkpt lat="36.8182863481342792510986328125" lon="-5.74766202829778194427490234375">
        <ele>186.1999969482421875</ele>
        <time>2019-11-03T11:22:10.000Z</time>
      </trkpt>
      <trkpt lat="36.818134970963001251220703125" lon="-5.74779395945370197296142578125">
        <ele>186.399993896484375</ele>
        <time>2019-11-03T11:22:16.000Z</time>
      </trkpt>
      <trkpt lat="36.81796724908053874969482421875" lon="-5.7479415647685527801513671875">
        <ele>185.8000030517578125</ele>
        <time>2019-11-03T11:22:23.000Z</time>
      </trkpt>
      <trkpt lat="36.81780313141644001007080078125" lon="-5.74807039462029933929443359375">
        <ele>186</ele>
        <time>2019-11-03T11:22:30.000Z</time>
      </trkpt>
      <trkpt lat="36.8176406063139438629150390625" lon="-5.74820333160459995269775390625">
        <ele>187.8000030517578125</ele>
        <time>2019-11-03T11:22:37.000Z</time>
      </trkpt>
      <trkpt lat="36.817463077604770660400390625" lon="-5.7483184151351451873779296875">
        <ele>190.1999969482421875</ele>
        <time>2019-11-03T11:22:44.000Z</time>
      </trkpt>
      <trkpt lat="36.8172761611640453338623046875" lon="-5.748416483402252197265625">
        <ele>192.1999969482421875</ele>
        <time>2019-11-03T11:22:51.000Z</time>
      </trkpt>
      <trkpt lat="36.81709502823650836944580078125" lon="-5.74850306846201419830322265625">
        <ele>193.8000030517578125</ele>
        <time>2019-11-03T11:22:58.000Z</time>
      </trkpt>
      <trkpt lat="36.81691280566155910491943359375" lon="-5.7485866360366344451904296875">
        <ele>194.8000030517578125</ele>
        <time>2019-11-03T11:23:05.000Z</time>
      </trkpt>
      <trkpt lat="36.8167256377637386322021484375" lon="-5.74867439456284046173095703125">
        <ele>196</ele>
        <time>2019-11-03T11:23:12.000Z</time>
      </trkpt>
      <trkpt lat="36.8165315128862857818603515625" lon="-5.74875687249004840850830078125">
        <ele>198.8000030517578125</ele>
        <time>2019-11-03T11:23:19.000Z</time>
      </trkpt>
      <trkpt lat="36.8163404054939746856689453125" lon="-5.7488441281020641326904296875">
        <ele>200.1999969482421875</ele>
        <time>2019-11-03T11:23:26.000Z</time>
      </trkpt>
      <trkpt lat="36.816158853471279144287109375" lon="-5.7489199005067348480224609375">
        <ele>200.399993896484375</ele>
        <time>2019-11-03T11:23:33.000Z</time>
      </trkpt>
      <trkpt lat="36.8159766308963298797607421875" lon="-5.74899340979754924774169921875">
        <ele>199.399993896484375</ele>
        <time>2019-11-03T11:23:40.000Z</time>
      </trkpt>
      <trkpt lat="36.8157939054071903228759765625" lon="-5.74907421134412288665771484375">
        <ele>198.399993896484375</ele>
        <time>2019-11-03T11:23:47.000Z</time>
      </trkpt>
      <trkpt lat="36.81560740806162357330322265625" lon="-5.74916959740221500396728515625">
        <ele>198.1999969482421875</ele>
        <time>2019-11-03T11:23:54.000Z</time>
      </trkpt>
      <trkpt lat="36.81542493402957916259765625" lon="-5.7492518238723278045654296875">
        <ele>197.8000030517578125</ele>
        <time>2019-11-03T11:24:01.000Z</time>
      </trkpt>
      <trkpt lat="36.8152447231113910675048828125" lon="-5.7493289373815059661865234375">
        <ele>198.399993896484375</ele>
        <time>2019-11-03T11:24:08.000Z</time>
      </trkpt>
      <trkpt lat="36.81508119218051433563232421875" lon="-5.7494757883250713348388671875">
        <ele>200.600006103515625</ele>
        <time>2019-11-03T11:24:15.000Z</time>
      </trkpt>
      <trkpt lat="36.8149258755147457122802734375" lon="-5.74959774501621723175048828125">
        <ele>203.399993896484375</ele>
        <time>2019-11-03T11:24:23.000Z</time>
      </trkpt>
      <trkpt lat="36.81480341590940952301025390625" lon="-5.7496440969407558441162109375">
        <ele>204.8000030517578125</ele>
        <time>2019-11-03T11:24:31.000Z</time>
      </trkpt>
      <trkpt lat="36.8148102052509784698486328125" lon="-5.74964535422623157501220703125">
        <ele>204.8000030517578125</ele>
        <time>2019-11-03T11:24:34.000Z</time>
      </trkpt>
      <trkpt lat="36.81467793881893157958984375" lon="-5.74969816021621227264404296875">
        <ele>205.600006103515625</ele>
        <time>2019-11-03T11:25:29.000Z</time>
      </trkpt>
      <trkpt lat="36.814558245241641998291015625" lon="-5.7497118227183818817138671875">
        <ele>205.600006103515625</ele>
        <time>2019-11-03T11:25:41.000Z</time>
      </trkpt>
      <trkpt lat="36.81453871540725231170654296875" lon="-5.74970369227230548858642578125">
        <ele>205.399993896484375</ele>
        <time>2019-11-03T11:26:10.000Z</time>
      </trkpt>
      <trkpt lat="36.81458749808371067047119140625" lon="-5.7496766187250614166259765625">
        <ele>205.1999969482421875</ele>
        <time>2019-11-03T11:26:14.000Z</time>
      </trkpt>
      <trkpt lat="36.81462219916284084320068359375" lon="-5.74961744248867034912109375">
        <ele>204.1999969482421875</ele>
        <time>2019-11-03T11:26:18.000Z</time>
      </trkpt>
      <trkpt lat="36.81463577784597873687744140625" lon="-5.74959824793040752410888671875">
        <ele>203.8000030517578125</ele>
        <time>2019-11-03T11:26:21.000Z</time>
      </trkpt>
      <trkpt lat="36.81463711895048618316650390625" lon="-5.74959271587431430816650390625">
        <ele>203.8000030517578125</ele>
        <time>2019-11-03T11:26:23.000Z</time>
      </trkpt>
      <trkpt lat="36.81467265821993350982666015625" lon="-5.7495176978409290313720703125">
        <ele>202.600006103515625</ele>
        <time>2019-11-03T11:26:30.000Z</time>
      </trkpt>
      <trkpt lat="36.8145929463207721710205078125" lon="-5.7494801469147205352783203125">
        <ele>201.600006103515625</ele>
        <time>2019-11-03T11:26:36.000Z</time>
      </trkpt>
      <trkpt lat="36.8144206143915653228759765625" lon="-5.7495874352753162384033203125">
        <ele>203.1999969482421875</ele>
        <time>2019-11-03T11:26:44.000Z</time>
      </trkpt>
      <trkpt lat="36.81425255723297595977783203125" lon="-5.74967787601053714752197265625">
        <ele>204.600006103515625</ele>
        <time>2019-11-03T11:26:53.000Z</time>
      </trkpt>
      <trkpt lat="36.8141772039234638214111328125" lon="-5.74968240223824977874755859375">
        <ele>204.600006103515625</ele>
        <time>2019-11-03T11:26:57.000Z</time>
      </trkpt>
      <trkpt lat="36.8141658045351505279541015625" lon="-5.7496803067624568939208984375">
        <ele>204.600006103515625</ele>
        <time>2019-11-03T11:27:01.000Z</time>
      </trkpt>
      <trkpt lat="36.81413101963698863983154296875" lon="-5.749752558767795562744140625">
        <ele>206.1999969482421875</ele>
        <time>2019-11-03T11:31:17.000Z</time>
      </trkpt>
      <trkpt lat="36.8141212128102779388427734375" lon="-5.749794133007526397705078125">
        <ele>207</ele>
        <time>2019-11-03T11:31:23.000Z</time>
      </trkpt>
      <trkpt lat="36.8141674809157848358154296875" lon="-5.7498576678335666656494140625">
        <ele>208</ele>
        <time>2019-11-03T11:31:37.000Z</time>
      </trkpt>
      <trkpt lat="36.8141691572964191436767578125" lon="-5.749885998666286468505859375">
        <ele>208.399993896484375</ele>
        <time>2019-11-03T11:31:38.000Z</time>
      </trkpt>
      <trkpt lat="36.81411492638289928436279296875" lon="-5.74998892843723297119140625">
        <ele>209.8000030517578125</ele>
        <time>2019-11-03T11:31:42.000Z</time>
      </trkpt>
      <trkpt lat="36.81396053172647953033447265625" lon="-5.7501493580639362335205078125">
        <ele>213</ele>
        <time>2019-11-03T11:31:51.000Z</time>
      </trkpt>
      <trkpt lat="36.813829354941844940185546875" lon="-5.750305764377117156982421875">
        <ele>217.399993896484375</ele>
        <time>2019-11-03T11:32:00.000Z</time>
      </trkpt>
      <trkpt lat="36.81369616650044918060302734375" lon="-5.75048890896141529083251953125">
        <ele>222.1999969482421875</ele>
        <time>2019-11-03T11:32:08.000Z</time>
      </trkpt>
      <trkpt lat="36.81357127614319324493408203125" lon="-5.750662498176097869873046875">
        <ele>227.600006103515625</ele>
        <time>2019-11-03T11:32:16.000Z</time>
      </trkpt>
      <trkpt lat="36.81346097029745578765869140625" lon="-5.75085201300680637359619140625">
        <ele>229.399993896484375</ele>
        <time>2019-11-03T11:32:24.000Z</time>
      </trkpt>
      <trkpt lat="36.81337312795221805572509765625" lon="-5.7510522566735744476318359375">
        <ele>230.1999969482421875</ele>
        <time>2019-11-03T11:32:32.000Z</time>
      </trkpt>
      <trkpt lat="36.81327388621866703033447265625" lon="-5.751265995204448699951171875">
        <ele>231.399993896484375</ele>
        <time>2019-11-03T11:32:40.000Z</time>
      </trkpt>
      <trkpt lat="36.8131800927221775054931640625" lon="-5.7514720223844051361083984375">
        <ele>233.399993896484375</ele>
        <time>2019-11-03T11:32:48.000Z</time>
      </trkpt>
      <trkpt lat="36.813099123537540435791015625" lon="-5.75168601237237453460693359375">
        <ele>234.1999969482421875</ele>
        <time>2019-11-03T11:32:56.000Z</time>
      </trkpt>
      <trkpt lat="36.81299828924238681793212890625" lon="-5.75189338065683841705322265625">
        <ele>235.1999969482421875</ele>
        <time>2019-11-03T11:33:04.000Z</time>
      </trkpt>
      <trkpt lat="36.81291011162102222442626953125" lon="-5.752120278775691986083984375">
        <ele>236.1999969482421875</ele>
        <time>2019-11-03T11:33:12.000Z</time>
      </trkpt>
      <trkpt lat="36.81282947771251201629638671875" lon="-5.75233426876366138458251953125">
        <ele>236.399993896484375</ele>
        <time>2019-11-03T11:33:20.000Z</time>
      </trkpt>
      <trkpt lat="36.8127502687275409698486328125" lon="-5.75256074778735637664794921875">
        <ele>235.600006103515625</ele>
        <time>2019-11-03T11:33:28.000Z</time>
      </trkpt>
      <trkpt lat="36.81266502477228641510009765625" lon="-5.75277934782207012176513671875">
        <ele>235.8000030517578125</ele>
        <time>2019-11-03T11:33:36.000Z</time>
      </trkpt>
      <trkpt lat="36.81259696371853351593017578125" lon="-5.7530055753886699676513671875">
        <ele>236.1999969482421875</ele>
        <time>2019-11-03T11:33:44.000Z</time>
      </trkpt>
      <trkpt lat="36.81254826486110687255859375" lon="-5.75323683209717273712158203125">
        <ele>237.600006103515625</ele>
        <time>2019-11-03T11:33:52.000Z</time>
      </trkpt>
      <trkpt lat="36.81250878609716892242431640625" lon="-5.7534764707088470458984375">
        <ele>239</ele>
        <time>2019-11-03T11:34:00.000Z</time>
      </trkpt>
      <trkpt lat="36.8124934472143650054931640625" lon="-5.75372130610048770904541015625">
        <ele>238.8000030517578125</ele>
        <time>2019-11-03T11:34:08.000Z</time>
      </trkpt>
      <trkpt lat="36.81247626431286334991455078125" lon="-5.7539592683315277099609375">
        <ele>240.1999969482421875</ele>
        <time>2019-11-03T11:34:16.000Z</time>
      </trkpt>
      <trkpt lat="36.81249302811920642852783203125" lon="-5.7542105577886104583740234375">
        <ele>238.8000030517578125</ele>
        <time>2019-11-03T11:34:24.000Z</time>
      </trkpt>
      <trkpt lat="36.81251607835292816162109375" lon="-5.75444902293384075164794921875">
        <ele>239</ele>
        <time>2019-11-03T11:34:32.000Z</time>
      </trkpt>
      <trkpt lat="36.8125851452350616455078125" lon="-5.75468036346137523651123046875">
        <ele>239.1999969482421875</ele>
        <time>2019-11-03T11:34:40.000Z</time>
      </trkpt>
      <trkpt lat="36.81267298758029937744140625" lon="-5.7549049146473407745361328125">
        <ele>240.8000030517578125</ele>
        <time>2019-11-03T11:34:48.000Z</time>
      </trkpt>
      <trkpt lat="36.8127636797726154327392578125" lon="-5.7551188208162784576416015625">
        <ele>242</ele>
        <time>2019-11-03T11:34:56.000Z</time>
      </trkpt>
      <trkpt lat="36.81285403668880462646484375" lon="-5.755318813025951385498046875">
        <ele>242.8000030517578125</ele>
        <time>2019-11-03T11:35:04.000Z</time>
      </trkpt>
      <trkpt lat="36.81295688264071941375732421875" lon="-5.75550832785665988922119140625">
        <ele>243.1999969482421875</ele>
        <time>2019-11-03T11:35:11.000Z</time>
      </trkpt>
      <trkpt lat="36.81308780796825885772705078125" lon="-5.75569935142993927001953125">
        <ele>244</ele>
        <time>2019-11-03T11:35:19.000Z</time>
      </trkpt>
      <trkpt lat="36.81321688927710056304931640625" lon="-5.75588383711874485015869140625">
        <ele>245</ele>
        <time>2019-11-03T11:35:27.000Z</time>
      </trkpt>
      <trkpt lat="36.8133510835468769073486328125" lon="-5.7560582645237445831298828125">
        <ele>246.399993896484375</ele>
        <time>2019-11-03T11:35:35.000Z</time>
      </trkpt>
      <trkpt lat="36.8134898878633975982666015625" lon="-5.75623445212841033935546875">
        <ele>248</ele>
        <time>2019-11-03T11:35:43.000Z</time>
      </trkpt>
      <trkpt lat="36.81363179348409175872802734375" lon="-5.75641038827598094940185546875">
        <ele>249.8000030517578125</ele>
        <time>2019-11-03T11:35:51.000Z</time>
      </trkpt>
      <trkpt lat="36.81377914734184741973876953125" lon="-5.7565890066325664520263671875">
        <ele>251.399993896484375</ele>
        <time>2019-11-03T11:35:59.000Z</time>
      </trkpt>
      <trkpt lat="36.81390688754618167877197265625" lon="-5.7567496038973331451416015625">
        <ele>252.399993896484375</ele>
        <time>2019-11-03T11:36:06.000Z</time>
      </trkpt>
      <trkpt lat="36.81403957307338714599609375" lon="-5.7569145597517490386962890625">
        <ele>255</ele>
        <time>2019-11-03T11:36:13.000Z</time>
      </trkpt>
      <trkpt lat="36.8141815625131130218505859375" lon="-5.757081694900989532470703125">
        <ele>256.399993896484375</ele>
        <time>2019-11-03T11:36:21.000Z</time>
      </trkpt>
      <trkpt lat="36.8143173493444919586181640625" lon="-5.75726031325757503509521484375">
        <ele>257.79998779296875</ele>
        <time>2019-11-03T11:36:29.000Z</time>
      </trkpt>
      <trkpt lat="36.81445489637553691864013671875" lon="-5.7574342377483844757080078125">
        <ele>258</ele>
        <time>2019-11-03T11:36:36.000Z</time>
      </trkpt>
      <trkpt lat="36.81459319777786731719970703125" lon="-5.75760103762149810791015625">
        <ele>258.20001220703125</ele>
        <time>2019-11-03T11:36:43.000Z</time>
      </trkpt>
      <trkpt lat="36.8147277273237705230712890625" lon="-5.7577721960842609405517578125">
        <ele>257.79998779296875</ele>
        <time>2019-11-03T11:36:50.000Z</time>
      </trkpt>
      <trkpt lat="36.81485689245164394378662109375" lon="-5.7579423487186431884765625">
        <ele>257</ele>
        <time>2019-11-03T11:36:57.000Z</time>
      </trkpt>
      <trkpt lat="36.814977340400218963623046875" lon="-5.7581145130097866058349609375">
        <ele>257.20001220703125</ele>
        <time>2019-11-03T11:37:04.000Z</time>
      </trkpt>
      <trkpt lat="36.81510348804295063018798828125" lon="-5.758316181600093841552734375">
        <ele>258.20001220703125</ele>
        <time>2019-11-03T11:37:11.000Z</time>
      </trkpt>
      <trkpt lat="36.8152309767901897430419921875" lon="-5.75852044858038425445556640625">
        <ele>258.79998779296875</ele>
        <time>2019-11-03T11:37:17.000Z</time>
      </trkpt>
      <trkpt lat="36.81533910334110260009765625" lon="-5.75872756540775299072265625">
        <ele>259.20001220703125</ele>
        <time>2019-11-03T11:37:23.000Z</time>
      </trkpt>
      <trkpt lat="36.81543256156146526336669921875" lon="-5.75887667946517467498779296875">
        <ele>258</ele>
        <time>2019-11-03T11:37:29.000Z</time>
      </trkpt>
      <trkpt lat="36.815531216561794281005859375" lon="-5.759022943675518035888671875">
        <ele>257</ele>
        <time>2019-11-03T11:37:40.000Z</time>
      </trkpt>
      <trkpt lat="36.81545435450971126556396484375" lon="-5.75903057120740413665771484375">
        <ele>256.600006103515625</ele>
        <time>2019-11-03T11:41:59.000Z</time>
      </trkpt>
      <trkpt lat="36.815520823001861572265625" lon="-5.7592470757663249969482421875">
        <ele>255</ele>
        <time>2019-11-03T11:42:05.000Z</time>
      </trkpt>
      <trkpt lat="36.81558662094175815582275390625" lon="-5.7594613172113895416259765625">
        <ele>253.1999969482421875</ele>
        <time>2019-11-03T11:42:10.000Z</time>
      </trkpt>
      <trkpt lat="36.8156507425010204315185546875" lon="-5.75969718396663665771484375">
        <ele>251.8000030517578125</ele>
        <time>2019-11-03T11:42:15.000Z</time>
      </trkpt>
      <trkpt lat="36.815713606774806976318359375" lon="-5.7599528320133686065673828125">
        <ele>251</ele>
        <time>2019-11-03T11:42:20.000Z</time>
      </trkpt>
      <trkpt lat="36.81577823124825954437255859375" lon="-5.7602049596607685089111328125">
        <ele>250.399993896484375</ele>
        <time>2019-11-03T11:42:25.000Z</time>
      </trkpt>
      <trkpt lat="36.81583891622722148895263671875" lon="-5.76042146421968936920166015625">
        <ele>251.399993896484375</ele>
        <time>2019-11-03T11:42:29.000Z</time>
      </trkpt>
      <trkpt lat="36.81589901447296142578125" lon="-5.76064643450081348419189453125">
        <ele>250.8000030517578125</ele>
        <time>2019-11-03T11:42:33.000Z</time>
      </trkpt>
      <trkpt lat="36.8159605376422405242919921875" lon="-5.76088674366474151611328125">
        <ele>250</ele>
        <time>2019-11-03T11:42:37.000Z</time>
      </trkpt>
      <trkpt lat="36.81601711548864841461181640625" lon="-5.7611154019832611083984375">
        <ele>250.1999969482421875</ele>
        <time>2019-11-03T11:42:41.000Z</time>
      </trkpt>
      <trkpt lat="36.816078387200832366943359375" lon="-5.7613432221114635467529296875">
        <ele>250.600006103515625</ele>
        <time>2019-11-03T11:42:45.000Z</time>
      </trkpt>
      <trkpt lat="36.81613706052303314208984375" lon="-5.761583782732486724853515625">
        <ele>250.8000030517578125</ele>
        <time>2019-11-03T11:42:49.000Z</time>
      </trkpt>
      <trkpt lat="36.8161989189684391021728515625" lon="-5.76184404082596302032470703125">
        <ele>251</ele>
        <time>2019-11-03T11:42:53.000Z</time>
      </trkpt>
      <trkpt lat="36.81626287288963794708251953125" lon="-5.762112177908420562744140625">
        <ele>251</ele>
        <time>2019-11-03T11:42:57.000Z</time>
      </trkpt>
      <trkpt lat="36.8163172714412212371826171875" lon="-5.762376375496387481689453125">
        <ele>251</ele>
        <time>2019-11-03T11:43:01.000Z</time>
      </trkpt>
      <trkpt lat="36.81636773049831390380859375" lon="-5.76263554394245147705078125">
        <ele>250</ele>
        <time>2019-11-03T11:43:05.000Z</time>
      </trkpt>
      <trkpt lat="36.81640335358679294586181640625" lon="-5.76288926415145397186279296875">
        <ele>248.600006103515625</ele>
        <time>2019-11-03T11:43:09.000Z</time>
      </trkpt>
      <trkpt lat="36.81643034331500530242919921875" lon="-5.7631377875804901123046875">
        <ele>247.600006103515625</ele>
        <time>2019-11-03T11:43:13.000Z</time>
      </trkpt>
      <trkpt lat="36.8164483644068241119384765625" lon="-5.76338480226695537567138671875">
        <ele>247.600006103515625</ele>
        <time>2019-11-03T11:43:17.000Z</time>
      </trkpt>
      <trkpt lat="36.81646152399480342864990234375" lon="-5.76362720690667629241943359375">
        <ele>246.399993896484375</ele>
        <time>2019-11-03T11:43:21.000Z</time>
      </trkpt>
      <trkpt lat="36.816472001373767852783203125" lon="-5.763871371746063232421875">
        <ele>246.600006103515625</ele>
        <time>2019-11-03T11:43:25.000Z</time>
      </trkpt>
      <trkpt lat="36.8164849095046520233154296875" lon="-5.7641219906508922576904296875">
        <ele>247</ele>
        <time>2019-11-03T11:43:29.000Z</time>
      </trkpt>
      <trkpt lat="36.81649153120815753936767578125" lon="-5.76437151990830898284912109375">
        <ele>246.600006103515625</ele>
        <time>2019-11-03T11:43:33.000Z</time>
      </trkpt>
      <trkpt lat="36.81649974547326564788818359375" lon="-5.76462063007056713104248046875">
        <ele>245.399993896484375</ele>
        <time>2019-11-03T11:43:37.000Z</time>
      </trkpt>
      <trkpt lat="36.816508881747722625732421875" lon="-5.76486974023282527923583984375">
        <ele>243.600006103515625</ele>
        <time>2019-11-03T11:43:41.000Z</time>
      </trkpt>
      <trkpt lat="36.8165154196321964263916015625" lon="-5.765121616423130035400390625">
        <ele>242.1999969482421875</ele>
        <time>2019-11-03T11:43:45.000Z</time>
      </trkpt>
      <trkpt lat="36.8165261484682559967041015625" lon="-5.76538170687854290008544921875">
        <ele>242.1999969482421875</ele>
        <time>2019-11-03T11:43:49.000Z</time>
      </trkpt>
      <trkpt lat="36.816539056599140167236328125" lon="-5.76564523391425609588623046875">
        <ele>242.1999969482421875</ele>
        <time>2019-11-03T11:43:53.000Z</time>
      </trkpt>
      <trkpt lat="36.81655171327292919158935546875" lon="-5.76589635573327541351318359375">
        <ele>243.1999969482421875</ele>
        <time>2019-11-03T11:43:57.000Z</time>
      </trkpt>
      <trkpt lat="36.81656420230865478515625" lon="-5.766143538057804107666015625">
        <ele>244.8000030517578125</ele>
        <time>2019-11-03T11:44:01.000Z</time>
      </trkpt>
      <trkpt lat="36.81657300330698490142822265625" lon="-5.76638300903141498565673828125">
        <ele>245.8000030517578125</ele>
        <time>2019-11-03T11:44:05.000Z</time>
      </trkpt>
      <trkpt lat="36.816585995256900787353515625" lon="-5.76662390492856502532958984375">
        <ele>247</ele>
        <time>2019-11-03T11:44:09.000Z</time>
      </trkpt>
      <trkpt lat="36.81659714318811893463134765625" lon="-5.76687536202371120452880859375">
        <ele>247.399993896484375</ele>
        <time>2019-11-03T11:44:13.000Z</time>
      </trkpt>
      <trkpt lat="36.81661290116608142852783203125" lon="-5.7671423256397247314453125">
        <ele>247</ele>
        <time>2019-11-03T11:44:17.000Z</time>
      </trkpt>
      <trkpt lat="36.8166274018585681915283203125" lon="-5.7674247957766056060791015625">
        <ele>246</ele>
        <time>2019-11-03T11:44:21.000Z</time>
      </trkpt>
      <trkpt lat="36.8166398070752620697021484375" lon="-5.76769745908677577972412109375">
        <ele>245.1999969482421875</ele>
        <time>2019-11-03T11:44:25.000Z</time>
      </trkpt>
      <trkpt lat="36.81664626114070415496826171875" lon="-5.7679702900350093841552734375">
        <ele>244.1999969482421875</ele>
        <time>2019-11-03T11:44:29.000Z</time>
      </trkpt>
      <trkpt lat="36.81664726696908473968505859375" lon="-5.7682542689144611358642578125">
        <ele>244.600006103515625</ele>
        <time>2019-11-03T11:44:33.000Z</time>
      </trkpt>
      <trkpt lat="36.8166572414338588714599609375" lon="-5.7684835977852344512939453125">
        <ele>244.600006103515625</ele>
        <time>2019-11-03T11:44:36.000Z</time>
      </trkpt>
      <trkpt lat="36.81666201911866664886474609375" lon="-5.7687263377010822296142578125">
        <ele>245.399993896484375</ele>
        <time>2019-11-03T11:44:39.000Z</time>
      </trkpt>
      <trkpt lat="36.81666688062250614166259765625" lon="-5.76897687278687953948974609375">
        <ele>245</ele>
        <time>2019-11-03T11:44:42.000Z</time>
      </trkpt>
      <trkpt lat="36.8166864104568958282470703125" lon="-5.76922849752008914947509765625">
        <ele>243.399993896484375</ele>
        <time>2019-11-03T11:44:45.000Z</time>
      </trkpt>
      <trkpt lat="36.8166984803974628448486328125" lon="-5.7694857381284236907958984375">
        <ele>242.600006103515625</ele>
        <time>2019-11-03T11:44:48.000Z</time>
      </trkpt>
      <trkpt lat="36.816700659692287445068359375" lon="-5.76974163763225078582763671875">
        <ele>240.399993896484375</ele>
        <time>2019-11-03T11:44:51.000Z</time>
      </trkpt>
      <trkpt lat="36.81670300662517547607421875" lon="-5.7699903286993503570556640625">
        <ele>238.399993896484375</ele>
        <time>2019-11-03T11:44:54.000Z</time>
      </trkpt>
      <trkpt lat="36.81668347679078578948974609375" lon="-5.770237259566783905029296875">
        <ele>237.1999969482421875</ele>
        <time>2019-11-03T11:44:57.000Z</time>
      </trkpt>
      <trkpt lat="36.816648356616497039794921875" lon="-5.7704577036201953887939453125">
        <ele>236.8000030517578125</ele>
        <time>2019-11-03T11:45:00.000Z</time>
      </trkpt>
      <trkpt lat="36.81659412570297718048095703125" lon="-5.77068426646292209625244140625">
        <ele>236.600006103515625</ele>
        <time>2019-11-03T11:45:03.000Z</time>
      </trkpt>
      <trkpt lat="36.81651399470865726470947265625" lon="-5.7709161937236785888671875">
        <ele>236.399993896484375</ele>
        <time>2019-11-03T11:45:06.000Z</time>
      </trkpt>
      <trkpt lat="36.81640796363353729248046875" lon="-5.7711374759674072265625">
        <ele>237.1999969482421875</ele>
        <time>2019-11-03T11:45:09.000Z</time>
      </trkpt>
      <trkpt lat="36.81627963669598102569580078125" lon="-5.7713562436401844024658203125">
        <ele>237</ele>
        <time>2019-11-03T11:45:12.000Z</time>
      </trkpt>
      <trkpt lat="36.8161201290786266326904296875" lon="-5.77156453393399715423583984375">
        <ele>235.8000030517578125</ele>
        <time>2019-11-03T11:45:15.000Z</time>
      </trkpt>
      <trkpt lat="36.81593991816043853759765625" lon="-5.77175999991595745086669921875">
        <ele>233.600006103515625</ele>
        <time>2019-11-03T11:45:18.000Z</time>
      </trkpt>
      <trkpt lat="36.8157312087714672088623046875" lon="-5.7719325833022594451904296875">
        <ele>232</ele>
        <time>2019-11-03T11:45:21.000Z</time>
      </trkpt>
      <trkpt lat="36.81550028733909130096435546875" lon="-5.77208421193063259124755859375">
        <ele>230.399993896484375</ele>
        <time>2019-11-03T11:45:24.000Z</time>
      </trkpt>
      <trkpt lat="36.8153379298746585845947265625" lon="-5.772185213863849639892578125">
        <ele>229.1999969482421875</ele>
        <time>2019-11-03T11:45:26.000Z</time>
      </trkpt>
      <trkpt lat="36.8151726387441158294677734375" lon="-5.77228621579706668853759765625">
        <ele>228.1999969482421875</ele>
        <time>2019-11-03T11:45:28.000Z</time>
      </trkpt>
      <trkpt lat="36.8150013126432895660400390625" lon="-5.77239031903445720672607421875">
        <ele>227.600006103515625</ele>
        <time>2019-11-03T11:45:30.000Z</time>
      </trkpt>
      <trkpt lat="36.814835853874683380126953125" lon="-5.77250607311725616455078125">
        <ele>227.600006103515625</ele>
        <time>2019-11-03T11:45:32.000Z</time>
      </trkpt>
      <trkpt lat="36.814675591886043548583984375" lon="-5.77263859100639820098876953125">
        <ele>227.600006103515625</ele>
        <time>2019-11-03T11:45:34.000Z</time>
      </trkpt>
      <trkpt lat="36.81451893411576747894287109375" lon="-5.7727885432541370391845703125">
        <ele>227.600006103515625</ele>
        <time>2019-11-03T11:45:36.000Z</time>
      </trkpt>
      <trkpt lat="36.81437082588672637939453125" lon="-5.77296012081205844879150390625">
        <ele>226.8000030517578125</ele>
        <time>2019-11-03T11:45:38.000Z</time>
      </trkpt>
      <trkpt lat="36.81423445232212543487548828125" lon="-5.77314385212957859039306640625">
        <ele>225.8000030517578125</ele>
        <time>2019-11-03T11:45:40.000Z</time>
      </trkpt>
      <trkpt lat="36.8140917085111141204833984375" lon="-5.773319117724895477294921875">
        <ele>224.1999969482421875</ele>
        <time>2019-11-03T11:45:42.000Z</time>
      </trkpt>
      <trkpt lat="36.81394225917756557464599609375" lon="-5.7734996639192104339599609375">
        <ele>222.399993896484375</ele>
        <time>2019-11-03T11:45:44.000Z</time>
      </trkpt>
      <trkpt lat="36.81379859335720539093017578125" lon="-5.77368867583572864532470703125">
        <ele>219.8000030517578125</ele>
        <time>2019-11-03T11:45:46.000Z</time>
      </trkpt>
      <trkpt lat="36.81365744210779666900634765625" lon="-5.7738895900547504425048828125">
        <ele>215.8000030517578125</ele>
        <time>2019-11-03T11:45:48.000Z</time>
      </trkpt>
      <trkpt lat="36.8135086633265018463134765625" lon="-5.7740981318056583404541015625">
        <ele>212.600006103515625</ele>
        <time>2019-11-03T11:45:50.000Z</time>
      </trkpt>
      <trkpt lat="36.813356615602970123291015625" lon="-5.77431178651750087738037109375">
        <ele>210.600006103515625</ele>
        <time>2019-11-03T11:45:52.000Z</time>
      </trkpt>
      <trkpt lat="36.81320548988878726959228515625" lon="-5.7745249383151531219482421875">
        <ele>210</ele>
        <time>2019-11-03T11:45:54.000Z</time>
      </trkpt>
      <trkpt lat="36.81305428035557270050048828125" lon="-5.77473674900829792022705078125">
        <ele>209.399993896484375</ele>
        <time>2019-11-03T11:45:56.000Z</time>
      </trkpt>
      <trkpt lat="36.812901310622692108154296875" lon="-5.77495082281529903411865234375">
        <ele>207.399993896484375</ele>
        <time>2019-11-03T11:45:58.000Z</time>
      </trkpt>
      <trkpt lat="36.81275940500199794769287109375" lon="-5.77517445199191570281982421875">
        <ele>205</ele>
        <time>2019-11-03T11:46:00.000Z</time>
      </trkpt>
      <trkpt lat="36.8126158230006694793701171875" lon="-5.77538810670375823974609375">
        <ele>203.1999969482421875</ele>
        <time>2019-11-03T11:46:02.000Z</time>
      </trkpt>
      <trkpt lat="36.81247307918965816497802734375" lon="-5.7755998335778713226318359375">
        <ele>201.8000030517578125</ele>
        <time>2019-11-03T11:46:04.000Z</time>
      </trkpt>
      <trkpt lat="36.81232941336929798126220703125" lon="-5.7758066989481449127197265625">
        <ele>200.399993896484375</ele>
        <time>2019-11-03T11:46:06.000Z</time>
      </trkpt>
      <trkpt lat="36.8121906928718090057373046875" lon="-5.7760212756693363189697265625">
        <ele>198</ele>
        <time>2019-11-03T11:46:08.000Z</time>
      </trkpt>
      <trkpt lat="36.81213294155895709991455078125" lon="-5.77613702975213527679443359375">
        <ele>197</ele>
        <time>2019-11-03T11:46:09.000Z</time>
      </trkpt>
      <trkpt lat="36.8120368011295795440673828125" lon="-5.77638127841055393218994140625">
        <ele>194.8000030517578125</ele>
        <time>2019-11-03T11:46:11.000Z</time>
      </trkpt>
      <trkpt lat="36.811974607408046722412109375" lon="-5.77663809992372989654541015625">
        <ele>194.399993896484375</ele>
        <time>2019-11-03T11:46:13.000Z</time>
      </trkpt>
      <trkpt lat="36.8119566701352596282958984375" lon="-5.77690632082521915435791015625">
        <ele>193.8000030517578125</ele>
        <time>2019-11-03T11:46:15.000Z</time>
      </trkpt>
      <trkpt lat="36.8119767867028713226318359375" lon="-5.77717303298413753509521484375">
        <ele>191.600006103515625</ele>
        <time>2019-11-03T11:46:17.000Z</time>
      </trkpt>
      <trkpt lat="36.81202121078968048095703125" lon="-5.77743756584823131561279296875">
        <ele>189.399993896484375</ele>
        <time>2019-11-03T11:46:19.000Z</time>
      </trkpt>
      <trkpt lat="36.81208181194961071014404296875" lon="-5.7777033559978008270263671875">
        <ele>188</ele>
        <time>2019-11-03T11:46:21.000Z</time>
      </trkpt>
      <trkpt lat="36.81215188466012477874755859375" lon="-5.77796763740479946136474609375">
        <ele>186.600006103515625</ele>
        <time>2019-11-03T11:46:23.000Z</time>
      </trkpt>
      <trkpt lat="36.8122215382754802703857421875" lon="-5.7782344333827495574951171875">
        <ele>184.600006103515625</ele>
        <time>2019-11-03T11:46:25.000Z</time>
      </trkpt>
      <trkpt lat="36.81228549219667911529541015625" lon="-5.778500139713287353515625">
        <ele>184.1999969482421875</ele>
        <time>2019-11-03T11:46:27.000Z</time>
      </trkpt>
      <trkpt lat="36.812357492744922637939453125" lon="-5.77877012081444263458251953125">
        <ele>184</ele>
        <time>2019-11-03T11:46:29.000Z</time>
      </trkpt>
      <trkpt lat="36.81242127902805805206298828125" lon="-5.779036916792392730712890625">
        <ele>183.1999969482421875</ele>
        <time>2019-11-03T11:46:31.000Z</time>
      </trkpt>
      <trkpt lat="36.812492944300174713134765625" lon="-5.77930673025548458099365234375">
        <ele>181.8000030517578125</ele>
        <time>2019-11-03T11:46:33.000Z</time>
      </trkpt>
      <trkpt lat="36.81255631148815155029296875" lon="-5.77957595698535442352294921875">
        <ele>181.1999969482421875</ele>
        <time>2019-11-03T11:46:35.000Z</time>
      </trkpt>
      <trkpt lat="36.81262730620801448822021484375" lon="-5.7798506319522857666015625">
        <ele>181</ele>
        <time>2019-11-03T11:46:37.000Z</time>
      </trkpt>
      <trkpt lat="36.81269536726176738739013671875" lon="-5.78011726029217243194580078125">
        <ele>180.1999969482421875</ele>
        <time>2019-11-03T11:46:39.000Z</time>
      </trkpt>
      <trkpt lat="36.81276175193488597869873046875" lon="-5.7803899236023426055908203125">
        <ele>177.600006103515625</ele>
        <time>2019-11-03T11:46:41.000Z</time>
      </trkpt>
      <trkpt lat="36.8128319084644317626953125" lon="-5.7806584797799587249755859375">
        <ele>175.399993896484375</ele>
        <time>2019-11-03T11:46:43.000Z</time>
      </trkpt>
      <trkpt lat="36.8129018135368824005126953125" lon="-5.780927874147891998291015625">
        <ele>173.1999969482421875</ele>
        <time>2019-11-03T11:46:45.000Z</time>
      </trkpt>
      <trkpt lat="36.81296459399163722991943359375" lon="-5.7812059856951236724853515625">
        <ele>171.600006103515625</ele>
        <time>2019-11-03T11:46:47.000Z</time>
      </trkpt>
      <trkpt lat="36.813017316162586212158203125" lon="-5.78147797845304012298583984375">
        <ele>169.600006103515625</ele>
        <time>2019-11-03T11:46:49.000Z</time>
      </trkpt>
      <trkpt lat="36.813046149909496307373046875" lon="-5.78174938447773456573486328125">
        <ele>169</ele>
        <time>2019-11-03T11:46:51.000Z</time>
      </trkpt>
      <trkpt lat="36.81305092759430408477783203125" lon="-5.78202196396887302398681640625">
        <ele>167.600006103515625</ele>
        <time>2019-11-03T11:46:53.000Z</time>
      </trkpt>
      <trkpt lat="36.81303776800632476806640625" lon="-5.7822833955287933349609375">
        <ele>166.600006103515625</ele>
        <time>2019-11-03T11:46:55.000Z</time>
      </trkpt>
      <trkpt lat="36.8129990436136722564697265625" lon="-5.78254147432744503021240234375">
        <ele>164.1999969482421875</ele>
        <time>2019-11-03T11:46:57.000Z</time>
      </trkpt>
      <trkpt lat="36.812941543757915496826171875" lon="-5.78279980458319187164306640625">
        <ele>162.1999969482421875</ele>
        <time>2019-11-03T11:46:59.000Z</time>
      </trkpt>
      <trkpt lat="36.81286149658262729644775390625" lon="-5.78305696137249469757080078125">
        <ele>159.600006103515625</ele>
        <time>2019-11-03T11:47:01.000Z</time>
      </trkpt>
      <trkpt lat="36.8127609975636005401611328125" lon="-5.7833095081150531768798828125">
        <ele>157.600006103515625</ele>
        <time>2019-11-03T11:47:03.000Z</time>
      </trkpt>
      <trkpt lat="36.812643148005008697509765625" lon="-5.78355803154408931732177734375">
        <ele>156.399993896484375</ele>
        <time>2019-11-03T11:47:05.000Z</time>
      </trkpt>
      <trkpt lat="36.81250132620334625244140625" lon="-5.783788450062274932861328125">
        <ele>155.399993896484375</ele>
        <time>2019-11-03T11:47:07.000Z</time>
      </trkpt>
      <trkpt lat="36.81233678944408893585205078125" lon="-5.78400042839348316192626953125">
        <ele>154</ele>
        <time>2019-11-03T11:47:09.000Z</time>
      </trkpt>
      <trkpt lat="36.8121501244604587554931640625" lon="-5.7841912843286991119384765625">
        <ele>152.600006103515625</ele>
        <time>2019-11-03T11:47:11.000Z</time>
      </trkpt>
      <trkpt lat="36.81194954551756381988525390625" lon="-5.78436336480081081390380859375">
        <ele>151</ele>
        <time>2019-11-03T11:47:13.000Z</time>
      </trkpt>
      <trkpt lat="36.8117373995482921600341796875" lon="-5.784519352018833160400390625">
        <ele>148.8000030517578125</ele>
        <time>2019-11-03T11:47:15.000Z</time>
      </trkpt>
      <trkpt lat="36.81151804514229297637939453125" lon="-5.7846693880856037139892578125">
        <ele>146</ele>
        <time>2019-11-03T11:47:17.000Z</time>
      </trkpt>
      <trkpt lat="36.81129894219338893890380859375" lon="-5.78482009470462799072265625">
        <ele>144.1999969482421875</ele>
        <time>2019-11-03T11:47:19.000Z</time>
      </trkpt>
      <trkpt lat="36.811078749597072601318359375" lon="-5.78496904112398624420166015625">
        <ele>142.399993896484375</ele>
        <time>2019-11-03T11:47:21.000Z</time>
      </trkpt>
      <trkpt lat="36.81086492724716663360595703125" lon="-5.78511840663850307464599609375">
        <ele>140.600006103515625</ele>
        <time>2019-11-03T11:47:23.000Z</time>
      </trkpt>
      <trkpt lat="36.81065194308757781982421875" lon="-5.78527347184717655181884765625">
        <ele>139</ele>
        <time>2019-11-03T11:47:25.000Z</time>
      </trkpt>
      <trkpt lat="36.810440719127655029296875" lon="-5.78542300499975681304931640625">
        <ele>137.600006103515625</ele>
        <time>2019-11-03T11:47:27.000Z</time>
      </trkpt>
      <trkpt lat="36.81023544631898403167724609375" lon="-5.78556918539106845855712890625">
        <ele>136.600006103515625</ele>
        <time>2019-11-03T11:47:29.000Z</time>
      </trkpt>
      <trkpt lat="36.81003277190029621124267578125" lon="-5.785716958343982696533203125">
        <ele>135.399993896484375</ele>
        <time>2019-11-03T11:47:31.000Z</time>
      </trkpt>
      <trkpt lat="36.8098313547670841217041015625" lon="-5.7858609594404697418212890625">
        <ele>134.399993896484375</ele>
        <time>2019-11-03T11:47:33.000Z</time>
      </trkpt>
      <trkpt lat="36.80963530205190181732177734375" lon="-5.78600160777568817138671875">
        <ele>132.399993896484375</ele>
        <time>2019-11-03T11:47:35.000Z</time>
      </trkpt>
      <trkpt lat="36.8094390816986560821533203125" lon="-5.78613630495965480804443359375">
        <ele>130.1999969482421875</ele>
        <time>2019-11-03T11:47:37.000Z</time>
      </trkpt>
      <trkpt lat="36.809245459735393524169921875" lon="-5.7862686552107334136962890625">
        <ele>128.8000030517578125</ele>
        <time>2019-11-03T11:47:39.000Z</time>
      </trkpt>
      <trkpt lat="36.8090538494288921356201171875" lon="-5.78639857470989227294921875">
        <ele>128.1999969482421875</ele>
        <time>2019-11-03T11:47:41.000Z</time>
      </trkpt>
      <trkpt lat="36.80886290967464447021484375" lon="-5.78652321361005306243896484375">
        <ele>127.1999969482421875</ele>
        <time>2019-11-03T11:47:43.000Z</time>
      </trkpt>
      <trkpt lat="36.8086719699203968048095703125" lon="-5.78664533793926239013671875">
        <ele>125.59999847412109375</ele>
        <time>2019-11-03T11:47:45.000Z</time>
      </trkpt>
      <trkpt lat="36.8084805272519588470458984375" lon="-5.78676561824977397918701171875">
        <ele>123.40000152587890625</ele>
        <time>2019-11-03T11:47:47.000Z</time>
      </trkpt>
      <trkpt lat="36.808291263878345489501953125" lon="-5.78688330017030239105224609375">
        <ele>123.40000152587890625</ele>
        <time>2019-11-03T11:47:49.000Z</time>
      </trkpt>
      <trkpt lat="36.80810392834246158599853515625" lon="-5.786997042596340179443359375">
        <ele>123.8000030517578125</ele>
        <time>2019-11-03T11:47:51.000Z</time>
      </trkpt>
      <trkpt lat="36.80792237631976604461669921875" lon="-5.78710525296628475189208984375">
        <ele>123</ele>
        <time>2019-11-03T11:47:53.000Z</time>
      </trkpt>
      <trkpt lat="36.8077405728399753570556640625" lon="-5.787214972078800201416015625">
        <ele>121.40000152587890625</ele>
        <time>2019-11-03T11:47:55.000Z</time>
      </trkpt>
      <trkpt lat="36.80756027810275554656982421875" lon="-5.78732301481068134307861328125">
        <ele>120</ele>
        <time>2019-11-03T11:47:57.000Z</time>
      </trkpt>
      <trkpt lat="36.8073808215558528900146484375" lon="-5.7874320633709430694580078125">
        <ele>119.1999969482421875</ele>
        <time>2019-11-03T11:47:59.000Z</time>
      </trkpt>
      <trkpt lat="36.80720404721796512603759765625" lon="-5.78753792680799961090087890625">
        <ele>118.1999969482421875</ele>
        <time>2019-11-03T11:48:01.000Z</time>
      </trkpt>
      <trkpt lat="36.8070267699658870697021484375" lon="-5.78764446079730987548828125">
        <ele>117.1999969482421875</ele>
        <time>2019-11-03T11:48:03.000Z</time>
      </trkpt>
      <trkpt lat="36.80685125291347503662109375" lon="-5.78774915076792240142822265625">
        <ele>117</ele>
        <time>2019-11-03T11:48:05.000Z</time>
      </trkpt>
      <trkpt lat="36.8066784180700778961181640625" lon="-5.78785509802401065826416015625">
        <ele>117</ele>
        <time>2019-11-03T11:48:07.000Z</time>
      </trkpt>
      <trkpt lat="36.80650918744504451751708984375" lon="-5.787957273423671722412109375">
        <ele>117</ele>
        <time>2019-11-03T11:48:09.000Z</time>
      </trkpt>
      <trkpt lat="36.806341968476772308349609375" lon="-5.7880586944520473480224609375">
        <ele>116.59999847412109375</ele>
        <time>2019-11-03T11:48:11.000Z</time>
      </trkpt>
      <trkpt lat="36.80617676116526126861572265625" lon="-5.78816078603267669677734375">
        <ele>115.8000030517578125</ele>
        <time>2019-11-03T11:48:13.000Z</time>
      </trkpt>
      <trkpt lat="36.80601448751986026763916015625" lon="-5.78825910575687885284423828125">
        <ele>115</ele>
        <time>2019-11-03T11:48:15.000Z</time>
      </trkpt>
      <trkpt lat="36.80578113533556461334228515625" lon="-5.788398496806621551513671875">
        <ele>113</ele>
        <time>2019-11-03T11:48:18.000Z</time>
      </trkpt>
      <trkpt lat="36.80554778315126895904541015625" lon="-5.78853386454284191131591796875">
        <ele>111.40000152587890625</ele>
        <time>2019-11-03T11:48:21.000Z</time>
      </trkpt>
      <trkpt lat="36.8053163588047027587890625" lon="-5.78867283649742603302001953125">
        <ele>110</ele>
        <time>2019-11-03T11:48:24.000Z</time>
      </trkpt>
      <trkpt lat="36.80507923476397991180419921875" lon="-5.7888147421181201934814453125">
        <ele>109.59999847412109375</ele>
        <time>2019-11-03T11:48:27.000Z</time>
      </trkpt>
      <trkpt lat="36.80484286509454250335693359375" lon="-5.7889595814049243927001953125">
        <ele>109</ele>
        <time>2019-11-03T11:48:30.000Z</time>
      </trkpt>
      <trkpt lat="36.80461236275732517242431640625" lon="-5.78910165466368198394775390625">
        <ele>108.59999847412109375</ele>
        <time>2019-11-03T11:48:33.000Z</time>
      </trkpt>
      <trkpt lat="36.804383955895900726318359375" lon="-5.78923861496150493621826171875">
        <ele>108.59999847412109375</ele>
        <time>2019-11-03T11:48:36.000Z</time>
      </trkpt>
      <trkpt lat="36.80416326038539409637451171875" lon="-5.78937171958386898040771484375">
        <ele>108</ele>
        <time>2019-11-03T11:48:39.000Z</time>
      </trkpt>
      <trkpt lat="36.8039542995393276214599609375" lon="-5.78949862159788608551025390625">
        <ele>106</ele>
        <time>2019-11-03T11:48:42.000Z</time>
      </trkpt>
      <trkpt lat="36.8037527985870838165283203125" lon="-5.78961496241390705108642578125">
        <ele>105.1999969482421875</ele>
        <time>2019-11-03T11:48:45.000Z</time>
      </trkpt>
      <trkpt lat="36.803561858832836151123046875" lon="-5.78972987830638885498046875">
        <ele>104.59999847412109375</ele>
        <time>2019-11-03T11:48:48.000Z</time>
      </trkpt>
      <trkpt lat="36.80338055826723575592041015625" lon="-5.78984118998050689697265625">
        <ele>103.8000030517578125</ele>
        <time>2019-11-03T11:48:51.000Z</time>
      </trkpt>
      <trkpt lat="36.80320470593869686126708984375" lon="-5.789945125579833984375">
        <ele>102.8000030517578125</ele>
        <time>2019-11-03T11:48:54.000Z</time>
      </trkpt>
      <trkpt lat="36.8030299432575702667236328125" lon="-5.79005082137882709503173828125">
        <ele>102.1999969482421875</ele>
        <time>2019-11-03T11:48:57.000Z</time>
      </trkpt>
      <trkpt lat="36.80285803042352199554443359375" lon="-5.790147297084331512451171875">
        <ele>101.8000030517578125</ele>
        <time>2019-11-03T11:49:00.000Z</time>
      </trkpt>
      <trkpt lat="36.80269340984523296356201171875" lon="-5.79024679027497768402099609375">
        <ele>101.40000152587890625</ele>
        <time>2019-11-03T11:49:03.000Z</time>
      </trkpt>
      <trkpt lat="36.80252753198146820068359375" lon="-5.79034033231437206268310546875">
        <ele>100.59999847412109375</ele>
        <time>2019-11-03T11:49:06.000Z</time>
      </trkpt>
      <trkpt lat="36.80232896469533443450927734375" lon="-5.79045675694942474365234375">
        <ele>99.1999969482421875</ele>
        <time>2019-11-03T11:49:10.000Z</time>
      </trkpt>
      <trkpt lat="36.80214808322489261627197265625" lon="-5.79056010581552982330322265625">
        <ele>97.8000030517578125</ele>
        <time>2019-11-03T11:49:14.000Z</time>
      </trkpt>
      <trkpt lat="36.80196963250637054443359375" lon="-5.7906644605100154876708984375">
        <ele>97</ele>
        <time>2019-11-03T11:49:18.000Z</time>
      </trkpt>
      <trkpt lat="36.8017890863120555877685546875" lon="-5.79077367670834064483642578125">
        <ele>97</ele>
        <time>2019-11-03T11:49:22.000Z</time>
      </trkpt>
      <trkpt lat="36.801602505147457122802734375" lon="-5.79088716767728328704833984375">
        <ele>97</ele>
        <time>2019-11-03T11:49:26.000Z</time>
      </trkpt>
      <trkpt lat="36.80141483433544635772705078125" lon="-5.79099856317043304443359375">
        <ele>96.59999847412109375</ele>
        <time>2019-11-03T11:49:30.000Z</time>
      </trkpt>
      <trkpt lat="36.80123344995081424713134765625" lon="-5.7911100424826145172119140625">
        <ele>96.1999969482421875</ele>
        <time>2019-11-03T11:49:34.000Z</time>
      </trkpt>
      <trkpt lat="36.80106564424932003021240234375" lon="-5.79121523536741733551025390625">
        <ele>96</ele>
        <time>2019-11-03T11:49:38.000Z</time>
      </trkpt>
      <trkpt lat="36.80087051354348659515380859375" lon="-5.79133643768727779388427734375">
        <ele>95.40000152587890625</ele>
        <time>2019-11-03T11:49:43.000Z</time>
      </trkpt>
      <trkpt lat="36.8006702698767185211181640625" lon="-5.791458897292613983154296875">
        <ele>95</ele>
        <time>2019-11-03T11:49:48.000Z</time>
      </trkpt>
      <trkpt lat="36.800495088100433349609375" lon="-5.79156559891998767852783203125">
        <ele>95</ele>
        <time>2019-11-03T11:49:52.000Z</time>
      </trkpt>
      <trkpt lat="36.800306998193264007568359375" lon="-5.79167908988893032073974609375">
        <ele>95</ele>
        <time>2019-11-03T11:49:56.000Z</time>
      </trkpt>
      <trkpt lat="36.80011614225804805755615234375" lon="-5.79179576598107814788818359375">
        <ele>95</ele>
        <time>2019-11-03T11:50:00.000Z</time>
      </trkpt>
      <trkpt lat="36.799931488931179046630859375" lon="-5.79190825112164020538330078125">
        <ele>95</ele>
        <time>2019-11-03T11:50:04.000Z</time>
      </trkpt>
      <trkpt lat="36.7997454106807708740234375" lon="-5.79202425666153430938720703125">
        <ele>94.8000030517578125</ele>
        <time>2019-11-03T11:50:08.000Z</time>
      </trkpt>
      <trkpt lat="36.799563355743885040283203125" lon="-5.79213825054466724395751953125">
        <ele>94.1999969482421875</ele>
        <time>2019-11-03T11:50:12.000Z</time>
      </trkpt>
      <trkpt lat="36.79937367327511310577392578125" lon="-5.79224905930459499359130859375">
        <ele>92.8000030517578125</ele>
        <time>2019-11-03T11:50:16.000Z</time>
      </trkpt>
      <trkpt lat="36.7991839908063411712646484375" lon="-5.79235902987420558929443359375">
        <ele>91.8000030517578125</ele>
        <time>2019-11-03T11:50:20.000Z</time>
      </trkpt>
      <trkpt lat="36.7989970743656158447265625" lon="-5.79246967099606990814208984375">
        <ele>91.40000152587890625</ele>
        <time>2019-11-03T11:50:24.000Z</time>
      </trkpt>
      <trkpt lat="36.79881493560969829559326171875" lon="-5.79257628880441188812255859375">
        <ele>91.59999847412109375</ele>
        <time>2019-11-03T11:50:28.000Z</time>
      </trkpt>
      <trkpt lat="36.7986247502267360687255859375" lon="-5.7926891930401325225830078125">
        <ele>92.59999847412109375</ele>
        <time>2019-11-03T11:50:32.000Z</time>
      </trkpt>
      <trkpt lat="36.79843179881572723388671875" lon="-5.79280729405581951141357421875">
        <ele>93.8000030517578125</ele>
        <time>2019-11-03T11:50:36.000Z</time>
      </trkpt>
      <trkpt lat="36.798232980072498321533203125" lon="-5.79293117858469486236572265625">
        <ele>93.40000152587890625</ele>
        <time>2019-11-03T11:50:40.000Z</time>
      </trkpt>
      <trkpt lat="36.7980420403182506561279296875" lon="-5.79304919578135013580322265625">
        <ele>92.40000152587890625</ele>
        <time>2019-11-03T11:50:44.000Z</time>
      </trkpt>
      <trkpt lat="36.7978630028665065765380859375" lon="-5.79316117800772190093994140625">
        <ele>91</ele>
        <time>2019-11-03T11:50:48.000Z</time>
      </trkpt>
      <trkpt lat="36.79769016802310943603515625" lon="-5.79326360486447811126708984375">
        <ele>89.40000152587890625</ele>
        <time>2019-11-03T11:50:52.000Z</time>
      </trkpt>
      <trkpt lat="36.79750216193497180938720703125" lon="-5.7933822087943553924560546875">
        <ele>87.8000030517578125</ele>
        <time>2019-11-03T11:50:56.000Z</time>
      </trkpt>
      <trkpt lat="36.797317005693912506103515625" lon="-5.793493688106536865234375">
        <ele>87</ele>
        <time>2019-11-03T11:51:00.000Z</time>
      </trkpt>
      <trkpt lat="36.7971243895590305328369140625" lon="-5.79360642470419406890869140625">
        <ele>87</ele>
        <time>2019-11-03T11:51:04.000Z</time>
      </trkpt>
      <trkpt lat="36.79693286307156085968017578125" lon="-5.7937272079288959503173828125">
        <ele>86.8000030517578125</ele>
        <time>2019-11-03T11:51:08.000Z</time>
      </trkpt>
      <trkpt lat="36.79674209095537662506103515625" lon="-5.79384170472621917724609375">
        <ele>86.59999847412109375</ele>
        <time>2019-11-03T11:51:12.000Z</time>
      </trkpt>
      <trkpt lat="36.79654947482049465179443359375" lon="-5.79395527951419353485107421875">
        <ele>87.40000152587890625</ele>
        <time>2019-11-03T11:51:16.000Z</time>
      </trkpt>
      <trkpt lat="36.7963631451129913330078125" lon="-5.7940708659589290618896484375">
        <ele>87.59999847412109375</ele>
        <time>2019-11-03T11:51:20.000Z</time>
      </trkpt>
      <trkpt lat="36.7961722053587436676025390625" lon="-5.79418276436626911163330078125">
        <ele>87.1999969482421875</ele>
        <time>2019-11-03T11:51:24.000Z</time>
      </trkpt>
      <trkpt lat="36.795985959470272064208984375" lon="-5.794291980564594268798828125">
        <ele>86</ele>
        <time>2019-11-03T11:51:28.000Z</time>
      </trkpt>
      <trkpt lat="36.7958132922649383544921875" lon="-5.79440538771450519561767578125">
        <ele>85</ele>
        <time>2019-11-03T11:51:32.000Z</time>
      </trkpt>
      <trkpt lat="36.79562897421419620513916015625" lon="-5.79452273435890674591064453125">
        <ele>84</ele>
        <time>2019-11-03T11:51:36.000Z</time>
      </trkpt>
      <trkpt lat="36.79544507525861263275146484375" lon="-5.7946327887475490570068359375">
        <ele>83.59999847412109375</ele>
        <time>2019-11-03T11:51:40.000Z</time>
      </trkpt>
      <trkpt lat="36.79527156986296176910400390625" lon="-5.7947420887649059295654296875">
        <ele>83.1999969482421875</ele>
        <time>2019-11-03T11:51:44.000Z</time>
      </trkpt>
      <trkpt lat="36.795100159943103790283203125" lon="-5.79484677873551845550537109375">
        <ele>83</ele>
        <time>2019-11-03T11:51:48.000Z</time>
      </trkpt>
      <trkpt lat="36.79493478499352931976318359375" lon="-5.79494652338325977325439453125">
        <ele>84</ele>
        <time>2019-11-03T11:51:52.000Z</time>
      </trkpt>
      <trkpt lat="36.79473848082125186920166015625" lon="-5.79506286419928073883056640625">
        <ele>85.8000030517578125</ele>
        <time>2019-11-03T11:51:57.000Z</time>
      </trkpt>
      <trkpt lat="36.7945575155317783355712890625" lon="-5.7951756007969379425048828125">
        <ele>88.40000152587890625</ele>
        <time>2019-11-03T11:52:02.000Z</time>
      </trkpt>
      <trkpt lat="36.79438208229839801788330078125" lon="-5.79527844674885272979736328125">
        <ele>90.40000152587890625</ele>
        <time>2019-11-03T11:52:07.000Z</time>
      </trkpt>
      <trkpt lat="36.79422031156718730926513671875" lon="-5.7953821308910846710205078125">
        <ele>92</ele>
        <time>2019-11-03T11:52:12.000Z</time>
      </trkpt>
      <trkpt lat="36.7940542660653591156005859375" lon="-5.79547592438757419586181640625">
        <ele>92.1999969482421875</ele>
        <time>2019-11-03T11:52:17.000Z</time>
      </trkpt>
      <trkpt lat="36.7938856221735477447509765625" lon="-5.79557533375918865203857421875">
        <ele>92</ele>
        <time>2019-11-03T11:52:22.000Z</time>
      </trkpt>
      <trkpt lat="36.793689988553524017333984375" lon="-5.79568346031010150909423828125">
        <ele>90.59999847412109375</ele>
        <time>2019-11-03T11:52:28.000Z</time>
      </trkpt>
      <trkpt lat="36.79350265301764011383056640625" lon="-5.79579426907002925872802734375">
        <ele>90.59999847412109375</ele>
        <time>2019-11-03T11:52:34.000Z</time>
      </trkpt>
      <trkpt lat="36.7933376133441925048828125" lon="-5.7958897389471530914306640625">
        <ele>91</ele>
        <time>2019-11-03T11:52:39.000Z</time>
      </trkpt>
      <trkpt lat="36.79317458532750606536865234375" lon="-5.79598906449973583221435546875">
        <ele>92</ele>
        <time>2019-11-03T11:52:44.000Z</time>
      </trkpt>
      <trkpt lat="36.7931439913809299468994140625" lon="-5.79600733704864978790283203125">
        <ele>92.1999969482421875</ele>
        <time>2019-11-03T11:52:45.000Z</time>
      </trkpt>
      <trkpt lat="36.792949028313159942626953125" lon="-5.7961230911314487457275390625">
        <ele>93.59999847412109375</ele>
        <time>2019-11-03T11:52:51.000Z</time>
      </trkpt>
      <trkpt lat="36.79275968112051486968994140625" lon="-5.7962478138506412506103515625">
        <ele>94.59999847412109375</ele>
        <time>2019-11-03T11:52:57.000Z</time>
      </trkpt>
      <trkpt lat="36.79258952848613262176513671875" lon="-5.79634563066065311431884765625">
        <ele>95.40000152587890625</ele>
        <time>2019-11-03T11:53:02.000Z</time>
      </trkpt>
      <trkpt lat="36.79242809303104877471923828125" lon="-5.7964473031461238861083984375">
        <ele>95</ele>
        <time>2019-11-03T11:53:07.000Z</time>
      </trkpt>
      <trkpt lat="36.792263053357601165771484375" lon="-5.79654109664261341094970703125">
        <ele>94.8000030517578125</ele>
        <time>2019-11-03T11:53:12.000Z</time>
      </trkpt>
      <trkpt lat="36.79209432564675807952880859375" lon="-5.79663078300654888153076171875">
        <ele>94.40000152587890625</ele>
        <time>2019-11-03T11:53:17.000Z</time>
      </trkpt>
      <trkpt lat="36.79192903451621532440185546875" lon="-5.79673103056848049163818359375">
        <ele>94.40000152587890625</ele>
        <time>2019-11-03T11:53:22.000Z</time>
      </trkpt>
      <trkpt lat="36.79176223464310169219970703125" lon="-5.7968295179307460784912109375">
        <ele>94.59999847412109375</ele>
        <time>2019-11-03T11:53:27.000Z</time>
      </trkpt>
      <trkpt lat="36.7915936745703220367431640625" lon="-5.79692901112139225006103515625">
        <ele>95</ele>
        <time>2019-11-03T11:53:32.000Z</time>
      </trkpt>
      <trkpt lat="36.7914300598204135894775390625" lon="-5.79702557064592838287353515625">
        <ele>95.1999969482421875</ele>
        <time>2019-11-03T11:53:37.000Z</time>
      </trkpt>
      <trkpt lat="36.79124389775097370147705078125" lon="-5.7971430011093616485595703125">
        <ele>96.1999969482421875</ele>
        <time>2019-11-03T11:53:43.000Z</time>
      </trkpt>
      <trkpt lat="36.79106268100440502166748046875" lon="-5.79725221730768680572509765625">
        <ele>97.8000030517578125</ele>
        <time>2019-11-03T11:53:49.000Z</time>
      </trkpt>
      <trkpt lat="36.79088666103780269622802734375" lon="-5.79735380597412586212158203125">
        <ele>98.8000030517578125</ele>
        <time>2019-11-03T11:53:55.000Z</time>
      </trkpt>
      <trkpt lat="36.79071064107120037078857421875" lon="-5.79746562056243419647216796875">
        <ele>98.40000152587890625</ele>
        <time>2019-11-03T11:54:01.000Z</time>
      </trkpt>
      <trkpt lat="36.790533028542995452880859375" lon="-5.79757357947528362274169921875">
        <ele>98.40000152587890625</ele>
        <time>2019-11-03T11:54:07.000Z</time>
      </trkpt>
      <trkpt lat="36.7903695814311504364013671875" lon="-5.79767432995140552520751953125">
        <ele>98.59999847412109375</ele>
        <time>2019-11-03T11:54:13.000Z</time>
      </trkpt>
      <trkpt lat="36.79019398055970668792724609375" lon="-5.7977853901684284210205078125">
        <ele>98.1999969482421875</ele>
        <time>2019-11-03T11:54:19.000Z</time>
      </trkpt>
      <trkpt lat="36.79000069387257099151611328125" lon="-5.7979050837457180023193359375">
        <ele>97.8000030517578125</ele>
        <time>2019-11-03T11:54:25.000Z</time>
      </trkpt>
      <trkpt lat="36.789812855422496795654296875" lon="-5.798014886677265167236328125">
        <ele>97.40000152587890625</ele>
        <time>2019-11-03T11:54:31.000Z</time>
      </trkpt>
      <trkpt lat="36.78962501697242259979248046875" lon="-5.798122175037860870361328125">
        <ele>98.40000152587890625</ele>
        <time>2019-11-03T11:54:37.000Z</time>
      </trkpt>
      <trkpt lat="36.789444722235202789306640625" lon="-5.79823340289294719696044921875">
        <ele>98.59999847412109375</ele>
        <time>2019-11-03T11:54:43.000Z</time>
      </trkpt>
      <trkpt lat="36.78926534950733184814453125" lon="-5.79834287054836750030517578125">
        <ele>98.1999969482421875</ele>
        <time>2019-11-03T11:54:49.000Z</time>
      </trkpt>
      <trkpt lat="36.7890837974846363067626953125" lon="-5.79845250584185123443603515625">
        <ele>98.59999847412109375</ele>
        <time>2019-11-03T11:54:55.000Z</time>
      </trkpt>
      <trkpt lat="36.78891104646027088165283203125" lon="-5.79856130294501781463623046875">
        <ele>99.40000152587890625</ele>
        <time>2019-11-03T11:55:01.000Z</time>
      </trkpt>
      <trkpt lat="36.7887461744248867034912109375" lon="-5.79866959713399410247802734375">
        <ele>100.59999847412109375</ele>
        <time>2019-11-03T11:55:07.000Z</time>
      </trkpt>
      <trkpt lat="36.78857107646763324737548828125" lon="-5.7987709343433380126953125">
        <ele>101.1999969482421875</ele>
        <time>2019-11-03T11:55:13.000Z</time>
      </trkpt>
      <trkpt lat="36.788393966853618621826171875" lon="-5.7988747023046016693115234375">
        <ele>101.40000152587890625</ele>
        <time>2019-11-03T11:55:19.000Z</time>
      </trkpt>
      <trkpt lat="36.78821484558284282684326171875" lon="-5.798985846340656280517578125">
        <ele>101.59999847412109375</ele>
        <time>2019-11-03T11:55:25.000Z</time>
      </trkpt>
      <trkpt lat="36.7880370654165744781494140625" lon="-5.79908248968422412872314453125">
        <ele>101.1999969482421875</ele>
        <time>2019-11-03T11:55:31.000Z</time>
      </trkpt>
      <trkpt lat="36.78785987198352813720703125" lon="-5.79919212497770786285400390625">
        <ele>100.40000152587890625</ele>
        <time>2019-11-03T11:55:37.000Z</time>
      </trkpt>
      <trkpt lat="36.78768360055983066558837890625" lon="-5.79929555766284465789794921875">
        <ele>99.8000030517578125</ele>
        <time>2019-11-03T11:55:43.000Z</time>
      </trkpt>
      <trkpt lat="36.7875046469271183013916015625" lon="-5.79940200783312320709228515625">
        <ele>99.8000030517578125</ele>
        <time>2019-11-03T11:55:49.000Z</time>
      </trkpt>
      <trkpt lat="36.78732988424599170684814453125" lon="-5.79950309358537197113037109375">
        <ele>100</ele>
        <time>2019-11-03T11:55:55.000Z</time>
      </trkpt>
      <trkpt lat="36.7871589772403240203857421875" lon="-5.79960853792726993560791015625">
        <ele>100.1999969482421875</ele>
        <time>2019-11-03T11:56:01.000Z</time>
      </trkpt>
      <trkpt lat="36.78698052652180194854736328125" lon="-5.79972269944846630096435546875">
        <ele>100.59999847412109375</ele>
        <time>2019-11-03T11:56:07.000Z</time>
      </trkpt>
      <trkpt lat="36.7868022434413433074951171875" lon="-5.79982847906649112701416015625">
        <ele>101.59999847412109375</ele>
        <time>2019-11-03T11:56:13.000Z</time>
      </trkpt>
      <trkpt lat="36.7866245470941066741943359375" lon="-5.79994113184511661529541015625">
        <ele>103.40000152587890625</ele>
        <time>2019-11-03T11:56:19.000Z</time>
      </trkpt>
      <trkpt lat="36.78646101616322994232177734375" lon="-5.8000371046364307403564453125">
        <ele>105</ele>
        <time>2019-11-03T11:56:25.000Z</time>
      </trkpt>
      <trkpt lat="36.78628482855856418609619140625" lon="-5.800151936709880828857421875">
        <ele>106.8000030517578125</ele>
        <time>2019-11-03T11:56:31.000Z</time>
      </trkpt>
      <trkpt lat="36.78612171672284603118896484375" lon="-5.800250507891178131103515625">
        <ele>107.59999847412109375</ele>
        <time>2019-11-03T11:56:36.000Z</time>
      </trkpt>
      <trkpt lat="36.785940416157245635986328125" lon="-5.80036374740302562713623046875">
        <ele>107.8000030517578125</ele>
        <time>2019-11-03T11:56:42.000Z</time>
      </trkpt>
      <trkpt lat="36.7857595346868038177490234375" lon="-5.8004675991833209991455078125">
        <ele>108</ele>
        <time>2019-11-03T11:56:48.000Z</time>
      </trkpt>
      <trkpt lat="36.78557856939733028411865234375" lon="-5.800573714077472686767578125">
        <ele>108.1999969482421875</ele>
        <time>2019-11-03T11:56:54.000Z</time>
      </trkpt>
      <trkpt lat="36.78540372289717197418212890625" lon="-5.8006828464567661285400390625">
        <ele>108.59999847412109375</ele>
        <time>2019-11-03T11:57:00.000Z</time>
      </trkpt>
      <trkpt lat="36.78521764464676380157470703125" lon="-5.80078921280801296234130859375">
        <ele>108.40000152587890625</ele>
        <time>2019-11-03T11:57:06.000Z</time>
      </trkpt>
      <trkpt lat="36.78503818809986114501953125" lon="-5.80090102739632129669189453125">
        <ele>108.1999969482421875</ele>
        <time>2019-11-03T11:57:12.000Z</time>
      </trkpt>
      <trkpt lat="36.7848596535623073577880859375" lon="-5.8010144345462322235107421875">
        <ele>108.40000152587890625</ele>
        <time>2019-11-03T11:57:18.000Z</time>
      </trkpt>
      <trkpt lat="36.78467349149286746978759765625" lon="-5.80112884752452373504638671875">
        <ele>109.1999969482421875</ele>
        <time>2019-11-03T11:57:24.000Z</time>
      </trkpt>
      <trkpt lat="36.78448808379471302032470703125" lon="-5.8012385666370391845703125">
        <ele>110</ele>
        <time>2019-11-03T11:57:30.000Z</time>
      </trkpt>
      <trkpt lat="36.7843084596097469329833984375" lon="-5.80134727992117404937744140625">
        <ele>111</ele>
        <time>2019-11-03T11:57:36.000Z</time>
      </trkpt>
      <trkpt lat="36.78413093090057373046875" lon="-5.8014553226530551910400390625">
        <ele>111.40000152587890625</ele>
        <time>2019-11-03T11:57:42.000Z</time>
      </trkpt>
      <trkpt lat="36.78395591676235198974609375" lon="-5.8015569113194942474365234375">
        <ele>111.40000152587890625</ele>
        <time>2019-11-03T11:57:48.000Z</time>
      </trkpt>
      <trkpt lat="36.7837726883590221405029296875" lon="-5.80167216248810291290283203125">
        <ele>111.1999969482421875</ele>
        <time>2019-11-03T11:57:54.000Z</time>
      </trkpt>
      <trkpt lat="36.78357915021479129791259765625" lon="-5.801783390343189239501953125">
        <ele>111.59999847412109375</ele>
        <time>2019-11-03T11:58:00.000Z</time>
      </trkpt>
      <trkpt lat="36.78339491598308086395263671875" lon="-5.80189109779894351959228515625">
        <ele>112.1999969482421875</ele>
        <time>2019-11-03T11:58:06.000Z</time>
      </trkpt>
      <trkpt lat="36.78321772255003452301025390625" lon="-5.80199905671179294586181640625">
        <ele>112.59999847412109375</ele>
        <time>2019-11-03T11:58:12.000Z</time>
      </trkpt>
      <trkpt lat="36.78302862681448459625244140625" lon="-5.80212528817355632781982421875">
        <ele>113.40000152587890625</ele>
        <time>2019-11-03T11:58:18.000Z</time>
      </trkpt>
      <trkpt lat="36.78286383859813213348388671875" lon="-5.80223693512380123138427734375">
        <ele>114.1999969482421875</ele>
        <time>2019-11-03T11:58:23.000Z</time>
      </trkpt>
      <trkpt lat="36.78269586525857448577880859375" lon="-5.80235713161528110504150390625">
        <ele>115</ele>
        <time>2019-11-03T11:58:28.000Z</time>
      </trkpt>
      <trkpt lat="36.78251749835908412933349609375" lon="-5.80249945633113384246826171875">
        <ele>115.59999847412109375</ele>
        <time>2019-11-03T11:58:34.000Z</time>
      </trkpt>
      <trkpt lat="36.78233091719448566436767578125" lon="-5.8026395179331302642822265625">
        <ele>115.40000152587890625</ele>
        <time>2019-11-03T11:58:40.000Z</time>
      </trkpt>
      <trkpt lat="36.7821623571217060089111328125" lon="-5.80277605913579463958740234375">
        <ele>115.1999969482421875</ele>
        <time>2019-11-03T11:58:45.000Z</time>
      </trkpt>
      <trkpt lat="36.78198541514575481414794921875" lon="-5.80293581821024417877197265625">
        <ele>114.40000152587890625</ele>
        <time>2019-11-03T11:58:50.000Z</time>
      </trkpt>
      <trkpt lat="36.78180771879851818084716796875" lon="-5.80309591256082057952880859375">
        <ele>113.1999969482421875</ele>
        <time>2019-11-03T11:58:55.000Z</time>
      </trkpt>
      <trkpt lat="36.781664974987506866455078125" lon="-5.80323957838118076324462890625">
        <ele>112.40000152587890625</ele>
        <time>2019-11-03T11:58:59.000Z</time>
      </trkpt>
      <trkpt lat="36.78150437772274017333984375" lon="-5.80341593362390995025634765625">
        <ele>111.8000030517578125</ele>
        <time>2019-11-03T11:59:04.000Z</time>
      </trkpt>
      <trkpt lat="36.78136733360588550567626953125" lon="-5.80357904545962810516357421875">
        <ele>111</ele>
        <time>2019-11-03T11:59:09.000Z</time>
      </trkpt>
      <trkpt lat="36.78122668527066707611083984375" lon="-5.80375271849334239959716796875">
        <ele>110.40000152587890625</ele>
        <time>2019-11-03T11:59:14.000Z</time>
      </trkpt>
      <trkpt lat="36.7810666747391223907470703125" lon="-5.803952626883983612060546875">
        <ele>110</ele>
        <time>2019-11-03T11:59:19.000Z</time>
      </trkpt>
      <trkpt lat="36.7809298820793628692626953125" lon="-5.8041388727724552154541015625">
        <ele>111.40000152587890625</ele>
        <time>2019-11-03T11:59:23.000Z</time>
      </trkpt>
      <trkpt lat="36.7807954363524913787841796875" lon="-5.8043430559337139129638671875">
        <ele>113</ele>
        <time>2019-11-03T11:59:27.000Z</time>
      </trkpt>
      <trkpt lat="36.78066643886268138885498046875" lon="-5.80455578863620758056640625">
        <ele>113.59999847412109375</ele>
        <time>2019-11-03T11:59:31.000Z</time>
      </trkpt>
      <trkpt lat="36.78054607473313808441162109375" lon="-5.8047581277787685394287109375">
        <ele>112.40000152587890625</ele>
        <time>2019-11-03T11:59:35.000Z</time>
      </trkpt>
      <trkpt lat="36.78042151965200901031494140625" lon="-5.80496055074036121368408203125">
        <ele>110.8000030517578125</ele>
        <time>2019-11-03T11:59:39.000Z</time>
      </trkpt>
      <trkpt lat="36.78029872477054595947265625" lon="-5.80515383742749691009521484375">
        <ele>109.59999847412109375</ele>
        <time>2019-11-03T11:59:43.000Z</time>
      </trkpt>
      <trkpt lat="36.78017073310911655426025390625" lon="-5.80537176690995693206787109375">
        <ele>108</ele>
        <time>2019-11-03T11:59:47.000Z</time>
      </trkpt>
      <trkpt lat="36.78003251552581787109375" lon="-5.8055993355810642242431640625">
        <ele>105.59999847412109375</ele>
        <time>2019-11-03T11:59:51.000Z</time>
      </trkpt>
      <trkpt lat="36.77992413751780986785888671875" lon="-5.80578021705150604248046875">
        <ele>103.59999847412109375</ele>
        <time>2019-11-03T11:59:54.000Z</time>
      </trkpt>
      <trkpt lat="36.779810227453708648681640625" lon="-5.805966295301914215087890625">
        <ele>101.8000030517578125</ele>
        <time>2019-11-03T11:59:57.000Z</time>
      </trkpt>
      <trkpt lat="36.7797004245221614837646484375" lon="-5.80614809878170490264892578125">
        <ele>101.8000030517578125</ele>
        <time>2019-11-03T12:00:00.000Z</time>
      </trkpt>
      <trkpt lat="36.77955382503569126129150390625" lon="-5.80638044513761997222900390625">
        <ele>102.1999969482421875</ele>
        <time>2019-11-03T12:00:04.000Z</time>
      </trkpt>
      <trkpt lat="36.7794379033148288726806640625" lon="-5.80655495636165142059326171875">
        <ele>102.40000152587890625</ele>
        <time>2019-11-03T12:00:07.000Z</time>
      </trkpt>
      <trkpt lat="36.77931175567209720611572265625" lon="-5.80672594718635082244873046875">
        <ele>102.8000030517578125</ele>
        <time>2019-11-03T12:00:10.000Z</time>
      </trkpt>
      <trkpt lat="36.77918351255357265472412109375" lon="-5.80690314061939716339111328125">
        <ele>102.40000152587890625</ele>
        <time>2019-11-03T12:00:13.000Z</time>
      </trkpt>
      <trkpt lat="36.77905644290149211883544921875" lon="-5.8070755563676357269287109375">
        <ele>101.8000030517578125</ele>
        <time>2019-11-03T12:00:16.000Z</time>
      </trkpt>
      <trkpt lat="36.77893255837261676788330078125" lon="-5.80724327825009822845458984375">
        <ele>101.1999969482421875</ele>
        <time>2019-11-03T12:00:19.000Z</time>
      </trkpt>
      <trkpt lat="36.778768859803676605224609375" lon="-5.8074537478387355804443359375">
        <ele>99.8000030517578125</ele>
        <time>2019-11-03T12:00:23.000Z</time>
      </trkpt>
      <trkpt lat="36.77860558032989501953125" lon="-5.8076653070747852325439453125">
        <ele>98.40000152587890625</ele>
        <time>2019-11-03T12:00:27.000Z</time>
      </trkpt>
      <trkpt lat="36.7784461565315723419189453125" lon="-5.807857923209667205810546875">
        <ele>97</ele>
        <time>2019-11-03T12:00:31.000Z</time>
      </trkpt>
      <trkpt lat="36.77831296809017658233642578125" lon="-5.80800921656191349029541015625">
        <ele>96.40000152587890625</ele>
        <time>2019-11-03T12:00:35.000Z</time>
      </trkpt>
      <trkpt lat="36.77820802666246891021728515625" lon="-5.8081239648163318634033203125">
        <ele>95.8000030517578125</ele>
        <time>2019-11-03T12:00:41.000Z</time>
      </trkpt>
      <trkpt lat="36.77821288816630840301513671875" lon="-5.8081216178834438323974609375">
        <ele>95.8000030517578125</ele>
        <time>2019-11-03T12:00:44.000Z</time>
      </trkpt>
      <trkpt lat="36.77816309966146945953369140625" lon="-5.80815933644771575927734375">
        <ele>95.59999847412109375</ele>
        <time>2019-11-03T12:05:58.000Z</time>
      </trkpt>
      <trkpt lat="36.77801440469920635223388671875" lon="-5.80829470418393611907958984375">
        <ele>94.8000030517578125</ele>
        <time>2019-11-03T12:06:04.000Z</time>
      </trkpt>
      <trkpt lat="36.77786185406148433685302734375" lon="-5.80843837000429630279541015625">
        <ele>94</ele>
        <time>2019-11-03T12:06:09.000Z</time>
      </trkpt>
      <trkpt lat="36.7777155898511409759521484375" lon="-5.80857650376856327056884765625">
        <ele>94.40000152587890625</ele>
        <time>2019-11-03T12:06:13.000Z</time>
      </trkpt>
      <trkpt lat="36.777551807463169097900390625" lon="-5.8087244443595409393310546875">
        <ele>95</ele>
        <time>2019-11-03T12:06:17.000Z</time>
      </trkpt>
      <trkpt lat="36.77738810889422893524169921875" lon="-5.80886609852313995361328125">
        <ele>95</ele>
        <time>2019-11-03T12:06:21.000Z</time>
      </trkpt>
      <trkpt lat="36.77722851745784282684326171875" lon="-5.80901605077087879180908203125">
        <ele>94.59999847412109375</ele>
        <time>2019-11-03T12:06:25.000Z</time>
      </trkpt>
      <trkpt lat="36.77707563154399394989013671875" lon="-5.8091784082353115081787109375">
        <ele>93.40000152587890625</ele>
        <time>2019-11-03T12:06:29.000Z</time>
      </trkpt>
      <trkpt lat="36.77692794241011142730712890625" lon="-5.80936037935316562652587890625">
        <ele>92.1999969482421875</ele>
        <time>2019-11-03T12:06:33.000Z</time>
      </trkpt>
      <trkpt lat="36.77678930573165416717529296875" lon="-5.80955953337252140045166015625">
        <ele>91</ele>
        <time>2019-11-03T12:06:37.000Z</time>
      </trkpt>
      <trkpt lat="36.7766708694398403167724609375" lon="-5.80976807512342929840087890625">
        <ele>90.40000152587890625</ele>
        <time>2019-11-03T12:06:41.000Z</time>
      </trkpt>
      <trkpt lat="36.776569448411464691162109375" lon="-5.80996890552341938018798828125">
        <ele>90</ele>
        <time>2019-11-03T12:06:45.000Z</time>
      </trkpt>
      <trkpt lat="36.77647246979176998138427734375" lon="-5.81019580364227294921875">
        <ele>90</ele>
        <time>2019-11-03T12:06:50.000Z</time>
      </trkpt>
      <trkpt lat="36.77638496272265911102294921875" lon="-5.81043175421655178070068359375">
        <ele>90.8000030517578125</ele>
        <time>2019-11-03T12:06:56.000Z</time>
      </trkpt>
      <trkpt lat="36.7763017304241657257080078125" lon="-5.8106477558612823486328125">
        <ele>92.1999969482421875</ele>
        <time>2019-11-03T12:07:02.000Z</time>
      </trkpt>
      <trkpt lat="36.7762645147740840911865234375" lon="-5.81074607558548450469970703125">
        <ele>92.8000030517578125</ele>
        <time>2019-11-03T12:07:05.000Z</time>
      </trkpt>
      <trkpt lat="36.776190586388111114501953125" lon="-5.81098630093038082122802734375">
        <ele>94</ele>
        <time>2019-11-03T12:07:12.000Z</time>
      </trkpt>
      <trkpt lat="36.77617239765822887420654296875" lon="-5.81121529452502727508544921875">
        <ele>94</ele>
        <time>2019-11-03T12:07:18.000Z</time>
      </trkpt>
      <trkpt lat="36.77613417617976665496826171875" lon="-5.8114747144281864166259765625">
        <ele>94.1999969482421875</ele>
        <time>2019-11-03T12:07:24.000Z</time>
      </trkpt>
      <trkpt lat="36.7759443260729312896728515625" lon="-5.81155694089829921722412109375">
        <ele>94.59999847412109375</ele>
        <time>2019-11-03T12:07:30.000Z</time>
      </trkpt>
      <trkpt lat="36.7758189328014850616455078125" lon="-5.811520479619503021240234375">
        <ele>95</ele>
        <time>2019-11-03T12:07:38.000Z</time>
      </trkpt>
      <trkpt lat="36.775821782648563385009765625" lon="-5.81152173690497875213623046875">
        <ele>95</ele>
        <time>2019-11-03T12:07:41.000Z</time>
      </trkpt>
      <trkpt lat="36.77590048871934413909912109375" lon="-5.811549313366413116455078125">
        <ele>94.8000030517578125</ele>
        <time>2019-11-03T12:08:03.000Z</time>
      </trkpt>
      <trkpt lat="36.77594952285289764404296875" lon="-5.81159055233001708984375">
        <ele>94.40000152587890625</ele>
        <time>2019-11-03T12:08:06.000Z</time>
      </trkpt>
      <trkpt lat="36.77590266801416873931884765625" lon="-5.8117539994418621063232421875">
        <ele>94</ele>
        <time>2019-11-03T12:08:11.000Z</time>
      </trkpt>
      <trkpt lat="36.77575447596609592437744140625" lon="-5.8119182847440242767333984375">
        <ele>93.40000152587890625</ele>
        <time>2019-11-03T12:08:17.000Z</time>
      </trkpt>
      <trkpt lat="36.77558030001819133758544921875" lon="-5.811981149017810821533203125">
        <ele>93.1999969482421875</ele>
        <time>2019-11-03T12:08:22.000Z</time>
      </trkpt>
      <trkpt lat="36.775392629206180572509765625" lon="-5.81191786564886569976806640625">
        <ele>92.59999847412109375</ele>
        <time>2019-11-03T12:08:28.000Z</time>
      </trkpt>
      <trkpt lat="36.7752529866993427276611328125" lon="-5.81186749041080474853515625">
        <ele>92.1999969482421875</ele>
        <time>2019-11-03T12:08:31.000Z</time>
      </trkpt>
      <trkpt lat="36.77502240054309368133544921875" lon="-5.81191216595470905303955078125">
        <ele>91.1999969482421875</ele>
        <time>2019-11-03T12:08:35.000Z</time>
      </trkpt>
      <trkpt lat="36.7749639786779880523681640625" lon="-5.81194334663450717926025390625">
        <ele>91</ele>
        <time>2019-11-03T12:08:36.000Z</time>
      </trkpt>
      <trkpt lat="36.77478401921689510345458984375" lon="-5.81202012486755847930908203125">
        <ele>90</ele>
        <time>2019-11-03T12:08:39.000Z</time>
      </trkpt>
      <trkpt lat="36.77456625737249851226806640625" lon="-5.81208474934101104736328125">
        <ele>89.8000030517578125</ele>
        <time>2019-11-03T12:08:43.000Z</time>
      </trkpt>
      <trkpt lat="36.774364672601222991943359375" lon="-5.81218625418841838836669921875">
        <ele>90.59999847412109375</ele>
        <time>2019-11-03T12:08:48.000Z</time>
      </trkpt>
      <trkpt lat="36.77420181222259998321533203125" lon="-5.81231801770627498626708984375">
        <ele>91</ele>
        <time>2019-11-03T12:08:53.000Z</time>
      </trkpt>
      <trkpt lat="36.7741029895842075347900390625" lon="-5.81248381175100803375244140625">
        <ele>91</ele>
        <time>2019-11-03T12:08:58.000Z</time>
      </trkpt>
      <trkpt lat="36.77407658658921718597412109375" lon="-5.8125512860715389251708984375">
        <ele>91</ele>
        <time>2019-11-03T12:09:01.000Z</time>
      </trkpt>
      <trkpt lat="36.77407675422728061676025390625" lon="-5.81256478093564510345458984375">
        <ele>91</ele>
        <time>2019-11-03T12:09:05.000Z</time>
      </trkpt>
      <trkpt lat="36.774081699550151824951171875" lon="-5.81263669766485691070556640625">
        <ele>91</ele>
        <time>2019-11-03T12:09:11.000Z</time>
      </trkpt>
      <trkpt lat="36.7740845493972301483154296875" lon="-5.81280265934765338897705078125">
        <ele>91</ele>
        <time>2019-11-03T12:09:20.000Z</time>
      </trkpt>
      <trkpt lat="36.77416048943996429443359375" lon="-5.81278807483613491058349609375">
        <ele>91</ele>
        <time>2019-11-03T12:09:29.000Z</time>
      </trkpt>
      <trkpt lat="36.774177253246307373046875" lon="-5.8126874081790447235107421875">
        <ele>91</ele>
        <time>2019-11-03T12:10:39.000Z</time>
      </trkpt>
      <trkpt lat="36.77419343031942844390869140625" lon="-5.81242941319942474365234375">
        <ele>91</ele>
        <time>2019-11-03T12:10:47.000Z</time>
      </trkpt>
      <trkpt lat="36.77431429736316204071044921875" lon="-5.81222145818173885345458984375">
        <ele>90.8000030517578125</ele>
        <time>2019-11-03T12:10:53.000Z</time>
      </trkpt>
      <trkpt lat="36.77449232898652553558349609375" lon="-5.8121070452034473419189453125">
        <ele>90</ele>
        <time>2019-11-03T12:10:58.000Z</time>
      </trkpt>
      <trkpt lat="36.77468695677816867828369140625" lon="-5.812022387981414794921875">
        <ele>90</ele>
        <time>2019-11-03T12:11:03.000Z</time>
      </trkpt>
      <trkpt lat="36.77489248104393482208251953125" lon="-5.811951644718647003173828125">
        <ele>90.59999847412109375</ele>
        <time>2019-11-03T12:11:09.000Z</time>
      </trkpt>
      <trkpt lat="36.7750742845237255096435546875" lon="-5.81184209324419498443603515625">
        <ele>91.59999847412109375</ele>
        <time>2019-11-03T12:11:15.000Z</time>
      </trkpt>
      <trkpt lat="36.77526363171637058258056640625" lon="-5.811822228133678436279296875">
        <ele>92.40000152587890625</ele>
        <time>2019-11-03T12:11:22.000Z</time>
      </trkpt>
      <trkpt lat="36.77545406855642795562744140625" lon="-5.811898000538349151611328125">
        <ele>93.1999969482421875</ele>
        <time>2019-11-03T12:11:30.000Z</time>
      </trkpt>
      <trkpt lat="36.77564333193004131317138671875" lon="-5.8119394071400165557861328125">
        <ele>93.59999847412109375</ele>
        <time>2019-11-03T12:11:39.000Z</time>
      </trkpt>
      <trkpt lat="36.77582287229597568511962890625" lon="-5.8118495531380176544189453125">
        <ele>93.59999847412109375</ele>
        <time>2019-11-03T12:11:47.000Z</time>
      </trkpt>
      <trkpt lat="36.7759362794458866119384765625" lon="-5.81165157258510589599609375">
        <ele>94.1999969482421875</ele>
        <time>2019-11-03T12:11:56.000Z</time>
      </trkpt>
      <trkpt lat="36.7759463377296924591064453125" lon="-5.81156146712601184844970703125">
        <ele>94.59999847412109375</ele>
        <time>2019-11-03T12:12:01.000Z</time>
      </trkpt>
      <trkpt lat="36.77580560557544231414794921875" lon="-5.8114126883447170257568359375">
        <ele>95.1999969482421875</ele>
        <time>2019-11-03T12:12:08.000Z</time>
      </trkpt>
      <trkpt lat="36.77577459253370761871337890625" lon="-5.81117279827594757080078125">
        <ele>96</ele>
        <time>2019-11-03T12:12:15.000Z</time>
      </trkpt>
      <trkpt lat="36.77577517926692962646484375" lon="-5.81113767810165882110595703125">
        <ele>95.8000030517578125</ele>
        <time>2019-11-03T12:12:16.000Z</time>
      </trkpt>
      <trkpt lat="36.77571005187928676605224609375" lon="-5.81090214662253856658935546875">
        <ele>95.59999847412109375</ele>
        <time>2019-11-03T12:12:23.000Z</time>
      </trkpt>
      <trkpt lat="36.77559840492904186248779296875" lon="-5.8107230253517627716064453125">
        <ele>95.1999969482421875</ele>
        <time>2019-11-03T12:12:29.000Z</time>
      </trkpt>
      <trkpt lat="36.7754856683313846588134765625" lon="-5.81054423935711383819580078125">
        <ele>95.1999969482421875</ele>
        <time>2019-11-03T12:12:35.000Z</time>
      </trkpt>
      <trkpt lat="36.77535407245159149169921875" lon="-5.81033385358750820159912109375">
        <ele>96</ele>
        <time>2019-11-03T12:12:41.000Z</time>
      </trkpt>
      <trkpt lat="36.775232367217540740966796875" lon="-5.81014526076614856719970703125">
        <ele>96.40000152587890625</ele>
        <time>2019-11-03T12:12:46.000Z</time>
      </trkpt>
      <trkpt lat="36.77509280852973461151123046875" lon="-5.80994660966098308563232421875">
        <ele>97.40000152587890625</ele>
        <time>2019-11-03T12:12:51.000Z</time>
      </trkpt>
      <trkpt lat="36.774911172688007354736328125" lon="-5.80981182865798473358154296875">
        <ele>98</ele>
        <time>2019-11-03T12:12:56.000Z</time>
      </trkpt>
      <trkpt lat="36.7747329734265804290771484375" lon="-5.8097074739634990692138671875">
        <ele>98.40000152587890625</ele>
        <time>2019-11-03T12:13:01.000Z</time>
      </trkpt>
      <trkpt lat="36.774630881845951080322265625" lon="-5.809496752917766571044921875">
        <ele>98.59999847412109375</ele>
        <time>2019-11-03T12:13:06.000Z</time>
      </trkpt>
      <trkpt lat="36.7744654230773448944091796875" lon="-5.80935233272612094879150390625">
        <ele>98.59999847412109375</ele>
        <time>2019-11-03T12:13:11.000Z</time>
      </trkpt>
      <trkpt lat="36.7742749862372875213623046875" lon="-5.80929550342261791229248046875">
        <ele>98.1999969482421875</ele>
        <time>2019-11-03T12:13:16.000Z</time>
      </trkpt>
      <trkpt lat="36.7740684561431407928466796875" lon="-5.8092712797224521636962890625">
        <ele>98</ele>
        <time>2019-11-03T12:13:22.000Z</time>
      </trkpt>
      <trkpt lat="36.77385513670742511749267578125" lon="-5.8092672564089298248291015625">
        <ele>98.8000030517578125</ele>
        <time>2019-11-03T12:13:28.000Z</time>
      </trkpt>
      <trkpt lat="36.773651205003261566162109375" lon="-5.8092759735882282257080078125">
        <ele>100.1999969482421875</ele>
        <time>2019-11-03T12:13:34.000Z</time>
      </trkpt>
      <trkpt lat="36.7734485305845737457275390625" lon="-5.80928728915750980377197265625">
        <ele>101.8000030517578125</ele>
        <time>2019-11-03T12:13:40.000Z</time>
      </trkpt>
      <trkpt lat="36.773247532546520233154296875" lon="-5.8092947490513324737548828125">
        <ele>102.40000152587890625</ele>
        <time>2019-11-03T12:13:46.000Z</time>
      </trkpt>
      <trkpt lat="36.77305466495454311370849609375" lon="-5.80928452312946319580078125">
        <ele>102.8000030517578125</ele>
        <time>2019-11-03T12:13:52.000Z</time>
      </trkpt>
      <trkpt lat="36.77286573685705661773681640625" lon="-5.80926901660859584808349609375">
        <ele>103</ele>
        <time>2019-11-03T12:13:58.000Z</time>
      </trkpt>
      <trkpt lat="36.7726872861385345458984375" lon="-5.8092330582439899444580078125">
        <ele>103</ele>
        <time>2019-11-03T12:14:04.000Z</time>
      </trkpt>
      <trkpt lat="36.7724929936230182647705078125" lon="-5.80918737687170505523681640625">
        <ele>103.8000030517578125</ele>
        <time>2019-11-03T12:14:11.000Z</time>
      </trkpt>
      <trkpt lat="36.7723055742681026458740234375" lon="-5.80911613069474697113037109375">
        <ele>105</ele>
        <time>2019-11-03T12:14:19.000Z</time>
      </trkpt>
      <trkpt lat="36.7721188254654407501220703125" lon="-5.8090577088296413421630859375">
        <ele>106</ele>
        <time>2019-11-03T12:14:27.000Z</time>
      </trkpt>
      <trkpt lat="36.7719317413866519927978515625" lon="-5.80900146625936031341552734375">
        <ele>107.8000030517578125</ele>
        <time>2019-11-03T12:14:35.000Z</time>
      </trkpt>
      <trkpt lat="36.771754883229732513427734375" lon="-5.8089393563568592071533203125">
        <ele>109</ele>
        <time>2019-11-03T12:14:43.000Z</time>
      </trkpt>
      <trkpt lat="36.7715786956250667572021484375" lon="-5.808887220919132232666015625">
        <ele>112</ele>
        <time>2019-11-03T12:14:51.000Z</time>
      </trkpt>
      <trkpt lat="36.771390438079833984375" lon="-5.80882544629275798797607421875">
        <ele>114</ele>
        <time>2019-11-03T12:15:00.000Z</time>
      </trkpt>
      <trkpt lat="36.771196983754634857177734375" lon="-5.808757804334163665771484375">
        <ele>115.8000030517578125</ele>
        <time>2019-11-03T12:15:09.000Z</time>
      </trkpt>
      <trkpt lat="36.77102138288319110870361328125" lon="-5.80868504941463470458984375">
        <ele>116.59999847412109375</ele>
        <time>2019-11-03T12:15:17.000Z</time>
      </trkpt>
      <trkpt lat="36.770844273269176483154296875" lon="-5.8086134679615497589111328125">
        <ele>117.59999847412109375</ele>
        <time>2019-11-03T12:15:25.000Z</time>
      </trkpt>
      <trkpt lat="36.77066884003579616546630859375" lon="-5.8085216023027896881103515625">
        <ele>118.40000152587890625</ele>
        <time>2019-11-03T12:15:33.000Z</time>
      </trkpt>
      <trkpt lat="36.77049181424081325531005859375" lon="-5.8084402978420257568359375">
        <ele>119.40000152587890625</ele>
        <time>2019-11-03T12:15:41.000Z</time>
      </trkpt>
      <trkpt lat="36.7703160457313060760498046875" lon="-5.8083868212997913360595703125">
        <ele>120.1999969482421875</ele>
        <time>2019-11-03T12:15:48.000Z</time>
      </trkpt>
      <trkpt lat="36.770126111805438995361328125" lon="-5.808338038623332977294921875">
        <ele>120.40000152587890625</ele>
        <time>2019-11-03T12:15:55.000Z</time>
      </trkpt>
      <trkpt lat="36.76994740962982177734375" lon="-5.80827894620597362518310546875">
        <ele>121</ele>
        <time>2019-11-03T12:16:01.000Z</time>
      </trkpt>
      <trkpt lat="36.76975521259009838104248046875" lon="-5.8082315884530544281005859375">
        <ele>121.1999969482421875</ele>
        <time>2019-11-03T12:16:07.000Z</time>
      </trkpt>
      <trkpt lat="36.769563518464565277099609375" lon="-5.8082067780196666717529296875">
        <ele>120.59999847412109375</ele>
        <time>2019-11-03T12:16:13.000Z</time>
      </trkpt>
      <trkpt lat="36.769370734691619873046875" lon="-5.8081967197358608245849609375">
        <ele>120.1999969482421875</ele>
        <time>2019-11-03T12:16:19.000Z</time>
      </trkpt>
      <trkpt lat="36.7691764421761035919189453125" lon="-5.808193869888782501220703125">
        <ele>120.59999847412109375</ele>
        <time>2019-11-03T12:16:25.000Z</time>
      </trkpt>
      <trkpt lat="36.7689950577914714813232421875" lon="-5.80820568837225437164306640625">
        <ele>122.40000152587890625</ele>
        <time>2019-11-03T12:16:31.000Z</time>
      </trkpt>
      <trkpt lat="36.7687885276973247528076171875" lon="-5.80823133699595928192138671875">
        <ele>123.59999847412109375</ele>
        <time>2019-11-03T12:16:37.000Z</time>
      </trkpt>
      <trkpt lat="36.7685987614095211029052734375" lon="-5.808250866830348968505859375">
        <ele>124</ele>
        <time>2019-11-03T12:16:42.000Z</time>
      </trkpt>
      <trkpt lat="36.76840371452271938323974609375" lon="-5.80827039666473865509033203125">
        <ele>123.40000152587890625</ele>
        <time>2019-11-03T12:16:47.000Z</time>
      </trkpt>
      <trkpt lat="36.7681863717734813690185546875" lon="-5.80822429619729518890380859375">
        <ele>124</ele>
        <time>2019-11-03T12:16:52.000Z</time>
      </trkpt>
      <trkpt lat="36.7680116929113864898681640625" lon="-5.808136872947216033935546875">
        <ele>124</ele>
        <time>2019-11-03T12:16:56.000Z</time>
      </trkpt>
      <trkpt lat="36.76782536320388317108154296875" lon="-5.8080136589705944061279296875">
        <ele>122.8000030517578125</ele>
        <time>2019-11-03T12:17:01.000Z</time>
      </trkpt>
      <trkpt lat="36.76766677759587764739990234375" lon="-5.80783906392753124237060546875">
        <ele>121.40000152587890625</ele>
        <time>2019-11-03T12:17:06.000Z</time>
      </trkpt>
      <trkpt lat="36.7675322480499744415283203125" lon="-5.8076891116797924041748046875">
        <ele>120.1999969482421875</ele>
        <time>2019-11-03T12:17:10.000Z</time>
      </trkpt>
      <trkpt lat="36.76735798828303813934326171875" lon="-5.80760814249515533447265625">
        <ele>120</ele>
        <time>2019-11-03T12:17:14.000Z</time>
      </trkpt>
      <trkpt lat="36.7671731673181056976318359375" lon="-5.80761845223605632781982421875">
        <ele>120.1999969482421875</ele>
        <time>2019-11-03T12:17:18.000Z</time>
      </trkpt>
      <trkpt lat="36.7669606022536754608154296875" lon="-5.80765306949615478515625">
        <ele>120.40000152587890625</ele>
        <time>2019-11-03T12:17:23.000Z</time>
      </trkpt>
      <trkpt lat="36.76675365306437015533447265625" lon="-5.8076891116797924041748046875">
        <ele>121.40000152587890625</ele>
        <time>2019-11-03T12:17:28.000Z</time>
      </trkpt>
      <trkpt lat="36.76654108799993991851806640625" lon="-5.807722471654415130615234375">
        <ele>122.1999969482421875</ele>
        <time>2019-11-03T12:17:33.000Z</time>
      </trkpt>
      <trkpt lat="36.76633707247674465179443359375" lon="-5.80775566399097442626953125">
        <ele>122.59999847412109375</ele>
        <time>2019-11-03T12:17:38.000Z</time>
      </trkpt>
      <trkpt lat="36.7661385051906108856201171875" lon="-5.80779589712619781494140625">
        <ele>122.59999847412109375</ele>
        <time>2019-11-03T12:17:43.000Z</time>
      </trkpt>
      <trkpt lat="36.7659386806190013885498046875" lon="-5.80782967619597911834716796875">
        <ele>122</ele>
        <time>2019-11-03T12:17:48.000Z</time>
      </trkpt>
      <trkpt lat="36.7657365091145038604736328125" lon="-5.80785951577126979827880859375">
        <ele>123.1999969482421875</ele>
        <time>2019-11-03T12:17:53.000Z</time>
      </trkpt>
      <trkpt lat="36.76553852856159210205078125" lon="-5.80788784660398960113525390625">
        <ele>124</ele>
        <time>2019-11-03T12:17:58.000Z</time>
      </trkpt>
      <trkpt lat="36.76534599624574184417724609375" lon="-5.80791902728378772735595703125">
        <ele>124.1999969482421875</ele>
        <time>2019-11-03T12:18:03.000Z</time>
      </trkpt>
      <trkpt lat="36.76515497267246246337890625" lon="-5.8079492859542369842529296875">
        <ele>124.59999847412109375</ele>
        <time>2019-11-03T12:18:08.000Z</time>
      </trkpt>
      <trkpt lat="36.76496998406946659088134765625" lon="-5.80799178220331668853759765625">
        <ele>124.59999847412109375</ele>
        <time>2019-11-03T12:18:13.000Z</time>
      </trkpt>
      <trkpt lat="36.76475892774760723114013671875" lon="-5.80802782438695430755615234375">
        <ele>124.40000152587890625</ele>
        <time>2019-11-03T12:18:19.000Z</time>
      </trkpt>
      <trkpt lat="36.76455692388117313385009765625" lon="-5.8080642856657505035400390625">
        <ele>123.8000030517578125</ele>
        <time>2019-11-03T12:18:25.000Z</time>
      </trkpt>
      <trkpt lat="36.76436095498502254486083984375" lon="-5.8080917783081531524658203125">
        <ele>123.8000030517578125</ele>
        <time>2019-11-03T12:18:31.000Z</time>
      </trkpt>
      <trkpt lat="36.7641687579452991485595703125" lon="-5.808122456073760986328125">
        <ele>124.40000152587890625</ele>
        <time>2019-11-03T12:18:37.000Z</time>
      </trkpt>
      <trkpt lat="36.7639867030084133148193359375" lon="-5.80816076137125492095947265625">
        <ele>125.8000030517578125</ele>
        <time>2019-11-03T12:18:43.000Z</time>
      </trkpt>
      <trkpt lat="36.763780005276203155517578125" lon="-5.8082077838480472564697265625">
        <ele>127.59999847412109375</ele>
        <time>2019-11-03T12:18:50.000Z</time>
      </trkpt>
      <trkpt lat="36.76359786652028560638427734375" lon="-5.8082342706620693206787109375">
        <ele>129</ele>
        <time>2019-11-03T12:18:56.000Z</time>
      </trkpt>
      <trkpt lat="36.7634068429470062255859375" lon="-5.80827173776924610137939453125">
        <ele>130</ele>
        <time>2019-11-03T12:19:02.000Z</time>
      </trkpt>
      <trkpt lat="36.7632029950618743896484375" lon="-5.80830627121031284332275390625">
        <ele>130.399993896484375</ele>
        <time>2019-11-03T12:19:09.000Z</time>
      </trkpt>
      <trkpt lat="36.7629966326057910919189453125" lon="-5.8083509467542171478271484375">
        <ele>131.1999969482421875</ele>
        <time>2019-11-03T12:19:16.000Z</time>
      </trkpt>
      <trkpt lat="36.76280946470797061920166015625" lon="-5.808382965624332427978515625">
        <ele>132</ele>
        <time>2019-11-03T12:19:22.000Z</time>
      </trkpt>
      <trkpt lat="36.76261366344988346099853515625" lon="-5.80842831172049045562744140625">
        <ele>132.8000030517578125</ele>
        <time>2019-11-03T12:19:28.000Z</time>
      </trkpt>
      <trkpt lat="36.76242121495306491851806640625" lon="-5.80847390927374362945556640625">
        <ele>133.600006103515625</ele>
        <time>2019-11-03T12:19:34.000Z</time>
      </trkpt>
      <trkpt lat="36.762226335704326629638671875" lon="-5.8085142262279987335205078125">
        <ele>134.1999969482421875</ele>
        <time>2019-11-03T12:19:40.000Z</time>
      </trkpt>
      <trkpt lat="36.7620404250919818878173828125" lon="-5.80855202861130237579345703125">
        <ele>135.399993896484375</ele>
        <time>2019-11-03T12:19:46.000Z</time>
      </trkpt>
      <trkpt lat="36.7618583701550960540771484375" lon="-5.80859779380261898040771484375">
        <ele>136.600006103515625</ele>
        <time>2019-11-03T12:19:52.000Z</time>
      </trkpt>
      <trkpt lat="36.76166013814508914947509765625" lon="-5.8086366020143032073974609375">
        <ele>137.8000030517578125</ele>
        <time>2019-11-03T12:19:59.000Z</time>
      </trkpt>
      <trkpt lat="36.7615978606045246124267578125" lon="-5.80864875577390193939208984375">
        <ele>138.1999969482421875</ele>
        <time>2019-11-03T12:20:03.000Z</time>
      </trkpt>
      <trkpt lat="36.76159542985260486602783203125" lon="-5.80865378491580486297607421875">
        <ele>138.1999969482421875</ele>
        <time>2019-11-03T12:20:07.000Z</time>
      </trkpt>
      <trkpt lat="36.76148495636880397796630859375" lon="-5.8086604066193103790283203125">
        <ele>138.8000030517578125</ele>
        <time>2019-11-03T12:22:10.000Z</time>
      </trkpt>
      <trkpt lat="36.761413626372814178466796875" lon="-5.808697454631328582763671875">
        <ele>139.399993896484375</ele>
        <time>2019-11-03T12:22:14.000Z</time>
      </trkpt>
      <trkpt lat="36.761392168700695037841796875" lon="-5.80870843492448329925537109375">
        <ele>139.399993896484375</ele>
        <time>2019-11-03T12:22:16.000Z</time>
      </trkpt>
      <trkpt lat="36.76122662611305713653564453125" lon="-5.808821506798267364501953125">
        <ele>140.1999969482421875</ele>
        <time>2019-11-03T12:22:24.000Z</time>
      </trkpt>
      <trkpt lat="36.76103987731039524078369140625" lon="-5.80883114598691463470458984375">
        <ele>141.600006103515625</ele>
        <time>2019-11-03T12:22:30.000Z</time>
      </trkpt>
      <trkpt lat="36.76083519123494625091552734375" lon="-5.80878856591880321502685546875">
        <ele>142.600006103515625</ele>
        <time>2019-11-03T12:22:37.000Z</time>
      </trkpt>
      <trkpt lat="36.7606443352997303009033203125" lon="-5.80882729031145572662353515625">
        <ele>144.399993896484375</ele>
        <time>2019-11-03T12:22:44.000Z</time>
      </trkpt>
      <trkpt lat="36.760485582053661346435546875" lon="-5.8089406974613666534423828125">
        <ele>145.600006103515625</ele>
        <time>2019-11-03T12:22:51.000Z</time>
      </trkpt>
      <trkpt lat="36.76035189069807529449462890625" lon="-5.8091193996369838714599609375">
        <ele>146</ele>
        <time>2019-11-03T12:22:59.000Z</time>
      </trkpt>
      <trkpt lat="36.76025516353547573089599609375" lon="-5.8093209005892276763916015625">
        <ele>145.399993896484375</ele>
        <time>2019-11-03T12:23:07.000Z</time>
      </trkpt>
      <trkpt lat="36.76019062288105487823486328125" lon="-5.80954461358487606048583984375">
        <ele>146</ele>
        <time>2019-11-03T12:23:15.000Z</time>
      </trkpt>
      <trkpt lat="36.76012583076953887939453125" lon="-5.8097668178379535675048828125">
        <ele>146.8000030517578125</ele>
        <time>2019-11-03T12:23:23.000Z</time>
      </trkpt>
      <trkpt lat="36.76009708084166049957275390625" lon="-5.8100011758506298065185546875">
        <ele>149.1999969482421875</ele>
        <time>2019-11-03T12:23:31.000Z</time>
      </trkpt>
      <trkpt lat="36.7601011879742145538330078125" lon="-5.81022639758884906768798828125">
        <ele>152</ele>
        <time>2019-11-03T12:23:38.000Z</time>
      </trkpt>
      <trkpt lat="36.7601345479488372802734375" lon="-5.81045924685895442962646484375">
        <ele>154.1999969482421875</ele>
        <time>2019-11-03T12:23:46.000Z</time>
      </trkpt>
      <trkpt lat="36.76019799895584583282470703125" lon="-5.810683630406856536865234375">
        <ele>154.600006103515625</ele>
        <time>2019-11-03T12:23:54.000Z</time>
      </trkpt>
      <trkpt lat="36.76026991568505764007568359375" lon="-5.8109101094305515289306640625">
        <ele>155.1999969482421875</ele>
        <time>2019-11-03T12:24:02.000Z</time>
      </trkpt>
      <trkpt lat="36.760360188782215118408203125" lon="-5.81114086322486400604248046875">
        <ele>155.8000030517578125</ele>
        <time>2019-11-03T12:24:10.000Z</time>
      </trkpt>
      <trkpt lat="36.7604448460042476654052734375" lon="-5.81137220375239849090576171875">
        <ele>156</ele>
        <time>2019-11-03T12:24:18.000Z</time>
      </trkpt>
      <trkpt lat="36.76056244410574436187744140625" lon="-5.81157387234270572662353515625">
        <ele>156.8000030517578125</ele>
        <time>2019-11-03T12:24:26.000Z</time>
      </trkpt>
      <trkpt lat="36.76072304137051105499267578125" lon="-5.81170295365154743194580078125">
        <ele>157.600006103515625</ele>
        <time>2019-11-03T12:24:33.000Z</time>
      </trkpt>
      <trkpt lat="36.76074944436550140380859375" lon="-5.81193077377974987030029296875">
        <ele>159.1999969482421875</ele>
        <time>2019-11-03T12:24:39.000Z</time>
      </trkpt>
      <trkpt lat="36.760721616446971893310546875" lon="-5.812167227268218994140625">
        <ele>161.399993896484375</ele>
        <time>2019-11-03T12:24:47.000Z</time>
      </trkpt>
      <trkpt lat="36.76076964475214481353759765625" lon="-5.81241122446954250335693359375">
        <ele>163.399993896484375</ele>
        <time>2019-11-03T12:24:55.000Z</time>
      </trkpt>
      <trkpt lat="36.76080753095448017120361328125" lon="-5.81265681423246860504150390625">
        <ele>165.600006103515625</ele>
        <time>2019-11-03T12:25:03.000Z</time>
      </trkpt>
      <trkpt lat="36.76081784069538116455078125" lon="-5.81289653666317462921142578125">
        <ele>167.8000030517578125</ele>
        <time>2019-11-03T12:25:11.000Z</time>
      </trkpt>
      <trkpt lat="36.760809123516082763671875" lon="-5.813143886625766754150390625">
        <ele>169</ele>
        <time>2019-11-03T12:25:19.000Z</time>
      </trkpt>
      <trkpt lat="36.76077081821858882904052734375" lon="-5.8133881352841854095458984375">
        <ele>169.399993896484375</ele>
        <time>2019-11-03T12:25:27.000Z</time>
      </trkpt>
      <trkpt lat="36.76070761866867542266845703125" lon="-5.81361738033592700958251953125">
        <ele>170.1999969482421875</ele>
        <time>2019-11-03T12:25:35.000Z</time>
      </trkpt>
      <trkpt lat="36.76063603721559047698974609375" lon="-5.81384235061705112457275390625">
        <ele>170.8000030517578125</ele>
        <time>2019-11-03T12:25:43.000Z</time>
      </trkpt>
      <trkpt lat="36.7605434171855449676513671875" lon="-5.8140623755753040313720703125">
        <ele>172</ele>
        <time>2019-11-03T12:25:51.000Z</time>
      </trkpt>
      <trkpt lat="36.76044912077486515045166015625" lon="-5.81427737139165401458740234375">
        <ele>173</ele>
        <time>2019-11-03T12:25:59.000Z</time>
      </trkpt>
      <trkpt lat="36.76035876385867595672607421875" lon="-5.81448691897094249725341796875">
        <ele>174</ele>
        <time>2019-11-03T12:26:07.000Z</time>
      </trkpt>
      <trkpt lat="36.76025725901126861572265625" lon="-5.814678780734539031982421875">
        <ele>175.1999969482421875</ele>
        <time>2019-11-03T12:26:15.000Z</time>
      </trkpt>
      <trkpt lat="36.76014753989875316619873046875" lon="-5.814874581992626190185546875">
        <ele>176.1999969482421875</ele>
        <time>2019-11-03T12:26:23.000Z</time>
      </trkpt>
      <trkpt lat="36.7600326240062713623046875" lon="-5.81506476737558841705322265625">
        <ele>176.600006103515625</ele>
        <time>2019-11-03T12:26:31.000Z</time>
      </trkpt>
      <trkpt lat="36.75991636700928211212158203125" lon="-5.8152489177882671356201171875">
        <ele>177.600006103515625</ele>
        <time>2019-11-03T12:26:39.000Z</time>
      </trkpt>
      <trkpt lat="36.7597934044897556304931640625" lon="-5.8154195733368396759033203125">
        <ele>179.399993896484375</ele>
        <time>2019-11-03T12:26:47.000Z</time>
      </trkpt>
      <trkpt lat="36.7596505768597126007080078125" lon="-5.81559198908507823944091796875">
        <ele>182.1999969482421875</ele>
        <time>2019-11-03T12:26:56.000Z</time>
      </trkpt>
      <trkpt lat="36.759523339569568634033203125" lon="-5.815761387348175048828125">
        <ele>184.399993896484375</ele>
        <time>2019-11-03T12:27:04.000Z</time>
      </trkpt>
      <trkpt lat="36.7593860439956188201904296875" lon="-5.815930031239986419677734375">
        <ele>186</ele>
        <time>2019-11-03T12:27:12.000Z</time>
      </trkpt>
      <trkpt lat="36.75924598239362239837646484375" lon="-5.8161087334156036376953125">
        <ele>187</ele>
        <time>2019-11-03T12:27:21.000Z</time>
      </trkpt>
      <trkpt lat="36.759112961590290069580078125" lon="-5.81628148443996906280517578125">
        <ele>188.1999969482421875</ele>
        <time>2019-11-03T12:27:29.000Z</time>
      </trkpt>
      <trkpt lat="36.7589780129492282867431640625" lon="-5.816456414759159088134765625">
        <ele>189.8000030517578125</ele>
        <time>2019-11-03T12:27:37.000Z</time>
      </trkpt>
      <trkpt lat="36.7588358558714389801025390625" lon="-5.81663503311574459075927734375">
        <ele>190.8000030517578125</ele>
        <time>2019-11-03T12:27:45.000Z</time>
      </trkpt>
      <trkpt lat="36.7586873285472393035888671875" lon="-5.816809795796871185302734375">
        <ele>192.399993896484375</ele>
        <time>2019-11-03T12:27:53.000Z</time>
      </trkpt>
      <trkpt lat="36.7585331015288829803466796875" lon="-5.8169782720506191253662109375">
        <ele>193.600006103515625</ele>
        <time>2019-11-03T12:28:00.000Z</time>
      </trkpt>
      <trkpt lat="36.7584006674587726593017578125" lon="-5.8171405456960201263427734375">
        <ele>195.1999969482421875</ele>
        <time>2019-11-03T12:28:07.000Z</time>
      </trkpt>
      <trkpt lat="36.75824333913624286651611328125" lon="-5.81731027923524379730224609375">
        <ele>195.1999969482421875</ele>
        <time>2019-11-03T12:28:14.000Z</time>
      </trkpt>
      <trkpt lat="36.75810277462005615234375" lon="-5.81745981238782405853271484375">
        <ele>194.8000030517578125</ele>
        <time>2019-11-03T12:28:19.000Z</time>
      </trkpt>
      <trkpt lat="36.75796204246580600738525390625" lon="-5.8176577091217041015625">
        <ele>194.8000030517578125</ele>
        <time>2019-11-03T12:28:25.000Z</time>
      </trkpt>
      <trkpt lat="36.757828183472156524658203125" lon="-5.817836411297321319580078125">
        <ele>194.600006103515625</ele>
        <time>2019-11-03T12:28:30.000Z</time>
      </trkpt>
      <trkpt lat="36.757651157677173614501953125" lon="-5.81792349927127361297607421875">
        <ele>193</ele>
        <time>2019-11-03T12:28:35.000Z</time>
      </trkpt>
      <trkpt lat="36.7574803344905376434326171875" lon="-5.81808996386826038360595703125">
        <ele>191.8000030517578125</ele>
        <time>2019-11-03T12:28:41.000Z</time>
      </trkpt>
      <trkpt lat="36.75730825401842594146728515625" lon="-5.81826179288327693939208984375">
        <ele>191.399993896484375</ele>
        <time>2019-11-03T12:28:47.000Z</time>
      </trkpt>
      <trkpt lat="36.75715017132461071014404296875" lon="-5.8184333704411983489990234375">
        <ele>192</ele>
        <time>2019-11-03T12:28:52.000Z</time>
      </trkpt>
      <trkpt lat="36.75699309445917606353759765625" lon="-5.81861483864486217498779296875">
        <ele>193</ele>
        <time>2019-11-03T12:28:57.000Z</time>
      </trkpt>
      <trkpt lat="36.756831742823123931884765625" lon="-5.818791948258876800537109375">
        <ele>194</ele>
        <time>2019-11-03T12:29:02.000Z</time>
      </trkpt>
      <trkpt lat="36.756680868566036224365234375" lon="-5.81897023133933544158935546875">
        <ele>194.600006103515625</ele>
        <time>2019-11-03T12:29:07.000Z</time>
      </trkpt>
      <trkpt lat="36.756525970995426177978515625" lon="-5.8191411383450031280517578125">
        <ele>193.399993896484375</ele>
        <time>2019-11-03T12:29:12.000Z</time>
      </trkpt>
      <trkpt lat="36.756377778947353363037109375" lon="-5.81931070424616336822509765625">
        <ele>193</ele>
        <time>2019-11-03T12:29:17.000Z</time>
      </trkpt>
      <trkpt lat="36.75622992217540740966796875" lon="-5.81948722712695598602294921875">
        <ele>193</ele>
        <time>2019-11-03T12:29:22.000Z</time>
      </trkpt>
      <trkpt lat="36.75609178841114044189453125" lon="-5.81965184770524501800537109375">
        <ele>192</ele>
        <time>2019-11-03T12:29:26.000Z</time>
      </trkpt>
      <trkpt lat="36.75594619475305080413818359375" lon="-5.81982099451124668121337890625">
        <ele>190.1999969482421875</ele>
        <time>2019-11-03T12:29:30.000Z</time>
      </trkpt>
      <trkpt lat="36.7557838372886180877685546875" lon="-5.8200048096477985382080078125">
        <ele>188.399993896484375</ele>
        <time>2019-11-03T12:29:35.000Z</time>
      </trkpt>
      <trkpt lat="36.7557234875857830047607421875" lon="-5.82021561451256275177001953125">
        <ele>187.600006103515625</ele>
        <time>2019-11-03T12:29:39.000Z</time>
      </trkpt>
      <trkpt lat="36.7555595375597476959228515625" lon="-5.82034888677299022674560546875">
        <ele>187</ele>
        <time>2019-11-03T12:29:43.000Z</time>
      </trkpt>
      <trkpt lat="36.75539265386760234832763671875" lon="-5.82045567221939563751220703125">
        <ele>187</ele>
        <time>2019-11-03T12:29:46.000Z</time>
      </trkpt>
      <trkpt lat="36.755284108221530914306640625" lon="-5.8205747790634632110595703125">
        <ele>187</ele>
        <time>2019-11-03T12:29:48.000Z</time>
      </trkpt>
      <trkpt lat="36.7551008798182010650634765625" lon="-5.8207665570080280303955078125">
        <ele>186.600006103515625</ele>
        <time>2019-11-03T12:29:51.000Z</time>
      </trkpt>
      <trkpt lat="36.7549017257988452911376953125" lon="-5.82096881233155727386474609375">
        <ele>186.8000030517578125</ele>
        <time>2019-11-03T12:29:54.000Z</time>
      </trkpt>
      <trkpt lat="36.7546824552118778228759765625" lon="-5.8211598359048366546630859375">
        <ele>187</ele>
        <time>2019-11-03T12:29:57.000Z</time>
      </trkpt>
      <trkpt lat="36.7545255459845066070556640625" lon="-5.82127525471150875091552734375">
        <ele>186.8000030517578125</ele>
        <time>2019-11-03T12:29:59.000Z</time>
      </trkpt>
      <trkpt lat="36.7543609254062175750732421875" lon="-5.82137734629213809967041015625">
        <ele>184.8000030517578125</ele>
        <time>2019-11-03T12:30:01.000Z</time>
      </trkpt>
      <trkpt lat="36.7541875876486301422119140625" lon="-5.8214642666280269622802734375">
        <ele>182.8000030517578125</ele>
        <time>2019-11-03T12:30:03.000Z</time>
      </trkpt>
      <trkpt lat="36.75400461070239543914794921875" lon="-5.821537189185619354248046875">
        <ele>180</ele>
        <time>2019-11-03T12:30:05.000Z</time>
      </trkpt>
      <trkpt lat="36.75382104702293872833251953125" lon="-5.82158823497593402862548828125">
        <ele>178.1999969482421875</ele>
        <time>2019-11-03T12:30:07.000Z</time>
      </trkpt>
      <trkpt lat="36.75356657244265079498291015625" lon="-5.82162796519696712493896484375">
        <ele>176.600006103515625</ele>
        <time>2019-11-03T12:30:10.000Z</time>
      </trkpt>
      <trkpt lat="36.75349264405667781829833984375" lon="-5.821649841964244842529296875">
        <ele>176.1999969482421875</ele>
        <time>2019-11-03T12:30:11.000Z</time>
      </trkpt>
      <trkpt lat="36.75327622331678867340087890625" lon="-5.8217281289398670196533203125">
        <ele>174.399993896484375</ele>
        <time>2019-11-03T12:30:14.000Z</time>
      </trkpt>
      <trkpt lat="36.75305879674851894378662109375" lon="-5.8216339163482189178466796875">
        <ele>173.399993896484375</ele>
        <time>2019-11-03T12:30:17.000Z</time>
      </trkpt>
      <trkpt lat="36.7528925836086273193359375" lon="-5.82158085890114307403564453125">
        <ele>172.1999969482421875</ele>
        <time>2019-11-03T12:30:19.000Z</time>
      </trkpt>
      <trkpt lat="36.7526319064199924468994140625" lon="-5.8215160667896270751953125">
        <ele>169.600006103515625</ele>
        <time>2019-11-03T12:30:22.000Z</time>
      </trkpt>
      <trkpt lat="36.7524481751024723052978515625" lon="-5.82146267406642436981201171875">
        <ele>168.1999969482421875</ele>
        <time>2019-11-03T12:30:24.000Z</time>
      </trkpt>
      <trkpt lat="36.75225329585373401641845703125" lon="-5.821402072906494140625">
        <ele>167.600006103515625</ele>
        <time>2019-11-03T12:30:26.000Z</time>
      </trkpt>
      <trkpt lat="36.75205104053020477294921875" lon="-5.82134616561233997344970703125">
        <ele>166</ele>
        <time>2019-11-03T12:30:28.000Z</time>
      </trkpt>
      <trkpt lat="36.75184409134089946746826171875" lon="-5.821296460926532745361328125">
        <ele>163.1999969482421875</ele>
        <time>2019-11-03T12:30:30.000Z</time>
      </trkpt>
      <trkpt lat="36.75162884406745433807373046875" lon="-5.82125832326710224151611328125">
        <ele>160.1999969482421875</ele>
        <time>2019-11-03T12:30:32.000Z</time>
      </trkpt>
      <trkpt lat="36.75140705890953540802001953125" lon="-5.82123116590082645416259765625">
        <ele>157.600006103515625</ele>
        <time>2019-11-03T12:30:34.000Z</time>
      </trkpt>
      <trkpt lat="36.75118041224777698516845703125" lon="-5.82121557556092739105224609375">
        <ele>154.1999969482421875</ele>
        <time>2019-11-03T12:30:36.000Z</time>
      </trkpt>
      <trkpt lat="36.75094638951122760772705078125" lon="-5.82121490500867366790771484375">
        <ele>150</ele>
        <time>2019-11-03T12:30:38.000Z</time>
      </trkpt>
      <trkpt lat="36.7507050745189189910888671875" lon="-5.82123669795691967010498046875">
        <ele>147.1999969482421875</ele>
        <time>2019-11-03T12:30:40.000Z</time>
      </trkpt>
      <trkpt lat="36.7504606582224369049072265625" lon="-5.82126569934189319610595703125">
        <ele>144.600006103515625</ele>
        <time>2019-11-03T12:30:42.000Z</time>
      </trkpt>
      <trkpt lat="36.7502138949930667877197265625" lon="-5.82131716422736644744873046875">
        <ele>141.399993896484375</ele>
        <time>2019-11-03T12:30:44.000Z</time>
      </trkpt>
      <trkpt lat="36.74997635185718536376953125" lon="-5.82140601240098476409912109375">
        <ele>140.1999969482421875</ele>
        <time>2019-11-03T12:30:46.000Z</time>
      </trkpt>
      <trkpt lat="36.74974492751061916351318359375" lon="-5.8215135522186756134033203125">
        <ele>140.600006103515625</ele>
        <time>2019-11-03T12:30:48.000Z</time>
      </trkpt>
      <trkpt lat="36.74951962195336818695068359375" lon="-5.82163752056658267974853515625">
        <ele>142.1999969482421875</ele>
        <time>2019-11-03T12:30:50.000Z</time>
      </trkpt>
      <trkpt lat="36.74931426532566547393798828125" lon="-5.82175235264003276824951171875">
        <ele>143.1999969482421875</ele>
        <time>2019-11-03T12:30:52.000Z</time>
      </trkpt>
      <trkpt lat="36.74914662726223468780517578125" lon="-5.82184354774653911590576171875">
        <ele>143</ele>
        <time>2019-11-03T12:30:54.000Z</time>
      </trkpt>
      <trkpt lat="36.74899491481482982635498046875" lon="-5.82196357659995555877685546875">
        <ele>142.8000030517578125</ele>
        <time>2019-11-03T12:30:57.000Z</time>
      </trkpt>
      <trkpt lat="36.74891780130565166473388671875" lon="-5.82217379473149776458740234375">
        <ele>143.600006103515625</ele>
        <time>2019-11-03T12:31:01.000Z</time>
      </trkpt>
      <trkpt lat="36.7487447150051593780517578125" lon="-5.8222858607769012451171875">
        <ele>144.600006103515625</ele>
        <time>2019-11-03T12:31:05.000Z</time>
      </trkpt>
      <trkpt lat="36.74863683991134166717529296875" lon="-5.82226716913282871246337890625">
        <ele>144.600006103515625</ele>
        <time>2019-11-03T12:31:07.000Z</time>
      </trkpt>
      <trkpt lat="36.7485824413597583770751953125" lon="-5.8222628943622112274169921875">
        <ele>144.399993896484375</ele>
        <time>2019-11-03T12:31:08.000Z</time>
      </trkpt>
      <trkpt lat="36.7483770847320556640625" lon="-5.82233187742531299591064453125">
        <ele>145</ele>
        <time>2019-11-03T12:31:12.000Z</time>
      </trkpt>
      <trkpt lat="36.748182959854602813720703125" lon="-5.822432041168212890625">
        <ele>144.8000030517578125</ele>
        <time>2019-11-03T12:31:16.000Z</time>
      </trkpt>
      <trkpt lat="36.747991852462291717529296875" lon="-5.82254041917622089385986328125">
        <ele>145</ele>
        <time>2019-11-03T12:31:20.000Z</time>
      </trkpt>
      <trkpt lat="36.7478133179247379302978515625" lon="-5.8226625435054302215576171875">
        <ele>145.600006103515625</ele>
        <time>2019-11-03T12:31:24.000Z</time>
      </trkpt>
      <trkpt lat="36.74764685332775115966796875" lon="-5.82278952933847904205322265625">
        <ele>146.399993896484375</ele>
        <time>2019-11-03T12:31:28.000Z</time>
      </trkpt>
      <trkpt lat="36.74748726189136505126953125" lon="-5.822939984500408172607421875">
        <ele>147</ele>
        <time>2019-11-03T12:31:32.000Z</time>
      </trkpt>
      <trkpt lat="36.74732901155948638916015625" lon="-5.8231020905077457427978515625">
        <ele>147</ele>
        <time>2019-11-03T12:31:36.000Z</time>
      </trkpt>
      <trkpt lat="36.7471746169030666351318359375" lon="-5.8232747577130794525146484375">
        <ele>145.8000030517578125</ele>
        <time>2019-11-03T12:31:40.000Z</time>
      </trkpt>
      <trkpt lat="36.74707411788403987884521484375" lon="-5.8234155736863613128662109375">
        <ele>144.8000030517578125</ele>
        <time>2019-11-03T12:31:43.000Z</time>
      </trkpt>
      <trkpt lat="36.74695811234414577484130859375" lon="-5.82361497916281223297119140625">
        <ele>143.8000030517578125</ele>
        <time>2019-11-03T12:31:47.000Z</time>
      </trkpt>
      <trkpt lat="36.7468561045825481414794921875" lon="-5.82384221255779266357421875">
        <ele>142.8000030517578125</ele>
        <time>2019-11-03T12:31:51.000Z</time>
      </trkpt>
      <trkpt lat="36.7468249239027500152587890625" lon="-5.823976993560791015625">
        <ele>142.1999969482421875</ele>
        <time>2019-11-03T12:31:53.000Z</time>
      </trkpt>
      <trkpt lat="36.7467729561030864715576171875" lon="-5.8242661692202091217041015625">
        <ele>142.1999969482421875</ele>
        <time>2019-11-03T12:31:57.000Z</time>
      </trkpt>
      <trkpt lat="36.7466458864510059356689453125" lon="-5.82441846840083599090576171875">
        <ele>141.399993896484375</ele>
        <time>2019-11-03T12:32:00.000Z</time>
      </trkpt>
      <trkpt lat="36.7464715428650379180908203125" lon="-5.824385695159435272216796875">
        <ele>141</ele>
        <time>2019-11-03T12:32:03.000Z</time>
      </trkpt>
      <trkpt lat="36.7463575489819049835205078125" lon="-5.82419081591069698333740234375">
        <ele>141</ele>
        <time>2019-11-03T12:32:07.000Z</time>
      </trkpt>
      <trkpt lat="36.7462755739688873291015625" lon="-5.82403801381587982177734375">
        <ele>141</ele>
        <time>2019-11-03T12:32:10.000Z</time>
      </trkpt>
      <trkpt lat="36.7460863105952739715576171875" lon="-5.82391773350536823272705078125">
        <ele>140</ele>
        <time>2019-11-03T12:32:14.000Z</time>
      </trkpt>
      <trkpt lat="36.746030151844024658203125" lon="-5.823899209499359130859375">
        <ele>139.600006103515625</ele>
        <time>2019-11-03T12:32:15.000Z</time>
      </trkpt>
      <trkpt lat="36.74585136584937572479248046875" lon="-5.82386358641088008880615234375">
        <ele>139</ele>
        <time>2019-11-03T12:32:18.000Z</time>
      </trkpt>
      <trkpt lat="36.74565690569579601287841796875" lon="-5.82383341155946254730224609375">
        <ele>138</ele>
        <time>2019-11-03T12:32:21.000Z</time>
      </trkpt>
      <trkpt lat="36.7454345338046550750732421875" lon="-5.8238222636282444000244140625">
        <ele>137.399993896484375</ele>
        <time>2019-11-03T12:32:24.000Z</time>
      </trkpt>
      <trkpt lat="36.7451760359108448028564453125" lon="-5.82385964691638946533203125">
        <ele>136.399993896484375</ele>
        <time>2019-11-03T12:32:27.000Z</time>
      </trkpt>
      <trkpt lat="36.74499423243105411529541015625" lon="-5.82391605712473392486572265625">
        <ele>135.600006103515625</ele>
        <time>2019-11-03T12:32:29.000Z</time>
      </trkpt>
      <trkpt lat="36.74480781890451908111572265625" lon="-5.82398612983524799346923828125">
        <ele>135</ele>
        <time>2019-11-03T12:32:31.000Z</time>
      </trkpt>
      <trkpt lat="36.7446198128163814544677734375" lon="-5.8240666799247264862060546875">
        <ele>134.399993896484375</ele>
        <time>2019-11-03T12:32:33.000Z</time>
      </trkpt>
      <trkpt lat="36.744434572756290435791015625" lon="-5.82414303906261920928955078125">
        <ele>133.8000030517578125</ele>
        <time>2019-11-03T12:32:35.000Z</time>
      </trkpt>
      <trkpt lat="36.744255535304546356201171875" lon="-5.824216715991497039794921875">
        <ele>133.1999969482421875</ele>
        <time>2019-11-03T12:32:37.000Z</time>
      </trkpt>
      <trkpt lat="36.74407792277634143829345703125" lon="-5.8242832683026790618896484375">
        <ele>132</ele>
        <time>2019-11-03T12:32:39.000Z</time>
      </trkpt>
      <trkpt lat="36.7438989691436290740966796875" lon="-5.8243479765951633453369140625">
        <ele>130.600006103515625</ele>
        <time>2019-11-03T12:32:41.000Z</time>
      </trkpt>
      <trkpt lat="36.74372588284313678741455078125" lon="-5.8244182169437408447265625">
        <ele>129.399993896484375</ele>
        <time>2019-11-03T12:32:43.000Z</time>
      </trkpt>
      <trkpt lat="36.7434741742908954620361328125" lon="-5.8245260082185268402099609375">
        <ele>128</ele>
        <time>2019-11-03T12:32:46.000Z</time>
      </trkpt>
      <trkpt lat="36.74324124120175838470458984375" lon="-5.82462667487561702728271484375">
        <ele>127.8000030517578125</ele>
        <time>2019-11-03T12:32:49.000Z</time>
      </trkpt>
      <trkpt lat="36.74304594285786151885986328125" lon="-5.82472306676208972930908203125">
        <ele>128.1999969482421875</ele>
        <time>2019-11-03T12:32:52.000Z</time>
      </trkpt>
      <trkpt lat="36.74282214604318141937255859375" lon="-5.82481174729764461517333984375">
        <ele>129.1999969482421875</ele>
        <time>2019-11-03T12:32:56.000Z</time>
      </trkpt>
      <trkpt lat="36.74262567423284053802490234375" lon="-5.82489036954939365386962890625">
        <ele>129.1999969482421875</ele>
        <time>2019-11-03T12:33:00.000Z</time>
      </trkpt>
      <trkpt lat="36.74245082773268222808837890625" lon="-5.82495826296508312225341796875">
        <ele>129.600006103515625</ele>
        <time>2019-11-03T12:33:04.000Z</time>
      </trkpt>
      <trkpt lat="36.7422584630548954010009765625" lon="-5.82498961128294467926025390625">
        <ele>130.8000030517578125</ele>
        <time>2019-11-03T12:33:09.000Z</time>
      </trkpt>
      <trkpt lat="36.74204899929463863372802734375" lon="-5.824964046478271484375">
        <ele>133.600006103515625</ele>
        <time>2019-11-03T12:33:15.000Z</time>
      </trkpt>
      <trkpt lat="36.74185118637979030609130859375" lon="-5.82488559186458587646484375">
        <ele>134.399993896484375</ele>
        <time>2019-11-03T12:33:21.000Z</time>
      </trkpt>
      <trkpt lat="36.7416576482355594635009765625" lon="-5.82479012198746204376220703125">
        <ele>135.399993896484375</ele>
        <time>2019-11-03T12:33:27.000Z</time>
      </trkpt>
      <trkpt lat="36.7414940334856510162353515625" lon="-5.82467897795140743255615234375">
        <ele>137</ele>
        <time>2019-11-03T12:33:33.000Z</time>
      </trkpt>
      <trkpt lat="36.74130954779684543609619140625" lon="-5.82455702126026153564453125">
        <ele>138.399993896484375</ele>
        <time>2019-11-03T12:33:40.000Z</time>
      </trkpt>
      <trkpt lat="36.74113973043859004974365234375" lon="-5.82443573512136936187744140625">
        <ele>139.1999969482421875</ele>
        <time>2019-11-03T12:33:47.000Z</time>
      </trkpt>
      <trkpt lat="36.74111810512840747833251953125" lon="-5.82441754639148712158203125">
        <ele>139.399993896484375</ele>
        <time>2019-11-03T12:33:48.000Z</time>
      </trkpt>
      <trkpt lat="36.74098022282123565673828125" lon="-5.82430698908865451812744140625">
        <ele>140.1999969482421875</ele>
        <time>2019-11-03T12:33:54.000Z</time>
      </trkpt>
      <trkpt lat="36.7409569211304187774658203125" lon="-5.82428921945393085479736328125">
        <ele>140.1999969482421875</ele>
        <time>2019-11-03T12:33:55.000Z</time>
      </trkpt>
      <trkpt lat="36.740792803466320037841796875" lon="-5.824166424572467803955078125">
        <ele>140.399993896484375</ele>
        <time>2019-11-03T12:34:02.000Z</time>
      </trkpt>
      <trkpt lat="36.7406132631003856658935546875" lon="-5.82406391389667987823486328125">
        <ele>140</ele>
        <time>2019-11-03T12:34:09.000Z</time>
      </trkpt>
      <trkpt lat="36.74042760394513607025146484375" lon="-5.82396198995411396026611328125">
        <ele>140.8000030517578125</ele>
        <time>2019-11-03T12:34:16.000Z</time>
      </trkpt>
      <trkpt lat="36.7402379214763641357421875" lon="-5.8238651789724826812744140625">
        <ele>142.1999969482421875</ele>
        <time>2019-11-03T12:34:24.000Z</time>
      </trkpt>
      <trkpt lat="36.74005729146301746368408203125" lon="-5.8237803541123867034912109375">
        <ele>144.1999969482421875</ele>
        <time>2019-11-03T12:34:31.000Z</time>
      </trkpt>
      <trkpt lat="36.73994262702763080596923828125" lon="-5.8237438090145587921142578125">
        <ele>144.399993896484375</ele>
        <time>2019-11-03T12:34:40.000Z</time>
      </trkpt>
      <trkpt lat="36.73991312272846698760986328125" lon="-5.82372042350471019744873046875">
        <ele>144.399993896484375</ele>
        <time>2019-11-03T12:35:24.000Z</time>
      </trkpt>
      <trkpt lat="36.73980533145368099212646484375" lon="-5.8236658573150634765625">
        <ele>144.1999969482421875</ele>
        <time>2019-11-03T12:35:29.000Z</time>
      </trkpt>
      <trkpt lat="36.7396017350256443023681640625" lon="-5.82360089756548404693603515625">
        <ele>143.1999969482421875</ele>
        <time>2019-11-03T12:35:35.000Z</time>
      </trkpt>
      <trkpt lat="36.73947290517389774322509765625" lon="-5.82356921397149562835693359375">
        <ele>141.8000030517578125</ele>
        <time>2019-11-03T12:35:38.000Z</time>
      </trkpt>
      <trkpt lat="36.73927358351647853851318359375" lon="-5.8235765062272548675537109375">
        <ele>140.600006103515625</ele>
        <time>2019-11-03T12:35:42.000Z</time>
      </trkpt>
      <trkpt lat="36.73907208256423473358154296875" lon="-5.8235969580709934234619140625">
        <ele>139.600006103515625</ele>
        <time>2019-11-03T12:35:46.000Z</time>
      </trkpt>
      <trkpt lat="36.73887829296290874481201171875" lon="-5.82363811321556568145751953125">
        <ele>139.8000030517578125</ele>
        <time>2019-11-03T12:35:50.000Z</time>
      </trkpt>
      <trkpt lat="36.73869724385440349578857421875" lon="-5.82371271215379238128662109375">
        <ele>141.1999969482421875</ele>
        <time>2019-11-03T12:35:54.000Z</time>
      </trkpt>
      <trkpt lat="36.73848970793187618255615234375" lon="-5.82380960695445537567138671875">
        <ele>143</ele>
        <time>2019-11-03T12:35:59.000Z</time>
      </trkpt>
      <trkpt lat="36.73831586726009845733642578125" lon="-5.82388068549335002899169921875">
        <ele>143.399993896484375</ele>
        <time>2019-11-03T12:36:03.000Z</time>
      </trkpt>
      <trkpt lat="36.73812291584908962249755859375" lon="-5.82395293749868869781494140625">
        <ele>142.600006103515625</ele>
        <time>2019-11-03T12:36:07.000Z</time>
      </trkpt>
      <trkpt lat="36.73791755922138690948486328125" lon="-5.82403373904526233673095703125">
        <ele>141</ele>
        <time>2019-11-03T12:36:11.000Z</time>
      </trkpt>
      <trkpt lat="36.73771421425044536590576171875" lon="-5.8241089247167110443115234375">
        <ele>140.399993896484375</ele>
        <time>2019-11-03T12:36:15.000Z</time>
      </trkpt>
      <trkpt lat="36.7375166527926921844482421875" lon="-5.82418126054108142852783203125">
        <ele>140.399993896484375</ele>
        <time>2019-11-03T12:36:19.000Z</time>
      </trkpt>
      <trkpt lat="36.737314648926258087158203125" lon="-5.82426005043089389801025390625">
        <ele>141.1999969482421875</ele>
        <time>2019-11-03T12:36:23.000Z</time>
      </trkpt>
      <trkpt lat="36.73710602335631847381591796875" lon="-5.8243412710726261138916015625">
        <ele>140</ele>
        <time>2019-11-03T12:36:27.000Z</time>
      </trkpt>
      <trkpt lat="36.73691072501242160797119140625" lon="-5.8244120143353939056396484375">
        <ele>139</ele>
        <time>2019-11-03T12:36:31.000Z</time>
      </trkpt>
      <trkpt lat="36.73673026263713836669921875" lon="-5.8244659937918186187744140625">
        <ele>138.600006103515625</ele>
        <time>2019-11-03T12:36:35.000Z</time>
      </trkpt>
      <trkpt lat="36.736530102789402008056640625" lon="-5.82450312562286853790283203125">
        <ele>140</ele>
        <time>2019-11-03T12:36:40.000Z</time>
      </trkpt>
      <trkpt lat="36.7363428510725498199462890625" lon="-5.82451888360083103179931640625">
        <ele>142.399993896484375</ele>
        <time>2019-11-03T12:36:45.000Z</time>
      </trkpt>
      <trkpt lat="36.7361299507319927215576171875" lon="-5.8245147764682769775390625">
        <ele>144.600006103515625</ele>
        <time>2019-11-03T12:36:51.000Z</time>
      </trkpt>
      <trkpt lat="36.73592736013233661651611328125" lon="-5.8244557678699493408203125">
        <ele>144.399993896484375</ele>
        <time>2019-11-03T12:36:57.000Z</time>
      </trkpt>
      <trkpt lat="36.73572233878076076507568359375" lon="-5.8243885450065135955810546875">
        <ele>145.1999969482421875</ele>
        <time>2019-11-03T12:37:03.000Z</time>
      </trkpt>
      <trkpt lat="36.73553776927292346954345703125" lon="-5.8243278600275516510009765625">
        <ele>145.1999969482421875</ele>
        <time>2019-11-03T12:37:09.000Z</time>
      </trkpt>
      <trkpt lat="36.7353557981550693511962890625" lon="-5.8242599666118621826171875">
        <ele>146</ele>
        <time>2019-11-03T12:37:15.000Z</time>
      </trkpt>
      <trkpt lat="36.7351740784943103790283203125" lon="-5.8241783268749713897705078125">
        <ele>146.399993896484375</ele>
        <time>2019-11-03T12:37:21.000Z</time>
      </trkpt>
      <trkpt lat="36.73499948345124721527099609375" lon="-5.82409660331904888153076171875">
        <ele>146.8000030517578125</ele>
        <time>2019-11-03T12:37:27.000Z</time>
      </trkpt>
      <trkpt lat="36.7348160035908222198486328125" lon="-5.82400658167898654937744140625">
        <ele>148.600006103515625</ele>
        <time>2019-11-03T12:37:33.000Z</time>
      </trkpt>
      <trkpt lat="36.73461391590535640716552734375" lon="-5.8239221759140491485595703125">
        <ele>150.399993896484375</ele>
        <time>2019-11-03T12:37:39.000Z</time>
      </trkpt>
      <trkpt lat="36.73443387262523174285888671875" lon="-5.82387180067598819732666015625">
        <ele>150.8000030517578125</ele>
        <time>2019-11-03T12:37:44.000Z</time>
      </trkpt>
      <trkpt lat="36.73424226231873035430908203125" lon="-5.8238366805016994476318359375">
        <ele>151</ele>
        <time>2019-11-03T12:37:49.000Z</time>
      </trkpt>
      <trkpt lat="36.73406012356281280517578125" lon="-5.823824107646942138671875">
        <ele>150.399993896484375</ele>
        <time>2019-11-03T12:37:54.000Z</time>
      </trkpt>
      <trkpt lat="36.73387966118752956390380859375" lon="-5.8238306455314159393310546875">
        <ele>150.1999969482421875</ele>
        <time>2019-11-03T12:37:59.000Z</time>
      </trkpt>
      <trkpt lat="36.733691655099391937255859375" lon="-5.82385101355612277984619140625">
        <ele>149.600006103515625</ele>
        <time>2019-11-03T12:38:04.000Z</time>
      </trkpt>
      <trkpt lat="36.7335109412670135498046875" lon="-5.8238950185477733612060546875">
        <ele>149.1999969482421875</ele>
        <time>2019-11-03T12:38:09.000Z</time>
      </trkpt>
      <trkpt lat="36.73332109116017818450927734375" lon="-5.823959223926067352294921875">
        <ele>148.8000030517578125</ele>
        <time>2019-11-03T12:38:14.000Z</time>
      </trkpt>
      <trkpt lat="36.7331198416650295257568359375" lon="-5.8240582980215549468994140625">
        <ele>147.1999969482421875</ele>
        <time>2019-11-03T12:38:19.000Z</time>
      </trkpt>
      <trkpt lat="36.73295681364834308624267578125" lon="-5.82415678538382053375244140625">
        <ele>146</ele>
        <time>2019-11-03T12:38:23.000Z</time>
      </trkpt>
      <trkpt lat="36.73279101960361003875732421875" lon="-5.82428184337913990020751953125">
        <ele>145.1999969482421875</ele>
        <time>2019-11-03T12:38:27.000Z</time>
      </trkpt>
      <trkpt lat="36.7326390556991100311279296875" lon="-5.824419558048248291015625">
        <ele>145.1999969482421875</ele>
        <time>2019-11-03T12:38:31.000Z</time>
      </trkpt>
      <trkpt lat="36.73247384838759899139404296875" lon="-5.82459247671067714691162109375">
        <ele>146.399993896484375</ele>
        <time>2019-11-03T12:38:36.000Z</time>
      </trkpt>
      <trkpt lat="36.73233219422399997711181640625" lon="-5.82476195879280567169189453125">
        <ele>148.399993896484375</ele>
        <time>2019-11-03T12:38:41.000Z</time>
      </trkpt>
      <trkpt lat="36.73219825141131877899169921875" lon="-5.8249169401824474334716796875">
        <ele>150</ele>
        <time>2019-11-03T12:38:46.000Z</time>
      </trkpt>
      <trkpt lat="36.732059530913829803466796875" lon="-5.82506571896374225616455078125">
        <ele>151.600006103515625</ele>
        <time>2019-11-03T12:38:51.000Z</time>
      </trkpt>
      <trkpt lat="36.73189784400165081024169921875" lon="-5.8252309262752532958984375">
        <ele>151.8000030517578125</ele>
        <time>2019-11-03T12:38:57.000Z</time>
      </trkpt>
      <trkpt lat="36.7317311279475688934326171875" lon="-5.82537367008626461029052734375">
        <ele>152</ele>
        <time>2019-11-03T12:39:03.000Z</time>
      </trkpt>
      <trkpt lat="36.73155770637094974517822265625" lon="-5.8254892565310001373291015625">
        <ele>150.8000030517578125</ele>
        <time>2019-11-03T12:39:09.000Z</time>
      </trkpt>
      <trkpt lat="36.73135905526578426361083984375" lon="-5.8255827985703945159912109375">
        <ele>150</ele>
        <time>2019-11-03T12:39:15.000Z</time>
      </trkpt>
      <trkpt lat="36.7311819456517696380615234375" lon="-5.82565245218575000762939453125">
        <ele>149</ele>
        <time>2019-11-03T12:39:20.000Z</time>
      </trkpt>
      <trkpt lat="36.7309995554387569427490234375" lon="-5.82574565894901752471923828125">
        <ele>149.600006103515625</ele>
        <time>2019-11-03T12:39:25.000Z</time>
      </trkpt>
      <trkpt lat="36.73081473447382450103759765625" lon="-5.82585210911929607391357421875">
        <ele>150.399993896484375</ele>
        <time>2019-11-03T12:39:30.000Z</time>
      </trkpt>
      <trkpt lat="36.730628572404384613037109375" lon="-5.82593944855034351348876953125">
        <ele>151.8000030517578125</ele>
        <time>2019-11-03T12:39:35.000Z</time>
      </trkpt>
      <trkpt lat="36.7304376326501369476318359375" lon="-5.82602963782846927642822265625">
        <ele>152.399993896484375</ele>
        <time>2019-11-03T12:39:40.000Z</time>
      </trkpt>
      <trkpt lat="36.7302528955042362213134765625" lon="-5.826133154332637786865234375">
        <ele>152.8000030517578125</ele>
        <time>2019-11-03T12:39:45.000Z</time>
      </trkpt>
      <trkpt lat="36.73007436096668243408203125" lon="-5.82625058479607105255126953125">
        <ele>153</ele>
        <time>2019-11-03T12:39:50.000Z</time>
      </trkpt>
      <trkpt lat="36.72990328632295131683349609375" lon="-5.82639341242611408233642578125">
        <ele>152.399993896484375</ele>
        <time>2019-11-03T12:39:55.000Z</time>
      </trkpt>
      <trkpt lat="36.7297506518661975860595703125" lon="-5.82657328806817531585693359375">
        <ele>151.399993896484375</ele>
        <time>2019-11-03T12:39:59.000Z</time>
      </trkpt>
      <trkpt lat="36.7296222411096096038818359375" lon="-5.826749391853809356689453125">
        <ele>150</ele>
        <time>2019-11-03T12:40:02.000Z</time>
      </trkpt>
      <trkpt lat="36.7294824309647083282470703125" lon="-5.8269624598324298858642578125">
        <ele>149.399993896484375</ele>
        <time>2019-11-03T12:40:05.000Z</time>
      </trkpt>
      <trkpt lat="36.7293322272598743438720703125" lon="-5.82719229161739349365234375">
        <ele>148.600006103515625</ele>
        <time>2019-11-03T12:40:08.000Z</time>
      </trkpt>
      <trkpt lat="36.72917489893734455108642578125" lon="-5.82743327133357524871826171875">
        <ele>146.399993896484375</ele>
        <time>2019-11-03T12:40:11.000Z</time>
      </trkpt>
      <trkpt lat="36.72901027835905551910400390625" lon="-5.8276916854083538055419921875">
        <ele>143.399993896484375</ele>
        <time>2019-11-03T12:40:14.000Z</time>
      </trkpt>
      <trkpt lat="36.72889460809528827667236328125" lon="-5.827871225774288177490234375">
        <ele>141.399993896484375</ele>
        <time>2019-11-03T12:40:16.000Z</time>
      </trkpt>
      <trkpt lat="36.7287843860685825347900390625" lon="-5.82804900594055652618408203125">
        <ele>141</ele>
        <time>2019-11-03T12:40:18.000Z</time>
      </trkpt>
      <trkpt lat="36.72866293229162693023681640625" lon="-5.8283007144927978515625">
        <ele>140.399993896484375</ele>
        <time>2019-11-03T12:40:21.000Z</time>
      </trkpt>
      <trkpt lat="36.72855715267360210418701171875" lon="-5.82854068838059902191162109375">
        <ele>140.399993896484375</ele>
        <time>2019-11-03T12:40:24.000Z</time>
      </trkpt>
      <trkpt lat="36.728469394147396087646484375" lon="-5.82877370528876781463623046875">
        <ele>140.399993896484375</ele>
        <time>2019-11-03T12:40:27.000Z</time>
      </trkpt>
      <trkpt lat="36.728401668369770050048828125" lon="-5.82900286652147769927978515625">
        <ele>139.8000030517578125</ele>
        <time>2019-11-03T12:40:30.000Z</time>
      </trkpt>
      <trkpt lat="36.728336624801158905029296875" lon="-5.82924007438123226165771484375">
        <ele>138.1999969482421875</ele>
        <time>2019-11-03T12:40:33.000Z</time>
      </trkpt>
      <trkpt lat="36.72827635891735553741455078125" lon="-5.82950427196919918060302734375">
        <ele>136.1999969482421875</ele>
        <time>2019-11-03T12:40:36.000Z</time>
      </trkpt>
      <trkpt lat="36.72821223735809326171875" lon="-5.8297978900372982025146484375">
        <ele>134</ele>
        <time>2019-11-03T12:40:39.000Z</time>
      </trkpt>
      <trkpt lat="36.728136800229549407958984375" lon="-5.83010341040790081024169921875">
        <ele>132</ele>
        <time>2019-11-03T12:40:42.000Z</time>
      </trkpt>
      <trkpt lat="36.72803630121052265167236328125" lon="-5.83041630685329437255859375">
        <ele>129.8000030517578125</ele>
        <time>2019-11-03T12:40:45.000Z</time>
      </trkpt>
      <trkpt lat="36.727946363389492034912109375" lon="-5.83061990328133106231689453125">
        <ele>129.399993896484375</ele>
        <time>2019-11-03T12:40:47.000Z</time>
      </trkpt>
      <trkpt lat="36.72789230011403560638427734375" lon="-5.8307133615016937255859375">
        <ele>129</ele>
        <time>2019-11-03T12:40:48.000Z</time>
      </trkpt>
      <trkpt lat="36.72772533260285854339599609375" lon="-5.830971188843250274658203125">
        <ele>127</ele>
        <time>2019-11-03T12:40:51.000Z</time>
      </trkpt>
      <trkpt lat="36.7275519110262393951416015625" lon="-5.83121099509298801422119140625">
        <ele>125</ele>
        <time>2019-11-03T12:40:54.000Z</time>
      </trkpt>
      <trkpt lat="36.72737530432641506195068359375" lon="-5.8314494602382183074951171875">
        <ele>123.59999847412109375</ele>
        <time>2019-11-03T12:40:57.000Z</time>
      </trkpt>
      <trkpt lat="36.72719660215079784393310546875" lon="-5.83167887292802333831787109375">
        <ele>123</ele>
        <time>2019-11-03T12:41:00.000Z</time>
      </trkpt>
      <trkpt lat="36.72701136209070682525634765625" lon="-5.8318769372999668121337890625">
        <ele>123.40000152587890625</ele>
        <time>2019-11-03T12:41:03.000Z</time>
      </trkpt>
      <trkpt lat="36.72694615088403224945068359375" lon="-5.831928737461566925048828125">
        <ele>123.59999847412109375</ele>
        <time>2019-11-03T12:41:04.000Z</time>
      </trkpt>
      <trkpt lat="36.72675420530140399932861328125" lon="-5.8320298232138156890869140625">
        <ele>124</ele>
        <time>2019-11-03T12:41:07.000Z</time>
      </trkpt>
      <trkpt lat="36.72669653780758380889892578125" lon="-5.83204952068626880645751953125">
        <ele>124</ele>
        <time>2019-11-03T12:41:08.000Z</time>
      </trkpt>
      <trkpt lat="36.72648380510509014129638671875" lon="-5.8320854790508747100830078125">
        <ele>124.40000152587890625</ele>
        <time>2019-11-03T12:41:12.000Z</time>
      </trkpt>
      <trkpt lat="36.72628548927605152130126953125" lon="-5.8321055956184864044189453125">
        <ele>125.40000152587890625</ele>
        <time>2019-11-03T12:41:16.000Z</time>
      </trkpt>
      <trkpt lat="36.726066805422306060791015625" lon="-5.83211942575871944427490234375">
        <ele>126.59999847412109375</ele>
        <time>2019-11-03T12:41:21.000Z</time>
      </trkpt>
      <trkpt lat="36.725861616432666778564453125" lon="-5.83214071579277515411376953125">
        <ele>128.1999969482421875</ele>
        <time>2019-11-03T12:41:26.000Z</time>
      </trkpt>
      <trkpt lat="36.72564410604536533355712890625" lon="-5.83215580321848392486572265625">
        <ele>128.8000030517578125</ele>
        <time>2019-11-03T12:41:31.000Z</time>
      </trkpt>
      <trkpt lat="36.72544545494019985198974609375" lon="-5.83216770552098751068115234375">
        <ele>127.59999847412109375</ele>
        <time>2019-11-03T12:41:35.000Z</time>
      </trkpt>
      <trkpt lat="36.7252364940941333770751953125" lon="-5.83219871856272220611572265625">
        <ele>126.40000152587890625</ele>
        <time>2019-11-03T12:41:39.000Z</time>
      </trkpt>
      <trkpt lat="36.725023090839385986328125" lon="-5.8322199247777462005615234375">
        <ele>125.40000152587890625</ele>
        <time>2019-11-03T12:41:43.000Z</time>
      </trkpt>
      <trkpt lat="36.72482703812420368194580078125" lon="-5.832235850393772125244140625">
        <ele>124.1999969482421875</ele>
        <time>2019-11-03T12:41:47.000Z</time>
      </trkpt>
      <trkpt lat="36.72463777475059032440185546875" lon="-5.83225454203784465789794921875">
        <ele>123</ele>
        <time>2019-11-03T12:41:51.000Z</time>
      </trkpt>
      <trkpt lat="36.72441783361136913299560546875" lon="-5.8322717249393463134765625">
        <ele>121</ele>
        <time>2019-11-03T12:41:55.000Z</time>
      </trkpt>
      <trkpt lat="36.72417911700904369354248046875" lon="-5.8322987146675586700439453125">
        <ele>118.59999847412109375</ele>
        <time>2019-11-03T12:41:59.000Z</time>
      </trkpt>
      <trkpt lat="36.723993122577667236328125" lon="-5.83232243545353412628173828125">
        <ele>116.40000152587890625</ele>
        <time>2019-11-03T12:42:02.000Z</time>
      </trkpt>
      <trkpt lat="36.72379204072058200836181640625" lon="-5.83234707824885845184326171875">
        <ele>115.8000030517578125</ele>
        <time>2019-11-03T12:42:05.000Z</time>
      </trkpt>
      <trkpt lat="36.72357696108520030975341796875" lon="-5.83238010294735431671142578125">
        <ele>115.8000030517578125</ele>
        <time>2019-11-03T12:42:08.000Z</time>
      </trkpt>
      <trkpt lat="36.72334712930023670196533203125" lon="-5.83243156783282756805419921875">
        <ele>115.8000030517578125</ele>
        <time>2019-11-03T12:42:11.000Z</time>
      </trkpt>
      <trkpt lat="36.7231131903827190399169921875" lon="-5.8325122855603694915771484375">
        <ele>116</ele>
        <time>2019-11-03T12:42:14.000Z</time>
      </trkpt>
      <trkpt lat="36.72287522815167903900146484375" lon="-5.83261898718774318695068359375">
        <ele>114.1999969482421875</ele>
        <time>2019-11-03T12:42:17.000Z</time>
      </trkpt>
      <trkpt lat="36.72263751737773418426513671875" lon="-5.8327439613640308380126953125">
        <ele>113.1999969482421875</ele>
        <time>2019-11-03T12:42:20.000Z</time>
      </trkpt>
      <trkpt lat="36.72240684740245342254638671875" lon="-5.83290363661944866180419921875">
        <ele>113.40000152587890625</ele>
        <time>2019-11-03T12:42:23.000Z</time>
      </trkpt>
      <trkpt lat="36.72218975611031055450439453125" lon="-5.8330966718494892120361328125">
        <ele>113.59999847412109375</ele>
        <time>2019-11-03T12:42:26.000Z</time>
      </trkpt>
      <trkpt lat="36.7219880037009716033935546875" lon="-5.8333129249513149261474609375">
        <ele>113.40000152587890625</ele>
        <time>2019-11-03T12:42:29.000Z</time>
      </trkpt>
      <trkpt lat="36.7218015901744365692138671875" lon="-5.83354501985013484954833984375">
        <ele>112.59999847412109375</ele>
        <time>2019-11-03T12:42:32.000Z</time>
      </trkpt>
      <trkpt lat="36.7216362990438938140869140625" lon="-5.83378306590020656585693359375">
        <ele>111.40000152587890625</ele>
        <time>2019-11-03T12:42:35.000Z</time>
      </trkpt>
      <trkpt lat="36.721493639051914215087890625" lon="-5.83404055796563625335693359375">
        <ele>110.40000152587890625</ele>
        <time>2019-11-03T12:42:38.000Z</time>
      </trkpt>
      <trkpt lat="36.72136581502854824066162109375" lon="-5.834302492439746856689453125">
        <ele>109.59999847412109375</ele>
        <time>2019-11-03T12:42:41.000Z</time>
      </trkpt>
      <trkpt lat="36.721257604658603668212890625" lon="-5.83457130007445812225341796875">
        <ele>108.1999969482421875</ele>
        <time>2019-11-03T12:42:44.000Z</time>
      </trkpt>
      <trkpt lat="36.7211685888469219207763671875" lon="-5.83484589122235774993896484375">
        <ele>106.8000030517578125</ele>
        <time>2019-11-03T12:42:47.000Z</time>
      </trkpt>
      <trkpt lat="36.72109960578382015228271484375" lon="-5.8351284451782703399658203125">
        <ele>105.59999847412109375</ele>
        <time>2019-11-03T12:42:50.000Z</time>
      </trkpt>
      <trkpt lat="36.721047051250934600830078125" lon="-5.835407562553882598876953125">
        <ele>104.59999847412109375</ele>
        <time>2019-11-03T12:42:53.000Z</time>
      </trkpt>
      <trkpt lat="36.72101092524826526641845703125" lon="-5.8356819860637187957763671875">
        <ele>104.8000030517578125</ele>
        <time>2019-11-03T12:42:56.000Z</time>
      </trkpt>
      <trkpt lat="36.72099365852773189544677734375" lon="-5.83594643510878086090087890625">
        <ele>105.40000152587890625</ele>
        <time>2019-11-03T12:42:59.000Z</time>
      </trkpt>
      <trkpt lat="36.72099240124225616455078125" lon="-5.836206190288066864013671875">
        <ele>106</ele>
        <time>2019-11-03T12:43:02.000Z</time>
      </trkpt>
      <trkpt lat="36.72099650837481021881103515625" lon="-5.8364638499915599822998046875">
        <ele>105</ele>
        <time>2019-11-03T12:43:05.000Z</time>
      </trkpt>
      <trkpt lat="36.72100639902055263519287109375" lon="-5.83672209642827510833740234375">
        <ele>102.8000030517578125</ele>
        <time>2019-11-03T12:43:08.000Z</time>
      </trkpt>
      <trkpt lat="36.7210091650485992431640625" lon="-5.83697891794145107269287109375">
        <ele>101</ele>
        <time>2019-11-03T12:43:11.000Z</time>
      </trkpt>
      <trkpt lat="36.721008159220218658447265625" lon="-5.83723389543592929840087890625">
        <ele>99.40000152587890625</ele>
        <time>2019-11-03T12:43:14.000Z</time>
      </trkpt>
      <trkpt lat="36.7209845222532749176025390625" lon="-5.8374985121190547943115234375">
        <ele>98</ele>
        <time>2019-11-03T12:43:17.000Z</time>
      </trkpt>
      <trkpt lat="36.720941103994846343994140625" lon="-5.83778358064591884613037109375">
        <ele>96.1999969482421875</ele>
        <time>2019-11-03T12:43:20.000Z</time>
      </trkpt>
      <trkpt lat="36.72087195329368114471435546875" lon="-5.8380802161991596221923828125">
        <ele>94.40000152587890625</ele>
        <time>2019-11-03T12:43:23.000Z</time>
      </trkpt>
      <trkpt lat="36.72077422030270099639892578125" lon="-5.83838238380849361419677734375">
        <ele>91.40000152587890625</ele>
        <time>2019-11-03T12:43:26.000Z</time>
      </trkpt>
      <trkpt lat="36.720688976347446441650390625" lon="-5.8385878242552280426025390625">
        <ele>88.59999847412109375</ele>
        <time>2019-11-03T12:43:28.000Z</time>
      </trkpt>
      <trkpt lat="36.72058613039553165435791015625" lon="-5.83879686892032623291015625">
        <ele>85.40000152587890625</ele>
        <time>2019-11-03T12:43:30.000Z</time>
      </trkpt>
      <trkpt lat="36.72046727500855922698974609375" lon="-5.83900717087090015411376953125">
        <ele>81.59999847412109375</ele>
        <time>2019-11-03T12:43:32.000Z</time>
      </trkpt>
      <trkpt lat="36.720326878130435943603515625" lon="-5.83921261131763458251953125">
        <ele>77.59999847412109375</ele>
        <time>2019-11-03T12:43:34.000Z</time>
      </trkpt>
      <trkpt lat="36.7201671190559864044189453125" lon="-5.8394119329750537872314453125">
        <ele>75.1999969482421875</ele>
        <time>2019-11-03T12:43:36.000Z</time>
      </trkpt>
      <trkpt lat="36.71998799778521060943603515625" lon="-5.8396053873002529144287109375">
        <ele>73.59999847412109375</ele>
        <time>2019-11-03T12:43:38.000Z</time>
      </trkpt>
      <trkpt lat="36.7198006622493267059326171875" lon="-5.83979775197803974151611328125">
        <ele>72.1999969482421875</ele>
        <time>2019-11-03T12:43:40.000Z</time>
      </trkpt>
      <trkpt lat="36.719611398875713348388671875" lon="-5.839992798864841461181640625">
        <ele>72.59999847412109375</ele>
        <time>2019-11-03T12:43:42.000Z</time>
      </trkpt>
      <trkpt lat="36.7194228060543537139892578125" lon="-5.84018834866583347320556640625">
        <ele>72.59999847412109375</ele>
        <time>2019-11-03T12:43:44.000Z</time>
      </trkpt>
      <trkpt lat="36.719233877956867218017578125" lon="-5.8403828926384449005126953125">
        <ele>71.8000030517578125</ele>
        <time>2019-11-03T12:43:46.000Z</time>
      </trkpt>
      <trkpt lat="36.719047129154205322265625" lon="-5.8405733294785022735595703125">
        <ele>69.8000030517578125</ele>
        <time>2019-11-03T12:43:48.000Z</time>
      </trkpt>
      <trkpt lat="36.71886515803635120391845703125" lon="-5.8407580666244029998779296875">
        <ele>68.1999969482421875</ele>
        <time>2019-11-03T12:43:50.000Z</time>
      </trkpt>
      <trkpt lat="36.71869148500263690948486328125" lon="-5.84093769080936908721923828125">
        <ele>67</ele>
        <time>2019-11-03T12:43:52.000Z</time>
      </trkpt>
      <trkpt lat="36.71852476894855499267578125" lon="-5.841107927262783050537109375">
        <ele>65.8000030517578125</ele>
        <time>2019-11-03T12:43:54.000Z</time>
      </trkpt>
      <trkpt lat="36.71836785972118377685546875" lon="-5.8412680216133594512939453125">
        <ele>65</ele>
        <time>2019-11-03T12:43:56.000Z</time>
      </trkpt>
      <trkpt lat="36.71821824274957180023193359375" lon="-5.84141864441335201263427734375">
        <ele>64.40000152587890625</ele>
        <time>2019-11-03T12:43:58.000Z</time>
      </trkpt>
      <trkpt lat="36.71807340346276760101318359375" lon="-5.84155443124473094940185546875">
        <ele>63.799999237060546875</ele>
        <time>2019-11-03T12:44:00.000Z</time>
      </trkpt>
      <trkpt lat="36.7178674601018428802490234375" lon="-5.841755680739879608154296875">
        <ele>63</ele>
        <time>2019-11-03T12:44:03.000Z</time>
      </trkpt>
      <trkpt lat="36.7176716588437557220458984375" lon="-5.84196698851883411407470703125">
        <ele>61.59999847412109375</ele>
        <time>2019-11-03T12:44:06.000Z</time>
      </trkpt>
      <trkpt lat="36.71748801134526729583740234375" lon="-5.842187516391277313232421875">
        <ele>60.40000152587890625</ele>
        <time>2019-11-03T12:44:09.000Z</time>
      </trkpt>
      <trkpt lat="36.717334203422069549560546875" lon="-5.842418186366558074951171875">
        <ele>60</ele>
        <time>2019-11-03T12:44:12.000Z</time>
      </trkpt>
      <trkpt lat="36.71721660532057285308837890625" lon="-5.84264944307506084442138671875">
        <ele>60.40000152587890625</ele>
        <time>2019-11-03T12:44:15.000Z</time>
      </trkpt>
      <trkpt lat="36.717127002775669097900390625" lon="-5.8428498543798923492431640625">
        <ele>61.200000762939453125</ele>
        <time>2019-11-03T12:44:18.000Z</time>
      </trkpt>
      <trkpt lat="36.71702004969120025634765625" lon="-5.843111537396907806396484375">
        <ele>61</ele>
        <time>2019-11-03T12:44:22.000Z</time>
      </trkpt>
      <trkpt lat="36.71692960895597934722900390625" lon="-5.84332183934748172760009765625">
        <ele>60</ele>
        <time>2019-11-03T12:44:25.000Z</time>
      </trkpt>
      <trkpt lat="36.71683422289788722991943359375" lon="-5.84355133585631847381591796875">
        <ele>58.200000762939453125</ele>
        <time>2019-11-03T12:44:28.000Z</time>
      </trkpt>
      <trkpt lat="36.7167251743376255035400390625" lon="-5.8438114263117313385009765625">
        <ele>56.200000762939453125</ele>
        <time>2019-11-03T12:44:31.000Z</time>
      </trkpt>
      <trkpt lat="36.71659760177135467529296875" lon="-5.8440776355564594268798828125">
        <ele>54.799999237060546875</ele>
        <time>2019-11-03T12:44:34.000Z</time>
      </trkpt>
      <trkpt lat="36.71644798479974269866943359375" lon="-5.8443344570696353912353515625">
        <ele>53.799999237060546875</ele>
        <time>2019-11-03T12:44:37.000Z</time>
      </trkpt>
      <trkpt lat="36.716278083622455596923828125" lon="-5.8445644564926624298095703125">
        <ele>54</ele>
        <time>2019-11-03T12:44:40.000Z</time>
      </trkpt>
      <trkpt lat="36.7160858027637004852294921875" lon="-5.8447672985494136810302734375">
        <ele>53.59999847412109375</ele>
        <time>2019-11-03T12:44:43.000Z</time>
      </trkpt>
      <trkpt lat="36.71588011085987091064453125" lon="-5.844970643520355224609375">
        <ele>52.40000152587890625</ele>
        <time>2019-11-03T12:44:46.000Z</time>
      </trkpt>
      <trkpt lat="36.71574122272431850433349609375" lon="-5.84511372260749340057373046875">
        <ele>51.40000152587890625</ele>
        <time>2019-11-03T12:44:48.000Z</time>
      </trkpt>
      <trkpt lat="36.7155929468572139739990234375" lon="-5.84526862017810344696044921875">
        <ele>50</ele>
        <time>2019-11-03T12:44:50.000Z</time>
      </trkpt>
      <trkpt lat="36.71542790718376636505126953125" lon="-5.84543609060347080230712890625">
        <ele>47.799999237060546875</ele>
        <time>2019-11-03T12:44:52.000Z</time>
      </trkpt>
      <trkpt lat="36.71524736098945140838623046875" lon="-5.84561579860746860504150390625">
        <ele>46</ele>
        <time>2019-11-03T12:44:54.000Z</time>
      </trkpt>
      <trkpt lat="36.7150611989200115203857421875" lon="-5.84579885937273502349853515625">
        <ele>44</ele>
        <time>2019-11-03T12:44:56.000Z</time>
      </trkpt>
      <trkpt lat="36.7148747853934764862060546875" lon="-5.84598116576671600341796875">
        <ele>42</ele>
        <time>2019-11-03T12:44:58.000Z</time>
      </trkpt>
      <trkpt lat="36.71468879096210002899169921875" lon="-5.846151821315288543701171875">
        <ele>40</ele>
        <time>2019-11-03T12:45:00.000Z</time>
      </trkpt>
      <trkpt lat="36.71451126225292682647705078125" lon="-5.84631887264549732208251953125">
        <ele>38.59999847412109375</ele>
        <time>2019-11-03T12:45:02.000Z</time>
      </trkpt>
      <trkpt lat="36.7143463902175426483154296875" lon="-5.8464792184531688690185546875">
        <ele>38</ele>
        <time>2019-11-03T12:45:04.000Z</time>
      </trkpt>
      <trkpt lat="36.7141888104379177093505859375" lon="-5.8466264046728610992431640625">
        <ele>37.799999237060546875</ele>
        <time>2019-11-03T12:45:06.000Z</time>
      </trkpt>
      <trkpt lat="36.71403852291405200958251953125" lon="-5.84675724618136882781982421875">
        <ele>37.40000152587890625</ele>
        <time>2019-11-03T12:45:08.000Z</time>
      </trkpt>
      <trkpt lat="36.71383358538150787353515625" lon="-5.84695480763912200927734375">
        <ele>36.59999847412109375</ele>
        <time>2019-11-03T12:45:11.000Z</time>
      </trkpt>
      <trkpt lat="36.71364323236048221588134765625" lon="-5.847138203680515289306640625">
        <ele>36</ele>
        <time>2019-11-03T12:45:14.000Z</time>
      </trkpt>
      <trkpt lat="36.7134679667651653289794921875" lon="-5.847304165363311767578125">
        <ele>36.799999237060546875</ele>
        <time>2019-11-03T12:45:17.000Z</time>
      </trkpt>
      <trkpt lat="36.71331382356584072113037109375" lon="-5.84745327942073345184326171875">
        <ele>37</ele>
        <time>2019-11-03T12:45:20.000Z</time>
      </trkpt>
      <trkpt lat="36.7131717503070831298828125" lon="-5.847594179213047027587890625">
        <ele>37</ele>
        <time>2019-11-03T12:45:23.000Z</time>
      </trkpt>
      <trkpt lat="36.7129834927618503570556640625" lon="-5.84777413867413997650146484375">
        <ele>36.59999847412109375</ele>
        <time>2019-11-03T12:45:27.000Z</time>
      </trkpt>
      <trkpt lat="36.71279154717922210693359375" lon="-5.847958959639072418212890625">
        <ele>35.799999237060546875</ele>
        <time>2019-11-03T12:45:31.000Z</time>
      </trkpt>
      <trkpt lat="36.71260387636721134185791015625" lon="-5.8481441996991634368896484375">
        <ele>35.799999237060546875</ele>
        <time>2019-11-03T12:45:35.000Z</time>
      </trkpt>
      <trkpt lat="36.7124155350029468536376953125" lon="-5.84830722771584987640380859375">
        <ele>36.59999847412109375</ele>
        <time>2019-11-03T12:45:39.000Z</time>
      </trkpt>
      <trkpt lat="36.71224437654018402099609375" lon="-5.848473273217678070068359375">
        <ele>37.200000762939453125</ele>
        <time>2019-11-03T12:45:43.000Z</time>
      </trkpt>
      <trkpt lat="36.7120728828012943267822265625" lon="-5.84862808696925640106201171875">
        <ele>37.799999237060546875</ele>
        <time>2019-11-03T12:45:47.000Z</time>
      </trkpt>
      <trkpt lat="36.71191287226974964141845703125" lon="-5.84877879358828067779541015625">
        <ele>37.59999847412109375</ele>
        <time>2019-11-03T12:45:51.000Z</time>
      </trkpt>
      <trkpt lat="36.71179644763469696044921875" lon="-5.84889630787074565887451171875">
        <ele>37.200000762939453125</ele>
        <time>2019-11-03T12:45:54.000Z</time>
      </trkpt>
      <trkpt lat="36.71163492836058139801025390625" lon="-5.84904399700462818145751953125">
        <ele>37</ele>
        <time>2019-11-03T12:45:58.000Z</time>
      </trkpt>
      <trkpt lat="36.7114697210490703582763671875" lon="-5.8491909317672252655029296875">
        <ele>37</ele>
        <time>2019-11-03T12:46:02.000Z</time>
      </trkpt>
      <trkpt lat="36.7113094590604305267333984375" lon="-5.849331915378570556640625">
        <ele>36.59999847412109375</ele>
        <time>2019-11-03T12:46:06.000Z</time>
      </trkpt>
      <trkpt lat="36.711131595075130462646484375" lon="-5.84949259646236896514892578125">
        <ele>36</ele>
        <time>2019-11-03T12:46:11.000Z</time>
      </trkpt>
      <trkpt lat="36.71095482073724269866943359375" lon="-5.84965520538389682769775390625">
        <ele>36</ele>
        <time>2019-11-03T12:46:16.000Z</time>
      </trkpt>
      <trkpt lat="36.71077175997197628021240234375" lon="-5.8498138748109340667724609375">
        <ele>36</ele>
        <time>2019-11-03T12:46:21.000Z</time>
      </trkpt>
      <trkpt lat="36.710627339780330657958984375" lon="-5.8499499969184398651123046875">
        <ele>36.40000152587890625</ele>
        <time>2019-11-03T12:46:25.000Z</time>
      </trkpt>
      <trkpt lat="36.7104752920567989349365234375" lon="-5.85007295943796634674072265625">
        <ele>37</ele>
        <time>2019-11-03T12:46:29.000Z</time>
      </trkpt>
      <trkpt lat="36.71031142584979534149169921875" lon="-5.8502004481852054595947265625">
        <ele>37</ele>
        <time>2019-11-03T12:46:33.000Z</time>
      </trkpt>
      <trkpt lat="36.71013356186449527740478515625" lon="-5.8503157831728458404541015625">
        <ele>37.799999237060546875</ele>
        <time>2019-11-03T12:46:37.000Z</time>
      </trkpt>
      <trkpt lat="36.7099477350711822509765625" lon="-5.8504398353397846221923828125">
        <ele>38</ele>
        <time>2019-11-03T12:46:41.000Z</time>
      </trkpt>
      <trkpt lat="36.7097541131079196929931640625" lon="-5.85055827163159847259521484375">
        <ele>38</ele>
        <time>2019-11-03T12:46:45.000Z</time>
      </trkpt>
      <trkpt lat="36.7095609940588474273681640625" lon="-5.85068685002624988555908203125">
        <ele>37.200000762939453125</ele>
        <time>2019-11-03T12:46:49.000Z</time>
      </trkpt>
      <trkpt lat="36.70936242677271366119384765625" lon="-5.850814171135425567626953125">
        <ele>36.40000152587890625</ele>
        <time>2019-11-03T12:46:53.000Z</time>
      </trkpt>
      <trkpt lat="36.7091620154678821563720703125" lon="-5.850948281586170196533203125">
        <ele>36</ele>
        <time>2019-11-03T12:46:57.000Z</time>
      </trkpt>
      <trkpt lat="36.708967387676239013671875" lon="-5.85108381696045398712158203125">
        <ele>36</ele>
        <time>2019-11-03T12:47:01.000Z</time>
      </trkpt>
      <trkpt lat="36.70876831747591495513916015625" lon="-5.85122647695243358612060546875">
        <ele>36.59999847412109375</ele>
        <time>2019-11-03T12:47:05.000Z</time>
      </trkpt>
      <trkpt lat="36.708558686077594757080078125" lon="-5.85135924629867076873779296875">
        <ele>36.59999847412109375</ele>
        <time>2019-11-03T12:47:09.000Z</time>
      </trkpt>
      <trkpt lat="36.70835408382117748260498046875" lon="-5.85151188075542449951171875">
        <ele>36</ele>
        <time>2019-11-03T12:47:13.000Z</time>
      </trkpt>
      <trkpt lat="36.70819616876542568206787109375" lon="-5.8516233600676059722900390625">
        <ele>36.40000152587890625</ele>
        <time>2019-11-03T12:47:16.000Z</time>
      </trkpt>
      <trkpt lat="36.7080354876816272735595703125" lon="-5.85173207335174083709716796875">
        <ele>36.59999847412109375</ele>
        <time>2019-11-03T12:47:19.000Z</time>
      </trkpt>
      <trkpt lat="36.7078691907227039337158203125" lon="-5.85183802060782909393310546875">
        <ele>36.59999847412109375</ele>
        <time>2019-11-03T12:47:22.000Z</time>
      </trkpt>
      <trkpt lat="36.707697026431560516357421875" lon="-5.85194748826324939727783203125">
        <ele>36.40000152587890625</ele>
        <time>2019-11-03T12:47:25.000Z</time>
      </trkpt>
      <trkpt lat="36.7075275443494319915771484375" lon="-5.85205963812768459320068359375">
        <ele>36</ele>
        <time>2019-11-03T12:47:28.000Z</time>
      </trkpt>
      <trkpt lat="36.70735797844827175140380859375" lon="-5.8521742187440395355224609375">
        <ele>35.799999237060546875</ele>
        <time>2019-11-03T12:47:31.000Z</time>
      </trkpt>
      <trkpt lat="36.7071904242038726806640625" lon="-5.85228527896106243133544921875">
        <ele>35.59999847412109375</ele>
        <time>2019-11-03T12:47:34.000Z</time>
      </trkpt>
      <trkpt lat="36.707026474177837371826171875" lon="-5.85239022038877010345458984375">
        <ele>35.59999847412109375</ele>
        <time>2019-11-03T12:47:37.000Z</time>
      </trkpt>
      <trkpt lat="36.7068117298185825347900390625" lon="-5.85252382792532444000244140625">
        <ele>36.40000152587890625</ele>
        <time>2019-11-03T12:47:41.000Z</time>
      </trkpt>
      <trkpt lat="36.7066454328596591949462890625" lon="-5.8526281826198101043701171875">
        <ele>36.799999237060546875</ele>
        <time>2019-11-03T12:47:44.000Z</time>
      </trkpt>
      <trkpt lat="36.7064794711768627166748046875" lon="-5.85272960364818572998046875">
        <ele>36.59999847412109375</ele>
        <time>2019-11-03T12:47:47.000Z</time>
      </trkpt>
      <trkpt lat="36.70631728135049343109130859375" lon="-5.85283546708524227142333984375">
        <ele>36.40000152587890625</ele>
        <time>2019-11-03T12:47:50.000Z</time>
      </trkpt>
      <trkpt lat="36.7061032913625240325927734375" lon="-5.85297225974500179290771484375">
        <ele>36.200000762939453125</ele>
        <time>2019-11-03T12:47:54.000Z</time>
      </trkpt>
      <trkpt lat="36.7058922350406646728515625" lon="-5.8531071245670318603515625">
        <ele>35.799999237060546875</ele>
        <time>2019-11-03T12:47:58.000Z</time>
      </trkpt>
      <trkpt lat="36.7056909017264842987060546875" lon="-5.85323628969490528106689453125">
        <ele>35.59999847412109375</ele>
        <time>2019-11-03T12:48:02.000Z</time>
      </trkpt>
      <trkpt lat="36.70549434609711170196533203125" lon="-5.8533644489943981170654296875">
        <ele>35.799999237060546875</ele>
        <time>2019-11-03T12:48:06.000Z</time>
      </trkpt>
      <trkpt lat="36.705301813781261444091796875" lon="-5.85348573513329029083251953125">
        <ele>36.200000762939453125</ele>
        <time>2019-11-03T12:48:10.000Z</time>
      </trkpt>
      <trkpt lat="36.7051175795495510101318359375" lon="-5.853614397346973419189453125">
        <ele>36.799999237060546875</ele>
        <time>2019-11-03T12:48:14.000Z</time>
      </trkpt>
      <trkpt lat="36.70494298450648784637451171875" lon="-5.8537242002785205841064453125">
        <ele>37.200000762939453125</ele>
        <time>2019-11-03T12:48:18.000Z</time>
      </trkpt>
      <trkpt lat="36.7047683894634246826171875" lon="-5.8538335002958774566650390625">
        <ele>38.200000762939453125</ele>
        <time>2019-11-03T12:48:22.000Z</time>
      </trkpt>
      <trkpt lat="36.70464375056326389312744140625" lon="-5.85391857661306858062744140625">
        <ele>38.200000762939453125</ele>
        <time>2019-11-03T12:48:25.000Z</time>
      </trkpt>
      <trkpt lat="36.7044735141098499298095703125" lon="-5.85402452386915683746337890625">
        <ele>38.59999847412109375</ele>
        <time>2019-11-03T12:48:29.000Z</time>
      </trkpt>
      <trkpt lat="36.7042988352477550506591796875" lon="-5.85413239896297454833984375">
        <ele>40</ele>
        <time>2019-11-03T12:48:33.000Z</time>
      </trkpt>
      <trkpt lat="36.70420638285577297210693359375" lon="-5.85419232957065105438232421875">
        <ele>40.799999237060546875</ele>
        <time>2019-11-03T12:48:35.000Z</time>
      </trkpt>
      <trkpt lat="36.70407076366245746612548828125" lon="-5.8542991988360881805419921875">
        <ele>41.40000152587890625</ele>
        <time>2019-11-03T12:48:38.000Z</time>
      </trkpt>
      <trkpt lat="36.70388367958366870880126953125" lon="-5.85445803590118885040283203125">
        <ele>41.59999847412109375</ele>
        <time>2019-11-03T12:48:42.000Z</time>
      </trkpt>
      <trkpt lat="36.7036916501820087432861328125" lon="-5.85461963899433612823486328125">
        <ele>41</ele>
        <time>2019-11-03T12:48:46.000Z</time>
      </trkpt>
      <trkpt lat="36.703499369323253631591796875" lon="-5.854775123298168182373046875">
        <ele>42.200000762939453125</ele>
        <time>2019-11-03T12:48:50.000Z</time>
      </trkpt>
      <trkpt lat="36.7033124528825283050537109375" lon="-5.854940079152584075927734375">
        <ele>44.40000152587890625</ele>
        <time>2019-11-03T12:48:54.000Z</time>
      </trkpt>
      <trkpt lat="36.7031200043857097625732421875" lon="-5.8550824038684368133544921875">
        <ele>45.799999237060546875</ele>
        <time>2019-11-03T12:48:58.000Z</time>
      </trkpt>
      <trkpt lat="36.7029691301286220550537109375" lon="-5.85521475411951541900634765625">
        <ele>45.200000762939453125</ele>
        <time>2019-11-03T12:49:01.000Z</time>
      </trkpt>
      <trkpt lat="36.702813394367694854736328125" lon="-5.8553660474717617034912109375">
        <ele>44.59999847412109375</ele>
        <time>2019-11-03T12:49:04.000Z</time>
      </trkpt>
      <trkpt lat="36.70265472494065761566162109375" lon="-5.85550895892083644866943359375">
        <ele>43.40000152587890625</ele>
        <time>2019-11-03T12:49:07.000Z</time>
      </trkpt>
      <trkpt lat="36.70249915681779384613037109375" lon="-5.8556446619331836700439453125">
        <ele>42</ele>
        <time>2019-11-03T12:49:10.000Z</time>
      </trkpt>
      <trkpt lat="36.70234358869493007659912109375" lon="-5.8557713963091373443603515625">
        <ele>40.40000152587890625</ele>
        <time>2019-11-03T12:49:13.000Z</time>
      </trkpt>
      <trkpt lat="36.70214594341814517974853515625" lon="-5.855932496488094329833984375">
        <ele>39</ele>
        <time>2019-11-03T12:49:17.000Z</time>
      </trkpt>
      <trkpt lat="36.701959110796451568603515625" lon="-5.85608026944100856781005859375">
        <ele>38.200000762939453125</ele>
        <time>2019-11-03T12:49:21.000Z</time>
      </trkpt>
      <trkpt lat="36.70176138170063495635986328125" lon="-5.856226198375225067138671875">
        <ele>37.59999847412109375</ele>
        <time>2019-11-03T12:49:25.000Z</time>
      </trkpt>
      <trkpt lat="36.701569855213165283203125" lon="-5.8563847839832305908203125">
        <ele>36.59999847412109375</ele>
        <time>2019-11-03T12:49:29.000Z</time>
      </trkpt>
      <trkpt lat="36.70139978639781475067138671875" lon="-5.85651361383497714996337890625">
        <ele>36</ele>
        <time>2019-11-03T12:49:33.000Z</time>
      </trkpt>
      <trkpt lat="36.70121110975742340087890625" lon="-5.85666448809206485748291015625">
        <ele>36.40000152587890625</ele>
        <time>2019-11-03T12:49:38.000Z</time>
      </trkpt>
      <trkpt lat="36.70105545781552791595458984375" lon="-5.85679356940090656280517578125">
        <ele>37</ele>
        <time>2019-11-03T12:49:42.000Z</time>
      </trkpt>
      <trkpt lat="36.7008863948285579681396484375" lon="-5.85692365653812885284423828125">
        <ele>37</ele>
        <time>2019-11-03T12:49:46.000Z</time>
      </trkpt>
      <trkpt lat="36.70071565546095371246337890625" lon="-5.857065059244632720947265625">
        <ele>37.200000762939453125</ele>
        <time>2019-11-03T12:49:50.000Z</time>
      </trkpt>
      <trkpt lat="36.700555644929409027099609375" lon="-5.8571946434676647186279296875">
        <ele>37.799999237060546875</ele>
        <time>2019-11-03T12:49:54.000Z</time>
      </trkpt>
      <trkpt lat="36.7004002444446086883544921875" lon="-5.85731760598719120025634765625">
        <ele>38.200000762939453125</ele>
        <time>2019-11-03T12:49:58.000Z</time>
      </trkpt>
      <trkpt lat="36.700211651623249053955078125" lon="-5.85746638476848602294921875">
        <ele>38.59999847412109375</ele>
        <time>2019-11-03T12:50:03.000Z</time>
      </trkpt>
      <trkpt lat="36.7000257410109043121337890625" lon="-5.85760896094143390655517578125">
        <ele>39.200000762939453125</ele>
        <time>2019-11-03T12:50:08.000Z</time>
      </trkpt>
      <trkpt lat="36.69998827390372753143310546875" lon="-5.857638381421566009521484375">
        <ele>39.59999847412109375</ele>
        <time>2019-11-03T12:50:09.000Z</time>
      </trkpt>
      <trkpt lat="36.69979951344430446624755859375" lon="-5.8577807061374187469482421875">
        <ele>42</ele>
        <time>2019-11-03T12:50:14.000Z</time>
      </trkpt>
      <trkpt lat="36.6997585259377956390380859375" lon="-5.85780962370336055755615234375">
        <ele>42.40000152587890625</ele>
        <time>2019-11-03T12:50:15.000Z</time>
      </trkpt>
      <trkpt lat="36.69959717430174350738525390625" lon="-5.857934765517711639404296875">
        <ele>43.59999847412109375</ele>
        <time>2019-11-03T12:50:19.000Z</time>
      </trkpt>
      <trkpt lat="36.69951486401259899139404296875" lon="-5.857999809086322784423828125">
        <ele>43.799999237060546875</ele>
        <time>2019-11-03T12:50:21.000Z</time>
      </trkpt>
      <trkpt lat="36.69934471137821674346923828125" lon="-5.8581357635557651519775390625">
        <ele>43</ele>
        <time>2019-11-03T12:50:25.000Z</time>
      </trkpt>
      <trkpt lat="36.69917958788573741912841796875" lon="-5.85828043520450592041015625">
        <ele>41.40000152587890625</ele>
        <time>2019-11-03T12:50:29.000Z</time>
      </trkpt>
      <trkpt lat="36.69901781715452671051025390625" lon="-5.85841228254139423370361328125">
        <ele>40.59999847412109375</ele>
        <time>2019-11-03T12:50:33.000Z</time>
      </trkpt>
      <trkpt lat="36.6989176534116268157958984375" lon="-5.8585199899971485137939453125">
        <ele>40.40000152587890625</ele>
        <time>2019-11-03T12:50:36.000Z</time>
      </trkpt>
      <trkpt lat="36.6987480036914348602294921875" lon="-5.85867212153971195220947265625">
        <ele>39.59999847412109375</ele>
        <time>2019-11-03T12:50:41.000Z</time>
      </trkpt>
      <trkpt lat="36.69858933426439762115478515625" lon="-5.8587969280779361724853515625">
        <ele>38.799999237060546875</ele>
        <time>2019-11-03T12:50:45.000Z</time>
      </trkpt>
      <trkpt lat="36.69840551912784576416015625" lon="-5.85889658890664577484130859375">
        <ele>37.799999237060546875</ele>
        <time>2019-11-03T12:50:49.000Z</time>
      </trkpt>
      <trkpt lat="36.69820980168879032135009765625" lon="-5.858981497585773468017578125">
        <ele>37.40000152587890625</ele>
        <time>2019-11-03T12:50:53.000Z</time>
      </trkpt>
      <trkpt lat="36.6981156729161739349365234375" lon="-5.85902080871164798736572265625">
        <ele>37</ele>
        <time>2019-11-03T12:50:55.000Z</time>
      </trkpt>
      <trkpt lat="36.697917021811008453369140625" lon="-5.85909021086990833282470703125">
        <ele>37</ele>
        <time>2019-11-03T12:50:59.000Z</time>
      </trkpt>
      <trkpt lat="36.69769448228180408477783203125" lon="-5.8591422624886035919189453125">
        <ele>36.59999847412109375</ele>
        <time>2019-11-03T12:51:03.000Z</time>
      </trkpt>
      <trkpt lat="36.69751578010618686676025390625" lon="-5.859191715717315673828125">
        <ele>35.59999847412109375</ele>
        <time>2019-11-03T12:51:06.000Z</time>
      </trkpt>
      <trkpt lat="36.6973931528627872467041015625" lon="-5.859214849770069122314453125">
        <ele>35.200000762939453125</ele>
        <time>2019-11-03T12:51:08.000Z</time>
      </trkpt>
      <trkpt lat="36.69718067161738872528076171875" lon="-5.85917101241648197174072265625">
        <ele>35</ele>
        <time>2019-11-03T12:51:12.000Z</time>
      </trkpt>
      <trkpt lat="36.69697363860905170440673828125" lon="-5.85918358527123928070068359375">
        <ele>34.799999237060546875</ele>
        <time>2019-11-03T12:51:17.000Z</time>
      </trkpt>
      <trkpt lat="36.696809940040111541748046875" lon="-5.8592270873486995697021484375">
        <ele>35.59999847412109375</ele>
        <time>2019-11-03T12:51:23.000Z</time>
      </trkpt>
      <trkpt lat="36.69679426588118076324462890625" lon="-5.859211497008800506591796875">
        <ele>35.59999847412109375</ele>
        <time>2019-11-03T12:51:29.000Z</time>
      </trkpt>
      <trkpt lat="36.696614809334278106689453125" lon="-5.859003961086273193359375">
        <ele>34.200000762939453125</ele>
        <time>2019-11-03T13:59:51.000Z</time>
      </trkpt>
      <trkpt lat="36.6967713832855224609375" lon="-5.85915273986756801605224609375">
        <ele>35.200000762939453125</ele>
        <time>2019-11-03T13:59:56.000Z</time>
      </trkpt>
      <trkpt lat="36.6968308947980403900146484375" lon="-5.859208144247531890869140625">
        <ele>35.40000152587890625</ele>
        <time>2019-11-03T13:59:59.000Z</time>
      </trkpt>
      <trkpt lat="36.69682762585580348968505859375" lon="-5.85924326442182064056396484375">
        <ele>35.59999847412109375</ele>
        <time>2019-11-03T14:00:00.000Z</time>
      </trkpt>
      <trkpt lat="36.69679795391857624053955078125" lon="-5.8593749441206455230712890625">
        <ele>36.200000762939453125</ele>
        <time>2019-11-03T14:00:16.000Z</time>
      </trkpt>
      <trkpt lat="36.6967413760721683502197265625" lon="-5.859400592744350433349609375">
        <ele>36.40000152587890625</ele>
        <time>2019-11-03T14:00:21.000Z</time>
      </trkpt>
      <trkpt lat="36.6967118717730045318603515625" lon="-5.85939967073500156402587890625">
        <ele>36.40000152587890625</ele>
        <time>2019-11-03T14:00:23.000Z</time>
      </trkpt>
      <trkpt lat="36.69663794338703155517578125" lon="-5.8594128303229808807373046875">
        <ele>36.59999847412109375</ele>
        <time>2019-11-03T14:00:27.000Z</time>
      </trkpt>
      <trkpt lat="36.69657549820840358734130859375" lon="-5.85943822748959064483642578125">
        <ele>36.59999847412109375</ele>
        <time>2019-11-03T14:00:31.000Z</time>
      </trkpt>
      <trkpt lat="36.69642194174230098724365234375" lon="-5.8595871739089488983154296875">
        <ele>37</ele>
        <time>2019-11-03T14:00:42.000Z</time>
      </trkpt>
      <trkpt lat="36.6963973827660083770751953125" lon="-5.85959647782146930694580078125">
        <ele>37</ele>
        <time>2019-11-03T14:00:43.000Z</time>
      </trkpt>
      <trkpt lat="36.69621306471526622772216796875" lon="-5.8596079610288143157958984375">
        <ele>37</ele>
        <time>2019-11-03T14:00:49.000Z</time>
      </trkpt>
      <trkpt lat="36.69602346606552600860595703125" lon="-5.8596141636371612548828125">
        <ele>37.59999847412109375</ele>
        <time>2019-11-03T14:00:55.000Z</time>
      </trkpt>
      <trkpt lat="36.695812158286571502685546875" lon="-5.8595935441553592681884765625">
        <ele>39.40000152587890625</ele>
        <time>2019-11-03T14:01:01.000Z</time>
      </trkpt>
      <trkpt lat="36.69562230817973613739013671875" lon="-5.859562195837497711181640625">
        <ele>40.799999237060546875</ele>
        <time>2019-11-03T14:01:06.000Z</time>
      </trkpt>
      <trkpt lat="36.69542717747390270233154296875" lon="-5.8595533110201358795166015625">
        <ele>40.40000152587890625</ele>
        <time>2019-11-03T14:01:13.000Z</time>
      </trkpt>
      <trkpt lat="36.69539876282215118408203125" lon="-5.85955875925719738006591796875">
        <ele>40.200000762939453125</ele>
        <time>2019-11-03T14:01:17.000Z</time>
      </trkpt>
      <trkpt lat="36.69539968483150005340576171875" lon="-5.859564878046512603759765625">
        <ele>40.200000762939453125</ele>
        <time>2019-11-03T14:01:19.000Z</time>
      </trkpt>
      <trkpt lat="36.69516096822917461395263671875" lon="-5.85948533378541469573974609375">
        <ele>38</ele>
        <time>2019-11-03T14:02:00.000Z</time>
      </trkpt>
      <trkpt lat="36.69497874565422534942626953125" lon="-5.85941744036972522735595703125">
        <ele>36.40000152587890625</ele>
        <time>2019-11-03T14:02:07.000Z</time>
      </trkpt>
      <trkpt lat="36.69495058245956897735595703125" lon="-5.8594094775617122650146484375">
        <ele>36.200000762939453125</ele>
        <time>2019-11-03T14:02:08.000Z</time>
      </trkpt>
      <trkpt lat="36.6947689466178417205810546875" lon="-5.859344266355037689208984375">
        <ele>35</ele>
        <time>2019-11-03T14:02:14.000Z</time>
      </trkpt>
      <trkpt lat="36.6945801861584186553955078125" lon="-5.859271176159381866455078125">
        <ele>36.40000152587890625</ele>
        <time>2019-11-03T14:02:20.000Z</time>
      </trkpt>
      <trkpt lat="36.6943962872028350830078125" lon="-5.85917000658810138702392578125">
        <ele>37.40000152587890625</ele>
        <time>2019-11-03T14:02:26.000Z</time>
      </trkpt>
      <trkpt lat="36.69422856532037258148193359375" lon="-5.85908082313835620880126953125">
        <ele>37.59999847412109375</ele>
        <time>2019-11-03T14:02:31.000Z</time>
      </trkpt>
      <trkpt lat="36.69404131360352039337158203125" lon="-5.8589846827089786529541015625">
        <ele>36</ele>
        <time>2019-11-03T14:02:37.000Z</time>
      </trkpt>
      <trkpt lat="36.69386680237948894500732421875" lon="-5.85889139212667942047119140625">
        <ele>34.40000152587890625</ele>
        <time>2019-11-03T14:02:42.000Z</time>
      </trkpt>
      <trkpt lat="36.6936792992055416107177734375" lon="-5.85878460668027400970458984375">
        <ele>33.799999237060546875</ele>
        <time>2019-11-03T14:02:47.000Z</time>
      </trkpt>
      <trkpt lat="36.693486012518405914306640625" lon="-5.8586780726909637451171875">
        <ele>33.799999237060546875</ele>
        <time>2019-11-03T14:02:52.000Z</time>
      </trkpt>
      <trkpt lat="36.69329666532576084136962890625" lon="-5.8585732989013195037841796875">
        <ele>34.40000152587890625</ele>
        <time>2019-11-03T14:02:57.000Z</time>
      </trkpt>
      <trkpt lat="36.69310522265732288360595703125" lon="-5.8584851212799549102783203125">
        <ele>35.59999847412109375</ele>
        <time>2019-11-03T14:03:02.000Z</time>
      </trkpt>
      <trkpt lat="36.692925430834293365478515625" lon="-5.85838478989899158477783203125">
        <ele>34.799999237060546875</ele>
        <time>2019-11-03T14:03:07.000Z</time>
      </trkpt>
      <trkpt lat="36.69273742474615573883056640625" lon="-5.85828043520450592041015625">
        <ele>33.799999237060546875</ele>
        <time>2019-11-03T14:03:12.000Z</time>
      </trkpt>
      <trkpt lat="36.6925442218780517578125" lon="-5.85818144492805004119873046875">
        <ele>32.799999237060546875</ele>
        <time>2019-11-03T14:03:17.000Z</time>
      </trkpt>
      <trkpt lat="36.6923613287508487701416015625" lon="-5.8580928482115268707275390625">
        <ele>32.59999847412109375</ele>
        <time>2019-11-03T14:03:22.000Z</time>
      </trkpt>
      <trkpt lat="36.69218237511813640594482421875" lon="-5.85799955762922763824462890625">
        <ele>34</ele>
        <time>2019-11-03T14:03:27.000Z</time>
      </trkpt>
      <trkpt lat="36.69200283475220203399658203125" lon="-5.8579409681260585784912109375">
        <ele>36</ele>
        <time>2019-11-03T14:03:32.000Z</time>
      </trkpt>
      <trkpt lat="36.69181692413985729217529296875" lon="-5.8578477613627910614013671875">
        <ele>38.200000762939453125</ele>
        <time>2019-11-03T14:03:38.000Z</time>
      </trkpt>
      <trkpt lat="36.69164073653519153594970703125" lon="-5.85776167921721935272216796875">
        <ele>39.59999847412109375</ele>
        <time>2019-11-03T14:03:45.000Z</time>
      </trkpt>
      <trkpt lat="36.69147058390080928802490234375" lon="-5.8576749265193939208984375">
        <ele>40.200000762939453125</ele>
        <time>2019-11-03T14:03:52.000Z</time>
      </trkpt>
      <trkpt lat="36.69128668494522571563720703125" lon="-5.85760309360921382904052734375">
        <ele>40.40000152587890625</ele>
        <time>2019-11-03T14:03:59.000Z</time>
      </trkpt>
      <trkpt lat="36.69110052287578582763671875" lon="-5.8575218729674816131591796875">
        <ele>40.799999237060546875</ele>
        <time>2019-11-03T14:04:07.000Z</time>
      </trkpt>
      <trkpt lat="36.69090740382671356201171875" lon="-5.8574427478015422821044921875">
        <ele>41.40000152587890625</ele>
        <time>2019-11-03T14:04:15.000Z</time>
      </trkpt>
      <trkpt lat="36.69072241522371768951416015625" lon="-5.857357420027256011962890625">
        <ele>42.40000152587890625</ele>
        <time>2019-11-03T14:04:23.000Z</time>
      </trkpt>
      <trkpt lat="36.690538935363292694091796875" lon="-5.85728173144161701202392578125">
        <ele>44</ele>
        <time>2019-11-03T14:04:31.000Z</time>
      </trkpt>
      <trkpt lat="36.69034958817064762115478515625" lon="-5.8572036959230899810791015625">
        <ele>46.59999847412109375</ele>
        <time>2019-11-03T14:04:40.000Z</time>
      </trkpt>
      <trkpt lat="36.69016451574862003326416015625" lon="-5.857104957103729248046875">
        <ele>48.40000152587890625</ele>
        <time>2019-11-03T14:04:49.000Z</time>
      </trkpt>
      <trkpt lat="36.69000475667417049407958984375" lon="-5.85699758492410182952880859375">
        <ele>49.799999237060546875</ele>
        <time>2019-11-03T14:04:57.000Z</time>
      </trkpt>
      <trkpt lat="36.6898497752845287322998046875" lon="-5.85684067569673061370849609375">
        <ele>49.799999237060546875</ele>
        <time>2019-11-03T14:05:05.000Z</time>
      </trkpt>
      <trkpt lat="36.68972915969789028167724609375" lon="-5.85663096047937870025634765625">
        <ele>50.40000152587890625</ele>
        <time>2019-11-03T14:05:12.000Z</time>
      </trkpt>
      <trkpt lat="36.6896251402795314788818359375" lon="-5.85641051642596721649169921875">
        <ele>51</ele>
        <time>2019-11-03T14:05:19.000Z</time>
      </trkpt>
      <trkpt lat="36.689529754221439361572265625" lon="-5.85620700381696224212646484375">
        <ele>51</ele>
        <time>2019-11-03T14:05:26.000Z</time>
      </trkpt>
      <trkpt lat="36.68942607007920742034912109375" lon="-5.85599913261830806732177734375">
        <ele>50.799999237060546875</ele>
        <time>2019-11-03T14:05:33.000Z</time>
      </trkpt>
      <trkpt lat="36.68931878171861171722412109375" lon="-5.855801068246364593505859375">
        <ele>51.40000152587890625</ele>
        <time>2019-11-03T14:05:40.000Z</time>
      </trkpt>
      <trkpt lat="36.6891946457326412200927734375" lon="-5.8556154929101467132568359375">
        <ele>52.200000762939453125</ele>
        <time>2019-11-03T14:05:47.000Z</time>
      </trkpt>
      <trkpt lat="36.6890560090541839599609375" lon="-5.855424217879772186279296875">
        <ele>53.40000152587890625</ele>
        <time>2019-11-03T14:05:54.000Z</time>
      </trkpt>
      <trkpt lat="36.68891695328056812286376953125" lon="-5.8552502095699310302734375">
        <ele>54.59999847412109375</ele>
        <time>2019-11-03T14:06:01.000Z</time>
      </trkpt>
      <trkpt lat="36.6887745447456836700439453125" lon="-5.855096317827701568603515625">
        <ele>55</ele>
        <time>2019-11-03T14:06:08.000Z</time>
      </trkpt>
      <trkpt lat="36.6886320523917675018310546875" lon="-5.8549509756267070770263671875">
        <ele>56.200000762939453125</ele>
        <time>2019-11-03T14:06:15.000Z</time>
      </trkpt>
      <trkpt lat="36.68848260305821895599365234375" lon="-5.8548044599592685699462890625">
        <ele>57.200000762939453125</ele>
        <time>2019-11-03T14:06:23.000Z</time>
      </trkpt>
      <trkpt lat="36.68832636438310146331787109375" lon="-5.85464780218899250030517578125">
        <ele>59.200000762939453125</ele>
        <time>2019-11-03T14:06:32.000Z</time>
      </trkpt>
      <trkpt lat="36.68817599304020404815673828125" lon="-5.85450547747313976287841796875">
        <ele>61.200000762939453125</ele>
        <time>2019-11-03T14:06:41.000Z</time>
      </trkpt>
      <trkpt lat="36.68801824562251567840576171875" lon="-5.854363404214382171630859375">
        <ele>63</ele>
        <time>2019-11-03T14:06:50.000Z</time>
      </trkpt>
      <trkpt lat="36.6878656111657619476318359375" lon="-5.85420808754861354827880859375">
        <ele>64.59999847412109375</ele>
        <time>2019-11-03T14:06:59.000Z</time>
      </trkpt>
      <trkpt lat="36.6877264715731143951416015625" lon="-5.85406525991857051849365234375">
        <ele>65.8000030517578125</ele>
        <time>2019-11-03T14:07:07.000Z</time>
      </trkpt>
      <trkpt lat="36.68757014907896518707275390625" lon="-5.8539171516895294189453125">
        <ele>66.59999847412109375</ele>
        <time>2019-11-03T14:07:16.000Z</time>
      </trkpt>
      <trkpt lat="36.687413491308689117431640625" lon="-5.8537852205336093902587890625">
        <ele>67.59999847412109375</ele>
        <time>2019-11-03T14:07:25.000Z</time>
      </trkpt>
      <trkpt lat="36.6872597672045230865478515625" lon="-5.85366510786116123199462890625">
        <ele>69.1999969482421875</ele>
        <time>2019-11-03T14:07:33.000Z</time>
      </trkpt>
      <trkpt lat="36.6870830766856670379638671875" lon="-5.85355631075799465179443359375">
        <ele>70.40000152587890625</ele>
        <time>2019-11-03T14:07:42.000Z</time>
      </trkpt>
      <trkpt lat="36.68689155019819736480712890625" lon="-5.85350836627185344696044921875">
        <ele>72</ele>
        <time>2019-11-03T14:07:50.000Z</time>
      </trkpt>
      <trkpt lat="36.6866968385875225067138671875" lon="-5.8535009063780307769775390625">
        <ele>74.1999969482421875</ele>
        <time>2019-11-03T14:07:58.000Z</time>
      </trkpt>
      <trkpt lat="36.68649894185364246368408203125" lon="-5.8535156585276126861572265625">
        <ele>74.8000030517578125</ele>
        <time>2019-11-03T14:08:06.000Z</time>
      </trkpt>
      <trkpt lat="36.68630079366266727447509765625" lon="-5.85353502072393894195556640625">
        <ele>75.59999847412109375</ele>
        <time>2019-11-03T14:08:14.000Z</time>
      </trkpt>
      <trkpt lat="36.6861074231564998626708984375" lon="-5.8535523712635040283203125">
        <ele>76.40000152587890625</ele>
        <time>2019-11-03T14:08:22.000Z</time>
      </trkpt>
      <trkpt lat="36.68590701185166835784912109375" lon="-5.85356519557535648345947265625">
        <ele>76.59999847412109375</ele>
        <time>2019-11-03T14:08:30.000Z</time>
      </trkpt>
      <trkpt lat="36.68571623973548412322998046875" lon="-5.853580199182033538818359375">
        <ele>76.8000030517578125</ele>
        <time>2019-11-03T14:08:38.000Z</time>
      </trkpt>
      <trkpt lat="36.68552697636187076568603515625" lon="-5.853588916361331939697265625">
        <ele>76.40000152587890625</ele>
        <time>2019-11-03T14:08:46.000Z</time>
      </trkpt>
      <trkpt lat="36.6853357851505279541015625" lon="-5.85360534489154815673828125">
        <ele>76.40000152587890625</ele>
        <time>2019-11-03T14:08:54.000Z</time>
      </trkpt>
      <trkpt lat="36.68513529002666473388671875" lon="-5.85361615754663944244384765625">
        <ele>77.59999847412109375</ele>
        <time>2019-11-03T14:09:02.000Z</time>
      </trkpt>
      <trkpt lat="36.68494158424437046051025390625" lon="-5.8536221086978912353515625">
        <ele>78.40000152587890625</ele>
        <time>2019-11-03T14:09:08.000Z</time>
      </trkpt>
      <trkpt lat="36.684759445488452911376953125" lon="-5.85362604819238185882568359375">
        <ele>79.8000030517578125</ele>
        <time>2019-11-03T14:09:13.000Z</time>
      </trkpt>
      <trkpt lat="36.68455400504171848297119140625" lon="-5.853618420660495758056640625">
        <ele>79.59999847412109375</ele>
        <time>2019-11-03T14:09:18.000Z</time>
      </trkpt>
      <trkpt lat="36.68433062732219696044921875" lon="-5.853610374033451080322265625">
        <ele>79</ele>
        <time>2019-11-03T14:09:23.000Z</time>
      </trkpt>
      <trkpt lat="36.684139184653759002685546875" lon="-5.8535952866077423095703125">
        <ele>78.59999847412109375</ele>
        <time>2019-11-03T14:09:27.000Z</time>
      </trkpt>
      <trkpt lat="36.68393324129283428192138671875" lon="-5.8535783551633358001708984375">
        <ele>79</ele>
        <time>2019-11-03T14:09:31.000Z</time>
      </trkpt>
      <trkpt lat="36.6837323270738124847412109375" lon="-5.85355882532894611358642578125">
        <ele>80</ele>
        <time>2019-11-03T14:09:35.000Z</time>
      </trkpt>
      <trkpt lat="36.68353392742574214935302734375" lon="-5.85353720001876354217529296875">
        <ele>80.59999847412109375</ele>
        <time>2019-11-03T14:09:39.000Z</time>
      </trkpt>
      <trkpt lat="36.68333477340638637542724609375" lon="-5.8535228669643402099609375">
        <ele>80</ele>
        <time>2019-11-03T14:09:43.000Z</time>
      </trkpt>
      <trkpt lat="36.683148108422756195068359375" lon="-5.85351540707051753997802734375">
        <ele>79.40000152587890625</ele>
        <time>2019-11-03T14:09:47.000Z</time>
      </trkpt>
      <trkpt lat="36.68296731077134609222412109375" lon="-5.8535032533109188079833984375">
        <ele>79.8000030517578125</ele>
        <time>2019-11-03T14:09:51.000Z</time>
      </trkpt>
      <trkpt lat="36.68278693221509456634521484375" lon="-5.85349763743579387664794921875">
        <ele>80.1999969482421875</ele>
        <time>2019-11-03T14:09:55.000Z</time>
      </trkpt>
      <trkpt lat="36.68256305158138275146484375" lon="-5.85349160246551036834716796875">
        <ele>80.1999969482421875</ele>
        <time>2019-11-03T14:10:00.000Z</time>
      </trkpt>
      <trkpt lat="36.682362891733646392822265625" lon="-5.8534772694110870361328125">
        <ele>80.1999969482421875</ele>
        <time>2019-11-03T14:10:04.000Z</time>
      </trkpt>
      <trkpt lat="36.6821571998298168182373046875" lon="-5.8534620143473148345947265625">
        <ele>80.1999969482421875</ele>
        <time>2019-11-03T14:10:08.000Z</time>
      </trkpt>
      <trkpt lat="36.6819562017917633056640625" lon="-5.85343678481876850128173828125">
        <ele>79.8000030517578125</ele>
        <time>2019-11-03T14:10:12.000Z</time>
      </trkpt>
      <trkpt lat="36.68175478465855121612548828125" lon="-5.85342454724013805389404296875">
        <ele>79</ele>
        <time>2019-11-03T14:10:16.000Z</time>
      </trkpt>
      <trkpt lat="36.681566946208477020263671875" lon="-5.85341750644147396087646484375">
        <ele>78.40000152587890625</ele>
        <time>2019-11-03T14:10:20.000Z</time>
      </trkpt>
      <trkpt lat="36.6813736595213413238525390625" lon="-5.853405855596065521240234375">
        <ele>77.59999847412109375</ele>
        <time>2019-11-03T14:10:24.000Z</time>
      </trkpt>
      <trkpt lat="36.6811724938452243804931640625" lon="-5.853389091789722442626953125">
        <ele>76.8000030517578125</ele>
        <time>2019-11-03T14:10:28.000Z</time>
      </trkpt>
      <trkpt lat="36.68095045723021030426025390625" lon="-5.853364951908588409423828125">
        <ele>75.8000030517578125</ele>
        <time>2019-11-03T14:10:32.000Z</time>
      </trkpt>
      <trkpt lat="36.6807706654071807861328125" lon="-5.85334693081676959991455078125">
        <ele>75.1999969482421875</ele>
        <time>2019-11-03T14:10:35.000Z</time>
      </trkpt>
      <trkpt lat="36.68057478033006191253662109375" lon="-5.85332798771560192108154296875">
        <ele>74.8000030517578125</ele>
        <time>2019-11-03T14:10:38.000Z</time>
      </trkpt>
      <trkpt lat="36.6803790628910064697265625" lon="-5.85331759415566921234130859375">
        <ele>74.1999969482421875</ele>
        <time>2019-11-03T14:10:41.000Z</time>
      </trkpt>
      <trkpt lat="36.68017999269068241119384765625" lon="-5.85330720059573650360107421875">
        <ele>74</ele>
        <time>2019-11-03T14:10:44.000Z</time>
      </trkpt>
      <trkpt lat="36.6799832694232463836669921875" lon="-5.853294543921947479248046875">
        <ele>75</ele>
        <time>2019-11-03T14:10:47.000Z</time>
      </trkpt>
      <trkpt lat="36.6797891445457935333251953125" lon="-5.85327434353530406951904296875">
        <ele>76</ele>
        <time>2019-11-03T14:10:50.000Z</time>
      </trkpt>
      <trkpt lat="36.67960583232343196868896484375" lon="-5.853258669376373291015625">
        <ele>76.40000152587890625</ele>
        <time>2019-11-03T14:10:53.000Z</time>
      </trkpt>
      <trkpt lat="36.67938672937452793121337890625" lon="-5.85324861109256744384765625">
        <ele>75.59999847412109375</ele>
        <time>2019-11-03T14:10:57.000Z</time>
      </trkpt>
      <trkpt lat="36.67918439023196697235107421875" lon="-5.8532293327152729034423828125">
        <ele>74.8000030517578125</ele>
        <time>2019-11-03T14:11:01.000Z</time>
      </trkpt>
      <trkpt lat="36.678965874016284942626953125" lon="-5.85322304628789424896240234375">
        <ele>74</ele>
        <time>2019-11-03T14:11:06.000Z</time>
      </trkpt>
      <trkpt lat="36.67873914353549480438232421875" lon="-5.8532139100134372711181640625">
        <ele>74.8000030517578125</ele>
        <time>2019-11-03T14:11:11.000Z</time>
      </trkpt>
      <trkpt lat="36.678554154932498931884765625" lon="-5.853197313845157623291015625">
        <ele>76.40000152587890625</ele>
        <time>2019-11-03T14:11:15.000Z</time>
      </trkpt>
      <trkpt lat="36.6783700883388519287109375" lon="-5.85318549536168575286865234375">
        <ele>79</ele>
        <time>2019-11-03T14:11:19.000Z</time>
      </trkpt>
      <trkpt lat="36.678154505789279937744140625" lon="-5.85318163968622684478759765625">
        <ele>81.40000152587890625</ele>
        <time>2019-11-03T14:11:24.000Z</time>
      </trkpt>
      <trkpt lat="36.6779551841318607330322265625" lon="-5.85314492695033550262451171875">
        <ele>83</ele>
        <time>2019-11-03T14:11:29.000Z</time>
      </trkpt>
      <trkpt lat="36.67777187190949916839599609375" lon="-5.8531290851533412933349609375">
        <ele>84.1999969482421875</ele>
        <time>2019-11-03T14:11:34.000Z</time>
      </trkpt>
      <trkpt lat="36.6775779984891414642333984375" lon="-5.8531186915934085845947265625">
        <ele>84.8000030517578125</ele>
        <time>2019-11-03T14:11:39.000Z</time>
      </trkpt>
      <trkpt lat="36.6775032319128513336181640625" lon="-5.8531133271753787994384765625">
        <ele>84.8000030517578125</ele>
        <time>2019-11-03T14:11:41.000Z</time>
      </trkpt>
      <trkpt lat="36.67729125358164310455322265625" lon="-5.85310569964349269866943359375">
        <ele>84.8000030517578125</ele>
        <time>2019-11-03T14:11:46.000Z</time>
      </trkpt>
      <trkpt lat="36.67710752226412296295166015625" lon="-5.85311584174633026123046875">
        <ele>83.59999847412109375</ele>
        <time>2019-11-03T14:11:50.000Z</time>
      </trkpt>
      <trkpt lat="36.676904261112213134765625" lon="-5.8531297557055950164794921875">
        <ele>82.1999969482421875</ele>
        <time>2019-11-03T14:11:54.000Z</time>
      </trkpt>
      <trkpt lat="36.676690019667148590087890625" lon="-5.8531595952808856964111328125">
        <ele>80.8000030517578125</ele>
        <time>2019-11-03T14:11:58.000Z</time>
      </trkpt>
      <trkpt lat="36.67644971050322055816650390625" lon="-5.85320980288088321685791015625">
        <ele>78.59999847412109375</ele>
        <time>2019-11-03T14:12:02.000Z</time>
      </trkpt>
      <trkpt lat="36.67625541798770427703857421875" lon="-5.85323997773230075836181640625">
        <ele>77</ele>
        <time>2019-11-03T14:12:05.000Z</time>
      </trkpt>
      <trkpt lat="36.67605198919773101806640625" lon="-5.85327551700174808502197265625">
        <ele>75.1999969482421875</ele>
        <time>2019-11-03T14:12:08.000Z</time>
      </trkpt>
      <trkpt lat="36.6758354008197784423828125" lon="-5.853311307728290557861328125">
        <ele>73.8000030517578125</ele>
        <time>2019-11-03T14:12:11.000Z</time>
      </trkpt>
      <trkpt lat="36.67561034671962261199951171875" lon="-5.853348858654499053955078125">
        <ele>72.8000030517578125</ele>
        <time>2019-11-03T14:12:14.000Z</time>
      </trkpt>
      <trkpt lat="36.67537766508758068084716796875" lon="-5.8533909358084201812744140625">
        <ele>72</ele>
        <time>2019-11-03T14:12:17.000Z</time>
      </trkpt>
      <trkpt lat="36.67514582164585590362548828125" lon="-5.85344281978905200958251953125">
        <ele>71.40000152587890625</ele>
        <time>2019-11-03T14:12:20.000Z</time>
      </trkpt>
      <trkpt lat="36.67491246946156024932861328125" lon="-5.85349126718938350677490234375">
        <ele>70</ele>
        <time>2019-11-03T14:12:23.000Z</time>
      </trkpt>
      <trkpt lat="36.674684397876262664794921875" lon="-5.85353686474263668060302734375">
        <ele>68.59999847412109375</ele>
        <time>2019-11-03T14:12:26.000Z</time>
      </trkpt>
      <trkpt lat="36.67446437291800975799560546875" lon="-5.85357248783111572265625">
        <ele>68</ele>
        <time>2019-11-03T14:12:29.000Z</time>
      </trkpt>
      <trkpt lat="36.67424526996910572052001953125" lon="-5.85361347533762454986572265625">
        <ele>68</ele>
        <time>2019-11-03T14:12:32.000Z</time>
      </trkpt>
      <trkpt lat="36.67403094470500946044921875" lon="-5.85364867933094501495361328125">
        <ele>68</ele>
        <time>2019-11-03T14:12:35.000Z</time>
      </trkpt>
      <trkpt lat="36.6738224029541015625" lon="-5.8536856435239315032958984375">
        <ele>68</ele>
        <time>2019-11-03T14:12:38.000Z</time>
      </trkpt>
      <trkpt lat="36.6736167110502719879150390625" lon="-5.85372411645948886871337890625">
        <ele>67.8000030517578125</ele>
        <time>2019-11-03T14:12:41.000Z</time>
      </trkpt>
      <trkpt lat="36.673417724668979644775390625" lon="-5.853757224977016448974609375">
        <ele>67.1999969482421875</ele>
        <time>2019-11-03T14:12:44.000Z</time>
      </trkpt>
      <trkpt lat="36.67323206551373004913330078125" lon="-5.853788740932941436767578125">
        <ele>67</ele>
        <time>2019-11-03T14:12:47.000Z</time>
      </trkpt>
      <trkpt lat="36.6729961149394512176513671875" lon="-5.85383894853293895721435546875">
        <ele>67.40000152587890625</ele>
        <time>2019-11-03T14:12:51.000Z</time>
      </trkpt>
      <trkpt lat="36.6727788560092449188232421875" lon="-5.8538769185543060302734375">
        <ele>67.40000152587890625</ele>
        <time>2019-11-03T14:12:55.000Z</time>
      </trkpt>
      <trkpt lat="36.67257593013346195220947265625" lon="-5.85391019470989704132080078125">
        <ele>66.8000030517578125</ele>
        <time>2019-11-03T14:12:59.000Z</time>
      </trkpt>
      <trkpt lat="36.67239069007337093353271484375" lon="-5.853948332369327545166015625">
        <ele>66.1999969482421875</ele>
        <time>2019-11-03T14:13:03.000Z</time>
      </trkpt>
      <trkpt lat="36.67220595292747020721435546875" lon="-5.8539709635078907012939453125">
        <ele>65.8000030517578125</ele>
        <time>2019-11-03T14:13:07.000Z</time>
      </trkpt>
      <trkpt lat="36.67200587689876556396484375" lon="-5.85400457493960857391357421875">
        <ele>65</ele>
        <time>2019-11-03T14:13:11.000Z</time>
      </trkpt>
      <trkpt lat="36.67180311866104602813720703125" lon="-5.8540427125990390777587890625">
        <ele>65.1999969482421875</ele>
        <time>2019-11-03T14:13:15.000Z</time>
      </trkpt>
      <trkpt lat="36.67159843258559703826904296875" lon="-5.85409241728484630584716796875">
        <ele>65.40000152587890625</ele>
        <time>2019-11-03T14:13:19.000Z</time>
      </trkpt>
      <trkpt lat="36.67139039374887943267822265625" lon="-5.85412074811756610870361328125">
        <ele>65.40000152587890625</ele>
        <time>2019-11-03T14:13:23.000Z</time>
      </trkpt>
      <trkpt lat="36.6711799241602420806884765625" lon="-5.8541476540267467498779296875">
        <ele>64.59999847412109375</ele>
        <time>2019-11-03T14:13:27.000Z</time>
      </trkpt>
      <trkpt lat="36.6709710471332073211669921875" lon="-5.854183696210384368896484375">
        <ele>64</ele>
        <time>2019-11-03T14:13:31.000Z</time>
      </trkpt>
      <trkpt lat="36.67075957171618938446044921875" lon="-5.8542237617075443267822265625">
        <ele>64</ele>
        <time>2019-11-03T14:13:35.000Z</time>
      </trkpt>
      <trkpt lat="36.670547090470790863037109375" lon="-5.8542572893202304840087890625">
        <ele>64</ele>
        <time>2019-11-03T14:13:39.000Z</time>
      </trkpt>
      <trkpt lat="36.67034449987113475799560546875" lon="-5.8543002046644687652587890625">
        <ele>64</ele>
        <time>2019-11-03T14:13:43.000Z</time>
      </trkpt>
      <trkpt lat="36.670145429670810699462890625" lon="-5.85433800704777240753173828125">
        <ele>64.40000152587890625</ele>
        <time>2019-11-03T14:13:47.000Z</time>
      </trkpt>
      <trkpt lat="36.669936217367649078369140625" lon="-5.85438243113458156585693359375">
        <ele>64.1999969482421875</ele>
        <time>2019-11-03T14:13:51.000Z</time>
      </trkpt>
      <trkpt lat="36.66969859041273593902587890625" lon="-5.8544188924133777618408203125">
        <ele>63.40000152587890625</ele>
        <time>2019-11-03T14:13:55.000Z</time>
      </trkpt>
      <trkpt lat="36.6695105843245983123779296875" lon="-5.8544551022350788116455078125">
        <ele>63.40000152587890625</ele>
        <time>2019-11-03T14:13:58.000Z</time>
      </trkpt>
      <trkpt lat="36.66931025683879852294921875" lon="-5.8544950000941753387451171875">
        <ele>63.200000762939453125</ele>
        <time>2019-11-03T14:14:01.000Z</time>
      </trkpt>
      <trkpt lat="36.66911588050425052642822265625" lon="-5.85453799925744533538818359375">
        <ele>62.59999847412109375</ele>
        <time>2019-11-03T14:14:04.000Z</time>
      </trkpt>
      <trkpt lat="36.66892996989190578460693359375" lon="-5.85458024404942989349365234375">
        <ele>61.799999237060546875</ele>
        <time>2019-11-03T14:14:07.000Z</time>
      </trkpt>
      <trkpt lat="36.66871212422847747802734375" lon="-5.8546354807913303375244140625">
        <ele>61.59999847412109375</ele>
        <time>2019-11-03T14:14:11.000Z</time>
      </trkpt>
      <trkpt lat="36.66849645785987377166748046875" lon="-5.8546827547252178192138671875">
        <ele>61.40000152587890625</ele>
        <time>2019-11-03T14:14:15.000Z</time>
      </trkpt>
      <trkpt lat="36.668286658823490142822265625" lon="-5.854720138013362884521484375">
        <ele>61.59999847412109375</ele>
        <time>2019-11-03T14:14:19.000Z</time>
      </trkpt>
      <trkpt lat="36.6680937074124813079833984375" lon="-5.8547551743686199188232421875">
        <ele>62</ele>
        <time>2019-11-03T14:14:23.000Z</time>
      </trkpt>
      <trkpt lat="36.66790821589529514312744140625" lon="-5.85478895343840122222900390625">
        <ele>61.40000152587890625</ele>
        <time>2019-11-03T14:14:27.000Z</time>
      </trkpt>
      <trkpt lat="36.66772213764488697052001953125" lon="-5.8548178710043430328369140625">
        <ele>61</ele>
        <time>2019-11-03T14:14:31.000Z</time>
      </trkpt>
      <trkpt lat="36.66753907687962055206298828125" lon="-5.8548510633409023284912109375">
        <ele>61.200000762939453125</ele>
        <time>2019-11-03T14:14:35.000Z</time>
      </trkpt>
      <trkpt lat="36.66732047684490680694580078125" lon="-5.85488383658230304718017578125">
        <ele>61.200000762939453125</ele>
        <time>2019-11-03T14:14:40.000Z</time>
      </trkpt>
      <trkpt lat="36.6671059839427471160888671875" lon="-5.85492339916527271270751953125">
        <ele>61.40000152587890625</ele>
        <time>2019-11-03T14:14:45.000Z</time>
      </trkpt>
      <trkpt lat="36.66690322570502758026123046875" lon="-5.85496195591986179351806640625">
        <ele>61.59999847412109375</ele>
        <time>2019-11-03T14:14:50.000Z</time>
      </trkpt>
      <trkpt lat="36.666704155504703521728515625" lon="-5.8549938909709453582763671875">
        <ele>62</ele>
        <time>2019-11-03T14:14:55.000Z</time>
      </trkpt>
      <trkpt lat="36.66649737395346164703369140625" lon="-5.85502666421234607696533203125">
        <ele>62</ele>
        <time>2019-11-03T14:15:00.000Z</time>
      </trkpt>
      <trkpt lat="36.66629620827734470367431640625" lon="-5.8550626225769519805908203125">
        <ele>62.200000762939453125</ele>
        <time>2019-11-03T14:15:05.000Z</time>
      </trkpt>
      <trkpt lat="36.6661043465137481689453125" lon="-5.8550974912941455841064453125">
        <ele>62.200000762939453125</ele>
        <time>2019-11-03T14:15:10.000Z</time>
      </trkpt>
      <trkpt lat="36.6659254767000675201416015625" lon="-5.8551303483545780181884765625">
        <ele>62.799999237060546875</ele>
        <time>2019-11-03T14:15:15.000Z</time>
      </trkpt>
      <trkpt lat="36.66571718640625476837158203125" lon="-5.85516613908112049102783203125">
        <ele>63.40000152587890625</ele>
        <time>2019-11-03T14:15:21.000Z</time>
      </trkpt>
      <trkpt lat="36.6655053757131099700927734375" lon="-5.8552101440727710723876953125">
        <ele>64</ele>
        <time>2019-11-03T14:15:27.000Z</time>
      </trkpt>
      <trkpt lat="36.6652988456189632415771484375" lon="-5.855243168771266937255859375">
        <ele>64</ele>
        <time>2019-11-03T14:15:33.000Z</time>
      </trkpt>
      <trkpt lat="36.6651211492717266082763671875" lon="-5.8552855812013149261474609375">
        <ele>64</ele>
        <time>2019-11-03T14:15:38.000Z</time>
      </trkpt>
      <trkpt lat="36.6649417765438556671142578125" lon="-5.85531684570014476776123046875">
        <ele>64</ele>
        <time>2019-11-03T14:15:43.000Z</time>
      </trkpt>
      <trkpt lat="36.66473952122032642364501953125" lon="-5.85535557009279727935791015625">
        <ele>64.1999969482421875</ele>
        <time>2019-11-03T14:15:49.000Z</time>
      </trkpt>
      <trkpt lat="36.66455009020864963531494140625" lon="-5.8553878404200077056884765625">
        <ele>64.8000030517578125</ele>
        <time>2019-11-03T14:15:55.000Z</time>
      </trkpt>
      <trkpt lat="36.66433886624872684478759765625" lon="-5.8554227091372013092041015625">
        <ele>65.40000152587890625</ele>
        <time>2019-11-03T14:16:01.000Z</time>
      </trkpt>
      <trkpt lat="36.66415639221668243408203125" lon="-5.85545280016958713531494140625">
        <ele>65.8000030517578125</ele>
        <time>2019-11-03T14:16:06.000Z</time>
      </trkpt>
      <trkpt lat="36.66394441388547420501708984375" lon="-5.85549051873385906219482421875">
        <ele>65.59999847412109375</ele>
        <time>2019-11-03T14:16:12.000Z</time>
      </trkpt>
      <trkpt lat="36.663735620677471160888671875" lon="-5.85552957840263843536376953125">
        <ele>65.40000152587890625</ele>
        <time>2019-11-03T14:16:18.000Z</time>
      </trkpt>
      <trkpt lat="36.66352632455527782440185546875" lon="-5.85557081736624240875244140625">
        <ele>65.40000152587890625</ele>
        <time>2019-11-03T14:16:24.000Z</time>
      </trkpt>
      <trkpt lat="36.66332700289785861968994140625" lon="-5.85561540909111499786376953125">
        <ele>64.8000030517578125</ele>
        <time>2019-11-03T14:16:30.000Z</time>
      </trkpt>
      <trkpt lat="36.66312164627015590667724609375" lon="-5.8556429855525493621826171875">
        <ele>65</ele>
        <time>2019-11-03T14:16:36.000Z</time>
      </trkpt>
      <trkpt lat="36.66294294409453868865966796875" lon="-5.8556734956800937652587890625">
        <ele>65.40000152587890625</ele>
        <time>2019-11-03T14:16:41.000Z</time>
      </trkpt>
      <trkpt lat="36.66275837458670139312744140625" lon="-5.855705849826335906982421875">
        <ele>66</ele>
        <time>2019-11-03T14:16:46.000Z</time>
      </trkpt>
      <trkpt lat="36.66256894357502460479736328125" lon="-5.85573946125805377960205078125">
        <ele>66</ele>
        <time>2019-11-03T14:16:51.000Z</time>
      </trkpt>
      <trkpt lat="36.662385128438472747802734375" lon="-5.85577533580362796783447265625">
        <ele>66</ele>
        <time>2019-11-03T14:16:56.000Z</time>
      </trkpt>
      <trkpt lat="36.662201397120952606201171875" lon="-5.85580869577825069427490234375">
        <ele>66</ele>
        <time>2019-11-03T14:17:01.000Z</time>
      </trkpt>
      <trkpt lat="36.6619886644184589385986328125" lon="-5.85584540851414203643798828125">
        <ele>65.59999847412109375</ele>
        <time>2019-11-03T14:17:07.000Z</time>
      </trkpt>
      <trkpt lat="36.66180945932865142822265625" lon="-5.85587910376489162445068359375">
        <ele>65.1999969482421875</ele>
        <time>2019-11-03T14:17:12.000Z</time>
      </trkpt>
      <trkpt lat="36.66159764863550662994384765625" lon="-5.85591715760529041290283203125">
        <ele>65</ele>
        <time>2019-11-03T14:17:18.000Z</time>
      </trkpt>
      <trkpt lat="36.6613885201513767242431640625" lon="-5.855943225324153900146484375">
        <ele>65.1999969482421875</ele>
        <time>2019-11-03T14:17:24.000Z</time>
      </trkpt>
      <trkpt lat="36.66119732894003391265869140625" lon="-5.855973400175571441650390625">
        <ele>65.8000030517578125</ele>
        <time>2019-11-03T14:17:29.000Z</time>
      </trkpt>
      <trkpt lat="36.66101141832768917083740234375" lon="-5.85600717924535274505615234375">
        <ele>66.1999969482421875</ele>
        <time>2019-11-03T14:17:34.000Z</time>
      </trkpt>
      <trkpt lat="36.660830788314342498779296875" lon="-5.85603919811546802520751953125">
        <ele>66.59999847412109375</ele>
        <time>2019-11-03T14:17:39.000Z</time>
      </trkpt>
      <trkpt lat="36.660636328160762786865234375" lon="-5.8560734800994396209716796875">
        <ele>66.40000152587890625</ele>
        <time>2019-11-03T14:17:44.000Z</time>
      </trkpt>
      <trkpt lat="36.660443209111690521240234375" lon="-5.85610139183700084686279296875">
        <ele>67</ele>
        <time>2019-11-03T14:17:49.000Z</time>
      </trkpt>
      <trkpt lat="36.66025134734809398651123046875" lon="-5.85613626055419445037841796875">
        <ele>67.1999969482421875</ele>
        <time>2019-11-03T14:17:54.000Z</time>
      </trkpt>
      <trkpt lat="36.66004582308232784271240234375" lon="-5.85617716424167156219482421875">
        <ele>68</ele>
        <time>2019-11-03T14:18:00.000Z</time>
      </trkpt>
      <trkpt lat="36.65983325801789760589599609375" lon="-5.856216140091419219970703125">
        <ele>68.8000030517578125</ele>
        <time>2019-11-03T14:18:06.000Z</time>
      </trkpt>
      <trkpt lat="36.65963946841657161712646484375" lon="-5.85624539293348789215087890625">
        <ele>68.59999847412109375</ele>
        <time>2019-11-03T14:18:11.000Z</time>
      </trkpt>
      <trkpt lat="36.6594486124813556671142578125" lon="-5.85627992637455463409423828125">
        <ele>67.8000030517578125</ele>
        <time>2019-11-03T14:18:16.000Z</time>
      </trkpt>
      <trkpt lat="36.65925909765064716339111328125" lon="-5.8563081733882427215576171875">
        <ele>67.1999969482421875</ele>
        <time>2019-11-03T14:18:21.000Z</time>
      </trkpt>
      <trkpt lat="36.6590791381895542144775390625" lon="-5.85633222945034503936767578125">
        <ele>66.59999847412109375</ele>
        <time>2019-11-03T14:18:26.000Z</time>
      </trkpt>
      <trkpt lat="36.658896245062351226806640625" lon="-5.856361649930477142333984375">
        <ele>66</ele>
        <time>2019-11-03T14:18:31.000Z</time>
      </trkpt>
      <trkpt lat="36.65871242992579936981201171875" lon="-5.856395177543163299560546875">
        <ele>66</ele>
        <time>2019-11-03T14:18:36.000Z</time>
      </trkpt>
      <trkpt lat="36.65850020013749599456787109375" lon="-5.85643867962062358856201171875">
        <ele>66</ele>
        <time>2019-11-03T14:18:42.000Z</time>
      </trkpt>
      <trkpt lat="36.6583192348480224609375" lon="-5.8564670942723751068115234375">
        <ele>66.1999969482421875</ele>
        <time>2019-11-03T14:18:47.000Z</time>
      </trkpt>
      <trkpt lat="36.65813810192048549652099609375" lon="-5.85649953223764896392822265625">
        <ele>66.8000030517578125</ele>
        <time>2019-11-03T14:18:52.000Z</time>
      </trkpt>
      <trkpt lat="36.65795034728944301605224609375" lon="-5.85653205402195453643798828125">
        <ele>67.1999969482421875</ele>
        <time>2019-11-03T14:18:57.000Z</time>
      </trkpt>
      <trkpt lat="36.6577695496380329132080078125" lon="-5.8565710298717021942138671875">
        <ele>67.1999969482421875</ele>
        <time>2019-11-03T14:19:02.000Z</time>
      </trkpt>
      <trkpt lat="36.65756662376224994659423828125" lon="-5.8566122688353061676025390625">
        <ele>68</ele>
        <time>2019-11-03T14:19:08.000Z</time>
      </trkpt>
      <trkpt lat="36.65735900402069091796875" lon="-5.85665191523730754852294921875">
        <ele>68</ele>
        <time>2019-11-03T14:19:14.000Z</time>
      </trkpt>
      <trkpt lat="36.6571771167218685150146484375" lon="-5.856686532497406005859375">
        <ele>67.40000152587890625</ele>
        <time>2019-11-03T14:19:19.000Z</time>
      </trkpt>
      <trkpt lat="36.656979136168956756591796875" lon="-5.856728442013263702392578125">
        <ele>67.1999969482421875</ele>
        <time>2019-11-03T14:19:25.000Z</time>
      </trkpt>
      <trkpt lat="36.656821556389331817626953125" lon="-5.85682407952845096588134765625">
        <ele>67.8000030517578125</ele>
        <time>2019-11-03T14:19:34.000Z</time>
      </trkpt>
      <trkpt lat="36.65679481811821460723876953125" lon="-5.8568224869668483734130859375">
        <ele>67.8000030517578125</ele>
        <time>2019-11-03T14:19:37.000Z</time>
      </trkpt>
      <trkpt lat="36.65678928606212139129638671875" lon="-5.85682240314781665802001953125">
        <ele>68</ele>
        <time>2019-11-03T14:19:41.000Z</time>
      </trkpt>
      <trkpt lat="36.65653129108250141143798828125" lon="-5.8568191342055797576904296875">
        <ele>68.59999847412109375</ele>
        <time>2019-11-03T14:23:53.000Z</time>
      </trkpt>
      <trkpt lat="36.656490974128246307373046875" lon="-5.85680949501693248748779296875">
        <ele>68.8000030517578125</ele>
        <time>2019-11-03T14:23:57.000Z</time>
      </trkpt>
      <trkpt lat="36.65645434521138668060302734375" lon="-5.8567980118095874786376953125">
        <ele>69</ele>
        <time>2019-11-03T14:24:01.000Z</time>
      </trkpt>
      <trkpt lat="36.65642685256898403167724609375" lon="-5.8568040467798709869384765625">
        <ele>69</ele>
        <time>2019-11-03T14:24:06.000Z</time>
      </trkpt>
      <trkpt lat="36.65633280761539936065673828125" lon="-5.85682508535683155059814453125">
        <ele>69</ele>
        <time>2019-11-03T14:24:13.000Z</time>
      </trkpt>
      <trkpt lat="36.65614203549921512603759765625" lon="-5.85686313919723033905029296875">
        <ele>69</ele>
        <time>2019-11-03T14:24:19.000Z</time>
      </trkpt>
      <trkpt lat="36.65596358478069305419921875" lon="-5.8568970859050750732421875">
        <ele>68.40000152587890625</ele>
        <time>2019-11-03T14:24:24.000Z</time>
      </trkpt>
      <trkpt lat="36.65576510131359100341796875" lon="-5.85694276727735996246337890625">
        <ele>68</ele>
        <time>2019-11-03T14:24:29.000Z</time>
      </trkpt>
      <trkpt lat="36.6555778495967388153076171875" lon="-5.85697847418487071990966796875">
        <ele>68.40000152587890625</ele>
        <time>2019-11-03T14:24:34.000Z</time>
      </trkpt>
      <trkpt lat="36.6553914360702037811279296875" lon="-5.85701133124530315399169921875">
        <ele>68.8000030517578125</ele>
        <time>2019-11-03T14:24:39.000Z</time>
      </trkpt>
      <trkpt lat="36.65519119240343570709228515625" lon="-5.85705240257084369659423828125">
        <ele>69</ele>
        <time>2019-11-03T14:24:44.000Z</time>
      </trkpt>
      <trkpt lat="36.65499933063983917236328125" lon="-5.85708593018352985382080078125">
        <ele>69</ele>
        <time>2019-11-03T14:24:49.000Z</time>
      </trkpt>
      <trkpt lat="36.654808558523654937744140625" lon="-5.8571188710629940032958984375">
        <ele>69</ele>
        <time>2019-11-03T14:24:54.000Z</time>
      </trkpt>
      <trkpt lat="36.6546249948441982269287109375" lon="-5.85715315304696559906005859375">
        <ele>69</ele>
        <time>2019-11-03T14:24:59.000Z</time>
      </trkpt>
      <trkpt lat="36.6544369049370288848876953125" lon="-5.85719070397317409515380859375">
        <ele>69</ele>
        <time>2019-11-03T14:25:04.000Z</time>
      </trkpt>
      <trkpt lat="36.65424588136374950408935546875" lon="-5.8572281710803508758544921875">
        <ele>69.1999969482421875</ele>
        <time>2019-11-03T14:25:09.000Z</time>
      </trkpt>
      <trkpt lat="36.65406349115073680877685546875" lon="-5.8572630397975444793701171875">
        <ele>69.8000030517578125</ele>
        <time>2019-11-03T14:25:14.000Z</time>
      </trkpt>
      <trkpt lat="36.65385176427662372589111328125" lon="-5.857301764190196990966796875">
        <ele>70.1999969482421875</ele>
        <time>2019-11-03T14:25:20.000Z</time>
      </trkpt>
      <trkpt lat="36.65363810956478118896484375" lon="-5.8573347888886928558349609375">
        <ele>70.8000030517578125</ele>
        <time>2019-11-03T14:25:26.000Z</time>
      </trkpt>
      <trkpt lat="36.65345798246562480926513671875" lon="-5.8573666401207447052001953125">
        <ele>70.1999969482421875</ele>
        <time>2019-11-03T14:25:31.000Z</time>
      </trkpt>
      <trkpt lat="36.6532755084335803985595703125" lon="-5.857395641505718231201171875">
        <ele>69.8000030517578125</ele>
        <time>2019-11-03T14:25:36.000Z</time>
      </trkpt>
      <trkpt lat="36.6530874185264110565185546875" lon="-5.85742439143359661102294921875">
        <ele>69.59999847412109375</ele>
        <time>2019-11-03T14:25:41.000Z</time>
      </trkpt>
      <trkpt lat="36.6528885997831821441650390625" lon="-5.85745842196047306060791015625">
        <ele>70</ele>
        <time>2019-11-03T14:25:46.000Z</time>
      </trkpt>
      <trkpt lat="36.65269422344863414764404296875" lon="-5.85749144665896892547607421875">
        <ele>70</ele>
        <time>2019-11-03T14:25:51.000Z</time>
      </trkpt>
      <trkpt lat="36.65248869918286800384521484375" lon="-5.857522375881671905517578125">
        <ele>70</ele>
        <time>2019-11-03T14:25:56.000Z</time>
      </trkpt>
      <trkpt lat="36.6522814147174358367919921875" lon="-5.85756286047399044036865234375">
        <ele>70</ele>
        <time>2019-11-03T14:26:01.000Z</time>
      </trkpt>
      <trkpt lat="36.6520893014967441558837890625" lon="-5.8575837314128875732421875">
        <ele>70.59999847412109375</ele>
        <time>2019-11-03T14:26:06.000Z</time>
      </trkpt>
      <trkpt lat="36.65190129540860652923583984375" lon="-5.8576167561113834381103515625">
        <ele>71</ele>
        <time>2019-11-03T14:26:11.000Z</time>
      </trkpt>
      <trkpt lat="36.65170867927372455596923828125" lon="-5.8576499484479427337646484375">
        <ele>71</ele>
        <time>2019-11-03T14:26:16.000Z</time>
      </trkpt>
      <trkpt lat="36.6515143029391765594482421875" lon="-5.8576834760606288909912109375">
        <ele>71</ele>
        <time>2019-11-03T14:26:21.000Z</time>
      </trkpt>
      <trkpt lat="36.65131623856723308563232421875" lon="-5.8577151596546173095703125">
        <ele>71</ele>
        <time>2019-11-03T14:26:26.000Z</time>
      </trkpt>
      <trkpt lat="36.65111088193953037261962890625" lon="-5.8577553927898406982421875">
        <ele>71</ele>
        <time>2019-11-03T14:26:31.000Z</time>
      </trkpt>
      <trkpt lat="36.65089848451316356658935546875" lon="-5.8577924408018589019775390625">
        <ele>71</ele>
        <time>2019-11-03T14:26:36.000Z</time>
      </trkpt>
      <trkpt lat="36.6507196985185146331787109375" lon="-5.85782957263290882110595703125">
        <ele>71</ele>
        <time>2019-11-03T14:26:40.000Z</time>
      </trkpt>
      <trkpt lat="36.65050889365375041961669921875" lon="-5.8578695543110370635986328125">
        <ele>71</ele>
        <time>2019-11-03T14:26:45.000Z</time>
      </trkpt>
      <trkpt lat="36.65030521340668201446533203125" lon="-5.8579057641327381134033203125">
        <ele>71</ele>
        <time>2019-11-03T14:26:50.000Z</time>
      </trkpt>
      <trkpt lat="36.6501151956617832183837890625" lon="-5.85793904028832912445068359375">
        <ele>70.40000152587890625</ele>
        <time>2019-11-03T14:26:55.000Z</time>
      </trkpt>
      <trkpt lat="36.649921238422393798828125" lon="-5.85796804167330265045166015625">
        <ele>70.40000152587890625</ele>
        <time>2019-11-03T14:27:00.000Z</time>
      </trkpt>
      <trkpt lat="36.64972485043108463287353515625" lon="-5.8580009825527667999267578125">
        <ele>70.40000152587890625</ele>
        <time>2019-11-03T14:27:05.000Z</time>
      </trkpt>
      <trkpt lat="36.64953240193426609039306640625" lon="-5.858038365840911865234375">
        <ele>70</ele>
        <time>2019-11-03T14:27:10.000Z</time>
      </trkpt>
      <trkpt lat="36.64933559484779834747314453125" lon="-5.8580774255096912384033203125">
        <ele>70</ele>
        <time>2019-11-03T14:27:15.000Z</time>
      </trkpt>
      <trkpt lat="36.64913468062877655029296875" lon="-5.85811757482588291168212890625">
        <ele>70</ele>
        <time>2019-11-03T14:27:20.000Z</time>
      </trkpt>
      <trkpt lat="36.648928821086883544921875" lon="-5.85815378464758396148681640625">
        <ele>70</ele>
        <time>2019-11-03T14:27:25.000Z</time>
      </trkpt>
      <trkpt lat="36.6487241350114345550537109375" lon="-5.85818647406995296478271484375">
        <ele>70.8000030517578125</ele>
        <time>2019-11-03T14:27:30.000Z</time>
      </trkpt>
      <trkpt lat="36.64851081557571887969970703125" lon="-5.8582229353487491607666015625">
        <ele>71.8000030517578125</ele>
        <time>2019-11-03T14:27:35.000Z</time>
      </trkpt>
      <trkpt lat="36.6483281739056110382080078125" lon="-5.858262665569782257080078125">
        <ele>72.1999969482421875</ele>
        <time>2019-11-03T14:27:39.000Z</time>
      </trkpt>
      <trkpt lat="36.6481457836925983428955078125" lon="-5.85829795338213443756103515625">
        <ele>72</ele>
        <time>2019-11-03T14:27:43.000Z</time>
      </trkpt>
      <trkpt lat="36.64796582423150539398193359375" lon="-5.85833500139415264129638671875">
        <ele>72</ele>
        <time>2019-11-03T14:27:47.000Z</time>
      </trkpt>
      <trkpt lat="36.64774320088326930999755859375" lon="-5.8583741448819637298583984375">
        <ele>71.8000030517578125</ele>
        <time>2019-11-03T14:27:52.000Z</time>
      </trkpt>
      <trkpt lat="36.64753197692334651947021484375" lon="-5.85840423591434955596923828125">
        <ele>71.8000030517578125</ele>
        <time>2019-11-03T14:27:57.000Z</time>
      </trkpt>
      <trkpt lat="36.6473263688385486602783203125" lon="-5.8584073372185230255126953125">
        <ele>72</ele>
        <time>2019-11-03T14:28:02.000Z</time>
      </trkpt>
      <trkpt lat="36.6471040807664394378662109375" lon="-5.85839937441051006317138671875">
        <ele>72.59999847412109375</ele>
        <time>2019-11-03T14:28:07.000Z</time>
      </trkpt>
      <trkpt lat="36.6469109617173671722412109375" lon="-5.85838864557445049285888671875">
        <ele>72.8000030517578125</ele>
        <time>2019-11-03T14:28:11.000Z</time>
      </trkpt>
      <trkpt lat="36.6467148251831531524658203125" lon="-5.85836400277912616729736328125">
        <ele>72.8000030517578125</ele>
        <time>2019-11-03T14:28:15.000Z</time>
      </trkpt>
      <trkpt lat="36.64651089347898960113525390625" lon="-5.85833550430834293365478515625">
        <ele>72.59999847412109375</ele>
        <time>2019-11-03T14:28:19.000Z</time>
      </trkpt>
      <trkpt lat="36.6463029384613037109375" lon="-5.85830323398113250732421875">
        <ele>73</ele>
        <time>2019-11-03T14:28:23.000Z</time>
      </trkpt>
      <trkpt lat="36.6461062990128993988037109375" lon="-5.85826559923589229583740234375">
        <ele>73.59999847412109375</ele>
        <time>2019-11-03T14:28:27.000Z</time>
      </trkpt>
      <trkpt lat="36.645921729505062103271484375" lon="-5.85822653956711292266845703125">
        <ele>73.59999847412109375</ele>
        <time>2019-11-03T14:28:31.000Z</time>
      </trkpt>
      <trkpt lat="36.645733974874019622802734375" lon="-5.8581924252212047576904296875">
        <ele>73.59999847412109375</ele>
        <time>2019-11-03T14:28:35.000Z</time>
      </trkpt>
      <trkpt lat="36.6455440409481525421142578125" lon="-5.8581562153995037078857421875">
        <ele>74</ele>
        <time>2019-11-03T14:28:39.000Z</time>
      </trkpt>
      <trkpt lat="36.645361483097076416015625" lon="-5.85811874829232692718505859375">
        <ele>73.8000030517578125</ele>
        <time>2019-11-03T14:28:43.000Z</time>
      </trkpt>
      <trkpt lat="36.64517012424767017364501953125" lon="-5.85808890871703624725341796875">
        <ele>74.1999969482421875</ele>
        <time>2019-11-03T14:28:47.000Z</time>
      </trkpt>
      <trkpt lat="36.64497314952313899993896484375" lon="-5.85806158371269702911376953125">
        <ele>74</ele>
        <time>2019-11-03T14:28:51.000Z</time>
      </trkpt>
      <trkpt lat="36.6447620093822479248046875" lon="-5.85803576745092868804931640625">
        <ele>74</ele>
        <time>2019-11-03T14:28:55.000Z</time>
      </trkpt>
      <trkpt lat="36.64454768411815166473388671875" lon="-5.8580006472766399383544921875">
        <ele>73.1999969482421875</ele>
        <time>2019-11-03T14:28:59.000Z</time>
      </trkpt>
      <trkpt lat="36.6443115659058094024658203125" lon="-5.8579828776419162750244140625">
        <ele>72.40000152587890625</ele>
        <time>2019-11-03T14:29:03.000Z</time>
      </trkpt>
      <trkpt lat="36.6440755315124988555908203125" lon="-5.857966952025890350341796875">
        <ele>72</ele>
        <time>2019-11-03T14:29:07.000Z</time>
      </trkpt>
      <trkpt lat="36.64384670555591583251953125" lon="-5.85794323123991489410400390625">
        <ele>72</ele>
        <time>2019-11-03T14:29:11.000Z</time>
      </trkpt>
      <trkpt lat="36.64362131617963314056396484375" lon="-5.85791875608265399932861328125">
        <ele>72</ele>
        <time>2019-11-03T14:29:15.000Z</time>
      </trkpt>
      <trkpt lat="36.64339768700301647186279296875" lon="-5.85789444856345653533935546875">
        <ele>71.1999969482421875</ele>
        <time>2019-11-03T14:29:19.000Z</time>
      </trkpt>
      <trkpt lat="36.643171794712543487548828125" lon="-5.85786913521587848663330078125">
        <ele>71</ele>
        <time>2019-11-03T14:29:23.000Z</time>
      </trkpt>
      <trkpt lat="36.64295487105846405029296875" lon="-5.85784818045794963836669921875">
        <ele>70.40000152587890625</ele>
        <time>2019-11-03T14:29:27.000Z</time>
      </trkpt>
      <trkpt lat="36.64273903705179691314697265625" lon="-5.8578216098248958587646484375">
        <ele>70</ele>
        <time>2019-11-03T14:29:31.000Z</time>
      </trkpt>
      <trkpt lat="36.6425433196127414703369140625" lon="-5.857802666723728179931640625">
        <ele>70</ele>
        <time>2019-11-03T14:29:35.000Z</time>
      </trkpt>
      <trkpt lat="36.6423478536307811737060546875" lon="-5.85778481326997280120849609375">
        <ele>70</ele>
        <time>2019-11-03T14:29:39.000Z</time>
      </trkpt>
      <trkpt lat="36.64216504432260990142822265625" lon="-5.85776142776012420654296875">
        <ele>70.8000030517578125</ele>
        <time>2019-11-03T14:29:43.000Z</time>
      </trkpt>
      <trkpt lat="36.641985587775707244873046875" lon="-5.8577398024499416351318359375">
        <ele>71.40000152587890625</ele>
        <time>2019-11-03T14:29:47.000Z</time>
      </trkpt>
      <trkpt lat="36.641764976084232330322265625" lon="-5.857714153826236724853515625">
        <ele>72.40000152587890625</ele>
        <time>2019-11-03T14:29:52.000Z</time>
      </trkpt>
      <trkpt lat="36.6415851004421710968017578125" lon="-5.857685320079326629638671875">
        <ele>73</ele>
        <time>2019-11-03T14:29:56.000Z</time>
      </trkpt>
      <trkpt lat="36.64140455424785614013671875" lon="-5.85764936171472072601318359375">
        <ele>73</ele>
        <time>2019-11-03T14:30:00.000Z</time>
      </trkpt>
      <trkpt lat="36.6411837749183177947998046875" lon="-5.8576043508946895599365234375">
        <ele>73</ele>
        <time>2019-11-03T14:30:05.000Z</time>
      </trkpt>
      <trkpt lat="36.6409712098538875579833984375" lon="-5.85754961706697940826416015625">
        <ele>73.59999847412109375</ele>
        <time>2019-11-03T14:30:10.000Z</time>
      </trkpt>
      <trkpt lat="36.64076359011232852935791015625" lon="-5.85749077610671520233154296875">
        <ele>74</ele>
        <time>2019-11-03T14:30:15.000Z</time>
      </trkpt>
      <trkpt lat="36.640552617609500885009765625" lon="-5.85743159987032413482666015625">
        <ele>73.8000030517578125</ele>
        <time>2019-11-03T14:30:20.000Z</time>
      </trkpt>
      <trkpt lat="36.640510372817516326904296875" lon="-5.85741768591105937957763671875">
        <ele>73.59999847412109375</ele>
        <time>2019-11-03T14:30:21.000Z</time>
      </trkpt>
      <trkpt lat="36.64032873697578907012939453125" lon="-5.8573673106729984283447265625">
        <ele>73.8000030517578125</ele>
        <time>2019-11-03T14:30:25.000Z</time>
      </trkpt>
      <trkpt lat="36.64013779722154140472412109375" lon="-5.85731358267366886138916015625">
        <ele>74</ele>
        <time>2019-11-03T14:30:29.000Z</time>
      </trkpt>
      <trkpt lat="36.6399523057043552398681640625" lon="-5.85726932622492313385009765625">
        <ele>73.8000030517578125</ele>
        <time>2019-11-03T14:30:33.000Z</time>
      </trkpt>
      <trkpt lat="36.63975440897047519683837890625" lon="-5.857224650681018829345703125">
        <ele>73.59999847412109375</ele>
        <time>2019-11-03T14:30:37.000Z</time>
      </trkpt>
      <trkpt lat="36.6395399160683155059814453125" lon="-5.85718584246933460235595703125">
        <ele>74.40000152587890625</ele>
        <time>2019-11-03T14:30:41.000Z</time>
      </trkpt>
      <trkpt lat="36.6393146105110645294189453125" lon="-5.85713873617351055145263671875">
        <ele>75.8000030517578125</ele>
        <time>2019-11-03T14:30:45.000Z</time>
      </trkpt>
      <trkpt lat="36.63910564966499805450439453125" lon="-5.85709758102893829345703125">
        <ele>77.40000152587890625</ele>
        <time>2019-11-03T14:30:49.000Z</time>
      </trkpt>
      <trkpt lat="36.63888503797352313995361328125" lon="-5.8570555038750171661376953125">
        <ele>78.59999847412109375</ele>
        <time>2019-11-03T14:30:53.000Z</time>
      </trkpt>
      <trkpt lat="36.63866727612912654876708984375" lon="-5.85701367817819118499755859375">
        <ele>77.1999969482421875</ele>
        <time>2019-11-03T14:30:57.000Z</time>
      </trkpt>
      <trkpt lat="36.63845856674015522003173828125" lon="-5.85696891881525516510009765625">
        <ele>75.40000152587890625</ele>
        <time>2019-11-03T14:31:01.000Z</time>
      </trkpt>
      <trkpt lat="36.6382576525211334228515625" lon="-5.8569346368312835693359375">
        <ele>74.40000152587890625</ele>
        <time>2019-11-03T14:31:05.000Z</time>
      </trkpt>
      <trkpt lat="36.63805103860795497894287109375" lon="-5.85690622217953205108642578125">
        <ele>73.59999847412109375</ele>
        <time>2019-11-03T14:31:09.000Z</time>
      </trkpt>
      <trkpt lat="36.6378450952470302581787109375" lon="-5.85686816833913326263427734375">
        <ele>74</ele>
        <time>2019-11-03T14:31:13.000Z</time>
      </trkpt>
      <trkpt lat="36.63765071891248226165771484375" lon="-5.856829024851322174072265625">
        <ele>74</ele>
        <time>2019-11-03T14:31:17.000Z</time>
      </trkpt>
      <trkpt lat="36.63746329955756664276123046875" lon="-5.8568067289888858795166015625">
        <ele>74.40000152587890625</ele>
        <time>2019-11-03T14:31:21.000Z</time>
      </trkpt>
      <trkpt lat="36.63725894875824451446533203125" lon="-5.85679407231509685516357421875">
        <ele>75.1999969482421875</ele>
        <time>2019-11-03T14:31:26.000Z</time>
      </trkpt>
      <trkpt lat="36.63705845363438129425048828125" lon="-5.856761299073696136474609375">
        <ele>76.40000152587890625</ele>
        <time>2019-11-03T14:31:30.000Z</time>
      </trkpt>
      <trkpt lat="36.63685686886310577392578125" lon="-5.8567235805094242095947265625">
        <ele>76.8000030517578125</ele>
        <time>2019-11-03T14:31:34.000Z</time>
      </trkpt>
      <trkpt lat="36.636663414537906646728515625" lon="-5.856688208878040313720703125">
        <ele>77</ele>
        <time>2019-11-03T14:31:38.000Z</time>
      </trkpt>
      <trkpt lat="36.63648211397230625152587890625" lon="-5.85665727965533733367919921875">
        <ele>77.1999969482421875</ele>
        <time>2019-11-03T14:31:42.000Z</time>
      </trkpt>
      <trkpt lat="36.6363036632537841796875" lon="-5.85661989636719226837158203125">
        <ele>77.59999847412109375</ele>
        <time>2019-11-03T14:31:46.000Z</time>
      </trkpt>
      <trkpt lat="36.63612387143075466156005859375" lon="-5.85658335126936435699462890625">
        <ele>77.59999847412109375</ele>
        <time>2019-11-03T14:31:50.000Z</time>
      </trkpt>
      <trkpt lat="36.63594366051256656646728515625" lon="-5.85655049420893192291259765625">
        <ele>78.1999969482421875</ele>
        <time>2019-11-03T14:31:54.000Z</time>
      </trkpt>
      <trkpt lat="36.6357524693012237548828125" lon="-5.85651696659624576568603515625">
        <ele>78.8000030517578125</ele>
        <time>2019-11-03T14:31:58.000Z</time>
      </trkpt>
      <trkpt lat="36.63556161336600780487060546875" lon="-5.85648461245000362396240234375">
        <ele>79</ele>
        <time>2019-11-03T14:32:02.000Z</time>
      </trkpt>
      <trkpt lat="36.63537561893463134765625" lon="-5.85645108483731746673583984375">
        <ele>79.1999969482421875</ele>
        <time>2019-11-03T14:32:06.000Z</time>
      </trkpt>
      <trkpt lat="36.635190881788730621337890625" lon="-5.856412947177886962890625">
        <ele>79.40000152587890625</ele>
        <time>2019-11-03T14:32:10.000Z</time>
      </trkpt>
      <trkpt lat="36.6350083239376544952392578125" lon="-5.856377072632312774658203125">
        <ele>80.1999969482421875</ele>
        <time>2019-11-03T14:32:14.000Z</time>
      </trkpt>
      <trkpt lat="36.63482903502881526947021484375" lon="-5.85633675567805767059326171875">
        <ele>81.59999847412109375</ele>
        <time>2019-11-03T14:32:18.000Z</time>
      </trkpt>
      <trkpt lat="36.63461093790829181671142578125" lon="-5.8562934212386608123779296875">
        <ele>82.1999969482421875</ele>
        <time>2019-11-03T14:32:23.000Z</time>
      </trkpt>
      <trkpt lat="36.6343880631029605865478515625" lon="-5.8562538586556911468505859375">
        <ele>82.59999847412109375</ele>
        <time>2019-11-03T14:32:28.000Z</time>
      </trkpt>
      <trkpt lat="36.63420424796640872955322265625" lon="-5.85622896440327167510986328125">
        <ele>82</ele>
        <time>2019-11-03T14:32:32.000Z</time>
      </trkpt>
      <trkpt lat="36.63398296572268009185791015625" lon="-5.8562025614082813262939453125">
        <ele>81.1999969482421875</ele>
        <time>2019-11-03T14:32:37.000Z</time>
      </trkpt>
      <trkpt lat="36.633763276040554046630859375" lon="-5.85616224445402622222900390625">
        <ele>80.59999847412109375</ele>
        <time>2019-11-03T14:32:42.000Z</time>
      </trkpt>
      <trkpt lat="36.63358130492269992828369140625" lon="-5.85613475181162357330322265625">
        <ele>80.59999847412109375</ele>
        <time>2019-11-03T14:32:46.000Z</time>
      </trkpt>
      <trkpt lat="36.6334001719951629638671875" lon="-5.85610122419893741607666015625">
        <ele>81</ele>
        <time>2019-11-03T14:32:50.000Z</time>
      </trkpt>
      <trkpt lat="36.6332202963531017303466796875" lon="-5.85606283508241176605224609375">
        <ele>80.40000152587890625</ele>
        <time>2019-11-03T14:32:54.000Z</time>
      </trkpt>
      <trkpt lat="36.63302659057080745697021484375" lon="-5.85601891390979290008544921875">
        <ele>79.8000030517578125</ele>
        <time>2019-11-03T14:32:58.000Z</time>
      </trkpt>
      <trkpt lat="36.63282416760921478271484375" lon="-5.8559822849929332733154296875">
        <ele>79</ele>
        <time>2019-11-03T14:33:02.000Z</time>
      </trkpt>
      <trkpt lat="36.63260548375546932220458984375" lon="-5.85595102049410343170166015625">
        <ele>78.1999969482421875</ele>
        <time>2019-11-03T14:33:06.000Z</time>
      </trkpt>
      <trkpt lat="36.632389314472675323486328125" lon="-5.85591665469110012054443359375">
        <ele>78.59999847412109375</ele>
        <time>2019-11-03T14:33:10.000Z</time>
      </trkpt>
      <trkpt lat="36.632166691124439239501953125" lon="-5.85588245652616024017333984375">
        <ele>80.59999847412109375</ele>
        <time>2019-11-03T14:33:14.000Z</time>
      </trkpt>
      <trkpt lat="36.63194934837520122528076171875" lon="-5.85584524087607860565185546875">
        <ele>83.1999969482421875</ele>
        <time>2019-11-03T14:33:18.000Z</time>
      </trkpt>
      <trkpt lat="36.6317400522530078887939453125" lon="-5.85580299608409404754638671875">
        <ele>84.1999969482421875</ele>
        <time>2019-11-03T14:33:22.000Z</time>
      </trkpt>
      <trkpt lat="36.6315402276813983917236328125" lon="-5.85574583150446414947509765625">
        <ele>84.40000152587890625</ele>
        <time>2019-11-03T14:33:26.000Z</time>
      </trkpt>
      <trkpt lat="36.63134149275720119476318359375" lon="-5.85570442490279674530029296875">
        <ele>84.1999969482421875</ele>
        <time>2019-11-03T14:33:30.000Z</time>
      </trkpt>
      <trkpt lat="36.6311310231685638427734375" lon="-5.8556496910750865936279296875">
        <ele>85</ele>
        <time>2019-11-03T14:33:34.000Z</time>
      </trkpt>
      <trkpt lat="36.63092943839728832244873046875" lon="-5.85560937412083148956298828125">
        <ele>85.59999847412109375</ele>
        <time>2019-11-03T14:33:38.000Z</time>
      </trkpt>
      <trkpt lat="36.630877554416656494140625" lon="-5.8556037582457065582275390625">
        <ele>85.8000030517578125</ele>
        <time>2019-11-03T14:33:39.000Z</time>
      </trkpt>
      <trkpt lat="36.63068384863436222076416015625" lon="-5.8555802889168262481689453125">
        <ele>85.8000030517578125</ele>
        <time>2019-11-03T14:33:43.000Z</time>
      </trkpt>
      <trkpt lat="36.63046910427510738372802734375" lon="-5.8555534668266773223876953125">
        <ele>84.40000152587890625</ele>
        <time>2019-11-03T14:33:47.000Z</time>
      </trkpt>
      <trkpt lat="36.6302537731826305389404296875" lon="-5.8555353619158267974853515625">
        <ele>83.59999847412109375</ele>
        <time>2019-11-03T14:33:51.000Z</time>
      </trkpt>
      <trkpt lat="36.6300284676253795623779296875" lon="-5.855521447956562042236328125">
        <ele>82.40000152587890625</ele>
        <time>2019-11-03T14:33:55.000Z</time>
      </trkpt>
      <trkpt lat="36.62982403300702571868896484375" lon="-5.8555090427398681640625">
        <ele>81.8000030517578125</ele>
        <time>2019-11-03T14:33:59.000Z</time>
      </trkpt>
      <trkpt lat="36.62961850874125957489013671875" lon="-5.85550367832183837890625">
        <ele>81.40000152587890625</ele>
        <time>2019-11-03T14:34:03.000Z</time>
      </trkpt>
      <trkpt lat="36.6294212825596332550048828125" lon="-5.8554969727993011474609375">
        <ele>80.8000030517578125</ele>
        <time>2019-11-03T14:34:07.000Z</time>
      </trkpt>
      <trkpt lat="36.62922372110188007354736328125" lon="-5.855483226478099822998046875">
        <ele>80.59999847412109375</ele>
        <time>2019-11-03T14:34:11.000Z</time>
      </trkpt>
      <trkpt lat="36.62901417352259159088134765625" lon="-5.85546654649078845977783203125">
        <ele>80.59999847412109375</ele>
        <time>2019-11-03T14:34:15.000Z</time>
      </trkpt>
      <trkpt lat="36.6287892870604991912841796875" lon="-5.85545967333018779754638671875">
        <ele>80.8000030517578125</ele>
        <time>2019-11-03T14:34:19.000Z</time>
      </trkpt>
      <trkpt lat="36.62856213748455047607421875" lon="-5.85546637885272502899169921875">
        <ele>80.59999847412109375</ele>
        <time>2019-11-03T14:34:23.000Z</time>
      </trkpt>
      <trkpt lat="36.628346554934978485107421875" lon="-5.8554616011679172515869140625">
        <ele>80.59999847412109375</ele>
        <time>2019-11-03T14:34:27.000Z</time>
      </trkpt>
      <trkpt lat="36.62812066264450550079345703125" lon="-5.85545246489346027374267578125">
        <ele>80.1999969482421875</ele>
        <time>2019-11-03T14:34:31.000Z</time>
      </trkpt>
      <trkpt lat="36.62791329436004161834716796875" lon="-5.85542329587042331695556640625">
        <ele>80</ele>
        <time>2019-11-03T14:34:35.000Z</time>
      </trkpt>
      <trkpt lat="36.62786350585520267486572265625" lon="-5.85542044602334499359130859375">
        <ele>80</ele>
        <time>2019-11-03T14:34:36.000Z</time>
      </trkpt>
      <trkpt lat="36.62765152752399444580078125" lon="-5.8554170094430446624755859375">
        <ele>80</ele>
        <time>2019-11-03T14:34:40.000Z</time>
      </trkpt>
      <trkpt lat="36.6274322569370269775390625" lon="-5.855406112968921661376953125">
        <ele>79.8000030517578125</ele>
        <time>2019-11-03T14:34:44.000Z</time>
      </trkpt>
      <trkpt lat="36.627209968864917755126953125" lon="-5.85541273467242717742919921875">
        <ele>80</ele>
        <time>2019-11-03T14:34:48.000Z</time>
      </trkpt>
      <trkpt lat="36.62700519897043704986572265625" lon="-5.8554092980921268463134765625">
        <ele>80</ele>
        <time>2019-11-03T14:34:52.000Z</time>
      </trkpt>
      <trkpt lat="36.62679431028664112091064453125" lon="-5.8554123155772686004638671875">
        <ele>81.40000152587890625</ele>
        <time>2019-11-03T14:34:56.000Z</time>
      </trkpt>
      <trkpt lat="36.62658677436411380767822265625" lon="-5.85541457869112491607666015625">
        <ele>81.8000030517578125</ele>
        <time>2019-11-03T14:35:00.000Z</time>
      </trkpt>
      <trkpt lat="36.6263840161263942718505859375" lon="-5.8554200269281864166259765625">
        <ele>81.59999847412109375</ele>
        <time>2019-11-03T14:35:04.000Z</time>
      </trkpt>
      <trkpt lat="36.62618293426930904388427734375" lon="-5.85541323758661746978759765625">
        <ele>81</ele>
        <time>2019-11-03T14:35:08.000Z</time>
      </trkpt>
      <trkpt lat="36.62599635310471057891845703125" lon="-5.855408124625682830810546875">
        <ele>81.40000152587890625</ele>
        <time>2019-11-03T14:35:12.000Z</time>
      </trkpt>
      <trkpt lat="36.62580591626465320587158203125" lon="-5.85541273467242717742919921875">
        <ele>82.40000152587890625</ele>
        <time>2019-11-03T14:35:16.000Z</time>
      </trkpt>
      <trkpt lat="36.6255806945264339447021484375" lon="-5.8554103039205074310302734375">
        <ele>84</ele>
        <time>2019-11-03T14:35:21.000Z</time>
      </trkpt>
      <trkpt lat="36.6253929398953914642333984375" lon="-5.85540720261633396148681640625">
        <ele>84.59999847412109375</ele>
        <time>2019-11-03T14:35:25.000Z</time>
      </trkpt>
      <trkpt lat="36.625202000141143798828125" lon="-5.85540971718728542327880859375">
        <ele>84.59999847412109375</ele>
        <time>2019-11-03T14:35:29.000Z</time>
      </trkpt>
      <trkpt lat="36.62500594742596149444580078125" lon="-5.855420194566249847412109375">
        <ele>83.8000030517578125</ele>
        <time>2019-11-03T14:35:33.000Z</time>
      </trkpt>
      <trkpt lat="36.62480763159692287445068359375" lon="-5.8554129861295223236083984375">
        <ele>83.1999969482421875</ele>
        <time>2019-11-03T14:35:37.000Z</time>
      </trkpt>
      <trkpt lat="36.6246078908443450927734375" lon="-5.8554099686443805694580078125">
        <ele>83</ele>
        <time>2019-11-03T14:35:41.000Z</time>
      </trkpt>
      <trkpt lat="36.62441384978592395782470703125" lon="-5.8554052747786045074462890625">
        <ele>83.1999969482421875</ele>
        <time>2019-11-03T14:35:45.000Z</time>
      </trkpt>
      <trkpt lat="36.62421871908009052276611328125" lon="-5.85540669970214366912841796875">
        <ele>83.8000030517578125</ele>
        <time>2019-11-03T14:35:49.000Z</time>
      </trkpt>
      <trkpt lat="36.62402291782200336456298828125" lon="-5.8554056100547313690185546875">
        <ele>83.40000152587890625</ele>
        <time>2019-11-03T14:35:53.000Z</time>
      </trkpt>
      <trkpt lat="36.623837091028690338134765625" lon="-5.85540686734020709991455078125">
        <ele>83.1999969482421875</ele>
        <time>2019-11-03T14:35:57.000Z</time>
      </trkpt>
      <trkpt lat="36.6236449778079986572265625" lon="-5.85540468804538249969482421875">
        <ele>83.8000030517578125</ele>
        <time>2019-11-03T14:36:01.000Z</time>
      </trkpt>
      <trkpt lat="36.623443476855754852294921875" lon="-5.85540435276925563812255859375">
        <ele>83.8000030517578125</ele>
        <time>2019-11-03T14:36:05.000Z</time>
      </trkpt>
      <trkpt lat="36.62323853932321071624755859375" lon="-5.85540049709379673004150390625">
        <ele>84</ele>
        <time>2019-11-03T14:36:09.000Z</time>
      </trkpt>
      <trkpt lat="36.62302915938198566436767578125" lon="-5.855397395789623260498046875">
        <ele>84</ele>
        <time>2019-11-03T14:36:13.000Z</time>
      </trkpt>
      <trkpt lat="36.62281776778399944305419921875" lon="-5.855397395789623260498046875">
        <ele>84</ele>
        <time>2019-11-03T14:36:17.000Z</time>
      </trkpt>
      <trkpt lat="36.622607968747615814208984375" lon="-5.85538767278194427490234375">
        <ele>84.59999847412109375</ele>
        <time>2019-11-03T14:36:21.000Z</time>
      </trkpt>
      <trkpt lat="36.62240110337734222412109375" lon="-5.8553754352033138275146484375">
        <ele>84.59999847412109375</ele>
        <time>2019-11-03T14:36:25.000Z</time>
      </trkpt>
      <trkpt lat="36.6221977584064006805419921875" lon="-5.85537417791783809661865234375">
        <ele>84</ele>
        <time>2019-11-03T14:36:29.000Z</time>
      </trkpt>
      <trkpt lat="36.62199416197836399078369140625" lon="-5.85536755621433258056640625">
        <ele>84</ele>
        <time>2019-11-03T14:36:33.000Z</time>
      </trkpt>
      <trkpt lat="36.6217942535877227783203125" lon="-5.8553573302924633026123046875">
        <ele>84</ele>
        <time>2019-11-03T14:36:37.000Z</time>
      </trkpt>
      <trkpt lat="36.6215905733406543731689453125" lon="-5.855348445475101470947265625">
        <ele>84.1999969482421875</ele>
        <time>2019-11-03T14:36:41.000Z</time>
      </trkpt>
      <trkpt lat="36.62139066495001316070556640625" lon="-5.8553476072847843170166015625">
        <ele>84</ele>
        <time>2019-11-03T14:36:45.000Z</time>
      </trkpt>
      <trkpt lat="36.6211880743503570556640625" lon="-5.85534567944705486297607421875">
        <ele>84</ele>
        <time>2019-11-03T14:36:49.000Z</time>
      </trkpt>
      <trkpt lat="36.62098933942615985870361328125" lon="-5.85533671081066131591796875">
        <ele>84</ele>
        <time>2019-11-03T14:36:53.000Z</time>
      </trkpt>
      <trkpt lat="36.6207942925393581390380859375" lon="-5.85532573051750659942626953125">
        <ele>84.1999969482421875</ele>
        <time>2019-11-03T14:36:57.000Z</time>
      </trkpt>
      <trkpt lat="36.620601676404476165771484375" lon="-5.85532464087009429931640625">
        <ele>85</ele>
        <time>2019-11-03T14:37:01.000Z</time>
      </trkpt>
      <trkpt lat="36.62042004056274890899658203125" lon="-5.85531751625239849090576171875">
        <ele>86.1999969482421875</ele>
        <time>2019-11-03T14:37:05.000Z</time>
      </trkpt>
      <trkpt lat="36.620196662843227386474609375" lon="-5.85530586540699005126953125">
        <ele>87.8000030517578125</ele>
        <time>2019-11-03T14:37:10.000Z</time>
      </trkpt>
      <trkpt lat="36.62001569755375385284423828125" lon="-5.855302177369594573974609375">
        <ele>89</ele>
        <time>2019-11-03T14:37:14.000Z</time>
      </trkpt>
      <trkpt lat="36.61988359875977039337158203125" lon="-5.855300836265087127685546875">
        <ele>89</ele>
        <time>2019-11-03T14:37:17.000Z</time>
      </trkpt>
      <trkpt lat="36.6196587122976779937744140625" lon="-5.8553010039031505584716796875">
        <ele>88.40000152587890625</ele>
        <time>2019-11-03T14:37:22.000Z</time>
      </trkpt>
      <trkpt lat="36.61943458020687103271484375" lon="-5.85529438219964504241943359375">
        <ele>87.1999969482421875</ele>
        <time>2019-11-03T14:37:27.000Z</time>
      </trkpt>
      <trkpt lat="36.619219668209552764892578125" lon="-5.8552849106490612030029296875">
        <ele>87.40000152587890625</ele>
        <time>2019-11-03T14:37:32.000Z</time>
      </trkpt>
      <trkpt lat="36.61900299601256847381591796875" lon="-5.85528046824038028717041015625">
        <ele>88.59999847412109375</ele>
        <time>2019-11-03T14:37:37.000Z</time>
      </trkpt>
      <trkpt lat="36.61877919919788837432861328125" lon="-5.85527292452752590179443359375">
        <ele>88.59999847412109375</ele>
        <time>2019-11-03T14:37:42.000Z</time>
      </trkpt>
      <trkpt lat="36.61855456419289112091064453125" lon="-5.855263955891132354736328125">
        <ele>88</ele>
        <time>2019-11-03T14:37:47.000Z</time>
      </trkpt>
      <trkpt lat="36.61833085119724273681640625" lon="-5.855261273682117462158203125">
        <ele>86.8000030517578125</ele>
        <time>2019-11-03T14:37:52.000Z</time>
      </trkpt>
      <trkpt lat="36.6181486286222934722900390625" lon="-5.8552528917789459228515625">
        <ele>86.1999969482421875</ele>
        <time>2019-11-03T14:37:56.000Z</time>
      </trkpt>
      <trkpt lat="36.617966406047344207763671875" lon="-5.85524777881801128387451171875">
        <ele>86</ele>
        <time>2019-11-03T14:38:00.000Z</time>
      </trkpt>
      <trkpt lat="36.6177821718156337738037109375" lon="-5.85524945519864559173583984375">
        <ele>86</ele>
        <time>2019-11-03T14:38:04.000Z</time>
      </trkpt>
      <trkpt lat="36.61756114102900028228759765625" lon="-5.8552503772079944610595703125">
        <ele>86.40000152587890625</ele>
        <time>2019-11-03T14:38:09.000Z</time>
      </trkpt>
      <trkpt lat="36.6173805110156536102294921875" lon="-5.855248868465423583984375">
        <ele>87</ele>
        <time>2019-11-03T14:38:13.000Z</time>
      </trkpt>
      <trkpt lat="36.61719954572618007659912109375" lon="-5.85524928756058216094970703125">
        <ele>87</ele>
        <time>2019-11-03T14:38:17.000Z</time>
      </trkpt>
      <trkpt lat="36.61697499454021453857421875" lon="-5.85523772053420543670654296875">
        <ele>87</ele>
        <time>2019-11-03T14:38:22.000Z</time>
      </trkpt>
      <trkpt lat="36.61674893461167812347412109375" lon="-5.8552346192300319671630859375">
        <ele>87.8000030517578125</ele>
        <time>2019-11-03T14:38:27.000Z</time>
      </trkpt>
      <trkpt lat="36.61656520329415798187255859375" lon="-5.85522866807878017425537109375">
        <ele>88</ele>
        <time>2019-11-03T14:38:31.000Z</time>
      </trkpt>
      <trkpt lat="36.616381891071796417236328125" lon="-5.8552248962223529815673828125">
        <ele>88.1999969482421875</ele>
        <time>2019-11-03T14:38:35.000Z</time>
      </trkpt>
      <trkpt lat="36.6161580942571163177490234375" lon="-5.85520519874989986419677734375">
        <ele>88.40000152587890625</ele>
        <time>2019-11-03T14:38:40.000Z</time>
      </trkpt>
      <trkpt lat="36.61593672819435596466064453125" lon="-5.855204947292804718017578125">
        <ele>88.8000030517578125</ele>
        <time>2019-11-03T14:38:45.000Z</time>
      </trkpt>
      <trkpt lat="36.61571703851222991943359375" lon="-5.85519321262836456298828125">
        <ele>89.59999847412109375</ele>
        <time>2019-11-03T14:38:50.000Z</time>
      </trkpt>
      <trkpt lat="36.61558049730956554412841796875" lon="-5.85519581101834774017333984375">
        <ele>90</ele>
        <time>2019-11-03T14:38:53.000Z</time>
      </trkpt>
      <trkpt lat="36.61539643071591854095458984375" lon="-5.85518860258162021636962890625">
        <ele>90.59999847412109375</ele>
        <time>2019-11-03T14:38:57.000Z</time>
      </trkpt>
      <trkpt lat="36.6153517551720142364501953125" lon="-5.85518608801066875457763671875">
        <ele>90.8000030517578125</ele>
        <time>2019-11-03T14:38:58.000Z</time>
      </trkpt>
      <trkpt lat="36.61513474769890308380126953125" lon="-5.85517108440399169921875">
        <ele>91</ele>
        <time>2019-11-03T14:39:03.000Z</time>
      </trkpt>
      <trkpt lat="36.6149460710585117340087890625" lon="-5.85515675134956836700439453125">
        <ele>90.59999847412109375</ele>
        <time>2019-11-03T14:39:07.000Z</time>
      </trkpt>
      <trkpt lat="36.61475387401878833770751953125" lon="-5.85514585487544536590576171875">
        <ele>90</ele>
        <time>2019-11-03T14:39:11.000Z</time>
      </trkpt>
      <trkpt lat="36.61455723457038402557373046875" lon="-5.8551320247352123260498046875">
        <ele>90</ele>
        <time>2019-11-03T14:39:15.000Z</time>
      </trkpt>
      <trkpt lat="36.6143484413623809814453125" lon="-5.85513847880065441131591796875">
        <ele>90.40000152587890625</ele>
        <time>2019-11-03T14:39:19.000Z</time>
      </trkpt>
      <trkpt lat="36.61414149217307567596435546875" lon="-5.85513889789581298828125">
        <ele>91</ele>
        <time>2019-11-03T14:39:23.000Z</time>
      </trkpt>
      <trkpt lat="36.6139472834765911102294921875" lon="-5.85512892343103885650634765625">
        <ele>91</ele>
        <time>2019-11-03T14:39:27.000Z</time>
      </trkpt>
      <trkpt lat="36.61375592462718486785888671875" lon="-5.8551229722797870635986328125">
        <ele>91</ele>
        <time>2019-11-03T14:39:31.000Z</time>
      </trkpt>
      <trkpt lat="36.6137082315981388092041015625" lon="-5.85512037388980388641357421875">
        <ele>91</ele>
        <time>2019-11-03T14:39:32.000Z</time>
      </trkpt>
      <trkpt lat="36.61351720802485942840576171875" lon="-5.85511819459497928619384765625">
        <ele>90.59999847412109375</ele>
        <time>2019-11-03T14:39:36.000Z</time>
      </trkpt>
      <trkpt lat="36.61333121359348297119140625" lon="-5.85511065088212490081787109375">
        <ele>90</ele>
        <time>2019-11-03T14:39:40.000Z</time>
      </trkpt>
      <trkpt lat="36.613148488104343414306640625" lon="-5.85510025732219219207763671875">
        <ele>90</ele>
        <time>2019-11-03T14:39:44.000Z</time>
      </trkpt>
      <trkpt lat="36.6129552014172077178955078125" lon="-5.8550981618463993072509765625">
        <ele>90.40000152587890625</ele>
        <time>2019-11-03T14:39:48.000Z</time>
      </trkpt>
      <trkpt lat="36.61276887170970439910888671875" lon="-5.85509874857962131500244140625">
        <ele>91</ele>
        <time>2019-11-03T14:39:52.000Z</time>
      </trkpt>
      <trkpt lat="36.612585894763469696044921875" lon="-5.85510143078863620758056640625">
        <ele>91</ele>
        <time>2019-11-03T14:39:56.000Z</time>
      </trkpt>
      <trkpt lat="36.6123989783227443695068359375" lon="-5.8550984971225261688232421875">
        <ele>91</ele>
        <time>2019-11-03T14:40:00.000Z</time>
      </trkpt>
      <trkpt lat="36.6122125647962093353271484375" lon="-5.8551005087792873382568359375">
        <ele>91.1999969482421875</ele>
        <time>2019-11-03T14:40:04.000Z</time>
      </trkpt>
      <trkpt lat="36.6120315156877040863037109375" lon="-5.8551008440554141998291015625">
        <ele>91.8000030517578125</ele>
        <time>2019-11-03T14:40:08.000Z</time>
      </trkpt>
      <trkpt lat="36.611806713044643402099609375" lon="-5.85509371943771839141845703125">
        <ele>92</ele>
        <time>2019-11-03T14:40:13.000Z</time>
      </trkpt>
      <trkpt lat="36.61160387098789215087890625" lon="-5.85508282296359539031982421875">
        <ele>92</ele>
        <time>2019-11-03T14:40:18.000Z</time>
      </trkpt>
      <trkpt lat="36.61140044219791889190673828125" lon="-5.85506714880466461181640625">
        <ele>92</ele>
        <time>2019-11-03T14:40:23.000Z</time>
      </trkpt>
      <trkpt lat="36.61117932759225368499755859375" lon="-5.8550575934350490570068359375">
        <ele>92.8000030517578125</ele>
        <time>2019-11-03T14:40:28.000Z</time>
      </trkpt>
      <trkpt lat="36.610964834690093994140625" lon="-5.85505306720733642578125">
        <ele>92.8000030517578125</ele>
        <time>2019-11-03T14:40:33.000Z</time>
      </trkpt>
      <trkpt lat="36.6107510961592197418212890625" lon="-5.8550471998751163482666015625">
        <ele>93</ele>
        <time>2019-11-03T14:40:38.000Z</time>
      </trkpt>
      <trkpt lat="36.6105415485799312591552734375" lon="-5.855039656162261962890625">
        <ele>93</ele>
        <time>2019-11-03T14:40:43.000Z</time>
      </trkpt>
      <trkpt lat="36.6103320010006427764892578125" lon="-5.85503286682069301605224609375">
        <ele>93.1999969482421875</ele>
        <time>2019-11-03T14:40:48.000Z</time>
      </trkpt>
      <trkpt lat="36.61012086085975170135498046875" lon="-5.85502230562269687652587890625">
        <ele>93.1999969482421875</ele>
        <time>2019-11-03T14:40:53.000Z</time>
      </trkpt>
      <trkpt lat="36.6099067032337188720703125" lon="-5.8550089783966541290283203125">
        <ele>92.8000030517578125</ele>
        <time>2019-11-03T14:40:58.000Z</time>
      </trkpt>
      <trkpt lat="36.60969053395092487335205078125" lon="-5.85499900393187999725341796875">
        <ele>92</ele>
        <time>2019-11-03T14:41:03.000Z</time>
      </trkpt>
      <trkpt lat="36.60947629250586032867431640625" lon="-5.85498861037194728851318359375">
        <ele>92</ele>
        <time>2019-11-03T14:41:08.000Z</time>
      </trkpt>
      <trkpt lat="36.60925970412790775299072265625" lon="-5.85498224012553691864013671875">
        <ele>92.8000030517578125</ele>
        <time>2019-11-03T14:41:13.000Z</time>
      </trkpt>
      <trkpt lat="36.609039343893527984619140625" lon="-5.85496162064373493194580078125">
        <ele>93</ele>
        <time>2019-11-03T14:41:18.000Z</time>
      </trkpt>
      <trkpt lat="36.6088530980050563812255859375" lon="-5.854961536824703216552734375">
        <ele>92.8000030517578125</ele>
        <time>2019-11-03T14:41:22.000Z</time>
      </trkpt>
      <trkpt lat="36.60866173915565013885498046875" lon="-5.854958854615688323974609375">
        <ele>92.59999847412109375</ele>
        <time>2019-11-03T14:41:26.000Z</time>
      </trkpt>
      <trkpt lat="36.60846593789756298065185546875" lon="-5.8549523167312145233154296875">
        <ele>91.8000030517578125</ele>
        <time>2019-11-03T14:41:30.000Z</time>
      </trkpt>
      <trkpt lat="36.60827457904815673828125" lon="-5.85494133643805980682373046875">
        <ele>91.59999847412109375</ele>
        <time>2019-11-03T14:41:34.000Z</time>
      </trkpt>
      <trkpt lat="36.60807500593364238739013671875" lon="-5.85492440499365329742431640625">
        <ele>91.59999847412109375</ele>
        <time>2019-11-03T14:41:38.000Z</time>
      </trkpt>
      <trkpt lat="36.60787819884717464447021484375" lon="-5.8549117483198642730712890625">
        <ele>91.59999847412109375</ele>
        <time>2019-11-03T14:41:42.000Z</time>
      </trkpt>
      <trkpt lat="36.607660353183746337890625" lon="-5.85488232783973217010498046875">
        <ele>91.8000030517578125</ele>
        <time>2019-11-03T14:41:47.000Z</time>
      </trkpt>
      <trkpt lat="36.6074650548398494720458984375" lon="-5.85484980605542659759521484375">
        <ele>91.8000030517578125</ele>
        <time>2019-11-03T14:41:51.000Z</time>
      </trkpt>
      <trkpt lat="36.60726732574403285980224609375" lon="-5.85481594316661357879638671875">
        <ele>92</ele>
        <time>2019-11-03T14:41:55.000Z</time>
      </trkpt>
      <trkpt lat="36.60705761052668094635009765625" lon="-5.85477487184107303619384765625">
        <ele>91.40000152587890625</ele>
        <time>2019-11-03T14:42:00.000Z</time>
      </trkpt>
      <trkpt lat="36.60687270574271678924560546875" lon="-5.85473849438130855560302734375">
        <ele>91</ele>
        <time>2019-11-03T14:42:04.000Z</time>
      </trkpt>
      <trkpt lat="36.606685034930706024169921875" lon="-5.85469960235059261322021484375">
        <ele>91</ele>
        <time>2019-11-03T14:42:08.000Z</time>
      </trkpt>
      <trkpt lat="36.6065002977848052978515625" lon="-5.85465601645410060882568359375">
        <ele>90.59999847412109375</ele>
        <time>2019-11-03T14:42:12.000Z</time>
      </trkpt>
      <trkpt lat="36.606319248676300048828125" lon="-5.85460807196795940399169921875">
        <ele>90.8000030517578125</ele>
        <time>2019-11-03T14:42:16.000Z</time>
      </trkpt>
      <trkpt lat="36.60614314489066600799560546875" lon="-5.854557193815708160400390625">
        <ele>91</ele>
        <time>2019-11-03T14:42:20.000Z</time>
      </trkpt>
      <trkpt lat="36.606013141572475433349609375" lon="-5.85452274419367313385009765625">
        <ele>91</ele>
        <time>2019-11-03T14:42:23.000Z</time>
      </trkpt>
      <trkpt lat="36.60579646937549114227294921875" lon="-5.85445133037865161895751953125">
        <ele>91.59999847412109375</ele>
        <time>2019-11-03T14:42:28.000Z</time>
      </trkpt>
      <trkpt lat="36.60561424680054187774658203125" lon="-5.8543890528380870819091796875">
        <ele>92</ele>
        <time>2019-11-03T14:42:32.000Z</time>
      </trkpt>
      <trkpt lat="36.60542540252208709716796875" lon="-5.85432493127882480621337890625">
        <ele>92.40000152587890625</ele>
        <time>2019-11-03T14:42:36.000Z</time>
      </trkpt>
      <trkpt lat="36.6052441857755184173583984375" lon="-5.85426072590053081512451171875">
        <ele>93</ele>
        <time>2019-11-03T14:42:40.000Z</time>
      </trkpt>
      <trkpt lat="36.60520085133612155914306640625" lon="-5.8542465604841709136962890625">
        <ele>93</ele>
        <time>2019-11-03T14:42:41.000Z</time>
      </trkpt>
      <trkpt lat="36.605024076998233795166015625" lon="-5.85417908616364002227783203125">
        <ele>93</ele>
        <time>2019-11-03T14:42:45.000Z</time>
      </trkpt>
      <trkpt lat="36.60485006868839263916015625" lon="-5.85411152802407741546630859375">
        <ele>93.59999847412109375</ele>
        <time>2019-11-03T14:42:49.000Z</time>
      </trkpt>
      <trkpt lat="36.60467664711177349090576171875" lon="-5.85404346697032451629638671875">
        <ele>94.1999969482421875</ele>
        <time>2019-11-03T14:42:53.000Z</time>
      </trkpt>
      <trkpt lat="36.60449559800326824188232421875" lon="-5.853969119489192962646484375">
        <ele>94.8000030517578125</ele>
        <time>2019-11-03T14:42:57.000Z</time>
      </trkpt>
      <trkpt lat="36.6043060831725597381591796875" lon="-5.853896699845790863037109375">
        <ele>94.59999847412109375</ele>
        <time>2019-11-03T14:43:01.000Z</time>
      </trkpt>
      <trkpt lat="36.60411757417023181915283203125" lon="-5.8538204245269298553466796875">
        <ele>94.1999969482421875</ele>
        <time>2019-11-03T14:43:05.000Z</time>
      </trkpt>
      <trkpt lat="36.6039191745221614837646484375" lon="-5.8537486754357814788818359375">
        <ele>94</ele>
        <time>2019-11-03T14:43:09.000Z</time>
      </trkpt>
      <trkpt lat="36.60371926613152027130126953125" lon="-5.85367550142109394073486328125">
        <ele>93.8000030517578125</ele>
        <time>2019-11-03T14:43:13.000Z</time>
      </trkpt>
      <trkpt lat="36.603516675531864166259765625" lon="-5.853611044585704803466796875">
        <ele>93.1999969482421875</ele>
        <time>2019-11-03T14:43:17.000Z</time>
      </trkpt>
      <trkpt lat="36.603312827646732330322265625" lon="-5.85355840623378753662109375">
        <ele>93.8000030517578125</ele>
        <time>2019-11-03T14:43:21.000Z</time>
      </trkpt>
      <trkpt lat="36.603114344179630279541015625" lon="-5.853510461747646331787109375">
        <ele>94</ele>
        <time>2019-11-03T14:43:25.000Z</time>
      </trkpt>
      <trkpt lat="36.602911166846752166748046875" lon="-5.853478275239467620849609375">
        <ele>94</ele>
        <time>2019-11-03T14:43:29.000Z</time>
      </trkpt>
      <trkpt lat="36.602707989513874053955078125" lon="-5.853451788425445556640625">
        <ele>94</ele>
        <time>2019-11-03T14:43:33.000Z</time>
      </trkpt>
      <trkpt lat="36.602498777210712432861328125" lon="-5.8534345217049121856689453125">
        <ele>94.1999969482421875</ele>
        <time>2019-11-03T14:43:37.000Z</time>
      </trkpt>
      <trkpt lat="36.6022823564708232879638671875" lon="-5.853425972163677215576171875">
        <ele>94.8000030517578125</ele>
        <time>2019-11-03T14:43:41.000Z</time>
      </trkpt>
      <trkpt lat="36.60207331180572509765625" lon="-5.85342320613563060760498046875">
        <ele>95.59999847412109375</ele>
        <time>2019-11-03T14:43:45.000Z</time>
      </trkpt>
      <trkpt lat="36.6018682904541492462158203125" lon="-5.853425301611423492431640625">
        <ele>96</ele>
        <time>2019-11-03T14:43:49.000Z</time>
      </trkpt>
      <trkpt lat="36.6016708128154277801513671875" lon="-5.8534370362758636474609375">
        <ele>96</ele>
        <time>2019-11-03T14:43:53.000Z</time>
      </trkpt>
      <trkpt lat="36.6014907695353031158447265625" lon="-5.8534491062164306640625">
        <ele>96</ele>
        <time>2019-11-03T14:43:57.000Z</time>
      </trkpt>
      <trkpt lat="36.6012731753289699554443359375" lon="-5.853469558060169219970703125">
        <ele>96.59999847412109375</ele>
        <time>2019-11-03T14:44:02.000Z</time>
      </trkpt>
      <trkpt lat="36.601062454283237457275390625" lon="-5.8534844778478145599365234375">
        <ele>97.1999969482421875</ele>
        <time>2019-11-03T14:44:07.000Z</time>
      </trkpt>
      <trkpt lat="36.60085835494101047515869140625" lon="-5.8534918539226055145263671875">
        <ele>97.1999969482421875</ele>
        <time>2019-11-03T14:44:12.000Z</time>
      </trkpt>
      <trkpt lat="36.60065635107457637786865234375" lon="-5.85349478758871555328369140625">
        <ele>97.1999969482421875</ele>
        <time>2019-11-03T14:44:17.000Z</time>
      </trkpt>
      <trkpt lat="36.600456945598125457763671875" lon="-5.85348204709589481353759765625">
        <ele>97.1999969482421875</ele>
        <time>2019-11-03T14:44:22.000Z</time>
      </trkpt>
      <trkpt lat="36.60025167278945446014404296875" lon="-5.85346327163279056549072265625">
        <ele>97.40000152587890625</ele>
        <time>2019-11-03T14:44:27.000Z</time>
      </trkpt>
      <trkpt lat="36.60005151294171810150146484375" lon="-5.85343527607619762420654296875">
        <ele>98.8000030517578125</ele>
        <time>2019-11-03T14:44:32.000Z</time>
      </trkpt>
      <trkpt lat="36.6000111959874629974365234375" lon="-5.85342773236334323883056640625">
        <ele>99.1999969482421875</ele>
        <time>2019-11-03T14:44:33.000Z</time>
      </trkpt>
      <trkpt lat="36.5998174063861370086669921875" lon="-5.85339370183646678924560546875">
        <ele>101.1999969482421875</ele>
        <time>2019-11-03T14:44:38.000Z</time>
      </trkpt>
      <trkpt lat="36.5997087769210338592529296875" lon="-5.8533721603453159332275390625">
        <ele>102</ele>
        <time>2019-11-03T14:44:41.000Z</time>
      </trkpt>
      <trkpt lat="36.59952512942254543304443359375" lon="-5.85331206209957599639892578125">
        <ele>103.1999969482421875</ele>
        <time>2019-11-03T14:44:46.000Z</time>
      </trkpt>
      <trkpt lat="36.59934609197080135345458984375" lon="-5.85324995219707489013671875">
        <ele>103.8000030517578125</ele>
        <time>2019-11-03T14:44:51.000Z</time>
      </trkpt>
      <trkpt lat="36.5991673059761524200439453125" lon="-5.85318247787654399871826171875">
        <ele>104.1999969482421875</ele>
        <time>2019-11-03T14:44:56.000Z</time>
      </trkpt>
      <trkpt lat="36.59909446723759174346923828125" lon="-5.8531545661389827728271484375">
        <ele>104.40000152587890625</ele>
        <time>2019-11-03T14:44:58.000Z</time>
      </trkpt>
      <trkpt lat="36.59891777671873569488525390625" lon="-5.85306362248957157135009765625">
        <ele>104.59999847412109375</ele>
        <time>2019-11-03T14:45:03.000Z</time>
      </trkpt>
      <trkpt lat="36.59874695353209972381591796875" lon="-5.85296974517405033111572265625">
        <ele>105.1999969482421875</ele>
        <time>2019-11-03T14:45:08.000Z</time>
      </trkpt>
      <trkpt lat="36.5985691733658313751220703125" lon="-5.85286798886954784393310546875">
        <ele>106.1999969482421875</ele>
        <time>2019-11-03T14:45:13.000Z</time>
      </trkpt>
      <trkpt lat="36.5983898006379604339599609375" lon="-5.85276254452764987945556640625">
        <ele>106.40000152587890625</ele>
        <time>2019-11-03T14:45:18.000Z</time>
      </trkpt>
      <trkpt lat="36.5982037223875522613525390625" lon="-5.8526538312435150146484375">
        <ele>107</ele>
        <time>2019-11-03T14:45:23.000Z</time>
      </trkpt>
      <trkpt lat="36.59802652895450592041015625" lon="-5.8525601215660572052001953125">
        <ele>107.8000030517578125</ele>
        <time>2019-11-03T14:45:28.000Z</time>
      </trkpt>
      <trkpt lat="36.59782645292580127716064453125" lon="-5.8524712733924388885498046875">
        <ele>107.8000030517578125</ele>
        <time>2019-11-03T14:45:34.000Z</time>
      </trkpt>
      <trkpt lat="36.5976320765912532806396484375" lon="-5.8523911423981189727783203125">
        <ele>107.59999847412109375</ele>
        <time>2019-11-03T14:45:39.000Z</time>
      </trkpt>
      <trkpt lat="36.5974290668964385986328125" lon="-5.8523346483707427978515625">
        <ele>106.59999847412109375</ele>
        <time>2019-11-03T14:45:44.000Z</time>
      </trkpt>
      <trkpt lat="36.59721725620329380035400390625" lon="-5.85227941162884235382080078125">
        <ele>105.8000030517578125</ele>
        <time>2019-11-03T14:45:49.000Z</time>
      </trkpt>
      <trkpt lat="36.59700636751949787139892578125" lon="-5.8522479794919490814208984375">
        <ele>105.59999847412109375</ele>
        <time>2019-11-03T14:45:54.000Z</time>
      </trkpt>
      <trkpt lat="36.59680184908211231231689453125" lon="-5.8522325567901134490966796875">
        <ele>105.40000152587890625</ele>
        <time>2019-11-03T14:45:59.000Z</time>
      </trkpt>
      <trkpt lat="36.5966029465198516845703125" lon="-5.85223264060914516448974609375">
        <ele>105</ele>
        <time>2019-11-03T14:46:04.000Z</time>
      </trkpt>
      <trkpt lat="36.5965256653726100921630859375" lon="-5.8522327244281768798828125">
        <ele>104.8000030517578125</ele>
        <time>2019-11-03T14:46:06.000Z</time>
      </trkpt>
      <trkpt lat="36.59633539617061614990234375" lon="-5.85223146714270114898681640625">
        <ele>104.59999847412109375</ele>
        <time>2019-11-03T14:46:11.000Z</time>
      </trkpt>
      <trkpt lat="36.5961387567222118377685546875" lon="-5.8522298745810985565185546875">
        <ele>104.59999847412109375</ele>
        <time>2019-11-03T14:46:16.000Z</time>
      </trkpt>
      <trkpt lat="36.5959446318447589874267578125" lon="-5.8522300422191619873046875">
        <ele>104.59999847412109375</ele>
        <time>2019-11-03T14:46:21.000Z</time>
      </trkpt>
      <trkpt lat="36.59575126133859157562255859375" lon="-5.852233059704303741455078125">
        <ele>104.59999847412109375</ele>
        <time>2019-11-03T14:46:26.000Z</time>
      </trkpt>
      <trkpt lat="36.59556132741272449493408203125" lon="-5.8522332273423671722412109375">
        <ele>105</ele>
        <time>2019-11-03T14:46:31.000Z</time>
      </trkpt>
      <trkpt lat="36.595367453992366790771484375" lon="-5.8522352389991283416748046875">
        <ele>105</ele>
        <time>2019-11-03T14:46:36.000Z</time>
      </trkpt>
      <trkpt lat="36.595173664391040802001953125" lon="-5.8522379212081432342529296875">
        <ele>105.8000030517578125</ele>
        <time>2019-11-03T14:46:41.000Z</time>
      </trkpt>
      <trkpt lat="36.59498331137001514434814453125" lon="-5.85223113186657428741455078125">
        <ele>106.40000152587890625</ele>
        <time>2019-11-03T14:46:46.000Z</time>
      </trkpt>
      <trkpt lat="36.59479052759706974029541015625" lon="-5.8522218279540538787841796875">
        <ele>107.1999969482421875</ele>
        <time>2019-11-03T14:46:51.000Z</time>
      </trkpt>
      <trkpt lat="36.59459958784282207489013671875" lon="-5.85222878493368625640869140625">
        <ele>107.8000030517578125</ele>
        <time>2019-11-03T14:46:56.000Z</time>
      </trkpt>
      <trkpt lat="36.5944130904972553253173828125" lon="-5.85222409106791019439697265625">
        <ele>108.40000152587890625</ele>
        <time>2019-11-03T14:47:01.000Z</time>
      </trkpt>
      <trkpt lat="36.59422324039041996002197265625" lon="-5.85221168585121631622314453125">
        <ele>108.1999969482421875</ele>
        <time>2019-11-03T14:47:06.000Z</time>
      </trkpt>
      <trkpt lat="36.59403003752231597900390625" lon="-5.85221503861248493194580078125">
        <ele>108</ele>
        <time>2019-11-03T14:47:11.000Z</time>
      </trkpt>
      <trkpt lat="36.5938437916338443756103515625" lon="-5.85221621207892894744873046875">
        <ele>108.1999969482421875</ele>
        <time>2019-11-03T14:47:16.000Z</time>
      </trkpt>
      <trkpt lat="36.59365712665021419525146484375" lon="-5.85221068002283573150634765625">
        <ele>109</ele>
        <time>2019-11-03T14:47:21.000Z</time>
      </trkpt>
      <trkpt lat="36.59347306005656719207763671875" lon="-5.85220850072801113128662109375">
        <ele>109.59999847412109375</ele>
        <time>2019-11-03T14:47:26.000Z</time>
      </trkpt>
      <trkpt lat="36.59325747750699520111083984375" lon="-5.8522032201290130615234375">
        <ele>110.40000152587890625</ele>
        <time>2019-11-03T14:47:32.000Z</time>
      </trkpt>
      <trkpt lat="36.5930449962615966796875" lon="-5.85220464505255222320556640625">
        <ele>111.1999969482421875</ele>
        <time>2019-11-03T14:47:38.000Z</time>
      </trkpt>
      <trkpt lat="36.5928366221487522125244140625" lon="-5.85219542495906352996826171875">
        <ele>112.8000030517578125</ele>
        <time>2019-11-03T14:47:44.000Z</time>
      </trkpt>
      <trkpt lat="36.5926502086222171783447265625" lon="-5.85219022817909717559814453125">
        <ele>113.59999847412109375</ele>
        <time>2019-11-03T14:47:49.000Z</time>
      </trkpt>
      <trkpt lat="36.59246857278048992156982421875" lon="-5.85219928063452243804931640625">
        <ele>113.59999847412109375</ele>
        <time>2019-11-03T14:47:54.000Z</time>
      </trkpt>
      <trkpt lat="36.5922572650015354156494140625" lon="-5.85220783017575740814208984375">
        <ele>113.59999847412109375</ele>
        <time>2019-11-03T14:48:00.000Z</time>
      </trkpt>
      <trkpt lat="36.59206397831439971923828125" lon="-5.8522057346999645233154296875">
        <ele>113.59999847412109375</ele>
        <time>2019-11-03T14:48:06.000Z</time>
      </trkpt>
      <trkpt lat="36.59187513403594493865966796875" lon="-5.8522010408341884613037109375">
        <ele>114.40000152587890625</ele>
        <time>2019-11-03T14:48:12.000Z</time>
      </trkpt>
      <trkpt lat="36.59168243408203125" lon="-5.85221017710864543914794921875">
        <ele>114.59999847412109375</ele>
        <time>2019-11-03T14:48:18.000Z</time>
      </trkpt>
      <trkpt lat="36.5914861299097537994384765625" lon="-5.85221805609762668609619140625">
        <ele>114.8000030517578125</ele>
        <time>2019-11-03T14:48:24.000Z</time>
      </trkpt>
      <trkpt lat="36.59129158593714237213134765625" lon="-5.8522300422191619873046875">
        <ele>114.59999847412109375</ele>
        <time>2019-11-03T14:48:30.000Z</time>
      </trkpt>
      <trkpt lat="36.59109896980226039886474609375" lon="-5.85225946269929409027099609375">
        <ele>114.8000030517578125</ele>
        <time>2019-11-03T14:48:36.000Z</time>
      </trkpt>
      <trkpt lat="36.59091440029442310333251953125" lon="-5.8522858656942844390869140625">
        <ele>115.8000030517578125</ele>
        <time>2019-11-03T14:48:42.000Z</time>
      </trkpt>
      <trkpt lat="36.59072647802531719207763671875" lon="-5.8523297868669033050537109375">
        <ele>116.8000030517578125</ele>
        <time>2019-11-03T14:48:48.000Z</time>
      </trkpt>
      <trkpt lat="36.59053402952849864959716796875" lon="-5.85237898863852024078369140625">
        <ele>117.8000030517578125</ele>
        <time>2019-11-03T14:48:54.000Z</time>
      </trkpt>
      <trkpt lat="36.5903480350971221923828125" lon="-5.85242458619177341461181640625">
        <ele>117.59999847412109375</ele>
        <time>2019-11-03T14:49:00.000Z</time>
      </trkpt>
      <trkpt lat="36.59016522578895092010498046875" lon="-5.85246515460312366485595703125">
        <ele>118</ele>
        <time>2019-11-03T14:49:06.000Z</time>
      </trkpt>
      <trkpt lat="36.589979231357574462890625" lon="-5.852506645023822784423828125">
        <ele>118.40000152587890625</ele>
        <time>2019-11-03T14:49:12.000Z</time>
      </trkpt>
      <trkpt lat="36.589775718748569488525390625" lon="-5.85255702026188373565673828125">
        <ele>119</ele>
        <time>2019-11-03T14:49:19.000Z</time>
      </trkpt>
      <trkpt lat="36.5895884670317173004150390625" lon="-5.85259440355002880096435546875">
        <ele>119</ele>
        <time>2019-11-03T14:49:25.000Z</time>
      </trkpt>
      <trkpt lat="36.589405573904514312744140625" lon="-5.8526325412094593048095703125">
        <ele>118.8000030517578125</ele>
        <time>2019-11-03T14:49:31.000Z</time>
      </trkpt>
      <trkpt lat="36.589224524796009063720703125" lon="-5.8526788093149662017822265625">
        <ele>118.40000152587890625</ele>
        <time>2019-11-03T14:49:37.000Z</time>
      </trkpt>
      <trkpt lat="36.5890423022210597991943359375" lon="-5.85272415541112422943115234375">
        <ele>118</ele>
        <time>2019-11-03T14:49:43.000Z</time>
      </trkpt>
      <trkpt lat="36.588861756026744842529296875" lon="-5.85276254452764987945556640625">
        <ele>117.40000152587890625</ele>
        <time>2019-11-03T14:49:49.000Z</time>
      </trkpt>
      <trkpt lat="36.58868162892758846282958984375" lon="-5.85280596278607845306396484375">
        <ele>117.1999969482421875</ele>
        <time>2019-11-03T14:49:55.000Z</time>
      </trkpt>
      <trkpt lat="36.5885950438678264617919921875" lon="-5.85284359753131866455078125">
        <ele>117.1999969482421875</ele>
        <time>2019-11-03T14:50:04.000Z</time>
      </trkpt>
      <trkpt lat="36.58852220512926578521728515625" lon="-5.85284871049225330352783203125">
        <ele>117.59999847412109375</ele>
        <time>2019-11-03T14:51:55.000Z</time>
      </trkpt>
      <trkpt lat="36.58839513547718524932861328125" lon="-5.85272214375436305999755859375">
        <ele>118.40000152587890625</ele>
        <time>2019-11-03T14:52:01.000Z</time>
      </trkpt>
      <trkpt lat="36.58838775940239429473876953125" lon="-5.85266917012631893157958984375">
        <ele>118.59999847412109375</ele>
        <time>2019-11-03T14:52:02.000Z</time>
      </trkpt>
      <trkpt lat="36.5883777849376201629638671875" lon="-5.85261686705052852630615234375">
        <ele>118.8000030517578125</ele>
        <time>2019-11-03T14:52:03.000Z</time>
      </trkpt>
      <trkpt lat="36.58829052932560443878173828125" lon="-5.85239659063518047332763671875">
        <ele>119</ele>
        <time>2019-11-03T14:52:08.000Z</time>
      </trkpt>
      <trkpt lat="36.588184498250484466552734375" lon="-5.85216675885021686553955078125">
        <ele>119.8000030517578125</ele>
        <time>2019-11-03T14:52:14.000Z</time>
      </trkpt>
      <trkpt lat="36.58808081410825252532958984375" lon="-5.8519328199326992034912109375">
        <ele>121</ele>
        <time>2019-11-03T14:52:20.000Z</time>
      </trkpt>
      <trkpt lat="36.58797771669924259185791015625" lon="-5.851705335080623626708984375">
        <ele>121</ele>
        <time>2019-11-03T14:52:26.000Z</time>
      </trkpt>
      <trkpt lat="36.58788199536502361297607421875" lon="-5.851480700075626373291015625">
        <ele>121.8000030517578125</ele>
        <time>2019-11-03T14:52:32.000Z</time>
      </trkpt>
      <trkpt lat="36.5877682529389858245849609375" lon="-5.85125531069934368133544921875">
        <ele>122</ele>
        <time>2019-11-03T14:52:38.000Z</time>
      </trkpt>
      <trkpt lat="36.58767261542379856109619140625" lon="-5.85105649195611476898193359375">
        <ele>122</ele>
        <time>2019-11-03T14:52:43.000Z</time>
      </trkpt>
      <trkpt lat="36.58756817691028118133544921875" lon="-5.85084526799619197845458984375">
        <ele>122</ele>
        <time>2019-11-03T14:52:48.000Z</time>
      </trkpt>
      <trkpt lat="36.58746558241546154022216796875" lon="-5.850635804235935211181640625">
        <ele>122.40000152587890625</ele>
        <time>2019-11-03T14:52:53.000Z</time>
      </trkpt>
      <trkpt lat="36.5873546898365020751953125" lon="-5.85042214952409267425537109375">
        <ele>123.59999847412109375</ele>
        <time>2019-11-03T14:52:58.000Z</time>
      </trkpt>
      <trkpt lat="36.587245054543018341064453125" lon="-5.850204639136791229248046875">
        <ele>124</ele>
        <time>2019-11-03T14:53:03.000Z</time>
      </trkpt>
      <trkpt lat="36.58714505843818187713623046875" lon="-5.84997321479022502899169921875">
        <ele>124.8000030517578125</ele>
        <time>2019-11-03T14:53:08.000Z</time>
      </trkpt>
      <trkpt lat="36.5870396979153156280517578125" lon="-5.84974489174783229827880859375">
        <ele>124</ele>
        <time>2019-11-03T14:53:13.000Z</time>
      </trkpt>
      <trkpt lat="36.5869330801069736480712890625" lon="-5.84951841272413730621337890625">
        <ele>125.1999969482421875</ele>
        <time>2019-11-03T14:53:18.000Z</time>
      </trkpt>
      <trkpt lat="36.586842052638530731201171875" lon="-5.84929444827139377593994140625">
        <ele>125.40000152587890625</ele>
        <time>2019-11-03T14:53:23.000Z</time>
      </trkpt>
      <trkpt lat="36.58673970960080623626708984375" lon="-5.8490853197872638702392578125">
        <ele>126</ele>
        <time>2019-11-03T14:53:28.000Z</time>
      </trkpt>
      <trkpt lat="36.5866296552121639251708984375" lon="-5.84887485019862651824951171875">
        <ele>126.8000030517578125</ele>
        <time>2019-11-03T14:53:33.000Z</time>
      </trkpt>
      <trkpt lat="36.5865304134786128997802734375" lon="-5.848665721714496612548828125">
        <ele>127.8000030517578125</ele>
        <time>2019-11-03T14:53:38.000Z</time>
      </trkpt>
      <trkpt lat="36.58643578179180622100830078125" lon="-5.84845977835357189178466796875">
        <ele>128.8000030517578125</ele>
        <time>2019-11-03T14:53:43.000Z</time>
      </trkpt>
      <trkpt lat="36.5863403119146823883056640625" lon="-5.8482591994106769561767578125">
        <ele>130.399993896484375</ele>
        <time>2019-11-03T14:53:48.000Z</time>
      </trkpt>
      <trkpt lat="36.5862360410392284393310546875" lon="-5.8480630628764629364013671875">
        <ele>131.600006103515625</ele>
        <time>2019-11-03T14:53:53.000Z</time>
      </trkpt>
      <trkpt lat="36.5861471928656101226806640625" lon="-5.84786164574325084686279296875">
        <ele>132</ele>
        <time>2019-11-03T14:53:58.000Z</time>
      </trkpt>
      <trkpt lat="36.58605557866394519805908203125" lon="-5.84765352308750152587890625">
        <ele>132.1999969482421875</ele>
        <time>2019-11-03T14:54:03.000Z</time>
      </trkpt>
      <trkpt lat="36.585962288081645965576171875" lon="-5.8474485017359256744384765625">
        <ele>132</ele>
        <time>2019-11-03T14:54:08.000Z</time>
      </trkpt>
      <trkpt lat="36.5858555026352405548095703125" lon="-5.84724909625947475433349609375">
        <ele>132.1999969482421875</ele>
        <time>2019-11-03T14:54:13.000Z</time>
      </trkpt>
      <trkpt lat="36.58576288260519504547119140625" lon="-5.84705379791557788848876953125">
        <ele>133.399993896484375</ele>
        <time>2019-11-03T14:54:18.000Z</time>
      </trkpt>
      <trkpt lat="36.58566833473742008209228515625" lon="-5.84684391506016254425048828125">
        <ele>134</ele>
        <time>2019-11-03T14:54:24.000Z</time>
      </trkpt>
      <trkpt lat="36.5856466256082057952880859375" lon="-5.84671416319906711578369140625">
        <ele>134.600006103515625</ele>
        <time>2019-11-03T14:54:28.000Z</time>
      </trkpt>
      <trkpt lat="36.585719548165798187255859375" lon="-5.84658407606184482574462890625">
        <ele>134</ele>
        <time>2019-11-03T14:54:32.000Z</time>
      </trkpt>
      <trkpt lat="36.58582541160285472869873046875" lon="-5.84638777188956737518310546875">
        <ele>133.600006103515625</ele>
        <time>2019-11-03T14:54:37.000Z</time>
      </trkpt>
      <trkpt lat="36.585923731327056884765625" lon="-5.84616489708423614501953125">
        <ele>133.8000030517578125</ele>
        <time>2019-11-03T14:54:42.000Z</time>
      </trkpt>
      <trkpt lat="36.58603898249566555023193359375" lon="-5.84594269283115863800048828125">
        <ele>133.399993896484375</ele>
        <time>2019-11-03T14:54:48.000Z</time>
      </trkpt>
      <trkpt lat="36.58615096472203731536865234375" lon="-5.84573180414736270904541015625">
        <ele>133.600006103515625</ele>
        <time>2019-11-03T14:54:54.000Z</time>
      </trkpt>
      <trkpt lat="36.58625892363488674163818359375" lon="-5.8455186523497104644775390625">
        <ele>134</ele>
        <time>2019-11-03T14:55:00.000Z</time>
      </trkpt>
      <trkpt lat="36.5863523818552494049072265625" lon="-5.8453245274722576141357421875">
        <ele>134.1999969482421875</ele>
        <time>2019-11-03T14:55:05.000Z</time>
      </trkpt>
      <trkpt lat="36.586453132331371307373046875" lon="-5.8451329171657562255859375">
        <ele>133.8000030517578125</ele>
        <time>2019-11-03T14:55:13.000Z</time>
      </trkpt>
      <trkpt lat="36.58645506016910076141357421875" lon="-5.84512294270098209381103515625">
        <ele>133.8000030517578125</ele>
        <time>2019-11-03T14:55:14.000Z</time>
      </trkpt>
      <trkpt lat="36.58645589835941791534423828125" lon="-5.845119841396808624267578125">
        <ele>133.8000030517578125</ele>
        <time>2019-11-03T14:55:19.000Z</time>
      </trkpt>
      <trkpt lat="36.58649462275207042694091796875" lon="-5.84502135403454303741455078125">
        <ele>133.8000030517578125</ele>
        <time>2019-11-03T14:56:50.000Z</time>
      </trkpt>
      <trkpt lat="36.58656503073871135711669921875" lon="-5.8448601700365543365478515625">
        <ele>133.8000030517578125</ele>
        <time>2019-11-03T14:57:03.000Z</time>
      </trkpt>
      <trkpt lat="36.58661079593002796173095703125" lon="-5.844750367105007171630859375">
        <ele>133.8000030517578125</ele>
        <time>2019-11-03T14:57:14.000Z</time>
      </trkpt>
      <trkpt lat="36.586618758738040924072265625" lon="-5.8447465114295482635498046875">
        <ele>133.8000030517578125</ele>
        <time>2019-11-03T14:57:16.000Z</time>
      </trkpt>
      <trkpt lat="36.58668908290565013885498046875" lon="-5.84455934353172779083251953125">
        <ele>134</ele>
        <time>2019-11-03T14:58:10.000Z</time>
      </trkpt>
      <trkpt lat="36.5867741592228412628173828125" lon="-5.8443408273160457611083984375">
        <ele>134.399993896484375</ele>
        <time>2019-11-03T14:58:20.000Z</time>
      </trkpt>
      <trkpt lat="36.5868727304041385650634765625" lon="-5.8441453613340854644775390625">
        <ele>134.399993896484375</ele>
        <time>2019-11-03T14:58:29.000Z</time>
      </trkpt>
      <trkpt lat="36.586984880268573760986328125" lon="-5.843962132930755615234375">
        <ele>134</ele>
        <time>2019-11-03T14:58:38.000Z</time>
      </trkpt>
      <trkpt lat="36.5870514325797557830810546875" lon="-5.84374043159186840057373046875">
        <ele>134</ele>
        <time>2019-11-03T14:58:46.000Z</time>
      </trkpt>
      <trkpt lat="36.5870681963860988616943359375" lon="-5.84372006356716156005859375">
        <ele>134</ele>
        <time>2019-11-03T14:58:48.000Z</time>
      </trkpt>
      <trkpt lat="36.587064675986766815185546875" lon="-5.843725763261318206787109375">
        <ele>134</ele>
        <time>2019-11-03T14:58:52.000Z</time>
      </trkpt>
      <trkpt lat="36.587163247168064117431640625" lon="-5.84362392313778400421142578125">
        <ele>134</ele>
        <time>2019-11-03T15:02:24.000Z</time>
      </trkpt>
      <trkpt lat="36.587207503616809844970703125" lon="-5.8435284532606601715087890625">
        <ele>134</ele>
        <time>2019-11-03T15:02:31.000Z</time>
      </trkpt>
      <trkpt lat="36.58722250722348690032958984375" lon="-5.8434617333114147186279296875">
        <ele>134</ele>
        <time>2019-11-03T15:02:35.000Z</time>
      </trkpt>
      <trkpt lat="36.58732744865119457244873046875" lon="-5.84330725483596324920654296875">
        <ele>133.8000030517578125</ele>
        <time>2019-11-03T15:02:49.000Z</time>
      </trkpt>
      <trkpt lat="36.58732585608959197998046875" lon="-5.843313373625278472900390625">
        <ele>133.8000030517578125</ele>
        <time>2019-11-03T15:02:51.000Z</time>
      </trkpt>
      <trkpt lat="36.58738444559276103973388671875" lon="-5.84322645328938961029052734375">
        <ele>133.600006103515625</ele>
        <time>2019-11-03T15:03:47.000Z</time>
      </trkpt>
      <trkpt lat="36.58733256161212921142578125" lon="-5.84326216019690036773681640625">
        <ele>133.600006103515625</ele>
        <time>2019-11-03T15:03:52.000Z</time>
      </trkpt>
      <trkpt lat="36.5873310528695583343505859375" lon="-5.843308679759502410888671875">
        <ele>133.600006103515625</ele>
        <time>2019-11-03T15:03:56.000Z</time>
      </trkpt>
      <trkpt lat="36.587319485843181610107421875" lon="-5.8433175645768642425537109375">
        <ele>133.8000030517578125</ele>
        <time>2019-11-03T15:04:00.000Z</time>
      </trkpt>
      <trkpt lat="36.5873587131500244140625" lon="-5.84321237169206142425537109375">
        <ele>133.600006103515625</ele>
        <time>2019-11-03T15:04:08.000Z</time>
      </trkpt>
      <trkpt lat="36.587419398128986358642578125" lon="-5.843185298144817352294921875">
        <ele>133.399993896484375</ele>
        <time>2019-11-03T15:04:13.000Z</time>
      </trkpt>
      <trkpt lat="36.58745594322681427001953125" lon="-5.8431775867938995361328125">
        <ele>133.1999969482421875</ele>
        <time>2019-11-03T15:04:16.000Z</time>
      </trkpt>
      <trkpt lat="36.58747279085218906402587890625" lon="-5.84317599423229694366455078125">
        <ele>133.1999969482421875</ele>
        <time>2019-11-03T15:04:21.000Z</time>
      </trkpt>
      <trkpt lat="36.58734337426722049713134765625" lon="-5.843217484652996063232421875">
        <ele>133.600006103515625</ele>
        <time>2019-11-04T07:43:30.000Z</time>
      </trkpt>
      <trkpt lat="36.58740808255970478057861328125" lon="-5.8431925065815448760986328125">
        <ele>133.399993896484375</ele>
        <time>2019-11-04T07:43:36.000Z</time>
      </trkpt>
      <trkpt lat="36.58740623854100704193115234375" lon="-5.84318806417286396026611328125">
        <ele>133.399993896484375</ele>
        <time>2019-11-04T07:43:39.000Z</time>
      </trkpt>
      <trkpt lat="36.587409675121307373046875" lon="-5.8431700430810451507568359375">
        <ele>133.399993896484375</ele>
        <time>2019-11-04T07:43:50.000Z</time>
      </trkpt>
      <trkpt lat="36.5874309651553630828857421875" lon="-5.843203067779541015625">
        <ele>133.399993896484375</ele>
        <time>2019-11-04T07:43:51.000Z</time>
      </trkpt>
      <trkpt lat="36.58740741200745105743408203125" lon="-5.84318018518388271331787109375">
        <ele>133.399993896484375</ele>
        <time>2019-11-04T07:44:04.000Z</time>
      </trkpt>
      <trkpt lat="36.58746021799743175506591796875" lon="-5.84317968226969242095947265625">
        <ele>133.1999969482421875</ele>
        <time>2019-11-04T07:44:38.000Z</time>
      </trkpt>
      <trkpt lat="36.58747471868991851806640625" lon="-5.84316660650074481964111328125">
        <ele>133.1999969482421875</ele>
        <time>2019-11-04T07:44:44.000Z</time>
      </trkpt>
      <trkpt lat="36.58707775175571441650390625" lon="-5.84366180934011936187744140625">
        <ele>134</ele>
        <time>2019-11-04T07:46:19.000Z</time>
      </trkpt>
      <trkpt lat="36.586969792842864990234375" lon="-5.84385685622692108154296875">
        <ele>134</ele>
        <time>2019-11-04T07:46:33.000Z</time>
      </trkpt>
      <trkpt lat="36.5869592316448688507080078125" lon="-5.8438945747911930084228515625">
        <ele>134</ele>
        <time>2019-11-04T07:46:37.000Z</time>
      </trkpt>
      <trkpt lat="36.586959399282932281494140625" lon="-5.84389566443860530853271484375">
        <ele>134</ele>
        <time>2019-11-04T07:46:40.000Z</time>
      </trkpt>
      <trkpt lat="36.5869407914578914642333984375" lon="-5.8440115861594676971435546875">
        <ele>134.1999969482421875</ele>
        <time>2019-11-04T07:46:51.000Z</time>
      </trkpt>
      <trkpt lat="36.5868504345417022705078125" lon="-5.84420629777014255523681640625">
        <ele>134.399993896484375</ele>
        <time>2019-11-04T07:47:05.000Z</time>
      </trkpt>
      <trkpt lat="36.58675479702651500701904296875" lon="-5.84440561942756175994873046875">
        <ele>134.1999969482421875</ele>
        <time>2019-11-04T07:47:19.000Z</time>
      </trkpt>
      <trkpt lat="36.58666611649096012115478515625" lon="-5.8446164242923259735107421875">
        <ele>134</ele>
        <time>2019-11-04T07:47:34.000Z</time>
      </trkpt>
      <trkpt lat="36.58660844899713993072509765625" lon="-5.84475330077111721038818359375">
        <ele>133.8000030517578125</ele>
        <time>2019-11-04T07:47:46.000Z</time>
      </trkpt>
      <trkpt lat="36.586608029901981353759765625" lon="-5.84475363604724407196044921875">
        <ele>133.8000030517578125</ele>
        <time>2019-11-04T07:47:49.000Z</time>
      </trkpt>
      <trkpt lat="36.58657693304121494293212890625" lon="-5.844825468957424163818359375">
        <ele>133.8000030517578125</ele>
        <time>2019-11-04T07:48:04.000Z</time>
      </trkpt>
      <trkpt lat="36.58648020587861537933349609375" lon="-5.84501682780683040618896484375">
        <ele>133.8000030517578125</ele>
        <time>2019-11-04T07:48:17.000Z</time>
      </trkpt>
      <trkpt lat="36.58637476153671741485595703125" lon="-5.84521883167326450347900390625">
        <ele>134.1999969482421875</ele>
        <time>2019-11-04T07:48:32.000Z</time>
      </trkpt>
      <trkpt lat="36.58633821643888950347900390625" lon="-5.84528513252735137939453125">
        <ele>134.1999969482421875</ele>
        <time>2019-11-04T07:48:39.000Z</time>
      </trkpt>
      <trkpt lat="36.5863372944295406341552734375" lon="-5.8452866412699222564697265625">
        <ele>134.1999969482421875</ele>
        <time>2019-11-04T07:48:41.000Z</time>
      </trkpt>
      <trkpt lat="36.5862695686519145965576171875" lon="-5.845453105866909027099609375">
        <ele>134.1999969482421875</ele>
        <time>2019-11-04T07:49:10.000Z</time>
      </trkpt>
      <trkpt lat="36.58620460890233516693115234375" lon="-5.84557749330997467041015625">
        <ele>134</ele>
        <time>2019-11-04T07:49:20.000Z</time>
      </trkpt>
      <trkpt lat="36.5862051956355571746826171875" lon="-5.8455796726047992706298828125">
        <ele>134</ele>
        <time>2019-11-04T07:49:23.000Z</time>
      </trkpt>
      <trkpt lat="36.5861411578953266143798828125" lon="-5.84570355713367462158203125">
        <ele>133.8000030517578125</ele>
        <time>2019-11-04T07:49:59.000Z</time>
      </trkpt>
      <trkpt lat="36.58612682484090328216552734375" lon="-5.8457375876605510711669921875">
        <ele>133.8000030517578125</ele>
        <time>2019-11-04T07:50:04.000Z</time>
      </trkpt>
      <trkpt lat="36.586126573383808135986328125" lon="-5.84573599509894847869873046875">
        <ele>133.8000030517578125</ele>
        <time>2019-11-04T07:50:06.000Z</time>
      </trkpt>
      <trkpt lat="36.586099080741405487060546875" lon="-5.84579835645854473114013671875">
        <ele>133.600006103515625</ele>
        <time>2019-11-04T07:50:31.000Z</time>
      </trkpt>
      <trkpt lat="36.58607854507863521575927734375" lon="-5.84585116244852542877197265625">
        <ele>133.399993896484375</ele>
        <time>2019-11-04T07:50:37.000Z</time>
      </trkpt>
      <trkpt lat="36.5860828198492527008056640625" lon="-5.845846049487590789794921875">
        <ele>133.399993896484375</ele>
        <time>2019-11-04T07:50:40.000Z</time>
      </trkpt>
      <trkpt lat="36.586048118770122528076171875" lon="-5.84591520018875598907470703125">
        <ele>133.399993896484375</ele>
        <time>2019-11-04T07:50:51.000Z</time>
      </trkpt>
      <trkpt lat="36.58604132942855358123779296875" lon="-5.84593799896538257598876953125">
        <ele>133.399993896484375</ele>
        <time>2019-11-04T07:50:57.000Z</time>
      </trkpt>
      <trkpt lat="36.585843265056610107421875" lon="-5.84642599336802959442138671875">
        <ele>133.399993896484375</ele>
        <time>2019-11-04T07:51:49.000Z</time>
      </trkpt>
      <trkpt lat="36.5858367271721363067626953125" lon="-5.84648366086184978485107421875">
        <ele>133.1999969482421875</ele>
        <time>2019-11-04T07:51:54.000Z</time>
      </trkpt>
      <trkpt lat="36.58583563752472400665283203125" lon="-5.84648550488054752349853515625">
        <ele>133.1999969482421875</ele>
        <time>2019-11-04T07:51:57.000Z</time>
      </trkpt>
      <trkpt lat="36.58572751097381114959716796875" lon="-5.84660419262945652008056640625">
        <ele>134</ele>
        <time>2019-11-04T07:52:26.000Z</time>
      </trkpt>
      <trkpt lat="36.5857051312923431396484375" lon="-5.84661944769322872161865234375">
        <ele>134</ele>
        <time>2019-11-04T07:52:29.000Z</time>
      </trkpt>
      <trkpt lat="36.58568526618182659149169921875" lon="-5.8466287516057491302490234375">
        <ele>134.1999969482421875</ele>
        <time>2019-11-04T07:52:33.000Z</time>
      </trkpt>
      <trkpt lat="36.58581417985260486602783203125" lon="-5.84707408212125301361083984375">
        <ele>133.1999969482421875</ele>
        <time>2019-11-04T07:56:59.000Z</time>
      </trkpt>
      <trkpt lat="36.58591710962355136871337890625" lon="-5.84729720838367938995361328125">
        <ele>131.8000030517578125</ele>
        <time>2019-11-04T07:57:05.000Z</time>
      </trkpt>
      <trkpt lat="36.5860177762806415557861328125" lon="-5.84750776179134845733642578125">
        <ele>132.1999969482421875</ele>
        <time>2019-11-04T07:57:10.000Z</time>
      </trkpt>
      <trkpt lat="36.58612363971769809722900390625" lon="-5.8477408625185489654541015625">
        <ele>132</ele>
        <time>2019-11-04T07:57:15.000Z</time>
      </trkpt>
      <trkpt lat="36.58622480928897857666015625" lon="-5.8479416929185390472412109375">
        <ele>131.600006103515625</ele>
        <time>2019-11-04T07:57:19.000Z</time>
      </trkpt>
      <trkpt lat="36.58632430247962474822998046875" lon="-5.8481582812964916229248046875">
        <ele>131.1999969482421875</ele>
        <time>2019-11-04T07:57:23.000Z</time>
      </trkpt>
      <trkpt lat="36.58643645234405994415283203125" lon="-5.8483959920704364776611328125">
        <ele>129</ele>
        <time>2019-11-04T07:57:27.000Z</time>
      </trkpt>
      <trkpt lat="36.58654759638011455535888671875" lon="-5.84863797761499881744384765625">
        <ele>127.8000030517578125</ele>
        <time>2019-11-04T07:57:31.000Z</time>
      </trkpt>
      <trkpt lat="36.58666879869997501373291015625" lon="-5.8488853275775909423828125">
        <ele>126.59999847412109375</ele>
        <time>2019-11-04T07:57:35.000Z</time>
      </trkpt>
      <trkpt lat="36.58678832463920116424560546875" lon="-5.84913083352148532867431640625">
        <ele>126</ele>
        <time>2019-11-04T07:57:39.000Z</time>
      </trkpt>
      <trkpt lat="36.5869015641510486602783203125" lon="-5.84937960840761661529541015625">
        <ele>125.1999969482421875</ele>
        <time>2019-11-04T07:57:43.000Z</time>
      </trkpt>
      <trkpt lat="36.587014384567737579345703125" lon="-5.84961782209575176239013671875">
        <ele>124.59999847412109375</ele>
        <time>2019-11-04T07:57:47.000Z</time>
      </trkpt>
      <trkpt lat="36.58706945367157459259033203125" lon="-5.8497347496449947357177734375">
        <ele>124</ele>
        <time>2019-11-04T07:57:49.000Z</time>
      </trkpt>
      <trkpt lat="36.5871788375079631805419921875" lon="-5.84996114484965801239013671875">
        <ele>124.8000030517578125</ele>
        <time>2019-11-04T07:57:53.000Z</time>
      </trkpt>
      <trkpt lat="36.58727715723216533660888671875" lon="-5.85017940960824489593505859375">
        <ele>124</ele>
        <time>2019-11-04T07:57:57.000Z</time>
      </trkpt>
      <trkpt lat="36.58736885525286197662353515625" lon="-5.850391387939453125">
        <ele>123.59999847412109375</ele>
        <time>2019-11-04T07:58:01.000Z</time>
      </trkpt>
      <trkpt lat="36.58746533095836639404296875" lon="-5.8506019413471221923828125">
        <ele>122.59999847412109375</ele>
        <time>2019-11-04T07:58:05.000Z</time>
      </trkpt>
      <trkpt lat="36.58756599761545658111572265625" lon="-5.8508039452135562896728515625">
        <ele>122</ele>
        <time>2019-11-04T07:58:09.000Z</time>
      </trkpt>
      <trkpt lat="36.58766339533030986785888671875" lon="-5.85102296434342861175537109375">
        <ele>122</ele>
        <time>2019-11-04T07:58:13.000Z</time>
      </trkpt>
      <trkpt lat="36.58777236007153987884521484375" lon="-5.85124156437814235687255859375">
        <ele>122</ele>
        <time>2019-11-04T07:58:17.000Z</time>
      </trkpt>
      <trkpt lat="36.5878715179860591888427734375" lon="-5.85147206671535968780517578125">
        <ele>121.8000030517578125</ele>
        <time>2019-11-04T07:58:21.000Z</time>
      </trkpt>
      <trkpt lat="36.5879741124808788299560546875" lon="-5.8516927622258663177490234375">
        <ele>121</ele>
        <time>2019-11-04T07:58:25.000Z</time>
      </trkpt>
      <trkpt lat="36.58807947300374507904052734375" lon="-5.85191563703119754791259765625">
        <ele>121</ele>
        <time>2019-11-04T07:58:29.000Z</time>
      </trkpt>
      <trkpt lat="36.58818122930824756622314453125" lon="-5.8521430380642414093017578125">
        <ele>120</ele>
        <time>2019-11-04T07:58:33.000Z</time>
      </trkpt>
      <trkpt lat="36.5882862545549869537353515625" lon="-5.85236482322216033935546875">
        <ele>119</ele>
        <time>2019-11-04T07:58:37.000Z</time>
      </trkpt>
      <trkpt lat="36.5883797965943813323974609375" lon="-5.8525772206485271453857421875">
        <ele>119</ele>
        <time>2019-11-04T07:58:41.000Z</time>
      </trkpt>
      <trkpt lat="36.58839262090623378753662109375" lon="-5.85281769745051860809326171875">
        <ele>118</ele>
        <time>2019-11-04T07:58:46.000Z</time>
      </trkpt>
      <trkpt lat="36.58821727149188518524169921875" lon="-5.85291869938373565673828125">
        <ele>118.59999847412109375</ele>
        <time>2019-11-04T07:58:51.000Z</time>
      </trkpt>
      <trkpt lat="36.58799749799072742462158203125" lon="-5.85295650176703929901123046875">
        <ele>119</ele>
        <time>2019-11-04T07:58:56.000Z</time>
      </trkpt>
      <trkpt lat="36.58777705393731594085693359375" lon="-5.85300142876803874969482421875">
        <ele>119</ele>
        <time>2019-11-04T07:59:01.000Z</time>
      </trkpt>
      <trkpt lat="36.58759583719074726104736328125" lon="-5.85304216481745243072509765625">
        <ele>119</ele>
        <time>2019-11-04T07:59:05.000Z</time>
      </trkpt>
      <trkpt lat="36.5874138660728931427001953125" lon="-5.853079967200756072998046875">
        <ele>119</ele>
        <time>2019-11-04T07:59:09.000Z</time>
      </trkpt>
      <trkpt lat="36.58722535707056522369384765625" lon="-5.8531200326979160308837890625">
        <ele>119.1999969482421875</ele>
        <time>2019-11-04T07:59:13.000Z</time>
      </trkpt>
      <trkpt lat="36.5870464034378528594970703125" lon="-5.85316537879407405853271484375">
        <ele>119</ele>
        <time>2019-11-04T07:59:17.000Z</time>
      </trkpt>
      <trkpt lat="36.58686719834804534912109375" lon="-5.8532055281102657318115234375">
        <ele>118.59999847412109375</ele>
        <time>2019-11-04T07:59:21.000Z</time>
      </trkpt>
      <trkpt lat="36.5866869874298572540283203125" lon="-5.8532457612454891204833984375">
        <ele>118.40000152587890625</ele>
        <time>2019-11-04T07:59:25.000Z</time>
      </trkpt>
      <trkpt lat="36.58650367520749568939208984375" lon="-5.85328071378171443939208984375">
        <ele>118</ele>
        <time>2019-11-04T07:59:29.000Z</time>
      </trkpt>
      <trkpt lat="36.58632346428930759429931640625" lon="-5.8533198572695255279541015625">
        <ele>117.8000030517578125</ele>
        <time>2019-11-04T07:59:33.000Z</time>
      </trkpt>
      <trkpt lat="36.58613436855375766754150390625" lon="-5.85336570627987384796142578125">
        <ele>117.40000152587890625</ele>
        <time>2019-11-04T07:59:37.000Z</time>
      </trkpt>
      <trkpt lat="36.58594963140785694122314453125" lon="-5.85340945981442928314208984375">
        <ele>117.8000030517578125</ele>
        <time>2019-11-04T07:59:41.000Z</time>
      </trkpt>
      <trkpt lat="36.5857626311480998992919921875" lon="-5.8534536324441432952880859375">
        <ele>117.8000030517578125</ele>
        <time>2019-11-04T07:59:45.000Z</time>
      </trkpt>
      <trkpt lat="36.5855792351067066192626953125" lon="-5.8534931950271129608154296875">
        <ele>117.59999847412109375</ele>
        <time>2019-11-04T07:59:49.000Z</time>
      </trkpt>
      <trkpt lat="36.58539877273142337799072265625" lon="-5.8535317517817020416259765625">
        <ele>117.59999847412109375</ele>
        <time>2019-11-04T07:59:53.000Z</time>
      </trkpt>
      <trkpt lat="36.5851765684783458709716796875" lon="-5.85357743315398693084716796875">
        <ele>118.40000152587890625</ele>
        <time>2019-11-04T07:59:58.000Z</time>
      </trkpt>
      <trkpt lat="36.5849633328616619110107421875" lon="-5.85362588055431842803955078125">
        <ele>119.8000030517578125</ele>
        <time>2019-11-04T08:00:03.000Z</time>
      </trkpt>
      <trkpt lat="36.58474900759756565093994140625" lon="-5.85367650724947452545166015625">
        <ele>121</ele>
        <time>2019-11-04T08:00:08.000Z</time>
      </trkpt>
      <trkpt lat="36.58453962765634059906005859375" lon="-5.8537339232861995697021484375">
        <ele>121.59999847412109375</ele>
        <time>2019-11-04T08:00:13.000Z</time>
      </trkpt>
      <trkpt lat="36.5843323431909084320068359375" lon="-5.853780023753643035888671875">
        <ele>122</ele>
        <time>2019-11-04T08:00:18.000Z</time>
      </trkpt>
      <trkpt lat="36.58412195742130279541015625" lon="-5.85382386110723018646240234375">
        <ele>122.1999969482421875</ele>
        <time>2019-11-04T08:00:23.000Z</time>
      </trkpt>
      <trkpt lat="36.5839078836143016815185546875" lon="-5.853867866098880767822265625">
        <ele>122.59999847412109375</ele>
        <time>2019-11-04T08:00:28.000Z</time>
      </trkpt>
      <trkpt lat="36.583697833120822906494140625" lon="-5.8539225161075592041015625">
        <ele>122.8000030517578125</ele>
        <time>2019-11-04T08:00:33.000Z</time>
      </trkpt>
      <trkpt lat="36.58349323086440563201904296875" lon="-5.85397188551723957061767578125">
        <ele>123.40000152587890625</ele>
        <time>2019-11-04T08:00:38.000Z</time>
      </trkpt>
      <trkpt lat="36.5832884609699249267578125" lon="-5.85402913391590118408203125">
        <ele>124.1999969482421875</ele>
        <time>2019-11-04T08:00:43.000Z</time>
      </trkpt>
      <trkpt lat="36.58307966776192188262939453125" lon="-5.85407783277332782745361328125">
        <ele>125.40000152587890625</ele>
        <time>2019-11-04T08:00:48.000Z</time>
      </trkpt>
      <trkpt lat="36.58286794088780879974365234375" lon="-5.85412971675395965576171875">
        <ele>125</ele>
        <time>2019-11-04T08:00:53.000Z</time>
      </trkpt>
      <trkpt lat="36.582662165164947509765625" lon="-5.85417690686881542205810546875">
        <ele>124.1999969482421875</ele>
        <time>2019-11-04T08:00:58.000Z</time>
      </trkpt>
      <trkpt lat="36.58245337195694446563720703125" lon="-5.854222588241100311279296875">
        <ele>123.40000152587890625</ele>
        <time>2019-11-04T08:01:03.000Z</time>
      </trkpt>
      <trkpt lat="36.58236921764910221099853515625" lon="-5.85424060933291912078857421875">
        <ele>123.1999969482421875</ele>
        <time>2019-11-04T08:01:05.000Z</time>
      </trkpt>
      <trkpt lat="36.58228271640837192535400390625" lon="-5.8542643301188945770263671875">
        <ele>123</ele>
        <time>2019-11-04T08:01:07.000Z</time>
      </trkpt>
      <trkpt lat="36.58206394873559474945068359375" lon="-5.85431185550987720489501953125">
        <ele>123.40000152587890625</ele>
        <time>2019-11-04T08:01:12.000Z</time>
      </trkpt>
      <trkpt lat="36.581847108900547027587890625" lon="-5.8543642424046993255615234375">
        <ele>123.8000030517578125</ele>
        <time>2019-11-04T08:01:17.000Z</time>
      </trkpt>
      <trkpt lat="36.5816362202167510986328125" lon="-5.85440732538700103759765625">
        <ele>124.8000030517578125</ele>
        <time>2019-11-04T08:01:22.000Z</time>
      </trkpt>
      <trkpt lat="36.5814295224845409393310546875" lon="-5.85445225238800048828125">
        <ele>125.59999847412109375</ele>
        <time>2019-11-04T08:01:27.000Z</time>
      </trkpt>
      <trkpt lat="36.58122860826551914215087890625" lon="-5.85448955185711383819580078125">
        <ele>126</ele>
        <time>2019-11-04T08:01:32.000Z</time>
      </trkpt>
      <trkpt lat="36.58101688139140605926513671875" lon="-5.8545340597629547119140625">
        <ele>126.40000152587890625</ele>
        <time>2019-11-04T08:01:37.000Z</time>
      </trkpt>
      <trkpt lat="36.58080431632697582244873046875" lon="-5.85458057932555675506591796875">
        <ele>127</ele>
        <time>2019-11-04T08:01:42.000Z</time>
      </trkpt>
      <trkpt lat="36.58058789558708667755126953125" lon="-5.85463422350585460662841796875">
        <ele>127.40000152587890625</ele>
        <time>2019-11-04T08:01:47.000Z</time>
      </trkpt>
      <trkpt lat="36.5803723968565464019775390625" lon="-5.85469507612287998199462890625">
        <ele>127.40000152587890625</ele>
        <time>2019-11-04T08:01:52.000Z</time>
      </trkpt>
      <trkpt lat="36.5801615081727504730224609375" lon="-5.85477269254624843597412109375">
        <ele>127.59999847412109375</ele>
        <time>2019-11-04T08:01:57.000Z</time>
      </trkpt>
      <trkpt lat="36.57995791174471378326416015625" lon="-5.85486891679465770721435546875">
        <ele>128</ele>
        <time>2019-11-04T08:02:02.000Z</time>
      </trkpt>
      <trkpt lat="36.57976278103888034820556640625" lon="-5.85498332977294921875">
        <ele>128.399993896484375</ele>
        <time>2019-11-04T08:02:07.000Z</time>
      </trkpt>
      <trkpt lat="36.579577960073947906494140625" lon="-5.85511333309113979339599609375">
        <ele>128.399993896484375</ele>
        <time>2019-11-04T08:02:12.000Z</time>
      </trkpt>
      <trkpt lat="36.579400934278964996337890625" lon="-5.8552604354918003082275390625">
        <ele>128.399993896484375</ele>
        <time>2019-11-04T08:02:17.000Z</time>
      </trkpt>
      <trkpt lat="36.57922298647463321685791015625" lon="-5.855416171252727508544921875">
        <ele>128.399993896484375</ele>
        <time>2019-11-04T08:02:22.000Z</time>
      </trkpt>
      <trkpt lat="36.57907295040786266326904296875" lon="-5.85555003024637699127197265625">
        <ele>128.600006103515625</ele>
        <time>2019-11-04T08:02:26.000Z</time>
      </trkpt>
      <trkpt lat="36.57892039977014064788818359375" lon="-5.85567810572683811187744140625">
        <ele>128.8000030517578125</ele>
        <time>2019-11-04T08:02:30.000Z</time>
      </trkpt>
      <trkpt lat="36.57877120189368724822998046875" lon="-5.85580752231180667877197265625">
        <ele>129</ele>
        <time>2019-11-04T08:02:34.000Z</time>
      </trkpt>
      <trkpt lat="36.57859015278518199920654296875" lon="-5.85596594028174877166748046875">
        <ele>129</ele>
        <time>2019-11-04T08:02:39.000Z</time>
      </trkpt>
      <trkpt lat="36.5784150548279285430908203125" lon="-5.85613341070711612701416015625">
        <ele>128.399993896484375</ele>
        <time>2019-11-04T08:02:44.000Z</time>
      </trkpt>
      <trkpt lat="36.57823492772877216339111328125" lon="-5.8562917448580265045166015625">
        <ele>128.1999969482421875</ele>
        <time>2019-11-04T08:02:49.000Z</time>
      </trkpt>
      <trkpt lat="36.57805119641125202178955078125" lon="-5.8564510010182857513427734375">
        <ele>128.600006103515625</ele>
        <time>2019-11-04T08:02:54.000Z</time>
      </trkpt>
      <trkpt lat="36.5779024176299571990966796875" lon="-5.8565817587077617645263671875">
        <ele>129.600006103515625</ele>
        <time>2019-11-04T08:02:58.000Z</time>
      </trkpt>
      <trkpt lat="36.57775095663964748382568359375" lon="-5.85671645589172840118408203125">
        <ele>130.399993896484375</ele>
        <time>2019-11-04T08:03:02.000Z</time>
      </trkpt>
      <trkpt lat="36.57760410569608211517333984375" lon="-5.8568469621241092681884765625">
        <ele>130.399993896484375</ele>
        <time>2019-11-04T08:03:06.000Z</time>
      </trkpt>
      <trkpt lat="36.57744753174483776092529296875" lon="-5.85698551498353481292724609375">
        <ele>131</ele>
        <time>2019-11-04T08:03:10.000Z</time>
      </trkpt>
      <trkpt lat="36.577287353575229644775390625" lon="-5.857126079499721527099609375">
        <ele>132</ele>
        <time>2019-11-04T08:03:14.000Z</time>
      </trkpt>
      <trkpt lat="36.577128432691097259521484375" lon="-5.857259519398212432861328125">
        <ele>132.600006103515625</ele>
        <time>2019-11-04T08:03:18.000Z</time>
      </trkpt>
      <trkpt lat="36.5769616328179836273193359375" lon="-5.8574048615992069244384765625">
        <ele>133.8000030517578125</ele>
        <time>2019-11-04T08:03:22.000Z</time>
      </trkpt>
      <trkpt lat="36.57679642550647258758544921875" lon="-5.85755179636180400848388671875">
        <ele>133.8000030517578125</ele>
        <time>2019-11-04T08:03:26.000Z</time>
      </trkpt>
      <trkpt lat="36.57662157900631427764892578125" lon="-5.85770107805728912353515625">
        <ele>133.8000030517578125</ele>
        <time>2019-11-04T08:03:30.000Z</time>
      </trkpt>
      <trkpt lat="36.5764503367245197296142578125" lon="-5.85785371251404285430908203125">
        <ele>134</ele>
        <time>2019-11-04T08:03:34.000Z</time>
      </trkpt>
      <trkpt lat="36.57627289183437824249267578125" lon="-5.858013220131397247314453125">
        <ele>134</ele>
        <time>2019-11-04T08:03:38.000Z</time>
      </trkpt>
      <trkpt lat="36.5760825388133525848388671875" lon="-5.85816954262554645538330078125">
        <ele>134</ele>
        <time>2019-11-04T08:03:42.000Z</time>
      </trkpt>
      <trkpt lat="36.57589168287813663482666015625" lon="-5.85832661949098110198974609375">
        <ele>133.600006103515625</ele>
        <time>2019-11-04T08:03:46.000Z</time>
      </trkpt>
      <trkpt lat="36.57570543698966503143310546875" lon="-5.8584961853921413421630859375">
        <ele>133.600006103515625</ele>
        <time>2019-11-04T08:03:50.000Z</time>
      </trkpt>
      <trkpt lat="36.5755055285990238189697265625" lon="-5.8586598001420497894287109375">
        <ele>133.600006103515625</ele>
        <time>2019-11-04T08:03:54.000Z</time>
      </trkpt>
      <trkpt lat="36.57534585334360599517822265625" lon="-5.8587784878909587860107421875">
        <ele>133</ele>
        <time>2019-11-04T08:03:57.000Z</time>
      </trkpt>
      <trkpt lat="36.5751746110618114471435546875" lon="-5.8588914759457111358642578125">
        <ele>132.399993896484375</ele>
        <time>2019-11-04T08:04:00.000Z</time>
      </trkpt>
      <trkpt lat="36.57499230466783046722412109375" lon="-5.85900060832500457763671875">
        <ele>131.8000030517578125</ele>
        <time>2019-11-04T08:04:03.000Z</time>
      </trkpt>
      <trkpt lat="36.5747954137623310089111328125" lon="-5.85909775458276271820068359375">
        <ele>130</ele>
        <time>2019-11-04T08:04:06.000Z</time>
      </trkpt>
      <trkpt lat="36.57458670437335968017578125" lon="-5.85918375290930271148681640625">
        <ele>128.399993896484375</ele>
        <time>2019-11-04T08:04:09.000Z</time>
      </trkpt>
      <trkpt lat="36.57436986453831195831298828125" lon="-5.85925516672432422637939453125">
        <ele>126.8000030517578125</ele>
        <time>2019-11-04T08:04:12.000Z</time>
      </trkpt>
      <trkpt lat="36.57414757646620273590087890625" lon="-5.85932708345353603363037109375">
        <ele>125.1999969482421875</ele>
        <time>2019-11-04T08:04:15.000Z</time>
      </trkpt>
      <trkpt lat="36.57392210327088832855224609375" lon="-5.85940168239176273345947265625">
        <ele>123.1999969482421875</ele>
        <time>2019-11-04T08:04:18.000Z</time>
      </trkpt>
      <trkpt lat="36.57369218766689300537109375" lon="-5.859481394290924072265625">
        <ele>120.1999969482421875</ele>
        <time>2019-11-04T08:04:21.000Z</time>
      </trkpt>
      <trkpt lat="36.57345640473067760467529296875" lon="-5.85957736708223819732666015625">
        <ele>117.59999847412109375</ele>
        <time>2019-11-04T08:04:24.000Z</time>
      </trkpt>
      <trkpt lat="36.5732125751674175262451171875" lon="-5.8596874214708805084228515625">
        <ele>115.40000152587890625</ele>
        <time>2019-11-04T08:04:27.000Z</time>
      </trkpt>
      <trkpt lat="36.57296623103320598602294921875" lon="-5.859819017350673675537109375">
        <ele>114.8000030517578125</ele>
        <time>2019-11-04T08:04:30.000Z</time>
      </trkpt>
      <trkpt lat="36.57279909588396549224853515625" lon="-5.85992689244449138641357421875">
        <ele>114.8000030517578125</ele>
        <time>2019-11-04T08:04:32.000Z</time>
      </trkpt>
      <trkpt lat="36.57263011671602725982666015625" lon="-5.8600454963743686676025390625">
        <ele>114.8000030517578125</ele>
        <time>2019-11-04T08:04:34.000Z</time>
      </trkpt>
      <trkpt lat="36.5724659152328968048095703125" lon="-5.8601729013025760650634765625">
        <ele>114.40000152587890625</ele>
        <time>2019-11-04T08:04:36.000Z</time>
      </trkpt>
      <trkpt lat="36.57230506651103496551513671875" lon="-5.860307179391384124755859375">
        <ele>113.59999847412109375</ele>
        <time>2019-11-04T08:04:38.000Z</time>
      </trkpt>
      <trkpt lat="36.5721504203975200653076171875" lon="-5.86044824682176113128662109375">
        <ele>112.59999847412109375</ele>
        <time>2019-11-04T08:04:40.000Z</time>
      </trkpt>
      <trkpt lat="36.572004742920398712158203125" lon="-5.86059543304145336151123046875">
        <ele>111.59999847412109375</ele>
        <time>2019-11-04T08:04:42.000Z</time>
      </trkpt>
      <trkpt lat="36.57180349342525005340576171875" lon="-5.8608149550855159759521484375">
        <ele>110.40000152587890625</ele>
        <time>2019-11-04T08:04:45.000Z</time>
      </trkpt>
      <trkpt lat="36.5716143138706684112548828125" lon="-5.86104788817465305328369140625">
        <ele>109</ele>
        <time>2019-11-04T08:04:48.000Z</time>
      </trkpt>
      <trkpt lat="36.571426056325435638427734375" lon="-5.8612840063869953155517578125">
        <ele>107.40000152587890625</ele>
        <time>2019-11-04T08:04:51.000Z</time>
      </trkpt>
      <trkpt lat="36.5712964721024036407470703125" lon="-5.86144485510885715484619140625">
        <ele>106.8000030517578125</ele>
        <time>2019-11-04T08:04:53.000Z</time>
      </trkpt>
      <trkpt lat="36.57116428948938846588134765625" lon="-5.8616043627262115478515625">
        <ele>105.59999847412109375</ele>
        <time>2019-11-04T08:04:55.000Z</time>
      </trkpt>
      <trkpt lat="36.57096303999423980712890625" lon="-5.8618244715034961700439453125">
        <ele>105</ele>
        <time>2019-11-04T08:04:58.000Z</time>
      </trkpt>
      <trkpt lat="36.57081711106002330780029296875" lon="-5.8619753457605838775634765625">
        <ele>104.1999969482421875</ele>
        <time>2019-11-04T08:05:00.000Z</time>
      </trkpt>
      <trkpt lat="36.57066154293715953826904296875" lon="-5.86211775429546833038330078125">
        <ele>103.59999847412109375</ele>
        <time>2019-11-04T08:05:02.000Z</time>
      </trkpt>
      <trkpt lat="36.57049038447439670562744140625" lon="-5.8622563071548938751220703125">
        <ele>102.8000030517578125</ele>
        <time>2019-11-04T08:05:04.000Z</time>
      </trkpt>
      <trkpt lat="36.57030992209911346435546875" lon="-5.86238295771181583404541015625">
        <ele>101.40000152587890625</ele>
        <time>2019-11-04T08:05:06.000Z</time>
      </trkpt>
      <trkpt lat="36.570121832191944122314453125" lon="-5.86250491440296173095703125">
        <ele>99.40000152587890625</ele>
        <time>2019-11-04T08:05:08.000Z</time>
      </trkpt>
      <trkpt lat="36.56992879696190357208251953125" lon="-5.862617231905460357666015625">
        <ele>97.1999969482421875</ele>
        <time>2019-11-04T08:05:10.000Z</time>
      </trkpt>
      <trkpt lat="36.569732911884784698486328125" lon="-5.862717144191265106201171875">
        <ele>95</ele>
        <time>2019-11-04T08:05:12.000Z</time>
      </trkpt>
      <trkpt lat="36.569535098969936370849609375" lon="-5.86282468400895595550537109375">
        <ele>93</ele>
        <time>2019-11-04T08:05:14.000Z</time>
      </trkpt>
      <trkpt lat="36.56933485530316829681396484375" lon="-5.86293113417923450469970703125">
        <ele>91.1999969482421875</ele>
        <time>2019-11-04T08:05:16.000Z</time>
      </trkpt>
      <trkpt lat="36.569131426513195037841796875" lon="-5.86303372867405414581298828125">
        <ele>89.8000030517578125</ele>
        <time>2019-11-04T08:05:18.000Z</time>
      </trkpt>
      <trkpt lat="36.5689334459602832794189453125" lon="-5.86313649080693721771240234375">
        <ele>89.1999969482421875</ele>
        <time>2019-11-04T08:05:20.000Z</time>
      </trkpt>
      <trkpt lat="36.5687349624931812286376953125" lon="-5.86323992349207401275634765625">
        <ele>89</ele>
        <time>2019-11-04T08:05:22.000Z</time>
      </trkpt>
      <trkpt lat="36.568537987768650054931640625" lon="-5.8633385784924030303955078125">
        <ele>89</ele>
        <time>2019-11-04T08:05:24.000Z</time>
      </trkpt>
      <trkpt lat="36.56834185123443603515625" lon="-5.86343857459723949432373046875">
        <ele>89</ele>
        <time>2019-11-04T08:05:26.000Z</time>
      </trkpt>
      <trkpt lat="36.5681478939950466156005859375" lon="-5.86353915743529796600341796875">
        <ele>88.59999847412109375</ele>
        <time>2019-11-04T08:05:28.000Z</time>
      </trkpt>
      <trkpt lat="36.56795636750757694244384765625" lon="-5.86364611051976680755615234375">
        <ele>88.1999969482421875</ele>
        <time>2019-11-04T08:05:30.000Z</time>
      </trkpt>
      <trkpt lat="36.567770205438137054443359375" lon="-5.8637425862252712249755859375">
        <ele>88</ele>
        <time>2019-11-04T08:05:32.000Z</time>
      </trkpt>
      <trkpt lat="36.5675893239676952362060546875" lon="-5.8638394810259342193603515625">
        <ele>88</ele>
        <time>2019-11-04T08:05:34.000Z</time>
      </trkpt>
      <trkpt lat="36.56741305254399776458740234375" lon="-5.86393176577985286712646484375">
        <ele>88</ele>
        <time>2019-11-04T08:05:36.000Z</time>
      </trkpt>
      <trkpt lat="36.567243821918964385986328125" lon="-5.86401860229671001434326171875">
        <ele>87.8000030517578125</ele>
        <time>2019-11-04T08:05:38.000Z</time>
      </trkpt>
      <trkpt lat="36.567076183855533599853515625" lon="-5.8641056902706623077392578125">
        <ele>87</ele>
        <time>2019-11-04T08:05:40.000Z</time>
      </trkpt>
      <trkpt lat="36.56683235429227352142333984375" lon="-5.8642384596168994903564453125">
        <ele>85.59999847412109375</ele>
        <time>2019-11-04T08:05:43.000Z</time>
      </trkpt>
      <trkpt lat="36.56659900210797786712646484375" lon="-5.864362679421901702880859375">
        <ele>84.40000152587890625</ele>
        <time>2019-11-04T08:05:46.000Z</time>
      </trkpt>
      <trkpt lat="36.566369421780109405517578125" lon="-5.86448974907398223876953125">
        <ele>83.40000152587890625</ele>
        <time>2019-11-04T08:05:49.000Z</time>
      </trkpt>
      <trkpt lat="36.56615191139280796051025390625" lon="-5.86460583843290805816650390625">
        <ele>82.8000030517578125</ele>
        <time>2019-11-04T08:05:52.000Z</time>
      </trkpt>
      <trkpt lat="36.5659390948712825775146484375" lon="-5.86471815593540668487548828125">
        <ele>82.40000152587890625</ele>
        <time>2019-11-04T08:05:55.000Z</time>
      </trkpt>
      <trkpt lat="36.565735749900341033935546875" lon="-5.8648198284208774566650390625">
        <ele>82.40000152587890625</ele>
        <time>2019-11-04T08:05:58.000Z</time>
      </trkpt>
      <trkpt lat="36.565537266433238983154296875" lon="-5.86491982452571392059326171875">
        <ele>82.40000152587890625</ele>
        <time>2019-11-04T08:06:01.000Z</time>
      </trkpt>
      <trkpt lat="36.56534724868834018707275390625" lon="-5.8650109358131885528564453125">
        <ele>82.1999969482421875</ele>
        <time>2019-11-04T08:06:04.000Z</time>
      </trkpt>
      <trkpt lat="36.56515597365796566009521484375" lon="-5.86511327885091304779052734375">
        <ele>81.40000152587890625</ele>
        <time>2019-11-04T08:06:07.000Z</time>
      </trkpt>
      <trkpt lat="36.56496168114244937896728515625" lon="-5.86522073484957218170166015625">
        <ele>80.40000152587890625</ele>
        <time>2019-11-04T08:06:10.000Z</time>
      </trkpt>
      <trkpt lat="36.56477375887334346771240234375" lon="-5.865323580801486968994140625">
        <ele>79.40000152587890625</ele>
        <time>2019-11-04T08:06:13.000Z</time>
      </trkpt>
      <trkpt lat="36.5645889379084110260009765625" lon="-5.86542441509664058685302734375">
        <ele>78.8000030517578125</ele>
        <time>2019-11-04T08:06:16.000Z</time>
      </trkpt>
      <trkpt lat="36.56440260820090770721435546875" lon="-5.8655245788395404815673828125">
        <ele>78.40000152587890625</ele>
        <time>2019-11-04T08:06:19.000Z</time>
      </trkpt>
      <trkpt lat="36.564221642911434173583984375" lon="-5.8656167797744274139404296875">
        <ele>78.1999969482421875</ele>
        <time>2019-11-04T08:06:22.000Z</time>
      </trkpt>
      <trkpt lat="36.56403833068907260894775390625" lon="-5.86571476422250270843505859375">
        <ele>77.8000030517578125</ele>
        <time>2019-11-04T08:06:25.000Z</time>
      </trkpt>
      <trkpt lat="36.563854515552520751953125" lon="-5.86581182666122913360595703125">
        <ele>77.59999847412109375</ele>
        <time>2019-11-04T08:06:28.000Z</time>
      </trkpt>
      <trkpt lat="36.56367153860628604888916015625" lon="-5.8659067936241626739501953125">
        <ele>78</ele>
        <time>2019-11-04T08:06:31.000Z</time>
      </trkpt>
      <trkpt lat="36.56348562799394130706787109375" lon="-5.8659946359694004058837890625">
        <ele>77.1999969482421875</ele>
        <time>2019-11-04T08:06:34.000Z</time>
      </trkpt>
      <trkpt lat="36.5633028186857700347900390625" lon="-5.86608272977173328399658203125">
        <ele>76.40000152587890625</ele>
        <time>2019-11-04T08:06:37.000Z</time>
      </trkpt>
      <trkpt lat="36.5631224401295185089111328125" lon="-5.86616478860378265380859375">
        <ele>76.1999969482421875</ele>
        <time>2019-11-04T08:06:40.000Z</time>
      </trkpt>
      <trkpt lat="36.56294382177293300628662109375" lon="-5.8662259764969348907470703125">
        <ele>76</ele>
        <time>2019-11-04T08:06:43.000Z</time>
      </trkpt>
      <trkpt lat="36.5627596713602542877197265625" lon="-5.8662843145430088043212890625">
        <ele>76</ele>
        <time>2019-11-04T08:06:46.000Z</time>
      </trkpt>
      <trkpt lat="36.5625739283859729766845703125" lon="-5.8663304150104522705078125">
        <ele>76.40000152587890625</ele>
        <time>2019-11-04T08:06:49.000Z</time>
      </trkpt>
      <trkpt lat="36.562387682497501373291015625" lon="-5.86636369116604328155517578125">
        <ele>76.40000152587890625</ele>
        <time>2019-11-04T08:06:52.000Z</time>
      </trkpt>
      <trkpt lat="36.5622004307806491851806640625" lon="-5.8663760125637054443359375">
        <ele>76.1999969482421875</ele>
        <time>2019-11-04T08:06:55.000Z</time>
      </trkpt>
      <trkpt lat="36.5620029531419277191162109375" lon="-5.86638146080076694488525390625">
        <ele>75.1999969482421875</ele>
        <time>2019-11-04T08:06:58.000Z</time>
      </trkpt>
      <trkpt lat="36.56180203892290592193603515625" lon="-5.86638766340911388397216796875">
        <ele>72.8000030517578125</ele>
        <time>2019-11-04T08:07:01.000Z</time>
      </trkpt>
      <trkpt lat="36.56159467063844203948974609375" lon="-5.866396464407444000244140625">
        <ele>69.40000152587890625</ele>
        <time>2019-11-04T08:07:04.000Z</time>
      </trkpt>
      <trkpt lat="36.5613843686878681182861328125" lon="-5.8664140664041042327880859375">
        <ele>66.59999847412109375</ele>
        <time>2019-11-04T08:07:07.000Z</time>
      </trkpt>
      <trkpt lat="36.56117842532694339752197265625" lon="-5.8664472587406635284423828125">
        <ele>65.1999969482421875</ele>
        <time>2019-11-04T08:07:10.000Z</time>
      </trkpt>
      <trkpt lat="36.5609669499099254608154296875" lon="-5.8664962090551853179931640625">
        <ele>64.40000152587890625</ele>
        <time>2019-11-04T08:07:13.000Z</time>
      </trkpt>
      <trkpt lat="36.56076620332896709442138671875" lon="-5.86655613966286182403564453125">
        <ele>64</ele>
        <time>2019-11-04T08:07:16.000Z</time>
      </trkpt>
      <trkpt lat="36.56057241372764110565185546875" lon="-5.86662638001143932342529296875">
        <ele>64</ele>
        <time>2019-11-04T08:07:19.000Z</time>
      </trkpt>
      <trkpt lat="36.56038465909659862518310546875" lon="-5.866697542369365692138671875">
        <ele>64</ele>
        <time>2019-11-04T08:07:22.000Z</time>
      </trkpt>
      <trkpt lat="36.5601944737136363983154296875" lon="-5.86676828563213348388671875">
        <ele>63.200000762939453125</ele>
        <time>2019-11-04T08:07:25.000Z</time>
      </trkpt>
      <trkpt lat="36.56000697053968906402587890625" lon="-5.8668412081897258758544921875">
        <ele>62</ele>
        <time>2019-11-04T08:07:28.000Z</time>
      </trkpt>
      <trkpt lat="36.55982038937509059906005859375" lon="-5.866916812956333160400390625">
        <ele>61.40000152587890625</ele>
        <time>2019-11-04T08:07:31.000Z</time>
      </trkpt>
      <trkpt lat="36.559636406600475311279296875" lon="-5.86698965169489383697509765625">
        <ele>62</ele>
        <time>2019-11-04T08:07:34.000Z</time>
      </trkpt>
      <trkpt lat="36.55945443548262119293212890625" lon="-5.86705687455832958221435546875">
        <ele>63</ele>
        <time>2019-11-04T08:07:37.000Z</time>
      </trkpt>
      <trkpt lat="36.559272296726703643798828125" lon="-5.8671255223453044891357421875">
        <ele>64</ele>
        <time>2019-11-04T08:07:40.000Z</time>
      </trkpt>
      <trkpt lat="36.55909418128430843353271484375" lon="-5.86719634942710399627685546875">
        <ele>64.40000152587890625</ele>
        <time>2019-11-04T08:07:43.000Z</time>
      </trkpt>
      <trkpt lat="36.5589103661477565765380859375" lon="-5.86725988425314426422119140625">
        <ele>64.40000152587890625</ele>
        <time>2019-11-04T08:07:46.000Z</time>
      </trkpt>
      <trkpt lat="36.55873040668666362762451171875" lon="-5.86732978932559490203857421875">
        <ele>64.59999847412109375</ele>
        <time>2019-11-04T08:07:49.000Z</time>
      </trkpt>
      <trkpt lat="36.55855237506330013275146484375" lon="-5.86740254424512386322021484375">
        <ele>64.40000152587890625</ele>
        <time>2019-11-04T08:07:52.000Z</time>
      </trkpt>
      <trkpt lat="36.5583766065537929534912109375" lon="-5.86746892891824245452880859375">
        <ele>63.59999847412109375</ele>
        <time>2019-11-04T08:07:55.000Z</time>
      </trkpt>
      <trkpt lat="36.5581481158733367919921875" lon="-5.86755241267383098602294921875">
        <ele>64</ele>
        <time>2019-11-04T08:07:59.000Z</time>
      </trkpt>
      <trkpt lat="36.557920463383197784423828125" lon="-5.867642350494861602783203125">
        <ele>64.1999969482421875</ele>
        <time>2019-11-04T08:08:03.000Z</time>
      </trkpt>
      <trkpt lat="36.55769188888370990753173828125" lon="-5.8677263371646404266357421875">
        <ele>64.40000152587890625</ele>
        <time>2019-11-04T08:08:07.000Z</time>
      </trkpt>
      <trkpt lat="36.5575119294226169586181640625" lon="-5.86779548786580562591552734375">
        <ele>64</ele>
        <time>2019-11-04T08:08:10.000Z</time>
      </trkpt>
      <trkpt lat="36.55732811428606510162353515625" lon="-5.86786019615828990936279296875">
        <ele>63.40000152587890625</ele>
        <time>2019-11-04T08:08:13.000Z</time>
      </trkpt>
      <trkpt lat="36.5571422874927520751953125" lon="-5.867936722934246063232421875">
        <ele>62.40000152587890625</ele>
        <time>2019-11-04T08:08:16.000Z</time>
      </trkpt>
      <trkpt lat="36.556951515376567840576171875" lon="-5.868013836443424224853515625">
        <ele>61.59999847412109375</ele>
        <time>2019-11-04T08:08:19.000Z</time>
      </trkpt>
      <trkpt lat="36.556762419641017913818359375" lon="-5.86809187196195125579833984375">
        <ele>62</ele>
        <time>2019-11-04T08:08:22.000Z</time>
      </trkpt>
      <trkpt lat="36.55657273717224597930908203125" lon="-5.868164710700511932373046875">
        <ele>62</ele>
        <time>2019-11-04T08:08:25.000Z</time>
      </trkpt>
      <trkpt lat="36.55638297088444232940673828125" lon="-5.8682433329522609710693359375">
        <ele>61.799999237060546875</ele>
        <time>2019-11-04T08:08:28.000Z</time>
      </trkpt>
      <trkpt lat="36.55619680881500244140625" lon="-5.86831700988113880157470703125">
        <ele>62</ele>
        <time>2019-11-04T08:08:31.000Z</time>
      </trkpt>
      <trkpt lat="36.5560092218220233917236328125" lon="-5.8683978952467441558837890625">
        <ele>62</ele>
        <time>2019-11-04T08:08:34.000Z</time>
      </trkpt>
      <trkpt lat="36.555820293724536895751953125" lon="-5.86846821941435337066650390625">
        <ele>61.59999847412109375</ele>
        <time>2019-11-04T08:08:37.000Z</time>
      </trkpt>
      <trkpt lat="36.55563295818865299224853515625" lon="-5.86854248307645320892333984375">
        <ele>59.59999847412109375</ele>
        <time>2019-11-04T08:08:40.000Z</time>
      </trkpt>
      <trkpt lat="36.555446796119213104248046875" lon="-5.8686171658337116241455078125">
        <ele>58.59999847412109375</ele>
        <time>2019-11-04T08:08:43.000Z</time>
      </trkpt>
      <trkpt lat="36.5552612207829952239990234375" lon="-5.86868916638195514678955078125">
        <ele>58</ele>
        <time>2019-11-04T08:08:46.000Z</time>
      </trkpt>
      <trkpt lat="36.55507623217999935150146484375" lon="-5.868764184415340423583984375">
        <ele>57.799999237060546875</ele>
        <time>2019-11-04T08:08:49.000Z</time>
      </trkpt>
      <trkpt lat="36.5548934228718280792236328125" lon="-5.86883517913520336151123046875">
        <ele>57.200000762939453125</ele>
        <time>2019-11-04T08:08:52.000Z</time>
      </trkpt>
      <trkpt lat="36.55471296049654483795166015625" lon="-5.8689078502357006072998046875">
        <ele>56.40000152587890625</ele>
        <time>2019-11-04T08:08:55.000Z</time>
      </trkpt>
      <trkpt lat="36.55453040264546871185302734375" lon="-5.8689832873642444610595703125">
        <ele>56.799999237060546875</ele>
        <time>2019-11-04T08:08:58.000Z</time>
      </trkpt>
      <trkpt lat="36.55435102991759777069091796875" lon="-5.8690557070076465606689453125">
        <ele>57.200000762939453125</ele>
        <time>2019-11-04T08:09:01.000Z</time>
      </trkpt>
      <trkpt lat="36.55417115427553653717041015625" lon="-5.86912284605205059051513671875">
        <ele>57.59999847412109375</ele>
        <time>2019-11-04T08:09:04.000Z</time>
      </trkpt>
      <trkpt lat="36.5539952181279659271240234375" lon="-5.86919409222900867462158203125">
        <ele>57.200000762939453125</ele>
        <time>2019-11-04T08:09:07.000Z</time>
      </trkpt>
      <trkpt lat="36.5538222156465053558349609375" lon="-5.86925812996923923492431640625">
        <ele>57</ele>
        <time>2019-11-04T08:09:10.000Z</time>
      </trkpt>
      <trkpt lat="36.553593389689922332763671875" lon="-5.8693343214690685272216796875">
        <ele>57.200000762939453125</ele>
        <time>2019-11-04T08:09:14.000Z</time>
      </trkpt>
      <trkpt lat="36.55341778881847858428955078125" lon="-5.8693923242390155792236328125">
        <ele>57.799999237060546875</ele>
        <time>2019-11-04T08:09:17.000Z</time>
      </trkpt>
      <trkpt lat="36.55324059538543224334716796875" lon="-5.869453512132167816162109375">
        <ele>58</ele>
        <time>2019-11-04T08:09:20.000Z</time>
      </trkpt>
      <trkpt lat="36.5530653297901153564453125" lon="-5.869517214596271514892578125">
        <ele>58</ele>
        <time>2019-11-04T08:09:23.000Z</time>
      </trkpt>
      <trkpt lat="36.55288897454738616943359375" lon="-5.8695760555565357208251953125">
        <ele>57.799999237060546875</ele>
        <time>2019-11-04T08:09:26.000Z</time>
      </trkpt>
      <trkpt lat="36.5527111105620861053466796875" lon="-5.86963246576488018035888671875">
        <ele>58</ele>
        <time>2019-11-04T08:09:29.000Z</time>
      </trkpt>
      <trkpt lat="36.55253500677645206451416015625" lon="-5.869684517383575439453125">
        <ele>58</ele>
        <time>2019-11-04T08:09:32.000Z</time>
      </trkpt>
      <trkpt lat="36.55235965736210346221923828125" lon="-5.86973891593515872955322265625">
        <ele>57.40000152587890625</ele>
        <time>2019-11-04T08:09:35.000Z</time>
      </trkpt>
      <trkpt lat="36.55212613753974437713623046875" lon="-5.86980328895151615142822265625">
        <ele>56.200000762939453125</ele>
        <time>2019-11-04T08:09:39.000Z</time>
      </trkpt>
      <trkpt lat="36.5518958866596221923828125" lon="-5.86986749432981014251708984375">
        <ele>54.799999237060546875</ele>
        <time>2019-11-04T08:09:43.000Z</time>
      </trkpt>
      <trkpt lat="36.55171978287398815155029296875" lon="-5.8699156902730464935302734375">
        <ele>54.59999847412109375</ele>
        <time>2019-11-04T08:09:46.000Z</time>
      </trkpt>
      <trkpt lat="36.55148617923259735107421875" lon="-5.8699790574610233306884765625">
        <ele>54.40000152587890625</ele>
        <time>2019-11-04T08:09:50.000Z</time>
      </trkpt>
      <trkpt lat="36.5513084828853607177734375" lon="-5.870026163756847381591796875">
        <ele>54.59999847412109375</ele>
        <time>2019-11-04T08:09:53.000Z</time>
      </trkpt>
      <trkpt lat="36.5510809980332851409912109375" lon="-5.87008827365934848785400390625">
        <ele>55</ele>
        <time>2019-11-04T08:09:57.000Z</time>
      </trkpt>
      <trkpt lat="36.5508523397147655487060546875" lon="-5.87014225311577320098876953125">
        <ele>54.799999237060546875</ele>
        <time>2019-11-04T08:10:01.000Z</time>
      </trkpt>
      <trkpt lat="36.5506233461201190948486328125" lon="-5.87019355036318302154541015625">
        <ele>54.40000152587890625</ele>
        <time>2019-11-04T08:10:05.000Z</time>
      </trkpt>
      <trkpt lat="36.55039544217288494110107421875" lon="-5.8702402375638484954833984375">
        <ele>54</ele>
        <time>2019-11-04T08:10:09.000Z</time>
      </trkpt>
      <trkpt lat="36.55016259290277957916259765625" lon="-5.87027904577553272247314453125">
        <ele>54.200000762939453125</ele>
        <time>2019-11-04T08:10:13.000Z</time>
      </trkpt>
      <trkpt lat="36.5499263070523738861083984375" lon="-5.8703213743865489959716796875">
        <ele>54.200000762939453125</ele>
        <time>2019-11-04T08:10:17.000Z</time>
      </trkpt>
      <trkpt lat="36.5496909432113170623779296875" lon="-5.87037040852010250091552734375">
        <ele>54.40000152587890625</ele>
        <time>2019-11-04T08:10:21.000Z</time>
      </trkpt>
      <trkpt lat="36.5494604408740997314453125" lon="-5.87040645070374011993408203125">
        <ele>55.799999237060546875</ele>
        <time>2019-11-04T08:10:25.000Z</time>
      </trkpt>
      <trkpt lat="36.549232788383960723876953125" lon="-5.870446600019931793212890625">
        <ele>55.59999847412109375</ele>
        <time>2019-11-04T08:10:29.000Z</time>
      </trkpt>
      <trkpt lat="36.54901142232120037078857421875" lon="-5.87047585286200046539306640625">
        <ele>55</ele>
        <time>2019-11-04T08:10:33.000Z</time>
      </trkpt>
      <trkpt lat="36.5487957559525966644287109375" lon="-5.87051399052143096923828125">
        <ele>54.59999847412109375</ele>
        <time>2019-11-04T08:10:37.000Z</time>
      </trkpt>
      <trkpt lat="36.54857086949050426483154296875" lon="-5.87055028416216373443603515625">
        <ele>54</ele>
        <time>2019-11-04T08:10:41.000Z</time>
      </trkpt>
      <trkpt lat="36.54835059307515621185302734375" lon="-5.87058842182159423828125">
        <ele>54</ele>
        <time>2019-11-04T08:10:45.000Z</time>
      </trkpt>
      <trkpt lat="36.54814272187650203704833984375" lon="-5.87062320671975612640380859375">
        <ele>54</ele>
        <time>2019-11-04T08:10:49.000Z</time>
      </trkpt>
      <trkpt lat="36.5479525364935398101806640625" lon="-5.8706600032746791839599609375">
        <ele>53.59999847412109375</ele>
        <time>2019-11-04T08:10:53.000Z</time>
      </trkpt>
      <trkpt lat="36.54776184819638729095458984375" lon="-5.87068757973611354827880859375">
        <ele>53</ele>
        <time>2019-11-04T08:10:57.000Z</time>
      </trkpt>
      <trkpt lat="36.5475662983953952789306640625" lon="-5.870720185339450836181640625">
        <ele>53</ele>
        <time>2019-11-04T08:11:01.000Z</time>
      </trkpt>
      <trkpt lat="36.547362618148326873779296875" lon="-5.87075346149504184722900390625">
        <ele>53</ele>
        <time>2019-11-04T08:11:05.000Z</time>
      </trkpt>
      <trkpt lat="36.54716891236603260040283203125" lon="-5.87078715674579143524169921875">
        <ele>53.200000762939453125</ele>
        <time>2019-11-04T08:11:09.000Z</time>
      </trkpt>
      <trkpt lat="36.54698199592530727386474609375" lon="-5.8708257973194122314453125">
        <ele>54</ele>
        <time>2019-11-04T08:11:13.000Z</time>
      </trkpt>
      <trkpt lat="36.54676523990929126739501953125" lon="-5.8708682097494602203369140625">
        <ele>54.59999847412109375</ele>
        <time>2019-11-04T08:11:18.000Z</time>
      </trkpt>
      <trkpt lat="36.5466861985623836517333984375" lon="-5.87088639847934246063232421875">
        <ele>55</ele>
        <time>2019-11-04T08:11:21.000Z</time>
      </trkpt>
      <trkpt lat="36.5466811694204807281494140625" lon="-5.87089980952441692352294921875">
        <ele>55</ele>
        <time>2019-11-04T08:11:25.000Z</time>
      </trkpt>
      <trkpt lat="36.54662760905921459197998046875" lon="-5.87089830078184604644775390625">
        <ele>55.200000762939453125</ele>
        <time>2019-11-04T08:11:51.000Z</time>
      </trkpt>
      <trkpt lat="36.54643482528626918792724609375" lon="-5.87093182839453220367431640625">
        <ele>55.799999237060546875</ele>
        <time>2019-11-04T08:11:57.000Z</time>
      </trkpt>
      <trkpt lat="36.546232067048549652099609375" lon="-5.87096502073109149932861328125">
        <ele>57.200000762939453125</ele>
        <time>2019-11-04T08:12:02.000Z</time>
      </trkpt>
      <trkpt lat="36.54601824469864368438720703125" lon="-5.870993100106716156005859375">
        <ele>58.200000762939453125</ele>
        <time>2019-11-04T08:12:07.000Z</time>
      </trkpt>
      <trkpt lat="36.54579578898847103118896484375" lon="-5.8710318244993686676025390625">
        <ele>58.59999847412109375</ele>
        <time>2019-11-04T08:12:12.000Z</time>
      </trkpt>
      <trkpt lat="36.545612476766109466552734375" lon="-5.87106862105429172515869140625">
        <ele>58.799999237060546875</ele>
        <time>2019-11-04T08:12:16.000Z</time>
      </trkpt>
      <trkpt lat="36.5454245544970035552978515625" lon="-5.87110340595245361328125">
        <ele>58.200000762939453125</ele>
        <time>2019-11-04T08:12:20.000Z</time>
      </trkpt>
      <trkpt lat="36.54523705132305622100830078125" lon="-5.87113835848867893218994140625">
        <ele>57.40000152587890625</ele>
        <time>2019-11-04T08:12:24.000Z</time>
      </trkpt>
      <trkpt lat="36.54504426755011081695556640625" lon="-5.87117188610136508941650390625">
        <ele>56.40000152587890625</ele>
        <time>2019-11-04T08:12:28.000Z</time>
      </trkpt>
      <trkpt lat="36.5448431856930255889892578125" lon="-5.8712051622569561004638671875">
        <ele>56</ele>
        <time>2019-11-04T08:12:32.000Z</time>
      </trkpt>
      <trkpt lat="36.544645540416240692138671875" lon="-5.87123609147965908050537109375">
        <ele>55.799999237060546875</ele>
        <time>2019-11-04T08:12:36.000Z</time>
      </trkpt>
      <trkpt lat="36.54445133171975612640380859375" lon="-5.87126710452139377593994140625">
        <ele>55.59999847412109375</ele>
        <time>2019-11-04T08:12:40.000Z</time>
      </trkpt>
      <trkpt lat="36.54425351880490779876708984375" lon="-5.87127984501421451568603515625">
        <ele>55.200000762939453125</ele>
        <time>2019-11-04T08:12:44.000Z</time>
      </trkpt>
      <trkpt lat="36.544058136641979217529296875" lon="-5.87129208259284496307373046875">
        <ele>54.799999237060546875</ele>
        <time>2019-11-04T08:12:48.000Z</time>
      </trkpt>
      <trkpt lat="36.5438648499548435211181640625" lon="-5.8712896518409252166748046875">
        <ele>54.799999237060546875</ele>
        <time>2019-11-04T08:12:52.000Z</time>
      </trkpt>
      <trkpt lat="36.5436744131147861480712890625" lon="-5.87127833627164363861083984375">
        <ele>54.799999237060546875</ele>
        <time>2019-11-04T08:12:56.000Z</time>
      </trkpt>
      <trkpt lat="36.543479450047016143798828125" lon="-5.87125604040920734405517578125">
        <ele>54.40000152587890625</ele>
        <time>2019-11-04T08:13:00.000Z</time>
      </trkpt>
      <trkpt lat="36.5432831458747386932373046875" lon="-5.87122888304293155670166015625">
        <ele>53.799999237060546875</ele>
        <time>2019-11-04T08:13:04.000Z</time>
      </trkpt>
      <trkpt lat="36.5430806390941143035888671875" lon="-5.87119258940219879150390625">
        <ele>53.200000762939453125</ele>
        <time>2019-11-04T08:13:08.000Z</time>
      </trkpt>
      <trkpt lat="36.54287318699061870574951171875" lon="-5.87115847505629062652587890625">
        <ele>52.59999847412109375</ele>
        <time>2019-11-04T08:13:12.000Z</time>
      </trkpt>
      <trkpt lat="36.54266380704939365386962890625" lon="-5.87112545035779476165771484375">
        <ele>52.40000152587890625</ele>
        <time>2019-11-04T08:13:16.000Z</time>
      </trkpt>
      <trkpt lat="36.54245878569781780242919921875" lon="-5.871093682944774627685546875">
        <ele>52.59999847412109375</ele>
        <time>2019-11-04T08:13:20.000Z</time>
      </trkpt>
      <trkpt lat="36.5422551892697811126708984375" lon="-5.87105839513242244720458984375">
        <ele>54</ele>
        <time>2019-11-04T08:13:24.000Z</time>
      </trkpt>
      <trkpt lat="36.54204438440501689910888671875" lon="-5.8710355125367641448974609375">
        <ele>54.59999847412109375</ele>
        <time>2019-11-04T08:13:28.000Z</time>
      </trkpt>
      <trkpt lat="36.5419376827776432037353515625" lon="-5.87102185003459453582763671875">
        <ele>54.59999847412109375</ele>
        <time>2019-11-04T08:13:30.000Z</time>
      </trkpt>
      <trkpt lat="36.5417195856571197509765625" lon="-5.87101665325462818145751953125">
        <ele>54.799999237060546875</ele>
        <time>2019-11-04T08:13:34.000Z</time>
      </trkpt>
      <trkpt lat="36.54149956069886684417724609375" lon="-5.871012546122074127197265625">
        <ele>54.40000152587890625</ele>
        <time>2019-11-04T08:13:38.000Z</time>
      </trkpt>
      <trkpt lat="36.54127375222742557525634765625" lon="-5.8710274659097194671630859375">
        <ele>55</ele>
        <time>2019-11-04T08:13:42.000Z</time>
      </trkpt>
      <trkpt lat="36.54105917550623416900634765625" lon="-5.8710227720439434051513671875">
        <ele>55.200000762939453125</ele>
        <time>2019-11-04T08:13:46.000Z</time>
      </trkpt>
      <trkpt lat="36.54085432179272174835205078125" lon="-5.87102084420621395111083984375">
        <ele>56</ele>
        <time>2019-11-04T08:13:50.000Z</time>
      </trkpt>
      <trkpt lat="36.540661118924617767333984375" lon="-5.871020592749118804931640625">
        <ele>56</ele>
        <time>2019-11-04T08:13:54.000Z</time>
      </trkpt>
      <trkpt lat="36.54045986942946910858154296875" lon="-5.87102453224360942840576171875">
        <ele>56.59999847412109375</ele>
        <time>2019-11-04T08:13:58.000Z</time>
      </trkpt>
      <trkpt lat="36.54025920666754245758056640625" lon="-5.8710415475070476531982421875">
        <ele>56.799999237060546875</ele>
        <time>2019-11-04T08:14:02.000Z</time>
      </trkpt>
      <trkpt lat="36.54005820862948894500732421875" lon="-5.8710502646863460540771484375">
        <ele>57.59999847412109375</ele>
        <time>2019-11-04T08:14:06.000Z</time>
      </trkpt>
      <trkpt lat="36.539869196712970733642578125" lon="-5.87106258608400821685791015625">
        <ele>57.799999237060546875</ele>
        <time>2019-11-04T08:14:10.000Z</time>
      </trkpt>
      <trkpt lat="36.53968521393835544586181640625" lon="-5.87107951752841472625732421875">
        <ele>57.59999847412109375</ele>
        <time>2019-11-04T08:14:14.000Z</time>
      </trkpt>
      <trkpt lat="36.539505422115325927734375" lon="-5.87109644897282123565673828125">
        <ele>57.799999237060546875</ele>
        <time>2019-11-04T08:14:18.000Z</time>
      </trkpt>
      <trkpt lat="36.53929696418344974517822265625" lon="-5.87111539207398891448974609375">
        <ele>58</ele>
        <time>2019-11-04T08:14:23.000Z</time>
      </trkpt>
      <trkpt lat="36.5391153283417224884033203125" lon="-5.871132574975490570068359375">
        <ele>58.200000762939453125</ele>
        <time>2019-11-04T08:14:28.000Z</time>
      </trkpt>
      <trkpt lat="36.5389309264719486236572265625" lon="-5.87114640511572360992431640625">
        <ele>58.40000152587890625</ele>
        <time>2019-11-04T08:14:34.000Z</time>
      </trkpt>
      <trkpt lat="36.5387314371764659881591796875" lon="-5.87116149254143238067626953125">
        <ele>60.40000152587890625</ele>
        <time>2019-11-04T08:14:42.000Z</time>
      </trkpt>
      <trkpt lat="36.53857268393039703369140625" lon="-5.87118186056613922119140625">
        <ele>61.799999237060546875</ele>
        <time>2019-11-04T08:14:49.000Z</time>
      </trkpt>
      <trkpt lat="36.538368500769138336181640625" lon="-5.8711997978389263153076171875">
        <ele>62.799999237060546875</ele>
        <time>2019-11-04T08:14:57.000Z</time>
      </trkpt>
      <trkpt lat="36.538180075585842132568359375" lon="-5.87121781893074512481689453125">
        <ele>62.40000152587890625</ele>
        <time>2019-11-04T08:15:03.000Z</time>
      </trkpt>
      <trkpt lat="36.5379820950329303741455078125" lon="-5.87123324163258075714111328125">
        <ele>62.200000762939453125</ele>
        <time>2019-11-04T08:15:09.000Z</time>
      </trkpt>
      <trkpt lat="36.537776403129100799560546875" lon="-5.871250927448272705078125">
        <ele>62.200000762939453125</ele>
        <time>2019-11-04T08:15:15.000Z</time>
      </trkpt>
      <trkpt lat="36.5375901572406291961669921875" lon="-5.87124547921121120452880859375">
        <ele>62.799999237060546875</ele>
        <time>2019-11-04T08:15:20.000Z</time>
      </trkpt>
      <trkpt lat="36.53740634210407733917236328125" lon="-5.871181525290012359619140625">
        <ele>63.799999237060546875</ele>
        <time>2019-11-04T08:15:26.000Z</time>
      </trkpt>
      <trkpt lat="36.537252031266689300537109375" lon="-5.8710167370736598968505859375">
        <ele>65</ele>
        <time>2019-11-04T08:15:33.000Z</time>
      </trkpt>
      <trkpt lat="36.5371321700513362884521484375" lon="-5.87082889862358570098876953125">
        <ele>66.40000152587890625</ele>
        <time>2019-11-04T08:15:40.000Z</time>
      </trkpt>
      <trkpt lat="36.53703468851745128631591796875" lon="-5.87061013095080852508544921875">
        <ele>67.40000152587890625</ele>
        <time>2019-11-04T08:15:49.000Z</time>
      </trkpt>
      <trkpt lat="36.53696947731077671051025390625" lon="-5.8703773654997348785400390625">
        <ele>67.8000030517578125</ele>
        <time>2019-11-04T08:15:58.000Z</time>
      </trkpt>
      <trkpt lat="36.536908037960529327392578125" lon="-5.87016253732144832611083984375">
        <ele>68.8000030517578125</ele>
        <time>2019-11-04T08:16:06.000Z</time>
      </trkpt>
      <trkpt lat="36.53685464523732662200927734375" lon="-5.8699274249374866485595703125">
        <ele>69.8000030517578125</ele>
        <time>2019-11-04T08:16:14.000Z</time>
      </trkpt>
      <trkpt lat="36.5368035994470119476318359375" lon="-5.86971192620694637298583984375">
        <ele>70.59999847412109375</ele>
        <time>2019-11-04T08:16:21.000Z</time>
      </trkpt>
      <trkpt lat="36.53673470020294189453125" lon="-5.8694779872894287109375">
        <ele>73.40000152587890625</ele>
        <time>2019-11-04T08:16:29.000Z</time>
      </trkpt>
      <trkpt lat="36.5366523899137973785400390625" lon="-5.86925880052149295806884765625">
        <ele>74.59999847412109375</ele>
        <time>2019-11-04T08:16:37.000Z</time>
      </trkpt>
      <trkpt lat="36.53655968606472015380859375" lon="-5.86906065233051776885986328125">
        <ele>78.1999969482421875</ele>
        <time>2019-11-04T08:16:45.000Z</time>
      </trkpt>
      <trkpt lat="36.53642356395721435546875" lon="-5.86889703758060932159423828125">
        <ele>81.40000152587890625</ele>
        <time>2019-11-04T08:16:53.000Z</time>
      </trkpt>
      <trkpt lat="36.53624377213418483734130859375" lon="-5.86880299262702465057373046875">
        <ele>82.8000030517578125</ele>
        <time>2019-11-04T08:17:01.000Z</time>
      </trkpt>
      <trkpt lat="36.53604562394320964813232421875" lon="-5.868754796683788299560546875">
        <ele>84.1999969482421875</ele>
        <time>2019-11-04T08:17:09.000Z</time>
      </trkpt>
      <trkpt lat="36.5358510799705982208251953125" lon="-5.86871330626308917999267578125">
        <ele>85</ele>
        <time>2019-11-04T08:17:17.000Z</time>
      </trkpt>
      <trkpt lat="36.53566475026309490203857421875" lon="-5.86869067512452602386474609375">
        <ele>86.59999847412109375</ele>
        <time>2019-11-04T08:17:24.000Z</time>
      </trkpt>
      <trkpt lat="36.53546811081469058990478515625" lon="-5.86866904981434345245361328125">
        <ele>88</ele>
        <time>2019-11-04T08:17:31.000Z</time>
      </trkpt>
      <trkpt lat="36.53528236784040927886962890625" lon="-5.868679024279117584228515625">
        <ele>89.40000152587890625</ele>
        <time>2019-11-04T08:17:38.000Z</time>
      </trkpt>
      <trkpt lat="36.53508723713457584381103515625" lon="-5.86874532513320446014404296875">
        <ele>89.59999847412109375</ele>
        <time>2019-11-04T08:17:45.000Z</time>
      </trkpt>
      <trkpt lat="36.53489612974226474761962890625" lon="-5.868864096701145172119140625">
        <ele>90.1999969482421875</ele>
        <time>2019-11-04T08:17:52.000Z</time>
      </trkpt>
      <trkpt lat="36.53471826575696468353271484375" lon="-5.86898655630648136138916015625">
        <ele>90.8000030517578125</ele>
        <time>2019-11-04T08:17:58.000Z</time>
      </trkpt>
      <trkpt lat="36.5345518849790096282958984375" lon="-5.86910876445472240447998046875">
        <ele>90.40000152587890625</ele>
        <time>2019-11-04T08:18:04.000Z</time>
      </trkpt>
      <trkpt lat="36.5343892760574817657470703125" lon="-5.86922041140496730804443359375">
        <ele>90</ele>
        <time>2019-11-04T08:18:10.000Z</time>
      </trkpt>
      <trkpt lat="36.53420831076800823211669921875" lon="-5.86934513412415981292724609375">
        <ele>89.8000030517578125</ele>
        <time>2019-11-04T08:18:17.000Z</time>
      </trkpt>
      <trkpt lat="36.5340296924114227294921875" lon="-5.869453847408294677734375">
        <ele>90.8000030517578125</ele>
        <time>2019-11-04T08:18:24.000Z</time>
      </trkpt>
      <trkpt lat="36.53385811485350131988525390625" lon="-5.86955769918859004974365234375">
        <ele>92.1999969482421875</ele>
        <time>2019-11-04T08:18:31.000Z</time>
      </trkpt>
      <trkpt lat="36.53367253951728343963623046875" lon="-5.869652666151523590087890625">
        <ele>93.59999847412109375</ele>
        <time>2019-11-04T08:18:38.000Z</time>
      </trkpt>
      <trkpt lat="36.53347472660243511199951171875" lon="-5.8697582781314849853515625">
        <ele>94</ele>
        <time>2019-11-04T08:18:44.000Z</time>
      </trkpt>
      <trkpt lat="36.53328345157206058502197265625" lon="-5.869861878454685211181640625">
        <ele>93.8000030517578125</ele>
        <time>2019-11-04T08:18:49.000Z</time>
      </trkpt>
      <trkpt lat="36.53311296366155147552490234375" lon="-5.86994779296219348907470703125">
        <ele>93.1999969482421875</ele>
        <time>2019-11-04T08:18:53.000Z</time>
      </trkpt>
      <trkpt lat="36.53292973525822162628173828125" lon="-5.87003597058355808258056640625">
        <ele>92.59999847412109375</ele>
        <time>2019-11-04T08:18:57.000Z</time>
      </trkpt>
      <trkpt lat="36.53274684213101863861083984375" lon="-5.87008659727871417999267578125">
        <ele>92</ele>
        <time>2019-11-04T08:19:01.000Z</time>
      </trkpt>
      <trkpt lat="36.5325569920241832733154296875" lon="-5.8700823225080966949462890625">
        <ele>92</ele>
        <time>2019-11-04T08:19:05.000Z</time>
      </trkpt>
      <trkpt lat="36.53236915357410907745361328125" lon="-5.87000998668372631072998046875">
        <ele>93.40000152587890625</ele>
        <time>2019-11-04T08:19:09.000Z</time>
      </trkpt>
      <trkpt lat="36.532212160527706146240234375" lon="-5.86987688206136226654052734375">
        <ele>94</ele>
        <time>2019-11-04T08:19:13.000Z</time>
      </trkpt>
      <trkpt lat="36.53205650858581066131591796875" lon="-5.86968476884067058563232421875">
        <ele>95</ele>
        <time>2019-11-04T08:19:18.000Z</time>
      </trkpt>
      <trkpt lat="36.53189674951136112213134765625" lon="-5.8695007860660552978515625">
        <ele>94.8000030517578125</ele>
        <time>2019-11-04T08:19:23.000Z</time>
      </trkpt>
      <trkpt lat="36.531738750636577606201171875" lon="-5.86932443082332611083984375">
        <ele>94.8000030517578125</ele>
        <time>2019-11-04T08:19:28.000Z</time>
      </trkpt>
      <trkpt lat="36.53158293105661869049072265625" lon="-5.8691586367785930633544921875">
        <ele>95.59999847412109375</ele>
        <time>2019-11-04T08:19:33.000Z</time>
      </trkpt>
      <trkpt lat="36.5314438752830028533935546875" lon="-5.86900684051215648651123046875">
        <ele>96.59999847412109375</ele>
        <time>2019-11-04T08:19:38.000Z</time>
      </trkpt>
      <trkpt lat="36.53130297549068927764892578125" lon="-5.86886015720665454864501953125">
        <ele>96.8000030517578125</ele>
        <time>2019-11-04T08:19:43.000Z</time>
      </trkpt>
      <trkpt lat="36.53114422224462032318115234375" lon="-5.86869218386709690093994140625">
        <ele>96.8000030517578125</ele>
        <time>2019-11-04T08:19:49.000Z</time>
      </trkpt>
      <trkpt lat="36.53099083341658115386962890625" lon="-5.86853108368813991546630859375">
        <ele>98</ele>
        <time>2019-11-04T08:19:55.000Z</time>
      </trkpt>
      <trkpt lat="36.5308376960456371307373046875" lon="-5.868370570242404937744140625">
        <ele>99</ele>
        <time>2019-11-04T08:20:01.000Z</time>
      </trkpt>
      <trkpt lat="36.530681289732456207275390625" lon="-5.8682025969028472900390625">
        <ele>100.1999969482421875</ele>
        <time>2019-11-04T08:20:07.000Z</time>
      </trkpt>
      <trkpt lat="36.5305275656282901763916015625" lon="-5.868085585534572601318359375">
        <ele>100.8000030517578125</ele>
        <time>2019-11-04T08:20:12.000Z</time>
      </trkpt>
      <trkpt lat="36.5303673036396503448486328125" lon="-5.86797050200402736663818359375">
        <ele>101</ele>
        <time>2019-11-04T08:20:17.000Z</time>
      </trkpt>
      <trkpt lat="36.53019790537655353546142578125" lon="-5.86786958388984203338623046875">
        <ele>102</ele>
        <time>2019-11-04T08:20:22.000Z</time>
      </trkpt>
      <trkpt lat="36.53002875857055187225341796875" lon="-5.86777151562273502349853515625">
        <ele>103.1999969482421875</ele>
        <time>2019-11-04T08:20:27.000Z</time>
      </trkpt>
      <trkpt lat="36.5298402495682239532470703125" lon="-5.867664813995361328125">
        <ele>103</ele>
        <time>2019-11-04T08:20:33.000Z</time>
      </trkpt>
      <trkpt lat="36.52964838780462741851806640625" lon="-5.8675761334598064422607421875">
        <ele>103.1999969482421875</ele>
        <time>2019-11-04T08:20:39.000Z</time>
      </trkpt>
      <trkpt lat="36.52946230955421924591064453125" lon="-5.867478735744953155517578125">
        <ele>103</ele>
        <time>2019-11-04T08:20:45.000Z</time>
      </trkpt>
      <trkpt lat="36.5292753092944622039794921875" lon="-5.86737823672592639923095703125">
        <ele>103.40000152587890625</ele>
        <time>2019-11-04T08:20:51.000Z</time>
      </trkpt>
      <trkpt lat="36.5291016362607479095458984375" lon="-5.8673173002898693084716796875">
        <ele>104.1999969482421875</ele>
        <time>2019-11-04T08:20:56.000Z</time>
      </trkpt>
      <trkpt lat="36.528919748961925506591796875" lon="-5.86724563501775264739990234375">
        <ele>104.59999847412109375</ele>
        <time>2019-11-04T08:21:01.000Z</time>
      </trkpt>
      <trkpt lat="36.5287351794540882110595703125" lon="-5.86717321537435054779052734375">
        <ele>105</ele>
        <time>2019-11-04T08:21:06.000Z</time>
      </trkpt>
      <trkpt lat="36.52853258885443210601806640625" lon="-5.8671121113002300262451171875">
        <ele>105</ele>
        <time>2019-11-04T08:21:12.000Z</time>
      </trkpt>
      <trkpt lat="36.52835757471621036529541015625" lon="-5.86705821566283702850341796875">
        <ele>105</ele>
        <time>2019-11-04T08:21:18.000Z</time>
      </trkpt>
      <trkpt lat="36.52816437184810638427734375" lon="-5.8670051582157611846923828125">
        <ele>104.8000030517578125</ele>
        <time>2019-11-04T08:21:25.000Z</time>
      </trkpt>
      <trkpt lat="36.5279784612357616424560546875" lon="-5.86694128811359405517578125">
        <ele>104.40000152587890625</ele>
        <time>2019-11-04T08:21:32.000Z</time>
      </trkpt>
      <trkpt lat="36.52793294750154018402099609375" lon="-5.8669377677142620086669921875">
        <ele>104.1999969482421875</ele>
        <time>2019-11-04T08:21:36.000Z</time>
      </trkpt>
      <trkpt lat="36.52793026529252529144287109375" lon="-5.86693936027586460113525390625">
        <ele>104.1999969482421875</ele>
        <time>2019-11-04T08:21:38.000Z</time>
      </trkpt>
      <trkpt lat="36.52783311903476715087890625" lon="-5.8669334091246128082275390625">
        <ele>103.8000030517578125</ele>
        <time>2019-11-04T08:23:45.000Z</time>
      </trkpt>
      <trkpt lat="36.527638323605060577392578125" lon="-5.86687163449823856353759765625">
        <ele>102.8000030517578125</ele>
        <time>2019-11-04T08:23:51.000Z</time>
      </trkpt>
      <trkpt lat="36.5274564363062381744384765625" lon="-5.866828970611095428466796875">
        <ele>102.40000152587890625</ele>
        <time>2019-11-04T08:23:55.000Z</time>
      </trkpt>
      <trkpt lat="36.52725317515432834625244140625" lon="-5.8667783439159393310546875">
        <ele>102</ele>
        <time>2019-11-04T08:23:59.000Z</time>
      </trkpt>
      <trkpt lat="36.5270725451409816741943359375" lon="-5.86672746576368808746337890625">
        <ele>103</ele>
        <time>2019-11-04T08:24:03.000Z</time>
      </trkpt>
      <trkpt lat="36.5268723852932453155517578125" lon="-5.86667885072529315948486328125">
        <ele>104.1999969482421875</ele>
        <time>2019-11-04T08:24:08.000Z</time>
      </trkpt>
      <trkpt lat="36.52668806724250316619873046875" lon="-5.86664917878806591033935546875">
        <ele>105.40000152587890625</ele>
        <time>2019-11-04T08:24:13.000Z</time>
      </trkpt>
      <trkpt lat="36.5264931879937648773193359375" lon="-5.866653285920619964599609375">
        <ele>105.59999847412109375</ele>
        <time>2019-11-04T08:24:19.000Z</time>
      </trkpt>
      <trkpt lat="36.52630115859210491180419921875" lon="-5.866683460772037506103515625">
        <ele>105.59999847412109375</ele>
        <time>2019-11-04T08:24:24.000Z</time>
      </trkpt>
      <trkpt lat="36.52611390687525272369384765625" lon="-5.86673165671527385711669921875">
        <ele>105.1999969482421875</ele>
        <time>2019-11-04T08:24:28.000Z</time>
      </trkpt>
      <trkpt lat="36.525887511670589447021484375" lon="-5.8668090216815471649169921875">
        <ele>104.8000030517578125</ele>
        <time>2019-11-04T08:24:32.000Z</time>
      </trkpt>
      <trkpt lat="36.5256704203784465789794921875" lon="-5.86689560674130916595458984375">
        <ele>104.40000152587890625</ele>
        <time>2019-11-04T08:24:36.000Z</time>
      </trkpt>
      <trkpt lat="36.52549297548830509185791015625" lon="-5.86699099279940128326416015625">
        <ele>104.1999969482421875</ele>
        <time>2019-11-04T08:24:42.000Z</time>
      </trkpt>
      <trkpt lat="36.5254819951951503753662109375" lon="-5.8669887296855449676513671875">
        <ele>104.1999969482421875</ele>
        <time>2019-11-04T08:24:43.000Z</time>
      </trkpt>
      <trkpt lat="36.52547688223421573638916015625" lon="-5.86699149571359157562255859375">
        <ele>104.40000152587890625</ele>
        <time>2019-11-04T08:24:45.000Z</time>
      </trkpt>
      <trkpt lat="36.52546917088329792022705078125" lon="-5.8669937588274478912353515625">
        <ele>104.40000152587890625</ele>
        <time>2019-11-04T08:24:47.000Z</time>
      </trkpt>
      <trkpt lat="36.5254037082195281982421875" lon="-5.86700834333896636962890625">
        <ele>104.59999847412109375</ele>
        <time>2019-11-04T08:24:52.000Z</time>
      </trkpt>
      <trkpt lat="36.52523363940417766571044921875" lon="-5.86707212962210178375244140625">
        <ele>105.40000152587890625</ele>
        <time>2019-11-04T08:25:01.000Z</time>
      </trkpt>
      <trkpt lat="36.52522995136678218841552734375" lon="-5.867078416049480438232421875">
        <ele>105.40000152587890625</ele>
        <time>2019-11-04T08:25:04.000Z</time>
      </trkpt>
      <trkpt lat="36.5252855233848094940185546875" lon="-5.86733062751591205596923828125">
        <ele>105</ele>
        <time>2019-11-04T08:28:17.000Z</time>
      </trkpt>
      <trkpt lat="36.525398008525371551513671875" lon="-5.8675037138164043426513671875">
        <ele>104.59999847412109375</ele>
        <time>2019-11-04T08:29:34.000Z</time>
      </trkpt>
      <trkpt lat="36.52539507485926151275634765625" lon="-5.8675084076821804046630859375">
        <ele>104.59999847412109375</ele>
        <time>2019-11-04T08:29:35.000Z</time>
      </trkpt>
      <trkpt lat="36.5253420174121856689453125" lon="-5.86727832444012165069580078125">
        <ele>104.8000030517578125</ele>
        <time>2019-11-04T08:31:04.000Z</time>
      </trkpt>
      <trkpt lat="36.52533640153706073760986328125" lon="-5.86726156063377857208251953125">
        <ele>104.8000030517578125</ele>
        <time>2019-11-04T08:31:07.000Z</time>
      </trkpt>
      <trkpt lat="36.5252816677093505859375" lon="-5.86718863807618618011474609375">
        <ele>105</ele>
        <time>2019-11-04T08:31:48.000Z</time>
      </trkpt>
      <trkpt lat="36.52528812177479267120361328125" lon="-5.86719919927418231964111328125">
        <ele>105</ele>
        <time>2019-11-04T08:31:52.000Z</time>
      </trkpt>
      <trkpt lat="36.5252104215323925018310546875" lon="-5.8674034662544727325439453125">
        <ele>105.1999969482421875</ele>
        <time>2019-11-04T08:39:27.000Z</time>
      </trkpt>
      <trkpt lat="36.525123417377471923828125" lon="-5.86717288009822368621826171875">
        <ele>106.1999969482421875</ele>
        <time>2019-11-04T08:39:36.000Z</time>
      </trkpt>
      <trkpt lat="36.5250850282609462738037109375" lon="-5.86714907549321651458740234375">
        <ele>106.40000152587890625</ele>
        <time>2019-11-04T08:39:43.000Z</time>
      </trkpt>
      <trkpt lat="36.525079496204853057861328125" lon="-5.86714857257902622222900390625">
        <ele>106.40000152587890625</ele>
        <time>2019-11-04T08:39:44.000Z</time>
      </trkpt>
      <trkpt lat="36.52504756115376949310302734375" lon="-5.8670769073069095611572265625">
        <ele>106.8000030517578125</ele>
        <time>2019-11-04T08:40:52.000Z</time>
      </trkpt>
      <trkpt lat="36.52507052756845951080322265625" lon="-5.86715997196733951568603515625">
        <ele>106.59999847412109375</ele>
        <time>2019-11-04T08:41:03.000Z</time>
      </trkpt>
      <trkpt lat="36.52486131526529788970947265625" lon="-5.86728184483945369720458984375">
        <ele>108</ele>
        <time>2019-11-04T08:49:41.000Z</time>
      </trkpt>
      <trkpt lat="36.5247534401714801788330078125" lon="-5.8673290349543094635009765625">
        <ele>108.8000030517578125</ele>
        <time>2019-11-04T08:49:47.000Z</time>
      </trkpt>
      <trkpt lat="36.52457448653876781463623046875" lon="-5.8673924021422863006591796875">
        <ele>110.40000152587890625</ele>
        <time>2019-11-04T08:49:57.000Z</time>
      </trkpt>
      <trkpt lat="36.52439880184829235076904296875" lon="-5.86749156005680561065673828125">
        <ele>112</ele>
        <time>2019-11-04T08:50:07.000Z</time>
      </trkpt>
      <trkpt lat="36.5243464149534702301025390625" lon="-5.86750849150121212005615234375">
        <ele>112.40000152587890625</ele>
        <time>2019-11-04T08:50:10.000Z</time>
      </trkpt>
      <trkpt lat="36.52419445104897022247314453125" lon="-5.867507569491863250732421875">
        <ele>114.1999969482421875</ele>
        <time>2019-11-04T08:50:18.000Z</time>
      </trkpt>
      <trkpt lat="36.52406654320657253265380859375" lon="-5.86745493113994598388671875">
        <ele>115</ele>
        <time>2019-11-04T08:50:25.000Z</time>
      </trkpt>
      <trkpt lat="36.5238931216299533843994140625" lon="-5.8675513230264186859130859375">
        <ele>115.40000152587890625</ele>
        <time>2019-11-04T08:50:33.000Z</time>
      </trkpt>
      <trkpt lat="36.5237003378570079803466796875" lon="-5.86761460639536380767822265625">
        <ele>115.59999847412109375</ele>
        <time>2019-11-04T08:50:41.000Z</time>
      </trkpt>
      <trkpt lat="36.52352490462362766265869140625" lon="-5.8677032031118869781494140625">
        <ele>116</ele>
        <time>2019-11-04T08:50:49.000Z</time>
      </trkpt>
      <trkpt lat="36.52348349802196025848388671875" lon="-5.8677270077168941497802734375">
        <ele>116</ele>
        <time>2019-11-04T08:50:52.000Z</time>
      </trkpt>
      <trkpt lat="36.5234751999378204345703125" lon="-5.86774595081806182861328125">
        <ele>116</ele>
        <time>2019-11-04T08:50:56.000Z</time>
      </trkpt>
      <trkpt lat="36.523272357881069183349609375" lon="-5.86778140626847743988037109375">
        <ele>116.8000030517578125</ele>
        <time>2019-11-04T08:53:36.000Z</time>
      </trkpt>
      <trkpt lat="36.52324855327606201171875" lon="-5.86778894998133182525634765625">
        <ele>116.59999847412109375</ele>
        <time>2019-11-04T08:53:40.000Z</time>
      </trkpt>
      <trkpt lat="36.52318174950778484344482421875" lon="-5.867823064327239990234375">
        <ele>116.40000152587890625</ele>
        <time>2019-11-04T08:53:44.000Z</time>
      </trkpt>
      <trkpt lat="36.52298812754452228546142578125" lon="-5.8678480423986911773681640625">
        <ele>116</ele>
        <time>2019-11-04T08:53:51.000Z</time>
      </trkpt>
      <trkpt lat="36.5227853693068027496337890625" lon="-5.86785147897899150848388671875">
        <ele>115.40000152587890625</ele>
        <time>2019-11-04T08:53:57.000Z</time>
      </trkpt>
      <trkpt lat="36.52259937487542629241943359375" lon="-5.86784879676997661590576171875">
        <ele>115.40000152587890625</ele>
        <time>2019-11-04T08:54:02.000Z</time>
      </trkpt>
      <trkpt lat="36.5224138833582401275634765625" lon="-5.8677984215319156646728515625">
        <ele>115.59999847412109375</ele>
        <time>2019-11-04T08:54:07.000Z</time>
      </trkpt>
      <trkpt lat="36.5222207643091678619384765625" lon="-5.86776078678667545318603515625">
        <ele>115.8000030517578125</ele>
        <time>2019-11-04T08:54:12.000Z</time>
      </trkpt>
      <trkpt lat="36.5220222808420658111572265625" lon="-5.867713429033756256103515625">
        <ele>116.1999969482421875</ele>
        <time>2019-11-04T08:54:17.000Z</time>
      </trkpt>
      <trkpt lat="36.521813906729221343994140625" lon="-5.86767026223242282867431640625">
        <ele>116.8000030517578125</ele>
        <time>2019-11-04T08:54:22.000Z</time>
      </trkpt>
      <trkpt lat="36.52162489481270313262939453125" lon="-5.8676341362297534942626953125">
        <ele>117</ele>
        <time>2019-11-04T08:54:27.000Z</time>
      </trkpt>
      <trkpt lat="36.52143764309585094451904296875" lon="-5.86758158169686794281005859375">
        <ele>118</ele>
        <time>2019-11-04T08:54:32.000Z</time>
      </trkpt>
      <trkpt lat="36.521241255104541778564453125" lon="-5.86753799580037593841552734375">
        <ele>118.1999969482421875</ele>
        <time>2019-11-04T08:54:38.000Z</time>
      </trkpt>
      <trkpt lat="36.52105358429253101348876953125" lon="-5.86751016788184642791748046875">
        <ele>118.59999847412109375</ele>
        <time>2019-11-04T08:54:44.000Z</time>
      </trkpt>
      <trkpt lat="36.520867086946964263916015625" lon="-5.86750044487416744232177734375">
        <ele>119</ele>
        <time>2019-11-04T08:54:50.000Z</time>
      </trkpt>
      <trkpt lat="36.5206704474985599517822265625" lon="-5.86752860806882381439208984375">
        <ele>119</ele>
        <time>2019-11-04T08:54:56.000Z</time>
      </trkpt>
      <trkpt lat="36.520486883819103240966796875" lon="-5.867617540061473846435546875">
        <ele>119.1999969482421875</ele>
        <time>2019-11-04T08:55:02.000Z</time>
      </trkpt>
      <trkpt lat="36.52029217220842838287353515625" lon="-5.8677233196794986724853515625">
        <ele>119.59999847412109375</ele>
        <time>2019-11-04T08:55:08.000Z</time>
      </trkpt>
      <trkpt lat="36.5201068483293056488037109375" lon="-5.86782348342239856719970703125">
        <ele>119.8000030517578125</ele>
        <time>2019-11-04T08:55:14.000Z</time>
      </trkpt>
      <trkpt lat="36.51993543840944766998291015625" lon="-5.86791903711855411529541015625">
        <ele>120.40000152587890625</ele>
        <time>2019-11-04T08:55:20.000Z</time>
      </trkpt>
      <trkpt lat="36.519753970205783843994140625" lon="-5.8680197037756443023681640625">
        <ele>121.40000152587890625</ele>
        <time>2019-11-04T08:55:26.000Z</time>
      </trkpt>
      <trkpt lat="36.51958800852298736572265625" lon="-5.868108384311199188232421875">
        <ele>121.1999969482421875</ele>
        <time>2019-11-04T08:55:31.000Z</time>
      </trkpt>
      <trkpt lat="36.5194862522184848785400390625" lon="-5.86816580034792423248291015625">
        <ele>121</ele>
        <time>2019-11-04T08:55:36.000Z</time>
      </trkpt>
      <trkpt lat="36.519489772617816925048828125" lon="-5.86815632879734039306640625">
        <ele>121</ele>
        <time>2019-11-04T08:55:39.000Z</time>
      </trkpt>
      <trkpt lat="36.51935189031064510345458984375" lon="-5.86825112812221050262451171875">
        <ele>119.40000152587890625</ele>
        <time>2019-11-04T08:56:39.000Z</time>
      </trkpt>
      <trkpt lat="36.519164554774761199951171875" lon="-5.8683288283646106719970703125">
        <ele>118</ele>
        <time>2019-11-04T08:56:43.000Z</time>
      </trkpt>
      <trkpt lat="36.51896414346992969512939453125" lon="-5.86842295713722705841064453125">
        <ele>116.1999969482421875</ele>
        <time>2019-11-04T08:56:46.000Z</time>
      </trkpt>
      <trkpt lat="36.51881360448896884918212890625" lon="-5.86853762157261371612548828125">
        <ele>114.59999847412109375</ele>
        <time>2019-11-04T08:56:48.000Z</time>
      </trkpt>
      <trkpt lat="36.51866189204156398773193359375" lon="-5.86871691048145294189453125">
        <ele>112.40000152587890625</ele>
        <time>2019-11-04T08:56:50.000Z</time>
      </trkpt>
      <trkpt lat="36.51853599585592746734619140625" lon="-5.86895839311182498931884765625">
        <ele>109</ele>
        <time>2019-11-04T08:56:52.000Z</time>
      </trkpt>
      <trkpt lat="36.5184683538973331451416015625" lon="-5.8692531846463680267333984375">
        <ele>105.8000030517578125</ele>
        <time>2019-11-04T08:56:54.000Z</time>
      </trkpt>
      <trkpt lat="36.51843130588531494140625" lon="-5.869568176567554473876953125">
        <ele>104</ele>
        <time>2019-11-04T08:56:56.000Z</time>
      </trkpt>
      <trkpt lat="36.51838445104658603668212890625" lon="-5.86988124065101146697998046875">
        <ele>102</ele>
        <time>2019-11-04T08:56:58.000Z</time>
      </trkpt>
      <trkpt lat="36.5183362551033496856689453125" lon="-5.87018835358321666717529296875">
        <ele>99.40000152587890625</ele>
        <time>2019-11-04T08:57:00.000Z</time>
      </trkpt>
      <trkpt lat="36.518284119665622711181640625" lon="-5.87049513123929500579833984375">
        <ele>96.59999847412109375</ele>
        <time>2019-11-04T08:57:02.000Z</time>
      </trkpt>
      <trkpt lat="36.51823793537914752960205078125" lon="-5.87080299854278564453125">
        <ele>94.8000030517578125</ele>
        <time>2019-11-04T08:57:04.000Z</time>
      </trkpt>
      <trkpt lat="36.5181894041597843170166015625" lon="-5.87111053057014942169189453125">
        <ele>93.8000030517578125</ele>
        <time>2019-11-04T08:57:06.000Z</time>
      </trkpt>
      <trkpt lat="36.51813534088432788848876953125" lon="-5.8714091777801513671875">
        <ele>92</ele>
        <time>2019-11-04T08:57:08.000Z</time>
      </trkpt>
      <trkpt lat="36.51808655820786952972412109375" lon="-5.8717070706188678741455078125">
        <ele>90.59999847412109375</ele>
        <time>2019-11-04T08:57:10.000Z</time>
      </trkpt>
      <trkpt lat="36.5180160664021968841552734375" lon="-5.87199381552636623382568359375">
        <ele>88.59999847412109375</ele>
        <time>2019-11-04T08:57:12.000Z</time>
      </trkpt>
      <trkpt lat="36.51788271032273769378662109375" lon="-5.87223865091800689697265625">
        <ele>86.40000152587890625</ele>
        <time>2019-11-04T08:57:14.000Z</time>
      </trkpt>
      <trkpt lat="36.51767131872475147247314453125" lon="-5.8724014274775981903076171875">
        <ele>83.8000030517578125</ele>
        <time>2019-11-04T08:57:16.000Z</time>
      </trkpt>
      <trkpt lat="36.517421789467334747314453125" lon="-5.8725067041814327239990234375">
        <ele>81.40000152587890625</ele>
        <time>2019-11-04T08:57:18.000Z</time>
      </trkpt>
      <trkpt lat="36.5172925405204296112060546875" lon="-5.87255070917308330535888671875">
        <ele>80.40000152587890625</ele>
        <time>2019-11-04T08:57:19.000Z</time>
      </trkpt>
      <trkpt lat="36.51703110896050930023193359375" lon="-5.87264022789895534515380859375">
        <ele>77.8000030517578125</ele>
        <time>2019-11-04T08:57:21.000Z</time>
      </trkpt>
      <trkpt lat="36.51677009649574756622314453125" lon="-5.87274215184152126312255859375">
        <ele>75.8000030517578125</ele>
        <time>2019-11-04T08:57:23.000Z</time>
      </trkpt>
      <trkpt lat="36.5165173821151256561279296875" lon="-5.87288347072899341583251953125">
        <ele>73.8000030517578125</ele>
        <time>2019-11-04T08:57:25.000Z</time>
      </trkpt>
      <trkpt lat="36.5162909030914306640625" lon="-5.8730761706829071044921875">
        <ele>72.1999969482421875</ele>
        <time>2019-11-04T08:57:27.000Z</time>
      </trkpt>
      <trkpt lat="36.51609786786139011383056640625" lon="-5.87329988367855548858642578125">
        <ele>70.8000030517578125</ele>
        <time>2019-11-04T08:57:29.000Z</time>
      </trkpt>
      <trkpt lat="36.51601220481097698211669921875" lon="-5.8734206669032573699951171875">
        <ele>70.1999969482421875</ele>
        <time>2019-11-04T08:57:30.000Z</time>
      </trkpt>
      <trkpt lat="36.5158416330814361572265625" lon="-5.87365477345883846282958984375">
        <ele>69</ele>
        <time>2019-11-04T08:57:32.000Z</time>
      </trkpt>
      <trkpt lat="36.51567458175122737884521484375" lon="-5.87387957610189914703369140625">
        <ele>67.8000030517578125</ele>
        <time>2019-11-04T08:57:34.000Z</time>
      </trkpt>
      <trkpt lat="36.51551348157227039337158203125" lon="-5.8740989305078983306884765625">
        <ele>67</ele>
        <time>2019-11-04T08:57:36.000Z</time>
      </trkpt>
      <trkpt lat="36.5153516270220279693603515625" lon="-5.8743171952664852142333984375">
        <ele>67</ele>
        <time>2019-11-04T08:57:38.000Z</time>
      </trkpt>
      <trkpt lat="36.5151963941752910614013671875" lon="-5.874536968767642974853515625">
        <ele>66.59999847412109375</ele>
        <time>2019-11-04T08:57:40.000Z</time>
      </trkpt>
      <trkpt lat="36.51503806002438068389892578125" lon="-5.8747552335262298583984375">
        <ele>65.40000152587890625</ele>
        <time>2019-11-04T08:57:42.000Z</time>
      </trkpt>
      <trkpt lat="36.51488215662539005279541015625" lon="-5.8749649487435817718505859375">
        <ele>64.59999847412109375</ele>
        <time>2019-11-04T08:57:44.000Z</time>
      </trkpt>
      <trkpt lat="36.514729522168636322021484375" lon="-5.87516787461936473846435546875">
        <ele>63.799999237060546875</ele>
        <time>2019-11-04T08:57:46.000Z</time>
      </trkpt>
      <trkpt lat="36.51458032429218292236328125" lon="-5.87536099366843700408935546875">
        <ele>63</ele>
        <time>2019-11-04T08:57:48.000Z</time>
      </trkpt>
      <trkpt lat="36.51443288661539554595947265625" lon="-5.875546149909496307373046875">
        <ele>62.40000152587890625</ele>
        <time>2019-11-04T08:57:50.000Z</time>
      </trkpt>
      <trkpt lat="36.51429374702274799346923828125" lon="-5.8757250197231769561767578125">
        <ele>61.59999847412109375</ele>
        <time>2019-11-04T08:57:52.000Z</time>
      </trkpt>
      <trkpt lat="36.5141613967716693878173828125" lon="-5.87590028531849384307861328125">
        <ele>60.200000762939453125</ele>
        <time>2019-11-04T08:57:54.000Z</time>
      </trkpt>
      <trkpt lat="36.514035165309906005859375" lon="-5.87606540881097316741943359375">
        <ele>59</ele>
        <time>2019-11-04T08:57:56.000Z</time>
      </trkpt>
      <trkpt lat="36.51386509649455547332763671875" lon="-5.87630697526037693023681640625">
        <ele>58</ele>
        <time>2019-11-04T08:57:59.000Z</time>
      </trkpt>
      <trkpt lat="36.51369385421276092529296875" lon="-5.8765380643308162689208984375">
        <ele>58</ele>
        <time>2019-11-04T08:58:02.000Z</time>
      </trkpt>
      <trkpt lat="36.5135287307202816009521484375" lon="-5.87676077149808406829833984375">
        <ele>58.40000152587890625</ele>
        <time>2019-11-04T08:58:05.000Z</time>
      </trkpt>
      <trkpt lat="36.5133701451122760772705078125" lon="-5.87697467766702175140380859375">
        <ele>58.799999237060546875</ele>
        <time>2019-11-04T08:58:08.000Z</time>
      </trkpt>
      <trkpt lat="36.51322287507355213165283203125" lon="-5.87716997601091861724853515625">
        <ele>59</ele>
        <time>2019-11-04T08:58:11.000Z</time>
      </trkpt>
      <trkpt lat="36.51309010572731494903564453125" lon="-5.87734549306333065032958984375">
        <ele>59.200000762939453125</ele>
        <time>2019-11-04T08:58:14.000Z</time>
      </trkpt>
      <trkpt lat="36.5129302628338336944580078125" lon="-5.87753023020923137664794921875">
        <ele>59.200000762939453125</ele>
        <time>2019-11-04T08:58:18.000Z</time>
      </trkpt>
      <trkpt lat="36.51277410797774791717529296875" lon="-5.87771446444094181060791015625">
        <ele>59.40000152587890625</ele>
        <time>2019-11-04T08:58:22.000Z</time>
      </trkpt>
      <trkpt lat="36.51263379491865634918212890625" lon="-5.87788998149335384368896484375">
        <ele>59.59999847412109375</ele>
        <time>2019-11-04T08:58:26.000Z</time>
      </trkpt>
      <trkpt lat="36.51250295341014862060546875" lon="-5.87804940529167652130126953125">
        <ele>60.200000762939453125</ele>
        <time>2019-11-04T08:58:30.000Z</time>
      </trkpt>
      <trkpt lat="36.5123549290001392364501953125" lon="-5.87822609581053256988525390625">
        <ele>61</ele>
        <time>2019-11-04T08:58:35.000Z</time>
      </trkpt>
      <trkpt lat="36.51221637614071369171142578125" lon="-5.8783938176929950714111328125">
        <ele>61.59999847412109375</ele>
        <time>2019-11-04T08:58:40.000Z</time>
      </trkpt>
      <trkpt lat="36.51206499896943569183349609375" lon="-5.87858165614306926727294921875">
        <ele>61.799999237060546875</ele>
        <time>2019-11-04T08:58:45.000Z</time>
      </trkpt>
      <trkpt lat="36.51193088851869106292724609375" lon="-5.87875968776643276214599609375">
        <ele>61.799999237060546875</ele>
        <time>2019-11-04T08:58:49.000Z</time>
      </trkpt>
      <trkpt lat="36.5117749013006687164306640625" lon="-5.8789730072021484375">
        <ele>59.59999847412109375</ele>
        <time>2019-11-04T08:58:53.000Z</time>
      </trkpt>
      <trkpt lat="36.51164422743022441864013671875" lon="-5.87914693169295787811279296875">
        <ele>58.40000152587890625</ele>
        <time>2019-11-04T08:58:56.000Z</time>
      </trkpt>
      <trkpt lat="36.5115039981901645660400390625" lon="-5.8793302439153194427490234375">
        <ele>57.799999237060546875</ele>
        <time>2019-11-04T08:58:59.000Z</time>
      </trkpt>
      <trkpt lat="36.5113581530749797821044921875" lon="-5.879521854221820831298828125">
        <ele>56.799999237060546875</ele>
        <time>2019-11-04T08:59:02.000Z</time>
      </trkpt>
      <trkpt lat="36.51120065711438655853271484375" lon="-5.8797065913677215576171875">
        <ele>56.40000152587890625</ele>
        <time>2019-11-04T08:59:05.000Z</time>
      </trkpt>
      <trkpt lat="36.51102061383426189422607421875" lon="-5.87987414561212062835693359375">
        <ele>55.799999237060546875</ele>
        <time>2019-11-04T08:59:08.000Z</time>
      </trkpt>
      <trkpt lat="36.51083017699420452117919921875" lon="-5.88000473566353321075439453125">
        <ele>55.59999847412109375</ele>
        <time>2019-11-04T08:59:11.000Z</time>
      </trkpt>
      <trkpt lat="36.51065952144563198089599609375" lon="-5.88008888997137546539306640625">
        <ele>57.200000762939453125</ele>
        <time>2019-11-04T08:59:14.000Z</time>
      </trkpt>
      <trkpt lat="36.51050998829305171966552734375" lon="-5.88013834320008754730224609375">
        <ele>58.799999237060546875</ele>
        <time>2019-11-04T08:59:17.000Z</time>
      </trkpt>
      <trkpt lat="36.51031854562461376190185546875" lon="-5.88018075563013553619384765625">
        <ele>61.200000762939453125</ele>
        <time>2019-11-04T08:59:22.000Z</time>
      </trkpt>
      <trkpt lat="36.51010371744632720947265625" lon="-5.88019181974232196807861328125">
        <ele>63.59999847412109375</ele>
        <time>2019-11-04T08:59:28.000Z</time>
      </trkpt>
      <trkpt lat="36.5099114365875720977783203125" lon="-5.88020204566419124603271484375">
        <ele>65</ele>
        <time>2019-11-04T08:59:33.000Z</time>
      </trkpt>
      <trkpt lat="36.509706079959869384765625" lon="-5.8802086673676967620849609375">
        <ele>66</ele>
        <time>2019-11-04T08:59:38.000Z</time>
      </trkpt>
      <trkpt lat="36.5095070935785770416259765625" lon="-5.880216546356678009033203125">
        <ele>63.59999847412109375</ele>
        <time>2019-11-04T08:59:42.000Z</time>
      </trkpt>
      <trkpt lat="36.50931556709110736846923828125" lon="-5.88022786192595958709716796875">
        <ele>60.59999847412109375</ele>
        <time>2019-11-04T08:59:45.000Z</time>
      </trkpt>
      <trkpt lat="36.5090675465762615203857421875" lon="-5.88025669567286968231201171875">
        <ele>57.40000152587890625</ele>
        <time>2019-11-04T08:59:48.000Z</time>
      </trkpt>
      <trkpt lat="36.50887199677526950836181640625" lon="-5.88027848862111568450927734375">
        <ele>55.200000762939453125</ele>
        <time>2019-11-04T08:59:50.000Z</time>
      </trkpt>
      <trkpt lat="36.50866060517728328704833984375" lon="-5.880299024283885955810546875">
        <ele>53</ele>
        <time>2019-11-04T08:59:52.000Z</time>
      </trkpt>
      <trkpt lat="36.5084385685622692108154296875" lon="-5.8803234994411468505859375">
        <ele>52</ele>
        <time>2019-11-04T08:59:54.000Z</time>
      </trkpt>
      <trkpt lat="36.5082065574824810028076171875" lon="-5.88035694323480129241943359375">
        <ele>50.59999847412109375</ele>
        <time>2019-11-04T08:59:56.000Z</time>
      </trkpt>
      <trkpt lat="36.5079879574477672576904296875" lon="-5.8803856931626796722412109375">
        <ele>50.200000762939453125</ele>
        <time>2019-11-04T08:59:58.000Z</time>
      </trkpt>
      <trkpt lat="36.507785283029079437255859375" lon="-5.880403630435466766357421875">
        <ele>50.799999237060546875</ele>
        <time>2019-11-04T09:00:00.000Z</time>
      </trkpt>
      <trkpt lat="36.50759073905646800994873046875" lon="-5.88042533956468105316162109375">
        <ele>51.40000152587890625</ele>
        <time>2019-11-04T09:00:02.000Z</time>
      </trkpt>
      <trkpt lat="36.507329978048801422119140625" lon="-5.88045299984514713287353515625">
        <ele>52.200000762939453125</ele>
        <time>2019-11-04T09:00:05.000Z</time>
      </trkpt>
      <trkpt lat="36.5070991404354572296142578125" lon="-5.8804832585155963897705078125">
        <ele>52.59999847412109375</ele>
        <time>2019-11-04T09:00:08.000Z</time>
      </trkpt>
      <trkpt lat="36.50689353235065937042236328125" lon="-5.88050597347319126129150390625">
        <ele>52.40000152587890625</ele>
        <time>2019-11-04T09:00:11.000Z</time>
      </trkpt>
      <trkpt lat="36.50670276023447513580322265625" lon="-5.880528353154659271240234375">
        <ele>52</ele>
        <time>2019-11-04T09:00:14.000Z</time>
      </trkpt>
      <trkpt lat="36.50647376663982868194580078125" lon="-5.880558192729949951171875">
        <ele>51.59999847412109375</ele>
        <time>2019-11-04T09:00:18.000Z</time>
      </trkpt>
      <trkpt lat="36.5062703378498554229736328125" lon="-5.880593396723270416259765625">
        <ele>53</ele>
        <time>2019-11-04T09:00:22.000Z</time>
      </trkpt>
      <trkpt lat="36.50607110001146793365478515625" lon="-5.88064393959939479827880859375">
        <ele>55.200000762939453125</ele>
        <time>2019-11-04T09:00:27.000Z</time>
      </trkpt>
      <trkpt lat="36.506010331213474273681640625" lon="-5.88067461736500263214111328125">
        <ele>55.799999237060546875</ele>
        <time>2019-11-04T09:00:29.000Z</time>
      </trkpt>
      <trkpt lat="36.505820564925670623779296875" lon="-5.88079967536032199859619140625">
        <ele>57.40000152587890625</ele>
        <time>2019-11-04T09:00:35.000Z</time>
      </trkpt>
      <trkpt lat="36.5056581236422061920166015625" lon="-5.88094484992325305938720703125">
        <ele>57.40000152587890625</ele>
        <time>2019-11-04T09:00:40.000Z</time>
      </trkpt>
      <trkpt lat="36.5054911561310291290283203125" lon="-5.88111751712858676910400390625">
        <ele>57.59999847412109375</ele>
        <time>2019-11-04T09:00:45.000Z</time>
      </trkpt>
      <trkpt lat="36.5053473226726055145263671875" lon="-5.881265290081501007080078125">
        <ele>58</ele>
        <time>2019-11-04T09:00:49.000Z</time>
      </trkpt>
      <trkpt lat="36.505205668509006500244140625" lon="-5.88141406886279582977294921875">
        <ele>58</ele>
        <time>2019-11-04T09:00:53.000Z</time>
      </trkpt>
      <trkpt lat="36.50506527163088321685791015625" lon="-5.88156259618699550628662109375">
        <ele>58</ele>
        <time>2019-11-04T09:00:57.000Z</time>
      </trkpt>
      <trkpt lat="36.50492143817245960235595703125" lon="-5.88170860894024372100830078125">
        <ele>58.200000762939453125</ele>
        <time>2019-11-04T09:01:01.000Z</time>
      </trkpt>
      <trkpt lat="36.50476754643023014068603515625" lon="-5.8818625845015048980712890625">
        <ele>58.59999847412109375</ele>
        <time>2019-11-04T09:01:05.000Z</time>
      </trkpt>
      <trkpt lat="36.504605524241924285888671875" lon="-5.88203818537294864654541015625">
        <ele>57.59999847412109375</ele>
        <time>2019-11-04T09:01:09.000Z</time>
      </trkpt>
      <trkpt lat="36.50443009100854396820068359375" lon="-5.88222191669046878814697265625">
        <ele>56.40000152587890625</ele>
        <time>2019-11-04T09:01:13.000Z</time>
      </trkpt>
      <trkpt lat="36.50425423868000507354736328125" lon="-5.8824047259986400604248046875">
        <ele>55.40000152587890625</ele>
        <time>2019-11-04T09:01:17.000Z</time>
      </trkpt>
      <trkpt lat="36.50407922454178333282470703125" lon="-5.8825968392193317413330078125">
        <ele>54.59999847412109375</ele>
        <time>2019-11-04T09:01:21.000Z</time>
      </trkpt>
      <trkpt lat="36.50389465503394603729248046875" lon="-5.88278719224035739898681640625">
        <ele>54</ele>
        <time>2019-11-04T09:01:25.000Z</time>
      </trkpt>
      <trkpt lat="36.50373749434947967529296875" lon="-5.88294644840061664581298828125">
        <ele>53.200000762939453125</ele>
        <time>2019-11-04T09:01:28.000Z</time>
      </trkpt>
      <trkpt lat="36.503570191562175750732421875" lon="-5.88311366736888885498046875">
        <ele>52</ele>
        <time>2019-11-04T09:01:31.000Z</time>
      </trkpt>
      <trkpt lat="36.50339140556752681732177734375" lon="-5.88329966180026531219482421875">
        <ele>50.799999237060546875</ele>
        <time>2019-11-04T09:01:34.000Z</time>
      </trkpt>
      <trkpt lat="36.50320499204099178314208984375" lon="-5.88348825462162494659423828125">
        <ele>49.59999847412109375</ele>
        <time>2019-11-04T09:01:37.000Z</time>
      </trkpt>
      <trkpt lat="36.5030134655535221099853515625" lon="-5.88368388824164867401123046875">
        <ele>48.799999237060546875</ele>
        <time>2019-11-04T09:01:40.000Z</time>
      </trkpt>
      <trkpt lat="36.502816490828990936279296875" lon="-5.88387566618621349334716796875">
        <ele>48.200000762939453125</ele>
        <time>2019-11-04T09:01:43.000Z</time>
      </trkpt>
      <trkpt lat="36.50262446142733097076416015625" lon="-5.8840402029454708099365234375">
        <ele>47.40000152587890625</ele>
        <time>2019-11-04T09:01:46.000Z</time>
      </trkpt>
      <trkpt lat="36.5024332702159881591796875" lon="-5.88417892344295978546142578125">
        <ele>46.799999237060546875</ele>
        <time>2019-11-04T09:01:49.000Z</time>
      </trkpt>
      <trkpt lat="36.5022463537752628326416015625" lon="-5.88430666364729404449462890625">
        <ele>46</ele>
        <time>2019-11-04T09:01:52.000Z</time>
      </trkpt>
      <trkpt lat="36.502066813409328460693359375" lon="-5.884419567883014678955078125">
        <ele>46.59999847412109375</ele>
        <time>2019-11-04T09:01:55.000Z</time>
      </trkpt>
      <trkpt lat="36.50189808569848537445068359375" lon="-5.8845260180532932281494140625">
        <ele>47.40000152587890625</ele>
        <time>2019-11-04T09:01:58.000Z</time>
      </trkpt>
      <trkpt lat="36.5017303638160228729248046875" lon="-5.88462417013943195343017578125">
        <ele>48.59999847412109375</ele>
        <time>2019-11-04T09:02:01.000Z</time>
      </trkpt>
      <trkpt lat="36.50151385925710201263427734375" lon="-5.8847409300506114959716796875">
        <ele>49.59999847412109375</ele>
        <time>2019-11-04T09:02:05.000Z</time>
      </trkpt>
      <trkpt lat="36.50131001137197017669677734375" lon="-5.88485467247664928436279296875">
        <ele>50.200000762939453125</ele>
        <time>2019-11-04T09:02:09.000Z</time>
      </trkpt>
      <trkpt lat="36.5011171437799930572509765625" lon="-5.88495978154242038726806640625">
        <ele>50.59999847412109375</ele>
        <time>2019-11-04T09:02:13.000Z</time>
      </trkpt>
      <trkpt lat="36.50093886069953441619873046875" lon="-5.88505902327597141265869140625">
        <ele>50.799999237060546875</ele>
        <time>2019-11-04T09:02:17.000Z</time>
      </trkpt>
      <trkpt lat="36.500766612589359283447265625" lon="-5.8851580135524272918701171875">
        <ele>50.799999237060546875</ele>
        <time>2019-11-04T09:02:21.000Z</time>
      </trkpt>
      <trkpt lat="36.5005967952311038970947265625" lon="-5.8852565847337245941162109375">
        <ele>50.200000762939453125</ele>
        <time>2019-11-04T09:02:25.000Z</time>
      </trkpt>
      <trkpt lat="36.50052010081708431243896484375" lon="-5.88529053144156932830810546875">
        <ele>50.200000762939453125</ele>
        <time>2019-11-04T09:02:27.000Z</time>
      </trkpt>
      <trkpt lat="36.5003426559269428253173828125" lon="-5.88539488613605499267578125">
        <ele>50.799999237060546875</ele>
        <time>2019-11-04T09:02:32.000Z</time>
      </trkpt>
      <trkpt lat="36.5001723356544971466064453125" lon="-5.8855033479630947113037109375">
        <ele>53</ele>
        <time>2019-11-04T09:02:38.000Z</time>
      </trkpt>
      <trkpt lat="36.50001249276101589202880859375" lon="-5.885597728192806243896484375">
        <ele>55.59999847412109375</ele>
        <time>2019-11-04T09:02:45.000Z</time>
      </trkpt>
      <trkpt lat="36.49982876144349575042724609375" lon="-5.885696299374103546142578125">
        <ele>57.200000762939453125</ele>
        <time>2019-11-04T09:02:54.000Z</time>
      </trkpt>
      <trkpt lat="36.49974209256470203399658203125" lon="-5.8857444114983081817626953125">
        <ele>57.59999847412109375</ele>
        <time>2019-11-04T09:02:58.000Z</time>
      </trkpt>
      <trkpt lat="36.49956288747489452362060546875" lon="-5.8858327567577362060546875">
        <ele>58.59999847412109375</ele>
        <time>2019-11-04T09:03:07.000Z</time>
      </trkpt>
      <trkpt lat="36.49938334710896015167236328125" lon="-5.885933004319667816162109375">
        <ele>59.40000152587890625</ele>
        <time>2019-11-04T09:03:16.000Z</time>
      </trkpt>
      <trkpt lat="36.4992275275290012359619140625" lon="-5.88606409728527069091796875">
        <ele>61</ele>
        <time>2019-11-04T09:03:24.000Z</time>
      </trkpt>
      <trkpt lat="36.49909115396440029144287109375" lon="-5.8862228505313396453857421875">
        <ele>62.799999237060546875</ele>
        <time>2019-11-04T09:03:32.000Z</time>
      </trkpt>
      <trkpt lat="36.49897229857742786407470703125" lon="-5.886425189673900604248046875">
        <ele>63.40000152587890625</ele>
        <time>2019-11-04T09:03:39.000Z</time>
      </trkpt>
      <trkpt lat="36.4988781698048114776611328125" lon="-5.88662107475101947784423828125">
        <ele>64</ele>
        <time>2019-11-04T09:03:44.000Z</time>
      </trkpt>
      <trkpt lat="36.49878186173737049102783203125" lon="-5.8868364058434963226318359375">
        <ele>63.799999237060546875</ele>
        <time>2019-11-04T09:03:49.000Z</time>
      </trkpt>
      <trkpt lat="36.49869603104889392852783203125" lon="-5.8870429359376430511474609375">
        <ele>63</ele>
        <time>2019-11-04T09:03:54.000Z</time>
      </trkpt>
      <trkpt lat="36.49860969744622707366943359375" lon="-5.88726262561976909637451171875">
        <ele>62.200000762939453125</ele>
        <time>2019-11-04T09:03:59.000Z</time>
      </trkpt>
      <trkpt lat="36.49851255118846893310546875" lon="-5.8875118196010589599609375">
        <ele>61.59999847412109375</ele>
        <time>2019-11-04T09:04:04.000Z</time>
      </trkpt>
      <trkpt lat="36.498418338596820831298828125" lon="-5.88774994947016239166259765625">
        <ele>60.799999237060546875</ele>
        <time>2019-11-04T09:04:08.000Z</time>
      </trkpt>
      <trkpt lat="36.4983212761580944061279296875" lon="-5.88798665441572666168212890625">
        <ele>60</ele>
        <time>2019-11-04T09:04:12.000Z</time>
      </trkpt>
      <trkpt lat="36.498215496540069580078125" lon="-5.88822537101805210113525390625">
        <ele>59.799999237060546875</ele>
        <time>2019-11-04T09:04:16.000Z</time>
      </trkpt>
      <trkpt lat="36.49811885319650173187255859375" lon="-5.888446904718875885009765625">
        <ele>59</ele>
        <time>2019-11-04T09:04:20.000Z</time>
      </trkpt>
      <trkpt lat="36.4980741776525974273681640625" lon="-5.888556875288486480712890625">
        <ele>59.40000152587890625</ele>
        <time>2019-11-04T09:04:25.000Z</time>
      </trkpt>
      <trkpt lat="36.498074345290660858154296875" lon="-5.88855729438364505767822265625">
        <ele>59.40000152587890625</ele>
        <time>2019-11-04T09:04:27.000Z</time>
      </trkpt>
      <trkpt lat="36.498050875961780548095703125" lon="-5.888614542782306671142578125">
        <ele>59.59999847412109375</ele>
        <time>2019-11-04T09:05:58.000Z</time>
      </trkpt>
      <trkpt lat="36.497953645884990692138671875" lon="-5.88880355469882488250732421875">
        <ele>61</ele>
        <time>2019-11-04T09:06:04.000Z</time>
      </trkpt>
      <trkpt lat="36.497831605374813079833984375" lon="-5.88900723494589328765869140625">
        <ele>62.799999237060546875</ele>
        <time>2019-11-04T09:06:10.000Z</time>
      </trkpt>
      <trkpt lat="36.49771417491137981414794921875" lon="-5.8892007730901241302490234375">
        <ele>63.40000152587890625</ele>
        <time>2019-11-04T09:06:16.000Z</time>
      </trkpt>
      <trkpt lat="36.49757252074778079986572265625" lon="-5.889374949038028717041015625">
        <ele>64.1999969482421875</ele>
        <time>2019-11-04T09:06:22.000Z</time>
      </trkpt>
      <trkpt lat="36.49741125293076038360595703125" lon="-5.889527834951877593994140625">
        <ele>64.8000030517578125</ele>
        <time>2019-11-04T09:06:28.000Z</time>
      </trkpt>
      <trkpt lat="36.49721813388168811798095703125" lon="-5.88961157016456127166748046875">
        <ele>65.59999847412109375</ele>
        <time>2019-11-04T09:06:34.000Z</time>
      </trkpt>
      <trkpt lat="36.497007496654987335205078125" lon="-5.889655910432338714599609375">
        <ele>66</ele>
        <time>2019-11-04T09:06:40.000Z</time>
      </trkpt>
      <trkpt lat="36.49681831710040569305419921875" lon="-5.889683067798614501953125">
        <ele>66</ele>
        <time>2019-11-04T09:06:45.000Z</time>
      </trkpt>
      <trkpt lat="36.49663123302161693572998046875" lon="-5.8897020108997821807861328125">
        <ele>66</ele>
        <time>2019-11-04T09:06:50.000Z</time>
      </trkpt>
      <trkpt lat="36.49643342010676860809326171875" lon="-5.8897201158106327056884765625">
        <ele>66.59999847412109375</ele>
        <time>2019-11-04T09:06:56.000Z</time>
      </trkpt>
      <trkpt lat="36.49623745121061801910400390625" lon="-5.88976286351680755615234375">
        <ele>67</ele>
        <time>2019-11-04T09:07:03.000Z</time>
      </trkpt>
      <trkpt lat="36.49604533798992633819580078125" lon="-5.88981508277356624603271484375">
        <ele>66.8000030517578125</ele>
        <time>2019-11-04T09:07:09.000Z</time>
      </trkpt>
      <trkpt lat="36.49587149731814861297607421875" lon="-5.8899038471281528472900390625">
        <ele>66.1999969482421875</ele>
        <time>2019-11-04T09:07:13.000Z</time>
      </trkpt>
      <trkpt lat="36.495699919760227203369140625" lon="-5.8900158293545246124267578125">
        <ele>65</ele>
        <time>2019-11-04T09:07:16.000Z</time>
      </trkpt>
      <trkpt lat="36.49549766443669795989990234375" lon="-5.89014239609241485595703125">
        <ele>63.799999237060546875</ele>
        <time>2019-11-04T09:07:19.000Z</time>
      </trkpt>
      <trkpt lat="36.4952846802771091461181640625" lon="-5.8902776800096035003662109375">
        <ele>62.799999237060546875</ele>
        <time>2019-11-04T09:07:22.000Z</time>
      </trkpt>
      <trkpt lat="36.49506851099431514739990234375" lon="-5.89042671024799346923828125">
        <ele>61.200000762939453125</ele>
        <time>2019-11-04T09:07:25.000Z</time>
      </trkpt>
      <trkpt lat="36.4948572032153606414794921875" lon="-5.89057096280157566070556640625">
        <ele>60.799999237060546875</ele>
        <time>2019-11-04T09:07:28.000Z</time>
      </trkpt>
      <trkpt lat="36.4946741424500942230224609375" lon="-5.89069233275949954986572265625">
        <ele>61.200000762939453125</ele>
        <time>2019-11-04T09:07:31.000Z</time>
      </trkpt>
      <trkpt lat="36.49449191987514495849609375" lon="-5.8908251859247684478759765625">
        <ele>62.200000762939453125</ele>
        <time>2019-11-04T09:07:35.000Z</time>
      </trkpt>
      <trkpt lat="36.49438572116196155548095703125" lon="-5.89089810848236083984375">
        <ele>62.59999847412109375</ele>
        <time>2019-11-04T09:07:38.000Z</time>
      </trkpt>
      <trkpt lat="36.49419830180704593658447265625" lon="-5.8910062350332736968994140625">
        <ele>63.200000762939453125</ele>
        <time>2019-11-04T09:07:44.000Z</time>
      </trkpt>
      <trkpt lat="36.494139544665813446044921875" lon="-5.89105166494846343994140625">
        <ele>63.40000152587890625</ele>
        <time>2019-11-04T09:07:46.000Z</time>
      </trkpt>
      <trkpt lat="36.49405606091022491455078125" lon="-5.8911068178713321685791015625">
        <ele>64</ele>
        <time>2019-11-04T09:07:49.000Z</time>
      </trkpt>
      <trkpt lat="36.4938957989215850830078125" lon="-5.891216956079006195068359375">
        <ele>65</ele>
        <time>2019-11-04T09:07:55.000Z</time>
      </trkpt>
      <trkpt lat="36.4937273226678371429443359375" lon="-5.8913254179060459136962890625">
        <ele>65.59999847412109375</ele>
        <time>2019-11-04T09:08:01.000Z</time>
      </trkpt>
      <trkpt lat="36.493545435369014739990234375" lon="-5.8914296887814998626708984375">
        <ele>66.59999847412109375</ele>
        <time>2019-11-04T09:08:08.000Z</time>
      </trkpt>
      <trkpt lat="36.49336379952728748321533203125" lon="-5.8915379829704761505126953125">
        <ele>68.8000030517578125</ele>
        <time>2019-11-04T09:08:16.000Z</time>
      </trkpt>
      <trkpt lat="36.49318811483681201934814453125" lon="-5.891654826700687408447265625">
        <ele>71.59999847412109375</ele>
        <time>2019-11-04T09:08:24.000Z</time>
      </trkpt>
      <trkpt lat="36.49303087033331394195556640625" lon="-5.89178927242755889892578125">
        <ele>74.1999969482421875</ele>
        <time>2019-11-04T09:08:31.000Z</time>
      </trkpt>
      <trkpt lat="36.49290681816637516021728515625" lon="-5.891969986259937286376953125">
        <ele>76.59999847412109375</ele>
        <time>2019-11-04T09:08:38.000Z</time>
      </trkpt>
      <trkpt lat="36.49280522949993610382080078125" lon="-5.89219654910266399383544921875">
        <ele>78.40000152587890625</ele>
        <time>2019-11-04T09:08:45.000Z</time>
      </trkpt>
      <trkpt lat="36.49273381568491458892822265625" lon="-5.89240978471934795379638671875">
        <ele>79</ele>
        <time>2019-11-04T09:08:50.000Z</time>
      </trkpt>
      <trkpt lat="36.49266860447824001312255859375" lon="-5.89267163537442684173583984375">
        <ele>78.8000030517578125</ele>
        <time>2019-11-04T09:08:55.000Z</time>
      </trkpt>
      <trkpt lat="36.49262367747724056243896484375" lon="-5.8928931690752506256103515625">
        <ele>77.40000152587890625</ele>
        <time>2019-11-04T09:08:59.000Z</time>
      </trkpt>
      <trkpt lat="36.492576487362384796142578125" lon="-5.89313842356204986572265625">
        <ele>75.1999969482421875</ele>
        <time>2019-11-04T09:09:03.000Z</time>
      </trkpt>
      <trkpt lat="36.49252829141914844512939453125" lon="-5.893418379127979278564453125">
        <ele>71.8000030517578125</ele>
        <time>2019-11-04T09:09:07.000Z</time>
      </trkpt>
      <trkpt lat="36.49248856119811534881591796875" lon="-5.893657095730304718017578125">
        <ele>69.40000152587890625</ele>
        <time>2019-11-04T09:09:10.000Z</time>
      </trkpt>
      <trkpt lat="36.4924351684749126434326171875" lon="-5.8939288370311260223388671875">
        <ele>67.8000030517578125</ele>
        <time>2019-11-04T09:09:13.000Z</time>
      </trkpt>
      <trkpt lat="36.492382027208805084228515625" lon="-5.8942211978137493133544921875">
        <ele>67.1999969482421875</ele>
        <time>2019-11-04T09:09:16.000Z</time>
      </trkpt>
      <trkpt lat="36.4923319034278392791748046875" lon="-5.89453107677400112152099609375">
        <ele>66.8000030517578125</ele>
        <time>2019-11-04T09:09:19.000Z</time>
      </trkpt>
      <trkpt lat="36.49227482266724109649658203125" lon="-5.89484623633325099945068359375">
        <ele>65.1999969482421875</ele>
        <time>2019-11-04T09:09:22.000Z</time>
      </trkpt>
      <trkpt lat="36.4922153949737548828125" lon="-5.89516290463507175445556640625">
        <ele>62.59999847412109375</ele>
        <time>2019-11-04T09:09:25.000Z</time>
      </trkpt>
      <trkpt lat="36.4921340905129909515380859375" lon="-5.895472280681133270263671875">
        <ele>61</ele>
        <time>2019-11-04T09:09:28.000Z</time>
      </trkpt>
      <trkpt lat="36.49202688597142696380615234375" lon="-5.89576003141701221466064453125">
        <ele>61</ele>
        <time>2019-11-04T09:09:31.000Z</time>
      </trkpt>
      <trkpt lat="36.4919091202318668365478515625" lon="-5.896042250096797943115234375">
        <ele>61</ele>
        <time>2019-11-04T09:09:34.000Z</time>
      </trkpt>
      <trkpt lat="36.4917954616248607635498046875" lon="-5.89630753733217716217041015625">
        <ele>60.40000152587890625</ele>
        <time>2019-11-04T09:09:37.000Z</time>
      </trkpt>
      <trkpt lat="36.4916921965777873992919921875" lon="-5.896551869809627532958984375">
        <ele>58.59999847412109375</ele>
        <time>2019-11-04T09:09:40.000Z</time>
      </trkpt>
      <trkpt lat="36.49159085936844348907470703125" lon="-5.8967716433107852935791015625">
        <ele>57.799999237060546875</ele>
        <time>2019-11-04T09:09:43.000Z</time>
      </trkpt>
      <trkpt lat="36.49150528013706207275390625" lon="-5.896983705461025238037109375">
        <ele>56.799999237060546875</ele>
        <time>2019-11-04T09:09:46.000Z</time>
      </trkpt>
      <trkpt lat="36.49139933288097381591796875" lon="-5.89723549783229827880859375">
        <ele>56.40000152587890625</ele>
        <time>2019-11-04T09:09:50.000Z</time>
      </trkpt>
      <trkpt lat="36.4913086406886577606201171875" lon="-5.897479914128780364990234375">
        <ele>55.799999237060546875</ele>
        <time>2019-11-04T09:09:54.000Z</time>
      </trkpt>
      <trkpt lat="36.4912181161344051361083984375" lon="-5.89772843755781650543212890625">
        <ele>55.40000152587890625</ele>
        <time>2019-11-04T09:09:58.000Z</time>
      </trkpt>
      <trkpt lat="36.49113513529300689697265625" lon="-5.8979823254048824310302734375">
        <ele>54.40000152587890625</ele>
        <time>2019-11-04T09:10:02.000Z</time>
      </trkpt>
      <trkpt lat="36.49106078781187534332275390625" lon="-5.89823872782289981842041015625">
        <ele>53</ele>
        <time>2019-11-04T09:10:06.000Z</time>
      </trkpt>
      <trkpt lat="36.490993313491344451904296875" lon="-5.8985123969614505767822265625">
        <ele>53</ele>
        <time>2019-11-04T09:10:10.000Z</time>
      </trkpt>
      <trkpt lat="36.49091921746730804443359375" lon="-5.8987913466989994049072265625">
        <ele>53.200000762939453125</ele>
        <time>2019-11-04T09:10:14.000Z</time>
      </trkpt>
      <trkpt lat="36.4908620528876781463623046875" lon="-5.8990102820098400115966796875">
        <ele>54</ele>
        <time>2019-11-04T09:10:17.000Z</time>
      </trkpt>
      <trkpt lat="36.49080547504127025604248046875" lon="-5.89923634193837642669677734375">
        <ele>54</ele>
        <time>2019-11-04T09:10:20.000Z</time>
      </trkpt>
      <trkpt lat="36.49074621498584747314453125" lon="-5.89945343323051929473876953125">
        <ele>55</ele>
        <time>2019-11-04T09:10:23.000Z</time>
      </trkpt>
      <trkpt lat="36.490671448409557342529296875" lon="-5.8996989391744136810302734375">
        <ele>56</ele>
        <time>2019-11-04T09:10:27.000Z</time>
      </trkpt>
      <trkpt lat="36.49060028605163097381591796875" lon="-5.8999463729560375213623046875">
        <ele>57.200000762939453125</ele>
        <time>2019-11-04T09:10:32.000Z</time>
      </trkpt>
      <trkpt lat="36.49052451364696025848388671875" lon="-5.90018726885318756103515625">
        <ele>58.40000152587890625</ele>
        <time>2019-11-04T09:10:38.000Z</time>
      </trkpt>
      <trkpt lat="36.49051294662058353424072265625" lon="-5.90022540651261806488037109375">
        <ele>58.59999847412109375</ele>
        <time>2019-11-04T09:10:39.000Z</time>
      </trkpt>
      <trkpt lat="36.4904352463781833648681640625" lon="-5.9004114009439945220947265625">
        <ele>59.799999237060546875</ele>
        <time>2019-11-04T09:10:44.000Z</time>
      </trkpt>
      <trkpt lat="36.490356959402561187744140625" lon="-5.90061298571527004241943359375">
        <ele>59.799999237060546875</ele>
        <time>2019-11-04T09:10:49.000Z</time>
      </trkpt>
      <trkpt lat="36.4902506768703460693359375" lon="-5.90081951580941677093505859375">
        <ele>60</ele>
        <time>2019-11-04T09:10:54.000Z</time>
      </trkpt>
      <trkpt lat="36.49012771435081958770751953125" lon="-5.90102638117969036102294921875">
        <ele>59.799999237060546875</ele>
        <time>2019-11-04T09:10:59.000Z</time>
      </trkpt>
      <trkpt lat="36.49000064469873905181884765625" lon="-5.9012492559850215911865234375">
        <ele>59</ele>
        <time>2019-11-04T09:11:04.000Z</time>
      </trkpt>
      <trkpt lat="36.48990224115550518035888671875" lon="-5.901436507701873779296875">
        <ele>59.40000152587890625</ele>
        <time>2019-11-04T09:11:08.000Z</time>
      </trkpt>
      <trkpt lat="36.48977391421794891357421875" lon="-5.90166675858199596405029296875">
        <ele>59.200000762939453125</ele>
        <time>2019-11-04T09:11:13.000Z</time>
      </trkpt>
      <trkpt lat="36.48966788314282894134521484375" lon="-5.90186255984008312225341796875">
        <ele>58.799999237060546875</ele>
        <time>2019-11-04T09:11:17.000Z</time>
      </trkpt>
      <trkpt lat="36.48956201970577239990234375" lon="-5.90204779990017414093017578125">
        <ele>58.59999847412109375</ele>
        <time>2019-11-04T09:11:21.000Z</time>
      </trkpt>
      <trkpt lat="36.4894367940723896026611328125" lon="-5.902272351086139678955078125">
        <ele>58.200000762939453125</ele>
        <time>2019-11-04T09:11:26.000Z</time>
      </trkpt>
      <trkpt lat="36.48936160840094089508056640625" lon="-5.90241056866943836212158203125">
        <ele>58.200000762939453125</ele>
        <time>2019-11-04T09:11:29.000Z</time>
      </trkpt>
      <trkpt lat="36.48924157954752445220947265625" lon="-5.9026396460831165313720703125">
        <ele>59.200000762939453125</ele>
        <time>2019-11-04T09:11:34.000Z</time>
      </trkpt>
      <trkpt lat="36.489139907062053680419921875" lon="-5.90282580815255641937255859375">
        <ele>59.799999237060546875</ele>
        <time>2019-11-04T09:11:38.000Z</time>
      </trkpt>
      <trkpt lat="36.48901677690446376800537109375" lon="-5.90305614285171031951904296875">
        <ele>60.59999847412109375</ele>
        <time>2019-11-04T09:11:43.000Z</time>
      </trkpt>
      <trkpt lat="36.4889176189899444580078125" lon="-5.90323803015053272247314453125">
        <ele>60.799999237060546875</ele>
        <time>2019-11-04T09:11:47.000Z</time>
      </trkpt>
      <trkpt lat="36.48879867978394031524658203125" lon="-5.9034627489745616912841796875">
        <ele>61.200000762939453125</ele>
        <time>2019-11-04T09:11:52.000Z</time>
      </trkpt>
      <trkpt lat="36.48867420852184295654296875" lon="-5.90367992408573627471923828125">
        <ele>61</ele>
        <time>2019-11-04T09:11:57.000Z</time>
      </trkpt>
      <trkpt lat="36.488562561571598052978515625" lon="-5.90388461016118526458740234375">
        <ele>61.200000762939453125</ele>
        <time>2019-11-04T09:12:02.000Z</time>
      </trkpt>
      <trkpt lat="36.488457620143890380859375" lon="-5.90407219715416431427001953125">
        <ele>61.799999237060546875</ele>
        <time>2019-11-04T09:12:08.000Z</time>
      </trkpt>
      <trkpt lat="36.48835502564907073974609375" lon="-5.9042617119848728179931640625">
        <ele>62.799999237060546875</ele>
        <time>2019-11-04T09:12:15.000Z</time>
      </trkpt>
      <trkpt lat="36.4882512576878070831298828125" lon="-5.90446899645030498504638671875">
        <ele>65.1999969482421875</ele>
        <time>2019-11-04T09:12:23.000Z</time>
      </trkpt>
      <trkpt lat="36.488138772547245025634765625" lon="-5.90466563589870929718017578125">
        <ele>67.8000030517578125</ele>
        <time>2019-11-04T09:12:31.000Z</time>
      </trkpt>
      <trkpt lat="36.4880266226828098297119140625" lon="-5.904863364994525909423828125">
        <ele>70.1999969482421875</ele>
        <time>2019-11-04T09:12:39.000Z</time>
      </trkpt>
      <trkpt lat="36.48792260326445102691650390625" lon="-5.9050749242305755615234375">
        <ele>72.1999969482421875</ele>
        <time>2019-11-04T09:12:47.000Z</time>
      </trkpt>
      <trkpt lat="36.48782252334058284759521484375" lon="-5.90526946820318698883056640625">
        <ele>74.59999847412109375</ele>
        <time>2019-11-04T09:12:54.000Z</time>
      </trkpt>
      <trkpt lat="36.48772378452122211456298828125" lon="-5.9054935164749622344970703125">
        <ele>76.59999847412109375</ele>
        <time>2019-11-04T09:13:02.000Z</time>
      </trkpt>
      <trkpt lat="36.48761917836964130401611328125" lon="-5.905686132609844207763671875">
        <ele>77.59999847412109375</ele>
        <time>2019-11-04T09:13:09.000Z</time>
      </trkpt>
      <trkpt lat="36.4875255525112152099609375" lon="-5.90588956139981746673583984375">
        <ele>78.59999847412109375</ele>
        <time>2019-11-04T09:13:16.000Z</time>
      </trkpt>
      <trkpt lat="36.48742203600704669952392578125" lon="-5.9061007015407085418701171875">
        <ele>79.1999969482421875</ele>
        <time>2019-11-04T09:13:23.000Z</time>
      </trkpt>
      <trkpt lat="36.48732011206448078155517578125" lon="-5.9063033759593963623046875">
        <ele>79.40000152587890625</ele>
        <time>2019-11-04T09:13:30.000Z</time>
      </trkpt>
      <trkpt lat="36.48720477707684040069580078125" lon="-5.906518287956714630126953125">
        <ele>79</ele>
        <time>2019-11-04T09:13:37.000Z</time>
      </trkpt>
      <trkpt lat="36.48709438741207122802734375" lon="-5.90672506950795650482177734375">
        <ele>79.40000152587890625</ele>
        <time>2019-11-04T09:13:44.000Z</time>
      </trkpt>
      <trkpt lat="36.486979387700557708740234375" lon="-5.90692338533699512481689453125">
        <ele>80.40000152587890625</ele>
        <time>2019-11-04T09:13:51.000Z</time>
      </trkpt>
      <trkpt lat="36.48685223422944545745849609375" lon="-5.90710426680743694305419921875">
        <ele>81.1999969482421875</ele>
        <time>2019-11-04T09:13:57.000Z</time>
      </trkpt>
      <trkpt lat="36.48672868497669696807861328125" lon="-5.90727056376636028289794921875">
        <ele>81</ele>
        <time>2019-11-04T09:14:02.000Z</time>
      </trkpt>
      <trkpt lat="36.48660111241042613983154296875" lon="-5.90743937529623508453369140625">
        <ele>80.59999847412109375</ele>
        <time>2019-11-04T09:14:07.000Z</time>
      </trkpt>
      <trkpt lat="36.48646381683647632598876953125" lon="-5.90762293897569179534912109375">
        <ele>80</ele>
        <time>2019-11-04T09:14:12.000Z</time>
      </trkpt>
      <trkpt lat="36.486320234835147857666015625" lon="-5.907805748283863067626953125">
        <ele>79.8000030517578125</ele>
        <time>2019-11-04T09:14:17.000Z</time>
      </trkpt>
      <trkpt lat="36.48617732338607311248779296875" lon="-5.90799677185714244842529296875">
        <ele>79.59999847412109375</ele>
        <time>2019-11-04T09:14:22.000Z</time>
      </trkpt>
      <trkpt lat="36.4860476553440093994140625" lon="-5.90817547403275966644287109375">
        <ele>79.8000030517578125</ele>
        <time>2019-11-04T09:14:27.000Z</time>
      </trkpt>
      <trkpt lat="36.485915891826152801513671875" lon="-5.9083349816501140594482421875">
        <ele>80</ele>
        <time>2019-11-04T09:14:32.000Z</time>
      </trkpt>
      <trkpt lat="36.4857608266174793243408203125" lon="-5.90851795859634876251220703125">
        <ele>80.1999969482421875</ele>
        <time>2019-11-04T09:14:37.000Z</time>
      </trkpt>
      <trkpt lat="36.4856104552745819091796875" lon="-5.90869984589517116546630859375">
        <ele>81</ele>
        <time>2019-11-04T09:14:41.000Z</time>
      </trkpt>
      <trkpt lat="36.48546922020614147186279296875" lon="-5.90887184254825115203857421875">
        <ele>81.1999969482421875</ele>
        <time>2019-11-04T09:14:45.000Z</time>
      </trkpt>
      <trkpt lat="36.48533963598310947418212890625" lon="-5.90904098935425281524658203125">
        <ele>81.1999969482421875</ele>
        <time>2019-11-04T09:14:49.000Z</time>
      </trkpt>
      <trkpt lat="36.4852134883403778076171875" lon="-5.9092269837856292724609375">
        <ele>80.8000030517578125</ele>
        <time>2019-11-04T09:14:53.000Z</time>
      </trkpt>
      <trkpt lat="36.48507476784288883209228515625" lon="-5.90940191410481929779052734375">
        <ele>80.1999969482421875</ele>
        <time>2019-11-04T09:14:57.000Z</time>
      </trkpt>
      <trkpt lat="36.48493093438446521759033203125" lon="-5.90959134511649608612060546875">
        <ele>79.8000030517578125</ele>
        <time>2019-11-04T09:15:01.000Z</time>
      </trkpt>
      <trkpt lat="36.48479095660150051116943359375" lon="-5.90977742336690425872802734375">
        <ele>79.1999969482421875</ele>
        <time>2019-11-04T09:15:05.000Z</time>
      </trkpt>
      <trkpt lat="36.4846475422382354736328125" lon="-5.90996325016021728515625">
        <ele>79.1999969482421875</ele>
        <time>2019-11-04T09:15:09.000Z</time>
      </trkpt>
      <trkpt lat="36.48450337350368499755859375" lon="-5.91014857403934001922607421875">
        <ele>79.1999969482421875</ele>
        <time>2019-11-04T09:15:13.000Z</time>
      </trkpt>
      <trkpt lat="36.484353505074977874755859375" lon="-5.910331718623638153076171875">
        <ele>79</ele>
        <time>2019-11-04T09:15:17.000Z</time>
      </trkpt>
      <trkpt lat="36.48420296609401702880859375" lon="-5.91052575968205928802490234375">
        <ele>79</ele>
        <time>2019-11-04T09:15:21.000Z</time>
      </trkpt>
      <trkpt lat="36.48405217565596103668212890625" lon="-5.91073145158588886260986328125">
        <ele>79</ele>
        <time>2019-11-04T09:15:25.000Z</time>
      </trkpt>
      <trkpt lat="36.48389224894344806671142578125" lon="-5.9109350480139255523681640625">
        <ele>79</ele>
        <time>2019-11-04T09:15:29.000Z</time>
      </trkpt>
      <trkpt lat="36.483740620315074920654296875" lon="-5.91113629750907421112060546875">
        <ele>79.1999969482421875</ele>
        <time>2019-11-04T09:15:33.000Z</time>
      </trkpt>
      <trkpt lat="36.4835956133902072906494140625" lon="-5.9113102219998836517333984375">
        <ele>79</ele>
        <time>2019-11-04T09:15:37.000Z</time>
      </trkpt>
      <trkpt lat="36.4834524504840373992919921875" lon="-5.91148565523326396942138671875">
        <ele>79</ele>
        <time>2019-11-04T09:15:41.000Z</time>
      </trkpt>
      <trkpt lat="36.48332345299422740936279296875" lon="-5.91164994053542613983154296875">
        <ele>79</ele>
        <time>2019-11-04T09:15:45.000Z</time>
      </trkpt>
      <trkpt lat="36.48317140527069568634033203125" lon="-5.9118322469294071197509765625">
        <ele>79.1999969482421875</ele>
        <time>2019-11-04T09:15:50.000Z</time>
      </trkpt>
      <trkpt lat="36.48302949965000152587890625" lon="-5.9120069257915019989013671875">
        <ele>79.8000030517578125</ele>
        <time>2019-11-04T09:15:55.000Z</time>
      </trkpt>
      <trkpt lat="36.48287418298423290252685546875" lon="-5.91218621470034122467041015625">
        <ele>81.59999847412109375</ele>
        <time>2019-11-04T09:16:01.000Z</time>
      </trkpt>
      <trkpt lat="36.48274526931345462799072265625" lon="-5.91235435567796230316162109375">
        <ele>83</ele>
        <time>2019-11-04T09:16:06.000Z</time>
      </trkpt>
      <trkpt lat="36.4826186187565326690673828125" lon="-5.912523083388805389404296875">
        <ele>83.59999847412109375</ele>
        <time>2019-11-04T09:16:11.000Z</time>
      </trkpt>
      <trkpt lat="36.48248844780027866363525390625" lon="-5.91269399039447307586669921875">
        <ele>84.1999969482421875</ele>
        <time>2019-11-04T09:16:16.000Z</time>
      </trkpt>
      <trkpt lat="36.48240094073116779327392578125" lon="-5.9127975068986415863037109375">
        <ele>84.40000152587890625</ele>
        <time>2019-11-04T09:16:19.000Z</time>
      </trkpt>
      <trkpt lat="36.48223732598125934600830078125" lon="-5.9129778854548931121826171875">
        <ele>84.59999847412109375</ele>
        <time>2019-11-04T09:16:24.000Z</time>
      </trkpt>
      <trkpt lat="36.48209516890347003936767578125" lon="-5.91311861760914325714111328125">
        <ele>85.1999969482421875</ele>
        <time>2019-11-04T09:16:28.000Z</time>
      </trkpt>
      <trkpt lat="36.48206063546240329742431640625" lon="-5.91314828954637050628662109375">
        <ele>85.1999969482421875</ele>
        <time>2019-11-04T09:16:29.000Z</time>
      </trkpt>
      <trkpt lat="36.48188008926808834075927734375" lon="-5.91327183879911899566650390625">
        <ele>86</ele>
        <time>2019-11-04T09:16:34.000Z</time>
      </trkpt>
      <trkpt lat="36.4816945977509021759033203125" lon="-5.9133795462548732757568359375">
        <ele>87.59999847412109375</ele>
        <time>2019-11-04T09:16:39.000Z</time>
      </trkpt>
      <trkpt lat="36.48152469657361507415771484375" lon="-5.9134714119136333465576171875">
        <ele>89.1999969482421875</ele>
        <time>2019-11-04T09:16:44.000Z</time>
      </trkpt>
      <trkpt lat="36.48140701465308666229248046875" lon="-5.9135357849299907684326171875">
        <ele>90.40000152587890625</ele>
        <time>2019-11-04T09:16:48.000Z</time>
      </trkpt>
      <trkpt lat="36.48135253228247165679931640625" lon="-5.9135572426021099090576171875">
        <ele>90.8000030517578125</ele>
        <time>2019-11-04T09:16:50.000Z</time>
      </trkpt>
      <trkpt lat="36.4812486805021762847900390625" lon="-5.91360711492598056793212890625">
        <ele>91.59999847412109375</ele>
        <time>2019-11-04T09:16:54.000Z</time>
      </trkpt>
      <trkpt lat="36.48116268217563629150390625" lon="-5.91364583931863307952880859375">
        <ele>92.1999969482421875</ele>
        <time>2019-11-04T09:16:58.000Z</time>
      </trkpt>
      <trkpt lat="36.481002755463123321533203125" lon="-5.9137547202408313751220703125">
        <ele>93.8000030517578125</ele>
        <time>2019-11-04T09:17:05.000Z</time>
      </trkpt>
      <trkpt lat="36.48083553649485111236572265625" lon="-5.9138660319149494171142578125">
        <ele>95</ele>
        <time>2019-11-04T09:17:13.000Z</time>
      </trkpt>
      <trkpt lat="36.48067845962941646575927734375" lon="-5.91397508047521114349365234375">
        <ele>97.1999969482421875</ele>
        <time>2019-11-04T09:17:21.000Z</time>
      </trkpt>
      <trkpt lat="36.48052691482007503509521484375" lon="-5.91412360779941082000732421875">
        <ele>100</ele>
        <time>2019-11-04T09:17:30.000Z</time>
      </trkpt>
      <trkpt lat="36.48039163090288639068603515625" lon="-5.914274565875530242919921875">
        <ele>102</ele>
        <time>2019-11-04T09:17:37.000Z</time>
      </trkpt>
      <trkpt lat="36.48026087321341037750244140625" lon="-5.91445586644113063812255859375">
        <ele>103</ele>
        <time>2019-11-04T09:17:44.000Z</time>
      </trkpt>
      <trkpt lat="36.4801285229623317718505859375" lon="-5.914623253047466278076171875">
        <ele>102.1999969482421875</ele>
        <time>2019-11-04T09:17:51.000Z</time>
      </trkpt>
      <trkpt lat="36.4799883775413036346435546875" lon="-5.91479952447116374969482421875">
        <ele>101.1999969482421875</ele>
        <time>2019-11-04T09:17:58.000Z</time>
      </trkpt>
      <trkpt lat="36.47984211333096027374267578125" lon="-5.9149697609245777130126953125">
        <ele>99.59999847412109375</ele>
        <time>2019-11-04T09:18:03.000Z</time>
      </trkpt>
      <trkpt lat="36.47971093654632568359375" lon="-5.91513295657932758331298828125">
        <ele>97.8000030517578125</ele>
        <time>2019-11-04T09:18:06.000Z</time>
      </trkpt>
      <trkpt lat="36.479542292654514312744140625" lon="-5.9153332002460956573486328125">
        <ele>97</ele>
        <time>2019-11-04T09:18:09.000Z</time>
      </trkpt>
      <trkpt lat="36.47935981862246990203857421875" lon="-5.9155611880123615264892578125">
        <ele>96.40000152587890625</ele>
        <time>2019-11-04T09:18:12.000Z</time>
      </trkpt>
      <trkpt lat="36.47925789467990398406982421875" lon="-5.9157278202474117279052734375">
        <ele>96</ele>
        <time>2019-11-04T09:18:14.000Z</time>
      </trkpt>
      <trkpt lat="36.47918094880878925323486328125" lon="-5.91599361039698123931884765625">
        <ele>95.59999847412109375</ele>
        <time>2019-11-04T09:18:17.000Z</time>
      </trkpt>
      <trkpt lat="36.4790449105203151702880859375" lon="-5.91616451740264892578125">
        <ele>94</ele>
        <time>2019-11-04T09:18:20.000Z</time>
      </trkpt>
      <trkpt lat="36.4789885841310024261474609375" lon="-5.91619377024471759796142578125">
        <ele>93.59999847412109375</ele>
        <time>2019-11-04T09:18:21.000Z</time>
      </trkpt>
      <trkpt lat="36.47883309982717037200927734375" lon="-5.91628597117960453033447265625">
        <ele>93</ele>
        <time>2019-11-04T09:18:24.000Z</time>
      </trkpt>
      <trkpt lat="36.4786905236542224884033203125" lon="-5.916423685848712921142578125">
        <ele>93</ele>
        <time>2019-11-04T09:18:28.000Z</time>
      </trkpt>
      <trkpt lat="36.47855347953736782073974609375" lon="-5.9165878035128116607666015625">
        <ele>93.59999847412109375</ele>
        <time>2019-11-04T09:18:34.000Z</time>
      </trkpt>
      <trkpt lat="36.47851492278277873992919921875" lon="-5.9166327305138111114501953125">
        <ele>94.1999969482421875</ele>
        <time>2019-11-04T09:18:36.000Z</time>
      </trkpt>
      <trkpt lat="36.47838114760816097259521484375" lon="-5.91680380515754222869873046875">
        <ele>95.59999847412109375</ele>
        <time>2019-11-04T09:18:43.000Z</time>
      </trkpt>
      <trkpt lat="36.47832599468529224395751953125" lon="-5.9168793261051177978515625">
        <ele>95.59999847412109375</ele>
        <time>2019-11-04T09:18:46.000Z</time>
      </trkpt>
      <trkpt lat="36.47819289006292819976806640625" lon="-5.91704822145402431488037109375">
        <ele>96.40000152587890625</ele>
        <time>2019-11-04T09:18:53.000Z</time>
      </trkpt>
      <trkpt lat="36.47806900553405284881591796875" lon="-5.91721820645034313201904296875">
        <ele>97.1999969482421875</ele>
        <time>2019-11-04T09:19:00.000Z</time>
      </trkpt>
      <trkpt lat="36.47794160060584545135498046875" lon="-5.91738366521894931793212890625">
        <ele>97.8000030517578125</ele>
        <time>2019-11-04T09:19:07.000Z</time>
      </trkpt>
      <trkpt lat="36.477809585630893707275390625" lon="-5.91754526831209659576416015625">
        <ele>98.8000030517578125</ele>
        <time>2019-11-04T09:19:14.000Z</time>
      </trkpt>
      <trkpt lat="36.47766868583858013153076171875" lon="-5.91772749088704586029052734375">
        <ele>100.40000152587890625</ele>
        <time>2019-11-04T09:19:22.000Z</time>
      </trkpt>
      <trkpt lat="36.4775209128856658935546875" lon="-5.91790284030139446258544921875">
        <ele>102.59999847412109375</ele>
        <time>2019-11-04T09:19:30.000Z</time>
      </trkpt>
      <trkpt lat="36.47737498395144939422607421875" lon="-5.91805153526365756988525390625">
        <ele>103.8000030517578125</ele>
        <time>2019-11-04T09:19:36.000Z</time>
      </trkpt>
      <trkpt lat="36.477218829095363616943359375" lon="-5.91820140369236469268798828125">
        <ele>104.8000030517578125</ele>
        <time>2019-11-04T09:19:42.000Z</time>
      </trkpt>
      <trkpt lat="36.4770513586699962615966796875" lon="-5.9183426387608051300048828125">
        <ele>105</ele>
        <time>2019-11-04T09:19:48.000Z</time>
      </trkpt>
      <trkpt lat="36.47687994875013828277587890625" lon="-5.9184806048870086669921875">
        <ele>104.8000030517578125</ele>
        <time>2019-11-04T09:19:54.000Z</time>
      </trkpt>
      <trkpt lat="36.47671817801892757415771484375" lon="-5.91861161403357982635498046875">
        <ele>104.40000152587890625</ele>
        <time>2019-11-04T09:20:00.000Z</time>
      </trkpt>
      <trkpt lat="36.47656126879155635833740234375" lon="-5.9187409467995166778564453125">
        <ele>104.8000030517578125</ele>
        <time>2019-11-04T09:20:06.000Z</time>
      </trkpt>
      <trkpt lat="36.47638960741460323333740234375" lon="-5.9188780747354030609130859375">
        <ele>106.40000152587890625</ele>
        <time>2019-11-04T09:20:13.000Z</time>
      </trkpt>
      <trkpt lat="36.47621945478022098541259765625" lon="-5.91901344247162342071533203125">
        <ele>108.8000030517578125</ele>
        <time>2019-11-04T09:20:20.000Z</time>
      </trkpt>
      <trkpt lat="36.47605734877288341522216796875" lon="-5.91913481242954730987548828125">
        <ele>110.59999847412109375</ele>
        <time>2019-11-04T09:20:27.000Z</time>
      </trkpt>
      <trkpt lat="36.4758933149278163909912109375" lon="-5.91926204971969127655029296875">
        <ele>112.1999969482421875</ele>
        <time>2019-11-04T09:20:35.000Z</time>
      </trkpt>
      <trkpt lat="36.47573548369109630584716796875" lon="-5.9193736128509044647216796875">
        <ele>114</ele>
        <time>2019-11-04T09:20:43.000Z</time>
      </trkpt>
      <trkpt lat="36.4755731262266635894775390625" lon="-5.9194891154766082763671875">
        <ele>115.59999847412109375</ele>
        <time>2019-11-04T09:20:52.000Z</time>
      </trkpt>
      <trkpt lat="36.475404314696788787841796875" lon="-5.91962917707860469818115234375">
        <ele>117.59999847412109375</ele>
        <time>2019-11-04T09:21:02.000Z</time>
      </trkpt>
      <trkpt lat="36.47524246014654636383056640625" lon="-5.919759683310985565185546875">
        <ele>119.59999847412109375</ele>
        <time>2019-11-04T09:21:12.000Z</time>
      </trkpt>
      <trkpt lat="36.47506174631416797637939453125" lon="-5.91986353509128093719482421875">
        <ele>121.59999847412109375</ele>
        <time>2019-11-04T09:21:23.000Z</time>
      </trkpt>
      <trkpt lat="36.47489972412586212158203125" lon="-5.91998507268726825714111328125">
        <ele>123.1999969482421875</ele>
        <time>2019-11-04T09:21:33.000Z</time>
      </trkpt>
      <trkpt lat="36.4747268892824649810791015625" lon="-5.92010292224586009979248046875">
        <ele>124.8000030517578125</ele>
        <time>2019-11-04T09:21:44.000Z</time>
      </trkpt>
      <trkpt lat="36.47455279715359210968017578125" lon="-5.9202238731086254119873046875">
        <ele>126.59999847412109375</ele>
        <time>2019-11-04T09:21:55.000Z</time>
      </trkpt>
      <trkpt lat="36.47438247688114643096923828125" lon="-5.9203237853944301605224609375">
        <ele>128.1999969482421875</ele>
        <time>2019-11-04T09:22:05.000Z</time>
      </trkpt>
      <trkpt lat="36.47419824264943599700927734375" lon="-5.920387990772724151611328125">
        <ele>129.600006103515625</ele>
        <time>2019-11-04T09:22:15.000Z</time>
      </trkpt>
      <trkpt lat="36.474001519381999969482421875" lon="-5.920433588325977325439453125">
        <ele>131.1999969482421875</ele>
        <time>2019-11-04T09:22:25.000Z</time>
      </trkpt>
      <trkpt lat="36.4738114178180694580078125" lon="-5.920466445386409759521484375">
        <ele>132.8000030517578125</ele>
        <time>2019-11-04T09:22:34.000Z</time>
      </trkpt>
      <trkpt lat="36.47361469455063343048095703125" lon="-5.9205021522939205169677734375">
        <ele>134.8000030517578125</ele>
        <time>2019-11-04T09:22:43.000Z</time>
      </trkpt>
      <trkpt lat="36.47342643700540065765380859375" lon="-5.9205427207052707672119140625">
        <ele>137</ele>
        <time>2019-11-04T09:22:51.000Z</time>
      </trkpt>
      <trkpt lat="36.47323935292661190032958984375" lon="-5.92058806680142879486083984375">
        <ele>139</ele>
        <time>2019-11-04T09:22:59.000Z</time>
      </trkpt>
      <trkpt lat="36.47304321639239788055419921875" lon="-5.92063869349658489227294921875">
        <ele>140.8000030517578125</ele>
        <time>2019-11-04T09:23:07.000Z</time>
      </trkpt>
      <trkpt lat="36.4728537015616893768310546875" lon="-5.9206771664321422576904296875">
        <ele>142.399993896484375</ele>
        <time>2019-11-04T09:23:15.000Z</time>
      </trkpt>
      <trkpt lat="36.47266435436904430389404296875" lon="-5.9206976182758808135986328125">
        <ele>143.600006103515625</ele>
        <time>2019-11-04T09:23:23.000Z</time>
      </trkpt>
      <trkpt lat="36.47246285341680049896240234375" lon="-5.9207070060074329376220703125">
        <ele>144.600006103515625</ele>
        <time>2019-11-04T09:23:32.000Z</time>
      </trkpt>
      <trkpt lat="36.4722569100558757781982421875" lon="-5.92072804458439350128173828125">
        <ele>146.1999969482421875</ele>
        <time>2019-11-04T09:23:41.000Z</time>
      </trkpt>
      <trkpt lat="36.4720688201487064361572265625" lon="-5.92074832879006862640380859375">
        <ele>147.600006103515625</ele>
        <time>2019-11-04T09:23:49.000Z</time>
      </trkpt>
      <trkpt lat="36.47188014350831508636474609375" lon="-5.920767523348331451416015625">
        <ele>149</ele>
        <time>2019-11-04T09:23:57.000Z</time>
      </trkpt>
      <trkpt lat="36.47169825620949268341064453125" lon="-5.92078990302979946136474609375">
        <ele>150.600006103515625</ele>
        <time>2019-11-04T09:24:05.000Z</time>
      </trkpt>
      <trkpt lat="36.4715129323303699493408203125" lon="-5.92083130963146686553955078125">
        <ele>152.8000030517578125</ele>
        <time>2019-11-04T09:24:13.000Z</time>
      </trkpt>
      <trkpt lat="36.47132341749966144561767578125" lon="-5.9208570420742034912109375">
        <ele>154.8000030517578125</ele>
        <time>2019-11-04T09:24:21.000Z</time>
      </trkpt>
      <trkpt lat="36.47114052437245845794677734375" lon="-5.92087187804281711578369140625">
        <ele>156.399993896484375</ele>
        <time>2019-11-04T09:24:29.000Z</time>
      </trkpt>
      <trkpt lat="36.4709563739597797393798828125" lon="-5.92086081393063068389892578125">
        <ele>157.1999969482421875</ele>
        <time>2019-11-04T09:24:37.000Z</time>
      </trkpt>
      <trkpt lat="36.47077037952840328216552734375" lon="-5.9208329021930694580078125">
        <ele>157.8000030517578125</ele>
        <time>2019-11-04T09:24:45.000Z</time>
      </trkpt>
      <trkpt lat="36.47059150971472263336181640625" lon="-5.92080197297036647796630859375">
        <ele>158.399993896484375</ele>
        <time>2019-11-04T09:24:53.000Z</time>
      </trkpt>
      <trkpt lat="36.47039495408535003662109375" lon="-5.9207566268742084503173828125">
        <ele>160.8000030517578125</ele>
        <time>2019-11-04T09:25:02.000Z</time>
      </trkpt>
      <trkpt lat="36.470202505588531494140625" lon="-5.92069719918072223663330078125">
        <ele>163.1999969482421875</ele>
        <time>2019-11-04T09:25:12.000Z</time>
      </trkpt>
      <trkpt lat="36.47001315839588642120361328125" lon="-5.92066534794867038726806640625">
        <ele>165.600006103515625</ele>
        <time>2019-11-04T09:25:22.000Z</time>
      </trkpt>
      <trkpt lat="36.46982087753713130950927734375" lon="-5.92068202793598175048828125">
        <ele>168</ele>
        <time>2019-11-04T09:25:32.000Z</time>
      </trkpt>
      <trkpt lat="36.469642259180545806884765625" lon="-5.9207723848521709442138671875">
        <ele>170.600006103515625</ele>
        <time>2019-11-04T09:25:42.000Z</time>
      </trkpt>
      <trkpt lat="36.4694845117628574371337890625" lon="-5.920915715396404266357421875">
        <ele>173.399993896484375</ele>
        <time>2019-11-04T09:25:52.000Z</time>
      </trkpt>
      <trkpt lat="36.4693415164947509765625" lon="-5.9210850298404693603515625">
        <ele>175.600006103515625</ele>
        <time>2019-11-04T09:26:03.000Z</time>
      </trkpt>
      <trkpt lat="36.469191648066043853759765625" lon="-5.92123347334563732147216796875">
        <ele>177.1999969482421875</ele>
        <time>2019-11-04T09:26:13.000Z</time>
      </trkpt>
      <trkpt lat="36.46913892589509487152099609375" lon="-5.92129298485815525054931640625">
        <ele>178.1999969482421875</ele>
        <time>2019-11-04T09:26:18.000Z</time>
      </trkpt>
      <trkpt lat="36.469129286706447601318359375" lon="-5.92130471952259540557861328125">
        <ele>178.399993896484375</ele>
        <time>2019-11-04T09:26:21.000Z</time>
      </trkpt>
      <trkpt lat="36.46907455287873744964599609375" lon="-5.921363644301891326904296875">
        <ele>179.399993896484375</ele>
        <time>2019-11-04T09:27:34.000Z</time>
      </trkpt>
      <trkpt lat="36.468916721642017364501953125" lon="-5.9215029515326023101806640625">
        <ele>181.1999969482421875</ele>
        <time>2019-11-04T09:27:43.000Z</time>
      </trkpt>
      <trkpt lat="36.46873592399060726165771484375" lon="-5.92160604894161224365234375">
        <ele>184.1999969482421875</ele>
        <time>2019-11-04T09:27:52.000Z</time>
      </trkpt>
      <trkpt lat="36.4685457386076450347900390625" lon="-5.92167872004210948944091796875">
        <ele>187.399993896484375</ele>
        <time>2019-11-04T09:28:01.000Z</time>
      </trkpt>
      <trkpt lat="36.46835655905306339263916015625" lon="-5.92171928845345973968505859375">
        <ele>190.399993896484375</ele>
        <time>2019-11-04T09:28:10.000Z</time>
      </trkpt>
      <trkpt lat="36.46817534230649471282958984375" lon="-5.921740829944610595703125">
        <ele>191.8000030517578125</ele>
        <time>2019-11-04T09:28:18.000Z</time>
      </trkpt>
      <trkpt lat="36.46799144335091114044189453125" lon="-5.9217550791800022125244140625">
        <ele>192.1999969482421875</ele>
        <time>2019-11-04T09:28:26.000Z</time>
      </trkpt>
      <trkpt lat="36.46780720911920070648193359375" lon="-5.921781063079833984375">
        <ele>192</ele>
        <time>2019-11-04T09:28:34.000Z</time>
      </trkpt>
      <trkpt lat="36.46763093769550323486328125" lon="-5.9218613617122173309326171875">
        <ele>193.399993896484375</ele>
        <time>2019-11-04T09:28:42.000Z</time>
      </trkpt>
      <trkpt lat="36.46748182363808155059814453125" lon="-5.92200360260903835296630859375">
        <ele>195.8000030517578125</ele>
        <time>2019-11-04T09:28:50.000Z</time>
      </trkpt>
      <trkpt lat="36.4673602022230625152587890625" lon="-5.9221713244915008544921875">
        <ele>197.1999969482421875</ele>
        <time>2019-11-04T09:28:58.000Z</time>
      </trkpt>
      <trkpt lat="36.4672502316534519195556640625" lon="-5.92236150987446308135986328125">
        <ele>198.8000030517578125</ele>
        <time>2019-11-04T09:29:06.000Z</time>
      </trkpt>
      <trkpt lat="36.46715325303375720977783203125" lon="-5.92256552539765834808349609375">
        <ele>199.600006103515625</ele>
        <time>2019-11-04T09:29:14.000Z</time>
      </trkpt>
      <trkpt lat="36.46705786697566509246826171875" lon="-5.92277155257761478424072265625">
        <ele>200.399993896484375</ele>
        <time>2019-11-04T09:29:22.000Z</time>
      </trkpt>
      <trkpt lat="36.4669836871325969696044921875" lon="-5.9229902364313602447509765625">
        <ele>201</ele>
        <time>2019-11-04T09:29:30.000Z</time>
      </trkpt>
      <trkpt lat="36.4669186435639858245849609375" lon="-5.9232121892273426055908203125">
        <ele>202</ele>
        <time>2019-11-04T09:29:38.000Z</time>
      </trkpt>
      <trkpt lat="36.4668576233088970184326171875" lon="-5.92343389056622982025146484375">
        <ele>201.8000030517578125</ele>
        <time>2019-11-04T09:29:46.000Z</time>
      </trkpt>
      <trkpt lat="36.46679718978703022003173828125" lon="-5.9236564300954341888427734375">
        <ele>202.8000030517578125</ele>
        <time>2019-11-04T09:29:54.000Z</time>
      </trkpt>
      <trkpt lat="36.46673030219972133636474609375" lon="-5.92389154247939586639404296875">
        <ele>204.1999969482421875</ele>
        <time>2019-11-04T09:30:02.000Z</time>
      </trkpt>
      <trkpt lat="36.466662324965000152587890625" lon="-5.9241093881428241729736328125">
        <ele>205.399993896484375</ele>
        <time>2019-11-04T09:30:09.000Z</time>
      </trkpt>
      <trkpt lat="36.46660105325281620025634765625" lon="-5.9243412315845489501953125">
        <ele>206.1999969482421875</ele>
        <time>2019-11-04T09:30:16.000Z</time>
      </trkpt>
      <trkpt lat="36.46655679680407047271728515625" lon="-5.9245754219591617584228515625">
        <ele>207.1999969482421875</ele>
        <time>2019-11-04T09:30:23.000Z</time>
      </trkpt>
      <trkpt lat="36.4665211737155914306640625" lon="-5.92479460872709751129150390625">
        <ele>208.8000030517578125</ele>
        <time>2019-11-04T09:30:30.000Z</time>
      </trkpt>
      <trkpt lat="36.466511450707912445068359375" lon="-5.925042964518070220947265625">
        <ele>211.1999969482421875</ele>
        <time>2019-11-04T09:30:38.000Z</time>
      </trkpt>
      <trkpt lat="36.466510109603404998779296875" lon="-5.92527405358850955963134765625">
        <ele>214.399993896484375</ele>
        <time>2019-11-04T09:30:46.000Z</time>
      </trkpt>
      <trkpt lat="36.4665096066892147064208984375" lon="-5.9255105070769786834716796875">
        <ele>217.399993896484375</ele>
        <time>2019-11-04T09:30:54.000Z</time>
      </trkpt>
      <trkpt lat="36.46651488728821277618408203125" lon="-5.925745032727718353271484375">
        <ele>219.1999969482421875</ele>
        <time>2019-11-04T09:31:02.000Z</time>
      </trkpt>
      <trkpt lat="36.4665223471820354461669921875" lon="-5.92597461305558681488037109375">
        <ele>221.600006103515625</ele>
        <time>2019-11-04T09:31:10.000Z</time>
      </trkpt>
      <trkpt lat="36.46650868467986583709716796875" lon="-5.92621081508696079254150390625">
        <ele>223</ele>
        <time>2019-11-04T09:31:18.000Z</time>
      </trkpt>
      <trkpt lat="36.4664616622030735015869140625" lon="-5.92643268406391143798828125">
        <ele>224.399993896484375</ele>
        <time>2019-11-04T09:31:26.000Z</time>
      </trkpt>
      <trkpt lat="36.46641229279339313507080078125" lon="-5.92665270902216434478759765625">
        <ele>226.600006103515625</ele>
        <time>2019-11-04T09:31:34.000Z</time>
      </trkpt>
      <trkpt lat="36.4662836305797100067138671875" lon="-5.92681364156305789947509765625">
        <ele>228.399993896484375</ele>
        <time>2019-11-04T09:31:42.000Z</time>
      </trkpt>
      <trkpt lat="36.46611138246953487396240234375" lon="-5.92693786136806011199951171875">
        <ele>229.600006103515625</ele>
        <time>2019-11-04T09:31:50.000Z</time>
      </trkpt>
      <trkpt lat="36.46593712270259857177734375" lon="-5.92705721966922283172607421875">
        <ele>230.600006103515625</ele>
        <time>2019-11-04T09:31:59.000Z</time>
      </trkpt>
      <trkpt lat="36.4657787047326564788818359375" lon="-5.9271707944571971893310546875">
        <ele>231.600006103515625</ele>
        <time>2019-11-04T09:32:07.000Z</time>
      </trkpt>
      <trkpt lat="36.46561316214501857757568359375" lon="-5.927289314568042755126953125">
        <ele>232.600006103515625</ele>
        <time>2019-11-04T09:32:15.000Z</time>
      </trkpt>
      <trkpt lat="36.46544569171965122222900390625" lon="-5.92740456573665142059326171875">
        <ele>234</ele>
        <time>2019-11-04T09:32:23.000Z</time>
      </trkpt>
      <trkpt lat="36.46529741585254669189453125" lon="-5.927571952342987060546875">
        <ele>235.600006103515625</ele>
        <time>2019-11-04T09:32:32.000Z</time>
      </trkpt>
      <trkpt lat="36.46513153798878192901611328125" lon="-5.9276804141700267791748046875">
        <ele>238</ele>
        <time>2019-11-04T09:32:40.000Z</time>
      </trkpt>
      <trkpt lat="36.4649641513824462890625" lon="-5.92776968143880367279052734375">
        <ele>240.399993896484375</ele>
        <time>2019-11-04T09:32:47.000Z</time>
      </trkpt>
      <trkpt lat="36.46479181945323944091796875" lon="-5.92785023152828216552734375">
        <ele>242.8000030517578125</ele>
        <time>2019-11-04T09:32:55.000Z</time>
      </trkpt>
      <trkpt lat="36.46460314281284809112548828125" lon="-5.92791737057268619537353515625">
        <ele>245.1999969482421875</ele>
        <time>2019-11-04T09:33:03.000Z</time>
      </trkpt>
      <trkpt lat="36.464421339333057403564453125" lon="-5.92796263284981250762939453125">
        <ele>247.399993896484375</ele>
        <time>2019-11-04T09:33:10.000Z</time>
      </trkpt>
      <trkpt lat="36.46423048339784145355224609375" lon="-5.9280029498040676116943359375">
        <ele>248.8000030517578125</ele>
        <time>2019-11-04T09:33:18.000Z</time>
      </trkpt>
      <trkpt lat="36.464041806757450103759765625" lon="-5.92805215157568454742431640625">
        <ele>250.399993896484375</ele>
        <time>2019-11-04T09:33:27.000Z</time>
      </trkpt>
      <trkpt lat="36.46385849453508853912353515625" lon="-5.9281150996685028076171875">
        <ele>252.399993896484375</ele>
        <time>2019-11-04T09:33:36.000Z</time>
      </trkpt>
      <trkpt lat="36.46367174573242664337158203125" lon="-5.92815977521240711212158203125">
        <ele>253.600006103515625</ele>
        <time>2019-11-04T09:33:44.000Z</time>
      </trkpt>
      <trkpt lat="36.4634766988456249237060546875" lon="-5.92821090482175350189208984375">
        <ele>254.1999969482421875</ele>
        <time>2019-11-04T09:33:52.000Z</time>
      </trkpt>
      <trkpt lat="36.4632909558713436126708984375" lon="-5.9282733500003814697265625">
        <ele>254.399993896484375</ele>
        <time>2019-11-04T09:33:59.000Z</time>
      </trkpt>
      <trkpt lat="36.463111750781536102294921875" lon="-5.92831433750689029693603515625">
        <ele>255</ele>
        <time>2019-11-04T09:34:06.000Z</time>
      </trkpt>
      <trkpt lat="36.4629251696169376373291015625" lon="-5.92835976742208003997802734375">
        <ele>255.8000030517578125</ele>
        <time>2019-11-04T09:34:13.000Z</time>
      </trkpt>
      <trkpt lat="36.46273850463330745697021484375" lon="-5.92841156758368015289306640625">
        <ele>257</ele>
        <time>2019-11-04T09:34:19.000Z</time>
      </trkpt>
      <trkpt lat="36.46252342499792575836181640625" lon="-5.9284691512584686279296875">
        <ele>257.600006103515625</ele>
        <time>2019-11-04T09:34:24.000Z</time>
      </trkpt>
      <trkpt lat="36.46247363649308681488037109375" lon="-5.9284827299416065216064453125">
        <ele>257.600006103515625</ele>
        <time>2019-11-04T09:34:25.000Z</time>
      </trkpt>
      <trkpt lat="36.462271548807621002197265625" lon="-5.92856235802173614501953125">
        <ele>256.399993896484375</ele>
        <time>2019-11-04T09:34:29.000Z</time>
      </trkpt>
      <trkpt lat="36.4620397053658962249755859375" lon="-5.92866688035428524017333984375">
        <ele>255.600006103515625</ele>
        <time>2019-11-04T09:34:33.000Z</time>
      </trkpt>
      <trkpt lat="36.4618579857051372528076171875" lon="-5.9287271462380886077880859375">
        <ele>255</ele>
        <time>2019-11-04T09:34:36.000Z</time>
      </trkpt>
      <trkpt lat="36.46163276396691799163818359375" lon="-5.92880241572856903076171875">
        <ele>254</ele>
        <time>2019-11-04T09:34:40.000Z</time>
      </trkpt>
      <trkpt lat="36.46144182421267032623291015625" lon="-5.928876511752605438232421875">
        <ele>254.1999969482421875</ele>
        <time>2019-11-04T09:34:44.000Z</time>
      </trkpt>
      <trkpt lat="36.461252309381961822509765625" lon="-5.92894323170185089111328125">
        <ele>253.8000030517578125</ele>
        <time>2019-11-04T09:34:49.000Z</time>
      </trkpt>
      <trkpt lat="36.4611575938761234283447265625" lon="-5.92897541821002960205078125">
        <ele>253.399993896484375</ele>
        <time>2019-11-04T09:34:52.000Z</time>
      </trkpt>
      <trkpt lat="36.4609735272824764251708984375" lon="-5.92904440127313137054443359375">
        <ele>251.8000030517578125</ele>
        <time>2019-11-04T09:34:58.000Z</time>
      </trkpt>
      <trkpt lat="36.46093455143272876739501953125" lon="-5.92926870100200176239013671875">
        <ele>247.399993896484375</ele>
        <time>2019-11-04T09:35:03.000Z</time>
      </trkpt>
      <trkpt lat="36.4609460346400737762451171875" lon="-5.92939543537795543670654296875">
        <ele>245.399993896484375</ele>
        <time>2019-11-04T09:35:10.000Z</time>
      </trkpt>
      <trkpt lat="36.460859365761280059814453125" lon="-5.929266102612018585205078125">
        <ele>247.399993896484375</ele>
        <time>2019-11-04T09:47:46.000Z</time>
      </trkpt>
      <trkpt lat="36.46097042597830295562744140625" lon="-5.92927959747612476348876953125">
        <ele>247.1999969482421875</ele>
        <time>2019-11-04T09:47:52.000Z</time>
      </trkpt>
      <trkpt lat="36.46096372045576572418212890625" lon="-5.92931899242103099822998046875">
        <ele>246.600006103515625</ele>
        <time>2019-11-04T09:47:59.000Z</time>
      </trkpt>
      <trkpt lat="36.46095969714224338531494140625" lon="-5.92938185669481754302978515625">
        <ele>245.600006103515625</ele>
        <time>2019-11-04T09:48:00.000Z</time>
      </trkpt>
      <trkpt lat="36.46095835603773593902587890625" lon="-5.92944991774857044219970703125">
        <ele>244.399993896484375</ele>
        <time>2019-11-04T09:48:16.000Z</time>
      </trkpt>
      <trkpt lat="36.46095450036227703094482421875" lon="-5.9294526837766170501708984375">
        <ele>244.399993896484375</ele>
        <time>2019-11-04T09:48:19.000Z</time>
      </trkpt>
      <trkpt lat="36.46085542626678943634033203125" lon="-5.9294074214994907379150390625">
        <ele>245.1999969482421875</ele>
        <time>2019-11-04T09:49:39.000Z</time>
      </trkpt>
      <trkpt lat="36.46078853867948055267333984375" lon="-5.92940968461334705352783203125">
        <ele>245.8000030517578125</ele>
        <time>2019-11-04T09:49:42.000Z</time>
      </trkpt>
      <trkpt lat="36.46062098443508148193359375" lon="-5.9295579604804515838623046875">
        <ele>246</ele>
        <time>2019-11-04T09:49:48.000Z</time>
      </trkpt>
      <trkpt lat="36.46045024506747722625732421875" lon="-5.9297175519168376922607421875">
        <ele>246</ele>
        <time>2019-11-04T09:49:52.000Z</time>
      </trkpt>
      <trkpt lat="36.46034563891589641571044921875" lon="-5.92981888912618160247802734375">
        <ele>245.600006103515625</ele>
        <time>2019-11-04T09:49:54.000Z</time>
      </trkpt>
      <trkpt lat="36.4602419547736644744873046875" lon="-5.93003748916089534759521484375">
        <ele>243.399993896484375</ele>
        <time>2019-11-04T09:49:57.000Z</time>
      </trkpt>
      <trkpt lat="36.46022879518568515777587890625" lon="-5.9302570112049579620361328125">
        <ele>240.399993896484375</ele>
        <time>2019-11-04T09:50:00.000Z</time>
      </trkpt>
      <trkpt lat="36.46024807356297969818115234375" lon="-5.93054643832147121429443359375">
        <ele>235.8000030517578125</ele>
        <time>2019-11-04T09:50:04.000Z</time>
      </trkpt>
      <trkpt lat="36.46024790592491626739501953125" lon="-5.93068909831345081329345703125">
        <ele>233.1999969482421875</ele>
        <time>2019-11-04T09:50:06.000Z</time>
      </trkpt>
      <trkpt lat="36.46016257815062999725341796875" lon="-5.93095782212913036346435546875">
        <ele>231</ele>
        <time>2019-11-04T09:50:10.000Z</time>
      </trkpt>
      <trkpt lat="36.4600783400237560272216796875" lon="-5.93117323704063892364501953125">
        <ele>229.600006103515625</ele>
        <time>2019-11-04T09:50:13.000Z</time>
      </trkpt>
      <trkpt lat="36.459988318383693695068359375" lon="-5.93138311989605426788330078125">
        <ele>228.8000030517578125</ele>
        <time>2019-11-04T09:50:16.000Z</time>
      </trkpt>
      <trkpt lat="36.4597906731069087982177734375" lon="-5.9314301423728466033935546875">
        <ele>232.399993896484375</ele>
        <time>2019-11-04T09:50:20.000Z</time>
      </trkpt>
      <trkpt lat="36.45971129648387432098388671875" lon="-5.931411199271678924560546875">
        <ele>234.399993896484375</ele>
        <time>2019-11-04T09:50:22.000Z</time>
      </trkpt>
      <trkpt lat="36.459523625671863555908203125" lon="-5.931352861225605010986328125">
        <ele>237.1999969482421875</ele>
        <time>2019-11-04T09:50:28.000Z</time>
      </trkpt>
      <trkpt lat="36.45935657434165477752685546875" lon="-5.93126577325165271759033203125">
        <ele>238.399993896484375</ele>
        <time>2019-11-04T09:50:35.000Z</time>
      </trkpt>
      <trkpt lat="36.459184326231479644775390625" lon="-5.93129821121692657470703125">
        <ele>239.600006103515625</ele>
        <time>2019-11-04T09:50:42.000Z</time>
      </trkpt>
      <trkpt lat="36.45903320051729679107666015625" lon="-5.93142184428870677947998046875">
        <ele>239.8000030517578125</ele>
        <time>2019-11-04T09:50:49.000Z</time>
      </trkpt>
      <trkpt lat="36.4589776284992694854736328125" lon="-5.93142016790807247161865234375">
        <ele>240</ele>
        <time>2019-11-04T09:50:51.000Z</time>
      </trkpt>
      <trkpt lat="36.4589025266468524932861328125" lon="-5.93122713267803192138671875">
        <ele>241.8000030517578125</ele>
        <time>2019-11-04T09:50:58.000Z</time>
      </trkpt>
      <trkpt lat="36.458900682628154754638671875" lon="-5.93119704164564609527587890625">
        <ele>242</ele>
        <time>2019-11-04T09:50:59.000Z</time>
      </trkpt>
      <trkpt lat="36.45888349972665309906005859375" lon="-5.93096436001360416412353515625">
        <ele>243.8000030517578125</ele>
        <time>2019-11-04T09:51:06.000Z</time>
      </trkpt>
      <trkpt lat="36.45890596322715282440185546875" lon="-5.9307160042226314544677734375">
        <ele>244.600006103515625</ele>
        <time>2019-11-04T09:51:13.000Z</time>
      </trkpt>
      <trkpt lat="36.45893655717372894287109375" lon="-5.93047787435352802276611328125">
        <ele>246</ele>
        <time>2019-11-04T09:51:20.000Z</time>
      </trkpt>
      <trkpt lat="36.45896782167255878448486328125" lon="-5.93023681081831455230712890625">
        <ele>248.1999969482421875</ele>
        <time>2019-11-04T09:51:28.000Z</time>
      </trkpt>
      <trkpt lat="36.4588312804698944091796875" lon="-5.93007856048643589019775390625">
        <ele>249.399993896484375</ele>
        <time>2019-11-04T09:51:36.000Z</time>
      </trkpt>
      <trkpt lat="36.45879129879176616668701171875" lon="-5.93006062321364879608154296875">
        <ele>249.600006103515625</ele>
        <time>2019-11-04T09:51:43.000Z</time>
      </trkpt>
      <trkpt lat="36.45882599987089633941650390625" lon="-5.93001703731715679168701171875">
        <ele>250.1999969482421875</ele>
        <time>2019-11-04T09:51:53.000Z</time>
      </trkpt>
      <trkpt lat="36.45879901014268398284912109375" lon="-5.92997378669679164886474609375">
        <ele>250.600006103515625</ele>
        <time>2019-11-04T09:52:01.000Z</time>
      </trkpt>
      <trkpt lat="36.45879976451396942138671875" lon="-5.92997663654386997222900390625">
        <ele>250.600006103515625</ele>
        <time>2019-11-04T09:52:05.000Z</time>
      </trkpt>
      <trkpt lat="36.45869742147624492645263671875" lon="-5.9299079887568950653076171875">
        <ele>251.1999969482421875</ele>
        <time>2019-11-04T09:53:49.000Z</time>
      </trkpt>
      <trkpt lat="36.45855962298810482025146484375" lon="-5.92975535430014133453369140625">
        <ele>253.399993896484375</ele>
        <time>2019-11-04T09:53:58.000Z</time>
      </trkpt>
      <trkpt lat="36.4584090001881122589111328125" lon="-5.9296055696904659271240234375">
        <ele>255.600006103515625</ele>
        <time>2019-11-04T09:54:07.000Z</time>
      </trkpt>
      <trkpt lat="36.4582755602896213531494140625" lon="-5.92945394106209278106689453125">
        <ele>257.20001220703125</ele>
        <time>2019-11-04T09:54:15.000Z</time>
      </trkpt>
      <trkpt lat="36.4581580460071563720703125" lon="-5.92927590943872928619384765625">
        <ele>259.20001220703125</ele>
        <time>2019-11-04T09:54:23.000Z</time>
      </trkpt>
      <trkpt lat="36.45803868770599365234375" lon="-5.9290972910821437835693359375">
        <ele>261.399993896484375</ele>
        <time>2019-11-04T09:54:31.000Z</time>
      </trkpt>
      <trkpt lat="36.4578963629901409149169921875" lon="-5.92894566245377063751220703125">
        <ele>263.20001220703125</ele>
        <time>2019-11-04T09:54:39.000Z</time>
      </trkpt>
      <trkpt lat="36.4577418006956577301025390625" lon="-5.928803421556949615478515625">
        <ele>264.600006103515625</ele>
        <time>2019-11-04T09:54:47.000Z</time>
      </trkpt>
      <trkpt lat="36.45757642574608325958251953125" lon="-5.9287159144878387451171875">
        <ele>264.399993896484375</ele>
        <time>2019-11-04T09:54:55.000Z</time>
      </trkpt>
      <trkpt lat="36.45740644074976444244384765625" lon="-5.92863502912223339080810546875">
        <ele>264.399993896484375</ele>
        <time>2019-11-04T09:55:02.000Z</time>
      </trkpt>
      <trkpt lat="36.45722103305160999298095703125" lon="-5.92854685150086879730224609375">
        <ele>264</ele>
        <time>2019-11-04T09:55:08.000Z</time>
      </trkpt>
      <trkpt lat="36.45702808164060115814208984375" lon="-5.928444005548954010009765625">
        <ele>263.399993896484375</ele>
        <time>2019-11-04T09:55:14.000Z</time>
      </trkpt>
      <trkpt lat="36.456841416656970977783203125" lon="-5.92833445407450199127197265625">
        <ele>263</ele>
        <time>2019-11-04T09:55:19.000Z</time>
      </trkpt>
      <trkpt lat="36.4566786400973796844482421875" lon="-5.92820051126182079315185546875">
        <ele>263</ele>
        <time>2019-11-04T09:55:24.000Z</time>
      </trkpt>
      <trkpt lat="36.45651108585298061370849609375" lon="-5.92807612381875514984130859375">
        <ele>262.600006103515625</ele>
        <time>2019-11-04T09:55:29.000Z</time>
      </trkpt>
      <trkpt lat="36.4563500694930553436279296875" lon="-5.927971936762332916259765625">
        <ele>263</ele>
        <time>2019-11-04T09:55:35.000Z</time>
      </trkpt>
      <trkpt lat="36.456188969314098358154296875" lon="-5.927872359752655029296875">
        <ele>265</ele>
        <time>2019-11-04T09:55:46.000Z</time>
      </trkpt>
      <trkpt lat="36.4561274461448192596435546875" lon="-5.9278737008571624755859375">
        <ele>265.20001220703125</ele>
        <time>2019-11-04T09:55:53.000Z</time>
      </trkpt>
      <trkpt lat="36.4561304636299610137939453125" lon="-5.92787479050457477569580078125">
        <ele>265.20001220703125</ele>
        <time>2019-11-04T09:55:57.000Z</time>
      </trkpt>
      <trkpt lat="36.45620581693947315216064453125" lon="-5.9278302825987339019775390625">
        <ele>265.399993896484375</ele>
        <time>2019-11-04T09:56:03.000Z</time>
      </trkpt>
      <trkpt lat="36.4562059007585048675537109375" lon="-5.9278054721653461456298828125">
        <ele>265.600006103515625</ele>
        <time>2019-11-04T09:56:09.000Z</time>
      </trkpt>
      <trkpt lat="36.4562437869608402252197265625" lon="-5.92770866118371486663818359375">
        <ele>266.399993896484375</ele>
        <time>2019-11-04T09:56:40.000Z</time>
      </trkpt>
      <trkpt lat="36.4562308788299560546875" lon="-5.9276886284351348876953125">
        <ele>266.399993896484375</ele>
        <time>2019-11-04T09:56:47.000Z</time>
      </trkpt>
      <trkpt lat="36.45607254467904567718505859375" lon="-5.9276549331843852996826171875">
        <ele>266.79998779296875</ele>
        <time>2019-11-04T09:57:20.000Z</time>
      </trkpt>
      <trkpt lat="36.45596869289875030517578125" lon="-5.927662141621112823486328125">
        <ele>266.399993896484375</ele>
        <time>2019-11-04T09:57:25.000Z</time>
      </trkpt>
      <trkpt lat="36.45585042424499988555908203125" lon="-5.92768049798905849456787109375">
        <ele>265.79998779296875</ele>
        <time>2019-11-04T09:57:31.000Z</time>
      </trkpt>
      <trkpt lat="36.455670632421970367431640625" lon="-5.927592404186725616455078125">
        <ele>264.600006103515625</ele>
        <time>2019-11-04T09:57:41.000Z</time>
      </trkpt>
      <trkpt lat="36.4554919302463531494140625" lon="-5.92752140946686267852783203125">
        <ele>263.399993896484375</ele>
        <time>2019-11-04T09:57:48.000Z</time>
      </trkpt>
      <trkpt lat="36.4552802033722400665283203125" lon="-5.9274794161319732666015625">
        <ele>261.600006103515625</ele>
        <time>2019-11-04T09:57:54.000Z</time>
      </trkpt>
      <trkpt lat="36.45509856753051280975341796875" lon="-5.927411019802093505859375">
        <ele>259.79998779296875</ele>
        <time>2019-11-04T09:57:58.000Z</time>
      </trkpt>
      <trkpt lat="36.454972587525844573974609375" lon="-5.927325524389743804931640625">
        <ele>258.20001220703125</ele>
        <time>2019-11-04T09:58:01.000Z</time>
      </trkpt>
      <trkpt lat="36.45479564554989337921142578125" lon="-5.92719904147088527679443359375">
        <ele>258.20001220703125</ele>
        <time>2019-11-04T09:58:06.000Z</time>
      </trkpt>
      <trkpt lat="36.4546344615519046783447265625" lon="-5.9270467422902584075927734375">
        <ele>256.600006103515625</ele>
        <time>2019-11-04T09:58:12.000Z</time>
      </trkpt>
      <trkpt lat="36.454450897872447967529296875" lon="-5.9268958680331707000732421875">
        <ele>254.8000030517578125</ele>
        <time>2019-11-04T09:58:17.000Z</time>
      </trkpt>
      <trkpt lat="36.454293988645076751708984375" lon="-5.926773659884929656982421875">
        <ele>252.600006103515625</ele>
        <time>2019-11-04T09:58:21.000Z</time>
      </trkpt>
      <trkpt lat="36.454137749969959259033203125" lon="-5.92664415948092937469482421875">
        <ele>251.1999969482421875</ele>
        <time>2019-11-04T09:58:25.000Z</time>
      </trkpt>
      <trkpt lat="36.453982181847095489501953125" lon="-5.9265079535543918609619140625">
        <ele>250.1999969482421875</ele>
        <time>2019-11-04T09:58:29.000Z</time>
      </trkpt>
      <trkpt lat="36.45388017408549785614013671875" lon="-5.92641256749629974365234375">
        <ele>249.8000030517578125</ele>
        <time>2019-11-04T09:58:32.000Z</time>
      </trkpt>
      <trkpt lat="36.45375746302306652069091796875" lon="-5.92624903656542301177978515625">
        <ele>249</ele>
        <time>2019-11-04T09:58:36.000Z</time>
      </trkpt>
      <trkpt lat="36.4536500908434391021728515625" lon="-5.9260697476565837860107421875">
        <ele>249.399993896484375</ele>
        <time>2019-11-04T09:58:40.000Z</time>
      </trkpt>
      <trkpt lat="36.45352494902908802032470703125" lon="-5.9258913807570934295654296875">
        <ele>247.8000030517578125</ele>
        <time>2019-11-04T09:58:44.000Z</time>
      </trkpt>
      <trkpt lat="36.4533863961696624755859375" lon="-5.92569063417613506317138671875">
        <ele>243.600006103515625</ele>
        <time>2019-11-04T09:58:48.000Z</time>
      </trkpt>
      <trkpt lat="36.453270055353641510009765625" lon="-5.92551360838115215301513671875">
        <ele>240.399993896484375</ele>
        <time>2019-11-04T09:58:51.000Z</time>
      </trkpt>
      <trkpt lat="36.45312529988586902618408203125" lon="-5.92529299668967723846435546875">
        <ele>235.8000030517578125</ele>
        <time>2019-11-04T09:58:54.000Z</time>
      </trkpt>
      <trkpt lat="36.45301130600273609161376953125" lon="-5.9251095168292522430419921875">
        <ele>234.600006103515625</ele>
        <time>2019-11-04T09:58:56.000Z</time>
      </trkpt>
      <trkpt lat="36.45286747254431247711181640625" lon="-5.92492100782692432403564453125">
        <ele>232.8000030517578125</ele>
        <time>2019-11-04T09:58:58.000Z</time>
      </trkpt>
      <trkpt lat="36.45269505679607391357421875" lon="-5.92474021017551422119140625">
        <ele>231</ele>
        <time>2019-11-04T09:59:00.000Z</time>
      </trkpt>
      <trkpt lat="36.4525198750197887420654296875" lon="-5.92457667924463748931884765625">
        <ele>228.399993896484375</ele>
        <time>2019-11-04T09:59:02.000Z</time>
      </trkpt>
      <trkpt lat="36.4523653127253055572509765625" lon="-5.92441298067569732666015625">
        <ele>226.399993896484375</ele>
        <time>2019-11-04T09:59:04.000Z</time>
      </trkpt>
      <trkpt lat="36.45218300633132457733154296875" lon="-5.92418993823230266571044921875">
        <ele>224.600006103515625</ele>
        <time>2019-11-04T09:59:07.000Z</time>
      </trkpt>
      <trkpt lat="36.45212181843817234039306640625" lon="-5.92413512058556079864501953125">
        <ele>223.8000030517578125</ele>
        <time>2019-11-04T09:59:08.000Z</time>
      </trkpt>
      <trkpt lat="36.45193465054035186767578125" lon="-5.924018360674381256103515625">
        <ele>221</ele>
        <time>2019-11-04T09:59:11.000Z</time>
      </trkpt>
      <trkpt lat="36.45180313847959041595458984375" lon="-5.9238244034349918365478515625">
        <ele>220.1999969482421875</ele>
        <time>2019-11-04T09:59:14.000Z</time>
      </trkpt>
      <trkpt lat="36.45161571912467479705810546875" lon="-5.9236480481922626495361328125">
        <ele>218.8000030517578125</ele>
        <time>2019-11-04T09:59:17.000Z</time>
      </trkpt>
      <trkpt lat="36.4513484202325344085693359375" lon="-5.9235907159745693206787109375">
        <ele>216.8000030517578125</ele>
        <time>2019-11-04T09:59:20.000Z</time>
      </trkpt>
      <trkpt lat="36.451158486306667327880859375" lon="-5.92360035516321659088134765625">
        <ele>215.1999969482421875</ele>
        <time>2019-11-04T09:59:22.000Z</time>
      </trkpt>
      <trkpt lat="36.45097953267395496368408203125" lon="-5.92367780394852161407470703125">
        <ele>214.1999969482421875</ele>
        <time>2019-11-04T09:59:24.000Z</time>
      </trkpt>
      <trkpt lat="36.45081482827663421630859375" lon="-5.9237902052700519561767578125">
        <ele>213.8000030517578125</ele>
        <time>2019-11-04T09:59:26.000Z</time>
      </trkpt>
      <trkpt lat="36.4506165124475955963134765625" lon="-5.92393965460360050201416015625">
        <ele>214</ele>
        <time>2019-11-04T09:59:29.000Z</time>
      </trkpt>
      <trkpt lat="36.4505045302212238311767578125" lon="-5.92401626519858837127685546875">
        <ele>214</ele>
        <time>2019-11-04T09:59:34.000Z</time>
      </trkpt>
      <trkpt lat="36.45050226710736751556396484375" lon="-5.92402900569140911102294921875">
        <ele>213.600006103515625</ele>
        <time>2019-11-04T09:59:38.000Z</time>
      </trkpt>
      <trkpt lat="36.4504304341971874237060546875" lon="-5.92407041229307651519775390625">
        <ele>213</ele>
        <time>2019-11-04T10:00:25.000Z</time>
      </trkpt>
      <trkpt lat="36.45024008117616176605224609375" lon="-5.92418423853814601898193359375">
        <ele>211</ele>
        <time>2019-11-04T10:00:31.000Z</time>
      </trkpt>
      <trkpt lat="36.45002617500722408294677734375" lon="-5.9243063628673553466796875">
        <ele>207.600006103515625</ele>
        <time>2019-11-04T10:00:35.000Z</time>
      </trkpt>
      <trkpt lat="36.44981830380856990814208984375" lon="-5.92441692017018795013427734375">
        <ele>203.8000030517578125</ele>
        <time>2019-11-04T10:00:38.000Z</time>
      </trkpt>
      <trkpt lat="36.44955955445766448974609375" lon="-5.92444256879389286041259765625">
        <ele>199.600006103515625</ele>
        <time>2019-11-04T10:00:41.000Z</time>
      </trkpt>
      <trkpt lat="36.44938009791076183319091796875" lon="-5.9243682213127613067626953125">
        <ele>201</ele>
        <time>2019-11-04T10:00:43.000Z</time>
      </trkpt>
      <trkpt lat="36.4492013119161128997802734375" lon="-5.92423587106168270111083984375">
        <ele>201</ele>
        <time>2019-11-04T10:00:45.000Z</time>
      </trkpt>
      <trkpt lat="36.44910969771444797515869140625" lon="-5.9241519682109355926513671875">
        <ele>200.600006103515625</ele>
        <time>2019-11-04T10:00:46.000Z</time>
      </trkpt>
      <trkpt lat="36.44890903495252132415771484375" lon="-5.92398089356720447540283203125">
        <ele>200.399993896484375</ele>
        <time>2019-11-04T10:00:48.000Z</time>
      </trkpt>
      <trkpt lat="36.44870527088642120361328125" lon="-5.92377436347305774688720703125">
        <ele>197.399993896484375</ele>
        <time>2019-11-04T10:00:50.000Z</time>
      </trkpt>
      <trkpt lat="36.44860711880028247833251953125" lon="-5.92365433461964130401611328125">
        <ele>195.8000030517578125</ele>
        <time>2019-11-04T10:00:51.000Z</time>
      </trkpt>
      <trkpt lat="36.44842187874019145965576171875" lon="-5.923384688794612884521484375">
        <ele>192</ele>
        <time>2019-11-04T10:00:53.000Z</time>
      </trkpt>
      <trkpt lat="36.44823462702333927154541015625" lon="-5.92310531996190547943115234375">
        <ele>188.600006103515625</ele>
        <time>2019-11-04T10:00:55.000Z</time>
      </trkpt>
      <trkpt lat="36.44804544746875762939453125" lon="-5.9228219278156757354736328125">
        <ele>186</ele>
        <time>2019-11-04T10:00:57.000Z</time>
      </trkpt>
      <trkpt lat="36.4478813298046588897705078125" lon="-5.92251322232186794281005859375">
        <ele>183</ele>
        <time>2019-11-04T10:00:59.000Z</time>
      </trkpt>
      <trkpt lat="36.44777798093855381011962890625" lon="-5.92216587625443935394287109375">
        <ele>179</ele>
        <time>2019-11-04T10:01:01.000Z</time>
      </trkpt>
      <trkpt lat="36.44770774058997631072998046875" lon="-5.92182473279535770416259765625">
        <ele>172.8000030517578125</ele>
        <time>2019-11-04T10:01:03.000Z</time>
      </trkpt>
      <trkpt lat="36.4476955868303775787353515625" lon="-5.92165458016097545623779296875">
        <ele>171.1999969482421875</ele>
        <time>2019-11-04T10:01:04.000Z</time>
      </trkpt>
      <trkpt lat="36.44773221574723720550537109375" lon="-5.9213049709796905517578125">
        <ele>170.399993896484375</ele>
        <time>2019-11-04T10:01:06.000Z</time>
      </trkpt>
      <trkpt lat="36.4478474669158458709716796875" lon="-5.92095955274999141693115234375">
        <ele>168.600006103515625</ele>
        <time>2019-11-04T10:01:08.000Z</time>
      </trkpt>
      <trkpt lat="36.44802558235824108123779296875" lon="-5.9206171520054340362548828125">
        <ele>165</ele>
        <time>2019-11-04T10:01:10.000Z</time>
      </trkpt>
      <trkpt lat="36.44819204695522785186767578125" lon="-5.92030408792197704315185546875">
        <ele>161.600006103515625</ele>
        <time>2019-11-04T10:01:12.000Z</time>
      </trkpt>
      <trkpt lat="36.44834208302199840545654296875" lon="-5.92000477015972137451171875">
        <ele>158.600006103515625</ele>
        <time>2019-11-04T10:01:14.000Z</time>
      </trkpt>
      <trkpt lat="36.44845892675220966339111328125" lon="-5.91973177157342433929443359375">
        <ele>154</ele>
        <time>2019-11-04T10:01:16.000Z</time>
      </trkpt>
      <trkpt lat="36.448478959500789642333984375" lon="-5.91948014684021472930908203125">
        <ele>151.1999969482421875</ele>
        <time>2019-11-04T10:01:18.000Z</time>
      </trkpt>
      <trkpt lat="36.448407210409641265869140625" lon="-5.91923925094306468963623046875">
        <ele>149.399993896484375</ele>
        <time>2019-11-04T10:01:20.000Z</time>
      </trkpt>
      <trkpt lat="36.44828424789011478424072265625" lon="-5.91901863925158977508544921875">
        <ele>146.1999969482421875</ele>
        <time>2019-11-04T10:01:22.000Z</time>
      </trkpt>
      <trkpt lat="36.44807704724371433258056640625" lon="-5.91889274306595325469970703125">
        <ele>145.1999969482421875</ele>
        <time>2019-11-04T10:01:24.000Z</time>
      </trkpt>
      <trkpt lat="36.447833888232707977294921875" lon="-5.91888888739049434661865234375">
        <ele>143</ele>
        <time>2019-11-04T10:01:26.000Z</time>
      </trkpt>
      <trkpt lat="36.44759693183004856109619140625" lon="-5.9189565293490886688232421875">
        <ele>141.600006103515625</ele>
        <time>2019-11-04T10:01:28.000Z</time>
      </trkpt>
      <trkpt lat="36.4474786631762981414794921875" lon="-5.91900606639683246612548828125">
        <ele>141</ele>
        <time>2019-11-04T10:01:29.000Z</time>
      </trkpt>
      <trkpt lat="36.4472506754100322723388671875" lon="-5.91907815076410770416259765625">
        <ele>140</ele>
        <time>2019-11-04T10:01:31.000Z</time>
      </trkpt>
      <trkpt lat="36.44713542424142360687255859375" lon="-5.91909575276076793670654296875">
        <ele>139</ele>
        <time>2019-11-04T10:01:32.000Z</time>
      </trkpt>
      <trkpt lat="36.44691632129251956939697265625" lon="-5.9190385043621063232421875">
        <ele>136</ele>
        <time>2019-11-04T10:01:34.000Z</time>
      </trkpt>
      <trkpt lat="36.44673979841172695159912109375" lon="-5.91885066591203212738037109375">
        <ele>131.600006103515625</ele>
        <time>2019-11-04T10:01:36.000Z</time>
      </trkpt>
      <trkpt lat="36.4466562308371067047119140625" lon="-5.918737091124057769775390625">
        <ele>129.1999969482421875</ele>
        <time>2019-11-04T10:01:37.000Z</time>
      </trkpt>
      <trkpt lat="36.44649001769721508026123046875" lon="-5.9184918366372585296630859375">
        <ele>126</ele>
        <time>2019-11-04T10:01:39.000Z</time>
      </trkpt>
      <trkpt lat="36.44632539711892604827880859375" lon="-5.91821783222258090972900390625">
        <ele>123.8000030517578125</ele>
        <time>2019-11-04T10:01:41.000Z</time>
      </trkpt>
      <trkpt lat="36.44614451564848423004150390625" lon="-5.91794441454112529754638671875">
        <ele>122.40000152587890625</ele>
        <time>2019-11-04T10:01:43.000Z</time>
      </trkpt>
      <trkpt lat="36.44595458172261714935302734375" lon="-5.91766496188938617706298828125">
        <ele>119</ele>
        <time>2019-11-04T10:01:45.000Z</time>
      </trkpt>
      <trkpt lat="36.4457580260932445526123046875" lon="-5.91738467104732990264892578125">
        <ele>114.1999969482421875</ele>
        <time>2019-11-04T10:01:47.000Z</time>
      </trkpt>
      <trkpt lat="36.4455565251410007476806640625" lon="-5.91709616594016551971435546875">
        <ele>111.1999969482421875</ele>
        <time>2019-11-04T10:01:49.000Z</time>
      </trkpt>
      <trkpt lat="36.44535074941813945770263671875" lon="-5.9167990274727344512939453125">
        <ele>107.8000030517578125</ele>
        <time>2019-11-04T10:01:51.000Z</time>
      </trkpt>
      <trkpt lat="36.4451417885720729827880859375" lon="-5.9165019728243350982666015625">
        <ele>104.1999969482421875</ele>
        <time>2019-11-04T10:01:53.000Z</time>
      </trkpt>
      <trkpt lat="36.4449433051049709320068359375" lon="-5.91621053405106067657470703125">
        <ele>102.59999847412109375</ele>
        <time>2019-11-04T10:01:55.000Z</time>
      </trkpt>
      <trkpt lat="36.4447589032351970672607421875" lon="-5.9159527905285358428955078125">
        <ele>101.40000152587890625</ele>
        <time>2019-11-04T10:01:57.000Z</time>
      </trkpt>
      <trkpt lat="36.4445952884852886199951171875" lon="-5.91572471894323825836181640625">
        <ele>99.40000152587890625</ele>
        <time>2019-11-04T10:01:59.000Z</time>
      </trkpt>
      <trkpt lat="36.4444387145340442657470703125" lon="-5.91552271507680416107177734375">
        <ele>96.59999847412109375</ele>
        <time>2019-11-04T10:02:01.000Z</time>
      </trkpt>
      <trkpt lat="36.4442856609821319580078125" lon="-5.9153409115970134735107421875">
        <ele>95.1999969482421875</ele>
        <time>2019-11-04T10:02:03.000Z</time>
      </trkpt>
      <trkpt lat="36.44420594908297061920166015625" lon="-5.91526572592556476593017578125">
        <ele>95</ele>
        <time>2019-11-04T10:02:04.000Z</time>
      </trkpt>
      <trkpt lat="36.444034539163112640380859375" lon="-5.91514552943408489227294921875">
        <ele>94.1999969482421875</ele>
        <time>2019-11-04T10:02:06.000Z</time>
      </trkpt>
      <trkpt lat="36.44385323859751224517822265625" lon="-5.91508367098867893218994140625">
        <ele>92.8000030517578125</ele>
        <time>2019-11-04T10:02:08.000Z</time>
      </trkpt>
      <trkpt lat="36.443581916391849517822265625" lon="-5.91508098877966403961181640625">
        <ele>89.8000030517578125</ele>
        <time>2019-11-04T10:02:11.000Z</time>
      </trkpt>
      <trkpt lat="36.443394161760807037353515625" lon="-5.91511669568717479705810546875">
        <ele>87.8000030517578125</ele>
        <time>2019-11-04T10:02:13.000Z</time>
      </trkpt>
      <trkpt lat="36.443166173994541168212890625" lon="-5.91511853970587253570556640625">
        <ele>86</ele>
        <time>2019-11-04T10:02:16.000Z</time>
      </trkpt>
      <trkpt lat="36.44302074797451496124267578125" lon="-5.91496766544878482818603515625">
        <ele>84.40000152587890625</ele>
        <time>2019-11-04T10:02:20.000Z</time>
      </trkpt>
      <trkpt lat="36.44278907217085361480712890625" lon="-5.91489725746214389801025390625">
        <ele>83</ele>
        <time>2019-11-04T10:02:24.000Z</time>
      </trkpt>
      <trkpt lat="36.4425601623952388763427734375" lon="-5.91487395577132701873779296875">
        <ele>81.40000152587890625</ele>
        <time>2019-11-04T10:02:27.000Z</time>
      </trkpt>
      <trkpt lat="36.44230526871979236602783203125" lon="-5.9148435294628143310546875">
        <ele>78.40000152587890625</ele>
        <time>2019-11-04T10:02:30.000Z</time>
      </trkpt>
      <trkpt lat="36.44212371669709682464599609375" lon="-5.91481603682041168212890625">
        <ele>76.40000152587890625</ele>
        <time>2019-11-04T10:02:32.000Z</time>
      </trkpt>
      <trkpt lat="36.44193361513316631317138671875" lon="-5.91478644870221614837646484375">
        <ele>75.1999969482421875</ele>
        <time>2019-11-04T10:02:34.000Z</time>
      </trkpt>
      <trkpt lat="36.4417367242276668548583984375" lon="-5.9147550165653228759765625">
        <ele>76</ele>
        <time>2019-11-04T10:02:36.000Z</time>
      </trkpt>
      <trkpt lat="36.44153715111315250396728515625" lon="-5.9147233329713344573974609375">
        <ele>75.59999847412109375</ele>
        <time>2019-11-04T10:02:38.000Z</time>
      </trkpt>
      <trkpt lat="36.4413380809128284454345703125" lon="-5.91469173319637775421142578125">
        <ele>74.8000030517578125</ele>
        <time>2019-11-04T10:02:40.000Z</time>
      </trkpt>
      <trkpt lat="36.44114353694021701812744140625" lon="-5.91466440819203853607177734375">
        <ele>73.8000030517578125</ele>
        <time>2019-11-04T10:02:42.000Z</time>
      </trkpt>
      <trkpt lat="36.44095276482403278350830078125" lon="-5.91463456861674785614013671875">
        <ele>73</ele>
        <time>2019-11-04T10:02:44.000Z</time>
      </trkpt>
      <trkpt lat="36.4407684467732906341552734375" lon="-5.9146073274314403533935546875">
        <ele>72.59999847412109375</ele>
        <time>2019-11-04T10:02:46.000Z</time>
      </trkpt>
      <trkpt lat="36.44058630801737308502197265625" lon="-5.91458461247384548187255859375">
        <ele>71.40000152587890625</ele>
        <time>2019-11-04T10:02:48.000Z</time>
      </trkpt>
      <trkpt lat="36.4403191767632961273193359375" lon="-5.9145597182214260101318359375">
        <ele>71</ele>
        <time>2019-11-04T10:02:51.000Z</time>
      </trkpt>
      <trkpt lat="36.4400531351566314697265625" lon="-5.91453398577868938446044921875">
        <ele>71</ele>
        <time>2019-11-04T10:02:54.000Z</time>
      </trkpt>
      <trkpt lat="36.43979757092893123626708984375" lon="-5.914501212537288665771484375">
        <ele>70.1999969482421875</ele>
        <time>2019-11-04T10:02:57.000Z</time>
      </trkpt>
      <trkpt lat="36.43955617211759090423583984375" lon="-5.91446475125849246978759765625">
        <ele>69.40000152587890625</ele>
        <time>2019-11-04T10:03:00.000Z</time>
      </trkpt>
      <trkpt lat="36.43932290375232696533203125" lon="-5.9144339896738529205322265625">
        <ele>68.59999847412109375</ele>
        <time>2019-11-04T10:03:03.000Z</time>
      </trkpt>
      <trkpt lat="36.43909583799540996551513671875" lon="-5.914403982460498809814453125">
        <ele>68.1999969482421875</ele>
        <time>2019-11-04T10:03:06.000Z</time>
      </trkpt>
      <trkpt lat="36.438875310122966766357421875" lon="-5.91439425945281982421875">
        <ele>68.40000152587890625</ele>
        <time>2019-11-04T10:03:09.000Z</time>
      </trkpt>
      <trkpt lat="36.43865914084017276763916015625" lon="-5.914393924176692962646484375">
        <ele>69.1999969482421875</ele>
        <time>2019-11-04T10:03:12.000Z</time>
      </trkpt>
      <trkpt lat="36.43845613114535808563232421875" lon="-5.91438311152160167694091796875">
        <ele>69.40000152587890625</ele>
        <time>2019-11-04T10:03:15.000Z</time>
      </trkpt>
      <trkpt lat="36.43826477229595184326171875" lon="-5.91436265967786312103271484375">
        <ele>69.8000030517578125</ele>
        <time>2019-11-04T10:03:18.000Z</time>
      </trkpt>
      <trkpt lat="36.43808028660714626312255859375" lon="-5.9143427945673465728759765625">
        <ele>69.1999969482421875</ele>
        <time>2019-11-04T10:03:21.000Z</time>
      </trkpt>
      <trkpt lat="36.43789471127092838287353515625" lon="-5.914328880608081817626953125">
        <ele>67.8000030517578125</ele>
        <time>2019-11-04T10:03:24.000Z</time>
      </trkpt>
      <trkpt lat="36.4377154223620891571044921875" lon="-5.91434991918504238128662109375">
        <ele>66.59999847412109375</ele>
        <time>2019-11-04T10:03:27.000Z</time>
      </trkpt>
      <trkpt lat="36.43750059418380260467529296875" lon="-5.914434827864170074462890625">
        <ele>65.1999969482421875</ele>
        <time>2019-11-04T10:03:31.000Z</time>
      </trkpt>
      <trkpt lat="36.4372958242893218994140625" lon="-5.91456315480172634124755859375">
        <ele>65</ele>
        <time>2019-11-04T10:03:35.000Z</time>
      </trkpt>
      <trkpt lat="36.43709926865994930267333984375" lon="-5.91469223611056804656982421875">
        <ele>65</ele>
        <time>2019-11-04T10:03:39.000Z</time>
      </trkpt>
      <trkpt lat="36.43693028949201107025146484375" lon="-5.914799608290195465087890625">
        <ele>65.1999969482421875</ele>
        <time>2019-11-04T10:03:43.000Z</time>
      </trkpt>
      <trkpt lat="36.436769105494022369384765625" lon="-5.914920307695865631103515625">
        <ele>64.40000152587890625</ele>
        <time>2019-11-04T10:03:47.000Z</time>
      </trkpt>
      <trkpt lat="36.43660339526832103729248046875" lon="-5.9150270931422710418701171875">
        <ele>63.59999847412109375</ele>
        <time>2019-11-04T10:03:52.000Z</time>
      </trkpt>
      <trkpt lat="36.43652158789336681365966796875" lon="-5.915038995444774627685546875">
        <ele>63.59999847412109375</ele>
        <time>2019-11-04T10:03:54.000Z</time>
      </trkpt>
      <trkpt lat="36.43634221516549587249755859375" lon="-5.91491888277232646942138671875">
        <ele>65.1999969482421875</ele>
        <time>2019-11-04T10:03:58.000Z</time>
      </trkpt>
      <trkpt lat="36.43627147190272808074951171875" lon="-5.91479860246181488037109375">
        <ele>65.8000030517578125</ele>
        <time>2019-11-04T10:04:00.000Z</time>
      </trkpt>
      <trkpt lat="36.43615798093378543853759765625" lon="-5.9146073274314403533935546875">
        <ele>66</ele>
        <time>2019-11-04T10:04:03.000Z</time>
      </trkpt>
      <trkpt lat="36.4360219426453113555908203125" lon="-5.91443256475031375885009765625">
        <ele>65.1999969482421875</ele>
        <time>2019-11-04T10:04:06.000Z</time>
      </trkpt>
      <trkpt lat="36.43587752245366573333740234375" lon="-5.9142722189426422119140625">
        <ele>64.1999969482421875</ele>
        <time>2019-11-04T10:04:09.000Z</time>
      </trkpt>
      <trkpt lat="36.43582438118755817413330078125" lon="-5.9142241068184375762939453125">
        <ele>63.799999237060546875</ele>
        <time>2019-11-04T10:04:10.000Z</time>
      </trkpt>
      <trkpt lat="36.4356605149805545806884765625" lon="-5.91408915817737579345703125">
        <ele>63.40000152587890625</ele>
        <time>2019-11-04T10:04:13.000Z</time>
      </trkpt>
      <trkpt lat="36.43549178726971149444580078125" lon="-5.91396267525851726531982421875">
        <ele>62.799999237060546875</ele>
        <time>2019-11-04T10:04:16.000Z</time>
      </trkpt>
      <trkpt lat="36.4353074692189693450927734375" lon="-5.913854129612445831298828125">
        <ele>62.40000152587890625</ele>
        <time>2019-11-04T10:04:19.000Z</time>
      </trkpt>
      <trkpt lat="36.4351203851401805877685546875" lon="-5.91376033611595630645751953125">
        <ele>61.40000152587890625</ele>
        <time>2019-11-04T10:04:22.000Z</time>
      </trkpt>
      <trkpt lat="36.43492802046239376068115234375" lon="-5.913680456578731536865234375">
        <ele>60.799999237060546875</ele>
        <time>2019-11-04T10:04:25.000Z</time>
      </trkpt>
      <trkpt lat="36.43473372794687747955322265625" lon="-5.9136132337152957916259765625">
        <ele>60.40000152587890625</ele>
        <time>2019-11-04T10:04:28.000Z</time>
      </trkpt>
      <trkpt lat="36.43453993834555149078369140625" lon="-5.91355548240244388580322265625">
        <ele>61.59999847412109375</ele>
        <time>2019-11-04T10:04:31.000Z</time>
      </trkpt>
      <trkpt lat="36.43434472382068634033203125" lon="-5.9135049395263195037841796875">
        <ele>62.200000762939453125</ele>
        <time>2019-11-04T10:04:34.000Z</time>
      </trkpt>
      <trkpt lat="36.43415286205708980560302734375" lon="-5.9134479425847530364990234375">
        <ele>63</ele>
        <time>2019-11-04T10:04:37.000Z</time>
      </trkpt>
      <trkpt lat="36.4339603297412395477294921875" lon="-5.9133761934936046600341796875">
        <ele>62.799999237060546875</ele>
        <time>2019-11-04T10:04:40.000Z</time>
      </trkpt>
      <trkpt lat="36.43376293592154979705810546875" lon="-5.913282148540019989013671875">
        <ele>61.59999847412109375</ele>
        <time>2019-11-04T10:04:43.000Z</time>
      </trkpt>
      <trkpt lat="36.4335613511502742767333984375" lon="-5.9131713397800922393798828125">
        <ele>60</ele>
        <time>2019-11-04T10:04:46.000Z</time>
      </trkpt>
      <trkpt lat="36.433360017836093902587890625" lon="-5.9130539931356906890869140625">
        <ele>59.799999237060546875</ele>
        <time>2019-11-04T10:04:49.000Z</time>
      </trkpt>
      <trkpt lat="36.43316329456865787506103515625" lon="-5.91294226236641407012939453125">
        <ele>60.200000762939453125</ele>
        <time>2019-11-04T10:04:52.000Z</time>
      </trkpt>
      <trkpt lat="36.43296539783477783203125" lon="-5.91283522546291351318359375">
        <ele>60</ele>
        <time>2019-11-04T10:04:55.000Z</time>
      </trkpt>
      <trkpt lat="36.43276733346283435821533203125" lon="-5.91272634454071521759033203125">
        <ele>59.40000152587890625</ele>
        <time>2019-11-04T10:04:58.000Z</time>
      </trkpt>
      <trkpt lat="36.43256583251059055328369140625" lon="-5.91261486522853374481201171875">
        <ele>58.40000152587890625</ele>
        <time>2019-11-04T10:05:01.000Z</time>
      </trkpt>
      <trkpt lat="36.432361565530300140380859375" lon="-5.91249768622219562530517578125">
        <ele>57.200000762939453125</ele>
        <time>2019-11-04T10:05:04.000Z</time>
      </trkpt>
      <trkpt lat="36.43216165713965892791748046875" lon="-5.91238536871969699859619140625">
        <ele>56.799999237060546875</ele>
        <time>2019-11-04T10:05:07.000Z</time>
      </trkpt>
      <trkpt lat="36.4319681189954280853271484375" lon="-5.9122764877974987030029296875">
        <ele>56.200000762939453125</ele>
        <time>2019-11-04T10:05:10.000Z</time>
      </trkpt>
      <trkpt lat="36.43177474848926067352294921875" lon="-5.91218386776745319366455078125">
        <ele>57</ele>
        <time>2019-11-04T10:05:13.000Z</time>
      </trkpt>
      <trkpt lat="36.43159420229494571685791015625" lon="-5.9121014736592769622802734375">
        <ele>56.799999237060546875</ele>
        <time>2019-11-04T10:05:16.000Z</time>
      </trkpt>
      <trkpt lat="36.4314092136919498443603515625" lon="-5.91202511452138423919677734375">
        <ele>56.200000762939453125</ele>
        <time>2019-11-04T10:05:19.000Z</time>
      </trkpt>
      <trkpt lat="36.431220956146717071533203125" lon="-5.911940373480319976806640625">
        <ele>55.40000152587890625</ele>
        <time>2019-11-04T10:05:22.000Z</time>
      </trkpt>
      <trkpt lat="36.43102691508829593658447265625" lon="-5.9118630923330783843994140625">
        <ele>54</ele>
        <time>2019-11-04T10:05:25.000Z</time>
      </trkpt>
      <trkpt lat="36.4308342151343822479248046875" lon="-5.91176728717982769012451171875">
        <ele>53</ele>
        <time>2019-11-04T10:05:28.000Z</time>
      </trkpt>
      <trkpt lat="36.43064185045659542083740234375" lon="-5.9116838872432708740234375">
        <ele>53.40000152587890625</ele>
        <time>2019-11-04T10:05:31.000Z</time>
      </trkpt>
      <trkpt lat="36.43046046607196331024169921875" lon="-5.9115873277187347412109375">
        <ele>53.200000762939453125</ele>
        <time>2019-11-04T10:05:34.000Z</time>
      </trkpt>
      <trkpt lat="36.43027740530669689178466796875" lon="-5.91147542931139469146728515625">
        <ele>54</ele>
        <time>2019-11-04T10:05:37.000Z</time>
      </trkpt>
      <trkpt lat="36.43009610474109649658203125" lon="-5.91134903021156787872314453125">
        <ele>54.59999847412109375</ele>
        <time>2019-11-04T10:05:40.000Z</time>
      </trkpt>
      <trkpt lat="36.4299105294048786163330078125" lon="-5.91122430749237537384033203125">
        <ele>55</ele>
        <time>2019-11-04T10:05:43.000Z</time>
      </trkpt>
      <trkpt lat="36.42973073758184909820556640625" lon="-5.9110973216593265533447265625">
        <ele>55.40000152587890625</ele>
        <time>2019-11-04T10:05:46.000Z</time>
      </trkpt>
      <trkpt lat="36.4295571483671665191650390625" lon="-5.91097385622560977935791015625">
        <ele>55.40000152587890625</ele>
        <time>2019-11-04T10:05:49.000Z</time>
      </trkpt>
      <trkpt lat="36.42939043231308460235595703125" lon="-5.91084645129740238189697265625">
        <ele>54.799999237060546875</ele>
        <time>2019-11-04T10:05:52.000Z</time>
      </trkpt>
      <trkpt lat="36.4292275719344615936279296875" lon="-5.910728015005588531494140625">
        <ele>53.59999847412109375</ele>
        <time>2019-11-04T10:05:55.000Z</time>
      </trkpt>
      <trkpt lat="36.4290673099458217620849609375" lon="-5.910614021122455596923828125">
        <ele>52.799999237060546875</ele>
        <time>2019-11-04T10:05:58.000Z</time>
      </trkpt>
      <trkpt lat="36.4288775436580181121826171875" lon="-5.91044604778289794921875">
        <ele>52</ele>
        <time>2019-11-04T10:06:02.000Z</time>
      </trkpt>
      <trkpt lat="36.4286805689334869384765625" lon="-5.91030430980026721954345703125">
        <ele>51.40000152587890625</ele>
        <time>2019-11-04T10:06:06.000Z</time>
      </trkpt>
      <trkpt lat="36.42848837189376354217529296875" lon="-5.91016232036054134368896484375">
        <ele>51.799999237060546875</ele>
        <time>2019-11-04T10:06:10.000Z</time>
      </trkpt>
      <trkpt lat="36.4282961748540401458740234375" lon="-5.91002418659627437591552734375">
        <ele>52</ele>
        <time>2019-11-04T10:06:14.000Z</time>
      </trkpt>
      <trkpt lat="36.4281047321856021881103515625" lon="-5.9098841249942779541015625">
        <ele>51.799999237060546875</ele>
        <time>2019-11-04T10:06:18.000Z</time>
      </trkpt>
      <trkpt lat="36.42791010439395904541015625" lon="-5.90973861515522003173828125">
        <ele>52</ele>
        <time>2019-11-04T10:06:22.000Z</time>
      </trkpt>
      <trkpt lat="36.4277047477662563323974609375" lon="-5.90959939174354076385498046875">
        <ele>52.200000762939453125</ele>
        <time>2019-11-04T10:06:26.000Z</time>
      </trkpt>
      <trkpt lat="36.4275488443672657012939453125" lon="-5.909480787813663482666015625">
        <ele>51.59999847412109375</ele>
        <time>2019-11-04T10:06:29.000Z</time>
      </trkpt>
      <trkpt lat="36.42738330177962779998779296875" lon="-5.9093733318150043487548828125">
        <ele>50.59999847412109375</ele>
        <time>2019-11-04T10:06:32.000Z</time>
      </trkpt>
      <trkpt lat="36.427217088639736175537109375" lon="-5.9092613495886325836181640625">
        <ele>50</ele>
        <time>2019-11-04T10:06:35.000Z</time>
      </trkpt>
      <trkpt lat="36.427040733397006988525390625" lon="-5.90914785861968994140625">
        <ele>50.200000762939453125</ele>
        <time>2019-11-04T10:06:38.000Z</time>
      </trkpt>
      <trkpt lat="36.4268625341355800628662109375" lon="-5.909040905535221099853515625">
        <ele>50.799999237060546875</ele>
        <time>2019-11-04T10:06:41.000Z</time>
      </trkpt>
      <trkpt lat="36.4266841672360897064208984375" lon="-5.90893085114657878875732421875">
        <ele>51.59999847412109375</ele>
        <time>2019-11-04T10:06:44.000Z</time>
      </trkpt>
      <trkpt lat="36.42650102265179157257080078125" lon="-5.9088261611759662628173828125">
        <ele>52.40000152587890625</ele>
        <time>2019-11-04T10:06:47.000Z</time>
      </trkpt>
      <trkpt lat="36.4263217337429523468017578125" lon="-5.9087307751178741455078125">
        <ele>53.200000762939453125</ele>
        <time>2019-11-04T10:06:50.000Z</time>
      </trkpt>
      <trkpt lat="36.42614345066249370574951171875" lon="-5.90864427387714385986328125">
        <ele>53.40000152587890625</ele>
        <time>2019-11-04T10:06:53.000Z</time>
      </trkpt>
      <trkpt lat="36.42597019672393798828125" lon="-5.90856959111988544464111328125">
        <ele>52.799999237060546875</ele>
        <time>2019-11-04T10:06:56.000Z</time>
      </trkpt>
      <trkpt lat="36.42575738020241260528564453125" lon="-5.9084747917950153350830078125">
        <ele>52.200000762939453125</ele>
        <time>2019-11-04T10:07:00.000Z</time>
      </trkpt>
      <trkpt lat="36.4255408756434917449951171875" lon="-5.908367671072483062744140625">
        <ele>52</ele>
        <time>2019-11-04T10:07:04.000Z</time>
      </trkpt>
      <trkpt lat="36.42537047155201435089111328125" lon="-5.90828460641205310821533203125">
        <ele>52.40000152587890625</ele>
        <time>2019-11-04T10:07:07.000Z</time>
      </trkpt>
      <trkpt lat="36.42520048655569553375244140625" lon="-5.9082065708935260772705078125">
        <ele>52.200000762939453125</ele>
        <time>2019-11-04T10:07:10.000Z</time>
      </trkpt>
      <trkpt lat="36.42502404749393463134765625" lon="-5.9081277810037136077880859375">
        <ele>51.799999237060546875</ele>
        <time>2019-11-04T10:07:13.000Z</time>
      </trkpt>
      <trkpt lat="36.42484392039477825164794921875" lon="-5.90805125422775745391845703125">
        <ele>52.40000152587890625</ele>
        <time>2019-11-04T10:07:16.000Z</time>
      </trkpt>
      <trkpt lat="36.42466337420046329498291015625" lon="-5.9079728834331035614013671875">
        <ele>52.200000762939453125</ele>
        <time>2019-11-04T10:07:19.000Z</time>
      </trkpt>
      <trkpt lat="36.4244800619781017303466796875" lon="-5.90790054760873317718505859375">
        <ele>52</ele>
        <time>2019-11-04T10:07:22.000Z</time>
      </trkpt>
      <trkpt lat="36.4242956601083278656005859375" lon="-5.907808430492877960205078125">
        <ele>51.799999237060546875</ele>
        <time>2019-11-04T10:07:25.000Z</time>
      </trkpt>
      <trkpt lat="36.424113102257251739501953125" lon="-5.907727293670177459716796875">
        <ele>51.200000762939453125</ele>
        <time>2019-11-04T10:07:28.000Z</time>
      </trkpt>
      <trkpt lat="36.42393565736711025238037109375" lon="-5.90765479020774364471435546875">
        <ele>51.59999847412109375</ele>
        <time>2019-11-04T10:07:31.000Z</time>
      </trkpt>
      <trkpt lat="36.42374773509800434112548828125" lon="-5.90762377716600894927978515625">
        <ele>52</ele>
        <time>2019-11-04T10:07:34.000Z</time>
      </trkpt>
      <trkpt lat="36.42355511896312236785888671875" lon="-5.90760969556868076324462890625">
        <ele>52</ele>
        <time>2019-11-04T10:07:37.000Z</time>
      </trkpt>
      <trkpt lat="36.42335437238216400146484375" lon="-5.90762042440474033355712890625">
        <ele>52</ele>
        <time>2019-11-04T10:07:40.000Z</time>
      </trkpt>
      <trkpt lat="36.4231624267995357513427734375" lon="-5.90763718821108341217041015625">
        <ele>52.200000762939453125</ele>
        <time>2019-11-04T10:07:43.000Z</time>
      </trkpt>
      <trkpt lat="36.4229728281497955322265625" lon="-5.9076650999486446380615234375">
        <ele>52.200000762939453125</ele>
        <time>2019-11-04T10:07:46.000Z</time>
      </trkpt>
      <trkpt lat="36.4227825589478015899658203125" lon="-5.90769837610423564910888671875">
        <ele>51.200000762939453125</ele>
        <time>2019-11-04T10:07:49.000Z</time>
      </trkpt>
      <trkpt lat="36.42257862724363803863525390625" lon="-5.90774464420974254608154296875">
        <ele>50.40000152587890625</ele>
        <time>2019-11-04T10:07:52.000Z</time>
      </trkpt>
      <trkpt lat="36.4223711751401424407958984375" lon="-5.90778856538236141204833984375">
        <ele>49.40000152587890625</ele>
        <time>2019-11-04T10:07:55.000Z</time>
      </trkpt>
      <trkpt lat="36.4221616275608539581298828125" lon="-5.90783986262977123260498046875">
        <ele>48.40000152587890625</ele>
        <time>2019-11-04T10:07:58.000Z</time>
      </trkpt>
      <trkpt lat="36.42194260843098163604736328125" lon="-5.90788914822041988372802734375">
        <ele>48</ele>
        <time>2019-11-04T10:08:01.000Z</time>
      </trkpt>
      <trkpt lat="36.42171964980661869049072265625" lon="-5.9079373441636562347412109375">
        <ele>47.59999847412109375</ele>
        <time>2019-11-04T10:08:04.000Z</time>
      </trkpt>
      <trkpt lat="36.4215028099715709686279296875" lon="-5.90798017568886280059814453125">
        <ele>47.59999847412109375</ele>
        <time>2019-11-04T10:08:07.000Z</time>
      </trkpt>
      <trkpt lat="36.4212882332503795623779296875" lon="-5.90802711434662342071533203125">
        <ele>48.200000762939453125</ele>
        <time>2019-11-04T10:08:10.000Z</time>
      </trkpt>
      <trkpt lat="36.421096287667751312255859375" lon="-5.90804438106715679168701171875">
        <ele>48.59999847412109375</ele>
        <time>2019-11-04T10:08:13.000Z</time>
      </trkpt>
      <trkpt lat="36.42088967375457286834716796875" lon="-5.90809215791523456573486328125">
        <ele>48.799999237060546875</ele>
        <time>2019-11-04T10:08:16.000Z</time>
      </trkpt>
      <trkpt lat="36.42068549059331417083740234375" lon="-5.9081354923546314239501953125">
        <ele>48.59999847412109375</ele>
        <time>2019-11-04T10:08:19.000Z</time>
      </trkpt>
      <trkpt lat="36.4204865880310535430908203125" lon="-5.90818067081272602081298828125">
        <ele>48.200000762939453125</ele>
        <time>2019-11-04T10:08:22.000Z</time>
      </trkpt>
      <trkpt lat="36.4202870987355709075927734375" lon="-5.90822811238467693328857421875">
        <ele>48.59999847412109375</ele>
        <time>2019-11-04T10:08:25.000Z</time>
      </trkpt>
      <trkpt lat="36.42009238712489604949951171875" lon="-5.90827236883342266082763671875">
        <ele>48.59999847412109375</ele>
        <time>2019-11-04T10:08:28.000Z</time>
      </trkpt>
      <trkpt lat="36.41989834606647491455078125" lon="-5.90831913985311985015869140625">
        <ele>48.40000152587890625</ele>
        <time>2019-11-04T10:08:31.000Z</time>
      </trkpt>
      <trkpt lat="36.419706232845783233642578125" lon="-5.90836004354059696197509765625">
        <ele>48.40000152587890625</ele>
        <time>2019-11-04T10:08:34.000Z</time>
      </trkpt>
      <trkpt lat="36.41951587982475757598876953125" lon="-5.9084030427038669586181640625">
        <ele>48.200000762939453125</ele>
        <time>2019-11-04T10:08:37.000Z</time>
      </trkpt>
      <trkpt lat="36.4193315617740154266357421875" lon="-5.908454172313213348388671875">
        <ele>48.200000762939453125</ele>
        <time>2019-11-04T10:08:40.000Z</time>
      </trkpt>
      <trkpt lat="36.419150345027446746826171875" lon="-5.90850169770419597625732421875">
        <ele>48.799999237060546875</ele>
        <time>2019-11-04T10:08:43.000Z</time>
      </trkpt>
      <trkpt lat="36.41892294399440288543701171875" lon="-5.90856389142572879791259765625">
        <ele>48.200000762939453125</ele>
        <time>2019-11-04T10:08:47.000Z</time>
      </trkpt>
      <trkpt lat="36.41872814856469631195068359375" lon="-5.908617787063121795654296875">
        <ele>47.59999847412109375</ele>
        <time>2019-11-04T10:08:51.000Z</time>
      </trkpt>
      <trkpt lat="36.41853712499141693115234375" lon="-5.90865994803607463836669921875">
        <ele>47.40000152587890625</ele>
        <time>2019-11-04T10:08:56.000Z</time>
      </trkpt>
      <trkpt lat="36.41844517551362514495849609375" lon="-5.90868023224174976348876953125">
        <ele>48</ele>
        <time>2019-11-04T10:08:59.000Z</time>
      </trkpt>
      <trkpt lat="36.418377198278903961181640625" lon="-5.908708982169628143310546875">
        <ele>48.59999847412109375</ele>
        <time>2019-11-04T10:09:05.000Z</time>
      </trkpt>
      <trkpt lat="36.41836638562381267547607421875" lon="-5.90871132910251617431640625">
        <ele>48.59999847412109375</ele>
        <time>2019-11-04T10:09:07.000Z</time>
      </trkpt>
      <trkpt lat="36.4182600192725658416748046875" lon="-5.90869800187647342681884765625">
        <ele>49</ele>
        <time>2019-11-04T10:16:03.000Z</time>
      </trkpt>
      <trkpt lat="36.41806446947157382965087890625" lon="-5.908725745975971221923828125">
        <ele>50</ele>
        <time>2019-11-04T10:16:10.000Z</time>
      </trkpt>
      <trkpt lat="36.41787956468760967254638671875" lon="-5.9087450243532657623291015625">
        <ele>50.40000152587890625</ele>
        <time>2019-11-04T10:16:15.000Z</time>
      </trkpt>
      <trkpt lat="36.41768225468695163726806640625" lon="-5.90873815119266510009765625">
        <ele>50.799999237060546875</ele>
        <time>2019-11-04T10:16:20.000Z</time>
      </trkpt>
      <trkpt lat="36.41748729161918163299560546875" lon="-5.90871878899633884429931640625">
        <ele>51.799999237060546875</ele>
        <time>2019-11-04T10:16:25.000Z</time>
      </trkpt>
      <trkpt lat="36.4172873832285404205322265625" lon="-5.90867335908114910125732421875">
        <ele>53</ele>
        <time>2019-11-04T10:16:30.000Z</time>
      </trkpt>
      <trkpt lat="36.4170778356492519378662109375" lon="-5.9085995145142078399658203125">
        <ele>52.799999237060546875</ele>
        <time>2019-11-04T10:16:35.000Z</time>
      </trkpt>
      <trkpt lat="36.41689921729266643524169921875" lon="-5.90852566994726657867431640625">
        <ele>52.40000152587890625</ele>
        <time>2019-11-04T10:16:39.000Z</time>
      </trkpt>
      <trkpt lat="36.416711546480655670166015625" lon="-5.90844151563942432403564453125">
        <ele>51.59999847412109375</ele>
        <time>2019-11-04T10:16:43.000Z</time>
      </trkpt>
      <trkpt lat="36.41651800833642482757568359375" lon="-5.90834596194326877593994140625">
        <ele>51</ele>
        <time>2019-11-04T10:16:47.000Z</time>
      </trkpt>
      <trkpt lat="36.41631701029837131500244140625" lon="-5.9082551859319210052490234375">
        <ele>50.200000762939453125</ele>
        <time>2019-11-04T10:16:51.000Z</time>
      </trkpt>
      <trkpt lat="36.416113078594207763671875" lon="-5.90815854258835315704345703125">
        <ele>50.799999237060546875</ele>
        <time>2019-11-04T10:16:55.000Z</time>
      </trkpt>
      <trkpt lat="36.415893137454986572265625" lon="-5.9080610610544681549072265625">
        <ele>50.59999847412109375</ele>
        <time>2019-11-04T10:16:59.000Z</time>
      </trkpt>
      <trkpt lat="36.41572223044931888580322265625" lon="-5.907984115183353424072265625">
        <ele>50.40000152587890625</ele>
        <time>2019-11-04T10:17:02.000Z</time>
      </trkpt>
      <trkpt lat="36.41554352827370166778564453125" lon="-5.90790331363677978515625">
        <ele>49.200000762939453125</ele>
        <time>2019-11-04T10:17:05.000Z</time>
      </trkpt>
      <trkpt lat="36.4153578691184520721435546875" lon="-5.90781815350055694580078125">
        <ele>46.40000152587890625</ele>
        <time>2019-11-04T10:17:08.000Z</time>
      </trkpt>
      <trkpt lat="36.4151570387184619903564453125" lon="-5.90772720985114574432373046875">
        <ele>45.40000152587890625</ele>
        <time>2019-11-04T10:17:11.000Z</time>
      </trkpt>
      <trkpt lat="36.414951346814632415771484375" lon="-5.90763173997402191162109375">
        <ele>45.200000762939453125</ele>
        <time>2019-11-04T10:17:14.000Z</time>
      </trkpt>
      <trkpt lat="36.4147510193288326263427734375" lon="-5.90754054486751556396484375">
        <ele>45.40000152587890625</ele>
        <time>2019-11-04T10:17:17.000Z</time>
      </trkpt>
      <trkpt lat="36.41455027274787425994873046875" lon="-5.90744205750524997711181640625">
        <ele>45.40000152587890625</ele>
        <time>2019-11-04T10:17:20.000Z</time>
      </trkpt>
      <trkpt lat="36.41435447148978710174560546875" lon="-5.9073435701429843902587890625">
        <ele>46</ele>
        <time>2019-11-04T10:17:23.000Z</time>
      </trkpt>
      <trkpt lat="36.41415967606008052825927734375" lon="-5.907253213226795196533203125">
        <ele>45.59999847412109375</ele>
        <time>2019-11-04T10:17:26.000Z</time>
      </trkpt>
      <trkpt lat="36.41396605409681797027587890625" lon="-5.90716813690960407257080078125">
        <ele>45.40000152587890625</ele>
        <time>2019-11-04T10:17:29.000Z</time>
      </trkpt>
      <trkpt lat="36.4137755334377288818359375" lon="-5.90708582662045955657958984375">
        <ele>44.799999237060546875</ele>
        <time>2019-11-04T10:17:32.000Z</time>
      </trkpt>
      <trkpt lat="36.41359381377696990966796875" lon="-5.9070019237697124481201171875">
        <ele>43.799999237060546875</ele>
        <time>2019-11-04T10:17:35.000Z</time>
      </trkpt>
      <trkpt lat="36.4134089089930057525634765625" lon="-5.90691919438540935516357421875">
        <ele>43.59999847412109375</ele>
        <time>2019-11-04T10:17:38.000Z</time>
      </trkpt>
      <trkpt lat="36.41322844661772251129150390625" lon="-5.9068332798779010772705078125">
        <ele>43</ele>
        <time>2019-11-04T10:17:41.000Z</time>
      </trkpt>
      <trkpt lat="36.413048990070819854736328125" lon="-5.9067514725029468536376953125">
        <ele>43</ele>
        <time>2019-11-04T10:17:44.000Z</time>
      </trkpt>
      <trkpt lat="36.41286559402942657470703125" lon="-5.90665499679744243621826171875">
        <ele>42.59999847412109375</ele>
        <time>2019-11-04T10:17:47.000Z</time>
      </trkpt>
      <trkpt lat="36.41267649829387664794921875" lon="-5.9065690822899341583251953125">
        <ele>41.59999847412109375</ele>
        <time>2019-11-04T10:17:50.000Z</time>
      </trkpt>
      <trkpt lat="36.41249276697635650634765625" lon="-5.906479060649871826171875">
        <ele>41.799999237060546875</ele>
        <time>2019-11-04T10:17:53.000Z</time>
      </trkpt>
      <trkpt lat="36.41230744309723377227783203125" lon="-5.9063856862485408782958984375">
        <ele>42.799999237060546875</ele>
        <time>2019-11-04T10:17:56.000Z</time>
      </trkpt>
      <trkpt lat="36.41212337650358676910400390625" lon="-5.9062971733510494232177734375">
        <ele>43.200000762939453125</ele>
        <time>2019-11-04T10:17:59.000Z</time>
      </trkpt>
      <trkpt lat="36.4119435846805572509765625" lon="-5.90621461160480976104736328125">
        <ele>43</ele>
        <time>2019-11-04T10:18:02.000Z</time>
      </trkpt>
      <trkpt lat="36.41177703626453876495361328125" lon="-5.90612056665122509002685546875">
        <ele>43.200000762939453125</ele>
        <time>2019-11-04T10:18:05.000Z</time>
      </trkpt>
      <trkpt lat="36.41161501407623291015625" lon="-5.90600992552936077117919921875">
        <ele>43.200000762939453125</ele>
        <time>2019-11-04T10:18:08.000Z</time>
      </trkpt>
      <trkpt lat="36.41145986504852771759033203125" lon="-5.90588469989597797393798828125">
        <ele>43.59999847412109375</ele>
        <time>2019-11-04T10:18:11.000Z</time>
      </trkpt>
      <trkpt lat="36.41130362637341022491455078125" lon="-5.90576492249965667724609375">
        <ele>44.200000762939453125</ele>
        <time>2019-11-04T10:18:14.000Z</time>
      </trkpt>
      <trkpt lat="36.41113917343318462371826171875" lon="-5.90563944540917873382568359375">
        <ele>45.59999847412109375</ele>
        <time>2019-11-04T10:18:17.000Z</time>
      </trkpt>
      <trkpt lat="36.410974301397800445556640625" lon="-5.9055082686245441436767578125">
        <ele>44.799999237060546875</ele>
        <time>2019-11-04T10:18:20.000Z</time>
      </trkpt>
      <trkpt lat="36.4108081720769405364990234375" lon="-5.90537172742187976837158203125">
        <ele>45.799999237060546875</ele>
        <time>2019-11-04T10:18:23.000Z</time>
      </trkpt>
      <trkpt lat="36.41064145602285861968994140625" lon="-5.905227474868297576904296875">
        <ele>44.59999847412109375</ele>
        <time>2019-11-04T10:18:26.000Z</time>
      </trkpt>
      <trkpt lat="36.4104745723307132720947265625" lon="-5.905094705522060394287109375">
        <ele>44.799999237060546875</ele>
        <time>2019-11-04T10:18:29.000Z</time>
      </trkpt>
      <trkpt lat="36.4103136397898197174072265625" lon="-5.904960595071315765380859375">
        <ele>44</ele>
        <time>2019-11-04T10:18:32.000Z</time>
      </trkpt>
      <trkpt lat="36.41015178523957729339599609375" lon="-5.90482405386865139007568359375">
        <ele>44</ele>
        <time>2019-11-04T10:18:35.000Z</time>
      </trkpt>
      <trkpt lat="36.40999169088900089263916015625" lon="-5.9046831540763378143310546875">
        <ele>44</ele>
        <time>2019-11-04T10:18:38.000Z</time>
      </trkpt>
      <trkpt lat="36.40983494929969310760498046875" lon="-5.90454510413110256195068359375">
        <ele>44</ele>
        <time>2019-11-04T10:18:41.000Z</time>
      </trkpt>
      <trkpt lat="36.40967912971973419189453125" lon="-5.9044149331748485565185546875">
        <ele>44</ele>
        <time>2019-11-04T10:18:44.000Z</time>
      </trkpt>
      <trkpt lat="36.409525573253631591796875" lon="-5.90428677387535572052001953125">
        <ele>44</ele>
        <time>2019-11-04T10:18:47.000Z</time>
      </trkpt>
      <trkpt lat="36.40937461517751216888427734375" lon="-5.904157944023609161376953125">
        <ele>43.799999237060546875</ele>
        <time>2019-11-04T10:18:50.000Z</time>
      </trkpt>
      <trkpt lat="36.40917998738586902618408203125" lon="-5.90398854576051235198974609375">
        <ele>43</ele>
        <time>2019-11-04T10:18:54.000Z</time>
      </trkpt>
      <trkpt lat="36.408978737890720367431640625" lon="-5.90383104979991912841796875">
        <ele>42.40000152587890625</ele>
        <time>2019-11-04T10:18:58.000Z</time>
      </trkpt>
      <trkpt lat="36.40878167934715747833251953125" lon="-5.903664417564868927001953125">
        <ele>42</ele>
        <time>2019-11-04T10:19:02.000Z</time>
      </trkpt>
      <trkpt lat="36.40858654864132404327392578125" lon="-5.903492756187915802001953125">
        <ele>42</ele>
        <time>2019-11-04T10:19:06.000Z</time>
      </trkpt>
      <trkpt lat="36.40843517147004604339599609375" lon="-5.90336811728775501251220703125">
        <ele>41.799999237060546875</ele>
        <time>2019-11-04T10:19:09.000Z</time>
      </trkpt>
      <trkpt lat="36.4082741551101207733154296875" lon="-5.90323132462799549102783203125">
        <ele>42</ele>
        <time>2019-11-04T10:19:12.000Z</time>
      </trkpt>
      <trkpt lat="36.4081132225692272186279296875" lon="-5.90309855528175830841064453125">
        <ele>42</ele>
        <time>2019-11-04T10:19:15.000Z</time>
      </trkpt>
      <trkpt lat="36.40795312821865081787109375" lon="-5.9029648639261722564697265625">
        <ele>42</ele>
        <time>2019-11-04T10:19:18.000Z</time>
      </trkpt>
      <trkpt lat="36.40778842382133007049560546875" lon="-5.90282681398093700408935546875">
        <ele>41.799999237060546875</ele>
        <time>2019-11-04T10:19:21.000Z</time>
      </trkpt>
      <trkpt lat="36.4076247252523899078369140625" lon="-5.9026885963976383209228515625">
        <ele>41</ele>
        <time>2019-11-04T10:19:24.000Z</time>
      </trkpt>
      <trkpt lat="36.40746203251183032989501953125" lon="-5.90254786424338817596435546875">
        <ele>41</ele>
        <time>2019-11-04T10:19:27.000Z</time>
      </trkpt>
      <trkpt lat="36.4072998426854610443115234375" lon="-5.902399756014347076416015625">
        <ele>41.59999847412109375</ele>
        <time>2019-11-04T10:19:30.000Z</time>
      </trkpt>
      <trkpt lat="36.407146453857421875" lon="-5.90226061642169952392578125">
        <ele>42</ele>
        <time>2019-11-04T10:19:33.000Z</time>
      </trkpt>
      <trkpt lat="36.4069917239248752593994140625" lon="-5.9021410904824733734130859375">
        <ele>42.799999237060546875</ele>
        <time>2019-11-04T10:19:36.000Z</time>
      </trkpt>
      <trkpt lat="36.406811513006687164306640625" lon="-5.9019952453672885894775390625">
        <ele>43.59999847412109375</ele>
        <time>2019-11-04T10:19:40.000Z</time>
      </trkpt>
      <trkpt lat="36.4066410250961780548095703125" lon="-5.9018537588417530059814453125">
        <ele>43.59999847412109375</ele>
        <time>2019-11-04T10:19:44.000Z</time>
      </trkpt>
      <trkpt lat="36.4064639993011951446533203125" lon="-5.90171746909618377685546875">
        <ele>43.200000762939453125</ele>
        <time>2019-11-04T10:19:48.000Z</time>
      </trkpt>
      <trkpt lat="36.40628504566848278045654296875" lon="-5.9015768207609653472900390625">
        <ele>43.200000762939453125</ele>
        <time>2019-11-04T10:19:52.000Z</time>
      </trkpt>
      <trkpt lat="36.4061042480170726776123046875" lon="-5.90142753906548023223876953125">
        <ele>43.40000152587890625</ele>
        <time>2019-11-04T10:19:56.000Z</time>
      </trkpt>
      <trkpt lat="36.4059218578040599822998046875" lon="-5.90127197094261646270751953125">
        <ele>43.59999847412109375</ele>
        <time>2019-11-04T10:20:00.000Z</time>
      </trkpt>
      <trkpt lat="36.40573368407785892486572265625" lon="-5.901117660105228424072265625">
        <ele>43.799999237060546875</ele>
        <time>2019-11-04T10:20:04.000Z</time>
      </trkpt>
      <trkpt lat="36.40553972683846950531005859375" lon="-5.90095312334597110748291015625">
        <ele>44</ele>
        <time>2019-11-04T10:20:08.000Z</time>
      </trkpt>
      <trkpt lat="36.40538499690592288970947265625" lon="-5.9008244611322879791259765625">
        <ele>43</ele>
        <time>2019-11-04T10:20:11.000Z</time>
      </trkpt>
      <trkpt lat="36.4052259922027587890625" lon="-5.90069881640374660491943359375">
        <ele>43</ele>
        <time>2019-11-04T10:20:14.000Z</time>
      </trkpt>
      <trkpt lat="36.40506648458540439605712890625" lon="-5.90056705288589000701904296875">
        <ele>42</ele>
        <time>2019-11-04T10:20:17.000Z</time>
      </trkpt>
      <trkpt lat="36.4049093239009380340576171875" lon="-5.90043981559574604034423828125">
        <ele>42</ele>
        <time>2019-11-04T10:20:20.000Z</time>
      </trkpt>
      <trkpt lat="36.404755599796772003173828125" lon="-5.900315009057521820068359375">
        <ele>42</ele>
        <time>2019-11-04T10:20:23.000Z</time>
      </trkpt>
      <trkpt lat="36.4045613072812557220458984375" lon="-5.900149047374725341796875">
        <ele>42.40000152587890625</ele>
        <time>2019-11-04T10:20:27.000Z</time>
      </trkpt>
      <trkpt lat="36.40437715686857700347900390625" lon="-5.89999440126121044158935546875">
        <ele>43.200000762939453125</ele>
        <time>2019-11-04T10:20:31.000Z</time>
      </trkpt>
      <trkpt lat="36.40420029871165752410888671875" lon="-5.8998488076031208038330078125">
        <ele>43.799999237060546875</ele>
        <time>2019-11-04T10:20:35.000Z</time>
      </trkpt>
      <trkpt lat="36.40403098426759243011474609375" lon="-5.8997078239917755126953125">
        <ele>44.799999237060546875</ele>
        <time>2019-11-04T10:20:39.000Z</time>
      </trkpt>
      <trkpt lat="36.40386837534606456756591796875" lon="-5.899570696055889129638671875">
        <ele>46</ele>
        <time>2019-11-04T10:20:43.000Z</time>
      </trkpt>
      <trkpt lat="36.40370727516710758209228515625" lon="-5.89943968690931797027587890625">
        <ele>45.59999847412109375</ele>
        <time>2019-11-04T10:20:47.000Z</time>
      </trkpt>
      <trkpt lat="36.40355304814875125885009765625" lon="-5.899311192333698272705078125">
        <ele>45.200000762939453125</ele>
        <time>2019-11-04T10:20:51.000Z</time>
      </trkpt>
      <trkpt lat="36.40340133570134639739990234375" lon="-5.8991869725286960601806640625">
        <ele>45.40000152587890625</ele>
        <time>2019-11-04T10:20:55.000Z</time>
      </trkpt>
      <trkpt lat="36.4032518863677978515625" lon="-5.89906074106693267822265625">
        <ele>45.40000152587890625</ele>
        <time>2019-11-04T10:20:59.000Z</time>
      </trkpt>
      <trkpt lat="36.40306882560253143310546875" lon="-5.898908190429210662841796875">
        <ele>45.40000152587890625</ele>
        <time>2019-11-04T10:21:04.000Z</time>
      </trkpt>
      <trkpt lat="36.4028876088559627532958984375" lon="-5.89876729063689708709716796875">
        <ele>44.799999237060546875</ele>
        <time>2019-11-04T10:21:09.000Z</time>
      </trkpt>
      <trkpt lat="36.40272575430572032928466796875" lon="-5.8986488543450832366943359375">
        <ele>44.799999237060546875</ele>
        <time>2019-11-04T10:21:13.000Z</time>
      </trkpt>
      <trkpt lat="36.40254302881658077239990234375" lon="-5.89852689765393733978271484375">
        <ele>45.40000152587890625</ele>
        <time>2019-11-04T10:21:17.000Z</time>
      </trkpt>
      <trkpt lat="36.40234504826366901397705078125" lon="-5.8983935415744781494140625">
        <ele>45.799999237060546875</ele>
        <time>2019-11-04T10:21:21.000Z</time>
      </trkpt>
      <trkpt lat="36.402184031903743743896484375" lon="-5.898291952908039093017578125">
        <ele>46</ele>
        <time>2019-11-04T10:21:24.000Z</time>
      </trkpt>
      <trkpt lat="36.40201765112578868865966796875" lon="-5.898185670375823974609375">
        <ele>45.40000152587890625</ele>
        <time>2019-11-04T10:21:27.000Z</time>
      </trkpt>
      <trkpt lat="36.40184313990175724029541015625" lon="-5.8980755321681499481201171875">
        <ele>44.200000762939453125</ele>
        <time>2019-11-04T10:21:30.000Z</time>
      </trkpt>
      <trkpt lat="36.40166058205068111419677734375" lon="-5.89795843698084354400634765625">
        <ele>42.40000152587890625</ele>
        <time>2019-11-04T10:21:33.000Z</time>
      </trkpt>
      <trkpt lat="36.40147852711379528045654296875" lon="-5.8978401683270931243896484375">
        <ele>41.59999847412109375</ele>
        <time>2019-11-04T10:21:36.000Z</time>
      </trkpt>
      <trkpt lat="36.40128876082599163055419921875" lon="-5.89771938510239124298095703125">
        <ele>41.40000152587890625</ele>
        <time>2019-11-04T10:21:39.000Z</time>
      </trkpt>
      <trkpt lat="36.40109329484403133392333984375" lon="-5.89759030379354953765869140625">
        <ele>42</ele>
        <time>2019-11-04T10:21:42.000Z</time>
      </trkpt>
      <trkpt lat="36.40090084634721279144287109375" lon="-5.89746021665632724761962890625">
        <ele>41.40000152587890625</ele>
        <time>2019-11-04T10:21:45.000Z</time>
      </trkpt>
      <trkpt lat="36.400712169706821441650390625" lon="-5.897339098155498504638671875">
        <ele>41</ele>
        <time>2019-11-04T10:21:48.000Z</time>
      </trkpt>
      <trkpt lat="36.40052986331284046173095703125" lon="-5.8972235955297946929931640625">
        <ele>41</ele>
        <time>2019-11-04T10:21:51.000Z</time>
      </trkpt>
      <trkpt lat="36.40035920776426792144775390625" lon="-5.89711538515985012054443359375">
        <ele>40.40000152587890625</ele>
        <time>2019-11-04T10:21:54.000Z</time>
      </trkpt>
      <trkpt lat="36.40015502460300922393798828125" lon="-5.89698278345167636871337890625">
        <ele>40.200000762939453125</ele>
        <time>2019-11-04T10:21:58.000Z</time>
      </trkpt>
      <trkpt lat="36.399969868361949920654296875" lon="-5.89686510153114795684814453125">
        <ele>40</ele>
        <time>2019-11-04T10:22:02.000Z</time>
      </trkpt>
      <trkpt lat="36.39977641403675079345703125" lon="-5.89674289338290691375732421875">
        <ele>39</ele>
        <time>2019-11-04T10:22:06.000Z</time>
      </trkpt>
      <trkpt lat="36.3995844684541225433349609375" lon="-5.8966187573969364166259765625">
        <ele>38.799999237060546875</ele>
        <time>2019-11-04T10:22:10.000Z</time>
      </trkpt>
      <trkpt lat="36.39938606880605220794677734375" lon="-5.8965014107525348663330078125">
        <ele>40.200000762939453125</ele>
        <time>2019-11-04T10:22:14.000Z</time>
      </trkpt>
      <trkpt lat="36.3991871662437915802001953125" lon="-5.89637744240462779998779296875">
        <ele>41.200000762939453125</ele>
        <time>2019-11-04T10:22:18.000Z</time>
      </trkpt>
      <trkpt lat="36.39899455010890960693359375" lon="-5.89625959284603595733642578125">
        <ele>41.200000762939453125</ele>
        <time>2019-11-04T10:22:22.000Z</time>
      </trkpt>
      <trkpt lat="36.39880134724080562591552734375" lon="-5.89614710770547389984130859375">
        <ele>40.799999237060546875</ele>
        <time>2019-11-04T10:22:26.000Z</time>
      </trkpt>
      <trkpt lat="36.3986145146191120147705078125" lon="-5.896033532917499542236328125">
        <ele>40.200000762939453125</ele>
        <time>2019-11-04T10:22:30.000Z</time>
      </trkpt>
      <trkpt lat="36.39843455515801906585693359375" lon="-5.8959150128066539764404296875">
        <ele>40.200000762939453125</ele>
        <time>2019-11-04T10:22:34.000Z</time>
      </trkpt>
      <trkpt lat="36.39826071448624134063720703125" lon="-5.8957943134009838104248046875">
        <ele>40.799999237060546875</ele>
        <time>2019-11-04T10:22:38.000Z</time>
      </trkpt>
      <trkpt lat="36.398083269596099853515625" lon="-5.89567981660366058349609375">
        <ele>41.799999237060546875</ele>
        <time>2019-11-04T10:22:42.000Z</time>
      </trkpt>
      <trkpt lat="36.39790247194468975067138671875" lon="-5.89557294733822345733642578125">
        <ele>42.40000152587890625</ele>
        <time>2019-11-04T10:22:46.000Z</time>
      </trkpt>
      <trkpt lat="36.39772242866456508636474609375" lon="-5.89546180330216884613037109375">
        <ele>43</ele>
        <time>2019-11-04T10:22:50.000Z</time>
      </trkpt>
      <trkpt lat="36.39753811061382293701171875" lon="-5.895354934036731719970703125">
        <ele>43</ele>
        <time>2019-11-04T10:22:54.000Z</time>
      </trkpt>
      <trkpt lat="36.39735345728695392608642578125" lon="-5.89525041170418262481689453125">
        <ele>43.40000152587890625</ele>
        <time>2019-11-04T10:22:58.000Z</time>
      </trkpt>
      <trkpt lat="36.3971654511988162994384765625" lon="-5.89514479972422122955322265625">
        <ele>43</ele>
        <time>2019-11-04T10:23:02.000Z</time>
      </trkpt>
      <trkpt lat="36.39697275124490261077880859375" lon="-5.8950555324554443359375">
        <ele>43.200000762939453125</ele>
        <time>2019-11-04T10:23:06.000Z</time>
      </trkpt>
      <trkpt lat="36.39678365550935268402099609375" lon="-5.8949889801442623138427734375">
        <ele>44.40000152587890625</ele>
        <time>2019-11-04T10:23:10.000Z</time>
      </trkpt>
      <trkpt lat="36.396603025496006011962890625" lon="-5.894947908818721771240234375">
        <ele>45</ele>
        <time>2019-11-04T10:23:14.000Z</time>
      </trkpt>
      <trkpt lat="36.39639808796346187591552734375" lon="-5.8949172310531139373779296875">
        <ele>45.59999847412109375</ele>
        <time>2019-11-04T10:23:19.000Z</time>
      </trkpt>
      <trkpt lat="36.396196000277996063232421875" lon="-5.89490641839802265167236328125">
        <ele>46.40000152587890625</ele>
        <time>2019-11-04T10:23:24.000Z</time>
      </trkpt>
      <trkpt lat="36.3960166275501251220703125" lon="-5.894901640713214874267578125">
        <ele>47</ele>
        <time>2019-11-04T10:23:29.000Z</time>
      </trkpt>
      <trkpt lat="36.39584186486899852752685546875" lon="-5.89491882361471652984619140625">
        <ele>47</ele>
        <time>2019-11-04T10:23:35.000Z</time>
      </trkpt>
      <trkpt lat="36.3957240991294384002685546875" lon="-5.8949388563632965087890625">
        <ele>46.799999237060546875</ele>
        <time>2019-11-04T10:23:39.000Z</time>
      </trkpt>
      <trkpt lat="36.39551782049238681793212890625" lon="-5.8949889801442623138427734375">
        <ele>46</ele>
        <time>2019-11-04T10:23:46.000Z</time>
      </trkpt>
      <trkpt lat="36.39532662928104400634765625" lon="-5.89506022632122039794921875">
        <ele>46.799999237060546875</ele>
        <time>2019-11-04T10:23:52.000Z</time>
      </trkpt>
      <trkpt lat="36.395146586000919342041015625" lon="-5.895145721733570098876953125">
        <ele>47.40000152587890625</ele>
        <time>2019-11-04T10:23:58.000Z</time>
      </trkpt>
      <trkpt lat="36.39497886411845684051513671875" lon="-5.89523515664041042327880859375">
        <ele>48.40000152587890625</ele>
        <time>2019-11-04T10:24:04.000Z</time>
      </trkpt>
      <trkpt lat="36.39482011087238788604736328125" lon="-5.8953423611819744110107421875">
        <ele>49.40000152587890625</ele>
        <time>2019-11-04T10:24:10.000Z</time>
      </trkpt>
      <trkpt lat="36.394655741751194000244140625" lon="-5.89544604532420635223388671875">
        <ele>50.200000762939453125</ele>
        <time>2019-11-04T10:24:16.000Z</time>
      </trkpt>
      <trkpt lat="36.394476704299449920654296875" lon="-5.895578563213348388671875">
        <ele>50.59999847412109375</ele>
        <time>2019-11-04T10:24:23.000Z</time>
      </trkpt>
      <trkpt lat="36.3943189568817615509033203125" lon="-5.89569716714322566986083984375">
        <ele>51.200000762939453125</ele>
        <time>2019-11-04T10:24:29.000Z</time>
      </trkpt>
      <trkpt lat="36.39415794052183628082275390625" lon="-5.89582063257694244384765625">
        <ele>51.59999847412109375</ele>
        <time>2019-11-04T10:24:35.000Z</time>
      </trkpt>
      <trkpt lat="36.39399918727576732635498046875" lon="-5.895937643945217132568359375">
        <ele>51.40000152587890625</ele>
        <time>2019-11-04T10:24:41.000Z</time>
      </trkpt>
      <trkpt lat="36.39383959583938121795654296875" lon="-5.89606261812150478363037109375">
        <ele>51</ele>
        <time>2019-11-04T10:24:47.000Z</time>
      </trkpt>
      <trkpt lat="36.3936665095388889312744140625" lon="-5.89618365280330181121826171875">
        <ele>51</ele>
        <time>2019-11-04T10:24:53.000Z</time>
      </trkpt>
      <trkpt lat="36.39349400997161865234375" lon="-5.8963116444647312164306640625">
        <ele>51.40000152587890625</ele>
        <time>2019-11-04T10:24:59.000Z</time>
      </trkpt>
      <trkpt lat="36.39331941492855548858642578125" lon="-5.8964524604380130767822265625">
        <ele>51.799999237060546875</ele>
        <time>2019-11-04T10:25:05.000Z</time>
      </trkpt>
      <trkpt lat="36.39314389787614345550537109375" lon="-5.89659302495419979095458984375">
        <ele>52</ele>
        <time>2019-11-04T10:25:11.000Z</time>
      </trkpt>
      <trkpt lat="36.39296938665211200714111328125" lon="-5.89672361500561237335205078125">
        <ele>52</ele>
        <time>2019-11-04T10:25:17.000Z</time>
      </trkpt>
      <trkpt lat="36.39278925955295562744140625" lon="-5.89685671962797641754150390625">
        <ele>52.200000762939453125</ele>
        <time>2019-11-04T10:25:23.000Z</time>
      </trkpt>
      <trkpt lat="36.39262958429753780364990234375" lon="-5.89697155170142650604248046875">
        <ele>53.200000762939453125</ele>
        <time>2019-11-04T10:25:28.000Z</time>
      </trkpt>
      <trkpt lat="36.39246680773794651031494140625" lon="-5.8970925025641918182373046875">
        <ele>54.200000762939453125</ele>
        <time>2019-11-04T10:25:33.000Z</time>
      </trkpt>
      <trkpt lat="36.3923029415309429168701171875" lon="-5.897214710712432861328125">
        <ele>55.200000762939453125</ele>
        <time>2019-11-04T10:25:38.000Z</time>
      </trkpt>
      <trkpt lat="36.3921306096017360687255859375" lon="-5.8973446302115917205810546875">
        <ele>56</ele>
        <time>2019-11-04T10:25:43.000Z</time>
      </trkpt>
      <trkpt lat="36.391951739788055419921875" lon="-5.89748452417552471160888671875">
        <ele>56</ele>
        <time>2019-11-04T10:25:48.000Z</time>
      </trkpt>
      <trkpt lat="36.39175853691995143890380859375" lon="-5.89763254858553409576416015625">
        <ele>56</ele>
        <time>2019-11-04T10:25:53.000Z</time>
      </trkpt>
      <trkpt lat="36.39159743674099445343017578125" lon="-5.897757522761821746826171875">
        <ele>55.40000152587890625</ele>
        <time>2019-11-04T10:25:57.000Z</time>
      </trkpt>
      <trkpt lat="36.39143398962914943695068359375" lon="-5.89788517914712429046630859375">
        <ele>54.200000762939453125</ele>
        <time>2019-11-04T10:26:01.000Z</time>
      </trkpt>
      <trkpt lat="36.391268782317638397216796875" lon="-5.89800931513309478759765625">
        <ele>53.200000762939453125</ele>
        <time>2019-11-04T10:26:05.000Z</time>
      </trkpt>
      <trkpt lat="36.39110374264419078826904296875" lon="-5.89813940227031707763671875">
        <ele>52.200000762939453125</ele>
        <time>2019-11-04T10:26:09.000Z</time>
      </trkpt>
      <trkpt lat="36.390930153429508209228515625" lon="-5.89827217161655426025390625">
        <ele>51</ele>
        <time>2019-11-04T10:26:13.000Z</time>
      </trkpt>
      <trkpt lat="36.3907378725707530975341796875" lon="-5.8984148316085338592529296875">
        <ele>49.799999237060546875</ele>
        <time>2019-11-04T10:26:17.000Z</time>
      </trkpt>
      <trkpt lat="36.39053813181817531585693359375" lon="-5.89856763370335102081298828125">
        <ele>48.59999847412109375</ele>
        <time>2019-11-04T10:26:21.000Z</time>
      </trkpt>
      <trkpt lat="36.39037393033504486083984375" lon="-5.89869235642254352569580078125">
        <ele>48.200000762939453125</ele>
        <time>2019-11-04T10:26:24.000Z</time>
      </trkpt>
      <trkpt lat="36.39021442271769046783447265625" lon="-5.89881774969398975372314453125">
        <ele>47.799999237060546875</ele>
        <time>2019-11-04T10:26:27.000Z</time>
      </trkpt>
      <trkpt lat="36.39003924094140529632568359375" lon="-5.8989445678889751434326171875">
        <ele>47.200000762939453125</ele>
        <time>2019-11-04T10:26:30.000Z</time>
      </trkpt>
      <trkpt lat="36.389870345592498779296875" lon="-5.89907205663621425628662109375">
        <ele>46.59999847412109375</ele>
        <time>2019-11-04T10:26:33.000Z</time>
      </trkpt>
      <trkpt lat="36.3897022046148777008056640625" lon="-5.89919711463153362274169921875">
        <ele>46</ele>
        <time>2019-11-04T10:26:36.000Z</time>
      </trkpt>
      <trkpt lat="36.38954185880720615386962890625" lon="-5.89931747876107692718505859375">
        <ele>45.59999847412109375</ele>
        <time>2019-11-04T10:26:39.000Z</time>
      </trkpt>
      <trkpt lat="36.38934689573943614959716796875" lon="-5.8994719572365283966064453125">
        <ele>45.59999847412109375</ele>
        <time>2019-11-04T10:26:43.000Z</time>
      </trkpt>
      <trkpt lat="36.3891635835170745849609375" lon="-5.89960799552500247955322265625">
        <ele>46</ele>
        <time>2019-11-04T10:26:47.000Z</time>
      </trkpt>
      <trkpt lat="36.38899150304496288299560546875" lon="-5.89974143542349338531494140625">
        <ele>45.40000152587890625</ele>
        <time>2019-11-04T10:26:51.000Z</time>
      </trkpt>
      <trkpt lat="36.3888251222670078277587890625" lon="-5.89986951090395450592041015625">
        <ele>45</ele>
        <time>2019-11-04T10:26:55.000Z</time>
      </trkpt>
      <trkpt lat="36.38867047615349292755126953125" lon="-5.89998702518641948699951171875">
        <ele>45</ele>
        <time>2019-11-04T10:26:59.000Z</time>
      </trkpt>
      <trkpt lat="36.38850736431777477264404296875" lon="-5.9001101553440093994140625">
        <ele>44.799999237060546875</ele>
        <time>2019-11-04T10:27:03.000Z</time>
      </trkpt>
      <trkpt lat="36.388348527252674102783203125" lon="-5.9002256579697132110595703125">
        <ele>44.200000762939453125</ele>
        <time>2019-11-04T10:27:07.000Z</time>
      </trkpt>
      <trkpt lat="36.38818382285535335540771484375" lon="-5.90034954249858856201171875">
        <ele>43.59999847412109375</ele>
        <time>2019-11-04T10:27:11.000Z</time>
      </trkpt>
      <trkpt lat="36.38802154920995235443115234375" lon="-5.9004727564752101898193359375">
        <ele>43.59999847412109375</ele>
        <time>2019-11-04T10:27:15.000Z</time>
      </trkpt>
      <trkpt lat="36.38786028139293193817138671875" lon="-5.90059840120375156402587890625">
        <ele>44</ele>
        <time>2019-11-04T10:27:19.000Z</time>
      </trkpt>
      <trkpt lat="36.38769708573818206787109375" lon="-5.90072127990424633026123046875">
        <ele>44.200000762939453125</ele>
        <time>2019-11-04T10:27:23.000Z</time>
      </trkpt>
      <trkpt lat="36.387535817921161651611328125" lon="-5.90084365569055080413818359375">
        <ele>44.799999237060546875</ele>
        <time>2019-11-04T10:27:27.000Z</time>
      </trkpt>
      <trkpt lat="36.3873767293989658355712890625" lon="-5.900970138609409332275390625">
        <ele>45</ele>
        <time>2019-11-04T10:27:31.000Z</time>
      </trkpt>
      <trkpt lat="36.3872137852013111114501953125" lon="-5.90109226293861865997314453125">
        <ele>45.59999847412109375</ele>
        <time>2019-11-04T10:27:35.000Z</time>
      </trkpt>
      <trkpt lat="36.387053690850734710693359375" lon="-5.90121396817266941070556640625">
        <ele>46</ele>
        <time>2019-11-04T10:27:39.000Z</time>
      </trkpt>
      <trkpt lat="36.3868935965001583099365234375" lon="-5.9013367630541324615478515625">
        <ele>46</ele>
        <time>2019-11-04T10:27:43.000Z</time>
      </trkpt>
      <trkpt lat="36.38673014938831329345703125" lon="-5.901457630097866058349609375">
        <ele>46</ele>
        <time>2019-11-04T10:27:47.000Z</time>
      </trkpt>
      <trkpt lat="36.38657181523740291595458984375" lon="-5.901583693921566009521484375">
        <ele>46.200000762939453125</ele>
        <time>2019-11-04T10:27:51.000Z</time>
      </trkpt>
      <trkpt lat="36.3864143192768096923828125" lon="-5.90170246548950672149658203125">
        <ele>46.799999237060546875</ele>
        <time>2019-11-04T10:27:55.000Z</time>
      </trkpt>
      <trkpt lat="36.38625514693558216094970703125" lon="-5.901822410523891448974609375">
        <ele>47.59999847412109375</ele>
        <time>2019-11-04T10:27:59.000Z</time>
      </trkpt>
      <trkpt lat="36.386089436709880828857421875" lon="-5.90194637887179851531982421875">
        <ele>48.59999847412109375</ele>
        <time>2019-11-04T10:28:03.000Z</time>
      </trkpt>
      <trkpt lat="36.38592741452157497406005859375" lon="-5.9020780585706233978271484375">
        <ele>49</ele>
        <time>2019-11-04T10:28:07.000Z</time>
      </trkpt>
      <trkpt lat="36.3857630454003810882568359375" lon="-5.90220353566110134124755859375">
        <ele>49</ele>
        <time>2019-11-04T10:28:11.000Z</time>
      </trkpt>
      <trkpt lat="36.38560093939304351806640625" lon="-5.90232976712286472320556640625">
        <ele>49</ele>
        <time>2019-11-04T10:28:15.000Z</time>
      </trkpt>
      <trkpt lat="36.3854391686618328094482421875" lon="-5.90245398692786693572998046875">
        <ele>49.40000152587890625</ele>
        <time>2019-11-04T10:28:19.000Z</time>
      </trkpt>
      <trkpt lat="36.385278739035129547119140625" lon="-5.902580134570598602294921875">
        <ele>49.799999237060546875</ele>
        <time>2019-11-04T10:28:23.000Z</time>
      </trkpt>
      <trkpt lat="36.38511839322745800018310546875" lon="-5.90270443819463253021240234375">
        <ele>49.40000152587890625</ele>
        <time>2019-11-04T10:28:27.000Z</time>
      </trkpt>
      <trkpt lat="36.38495695777237415313720703125" lon="-5.90282781980931758880615234375">
        <ele>48.799999237060546875</ele>
        <time>2019-11-04T10:28:31.000Z</time>
      </trkpt>
      <trkpt lat="36.3847969472408294677734375" lon="-5.90295338071882724761962890625">
        <ele>48.799999237060546875</ele>
        <time>2019-11-04T10:28:35.000Z</time>
      </trkpt>
      <trkpt lat="36.38463593088090419769287109375" lon="-5.90307894162833690643310546875">
        <ele>49.40000152587890625</ele>
        <time>2019-11-04T10:28:39.000Z</time>
      </trkpt>
      <trkpt lat="36.384472735226154327392578125" lon="-5.90319846756756305694580078125">
        <ele>50.200000762939453125</ele>
        <time>2019-11-04T10:28:43.000Z</time>
      </trkpt>
      <trkpt lat="36.3843136467039585113525390625" lon="-5.9033219330012798309326171875">
        <ele>51.200000762939453125</ele>
        <time>2019-11-04T10:28:47.000Z</time>
      </trkpt>
      <trkpt lat="36.38415497727692127227783203125" lon="-5.90343818999826908111572265625">
        <ele>52</ele>
        <time>2019-11-04T10:28:51.000Z</time>
      </trkpt>
      <trkpt lat="36.3840001635253429412841796875" lon="-5.90355671010911464691162109375">
        <ele>51.799999237060546875</ele>
        <time>2019-11-04T10:28:55.000Z</time>
      </trkpt>
      <trkpt lat="36.3838405720889568328857421875" lon="-5.9036739729344844818115234375">
        <ele>51.59999847412109375</ele>
        <time>2019-11-04T10:28:59.000Z</time>
      </trkpt>
      <trkpt lat="36.38368475250899791717529296875" lon="-5.9037888050079345703125">
        <ele>51</ele>
        <time>2019-11-04T10:29:03.000Z</time>
      </trkpt>
      <trkpt lat="36.38349398039281368255615234375" lon="-5.903936326503753662109375">
        <ele>50.200000762939453125</ele>
        <time>2019-11-04T10:29:08.000Z</time>
      </trkpt>
      <trkpt lat="36.3833366520702838897705078125" lon="-5.9040565229952335357666015625">
        <ele>49.200000762939453125</ele>
        <time>2019-11-04T10:29:12.000Z</time>
      </trkpt>
      <trkpt lat="36.3831740431487560272216796875" lon="-5.9041817486286163330078125">
        <ele>48.59999847412109375</ele>
        <time>2019-11-04T10:29:16.000Z</time>
      </trkpt>
      <trkpt lat="36.3830157928168773651123046875" lon="-5.90430286712944507598876953125">
        <ele>48</ele>
        <time>2019-11-04T10:29:20.000Z</time>
      </trkpt>
      <trkpt lat="36.38285477645695209503173828125" lon="-5.90442624874413013458251953125">
        <ele>48.59999847412109375</ele>
        <time>2019-11-04T10:29:24.000Z</time>
      </trkpt>
      <trkpt lat="36.3826969452202320098876953125" lon="-5.9045497141778469085693359375">
        <ele>49</ele>
        <time>2019-11-04T10:29:28.000Z</time>
      </trkpt>
      <trkpt lat="36.3825346715748310089111328125" lon="-5.90466999448835849761962890625">
        <ele>49.799999237060546875</ele>
        <time>2019-11-04T10:29:32.000Z</time>
      </trkpt>
      <trkpt lat="36.382375247776508331298828125" lon="-5.90478784404695034027099609375">
        <ele>50</ele>
        <time>2019-11-04T10:29:36.000Z</time>
      </trkpt>
      <trkpt lat="36.38221557252109050750732421875" lon="-5.90490736998617649078369140625">
        <ele>49.799999237060546875</ele>
        <time>2019-11-04T10:29:40.000Z</time>
      </trkpt>
      <trkpt lat="36.3820572383701801300048828125" lon="-5.9050244651734828948974609375">
        <ele>50.40000152587890625</ele>
        <time>2019-11-04T10:29:44.000Z</time>
      </trkpt>
      <trkpt lat="36.38189622201025485992431640625" lon="-5.905144996941089630126953125">
        <ele>51.200000762939453125</ele>
        <time>2019-11-04T10:29:48.000Z</time>
      </trkpt>
      <trkpt lat="36.38174065388739109039306640625" lon="-5.905263014137744903564453125">
        <ele>52</ele>
        <time>2019-11-04T10:29:52.000Z</time>
      </trkpt>
      <trkpt lat="36.381584666669368743896484375" lon="-5.90537910349667072296142578125">
        <ele>53</ele>
        <time>2019-11-04T10:29:56.000Z</time>
      </trkpt>
      <trkpt lat="36.38139397837221622467041015625" lon="-5.90552377514541149139404296875">
        <ele>53.40000152587890625</ele>
        <time>2019-11-04T10:30:01.000Z</time>
      </trkpt>
      <trkpt lat="36.38120823539793491363525390625" lon="-5.90567515231668949127197265625">
        <ele>53.59999847412109375</ele>
        <time>2019-11-04T10:30:06.000Z</time>
      </trkpt>
      <trkpt lat="36.38102215714752674102783203125" lon="-5.90581881813704967498779296875">
        <ele>53.59999847412109375</ele>
        <time>2019-11-04T10:30:11.000Z</time>
      </trkpt>
      <trkpt lat="36.380844376981258392333984375" lon="-5.90595577843487262725830078125">
        <ele>53.40000152587890625</ele>
        <time>2019-11-04T10:30:16.000Z</time>
      </trkpt>
      <trkpt lat="36.380677409470081329345703125" lon="-5.9060832671821117401123046875">
        <ele>53</ele>
        <time>2019-11-04T10:30:21.000Z</time>
      </trkpt>
      <trkpt lat="36.38051144778728485107421875" lon="-5.9062039665877819061279296875">
        <ele>53</ele>
        <time>2019-11-04T10:30:26.000Z</time>
      </trkpt>
      <trkpt lat="36.380338780581951141357421875" lon="-5.906333215534687042236328125">
        <ele>53</ele>
        <time>2019-11-04T10:30:31.000Z</time>
      </trkpt>
      <trkpt lat="36.3801728188991546630859375" lon="-5.906465314328670501708984375">
        <ele>53.200000762939453125</ele>
        <time>2019-11-04T10:30:36.000Z</time>
      </trkpt>
      <trkpt lat="36.3799993135035037994384765625" lon="-5.9065975807607173919677734375">
        <ele>54.200000762939453125</ele>
        <time>2019-11-04T10:30:41.000Z</time>
      </trkpt>
      <trkpt lat="36.37983419001102447509765625" lon="-5.9067337028682231903076171875">
        <ele>55.40000152587890625</ele>
        <time>2019-11-04T10:30:46.000Z</time>
      </trkpt>
      <trkpt lat="36.3796707428991794586181640625" lon="-5.90685146860778331756591796875">
        <ele>56.200000762939453125</ele>
        <time>2019-11-04T10:30:51.000Z</time>
      </trkpt>
      <trkpt lat="36.379506625235080718994140625" lon="-5.9069704078137874603271484375">
        <ele>56.59999847412109375</ele>
        <time>2019-11-04T10:30:56.000Z</time>
      </trkpt>
      <trkpt lat="36.37933068908751010894775390625" lon="-5.90710041113197803497314453125">
        <ele>57</ele>
        <time>2019-11-04T10:31:02.000Z</time>
      </trkpt>
      <trkpt lat="36.37914679013192653656005859375" lon="-5.9072339348495006561279296875">
        <ele>57</ele>
        <time>2019-11-04T10:31:08.000Z</time>
      </trkpt>
      <trkpt lat="36.37896507047116756439208984375" lon="-5.90736561454832553863525390625">
        <ele>57.200000762939453125</ele>
        <time>2019-11-04T10:31:14.000Z</time>
      </trkpt>
      <trkpt lat="36.37881034053862094879150390625" lon="-5.90748966671526432037353515625">
        <ele>57.40000152587890625</ele>
        <time>2019-11-04T10:31:19.000Z</time>
      </trkpt>
      <trkpt lat="36.37865041382610797882080078125" lon="-5.90761304832994937896728515625">
        <ele>57.200000762939453125</ele>
        <time>2019-11-04T10:31:24.000Z</time>
      </trkpt>
      <trkpt lat="36.3784910738468170166015625" lon="-5.90773877687752246856689453125">
        <ele>57.200000762939453125</ele>
        <time>2019-11-04T10:31:29.000Z</time>
      </trkpt>
      <trkpt lat="36.37833240441977977752685546875" lon="-5.90787020511925220489501953125">
        <ele>57</ele>
        <time>2019-11-04T10:31:34.000Z</time>
      </trkpt>
      <trkpt lat="36.37815889902412891387939453125" lon="-5.90801957063376903533935546875">
        <ele>57.40000152587890625</ele>
        <time>2019-11-04T10:31:40.000Z</time>
      </trkpt>
      <trkpt lat="36.378014646470546722412109375" lon="-5.9081621468067169189453125">
        <ele>58</ele>
        <time>2019-11-04T10:31:45.000Z</time>
      </trkpt>
      <trkpt lat="36.3778672926127910614013671875" lon="-5.9083088301122188568115234375">
        <ele>58.40000152587890625</ele>
        <time>2019-11-04T10:31:50.000Z</time>
      </trkpt>
      <trkpt lat="36.37772538699209690093994140625" lon="-5.90845375321805477142333984375">
        <ele>59</ele>
        <time>2019-11-04T10:31:55.000Z</time>
      </trkpt>
      <trkpt lat="36.37757384218275547027587890625" lon="-5.90861485339701175689697265625">
        <ele>59.59999847412109375</ele>
        <time>2019-11-04T10:32:00.000Z</time>
      </trkpt>
      <trkpt lat="36.3774270750582218170166015625" lon="-5.90879221446812152862548828125">
        <ele>60</ele>
        <time>2019-11-04T10:32:05.000Z</time>
      </trkpt>
      <trkpt lat="36.3772778771817684173583984375" lon="-5.908971168100833892822265625">
        <ele>59.59999847412109375</ele>
        <time>2019-11-04T10:32:10.000Z</time>
      </trkpt>
      <trkpt lat="36.377134211361408233642578125" lon="-5.90915925800800323486328125">
        <ele>59.200000762939453125</ele>
        <time>2019-11-04T10:32:15.000Z</time>
      </trkpt>
      <trkpt lat="36.376978643238544464111328125" lon="-5.90935447253286838531494140625">
        <ele>58.799999237060546875</ele>
        <time>2019-11-04T10:32:20.000Z</time>
      </trkpt>
      <trkpt lat="36.37685869820415973663330078125" lon="-5.909523703157901763916015625">
        <ele>58.59999847412109375</ele>
        <time>2019-11-04T10:32:24.000Z</time>
      </trkpt>
      <trkpt lat="36.37672324664890766143798828125" lon="-5.909706093370914459228515625">
        <ele>58.200000762939453125</ele>
        <time>2019-11-04T10:32:28.000Z</time>
      </trkpt>
      <trkpt lat="36.37658343650400638580322265625" lon="-5.90988747775554656982421875">
        <ele>58.200000762939453125</ele>
        <time>2019-11-04T10:32:32.000Z</time>
      </trkpt>
      <trkpt lat="36.37644924223423004150390625" lon="-5.91006810776889324188232421875">
        <ele>59</ele>
        <time>2019-11-04T10:32:36.000Z</time>
      </trkpt>
      <trkpt lat="36.3763131201267242431640625" lon="-5.91024027206003665924072265625">
        <ele>59.200000762939453125</ele>
        <time>2019-11-04T10:32:40.000Z</time>
      </trkpt>
      <trkpt lat="36.37617423199117183685302734375" lon="-5.91042350046336650848388671875">
        <ele>58.799999237060546875</ele>
        <time>2019-11-04T10:32:44.000Z</time>
      </trkpt>
      <trkpt lat="36.37603618204593658447265625" lon="-5.91060404665768146514892578125">
        <ele>58.59999847412109375</ele>
        <time>2019-11-04T10:32:48.000Z</time>
      </trkpt>
      <trkpt lat="36.37590064667165279388427734375" lon="-5.9107799828052520751953125">
        <ele>58.799999237060546875</ele>
        <time>2019-11-04T10:32:52.000Z</time>
      </trkpt>
      <trkpt lat="36.3757744990289211273193359375" lon="-5.91096228919923305511474609375">
        <ele>59</ele>
        <time>2019-11-04T10:32:56.000Z</time>
      </trkpt>
      <trkpt lat="36.37564265169203281402587890625" lon="-5.911137722432613372802734375">
        <ele>59.59999847412109375</ele>
        <time>2019-11-04T10:33:00.000Z</time>
      </trkpt>
      <trkpt lat="36.37551021762192249298095703125" lon="-5.91132111847400665283203125">
        <ele>60</ele>
        <time>2019-11-04T10:33:04.000Z</time>
      </trkpt>
      <trkpt lat="36.375367641448974609375" lon="-5.91151247732341289520263671875">
        <ele>59.40000152587890625</ele>
        <time>2019-11-04T10:33:08.000Z</time>
      </trkpt>
      <trkpt lat="36.3752300105988979339599609375" lon="-5.91169721446931362152099609375">
        <ele>59</ele>
        <time>2019-11-04T10:33:12.000Z</time>
      </trkpt>
      <trkpt lat="36.37508408166468143463134765625" lon="-5.91188027523458003997802734375">
        <ele>58.799999237060546875</ele>
        <time>2019-11-04T10:33:16.000Z</time>
      </trkpt>
      <trkpt lat="36.37493513524532318115234375" lon="-5.9120605699717998504638671875">
        <ele>59</ele>
        <time>2019-11-04T10:33:20.000Z</time>
      </trkpt>
      <trkpt lat="36.3747904635965824127197265625" lon="-5.91224304400384426116943359375">
        <ele>59.59999847412109375</ele>
        <time>2019-11-04T10:33:24.000Z</time>
      </trkpt>
      <trkpt lat="36.3746476359665393829345703125" lon="-5.91242761351168155670166015625">
        <ele>59.799999237060546875</ele>
        <time>2019-11-04T10:33:28.000Z</time>
      </trkpt>
      <trkpt lat="36.37449835427105426788330078125" lon="-5.91261570341885089874267578125">
        <ele>59.40000152587890625</ele>
        <time>2019-11-04T10:33:32.000Z</time>
      </trkpt>
      <trkpt lat="36.3743497431278228759765625" lon="-5.9127871133387088775634765625">
        <ele>59.200000762939453125</ele>
        <time>2019-11-04T10:33:36.000Z</time>
      </trkpt>
      <trkpt lat="36.37420297600328922271728515625" lon="-5.91297159902751445770263671875">
        <ele>59</ele>
        <time>2019-11-04T10:33:40.000Z</time>
      </trkpt>
      <trkpt lat="36.37405025772750377655029296875" lon="-5.9131471998989582061767578125">
        <ele>59.59999847412109375</ele>
        <time>2019-11-04T10:33:44.000Z</time>
      </trkpt>
      <trkpt lat="36.37389016337692737579345703125" lon="-5.91331777162849903106689453125">
        <ele>59.59999847412109375</ele>
        <time>2019-11-04T10:33:48.000Z</time>
      </trkpt>
      <trkpt lat="36.37373610399663448333740234375" lon="-5.91348038055002689361572265625">
        <ele>60.40000152587890625</ele>
        <time>2019-11-04T10:33:52.000Z</time>
      </trkpt>
      <trkpt lat="36.3735834695398807525634765625" lon="-5.9136373735964298248291015625">
        <ele>61</ele>
        <time>2019-11-04T10:33:56.000Z</time>
      </trkpt>
      <trkpt lat="36.37343435548245906829833984375" lon="-5.91379277408123016357421875">
        <ele>62</ele>
        <time>2019-11-04T10:34:00.000Z</time>
      </trkpt>
      <trkpt lat="36.37328825891017913818359375" lon="-5.91394968330860137939453125">
        <ele>62.40000152587890625</ele>
        <time>2019-11-04T10:34:04.000Z</time>
      </trkpt>
      <trkpt lat="36.3731368817389011383056640625" lon="-5.91411103494465351104736328125">
        <ele>62.40000152587890625</ele>
        <time>2019-11-04T10:34:08.000Z</time>
      </trkpt>
      <trkpt lat="36.3729883544147014617919921875" lon="-5.91426727361977100372314453125">
        <ele>62.200000762939453125</ele>
        <time>2019-11-04T10:34:12.000Z</time>
      </trkpt>
      <trkpt lat="36.37283605523407459259033203125" lon="-5.9144252724945545196533203125">
        <ele>61.59999847412109375</ele>
        <time>2019-11-04T10:34:16.000Z</time>
      </trkpt>
      <trkpt lat="36.3726845942437648773193359375" lon="-5.91457136906683444976806640625">
        <ele>61.200000762939453125</ele>
        <time>2019-11-04T10:34:20.000Z</time>
      </trkpt>
      <trkpt lat="36.37250714935362339019775390625" lon="-5.91474168933928012847900390625">
        <ele>60.59999847412109375</ele>
        <time>2019-11-04T10:34:25.000Z</time>
      </trkpt>
      <trkpt lat="36.3723566941916942596435546875" lon="-5.914885103702545166015625">
        <ele>60.40000152587890625</ele>
        <time>2019-11-04T10:34:29.000Z</time>
      </trkpt>
      <trkpt lat="36.37221160344779491424560546875" lon="-5.91502147726714611053466796875">
        <ele>61</ele>
        <time>2019-11-04T10:34:33.000Z</time>
      </trkpt>
      <trkpt lat="36.372033655643463134765625" lon="-5.91518676839768886566162109375">
        <ele>61.59999847412109375</ele>
        <time>2019-11-04T10:34:38.000Z</time>
      </trkpt>
      <trkpt lat="36.37186492793262004852294921875" lon="-5.91534116305410861968994140625">
        <ele>62.200000762939453125</ele>
        <time>2019-11-04T10:34:43.000Z</time>
      </trkpt>
      <trkpt lat="36.37169695459306240081787109375" lon="-5.91548901982605457305908203125">
        <ele>62.40000152587890625</ele>
        <time>2019-11-04T10:34:48.000Z</time>
      </trkpt>
      <trkpt lat="36.37153602205216884613037109375" lon="-5.91564928181469440460205078125">
        <ele>62.40000152587890625</ele>
        <time>2019-11-04T10:34:53.000Z</time>
      </trkpt>
      <trkpt lat="36.37137274257838726043701171875" lon="-5.9157968871295452117919921875">
        <ele>63</ele>
        <time>2019-11-04T10:34:58.000Z</time>
      </trkpt>
      <trkpt lat="36.3712157495319843292236328125" lon="-5.91594348661601543426513671875">
        <ele>63.40000152587890625</ele>
        <time>2019-11-04T10:35:03.000Z</time>
      </trkpt>
      <trkpt lat="36.37105423025786876678466796875" lon="-5.91608933173120021820068359375">
        <ele>64</ele>
        <time>2019-11-04T10:35:08.000Z</time>
      </trkpt>
      <trkpt lat="36.37088977731764316558837890625" lon="-5.91624163091182708740234375">
        <ele>64</ele>
        <time>2019-11-04T10:35:13.000Z</time>
      </trkpt>
      <trkpt lat="36.37072943150997161865234375" lon="-5.9163886494934558868408203125">
        <ele>64.40000152587890625</ele>
        <time>2019-11-04T10:35:18.000Z</time>
      </trkpt>
      <trkpt lat="36.370577551424503326416015625" lon="-5.91653172858059406280517578125">
        <ele>65.59999847412109375</ele>
        <time>2019-11-04T10:35:23.000Z</time>
      </trkpt>
      <trkpt lat="36.3704144395887851715087890625" lon="-5.91668042354285717010498046875">
        <ele>66.8000030517578125</ele>
        <time>2019-11-04T10:35:28.000Z</time>
      </trkpt>
      <trkpt lat="36.37025107629597187042236328125" lon="-5.91683196835219860076904296875">
        <ele>68</ele>
        <time>2019-11-04T10:35:33.000Z</time>
      </trkpt>
      <trkpt lat="36.3700835220515727996826171875" lon="-5.91698971576988697052001953125">
        <ele>68</ele>
        <time>2019-11-04T10:35:38.000Z</time>
      </trkpt>
      <trkpt lat="36.3699133694171905517578125" lon="-5.91714595444500446319580078125">
        <ele>68</ele>
        <time>2019-11-04T10:35:43.000Z</time>
      </trkpt>
      <trkpt lat="36.36974061839282512664794921875" lon="-5.917309820652008056640625">
        <ele>68</ele>
        <time>2019-11-04T10:35:48.000Z</time>
      </trkpt>
      <trkpt lat="36.36957683600485324859619140625" lon="-5.91746765188872814178466796875">
        <ele>68</ele>
        <time>2019-11-04T10:35:53.000Z</time>
      </trkpt>
      <trkpt lat="36.36940467171370983123779296875" lon="-5.91762053780257701873779296875">
        <ele>68</ele>
        <time>2019-11-04T10:35:58.000Z</time>
      </trkpt>
      <trkpt lat="36.36934247799217700958251953125" lon="-5.91768063604831695556640625">
        <ele>68.1999969482421875</ele>
        <time>2019-11-04T10:36:00.000Z</time>
      </trkpt>
      <trkpt lat="36.36928774416446685791015625" lon="-5.91773721389472484588623046875">
        <ele>68.40000152587890625</ele>
        <time>2019-11-04T10:36:02.000Z</time>
      </trkpt>
      <trkpt lat="36.3691320084035396575927734375" lon="-5.91788004152476787567138671875">
        <ele>69</ele>
        <time>2019-11-04T10:36:07.000Z</time>
      </trkpt>
      <trkpt lat="36.368978954851627349853515625" lon="-5.918025635182857513427734375">
        <ele>70</ele>
        <time>2019-11-04T10:36:12.000Z</time>
      </trkpt>
      <trkpt lat="36.3688222132623195648193359375" lon="-5.9181676246225833892822265625">
        <ele>71.1999969482421875</ele>
        <time>2019-11-04T10:36:17.000Z</time>
      </trkpt>
      <trkpt lat="36.36866270564496517181396484375" lon="-5.9183168224990367889404296875">
        <ele>71.1999969482421875</ele>
        <time>2019-11-04T10:36:22.000Z</time>
      </trkpt>
      <trkpt lat="36.36850881390273571014404296875" lon="-5.9184623323380947113037109375">
        <ele>71.1999969482421875</ele>
        <time>2019-11-04T10:36:27.000Z</time>
      </trkpt>
      <trkpt lat="36.3683457858860492706298828125" lon="-5.918602310121059417724609375">
        <ele>71.1999969482421875</ele>
        <time>2019-11-04T10:36:32.000Z</time>
      </trkpt>
      <trkpt lat="36.3681872002780437469482421875" lon="-5.9187541902065277099609375">
        <ele>71</ele>
        <time>2019-11-04T10:36:37.000Z</time>
      </trkpt>
      <trkpt lat="36.3680250942707061767578125" lon="-5.91890380717813968658447265625">
        <ele>70.40000152587890625</ele>
        <time>2019-11-04T10:36:42.000Z</time>
      </trkpt>
      <trkpt lat="36.367862485349178314208984375" lon="-5.9190653264522552490234375">
        <ele>70.40000152587890625</ele>
        <time>2019-11-04T10:36:47.000Z</time>
      </trkpt>
      <trkpt lat="36.36769048869609832763671875" lon="-5.9192314557731151580810546875">
        <ele>70.40000152587890625</ele>
        <time>2019-11-04T10:36:52.000Z</time>
      </trkpt>
      <trkpt lat="36.36752343736588954925537109375" lon="-5.91939297504723072052001953125">
        <ele>70.40000152587890625</ele>
        <time>2019-11-04T10:36:57.000Z</time>
      </trkpt>
      <trkpt lat="36.3673533685505390167236328125" lon="-5.91955373995006084442138671875">
        <ele>70.40000152587890625</ele>
        <time>2019-11-04T10:37:02.000Z</time>
      </trkpt>
      <trkpt lat="36.36717860586941242218017578125" lon="-5.91971467249095439910888671875">
        <ele>70.40000152587890625</ele>
        <time>2019-11-04T10:37:07.000Z</time>
      </trkpt>
      <trkpt lat="36.36700442992150783538818359375" lon="-5.91987728141248226165771484375">
        <ele>70.59999847412109375</ele>
        <time>2019-11-04T10:37:12.000Z</time>
      </trkpt>
      <trkpt lat="36.36682673357427120208740234375" lon="-5.9200418181717395782470703125">
        <ele>71</ele>
        <time>2019-11-04T10:37:17.000Z</time>
      </trkpt>
      <trkpt lat="36.3666556589305400848388671875" lon="-5.920206606388092041015625">
        <ele>71</ele>
        <time>2019-11-04T10:37:22.000Z</time>
      </trkpt>
      <trkpt lat="36.36651257984340190887451171875" lon="-5.92034381814301013946533203125">
        <ele>71.8000030517578125</ele>
        <time>2019-11-04T10:37:26.000Z</time>
      </trkpt>
      <trkpt lat="36.36633622460067272186279296875" lon="-5.920507349073886871337890625">
        <ele>72.8000030517578125</ele>
        <time>2019-11-04T10:37:31.000Z</time>
      </trkpt>
      <trkpt lat="36.36618970893323421478271484375" lon="-5.92064372263848781585693359375">
        <ele>73.1999969482421875</ele>
        <time>2019-11-04T10:37:35.000Z</time>
      </trkpt>
      <trkpt lat="36.3660434447228908538818359375" lon="-5.92077749781310558319091796875">
        <ele>73.40000152587890625</ele>
        <time>2019-11-04T10:37:39.000Z</time>
      </trkpt>
      <trkpt lat="36.36589667759835720062255859375" lon="-5.92091361992061138153076171875">
        <ele>73</ele>
        <time>2019-11-04T10:37:43.000Z</time>
      </trkpt>
      <trkpt lat="36.36574932374060153961181640625" lon="-5.921056531369686126708984375">
        <ele>72.40000152587890625</ele>
        <time>2019-11-04T10:37:47.000Z</time>
      </trkpt>
      <trkpt lat="36.3656059093773365020751953125" lon="-5.92119474895298480987548828125">
        <ele>72</ele>
        <time>2019-11-04T10:37:51.000Z</time>
      </trkpt>
      <trkpt lat="36.36546316556632518768310546875" lon="-5.9213349781930446624755859375">
        <ele>72.1999969482421875</ele>
        <time>2019-11-04T10:37:55.000Z</time>
      </trkpt>
      <trkpt lat="36.365319080650806427001953125" lon="-5.9214781410992145538330078125">
        <ele>72.8000030517578125</ele>
        <time>2019-11-04T10:37:59.000Z</time>
      </trkpt>
      <trkpt lat="36.36518304236233234405517578125" lon="-5.9216327033936977386474609375">
        <ele>73.40000152587890625</ele>
        <time>2019-11-04T10:38:03.000Z</time>
      </trkpt>
      <trkpt lat="36.3650211878120899200439453125" lon="-5.92182037420570850372314453125">
        <ele>74.40000152587890625</ele>
        <time>2019-11-04T10:38:08.000Z</time>
      </trkpt>
      <trkpt lat="36.36486704461276531219482421875" lon="-5.92200812883675098419189453125">
        <ele>74.59999847412109375</ele>
        <time>2019-11-04T10:38:13.000Z</time>
      </trkpt>
      <trkpt lat="36.36471985839307308197021484375" lon="-5.9222087077796459197998046875">
        <ele>74.40000152587890625</ele>
        <time>2019-11-04T10:38:18.000Z</time>
      </trkpt>
      <trkpt lat="36.36457937769591808319091796875" lon="-5.9224100410938262939453125">
        <ele>74.59999847412109375</ele>
        <time>2019-11-04T10:38:23.000Z</time>
      </trkpt>
      <trkpt lat="36.36443973518908023834228515625" lon="-5.9226140566170215606689453125">
        <ele>74.8000030517578125</ele>
        <time>2019-11-04T10:38:28.000Z</time>
      </trkpt>
      <trkpt lat="36.3643087260425090789794921875" lon="-5.9228212572634220123291015625">
        <ele>75.8000030517578125</ele>
        <time>2019-11-04T10:38:33.000Z</time>
      </trkpt>
      <trkpt lat="36.36418945156037807464599609375" lon="-5.923025272786617279052734375">
        <ele>76.59999847412109375</ele>
        <time>2019-11-04T10:38:38.000Z</time>
      </trkpt>
      <trkpt lat="36.36408065445721149444580078125" lon="-5.923231802880764007568359375">
        <ele>77</ele>
        <time>2019-11-04T10:38:43.000Z</time>
      </trkpt>
      <trkpt lat="36.36397789232432842254638671875" lon="-5.92343606986105442047119140625">
        <ele>76.8000030517578125</ele>
        <time>2019-11-04T10:38:48.000Z</time>
      </trkpt>
      <trkpt lat="36.363880075514316558837890625" lon="-5.92365257441997528076171875">
        <ele>77</ele>
        <time>2019-11-04T10:38:53.000Z</time>
      </trkpt>
      <trkpt lat="36.36378745548427104949951171875" lon="-5.9238710068166255950927734375">
        <ele>76.8000030517578125</ele>
        <time>2019-11-04T10:38:58.000Z</time>
      </trkpt>
      <trkpt lat="36.36369592510163784027099609375" lon="-5.924081392586231231689453125">
        <ele>76.59999847412109375</ele>
        <time>2019-11-04T10:39:03.000Z</time>
      </trkpt>
      <trkpt lat="36.363613866269588470458984375" lon="-5.92429571785032749176025390625">
        <ele>76.8000030517578125</ele>
        <time>2019-11-04T10:39:08.000Z</time>
      </trkpt>
      <trkpt lat="36.36353717185556888580322265625" lon="-5.92450685799121856689453125">
        <ele>77</ele>
        <time>2019-11-04T10:39:13.000Z</time>
      </trkpt>
      <trkpt lat="36.36346600949764251708984375" lon="-5.9247192554175853729248046875">
        <ele>77</ele>
        <time>2019-11-04T10:39:18.000Z</time>
      </trkpt>
      <trkpt lat="36.363402307033538818359375" lon="-5.9249284677207469940185546875">
        <ele>77.40000152587890625</ele>
        <time>2019-11-04T10:39:23.000Z</time>
      </trkpt>
      <trkpt lat="36.3633312284946441650390625" lon="-5.92516642995178699493408203125">
        <ele>78</ele>
        <time>2019-11-04T10:39:29.000Z</time>
      </trkpt>
      <trkpt lat="36.36326157487928867340087890625" lon="-5.92540564946830272674560546875">
        <ele>79.1999969482421875</ele>
        <time>2019-11-04T10:39:35.000Z</time>
      </trkpt>
      <trkpt lat="36.3631909154355525970458984375" lon="-5.92565341852605342864990234375">
        <ele>80.59999847412109375</ele>
        <time>2019-11-04T10:39:41.000Z</time>
      </trkpt>
      <trkpt lat="36.36310684494674205780029296875" lon="-5.92589649371802806854248046875">
        <ele>82.1999969482421875</ele>
        <time>2019-11-04T10:39:47.000Z</time>
      </trkpt>
      <trkpt lat="36.36303157545626163482666015625" lon="-5.9261042810976505279541015625">
        <ele>83.40000152587890625</ele>
        <time>2019-11-04T10:39:52.000Z</time>
      </trkpt>
      <trkpt lat="36.3629521988332271575927734375" lon="-5.92631399631500244140625">
        <ele>84.40000152587890625</ele>
        <time>2019-11-04T10:39:57.000Z</time>
      </trkpt>
      <trkpt lat="36.362852789461612701416015625" lon="-5.92652094550430774688720703125">
        <ele>85.1999969482421875</ele>
        <time>2019-11-04T10:40:02.000Z</time>
      </trkpt>
      <trkpt lat="36.3627537153661251068115234375" lon="-5.92673149891197681427001953125">
        <ele>85.8000030517578125</ele>
        <time>2019-11-04T10:40:07.000Z</time>
      </trkpt>
      <trkpt lat="36.3626373745501041412353515625" lon="-5.92693023383617401123046875">
        <ele>85.40000152587890625</ele>
        <time>2019-11-04T10:40:12.000Z</time>
      </trkpt>
      <trkpt lat="36.3625046052038669586181640625" lon="-5.92712461017072200775146484375">
        <ele>84.8000030517578125</ele>
        <time>2019-11-04T10:40:17.000Z</time>
      </trkpt>
      <trkpt lat="36.3623580895364284515380859375" lon="-5.92732342891395092010498046875">
        <ele>83.59999847412109375</ele>
        <time>2019-11-04T10:40:22.000Z</time>
      </trkpt>
      <trkpt lat="36.3622303493320941925048828125" lon="-5.9274809248745441436767578125">
        <ele>83.1999969482421875</ele>
        <time>2019-11-04T10:40:26.000Z</time>
      </trkpt>
      <trkpt lat="36.36208358220756053924560546875" lon="-5.92763858847320079803466796875">
        <ele>83</ele>
        <time>2019-11-04T10:40:30.000Z</time>
      </trkpt>
      <trkpt lat="36.36193891055881977081298828125" lon="-5.9277820028364658355712890625">
        <ele>83</ele>
        <time>2019-11-04T10:40:34.000Z</time>
      </trkpt>
      <trkpt lat="36.361766494810581207275390625" lon="-5.92794469557702541351318359375">
        <ele>82.8000030517578125</ele>
        <time>2019-11-04T10:40:39.000Z</time>
      </trkpt>
      <trkpt lat="36.36158502660691738128662109375" lon="-5.92809288762509822845458984375">
        <ele>82.1999969482421875</ele>
        <time>2019-11-04T10:40:44.000Z</time>
      </trkpt>
      <trkpt lat="36.36139777489006519317626953125" lon="-5.9282289259135723114013671875">
        <ele>81.8000030517578125</ele>
        <time>2019-11-04T10:40:49.000Z</time>
      </trkpt>
      <trkpt lat="36.36119962669909000396728515625" lon="-5.928340069949626922607421875">
        <ele>81.40000152587890625</ele>
        <time>2019-11-04T10:40:54.000Z</time>
      </trkpt>
      <trkpt lat="36.36102461256086826324462890625" lon="-5.9284304268658161163330078125">
        <ele>80.8000030517578125</ele>
        <time>2019-11-04T10:40:58.000Z</time>
      </trkpt>
      <trkpt lat="36.36083350516855716705322265625" lon="-5.92851617373526096343994140625">
        <ele>80.40000152587890625</ele>
        <time>2019-11-04T10:41:02.000Z</time>
      </trkpt>
      <trkpt lat="36.36063066311180591583251953125" lon="-5.9285818040370941162109375">
        <ele>79.8000030517578125</ele>
        <time>2019-11-04T10:41:06.000Z</time>
      </trkpt>
      <trkpt lat="36.36041122488677501678466796875" lon="-5.92864978127181529998779296875">
        <ele>79.40000152587890625</ele>
        <time>2019-11-04T10:41:10.000Z</time>
      </trkpt>
      <trkpt lat="36.3601804710924625396728515625" lon="-5.92872731387615203857421875">
        <ele>78.59999847412109375</ele>
        <time>2019-11-04T10:41:14.000Z</time>
      </trkpt>
      <trkpt lat="36.359994895756244659423828125" lon="-5.92877366580069065093994140625">
        <ele>77</ele>
        <time>2019-11-04T10:41:17.000Z</time>
      </trkpt>
      <trkpt lat="36.3597945682704448699951171875" lon="-5.92882395721971988677978515625">
        <ele>76.1999969482421875</ele>
        <time>2019-11-04T10:41:20.000Z</time>
      </trkpt>
      <trkpt lat="36.3595940731465816497802734375" lon="-5.9288699738681316375732421875">
        <ele>75.1999969482421875</ele>
        <time>2019-11-04T10:41:23.000Z</time>
      </trkpt>
      <trkpt lat="36.35939198546111583709716796875" lon="-5.92892219312489032745361328125">
        <ele>74.59999847412109375</ele>
        <time>2019-11-04T10:41:26.000Z</time>
      </trkpt>
      <trkpt lat="36.3591872155666351318359375" lon="-5.9289792738854885101318359375">
        <ele>73.40000152587890625</ele>
        <time>2019-11-04T10:41:29.000Z</time>
      </trkpt>
      <trkpt lat="36.35898177511990070343017578125" lon="-5.9290379472076892852783203125">
        <ele>73</ele>
        <time>2019-11-04T10:41:32.000Z</time>
      </trkpt>
      <trkpt lat="36.35877843014895915985107421875" lon="-5.9290967881679534912109375">
        <ele>73</ele>
        <time>2019-11-04T10:41:35.000Z</time>
      </trkpt>
      <trkpt lat="36.35856636799871921539306640625" lon="-5.92915034852921962738037109375">
        <ele>73</ele>
        <time>2019-11-04T10:41:38.000Z</time>
      </trkpt>
      <trkpt lat="36.35835380293428897857666015625" lon="-5.92921053059399127960205078125">
        <ele>73</ele>
        <time>2019-11-04T10:41:41.000Z</time>
      </trkpt>
      <trkpt lat="36.358144171535968780517578125" lon="-5.92926518060266971588134765625">
        <ele>72</ele>
        <time>2019-11-04T10:41:44.000Z</time>
      </trkpt>
      <trkpt lat="36.35794007219374179840087890625" lon="-5.9293232671916484832763671875">
        <ele>70.8000030517578125</ele>
        <time>2019-11-04T10:41:47.000Z</time>
      </trkpt>
      <trkpt lat="36.357739157974720001220703125" lon="-5.92937498353421688079833984375">
        <ele>70</ele>
        <time>2019-11-04T10:41:50.000Z</time>
      </trkpt>
      <trkpt lat="36.35754511691629886627197265625" lon="-5.9294265322387218475341796875">
        <ele>70</ele>
        <time>2019-11-04T10:41:53.000Z</time>
      </trkpt>
      <trkpt lat="36.3573651574552059173583984375" lon="-5.92947858385741710662841796875">
        <ele>70.40000152587890625</ele>
        <time>2019-11-04T10:41:56.000Z</time>
      </trkpt>
      <trkpt lat="36.35718603618443012237548828125" lon="-5.92953390441834926605224609375">
        <ele>70.8000030517578125</ele>
        <time>2019-11-04T10:41:59.000Z</time>
      </trkpt>
      <trkpt lat="36.35696307756006717681884765625" lon="-5.92960582114756107330322265625">
        <ele>71.40000152587890625</ele>
        <time>2019-11-04T10:42:03.000Z</time>
      </trkpt>
      <trkpt lat="36.35674581862986087799072265625" lon="-5.9296726249158382415771484375">
        <ele>71.8000030517578125</ele>
        <time>2019-11-04T10:42:07.000Z</time>
      </trkpt>
      <trkpt lat="36.3565276376903057098388671875" lon="-5.929738841950893402099609375">
        <ele>71.59999847412109375</ele>
        <time>2019-11-04T10:42:11.000Z</time>
      </trkpt>
      <trkpt lat="36.3563140667974948883056640625" lon="-5.929804556071758270263671875">
        <ele>70.40000152587890625</ele>
        <time>2019-11-04T10:42:15.000Z</time>
      </trkpt>
      <trkpt lat="36.356107704341411590576171875" lon="-5.92985652387142181396484375">
        <ele>69.40000152587890625</ele>
        <time>2019-11-04T10:42:19.000Z</time>
      </trkpt>
      <trkpt lat="36.35590427555143833160400390625" lon="-5.929909832775592803955078125">
        <ele>69.8000030517578125</ele>
        <time>2019-11-04T10:42:23.000Z</time>
      </trkpt>
      <trkpt lat="36.35568492114543914794921875" lon="-5.92997990548610687255859375">
        <ele>70.1999969482421875</ele>
        <time>2019-11-04T10:42:27.000Z</time>
      </trkpt>
      <trkpt lat="36.35550789535045623779296875" lon="-5.93003447167575359344482421875">
        <ele>70</ele>
        <time>2019-11-04T10:42:30.000Z</time>
      </trkpt>
      <trkpt lat="36.355325840413570404052734375" lon="-5.930093564093112945556640625">
        <ele>68.59999847412109375</ele>
        <time>2019-11-04T10:42:33.000Z</time>
      </trkpt>
      <trkpt lat="36.35514311492443084716796875" lon="-5.930149890482425689697265625">
        <ele>67.59999847412109375</ele>
        <time>2019-11-04T10:42:36.000Z</time>
      </trkpt>
      <trkpt lat="36.3549592159688472747802734375" lon="-5.93020680360496044158935546875">
        <ele>66.59999847412109375</ele>
        <time>2019-11-04T10:42:39.000Z</time>
      </trkpt>
      <trkpt lat="36.35476852767169475555419921875" lon="-5.93027821741998195648193359375">
        <ele>67</ele>
        <time>2019-11-04T10:42:42.000Z</time>
      </trkpt>
      <trkpt lat="36.354568116366863250732421875" lon="-5.930345021188259124755859375">
        <ele>67</ele>
        <time>2019-11-04T10:42:45.000Z</time>
      </trkpt>
      <trkpt lat="36.354366280138492584228515625" lon="-5.930406711995601654052734375">
        <ele>66.8000030517578125</ele>
        <time>2019-11-04T10:42:48.000Z</time>
      </trkpt>
      <trkpt lat="36.3541589118540287017822265625" lon="-5.93047318048775196075439453125">
        <ele>65.8000030517578125</ele>
        <time>2019-11-04T10:42:51.000Z</time>
      </trkpt>
      <trkpt lat="36.35394282639026641845703125" lon="-5.9305463545024394989013671875">
        <ele>64.1999969482421875</ele>
        <time>2019-11-04T10:42:54.000Z</time>
      </trkpt>
      <trkpt lat="36.35372078977525234222412109375" lon="-5.930617265403270721435546875">
        <ele>62.799999237060546875</ele>
        <time>2019-11-04T10:42:57.000Z</time>
      </trkpt>
      <trkpt lat="36.3534994237124919891357421875" lon="-5.930688679218292236328125">
        <ele>61.799999237060546875</ele>
        <time>2019-11-04T10:43:00.000Z</time>
      </trkpt>
      <trkpt lat="36.35328032076358795166015625" lon="-5.93075699172914028167724609375">
        <ele>61</ele>
        <time>2019-11-04T10:43:03.000Z</time>
      </trkpt>
      <trkpt lat="36.35306180454790592193603515625" lon="-5.93082404695451259613037109375">
        <ele>61.200000762939453125</ele>
        <time>2019-11-04T10:43:06.000Z</time>
      </trkpt>
      <trkpt lat="36.35284982621669769287109375" lon="-5.93089328147470951080322265625">
        <ele>61</ele>
        <time>2019-11-04T10:43:09.000Z</time>
      </trkpt>
      <trkpt lat="36.35263818316161632537841796875" lon="-5.9309617616236209869384765625">
        <ele>60.40000152587890625</ele>
        <time>2019-11-04T10:43:12.000Z</time>
      </trkpt>
      <trkpt lat="36.3524253666400909423828125" lon="-5.93103493563830852508544921875">
        <ele>59.200000762939453125</ele>
        <time>2019-11-04T10:43:15.000Z</time>
      </trkpt>
      <trkpt lat="36.35221539996564388275146484375" lon="-5.9311012364923954010009765625">
        <ele>58.59999847412109375</ele>
        <time>2019-11-04T10:43:18.000Z</time>
      </trkpt>
      <trkpt lat="36.35201029479503631591796875" lon="-5.931167118251323699951171875">
        <ele>58.200000762939453125</ele>
        <time>2019-11-04T10:43:21.000Z</time>
      </trkpt>
      <trkpt lat="36.3518196903169155120849609375" lon="-5.93121632002294063568115234375">
        <ele>57.59999847412109375</ele>
        <time>2019-11-04T10:43:24.000Z</time>
      </trkpt>
      <trkpt lat="36.35162129066884517669677734375" lon="-5.9312601573765277862548828125">
        <ele>57</ele>
        <time>2019-11-04T10:43:27.000Z</time>
      </trkpt>
      <trkpt lat="36.35142423212528228759765625" lon="-5.93128077685832977294921875">
        <ele>57.200000762939453125</ele>
        <time>2019-11-04T10:43:30.000Z</time>
      </trkpt>
      <trkpt lat="36.3512208871543407440185546875" lon="-5.93128823675215244293212890625">
        <ele>57.59999847412109375</ele>
        <time>2019-11-04T10:43:33.000Z</time>
      </trkpt>
      <trkpt lat="36.35101963765919208526611328125" lon="-5.931273736059665679931640625">
        <ele>58.200000762939453125</ele>
        <time>2019-11-04T10:43:36.000Z</time>
      </trkpt>
      <trkpt lat="36.3508242554962635040283203125" lon="-5.93124079518020153045654296875">
        <ele>57.200000762939453125</ele>
        <time>2019-11-04T10:43:39.000Z</time>
      </trkpt>
      <trkpt lat="36.3506354950368404388427734375" lon="-5.93118153512477874755859375">
        <ele>56.799999237060546875</ele>
        <time>2019-11-04T10:43:42.000Z</time>
      </trkpt>
      <trkpt lat="36.3504547812044620513916015625" lon="-5.9311210177838802337646484375">
        <ele>56.59999847412109375</ele>
        <time>2019-11-04T10:43:45.000Z</time>
      </trkpt>
      <trkpt lat="36.35028001852333545684814453125" lon="-5.9310432337224483489990234375">
        <ele>55.799999237060546875</ele>
        <time>2019-11-04T10:43:48.000Z</time>
      </trkpt>
      <trkpt lat="36.3501134701073169708251953125" lon="-5.93095296062529087066650390625">
        <ele>55</ele>
        <time>2019-11-04T10:43:51.000Z</time>
      </trkpt>
      <trkpt lat="36.34988866746425628662109375" lon="-5.93085505999624729156494140625">
        <ele>54.799999237060546875</ele>
        <time>2019-11-04T10:43:55.000Z</time>
      </trkpt>
      <trkpt lat="36.34971491061151027679443359375" lon="-5.93078968115150928497314453125">
        <ele>54.799999237060546875</ele>
        <time>2019-11-04T10:43:58.000Z</time>
      </trkpt>
      <trkpt lat="36.34953838773071765899658203125" lon="-5.9307274036109447479248046875">
        <ele>56</ele>
        <time>2019-11-04T10:44:01.000Z</time>
      </trkpt>
      <trkpt lat="36.34936437942087650299072265625" lon="-5.93066462315618991851806640625">
        <ele>57.40000152587890625</ele>
        <time>2019-11-04T10:44:04.000Z</time>
      </trkpt>
      <trkpt lat="36.34918685071170330047607421875" lon="-5.93060351908206939697265625">
        <ele>59</ele>
        <time>2019-11-04T10:44:07.000Z</time>
      </trkpt>
      <trkpt lat="36.3490114174783229827880859375" lon="-5.930544845759868621826171875">
        <ele>59</ele>
        <time>2019-11-04T10:44:10.000Z</time>
      </trkpt>
      <trkpt lat="36.3488347269594669342041015625" lon="-5.9304950572550296783447265625">
        <ele>58.40000152587890625</ele>
        <time>2019-11-04T10:44:13.000Z</time>
      </trkpt>
      <trkpt lat="36.3486540131270885467529296875" lon="-5.9304565005004405975341796875">
        <ele>57.799999237060546875</ele>
        <time>2019-11-04T10:44:16.000Z</time>
      </trkpt>
      <trkpt lat="36.34846600703895092010498046875" lon="-5.93043479137122631072998046875">
        <ele>58</ele>
        <time>2019-11-04T10:44:19.000Z</time>
      </trkpt>
      <trkpt lat="36.348276995122432708740234375" lon="-5.9304326958954334259033203125">
        <ele>58.59999847412109375</ele>
        <time>2019-11-04T10:44:22.000Z</time>
      </trkpt>
      <trkpt lat="36.34808764792978763580322265625" lon="-5.93044853769242763519287109375">
        <ele>59.200000762939453125</ele>
        <time>2019-11-04T10:44:25.000Z</time>
      </trkpt>
      <trkpt lat="36.347900144755840301513671875" lon="-5.93048818409442901611328125">
        <ele>59.59999847412109375</ele>
        <time>2019-11-04T10:44:28.000Z</time>
      </trkpt>
      <trkpt lat="36.3477180898189544677734375" lon="-5.9305480308830738067626953125">
        <ele>59.59999847412109375</ele>
        <time>2019-11-04T10:44:31.000Z</time>
      </trkpt>
      <trkpt lat="36.34754114784300327301025390625" lon="-5.9306278266012668609619140625">
        <ele>59</ele>
        <time>2019-11-04T10:44:34.000Z</time>
      </trkpt>
      <trkpt lat="36.34736697189509868621826171875" lon="-5.9307168424129486083984375">
        <ele>58.59999847412109375</ele>
        <time>2019-11-04T10:44:37.000Z</time>
      </trkpt>
      <trkpt lat="36.3471950590610504150390625" lon="-5.9308105520904064178466796875">
        <ele>58</ele>
        <time>2019-11-04T10:44:40.000Z</time>
      </trkpt>
      <trkpt lat="36.34702146984636783599853515625" lon="-5.93089965172111988067626953125">
        <ele>58</ele>
        <time>2019-11-04T10:44:43.000Z</time>
      </trkpt>
      <trkpt lat="36.34685106575489044189453125" lon="-5.930987410247325897216796875">
        <ele>58.40000152587890625</ele>
        <time>2019-11-04T10:44:46.000Z</time>
      </trkpt>
      <trkpt lat="36.3466772250831127166748046875" lon="-5.931076593697071075439453125">
        <ele>59</ele>
        <time>2019-11-04T10:44:49.000Z</time>
      </trkpt>
      <trkpt lat="36.34650774300098419189453125" lon="-5.93116368167102336883544921875">
        <ele>59.59999847412109375</ele>
        <time>2019-11-04T10:44:52.000Z</time>
      </trkpt>
      <trkpt lat="36.34628738276660442352294921875" lon="-5.93127499334514141082763671875">
        <ele>60</ele>
        <time>2019-11-04T10:44:56.000Z</time>
      </trkpt>
      <trkpt lat="36.3460650108754634857177734375" lon="-5.93138714320957660675048828125">
        <ele>59.59999847412109375</ele>
        <time>2019-11-04T10:45:00.000Z</time>
      </trkpt>
      <trkpt lat="36.34584448300302028656005859375" lon="-5.93149543739855289459228515625">
        <ele>58.40000152587890625</ele>
        <time>2019-11-04T10:45:04.000Z</time>
      </trkpt>
      <trkpt lat="36.34561867453157901763916015625" lon="-5.93158721923828125">
        <ele>58</ele>
        <time>2019-11-04T10:45:08.000Z</time>
      </trkpt>
      <trkpt lat="36.34538716636598110198974609375" lon="-5.93166005797684192657470703125">
        <ele>57.59999847412109375</ele>
        <time>2019-11-04T10:45:12.000Z</time>
      </trkpt>
      <trkpt lat="36.34514878503978252410888671875" lon="-5.93170297332108020782470703125">
        <ele>56.799999237060546875</ele>
        <time>2019-11-04T10:45:16.000Z</time>
      </trkpt>
      <trkpt lat="36.34495616890490055084228515625" lon="-5.9317174740135669708251953125">
        <ele>55.799999237060546875</ele>
        <time>2019-11-04T10:45:19.000Z</time>
      </trkpt>
      <trkpt lat="36.34475081227719783782958984375" lon="-5.93172325752675533294677734375">
        <ele>54.200000762939453125</ele>
        <time>2019-11-04T10:45:22.000Z</time>
      </trkpt>
      <trkpt lat="36.34452760219573974609375" lon="-5.93170733191072940826416015625">
        <ele>52.59999847412109375</ele>
        <time>2019-11-04T10:45:25.000Z</time>
      </trkpt>
      <trkpt lat="36.34429533965885639190673828125" lon="-5.931663326919078826904296875">
        <ele>51.59999847412109375</ele>
        <time>2019-11-04T10:45:28.000Z</time>
      </trkpt>
      <trkpt lat="36.34405947290360927581787109375" lon="-5.93159149400889873504638671875">
        <ele>50.40000152587890625</ele>
        <time>2019-11-04T10:45:31.000Z</time>
      </trkpt>
      <trkpt lat="36.3438213430345058441162109375" lon="-5.93149744905531406402587890625">
        <ele>49.799999237060546875</ele>
        <time>2019-11-04T10:45:34.000Z</time>
      </trkpt>
      <trkpt lat="36.34357533417642116546630859375" lon="-5.931388400495052337646484375">
        <ele>48.59999847412109375</ele>
        <time>2019-11-04T10:45:37.000Z</time>
      </trkpt>
      <trkpt lat="36.34332840330898761749267578125" lon="-5.93126627616584300994873046875">
        <ele>48</ele>
        <time>2019-11-04T10:45:40.000Z</time>
      </trkpt>
      <trkpt lat="36.343085579574108123779296875" lon="-5.9311481751501560211181640625">
        <ele>47.799999237060546875</ele>
        <time>2019-11-04T10:45:43.000Z</time>
      </trkpt>
      <trkpt lat="36.342848874628543853759765625" lon="-5.93103946186602115631103515625">
        <ele>47.59999847412109375</ele>
        <time>2019-11-04T10:45:46.000Z</time>
      </trkpt>
      <trkpt lat="36.34261577390134334564208984375" lon="-5.9309423156082630157470703125">
        <ele>48</ele>
        <time>2019-11-04T10:45:49.000Z</time>
      </trkpt>
      <trkpt lat="36.34241326712071895599365234375" lon="-5.9308375418186187744140625">
        <ele>47.40000152587890625</ele>
        <time>2019-11-04T10:45:52.000Z</time>
      </trkpt>
      <trkpt lat="36.342224590480327606201171875" lon="-5.93074525706470012664794921875">
        <ele>47</ele>
        <time>2019-11-04T10:45:55.000Z</time>
      </trkpt>
      <trkpt lat="36.34204882197082042694091796875" lon="-5.9306543134152889251708984375">
        <ele>47</ele>
        <time>2019-11-04T10:45:58.000Z</time>
      </trkpt>
      <trkpt lat="36.34182997047901153564453125" lon="-5.93053453601896762847900390625">
        <ele>46.799999237060546875</ele>
        <time>2019-11-04T10:46:02.000Z</time>
      </trkpt>
      <trkpt lat="36.34160944260656833648681640625" lon="-5.9304325282573699951171875">
        <ele>46.40000152587890625</ele>
        <time>2019-11-04T10:46:06.000Z</time>
      </trkpt>
      <trkpt lat="36.34141129441559314727783203125" lon="-5.9303347952663898468017578125">
        <ele>46.59999847412109375</ele>
        <time>2019-11-04T10:46:10.000Z</time>
      </trkpt>
      <trkpt lat="36.3412246294319629669189453125" lon="-5.9302469529211521148681640625">
        <ele>46.799999237060546875</ele>
        <time>2019-11-04T10:46:14.000Z</time>
      </trkpt>
      <trkpt lat="36.34103880263864994049072265625" lon="-5.9301503933966159820556640625">
        <ele>46.59999847412109375</ele>
        <time>2019-11-04T10:46:18.000Z</time>
      </trkpt>
      <trkpt lat="36.34083327837288379669189453125" lon="-5.93005676753818988800048828125">
        <ele>47.40000152587890625</ele>
        <time>2019-11-04T10:46:22.000Z</time>
      </trkpt>
      <trkpt lat="36.340616606175899505615234375" lon="-5.929962135851383209228515625">
        <ele>48.59999847412109375</ele>
        <time>2019-11-04T10:46:26.000Z</time>
      </trkpt>
      <trkpt lat="36.340394653379917144775390625" lon="-5.929892063140869140625">
        <ele>48.799999237060546875</ele>
        <time>2019-11-04T10:46:30.000Z</time>
      </trkpt>
      <trkpt lat="36.34021586738526821136474609375" lon="-5.9298483096063137054443359375">
        <ele>49</ele>
        <time>2019-11-04T10:46:33.000Z</time>
      </trkpt>
      <trkpt lat="36.339980922639369964599609375" lon="-5.929821319878101348876953125">
        <ele>48.799999237060546875</ele>
        <time>2019-11-04T10:46:37.000Z</time>
      </trkpt>
      <trkpt lat="36.339742876589298248291015625" lon="-5.92981989495456218719482421875">
        <ele>48.799999237060546875</ele>
        <time>2019-11-04T10:46:41.000Z</time>
      </trkpt>
      <trkpt lat="36.3395023159682750701904296875" lon="-5.9298432804644107818603515625">
        <ele>49</ele>
        <time>2019-11-04T10:46:45.000Z</time>
      </trkpt>
      <trkpt lat="36.33927156217396259307861328125" lon="-5.929884351789951324462890625">
        <ele>48.799999237060546875</ele>
        <time>2019-11-04T10:46:49.000Z</time>
      </trkpt>
      <trkpt lat="36.33909688331186771392822265625" lon="-5.92994176782667636871337890625">
        <ele>48.799999237060546875</ele>
        <time>2019-11-04T10:46:52.000Z</time>
      </trkpt>
      <trkpt lat="36.33892203681170940399169921875" lon="-5.9300166182219982147216796875">
        <ele>49.200000762939453125</ele>
        <time>2019-11-04T10:46:55.000Z</time>
      </trkpt>
      <trkpt lat="36.338696815073490142822265625" lon="-5.93011460267007350921630859375">
        <ele>49.40000152587890625</ele>
        <time>2019-11-04T10:46:59.000Z</time>
      </trkpt>
      <trkpt lat="36.33847427554428577423095703125" lon="-5.93020780943334102630615234375">
        <ele>49</ele>
        <time>2019-11-04T10:47:03.000Z</time>
      </trkpt>
      <trkpt lat="36.33825047872960567474365234375" lon="-5.9302985854446887969970703125">
        <ele>48</ele>
        <time>2019-11-04T10:47:07.000Z</time>
      </trkpt>
      <trkpt lat="36.33807915262877941131591796875" lon="-5.93037477694451808929443359375">
        <ele>47.40000152587890625</ele>
        <time>2019-11-04T10:47:10.000Z</time>
      </trkpt>
      <trkpt lat="36.33785091340541839599609375" lon="-5.93047485686838626861572265625">
        <ele>46.40000152587890625</ele>
        <time>2019-11-04T10:47:14.000Z</time>
      </trkpt>
      <trkpt lat="36.33768151514232158660888671875" lon="-5.93055264092981815338134765625">
        <ele>45.799999237060546875</ele>
        <time>2019-11-04T10:47:17.000Z</time>
      </trkpt>
      <trkpt lat="36.33751094341278076171875" lon="-5.93062497675418853759765625">
        <ele>45</ele>
        <time>2019-11-04T10:47:20.000Z</time>
      </trkpt>
      <trkpt lat="36.33733802475035190582275390625" lon="-5.930701754987239837646484375">
        <ele>44.799999237060546875</ele>
        <time>2019-11-04T10:47:23.000Z</time>
      </trkpt>
      <trkpt lat="36.3371577300131320953369140625" lon="-5.9307750128209590911865234375">
        <ele>44.59999847412109375</ele>
        <time>2019-11-04T10:47:26.000Z</time>
      </trkpt>
      <trkpt lat="36.33697559125721454620361328125" lon="-5.9308534674346446990966796875">
        <ele>43.200000762939453125</ele>
        <time>2019-11-04T10:47:29.000Z</time>
      </trkpt>
      <trkpt lat="36.33679118938744068145751953125" lon="-5.93093234114348888397216796875">
        <ele>42.200000762939453125</ele>
        <time>2019-11-04T10:47:32.000Z</time>
      </trkpt>
      <trkpt lat="36.3366055302321910858154296875" lon="-5.93100987374782562255859375">
        <ele>41.40000152587890625</ele>
        <time>2019-11-04T10:47:35.000Z</time>
      </trkpt>
      <trkpt lat="36.33641995489597320556640625" lon="-5.93108774162828922271728515625">
        <ele>41.40000152587890625</ele>
        <time>2019-11-04T10:47:38.000Z</time>
      </trkpt>
      <trkpt lat="36.3362340442836284637451171875" lon="-5.931165777146816253662109375">
        <ele>41.799999237060546875</ele>
        <time>2019-11-04T10:47:41.000Z</time>
      </trkpt>
      <trkpt lat="36.3360516540706157684326171875" lon="-5.93124649487435817718505859375">
        <ele>42.200000762939453125</ele>
        <time>2019-11-04T10:47:44.000Z</time>
      </trkpt>
      <trkpt lat="36.3358679227530956268310546875" lon="-5.93132109381258487701416015625">
        <ele>42.59999847412109375</ele>
        <time>2019-11-04T10:47:47.000Z</time>
      </trkpt>
      <trkpt lat="36.335684023797512054443359375" lon="-5.9313981235027313232421875">
        <ele>42.799999237060546875</ele>
        <time>2019-11-04T10:47:50.000Z</time>
      </trkpt>
      <trkpt lat="36.33550372906029224395751953125" lon="-5.931478254497051239013671875">
        <ele>43</ele>
        <time>2019-11-04T10:47:53.000Z</time>
      </trkpt>
      <trkpt lat="36.33527741767466068267822265625" lon="-5.93157975934445858001708984375">
        <ele>41.40000152587890625</ele>
        <time>2019-11-04T10:47:57.000Z</time>
      </trkpt>
      <trkpt lat="36.33505261503159999847412109375" lon="-5.931678079068660736083984375">
        <ele>39.799999237060546875</ele>
        <time>2019-11-04T10:48:01.000Z</time>
      </trkpt>
      <trkpt lat="36.334878690540790557861328125" lon="-5.93174287118017673492431640625">
        <ele>39.200000762939453125</ele>
        <time>2019-11-04T10:48:04.000Z</time>
      </trkpt>
      <trkpt lat="36.33465648628771305084228515625" lon="-5.9318331442773342132568359375">
        <ele>40.200000762939453125</ele>
        <time>2019-11-04T10:48:08.000Z</time>
      </trkpt>
      <trkpt lat="36.3344465196132659912109375" lon="-5.9319337271153926849365234375">
        <ele>40.200000762939453125</ele>
        <time>2019-11-04T10:48:12.000Z</time>
      </trkpt>
      <trkpt lat="36.33423605002462863922119140625" lon="-5.9320249222218990325927734375">
        <ele>40.200000762939453125</ele>
        <time>2019-11-04T10:48:16.000Z</time>
      </trkpt>
      <trkpt lat="36.33402474224567413330078125" lon="-5.932109244167804718017578125">
        <ele>39.799999237060546875</ele>
        <time>2019-11-04T10:48:20.000Z</time>
      </trkpt>
      <trkpt lat="36.33382433094084262847900390625" lon="-5.93218392692506313323974609375">
        <ele>39.200000762939453125</ele>
        <time>2019-11-04T10:48:24.000Z</time>
      </trkpt>
      <trkpt lat="36.33361696265637874603271484375" lon="-5.93225483782589435577392578125">
        <ele>37.40000152587890625</ele>
        <time>2019-11-04T10:48:28.000Z</time>
      </trkpt>
      <trkpt lat="36.3334274478256702423095703125" lon="-5.932350642979145050048828125">
        <ele>37</ele>
        <time>2019-11-04T10:48:32.000Z</time>
      </trkpt>
      <trkpt lat="36.33323072455823421478271484375" lon="-5.93241828493773937225341796875">
        <ele>37.200000762939453125</ele>
        <time>2019-11-04T10:48:36.000Z</time>
      </trkpt>
      <trkpt lat="36.33302821777760982513427734375" lon="-5.9324871003627777099609375">
        <ele>37.59999847412109375</ele>
        <time>2019-11-04T10:48:40.000Z</time>
      </trkpt>
      <trkpt lat="36.33282084949314594268798828125" lon="-5.9325375594198703765869140625">
        <ele>37</ele>
        <time>2019-11-04T10:48:44.000Z</time>
      </trkpt>
      <trkpt lat="36.3326060213148593902587890625" lon="-5.9325945563614368438720703125">
        <ele>36</ele>
        <time>2019-11-04T10:48:48.000Z</time>
      </trkpt>
      <trkpt lat="36.3324085436761379241943359375" lon="-5.93265951611101627349853515625">
        <ele>35.200000762939453125</ele>
        <time>2019-11-04T10:48:52.000Z</time>
      </trkpt>
      <trkpt lat="36.33221651427447795867919921875" lon="-5.93271969817578792572021484375">
        <ele>35.40000152587890625</ele>
        <time>2019-11-04T10:48:56.000Z</time>
      </trkpt>
      <trkpt lat="36.33202205412089824676513671875" lon="-5.932780802249908447265625">
        <ele>35.59999847412109375</ele>
        <time>2019-11-04T10:49:00.000Z</time>
      </trkpt>
      <trkpt lat="36.33182005025446414947509765625" lon="-5.9328460134565830230712890625">
        <ele>35.799999237060546875</ele>
        <time>2019-11-04T10:49:04.000Z</time>
      </trkpt>
      <trkpt lat="36.331620477139949798583984375" lon="-5.932905189692974090576171875">
        <ele>36</ele>
        <time>2019-11-04T10:49:08.000Z</time>
      </trkpt>
      <trkpt lat="36.33141922764480113983154296875" lon="-5.93296595849096775054931640625">
        <ele>36</ele>
        <time>2019-11-04T10:49:12.000Z</time>
      </trkpt>
      <trkpt lat="36.33121755905449390411376953125" lon="-5.93302060849964618682861328125">
        <ele>36</ele>
        <time>2019-11-04T10:49:16.000Z</time>
      </trkpt>
      <trkpt lat="36.33101907558739185333251953125" lon="-5.933070480823516845703125">
        <ele>36.59999847412109375</ele>
        <time>2019-11-04T10:49:20.000Z</time>
      </trkpt>
      <trkpt lat="36.3308270461857318878173828125" lon="-5.9331189282238483428955078125">
        <ele>37</ele>
        <time>2019-11-04T10:49:24.000Z</time>
      </trkpt>
      <trkpt lat="36.33063820190727710723876953125" lon="-5.9331737458705902099609375">
        <ele>37</ele>
        <time>2019-11-04T10:49:28.000Z</time>
      </trkpt>
      <trkpt lat="36.330444328486919403076171875" lon="-5.93323971144855022430419921875">
        <ele>37</ele>
        <time>2019-11-04T10:49:32.000Z</time>
      </trkpt>
      <trkpt lat="36.33025364018976688385009765625" lon="-5.93330509029328823089599609375">
        <ele>37</ele>
        <time>2019-11-04T10:49:36.000Z</time>
      </trkpt>
      <trkpt lat="36.33006672374904155731201171875" lon="-5.93337030149996280670166015625">
        <ele>36.40000152587890625</ele>
        <time>2019-11-04T10:49:40.000Z</time>
      </trkpt>
      <trkpt lat="36.329873017966747283935546875" lon="-5.9334424696862697601318359375">
        <ele>36.200000762939453125</ele>
        <time>2019-11-04T10:49:44.000Z</time>
      </trkpt>
      <trkpt lat="36.32967730052769184112548828125" lon="-5.933511368930339813232421875">
        <ele>36.799999237060546875</ele>
        <time>2019-11-04T10:49:48.000Z</time>
      </trkpt>
      <trkpt lat="36.329488120973110198974609375" lon="-5.93358253128826618194580078125">
        <ele>36.40000152587890625</ele>
        <time>2019-11-04T10:49:52.000Z</time>
      </trkpt>
      <trkpt lat="36.32929609157145023345947265625" lon="-5.9336617402732372283935546875">
        <ele>36</ele>
        <time>2019-11-04T10:49:56.000Z</time>
      </trkpt>
      <trkpt lat="36.3291070796549320220947265625" lon="-5.93374044634401798248291015625">
        <ele>36</ele>
        <time>2019-11-04T10:50:00.000Z</time>
      </trkpt>
      <trkpt lat="36.32891756482422351837158203125" lon="-5.93381814658641815185546875">
        <ele>36.799999237060546875</ele>
        <time>2019-11-04T10:50:04.000Z</time>
      </trkpt>
      <trkpt lat="36.32872528396546840667724609375" lon="-5.933896601200103759765625">
        <ele>36.59999847412109375</ele>
        <time>2019-11-04T10:50:08.000Z</time>
      </trkpt>
      <trkpt lat="36.32853568531572818756103515625" lon="-5.933969356119632720947265625">
        <ele>35.799999237060546875</ele>
        <time>2019-11-04T10:50:12.000Z</time>
      </trkpt>
      <trkpt lat="36.32834860123693943023681640625" lon="-5.93404211103916168212890625">
        <ele>36.200000762939453125</ele>
        <time>2019-11-04T10:50:16.000Z</time>
      </trkpt>
      <trkpt lat="36.328163444995880126953125" lon="-5.934124924242496490478515625">
        <ele>36.40000152587890625</ele>
        <time>2019-11-04T10:50:20.000Z</time>
      </trkpt>
      <trkpt lat="36.327973343431949615478515625" lon="-5.9342068992555141448974609375">
        <ele>37.200000762939453125</ele>
        <time>2019-11-04T10:50:24.000Z</time>
      </trkpt>
      <trkpt lat="36.32778592407703399658203125" lon="-5.93429415486752986907958984375">
        <ele>36.200000762939453125</ele>
        <time>2019-11-04T10:50:28.000Z</time>
      </trkpt>
      <trkpt lat="36.32760194130241870880126953125" lon="-5.93439021147787570953369140625">
        <ele>35.59999847412109375</ele>
        <time>2019-11-04T10:50:32.000Z</time>
      </trkpt>
      <trkpt lat="36.32741653360426425933837890625" lon="-5.93448023311793804168701171875">
        <ele>35.40000152587890625</ele>
        <time>2019-11-04T10:50:36.000Z</time>
      </trkpt>
      <trkpt lat="36.32724101655185222625732421875" lon="-5.9345706738531589508056640625">
        <ele>35</ele>
        <time>2019-11-04T10:50:40.000Z</time>
      </trkpt>
      <trkpt lat="36.32704295217990875244140625" lon="-5.9346766211092472076416015625">
        <ele>33.59999847412109375</ele>
        <time>2019-11-04T10:50:45.000Z</time>
      </trkpt>
      <trkpt lat="36.3268744759261608123779296875" lon="-5.93476806767284870147705078125">
        <ele>32.200000762939453125</ele>
        <time>2019-11-04T10:50:50.000Z</time>
      </trkpt>
      <trkpt lat="36.3266974501311779022216796875" lon="-5.934849120676517486572265625">
        <ele>31.3999996185302734375</ele>
        <time>2019-11-04T10:50:55.000Z</time>
      </trkpt>
      <trkpt lat="36.32648999802768230438232421875" lon="-5.93495942652225494384765625">
        <ele>31.799999237060546875</ele>
        <time>2019-11-04T10:51:00.000Z</time>
      </trkpt>
      <trkpt lat="36.32631615735590457916259765625" lon="-5.935049951076507568359375">
        <ele>33</ele>
        <time>2019-11-04T10:51:04.000Z</time>
      </trkpt>
      <trkpt lat="36.3261477649211883544921875" lon="-5.93513779342174530029296875">
        <ele>34.40000152587890625</ele>
        <time>2019-11-04T10:51:08.000Z</time>
      </trkpt>
      <trkpt lat="36.32597836665809154510498046875" lon="-5.93522689305245876312255859375">
        <ele>35.40000152587890625</ele>
        <time>2019-11-04T10:51:12.000Z</time>
      </trkpt>
      <trkpt lat="36.325812153518199920654296875" lon="-5.93531507067382335662841796875">
        <ele>36</ele>
        <time>2019-11-04T10:51:16.000Z</time>
      </trkpt>
      <trkpt lat="36.3256088085472583770751953125" lon="-5.93542068265378475189208984375">
        <ele>37.200000762939453125</ele>
        <time>2019-11-04T10:51:21.000Z</time>
      </trkpt>
      <trkpt lat="36.32540169171988964080810546875" lon="-5.9355255402624607086181640625">
        <ele>37.59999847412109375</ele>
        <time>2019-11-04T10:51:26.000Z</time>
      </trkpt>
      <trkpt lat="36.32523388601839542388916015625" lon="-5.93561120331287384033203125">
        <ele>37</ele>
        <time>2019-11-04T10:51:30.000Z</time>
      </trkpt>
      <trkpt lat="36.325067169964313507080078125" lon="-5.9356963634490966796875">
        <ele>37</ele>
        <time>2019-11-04T10:51:34.000Z</time>
      </trkpt>
      <trkpt lat="36.324866674840450286865234375" lon="-5.935803987085819244384765625">
        <ele>37</ele>
        <time>2019-11-04T10:51:39.000Z</time>
      </trkpt>
      <trkpt lat="36.32466274313628673553466796875" lon="-5.935908593237400054931640625">
        <ele>37.200000762939453125</ele>
        <time>2019-11-04T10:51:44.000Z</time>
      </trkpt>
      <trkpt lat="36.3244564644992351531982421875" lon="-5.93600993044674396514892578125">
        <ele>36.799999237060546875</ele>
        <time>2019-11-04T10:51:49.000Z</time>
      </trkpt>
      <trkpt lat="36.32425202988088130950927734375" lon="-5.9361142851412296295166015625">
        <ele>36.40000152587890625</ele>
        <time>2019-11-04T10:51:54.000Z</time>
      </trkpt>
      <trkpt lat="36.3240846432745456695556640625" lon="-5.9361994452774524688720703125">
        <ele>36.200000762939453125</ele>
        <time>2019-11-04T10:51:58.000Z</time>
      </trkpt>
      <trkpt lat="36.32388188503682613372802734375" lon="-5.93630178831517696380615234375">
        <ele>36</ele>
        <time>2019-11-04T10:52:03.000Z</time>
      </trkpt>
      <trkpt lat="36.32368071936070919036865234375" lon="-5.936408825218677520751953125">
        <ele>36.59999847412109375</ele>
        <time>2019-11-04T10:52:08.000Z</time>
      </trkpt>
      <trkpt lat="36.3234747759997844696044921875" lon="-5.9365075640380382537841796875">
        <ele>37</ele>
        <time>2019-11-04T10:52:13.000Z</time>
      </trkpt>
      <trkpt lat="36.32327319122850894927978515625" lon="-5.9366074763238430023193359375">
        <ele>37</ele>
        <time>2019-11-04T10:52:18.000Z</time>
      </trkpt>
      <trkpt lat="36.32310773245990276336669921875" lon="-5.93669557012617588043212890625">
        <ele>37.59999847412109375</ele>
        <time>2019-11-04T10:52:22.000Z</time>
      </trkpt>
      <trkpt lat="36.32291746325790882110595703125" lon="-5.9367975778877735137939453125">
        <ele>38</ele>
        <time>2019-11-04T10:52:27.000Z</time>
      </trkpt>
      <trkpt lat="36.3227254338562488555908203125" lon="-5.93689539469778537750244140625">
        <ele>37.59999847412109375</ele>
        <time>2019-11-04T10:52:32.000Z</time>
      </trkpt>
      <trkpt lat="36.322525106370449066162109375" lon="-5.9370000846683979034423828125">
        <ele>37.200000762939453125</ele>
        <time>2019-11-04T10:52:37.000Z</time>
      </trkpt>
      <trkpt lat="36.3223596476018428802490234375" lon="-5.93708910048007965087890625">
        <ele>37.40000152587890625</ele>
        <time>2019-11-04T10:52:41.000Z</time>
      </trkpt>
      <trkpt lat="36.32215940393507480621337890625" lon="-5.93719504773616790771484375">
        <ele>38</ele>
        <time>2019-11-04T10:52:46.000Z</time>
      </trkpt>
      <trkpt lat="36.32196494378149509429931640625" lon="-5.9373004920780658721923828125">
        <ele>38</ele>
        <time>2019-11-04T10:52:51.000Z</time>
      </trkpt>
      <trkpt lat="36.3217678852379322052001953125" lon="-5.93739981763064861297607421875">
        <ele>38.40000152587890625</ele>
        <time>2019-11-04T10:52:56.000Z</time>
      </trkpt>
      <trkpt lat="36.3215744309127330780029296875" lon="-5.93749503605067729949951171875">
        <ele>38.59999847412109375</ele>
        <time>2019-11-04T10:53:01.000Z</time>
      </trkpt>
      <trkpt lat="36.32138106040656566619873046875" lon="-5.93759335577487945556640625">
        <ele>37.40000152587890625</ele>
        <time>2019-11-04T10:53:06.000Z</time>
      </trkpt>
      <trkpt lat="36.3211945630609989166259765625" lon="-5.93768999911844730377197265625">
        <ele>37</ele>
        <time>2019-11-04T10:53:11.000Z</time>
      </trkpt>
      <trkpt lat="36.32099993526935577392578125" lon="-5.93779108487069606781005859375">
        <ele>37.200000762939453125</ele>
        <time>2019-11-04T10:53:16.000Z</time>
      </trkpt>
      <trkpt lat="36.3208026252686977386474609375" lon="-5.9378925897181034088134765625">
        <ele>38</ele>
        <time>2019-11-04T10:53:21.000Z</time>
      </trkpt>
      <trkpt lat="36.32060439325869083404541015625" lon="-5.9379894845187664031982421875">
        <ele>39.200000762939453125</ele>
        <time>2019-11-04T10:53:26.000Z</time>
      </trkpt>
      <trkpt lat="36.320410184562206268310546875" lon="-5.938086546957492828369140625">
        <ele>40.59999847412109375</ele>
        <time>2019-11-04T10:53:31.000Z</time>
      </trkpt>
      <trkpt lat="36.32022066973149776458740234375" lon="-5.9381889738142490386962890625">
        <ele>42</ele>
        <time>2019-11-04T10:53:36.000Z</time>
      </trkpt>
      <trkpt lat="36.320033334195613861083984375" lon="-5.93828762881457805633544921875">
        <ele>42.40000152587890625</ele>
        <time>2019-11-04T10:53:41.000Z</time>
      </trkpt>
      <trkpt lat="36.3198499381542205810546875" lon="-5.9383820928633213043212890625">
        <ele>42.799999237060546875</ele>
        <time>2019-11-04T10:53:46.000Z</time>
      </trkpt>
      <trkpt lat="36.31966595537960529327392578125" lon="-5.93847169540822505950927734375">
        <ele>43</ele>
        <time>2019-11-04T10:53:51.000Z</time>
      </trkpt>
      <trkpt lat="36.31947937421500682830810546875" lon="-5.9385634772479534149169921875">
        <ele>44</ele>
        <time>2019-11-04T10:53:56.000Z</time>
      </trkpt>
      <trkpt lat="36.3193401508033275604248046875" lon="-5.93863547779619693756103515625">
        <ele>44.799999237060546875</ele>
        <time>2019-11-04T10:54:00.000Z</time>
      </trkpt>
      <trkpt lat="36.31916773505508899688720703125" lon="-5.93873019330203533172607421875">
        <ele>45.799999237060546875</ele>
        <time>2019-11-04T10:54:05.000Z</time>
      </trkpt>
      <trkpt lat="36.3189701735973358154296875" lon="-5.938836894929409027099609375">
        <ele>46</ele>
        <time>2019-11-04T10:54:11.000Z</time>
      </trkpt>
      <trkpt lat="36.31877462379634380340576171875" lon="-5.93894108198583126068115234375">
        <ele>46.200000762939453125</ele>
        <time>2019-11-04T10:54:17.000Z</time>
      </trkpt>
      <trkpt lat="36.31857982836663722991943359375" lon="-5.93904870562255382537841796875">
        <ele>47</ele>
        <time>2019-11-04T10:54:23.000Z</time>
      </trkpt>
      <trkpt lat="36.3184050656855106353759765625" lon="-5.93913319520652294158935546875">
        <ele>47.799999237060546875</ele>
        <time>2019-11-04T10:54:29.000Z</time>
      </trkpt>
      <trkpt lat="36.31821773014962673187255859375" lon="-5.939233191311359405517578125">
        <ele>48.59999847412109375</ele>
        <time>2019-11-04T10:54:36.000Z</time>
      </trkpt>
      <trkpt lat="36.3180262036621570587158203125" lon="-5.9393248893320560455322265625">
        <ele>49.200000762939453125</ele>
        <time>2019-11-04T10:54:43.000Z</time>
      </trkpt>
      <trkpt lat="36.31783953867852687835693359375" lon="-5.9394214488565921783447265625">
        <ele>49.59999847412109375</ele>
        <time>2019-11-04T10:54:50.000Z</time>
      </trkpt>
      <trkpt lat="36.31765413098037242889404296875" lon="-5.939514823257923126220703125">
        <ele>50.59999847412109375</ele>
        <time>2019-11-04T10:54:57.000Z</time>
      </trkpt>
      <trkpt lat="36.3174696452915668487548828125" lon="-5.93961532227694988250732421875">
        <ele>51.59999847412109375</ele>
        <time>2019-11-04T10:55:04.000Z</time>
      </trkpt>
      <trkpt lat="36.317281387746334075927734375" lon="-5.93971674330532550811767578125">
        <ele>52.200000762939453125</ele>
        <time>2019-11-04T10:55:11.000Z</time>
      </trkpt>
      <trkpt lat="36.3170958124101161956787109375" lon="-5.93981045298278331756591796875">
        <ele>52.799999237060546875</ele>
        <time>2019-11-04T10:55:18.000Z</time>
      </trkpt>
      <trkpt lat="36.3169000111520290374755859375" lon="-5.93990407884120941162109375">
        <ele>53.59999847412109375</ele>
        <time>2019-11-04T10:55:25.000Z</time>
      </trkpt>
      <trkpt lat="36.3167063891887664794921875" lon="-5.94000172801315784454345703125">
        <ele>53.40000152587890625</ele>
        <time>2019-11-04T10:55:32.000Z</time>
      </trkpt>
      <trkpt lat="36.31652223877608776092529296875" lon="-5.940106920897960662841796875">
        <ele>53.40000152587890625</ele>
        <time>2019-11-04T10:55:39.000Z</time>
      </trkpt>
      <trkpt lat="36.31633331067860126495361328125" lon="-5.94021965749561786651611328125">
        <ele>54.799999237060546875</ele>
        <time>2019-11-04T10:55:46.000Z</time>
      </trkpt>
      <trkpt lat="36.316169612109661102294921875" lon="-5.9403183124959468841552734375">
        <ele>56</ele>
        <time>2019-11-04T10:55:52.000Z</time>
      </trkpt>
      <trkpt lat="36.31598177365958690643310546875" lon="-5.94043314456939697265625">
        <ele>57.59999847412109375</ele>
        <time>2019-11-04T10:55:59.000Z</time>
      </trkpt>
      <trkpt lat="36.31580005399882793426513671875" lon="-5.940547473728656768798828125">
        <ele>59.40000152587890625</ele>
        <time>2019-11-04T10:56:06.000Z</time>
      </trkpt>
      <trkpt lat="36.315642893314361572265625" lon="-5.94065702520310878753662109375">
        <ele>60</ele>
        <time>2019-11-04T10:56:12.000Z</time>
      </trkpt>
      <trkpt lat="36.31548590026795864105224609375" lon="-5.940766744315624237060546875">
        <ele>60.40000152587890625</ele>
        <time>2019-11-04T10:56:18.000Z</time>
      </trkpt>
      <trkpt lat="36.31532706320285797119140625" lon="-5.9408850967884063720703125">
        <ele>60.799999237060546875</ele>
        <time>2019-11-04T10:56:24.000Z</time>
      </trkpt>
      <trkpt lat="36.31517292000353336334228515625" lon="-5.94102113507688045501708984375">
        <ele>61.200000762939453125</ele>
        <time>2019-11-04T10:56:30.000Z</time>
      </trkpt>
      <trkpt lat="36.315016262233257293701171875" lon="-5.9411541558802127838134765625">
        <ele>61.799999237060546875</ele>
        <time>2019-11-04T10:56:36.000Z</time>
      </trkpt>
      <trkpt lat="36.314859688282012939453125" lon="-5.9412919543683528900146484375">
        <ele>62</ele>
        <time>2019-11-04T10:56:42.000Z</time>
      </trkpt>
      <trkpt lat="36.31469967775046825408935546875" lon="-5.94142313115298748016357421875">
        <ele>62</ele>
        <time>2019-11-04T10:56:48.000Z</time>
      </trkpt>
      <trkpt lat="36.31454410962760448455810546875" lon="-5.9415678866207599639892578125">
        <ele>61.59999847412109375</ele>
        <time>2019-11-04T10:56:54.000Z</time>
      </trkpt>
      <trkpt lat="36.31437479518353939056396484375" lon="-5.9417244605720043182373046875">
        <ele>60.59999847412109375</ele>
        <time>2019-11-04T10:57:00.000Z</time>
      </trkpt>
      <trkpt lat="36.3142224960029125213623046875" lon="-5.94187575392425060272216796875">
        <ele>60.40000152587890625</ele>
        <time>2019-11-04T10:57:06.000Z</time>
      </trkpt>
      <trkpt lat="36.3140697777271270751953125" lon="-5.942030064761638641357421875">
        <ele>60.40000152587890625</ele>
        <time>2019-11-04T10:57:12.000Z</time>
      </trkpt>
      <trkpt lat="36.31391529925167560577392578125" lon="-5.9421837888658046722412109375">
        <ele>61.40000152587890625</ele>
        <time>2019-11-04T10:57:18.000Z</time>
      </trkpt>
      <trkpt lat="36.3137564621865749359130859375" lon="-5.94233307056128978729248046875">
        <ele>62.200000762939453125</ele>
        <time>2019-11-04T10:57:24.000Z</time>
      </trkpt>
      <trkpt lat="36.31359863094985485076904296875" lon="-5.942473970353603363037109375">
        <ele>62.799999237060546875</ele>
        <time>2019-11-04T10:57:30.000Z</time>
      </trkpt>
      <trkpt lat="36.31345043890178203582763671875" lon="-5.942614786326885223388671875">
        <ele>63.40000152587890625</ele>
        <time>2019-11-04T10:57:36.000Z</time>
      </trkpt>
      <trkpt lat="36.313292272388935089111328125" lon="-5.94275518320500850677490234375">
        <ele>64.40000152587890625</ele>
        <time>2019-11-04T10:57:42.000Z</time>
      </trkpt>
      <trkpt lat="36.31314131431281566619873046875" lon="-5.9428855217993259429931640625">
        <ele>65.40000152587890625</ele>
        <time>2019-11-04T10:57:48.000Z</time>
      </trkpt>
      <trkpt lat="36.31298641674220561981201171875" lon="-5.94301368109881877899169921875">
        <ele>66.1999969482421875</ele>
        <time>2019-11-04T10:57:54.000Z</time>
      </trkpt>
      <trkpt lat="36.3128140009939670562744140625" lon="-5.94316002912819385528564453125">
        <ele>67.40000152587890625</ele>
        <time>2019-11-04T10:58:01.000Z</time>
      </trkpt>
      <trkpt lat="36.31265130825340747833251953125" lon="-5.94327050261199474334716796875">
        <ele>68.59999847412109375</ele>
        <time>2019-11-04T10:58:07.000Z</time>
      </trkpt>
      <trkpt lat="36.31248484365642070770263671875" lon="-5.94336722977459430694580078125">
        <ele>69.8000030517578125</ele>
        <time>2019-11-04T10:58:13.000Z</time>
      </trkpt>
      <trkpt lat="36.31230982951819896697998046875" lon="-5.9434531442821025848388671875">
        <ele>70</ele>
        <time>2019-11-04T10:58:19.000Z</time>
      </trkpt>
      <trkpt lat="36.3121320493519306182861328125" lon="-5.9435185231268405914306640625">
        <ele>70.1999969482421875</ele>
        <time>2019-11-04T10:58:25.000Z</time>
      </trkpt>
      <trkpt lat="36.31192736327648162841796875" lon="-5.94357845373451709747314453125">
        <ele>70</ele>
        <time>2019-11-04T10:58:32.000Z</time>
      </trkpt>
      <trkpt lat="36.3117367587983608245849609375" lon="-5.94362002797424793243408203125">
        <ele>70.1999969482421875</ele>
        <time>2019-11-04T10:58:38.000Z</time>
      </trkpt>
      <trkpt lat="36.31155327893793582916259765625" lon="-5.94365917146205902099609375">
        <ele>70.59999847412109375</ele>
        <time>2019-11-04T10:58:44.000Z</time>
      </trkpt>
      <trkpt lat="36.3113526999950408935546875" lon="-5.94368658028542995452880859375">
        <ele>71.59999847412109375</ele>
        <time>2019-11-04T10:58:51.000Z</time>
      </trkpt>
      <trkpt lat="36.31114927120506763458251953125" lon="-5.94370954670011997222900390625">
        <ele>72.40000152587890625</ele>
        <time>2019-11-04T10:58:58.000Z</time>
      </trkpt>
      <trkpt lat="36.3109612651169300079345703125" lon="-5.9437441639602184295654296875">
        <ele>73.8000030517578125</ele>
        <time>2019-11-04T10:59:04.000Z</time>
      </trkpt>
      <trkpt lat="36.310776360332965850830078125" lon="-5.943769477307796478271484375">
        <ele>75</ele>
        <time>2019-11-04T10:59:10.000Z</time>
      </trkpt>
      <trkpt lat="36.31059028208255767822265625" lon="-5.94380526803433895111083984375">
        <ele>77</ele>
        <time>2019-11-04T10:59:16.000Z</time>
      </trkpt>
      <trkpt lat="36.31039850413799285888671875" lon="-5.94384298659861087799072265625">
        <ele>78.40000152587890625</ele>
        <time>2019-11-04T10:59:22.000Z</time>
      </trkpt>
      <trkpt lat="36.310189627110958099365234375" lon="-5.94388070516288280487060546875">
        <ele>79.40000152587890625</ele>
        <time>2019-11-04T10:59:29.000Z</time>
      </trkpt>
      <trkpt lat="36.310001872479915618896484375" lon="-5.943916998803615570068359375">
        <ele>79.40000152587890625</ele>
        <time>2019-11-04T10:59:35.000Z</time>
      </trkpt>
      <trkpt lat="36.309814453125" lon="-5.9439503587782382965087890625">
        <ele>79.40000152587890625</ele>
        <time>2019-11-04T10:59:41.000Z</time>
      </trkpt>
      <trkpt lat="36.30962912924587726593017578125" lon="-5.943977348506450653076171875">
        <ele>79.59999847412109375</ele>
        <time>2019-11-04T10:59:47.000Z</time>
      </trkpt>
      <trkpt lat="36.30944992415606975555419921875" lon="-5.94400475732982158660888671875">
        <ele>80.59999847412109375</ele>
        <time>2019-11-04T10:59:53.000Z</time>
      </trkpt>
      <trkpt lat="36.3092701323330402374267578125" lon="-5.94403442926704883575439453125">
        <ele>81.59999847412109375</ele>
        <time>2019-11-04T10:59:59.000Z</time>
      </trkpt>
      <trkpt lat="36.3090729899704456329345703125" lon="-5.94406954944133758544921875">
        <ele>82.59999847412109375</ele>
        <time>2019-11-04T11:00:06.000Z</time>
      </trkpt>
      <trkpt lat="36.3088909350335597991943359375" lon="-5.94410550780594348907470703125">
        <ele>82.40000152587890625</ele>
        <time>2019-11-04T11:00:12.000Z</time>
      </trkpt>
      <trkpt lat="36.30871164612472057342529296875" lon="-5.944135598838329315185546875">
        <ele>83</ele>
        <time>2019-11-04T11:00:18.000Z</time>
      </trkpt>
      <trkpt lat="36.30853294394910335540771484375" lon="-5.94416619278490543365478515625">
        <ele>84.1999969482421875</ele>
        <time>2019-11-04T11:00:24.000Z</time>
      </trkpt>
      <trkpt lat="36.308342255651950836181640625" lon="-5.944201648235321044921875">
        <ele>86.59999847412109375</ele>
        <time>2019-11-04T11:00:31.000Z</time>
      </trkpt>
      <trkpt lat="36.30816061981022357940673828125" lon="-5.94423542730510234832763671875">
        <ele>88.40000152587890625</ele>
        <time>2019-11-04T11:00:38.000Z</time>
      </trkpt>
      <trkpt lat="36.3079726137220859527587890625" lon="-5.944289825856685638427734375">
        <ele>90</ele>
        <time>2019-11-04T11:00:45.000Z</time>
      </trkpt>
      <trkpt lat="36.307791061699390411376953125" lon="-5.94435562379658222198486328125">
        <ele>90</ele>
        <time>2019-11-04T11:00:52.000Z</time>
      </trkpt>
      <trkpt lat="36.30761663429439067840576171875" lon="-5.94443541951477527618408203125">
        <ele>89.59999847412109375</ele>
        <time>2019-11-04T11:00:59.000Z</time>
      </trkpt>
      <trkpt lat="36.3074412010610103607177734375" lon="-5.944536589086055755615234375">
        <ele>89.40000152587890625</ele>
        <time>2019-11-04T11:01:06.000Z</time>
      </trkpt>
      <trkpt lat="36.30727331154048442840576171875" lon="-5.94465284608304500579833984375">
        <ele>89.40000152587890625</ele>
        <time>2019-11-04T11:01:13.000Z</time>
      </trkpt>
      <trkpt lat="36.307109110057353973388671875" lon="-5.94478075392544269561767578125">
        <ele>89.40000152587890625</ele>
        <time>2019-11-04T11:01:20.000Z</time>
      </trkpt>
      <trkpt lat="36.30695379339158535003662109375" lon="-5.944930873811244964599609375">
        <ele>90</ele>
        <time>2019-11-04T11:01:27.000Z</time>
      </trkpt>
      <trkpt lat="36.30680945701897144317626953125" lon="-5.9450879506766796112060546875">
        <ele>92.1999969482421875</ele>
        <time>2019-11-04T11:01:34.000Z</time>
      </trkpt>
      <trkpt lat="36.30667417310178279876708984375" lon="-5.94525642693042755126953125">
        <ele>95</ele>
        <time>2019-11-04T11:01:41.000Z</time>
      </trkpt>
      <trkpt lat="36.3065517134964466094970703125" lon="-5.945435129106044769287109375">
        <ele>97</ele>
        <time>2019-11-04T11:01:48.000Z</time>
      </trkpt>
      <trkpt lat="36.30643813870847225189208984375" lon="-5.94561827369034290313720703125">
        <ele>98.59999847412109375</ele>
        <time>2019-11-04T11:01:55.000Z</time>
      </trkpt>
      <trkpt lat="36.30631190724670886993408203125" lon="-5.9458121471107006072998046875">
        <ele>99.8000030517578125</ele>
        <time>2019-11-04T11:02:02.000Z</time>
      </trkpt>
      <trkpt lat="36.30619489587843418121337890625" lon="-5.9460109658539295196533203125">
        <ele>100</ele>
        <time>2019-11-04T11:02:09.000Z</time>
      </trkpt>
      <trkpt lat="36.30607889033854007720947265625" lon="-5.94618690200150012969970703125">
        <ele>99.1999969482421875</ele>
        <time>2019-11-04T11:02:16.000Z</time>
      </trkpt>
      <trkpt lat="36.30594360642135143280029296875" lon="-5.94636241905391216278076171875">
        <ele>100.1999969482421875</ele>
        <time>2019-11-04T11:02:23.000Z</time>
      </trkpt>
      <trkpt lat="36.30579709075391292572021484375" lon="-5.94652712345123291015625">
        <ele>101.59999847412109375</ele>
        <time>2019-11-04T11:02:30.000Z</time>
      </trkpt>
      <trkpt lat="36.3056290335953235626220703125" lon="-5.94667590223252773284912109375">
        <ele>104.1999969482421875</ele>
        <time>2019-11-04T11:02:37.000Z</time>
      </trkpt>
      <trkpt lat="36.30545577965676784515380859375" lon="-5.946803055703639984130859375">
        <ele>106.40000152587890625</ele>
        <time>2019-11-04T11:02:44.000Z</time>
      </trkpt>
      <trkpt lat="36.30527422763407230377197265625" lon="-5.94691545702517032623291015625">
        <ele>108</ele>
        <time>2019-11-04T11:02:51.000Z</time>
      </trkpt>
      <trkpt lat="36.30508094094693660736083984375" lon="-5.94700866378843784332275390625">
        <ele>109.8000030517578125</ele>
        <time>2019-11-04T11:02:58.000Z</time>
      </trkpt>
      <trkpt lat="36.304884888231754302978515625" lon="-5.94707672484219074249267578125">
        <ele>111.40000152587890625</ele>
        <time>2019-11-04T11:03:05.000Z</time>
      </trkpt>
      <trkpt lat="36.304695792496204376220703125" lon="-5.947124920785427093505859375">
        <ele>112.59999847412109375</ele>
        <time>2019-11-04T11:03:11.000Z</time>
      </trkpt>
      <trkpt lat="36.30451373755931854248046875" lon="-5.94717060215771198272705078125">
        <ele>113.1999969482421875</ele>
        <time>2019-11-04T11:03:18.000Z</time>
      </trkpt>
      <trkpt lat="36.3043207861483097076416015625" lon="-5.947210080921649932861328125">
        <ele>113.8000030517578125</ele>
        <time>2019-11-04T11:03:25.000Z</time>
      </trkpt>
      <trkpt lat="36.304132528603076934814453125" lon="-5.94725006259977817535400390625">
        <ele>114.1999969482421875</ele>
        <time>2019-11-04T11:03:31.000Z</time>
      </trkpt>
      <trkpt lat="36.30394108593463897705078125" lon="-5.94730622135102748870849609375">
        <ele>113</ele>
        <time>2019-11-04T11:03:37.000Z</time>
      </trkpt>
      <trkpt lat="36.303746290504932403564453125" lon="-5.94737964682281017303466796875">
        <ele>111</ele>
        <time>2019-11-04T11:03:43.000Z</time>
      </trkpt>
      <trkpt lat="36.3035727851092815399169921875" lon="-5.94746966846287250518798828125">
        <ele>108.8000030517578125</ele>
        <time>2019-11-04T11:03:48.000Z</time>
      </trkpt>
      <trkpt lat="36.30339869298040866851806640625" lon="-5.94757930375635623931884765625">
        <ele>109.8000030517578125</ele>
        <time>2019-11-04T11:03:53.000Z</time>
      </trkpt>
      <trkpt lat="36.30321831442415714263916015625" lon="-5.94773118384182453155517578125">
        <ele>111.8000030517578125</ele>
        <time>2019-11-04T11:03:58.000Z</time>
      </trkpt>
      <trkpt lat="36.30307070910930633544921875" lon="-5.9478710778057575225830078125">
        <ele>114</ele>
        <time>2019-11-04T11:04:02.000Z</time>
      </trkpt>
      <trkpt lat="36.3029340840876102447509765625" lon="-5.9480242989957332611083984375">
        <ele>114.8000030517578125</ele>
        <time>2019-11-04T11:04:06.000Z</time>
      </trkpt>
      <trkpt lat="36.30278765223920345306396484375" lon="-5.94821196980774402618408203125">
        <ele>114.59999847412109375</ele>
        <time>2019-11-04T11:04:11.000Z</time>
      </trkpt>
      <trkpt lat="36.3026655279099941253662109375" lon="-5.94839452765882015228271484375">
        <ele>113.1999969482421875</ele>
        <time>2019-11-04T11:04:16.000Z</time>
      </trkpt>
      <trkpt lat="36.30254097282886505126953125" lon="-5.9486043266952037811279296875">
        <ele>111.8000030517578125</ele>
        <time>2019-11-04T11:04:22.000Z</time>
      </trkpt>
      <trkpt lat="36.3024167530238628387451171875" lon="-5.94879467971622943878173828125">
        <ele>110.40000152587890625</ele>
        <time>2019-11-04T11:04:28.000Z</time>
      </trkpt>
      <trkpt lat="36.30228909663856029510498046875" lon="-5.94899802468717098236083984375">
        <ele>108.1999969482421875</ele>
        <time>2019-11-04T11:04:34.000Z</time>
      </trkpt>
      <trkpt lat="36.3021693192422389984130859375" lon="-5.94917404465377330780029296875">
        <ele>106.8000030517578125</ele>
        <time>2019-11-04T11:04:39.000Z</time>
      </trkpt>
      <trkpt lat="36.302022635936737060546875" lon="-5.94934252090752124786376953125">
        <ele>106.40000152587890625</ele>
        <time>2019-11-04T11:04:44.000Z</time>
      </trkpt>
      <trkpt lat="36.30184493958950042724609375" lon="-5.949496328830718994140625">
        <ele>106.8000030517578125</ele>
        <time>2019-11-04T11:04:49.000Z</time>
      </trkpt>
      <trkpt lat="36.3016788102686405181884765625" lon="-5.9496215544641017913818359375">
        <ele>107.8000030517578125</ele>
        <time>2019-11-04T11:04:53.000Z</time>
      </trkpt>
      <trkpt lat="36.30149516277015209197998046875" lon="-5.949732027947902679443359375">
        <ele>108.1999969482421875</ele>
        <time>2019-11-04T11:04:57.000Z</time>
      </trkpt>
      <trkpt lat="36.3012898899614810943603515625" lon="-5.94983738847076892852783203125">
        <ele>108.1999969482421875</ele>
        <time>2019-11-04T11:05:01.000Z</time>
      </trkpt>
      <trkpt lat="36.30106718279421329498291015625" lon="-5.949919782578945159912109375">
        <ele>107.1999969482421875</ele>
        <time>2019-11-04T11:05:05.000Z</time>
      </trkpt>
      <trkpt lat="36.3010060787200927734375" lon="-5.949936546385288238525390625">
        <ele>107</ele>
        <time>2019-11-04T11:05:06.000Z</time>
      </trkpt>
      <trkpt lat="36.30081321112811565399169921875" lon="-5.949968397617340087890625">
        <ele>105.8000030517578125</ele>
        <time>2019-11-04T11:05:09.000Z</time>
      </trkpt>
      <trkpt lat="36.30061087198555469512939453125" lon="-5.94998859800398349761962890625">
        <ele>106.59999847412109375</ele>
        <time>2019-11-04T11:05:12.000Z</time>
      </trkpt>
      <trkpt lat="36.30039176903665065765380859375" lon="-5.9500007517635822296142578125">
        <ele>107</ele>
        <time>2019-11-04T11:05:15.000Z</time>
      </trkpt>
      <trkpt lat="36.30016763694584369659423828125" lon="-5.95000050030648708343505859375">
        <ele>105.8000030517578125</ele>
        <time>2019-11-04T11:05:18.000Z</time>
      </trkpt>
      <trkpt lat="36.2999417446553707122802734375" lon="-5.95001332461833953857421875">
        <ele>104.8000030517578125</ele>
        <time>2019-11-04T11:05:21.000Z</time>
      </trkpt>
      <trkpt lat="36.29971736110746860504150390625" lon="-5.9500379674136638641357421875">
        <ele>103.1999969482421875</ele>
        <time>2019-11-04T11:05:24.000Z</time>
      </trkpt>
      <trkpt lat="36.29948920570313930511474609375" lon="-5.95008566044270992279052734375">
        <ele>101.59999847412109375</ele>
        <time>2019-11-04T11:05:27.000Z</time>
      </trkpt>
      <trkpt lat="36.29926138557493686676025390625" lon="-5.95015523023903369903564453125">
        <ele>100</ele>
        <time>2019-11-04T11:05:30.000Z</time>
      </trkpt>
      <trkpt lat="36.29919064231216907501220703125" lon="-5.95018540509045124053955078125">
        <ele>99.59999847412109375</ele>
        <time>2019-11-04T11:05:31.000Z</time>
      </trkpt>
      <trkpt lat="36.2989781610667705535888671875" lon="-5.95028422772884368896484375">
        <ele>98.1999969482421875</ele>
        <time>2019-11-04T11:05:34.000Z</time>
      </trkpt>
      <trkpt lat="36.2987806834280490875244140625" lon="-5.9504168294370174407958984375">
        <ele>97.59999847412109375</ele>
        <time>2019-11-04T11:05:37.000Z</time>
      </trkpt>
      <trkpt lat="36.29859678447246551513671875" lon="-5.9505663625895977020263671875">
        <ele>96.59999847412109375</ele>
        <time>2019-11-04T11:05:40.000Z</time>
      </trkpt>
      <trkpt lat="36.29841841757297515869140625" lon="-5.95072167925536632537841796875">
        <ele>96.59999847412109375</ele>
        <time>2019-11-04T11:05:43.000Z</time>
      </trkpt>
      <trkpt lat="36.2982579879462718963623046875" lon="-5.95088236033916473388671875">
        <ele>96.8000030517578125</ele>
        <time>2019-11-04T11:05:46.000Z</time>
      </trkpt>
      <trkpt lat="36.2981186807155609130859375" lon="-5.9510548599064350128173828125">
        <ele>97.59999847412109375</ele>
        <time>2019-11-04T11:05:49.000Z</time>
      </trkpt>
      <trkpt lat="36.29799789749085903167724609375" lon="-5.9512332268059253692626953125">
        <ele>98</ele>
        <time>2019-11-04T11:05:52.000Z</time>
      </trkpt>
      <trkpt lat="36.29788859747350215911865234375" lon="-5.95141285099089145660400390625">
        <ele>97.59999847412109375</ele>
        <time>2019-11-04T11:05:55.000Z</time>
      </trkpt>
      <trkpt lat="36.29775951616466045379638671875" lon="-5.951639749109745025634765625">
        <ele>96.59999847412109375</ele>
        <time>2019-11-04T11:05:59.000Z</time>
      </trkpt>
      <trkpt lat="36.29766664467751979827880859375" lon="-5.95185440964996814727783203125">
        <ele>95.59999847412109375</ele>
        <time>2019-11-04T11:06:03.000Z</time>
      </trkpt>
      <trkpt lat="36.29759321920573711395263671875" lon="-5.95206110738217830657958984375">
        <ele>94.59999847412109375</ele>
        <time>2019-11-04T11:06:07.000Z</time>
      </trkpt>
      <trkpt lat="36.2975767068564891815185546875" lon="-5.9521113149821758270263671875">
        <ele>94.40000152587890625</ele>
        <time>2019-11-04T11:06:08.000Z</time>
      </trkpt>
      <trkpt lat="36.2975012697279453277587890625" lon="-5.9523483552038669586181640625">
        <ele>94.40000152587890625</ele>
        <time>2019-11-04T11:06:13.000Z</time>
      </trkpt>
      <trkpt lat="36.29743161611258983612060546875" lon="-5.95257349312305450439453125">
        <ele>94.8000030517578125</ele>
        <time>2019-11-04T11:06:18.000Z</time>
      </trkpt>
      <trkpt lat="36.29736674018204212188720703125" lon="-5.95279972068965435028076171875">
        <ele>94.1999969482421875</ele>
        <time>2019-11-04T11:06:23.000Z</time>
      </trkpt>
      <trkpt lat="36.29729926586151123046875" lon="-5.9530306421220302581787109375">
        <ele>93.40000152587890625</ele>
        <time>2019-11-04T11:06:28.000Z</time>
      </trkpt>
      <trkpt lat="36.29723061807453632354736328125" lon="-5.9532371722161769866943359375">
        <ele>92.8000030517578125</ele>
        <time>2019-11-04T11:06:32.000Z</time>
      </trkpt>
      <trkpt lat="36.2971455417573451995849609375" lon="-5.9534480608999729156494140625">
        <ele>92.8000030517578125</ele>
        <time>2019-11-04T11:06:36.000Z</time>
      </trkpt>
      <trkpt lat="36.29706901498138904571533203125" lon="-5.95366775058209896087646484375">
        <ele>92.59999847412109375</ele>
        <time>2019-11-04T11:06:40.000Z</time>
      </trkpt>
      <trkpt lat="36.29703431390225887298583984375" lon="-5.95377109944820404052734375">
        <ele>92.59999847412109375</ele>
        <time>2019-11-04T11:06:42.000Z</time>
      </trkpt>
      <trkpt lat="36.29696139134466648101806640625" lon="-5.95401509664952754974365234375">
        <ele>92.1999969482421875</ele>
        <time>2019-11-04T11:06:47.000Z</time>
      </trkpt>
      <trkpt lat="36.29688142798840999603271484375" lon="-5.9542205370962619781494140625">
        <ele>92.8000030517578125</ele>
        <time>2019-11-04T11:06:51.000Z</time>
      </trkpt>
      <trkpt lat="36.29680096171796321868896484375" lon="-5.9544331021606922149658203125">
        <ele>93</ele>
        <time>2019-11-04T11:06:55.000Z</time>
      </trkpt>
      <trkpt lat="36.296736337244510650634765625" lon="-5.95465564168989658355712890625">
        <ele>92.59999847412109375</ele>
        <time>2019-11-04T11:06:59.000Z</time>
      </trkpt>
      <trkpt lat="36.29665209911763668060302734375" lon="-5.954867117106914520263671875">
        <ele>92.1999969482421875</ele>
        <time>2019-11-04T11:07:03.000Z</time>
      </trkpt>
      <trkpt lat="36.29656509496271610260009765625" lon="-5.95508404076099395751953125">
        <ele>92.59999847412109375</ele>
        <time>2019-11-04T11:07:07.000Z</time>
      </trkpt>
      <trkpt lat="36.29647071473300457000732421875" lon="-5.9552912414073944091796875">
        <ele>93</ele>
        <time>2019-11-04T11:07:11.000Z</time>
      </trkpt>
      <trkpt lat="36.2963938526809215545654296875" lon="-5.95543733797967433929443359375">
        <ele>93.40000152587890625</ele>
        <time>2019-11-04T11:07:14.000Z</time>
      </trkpt>
      <trkpt lat="36.29628664813935756683349609375" lon="-5.95562023110687732696533203125">
        <ele>94.1999969482421875</ele>
        <time>2019-11-04T11:07:18.000Z</time>
      </trkpt>
      <trkpt lat="36.29613543860614299774169921875" lon="-5.9558303654193878173828125">
        <ele>93</ele>
        <time>2019-11-04T11:07:23.000Z</time>
      </trkpt>
      <trkpt lat="36.29598422907292842864990234375" lon="-5.95599037595093250274658203125">
        <ele>91.59999847412109375</ele>
        <time>2019-11-04T11:07:27.000Z</time>
      </trkpt>
      <trkpt lat="36.29580955021083354949951171875" lon="-5.95614627934992313385009765625">
        <ele>90.40000152587890625</ele>
        <time>2019-11-04T11:07:31.000Z</time>
      </trkpt>
      <trkpt lat="36.29562984220683574676513671875" lon="-5.9562905319035053253173828125">
        <ele>89.40000152587890625</ele>
        <time>2019-11-04T11:07:35.000Z</time>
      </trkpt>
      <trkpt lat="36.29544728435575962066650390625" lon="-5.95641500316560268402099609375">
        <ele>89.1999969482421875</ele>
        <time>2019-11-04T11:07:39.000Z</time>
      </trkpt>
      <trkpt lat="36.29526170901954174041748046875" lon="-5.95652975142002105712890625">
        <ele>90</ele>
        <time>2019-11-04T11:07:43.000Z</time>
      </trkpt>
      <trkpt lat="36.2950829230248928070068359375" lon="-5.956619940698146820068359375">
        <ele>91.1999969482421875</ele>
        <time>2019-11-04T11:07:47.000Z</time>
      </trkpt>
      <trkpt lat="36.2948928214609622955322265625" lon="-5.956703759729862213134765625">
        <ele>92.1999969482421875</ele>
        <time>2019-11-04T11:07:51.000Z</time>
      </trkpt>
      <trkpt lat="36.29470129497349262237548828125" lon="-5.9567595832049846649169921875">
        <ele>91.8000030517578125</ele>
        <time>2019-11-04T11:07:55.000Z</time>
      </trkpt>
      <trkpt lat="36.29450683481991291046142578125" lon="-5.95679688267409801483154296875">
        <ele>90.8000030517578125</ele>
        <time>2019-11-04T11:07:59.000Z</time>
      </trkpt>
      <trkpt lat="36.29431053064763545989990234375" lon="-5.95681197009980678558349609375">
        <ele>89.1999969482421875</ele>
        <time>2019-11-04T11:08:03.000Z</time>
      </trkpt>
      <trkpt lat="36.29411824978888034820556640625" lon="-5.95680199563503265380859375">
        <ele>87.1999969482421875</ele>
        <time>2019-11-04T11:08:07.000Z</time>
      </trkpt>
      <trkpt lat="36.29393384791910648345947265625" lon="-5.95676536671817302703857421875">
        <ele>85.1999969482421875</ele>
        <time>2019-11-04T11:08:11.000Z</time>
      </trkpt>
      <trkpt lat="36.29373955540359020233154296875" lon="-5.95673318020999431610107421875">
        <ele>83</ele>
        <time>2019-11-04T11:08:15.000Z</time>
      </trkpt>
      <trkpt lat="36.29355129785835742950439453125" lon="-5.956688337028026580810546875">
        <ele>81</ele>
        <time>2019-11-04T11:08:19.000Z</time>
      </trkpt>
      <trkpt lat="36.29335650242865085601806640625" lon="-5.956623964011669158935546875">
        <ele>79.59999847412109375</ele>
        <time>2019-11-04T11:08:23.000Z</time>
      </trkpt>
      <trkpt lat="36.29314385354518890380859375" lon="-5.95652975142002105712890625">
        <ele>78.59999847412109375</ele>
        <time>2019-11-04T11:08:27.000Z</time>
      </trkpt>
      <trkpt lat="36.2929408438503742218017578125" lon="-5.95641047693789005279541015625">
        <ele>77.8000030517578125</ele>
        <time>2019-11-04T11:08:31.000Z</time>
      </trkpt>
      <trkpt lat="36.292752586305141448974609375" lon="-5.95627636648714542388916015625">
        <ele>78</ele>
        <time>2019-11-04T11:08:35.000Z</time>
      </trkpt>
      <trkpt lat="36.29257044754922389984130859375" lon="-5.9561329521238803863525390625">
        <ele>80.40000152587890625</ele>
        <time>2019-11-04T11:08:39.000Z</time>
      </trkpt>
      <trkpt lat="36.29238856025040149688720703125" lon="-5.95598794519901275634765625">
        <ele>82</ele>
        <time>2019-11-04T11:08:43.000Z</time>
      </trkpt>
      <trkpt lat="36.29220181144773960113525390625" lon="-5.955834053456783294677734375">
        <ele>84.1999969482421875</ele>
        <time>2019-11-04T11:08:47.000Z</time>
      </trkpt>
      <trkpt lat="36.2920114584267139434814453125" lon="-5.95567203126847743988037109375">
        <ele>85.59999847412109375</ele>
        <time>2019-11-04T11:08:51.000Z</time>
      </trkpt>
      <trkpt lat="36.29185915924608707427978515625" lon="-5.955550409853458404541015625">
        <ele>86.40000152587890625</ele>
        <time>2019-11-04T11:08:54.000Z</time>
      </trkpt>
      <trkpt lat="36.291696131229400634765625" lon="-5.9554362483322620391845703125">
        <ele>87.8000030517578125</ele>
        <time>2019-11-04T11:08:57.000Z</time>
      </trkpt>
      <trkpt lat="36.2915226258337497711181640625" lon="-5.95533072017133235931396484375">
        <ele>89.59999847412109375</ele>
        <time>2019-11-04T11:09:00.000Z</time>
      </trkpt>
      <trkpt lat="36.291337721049785614013671875" lon="-5.95523969270288944244384765625">
        <ele>90.40000152587890625</ele>
        <time>2019-11-04T11:09:03.000Z</time>
      </trkpt>
      <trkpt lat="36.29113890230655670166015625" lon="-5.95516961999237537384033203125">
        <ele>90.1999969482421875</ele>
        <time>2019-11-04T11:09:06.000Z</time>
      </trkpt>
      <trkpt lat="36.29092876799404621124267578125" lon="-5.95511329360306262969970703125">
        <ele>90.8000030517578125</ele>
        <time>2019-11-04T11:09:09.000Z</time>
      </trkpt>
      <trkpt lat="36.2906996905803680419921875" lon="-5.9550832025706768035888671875">
        <ele>91.59999847412109375</ele>
        <time>2019-11-04T11:09:12.000Z</time>
      </trkpt>
      <trkpt lat="36.2904608063399791717529296875" lon="-5.955072976648807525634765625">
        <ele>91.40000152587890625</ele>
        <time>2019-11-04T11:09:15.000Z</time>
      </trkpt>
      <trkpt lat="36.29020859487354755401611328125" lon="-5.95509150065481662750244140625">
        <ele>89.59999847412109375</ele>
        <time>2019-11-04T11:09:18.000Z</time>
      </trkpt>
      <trkpt lat="36.28994188271462917327880859375" lon="-5.95514782704412937164306640625">
        <ele>86</ele>
        <time>2019-11-04T11:09:21.000Z</time>
      </trkpt>
      <trkpt lat="36.2897537089884281158447265625" lon="-5.95520616509020328521728515625">
        <ele>84.59999847412109375</ele>
        <time>2019-11-04T11:09:23.000Z</time>
      </trkpt>
      <trkpt lat="36.2895709834992885589599609375" lon="-5.95527355559170246124267578125">
        <ele>82.8000030517578125</ele>
        <time>2019-11-04T11:09:25.000Z</time>
      </trkpt>
      <trkpt lat="36.28939068876206874847412109375" lon="-5.955359302461147308349609375">
        <ele>80.8000030517578125</ele>
        <time>2019-11-04T11:09:27.000Z</time>
      </trkpt>
      <trkpt lat="36.2892139144241809844970703125" lon="-5.95545980148017406463623046875">
        <ele>78.40000152587890625</ele>
        <time>2019-11-04T11:09:29.000Z</time>
      </trkpt>
      <trkpt lat="36.2890389002859592437744140625" lon="-5.95556952059268951416015625">
        <ele>76.40000152587890625</ele>
        <time>2019-11-04T11:09:31.000Z</time>
      </trkpt>
      <trkpt lat="36.2888622097671031951904296875" lon="-5.955686531960964202880859375">
        <ele>75.40000152587890625</ele>
        <time>2019-11-04T11:09:33.000Z</time>
      </trkpt>
      <trkpt lat="36.28868694417178630828857421875" lon="-5.95581653527915477752685546875">
        <ele>74</ele>
        <time>2019-11-04T11:09:35.000Z</time>
      </trkpt>
      <trkpt lat="36.28850857727229595184326171875" lon="-5.95595014281570911407470703125">
        <ele>72.59999847412109375</ele>
        <time>2019-11-04T11:09:37.000Z</time>
      </trkpt>
      <trkpt lat="36.288326270878314971923828125" lon="-5.95608727075159549713134765625">
        <ele>70.1999969482421875</ele>
        <time>2019-11-04T11:09:39.000Z</time>
      </trkpt>
      <trkpt lat="36.28814689815044403076171875" lon="-5.95622037537395954132080078125">
        <ele>67.1999969482421875</ele>
        <time>2019-11-04T11:09:41.000Z</time>
      </trkpt>
      <trkpt lat="36.287966184318065643310546875" lon="-5.95635297708213329315185546875">
        <ele>64.59999847412109375</ele>
        <time>2019-11-04T11:09:43.000Z</time>
      </trkpt>
      <trkpt lat="36.28778404556214809417724609375" lon="-5.95648809336125850677490234375">
        <ele>62.799999237060546875</ele>
        <time>2019-11-04T11:09:45.000Z</time>
      </trkpt>
      <trkpt lat="36.2876002304255962371826171875" lon="-5.95662119798362255096435546875">
        <ele>61.200000762939453125</ele>
        <time>2019-11-04T11:09:47.000Z</time>
      </trkpt>
      <trkpt lat="36.287414319813251495361328125" lon="-5.95675379969179630279541015625">
        <ele>60</ele>
        <time>2019-11-04T11:09:49.000Z</time>
      </trkpt>
      <trkpt lat="36.2872324325144290924072265625" lon="-5.9568883292376995086669921875">
        <ele>59</ele>
        <time>2019-11-04T11:09:51.000Z</time>
      </trkpt>
      <trkpt lat="36.28704995848238468170166015625" lon="-5.9570197574794292449951171875">
        <ele>57.40000152587890625</ele>
        <time>2019-11-04T11:09:53.000Z</time>
      </trkpt>
      <trkpt lat="36.28686371259391307830810546875" lon="-5.95715428702533245086669921875">
        <ele>55.799999237060546875</ele>
        <time>2019-11-04T11:09:55.000Z</time>
      </trkpt>
      <trkpt lat="36.2866822443902492523193359375" lon="-5.95728722400963306427001953125">
        <ele>54.59999847412109375</ele>
        <time>2019-11-04T11:09:57.000Z</time>
      </trkpt>
      <trkpt lat="36.28650228492915630340576171875" lon="-5.95741999335587024688720703125">
        <ele>53.40000152587890625</ele>
        <time>2019-11-04T11:09:59.000Z</time>
      </trkpt>
      <trkpt lat="36.28632894717156887054443359375" lon="-5.95754924230277538299560546875">
        <ele>52.200000762939453125</ele>
        <time>2019-11-04T11:10:01.000Z</time>
      </trkpt>
      <trkpt lat="36.28616365604102611541748046875" lon="-5.95767497085034847259521484375">
        <ele>51.799999237060546875</ele>
        <time>2019-11-04T11:10:03.000Z</time>
      </trkpt>
      <trkpt lat="36.2860059924423694610595703125" lon="-5.9578009508550167083740234375">
        <ele>51.40000152587890625</ele>
        <time>2019-11-04T11:10:05.000Z</time>
      </trkpt>
      <trkpt lat="36.28585536964237689971923828125" lon="-5.9579273499548435211181640625">
        <ele>51</ele>
        <time>2019-11-04T11:10:07.000Z</time>
      </trkpt>
      <trkpt lat="36.28564498387277126312255859375" lon="-5.9581137634813785552978515625">
        <ele>50.799999237060546875</ele>
        <time>2019-11-04T11:10:10.000Z</time>
      </trkpt>
      <trkpt lat="36.28545907326042652130126953125" lon="-5.95829439349472522735595703125">
        <ele>51.799999237060546875</ele>
        <time>2019-11-04T11:10:13.000Z</time>
      </trkpt>
      <trkpt lat="36.2852915190160274505615234375" lon="-5.9584530629217624664306640625">
        <ele>53</ele>
        <time>2019-11-04T11:10:16.000Z</time>
      </trkpt>
      <trkpt lat="36.285146512091159820556640625" lon="-5.9586015902459621429443359375">
        <ele>54.200000762939453125</ele>
        <time>2019-11-04T11:10:19.000Z</time>
      </trkpt>
      <trkpt lat="36.28502371720969676971435546875" lon="-5.95872304402291774749755859375">
        <ele>55.200000762939453125</ele>
        <time>2019-11-04T11:10:22.000Z</time>
      </trkpt>
      <trkpt lat="36.2848851643502712249755859375" lon="-5.9588845632970333099365234375">
        <ele>54.799999237060546875</ele>
        <time>2019-11-04T11:10:26.000Z</time>
      </trkpt>
      <trkpt lat="36.284751556813716888427734375" lon="-5.95903719775378704071044921875">
        <ele>54.40000152587890625</ele>
        <time>2019-11-04T11:10:30.000Z</time>
      </trkpt>
      <trkpt lat="36.2845974974334239959716796875" lon="-5.95922428183257579803466796875">
        <ele>54.200000762939453125</ele>
        <time>2019-11-04T11:10:35.000Z</time>
      </trkpt>
      <trkpt lat="36.28445324487984180450439453125" lon="-5.95941320993006229400634765625">
        <ele>54.40000152587890625</ele>
        <time>2019-11-04T11:10:40.000Z</time>
      </trkpt>
      <trkpt lat="36.2843041308224201202392578125" lon="-5.95960465259850025177001953125">
        <ele>54.59999847412109375</ele>
        <time>2019-11-04T11:10:45.000Z</time>
      </trkpt>
      <trkpt lat="36.28415686078369617462158203125" lon="-5.95978838391602039337158203125">
        <ele>55</ele>
        <time>2019-11-04T11:10:50.000Z</time>
      </trkpt>
      <trkpt lat="36.28401185385882854461669921875" lon="-5.95997747965157032012939453125">
        <ele>54.40000152587890625</ele>
        <time>2019-11-04T11:10:55.000Z</time>
      </trkpt>
      <trkpt lat="36.283855699002742767333984375" lon="-5.960165150463581085205078125">
        <ele>53.40000152587890625</ele>
        <time>2019-11-04T11:11:00.000Z</time>
      </trkpt>
      <trkpt lat="36.28371211700141429901123046875" lon="-5.96035986207425594329833984375">
        <ele>53</ele>
        <time>2019-11-04T11:11:05.000Z</time>
      </trkpt>
      <trkpt lat="36.2835608236491680145263671875" lon="-5.96054711379110813140869140625">
        <ele>53</ele>
        <time>2019-11-04T11:11:10.000Z</time>
      </trkpt>
      <trkpt lat="36.2834389507770538330078125" lon="-5.96071274019777774810791015625">
        <ele>54.200000762939453125</ele>
        <time>2019-11-04T11:11:14.000Z</time>
      </trkpt>
      <trkpt lat="36.28331355750560760498046875" lon="-5.96087484620511531829833984375">
        <ele>54.59999847412109375</ele>
        <time>2019-11-04T11:11:18.000Z</time>
      </trkpt>
      <trkpt lat="36.2831705622375011444091796875" lon="-5.96107500605285167694091796875">
        <ele>54.59999847412109375</ele>
        <time>2019-11-04T11:11:23.000Z</time>
      </trkpt>
      <trkpt lat="36.2830538861453533172607421875" lon="-5.96124934963881969451904296875">
        <ele>54.40000152587890625</ele>
        <time>2019-11-04T11:11:27.000Z</time>
      </trkpt>
      <trkpt lat="36.2829315103590488433837890625" lon="-5.96141631714999675750732421875">
        <ele>54.59999847412109375</ele>
        <time>2019-11-04T11:11:31.000Z</time>
      </trkpt>
      <trkpt lat="36.28280938602983951568603515625" lon="-5.96158211119472980499267578125">
        <ele>55.40000152587890625</ele>
        <time>2019-11-04T11:11:35.000Z</time>
      </trkpt>
      <trkpt lat="36.2826596014201641082763671875" lon="-5.96178562380373477935791015625">
        <ele>57</ele>
        <time>2019-11-04T11:11:40.000Z</time>
      </trkpt>
      <trkpt lat="36.282514594495296478271484375" lon="-5.9619821794331073760986328125">
        <ele>57.59999847412109375</ele>
        <time>2019-11-04T11:11:45.000Z</time>
      </trkpt>
      <trkpt lat="36.2823714315891265869140625" lon="-5.962172783911228179931640625">
        <ele>58.40000152587890625</ele>
        <time>2019-11-04T11:11:50.000Z</time>
      </trkpt>
      <trkpt lat="36.2822264246642589569091796875" lon="-5.96236431039869785308837890625">
        <ele>59</ele>
        <time>2019-11-04T11:11:55.000Z</time>
      </trkpt>
      <trkpt lat="36.2821989320218563079833984375" lon="-5.962400101125240325927734375">
        <ele>59.200000762939453125</ele>
        <time>2019-11-04T11:11:56.000Z</time>
      </trkpt>
      <trkpt lat="36.28209189511835575103759765625" lon="-5.9625397436320781707763671875">
        <ele>59.200000762939453125</ele>
        <time>2019-11-04T11:12:00.000Z</time>
      </trkpt>
      <trkpt lat="36.281943283975124359130859375" lon="-5.96270813606679439544677734375">
        <ele>58.40000152587890625</ele>
        <time>2019-11-04T11:12:05.000Z</time>
      </trkpt>
      <trkpt lat="36.28179609775543212890625" lon="-5.96288667060434818267822265625">
        <ele>57.59999847412109375</ele>
        <time>2019-11-04T11:12:10.000Z</time>
      </trkpt>
      <trkpt lat="36.2816349975764751434326171875" lon="-5.963054560124874114990234375">
        <ele>56</ele>
        <time>2019-11-04T11:12:15.000Z</time>
      </trkpt>
      <trkpt lat="36.28145688213407993316650390625" lon="-5.96320736221969127655029296875">
        <ele>56</ele>
        <time>2019-11-04T11:12:20.000Z</time>
      </trkpt>
      <trkpt lat="36.28129695542156696319580078125" lon="-5.963324122130870819091796875">
        <ele>56.40000152587890625</ele>
        <time>2019-11-04T11:12:24.000Z</time>
      </trkpt>
      <trkpt lat="36.28109478391706943511962890625" lon="-5.96345094032585620880126953125">
        <ele>57.59999847412109375</ele>
        <time>2019-11-04T11:12:29.000Z</time>
      </trkpt>
      <trkpt lat="36.2809171713888645172119140625" lon="-5.96353442408144474029541015625">
        <ele>56.59999847412109375</ele>
        <time>2019-11-04T11:12:33.000Z</time>
      </trkpt>
      <trkpt lat="36.28071877174079418182373046875" lon="-5.963616482913494110107421875">
        <ele>54.799999237060546875</ele>
        <time>2019-11-04T11:12:37.000Z</time>
      </trkpt>
      <trkpt lat="36.28054711036384105682373046875" lon="-5.963684879243373870849609375">
        <ele>52.40000152587890625</ele>
        <time>2019-11-04T11:12:40.000Z</time>
      </trkpt>
      <trkpt lat="36.280361451208591461181640625" lon="-5.9637487493455410003662109375">
        <ele>51</ele>
        <time>2019-11-04T11:12:43.000Z</time>
      </trkpt>
      <trkpt lat="36.2801639735698699951171875" lon="-5.9638158045709133148193359375">
        <ele>50.40000152587890625</ele>
        <time>2019-11-04T11:12:46.000Z</time>
      </trkpt>
      <trkpt lat="36.2799599580466747283935546875" lon="-5.9638868831098079681396484375">
        <ele>50</ele>
        <time>2019-11-04T11:12:49.000Z</time>
      </trkpt>
      <trkpt lat="36.27973691560328006744384765625" lon="-5.9639713726937770843505859375">
        <ele>47.799999237060546875</ele>
        <time>2019-11-04T11:12:52.000Z</time>
      </trkpt>
      <trkpt lat="36.27950792200863361358642578125" lon="-5.964061059057712554931640625">
        <ele>45.799999237060546875</ele>
        <time>2019-11-04T11:12:55.000Z</time>
      </trkpt>
      <trkpt lat="36.27927104942500591278076171875" lon="-5.96415569074451923370361328125">
        <ele>44</ele>
        <time>2019-11-04T11:12:58.000Z</time>
      </trkpt>
      <trkpt lat="36.27902713604271411895751953125" lon="-5.96425191499292850494384765625">
        <ele>42.59999847412109375</ele>
        <time>2019-11-04T11:13:01.000Z</time>
      </trkpt>
      <trkpt lat="36.27877299673855304718017578125" lon="-5.96434663049876689910888671875">
        <ele>41.200000762939453125</ele>
        <time>2019-11-04T11:13:04.000Z</time>
      </trkpt>
      <trkpt lat="36.2785155884921550750732421875" lon="-5.9644337184727191925048828125">
        <ele>40.59999847412109375</ele>
        <time>2019-11-04T11:13:07.000Z</time>
      </trkpt>
      <trkpt lat="36.278261281549930572509765625" lon="-5.96451192162930965423583984375">
        <ele>39</ele>
        <time>2019-11-04T11:13:10.000Z</time>
      </trkpt>
      <trkpt lat="36.278006471693515777587890625" lon="-5.96458316780626773834228515625">
        <ele>37</ele>
        <time>2019-11-04T11:13:13.000Z</time>
      </trkpt>
      <trkpt lat="36.277742944657802581787109375" lon="-5.964640416204929351806640625">
        <ele>35.59999847412109375</ele>
        <time>2019-11-04T11:13:16.000Z</time>
      </trkpt>
      <trkpt lat="36.27756231464445590972900390625" lon="-5.96467788331210613250732421875">
        <ele>35</ele>
        <time>2019-11-04T11:13:18.000Z</time>
      </trkpt>
      <trkpt lat="36.27738051116466522216796875" lon="-5.96471074037253856658935546875">
        <ele>35</ele>
        <time>2019-11-04T11:13:20.000Z</time>
      </trkpt>
      <trkpt lat="36.27719585783779621124267578125" lon="-5.96474158577620983123779296875">
        <ele>34.59999847412109375</ele>
        <time>2019-11-04T11:13:22.000Z</time>
      </trkpt>
      <trkpt lat="36.27701212652027606964111328125" lon="-5.9647648036479949951171875">
        <ele>33.200000762939453125</ele>
        <time>2019-11-04T11:13:24.000Z</time>
      </trkpt>
      <trkpt lat="36.27682822756469249725341796875" lon="-5.9647835791110992431640625">
        <ele>31</ele>
        <time>2019-11-04T11:13:26.000Z</time>
      </trkpt>
      <trkpt lat="36.27664089202880859375" lon="-5.96479506231844425201416015625">
        <ele>29.6000003814697265625</ele>
        <time>2019-11-04T11:13:28.000Z</time>
      </trkpt>
      <trkpt lat="36.276454143226146697998046875" lon="-5.96480562351644039154052734375">
        <ele>29.200000762939453125</ele>
        <time>2019-11-04T11:13:30.000Z</time>
      </trkpt>
      <trkpt lat="36.27626781351864337921142578125" lon="-5.9648152627050876617431640625">
        <ele>29.200000762939453125</ele>
        <time>2019-11-04T11:13:32.000Z</time>
      </trkpt>
      <trkpt lat="36.27607838250696659088134765625" lon="-5.9648249857127666473388671875">
        <ele>29</ele>
        <time>2019-11-04T11:13:34.000Z</time>
      </trkpt>
      <trkpt lat="36.27588794566690921783447265625" lon="-5.96483512781560420989990234375">
        <ele>28.3999996185302734375</ele>
        <time>2019-11-04T11:13:36.000Z</time>
      </trkpt>
      <trkpt lat="36.27570203505456447601318359375" lon="-5.96485021524131298065185546875">
        <ele>27.799999237060546875</ele>
        <time>2019-11-04T11:13:38.000Z</time>
      </trkpt>
      <trkpt lat="36.27551796846091747283935546875" lon="-5.964865386486053466796875">
        <ele>27</ele>
        <time>2019-11-04T11:13:40.000Z</time>
      </trkpt>
      <trkpt lat="36.27533289603888988494873046875" lon="-5.964882485568523406982421875">
        <ele>26.3999996185302734375</ele>
        <time>2019-11-04T11:13:42.000Z</time>
      </trkpt>
      <trkpt lat="36.27506467513740062713623046875" lon="-5.964910984039306640625">
        <ele>25</ele>
        <time>2019-11-04T11:13:45.000Z</time>
      </trkpt>
      <trkpt lat="36.27479980699717998504638671875" lon="-5.9649443440139293670654296875">
        <ele>23</ele>
        <time>2019-11-04T11:13:48.000Z</time>
      </trkpt>
      <trkpt lat="36.2745366990566253662109375" lon="-5.9649761952459812164306640625">
        <ele>21.6000003814697265625</ele>
        <time>2019-11-04T11:13:51.000Z</time>
      </trkpt>
      <trkpt lat="36.274277865886688232421875" lon="-5.96501315943896770477294921875">
        <ele>21</ele>
        <time>2019-11-04T11:13:54.000Z</time>
      </trkpt>
      <trkpt lat="36.27402414567768573760986328125" lon="-5.9650526382029056549072265625">
        <ele>20.3999996185302734375</ele>
        <time>2019-11-04T11:13:57.000Z</time>
      </trkpt>
      <trkpt lat="36.27377252094447612762451171875" lon="-5.96509362570941448211669921875">
        <ele>19.6000003814697265625</ele>
        <time>2019-11-04T11:14:00.000Z</time>
      </trkpt>
      <trkpt lat="36.273518465459346771240234375" lon="-5.965125225484371185302734375">
        <ele>18.799999237060546875</ele>
        <time>2019-11-04T11:14:03.000Z</time>
      </trkpt>
      <trkpt lat="36.273267678916454315185546875" lon="-5.9651438333094120025634765625">
        <ele>18</ele>
        <time>2019-11-04T11:14:06.000Z</time>
      </trkpt>
      <trkpt lat="36.27302519045770168304443359375" lon="-5.9651418216526508331298828125">
        <ele>18</ele>
        <time>2019-11-04T11:14:09.000Z</time>
      </trkpt>
      <trkpt lat="36.272785551846027374267578125" lon="-5.9651354514062404632568359375">
        <ele>18</ele>
        <time>2019-11-04T11:14:12.000Z</time>
      </trkpt>
      <trkpt lat="36.27255412749946117401123046875" lon="-5.9651223756372928619384765625">
        <ele>18.6000003814697265625</ele>
        <time>2019-11-04T11:14:15.000Z</time>
      </trkpt>
      <trkpt lat="36.27232999540865421295166015625" lon="-5.965106785297393798828125">
        <ele>18.6000003814697265625</ele>
        <time>2019-11-04T11:14:18.000Z</time>
      </trkpt>
      <trkpt lat="36.27210821025073528289794921875" lon="-5.965079963207244873046875">
        <ele>17.799999237060546875</ele>
        <time>2019-11-04T11:14:21.000Z</time>
      </trkpt>
      <trkpt lat="36.27188860438764095306396484375" lon="-5.9650459326803684234619140625">
        <ele>17.200000762939453125</ele>
        <time>2019-11-04T11:14:24.000Z</time>
      </trkpt>
      <trkpt lat="36.2716699205338954925537109375" lon="-5.9650053642690181732177734375">
        <ele>17.200000762939453125</ele>
        <time>2019-11-04T11:14:27.000Z</time>
      </trkpt>
      <trkpt lat="36.27144888974726200103759765625" lon="-5.96496404148638248443603515625">
        <ele>16.6000003814697265625</ele>
        <time>2019-11-04T11:14:30.000Z</time>
      </trkpt>
      <trkpt lat="36.271225512027740478515625" lon="-5.9649185277521610260009765625">
        <ele>16.200000762939453125</ele>
        <time>2019-11-04T11:14:33.000Z</time>
      </trkpt>
      <trkpt lat="36.27099576406180858612060546875" lon="-5.96487368457019329071044921875">
        <ele>15</ele>
        <time>2019-11-04T11:14:36.000Z</time>
      </trkpt>
      <trkpt lat="36.27075612545013427734375" lon="-5.96483864821493625640869140625">
        <ele>15</ele>
        <time>2019-11-04T11:14:39.000Z</time>
      </trkpt>
      <trkpt lat="36.270517408847808837890625" lon="-5.96480210311710834503173828125">
        <ele>14</ele>
        <time>2019-11-04T11:14:42.000Z</time>
      </trkpt>
      <trkpt lat="36.2702786922454833984375" lon="-5.96475767903029918670654296875">
        <ele>12.6000003814697265625</ele>
        <time>2019-11-04T11:14:45.000Z</time>
      </trkpt>
      <trkpt lat="36.2700451724231243133544921875" lon="-5.96471023745834827423095703125">
        <ele>12</ele>
        <time>2019-11-04T11:14:48.000Z</time>
      </trkpt>
      <trkpt lat="36.26981492154300212860107421875" lon="-5.96466179005801677703857421875">
        <ele>11.6000003814697265625</ele>
        <time>2019-11-04T11:14:51.000Z</time>
      </trkpt>
      <trkpt lat="36.26959179528057575225830078125" lon="-5.96460680477321147918701171875">
        <ele>10.80000019073486328125</ele>
        <time>2019-11-04T11:14:54.000Z</time>
      </trkpt>
      <trkpt lat="36.26938191242516040802001953125" lon="-5.964551903307437896728515625">
        <ele>10</ele>
        <time>2019-11-04T11:14:57.000Z</time>
      </trkpt>
      <trkpt lat="36.26918443478643894195556640625" lon="-5.9644944034516811370849609375">
        <ele>9.6000003814697265625</ele>
        <time>2019-11-04T11:15:00.000Z</time>
      </trkpt>
      <trkpt lat="36.26899659633636474609375" lon="-5.96444939263164997100830078125">
        <ele>9.3999996185302734375</ele>
        <time>2019-11-04T11:15:03.000Z</time>
      </trkpt>
      <trkpt lat="36.26876257359981536865234375" lon="-5.96439306624233722686767578125">
        <ele>10.19999980926513671875</ele>
        <time>2019-11-04T11:15:07.000Z</time>
      </trkpt>
      <trkpt lat="36.2685444764792919158935546875" lon="-5.964339338243007659912109375">
        <ele>10.19999980926513671875</ele>
        <time>2019-11-04T11:15:11.000Z</time>
      </trkpt>
      <trkpt lat="36.26833870075643062591552734375" lon="-5.9642952494323253631591796875">
        <ele>10.80000019073486328125</ele>
        <time>2019-11-04T11:15:15.000Z</time>
      </trkpt>
      <trkpt lat="36.26814306713640689849853515625" lon="-5.96425543539226055145263671875">
        <ele>10.80000019073486328125</ele>
        <time>2019-11-04T11:15:19.000Z</time>
      </trkpt>
      <trkpt lat="36.26795179210603237152099609375" lon="-5.96423196606338024139404296875">
        <ele>10.6000003814697265625</ele>
        <time>2019-11-04T11:15:23.000Z</time>
      </trkpt>
      <trkpt lat="36.26775934360921382904052734375" lon="-5.96422106958925724029541015625">
        <ele>9.80000019073486328125</ele>
        <time>2019-11-04T11:15:27.000Z</time>
      </trkpt>
      <trkpt lat="36.26756605692207813262939453125" lon="-5.96423950977623462677001953125">
        <ele>9.80000019073486328125</ele>
        <time>2019-11-04T11:15:31.000Z</time>
      </trkpt>
      <trkpt lat="36.26736782491207122802734375" lon="-5.96425987780094146728515625">
        <ele>10.19999980926513671875</ele>
        <time>2019-11-04T11:15:35.000Z</time>
      </trkpt>
      <trkpt lat="36.26715869642794132232666015625" lon="-5.96428996883332729339599609375">
        <ele>11</ele>
        <time>2019-11-04T11:15:39.000Z</time>
      </trkpt>
      <trkpt lat="36.26696507446467876434326171875" lon="-5.9643167071044445037841796875">
        <ele>10.3999996185302734375</ele>
        <time>2019-11-04T11:15:43.000Z</time>
      </trkpt>
      <trkpt lat="36.266768686473369598388671875" lon="-5.964348725974559783935546875">
        <ele>10</ele>
        <time>2019-11-04T11:15:47.000Z</time>
      </trkpt>
      <trkpt lat="36.26657925546169281005859375" lon="-5.96437579952180385589599609375">
        <ele>10</ele>
        <time>2019-11-04T11:15:51.000Z</time>
      </trkpt>
      <trkpt lat="36.26636526547372341156005859375" lon="-5.9644179604947566986083984375">
        <ele>10</ele>
        <time>2019-11-04T11:15:56.000Z</time>
      </trkpt>
      <trkpt lat="36.26617130823433399200439453125" lon="-5.964449308812618255615234375">
        <ele>10</ele>
        <time>2019-11-04T11:16:01.000Z</time>
      </trkpt>
      <trkpt lat="36.2659822963178157806396484375" lon="-5.9644712693989276885986328125">
        <ele>9.80000019073486328125</ele>
        <time>2019-11-04T11:16:06.000Z</time>
      </trkpt>
      <trkpt lat="36.26577098853886127471923828125" lon="-5.96449934877455234527587890625">
        <ele>8.80000019073486328125</ele>
        <time>2019-11-04T11:16:11.000Z</time>
      </trkpt>
      <trkpt lat="36.26556538045406341552734375" lon="-5.9645329602062702178955078125">
        <ele>7.400000095367431640625</ele>
        <time>2019-11-04T11:16:16.000Z</time>
      </trkpt>
      <trkpt lat="36.26544074155390262603759765625" lon="-5.96454846672713756561279296875">
        <ele>7</ele>
        <time>2019-11-04T11:16:20.000Z</time>
      </trkpt>
      <trkpt lat="36.26529322005808353424072265625" lon="-5.96458098851144313812255859375">
        <ele>7</ele>
        <time>2019-11-04T11:16:28.000Z</time>
      </trkpt>
      <trkpt lat="36.26526757143437862396240234375" lon="-5.96458232961595058441162109375">
        <ele>7</ele>
        <time>2019-11-04T11:16:33.000Z</time>
      </trkpt>
      <trkpt lat="36.2651018612086772918701171875" lon="-5.96458400599658489227294921875">
        <ele>7.400000095367431640625</ele>
        <time>2019-11-04T11:18:00.000Z</time>
      </trkpt>
      <trkpt lat="36.26488870941102504730224609375" lon="-5.96462122164666652679443359375">
        <ele>8.3999996185302734375</ele>
        <time>2019-11-04T11:18:07.000Z</time>
      </trkpt>
      <trkpt lat="36.26468704082071781158447265625" lon="-5.964645780622959136962890625">
        <ele>8.6000003814697265625</ele>
        <time>2019-11-04T11:18:13.000Z</time>
      </trkpt>
      <trkpt lat="36.26450448296964168548583984375" lon="-5.964664556086063385009765625">
        <ele>9.19999980926513671875</ele>
        <time>2019-11-04T11:18:19.000Z</time>
      </trkpt>
      <trkpt lat="36.2642955221235752105712890625" lon="-5.96469749696552753448486328125">
        <ele>9.80000019073486328125</ele>
        <time>2019-11-04T11:18:25.000Z</time>
      </trkpt>
      <trkpt lat="36.264117322862148284912109375" lon="-5.964743681252002716064453125">
        <ele>10.19999980926513671875</ele>
        <time>2019-11-04T11:18:30.000Z</time>
      </trkpt>
      <trkpt lat="36.2639226950705051422119140625" lon="-5.96481216140091419219970703125">
        <ele>10.80000019073486328125</ele>
        <time>2019-11-04T11:18:35.000Z</time>
      </trkpt>
      <trkpt lat="36.26372680999338626861572265625" lon="-5.96489614807069301605224609375">
        <ele>11</ele>
        <time>2019-11-04T11:18:40.000Z</time>
      </trkpt>
      <trkpt lat="36.263525225222110748291015625" lon="-5.96498248167335987091064453125">
        <ele>11</ele>
        <time>2019-11-04T11:18:45.000Z</time>
      </trkpt>
      <trkpt lat="36.26332816667854785919189453125" lon="-5.96503612585365772247314453125">
        <ele>11.6000003814697265625</ele>
        <time>2019-11-04T11:18:50.000Z</time>
      </trkpt>
      <trkpt lat="36.263142339885234832763671875" lon="-5.965037383139133453369140625">
        <ele>11.6000003814697265625</ele>
        <time>2019-11-04T11:18:55.000Z</time>
      </trkpt>
      <trkpt lat="36.26291661523282527923583984375" lon="-5.965017266571521759033203125">
        <ele>12</ele>
        <time>2019-11-04T11:19:00.000Z</time>
      </trkpt>
      <trkpt lat="36.26271955668926239013671875" lon="-5.96500745974481105804443359375">
        <ele>12</ele>
        <time>2019-11-04T11:19:04.000Z</time>
      </trkpt>
      <trkpt lat="36.26252803020179271697998046875" lon="-5.96498868428170680999755859375">
        <ele>11.19999980926513671875</ele>
        <time>2019-11-04T11:19:08.000Z</time>
      </trkpt>
      <trkpt lat="36.2623318098485469818115234375" lon="-5.96496932208538055419921875">
        <ele>9.6000003814697265625</ele>
        <time>2019-11-04T11:19:13.000Z</time>
      </trkpt>
      <trkpt lat="36.26213575713336467742919921875" lon="-5.96495146863162517547607421875">
        <ele>9.6000003814697265625</ele>
        <time>2019-11-04T11:19:18.000Z</time>
      </trkpt>
      <trkpt lat="36.26193610019981861114501953125" lon="-5.9649389795958995819091796875">
        <ele>9.19999980926513671875</ele>
        <time>2019-11-04T11:19:23.000Z</time>
      </trkpt>
      <trkpt lat="36.26175035722553730010986328125" lon="-5.964934118092060089111328125">
        <ele>9.19999980926513671875</ele>
        <time>2019-11-04T11:19:28.000Z</time>
      </trkpt>
      <trkpt lat="36.26168447546660900115966796875" lon="-5.96492783166468143463134765625">
        <ele>9.3999996185302734375</ele>
        <time>2019-11-04T11:19:30.000Z</time>
      </trkpt>
      <trkpt lat="36.26148548908531665802001953125" lon="-5.96491341479122638702392578125">
        <ele>10</ele>
        <time>2019-11-04T11:19:37.000Z</time>
      </trkpt>
      <trkpt lat="36.2613799609243869781494140625" lon="-5.96490352414548397064208984375">
        <ele>10</ele>
        <time>2019-11-04T11:19:44.000Z</time>
      </trkpt>
      <trkpt lat="36.26138691790401935577392578125" lon="-5.96489832736551761627197265625">
        <ele>10</ele>
        <time>2019-11-04T11:19:46.000Z</time>
      </trkpt>
      <trkpt lat="36.26129639334976673126220703125" lon="-5.964844934642314910888671875">
        <ele>10.19999980926513671875</ele>
        <time>2019-11-04T11:29:32.000Z</time>
      </trkpt>
      <trkpt lat="36.2611130811274051666259765625" lon="-5.96485801041126251220703125">
        <ele>12.19999980926513671875</ele>
        <time>2019-11-04T11:29:39.000Z</time>
      </trkpt>
      <trkpt lat="36.26093211583793163299560546875" lon="-5.96480679698288440704345703125">
        <ele>14</ele>
        <time>2019-11-04T11:29:52.000Z</time>
      </trkpt>
      <trkpt lat="36.26083128154277801513671875" lon="-5.96460797823965549468994140625">
        <ele>15</ele>
        <time>2019-11-04T11:29:58.000Z</time>
      </trkpt>
      <trkpt lat="36.26083237119019031524658203125" lon="-5.9643730334937572479248046875">
        <ele>14.3999996185302734375</ele>
        <time>2019-11-04T11:30:03.000Z</time>
      </trkpt>
      <trkpt lat="36.260816194117069244384765625" lon="-5.96413574181497097015380859375">
        <ele>14.6000003814697265625</ele>
        <time>2019-11-04T11:30:08.000Z</time>
      </trkpt>
      <trkpt lat="36.26080672256648540496826171875" lon="-5.96387858502566814422607421875">
        <ele>15.3999996185302734375</ele>
        <time>2019-11-04T11:30:13.000Z</time>
      </trkpt>
      <trkpt lat="36.260801441967487335205078125" lon="-5.963639952242374420166015625">
        <ele>15.3999996185302734375</ele>
        <time>2019-11-04T11:30:18.000Z</time>
      </trkpt>
      <trkpt lat="36.260784678161144256591796875" lon="-5.96341020427644252777099609375">
        <ele>14.19999980926513671875</ele>
        <time>2019-11-04T11:30:23.000Z</time>
      </trkpt>
      <trkpt lat="36.2607664056122303009033203125" lon="-5.9631707333028316497802734375">
        <ele>12</ele>
        <time>2019-11-04T11:30:28.000Z</time>
      </trkpt>
      <trkpt lat="36.260743439197540283203125" lon="-5.96290938556194305419921875">
        <ele>12.6000003814697265625</ele>
        <time>2019-11-04T11:30:33.000Z</time>
      </trkpt>
      <trkpt lat="36.260694153606891632080078125" lon="-5.96269053407013416290283203125">
        <ele>13.19999980926513671875</ele>
        <time>2019-11-04T11:30:37.000Z</time>
      </trkpt>
      <trkpt lat="36.26062366180121898651123046875" lon="-5.9624716825783252716064453125">
        <ele>13.3999996185302734375</ele>
        <time>2019-11-04T11:30:41.000Z</time>
      </trkpt>
      <trkpt lat="36.2605451233685016632080078125" lon="-5.96231301315128803253173828125">
        <ele>13</ele>
        <time>2019-11-04T11:30:44.000Z</time>
      </trkpt>
      <trkpt lat="36.26042266376316547393798828125" lon="-5.962137915194034576416015625">
        <ele>12</ele>
        <time>2019-11-04T11:30:48.000Z</time>
      </trkpt>
      <trkpt lat="36.2603536807000637054443359375" lon="-5.9620623104274272918701171875">
        <ele>12</ele>
        <time>2019-11-04T11:30:50.000Z</time>
      </trkpt>
      <trkpt lat="36.260203979909420013427734375" lon="-5.96192342229187488555908203125">
        <ele>12</ele>
        <time>2019-11-04T11:30:54.000Z</time>
      </trkpt>
      <trkpt lat="36.26002393662929534912109375" lon="-5.96175695769488811492919921875">
        <ele>11.6000003814697265625</ele>
        <time>2019-11-04T11:30:59.000Z</time>
      </trkpt>
      <trkpt lat="36.25986828468739986419677734375" lon="-5.961623601615428924560546875">
        <ele>12</ele>
        <time>2019-11-04T11:31:03.000Z</time>
      </trkpt>
      <trkpt lat="36.259716488420963287353515625" lon="-5.96149225719273090362548828125">
        <ele>12</ele>
        <time>2019-11-04T11:31:07.000Z</time>
      </trkpt>
      <trkpt lat="36.25953166745603084564208984375" lon="-5.96135412342846393585205078125">
        <ele>13</ele>
        <time>2019-11-04T11:31:12.000Z</time>
      </trkpt>
      <trkpt lat="36.25938565470278263092041015625" lon="-5.96123275347054004669189453125">
        <ele>12</ele>
        <time>2019-11-04T11:31:16.000Z</time>
      </trkpt>
      <trkpt lat="36.25924182124435901641845703125" lon="-5.961033515632152557373046875">
        <ele>11.80000019073486328125</ele>
        <time>2019-11-04T11:31:21.000Z</time>
      </trkpt>
      <trkpt lat="36.2591691501438617706298828125" lon="-5.96096017397940158843994140625">
        <ele>11.19999980926513671875</ele>
        <time>2019-11-04T11:31:23.000Z</time>
      </trkpt>
      <trkpt lat="36.258987598121166229248046875" lon="-5.96090820617973804473876953125">
        <ele>10.6000003814697265625</ele>
        <time>2019-11-04T11:31:27.000Z</time>
      </trkpt>
      <trkpt lat="36.2589388154447078704833984375" lon="-5.96089881844818592071533203125">
        <ele>10.3999996185302734375</ele>
        <time>2019-11-04T11:31:28.000Z</time>
      </trkpt>
      <trkpt lat="36.25876187346875667572021484375" lon="-5.9608167596161365509033203125">
        <ele>9.3999996185302734375</ele>
        <time>2019-11-04T11:31:32.000Z</time>
      </trkpt>
      <trkpt lat="36.25858585350215435028076171875" lon="-5.96073050983250141143798828125">
        <ele>9.19999980926513671875</ele>
        <time>2019-11-04T11:31:36.000Z</time>
      </trkpt>
      <trkpt lat="36.25840899534523487091064453125" lon="-5.9606554917991161346435546875">
        <ele>8.80000019073486328125</ele>
        <time>2019-11-04T11:31:40.000Z</time>
      </trkpt>
      <trkpt lat="36.258222162723541259765625" lon="-5.9605872631072998046875">
        <ele>8.80000019073486328125</ele>
        <time>2019-11-04T11:31:44.000Z</time>
      </trkpt>
      <trkpt lat="36.25802434980869293212890625" lon="-5.96052280627191066741943359375">
        <ele>9.19999980926513671875</ele>
        <time>2019-11-04T11:31:48.000Z</time>
      </trkpt>
      <trkpt lat="36.25782175920903682708740234375" lon="-5.9604603610932826995849609375">
        <ele>9.6000003814697265625</ele>
        <time>2019-11-04T11:31:52.000Z</time>
      </trkpt>
      <trkpt lat="36.25762201845645904541015625" lon="-5.96039213240146636962890625">
        <ele>10</ele>
        <time>2019-11-04T11:31:56.000Z</time>
      </trkpt>
      <trkpt lat="36.257422529160976409912109375" lon="-5.96030990593135356903076171875">
        <ele>9.6000003814697265625</ele>
        <time>2019-11-04T11:32:00.000Z</time>
      </trkpt>
      <trkpt lat="36.25723083503544330596923828125" lon="-5.9601874463260173797607421875">
        <ele>9.19999980926513671875</ele>
        <time>2019-11-04T11:32:04.000Z</time>
      </trkpt>
      <trkpt lat="36.25703821890056133270263671875" lon="-5.9600392542779445648193359375">
        <ele>8.3999996185302734375</ele>
        <time>2019-11-04T11:32:08.000Z</time>
      </trkpt>
      <trkpt lat="36.25682967714965343475341796875" lon="-5.9599027968943119049072265625">
        <ele>7.80000019073486328125</ele>
        <time>2019-11-04T11:32:12.000Z</time>
      </trkpt>
      <trkpt lat="36.256622560322284698486328125" lon="-5.959772206842899322509765625">
        <ele>8.19999980926513671875</ele>
        <time>2019-11-04T11:32:16.000Z</time>
      </trkpt>
      <trkpt lat="36.256431452929973602294921875" lon="-5.95962191931903362274169921875">
        <ele>9.80000019073486328125</ele>
        <time>2019-11-04T11:32:20.000Z</time>
      </trkpt>
      <trkpt lat="36.25625233165919780731201171875" lon="-5.95948194153606891632080078125">
        <ele>10</ele>
        <time>2019-11-04T11:32:24.000Z</time>
      </trkpt>
      <trkpt lat="36.2560832686722278594970703125" lon="-5.9593328274786472320556640625">
        <ele>10.80000019073486328125</ele>
        <time>2019-11-04T11:32:28.000Z</time>
      </trkpt>
      <trkpt lat="36.25592149794101715087890625" lon="-5.95917348749935626983642578125">
        <ele>12.3999996185302734375</ele>
        <time>2019-11-04T11:32:32.000Z</time>
      </trkpt>
      <trkpt lat="36.2557614035904407501220703125" lon="-5.9590086154639720916748046875">
        <ele>11</ele>
        <time>2019-11-04T11:32:36.000Z</time>
      </trkpt>
      <trkpt lat="36.25559519045054912567138671875" lon="-5.95883511006832122802734375">
        <ele>10.80000019073486328125</ele>
        <time>2019-11-04T11:32:40.000Z</time>
      </trkpt>
      <trkpt lat="36.2554313242435455322265625" lon="-5.958658419549465179443359375">
        <ele>11</ele>
        <time>2019-11-04T11:32:44.000Z</time>
      </trkpt>
      <trkpt lat="36.25526309944689273834228515625" lon="-5.95848105847835540771484375">
        <ele>11.3999996185302734375</ele>
        <time>2019-11-04T11:32:48.000Z</time>
      </trkpt>
      <trkpt lat="36.25509403645992279052734375" lon="-5.95830813981592655181884765625">
        <ele>13</ele>
        <time>2019-11-04T11:32:52.000Z</time>
      </trkpt>
      <trkpt lat="36.254924051463603973388671875" lon="-5.95813144929707050323486328125">
        <ele>11</ele>
        <time>2019-11-04T11:32:56.000Z</time>
      </trkpt>
      <trkpt lat="36.2548383884131908416748046875" lon="-5.95804092474281787872314453125">
        <ele>14</ele>
        <time>2019-11-04T11:32:58.000Z</time>
      </trkpt>
      <trkpt lat="36.25468424521386623382568359375" lon="-5.95787764526903629302978515625">
        <ele>15</ele>
        <time>2019-11-04T11:33:02.000Z</time>
      </trkpt>
      <trkpt lat="36.2545292638242244720458984375" lon="-5.95771822147071361541748046875">
        <ele>18.799999237060546875</ele>
        <time>2019-11-04T11:33:06.000Z</time>
      </trkpt>
      <trkpt lat="36.254356764256954193115234375" lon="-5.9575736336410045623779296875">
        <ele>19.3999996185302734375</ele>
        <time>2019-11-04T11:33:10.000Z</time>
      </trkpt>
      <trkpt lat="36.2541916407644748687744140625" lon="-5.9574351646006107330322265625">
        <ele>20.799999237060546875</ele>
        <time>2019-11-04T11:33:14.000Z</time>
      </trkpt>
      <trkpt lat="36.25415367074310779571533203125" lon="-5.9574013017117977142333984375">
        <ele>20.3999996185302734375</ele>
        <time>2019-11-04T11:33:15.000Z</time>
      </trkpt>
      <trkpt lat="36.25404135324060916900634765625" lon="-5.95730298198759555816650390625">
        <ele>19.6000003814697265625</ele>
        <time>2019-11-04T11:33:18.000Z</time>
      </trkpt>
      <trkpt lat="36.25386734493076801300048828125" lon="-5.95715881325304508209228515625">
        <ele>17.3999996185302734375</ele>
        <time>2019-11-04T11:33:23.000Z</time>
      </trkpt>
      <trkpt lat="36.25369618646800518035888671875" lon="-5.9570371918380260467529296875">
        <ele>17.799999237060546875</ele>
        <time>2019-11-04T11:33:28.000Z</time>
      </trkpt>
      <trkpt lat="36.253631226718425750732421875" lon="-5.95698463730514049530029296875">
        <ele>18.799999237060546875</ele>
        <time>2019-11-04T11:33:30.000Z</time>
      </trkpt>
      <trkpt lat="36.25357381068170070648193359375" lon="-5.956929735839366912841796875">
        <ele>18</ele>
        <time>2019-11-04T11:33:32.000Z</time>
      </trkpt>
      <trkpt lat="36.25349678099155426025390625" lon="-5.9568387083709239959716796875">
        <ele>17.200000762939453125</ele>
        <time>2019-11-04T11:33:35.000Z</time>
      </trkpt>
      <trkpt lat="36.25332486815750598907470703125" lon="-5.9566972218453884124755859375">
        <ele>15.19999980926513671875</ele>
        <time>2019-11-04T11:33:40.000Z</time>
      </trkpt>
      <trkpt lat="36.25317114405333995819091796875" lon="-5.95660141669213771820068359375">
        <ele>15.19999980926513671875</ele>
        <time>2019-11-04T11:33:44.000Z</time>
      </trkpt>
      <trkpt lat="36.252978779375553131103515625" lon="-5.95651231706142425537109375">
        <ele>15</ele>
        <time>2019-11-04T11:33:49.000Z</time>
      </trkpt>
      <trkpt lat="36.252793706953525543212890625" lon="-5.9564246423542499542236328125">
        <ele>15</ele>
        <time>2019-11-04T11:33:54.000Z</time>
      </trkpt>
      <trkpt lat="36.25268700532615184783935546875" lon="-5.95638046972453594207763671875">
        <ele>14.80000019073486328125</ele>
        <time>2019-11-04T11:33:57.000Z</time>
      </trkpt>
      <trkpt lat="36.2524894438683986663818359375" lon="-5.95628432929515838623046875">
        <ele>14.6000003814697265625</ele>
        <time>2019-11-04T11:34:03.000Z</time>
      </trkpt>
      <trkpt lat="36.252310574054718017578125" lon="-5.9561782144010066986083984375">
        <ele>14</ele>
        <time>2019-11-04T11:34:09.000Z</time>
      </trkpt>
      <trkpt lat="36.2522180378437042236328125" lon="-5.95611979253590106964111328125">
        <ele>14</ele>
        <time>2019-11-04T11:34:12.000Z</time>
      </trkpt>
      <trkpt lat="36.252031289041042327880859375" lon="-5.9559805691242218017578125">
        <ele>16</ele>
        <time>2019-11-04T11:34:18.000Z</time>
      </trkpt>
      <trkpt lat="36.25184278003871440887451171875" lon="-5.9558234922587871551513671875">
        <ele>17.799999237060546875</ele>
        <time>2019-11-04T11:34:23.000Z</time>
      </trkpt>
      <trkpt lat="36.2516723759472370147705078125" lon="-5.95564998686313629150390625">
        <ele>17.200000762939453125</ele>
        <time>2019-11-04T11:34:27.000Z</time>
      </trkpt>
      <trkpt lat="36.25153608620166778564453125" lon="-5.955494083464145660400390625">
        <ele>17.799999237060546875</ele>
        <time>2019-11-04T11:34:30.000Z</time>
      </trkpt>
      <trkpt lat="36.25138998962938785552978515625" lon="-5.9553234279155731201171875">
        <ele>18.200000762939453125</ele>
        <time>2019-11-04T11:34:33.000Z</time>
      </trkpt>
      <trkpt lat="36.25123961828649044036865234375" lon="-5.95513491891324520111083984375">
        <ele>17.6000003814697265625</ele>
        <time>2019-11-04T11:34:36.000Z</time>
      </trkpt>
      <trkpt lat="36.2510832957923412322998046875" lon="-5.95494062639772891998291015625">
        <ele>20</ele>
        <time>2019-11-04T11:34:39.000Z</time>
      </trkpt>
      <trkpt lat="36.250935606658458709716796875" lon="-5.9547375328838825225830078125">
        <ele>18.6000003814697265625</ele>
        <time>2019-11-04T11:34:42.000Z</time>
      </trkpt>
      <trkpt lat="36.25079219229519367218017578125" lon="-5.9545330144464969635009765625">
        <ele>16.6000003814697265625</ele>
        <time>2019-11-04T11:34:45.000Z</time>
      </trkpt>
      <trkpt lat="36.25065632164478302001953125" lon="-5.95432992093265056610107421875">
        <ele>13.19999980926513671875</ele>
        <time>2019-11-04T11:34:48.000Z</time>
      </trkpt>
      <trkpt lat="36.2505394779145717620849609375" lon="-5.9541367180645465850830078125">
        <ele>11.19999980926513671875</ele>
        <time>2019-11-04T11:34:51.000Z</time>
      </trkpt>
      <trkpt lat="36.25039153732359409332275390625" lon="-5.95391334034502506256103515625">
        <ele>10.19999980926513671875</ele>
        <time>2019-11-04T11:34:55.000Z</time>
      </trkpt>
      <trkpt lat="36.250255666673183441162109375" lon="-5.953705720603466033935546875">
        <ele>12.3999996185302734375</ele>
        <time>2019-11-04T11:34:59.000Z</time>
      </trkpt>
      <trkpt lat="36.25013823620975017547607421875" lon="-5.95349273644387722015380859375">
        <ele>14.80000019073486328125</ele>
        <time>2019-11-04T11:35:03.000Z</time>
      </trkpt>
      <trkpt lat="36.250029020011425018310546875" lon="-5.95330615527927875518798828125">
        <ele>19.200000762939453125</ele>
        <time>2019-11-04T11:35:07.000Z</time>
      </trkpt>
      <trkpt lat="36.2498957477509975433349609375" lon="-5.95309174619615077972412109375">
        <ele>20.200000762939453125</ele>
        <time>2019-11-04T11:35:12.000Z</time>
      </trkpt>
      <trkpt lat="36.2498038820922374725341796875" lon="-5.9529300592839717864990234375">
        <ele>19.799999237060546875</ele>
        <time>2019-11-04T11:35:16.000Z</time>
      </trkpt>
      <trkpt lat="36.24975199811160564422607421875" lon="-5.95278647728264331817626953125">
        <ele>19</ele>
        <time>2019-11-04T11:35:19.000Z</time>
      </trkpt>
      <trkpt lat="36.2496992759406566619873046875" lon="-5.9525173343718051910400390625">
        <ele>14.80000019073486328125</ele>
        <time>2019-11-04T11:35:24.000Z</time>
      </trkpt>
      <trkpt lat="36.2496945820748805999755859375" lon="-5.95245773904025554656982421875">
        <ele>13.80000019073486328125</ele>
        <time>2019-11-04T11:35:25.000Z</time>
      </trkpt>
      <trkpt lat="36.24967387877404689788818359375" lon="-5.95221449621021747589111328125">
        <ele>10.3999996185302734375</ele>
        <time>2019-11-04T11:35:29.000Z</time>
      </trkpt>
      <trkpt lat="36.2496699392795562744140625" lon="-5.9521530568599700927734375">
        <ele>9.3999996185302734375</ele>
        <time>2019-11-04T11:35:30.000Z</time>
      </trkpt>
      <trkpt lat="36.249623335897922515869140625" lon="-5.9519282542169094085693359375">
        <ele>7.599999904632568359375</ele>
        <time>2019-11-04T11:35:34.000Z</time>
      </trkpt>
      <trkpt lat="36.249591149389743804931640625" lon="-5.9518223069608211517333984375">
        <ele>7.19999980926513671875</ele>
        <time>2019-11-04T11:35:36.000Z</time>
      </trkpt>
      <trkpt lat="36.2494991160929203033447265625" lon="-5.9516167826950550079345703125">
        <ele>7</ele>
        <time>2019-11-04T11:35:40.000Z</time>
      </trkpt>
      <trkpt lat="36.24939090572297573089599609375" lon="-5.95143221318721771240234375">
        <ele>7.19999980926513671875</ele>
        <time>2019-11-04T11:35:44.000Z</time>
      </trkpt>
      <trkpt lat="36.24925394542515277862548828125" lon="-5.95122509635984897613525390625">
        <ele>7.599999904632568359375</ele>
        <time>2019-11-04T11:35:49.000Z</time>
      </trkpt>
      <trkpt lat="36.24911581166088581085205078125" lon="-5.95104505307972431182861328125">
        <ele>9</ele>
        <time>2019-11-04T11:35:54.000Z</time>
      </trkpt>
      <trkpt lat="36.24898840673267841339111328125" lon="-5.9508791752159595489501953125">
        <ele>10.19999980926513671875</ele>
        <time>2019-11-04T11:35:59.000Z</time>
      </trkpt>
      <trkpt lat="36.248847506940364837646484375" lon="-5.95072017051279544830322265625">
        <ele>11.80000019073486328125</ele>
        <time>2019-11-04T11:36:04.000Z</time>
      </trkpt>
      <trkpt lat="36.24870627187192440032958984375" lon="-5.95055337063968181610107421875">
        <ele>12.3999996185302734375</ele>
        <time>2019-11-04T11:36:09.000Z</time>
      </trkpt>
      <trkpt lat="36.24856528826057910919189453125" lon="-5.95039193518459796905517578125">
        <ele>12.80000019073486328125</ele>
        <time>2019-11-04T11:36:14.000Z</time>
      </trkpt>
      <trkpt lat="36.24841625802218914031982421875" lon="-5.9502324275672435760498046875">
        <ele>13.19999980926513671875</ele>
        <time>2019-11-04T11:36:19.000Z</time>
      </trkpt>
      <trkpt lat="36.24823101796209812164306640625" lon="-5.950090102851390838623046875">
        <ele>13.80000019073486328125</ele>
        <time>2019-11-04T11:36:24.000Z</time>
      </trkpt>
      <trkpt lat="36.24805265106260776519775390625" lon="-5.95000687055289745330810546875">
        <ele>13.6000003814697265625</ele>
        <time>2019-11-04T11:36:28.000Z</time>
      </trkpt>
      <trkpt lat="36.2478545866906642913818359375" lon="-5.94996512867510318756103515625">
        <ele>14.3999996185302734375</ele>
        <time>2019-11-04T11:36:32.000Z</time>
      </trkpt>
      <trkpt lat="36.2476453743875026702880859375" lon="-5.94995004124939441680908203125">
        <ele>15</ele>
        <time>2019-11-04T11:36:36.000Z</time>
      </trkpt>
      <trkpt lat="36.24743490479886531829833984375" lon="-5.9499444253742694854736328125">
        <ele>15</ele>
        <time>2019-11-04T11:36:40.000Z</time>
      </trkpt>
      <trkpt lat="36.24721898697316646575927734375" lon="-5.9499321877956390380859375">
        <ele>13.80000019073486328125</ele>
        <time>2019-11-04T11:36:44.000Z</time>
      </trkpt>
      <trkpt lat="36.24710868112742900848388671875" lon="-5.94992187805473804473876953125">
        <ele>13.6000003814697265625</ele>
        <time>2019-11-04T11:36:46.000Z</time>
      </trkpt>
      <trkpt lat="36.246878094971179962158203125" lon="-5.94992036931216716766357421875">
        <ele>12.80000019073486328125</ele>
        <time>2019-11-04T11:36:50.000Z</time>
      </trkpt>
      <trkpt lat="36.24664616771042346954345703125" lon="-5.94992573373019695281982421875">
        <ele>11.80000019073486328125</ele>
        <time>2019-11-04T11:36:54.000Z</time>
      </trkpt>
      <trkpt lat="36.2464128993451595306396484375" lon="-5.94993545673787593841552734375">
        <ele>11.19999980926513671875</ele>
        <time>2019-11-04T11:36:58.000Z</time>
      </trkpt>
      <trkpt lat="36.24618281610310077667236328125" lon="-5.94993478618562221527099609375">
        <ele>11.19999980926513671875</ele>
        <time>2019-11-04T11:37:02.000Z</time>
      </trkpt>
      <trkpt lat="36.24596270732581615447998046875" lon="-5.949929840862751007080078125">
        <ele>11.80000019073486328125</ele>
        <time>2019-11-04T11:37:06.000Z</time>
      </trkpt>
      <trkpt lat="36.24574226327240467071533203125" lon="-5.94992288388311862945556640625">
        <ele>12.6000003814697265625</ele>
        <time>2019-11-04T11:37:10.000Z</time>
      </trkpt>
      <trkpt lat="36.24553321860730648040771484375" lon="-5.9499105624854564666748046875">
        <ele>13.19999980926513671875</ele>
        <time>2019-11-04T11:37:14.000Z</time>
      </trkpt>
      <trkpt lat="36.24533523805439472198486328125" lon="-5.9499041922390460968017578125">
        <ele>13.3999996185302734375</ele>
        <time>2019-11-04T11:37:18.000Z</time>
      </trkpt>
      <trkpt lat="36.24512501992285251617431640625" lon="-5.94988734461367130279541015625">
        <ele>13.6000003814697265625</ele>
        <time>2019-11-04T11:37:22.000Z</time>
      </trkpt>
      <trkpt lat="36.24491010792553424835205078125" lon="-5.9498730115592479705810546875">
        <ele>14.19999980926513671875</ele>
        <time>2019-11-04T11:37:26.000Z</time>
      </trkpt>
      <trkpt lat="36.2447019852697849273681640625" lon="-5.94985641539096832275390625">
        <ele>14</ele>
        <time>2019-11-04T11:37:30.000Z</time>
      </trkpt>
      <trkpt lat="36.24451129697263240814208984375" lon="-5.94984778203070163726806640625">
        <ele>13.6000003814697265625</ele>
        <time>2019-11-04T11:37:34.000Z</time>
      </trkpt>
      <trkpt lat="36.24432153068482875823974609375" lon="-5.94982330687344074249267578125">
        <ele>12.6000003814697265625</ele>
        <time>2019-11-04T11:37:38.000Z</time>
      </trkpt>
      <trkpt lat="36.2441249750554561614990234375" lon="-5.9498036094009876251220703125">
        <ele>11.80000019073486328125</ele>
        <time>2019-11-04T11:37:42.000Z</time>
      </trkpt>
      <trkpt lat="36.24392221681773662567138671875" lon="-5.94977787695825099945068359375">
        <ele>12.19999980926513671875</ele>
        <time>2019-11-04T11:37:46.000Z</time>
      </trkpt>
      <trkpt lat="36.2437095679342746734619140625" lon="-5.94977519474923610687255859375">
        <ele>12.3999996185302734375</ele>
        <time>2019-11-04T11:37:50.000Z</time>
      </trkpt>
      <trkpt lat="36.24349054880440235137939453125" lon="-5.9497958980500698089599609375">
        <ele>12.6000003814697265625</ele>
        <time>2019-11-04T11:37:54.000Z</time>
      </trkpt>
      <trkpt lat="36.24328703619539737701416015625" lon="-5.94983437098562717437744140625">
        <ele>13</ele>
        <time>2019-11-04T11:37:58.000Z</time>
      </trkpt>
      <trkpt lat="36.24310984276235103607177734375" lon="-5.9499075450003147125244140625">
        <ele>13</ele>
        <time>2019-11-04T11:38:02.000Z</time>
      </trkpt>
      <trkpt lat="36.24292728491127490997314453125" lon="-5.9500024281442165374755859375">
        <ele>13</ele>
        <time>2019-11-04T11:38:07.000Z</time>
      </trkpt>
      <trkpt lat="36.24282552860677242279052734375" lon="-5.95005816780030727386474609375">
        <ele>13</ele>
        <time>2019-11-04T11:38:10.000Z</time>
      </trkpt>
      <trkpt lat="36.24264883808791637420654296875" lon="-5.9501603431999683380126953125">
        <ele>13</ele>
        <time>2019-11-04T11:38:15.000Z</time>
      </trkpt>
      <trkpt lat="36.24254724942147731781005859375" lon="-5.9502089582383632659912109375">
        <ele>13</ele>
        <time>2019-11-04T11:38:18.000Z</time>
      </trkpt>
      <trkpt lat="36.24237223528325557708740234375" lon="-5.95030970871448516845703125">
        <ele>13.19999980926513671875</ele>
        <time>2019-11-04T11:38:23.000Z</time>
      </trkpt>
      <trkpt lat="36.2421838939189910888671875" lon="-5.9503936953842639923095703125">
        <ele>13.80000019073486328125</ele>
        <time>2019-11-04T11:38:28.000Z</time>
      </trkpt>
      <trkpt lat="36.24201131053268909454345703125" lon="-5.9504641033709049224853515625">
        <ele>14</ele>
        <time>2019-11-04T11:38:32.000Z</time>
      </trkpt>
      <trkpt lat="36.24179924838244915008544921875" lon="-5.95055454410612583160400390625">
        <ele>14.3999996185302734375</ele>
        <time>2019-11-04T11:38:37.000Z</time>
      </trkpt>
      <trkpt lat="36.24159841798245906829833984375" lon="-5.95063199289143085479736328125">
        <ele>15.6000003814697265625</ele>
        <time>2019-11-04T11:38:42.000Z</time>
      </trkpt>
      <trkpt lat="36.24140161089599132537841796875" lon="-5.9507068432867527008056640625">
        <ele>16.200000762939453125</ele>
        <time>2019-11-04T11:38:47.000Z</time>
      </trkpt>
      <trkpt lat="36.24128728173673152923583984375" lon="-5.95074749551713466644287109375">
        <ele>16.3999996185302734375</ele>
        <time>2019-11-04T11:38:50.000Z</time>
      </trkpt>
      <trkpt lat="36.24109483323991298675537109375" lon="-5.9508184902369976043701171875">
        <ele>16.200000762939453125</ele>
        <time>2019-11-04T11:38:55.000Z</time>
      </trkpt>
      <trkpt lat="36.24098067171871662139892578125" lon="-5.9508587233722209930419921875">
        <ele>16</ele>
        <time>2019-11-04T11:38:58.000Z</time>
      </trkpt>
      <trkpt lat="36.2407958507537841796875" lon="-5.95091848634183406829833984375">
        <ele>15.80000019073486328125</ele>
        <time>2019-11-04T11:39:03.000Z</time>
      </trkpt>
      <trkpt lat="36.24060474336147308349609375" lon="-5.95098554156720638275146484375">
        <ele>16</ele>
        <time>2019-11-04T11:39:08.000Z</time>
      </trkpt>
      <trkpt lat="36.24040517024695873260498046875" lon="-5.9510652534663677215576171875">
        <ele>16.3999996185302734375</ele>
        <time>2019-11-04T11:39:13.000Z</time>
      </trkpt>
      <trkpt lat="36.240287907421588897705078125" lon="-5.95111479051411151885986328125">
        <ele>16.6000003814697265625</ele>
        <time>2019-11-04T11:39:16.000Z</time>
      </trkpt>
      <trkpt lat="36.24009571038186550140380859375" lon="-5.9511859528720378875732421875">
        <ele>17.6000003814697265625</ele>
        <time>2019-11-04T11:39:21.000Z</time>
      </trkpt>
      <trkpt lat="36.23992019332945346832275390625" lon="-5.95125158317387104034423828125">
        <ele>19.200000762939453125</ele>
        <time>2019-11-04T11:39:26.000Z</time>
      </trkpt>
      <trkpt lat="36.239740066230297088623046875" lon="-5.9513110108673572540283203125">
        <ele>20.3999996185302734375</ele>
        <time>2019-11-04T11:39:31.000Z</time>
      </trkpt>
      <trkpt lat="36.2395397387444972991943359375" lon="-5.95138871110975742340087890625">
        <ele>21.200000762939453125</ele>
        <time>2019-11-04T11:39:36.000Z</time>
      </trkpt>
      <trkpt lat="36.2393514811992645263671875" lon="-5.95145769417285919189453125">
        <ele>21.200000762939453125</ele>
        <time>2019-11-04T11:39:41.000Z</time>
      </trkpt>
      <trkpt lat="36.239155344665050506591796875" lon="-5.95151343382894992828369140625">
        <ele>20.3999996185302734375</ele>
        <time>2019-11-04T11:39:46.000Z</time>
      </trkpt>
      <trkpt lat="36.23896683566272258758544921875" lon="-5.95155383460223674774169921875">
        <ele>20.3999996185302734375</ele>
        <time>2019-11-04T11:39:51.000Z</time>
      </trkpt>
      <trkpt lat="36.23876650817692279815673828125" lon="-5.95157763920724391937255859375">
        <ele>20.799999237060546875</ele>
        <time>2019-11-04T11:39:56.000Z</time>
      </trkpt>
      <trkpt lat="36.2385671027004718780517578125" lon="-5.9515698440372943878173828125">
        <ele>21.3999996185302734375</ele>
        <time>2019-11-04T11:40:01.000Z</time>
      </trkpt>
      <trkpt lat="36.23836484737694263458251953125" lon="-5.951555259525775909423828125">
        <ele>22.6000003814697265625</ele>
        <time>2019-11-04T11:40:06.000Z</time>
      </trkpt>
      <trkpt lat="36.23814255930483341217041015625" lon="-5.95153908245265483856201171875">
        <ele>23.200000762939453125</ele>
        <time>2019-11-04T11:40:11.000Z</time>
      </trkpt>
      <trkpt lat="36.23795866034924983978271484375" lon="-5.95153371803462505340576171875">
        <ele>23.200000762939453125</ele>
        <time>2019-11-04T11:40:15.000Z</time>
      </trkpt>
      <trkpt lat="36.23777501285076141357421875" lon="-5.9515172056853771209716796875">
        <ele>22.200000762939453125</ele>
        <time>2019-11-04T11:40:19.000Z</time>
      </trkpt>
      <trkpt lat="36.23758231289684772491455078125" lon="-5.9515061415731906890869140625">
        <ele>22</ele>
        <time>2019-11-04T11:40:23.000Z</time>
      </trkpt>
      <trkpt lat="36.23735818080604076385498046875" lon="-5.95149314962327480316162109375">
        <ele>22</ele>
        <time>2019-11-04T11:40:27.000Z</time>
      </trkpt>
      <trkpt lat="36.23716439120471477508544921875" lon="-5.95147303305566310882568359375">
        <ele>21.799999237060546875</ele>
        <time>2019-11-04T11:40:30.000Z</time>
      </trkpt>
      <trkpt lat="36.23694956302642822265625" lon="-5.9514521621167659759521484375">
        <ele>22.3999996185302734375</ele>
        <time>2019-11-04T11:40:33.000Z</time>
      </trkpt>
      <trkpt lat="36.23671897687017917633056640625" lon="-5.95142525620758533477783203125">
        <ele>23</ele>
        <time>2019-11-04T11:40:36.000Z</time>
      </trkpt>
      <trkpt lat="36.23646701686084270477294921875" lon="-5.95140002667903900146484375">
        <ele>21.3999996185302734375</ele>
        <time>2019-11-04T11:40:39.000Z</time>
      </trkpt>
      <trkpt lat="36.23629049398005008697509765625" lon="-5.951360799372196197509765625">
        <ele>20.799999237060546875</ele>
        <time>2019-11-04T11:40:41.000Z</time>
      </trkpt>
      <trkpt lat="36.236105002462863922119140625" lon="-5.95129282213747501373291015625">
        <ele>20.3999996185302734375</ele>
        <time>2019-11-04T11:40:43.000Z</time>
      </trkpt>
      <trkpt lat="36.2359154038131237030029296875" lon="-5.95121218822896480560302734375">
        <ele>18.799999237060546875</ele>
        <time>2019-11-04T11:40:45.000Z</time>
      </trkpt>
      <trkpt lat="36.2357197701930999755859375" lon="-5.9511319734156131744384765625">
        <ele>16.3999996185302734375</ele>
        <time>2019-11-04T11:40:47.000Z</time>
      </trkpt>
      <trkpt lat="36.2355305068194866180419921875" lon="-5.951057709753513336181640625">
        <ele>15</ele>
        <time>2019-11-04T11:40:49.000Z</time>
      </trkpt>
      <trkpt lat="36.23534417711198329925537109375" lon="-5.95097489655017852783203125">
        <ele>14.19999980926513671875</ele>
        <time>2019-11-04T11:40:51.000Z</time>
      </trkpt>
      <trkpt lat="36.2351674027740955352783203125" lon="-5.950890742242336273193359375">
        <ele>13.6000003814697265625</ele>
        <time>2019-11-04T11:40:53.000Z</time>
      </trkpt>
      <trkpt lat="36.2349974177777767181396484375" lon="-5.950805246829986572265625">
        <ele>12.80000019073486328125</ele>
        <time>2019-11-04T11:40:55.000Z</time>
      </trkpt>
      <trkpt lat="36.23476557433605194091796875" lon="-5.950682871043682098388671875">
        <ele>12</ele>
        <time>2019-11-04T11:40:58.000Z</time>
      </trkpt>
      <trkpt lat="36.2345437891781330108642578125" lon="-5.9505858086049556732177734375">
        <ele>11.3999996185302734375</ele>
        <time>2019-11-04T11:41:01.000Z</time>
      </trkpt>
      <trkpt lat="36.23433348722755908966064453125" lon="-5.9504895843565464019775390625">
        <ele>11.3999996185302734375</ele>
        <time>2019-11-04T11:41:04.000Z</time>
      </trkpt>
      <trkpt lat="36.234140954911708831787109375" lon="-5.95039947889745235443115234375">
        <ele>12.6000003814697265625</ele>
        <time>2019-11-04T11:41:07.000Z</time>
      </trkpt>
      <trkpt lat="36.2339339219033718109130859375" lon="-5.95029604621231555938720703125">
        <ele>14.19999980926513671875</ele>
        <time>2019-11-04T11:41:11.000Z</time>
      </trkpt>
      <trkpt lat="36.23375329189002513885498046875" lon="-5.95021574757993221282958984375">
        <ele>15.19999980926513671875</ele>
        <time>2019-11-04T11:41:15.000Z</time>
      </trkpt>
      <trkpt lat="36.23357811011373996734619140625" lon="-5.950137041509151458740234375">
        <ele>16.6000003814697265625</ele>
        <time>2019-11-04T11:41:19.000Z</time>
      </trkpt>
      <trkpt lat="36.2334008328616619110107421875" lon="-5.950053893029689788818359375">
        <ele>18.200000762939453125</ele>
        <time>2019-11-04T11:41:23.000Z</time>
      </trkpt>
      <trkpt lat="36.2332171015441417694091796875" lon="-5.9499782882630825042724609375">
        <ele>18.3999996185302734375</ele>
        <time>2019-11-04T11:41:27.000Z</time>
      </trkpt>
      <trkpt lat="36.2330739386379718780517578125" lon="-5.94992338679730892181396484375">
        <ele>17.799999237060546875</ele>
        <time>2019-11-04T11:41:30.000Z</time>
      </trkpt>
      <trkpt lat="36.23286732472479343414306640625" lon="-5.94985465519130229949951171875">
        <ele>16.6000003814697265625</ele>
        <time>2019-11-04T11:41:34.000Z</time>
      </trkpt>
      <trkpt lat="36.2326615490019321441650390625" lon="-5.9497677348554134368896484375">
        <ele>15.80000019073486328125</ele>
        <time>2019-11-04T11:41:38.000Z</time>
      </trkpt>
      <trkpt lat="36.23246935196220874786376953125" lon="-5.94967595301568508148193359375">
        <ele>15.3999996185302734375</ele>
        <time>2019-11-04T11:41:42.000Z</time>
      </trkpt>
      <trkpt lat="36.232264749705791473388671875" lon="-5.94957754947245121002197265625">
        <ele>15</ele>
        <time>2019-11-04T11:41:46.000Z</time>
      </trkpt>
      <trkpt lat="36.23206031508743762969970703125" lon="-5.94947411678731441497802734375">
        <ele>14.3999996185302734375</ele>
        <time>2019-11-04T11:41:50.000Z</time>
      </trkpt>
      <trkpt lat="36.23185412026941776275634765625" lon="-5.94937093555927276611328125">
        <ele>14.3999996185302734375</ele>
        <time>2019-11-04T11:41:54.000Z</time>
      </trkpt>
      <trkpt lat="36.23164993710815906524658203125" lon="-5.94926096498966217041015625">
        <ele>14.6000003814697265625</ele>
        <time>2019-11-04T11:41:58.000Z</time>
      </trkpt>
      <trkpt lat="36.23144541867077350616455078125" lon="-5.94913666136562824249267578125">
        <ele>14.3999996185302734375</ele>
        <time>2019-11-04T11:42:02.000Z</time>
      </trkpt>
      <trkpt lat="36.23123620636761188507080078125" lon="-5.9490297921001911163330078125">
        <ele>15.3999996185302734375</ele>
        <time>2019-11-04T11:42:06.000Z</time>
      </trkpt>
      <trkpt lat="36.23101710341870784759521484375" lon="-5.94892811961472034454345703125">
        <ele>15.3999996185302734375</ele>
        <time>2019-11-04T11:42:10.000Z</time>
      </trkpt>
      <trkpt lat="36.2308440171182155609130859375" lon="-5.94885335303843021392822265625">
        <ele>15.19999980926513671875</ele>
        <time>2019-11-04T11:42:13.000Z</time>
      </trkpt>
      <trkpt lat="36.230654753744602203369140625" lon="-5.94879736192524433135986328125">
        <ele>15.80000019073486328125</ele>
        <time>2019-11-04T11:42:16.000Z</time>
      </trkpt>
      <trkpt lat="36.23046708293259143829345703125" lon="-5.948752351105213165283203125">
        <ele>16.200000762939453125</ele>
        <time>2019-11-04T11:42:19.000Z</time>
      </trkpt>
      <trkpt lat="36.2302807532250881195068359375" lon="-5.9487176500260829925537109375">
        <ele>17.200000762939453125</ele>
        <time>2019-11-04T11:42:22.000Z</time>
      </trkpt>
      <trkpt lat="36.23009006492793560028076171875" lon="-5.94867280684411525726318359375">
        <ele>16.3999996185302734375</ele>
        <time>2019-11-04T11:42:25.000Z</time>
      </trkpt>
      <trkpt lat="36.22989476658403873443603515625" lon="-5.94863123260438442230224609375">
        <ele>15.3999996185302734375</ele>
        <time>2019-11-04T11:42:28.000Z</time>
      </trkpt>
      <trkpt lat="36.22969058342278003692626953125" lon="-5.94860089011490345001220703125">
        <ele>14.19999980926513671875</ele>
        <time>2019-11-04T11:42:31.000Z</time>
      </trkpt>
      <trkpt lat="36.229494698345661163330078125" lon="-5.94857188872992992401123046875">
        <ele>13.19999980926513671875</ele>
        <time>2019-11-04T11:42:34.000Z</time>
      </trkpt>
      <trkpt lat="36.22930862009525299072265625" lon="-5.94855420291423797607421875">
        <ele>12.3999996185302734375</ele>
        <time>2019-11-04T11:42:37.000Z</time>
      </trkpt>
      <trkpt lat="36.2291284091770648956298828125" lon="-5.94854221679270267486572265625">
        <ele>11.3999996185302734375</ele>
        <time>2019-11-04T11:42:40.000Z</time>
      </trkpt>
      <trkpt lat="36.22890218161046504974365234375" lon="-5.9485463239252567291259765625">
        <ele>11.3999996185302734375</ele>
        <time>2019-11-04T11:42:44.000Z</time>
      </trkpt>
      <trkpt lat="36.22867620550096035003662109375" lon="-5.94858798198401927947998046875">
        <ele>12.3999996185302734375</ele>
        <time>2019-11-04T11:42:48.000Z</time>
      </trkpt>
      <trkpt lat="36.22845408506691455841064453125" lon="-5.94864279963076114654541015625">
        <ele>13</ele>
        <time>2019-11-04T11:42:52.000Z</time>
      </trkpt>
      <trkpt lat="36.22824219055473804473876953125" lon="-5.94869962893426418304443359375">
        <ele>13.80000019073486328125</ele>
        <time>2019-11-04T11:42:56.000Z</time>
      </trkpt>
      <trkpt lat="36.22804068960249423980712890625" lon="-5.94875696115195751190185546875">
        <ele>14.19999980926513671875</ele>
        <time>2019-11-04T11:43:00.000Z</time>
      </trkpt>
      <trkpt lat="36.22785528190433979034423828125" lon="-5.94881295226514339447021484375">
        <ele>14.3999996185302734375</ele>
        <time>2019-11-04T11:43:04.000Z</time>
      </trkpt>
      <trkpt lat="36.22767523862421512603759765625" lon="-5.94885385595262050628662109375">
        <ele>14.3999996185302734375</ele>
        <time>2019-11-04T11:43:08.000Z</time>
      </trkpt>
      <trkpt lat="36.22748949564993381500244140625" lon="-5.9488691948354244232177734375">
        <ele>14.3999996185302734375</ele>
        <time>2019-11-04T11:43:12.000Z</time>
      </trkpt>
      <trkpt lat="36.22739729471504688262939453125" lon="-5.94887430779635906219482421875">
        <ele>14</ele>
        <time>2019-11-04T11:43:14.000Z</time>
      </trkpt>
      <trkpt lat="36.2272230349481105804443359375" lon="-5.9488681890070438385009765625">
        <ele>14.80000019073486328125</ele>
        <time>2019-11-04T11:43:18.000Z</time>
      </trkpt>
      <trkpt lat="36.2270185165107250213623046875" lon="-5.94882066361606121063232421875">
        <ele>15.19999980926513671875</ele>
        <time>2019-11-04T11:43:23.000Z</time>
      </trkpt>
      <trkpt lat="36.2268113158643245697021484375" lon="-5.94873768277466297149658203125">
        <ele>15.19999980926513671875</ele>
        <time>2019-11-04T11:43:28.000Z</time>
      </trkpt>
      <trkpt lat="36.2266430072486400604248046875" lon="-5.94864581711590290069580078125">
        <ele>14.6000003814697265625</ele>
        <time>2019-11-04T11:43:32.000Z</time>
      </trkpt>
      <trkpt lat="36.22646992094814777374267578125" lon="-5.9485463239252567291259765625">
        <ele>14</ele>
        <time>2019-11-04T11:43:36.000Z</time>
      </trkpt>
      <trkpt lat="36.22628971002995967864990234375" lon="-5.94844331033527851104736328125">
        <ele>13</ele>
        <time>2019-11-04T11:43:40.000Z</time>
      </trkpt>
      <trkpt lat="36.22611167840659618377685546875" lon="-5.94835798256099224090576171875">
        <ele>13.6000003814697265625</ele>
        <time>2019-11-04T11:43:44.000Z</time>
      </trkpt>
      <trkpt lat="36.22592610307037830352783203125" lon="-5.9483092837035655975341796875">
        <ele>13.80000019073486328125</ele>
        <time>2019-11-04T11:43:48.000Z</time>
      </trkpt>
      <trkpt lat="36.22587966732680797576904296875" lon="-5.9483040869235992431640625">
        <ele>13.6000003814697265625</ele>
        <time>2019-11-04T11:43:49.000Z</time>
      </trkpt>
      <trkpt lat="36.22565620578825473785400390625" lon="-5.94832562841475009918212890625">
        <ele>14</ele>
        <time>2019-11-04T11:43:54.000Z</time>
      </trkpt>
      <trkpt lat="36.22543953359127044677734375" lon="-5.9483800269663333892822265625">
        <ele>15.6000003814697265625</ele>
        <time>2019-11-04T11:43:59.000Z</time>
      </trkpt>
      <trkpt lat="36.225223951041698455810546875" lon="-5.9484381973743438720703125">
        <ele>18.3999996185302734375</ele>
        <time>2019-11-04T11:44:04.000Z</time>
      </trkpt>
      <trkpt lat="36.22500861994922161102294921875" lon="-5.9484960325062274932861328125">
        <ele>19.3999996185302734375</ele>
        <time>2019-11-04T11:44:09.000Z</time>
      </trkpt>
      <trkpt lat="36.224797479808330535888671875" lon="-5.94854506663978099822998046875">
        <ele>19.3999996185302734375</ele>
        <time>2019-11-04T11:44:14.000Z</time>
      </trkpt>
      <trkpt lat="36.22458659112453460693359375" lon="-5.948592759668827056884765625">
        <ele>19</ele>
        <time>2019-11-04T11:44:19.000Z</time>
      </trkpt>
      <trkpt lat="36.22440897859632968902587890625" lon="-5.9486502595245838165283203125">
        <ele>18.200000762939453125</ele>
        <time>2019-11-04T11:44:23.000Z</time>
      </trkpt>
      <trkpt lat="36.224228851497173309326171875" lon="-5.94870197586715221405029296875">
        <ele>17.6000003814697265625</ele>
        <time>2019-11-04T11:44:27.000Z</time>
      </trkpt>
      <trkpt lat="36.2240449525415897369384765625" lon="-5.948741622269153594970703125">
        <ele>17</ele>
        <time>2019-11-04T11:44:31.000Z</time>
      </trkpt>
      <trkpt lat="36.22382886707782745361328125" lon="-5.94879887066781520843505859375">
        <ele>17</ele>
        <time>2019-11-04T11:44:36.000Z</time>
      </trkpt>
      <trkpt lat="36.2237489037215709686279296875" lon="-5.9488269500434398651123046875">
        <ele>17.3999996185302734375</ele>
        <time>2019-11-04T11:44:38.000Z</time>
      </trkpt>
      <trkpt lat="36.2235665135085582733154296875" lon="-5.94886592589318752288818359375">
        <ele>17.799999237060546875</ele>
        <time>2019-11-04T11:44:43.000Z</time>
      </trkpt>
      <trkpt lat="36.22336350381374359130859375" lon="-5.94886944629251956939697265625">
        <ele>18.6000003814697265625</ele>
        <time>2019-11-04T11:44:49.000Z</time>
      </trkpt>
      <trkpt lat="36.22317281551659107208251953125" lon="-5.94887481071054935455322265625">
        <ele>20</ele>
        <time>2019-11-04T11:44:55.000Z</time>
      </trkpt>
      <trkpt lat="36.22302160598337650299072265625" lon="-5.9488799236714839935302734375">
        <ele>21.6000003814697265625</ele>
        <time>2019-11-04T11:45:00.000Z</time>
      </trkpt>
      <trkpt lat="36.2228600867092609405517578125" lon="-5.94887900166213512420654296875">
        <ele>23.799999237060546875</ele>
        <time>2019-11-04T11:45:05.000Z</time>
      </trkpt>
      <trkpt lat="36.2226746790111064910888671875" lon="-5.94887179322540760040283203125">
        <ele>27.200000762939453125</ele>
        <time>2019-11-04T11:45:11.000Z</time>
      </trkpt>
      <trkpt lat="36.2224911153316497802734375" lon="-5.9488588012754917144775390625">
        <ele>28.3999996185302734375</ele>
        <time>2019-11-04T11:45:17.000Z</time>
      </trkpt>
      <trkpt lat="36.22230126522481441497802734375" lon="-5.94884363003075122833251953125">
        <ele>28.799999237060546875</ele>
        <time>2019-11-04T11:45:23.000Z</time>
      </trkpt>
      <trkpt lat="36.22211803682148456573486328125" lon="-5.94883306883275508880615234375">
        <ele>28.200000762939453125</ele>
        <time>2019-11-04T11:45:29.000Z</time>
      </trkpt>
      <trkpt lat="36.2219370715320110321044921875" lon="-5.948828123509883880615234375">
        <ele>29</ele>
        <time>2019-11-04T11:45:34.000Z</time>
      </trkpt>
      <trkpt lat="36.2217466346919536590576171875" lon="-5.94882502220571041107177734375">
        <ele>29.6000003814697265625</ele>
        <time>2019-11-04T11:45:39.000Z</time>
      </trkpt>
      <trkpt lat="36.221529208123683929443359375" lon="-5.9488165564835071563720703125">
        <ele>29.200000762939453125</ele>
        <time>2019-11-04T11:45:44.000Z</time>
      </trkpt>
      <trkpt lat="36.2213432975113391876220703125" lon="-5.9487977810204029083251953125">
        <ele>28.200000762939453125</ele>
        <time>2019-11-04T11:45:48.000Z</time>
      </trkpt>
      <trkpt lat="36.221143640577793121337890625" lon="-5.94876207411289215087890625">
        <ele>27.3999996185302734375</ele>
        <time>2019-11-04T11:45:52.000Z</time>
      </trkpt>
      <trkpt lat="36.22091573663055896759033203125" lon="-5.94867833890020847320556640625">
        <ele>26.200000762939453125</ele>
        <time>2019-11-04T11:45:56.000Z</time>
      </trkpt>
      <trkpt lat="36.2207126431167125701904296875" lon="-5.948574654757976531982421875">
        <ele>24.3999996185302734375</ele>
        <time>2019-11-04T11:45:59.000Z</time>
      </trkpt>
      <trkpt lat="36.22049781493842601776123046875" lon="-5.9484514407813549041748046875">
        <ele>22.799999237060546875</ele>
        <time>2019-11-04T11:46:02.000Z</time>
      </trkpt>
      <trkpt lat="36.22027896344661712646484375" lon="-5.94830232672393321990966796875">
        <ele>22.3999996185302734375</ele>
        <time>2019-11-04T11:46:05.000Z</time>
      </trkpt>
      <trkpt lat="36.2200717628002166748046875" lon="-5.94810283742845058441162109375">
        <ele>21</ele>
        <time>2019-11-04T11:46:08.000Z</time>
      </trkpt>
      <trkpt lat="36.2198811583220958709716796875" lon="-5.947887338697910308837890625">
        <ele>20.3999996185302734375</ele>
        <time>2019-11-04T11:46:11.000Z</time>
      </trkpt>
      <trkpt lat="36.21970606036484241485595703125" lon="-5.94767921604216098785400390625">
        <ele>21.3999996185302734375</ele>
        <time>2019-11-04T11:46:14.000Z</time>
      </trkpt>
      <trkpt lat="36.21953456662595272064208984375" lon="-5.94747067429125308990478515625">
        <ele>22.6000003814697265625</ele>
        <time>2019-11-04T11:46:17.000Z</time>
      </trkpt>
      <trkpt lat="36.21936374343931674957275390625" lon="-5.947280824184417724609375">
        <ele>22.6000003814697265625</ele>
        <time>2019-11-04T11:46:20.000Z</time>
      </trkpt>
      <trkpt lat="36.21921068988740444183349609375" lon="-5.9471026249229907989501953125">
        <ele>21.200000762939453125</ele>
        <time>2019-11-04T11:46:23.000Z</time>
      </trkpt>
      <trkpt lat="36.2191173993051052093505859375" lon="-5.946980752050876617431640625">
        <ele>20</ele>
        <time>2019-11-04T11:46:25.000Z</time>
      </trkpt>
      <trkpt lat="36.2189531140029430389404296875" lon="-5.94677128829061985015869140625">
        <ele>18.799999237060546875</ele>
        <time>2019-11-04T11:46:29.000Z</time>
      </trkpt>
      <trkpt lat="36.21879838407039642333984375" lon="-5.94658923335373401641845703125">
        <ele>19.3999996185302734375</ele>
        <time>2019-11-04T11:46:33.000Z</time>
      </trkpt>
      <trkpt lat="36.21864289976656436920166015625" lon="-5.9464314021170139312744140625">
        <ele>21.799999237060546875</ele>
        <time>2019-11-04T11:46:37.000Z</time>
      </trkpt>
      <trkpt lat="36.21849856339395046234130859375" lon="-5.94626351259648799896240234375">
        <ele>24.3999996185302734375</ele>
        <time>2019-11-04T11:46:41.000Z</time>
      </trkpt>
      <trkpt lat="36.21835942380130290985107421875" lon="-5.9460964612662792205810546875">
        <ele>24.6000003814697265625</ele>
        <time>2019-11-04T11:46:45.000Z</time>
      </trkpt>
      <trkpt lat="36.21822573244571685791015625" lon="-5.94592136330902576446533203125">
        <ele>22.6000003814697265625</ele>
        <time>2019-11-04T11:46:49.000Z</time>
      </trkpt>
      <trkpt lat="36.21808885596692562103271484375" lon="-5.945744924247264862060546875">
        <ele>21.200000762939453125</ele>
        <time>2019-11-04T11:46:53.000Z</time>
      </trkpt>
      <trkpt lat="36.21793680824339389801025390625" lon="-5.94554484821856021881103515625">
        <ele>20.200000762939453125</ele>
        <time>2019-11-04T11:46:57.000Z</time>
      </trkpt>
      <trkpt lat="36.21777319349348545074462890625" lon="-5.94533429481089115142822265625">
        <ele>19.799999237060546875</ele>
        <time>2019-11-04T11:47:01.000Z</time>
      </trkpt>
      <trkpt lat="36.21763296425342559814453125" lon="-5.94516866840422153472900390625">
        <ele>17.6000003814697265625</ele>
        <time>2019-11-04T11:47:04.000Z</time>
      </trkpt>
      <trkpt lat="36.21748435311019420623779296875" lon="-5.94500186853110790252685546875">
        <ele>17</ele>
        <time>2019-11-04T11:47:07.000Z</time>
      </trkpt>
      <trkpt lat="36.2173347361385822296142578125" lon="-5.9448264352977275848388671875">
        <ele>16.200000762939453125</ele>
        <time>2019-11-04T11:47:10.000Z</time>
      </trkpt>
      <trkpt lat="36.2171942554414272308349609375" lon="-5.94464865513145923614501953125">
        <ele>16.6000003814697265625</ele>
        <time>2019-11-04T11:47:13.000Z</time>
      </trkpt>
      <trkpt lat="36.2170510925352573394775390625" lon="-5.9444841183722019195556640625">
        <ele>16.799999237060546875</ele>
        <time>2019-11-04T11:47:16.000Z</time>
      </trkpt>
      <trkpt lat="36.21688236482441425323486328125" lon="-5.9442920051515102386474609375">
        <ele>16.799999237060546875</ele>
        <time>2019-11-04T11:47:20.000Z</time>
      </trkpt>
      <trkpt lat="36.21671690605580806732177734375" lon="-5.94410114921629428863525390625">
        <ele>17</ele>
        <time>2019-11-04T11:47:24.000Z</time>
      </trkpt>
      <trkpt lat="36.21654935181140899658203125" lon="-5.94389520585536956787109375">
        <ele>16.799999237060546875</ele>
        <time>2019-11-04T11:47:28.000Z</time>
      </trkpt>
      <trkpt lat="36.21638364158570766448974609375" lon="-5.94368842430412769317626953125">
        <ele>17.6000003814697265625</ele>
        <time>2019-11-04T11:47:32.000Z</time>
      </trkpt>
      <trkpt lat="36.21621885336935520172119140625" lon="-5.9434953890740871429443359375">
        <ele>18.6000003814697265625</ele>
        <time>2019-11-04T11:47:36.000Z</time>
      </trkpt>
      <trkpt lat="36.2160610221326351165771484375" lon="-5.943303443491458892822265625">
        <ele>20</ele>
        <time>2019-11-04T11:47:40.000Z</time>
      </trkpt>
      <trkpt lat="36.21589899994432926177978515625" lon="-5.9431021101772785186767578125">
        <ele>20.6000003814697265625</ele>
        <time>2019-11-04T11:47:44.000Z</time>
      </trkpt>
      <trkpt lat="36.21573127806186676025390625" lon="-5.942911840975284576416015625">
        <ele>21.200000762939453125</ele>
        <time>2019-11-04T11:47:48.000Z</time>
      </trkpt>
      <trkpt lat="36.21555735357105731964111328125" lon="-5.94271578826010227203369140625">
        <ele>20.3999996185302734375</ele>
        <time>2019-11-04T11:47:52.000Z</time>
      </trkpt>
      <trkpt lat="36.2154213152825832366943359375" lon="-5.94255921430885791778564453125">
        <ele>19.799999237060546875</ele>
        <time>2019-11-04T11:47:55.000Z</time>
      </trkpt>
      <trkpt lat="36.2152898870408535003662109375" lon="-5.94240599311888217926025390625">
        <ele>18.6000003814697265625</ele>
        <time>2019-11-04T11:47:58.000Z</time>
      </trkpt>
      <trkpt lat="36.21515686623752117156982421875" lon="-5.94224707223474979400634765625">
        <ele>17.200000762939453125</ele>
        <time>2019-11-04T11:48:01.000Z</time>
      </trkpt>
      <trkpt lat="36.21501244604587554931640625" lon="-5.9420972876250743865966796875">
        <ele>15.6000003814697265625</ele>
        <time>2019-11-04T11:48:04.000Z</time>
      </trkpt>
      <trkpt lat="36.214880011975765228271484375" lon="-5.94194230623543262481689453125">
        <ele>15.6000003814697265625</ele>
        <time>2019-11-04T11:48:07.000Z</time>
      </trkpt>
      <trkpt lat="36.21474363841116428375244140625" lon="-5.94178271479904651641845703125">
        <ele>16</ele>
        <time>2019-11-04T11:48:10.000Z</time>
      </trkpt>
      <trkpt lat="36.214608438313007354736328125" lon="-5.94162882305681705474853515625">
        <ele>17</ele>
        <time>2019-11-04T11:48:13.000Z</time>
      </trkpt>
      <trkpt lat="36.21447457931935787200927734375" lon="-5.94147157855331897735595703125">
        <ele>17.6000003814697265625</ele>
        <time>2019-11-04T11:48:16.000Z</time>
      </trkpt>
      <trkpt lat="36.21430492959916591644287109375" lon="-5.94127041287720203399658203125">
        <ele>18.6000003814697265625</ele>
        <time>2019-11-04T11:48:20.000Z</time>
      </trkpt>
      <trkpt lat="36.21414466761052608489990234375" lon="-5.94108735211193561553955078125">
        <ele>18.799999237060546875</ele>
        <time>2019-11-04T11:48:24.000Z</time>
      </trkpt>
      <trkpt lat="36.21397401206195354461669921875" lon="-5.940922982990741729736328125">
        <ele>19</ele>
        <time>2019-11-04T11:48:28.000Z</time>
      </trkpt>
      <trkpt lat="36.2137928791344165802001953125" lon="-5.940788201987743377685546875">
        <ele>19.200000762939453125</ele>
        <time>2019-11-04T11:48:32.000Z</time>
      </trkpt>
      <trkpt lat="36.21361962519586086273193359375" lon="-5.94066775403916835784912109375">
        <ele>18.6000003814697265625</ele>
        <time>2019-11-04T11:48:36.000Z</time>
      </trkpt>
      <trkpt lat="36.2134411744773387908935546875" lon="-5.94054915010929107666015625">
        <ele>18</ele>
        <time>2019-11-04T11:48:40.000Z</time>
      </trkpt>
      <trkpt lat="36.21325652115046977996826171875" lon="-5.94043289311230182647705078125">
        <ele>17.3999996185302734375</ele>
        <time>2019-11-04T11:48:44.000Z</time>
      </trkpt>
      <trkpt lat="36.213065497577190399169921875" lon="-5.940322838723659515380859375">
        <ele>17.3999996185302734375</ele>
        <time>2019-11-04T11:48:48.000Z</time>
      </trkpt>
      <trkpt lat="36.212889142334461212158203125" lon="-5.9402127005159854888916015625">
        <ele>17.3999996185302734375</ele>
        <time>2019-11-04T11:48:52.000Z</time>
      </trkpt>
      <trkpt lat="36.21270348317921161651611328125" lon="-5.9400977008044719696044921875">
        <ele>17</ele>
        <time>2019-11-04T11:48:56.000Z</time>
      </trkpt>
      <trkpt lat="36.21252142824232578277587890625" lon="-5.93998630531132221221923828125">
        <ele>16.6000003814697265625</ele>
        <time>2019-11-04T11:49:00.000Z</time>
      </trkpt>
      <trkpt lat="36.2123407982289791107177734375" lon="-5.93987851403653621673583984375">
        <ele>17.200000762939453125</ele>
        <time>2019-11-04T11:49:04.000Z</time>
      </trkpt>
      <trkpt lat="36.21215748600661754608154296875" lon="-5.93976519070565700531005859375">
        <ele>18</ele>
        <time>2019-11-04T11:49:08.000Z</time>
      </trkpt>
      <trkpt lat="36.21197375468909740447998046875" lon="-5.9396548010408878326416015625">
        <ele>19.799999237060546875</ele>
        <time>2019-11-04T11:49:12.000Z</time>
      </trkpt>
      <trkpt lat="36.2118105590343475341796875" lon="-5.9395532123744487762451171875">
        <ele>21</ele>
        <time>2019-11-04T11:49:16.000Z</time>
      </trkpt>
      <trkpt lat="36.21174694038927555084228515625" lon="-5.9397129714488983154296875">
        <ele>21.3999996185302734375</ele>
        <time>2019-11-04T11:49:26.000Z</time>
      </trkpt>
      <trkpt lat="36.2117389775812625885009765625" lon="-5.93981481157243251800537109375">
        <ele>21.3999996185302734375</ele>
        <time>2019-11-04T11:49:30.000Z</time>
      </trkpt>
      <trkpt lat="36.211723051965236663818359375" lon="-5.9398975409567356109619140625">
        <ele>21.6000003814697265625</ele>
        <time>2019-11-04T11:49:33.000Z</time>
      </trkpt>
      <trkpt lat="36.211705617606639862060546875" lon="-5.93994154594838619232177734375">
        <ele>21.6000003814697265625</ele>
        <time>2019-11-04T11:49:35.000Z</time>
      </trkpt>
      <trkpt lat="36.21165440417826175689697265625" lon="-5.94000340439379215240478515625">
        <ele>21.799999237060546875</ele>
        <time>2019-11-04T11:49:43.000Z</time>
      </trkpt>
      <trkpt lat="36.2116977386176586151123046875" lon="-5.93997255899012088775634765625">
        <ele>21.6000003814697265625</ele>
        <time>2019-11-04T11:52:53.000Z</time>
      </trkpt>
      <trkpt lat="36.2117205373942852020263671875" lon="-5.9398247860372066497802734375">
        <ele>21.6000003814697265625</ele>
        <time>2019-11-04T11:52:57.000Z</time>
      </trkpt>
      <trkpt lat="36.21173570863902568817138671875" lon="-5.93958732672035694122314453125">
        <ele>21</ele>
        <time>2019-11-04T11:53:04.000Z</time>
      </trkpt>
      <trkpt lat="36.21172715909779071807861328125" lon="-5.93952027149498462677001953125">
        <ele>20.799999237060546875</ele>
        <time>2019-11-04T11:53:07.000Z</time>
      </trkpt>
      <trkpt lat="36.21163613162934780120849609375" lon="-5.93946143053472042083740234375">
        <ele>20.6000003814697265625</ele>
        <time>2019-11-04T11:53:11.000Z</time>
      </trkpt>
      <trkpt lat="36.21146564371883869171142578125" lon="-5.93935363925993442535400390625">
        <ele>20.3999996185302734375</ele>
        <time>2019-11-04T11:53:17.000Z</time>
      </trkpt>
      <trkpt lat="36.21128149330615997314453125" lon="-5.9392435848712921142578125">
        <ele>19.799999237060546875</ele>
        <time>2019-11-04T11:53:23.000Z</time>
      </trkpt>
      <trkpt lat="36.211112849414348602294921875" lon="-5.939153730869293212890625">
        <ele>19.799999237060546875</ele>
        <time>2019-11-04T11:53:28.000Z</time>
      </trkpt>
      <trkpt lat="36.2109272740781307220458984375" lon="-5.93909405171871185302734375">
        <ele>20</ele>
        <time>2019-11-04T11:53:34.000Z</time>
      </trkpt>
      <trkpt lat="36.21072895824909210205078125" lon="-5.93909245915710926055908203125">
        <ele>20.6000003814697265625</ele>
        <time>2019-11-04T11:53:40.000Z</time>
      </trkpt>
      <trkpt lat="36.2105447240173816680908203125" lon="-5.93912431038916110992431640625">
        <ele>21.200000762939453125</ele>
        <time>2019-11-04T11:53:46.000Z</time>
      </trkpt>
      <trkpt lat="36.2103433907032012939453125" lon="-5.93916504643857479095458984375">
        <ele>21.6000003814697265625</ele>
        <time>2019-11-04T11:53:52.000Z</time>
      </trkpt>
      <trkpt lat="36.21016359888017177581787109375" lon="-5.93920947052538394927978515625">
        <ele>22.200000762939453125</ele>
        <time>2019-11-04T11:53:58.000Z</time>
      </trkpt>
      <trkpt lat="36.209972910583019256591796875" lon="-5.9392248094081878662109375">
        <ele>23.6000003814697265625</ele>
        <time>2019-11-04T11:54:04.000Z</time>
      </trkpt>
      <trkpt lat="36.2097692303359508514404296875" lon="-5.93920670449733734130859375">
        <ele>24.799999237060546875</ele>
        <time>2019-11-04T11:54:10.000Z</time>
      </trkpt>
      <trkpt lat="36.209593378007411956787109375" lon="-5.9391362965106964111328125">
        <ele>24.3999996185302734375</ele>
        <time>2019-11-04T11:54:15.000Z</time>
      </trkpt>
      <trkpt lat="36.209427416324615478515625" lon="-5.93903864733874797821044921875">
        <ele>24</ele>
        <time>2019-11-04T11:54:20.000Z</time>
      </trkpt>
      <trkpt lat="36.2092569284141063690185546875" lon="-5.93887955881655216217041015625">
        <ele>23.799999237060546875</ele>
        <time>2019-11-04T11:54:25.000Z</time>
      </trkpt>
      <trkpt lat="36.20911938138306140899658203125" lon="-5.93872256577014923095703125">
        <ele>23.6000003814697265625</ele>
        <time>2019-11-04T11:54:29.000Z</time>
      </trkpt>
      <trkpt lat="36.20896431617438793182373046875" lon="-5.93855299986898899078369140625">
        <ele>23.200000762939453125</ele>
        <time>2019-11-04T11:54:33.000Z</time>
      </trkpt>
      <trkpt lat="36.2088113464415073394775390625" lon="-5.93837748281657695770263671875">
        <ele>22.6000003814697265625</ele>
        <time>2019-11-04T11:54:37.000Z</time>
      </trkpt>
      <trkpt lat="36.208648569881916046142578125" lon="-5.9381883032619953155517578125">
        <ele>22.6000003814697265625</ele>
        <time>2019-11-04T11:54:41.000Z</time>
      </trkpt>
      <trkpt lat="36.2084774114191532135009765625" lon="-5.9379874728620052337646484375">
        <ele>21.799999237060546875</ele>
        <time>2019-11-04T11:54:45.000Z</time>
      </trkpt>
      <trkpt lat="36.2083451449871063232421875" lon="-5.93782159499824047088623046875">
        <ele>20.799999237060546875</ele>
        <time>2019-11-04T11:54:48.000Z</time>
      </trkpt>
      <trkpt lat="36.20820189826190471649169921875" lon="-5.93764926306903362274169921875">
        <ele>18.3999996185302734375</ele>
        <time>2019-11-04T11:54:51.000Z</time>
      </trkpt>
      <trkpt lat="36.208054460585117340087890625" lon="-5.93747642822563648223876953125">
        <ele>17.3999996185302734375</ele>
        <time>2019-11-04T11:54:54.000Z</time>
      </trkpt>
      <trkpt lat="36.2079014070332050323486328125" lon="-5.9373051859438419342041015625">
        <ele>16.6000003814697265625</ele>
        <time>2019-11-04T11:54:57.000Z</time>
      </trkpt>
      <trkpt lat="36.20774625800549983978271484375" lon="-5.93712405301630496978759765625">
        <ele>17</ele>
        <time>2019-11-04T11:55:00.000Z</time>
      </trkpt>
      <trkpt lat="36.2075969763100147247314453125" lon="-5.93695021234452724456787109375">
        <ele>19.200000762939453125</ele>
        <time>2019-11-04T11:55:03.000Z</time>
      </trkpt>
      <trkpt lat="36.2074564956128597259521484375" lon="-5.93678735196590423583984375">
        <ele>20.6000003814697265625</ele>
        <time>2019-11-04T11:55:06.000Z</time>
      </trkpt>
      <trkpt lat="36.2073213793337345123291015625" lon="-5.93662910163402557373046875">
        <ele>21.6000003814697265625</ele>
        <time>2019-11-04T11:55:09.000Z</time>
      </trkpt>
      <trkpt lat="36.207172013819217681884765625" lon="-5.93644478358328342437744140625">
        <ele>21</ele>
        <time>2019-11-04T11:55:13.000Z</time>
      </trkpt>
      <trkpt lat="36.20702558197081089019775390625" lon="-5.93627027235925197601318359375">
        <ele>20.799999237060546875</ele>
        <time>2019-11-04T11:55:17.000Z</time>
      </trkpt>
      <trkpt lat="36.206893064081668853759765625" lon="-5.93611353076994419097900390625">
        <ele>21</ele>
        <time>2019-11-04T11:55:21.000Z</time>
      </trkpt>
      <trkpt lat="36.20673472993075847625732421875" lon="-5.93592912890017032623291015625">
        <ele>21.799999237060546875</ele>
        <time>2019-11-04T11:55:26.000Z</time>
      </trkpt>
      <trkpt lat="36.206587962806224822998046875" lon="-5.93574573285877704620361328125">
        <ele>21.799999237060546875</ele>
        <time>2019-11-04T11:55:31.000Z</time>
      </trkpt>
      <trkpt lat="36.2064399383962154388427734375" lon="-5.9355624206364154815673828125">
        <ele>22.200000762939453125</ele>
        <time>2019-11-04T11:55:36.000Z</time>
      </trkpt>
      <trkpt lat="36.206298954784870147705078125" lon="-5.9353820420801639556884765625">
        <ele>22</ele>
        <time>2019-11-04T11:55:41.000Z</time>
      </trkpt>
      <trkpt lat="36.20615118183195590972900390625" lon="-5.935200490057468414306640625">
        <ele>22.200000762939453125</ele>
        <time>2019-11-04T11:55:46.000Z</time>
      </trkpt>
      <trkpt lat="36.20600223541259765625" lon="-5.93501172959804534912109375">
        <ele>23</ele>
        <time>2019-11-04T11:55:51.000Z</time>
      </trkpt>
      <trkpt lat="36.2058548815548419952392578125" lon="-5.93482255004346370697021484375">
        <ele>23.3999996185302734375</ele>
        <time>2019-11-04T11:55:56.000Z</time>
      </trkpt>
      <trkpt lat="36.20571213774383068084716796875" lon="-5.9346357174217700958251953125">
        <ele>24.6000003814697265625</ele>
        <time>2019-11-04T11:56:01.000Z</time>
      </trkpt>
      <trkpt lat="36.2055742554366588592529296875" lon="-5.93444687314331531524658203125">
        <ele>26.6000003814697265625</ele>
        <time>2019-11-04T11:56:06.000Z</time>
      </trkpt>
      <trkpt lat="36.20543117634952068328857421875" lon="-5.93426481820642948150634765625">
        <ele>26.6000003814697265625</ele>
        <time>2019-11-04T11:56:11.000Z</time>
      </trkpt>
      <trkpt lat="36.205284409224987030029296875" lon="-5.93407890759408473968505859375">
        <ele>27.6000003814697265625</ele>
        <time>2019-11-04T11:56:16.000Z</time>
      </trkpt>
      <trkpt lat="36.2051404081284999847412109375" lon="-5.93389593064785003662109375">
        <ele>27.799999237060546875</ele>
        <time>2019-11-04T11:56:21.000Z</time>
      </trkpt>
      <trkpt lat="36.204998083412647247314453125" lon="-5.93371412716805934906005859375">
        <ele>28.3999996185302734375</ele>
        <time>2019-11-04T11:56:26.000Z</time>
      </trkpt>
      <trkpt lat="36.20485416613519191741943359375" lon="-5.93352955766022205352783203125">
        <ele>29.3999996185302734375</ele>
        <time>2019-11-04T11:56:31.000Z</time>
      </trkpt>
      <trkpt lat="36.20472424663603305816650390625" lon="-5.9333641827106475830078125">
        <ele>29.799999237060546875</ele>
        <time>2019-11-04T11:56:35.000Z</time>
      </trkpt>
      <trkpt lat="36.20458460412919521331787109375" lon="-5.9331926889717578887939453125">
        <ele>28.799999237060546875</ele>
        <time>2019-11-04T11:56:39.000Z</time>
      </trkpt>
      <trkpt lat="36.2044425308704376220703125" lon="-5.9330106340348720550537109375">
        <ele>28.6000003814697265625</ele>
        <time>2019-11-04T11:56:43.000Z</time>
      </trkpt>
      <trkpt lat="36.20429509319365024566650390625" lon="-5.93282748945057392120361328125">
        <ele>28</ele>
        <time>2019-11-04T11:56:47.000Z</time>
      </trkpt>
      <trkpt lat="36.20414304547011852264404296875" lon="-5.9326341189444065093994140625">
        <ele>27.6000003814697265625</ele>
        <time>2019-11-04T11:56:51.000Z</time>
      </trkpt>
      <trkpt lat="36.20399384759366512298583984375" lon="-5.9324376471340656280517578125">
        <ele>27.3999996185302734375</ele>
        <time>2019-11-04T11:56:55.000Z</time>
      </trkpt>
      <trkpt lat="36.2038519419729709625244140625" lon="-5.9322458691895008087158203125">
        <ele>28</ele>
        <time>2019-11-04T11:56:59.000Z</time>
      </trkpt>
      <trkpt lat="36.20373375713825225830078125" lon="-5.9320517443120479583740234375">
        <ele>29.799999237060546875</ele>
        <time>2019-11-04T11:57:03.000Z</time>
      </trkpt>
      <trkpt lat="36.2036484293639659881591796875" lon="-5.93183322809636592864990234375">
        <ele>31.6000003814697265625</ele>
        <time>2019-11-04T11:57:07.000Z</time>
      </trkpt>
      <trkpt lat="36.20357709936797618865966796875" lon="-5.931574143469333648681640625">
        <ele>32.200000762939453125</ele>
        <time>2019-11-04T11:57:11.000Z</time>
      </trkpt>
      <trkpt lat="36.2035200186073780059814453125" lon="-5.93134456314146518707275390625">
        <ele>32</ele>
        <time>2019-11-04T11:57:14.000Z</time>
      </trkpt>
      <trkpt lat="36.2034593336284160614013671875" lon="-5.93109411187469959259033203125">
        <ele>29.799999237060546875</ele>
        <time>2019-11-04T11:57:17.000Z</time>
      </trkpt>
      <trkpt lat="36.2033912725746631622314453125" lon="-5.93081801198422908782958984375">
        <ele>26</ele>
        <time>2019-11-04T11:57:20.000Z</time>
      </trkpt>
      <trkpt lat="36.20331675745546817779541015625" lon="-5.9305292554199695587158203125">
        <ele>23.200000762939453125</ele>
        <time>2019-11-04T11:57:23.000Z</time>
      </trkpt>
      <trkpt lat="36.20324450545012950897216796875" lon="-5.93023094348609447479248046875">
        <ele>22</ele>
        <time>2019-11-04T11:57:26.000Z</time>
      </trkpt>
      <trkpt lat="36.20317141525447368621826171875" lon="-5.92991326935589313507080078125">
        <ele>21.3999996185302734375</ele>
        <time>2019-11-04T11:57:29.000Z</time>
      </trkpt>
      <trkpt lat="36.20310989208519458770751953125" lon="-5.92969349585473537445068359375">
        <ele>20.3999996185302734375</ele>
        <time>2019-11-04T11:57:31.000Z</time>
      </trkpt>
      <trkpt lat="36.2030529789626598358154296875" lon="-5.92947690747678279876708984375">
        <ele>20.6000003814697265625</ele>
        <time>2019-11-04T11:57:33.000Z</time>
      </trkpt>
      <trkpt lat="36.2029882706701755523681640625" lon="-5.92925705015659332275390625">
        <ele>20.6000003814697265625</ele>
        <time>2019-11-04T11:57:35.000Z</time>
      </trkpt>
      <trkpt lat="36.20293571613729000091552734375" lon="-5.929036103188991546630859375">
        <ele>20.799999237060546875</ele>
        <time>2019-11-04T11:57:37.000Z</time>
      </trkpt>
      <trkpt lat="36.20288089849054813385009765625" lon="-5.92881808988749980926513671875">
        <ele>19.200000762939453125</ele>
        <time>2019-11-04T11:57:39.000Z</time>
      </trkpt>
      <trkpt lat="36.2028068862855434417724609375" lon="-5.92850661836564540863037109375">
        <ele>17.799999237060546875</ele>
        <time>2019-11-04T11:57:42.000Z</time>
      </trkpt>
      <trkpt lat="36.2027495540678501129150390625" lon="-5.92819229699671268463134765625">
        <ele>16.6000003814697265625</ele>
        <time>2019-11-04T11:57:45.000Z</time>
      </trkpt>
      <trkpt lat="36.20268710888922214508056640625" lon="-5.92790613882243633270263671875">
        <ele>14.19999980926513671875</ele>
        <time>2019-11-04T11:57:48.000Z</time>
      </trkpt>
      <trkpt lat="36.20265374891459941864013671875" lon="-5.92782030813395977020263671875">
        <ele>13.3999996185302734375</ele>
        <time>2019-11-04T11:57:49.000Z</time>
      </trkpt>
      <trkpt lat="36.20255383662879467010498046875" lon="-5.92755661346018314361572265625">
        <ele>11.6000003814697265625</ele>
        <time>2019-11-04T11:57:52.000Z</time>
      </trkpt>
      <trkpt lat="36.20250555686652660369873046875" lon="-5.92724162153899669647216796875">
        <ele>10.80000019073486328125</ele>
        <time>2019-11-04T11:57:55.000Z</time>
      </trkpt>
      <trkpt lat="36.2024300359189510345458984375" lon="-5.92703542672097682952880859375">
        <ele>11.6000003814697265625</ele>
        <time>2019-11-04T11:57:57.000Z</time>
      </trkpt>
      <trkpt lat="36.20235451497137546539306640625" lon="-5.9268257953226566314697265625">
        <ele>11</ele>
        <time>2019-11-04T11:57:59.000Z</time>
      </trkpt>
      <trkpt lat="36.2023247592151165008544921875" lon="-5.92671792022883892059326171875">
        <ele>10.80000019073486328125</ele>
        <time>2019-11-04T11:58:00.000Z</time>
      </trkpt>
      <trkpt lat="36.2022701092064380645751953125" lon="-5.92650434933602809906005859375">
        <ele>10</ele>
        <time>2019-11-04T11:58:02.000Z</time>
      </trkpt>
      <trkpt lat="36.20219006203114986419677734375" lon="-5.9261971525847911834716796875">
        <ele>9.19999980926513671875</ele>
        <time>2019-11-04T11:58:05.000Z</time>
      </trkpt>
      <trkpt lat="36.20211294852197170257568359375" lon="-5.92590336687862873077392578125">
        <ele>9.19999980926513671875</ele>
        <time>2019-11-04T11:58:08.000Z</time>
      </trkpt>
      <trkpt lat="36.20203600265085697174072265625" lon="-5.92562743462622165679931640625">
        <ele>9.80000019073486328125</ele>
        <time>2019-11-04T11:58:11.000Z</time>
      </trkpt>
      <trkpt lat="36.20191010646522045135498046875" lon="-5.92541889287531375885009765625">
        <ele>10.6000003814697265625</ele>
        <time>2019-11-04T11:58:14.000Z</time>
      </trkpt>
      <trkpt lat="36.20185696519911289215087890625" lon="-5.92519258148968219757080078125">
        <ele>11</ele>
        <time>2019-11-04T11:58:17.000Z</time>
      </trkpt>
      <trkpt lat="36.20175135321915149688720703125" lon="-5.9249968640506267547607421875">
        <ele>11.3999996185302734375</ele>
        <time>2019-11-04T11:58:20.000Z</time>
      </trkpt>
      <trkpt lat="36.201652698218822479248046875" lon="-5.924889743328094482421875">
        <ele>11.80000019073486328125</ele>
        <time>2019-11-04T11:58:22.000Z</time>
      </trkpt>
      <trkpt lat="36.20150358416140079498291015625" lon="-5.924743227660655975341796875">
        <ele>12</ele>
        <time>2019-11-04T11:58:25.000Z</time>
      </trkpt>
      <trkpt lat="36.201345585286617279052734375" lon="-5.92459277249872684478759765625">
        <ele>11.19999980926513671875</ele>
        <time>2019-11-04T11:58:28.000Z</time>
      </trkpt>
      <trkpt lat="36.20118297636508941650390625" lon="-5.92442546971142292022705078125">
        <ele>11</ele>
        <time>2019-11-04T11:58:31.000Z</time>
      </trkpt>
      <trkpt lat="36.20102740824222564697265625" lon="-5.92423595488071441650390625">
        <ele>10</ele>
        <time>2019-11-04T11:58:34.000Z</time>
      </trkpt>
      <trkpt lat="36.20088265277445316314697265625" lon="-5.92402498237788677215576171875">
        <ele>10</ele>
        <time>2019-11-04T11:58:37.000Z</time>
      </trkpt>
      <trkpt lat="36.200745441019535064697265625" lon="-5.92380386777222156524658203125">
        <ele>9.19999980926513671875</ele>
        <time>2019-11-04T11:58:40.000Z</time>
      </trkpt>
      <trkpt lat="36.20061191730201244354248046875" lon="-5.92356540262699127197265625">
        <ele>8.3999996185302734375</ele>
        <time>2019-11-04T11:58:43.000Z</time>
      </trkpt>
      <trkpt lat="36.200479902327060699462890625" lon="-5.92332308180630207061767578125">
        <ele>8</ele>
        <time>2019-11-04T11:58:46.000Z</time>
      </trkpt>
      <trkpt lat="36.2003389187157154083251953125" lon="-5.92307858169078826904296875">
        <ele>6.80000019073486328125</ele>
        <time>2019-11-04T11:58:49.000Z</time>
      </trkpt>
      <trkpt lat="36.2002031318843364715576171875" lon="-5.9228356741368770599365234375">
        <ele>5.599999904632568359375</ele>
        <time>2019-11-04T11:58:52.000Z</time>
      </trkpt>
      <trkpt lat="36.20007262565195560455322265625" lon="-5.9226004779338836669921875">
        <ele>5.599999904632568359375</ele>
        <time>2019-11-04T11:58:55.000Z</time>
      </trkpt>
      <trkpt lat="36.1999489925801753997802734375" lon="-5.9223751723766326904296875">
        <ele>6.599999904632568359375</ele>
        <time>2019-11-04T11:58:58.000Z</time>
      </trkpt>
      <trkpt lat="36.1998333223164081573486328125" lon="-5.92216034419834613800048828125">
        <ele>7.80000019073486328125</ele>
        <time>2019-11-04T11:59:01.000Z</time>
      </trkpt>
      <trkpt lat="36.199712790548801422119140625" lon="-5.9219616092741489410400390625">
        <ele>9.19999980926513671875</ele>
        <time>2019-11-04T11:59:04.000Z</time>
      </trkpt>
      <trkpt lat="36.199600137770175933837890625" lon="-5.92176086269319057464599609375">
        <ele>8.6000003814697265625</ele>
        <time>2019-11-04T11:59:07.000Z</time>
      </trkpt>
      <trkpt lat="36.19949360378086566925048828125" lon="-5.9215767122805118560791015625">
        <ele>8.80000019073486328125</ele>
        <time>2019-11-04T11:59:10.000Z</time>
      </trkpt>
      <trkpt lat="36.19935748167335987091064453125" lon="-5.9213413484394550323486328125">
        <ele>9.3999996185302734375</ele>
        <time>2019-11-04T11:59:14.000Z</time>
      </trkpt>
      <trkpt lat="36.19925580918788909912109375" lon="-5.92114998959004878997802734375">
        <ele>9.3999996185302734375</ele>
        <time>2019-11-04T11:59:17.000Z</time>
      </trkpt>
      <trkpt lat="36.199154220521450042724609375" lon="-5.9209541045129299163818359375">
        <ele>10.3999996185302734375</ele>
        <time>2019-11-04T11:59:20.000Z</time>
      </trkpt>
      <trkpt lat="36.19904994964599609375" lon="-5.9207576327025890350341796875">
        <ele>11.19999980926513671875</ele>
        <time>2019-11-04T11:59:23.000Z</time>
      </trkpt>
      <trkpt lat="36.1989371292293071746826171875" lon="-5.920555628836154937744140625">
        <ele>13</ele>
        <time>2019-11-04T11:59:26.000Z</time>
      </trkpt>
      <trkpt lat="36.19881601072847843170166015625" lon="-5.920354463160037994384765625">
        <ele>14</ele>
        <time>2019-11-04T11:59:29.000Z</time>
      </trkpt>
      <trkpt lat="36.19870788417756557464599609375" lon="-5.92015899717807769775390625">
        <ele>14.6000003814697265625</ele>
        <time>2019-11-04T11:59:32.000Z</time>
      </trkpt>
      <trkpt lat="36.19859397411346435546875" lon="-5.9199771098792552947998046875">
        <ele>14.19999980926513671875</ele>
        <time>2019-11-04T11:59:35.000Z</time>
      </trkpt>
      <trkpt lat="36.1984841711819171905517578125" lon="-5.91979832388460636138916015625">
        <ele>13.80000019073486328125</ele>
        <time>2019-11-04T11:59:38.000Z</time>
      </trkpt>
      <trkpt lat="36.19837059639394283294677734375" lon="-5.919625572860240936279296875">
        <ele>13</ele>
        <time>2019-11-04T11:59:41.000Z</time>
      </trkpt>
      <trkpt lat="36.198242604732513427734375" lon="-5.91945835389196872711181640625">
        <ele>13</ele>
        <time>2019-11-04T11:59:44.000Z</time>
      </trkpt>
      <trkpt lat="36.19810857810080051422119140625" lon="-5.9192998521029949188232421875">
        <ele>14</ele>
        <time>2019-11-04T11:59:47.000Z</time>
      </trkpt>
      <trkpt lat="36.19795988313853740692138671875" lon="-5.9191496483981609344482421875">
        <ele>15</ele>
        <time>2019-11-04T11:59:50.000Z</time>
      </trkpt>
      <trkpt lat="36.197797693312168121337890625" lon="-5.91900967061519622802734375">
        <ele>15</ele>
        <time>2019-11-04T11:59:53.000Z</time>
      </trkpt>
      <trkpt lat="36.19763751514256000518798828125" lon="-5.9188831038773059844970703125">
        <ele>15.80000019073486328125</ele>
        <time>2019-11-04T11:59:56.000Z</time>
      </trkpt>
      <trkpt lat="36.19747255928814411163330078125" lon="-5.91877154074609279632568359375">
        <ele>16.200000762939453125</ele>
        <time>2019-11-04T11:59:59.000Z</time>
      </trkpt>
      <trkpt lat="36.197304837405681610107421875" lon="-5.91868336312472820281982421875">
        <ele>15.80000019073486328125</ele>
        <time>2019-11-04T12:00:02.000Z</time>
      </trkpt>
      <trkpt lat="36.197084896266460418701171875" lon="-5.9185890667140483856201171875">
        <ele>15.3999996185302734375</ele>
        <time>2019-11-04T12:00:06.000Z</time>
      </trkpt>
      <trkpt lat="36.19693846441805362701416015625" lon="-5.9185377694666385650634765625">
        <ele>14.19999980926513671875</ele>
        <time>2019-11-04T12:00:09.000Z</time>
      </trkpt>
      <trkpt lat="36.19678289629518985748291015625" lon="-5.9185320697724819183349609375">
        <ele>13.6000003814697265625</ele>
        <time>2019-11-04T12:00:13.000Z</time>
      </trkpt>
      <trkpt lat="36.196641661226749420166015625" lon="-5.91845436953008174896240234375">
        <ele>11.3999996185302734375</ele>
        <time>2019-11-04T12:00:18.000Z</time>
      </trkpt>
      <trkpt lat="36.1965714208781719207763671875" lon="-5.91843844391405582427978515625">
        <ele>11</ele>
        <time>2019-11-04T12:00:26.000Z</time>
      </trkpt>
      <trkpt lat="36.1964575946331024169921875" lon="-5.91848337091505527496337890625">
        <ele>11.80000019073486328125</ele>
        <time>2019-11-04T12:02:18.000Z</time>
      </trkpt>
      <trkpt lat="36.19627227075397968292236328125" lon="-5.9185518510639667510986328125">
        <ele>12.80000019073486328125</ele>
        <time>2019-11-04T12:02:25.000Z</time>
      </trkpt>
      <trkpt lat="36.19619297794997692108154296875" lon="-5.918510444462299346923828125">
        <ele>12.19999980926513671875</ele>
        <time>2019-11-04T12:02:27.000Z</time>
      </trkpt>
      <trkpt lat="36.19609977118670940399169921875" lon="-5.91830785386264324188232421875">
        <ele>11.3999996185302734375</ele>
        <time>2019-11-04T12:02:31.000Z</time>
      </trkpt>
      <trkpt lat="36.19605182670056819915771484375" lon="-5.9182182513177394866943359375">
        <ele>11.80000019073486328125</ele>
        <time>2019-11-04T12:02:35.000Z</time>
      </trkpt>
      <trkpt lat="36.19605400599539279937744140625" lon="-5.91821439564228057861328125">
        <ele>11.80000019073486328125</ele>
        <time>2019-11-04T12:02:38.000Z</time>
      </trkpt>
      <trkpt lat="36.1959813348948955535888671875" lon="-5.91817860491573810577392578125">
        <ele>12</ele>
        <time>2019-11-04T12:02:43.000Z</time>
      </trkpt>
      <trkpt lat="36.195801459252834320068359375" lon="-5.91811540536582469940185546875">
        <ele>11.80000019073486328125</ele>
        <time>2019-11-04T12:02:48.000Z</time>
      </trkpt>
      <trkpt lat="36.19562619365751743316650390625" lon="-5.918041728436946868896484375">
        <ele>10.6000003814697265625</ele>
        <time>2019-11-04T12:02:53.000Z</time>
      </trkpt>
      <trkpt lat="36.1954276263713836669921875" lon="-5.91795464046299457550048828125">
        <ele>8.3999996185302734375</ele>
        <time>2019-11-04T12:02:59.000Z</time>
      </trkpt>
      <trkpt lat="36.1952376924455165863037109375" lon="-5.91787065379321575164794921875">
        <ele>8.80000019073486328125</ele>
        <time>2019-11-04T12:03:06.000Z</time>
      </trkpt>
      <trkpt lat="36.1950398795306682586669921875" lon="-5.91780829243361949920654296875">
        <ele>9.19999980926513671875</ele>
        <time>2019-11-04T12:03:13.000Z</time>
      </trkpt>
      <trkpt lat="36.19485287927091121673583984375" lon="-5.91787501238286495208740234375">
        <ele>10.6000003814697265625</ele>
        <time>2019-11-04T12:03:19.000Z</time>
      </trkpt>
      <trkpt lat="36.19478733278810977935791015625" lon="-5.91781600378453731536865234375">
        <ele>11.19999980926513671875</ele>
        <time>2019-11-04T12:03:22.000Z</time>
      </trkpt>
      <trkpt lat="36.1946653760969638824462890625" lon="-5.91762271709740161895751953125">
        <ele>12.80000019073486328125</ele>
        <time>2019-11-04T12:03:29.000Z</time>
      </trkpt>
      <trkpt lat="36.19448172859847545623779296875" lon="-5.91750687919557094573974609375">
        <ele>13.6000003814697265625</ele>
        <time>2019-11-04T12:03:36.000Z</time>
      </trkpt>
      <trkpt lat="36.1943059600889682769775390625" lon="-5.9174394048750400543212890625">
        <ele>14</ele>
        <time>2019-11-04T12:03:42.000Z</time>
      </trkpt>
      <trkpt lat="36.1941198818385601043701171875" lon="-5.91737394221127033233642578125">
        <ele>13.19999980926513671875</ele>
        <time>2019-11-04T12:03:49.000Z</time>
      </trkpt>
      <trkpt lat="36.19393740780651569366455078125" lon="-5.91729364357888698577880859375">
        <ele>13.6000003814697265625</ele>
        <time>2019-11-04T12:03:55.000Z</time>
      </trkpt>
      <trkpt lat="36.19376532733440399169921875" lon="-5.9172097407281398773193359375">
        <ele>13.6000003814697265625</ele>
        <time>2019-11-04T12:04:00.000Z</time>
      </trkpt>
      <trkpt lat="36.19358017109334468841552734375" lon="-5.91712650842964649200439453125">
        <ele>13.19999980926513671875</ele>
        <time>2019-11-04T12:04:05.000Z</time>
      </trkpt>
      <trkpt lat="36.19338168762624263763427734375" lon="-5.91705744154751300811767578125">
        <ele>12</ele>
        <time>2019-11-04T12:04:10.000Z</time>
      </trkpt>
      <trkpt lat="36.1932015605270862579345703125" lon="-5.91699541546404361724853515625">
        <ele>11.19999980926513671875</ele>
        <time>2019-11-04T12:04:14.000Z</time>
      </trkpt>
      <trkpt lat="36.19302327744662761688232421875" lon="-5.91694436967372894287109375">
        <ele>11.6000003814697265625</ele>
        <time>2019-11-04T12:04:18.000Z</time>
      </trkpt>
      <trkpt lat="36.19281993247568607330322265625" lon="-5.91689852066338062286376953125">
        <ele>11.3999996185302734375</ele>
        <time>2019-11-04T12:04:22.000Z</time>
      </trkpt>
      <trkpt lat="36.1926081217825412750244140625" lon="-5.9168565273284912109375">
        <ele>11</ele>
        <time>2019-11-04T12:04:26.000Z</time>
      </trkpt>
      <trkpt lat="36.1923714168369770050048828125" lon="-5.9168744646012783050537109375">
        <ele>10.6000003814697265625</ele>
        <time>2019-11-04T12:04:30.000Z</time>
      </trkpt>
      <trkpt lat="36.19215658865869045257568359375" lon="-5.91683817096054553985595703125">
        <ele>9.19999980926513671875</ele>
        <time>2019-11-04T12:04:34.000Z</time>
      </trkpt>
      <trkpt lat="36.19195676408708095550537109375" lon="-5.91679575853049755096435546875">
        <ele>8.3999996185302734375</ele>
        <time>2019-11-04T12:04:38.000Z</time>
      </trkpt>
      <trkpt lat="36.19186925701797008514404296875" lon="-5.91677161864936351776123046875">
        <ele>8</ele>
        <time>2019-11-04T12:04:40.000Z</time>
      </trkpt>
      <trkpt lat="36.19166406802833080291748046875" lon="-5.91670305468142032623291015625">
        <ele>7.80000019073486328125</ele>
        <time>2019-11-04T12:04:44.000Z</time>
      </trkpt>
      <trkpt lat="36.19145452044904232025146484375" lon="-5.916656367480754852294921875">
        <ele>8.3999996185302734375</ele>
        <time>2019-11-04T12:04:48.000Z</time>
      </trkpt>
      <trkpt lat="36.19124748744070529937744140625" lon="-5.91661755926907062530517578125">
        <ele>8.6000003814697265625</ele>
        <time>2019-11-04T12:04:52.000Z</time>
      </trkpt>
      <trkpt lat="36.19105252437293529510498046875" lon="-5.91657179407775402069091796875">
        <ele>9.19999980926513671875</ele>
        <time>2019-11-04T12:04:56.000Z</time>
      </trkpt>
      <trkpt lat="36.19096619077026844024658203125" lon="-5.9163671918213367462158203125">
        <ele>8.80000019073486328125</ele>
        <time>2019-11-04T12:05:01.000Z</time>
      </trkpt>
      <trkpt lat="36.190963089466094970703125" lon="-5.91632067225873470306396484375">
        <ele>8.6000003814697265625</ele>
        <time>2019-11-04T12:05:02.000Z</time>
      </trkpt>
      <trkpt lat="36.1909706331789493560791015625" lon="-5.91624489985406398773193359375">
        <ele>8.19999980926513671875</ele>
        <time>2019-11-04T12:05:04.000Z</time>
      </trkpt>
      <trkpt lat="36.19105336256325244903564453125" lon="-5.91611883603036403656005859375">
        <ele>8</ele>
        <time>2019-11-04T12:05:08.000Z</time>
      </trkpt>
      <trkpt lat="36.191116981208324432373046875" lon="-5.91602110303938388824462890625">
        <ele>8</ele>
        <time>2019-11-04T12:05:12.000Z</time>
      </trkpt>
      <trkpt lat="36.1911205016076564788818359375" lon="-5.915992520749568939208984375">
        <ele>8</ele>
        <time>2019-11-04T12:05:18.000Z</time>
      </trkpt>
      <trkpt lat="36.19110985659062862396240234375" lon="-5.9158082865178585052490234375">
        <ele>7.400000095367431640625</ele>
        <time>2019-11-04T12:05:48.000Z</time>
      </trkpt>
      <trkpt lat="36.19109359569847583770751953125" lon="-5.915585495531558990478515625">
        <ele>6.80000019073486328125</ele>
        <time>2019-11-04T12:05:55.000Z</time>
      </trkpt>
      <trkpt lat="36.19107306003570556640625" lon="-5.9155464358627796173095703125">
        <ele>6.80000019073486328125</ele>
        <time>2019-11-04T12:05:57.000Z</time>
      </trkpt>
      <trkpt lat="36.191010363399982452392578125" lon="-5.915427915751934051513671875">
        <ele>7</ele>
        <time>2019-11-04T12:06:07.000Z</time>
      </trkpt>
      <trkpt lat="36.19107549078762531280517578125" lon="-5.9153932146728038787841796875">
        <ele>6.80000019073486328125</ele>
        <time>2019-11-04T12:06:10.000Z</time>
      </trkpt>
      <trkpt lat="36.19121999479830265045166015625" lon="-5.91531283222138881683349609375">
        <ele>6.19999980926513671875</ele>
        <time>2019-11-04T12:06:18.000Z</time>
      </trkpt>
      <trkpt lat="36.19125419296324253082275390625" lon="-5.91529523022472858428955078125">
        <ele>6.19999980926513671875</ele>
        <time>2019-11-04T12:06:21.000Z</time>
      </trkpt>
      <trkpt lat="36.19126559235155582427978515625" lon="-5.91530361212790012359619140625">
        <ele>6.19999980926513671875</ele>
        <time>2019-11-04T12:06:25.000Z</time>
      </trkpt>
      <trkpt lat="36.19119350798428058624267578125" lon="-5.91536178253591060638427734375">
        <ele>6.400000095367431640625</ele>
        <time>2019-11-04T12:07:25.000Z</time>
      </trkpt>
      <trkpt lat="36.1910209245979785919189453125" lon="-5.91544291935861110687255859375">
        <ele>7</ele>
        <time>2019-11-04T12:07:32.000Z</time>
      </trkpt>
      <trkpt lat="36.190933920443058013916015625" lon="-5.91554601676762104034423828125">
        <ele>7</ele>
        <time>2019-11-04T12:07:36.000Z</time>
      </trkpt>
      <trkpt lat="36.19075312279164791107177734375" lon="-5.91556428931653499603271484375">
        <ele>6.599999904632568359375</ele>
        <time>2019-11-04T12:07:42.000Z</time>
      </trkpt>
      <trkpt lat="36.19070584885776042938232421875" lon="-5.91561625711619853973388671875">
        <ele>6.80000019073486328125</ele>
        <time>2019-11-04T12:07:44.000Z</time>
      </trkpt>
      <trkpt lat="36.19053862988948822021484375" lon="-5.91573067009449005126953125">
        <ele>7</ele>
        <time>2019-11-04T12:07:50.000Z</time>
      </trkpt>
      <trkpt lat="36.19035699404776096343994140625" lon="-5.91574064455926418304443359375">
        <ele>6</ele>
        <time>2019-11-04T12:07:56.000Z</time>
      </trkpt>
      <trkpt lat="36.19015163742005825042724609375" lon="-5.91573737561702728271484375">
        <ele>4</ele>
        <time>2019-11-04T12:08:03.000Z</time>
      </trkpt>
      <trkpt lat="36.189952231943607330322265625" lon="-5.91574265621602535247802734375">
        <ele>4</ele>
        <time>2019-11-04T12:08:10.000Z</time>
      </trkpt>
      <trkpt lat="36.18976104073226451873779296875" lon="-5.9157365374267101287841796875">
        <ele>4.400000095367431640625</ele>
        <time>2019-11-04T12:08:16.000Z</time>
      </trkpt>
      <trkpt lat="36.18954830802977085113525390625" lon="-5.9156916104257106781005859375">
        <ele>5</ele>
        <time>2019-11-04T12:08:22.000Z</time>
      </trkpt>
      <trkpt lat="36.189368180930614471435546875" lon="-5.9156671352684497833251953125">
        <ele>5</ele>
        <time>2019-11-04T12:08:27.000Z</time>
      </trkpt>
      <trkpt lat="36.189177744090557098388671875" lon="-5.9156996570527553558349609375">
        <ele>5.19999980926513671875</ele>
        <time>2019-11-04T12:08:33.000Z</time>
      </trkpt>
      <trkpt lat="36.18898454122245311737060546875" lon="-5.91566671617329120635986328125">
        <ele>5</ele>
        <time>2019-11-04T12:08:39.000Z</time>
      </trkpt>
      <trkpt lat="36.18887641467154026031494140625" lon="-5.9157003276050090789794921875">
        <ele>5</ele>
        <time>2019-11-04T12:08:43.000Z</time>
      </trkpt>
      <trkpt lat="36.188895441591739654541015625" lon="-5.9158086217939853668212890625">
        <ele>5</ele>
        <time>2019-11-04T12:08:47.000Z</time>
      </trkpt>
      <trkpt lat="36.188950426876544952392578125" lon="-5.9160325862467288970947265625">
        <ele>5.80000019073486328125</ele>
        <time>2019-11-04T12:08:54.000Z</time>
      </trkpt>
      <trkpt lat="36.188948415219783782958984375" lon="-5.916074998676776885986328125">
        <ele>6</ele>
        <time>2019-11-04T12:08:57.000Z</time>
      </trkpt>
      <trkpt lat="36.18880533613264560699462890625" lon="-5.9161526151001453399658203125">
        <ele>5.80000019073486328125</ele>
        <time>2019-11-04T12:09:05.000Z</time>
      </trkpt>
      <trkpt lat="36.18861087597906589508056640625" lon="-5.9161765873432159423828125">
        <ele>5.19999980926513671875</ele>
        <time>2019-11-04T12:09:11.000Z</time>
      </trkpt>
      <trkpt lat="36.1884168349206447601318359375" lon="-5.91619427315890789031982421875">
        <ele>4.80000019073486328125</ele>
        <time>2019-11-04T12:09:17.000Z</time>
      </trkpt>
      <trkpt lat="36.18820653297007083892822265625" lon="-5.9162032417953014373779296875">
        <ele>5.19999980926513671875</ele>
        <time>2019-11-04T12:09:23.000Z</time>
      </trkpt>
      <trkpt lat="36.18799430318176746368408203125" lon="-5.91621958650648593902587890625">
        <ele>6</ele>
        <time>2019-11-04T12:09:29.000Z</time>
      </trkpt>
      <trkpt lat="36.187799759209156036376953125" lon="-5.91622930951416492462158203125">
        <ele>6.599999904632568359375</ele>
        <time>2019-11-04T12:09:35.000Z</time>
      </trkpt>
      <trkpt lat="36.18764720857143402099609375" lon="-5.91628999449312686920166015625">
        <ele>7.400000095367431640625</ele>
        <time>2019-11-04T12:09:41.000Z</time>
      </trkpt>
      <trkpt lat="36.187665648758411407470703125" lon="-5.91654782183468341827392578125">
        <ele>8</ele>
        <time>2019-11-04T12:09:48.000Z</time>
      </trkpt>
      <trkpt lat="36.18771216832101345062255859375" lon="-5.916801877319812774658203125">
        <ele>7.80000019073486328125</ele>
        <time>2019-11-04T12:09:54.000Z</time>
      </trkpt>
      <trkpt lat="36.18779003620147705078125" lon="-5.91704101301729679107666015625">
        <ele>6.599999904632568359375</ele>
        <time>2019-11-04T12:10:01.000Z</time>
      </trkpt>
      <trkpt lat="36.18786606006324291229248046875" lon="-5.9172731079161167144775390625">
        <ele>6</ele>
        <time>2019-11-04T12:10:08.000Z</time>
      </trkpt>
      <trkpt lat="36.1878914572298526763916015625" lon="-5.917528755962848663330078125">
        <ele>5.80000019073486328125</ele>
        <time>2019-11-04T12:10:15.000Z</time>
      </trkpt>
      <trkpt lat="36.187937222421169281005859375" lon="-5.91774978674948215484619140625">
        <ele>5.80000019073486328125</ele>
        <time>2019-11-04T12:10:20.000Z</time>
      </trkpt>
      <trkpt lat="36.18799447081983089447021484375" lon="-5.91798313893377780914306640625">
        <ele>6.19999980926513671875</ele>
        <time>2019-11-04T12:10:26.000Z</time>
      </trkpt>
      <trkpt lat="36.18804727680981159210205078125" lon="-5.91822034679353237152099609375">
        <ele>6.599999904632568359375</ele>
        <time>2019-11-04T12:10:31.000Z</time>
      </trkpt>
      <trkpt lat="36.18808281607925891876220703125" lon="-5.9184435568749904632568359375">
        <ele>6.80000019073486328125</ele>
        <time>2019-11-04T12:10:36.000Z</time>
      </trkpt>
      <trkpt lat="36.1881043575704097747802734375" lon="-5.91867950744926929473876953125">
        <ele>7.80000019073486328125</ele>
        <time>2019-11-04T12:10:43.000Z</time>
      </trkpt>
      <trkpt lat="36.18811667896807193756103515625" lon="-5.91893699951469898223876953125">
        <ele>8.19999980926513671875</ele>
        <time>2019-11-04T12:10:50.000Z</time>
      </trkpt>
      <trkpt lat="36.1881546489894390106201171875" lon="-5.91918812133371829986572265625">
        <ele>7.400000095367431640625</ele>
        <time>2019-11-04T12:10:56.000Z</time>
      </trkpt>
      <trkpt lat="36.18820670060813426971435546875" lon="-5.919435136020183563232421875">
        <ele>6.599999904632568359375</ele>
        <time>2019-11-04T12:11:02.000Z</time>
      </trkpt>
      <trkpt lat="36.1882364563643932342529296875" lon="-5.919599421322345733642578125">
        <ele>6</ele>
        <time>2019-11-04T12:11:06.000Z</time>
      </trkpt>
      <trkpt lat="36.18823729455471038818359375" lon="-5.91976739466190338134765625">
        <ele>6</ele>
        <time>2019-11-04T12:11:20.000Z</time>
      </trkpt>
      <trkpt lat="36.188491769134998321533203125" lon="-5.919933021068572998046875">
        <ele>6</ele>
        <time>2019-11-04T12:21:47.000Z</time>
      </trkpt>
      <trkpt lat="36.18847777135670185089111328125" lon="-5.91994266025722026824951171875">
        <ele>6</ele>
        <time>2019-11-04T12:21:51.000Z</time>
      </trkpt>
      <trkpt lat="36.188449524343013763427734375" lon="-5.9199415706098079681396484375">
        <ele>6</ele>
        <time>2019-11-04T12:22:06.000Z</time>
      </trkpt>
      <trkpt lat="36.18838749825954437255859375" lon="-5.919893793761730194091796875">
        <ele>6</ele>
        <time>2019-11-04T12:22:07.000Z</time>
      </trkpt>
      <trkpt lat="36.1883226223289966583251953125" lon="-5.91985129751265048980712890625">
        <ele>6</ele>
        <time>2019-11-04T12:22:12.000Z</time>
      </trkpt>
      <trkpt lat="36.1883115582168102264404296875" lon="-5.91984517872333526611328125">
        <ele>6</ele>
        <time>2019-11-04T12:22:15.000Z</time>
      </trkpt>
      <trkpt lat="36.18829152546823024749755859375" lon="-5.9198460169136524200439453125">
        <ele>6</ele>
        <time>2019-11-04T12:24:07.000Z</time>
      </trkpt>
      <trkpt lat="36.18829253129661083221435546875" lon="-5.91984325088560581207275390625">
        <ele>6</ele>
        <time>2019-11-04T12:24:08.000Z</time>
      </trkpt>
      <trkpt lat="36.188277862966060638427734375" lon="-5.91979329474270343780517578125">
        <ele>6</ele>
        <time>2019-11-04T12:24:28.000Z</time>
      </trkpt>
      <trkpt lat="36.18826084770262241363525390625" lon="-5.91977368108928203582763671875">
        <ele>6</ele>
        <time>2019-11-04T12:24:34.000Z</time>
      </trkpt>
      <trkpt lat="36.18829521350562572479248046875" lon="-5.91970528475940227508544921875">
        <ele>6</ele>
        <time>2019-11-04T12:26:17.000Z</time>
      </trkpt>
      <trkpt lat="36.1882924474775791168212890625" lon="-5.91962230391800403594970703125">
        <ele>6</ele>
        <time>2019-11-04T12:26:25.000Z</time>
      </trkpt>
      <trkpt lat="36.18829705752432346343994140625" lon="-5.91961442492902278900146484375">
        <ele>6</ele>
        <time>2019-11-04T12:26:28.000Z</time>
      </trkpt>
      <trkpt lat="36.1883009970188140869140625" lon="-5.919519960880279541015625">
        <ele>6.19999980926513671875</ele>
        <time>2019-11-04T12:26:36.000Z</time>
      </trkpt>
      <trkpt lat="36.18826872669160366058349609375" lon="-5.9192703478038311004638671875">
        <ele>7</ele>
        <time>2019-11-04T12:26:45.000Z</time>
      </trkpt>
      <trkpt lat="36.1882116459310054779052734375" lon="-5.9190235845744609832763671875">
        <ele>8</ele>
        <time>2019-11-04T12:26:53.000Z</time>
      </trkpt>
      <trkpt lat="36.188145093619823455810546875" lon="-5.91880674473941326141357421875">
        <ele>8.6000003814697265625</ele>
        <time>2019-11-04T12:27:00.000Z</time>
      </trkpt>
      <trkpt lat="36.1880969814956188201904296875" lon="-5.91858428902924060821533203125">
        <ele>7.400000095367431640625</ele>
        <time>2019-11-04T12:27:10.000Z</time>
      </trkpt>
      <trkpt lat="36.18810427375137805938720703125" lon="-5.91835294850170612335205078125">
        <ele>7</ele>
        <time>2019-11-04T12:27:18.000Z</time>
      </trkpt>
      <trkpt lat="36.18800050579011440277099609375" lon="-5.9181465022265911102294921875">
        <ele>6.19999980926513671875</ele>
        <time>2019-11-04T12:27:28.000Z</time>
      </trkpt>
      <trkpt lat="36.187976114451885223388671875" lon="-5.91813920997083187103271484375">
        <ele>6</ele>
        <time>2019-11-04T12:27:29.000Z</time>
      </trkpt>
      <trkpt lat="36.18783420883119106292724609375" lon="-5.918141640722751617431640625">
        <ele>6</ele>
        <time>2019-11-04T12:27:35.000Z</time>
      </trkpt>
      <trkpt lat="36.18763723410665988922119140625" lon="-5.91815010644495487213134765625">
        <ele>6.19999980926513671875</ele>
        <time>2019-11-04T12:27:42.000Z</time>
      </trkpt>
      <trkpt lat="36.187481246888637542724609375" lon="-5.91823509894311428070068359375">
        <ele>7</ele>
        <time>2019-11-04T12:27:49.000Z</time>
      </trkpt>
      <trkpt lat="36.18750480003654956817626953125" lon="-5.91844967566430568695068359375">
        <ele>7.599999904632568359375</ele>
        <time>2019-11-04T12:27:56.000Z</time>
      </trkpt>
      <trkpt lat="36.1875374056398868560791015625" lon="-5.91867766343057155609130859375">
        <ele>7.599999904632568359375</ele>
        <time>2019-11-04T12:28:03.000Z</time>
      </trkpt>
      <trkpt lat="36.1875669099390506744384765625" lon="-5.9189283661544322967529296875">
        <ele>7.400000095367431640625</ele>
        <time>2019-11-04T12:28:12.000Z</time>
      </trkpt>
      <trkpt lat="36.18757654912769794464111328125" lon="-5.91915794648230075836181640625">
        <ele>7</ele>
        <time>2019-11-04T12:28:18.000Z</time>
      </trkpt>
      <trkpt lat="36.18759783916175365447998046875" lon="-5.919380821287631988525390625">
        <ele>7</ele>
        <time>2019-11-04T12:28:24.000Z</time>
      </trkpt>
      <trkpt lat="36.18762130849063396453857421875" lon="-5.91962263919413089752197265625">
        <ele>7</ele>
        <time>2019-11-04T12:28:30.000Z</time>
      </trkpt>
      <trkpt lat="36.187607310712337493896484375" lon="-5.9197709150612354278564453125">
        <ele>7</ele>
        <time>2019-11-04T12:28:34.000Z</time>
      </trkpt>
      <trkpt lat="36.18761577643454074859619140625" lon="-5.91998557560145854949951171875">
        <ele>7</ele>
        <time>2019-11-04T12:28:44.000Z</time>
      </trkpt>
      <trkpt lat="36.18748468346893787384033203125" lon="-5.9200109727680683135986328125">
        <ele>7</ele>
        <time>2019-11-04T12:28:50.000Z</time>
      </trkpt>
      <trkpt lat="36.1874465458095073699951171875" lon="-5.92003251425921916961669921875">
        <ele>7</ele>
        <time>2019-11-04T12:28:53.000Z</time>
      </trkpt>
      <trkpt lat="36.18733917362987995147705078125" lon="-5.920073501765727996826171875">
        <ele>7</ele>
        <time>2019-11-04T12:28:59.000Z</time>
      </trkpt>
      <trkpt lat="36.18714706040918827056884765625" lon="-5.92016570270061492919921875">
        <ele>7</ele>
        <time>2019-11-04T12:29:04.000Z</time>
      </trkpt>
      <trkpt lat="36.18696014396846294403076171875" lon="-5.92021423391997814178466796875">
        <ele>7.400000095367431640625</ele>
        <time>2019-11-04T12:29:09.000Z</time>
      </trkpt>
      <trkpt lat="36.186919994652271270751953125" lon="-5.9202419780194759368896484375">
        <ele>7.400000095367431640625</ele>
        <time>2019-11-04T12:29:11.000Z</time>
      </trkpt>
      <trkpt lat="36.18690314702689647674560546875" lon="-5.92035857029259204864501953125">
        <ele>7.80000019073486328125</ele>
        <time>2019-11-04T12:29:17.000Z</time>
      </trkpt>
      <trkpt lat="36.186918318271636962890625" lon="-5.920530818402767181396484375">
        <ele>7.19999980926513671875</ele>
        <time>2019-11-04T12:29:26.000Z</time>
      </trkpt>
      <trkpt lat="36.1869543604552745819091796875" lon="-5.92075101099908351898193359375">
        <ele>6.80000019073486328125</ele>
        <time>2019-11-04T12:29:37.000Z</time>
      </trkpt>
      <trkpt lat="36.18700507096946239471435546875" lon="-5.92098654247820377349853515625">
        <ele>6.400000095367431640625</ele>
        <time>2019-11-04T12:29:45.000Z</time>
      </trkpt>
      <trkpt lat="36.18702652864158153533935546875" lon="-5.92123850248754024505615234375">
        <ele>6.80000019073486328125</ele>
        <time>2019-11-04T12:29:53.000Z</time>
      </trkpt>
      <trkpt lat="36.18703373707830905914306640625" lon="-5.921463556587696075439453125">
        <ele>6</ele>
        <time>2019-11-04T12:30:00.000Z</time>
      </trkpt>
      <trkpt lat="36.18705100379884243011474609375" lon="-5.921687521040439605712890625">
        <ele>5.400000095367431640625</ele>
        <time>2019-11-04T12:30:07.000Z</time>
      </trkpt>
      <trkpt lat="36.18706248700618743896484375" lon="-5.92191961593925952911376953125">
        <ele>6</ele>
        <time>2019-11-04T12:30:14.000Z</time>
      </trkpt>
      <trkpt lat="36.1869801767170429229736328125" lon="-5.92214408330619335174560546875">
        <ele>5.80000019073486328125</ele>
        <time>2019-11-04T12:30:21.000Z</time>
      </trkpt>
      <trkpt lat="36.18689082562923431396484375" lon="-5.922351367771625518798828125">
        <ele>7.400000095367431640625</ele>
        <time>2019-11-04T12:30:28.000Z</time>
      </trkpt>
      <trkpt lat="36.186816394329071044921875" lon="-5.92256225645542144775390625">
        <ele>9.6000003814697265625</ele>
        <time>2019-11-04T12:30:35.000Z</time>
      </trkpt>
      <trkpt lat="36.18676132522523403167724609375" lon="-5.92269578017294406890869140625">
        <ele>11</ele>
        <time>2019-11-04T12:30:42.000Z</time>
      </trkpt>
      <trkpt lat="36.18676006793975830078125" lon="-5.92269829474389553070068359375">
        <ele>11</ele>
        <time>2019-11-04T12:30:45.000Z</time>
      </trkpt>
      <trkpt lat="36.18676031939685344696044921875" lon="-5.9228447265923023223876953125">
        <ele>11.6000003814697265625</ele>
        <time>2019-11-04T12:32:04.000Z</time>
      </trkpt>
      <trkpt lat="36.18673265911638736724853515625" lon="-5.92308788560330867767333984375">
        <ele>12.6000003814697265625</ele>
        <time>2019-11-04T12:32:12.000Z</time>
      </trkpt>
      <trkpt lat="36.18672184646129608154296875" lon="-5.92333205044269561767578125">
        <ele>12</ele>
        <time>2019-11-04T12:32:20.000Z</time>
      </trkpt>
      <trkpt lat="36.186682619154453277587890625" lon="-5.92357135377824306488037109375">
        <ele>11.19999980926513671875</ele>
        <time>2019-11-04T12:32:28.000Z</time>
      </trkpt>
      <trkpt lat="36.18665185756981372833251953125" lon="-5.92380671761929988861083984375">
        <ele>10</ele>
        <time>2019-11-04T12:32:35.000Z</time>
      </trkpt>
      <trkpt lat="36.18663324974477291107177734375" lon="-5.92404744587838649749755859375">
        <ele>9.19999980926513671875</ele>
        <time>2019-11-04T12:32:42.000Z</time>
      </trkpt>
      <trkpt lat="36.1866003088653087615966796875" lon="-5.924279876053333282470703125">
        <ele>8.19999980926513671875</ele>
        <time>2019-11-04T12:32:49.000Z</time>
      </trkpt>
      <trkpt lat="36.18657206185162067413330078125" lon="-5.9245137311518192291259765625">
        <ele>7.19999980926513671875</ele>
        <time>2019-11-04T12:32:56.000Z</time>
      </trkpt>
      <trkpt lat="36.18653551675379276275634765625" lon="-5.9247517772018909454345703125">
        <ele>5.80000019073486328125</ele>
        <time>2019-11-04T12:33:03.000Z</time>
      </trkpt>
      <trkpt lat="36.1865201778709888458251953125" lon="-5.92498429119586944580078125">
        <ele>4.599999904632568359375</ele>
        <time>2019-11-04T12:33:10.000Z</time>
      </trkpt>
      <trkpt lat="36.18649922311305999755859375" lon="-5.9252087585628032684326171875">
        <ele>3.7999999523162841796875</ele>
        <time>2019-11-04T12:33:17.000Z</time>
      </trkpt>
      <trkpt lat="36.18650031276047229766845703125" lon="-5.9254317171871662139892578125">
        <ele>3.2000000476837158203125</ele>
        <time>2019-11-04T12:33:25.000Z</time>
      </trkpt>
      <trkpt lat="36.1865590699017047882080078125" lon="-5.92555694282054901123046875">
        <ele>3.7999999523162841796875</ele>
        <time>2019-11-04T12:33:32.000Z</time>
      </trkpt>
      <trkpt lat="36.1865862272679805755615234375" lon="-5.925629697740077972412109375">
        <ele>4</ele>
        <time>2019-11-04T12:33:41.000Z</time>
      </trkpt>
      <trkpt lat="36.18656937964260578155517578125" lon="-5.9256439469754695892333984375">
        <ele>4</ele>
        <time>2019-11-04T12:34:24.000Z</time>
      </trkpt>
      <trkpt lat="36.18651104159653186798095703125" lon="-5.92551444657146930694580078125">
        <ele>3.599999904632568359375</ele>
        <time>2019-11-04T12:34:29.000Z</time>
      </trkpt>
      <trkpt lat="36.18652244098484516143798828125" lon="-5.92527656815946102142333984375">
        <ele>3.7999999523162841796875</ele>
        <time>2019-11-04T12:34:36.000Z</time>
      </trkpt>
      <trkpt lat="36.186542473733425140380859375" lon="-5.92502611689269542694091796875">
        <ele>4.80000019073486328125</ele>
        <time>2019-11-04T12:34:44.000Z</time>
      </trkpt>
      <trkpt lat="36.18651439435780048370361328125" lon="-5.9247983805835247039794921875">
        <ele>5.400000095367431640625</ele>
        <time>2019-11-04T12:34:50.000Z</time>
      </trkpt>
      <trkpt lat="36.18656083010137081146240234375" lon="-5.92455773614346981048583984375">
        <ele>6.80000019073486328125</ele>
        <time>2019-11-04T12:34:57.000Z</time>
      </trkpt>
      <trkpt lat="36.18656937964260578155517578125" lon="-5.924308039247989654541015625">
        <ele>7.80000019073486328125</ele>
        <time>2019-11-04T12:35:05.000Z</time>
      </trkpt>
      <trkpt lat="36.18659703992307186126708984375" lon="-5.92406161129474639892578125">
        <ele>9</ele>
        <time>2019-11-04T12:35:13.000Z</time>
      </trkpt>
      <trkpt lat="36.18663065135478973388671875" lon="-5.9238341264426708221435546875">
        <ele>9.80000019073486328125</ele>
        <time>2019-11-04T12:35:19.000Z</time>
      </trkpt>
      <trkpt lat="36.18666308932006359100341796875" lon="-5.9235910512506961822509765625">
        <ele>11</ele>
        <time>2019-11-04T12:35:26.000Z</time>
      </trkpt>
      <trkpt lat="36.18669192306697368621826171875" lon="-5.92336951754987239837646484375">
        <ele>12</ele>
        <time>2019-11-04T12:35:33.000Z</time>
      </trkpt>
      <trkpt lat="36.18671958334743976593017578125" lon="-5.923140607774257659912109375">
        <ele>12.80000019073486328125</ele>
        <time>2019-11-04T12:35:41.000Z</time>
      </trkpt>
      <trkpt lat="36.18674791418015956878662109375" lon="-5.922902561724185943603515625">
        <ele>11.80000019073486328125</ele>
        <time>2019-11-04T12:35:48.000Z</time>
      </trkpt>
      <trkpt lat="36.186791919171810150146484375" lon="-5.922659151256084442138671875">
        <ele>10.6000003814697265625</ele>
        <time>2019-11-04T12:35:55.000Z</time>
      </trkpt>
      <trkpt lat="36.186824105679988861083984375" lon="-5.9224326722323894500732421875">
        <ele>8.19999980926513671875</ele>
        <time>2019-11-04T12:36:02.000Z</time>
      </trkpt>
      <trkpt lat="36.18683743290603160858154296875" lon="-5.9223284013569355010986328125">
        <ele>6.400000095367431640625</ele>
        <time>2019-11-04T12:36:07.000Z</time>
      </trkpt>
      <trkpt lat="36.18683516979217529296875" lon="-5.92233250848948955535888671875">
        <ele>6.400000095367431640625</ele>
        <time>2019-11-04T12:36:10.000Z</time>
      </trkpt>
      <trkpt lat="36.18687951005995273590087890625" lon="-5.9222519584000110626220703125">
        <ele>6.19999980926513671875</ele>
        <time>2019-11-04T12:36:39.000Z</time>
      </trkpt>
      <trkpt lat="36.18695159442722797393798828125" lon="-5.92204098589718341827392578125">
        <ele>4.80000019073486328125</ele>
        <time>2019-11-04T12:36:45.000Z</time>
      </trkpt>
      <trkpt lat="36.18699367158114910125732421875" lon="-5.9218070469796657562255859375">
        <ele>4.599999904632568359375</ele>
        <time>2019-11-04T12:36:51.000Z</time>
      </trkpt>
      <trkpt lat="36.18698964826762676239013671875" lon="-5.92157252132892608642578125">
        <ele>5</ele>
        <time>2019-11-04T12:36:57.000Z</time>
      </trkpt>
      <trkpt lat="36.1869831942021846771240234375" lon="-5.9213299490511417388916015625">
        <ele>6</ele>
        <time>2019-11-04T12:37:04.000Z</time>
      </trkpt>
      <trkpt lat="36.1869563721120357513427734375" lon="-5.92110958881676197052001953125">
        <ele>5.80000019073486328125</ele>
        <time>2019-11-04T12:37:11.000Z</time>
      </trkpt>
      <trkpt lat="36.186929382383823394775390625" lon="-5.92086735181510448455810546875">
        <ele>6.19999980926513671875</ele>
        <time>2019-11-04T12:37:18.000Z</time>
      </trkpt>
      <trkpt lat="36.1868973635137081146240234375" lon="-5.9206443093717098236083984375">
        <ele>7</ele>
        <time>2019-11-04T12:37:24.000Z</time>
      </trkpt>
      <trkpt lat="36.1868655122816562652587890625" lon="-5.9203968755900859832763671875">
        <ele>8</ele>
        <time>2019-11-04T12:37:31.000Z</time>
      </trkpt>
      <trkpt lat="36.18681379593908786773681640625" lon="-5.92016637325286865234375">
        <ele>7</ele>
        <time>2019-11-04T12:37:38.000Z</time>
      </trkpt>
      <trkpt lat="36.18678177706897258758544921875" lon="-5.91993142850697040557861328125">
        <ele>7</ele>
        <time>2019-11-04T12:37:46.000Z</time>
      </trkpt>
      <trkpt lat="36.1867666058242321014404296875" lon="-5.91970494948327541351318359375">
        <ele>6.599999904632568359375</ele>
        <time>2019-11-04T12:37:54.000Z</time>
      </trkpt>
      <trkpt lat="36.18674171157181262969970703125" lon="-5.9196002595126628875732421875">
        <ele>6.19999980926513671875</ele>
        <time>2019-11-04T12:37:59.000Z</time>
      </trkpt>
      <trkpt lat="36.18676652200520038604736328125" lon="-5.9195561707019805908203125">
        <ele>6</ele>
        <time>2019-11-04T12:38:03.000Z</time>
      </trkpt>
      <trkpt lat="36.18676652200520038604736328125" lon="-5.91953747905790805816650390625">
        <ele>6</ele>
        <time>2019-11-04T12:38:06.000Z</time>
      </trkpt>
      <trkpt lat="36.18671840988099575042724609375" lon="-5.91945097781717777252197265625">
        <ele>6</ele>
        <time>2019-11-04T12:38:11.000Z</time>
      </trkpt>
      <trkpt lat="36.18667482398450374603271484375" lon="-5.91919918544590473175048828125">
        <ele>5.599999904632568359375</ele>
        <time>2019-11-04T12:38:18.000Z</time>
      </trkpt>
      <trkpt lat="36.186618246138095855712890625" lon="-5.91898192651569843292236328125">
        <ele>5.19999980926513671875</ele>
        <time>2019-11-04T12:38:24.000Z</time>
      </trkpt>
      <trkpt lat="36.18654859252274036407470703125" lon="-5.9187429584562778472900390625">
        <ele>5.80000019073486328125</ele>
        <time>2019-11-04T12:38:31.000Z</time>
      </trkpt>
      <trkpt lat="36.18648312985897064208984375" lon="-5.91852880083024501800537109375">
        <ele>5.400000095367431640625</ele>
        <time>2019-11-04T12:38:37.000Z</time>
      </trkpt>
      <trkpt lat="36.18641062639653682708740234375" lon="-5.91830919496715068817138671875">
        <ele>5.19999980926513671875</ele>
        <time>2019-11-04T12:38:44.000Z</time>
      </trkpt>
      <trkpt lat="36.18637382984161376953125" lon="-5.91815161518752574920654296875">
        <ele>5.599999904632568359375</ele>
        <time>2019-11-04T12:38:52.000Z</time>
      </trkpt>
      <trkpt lat="36.1863783560693264007568359375" lon="-5.9181454963982105255126953125">
        <ele>5.80000019073486328125</ele>
        <time>2019-11-04T12:38:56.000Z</time>
      </trkpt>
      <trkpt lat="36.1864797770977020263671875" lon="-5.9181694686412811279296875">
        <ele>6.19999980926513671875</ele>
        <time>2019-11-04T12:41:46.000Z</time>
      </trkpt>
      <trkpt lat="36.18649813346564769744873046875" lon="-5.91816452331840991973876953125">
        <ele>6.400000095367431640625</ele>
        <time>2019-11-04T12:41:53.000Z</time>
      </trkpt>
      <trkpt lat="36.186514981091022491455078125" lon="-5.91816008090972900390625">
        <ele>6.599999904632568359375</ele>
        <time>2019-11-04T12:41:59.000Z</time>
      </trkpt>
      <trkpt lat="36.18643292225897312164306640625" lon="-5.9181988053023815155029296875">
        <ele>5.80000019073486328125</ele>
        <time>2019-11-04T12:43:12.000Z</time>
      </trkpt>
      <trkpt lat="36.18629193864762783050537109375" lon="-5.9181776829063892364501953125">
        <ele>4.80000019073486328125</ele>
        <time>2019-11-04T12:43:13.000Z</time>
      </trkpt>
      <trkpt lat="36.18638045154511928558349609375" lon="-5.9181304089725017547607421875">
        <ele>5.80000019073486328125</ele>
        <time>2019-11-04T12:43:15.000Z</time>
      </trkpt>
      <trkpt lat="36.18636100552976131439208984375" lon="-5.9181066043674945831298828125">
        <ele>6</ele>
        <time>2019-11-04T12:43:22.000Z</time>
      </trkpt>
      <trkpt lat="36.1865942738950252532958984375" lon="-5.9183037467300891876220703125">
        <ele>6.599999904632568359375</ele>
        <time>2019-11-04T13:29:24.000Z</time>
      </trkpt>
      <trkpt lat="36.186413057148456573486328125" lon="-5.91811892576515674591064453125">
        <ele>6.19999980926513671875</ele>
        <time>2019-11-04T13:29:28.000Z</time>
      </trkpt>
      <trkpt lat="36.18644583038985729217529296875" lon="-5.91821573674678802490234375">
        <ele>5.80000019073486328125</ele>
        <time>2019-11-04T13:29:29.000Z</time>
      </trkpt>
      <trkpt lat="36.18641314096748828887939453125" lon="-5.91816117055714130401611328125">
        <ele>5.80000019073486328125</ele>
        <time>2019-11-04T13:29:46.000Z</time>
      </trkpt>
      <trkpt lat="36.18644415400922298431396484375" lon="-5.91813434846699237823486328125">
        <ele>6.19999980926513671875</ele>
        <time>2019-11-04T13:29:59.000Z</time>
      </trkpt>
      <trkpt lat="36.1864501051604747772216796875" lon="-5.9181193448603153228759765625">
        <ele>6.400000095367431640625</ele>
        <time>2019-11-04T13:30:03.000Z</time>
      </trkpt>
      <trkpt lat="36.1864796094596385955810546875" lon="-5.91810132376849651336669921875">
        <ele>6.80000019073486328125</ele>
        <time>2019-11-04T13:30:31.000Z</time>
      </trkpt>
      <trkpt lat="36.18646963499486446380615234375" lon="-5.9180955402553081512451171875">
        <ele>6.80000019073486328125</ele>
        <time>2019-11-04T13:30:36.000Z</time>
      </trkpt>
      <trkpt lat="36.1863609217107295989990234375" lon="-5.9178980626165866851806640625">
        <ele>8.19999980926513671875</ele>
        <time>2019-11-04T13:31:45.000Z</time>
      </trkpt>
      <trkpt lat="36.18628975935280323028564453125" lon="-5.91767937876284122467041015625">
        <ele>8.6000003814697265625</ele>
        <time>2019-11-04T13:31:53.000Z</time>
      </trkpt>
      <trkpt lat="36.1862687207758426666259765625" lon="-5.91747385449707508087158203125">
        <ele>8.80000019073486328125</ele>
        <time>2019-11-04T13:32:00.000Z</time>
      </trkpt>
      <trkpt lat="36.18645253591239452362060546875" lon="-5.9173495508730411529541015625">
        <ele>9.6000003814697265625</ele>
        <time>2019-11-04T13:32:07.000Z</time>
      </trkpt>
      <trkpt lat="36.18664012290537357330322265625" lon="-5.91724804602563381195068359375">
        <ele>9.6000003814697265625</ele>
        <time>2019-11-04T13:32:13.000Z</time>
      </trkpt>
      <trkpt lat="36.1868450604379177093505859375" lon="-5.917195491492748260498046875">
        <ele>9</ele>
        <time>2019-11-04T13:32:20.000Z</time>
      </trkpt>
      <trkpt lat="36.18693239986896514892578125" lon="-5.91718518175184726715087890625">
        <ele>9</ele>
        <time>2019-11-04T13:32:24.000Z</time>
      </trkpt>
      <trkpt lat="36.1869184859097003936767578125" lon="-5.91692014597356319427490234375">
        <ele>8.80000019073486328125</ele>
        <time>2019-11-04T13:32:31.000Z</time>
      </trkpt>
      <trkpt lat="36.186907924711704254150390625" lon="-5.916675142943859100341796875">
        <ele>8.19999980926513671875</ele>
        <time>2019-11-04T13:32:35.000Z</time>
      </trkpt>
      <trkpt lat="36.18690851144492626190185546875" lon="-5.91641706414520740509033203125">
        <ele>8</ele>
        <time>2019-11-04T13:32:40.000Z</time>
      </trkpt>
      <trkpt lat="36.18692628107964992523193359375" lon="-5.9163816086947917938232421875">
        <ele>8</ele>
        <time>2019-11-04T13:32:41.000Z</time>
      </trkpt>
      <trkpt lat="36.1871079169213771820068359375" lon="-5.9163467399775981903076171875">
        <ele>8.3999996185302734375</ele>
        <time>2019-11-04T13:32:46.000Z</time>
      </trkpt>
      <trkpt lat="36.187199614942073822021484375" lon="-5.91632553376257419586181640625">
        <ele>8.3999996185302734375</ele>
        <time>2019-11-04T13:32:48.000Z</time>
      </trkpt>
      <trkpt lat="36.1872745491564273834228515625" lon="-5.91626384295523166656494140625">
        <ele>8.19999980926513671875</ele>
        <time>2019-11-04T13:32:50.000Z</time>
      </trkpt>
      <trkpt lat="36.18744579143822193145751953125" lon="-5.9161378629505634307861328125">
        <ele>7.599999904632568359375</ele>
        <time>2019-11-04T13:32:55.000Z</time>
      </trkpt>
      <trkpt lat="36.18752709589898586273193359375" lon="-5.9161734022200107574462890625">
        <ele>7.400000095367431640625</ele>
        <time>2019-11-04T13:32:57.000Z</time>
      </trkpt>
      <trkpt lat="36.1877296864986419677734375" lon="-5.9162226878106594085693359375">
        <ele>6.80000019073486328125</ele>
        <time>2019-11-04T13:33:02.000Z</time>
      </trkpt>
      <trkpt lat="36.18793445639312267303466796875" lon="-5.916205085813999176025390625">
        <ele>6.19999980926513671875</ele>
        <time>2019-11-04T13:33:07.000Z</time>
      </trkpt>
      <trkpt lat="36.1881415732204914093017578125" lon="-5.9161908365786075592041015625">
        <ele>5.400000095367431640625</ele>
        <time>2019-11-04T13:33:12.000Z</time>
      </trkpt>
      <trkpt lat="36.1883519589900970458984375" lon="-5.916167199611663818359375">
        <ele>4.80000019073486328125</ele>
        <time>2019-11-04T13:33:17.000Z</time>
      </trkpt>
      <trkpt lat="36.1885180883109569549560546875" lon="-5.916148759424686431884765625">
        <ele>4.80000019073486328125</ele>
        <time>2019-11-04T13:33:21.000Z</time>
      </trkpt>
      <trkpt lat="36.188643313944339752197265625" lon="-5.9161355160176753997802734375">
        <ele>5</ele>
        <time>2019-11-04T13:33:24.000Z</time>
      </trkpt>
      <trkpt lat="36.1888563819229602813720703125" lon="-5.91610710136592388153076171875">
        <ele>5.80000019073486328125</ele>
        <time>2019-11-04T13:33:29.000Z</time>
      </trkpt>
      <trkpt lat="36.1890414543449878692626953125" lon="-5.91606234200298786163330078125">
        <ele>6.19999980926513671875</ele>
        <time>2019-11-04T13:33:33.000Z</time>
      </trkpt>
      <trkpt lat="36.189224682748317718505859375" lon="-5.916043817996978759765625">
        <ele>5.80000019073486328125</ele>
        <time>2019-11-04T13:33:37.000Z</time>
      </trkpt>
      <trkpt lat="36.1893556080758571624755859375" lon="-5.9160382859408855438232421875">
        <ele>5.400000095367431640625</ele>
        <time>2019-11-04T13:33:40.000Z</time>
      </trkpt>
      <trkpt lat="36.18957211263477802276611328125" lon="-5.91603199951350688934326171875">
        <ele>4.599999904632568359375</ele>
        <time>2019-11-04T13:33:45.000Z</time>
      </trkpt>
      <trkpt lat="36.189789958298206329345703125" lon="-5.916028060019016265869140625">
        <ele>4.599999904632568359375</ele>
        <time>2019-11-04T13:33:50.000Z</time>
      </trkpt>
      <trkpt lat="36.19000528939068317413330078125" lon="-5.91601322405040264129638671875">
        <ele>4.80000019073486328125</ele>
        <time>2019-11-04T13:33:55.000Z</time>
      </trkpt>
      <trkpt lat="36.19020528160035610198974609375" lon="-5.91601657681167125701904296875">
        <ele>5.599999904632568359375</ele>
        <time>2019-11-04T13:34:00.000Z</time>
      </trkpt>
      <trkpt lat="36.190370656549930572509765625" lon="-5.91603937558829784393310546875">
        <ele>7</ele>
        <time>2019-11-04T13:34:04.000Z</time>
      </trkpt>
      <trkpt lat="36.1905773542821407318115234375" lon="-5.916053541004657745361328125">
        <ele>7.80000019073486328125</ele>
        <time>2019-11-04T13:34:09.000Z</time>
      </trkpt>
      <trkpt lat="36.19074038229882717132568359375" lon="-5.9160617552697658538818359375">
        <ele>8.3999996185302734375</ele>
        <time>2019-11-04T13:34:13.000Z</time>
      </trkpt>
      <trkpt lat="36.19086443446576595306396484375" lon="-5.91606820933520793914794921875">
        <ele>8.3999996185302734375</ele>
        <time>2019-11-04T13:34:16.000Z</time>
      </trkpt>
      <trkpt lat="36.19103458710014820098876953125" lon="-5.9160858951508998870849609375">
        <ele>8</ele>
        <time>2019-11-04T13:34:20.000Z</time>
      </trkpt>
      <trkpt lat="36.1912150494754314422607421875" lon="-5.916084386408329010009765625">
        <ele>8</ele>
        <time>2019-11-04T13:34:24.000Z</time>
      </trkpt>
      <trkpt lat="36.191308088600635528564453125" lon="-5.916091091930866241455078125">
        <ele>8</ele>
        <time>2019-11-04T13:34:26.000Z</time>
      </trkpt>
      <trkpt lat="36.19150062091648578643798828125" lon="-5.91605429537594318389892578125">
        <ele>7.19999980926513671875</ele>
        <time>2019-11-04T13:34:30.000Z</time>
      </trkpt>
      <trkpt lat="36.191690303385257720947265625" lon="-5.91600425541400909423828125">
        <ele>6.599999904632568359375</ele>
        <time>2019-11-04T13:34:34.000Z</time>
      </trkpt>
      <trkpt lat="36.1917809955775737762451171875" lon="-5.91597449965775012969970703125">
        <ele>6.19999980926513671875</ele>
        <time>2019-11-04T13:34:36.000Z</time>
      </trkpt>
      <trkpt lat="36.19195827282965183258056640625" lon="-5.91588246636092662811279296875">
        <ele>5.80000019073486328125</ele>
        <time>2019-11-04T13:34:40.000Z</time>
      </trkpt>
      <trkpt lat="36.19215868413448333740234375" lon="-5.91576746664941310882568359375">
        <ele>5.599999904632568359375</ele>
        <time>2019-11-04T13:34:45.000Z</time>
      </trkpt>
      <trkpt lat="36.19235624559223651885986328125" lon="-5.91565079055726528167724609375">
        <ele>6</ele>
        <time>2019-11-04T13:34:50.000Z</time>
      </trkpt>
      <trkpt lat="36.192431263625621795654296875" lon="-5.91561474837362766265869140625">
        <ele>6</ele>
        <time>2019-11-04T13:34:52.000Z</time>
      </trkpt>
      <trkpt lat="36.19263050146400928497314453125" lon="-5.9155343659222126007080078125">
        <ele>5.599999904632568359375</ele>
        <time>2019-11-04T13:34:58.000Z</time>
      </trkpt>
      <trkpt lat="36.19281339459121227264404296875" lon="-5.91546990908682346343994140625">
        <ele>5.19999980926513671875</ele>
        <time>2019-11-04T13:35:03.000Z</time>
      </trkpt>
      <trkpt lat="36.19284273125231266021728515625" lon="-5.9154512174427509307861328125">
        <ele>5.19999980926513671875</ele>
        <time>2019-11-04T13:35:04.000Z</time>
      </trkpt>
      <trkpt lat="36.19293308816850185394287109375" lon="-5.91538944281637668609619140625">
        <ele>5</ele>
        <time>2019-11-04T13:35:07.000Z</time>
      </trkpt>
      <trkpt lat="36.1930781789124011993408203125" lon="-5.9152131713926792144775390625">
        <ele>5</ele>
        <time>2019-11-04T13:35:13.000Z</time>
      </trkpt>
      <trkpt lat="36.193174235522747039794921875" lon="-5.9150720201432704925537109375">
        <ele>5</ele>
        <time>2019-11-04T13:35:17.000Z</time>
      </trkpt>
      <trkpt lat="36.1933246068656444549560546875" lon="-5.914913602173328399658203125">
        <ele>5.19999980926513671875</ele>
        <time>2019-11-04T13:35:22.000Z</time>
      </trkpt>
      <trkpt lat="36.19335486553609371185302734375" lon="-5.914878062903881072998046875">
        <ele>5.400000095367431640625</ele>
        <time>2019-11-04T13:35:23.000Z</time>
      </trkpt>
      <trkpt lat="36.193512193858623504638671875" lon="-5.9147427789866924285888671875">
        <ele>5.599999904632568359375</ele>
        <time>2019-11-04T13:35:28.000Z</time>
      </trkpt>
      <trkpt lat="36.1936561949551105499267578125" lon="-5.91459668241441249847412109375">
        <ele>5.599999904632568359375</ele>
        <time>2019-11-04T13:35:34.000Z</time>
      </trkpt>
      <trkpt lat="36.1938156187534332275390625" lon="-5.91442535631358623504638671875">
        <ele>5.599999904632568359375</ele>
        <time>2019-11-04T13:35:41.000Z</time>
      </trkpt>
      <trkpt lat="36.19394931010901927947998046875" lon="-5.91427129693329334259033203125">
        <ele>5</ele>
        <time>2019-11-04T13:35:46.000Z</time>
      </trkpt>
      <trkpt lat="36.1940799839794635772705078125" lon="-5.9140963666141033172607421875">
        <ele>5</ele>
        <time>2019-11-04T13:35:51.000Z</time>
      </trkpt>
      <trkpt lat="36.1942144297063350677490234375" lon="-5.91390400193631649017333984375">
        <ele>5</ele>
        <time>2019-11-04T13:35:56.000Z</time>
      </trkpt>
      <trkpt lat="36.19434577412903308868408203125" lon="-5.91374357230961322784423828125">
        <ele>5</ele>
        <time>2019-11-04T13:36:01.000Z</time>
      </trkpt>
      <trkpt lat="36.1943793855607509613037109375" lon="-5.91366805136203765869140625">
        <ele>5</ele>
        <time>2019-11-04T13:36:03.000Z</time>
      </trkpt>
      <trkpt lat="36.194267235696315765380859375" lon="-5.913483984768390655517578125">
        <ele>5.400000095367431640625</ele>
        <time>2019-11-04T13:36:09.000Z</time>
      </trkpt>
      <trkpt lat="36.1940806545317173004150390625" lon="-5.91335096396505832672119140625">
        <ele>6</ele>
        <time>2019-11-04T13:36:15.000Z</time>
      </trkpt>
      <trkpt lat="36.19388359598815441131591796875" lon="-5.91327686794102191925048828125">
        <ele>6</ele>
        <time>2019-11-04T13:36:21.000Z</time>
      </trkpt>
      <trkpt lat="36.19370388798415660858154296875" lon="-5.913227163255214691162109375">
        <ele>6</ele>
        <time>2019-11-04T13:36:27.000Z</time>
      </trkpt>
      <trkpt lat="36.1935244314372539520263671875" lon="-5.91316916048526763916015625">
        <ele>6</ele>
        <time>2019-11-04T13:36:33.000Z</time>
      </trkpt>
      <trkpt lat="36.19332502596080303192138671875" lon="-5.91310537420213222503662109375">
        <ele>5</ele>
        <time>2019-11-04T13:36:40.000Z</time>
      </trkpt>
      <trkpt lat="36.19314012117683887481689453125" lon="-5.91306245885789394378662109375">
        <ele>5</ele>
        <time>2019-11-04T13:36:46.000Z</time>
      </trkpt>
      <trkpt lat="36.192938871681690216064453125" lon="-5.9130157716572284698486328125">
        <ele>4.80000019073486328125</ele>
        <time>2019-11-04T13:36:52.000Z</time>
      </trkpt>
      <trkpt lat="36.19273125194013118743896484375" lon="-5.91295131482183933258056640625">
        <ele>4.80000019073486328125</ele>
        <time>2019-11-04T13:36:58.000Z</time>
      </trkpt>
      <trkpt lat="36.19254902936518192291259765625" lon="-5.91289448551833629608154296875">
        <ele>4.400000095367431640625</ele>
        <time>2019-11-04T13:37:03.000Z</time>
      </trkpt>
      <trkpt lat="36.192360185086727142333984375" lon="-5.91284134425222873687744140625">
        <ele>3.7999999523162841796875</ele>
        <time>2019-11-04T13:37:08.000Z</time>
      </trkpt>
      <trkpt lat="36.19216882623732089996337890625" lon="-5.91277797706425189971923828125">
        <ele>3.400000095367431640625</ele>
        <time>2019-11-04T13:37:13.000Z</time>
      </trkpt>
      <trkpt lat="36.19197922758758068084716796875" lon="-5.91271528042852878570556640625">
        <ele>4</ele>
        <time>2019-11-04T13:37:18.000Z</time>
      </trkpt>
      <trkpt lat="36.1917826719582080841064453125" lon="-5.912647135555744171142578125">
        <ele>4.19999980926513671875</ele>
        <time>2019-11-04T13:37:23.000Z</time>
      </trkpt>
      <trkpt lat="36.1915768124163150787353515625" lon="-5.9125889651477336883544921875">
        <ele>4.19999980926513671875</ele>
        <time>2019-11-04T13:37:28.000Z</time>
      </trkpt>
      <trkpt lat="36.19137019850313663482666015625" lon="-5.9125212393701076507568359375">
        <ele>5.19999980926513671875</ele>
        <time>2019-11-04T13:37:33.000Z</time>
      </trkpt>
      <trkpt lat="36.1911915801465511322021484375" lon="-5.9124702773988246917724609375">
        <ele>4.599999904632568359375</ele>
        <time>2019-11-04T13:37:37.000Z</time>
      </trkpt>
      <trkpt lat="36.191009022295475006103515625" lon="-5.9124256856739521026611328125">
        <ele>3.2000000476837158203125</ele>
        <time>2019-11-04T13:37:41.000Z</time>
      </trkpt>
      <trkpt lat="36.19083342142403125762939453125" lon="-5.912364162504673004150390625">
        <ele>1.7999999523162841796875</ele>
        <time>2019-11-04T13:37:45.000Z</time>
      </trkpt>
      <trkpt lat="36.190658994019031524658203125" lon="-5.91230356134474277496337890625">
        <ele>0.800000011920928955078125</ele>
        <time>2019-11-04T13:37:49.000Z</time>
      </trkpt>
      <trkpt lat="36.19047299958765506744384765625" lon="-5.91224782168865203857421875">
        <ele>0.60000002384185791015625</ele>
        <time>2019-11-04T13:37:53.000Z</time>
      </trkpt>
      <trkpt lat="36.1902856640517711639404296875" lon="-5.91218688525259494781494140625">
        <ele>1.7999999523162841796875</ele>
        <time>2019-11-04T13:37:57.000Z</time>
      </trkpt>
      <trkpt lat="36.1900942213833332061767578125" lon="-5.9121336601674556732177734375">
        <ele>2.2000000476837158203125</ele>
        <time>2019-11-04T13:38:01.000Z</time>
      </trkpt>
      <trkpt lat="36.18991635739803314208984375" lon="-5.9120840393006801605224609375">
        <ele>2</ele>
        <time>2019-11-04T13:38:05.000Z</time>
      </trkpt>
      <trkpt lat="36.18973338045179843902587890625" lon="-5.91203299351036548614501953125">
        <ele>2</ele>
        <time>2019-11-04T13:38:09.000Z</time>
      </trkpt>
      <trkpt lat="36.18954260833561420440673828125" lon="-5.9119754098355770111083984375">
        <ele>2</ele>
        <time>2019-11-04T13:38:13.000Z</time>
      </trkpt>
      <trkpt lat="36.18935887701809406280517578125" lon="-5.9119153954088687896728515625">
        <ele>3</ele>
        <time>2019-11-04T13:38:17.000Z</time>
      </trkpt>
      <trkpt lat="36.18915318511426448822021484375" lon="-5.91183652170002460479736328125">
        <ele>3.2000000476837158203125</ele>
        <time>2019-11-04T13:38:22.000Z</time>
      </trkpt>
      <trkpt lat="36.1889774166047573089599609375" lon="-5.91176577843725681304931640625">
        <ele>2.599999904632568359375</ele>
        <time>2019-11-04T13:38:26.000Z</time>
      </trkpt>
      <trkpt lat="36.18879058398306369781494140625" lon="-5.91169067658483982086181640625">
        <ele>2</ele>
        <time>2019-11-04T13:38:30.000Z</time>
      </trkpt>
      <trkpt lat="36.1886079423129558563232421875" lon="-5.9116066060960292816162109375">
        <ele>1.60000002384185791015625</ele>
        <time>2019-11-04T13:38:34.000Z</time>
      </trkpt>
      <trkpt lat="36.1884352751076221466064453125" lon="-5.911524631083011627197265625">
        <ele>2.400000095367431640625</ele>
        <time>2019-11-04T13:38:38.000Z</time>
      </trkpt>
      <trkpt lat="36.18826679885387420654296875" lon="-5.91144341044127941131591796875">
        <ele>3</ele>
        <time>2019-11-04T13:38:42.000Z</time>
      </trkpt>
      <trkpt lat="36.1880896054208278656005859375" lon="-5.91134802438318729400634765625">
        <ele>4</ele>
        <time>2019-11-04T13:38:46.000Z</time>
      </trkpt>
      <trkpt lat="36.18791148997843265533447265625" lon="-5.91125146485865116119384765625">
        <ele>4</ele>
        <time>2019-11-04T13:38:50.000Z</time>
      </trkpt>
      <trkpt lat="36.18773412890732288360595703125" lon="-5.91114132665097713470458984375">
        <ele>3.400000095367431640625</ele>
        <time>2019-11-04T13:38:54.000Z</time>
      </trkpt>
      <trkpt lat="36.1875534988939762115478515625" lon="-5.911020375788211822509765625">
        <ele>2.2000000476837158203125</ele>
        <time>2019-11-04T13:38:58.000Z</time>
      </trkpt>
      <trkpt lat="36.187368929386138916015625" lon="-5.910902358591556549072265625">
        <ele>2</ele>
        <time>2019-11-04T13:39:02.000Z</time>
      </trkpt>
      <trkpt lat="36.1871887184679508209228515625" lon="-5.9107717685401439666748046875">
        <ele>2.599999904632568359375</ele>
        <time>2019-11-04T13:39:06.000Z</time>
      </trkpt>
      <trkpt lat="36.18701395578682422637939453125" lon="-5.91063958592712879180908203125">
        <ele>3.400000095367431640625</ele>
        <time>2019-11-04T13:39:10.000Z</time>
      </trkpt>
      <trkpt lat="36.18683977983891963958740234375" lon="-5.910500697791576385498046875">
        <ele>4</ele>
        <time>2019-11-04T13:39:14.000Z</time>
      </trkpt>
      <trkpt lat="36.186671890318393707275390625" lon="-5.91035912744700908660888671875">
        <ele>3.7999999523162841796875</ele>
        <time>2019-11-04T13:39:18.000Z</time>
      </trkpt>
      <trkpt lat="36.18650701828300952911376953125" lon="-5.91021495871245861053466796875">
        <ele>4</ele>
        <time>2019-11-04T13:39:22.000Z</time>
      </trkpt>
      <trkpt lat="36.18634591810405254364013671875" lon="-5.91005872003734111785888671875">
        <ele>5</ele>
        <time>2019-11-04T13:39:26.000Z</time>
      </trkpt>
      <trkpt lat="36.18617962114512920379638671875" lon="-5.90989594347774982452392578125">
        <ele>4.599999904632568359375</ele>
        <time>2019-11-04T13:39:30.000Z</time>
      </trkpt>
      <trkpt lat="36.18601642549037933349609375" lon="-5.90973417274653911590576171875">
        <ele>4</ele>
        <time>2019-11-04T13:39:34.000Z</time>
      </trkpt>
      <trkpt lat="36.18585876189172267913818359375" lon="-5.90956888161599636077880859375">
        <ele>4</ele>
        <time>2019-11-04T13:39:38.000Z</time>
      </trkpt>
      <trkpt lat="36.18570252321660518646240234375" lon="-5.90939420275390148162841796875">
        <ele>3.599999904632568359375</ele>
        <time>2019-11-04T13:39:42.000Z</time>
      </trkpt>
      <trkpt lat="36.18555583991110324859619140625" lon="-5.90921315364539623260498046875">
        <ele>2.7999999523162841796875</ele>
        <time>2019-11-04T13:39:46.000Z</time>
      </trkpt>
      <trkpt lat="36.185405217111110687255859375" lon="-5.9090347029268741607666015625">
        <ele>2.2000000476837158203125</ele>
        <time>2019-11-04T13:39:50.000Z</time>
      </trkpt>
      <trkpt lat="36.185248978435993194580078125" lon="-5.908848457038402557373046875">
        <ele>2</ele>
        <time>2019-11-04T13:39:54.000Z</time>
      </trkpt>
      <trkpt lat="36.1850903928279876708984375" lon="-5.9086642228066921234130859375">
        <ele>1.60000002384185791015625</ele>
        <time>2019-11-04T13:39:58.000Z</time>
      </trkpt>
      <trkpt lat="36.1849308013916015625" lon="-5.90848107822239398956298828125">
        <ele>1</ele>
        <time>2019-11-04T13:40:02.000Z</time>
      </trkpt>
      <trkpt lat="36.18477229960262775421142578125" lon="-5.9082974307239055633544921875">
        <ele>1</ele>
        <time>2019-11-04T13:40:06.000Z</time>
      </trkpt>
      <trkpt lat="36.18461589328944683074951171875" lon="-5.90811378322541713714599609375">
        <ele>0.20000000298023223876953125</ele>
        <time>2019-11-04T13:40:10.000Z</time>
      </trkpt>
      <trkpt lat="36.184456050395965576171875" lon="-5.90793306939303874969482421875">
        <ele>1</ele>
        <time>2019-11-04T13:40:14.000Z</time>
      </trkpt>
      <trkpt lat="36.1842986382544040679931640625" lon="-5.90775017626583576202392578125">
        <ele>0.800000011920928955078125</ele>
        <time>2019-11-04T13:40:18.000Z</time>
      </trkpt>
      <trkpt lat="36.1841457523405551910400390625" lon="-5.907569713890552520751953125">
        <ele>1</ele>
        <time>2019-11-04T13:40:22.000Z</time>
      </trkpt>
      <trkpt lat="36.1839908547699451446533203125" lon="-5.90738941915333271026611328125">
        <ele>0.800000011920928955078125</ele>
        <time>2019-11-04T13:40:26.000Z</time>
      </trkpt>
      <trkpt lat="36.18383402936160564422607421875" lon="-5.90720837004482746124267578125">
        <ele>1.39999997615814208984375</ele>
        <time>2019-11-04T13:40:30.000Z</time>
      </trkpt>
      <trkpt lat="36.18367745541036128997802734375" lon="-5.907025225460529327392578125">
        <ele>2.400000095367431640625</ele>
        <time>2019-11-04T13:40:34.000Z</time>
      </trkpt>
      <trkpt lat="36.183521635830402374267578125" lon="-5.90684141032397747039794921875">
        <ele>3</ele>
        <time>2019-11-04T13:40:38.000Z</time>
      </trkpt>
      <trkpt lat="36.18336196057498455047607421875" lon="-5.906654410064220428466796875">
        <ele>3</ele>
        <time>2019-11-04T13:40:42.000Z</time>
      </trkpt>
      <trkpt lat="36.1832032911479473114013671875" lon="-5.90646740980446338653564453125">
        <ele>2.7999999523162841796875</ele>
        <time>2019-11-04T13:40:46.000Z</time>
      </trkpt>
      <trkpt lat="36.18304545991122722625732421875" lon="-5.9062861092388629913330078125">
        <ele>1.7999999523162841796875</ele>
        <time>2019-11-04T13:40:50.000Z</time>
      </trkpt>
      <trkpt lat="36.18289324454963207244873046875" lon="-5.9061010368168354034423828125">
        <ele>1</ele>
        <time>2019-11-04T13:40:54.000Z</time>
      </trkpt>
      <trkpt lat="36.1827385984361171722412109375" lon="-5.9059193171560764312744140625">
        <ele>1</ele>
        <time>2019-11-04T13:40:58.000Z</time>
      </trkpt>
      <trkpt lat="36.18258127011358737945556640625" lon="-5.9057399444282054901123046875">
        <ele>0.800000011920928955078125</ele>
        <time>2019-11-04T13:41:02.000Z</time>
      </trkpt>
      <trkpt lat="36.18242486380040645599365234375" lon="-5.9055649302899837493896484375">
        <ele>1.60000002384185791015625</ele>
        <time>2019-11-04T13:41:06.000Z</time>
      </trkpt>
      <trkpt lat="36.1822685413062572479248046875" lon="-5.90538136661052703857421875">
        <ele>3.599999904632568359375</ele>
        <time>2019-11-04T13:41:10.000Z</time>
      </trkpt>
      <trkpt lat="36.18210953660309314727783203125" lon="-5.9052011556923389434814453125">
        <ele>4.599999904632568359375</ele>
        <time>2019-11-04T13:41:14.000Z</time>
      </trkpt>
      <trkpt lat="36.18195514194667339324951171875" lon="-5.90501532889902591705322265625">
        <ele>3.400000095367431640625</ele>
        <time>2019-11-04T13:41:18.000Z</time>
      </trkpt>
      <trkpt lat="36.1818004958331584930419921875" lon="-5.904837884008884429931640625">
        <ele>0.800000011920928955078125</ele>
        <time>2019-11-04T13:41:22.000Z</time>
      </trkpt>
      <trkpt lat="36.18164844810962677001953125" lon="-5.90466194786131381988525390625">
        <ele>-0.60000002384185791015625</ele>
        <time>2019-11-04T13:41:26.000Z</time>
      </trkpt>
      <trkpt lat="36.181495226919651031494140625" lon="-5.9044856764376163482666015625">
        <ele>-0.60000002384185791015625</ele>
        <time>2019-11-04T13:41:30.000Z</time>
      </trkpt>
      <trkpt lat="36.1813411675393581390380859375" lon="-5.90430848300457000732421875">
        <ele>-1</ele>
        <time>2019-11-04T13:41:34.000Z</time>
      </trkpt>
      <trkpt lat="36.18118400685489177703857421875" lon="-5.9041292779147624969482421875">
        <ele>0.800000011920928955078125</ele>
        <time>2019-11-04T13:41:38.000Z</time>
      </trkpt>
      <trkpt lat="36.18102743290364742279052734375" lon="-5.90395300649106502532958984375">
        <ele>2</ele>
        <time>2019-11-04T13:41:42.000Z</time>
      </trkpt>
      <trkpt lat="36.18087060749530792236328125" lon="-5.90377564541995525360107421875">
        <ele>2.599999904632568359375</ele>
        <time>2019-11-04T13:41:46.000Z</time>
      </trkpt>
      <trkpt lat="36.18071638047695159912109375" lon="-5.90359744615852832794189453125">
        <ele>3</ele>
        <time>2019-11-04T13:41:50.000Z</time>
      </trkpt>
      <trkpt lat="36.18055519647896289825439453125" lon="-5.90341572649776935577392578125">
        <ele>2.2000000476837158203125</ele>
        <time>2019-11-04T13:41:54.000Z</time>
      </trkpt>
      <trkpt lat="36.180393509566783905029296875" lon="-5.9032364375889301300048828125">
        <ele>1</ele>
        <time>2019-11-04T13:41:58.000Z</time>
      </trkpt>
      <trkpt lat="36.18023266084492206573486328125" lon="-5.9030552208423614501953125">
        <ele>0</ele>
        <time>2019-11-04T13:42:02.000Z</time>
      </trkpt>
      <trkpt lat="36.1800775118172168731689453125" lon="-5.90287827886641025543212890625">
        <ele>0.4000000059604644775390625</ele>
        <time>2019-11-04T13:42:06.000Z</time>
      </trkpt>
      <trkpt lat="36.1799212731420993804931640625" lon="-5.90269521810114383697509765625">
        <ele>0.4000000059604644775390625</ele>
        <time>2019-11-04T13:42:10.000Z</time>
      </trkpt>
      <trkpt lat="36.17976143024861812591552734375" lon="-5.902510397136211395263671875">
        <ele>2</ele>
        <time>2019-11-04T13:42:14.000Z</time>
      </trkpt>
      <trkpt lat="36.1796014197170734405517578125" lon="-5.90233303606510162353515625">
        <ele>3.2000000476837158203125</ele>
        <time>2019-11-04T13:42:18.000Z</time>
      </trkpt>
      <trkpt lat="36.1794445104897022247314453125" lon="-5.90215374715626239776611328125">
        <ele>4.400000095367431640625</ele>
        <time>2019-11-04T13:42:22.000Z</time>
      </trkpt>
      <trkpt lat="36.17928902618587017059326171875" lon="-5.9019798226654529571533203125">
        <ele>4.80000019073486328125</ele>
        <time>2019-11-04T13:42:26.000Z</time>
      </trkpt>
      <trkpt lat="36.179134882986545562744140625" lon="-5.901806652545928955078125">
        <ele>4.80000019073486328125</ele>
        <time>2019-11-04T13:42:30.000Z</time>
      </trkpt>
      <trkpt lat="36.178981326520442962646484375" lon="-5.9016341529786586761474609375">
        <ele>4.400000095367431640625</ele>
        <time>2019-11-04T13:42:34.000Z</time>
      </trkpt>
      <trkpt lat="36.178825087845325469970703125" lon="-5.90145821683108806610107421875">
        <ele>3.2000000476837158203125</ele>
        <time>2019-11-04T13:42:38.000Z</time>
      </trkpt>
      <trkpt lat="36.1786683462560176849365234375" lon="-5.901280939579010009765625">
        <ele>3.400000095367431640625</ele>
        <time>2019-11-04T13:42:42.000Z</time>
      </trkpt>
      <trkpt lat="36.178513951599597930908203125" lon="-5.90110030956566333770751953125">
        <ele>4</ele>
        <time>2019-11-04T13:42:46.000Z</time>
      </trkpt>
      <trkpt lat="36.17835737764835357666015625" lon="-5.9009230323135852813720703125">
        <ele>4</ele>
        <time>2019-11-04T13:42:50.000Z</time>
      </trkpt>
      <trkpt lat="36.178205497562885284423828125" lon="-5.900741480290889739990234375">
        <ele>3.7999999523162841796875</ele>
        <time>2019-11-04T13:42:54.000Z</time>
      </trkpt>
      <trkpt lat="36.17804867215454578399658203125" lon="-5.90056688524782657623291015625">
        <ele>3</ele>
        <time>2019-11-04T13:42:58.000Z</time>
      </trkpt>
      <trkpt lat="36.17789335548877716064453125" lon="-5.9003932960331439971923828125">
        <ele>2</ele>
        <time>2019-11-04T13:43:02.000Z</time>
      </trkpt>
      <trkpt lat="36.1777409724891185760498046875" lon="-5.90021618641912937164306640625">
        <ele>1.60000002384185791015625</ele>
        <time>2019-11-04T13:43:06.000Z</time>
      </trkpt>
      <trkpt lat="36.1775830574333667755126953125" lon="-5.90003765188157558441162109375">
        <ele>1.60000002384185791015625</ele>
        <time>2019-11-04T13:43:10.000Z</time>
      </trkpt>
      <trkpt lat="36.1774271540343761444091796875" lon="-5.89985325001180171966552734375">
        <ele>2</ele>
        <time>2019-11-04T13:43:14.000Z</time>
      </trkpt>
      <trkpt lat="36.1772692389786243438720703125" lon="-5.89966448955237865447998046875">
        <ele>2.599999904632568359375</ele>
        <time>2019-11-04T13:43:18.000Z</time>
      </trkpt>
      <trkpt lat="36.1771103180944919586181640625" lon="-5.89947271160781383514404296875">
        <ele>2.7999999523162841796875</ele>
        <time>2019-11-04T13:43:22.000Z</time>
      </trkpt>
      <trkpt lat="36.17695198394358158111572265625" lon="-5.89928110130131244659423828125">
        <ele>2.599999904632568359375</ele>
        <time>2019-11-04T13:43:26.000Z</time>
      </trkpt>
      <trkpt lat="36.17679364979267120361328125" lon="-5.89908664114773273468017578125">
        <ele>3.599999904632568359375</ele>
        <time>2019-11-04T13:43:30.000Z</time>
      </trkpt>
      <trkpt lat="36.17663598619401454925537109375" lon="-5.898894779384136199951171875">
        <ele>4.400000095367431640625</ele>
        <time>2019-11-04T13:43:34.000Z</time>
      </trkpt>
      <trkpt lat="36.17648192681372165679931640625" lon="-5.89870660565793514251708984375">
        <ele>4</ele>
        <time>2019-11-04T13:43:38.000Z</time>
      </trkpt>
      <trkpt lat="36.1763297952711582183837890625" lon="-5.89852019213140010833740234375">
        <ele>2.2000000476837158203125</ele>
        <time>2019-11-04T13:43:42.000Z</time>
      </trkpt>
      <trkpt lat="36.176173053681850433349609375" lon="-5.89833763428032398223876953125">
        <ele>1.60000002384185791015625</ele>
        <time>2019-11-04T13:43:46.000Z</time>
      </trkpt>
      <trkpt lat="36.1760218441486358642578125" lon="-5.8981509692966938018798828125">
        <ele>2</ele>
        <time>2019-11-04T13:43:50.000Z</time>
      </trkpt>
      <trkpt lat="36.17587088607251644134521484375" lon="-5.8979648910462856292724609375">
        <ele>1.60000002384185791015625</ele>
        <time>2019-11-04T13:43:54.000Z</time>
      </trkpt>
      <trkpt lat="36.1757192574441432952880859375" lon="-5.897774286568164825439453125">
        <ele>2</ele>
        <time>2019-11-04T13:43:58.000Z</time>
      </trkpt>
      <trkpt lat="36.1755630187690258026123046875" lon="-5.8975803293287754058837890625">
        <ele>2.7999999523162841796875</ele>
        <time>2019-11-04T13:44:02.000Z</time>
      </trkpt>
      <trkpt lat="36.175405271351337432861328125" lon="-5.89738838374614715576171875">
        <ele>3.7999999523162841796875</ele>
        <time>2019-11-04T13:44:06.000Z</time>
      </trkpt>
      <trkpt lat="36.175249032676219940185546875" lon="-5.8972012996673583984375">
        <ele>4</ele>
        <time>2019-11-04T13:44:10.000Z</time>
      </trkpt>
      <trkpt lat="36.17509304545819759368896484375" lon="-5.89701547287404537200927734375">
        <ele>4.80000019073486328125</ele>
        <time>2019-11-04T13:44:14.000Z</time>
      </trkpt>
      <trkpt lat="36.17493747733533382415771484375" lon="-5.896828472614288330078125">
        <ele>4.19999980926513671875</ele>
        <time>2019-11-04T13:44:18.000Z</time>
      </trkpt>
      <trkpt lat="36.174779646098613739013671875" lon="-5.89664029888808727264404296875">
        <ele>2.599999904632568359375</ele>
        <time>2019-11-04T13:44:22.000Z</time>
      </trkpt>
      <trkpt lat="36.174620054662227630615234375" lon="-5.89644885621964931488037109375">
        <ele>2</ele>
        <time>2019-11-04T13:44:26.000Z</time>
      </trkpt>
      <trkpt lat="36.174462139606475830078125" lon="-5.89625473134219646453857421875">
        <ele>2</ele>
        <time>2019-11-04T13:44:30.000Z</time>
      </trkpt>
      <trkpt lat="36.17430347017943859100341796875" lon="-5.8960640430450439453125">
        <ele>3</ele>
        <time>2019-11-04T13:44:34.000Z</time>
      </trkpt>
      <trkpt lat="36.17414790205657482147216796875" lon="-5.89587318710982799530029296875">
        <ele>3.400000095367431640625</ele>
        <time>2019-11-04T13:44:38.000Z</time>
      </trkpt>
      <trkpt lat="36.1739932559430599212646484375" lon="-5.8956853486597537994384765625">
        <ele>4.400000095367431640625</ele>
        <time>2019-11-04T13:44:42.000Z</time>
      </trkpt>
      <trkpt lat="36.1738400347530841827392578125" lon="-5.8954982645809650421142578125">
        <ele>4.19999980926513671875</ele>
        <time>2019-11-04T13:44:46.000Z</time>
      </trkpt>
      <trkpt lat="36.1736858077347278594970703125" lon="-5.8953101746737957000732421875">
        <ele>4</ele>
        <time>2019-11-04T13:44:50.000Z</time>
      </trkpt>
      <trkpt lat="36.1735299043357372283935546875" lon="-5.895117223262786865234375">
        <ele>4</ele>
        <time>2019-11-04T13:44:54.000Z</time>
      </trkpt>
      <trkpt lat="36.17337089963257312774658203125" lon="-5.89492502622306346893310546875">
        <ele>4</ele>
        <time>2019-11-04T13:44:58.000Z</time>
      </trkpt>
      <trkpt lat="36.17321290075778961181640625" lon="-5.89473031461238861083984375">
        <ele>4.19999980926513671875</ele>
        <time>2019-11-04T13:45:02.000Z</time>
      </trkpt>
      <trkpt lat="36.1730539798736572265625" lon="-5.89454046450555324554443359375">
        <ele>4</ele>
        <time>2019-11-04T13:45:06.000Z</time>
      </trkpt>
      <trkpt lat="36.1729009263217449188232421875" lon="-5.89435036294162273406982421875">
        <ele>3.7999999523162841796875</ele>
        <time>2019-11-04T13:45:10.000Z</time>
      </trkpt>
      <trkpt lat="36.17274644784629344940185546875" lon="-5.8941625244915485382080078125">
        <ele>3.400000095367431640625</ele>
        <time>2019-11-04T13:45:14.000Z</time>
      </trkpt>
      <trkpt lat="36.17259255610406398773193359375" lon="-5.89397787116467952728271484375">
        <ele>3.599999904632568359375</ele>
        <time>2019-11-04T13:45:18.000Z</time>
      </trkpt>
      <trkpt lat="36.17244067601859569549560546875" lon="-5.8937895298004150390625">
        <ele>3.7999999523162841796875</ele>
        <time>2019-11-04T13:45:22.000Z</time>
      </trkpt>
      <trkpt lat="36.17228259332478046417236328125" lon="-5.8936052955687046051025390625">
        <ele>3.599999904632568359375</ele>
        <time>2019-11-04T13:45:26.000Z</time>
      </trkpt>
      <trkpt lat="36.1721234209835529327392578125" lon="-5.8934202231466770172119140625">
        <ele>4.19999980926513671875</ele>
        <time>2019-11-04T13:45:30.000Z</time>
      </trkpt>
      <trkpt lat="36.17196240462362766265869140625" lon="-5.8932401798665523529052734375">
        <ele>5.400000095367431640625</ele>
        <time>2019-11-04T13:45:34.000Z</time>
      </trkpt>
      <trkpt lat="36.1718008853495121002197265625" lon="-5.89305661618709564208984375">
        <ele>6</ele>
        <time>2019-11-04T13:45:38.000Z</time>
      </trkpt>
      <trkpt lat="36.17164456285536289215087890625" lon="-5.8928774110972881317138671875">
        <ele>6.80000019073486328125</ele>
        <time>2019-11-04T13:45:42.000Z</time>
      </trkpt>
      <trkpt lat="36.17148849181830883026123046875" lon="-5.89270449243485927581787109375">
        <ele>7</ele>
        <time>2019-11-04T13:45:46.000Z</time>
      </trkpt>
      <trkpt lat="36.17133292369544506072998046875" lon="-5.89252595789730548858642578125">
        <ele>6.80000019073486328125</ele>
        <time>2019-11-04T13:45:50.000Z</time>
      </trkpt>
      <trkpt lat="36.17117802612483501434326171875" lon="-5.892350189387798309326171875">
        <ele>7</ele>
        <time>2019-11-04T13:45:54.000Z</time>
      </trkpt>
      <trkpt lat="36.1710210330784320831298828125" lon="-5.8921729959547519683837890625">
        <ele>6.400000095367431640625</ele>
        <time>2019-11-04T13:45:58.000Z</time>
      </trkpt>
      <trkpt lat="36.17086068727076053619384765625" lon="-5.89199312031269073486328125">
        <ele>5</ele>
        <time>2019-11-04T13:46:02.000Z</time>
      </trkpt>
      <trkpt lat="36.170701347291469573974609375" lon="-5.89181073009967803955078125">
        <ele>4</ele>
        <time>2019-11-04T13:46:06.000Z</time>
      </trkpt>
      <trkpt lat="36.17054334841668605804443359375" lon="-5.89162968099117279052734375">
        <ele>5.19999980926513671875</ele>
        <time>2019-11-04T13:46:10.000Z</time>
      </trkpt>
      <trkpt lat="36.17038627155125141143798828125" lon="-5.8914412558078765869140625">
        <ele>5.19999980926513671875</ele>
        <time>2019-11-04T13:46:14.000Z</time>
      </trkpt>
      <trkpt lat="36.17022500373423099517822265625" lon="-5.8912508189678192138671875">
        <ele>4.19999980926513671875</ele>
        <time>2019-11-04T13:46:18.000Z</time>
      </trkpt>
      <trkpt lat="36.17006599903106689453125" lon="-5.8910662494599819183349609375">
        <ele>3.400000095367431640625</ele>
        <time>2019-11-04T13:46:22.000Z</time>
      </trkpt>
      <trkpt lat="36.1699079163372516632080078125" lon="-5.89087086729705333709716796875">
        <ele>3.7999999523162841796875</ele>
        <time>2019-11-04T13:46:26.000Z</time>
      </trkpt>
      <trkpt lat="36.16975243203341960906982421875" lon="-5.89067406021058559417724609375">
        <ele>4.599999904632568359375</ele>
        <time>2019-11-04T13:46:30.000Z</time>
      </trkpt>
      <trkpt lat="36.16959703154861927032470703125" lon="-5.89048328809440135955810546875">
        <ele>6.19999980926513671875</ele>
        <time>2019-11-04T13:46:34.000Z</time>
      </trkpt>
      <trkpt lat="36.169444061815738677978515625" lon="-5.8902917616069316864013671875">
        <ele>6.400000095367431640625</ele>
        <time>2019-11-04T13:46:38.000Z</time>
      </trkpt>
      <trkpt lat="36.16929260082542896270751953125" lon="-5.89009822346270084381103515625">
        <ele>6</ele>
        <time>2019-11-04T13:46:42.000Z</time>
      </trkpt>
      <trkpt lat="36.169163770973682403564453125" lon="-5.88993460871279239654541015625">
        <ele>5.599999904632568359375</ele>
        <time>2019-11-04T13:46:46.000Z</time>
      </trkpt>
      <trkpt lat="36.16902387700974941253662109375" lon="-5.8897449262440204620361328125">
        <ele>5.400000095367431640625</ele>
        <time>2019-11-04T13:46:51.000Z</time>
      </trkpt>
      <trkpt lat="36.168877445161342620849609375" lon="-5.88954853825271129608154296875">
        <ele>4.599999904632568359375</ele>
        <time>2019-11-04T13:46:56.000Z</time>
      </trkpt>
      <trkpt lat="36.1687522195279598236083984375" lon="-5.88937000371515750885009765625">
        <ele>3.7999999523162841796875</ele>
        <time>2019-11-04T13:47:00.000Z</time>
      </trkpt>
      <trkpt lat="36.16862925700843334197998046875" lon="-5.88919482193887233734130859375">
        <ele>3.599999904632568359375</ele>
        <time>2019-11-04T13:47:04.000Z</time>
      </trkpt>
      <trkpt lat="36.1685098148882389068603515625" lon="-5.8890163712203502655029296875">
        <ele>3</ele>
        <time>2019-11-04T13:47:08.000Z</time>
      </trkpt>
      <trkpt lat="36.16838484071195125579833984375" lon="-5.8888356573879718780517578125">
        <ele>4.599999904632568359375</ele>
        <time>2019-11-04T13:47:12.000Z</time>
      </trkpt>
      <trkpt lat="36.16827134974300861358642578125" lon="-5.888660140335559844970703125">
        <ele>4.599999904632568359375</ele>
        <time>2019-11-04T13:47:16.000Z</time>
      </trkpt>
      <trkpt lat="36.16813682019710540771484375" lon="-5.8884668536484241485595703125">
        <ele>5.599999904632568359375</ele>
        <time>2019-11-04T13:47:21.000Z</time>
      </trkpt>
      <trkpt lat="36.16799692623317241668701171875" lon="-5.88826476596295833587646484375">
        <ele>5.80000019073486328125</ele>
        <time>2019-11-04T13:47:26.000Z</time>
      </trkpt>
      <trkpt lat="36.16785828955471515655517578125" lon="-5.88805136270821094512939453125">
        <ele>6.80000019073486328125</ele>
        <time>2019-11-04T13:47:31.000Z</time>
      </trkpt>
      <trkpt lat="36.16771495901048183441162109375" lon="-5.88784013874828815460205078125">
        <ele>7.400000095367431640625</ele>
        <time>2019-11-04T13:47:36.000Z</time>
      </trkpt>
      <trkpt lat="36.16757330484688282012939453125" lon="-5.88762807659804821014404296875">
        <ele>8.6000003814697265625</ele>
        <time>2019-11-04T13:47:41.000Z</time>
      </trkpt>
      <trkpt lat="36.1674325726926326751708984375" lon="-5.88742154650390148162841796875">
        <ele>8.80000019073486328125</ele>
        <time>2019-11-04T13:47:46.000Z</time>
      </trkpt>
      <trkpt lat="36.16729351691901683807373046875" lon="-5.887218452990055084228515625">
        <ele>9</ele>
        <time>2019-11-04T13:47:51.000Z</time>
      </trkpt>
      <trkpt lat="36.1671549640595912933349609375" lon="-5.88701334781944751739501953125">
        <ele>9.19999980926513671875</ele>
        <time>2019-11-04T13:47:56.000Z</time>
      </trkpt>
      <trkpt lat="36.16704038344323635101318359375" lon="-5.8868327178061008453369140625">
        <ele>9.6000003814697265625</ele>
        <time>2019-11-04T13:48:00.000Z</time>
      </trkpt>
      <trkpt lat="36.1668964661657810211181640625" lon="-5.88662073947489261627197265625">
        <ele>10.19999980926513671875</ele>
        <time>2019-11-04T13:48:05.000Z</time>
      </trkpt>
      <trkpt lat="36.1667569912970066070556640625" lon="-5.886409096419811248779296875">
        <ele>10</ele>
        <time>2019-11-04T13:48:10.000Z</time>
      </trkpt>
      <trkpt lat="36.1666245572268962860107421875" lon="-5.88619418442249298095703125">
        <ele>10.19999980926513671875</ele>
        <time>2019-11-04T13:48:15.000Z</time>
      </trkpt>
      <trkpt lat="36.16650863550603389739990234375" lon="-5.8859596587717533111572265625">
        <ele>9.19999980926513671875</ele>
        <time>2019-11-04T13:48:20.000Z</time>
      </trkpt>
      <trkpt lat="36.16643101908266544342041015625" lon="-5.88575539179146289825439453125">
        <ele>9.19999980926513671875</ele>
        <time>2019-11-04T13:48:24.000Z</time>
      </trkpt>
      <trkpt lat="36.16636228747665882110595703125" lon="-5.88553980924189090728759765625">
        <ele>8.80000019073486328125</ele>
        <time>2019-11-04T13:48:28.000Z</time>
      </trkpt>
      <trkpt lat="36.166297160089015960693359375" lon="-5.88531366549432277679443359375">
        <ele>8.19999980926513671875</ele>
        <time>2019-11-04T13:48:32.000Z</time>
      </trkpt>
      <trkpt lat="36.166227757930755615234375" lon="-5.885083414614200592041015625">
        <ele>8.80000019073486328125</ele>
        <time>2019-11-04T13:48:36.000Z</time>
      </trkpt>
      <trkpt lat="36.16616212762892246246337890625" lon="-5.88486540131270885467529296875">
        <ele>8.80000019073486328125</ele>
        <time>2019-11-04T13:48:40.000Z</time>
      </trkpt>
      <trkpt lat="36.16608627140522003173828125" lon="-5.8846068195998668670654296875">
        <ele>9.80000019073486328125</ele>
        <time>2019-11-04T13:48:45.000Z</time>
      </trkpt>
      <trkpt lat="36.1660260893404483795166015625" lon="-5.8843959309160709381103515625">
        <ele>11.19999980926513671875</ele>
        <time>2019-11-04T13:48:49.000Z</time>
      </trkpt>
      <trkpt lat="36.1659496463835239410400390625" lon="-5.88414095342159271240234375">
        <ele>12.80000019073486328125</ele>
        <time>2019-11-04T13:48:54.000Z</time>
      </trkpt>
      <trkpt lat="36.1658755503594875335693359375" lon="-5.88388924486935138702392578125">
        <ele>13.80000019073486328125</ele>
        <time>2019-11-04T13:48:59.000Z</time>
      </trkpt>
      <trkpt lat="36.1658011190593242645263671875" lon="-5.8836294896900653839111328125">
        <ele>13.80000019073486328125</ele>
        <time>2019-11-04T13:49:04.000Z</time>
      </trkpt>
      <trkpt lat="36.16573213599622249603271484375" lon="-5.883374512195587158203125">
        <ele>15.19999980926513671875</ele>
        <time>2019-11-04T13:49:09.000Z</time>
      </trkpt>
      <trkpt lat="36.1656770668923854827880859375" lon="-5.8831183612346649169921875">
        <ele>15.6000003814697265625</ele>
        <time>2019-11-04T13:49:14.000Z</time>
      </trkpt>
      <trkpt lat="36.16565351374447345733642578125" lon="-5.8828439377248287200927734375">
        <ele>15.6000003814697265625</ele>
        <time>2019-11-04T13:49:19.000Z</time>
      </trkpt>
      <trkpt lat="36.1656599678099155426025390625" lon="-5.882612764835357666015625">
        <ele>15.80000019073486328125</ele>
        <time>2019-11-04T13:49:23.000Z</time>
      </trkpt>
      <trkpt lat="36.16568620316684246063232421875" lon="-5.88235820643603801727294921875">
        <ele>15</ele>
        <time>2019-11-04T13:49:27.000Z</time>
      </trkpt>
      <trkpt lat="36.16572593338787555694580078125" lon="-5.8820835314691066741943359375">
        <ele>14</ele>
        <time>2019-11-04T13:49:31.000Z</time>
      </trkpt>
      <trkpt lat="36.16577220149338245391845703125" lon="-5.88179494254291057586669921875">
        <ele>12.19999980926513671875</ele>
        <time>2019-11-04T13:49:35.000Z</time>
      </trkpt>
      <trkpt lat="36.16581360809504985809326171875" lon="-5.88149956427514553070068359375">
        <ele>10.19999980926513671875</ele>
        <time>2019-11-04T13:49:39.000Z</time>
      </trkpt>
      <trkpt lat="36.16584084928035736083984375" lon="-5.88127073831856250762939453125">
        <ele>10</ele>
        <time>2019-11-04T13:49:42.000Z</time>
      </trkpt>
      <trkpt lat="36.16587865166366100311279296875" lon="-5.88104107417166233062744140625">
        <ele>10</ele>
        <time>2019-11-04T13:49:45.000Z</time>
      </trkpt>
      <trkpt lat="36.16591033525764942169189453125" lon="-5.8807984180748462677001953125">
        <ele>10</ele>
        <time>2019-11-04T13:49:48.000Z</time>
      </trkpt>
      <trkpt lat="36.16594704799354076385498046875" lon="-5.88054738007485866546630859375">
        <ele>9.80000019073486328125</ele>
        <time>2019-11-04T13:49:51.000Z</time>
      </trkpt>
      <trkpt lat="36.16598493419587612152099609375" lon="-5.88028871454298496246337890625">
        <ele>9.3999996185302734375</ele>
        <time>2019-11-04T13:49:54.000Z</time>
      </trkpt>
      <trkpt lat="36.16602365858852863311767578125" lon="-5.880024433135986328125">
        <ele>8.80000019073486328125</ele>
        <time>2019-11-04T13:49:57.000Z</time>
      </trkpt>
      <trkpt lat="36.1660574376583099365234375" lon="-5.879756547510623931884765625">
        <ele>7.80000019073486328125</ele>
        <time>2019-11-04T13:50:00.000Z</time>
      </trkpt>
      <trkpt lat="36.166095323860645294189453125" lon="-5.8794958703219890594482421875">
        <ele>7</ele>
        <time>2019-11-04T13:50:03.000Z</time>
      </trkpt>
      <trkpt lat="36.1661300249397754669189453125" lon="-5.87924382649362087249755859375">
        <ele>7</ele>
        <time>2019-11-04T13:50:06.000Z</time>
      </trkpt>
      <trkpt lat="36.16616941988468170166015625" lon="-5.87899371050298213958740234375">
        <ele>6.599999904632568359375</ele>
        <time>2019-11-04T13:50:09.000Z</time>
      </trkpt>
      <trkpt lat="36.166202612221240997314453125" lon="-5.87876580655574798583984375">
        <ele>6</ele>
        <time>2019-11-04T13:50:12.000Z</time>
      </trkpt>
      <trkpt lat="36.16623379290103912353515625" lon="-5.87851091288030147552490234375">
        <ele>5.19999980926513671875</ele>
        <time>2019-11-04T13:50:16.000Z</time>
      </trkpt>
      <trkpt lat="36.16624653339385986328125" lon="-5.8783874474465847015380859375">
        <ele>4.80000019073486328125</ele>
        <time>2019-11-04T13:50:19.000Z</time>
      </trkpt>
      <trkpt lat="36.16625483147799968719482421875" lon="-5.87839390151202678680419921875">
        <ele>4.80000019073486328125</ele>
        <time>2019-11-04T13:50:25.000Z</time>
      </trkpt>
      <trkpt lat="36.16623085923492908477783203125" lon="-5.8785356394946575164794921875">
        <ele>5.400000095367431640625</ele>
        <time>2019-11-04T13:51:43.000Z</time>
      </trkpt>
      <trkpt lat="36.16622515954077243804931640625" lon="-5.87852583266794681549072265625">
        <ele>5.400000095367431640625</ele>
        <time>2019-11-04T13:51:47.000Z</time>
      </trkpt>
      <trkpt lat="36.16609775461256504058837890625" lon="-5.87853647768497467041015625">
        <ele>5</ele>
        <time>2019-11-04T13:52:06.000Z</time>
      </trkpt>
      <trkpt lat="36.16591402329504489898681640625" lon="-5.8784930594265460968017578125">
        <ele>4.19999980926513671875</ele>
        <time>2019-11-04T13:52:21.000Z</time>
      </trkpt>
      <trkpt lat="36.16585635580122470855712890625" lon="-5.878471098840236663818359375">
        <ele>4.19999980926513671875</ele>
        <time>2019-11-04T13:52:26.000Z</time>
      </trkpt>
      <trkpt lat="36.1658235825598239898681640625" lon="-5.87849280796945095062255859375">
        <ele>4.19999980926513671875</ele>
        <time>2019-11-04T13:52:32.000Z</time>
      </trkpt>
      <trkpt lat="36.16573666222393512725830078125" lon="-5.87853723205626010894775390625">
        <ele>4.400000095367431640625</ele>
        <time>2019-11-04T13:52:36.000Z</time>
      </trkpt>
      <trkpt lat="36.1655691079795360565185546875" lon="-5.878654830157756805419921875">
        <ele>4.80000019073486328125</ele>
        <time>2019-11-04T13:52:41.000Z</time>
      </trkpt>
      <trkpt lat="36.1653813533484935760498046875" lon="-5.87877846322953701019287109375">
        <ele>4.80000019073486328125</ele>
        <time>2019-11-04T13:52:46.000Z</time>
      </trkpt>
      <trkpt lat="36.165186055004596710205078125" lon="-5.8788979053497314453125">
        <ele>4.400000095367431640625</ele>
        <time>2019-11-04T13:52:51.000Z</time>
      </trkpt>
      <trkpt lat="36.16498597897589206695556640625" lon="-5.879009552299976348876953125">
        <ele>4</ele>
        <time>2019-11-04T13:52:56.000Z</time>
      </trkpt>
      <trkpt lat="36.1647825501859188079833984375" lon="-5.87912346236407756805419921875">
        <ele>4</ele>
        <time>2019-11-04T13:53:01.000Z</time>
      </trkpt>
      <trkpt lat="36.16460971534252166748046875" lon="-5.8792192675173282623291015625">
        <ele>3.7999999523162841796875</ele>
        <time>2019-11-04T13:53:05.000Z</time>
      </trkpt>
      <trkpt lat="36.164429672062397003173828125" lon="-5.87929964996874332427978515625">
        <ele>4.80000019073486328125</ele>
        <time>2019-11-04T13:53:09.000Z</time>
      </trkpt>
      <trkpt lat="36.16421283222734928131103515625" lon="-5.8793704770505428314208984375">
        <ele>4.599999904632568359375</ele>
        <time>2019-11-04T13:53:14.000Z</time>
      </trkpt>
      <trkpt lat="36.1640338785946369171142578125" lon="-5.87940123863518238067626953125">
        <ele>3.7999999523162841796875</ele>
        <time>2019-11-04T13:53:18.000Z</time>
      </trkpt>
      <trkpt lat="36.1638484708964824676513671875" lon="-5.8794061839580535888671875">
        <ele>3.2000000476837158203125</ele>
        <time>2019-11-04T13:53:22.000Z</time>
      </trkpt>
      <trkpt lat="36.16376490332186222076416015625" lon="-5.87939637713134288787841796875">
        <ele>3</ele>
        <time>2019-11-04T13:53:24.000Z</time>
      </trkpt>
      <trkpt lat="36.1636476404964923858642578125" lon="-5.87942537851631641387939453125">
        <ele>3</ele>
        <time>2019-11-04T13:53:27.000Z</time>
      </trkpt>
      <trkpt lat="36.16347908042371273040771484375" lon="-5.8795860596001148223876953125">
        <ele>3.2000000476837158203125</ele>
        <time>2019-11-04T13:53:32.000Z</time>
      </trkpt>
      <trkpt lat="36.163407079875469207763671875" lon="-5.87970650754868984222412109375">
        <ele>3.400000095367431640625</ele>
        <time>2019-11-04T13:53:35.000Z</time>
      </trkpt>
      <trkpt lat="36.16336424835026264190673828125" lon="-5.879785716533660888671875">
        <ele>3.599999904632568359375</ele>
        <time>2019-11-04T13:53:37.000Z</time>
      </trkpt>
      <trkpt lat="36.163192503154277801513671875" lon="-5.87986375205218791961669921875">
        <ele>4</ele>
        <time>2019-11-04T13:53:43.000Z</time>
      </trkpt>
      <trkpt lat="36.1630614101886749267578125" lon="-5.8797387778759002685546875">
        <ele>4</ele>
        <time>2019-11-04T13:53:48.000Z</time>
      </trkpt>
      <trkpt lat="36.1628982983529567718505859375" lon="-5.87958253920078277587890625">
        <ele>4.19999980926513671875</ele>
        <time>2019-11-04T13:53:54.000Z</time>
      </trkpt>
      <trkpt lat="36.16274566389620304107666015625" lon="-5.879452787339687347412109375">
        <ele>3.599999904632568359375</ele>
        <time>2019-11-04T13:54:00.000Z</time>
      </trkpt>
      <trkpt lat="36.16259696893393993377685546875" lon="-5.87927785702049732208251953125">
        <ele>3</ele>
        <time>2019-11-04T13:54:06.000Z</time>
      </trkpt>
      <trkpt lat="36.1624389700591564178466796875" lon="-5.87911323644220829010009765625">
        <ele>3</ele>
        <time>2019-11-04T13:54:12.000Z</time>
      </trkpt>
      <trkpt lat="36.1622914485633373260498046875" lon="-5.87893118150532245635986328125">
        <ele>3</ele>
        <time>2019-11-04T13:54:19.000Z</time>
      </trkpt>
      <trkpt lat="36.16218793205916881561279296875" lon="-5.8787200413644313812255859375">
        <ele>3.7999999523162841796875</ele>
        <time>2019-11-04T13:54:26.000Z</time>
      </trkpt>
      <trkpt lat="36.16215817630290985107421875" lon="-5.87861560285091400146484375">
        <ele>3.7999999523162841796875</ele>
        <time>2019-11-04T13:54:32.000Z</time>
      </trkpt>
      <trkpt lat="36.16215960122644901275634765625" lon="-5.878594815731048583984375">
        <ele>3.7999999523162841796875</ele>
        <time>2019-11-04T13:54:35.000Z</time>
      </trkpt>
      <trkpt lat="36.1620909534394741058349609375" lon="-5.87823179550468921661376953125">
        <ele>3.2000000476837158203125</ele>
        <time>2019-11-04T13:55:03.000Z</time>
      </trkpt>
      <trkpt lat="36.16209388710558414459228515625" lon="-5.87823011912405490875244140625">
        <ele>3.2000000476837158203125</ele>
        <time>2019-11-04T13:55:04.000Z</time>
      </trkpt>
      <trkpt lat="36.16209472529590129852294921875" lon="-5.8782327175140380859375">
        <ele>3.2000000476837158203125</ele>
        <time>2019-11-04T13:55:06.000Z</time>
      </trkpt>
      <trkpt lat="36.162006296217441558837890625" lon="-5.8781882934272289276123046875">
        <ele>3.400000095367431640625</ele>
        <time>2019-11-04T13:57:06.000Z</time>
      </trkpt>
      <trkpt lat="36.16207444109022617340087890625" lon="-5.87821067310869693756103515625">
        <ele>3</ele>
        <time>2019-11-04T13:57:12.000Z</time>
      </trkpt>
      <trkpt lat="36.162082068622112274169921875" lon="-5.8782050572335720062255859375">
        <ele>3</ele>
        <time>2019-11-04T13:57:15.000Z</time>
      </trkpt>
      <trkpt lat="36.16206337697803974151611328125" lon="-5.87821201421320438385009765625">
        <ele>3</ele>
        <time>2019-11-04T13:57:17.000Z</time>
      </trkpt>
      <trkpt lat="36.16203119046986103057861328125" lon="-5.8782151155173778533935546875">
        <ele>3.2000000476837158203125</ele>
        <time>2019-11-04T13:57:20.000Z</time>
      </trkpt>
      <trkpt lat="36.1619487963616847991943359375" lon="-5.8782104216516017913818359375">
        <ele>3.400000095367431640625</ele>
        <time>2019-11-04T13:57:28.000Z</time>
      </trkpt>
      <trkpt lat="36.16194837726652622222900390625" lon="-5.8782184682786464691162109375">
        <ele>3.400000095367431640625</ele>
        <time>2019-11-04T13:57:33.000Z</time>
      </trkpt>
      <trkpt lat="36.16194217465817928314208984375" lon="-5.87818871252238750457763671875">
        <ele>3.599999904632568359375</ele>
        <time>2019-11-05T08:18:13.000Z</time>
      </trkpt>
      <trkpt lat="36.161781661212444305419921875" lon="-5.87826716713607311248779296875">
        <ele>3.599999904632568359375</ele>
        <time>2019-11-05T08:18:18.000Z</time>
      </trkpt>
      <trkpt lat="36.16184595040977001190185546875" lon="-5.8781490661203861236572265625">
        <ele>4</ele>
        <time>2019-11-05T08:18:22.000Z</time>
      </trkpt>
      <trkpt lat="36.16190277971327304840087890625" lon="-5.87818150408565998077392578125">
        <ele>3.7999999523162841796875</ele>
        <time>2019-11-05T08:18:23.000Z</time>
      </trkpt>
      <trkpt lat="36.1619360558688640594482421875" lon="-5.87824721820652484893798828125">
        <ele>3.400000095367431640625</ele>
        <time>2019-11-05T08:18:32.000Z</time>
      </trkpt>
      <trkpt lat="36.1619102396070957183837890625" lon="-5.87817882187664508819580078125">
        <ele>3.7999999523162841796875</ele>
        <time>2019-11-05T08:18:43.000Z</time>
      </trkpt>
      <trkpt lat="36.161911748349666595458984375" lon="-5.87818435393273830413818359375">
        <ele>3.599999904632568359375</ele>
        <time>2019-11-05T08:18:44.000Z</time>
      </trkpt>
      <trkpt lat="36.16191409528255462646484375" lon="-5.87819541804492473602294921875">
        <ele>3.599999904632568359375</ele>
        <time>2019-11-05T08:18:47.000Z</time>
      </trkpt>
      <trkpt lat="36.1619082279503345489501953125" lon="-5.87824855931103229522705078125">
        <ele>3.400000095367431640625</ele>
        <time>2019-11-05T08:19:06.000Z</time>
      </trkpt>
      <trkpt lat="36.16189691238105297088623046875" lon="-5.87824453599750995635986328125">
        <ele>3.599999904632568359375</ele>
        <time>2019-11-05T08:19:07.000Z</time>
      </trkpt>
      <trkpt lat="36.16203881800174713134765625" lon="-5.87854376994073390960693359375">
        <ele>3.599999904632568359375</ele>
        <time>2019-11-05T08:28:23.000Z</time>
      </trkpt>
      <trkpt lat="36.1621065437793731689453125" lon="-5.8786238171160221099853515625">
        <ele>4</ele>
        <time>2019-11-05T08:28:28.000Z</time>
      </trkpt>
      <trkpt lat="36.162255071103572845458984375" lon="-5.87879187427461147308349609375">
        <ele>3.2000000476837158203125</ele>
        <time>2019-11-05T08:28:38.000Z</time>
      </trkpt>
      <trkpt lat="36.1623799614608287811279296875" lon="-5.87895632721483707427978515625">
        <ele>3</ele>
        <time>2019-11-05T08:28:46.000Z</time>
      </trkpt>
      <trkpt lat="36.16250711493194103240966796875" lon="-5.87914726696908473968505859375">
        <ele>3</ele>
        <time>2019-11-05T08:28:56.000Z</time>
      </trkpt>
      <trkpt lat="36.162646673619747161865234375" lon="-5.8792947046458721160888671875">
        <ele>3</ele>
        <time>2019-11-05T08:29:04.000Z</time>
      </trkpt>
      <trkpt lat="36.1627846397459506988525390625" lon="-5.87945588864386081695556640625">
        <ele>3.599999904632568359375</ele>
        <time>2019-11-05T08:29:12.000Z</time>
      </trkpt>
      <trkpt lat="36.1629371903836727142333984375" lon="-5.8795696310698986053466796875">
        <ele>4</ele>
        <time>2019-11-05T08:29:20.000Z</time>
      </trkpt>
      <trkpt lat="36.1630816943943500518798828125" lon="-5.8797039091587066650390625">
        <ele>4</ele>
        <time>2019-11-05T08:29:27.000Z</time>
      </trkpt>
      <trkpt lat="36.16324103437364101409912109375" lon="-5.8798046596348285675048828125">
        <ele>4</ele>
        <time>2019-11-05T08:29:37.000Z</time>
      </trkpt>
      <trkpt lat="36.16324924863874912261962890625" lon="-5.879799462854862213134765625">
        <ele>4</ele>
        <time>2019-11-05T08:29:39.000Z</time>
      </trkpt>
      <trkpt lat="36.16324807517230510711669921875" lon="-5.87980625219643115997314453125">
        <ele>4</ele>
        <time>2019-11-05T08:29:42.000Z</time>
      </trkpt>
      <trkpt lat="36.16339199244976043701171875" lon="-5.87965956889092922210693359375">
        <ele>3.400000095367431640625</ele>
        <time>2019-11-05T08:32:37.000Z</time>
      </trkpt>
      <trkpt lat="36.1635433696210384368896484375" lon="-5.8794884942471981048583984375">
        <ele>3</ele>
        <time>2019-11-05T08:32:45.000Z</time>
      </trkpt>
      <trkpt lat="36.16373036988079547882080078125" lon="-5.8793895877897739410400390625">
        <ele>3</ele>
        <time>2019-11-05T08:32:53.000Z</time>
      </trkpt>
      <trkpt lat="36.163911335170269012451171875" lon="-5.8793540485203266143798828125">
        <ele>3.400000095367431640625</ele>
        <time>2019-11-05T08:33:00.000Z</time>
      </trkpt>
      <trkpt lat="36.164114512503147125244140625" lon="-5.879337452352046966552734375">
        <ele>4.19999980926513671875</ele>
        <time>2019-11-05T08:33:08.000Z</time>
      </trkpt>
      <trkpt lat="36.1642933823168277740478515625" lon="-5.8792962133884429931640625">
        <ele>4.80000019073486328125</ele>
        <time>2019-11-05T08:33:15.000Z</time>
      </trkpt>
      <trkpt lat="36.16446713916957378387451171875" lon="-5.87921784259378910064697265625">
        <ele>4.400000095367431640625</ele>
        <time>2019-11-05T08:33:22.000Z</time>
      </trkpt>
      <trkpt lat="36.1646481044590473175048828125" lon="-5.87912664748728275299072265625">
        <ele>3.599999904632568359375</ele>
        <time>2019-11-05T08:33:29.000Z</time>
      </trkpt>
      <trkpt lat="36.1648331768810749053955078125" lon="-5.87903411127626895904541015625">
        <ele>3.7999999523162841796875</ele>
        <time>2019-11-05T08:33:36.000Z</time>
      </trkpt>
      <trkpt lat="36.1650118790566921234130859375" lon="-5.87893570773303508758544921875">
        <ele>4.19999980926513671875</ele>
        <time>2019-11-05T08:33:43.000Z</time>
      </trkpt>
      <trkpt lat="36.165184713900089263916015625" lon="-5.87882322259247303009033203125">
        <ele>4.599999904632568359375</ele>
        <time>2019-11-05T08:33:50.000Z</time>
      </trkpt>
      <trkpt lat="36.165367774665355682373046875" lon="-5.878735966980457305908203125">
        <ele>5</ele>
        <time>2019-11-05T08:33:57.000Z</time>
      </trkpt>
      <trkpt lat="36.16554287262260913848876953125" lon="-5.8786238171160221099853515625">
        <ele>4.80000019073486328125</ele>
        <time>2019-11-05T08:34:04.000Z</time>
      </trkpt>
      <trkpt lat="36.165707409381866455078125" lon="-5.8785118348896503448486328125">
        <ele>4.19999980926513671875</ele>
        <time>2019-11-05T08:34:11.000Z</time>
      </trkpt>
      <trkpt lat="36.16587898693978786468505859375" lon="-5.8784166164696216583251953125">
        <ele>4</ele>
        <time>2019-11-05T08:34:20.000Z</time>
      </trkpt>
      <trkpt lat="36.1658849380910396575927734375" lon="-5.87841619737446308135986328125">
        <ele>4</ele>
        <time>2019-11-05T08:34:21.000Z</time>
      </trkpt>
      <trkpt lat="36.1658849380910396575927734375" lon="-5.87841636501252651214599609375">
        <ele>4</ele>
        <time>2019-11-05T08:34:25.000Z</time>
      </trkpt>
      <trkpt lat="36.16627595387399196624755859375" lon="-5.87813423015177249908447265625">
        <ele>4.80000019073486328125</ele>
        <time>2019-11-05T08:36:34.000Z</time>
      </trkpt>
      <trkpt lat="36.166307218372821807861328125" lon="-5.87789182551205158233642578125">
        <ele>5</ele>
        <time>2019-11-05T08:36:41.000Z</time>
      </trkpt>
      <trkpt lat="36.1663399077951908111572265625" lon="-5.8776511810719966888427734375">
        <ele>5.400000095367431640625</ele>
        <time>2019-11-05T08:36:47.000Z</time>
      </trkpt>
      <trkpt lat="36.16637117229402065277099609375" lon="-5.87739394046366214752197265625">
        <ele>5.599999904632568359375</ele>
        <time>2019-11-05T08:36:53.000Z</time>
      </trkpt>
      <trkpt lat="36.1664029397070407867431640625" lon="-5.87713829241693019866943359375">
        <ele>5</ele>
        <time>2019-11-05T08:36:59.000Z</time>
      </trkpt>
      <trkpt lat="36.16643805988132953643798828125" lon="-5.87687945924699306488037109375">
        <ele>4.599999904632568359375</ele>
        <time>2019-11-05T08:37:05.000Z</time>
      </trkpt>
      <trkpt lat="36.16647326387465000152587890625" lon="-5.87662012316286563873291015625">
        <ele>4</ele>
        <time>2019-11-05T08:37:11.000Z</time>
      </trkpt>
      <trkpt lat="36.1665080487728118896484375" lon="-5.876400433480739593505859375">
        <ele>4</ele>
        <time>2019-11-05T08:37:16.000Z</time>
      </trkpt>
      <trkpt lat="36.16653830744326114654541015625" lon="-5.8761796541512012481689453125">
        <ele>4</ele>
        <time>2019-11-05T08:37:21.000Z</time>
      </trkpt>
      <trkpt lat="36.16657066158950328826904296875" lon="-5.8759573660790920257568359375">
        <ele>4</ele>
        <time>2019-11-05T08:37:26.000Z</time>
      </trkpt>
      <trkpt lat="36.16660636849701404571533203125" lon="-5.8757310546934604644775390625">
        <ele>3.7999999523162841796875</ele>
        <time>2019-11-05T08:37:31.000Z</time>
      </trkpt>
      <trkpt lat="36.16663989610970020294189453125" lon="-5.87550164200365543365478515625">
        <ele>4</ele>
        <time>2019-11-05T08:37:36.000Z</time>
      </trkpt>
      <trkpt lat="36.16667107678949832916259765625" lon="-5.87526594288647174835205078125">
        <ele>4.400000095367431640625</ele>
        <time>2019-11-05T08:37:41.000Z</time>
      </trkpt>
      <trkpt lat="36.16670208983123302459716796875" lon="-5.87503158487379550933837890625">
        <ele>4.80000019073486328125</ele>
        <time>2019-11-05T08:37:46.000Z</time>
      </trkpt>
      <trkpt lat="36.1667335219681262969970703125" lon="-5.87479756213724613189697265625">
        <ele>5.599999904632568359375</ele>
        <time>2019-11-05T08:37:51.000Z</time>
      </trkpt>
      <trkpt lat="36.16676629520952701568603515625" lon="-5.87456571869552135467529296875">
        <ele>6.599999904632568359375</ele>
        <time>2019-11-05T08:37:56.000Z</time>
      </trkpt>
      <trkpt lat="36.166798733174800872802734375" lon="-5.87433052249252796173095703125">
        <ele>6.80000019073486328125</ele>
        <time>2019-11-05T08:38:01.000Z</time>
      </trkpt>
      <trkpt lat="36.16683402098715305328369140625" lon="-5.8740898780524730682373046875">
        <ele>7</ele>
        <time>2019-11-05T08:38:06.000Z</time>
      </trkpt>
      <trkpt lat="36.16686813533306121826171875" lon="-5.87386599741876125335693359375">
        <ele>7.400000095367431640625</ele>
        <time>2019-11-05T08:38:11.000Z</time>
      </trkpt>
      <trkpt lat="36.16690032184123992919921875" lon="-5.87364337407052516937255859375">
        <ele>8.19999980926513671875</ele>
        <time>2019-11-05T08:38:16.000Z</time>
      </trkpt>
      <trkpt lat="36.1669309996068477630615234375" lon="-5.87341471575200557708740234375">
        <ele>9</ele>
        <time>2019-11-05T08:38:21.000Z</time>
      </trkpt>
      <trkpt lat="36.16696326993405818939208984375" lon="-5.873179771006107330322265625">
        <ele>8</ele>
        <time>2019-11-05T08:38:26.000Z</time>
      </trkpt>
      <trkpt lat="36.1669973842799663543701171875" lon="-5.87293895892798900604248046875">
        <ele>7.80000019073486328125</ele>
        <time>2019-11-05T08:38:31.000Z</time>
      </trkpt>
      <trkpt lat="36.16703309118747711181640625" lon="-5.872694961726665496826171875">
        <ele>7</ele>
        <time>2019-11-05T08:38:36.000Z</time>
      </trkpt>
      <trkpt lat="36.16705798543989658355712890625" lon="-5.87245699949562549591064453125">
        <ele>6</ele>
        <time>2019-11-05T08:38:41.000Z</time>
      </trkpt>
      <trkpt lat="36.167091093957424163818359375" lon="-5.872218869626522064208984375">
        <ele>6.19999980926513671875</ele>
        <time>2019-11-05T08:38:46.000Z</time>
      </trkpt>
      <trkpt lat="36.1671261303126811981201171875" lon="-5.87197353132069110870361328125">
        <ele>7</ele>
        <time>2019-11-05T08:38:51.000Z</time>
      </trkpt>
      <trkpt lat="36.16716183722019195556640625" lon="-5.87172274477779865264892578125">
        <ele>7</ele>
        <time>2019-11-05T08:38:56.000Z</time>
      </trkpt>
      <trkpt lat="36.16719444282352924346923828125" lon="-5.8714710362255573272705078125">
        <ele>7</ele>
        <time>2019-11-05T08:39:01.000Z</time>
      </trkpt>
      <trkpt lat="36.16722461767494678497314453125" lon="-5.871215723454952239990234375">
        <ele>7.599999904632568359375</ele>
        <time>2019-11-05T08:39:06.000Z</time>
      </trkpt>
      <trkpt lat="36.16723501123487949371337890625" lon="-5.87097541429102420806884765625">
        <ele>7.19999980926513671875</ele>
        <time>2019-11-05T08:39:11.000Z</time>
      </trkpt>
      <trkpt lat="36.16722847335040569305419921875" lon="-5.87073619477450847625732421875">
        <ele>7</ele>
        <time>2019-11-05T08:39:16.000Z</time>
      </trkpt>
      <trkpt lat="36.16720651276409626007080078125" lon="-5.87051541544497013092041015625">
        <ele>7</ele>
        <time>2019-11-05T08:39:21.000Z</time>
      </trkpt>
      <trkpt lat="36.167152784764766693115234375" lon="-5.87025892920792102813720703125">
        <ele>7.599999904632568359375</ele>
        <time>2019-11-05T08:39:27.000Z</time>
      </trkpt>
      <trkpt lat="36.1670889146625995635986328125" lon="-5.8700082264840602874755859375">
        <ele>8.3999996185302734375</ele>
        <time>2019-11-05T08:39:33.000Z</time>
      </trkpt>
      <trkpt lat="36.16699042730033397674560546875" lon="-5.869776718318462371826171875">
        <ele>9.19999980926513671875</ele>
        <time>2019-11-05T08:39:39.000Z</time>
      </trkpt>
      <trkpt lat="36.16689101792871952056884765625" lon="-5.86954378522932529449462890625">
        <ele>9.19999980926513671875</ele>
        <time>2019-11-05T08:39:45.000Z</time>
      </trkpt>
      <trkpt lat="36.1667942069470882415771484375" lon="-5.86935351602733135223388671875">
        <ele>9.3999996185302734375</ele>
        <time>2019-11-05T08:39:50.000Z</time>
      </trkpt>
      <trkpt lat="36.16666554473340511322021484375" lon="-5.86914874613285064697265625">
        <ele>10.19999980926513671875</ele>
        <time>2019-11-05T08:39:56.000Z</time>
      </trkpt>
      <trkpt lat="36.166524477303028106689453125" lon="-5.868957303464412689208984375">
        <ele>11.19999980926513671875</ele>
        <time>2019-11-05T08:40:02.000Z</time>
      </trkpt>
      <trkpt lat="36.1663958989083766937255859375" lon="-5.86878891102969646453857421875">
        <ele>12</ele>
        <time>2019-11-05T08:40:08.000Z</time>
      </trkpt>
      <trkpt lat="36.1662666499614715576171875" lon="-5.86861364543437957763671875">
        <ele>13.19999980926513671875</ele>
        <time>2019-11-05T08:40:15.000Z</time>
      </trkpt>
      <trkpt lat="36.16613597609102725982666015625" lon="-5.8684595860540866851806640625">
        <ele>14.80000019073486328125</ele>
        <time>2019-11-05T08:40:22.000Z</time>
      </trkpt>
      <trkpt lat="36.1659992672502994537353515625" lon="-5.86828507483005523681640625">
        <ele>16</ele>
        <time>2019-11-05T08:40:30.000Z</time>
      </trkpt>
      <trkpt lat="36.16586029529571533203125" lon="-5.86811450310051441192626953125">
        <ele>17.3999996185302734375</ele>
        <time>2019-11-05T08:40:38.000Z</time>
      </trkpt>
      <trkpt lat="36.16572643630206584930419921875" lon="-5.86794569157063961029052734375">
        <ele>19.200000762939453125</ele>
        <time>2019-11-05T08:40:46.000Z</time>
      </trkpt>
      <trkpt lat="36.16558335721492767333984375" lon="-5.86778073571622371673583984375">
        <ele>21.200000762939453125</ele>
        <time>2019-11-05T08:40:54.000Z</time>
      </trkpt>
      <trkpt lat="36.16544916294515132904052734375" lon="-5.86762215010821819305419921875">
        <ele>22.799999237060546875</ele>
        <time>2019-11-05T08:41:02.000Z</time>
      </trkpt>
      <trkpt lat="36.1653064191341400146484375" lon="-5.86745015345513820648193359375">
        <ele>25</ele>
        <time>2019-11-05T08:41:11.000Z</time>
      </trkpt>
      <trkpt lat="36.16516132839024066925048828125" lon="-5.86728184483945369720458984375">
        <ele>26.200000762939453125</ele>
        <time>2019-11-05T08:41:20.000Z</time>
      </trkpt>
      <trkpt lat="36.16502277553081512451171875" lon="-5.86711336858570575714111328125">
        <ele>27</ele>
        <time>2019-11-05T08:41:29.000Z</time>
      </trkpt>
      <trkpt lat="36.16488288156688213348388671875" lon="-5.8669464848935604095458984375">
        <ele>29</ele>
        <time>2019-11-05T08:41:38.000Z</time>
      </trkpt>
      <trkpt lat="36.16474105976521968841552734375" lon="-5.86678194813430309295654296875">
        <ele>29.799999237060546875</ele>
        <time>2019-11-05T08:41:47.000Z</time>
      </trkpt>
      <trkpt lat="36.1646015010774135589599609375" lon="-5.866611041128635406494140625">
        <ele>30</ele>
        <time>2019-11-05T08:41:56.000Z</time>
      </trkpt>
      <trkpt lat="36.1644642055034637451171875" lon="-5.8664591610431671142578125">
        <ele>30.6000003814697265625</ele>
        <time>2019-11-05T08:42:04.000Z</time>
      </trkpt>
      <trkpt lat="36.1643088050186634063720703125" lon="-5.86631105281412601470947265625">
        <ele>32</ele>
        <time>2019-11-05T08:42:12.000Z</time>
      </trkpt>
      <trkpt lat="36.1641505546867847442626953125" lon="-5.8661810494959354400634765625">
        <ele>34.200000762939453125</ele>
        <time>2019-11-05T08:42:19.000Z</time>
      </trkpt>
      <trkpt lat="36.16397939622402191162109375" lon="-5.86606160737574100494384765625">
        <ele>34.799999237060546875</ele>
        <time>2019-11-05T08:42:25.000Z</time>
      </trkpt>
      <trkpt lat="36.16379298269748687744140625" lon="-5.865944512188434600830078125">
        <ele>34</ele>
        <time>2019-11-05T08:42:30.000Z</time>
      </trkpt>
      <trkpt lat="36.16360983811318874359130859375" lon="-5.86583353579044342041015625">
        <ele>32.799999237060546875</ele>
        <time>2019-11-05T08:42:34.000Z</time>
      </trkpt>
      <trkpt lat="36.16339425556361675262451171875" lon="-5.86570654995739459991455078125">
        <ele>31.799999237060546875</ele>
        <time>2019-11-05T08:42:38.000Z</time>
      </trkpt>
      <trkpt lat="36.16321521811187267303466796875" lon="-5.8655976690351963043212890625">
        <ele>31</ele>
        <time>2019-11-05T08:42:41.000Z</time>
      </trkpt>
      <trkpt lat="36.1630189977586269378662109375" lon="-5.86547755636274814605712890625">
        <ele>29.6000003814697265625</ele>
        <time>2019-11-05T08:42:44.000Z</time>
      </trkpt>
      <trkpt lat="36.16280182264745235443115234375" lon="-5.865353755652904510498046875">
        <ele>28</ele>
        <time>2019-11-05T08:42:47.000Z</time>
      </trkpt>
      <trkpt lat="36.1625724099576473236083984375" lon="-5.8652335591614246368408203125">
        <ele>26.200000762939453125</ele>
        <time>2019-11-05T08:42:50.000Z</time>
      </trkpt>
      <trkpt lat="36.16232790984213352203369140625" lon="-5.8651323057711124420166015625">
        <ele>24.799999237060546875</ele>
        <time>2019-11-05T08:42:53.000Z</time>
      </trkpt>
      <trkpt lat="36.1620755307376384735107421875" lon="-5.8650572039186954498291015625">
        <ele>24.6000003814697265625</ele>
        <time>2019-11-05T08:42:56.000Z</time>
      </trkpt>
      <trkpt lat="36.1618260852992534637451171875" lon="-5.86499492637813091278076171875">
        <ele>25.3999996185302734375</ele>
        <time>2019-11-05T08:42:59.000Z</time>
      </trkpt>
      <trkpt lat="36.1615947447717189788818359375" lon="-5.86493826471269130706787109375">
        <ele>26</ele>
        <time>2019-11-05T08:43:02.000Z</time>
      </trkpt>
      <trkpt lat="36.16139450110495090484619140625" lon="-5.86489048786461353302001953125">
        <ele>28</ele>
        <time>2019-11-05T08:43:05.000Z</time>
      </trkpt>
      <trkpt lat="36.16118051111698150634765625" lon="-5.86483147926628589630126953125">
        <ele>30.799999237060546875</ele>
        <time>2019-11-05T08:43:09.000Z</time>
      </trkpt>
      <trkpt lat="36.16097171790897846221923828125" lon="-5.8647772483527660369873046875">
        <ele>32.40000152587890625</ele>
        <time>2019-11-05T08:43:14.000Z</time>
      </trkpt>
      <trkpt lat="36.16078781895339488983154296875" lon="-5.86472637020051479339599609375">
        <ele>32.59999847412109375</ele>
        <time>2019-11-05T08:43:19.000Z</time>
      </trkpt>
      <trkpt lat="36.1606066860258579254150390625" lon="-5.86466903798282146453857421875">
        <ele>32.59999847412109375</ele>
        <time>2019-11-05T08:43:24.000Z</time>
      </trkpt>
      <trkpt lat="36.16041851229965686798095703125" lon="-5.8646082691848278045654296875">
        <ele>31.6000003814697265625</ele>
        <time>2019-11-05T08:43:29.000Z</time>
      </trkpt>
      <trkpt lat="36.16021868772804737091064453125" lon="-5.86453375406563282012939453125">
        <ele>33</ele>
        <time>2019-11-05T08:43:34.000Z</time>
      </trkpt>
      <trkpt lat="36.1600162647664546966552734375" lon="-5.86444876156747341156005859375">
        <ele>32.799999237060546875</ele>
        <time>2019-11-05T08:43:39.000Z</time>
      </trkpt>
      <trkpt lat="36.15980311296880245208740234375" lon="-5.86436812765896320343017578125">
        <ele>31.799999237060546875</ele>
        <time>2019-11-05T08:43:44.000Z</time>
      </trkpt>
      <trkpt lat="36.15958853624761104583740234375" lon="-5.8642847277224063873291015625">
        <ele>29.799999237060546875</ele>
        <time>2019-11-05T08:43:49.000Z</time>
      </trkpt>
      <trkpt lat="36.1594147793948650360107421875" lon="-5.864221863448619842529296875">
        <ele>30.799999237060546875</ele>
        <time>2019-11-05T08:43:53.000Z</time>
      </trkpt>
      <trkpt lat="36.15921587683260440826416015625" lon="-5.86413410492241382598876953125">
        <ele>31.3999996185302734375</ele>
        <time>2019-11-05T08:43:58.000Z</time>
      </trkpt>
      <trkpt lat="36.15901370532810688018798828125" lon="-5.8640547282993793487548828125">
        <ele>31.6000003814697265625</ele>
        <time>2019-11-05T08:44:03.000Z</time>
      </trkpt>
      <trkpt lat="36.15880952216684818267822265625" lon="-5.86398004554212093353271484375">
        <ele>32.200000762939453125</ele>
        <time>2019-11-05T08:44:08.000Z</time>
      </trkpt>
      <trkpt lat="36.15861087106168270111083984375" lon="-5.863918773829936981201171875">
        <ele>33.40000152587890625</ele>
        <time>2019-11-05T08:44:13.000Z</time>
      </trkpt>
      <trkpt lat="36.15840836428105831146240234375" lon="-5.8638344518840312957763671875">
        <ele>34.59999847412109375</ele>
        <time>2019-11-05T08:44:18.000Z</time>
      </trkpt>
      <trkpt lat="36.15819714032113552093505859375" lon="-5.86376178078353404998779296875">
        <ele>36.59999847412109375</ele>
        <time>2019-11-05T08:44:23.000Z</time>
      </trkpt>
      <trkpt lat="36.158026568591594696044921875" lon="-5.86369003169238567352294921875">
        <ele>36.40000152587890625</ele>
        <time>2019-11-05T08:44:27.000Z</time>
      </trkpt>
      <trkpt lat="36.1578165180981159210205078125" lon="-5.86359766311943531036376953125">
        <ele>36.799999237060546875</ele>
        <time>2019-11-05T08:44:32.000Z</time>
      </trkpt>
      <trkpt lat="36.1576197110116481781005859375" lon="-5.86350630037486553192138671875">
        <ele>36.59999847412109375</ele>
        <time>2019-11-05T08:44:37.000Z</time>
      </trkpt>
      <trkpt lat="36.1574416793882846832275390625" lon="-5.86340739391744136810302734375">
        <ele>36.40000152587890625</ele>
        <time>2019-11-05T08:44:42.000Z</time>
      </trkpt>
      <trkpt lat="36.15740530192852020263671875" lon="-5.8633826673030853271484375">
        <ele>36.40000152587890625</ele>
        <time>2019-11-05T08:44:43.000Z</time>
      </trkpt>
      <trkpt lat="36.157214529812335968017578125" lon="-5.863241851329803466796875">
        <ele>36.59999847412109375</ele>
        <time>2019-11-05T08:44:48.000Z</time>
      </trkpt>
      <trkpt lat="36.1570356599986553192138671875" lon="-5.8631251752376556396484375">
        <ele>36.799999237060546875</ele>
        <time>2019-11-05T08:44:52.000Z</time>
      </trkpt>
      <trkpt lat="36.15683843381702899932861328125" lon="-5.8629898913204669952392578125">
        <ele>37.200000762939453125</ele>
        <time>2019-11-05T08:44:56.000Z</time>
      </trkpt>
      <trkpt lat="36.156676746904850006103515625" lon="-5.86287899874150753021240234375">
        <ele>36.200000762939453125</ele>
        <time>2019-11-05T08:44:59.000Z</time>
      </trkpt>
      <trkpt lat="36.15650651045143604278564453125" lon="-5.8627515099942684173583984375">
        <ele>35.200000762939453125</ele>
        <time>2019-11-05T08:45:02.000Z</time>
      </trkpt>
      <trkpt lat="36.156322695314884185791015625" lon="-5.8626187406480312347412109375">
        <ele>34.200000762939453125</ele>
        <time>2019-11-05T08:45:05.000Z</time>
      </trkpt>
      <trkpt lat="36.156120188534259796142578125" lon="-5.8624836243689060211181640625">
        <ele>32</ele>
        <time>2019-11-05T08:45:08.000Z</time>
      </trkpt>
      <trkpt lat="36.1559077911078929901123046875" lon="-5.86233585141599178314208984375">
        <ele>30.799999237060546875</ele>
        <time>2019-11-05T08:45:11.000Z</time>
      </trkpt>
      <trkpt lat="36.155677624046802520751953125" lon="-5.862189419567584991455078125">
        <ele>30</ele>
        <time>2019-11-05T08:45:14.000Z</time>
      </trkpt>
      <trkpt lat="36.1555141769349575042724609375" lon="-5.86209319531917572021484375">
        <ele>28.6000003814697265625</ele>
        <time>2019-11-05T08:45:16.000Z</time>
      </trkpt>
      <trkpt lat="36.15535148419439792633056640625" lon="-5.86198967881500720977783203125">
        <ele>27.6000003814697265625</ele>
        <time>2019-11-05T08:45:18.000Z</time>
      </trkpt>
      <trkpt lat="36.155182756483554840087890625" lon="-5.86188130080699920654296875">
        <ele>27.799999237060546875</ele>
        <time>2019-11-05T08:45:20.000Z</time>
      </trkpt>
      <trkpt lat="36.155006401240825653076171875" lon="-5.86177158169448375701904296875">
        <ele>28.3999996185302734375</ele>
        <time>2019-11-05T08:45:22.000Z</time>
      </trkpt>
      <trkpt lat="36.15483281202614307403564453125" lon="-5.86165607906877994537353515625">
        <ele>28.200000762939453125</ele>
        <time>2019-11-05T08:45:24.000Z</time>
      </trkpt>
      <trkpt lat="36.15465360693633556365966796875" lon="-5.86153839714825153350830078125">
        <ele>26.799999237060546875</ele>
        <time>2019-11-05T08:45:26.000Z</time>
      </trkpt>
      <trkpt lat="36.1544702947139739990234375" lon="-5.86141836829483509063720703125">
        <ele>26</ele>
        <time>2019-11-05T08:45:28.000Z</time>
      </trkpt>
      <trkpt lat="36.1542825400829315185546875" lon="-5.86130462586879730224609375">
        <ele>25.200000762939453125</ele>
        <time>2019-11-05T08:45:30.000Z</time>
      </trkpt>
      <trkpt lat="36.15409688092768192291259765625" lon="-5.86118367500603199005126953125">
        <ele>23.799999237060546875</ele>
        <time>2019-11-05T08:45:32.000Z</time>
      </trkpt>
      <trkpt lat="36.15390744991600513458251953125" lon="-5.8610576950013637542724609375">
        <ele>22.799999237060546875</ele>
        <time>2019-11-05T08:45:34.000Z</time>
      </trkpt>
      <trkpt lat="36.15371550433337688446044921875" lon="-5.8609316311776638031005859375">
        <ele>21.3999996185302734375</ele>
        <time>2019-11-05T08:45:36.000Z</time>
      </trkpt>
      <trkpt lat="36.15352791734039783477783203125" lon="-5.86080816574394702911376953125">
        <ele>21</ele>
        <time>2019-11-05T08:45:38.000Z</time>
      </trkpt>
      <trkpt lat="36.15333362482488155364990234375" lon="-5.8606878854334354400634765625">
        <ele>19.799999237060546875</ele>
        <time>2019-11-05T08:45:40.000Z</time>
      </trkpt>
      <trkpt lat="36.1531372368335723876953125" lon="-5.860564671456813812255859375">
        <ele>20.3999996185302734375</ele>
        <time>2019-11-05T08:45:42.000Z</time>
      </trkpt>
      <trkpt lat="36.15293405950069427490234375" lon="-5.86045763455331325531005859375">
        <ele>21</ele>
        <time>2019-11-05T08:45:44.000Z</time>
      </trkpt>
      <trkpt lat="36.152719818055629730224609375" lon="-5.8603760786354541778564453125">
        <ele>22</ele>
        <time>2019-11-05T08:45:46.000Z</time>
      </trkpt>
      <trkpt lat="36.152501888573169708251953125" lon="-5.86030818521976470947265625">
        <ele>21.799999237060546875</ele>
        <time>2019-11-05T08:45:48.000Z</time>
      </trkpt>
      <trkpt lat="36.1522831209003925323486328125" lon="-5.86026719771325588226318359375">
        <ele>20.6000003814697265625</ele>
        <time>2019-11-05T08:45:50.000Z</time>
      </trkpt>
      <trkpt lat="36.1520631797611713409423828125" lon="-5.8602708019316196441650390625">
        <ele>19</ele>
        <time>2019-11-05T08:45:52.000Z</time>
      </trkpt>
      <trkpt lat="36.15184416063129901885986328125" lon="-5.860279016196727752685546875">
        <ele>16.6000003814697265625</ele>
        <time>2019-11-05T08:45:54.000Z</time>
      </trkpt>
      <trkpt lat="36.15162723697721958160400390625" lon="-5.860272981226444244384765625">
        <ele>15</ele>
        <time>2019-11-05T08:45:56.000Z</time>
      </trkpt>
      <trkpt lat="36.15141400136053562164306640625" lon="-5.86024138145148754119873046875">
        <ele>14.3999996185302734375</ele>
        <time>2019-11-05T08:45:58.000Z</time>
      </trkpt>
      <trkpt lat="36.15120805799961090087890625" lon="-5.86019444279372692108154296875">
        <ele>14</ele>
        <time>2019-11-05T08:46:00.000Z</time>
      </trkpt>
      <trkpt lat="36.1510110832750797271728515625" lon="-5.86012671701610088348388671875">
        <ele>14</ele>
        <time>2019-11-05T08:46:02.000Z</time>
      </trkpt>
      <trkpt lat="36.1508162878453731536865234375" lon="-5.86005379445850849151611328125">
        <ele>13.3999996185302734375</ele>
        <time>2019-11-05T08:46:04.000Z</time>
      </trkpt>
      <trkpt lat="36.15062467753887176513671875" lon="-5.8599843084812164306640625">
        <ele>13.3999996185302734375</ele>
        <time>2019-11-05T08:46:06.000Z</time>
      </trkpt>
      <trkpt lat="36.15043868310749530792236328125" lon="-5.85991063155233860015869140625">
        <ele>13.19999980926513671875</ele>
        <time>2019-11-05T08:46:08.000Z</time>
      </trkpt>
      <trkpt lat="36.150257550179958343505859375" lon="-5.85984357632696628570556640625">
        <ele>13.19999980926513671875</ele>
        <time>2019-11-05T08:46:10.000Z</time>
      </trkpt>
      <trkpt lat="36.15008329041302204132080078125" lon="-5.859770737588405609130859375">
        <ele>13</ele>
        <time>2019-11-05T08:46:12.000Z</time>
      </trkpt>
      <trkpt lat="36.14983267150819301605224609375" lon="-5.859672166407108306884765625">
        <ele>12.80000019073486328125</ele>
        <time>2019-11-05T08:46:15.000Z</time>
      </trkpt>
      <trkpt lat="36.14958372898399829864501953125" lon="-5.85958398878574371337890625">
        <ele>12.6000003814697265625</ele>
        <time>2019-11-05T08:46:18.000Z</time>
      </trkpt>
      <trkpt lat="36.1493419110774993896484375" lon="-5.8595110662281513214111328125">
        <ele>13.3999996185302734375</ele>
        <time>2019-11-05T08:46:21.000Z</time>
      </trkpt>
      <trkpt lat="36.14911635406315326690673828125" lon="-5.85942045785486698150634765625">
        <ele>13.6000003814697265625</ele>
        <time>2019-11-05T08:46:24.000Z</time>
      </trkpt>
      <trkpt lat="36.14890295080840587615966796875" lon="-5.8593122474849224090576171875">
        <ele>14</ele>
        <time>2019-11-05T08:46:27.000Z</time>
      </trkpt>
      <trkpt lat="36.14870010875165462493896484375" lon="-5.85918777622282505035400390625">
        <ele>14.19999980926513671875</ele>
        <time>2019-11-05T08:46:30.000Z</time>
      </trkpt>
      <trkpt lat="36.14851604215800762176513671875" lon="-5.8590507321059703826904296875">
        <ele>13.6000003814697265625</ele>
        <time>2019-11-05T08:46:33.000Z</time>
      </trkpt>
      <trkpt lat="36.14834211766719818115234375" lon="-5.85890564136207103729248046875">
        <ele>13.3999996185302734375</ele>
        <time>2019-11-05T08:46:36.000Z</time>
      </trkpt>
      <trkpt lat="36.1481712944805622100830078125" lon="-5.85876147262752056121826171875">
        <ele>14</ele>
        <time>2019-11-05T08:46:39.000Z</time>
      </trkpt>
      <trkpt lat="36.14800256676971912384033203125" lon="-5.85862266831099987030029296875">
        <ele>14.6000003814697265625</ele>
        <time>2019-11-05T08:46:42.000Z</time>
      </trkpt>
      <trkpt lat="36.14784079603850841522216796875" lon="-5.85847891867160797119140625">
        <ele>15.3999996185302734375</ele>
        <time>2019-11-05T08:46:45.000Z</time>
      </trkpt>
      <trkpt lat="36.14768229424953460693359375" lon="-5.85833667777478694915771484375">
        <ele>14.80000019073486328125</ele>
        <time>2019-11-05T08:46:48.000Z</time>
      </trkpt>
      <trkpt lat="36.147531755268573760986328125" lon="-5.858204327523708343505859375">
        <ele>14</ele>
        <time>2019-11-05T08:46:51.000Z</time>
      </trkpt>
      <trkpt lat="36.14738632924854755401611328125" lon="-5.85806594230234622955322265625">
        <ele>13.80000019073486328125</ele>
        <time>2019-11-05T08:46:54.000Z</time>
      </trkpt>
      <trkpt lat="36.14724048413336277008056640625" lon="-5.85793040692806243896484375">
        <ele>13.80000019073486328125</ele>
        <time>2019-11-05T08:46:57.000Z</time>
      </trkpt>
      <trkpt lat="36.14704795181751251220703125" lon="-5.8577728271484375">
        <ele>13.19999980926513671875</ele>
        <time>2019-11-05T08:47:01.000Z</time>
      </trkpt>
      <trkpt lat="36.1468533240258693695068359375" lon="-5.85760091431438922882080078125">
        <ele>13</ele>
        <time>2019-11-05T08:47:05.000Z</time>
      </trkpt>
      <trkpt lat="36.146706975996494293212890625" lon="-5.857466049492359161376953125">
        <ele>13</ele>
        <time>2019-11-05T08:47:08.000Z</time>
      </trkpt>
      <trkpt lat="36.146556437015533447265625" lon="-5.85733629763126373291015625">
        <ele>12.80000019073486328125</ele>
        <time>2019-11-05T08:47:11.000Z</time>
      </trkpt>
      <trkpt lat="36.146400533616542816162109375" lon="-5.85721165873110294342041015625">
        <ele>12.6000003814697265625</ele>
        <time>2019-11-05T08:47:14.000Z</time>
      </trkpt>
      <trkpt lat="36.14625024609267711639404296875" lon="-5.857078470289707183837890625">
        <ele>12.6000003814697265625</ele>
        <time>2019-11-05T08:47:17.000Z</time>
      </trkpt>
      <trkpt lat="36.1460979469120502471923828125" lon="-5.85694603621959686279296875">
        <ele>12</ele>
        <time>2019-11-05T08:47:20.000Z</time>
      </trkpt>
      <trkpt lat="36.1459470726549625396728515625" lon="-5.8568112552165985107421875">
        <ele>11.3999996185302734375</ele>
        <time>2019-11-05T08:47:23.000Z</time>
      </trkpt>
      <trkpt lat="36.14579024724662303924560546875" lon="-5.856680162250995635986328125">
        <ele>10.6000003814697265625</ele>
        <time>2019-11-05T08:47:26.000Z</time>
      </trkpt>
      <trkpt lat="36.14563040435314178466796875" lon="-5.85654504597187042236328125">
        <ele>10.80000019073486328125</ele>
        <time>2019-11-05T08:47:29.000Z</time>
      </trkpt>
      <trkpt lat="36.14546804688870906829833984375" lon="-5.856407247483730316162109375">
        <ele>11.19999980926513671875</ele>
        <time>2019-11-05T08:47:32.000Z</time>
      </trkpt>
      <trkpt lat="36.1453060247004032135009765625" lon="-5.85627322085201740264892578125">
        <ele>12</ele>
        <time>2019-11-05T08:47:35.000Z</time>
      </trkpt>
      <trkpt lat="36.14514467306435108184814453125" lon="-5.85613542236387729644775390625">
        <ele>13.19999980926513671875</ele>
        <time>2019-11-05T08:47:38.000Z</time>
      </trkpt>
      <trkpt lat="36.14498239941895008087158203125" lon="-5.8559997193515300750732421875">
        <ele>13</ele>
        <time>2019-11-05T08:47:41.000Z</time>
      </trkpt>
      <trkpt lat="36.144816689193248748779296875" lon="-5.8558612503111362457275390625">
        <ele>13.19999980926513671875</ele>
        <time>2019-11-05T08:47:44.000Z</time>
      </trkpt>
      <trkpt lat="36.1446431837975978851318359375" lon="-5.85571699775755405426025390625">
        <ele>13</ele>
        <time>2019-11-05T08:47:47.000Z</time>
      </trkpt>
      <trkpt lat="36.1444688402116298675537109375" lon="-5.8555712364614009857177734375">
        <ele>12.3999996185302734375</ele>
        <time>2019-11-05T08:47:50.000Z</time>
      </trkpt>
      <trkpt lat="36.14429290406405925750732421875" lon="-5.8554245531558990478515625">
        <ele>10.80000019073486328125</ele>
        <time>2019-11-05T08:47:53.000Z</time>
      </trkpt>
      <trkpt lat="36.14411654882133007049560546875" lon="-5.85527745075523853302001953125">
        <ele>10.3999996185302734375</ele>
        <time>2019-11-05T08:47:56.000Z</time>
      </trkpt>
      <trkpt lat="36.1439427919685840606689453125" lon="-5.85513076744973659515380859375">
        <ele>10.80000019073486328125</ele>
        <time>2019-11-05T08:47:59.000Z</time>
      </trkpt>
      <trkpt lat="36.14375864155590534210205078125" lon="-5.85497922264039516448974609375">
        <ele>10.80000019073486328125</ele>
        <time>2019-11-05T08:48:02.000Z</time>
      </trkpt>
      <trkpt lat="36.1435759998857975006103515625" lon="-5.854819715023040771484375">
        <ele>10.19999980926513671875</ele>
        <time>2019-11-05T08:48:05.000Z</time>
      </trkpt>
      <trkpt lat="36.1433879099786281585693359375" lon="-5.85465869866311550140380859375">
        <ele>10</ele>
        <time>2019-11-05T08:48:08.000Z</time>
      </trkpt>
      <trkpt lat="36.1431961320340633392333984375" lon="-5.85449625737965106964111328125">
        <ele>9.19999980926513671875</ele>
        <time>2019-11-05T08:48:11.000Z</time>
      </trkpt>
      <trkpt lat="36.1430040188133716583251953125" lon="-5.854327194392681121826171875">
        <ele>9.80000019073486328125</ele>
        <time>2019-11-05T08:48:14.000Z</time>
      </trkpt>
      <trkpt lat="36.1428095586597919464111328125" lon="-5.8541630767285823822021484375">
        <ele>10</ele>
        <time>2019-11-05T08:48:17.000Z</time>
      </trkpt>
      <trkpt lat="36.14261627197265625" lon="-5.8539947681128978729248046875">
        <ele>8.80000019073486328125</ele>
        <time>2019-11-05T08:48:20.000Z</time>
      </trkpt>
      <trkpt lat="36.14241980016231536865234375" lon="-5.85382721386849880218505859375">
        <ele>7.400000095367431640625</ele>
        <time>2019-11-05T08:48:23.000Z</time>
      </trkpt>
      <trkpt lat="36.142223663628101348876953125" lon="-5.85365320555865764617919921875">
        <ele>7</ele>
        <time>2019-11-05T08:48:26.000Z</time>
      </trkpt>
      <trkpt lat="36.14202442578971385955810546875" lon="-5.8534848131239414215087890625">
        <ele>6.400000095367431640625</ele>
        <time>2019-11-05T08:48:29.000Z</time>
      </trkpt>
      <trkpt lat="36.1418271996080875396728515625" lon="-5.85331642068922519683837890625">
        <ele>6</ele>
        <time>2019-11-05T08:48:32.000Z</time>
      </trkpt>
      <trkpt lat="36.14163030870258808135986328125" lon="-5.8531545661389827728271484375">
        <ele>5.19999980926513671875</ele>
        <time>2019-11-05T08:48:35.000Z</time>
      </trkpt>
      <trkpt lat="36.141432411968708038330078125" lon="-5.85299086757004261016845703125">
        <ele>5</ele>
        <time>2019-11-05T08:48:38.000Z</time>
      </trkpt>
      <trkpt lat="36.1412361077964305877685546875" lon="-5.85281920619308948516845703125">
        <ele>5</ele>
        <time>2019-11-05T08:48:41.000Z</time>
      </trkpt>
      <trkpt lat="36.1410377919673919677734375" lon="-5.85266162641346454620361328125">
        <ele>4.80000019073486328125</ele>
        <time>2019-11-05T08:48:44.000Z</time>
      </trkpt>
      <trkpt lat="36.1408465169370174407958984375" lon="-5.85250304080545902252197265625">
        <ele>4.400000095367431640625</ele>
        <time>2019-11-05T08:48:47.000Z</time>
      </trkpt>
      <trkpt lat="36.140665300190448760986328125" lon="-5.852344036102294921875">
        <ele>5.19999980926513671875</ele>
        <time>2019-11-05T08:48:50.000Z</time>
      </trkpt>
      <trkpt lat="36.140482239425182342529296875" lon="-5.85219944827258586883544921875">
        <ele>6.400000095367431640625</ele>
        <time>2019-11-05T08:48:53.000Z</time>
      </trkpt>
      <trkpt lat="36.14030764438211917877197265625" lon="-5.85205636918544769287109375">
        <ele>7</ele>
        <time>2019-11-05T08:48:56.000Z</time>
      </trkpt>
      <trkpt lat="36.14013765938580036163330078125" lon="-5.85190457291901111602783203125">
        <ele>7.80000019073486328125</ele>
        <time>2019-11-05T08:48:59.000Z</time>
      </trkpt>
      <trkpt lat="36.13996851257979869842529296875" lon="-5.85176358930766582489013671875">
        <ele>8.19999980926513671875</ele>
        <time>2019-11-05T08:49:02.000Z</time>
      </trkpt>
      <trkpt lat="36.13980204798281192779541015625" lon="-5.85162931121885776519775390625">
        <ele>8.19999980926513671875</ele>
        <time>2019-11-05T08:49:05.000Z</time>
      </trkpt>
      <trkpt lat="36.13965117372572422027587890625" lon="-5.85147977806627750396728515625">
        <ele>8.19999980926513671875</ele>
        <time>2019-11-05T08:49:08.000Z</time>
      </trkpt>
      <trkpt lat="36.13951404578983783721923828125" lon="-5.8513299934566020965576171875">
        <ele>8.3999996185302734375</ele>
        <time>2019-11-05T08:49:11.000Z</time>
      </trkpt>
      <trkpt lat="36.1393538676202297210693359375" lon="-5.85111357271671295166015625">
        <ele>8.3999996185302734375</ele>
        <time>2019-11-05T08:49:15.000Z</time>
      </trkpt>
      <trkpt lat="36.139216907322406768798828125" lon="-5.8508783765137195587158203125">
        <ele>9.80000019073486328125</ele>
        <time>2019-11-05T08:49:19.000Z</time>
      </trkpt>
      <trkpt lat="36.1391094513237476348876953125" lon="-5.8506222255527973175048828125">
        <ele>10.19999980926513671875</ele>
        <time>2019-11-05T08:49:23.000Z</time>
      </trkpt>
      <trkpt lat="36.13903409801423549652099609375" lon="-5.850346796214580535888671875">
        <ele>11.6000003814697265625</ele>
        <time>2019-11-05T08:49:27.000Z</time>
      </trkpt>
      <trkpt lat="36.13897408358752727508544921875" lon="-5.850072205066680908203125">
        <ele>12.19999980926513671875</ele>
        <time>2019-11-05T08:49:31.000Z</time>
      </trkpt>
      <trkpt lat="36.138913817703723907470703125" lon="-5.849797613918781280517578125">
        <ele>13</ele>
        <time>2019-11-05T08:49:35.000Z</time>
      </trkpt>
      <trkpt lat="36.1388539709150791168212890625" lon="-5.8495223522186279296875">
        <ele>14.80000019073486328125</ele>
        <time>2019-11-05T08:49:39.000Z</time>
      </trkpt>
      <trkpt lat="36.13879345357418060302734375" lon="-5.84925086237490177154541015625">
        <ele>14.19999980926513671875</ele>
        <time>2019-11-05T08:49:43.000Z</time>
      </trkpt>
      <trkpt lat="36.1387262307107448577880859375" lon="-5.84898331202566623687744140625">
        <ele>14</ele>
        <time>2019-11-05T08:49:47.000Z</time>
      </trkpt>
      <trkpt lat="36.1386471055448055267333984375" lon="-5.8487272448837757110595703125">
        <ele>13.19999980926513671875</ele>
        <time>2019-11-05T08:49:51.000Z</time>
      </trkpt>
      <trkpt lat="36.13856052048504352569580078125" lon="-5.8484811522066593170166015625">
        <ele>13</ele>
        <time>2019-11-05T08:49:55.000Z</time>
      </trkpt>
      <trkpt lat="36.13848441280424594879150390625" lon="-5.84823497571051120758056640625">
        <ele>13.6000003814697265625</ele>
        <time>2019-11-05T08:49:59.000Z</time>
      </trkpt>
      <trkpt lat="36.13841668702661991119384765625" lon="-5.847991146147251129150390625">
        <ele>14.80000019073486328125</ele>
        <time>2019-11-05T08:50:03.000Z</time>
      </trkpt>
      <trkpt lat="36.13835901953279972076416015625" lon="-5.84774765186011791229248046875">
        <ele>14</ele>
        <time>2019-11-05T08:50:07.000Z</time>
      </trkpt>
      <trkpt lat="36.13832272589206695556640625" lon="-5.84751882590353488922119140625">
        <ele>12.19999980926513671875</ele>
        <time>2019-11-05T08:50:11.000Z</time>
      </trkpt>
      <trkpt lat="36.138280145823955535888671875" lon="-5.8472584001719951629638671875">
        <ele>10.6000003814697265625</ele>
        <time>2019-11-05T08:50:16.000Z</time>
      </trkpt>
      <trkpt lat="36.13824921660125255584716796875" lon="-5.847034938633441925048828125">
        <ele>9.6000003814697265625</ele>
        <time>2019-11-05T08:50:21.000Z</time>
      </trkpt>
      <trkpt lat="36.1382209695875644683837890625" lon="-5.846799910068511962890625">
        <ele>8.80000019073486328125</ele>
        <time>2019-11-05T08:50:27.000Z</time>
      </trkpt>
      <trkpt lat="36.138182915747165679931640625" lon="-5.8466552384197711944580078125">
        <ele>8.6000003814697265625</ele>
        <time>2019-11-05T08:50:33.000Z</time>
      </trkpt>
      <trkpt lat="36.138171851634979248046875" lon="-5.84665163420140743255615234375">
        <ele>8.6000003814697265625</ele>
        <time>2019-11-05T08:50:37.000Z</time>
      </trkpt>
      <trkpt lat="36.13813404925167560577392578125" lon="-5.846584327518939971923828125">
        <ele>8.19999980926513671875</ele>
        <time>2019-11-05T08:52:13.000Z</time>
      </trkpt>
      <trkpt lat="36.1380845122039318084716796875" lon="-5.846507549285888671875">
        <ele>7.400000095367431640625</ele>
        <time>2019-11-05T08:52:17.000Z</time>
      </trkpt>
      <trkpt lat="36.13804268650710582733154296875" lon="-5.84647712297737598419189453125">
        <ele>6.599999904632568359375</ele>
        <time>2019-11-05T08:52:19.000Z</time>
      </trkpt>
      <trkpt lat="36.13783364184200763702392578125" lon="-5.84644376300275325775146484375">
        <ele>4.19999980926513671875</ele>
        <time>2019-11-05T08:52:26.000Z</time>
      </trkpt>
      <trkpt lat="36.13764102570712566375732421875" lon="-5.846424736082553863525390625">
        <ele>3.400000095367431640625</ele>
        <time>2019-11-05T08:52:32.000Z</time>
      </trkpt>
      <trkpt lat="36.13744941540062427520751953125" lon="-5.84643253125250339508056640625">
        <ele>3.400000095367431640625</ele>
        <time>2019-11-05T08:52:39.000Z</time>
      </trkpt>
      <trkpt lat="36.137239448726177215576171875" lon="-5.84643135778605937957763671875">
        <ele>3.7999999523162841796875</ele>
        <time>2019-11-05T08:52:46.000Z</time>
      </trkpt>
      <trkpt lat="36.13705228082835674285888671875" lon="-5.84641962312161922454833984375">
        <ele>4.400000095367431640625</ele>
        <time>2019-11-05T08:52:52.000Z</time>
      </trkpt>
      <trkpt lat="36.13703132607042789459228515625" lon="-5.846433453261852264404296875">
        <ele>4.599999904632568359375</ele>
        <time>2019-11-05T08:52:53.000Z</time>
      </trkpt>
      <trkpt lat="36.13699595443904399871826171875" lon="-5.8464876003563404083251953125">
        <ele>4.400000095367431640625</ele>
        <time>2019-11-05T08:52:59.000Z</time>
      </trkpt>
      <trkpt lat="36.13699628971517086029052734375" lon="-5.84649078547954559326171875">
        <ele>4.400000095367431640625</ele>
        <time>2019-11-05T08:53:01.000Z</time>
      </trkpt>
      <trkpt lat="36.13708798773586750030517578125" lon="-5.8464487083256244659423828125">
        <ele>4.19999980926513671875</ele>
        <time>2019-11-05T08:54:16.000Z</time>
      </trkpt>
      <trkpt lat="36.1371045000851154327392578125" lon="-5.84643521346151828765869140625">
        <ele>4.19999980926513671875</ele>
        <time>2019-11-05T08:54:20.000Z</time>
      </trkpt>
      <trkpt lat="36.1371226049959659576416015625" lon="-5.8464312739670276641845703125">
        <ele>4.19999980926513671875</ele>
        <time>2019-11-05T08:54:25.000Z</time>
      </trkpt>
      <trkpt lat="36.13712185062468051910400390625" lon="-5.8464322797954082489013671875">
        <ele>4.19999980926513671875</ele>
        <time>2019-11-05T08:54:26.000Z</time>
      </trkpt>
      <trkpt lat="36.13709452562034130096435546875" lon="-5.846498496830463409423828125">
        <ele>4</ele>
        <time>2019-11-05T08:55:18.000Z</time>
      </trkpt>
      <trkpt lat="36.137095950543880462646484375" lon="-5.84649673663079738616943359375">
        <ele>4</ele>
        <time>2019-11-05T08:55:19.000Z</time>
      </trkpt>
      <trkpt lat="36.137154288589954376220703125" lon="-5.84647335112094879150390625">
        <ele>4</ele>
        <time>2019-11-05T08:55:31.000Z</time>
      </trkpt>
      <trkpt lat="36.1371504329144954681396484375" lon="-5.846423394978046417236328125">
        <ele>4.19999980926513671875</ele>
        <time>2019-11-05T08:55:36.000Z</time>
      </trkpt>
      <trkpt lat="36.13692621700465679168701171875" lon="-5.84651752375066280364990234375">
        <ele>4.80000019073486328125</ele>
        <time>2019-11-05T08:59:33.000Z</time>
      </trkpt>
      <trkpt lat="36.1369338445365428924560546875" lon="-5.84651953540742397308349609375">
        <ele>4.599999904632568359375</ele>
        <time>2019-11-05T08:59:39.000Z</time>
      </trkpt>
      <trkpt lat="36.13688011653721332550048828125" lon="-5.84649120457470417022705078125">
        <ele>4.80000019073486328125</ele>
        <time>2019-11-05T09:03:08.000Z</time>
      </trkpt>
      <trkpt lat="36.13688078708946704864501953125" lon="-5.84648701362311840057373046875">
        <ele>4.80000019073486328125</ele>
        <time>2019-11-05T09:03:09.000Z</time>
      </trkpt>
      <trkpt lat="36.136800236999988555908203125" lon="-5.84623086266219615936279296875">
        <ele>6</ele>
        <time>2019-11-05T09:03:43.000Z</time>
      </trkpt>
      <trkpt lat="36.13693292252719402313232421875" lon="-5.8465321920812129974365234375">
        <ele>4.599999904632568359375</ele>
        <time>2019-11-05T09:06:18.000Z</time>
      </trkpt>
      <trkpt lat="36.1369127221405506134033203125" lon="-5.84651333279907703399658203125">
        <ele>4.80000019073486328125</ele>
        <time>2019-11-05T09:06:22.000Z</time>
      </trkpt>
      <trkpt lat="36.13690325058996677398681640625" lon="-5.84650964476168155670166015625">
        <ele>4.80000019073486328125</ele>
        <time>2019-11-05T09:06:25.000Z</time>
      </trkpt>
      <trkpt lat="36.1369093693792819976806640625" lon="-5.84629791788756847381591796875">
        <ele>5.400000095367431640625</ele>
        <time>2019-11-05T09:08:30.000Z</time>
      </trkpt>
      <trkpt lat="36.13689604215323925018310546875" lon="-5.846053250133991241455078125">
        <ele>6</ele>
        <time>2019-11-05T09:08:37.000Z</time>
      </trkpt>
      <trkpt lat="36.13688246347010135650634765625" lon="-5.84580925293266773223876953125">
        <ele>6</ele>
        <time>2019-11-05T09:08:44.000Z</time>
      </trkpt>
      <trkpt lat="36.136847175657749176025390625" lon="-5.84554933011531829833984375">
        <ele>6</ele>
        <time>2019-11-05T09:08:49.000Z</time>
      </trkpt>
      <trkpt lat="36.13678841851651668548583984375" lon="-5.84529980085790157318115234375">
        <ele>5.599999904632568359375</ele>
        <time>2019-11-05T09:08:54.000Z</time>
      </trkpt>
      <trkpt lat="36.13672236911952495574951171875" lon="-5.84504934959113597869873046875">
        <ele>4.80000019073486328125</ele>
        <time>2019-11-05T09:08:59.000Z</time>
      </trkpt>
      <trkpt lat="36.1366684734821319580078125" lon="-5.8448165841400623321533203125">
        <ele>4.599999904632568359375</ele>
        <time>2019-11-05T09:09:04.000Z</time>
      </trkpt>
      <trkpt lat="36.13660904578864574432373046875" lon="-5.8445969782769680023193359375">
        <ele>4.19999980926513671875</ele>
        <time>2019-11-05T09:09:10.000Z</time>
      </trkpt>
      <trkpt lat="36.13653914071619510650634765625" lon="-5.8443733491003513336181640625">
        <ele>3.400000095367431640625</ele>
        <time>2019-11-05T09:09:16.000Z</time>
      </trkpt>
      <trkpt lat="36.136444509029388427734375" lon="-5.844148211181163787841796875">
        <ele>3.7999999523162841796875</ele>
        <time>2019-11-05T09:09:23.000Z</time>
      </trkpt>
      <trkpt lat="36.1363575048744678497314453125" lon="-5.84391854703426361083984375">
        <ele>4.80000019073486328125</ele>
        <time>2019-11-05T09:09:29.000Z</time>
      </trkpt>
      <trkpt lat="36.13626924343407154083251953125" lon="-5.8437004499137401580810546875">
        <ele>5</ele>
        <time>2019-11-05T09:09:35.000Z</time>
      </trkpt>
      <trkpt lat="36.136181652545928955078125" lon="-5.84349852986633777618408203125">
        <ele>5</ele>
        <time>2019-11-05T09:09:40.000Z</time>
      </trkpt>
      <trkpt lat="36.1360946483910083770751953125" lon="-5.84326802752912044525146484375">
        <ele>5.400000095367431640625</ele>
        <time>2019-11-05T09:09:46.000Z</time>
      </trkpt>
      <trkpt lat="36.1360198818147182464599609375" lon="-5.8430258743464946746826171875">
        <ele>5</ele>
        <time>2019-11-05T09:09:52.000Z</time>
      </trkpt>
      <trkpt lat="36.1359635554254055023193359375" lon="-5.84279109723865985870361328125">
        <ele>4.80000019073486328125</ele>
        <time>2019-11-05T09:09:58.000Z</time>
      </trkpt>
      <trkpt lat="36.1359112523496150970458984375" lon="-5.84257685579359531402587890625">
        <ele>4</ele>
        <time>2019-11-05T09:10:03.000Z</time>
      </trkpt>
      <trkpt lat="36.1358545906841754913330078125" lon="-5.84234233014285564422607421875">
        <ele>3.599999904632568359375</ele>
        <time>2019-11-05T09:10:08.000Z</time>
      </trkpt>
      <trkpt lat="36.13579818047583103179931640625" lon="-5.84211568348109722137451171875">
        <ele>3.7999999523162841796875</ele>
        <time>2019-11-05T09:10:13.000Z</time>
      </trkpt>
      <trkpt lat="36.13574772141873836517333984375" lon="-5.84188886918127536773681640625">
        <ele>3.7999999523162841796875</ele>
        <time>2019-11-05T09:10:18.000Z</time>
      </trkpt>
      <trkpt lat="36.135679744184017181396484375" lon="-5.84164696745574474334716796875">
        <ele>4</ele>
        <time>2019-11-05T09:10:23.000Z</time>
      </trkpt>
      <trkpt lat="36.135618388652801513671875" lon="-5.84140841849148273468017578125">
        <ele>3.7999999523162841796875</ele>
        <time>2019-11-05T09:10:28.000Z</time>
      </trkpt>
      <trkpt lat="36.1355526745319366455078125" lon="-5.8411734737455844879150390625">
        <ele>3.599999904632568359375</ele>
        <time>2019-11-05T09:10:33.000Z</time>
      </trkpt>
      <trkpt lat="36.13547966815531253814697265625" lon="-5.840935595333576202392578125">
        <ele>4</ele>
        <time>2019-11-05T09:10:39.000Z</time>
      </trkpt>
      <trkpt lat="36.135399453341960906982421875" lon="-5.840730406343936920166015625">
        <ele>3.400000095367431640625</ele>
        <time>2019-11-05T09:10:44.000Z</time>
      </trkpt>
      <trkpt lat="36.13532996736466884613037109375" lon="-5.8405208587646484375">
        <ele>3</ele>
        <time>2019-11-05T09:10:49.000Z</time>
      </trkpt>
      <trkpt lat="36.135245226323604583740234375" lon="-5.84030158817768096923828125">
        <ele>2</ele>
        <time>2019-11-05T09:10:55.000Z</time>
      </trkpt>
      <trkpt lat="36.135176159441471099853515625" lon="-5.84008391015231609344482421875">
        <ele>2</ele>
        <time>2019-11-05T09:11:00.000Z</time>
      </trkpt>
      <trkpt lat="36.13510943949222564697265625" lon="-5.83986832760274410247802734375">
        <ele>2.2000000476837158203125</ele>
        <time>2019-11-05T09:11:05.000Z</time>
      </trkpt>
      <trkpt lat="36.13503777422010898590087890625" lon="-5.83961770869791507720947265625">
        <ele>3.2000000476837158203125</ele>
        <time>2019-11-05T09:11:11.000Z</time>
      </trkpt>
      <trkpt lat="36.13497340120375156402587890625" lon="-5.839408747851848602294921875">
        <ele>3.7999999523162841796875</ele>
        <time>2019-11-05T09:11:16.000Z</time>
      </trkpt>
      <trkpt lat="36.1349191702902317047119140625" lon="-5.839191488921642303466796875">
        <ele>4</ele>
        <time>2019-11-05T09:11:21.000Z</time>
      </trkpt>
      <trkpt lat="36.1348430626094341278076171875" lon="-5.83895252086222171783447265625">
        <ele>4.19999980926513671875</ele>
        <time>2019-11-05T09:11:27.000Z</time>
      </trkpt>
      <trkpt lat="36.134771816432476043701171875" lon="-5.83874112926423549652099609375">
        <ele>4.400000095367431640625</ele>
        <time>2019-11-05T09:11:32.000Z</time>
      </trkpt>
      <trkpt lat="36.134702078998088836669921875" lon="-5.83853376097977161407470703125">
        <ele>4.80000019073486328125</ele>
        <time>2019-11-05T09:11:37.000Z</time>
      </trkpt>
      <trkpt lat="36.13462706096470355987548828125" lon="-5.83830292336642742156982421875">
        <ele>5</ele>
        <time>2019-11-05T09:11:43.000Z</time>
      </trkpt>
      <trkpt lat="36.13455682061612606048583984375" lon="-5.838064290583133697509765625">
        <ele>5</ele>
        <time>2019-11-05T09:11:49.000Z</time>
      </trkpt>
      <trkpt lat="36.13449362106621265411376953125" lon="-5.83785197697579860687255859375">
        <ele>4.400000095367431640625</ele>
        <time>2019-11-05T09:11:54.000Z</time>
      </trkpt>
      <trkpt lat="36.13443352282047271728515625" lon="-5.83761409856379032135009765625">
        <ele>3.7999999523162841796875</ele>
        <time>2019-11-05T09:11:59.000Z</time>
      </trkpt>
      <trkpt lat="36.1343689821660518646240234375" lon="-5.83739248104393482208251953125">
        <ele>3.2000000476837158203125</ele>
        <time>2019-11-05T09:12:05.000Z</time>
      </trkpt>
      <trkpt lat="36.13427150063216686248779296875" lon="-5.83719550631940364837646484375">
        <ele>2.7999999523162841796875</ele>
        <time>2019-11-05T09:12:12.000Z</time>
      </trkpt>
      <trkpt lat="36.134164966642856597900390625" lon="-5.836971290409564971923828125">
        <ele>2.400000095367431640625</ele>
        <time>2019-11-05T09:12:19.000Z</time>
      </trkpt>
      <trkpt lat="36.134058348834514617919921875" lon="-5.83673827350139617919921875">
        <ele>3</ele>
        <time>2019-11-05T09:12:25.000Z</time>
      </trkpt>
      <trkpt lat="36.13396137021481990814208984375" lon="-5.83651372231543064117431640625">
        <ele>3.2000000476837158203125</ele>
        <time>2019-11-05T09:12:30.000Z</time>
      </trkpt>
      <trkpt lat="36.133860535919666290283203125" lon="-5.8362911827862262725830078125">
        <ele>4.400000095367431640625</ele>
        <time>2019-11-05T09:12:35.000Z</time>
      </trkpt>
      <trkpt lat="36.1337770521640777587890625" lon="-5.83607987500727176666259765625">
        <ele>5</ele>
        <time>2019-11-05T09:12:40.000Z</time>
      </trkpt>
      <trkpt lat="36.1336804926395416259765625" lon="-5.8358435891568660736083984375">
        <ele>5.400000095367431640625</ele>
        <time>2019-11-05T09:12:45.000Z</time>
      </trkpt>
      <trkpt lat="36.1336119286715984344482421875" lon="-5.83563714288175106048583984375">
        <ele>5</ele>
        <time>2019-11-05T09:12:49.000Z</time>
      </trkpt>
      <trkpt lat="36.1335572786629199981689453125" lon="-5.83539658226072788238525390625">
        <ele>5</ele>
        <time>2019-11-05T09:12:54.000Z</time>
      </trkpt>
      <trkpt lat="36.13355635665357112884521484375" lon="-5.83517496474087238311767578125">
        <ele>5</ele>
        <time>2019-11-05T09:12:59.000Z</time>
      </trkpt>
      <trkpt lat="36.1334174685180187225341796875" lon="-5.834979079663753509521484375">
        <ele>5</ele>
        <time>2019-11-05T09:13:05.000Z</time>
      </trkpt>
      <trkpt lat="36.13325444050133228302001953125" lon="-5.83485360257327556610107421875">
        <ele>5</ele>
        <time>2019-11-05T09:13:10.000Z</time>
      </trkpt>
      <trkpt lat="36.13305964507162570953369140625" lon="-5.8347500860691070556640625">
        <ele>4.80000019073486328125</ele>
        <time>2019-11-05T09:13:16.000Z</time>
      </trkpt>
      <trkpt lat="36.1328850500285625457763671875" lon="-5.83462779410183429718017578125">
        <ele>5.19999980926513671875</ele>
        <time>2019-11-05T09:13:23.000Z</time>
      </trkpt>
      <trkpt lat="36.132767200469970703125" lon="-5.83443023264408111572265625">
        <ele>5.19999980926513671875</ele>
        <time>2019-11-05T09:13:29.000Z</time>
      </trkpt>
      <trkpt lat="36.1326317489147186279296875" lon="-5.834236443042755126953125">
        <ele>5.19999980926513671875</ele>
        <time>2019-11-05T09:13:35.000Z</time>
      </trkpt>
      <trkpt lat="36.13253049552440643310546875" lon="-5.83401876501739025115966796875">
        <ele>5.19999980926513671875</ele>
        <time>2019-11-05T09:13:41.000Z</time>
      </trkpt>
      <trkpt lat="36.13244106061756610870361328125" lon="-5.83379982970654964447021484375">
        <ele>5</ele>
        <time>2019-11-05T09:13:46.000Z</time>
      </trkpt>
      <trkpt lat="36.1323593370616436004638671875" lon="-5.83356178365647792816162109375">
        <ele>4</ele>
        <time>2019-11-05T09:13:51.000Z</time>
      </trkpt>
      <trkpt lat="36.13228716887533664703369140625" lon="-5.83333647809922695159912109375">
        <ele>2.599999904632568359375</ele>
        <time>2019-11-05T09:13:56.000Z</time>
      </trkpt>
      <trkpt lat="36.13220133818686008453369140625" lon="-5.8331117592751979827880859375">
        <ele>2</ele>
        <time>2019-11-05T09:14:01.000Z</time>
      </trkpt>
      <trkpt lat="36.13212539814412593841552734375" lon="-5.8328737132251262664794921875">
        <ele>1</ele>
        <time>2019-11-05T09:14:06.000Z</time>
      </trkpt>
      <trkpt lat="36.1320518888533115386962890625" lon="-5.83263675682246685028076171875">
        <ele>1.7999999523162841796875</ele>
        <time>2019-11-05T09:14:11.000Z</time>
      </trkpt>
      <trkpt lat="36.13195826299488544464111328125" lon="-5.83241681568324565887451171875">
        <ele>2.599999904632568359375</ele>
        <time>2019-11-05T09:14:16.000Z</time>
      </trkpt>
      <trkpt lat="36.13187729381024837493896484375" lon="-5.8321924321353435516357421875">
        <ele>2.599999904632568359375</ele>
        <time>2019-11-05T09:14:21.000Z</time>
      </trkpt>
      <trkpt lat="36.1318007670342922210693359375" lon="-5.83196000196039676666259765625">
        <ele>1.7999999523162841796875</ele>
        <time>2019-11-05T09:14:26.000Z</time>
      </trkpt>
      <trkpt lat="36.1317090690135955810546875" lon="-5.8317307569086551666259765625">
        <ele>1.39999997615814208984375</ele>
        <time>2019-11-05T09:14:31.000Z</time>
      </trkpt>
      <trkpt lat="36.13161309622228145599365234375" lon="-5.8315128274261951446533203125">
        <ele>1.7999999523162841796875</ele>
        <time>2019-11-05T09:14:36.000Z</time>
      </trkpt>
      <trkpt lat="36.13150346092879772186279296875" lon="-5.831303112208843231201171875">
        <ele>1.60000002384185791015625</ele>
        <time>2019-11-05T09:14:41.000Z</time>
      </trkpt>
      <trkpt lat="36.13139281980693340301513671875" lon="-5.83108493126928806304931640625">
        <ele>1.60000002384185791015625</ele>
        <time>2019-11-05T09:14:46.000Z</time>
      </trkpt>
      <trkpt lat="36.13129131495952606201171875" lon="-5.83085962571203708648681640625">
        <ele>1.7999999523162841796875</ele>
        <time>2019-11-05T09:14:51.000Z</time>
      </trkpt>
      <trkpt lat="36.1311895586550235748291015625" lon="-5.8306441269814968109130859375">
        <ele>2</ele>
        <time>2019-11-05T09:14:56.000Z</time>
      </trkpt>
      <trkpt lat="36.13108118064701557159423828125" lon="-5.830448158085346221923828125">
        <ele>3.400000095367431640625</ele>
        <time>2019-11-05T09:15:01.000Z</time>
      </trkpt>
      <trkpt lat="36.13098998554050922393798828125" lon="-5.83023332990705966949462890625">
        <ele>3.599999904632568359375</ele>
        <time>2019-11-05T09:15:06.000Z</time>
      </trkpt>
      <trkpt lat="36.1309312283992767333984375" lon="-5.8300040848553180694580078125">
        <ele>3.2000000476837158203125</ele>
        <time>2019-11-05T09:15:11.000Z</time>
      </trkpt>
      <trkpt lat="36.1308462359011173248291015625" lon="-5.82978808321058750152587890625">
        <ele>3</ele>
        <time>2019-11-05T09:15:16.000Z</time>
      </trkpt>
      <trkpt lat="36.13076694309711456298828125" lon="-5.82956814207136631011962890625">
        <ele>3</ele>
        <time>2019-11-05T09:15:21.000Z</time>
      </trkpt>
      <trkpt lat="36.130737103521823883056640625" lon="-5.829318277537822723388671875">
        <ele>3</ele>
        <time>2019-11-05T09:15:27.000Z</time>
      </trkpt>
      <trkpt lat="36.1307785101234912872314453125" lon="-5.8292651362717151641845703125">
        <ele>3</ele>
        <time>2019-11-05T09:15:29.000Z</time>
      </trkpt>
      <trkpt lat="36.13096500746905803680419921875" lon="-5.829229764640331268310546875">
        <ele>3</ele>
        <time>2019-11-05T09:15:35.000Z</time>
      </trkpt>
      <trkpt lat="36.1311657540500164031982421875" lon="-5.82920570857822895050048828125">
        <ele>3.599999904632568359375</ele>
        <time>2019-11-05T09:15:41.000Z</time>
      </trkpt>
      <trkpt lat="36.131374798715114593505859375" lon="-5.8291628770530223846435546875">
        <ele>4</ele>
        <time>2019-11-05T09:15:47.000Z</time>
      </trkpt>
      <trkpt lat="36.13158727996051311492919921875" lon="-5.8291477896273136138916015625">
        <ele>4</ele>
        <time>2019-11-05T09:15:53.000Z</time>
      </trkpt>
      <trkpt lat="36.1316733621060848236083984375" lon="-5.82909339107573032379150390625">
        <ele>4</ele>
        <time>2019-11-05T09:15:56.000Z</time>
      </trkpt>
      <trkpt lat="36.13171912729740142822265625" lon="-5.82887160591781139373779296875">
        <ele>4</ele>
        <time>2019-11-05T09:16:01.000Z</time>
      </trkpt>
      <trkpt lat="36.13172977231442928314208984375" lon="-5.8286827616393566131591796875">
        <ele>4</ele>
        <time>2019-11-05T09:16:05.000Z</time>
      </trkpt>
      <trkpt lat="36.13175307400524616241455078125" lon="-5.82845536060631275177001953125">
        <ele>4.19999980926513671875</ele>
        <time>2019-11-05T09:16:10.000Z</time>
      </trkpt>
      <trkpt lat="36.131695322692394256591796875" lon="-5.8282028138637542724609375">
        <ele>4.19999980926513671875</ele>
        <time>2019-11-05T09:16:16.000Z</time>
      </trkpt>
      <trkpt lat="36.13159415312111377716064453125" lon="-5.82800097763538360595703125">
        <ele>3.7999999523162841796875</ele>
        <time>2019-11-05T09:16:21.000Z</time>
      </trkpt>
      <trkpt lat="36.13150362856686115264892578125" lon="-5.8277905918657779693603515625">
        <ele>3.400000095367431640625</ele>
        <time>2019-11-05T09:16:26.000Z</time>
      </trkpt>
      <trkpt lat="36.13145702518522739410400390625" lon="-5.82753787748515605926513671875">
        <ele>2.7999999523162841796875</ele>
        <time>2019-11-05T09:16:31.000Z</time>
      </trkpt>
      <trkpt lat="36.1314918100833892822265625" lon="-5.827316679060459136962890625">
        <ele>2.2000000476837158203125</ele>
        <time>2019-11-05T09:16:36.000Z</time>
      </trkpt>
      <trkpt lat="36.13153363578021526336669921875" lon="-5.82707620225846767425537109375">
        <ele>2.2000000476837158203125</ele>
        <time>2019-11-05T09:16:43.000Z</time>
      </trkpt>
      <trkpt lat="36.13157269544899463653564453125" lon="-5.8268266730010509490966796875">
        <ele>2.7999999523162841796875</ele>
        <time>2019-11-05T09:16:50.000Z</time>
      </trkpt>
      <trkpt lat="36.13162181340157985687255859375" lon="-5.82659013569355010986328125">
        <ele>3</ele>
        <time>2019-11-05T09:16:56.000Z</time>
      </trkpt>
      <trkpt lat="36.13167545758187770843505859375" lon="-5.8263499103486537933349609375">
        <ele>3</ele>
        <time>2019-11-05T09:17:02.000Z</time>
      </trkpt>
      <trkpt lat="36.13172507844865322113037109375" lon="-5.82609199918806552886962890625">
        <ele>2.599999904632568359375</ele>
        <time>2019-11-05T09:17:08.000Z</time>
      </trkpt>
      <trkpt lat="36.13176614977419376373291015625" lon="-5.825875662267208099365234375">
        <ele>2.599999904632568359375</ele>
        <time>2019-11-05T09:17:13.000Z</time>
      </trkpt>
      <trkpt lat="36.1317954026162624359130859375" lon="-5.82562043331563472747802734375">
        <ele>2</ele>
        <time>2019-11-05T09:17:19.000Z</time>
      </trkpt>
      <trkpt lat="36.131915263831615447998046875" lon="-5.82545363344252109527587890625">
        <ele>2.599999904632568359375</ele>
        <time>2019-11-05T09:17:24.000Z</time>
      </trkpt>
      <trkpt lat="36.13208801485598087310791015625" lon="-5.8253112249076366424560546875">
        <ele>3</ele>
        <time>2019-11-05T09:17:30.000Z</time>
      </trkpt>
      <trkpt lat="36.13222983665764331817626953125" lon="-5.82516546361148357391357421875">
        <ele>3</ele>
        <time>2019-11-05T09:17:35.000Z</time>
      </trkpt>
      <trkpt lat="36.13237434066832065582275390625" lon="-5.824977122247219085693359375">
        <ele>3</ele>
        <time>2019-11-05T09:17:41.000Z</time>
      </trkpt>
      <trkpt lat="36.1325056850910186767578125" lon="-5.82477335818111896514892578125">
        <ele>3.2000000476837158203125</ele>
        <time>2019-11-05T09:17:47.000Z</time>
      </trkpt>
      <trkpt lat="36.13261188380420207977294921875" lon="-5.82455073483288288116455078125">
        <ele>4</ele>
        <time>2019-11-05T09:17:53.000Z</time>
      </trkpt>
      <trkpt lat="36.132692433893680572509765625" lon="-5.8243503235280513763427734375">
        <ele>4.80000019073486328125</ele>
        <time>2019-11-05T09:17:58.000Z</time>
      </trkpt>
      <trkpt lat="36.13276116549968719482421875" lon="-5.8241380937397480010986328125">
        <ele>5.400000095367431640625</ele>
        <time>2019-11-05T09:18:03.000Z</time>
      </trkpt>
      <trkpt lat="36.132817156612873077392578125" lon="-5.8239255286753177642822265625">
        <ele>6</ele>
        <time>2019-11-05T09:18:08.000Z</time>
      </trkpt>
      <trkpt lat="36.1328870616853237152099609375" lon="-5.82371002994477748870849609375">
        <ele>5.80000019073486328125</ele>
        <time>2019-11-05T09:18:13.000Z</time>
      </trkpt>
      <trkpt lat="36.132964678108692169189453125" lon="-5.8235047571361064910888671875">
        <ele>5.19999980926513671875</ele>
        <time>2019-11-05T09:18:18.000Z</time>
      </trkpt>
      <trkpt lat="36.13306534476578235626220703125" lon="-5.82327182404696941375732421875">
        <ele>4.80000019073486328125</ele>
        <time>2019-11-05T09:18:24.000Z</time>
      </trkpt>
      <trkpt lat="36.13316391594707965850830078125" lon="-5.8230581693351268768310546875">
        <ele>4.80000019073486328125</ele>
        <time>2019-11-05T09:18:30.000Z</time>
      </trkpt>
      <trkpt lat="36.1332709528505802154541015625" lon="-5.82285122014582157135009765625">
        <ele>5</ele>
        <time>2019-11-05T09:18:36.000Z</time>
      </trkpt>
      <trkpt lat="36.13339190371334552764892578125" lon="-5.8226340450346469879150390625">
        <ele>5</ele>
        <time>2019-11-05T09:18:42.000Z</time>
      </trkpt>
      <trkpt lat="36.13350975327193737030029296875" lon="-5.82241133786737918853759765625">
        <ele>4.400000095367431640625</ele>
        <time>2019-11-05T09:18:48.000Z</time>
      </trkpt>
      <trkpt lat="36.133617125451564788818359375" lon="-5.82222509197890758514404296875">
        <ele>4</ele>
        <time>2019-11-05T09:18:53.000Z</time>
      </trkpt>
      <trkpt lat="36.133714020252227783203125" lon="-5.82203398458659648895263671875">
        <ele>4</ele>
        <time>2019-11-05T09:18:58.000Z</time>
      </trkpt>
      <trkpt lat="36.133823655545711517333984375" lon="-5.82185360603034496307373046875">
        <ele>4.599999904632568359375</ele>
        <time>2019-11-05T09:19:03.000Z</time>
      </trkpt>
      <trkpt lat="36.133924238383769989013671875" lon="-5.8216287195682525634765625">
        <ele>5.400000095367431640625</ele>
        <time>2019-11-05T09:19:09.000Z</time>
      </trkpt>
      <trkpt lat="36.1340270005166530609130859375" lon="-5.82139746285974979400634765625">
        <ele>5.80000019073486328125</ele>
        <time>2019-11-05T09:19:15.000Z</time>
      </trkpt>
      <trkpt lat="36.13409866578876972198486328125" lon="-5.8211668767035007476806640625">
        <ele>6</ele>
        <time>2019-11-05T09:19:21.000Z</time>
      </trkpt>
      <trkpt lat="36.13411970436573028564453125" lon="-5.82110107876360416412353515625">
        <ele>6</ele>
        <time>2019-11-05T09:19:23.000Z</time>
      </trkpt>
      <trkpt lat="36.13418751396238803863525390625" lon="-5.82101960666477680206298828125">
        <ele>6</ele>
        <time>2019-11-05T09:19:29.000Z</time>
      </trkpt>
      <trkpt lat="36.13418751396238803863525390625" lon="-5.82101516425609588623046875">
        <ele>6</ele>
        <time>2019-11-05T09:19:33.000Z</time>
      </trkpt>
      <trkpt lat="36.134272925555706024169921875" lon="-5.8209157548844814300537109375">
        <ele>6</ele>
        <time>2019-11-05T09:19:48.000Z</time>
      </trkpt>
      <trkpt lat="36.1343713290989398956298828125" lon="-5.82071819342672824859619140625">
        <ele>5.400000095367431640625</ele>
        <time>2019-11-05T09:19:55.000Z</time>
      </trkpt>
      <trkpt lat="36.1345238797366619110107421875" lon="-5.82054301165044307708740234375">
        <ele>5.19999980926513671875</ele>
        <time>2019-11-05T09:20:02.000Z</time>
      </trkpt>
      <trkpt lat="36.13463410176336765289306640625" lon="-5.820357687771320343017578125">
        <ele>5</ele>
        <time>2019-11-05T09:20:08.000Z</time>
      </trkpt>
      <trkpt lat="36.13480593077838420867919921875" lon="-5.8202371560037136077880859375">
        <ele>5.599999904632568359375</ele>
        <time>2019-11-05T09:20:14.000Z</time>
      </trkpt>
      <trkpt lat="36.13497926853597164154052734375" lon="-5.82011536695063114166259765625">
        <ele>6.19999980926513671875</ele>
        <time>2019-11-05T09:20:21.000Z</time>
      </trkpt>
      <trkpt lat="36.13513760268688201904296875" lon="-5.8200584538280963897705078125">
        <ele>6.80000019073486328125</ele>
        <time>2019-11-05T09:20:33.000Z</time>
      </trkpt>
      <trkpt lat="36.13522334955632686614990234375" lon="-5.82001914270222187042236328125">
        <ele>7</ele>
        <time>2019-11-05T09:21:00.000Z</time>
      </trkpt>
      <trkpt lat="36.13539953716099262237548828125" lon="-5.819961726665496826171875">
        <ele>7</ele>
        <time>2019-11-05T09:21:09.000Z</time>
      </trkpt>
      <trkpt lat="36.13558226265013217926025390625" lon="-5.81990028731524944305419921875">
        <ele>6.599999904632568359375</ele>
        <time>2019-11-05T09:21:17.000Z</time>
      </trkpt>
      <trkpt lat="36.13577487878501415252685546875" lon="-5.819843374192714691162109375">
        <ele>6.19999980926513671875</ele>
        <time>2019-11-05T09:21:24.000Z</time>
      </trkpt>
      <trkpt lat="36.1359615437686443328857421875" lon="-5.8197882212698459625244140625">
        <ele>6.80000019073486328125</ele>
        <time>2019-11-05T09:21:31.000Z</time>
      </trkpt>
      <trkpt lat="36.13615424372255802154541015625" lon="-5.81974287517368793487548828125">
        <ele>6.400000095367431640625</ele>
        <time>2019-11-05T09:21:38.000Z</time>
      </trkpt>
      <trkpt lat="36.1363331973552703857421875" lon="-5.819673053920269012451171875">
        <ele>5.599999904632568359375</ele>
        <time>2019-11-05T09:21:44.000Z</time>
      </trkpt>
      <trkpt lat="36.13650712184607982635498046875" lon="-5.81960222683846950531005859375">
        <ele>4.400000095367431640625</ele>
        <time>2019-11-05T09:21:50.000Z</time>
      </trkpt>
      <trkpt lat="36.1366899311542510986328125" lon="-5.81954254768788814544677734375">
        <ele>5</ele>
        <time>2019-11-05T09:21:56.000Z</time>
      </trkpt>
      <trkpt lat="36.13686871714890003204345703125" lon="-5.81946945749223232269287109375">
        <ele>6</ele>
        <time>2019-11-05T09:22:02.000Z</time>
      </trkpt>
      <trkpt lat="36.13704104907810688018798828125" lon="-5.819378681480884552001953125">
        <ele>6.80000019073486328125</ele>
        <time>2019-11-05T09:22:08.000Z</time>
      </trkpt>
      <trkpt lat="36.137207262217998504638671875" lon="-5.819268710911273956298828125">
        <ele>7</ele>
        <time>2019-11-05T09:22:14.000Z</time>
      </trkpt>
      <trkpt lat="36.13739828579127788543701171875" lon="-5.81916821189224720001220703125">
        <ele>7</ele>
        <time>2019-11-05T09:22:21.000Z</time>
      </trkpt>
      <trkpt lat="36.137576736509799957275390625" lon="-5.819065533578395843505859375">
        <ele>7</ele>
        <time>2019-11-05T09:22:28.000Z</time>
      </trkpt>
      <trkpt lat="36.13774915225803852081298828125" lon="-5.81898062489926815032958984375">
        <ele>7</ele>
        <time>2019-11-05T09:22:35.000Z</time>
      </trkpt>
      <trkpt lat="36.13792550750076770782470703125" lon="-5.81889445893466472625732421875">
        <ele>7</ele>
        <time>2019-11-05T09:22:42.000Z</time>
      </trkpt>
      <trkpt lat="36.1381126753985881805419921875" lon="-5.81879421137273311614990234375">
        <ele>7</ele>
        <time>2019-11-05T09:22:49.000Z</time>
      </trkpt>
      <trkpt lat="36.138284169137477874755859375" lon="-5.8186968974769115447998046875">
        <ele>7</ele>
        <time>2019-11-05T09:22:55.000Z</time>
      </trkpt>
      <trkpt lat="36.13847737200558185577392578125" lon="-5.81860980950295925140380859375">
        <ele>7.400000095367431640625</ele>
        <time>2019-11-05T09:23:02.000Z</time>
      </trkpt>
      <trkpt lat="36.138671077787876129150390625" lon="-5.8185215480625629425048828125">
        <ele>8.80000019073486328125</ele>
        <time>2019-11-05T09:23:09.000Z</time>
      </trkpt>
      <trkpt lat="36.13885506056249141693115234375" lon="-5.8184638805687427520751953125">
        <ele>10.19999980926513671875</ele>
        <time>2019-11-05T09:23:16.000Z</time>
      </trkpt>
      <trkpt lat="36.13903560675680637359619140625" lon="-5.8183832466602325439453125">
        <ele>10.80000019073486328125</ele>
        <time>2019-11-05T09:23:23.000Z</time>
      </trkpt>
      <trkpt lat="36.1392140574753284454345703125" lon="-5.8183069713413715362548828125">
        <ele>10.3999996185302734375</ele>
        <time>2019-11-05T09:23:30.000Z</time>
      </trkpt>
      <trkpt lat="36.1393962800502777099609375" lon="-5.8182285167276859283447265625">
        <ele>10</ele>
        <time>2019-11-05T09:23:37.000Z</time>
      </trkpt>
      <trkpt lat="36.13957892172038555145263671875" lon="-5.81813002936542034149169921875">
        <ele>10</ele>
        <time>2019-11-05T09:23:44.000Z</time>
      </trkpt>
      <trkpt lat="36.1397209949791431427001953125" lon="-5.81799566745758056640625">
        <ele>10.3999996185302734375</ele>
        <time>2019-11-05T09:23:51.000Z</time>
      </trkpt>
      <trkpt lat="36.13983021117746829986572265625" lon="-5.817795507609844207763671875">
        <ele>10.6000003814697265625</ele>
        <time>2019-11-05T09:23:59.000Z</time>
      </trkpt>
      <trkpt lat="36.139888800680637359619140625" lon="-5.81757523119449615478515625">
        <ele>10</ele>
        <time>2019-11-05T09:24:06.000Z</time>
      </trkpt>
      <trkpt lat="36.1399727873504161834716796875" lon="-5.81737834028899669647216796875">
        <ele>9.3999996185302734375</ele>
        <time>2019-11-05T09:24:12.000Z</time>
      </trkpt>
      <trkpt lat="36.140038333833217620849609375" lon="-5.81712654791772365570068359375">
        <ele>9.19999980926513671875</ele>
        <time>2019-11-05T09:24:18.000Z</time>
      </trkpt>
      <trkpt lat="36.14008066244423389434814453125" lon="-5.81687542609870433807373046875">
        <ele>9.6000003814697265625</ele>
        <time>2019-11-05T09:24:24.000Z</time>
      </trkpt>
      <trkpt lat="36.14009658806025981903076171875" lon="-5.81665229983627796173095703125">
        <ele>9.6000003814697265625</ele>
        <time>2019-11-05T09:24:30.000Z</time>
      </trkpt>
      <trkpt lat="36.140105724334716796875" lon="-5.81640369258821010589599609375">
        <ele>9.19999980926513671875</ele>
        <time>2019-11-05T09:24:36.000Z</time>
      </trkpt>
      <trkpt lat="36.14012642763555049896240234375" lon="-5.8161632157862186431884765625">
        <ele>9.19999980926513671875</ele>
        <time>2019-11-05T09:24:42.000Z</time>
      </trkpt>
      <trkpt lat="36.14018074236810207366943359375" lon="-5.81594000570476055145263671875">
        <ele>10</ele>
        <time>2019-11-05T09:24:48.000Z</time>
      </trkpt>
      <trkpt lat="36.140268333256244659423828125" lon="-5.81574470736086368560791015625">
        <ele>10.6000003814697265625</ele>
        <time>2019-11-05T09:24:54.000Z</time>
      </trkpt>
      <trkpt lat="36.14035793580114841461181640625" lon="-5.81554949283599853515625">
        <ele>11</ele>
        <time>2019-11-05T09:25:00.000Z</time>
      </trkpt>
      <trkpt lat="36.140439994633197784423828125" lon="-5.8153273724019527435302734375">
        <ele>10.80000019073486328125</ele>
        <time>2019-11-05T09:25:07.000Z</time>
      </trkpt>
      <trkpt lat="36.14052725024521350860595703125" lon="-5.81512662582099437713623046875">
        <ele>10.3999996185302734375</ele>
        <time>2019-11-05T09:25:13.000Z</time>
      </trkpt>
      <trkpt lat="36.14062313921749591827392578125" lon="-5.81491406075656414031982421875">
        <ele>10.6000003814697265625</ele>
        <time>2019-11-05T09:25:19.000Z</time>
      </trkpt>
      <trkpt lat="36.140719614923000335693359375" lon="-5.81471021287143230438232421875">
        <ele>10.6000003814697265625</ele>
        <time>2019-11-05T09:25:25.000Z</time>
      </trkpt>
      <trkpt lat="36.140822209417819976806640625" lon="-5.81451139412820339202880859375">
        <ele>10</ele>
        <time>2019-11-05T09:25:31.000Z</time>
      </trkpt>
      <trkpt lat="36.140929497778415679931640625" lon="-5.8143074624240398406982421875">
        <ele>10</ele>
        <time>2019-11-05T09:25:37.000Z</time>
      </trkpt>
      <trkpt lat="36.1410369537770748138427734375" lon="-5.8141046203672885894775390625">
        <ele>9.6000003814697265625</ele>
        <time>2019-11-05T09:25:43.000Z</time>
      </trkpt>
      <trkpt lat="36.14114063791930675506591796875" lon="-5.81390890292823314666748046875">
        <ele>9.6000003814697265625</ele>
        <time>2019-11-05T09:25:49.000Z</time>
      </trkpt>
      <trkpt lat="36.14124658517539501190185546875" lon="-5.81369516439735889434814453125">
        <ele>9.80000019073486328125</ele>
        <time>2019-11-05T09:25:56.000Z</time>
      </trkpt>
      <trkpt lat="36.14133224822580814361572265625" lon="-5.81349961459636688232421875">
        <ele>9.6000003814697265625</ele>
        <time>2019-11-05T09:26:02.000Z</time>
      </trkpt>
      <trkpt lat="36.141396202147006988525390625" lon="-5.81328646279871463775634765625">
        <ele>9.80000019073486328125</ele>
        <time>2019-11-05T09:26:08.000Z</time>
      </trkpt>
      <trkpt lat="36.1414600722491741180419921875" lon="-5.81307238899171352386474609375">
        <ele>10.6000003814697265625</ele>
        <time>2019-11-05T09:26:14.000Z</time>
      </trkpt>
      <trkpt lat="36.1415569670498371124267578125" lon="-5.8128547109663486480712890625">
        <ele>11</ele>
        <time>2019-11-05T09:26:21.000Z</time>
      </trkpt>
      <trkpt lat="36.14166819490492343902587890625" lon="-5.81266402266919612884521484375">
        <ele>10.19999980926513671875</ele>
        <time>2019-11-05T09:26:27.000Z</time>
      </trkpt>
      <trkpt lat="36.14180088043212890625" lon="-5.8124939538538455963134765625">
        <ele>10</ele>
        <time>2019-11-05T09:26:33.000Z</time>
      </trkpt>
      <trkpt lat="36.14190825261175632476806640625" lon="-5.812303684651851654052734375">
        <ele>10</ele>
        <time>2019-11-05T09:26:39.000Z</time>
      </trkpt>
      <trkpt lat="36.14201537333428859710693359375" lon="-5.81210662610828876495361328125">
        <ele>10.80000019073486328125</ele>
        <time>2019-11-05T09:26:45.000Z</time>
      </trkpt>
      <trkpt lat="36.14212601445615291595458984375" lon="-5.81189456395804882049560546875">
        <ele>11.3999996185302734375</ele>
        <time>2019-11-05T09:26:51.000Z</time>
      </trkpt>
      <trkpt lat="36.14221595227718353271484375" lon="-5.811692140996456146240234375">
        <ele>11.6000003814697265625</ele>
        <time>2019-11-05T09:26:57.000Z</time>
      </trkpt>
      <trkpt lat="36.14230521954596042633056640625" lon="-5.81145669333636760711669921875">
        <ele>11</ele>
        <time>2019-11-05T09:27:04.000Z</time>
      </trkpt>
      <trkpt lat="36.14236188121140003204345703125" lon="-5.8112105168402194976806640625">
        <ele>11</ele>
        <time>2019-11-05T09:27:11.000Z</time>
      </trkpt>
      <trkpt lat="36.14239641465246677398681640625" lon="-5.81095327623188495635986328125">
        <ele>11</ele>
        <time>2019-11-05T09:27:18.000Z</time>
      </trkpt>
      <trkpt lat="36.14241116680204868316650390625" lon="-5.81071556545794010162353515625">
        <ele>11</ele>
        <time>2019-11-05T09:27:24.000Z</time>
      </trkpt>
      <trkpt lat="36.1424246616661548614501953125" lon="-5.81045136786997318267822265625">
        <ele>10.3999996185302734375</ele>
        <time>2019-11-05T09:27:30.000Z</time>
      </trkpt>
      <trkpt lat="36.1424923874437808990478515625" lon="-5.81022153608500957489013671875">
        <ele>10</ele>
        <time>2019-11-05T09:27:35.000Z</time>
      </trkpt>
      <trkpt lat="36.14258366636931896209716796875" lon="-5.81002355553209781646728515625">
        <ele>10.19999980926513671875</ele>
        <time>2019-11-05T09:27:40.000Z</time>
      </trkpt>
      <trkpt lat="36.142678298056125640869140625" lon="-5.809828676283359527587890625">
        <ele>11</ele>
        <time>2019-11-05T09:27:45.000Z</time>
      </trkpt>
      <trkpt lat="36.142800338566303253173828125" lon="-5.8096055500209331512451171875">
        <ele>11.19999980926513671875</ele>
        <time>2019-11-05T09:27:51.000Z</time>
      </trkpt>
      <trkpt lat="36.142915003001689910888671875" lon="-5.80940715037286281585693359375">
        <ele>11.6000003814697265625</ele>
        <time>2019-11-05T09:27:56.000Z</time>
      </trkpt>
      <trkpt lat="36.14303209818899631500244140625" lon="-5.80921503715217113494873046875">
        <ele>12</ele>
        <time>2019-11-05T09:28:02.000Z</time>
      </trkpt>
      <trkpt lat="36.14317693747580051422119140625" lon="-5.80903331749141216278076171875">
        <ele>12</ele>
        <time>2019-11-05T09:28:09.000Z</time>
      </trkpt>
      <trkpt lat="36.14328078925609588623046875" lon="-5.80881890840828418731689453125">
        <ele>12.19999980926513671875</ele>
        <time>2019-11-05T09:28:16.000Z</time>
      </trkpt>
      <trkpt lat="36.14338665269315242767333984375" lon="-5.808627046644687652587890625">
        <ele>12.80000019073486328125</ele>
        <time>2019-11-05T09:28:23.000Z</time>
      </trkpt>
      <trkpt lat="36.14343610592186450958251953125" lon="-5.8083905093371868133544921875">
        <ele>13.80000019073486328125</ele>
        <time>2019-11-05T09:28:30.000Z</time>
      </trkpt>
      <trkpt lat="36.14347717724740505218505859375" lon="-5.8081715740263462066650390625">
        <ele>13.80000019073486328125</ele>
        <time>2019-11-05T09:28:36.000Z</time>
      </trkpt>
      <trkpt lat="36.14351145923137664794921875" lon="-5.80795205198228359222412109375">
        <ele>14</ele>
        <time>2019-11-05T09:28:43.000Z</time>
      </trkpt>
      <trkpt lat="36.14352998323738574981689453125" lon="-5.80771953798830509185791015625">
        <ele>14.6000003814697265625</ele>
        <time>2019-11-05T09:28:51.000Z</time>
      </trkpt>
      <trkpt lat="36.14357910118997097015380859375" lon="-5.80748383887112140655517578125">
        <ele>15.6000003814697265625</ele>
        <time>2019-11-05T09:28:59.000Z</time>
      </trkpt>
      <trkpt lat="36.143622100353240966796875" lon="-5.80725082196295261383056640625">
        <ele>16.6000003814697265625</ele>
        <time>2019-11-05T09:29:07.000Z</time>
      </trkpt>
      <trkpt lat="36.1436722241342067718505859375" lon="-5.80702551640570163726806640625">
        <ele>17.200000762939453125</ele>
        <time>2019-11-05T09:29:14.000Z</time>
      </trkpt>
      <trkpt lat="36.1437386088073253631591796875" lon="-5.80678931437432765960693359375">
        <ele>17.6000003814697265625</ele>
        <time>2019-11-05T09:29:22.000Z</time>
      </trkpt>
      <trkpt lat="36.14379434846341609954833984375" lon="-5.80657255835831165313720703125">
        <ele>17.3999996185302734375</ele>
        <time>2019-11-05T09:29:29.000Z</time>
      </trkpt>
      <trkpt lat="36.14382787607610225677490234375" lon="-5.80635127611458301544189453125">
        <ele>17</ele>
        <time>2019-11-05T09:29:36.000Z</time>
      </trkpt>
      <trkpt lat="36.143873222172260284423828125" lon="-5.80612144432961940765380859375">
        <ele>16.3999996185302734375</ele>
        <time>2019-11-05T09:29:43.000Z</time>
      </trkpt>
      <trkpt lat="36.14395880140364170074462890625" lon="-5.80590167082846164703369140625">
        <ele>16.200000762939453125</ele>
        <time>2019-11-05T09:29:51.000Z</time>
      </trkpt>
      <trkpt lat="36.14411302842199802398681640625" lon="-5.80577753484249114990234375">
        <ele>17</ele>
        <time>2019-11-05T09:30:00.000Z</time>
      </trkpt>
      <trkpt lat="36.14413616247475147247314453125" lon="-5.80575096420943737030029296875">
        <ele>17.200000762939453125</ele>
        <time>2019-11-05T09:30:02.000Z</time>
      </trkpt>
      <trkpt lat="36.14429273642599582672119140625" lon="-5.8056164346635341644287109375">
        <ele>18.3999996185302734375</ele>
        <time>2019-11-05T09:30:11.000Z</time>
      </trkpt>
      <trkpt lat="36.14447169005870819091796875" lon="-5.8056388981640338897705078125">
        <ele>20.3999996185302734375</ele>
        <time>2019-11-05T09:30:19.000Z</time>
      </trkpt>
      <trkpt lat="36.14448736421763896942138671875" lon="-5.80563663505017757415771484375">
        <ele>20.6000003814697265625</ele>
        <time>2019-11-05T09:30:20.000Z</time>
      </trkpt>
      <trkpt lat="36.14455291070044040679931640625" lon="-5.80561467446386814117431640625">
        <ele>21.3999996185302734375</ele>
        <time>2019-11-05T09:30:25.000Z</time>
      </trkpt>
      <trkpt lat="36.144552491605281829833984375" lon="-5.80561467446386814117431640625">
        <ele>21.3999996185302734375</ele>
        <time>2019-11-05T09:30:27.000Z</time>
      </trkpt>
      <trkpt lat="36.144551821053028106689453125" lon="-5.8056144230067729949951171875">
        <ele>21.3999996185302734375</ele>
        <time>2019-11-05T09:30:29.000Z</time>
      </trkpt>
      <trkpt lat="36.1445084027945995330810546875" lon="-5.8055121637880802154541015625">
        <ele>21.200000762939453125</ele>
        <time>2019-11-05T09:30:55.000Z</time>
      </trkpt>
      <trkpt lat="36.14441745914518833160400390625" lon="-5.80528476275503635406494140625">
        <ele>20.3999996185302734375</ele>
        <time>2019-11-05T09:31:03.000Z</time>
      </trkpt>
      <trkpt lat="36.14434185437858104705810546875" lon="-5.8050491474568843841552734375">
        <ele>20.200000762939453125</ele>
        <time>2019-11-05T09:31:09.000Z</time>
      </trkpt>
      <trkpt lat="36.14428284578025341033935546875" lon="-5.80481336452066898345947265625">
        <ele>20.3999996185302734375</ele>
        <time>2019-11-05T09:31:15.000Z</time>
      </trkpt>
      <trkpt lat="36.1442217417061328887939453125" lon="-5.80463985912501811981201171875">
        <ele>19.200000762939453125</ele>
        <time>2019-11-05T09:31:24.000Z</time>
      </trkpt>
      <trkpt lat="36.1442190594971179962158203125" lon="-5.80463499762117862701416015625">
        <ele>19</ele>
        <time>2019-11-05T09:31:26.000Z</time>
      </trkpt>
      <trkpt lat="36.1442170478403568267822265625" lon="-5.804631225764751434326171875">
        <ele>19</ele>
        <time>2019-11-05T09:31:29.000Z</time>
      </trkpt>
      <trkpt lat="36.14422350190579891204833984375" lon="-5.80452083609998226165771484375">
        <ele>19.200000762939453125</ele>
        <time>2019-11-05T09:31:44.000Z</time>
      </trkpt>
      <trkpt lat="36.14424445666372776031494140625" lon="-5.80435755662620067596435546875">
        <ele>19.200000762939453125</ele>
        <time>2019-11-05T09:31:51.000Z</time>
      </trkpt>
      <trkpt lat="36.14430279470980167388916015625" lon="-5.80412336625158786773681640625">
        <ele>20.200000762939453125</ele>
        <time>2019-11-05T09:32:00.000Z</time>
      </trkpt>
      <trkpt lat="36.1443476378917694091796875" lon="-5.8038880862295627593994140625">
        <ele>21.3999996185302734375</ele>
        <time>2019-11-05T09:32:08.000Z</time>
      </trkpt>
      <trkpt lat="36.144357025623321533203125" lon="-5.80365917645394802093505859375">
        <ele>22.200000762939453125</ele>
        <time>2019-11-05T09:32:17.000Z</time>
      </trkpt>
      <trkpt lat="36.1443530023097991943359375" lon="-5.80363981425762176513671875">
        <ele>22</ele>
        <time>2019-11-05T09:32:19.000Z</time>
      </trkpt>
      <trkpt lat="36.1443508230149745941162109375" lon="-5.8036471903324127197265625">
        <ele>22</ele>
        <time>2019-11-05T09:32:23.000Z</time>
      </trkpt>
      <trkpt lat="36.14436532370746135711669921875" lon="-5.8035387285053730010986328125">
        <ele>22.200000762939453125</ele>
        <time>2019-11-05T09:33:21.000Z</time>
      </trkpt>
      <trkpt lat="36.1443798243999481201171875" lon="-5.8033036999404430389404296875">
        <ele>23</ele>
        <time>2019-11-05T09:33:30.000Z</time>
      </trkpt>
      <trkpt lat="36.14432374946773052215576171875" lon="-5.80307562835514545440673828125">
        <ele>24</ele>
        <time>2019-11-05T09:33:38.000Z</time>
      </trkpt>
      <trkpt lat="36.14429005421698093414306640625" lon="-5.80283959396183490753173828125">
        <ele>24.6000003814697265625</ele>
        <time>2019-11-05T09:33:46.000Z</time>
      </trkpt>
      <trkpt lat="36.14425015635788440704345703125" lon="-5.80260138027369976043701171875">
        <ele>25.6000003814697265625</ele>
        <time>2019-11-05T09:33:54.000Z</time>
      </trkpt>
      <trkpt lat="36.14421294070780277252197265625" lon="-5.80237775109708309173583984375">
        <ele>26.200000762939453125</ele>
        <time>2019-11-05T09:34:01.000Z</time>
      </trkpt>
      <trkpt lat="36.1441365815699100494384765625" lon="-5.8021439798176288604736328125">
        <ele>26</ele>
        <time>2019-11-05T09:34:08.000Z</time>
      </trkpt>
      <trkpt lat="36.14402619190514087677001953125" lon="-5.80191917717456817626953125">
        <ele>24</ele>
        <time>2019-11-05T09:34:13.000Z</time>
      </trkpt>
      <trkpt lat="36.1439075879752635955810546875" lon="-5.80170183442533016204833984375">
        <ele>21.6000003814697265625</ele>
        <time>2019-11-05T09:34:18.000Z</time>
      </trkpt>
      <trkpt lat="36.14384866319596767425537109375" lon="-5.80148474313318729400634765625">
        <ele>20.3999996185302734375</ele>
        <time>2019-11-05T09:34:22.000Z</time>
      </trkpt>
      <trkpt lat="36.14381278865039348602294921875" lon="-5.80125868320465087890625">
        <ele>20.200000762939453125</ele>
        <time>2019-11-05T09:34:26.000Z</time>
      </trkpt>
      <trkpt lat="36.14375612698495388031005859375" lon="-5.80102994106709957122802734375">
        <ele>19.799999237060546875</ele>
        <time>2019-11-05T09:34:31.000Z</time>
      </trkpt>
      <trkpt lat="36.14369519054889678955078125" lon="-5.80081871710717678070068359375">
        <ele>19</ele>
        <time>2019-11-05T09:34:36.000Z</time>
      </trkpt>
      <trkpt lat="36.14367398433387279510498046875" lon="-5.80074445344507694244384765625">
        <ele>18.6000003814697265625</ele>
        <time>2019-11-05T09:34:38.000Z</time>
      </trkpt>
      <trkpt lat="36.1436594836413860321044921875" lon="-5.80070145428180694580078125">
        <ele>18.6000003814697265625</ele>
        <time>2019-11-05T09:34:42.000Z</time>
      </trkpt>
      <trkpt lat="36.1436556279659271240234375" lon="-5.800699107348918914794921875">
        <ele>18.6000003814697265625</ele>
        <time>2019-11-05T09:34:45.000Z</time>
      </trkpt>
      <trkpt lat="36.14362101070582866668701171875" lon="-5.80061956308782100677490234375">
        <ele>18.3999996185302734375</ele>
        <time>2019-11-05T09:35:32.000Z</time>
      </trkpt>
      <trkpt lat="36.14355445839464664459228515625" lon="-5.800403393805027008056640625">
        <ele>18.200000762939453125</ele>
        <time>2019-11-05T09:35:39.000Z</time>
      </trkpt>
      <trkpt lat="36.1434915103018283843994140625" lon="-5.80018068663775920867919921875">
        <ele>17.799999237060546875</ele>
        <time>2019-11-05T09:35:45.000Z</time>
      </trkpt>
      <trkpt lat="36.1434244550764560699462890625" lon="-5.7999368570744991302490234375">
        <ele>17.3999996185302734375</ele>
        <time>2019-11-05T09:35:51.000Z</time>
      </trkpt>
      <trkpt lat="36.143375672399997711181640625" lon="-5.799717418849468231201171875">
        <ele>17.6000003814697265625</ele>
        <time>2019-11-05T09:35:56.000Z</time>
      </trkpt>
      <trkpt lat="36.143309958279132843017578125" lon="-5.7994989864528179168701171875">
        <ele>17.3999996185302734375</ele>
        <time>2019-11-05T09:36:01.000Z</time>
      </trkpt>
      <trkpt lat="36.1432377062737941741943359375" lon="-5.799268148839473724365234375">
        <ele>17</ele>
        <time>2019-11-05T09:36:06.000Z</time>
      </trkpt>
      <trkpt lat="36.14316218532621860504150390625" lon="-5.79900638200342655181884765625">
        <ele>17.3999996185302734375</ele>
        <time>2019-11-05T09:36:11.000Z</time>
      </trkpt>
      <trkpt lat="36.14307719282805919647216796875" lon="-5.79875995405018329620361328125">
        <ele>16.799999237060546875</ele>
        <time>2019-11-05T09:36:16.000Z</time>
      </trkpt>
      <trkpt lat="36.14299220032989978790283203125" lon="-5.79852794297039508819580078125">
        <ele>16.799999237060546875</ele>
        <time>2019-11-05T09:36:21.000Z</time>
      </trkpt>
      <trkpt lat="36.1428933776915073394775390625" lon="-5.7983047328889369964599609375">
        <ele>17.200000762939453125</ele>
        <time>2019-11-05T09:36:26.000Z</time>
      </trkpt>
      <trkpt lat="36.14279304631054401397705078125" lon="-5.79807691276073455810546875">
        <ele>18.200000762939453125</ele>
        <time>2019-11-05T09:36:31.000Z</time>
      </trkpt>
      <trkpt lat="36.1426771245896816253662109375" lon="-5.79785923473536968231201171875">
        <ele>19</ele>
        <time>2019-11-05T09:36:36.000Z</time>
      </trkpt>
      <trkpt lat="36.142556928098201751708984375" lon="-5.7976583205163478851318359375">
        <ele>18.799999237060546875</ele>
        <time>2019-11-05T09:36:41.000Z</time>
      </trkpt>
      <trkpt lat="36.14243547432124614715576171875" lon="-5.7974792830646038055419921875">
        <ele>19</ele>
        <time>2019-11-05T09:36:46.000Z</time>
      </trkpt>
      <trkpt lat="36.142308153212070465087890625" lon="-5.7972938753664493560791015625">
        <ele>19.799999237060546875</ele>
        <time>2019-11-05T09:36:51.000Z</time>
      </trkpt>
      <trkpt lat="36.14220388233661651611328125" lon="-5.79707602970302104949951171875">
        <ele>20.799999237060546875</ele>
        <time>2019-11-05T09:36:58.000Z</time>
      </trkpt>
      <trkpt lat="36.142120398581027984619140625" lon="-5.79686899669468402862548828125">
        <ele>20.3999996185302734375</ele>
        <time>2019-11-05T09:37:06.000Z</time>
      </trkpt>
      <trkpt lat="36.14203230477869510650634765625" lon="-5.79664670862257480621337890625">
        <ele>20.3999996185302734375</ele>
        <time>2019-11-05T09:37:14.000Z</time>
      </trkpt>
      <trkpt lat="36.1419385112822055816650390625" lon="-5.7964399270713329315185546875">
        <ele>19.799999237060546875</ele>
        <time>2019-11-05T09:37:21.000Z</time>
      </trkpt>
      <trkpt lat="36.1418422870337963104248046875" lon="-5.79624856822192668914794921875">
        <ele>19.200000762939453125</ele>
        <time>2019-11-05T09:37:27.000Z</time>
      </trkpt>
      <trkpt lat="36.14174245856702327728271484375" lon="-5.79603952355682849884033203125">
        <ele>20.200000762939453125</ele>
        <time>2019-11-05T09:37:34.000Z</time>
      </trkpt>
      <trkpt lat="36.14165277220308780670166015625" lon="-5.79581337980926036834716796875">
        <ele>21.3999996185302734375</ele>
        <time>2019-11-05T09:37:41.000Z</time>
      </trkpt>
      <trkpt lat="36.14157314412295818328857421875" lon="-5.7956007309257984161376953125">
        <ele>22</ele>
        <time>2019-11-05T09:37:47.000Z</time>
      </trkpt>
      <trkpt lat="36.141471303999423980712890625" lon="-5.79539847560226917266845703125">
        <ele>23.6000003814697265625</ele>
        <time>2019-11-05T09:37:54.000Z</time>
      </trkpt>
      <trkpt lat="36.141368038952350616455078125" lon="-5.79518959857523441314697265625">
        <ele>23.799999237060546875</ele>
        <time>2019-11-05T09:38:02.000Z</time>
      </trkpt>
      <trkpt lat="36.1412743292748928070068359375" lon="-5.79499178566038608551025390625">
        <ele>23.799999237060546875</ele>
        <time>2019-11-05T09:38:09.000Z</time>
      </trkpt>
      <trkpt lat="36.14118120633065700531005859375" lon="-5.7947851717472076416015625">
        <ele>24</ele>
        <time>2019-11-05T09:38:16.000Z</time>
      </trkpt>
      <trkpt lat="36.14105195738375186920166015625" lon="-5.79458761028945446014404296875">
        <ele>24.200000762939453125</ele>
        <time>2019-11-05T09:38:23.000Z</time>
      </trkpt>
      <trkpt lat="36.14089337177574634552001953125" lon="-5.7944302819669246673583984375">
        <ele>25</ele>
        <time>2019-11-05T09:38:29.000Z</time>
      </trkpt>
      <trkpt lat="36.1407553218305110931396484375" lon="-5.794256441295146942138671875">
        <ele>25</ele>
        <time>2019-11-05T09:38:34.000Z</time>
      </trkpt>
      <trkpt lat="36.1405923776328563690185546875" lon="-5.794063992798328399658203125">
        <ele>25.3999996185302734375</ele>
        <time>2019-11-05T09:38:39.000Z</time>
      </trkpt>
      <trkpt lat="36.14046522416174411773681640625" lon="-5.79389459453523159027099609375">
        <ele>25.6000003814697265625</ele>
        <time>2019-11-05T09:38:43.000Z</time>
      </trkpt>
      <trkpt lat="36.1403469555079936981201171875" lon="-5.7937097735702991485595703125">
        <ele>25.3999996185302734375</ele>
        <time>2019-11-05T09:38:48.000Z</time>
      </trkpt>
      <trkpt lat="36.1402564309537410736083984375" lon="-5.7934888266026973724365234375">
        <ele>24.6000003814697265625</ele>
        <time>2019-11-05T09:38:55.000Z</time>
      </trkpt>
      <trkpt lat="36.140159703791141510009765625" lon="-5.79326159320771694183349609375">
        <ele>23.6000003814697265625</ele>
        <time>2019-11-05T09:39:03.000Z</time>
      </trkpt>
      <trkpt lat="36.14001561887562274932861328125" lon="-5.79306294210255146026611328125">
        <ele>22.3999996185302734375</ele>
        <time>2019-11-05T09:39:09.000Z</time>
      </trkpt>
      <trkpt lat="36.139868684113025665283203125" lon="-5.7929091341793537139892578125">
        <ele>22.200000762939453125</ele>
        <time>2019-11-05T09:39:14.000Z</time>
      </trkpt>
      <trkpt lat="36.13974404521286487579345703125" lon="-5.79274602234363555908203125">
        <ele>22.6000003814697265625</ele>
        <time>2019-11-05T09:39:19.000Z</time>
      </trkpt>
      <trkpt lat="36.13961479626595973968505859375" lon="-5.792551226913928985595703125">
        <ele>23.200000762939453125</ele>
        <time>2019-11-05T09:39:25.000Z</time>
      </trkpt>
      <trkpt lat="36.1394956894218921661376953125" lon="-5.79237612895667552947998046875">
        <ele>24.6000003814697265625</ele>
        <time>2019-11-05T09:39:31.000Z</time>
      </trkpt>
      <trkpt lat="36.1393605731427669525146484375" lon="-5.792179070413112640380859375">
        <ele>25.6000003814697265625</ele>
        <time>2019-11-05T09:39:38.000Z</time>
      </trkpt>
      <trkpt lat="36.13923643715679645538330078125" lon="-5.79197949729859828948974609375">
        <ele>26.3999996185302734375</ele>
        <time>2019-11-05T09:39:44.000Z</time>
      </trkpt>
      <trkpt lat="36.1391146481037139892578125" lon="-5.791776739060878753662109375">
        <ele>27</ele>
        <time>2019-11-05T09:39:50.000Z</time>
      </trkpt>
      <trkpt lat="36.13898254930973052978515625" lon="-5.7915827818214893341064453125">
        <ele>26.799999237060546875</ele>
        <time>2019-11-05T09:39:57.000Z</time>
      </trkpt>
      <trkpt lat="36.13886863924562931060791015625" lon="-5.79140315763652324676513671875">
        <ele>26.799999237060546875</ele>
        <time>2019-11-05T09:40:03.000Z</time>
      </trkpt>
      <trkpt lat="36.13874676637351512908935546875" lon="-5.7912213541567325592041015625">
        <ele>26.200000762939453125</ele>
        <time>2019-11-05T09:40:08.000Z</time>
      </trkpt>
      <trkpt lat="36.1386184394359588623046875" lon="-5.791062600910663604736328125">
        <ele>26</ele>
        <time>2019-11-05T09:40:13.000Z</time>
      </trkpt>
      <trkpt lat="36.1384945549070835113525390625" lon="-5.7908522151410579681396484375">
        <ele>26.3999996185302734375</ele>
        <time>2019-11-05T09:40:19.000Z</time>
      </trkpt>
      <trkpt lat="36.13840679638087749481201171875" lon="-5.79064275138080120086669921875">
        <ele>27.3999996185302734375</ele>
        <time>2019-11-05T09:40:24.000Z</time>
      </trkpt>
      <trkpt lat="36.138329096138477325439453125" lon="-5.7904264144599437713623046875">
        <ele>27.6000003814697265625</ele>
        <time>2019-11-05T09:40:29.000Z</time>
      </trkpt>
      <trkpt lat="36.13826681859791278839111328125" lon="-5.79019918106496334075927734375">
        <ele>26.799999237060546875</ele>
        <time>2019-11-05T09:40:34.000Z</time>
      </trkpt>
      <trkpt lat="36.1382112465798854827880859375" lon="-5.7899573631584644317626953125">
        <ele>26</ele>
        <time>2019-11-05T09:40:39.000Z</time>
      </trkpt>
      <trkpt lat="36.13816841505467891693115234375" lon="-5.7897243462502956390380859375">
        <ele>26.200000762939453125</ele>
        <time>2019-11-05T09:40:44.000Z</time>
      </trkpt>
      <trkpt lat="36.1381436884403228759765625" lon="-5.78946894966065883636474609375">
        <ele>27.200000762939453125</ele>
        <time>2019-11-05T09:40:50.000Z</time>
      </trkpt>
      <trkpt lat="36.13815215416252613067626953125" lon="-5.78923769295215606689453125">
        <ele>28</ele>
        <time>2019-11-05T09:40:56.000Z</time>
      </trkpt>
      <trkpt lat="36.138154752552509307861328125" lon="-5.78901146538555622100830078125">
        <ele>28.200000762939453125</ele>
        <time>2019-11-05T09:41:02.000Z</time>
      </trkpt>
      <trkpt lat="36.13814259879291057586669921875" lon="-5.7887621037662029266357421875">
        <ele>28.200000762939453125</ele>
        <time>2019-11-05T09:41:09.000Z</time>
      </trkpt>
      <trkpt lat="36.13811359740793704986572265625" lon="-5.7885275781154632568359375">
        <ele>28</ele>
        <time>2019-11-05T09:41:16.000Z</time>
      </trkpt>
      <trkpt lat="36.13805475644767284393310546875" lon="-5.78828944824635982513427734375">
        <ele>28</ele>
        <time>2019-11-05T09:41:23.000Z</time>
      </trkpt>
      <trkpt lat="36.13797311671078205108642578125" lon="-5.78805894590914249420166015625">
        <ele>28</ele>
        <time>2019-11-05T09:41:30.000Z</time>
      </trkpt>
      <trkpt lat="36.13788560964167118072509765625" lon="-5.78786373138427734375">
        <ele>28.3999996185302734375</ele>
        <time>2019-11-05T09:41:36.000Z</time>
      </trkpt>
      <trkpt lat="36.1377539299428462982177734375" lon="-5.7876684330403804779052734375">
        <ele>29</ele>
        <time>2019-11-05T09:41:43.000Z</time>
      </trkpt>
      <trkpt lat="36.137631721794605255126953125" lon="-5.78750389628112316131591796875">
        <ele>29.799999237060546875</ele>
        <time>2019-11-05T09:41:49.000Z</time>
      </trkpt>
      <trkpt lat="36.13748830743134021759033203125" lon="-5.78732586465775966644287109375">
        <ele>31.3999996185302734375</ele>
        <time>2019-11-05T09:41:56.000Z</time>
      </trkpt>
      <trkpt lat="36.13733592443168163299560546875" lon="-5.78715118579566478729248046875">
        <ele>32.40000152587890625</ele>
        <time>2019-11-05T09:42:03.000Z</time>
      </trkpt>
      <trkpt lat="36.1371866427361965179443359375" lon="-5.78698740340769290924072265625">
        <ele>33.59999847412109375</ele>
        <time>2019-11-05T09:42:10.000Z</time>
      </trkpt>
      <trkpt lat="36.1370538733899593353271484375" lon="-5.78683569096028804779052734375">
        <ele>33.59999847412109375</ele>
        <time>2019-11-05T09:42:16.000Z</time>
      </trkpt>
      <trkpt lat="36.1369257979094982147216796875" lon="-5.78667844645678997039794921875">
        <ele>34.40000152587890625</ele>
        <time>2019-11-05T09:42:22.000Z</time>
      </trkpt>
      <trkpt lat="36.13678473047912120819091796875" lon="-5.78649421222507953643798828125">
        <ele>34.59999847412109375</ele>
        <time>2019-11-05T09:42:29.000Z</time>
      </trkpt>
      <trkpt lat="36.13664726726710796356201171875" lon="-5.78632338903844356536865234375">
        <ele>34.59999847412109375</ele>
        <time>2019-11-05T09:42:36.000Z</time>
      </trkpt>
      <trkpt lat="36.1364949680864810943603515625" lon="-5.786191709339618682861328125">
        <ele>34.799999237060546875</ele>
        <time>2019-11-05T09:42:44.000Z</time>
      </trkpt>
      <trkpt lat="36.136484406888484954833984375" lon="-5.78618978150188922882080078125">
        <ele>34.799999237060546875</ele>
        <time>2019-11-05T09:42:45.000Z</time>
      </trkpt>
      <trkpt lat="36.13648884929716587066650390625" lon="-5.786193050444126129150390625">
        <ele>34.799999237060546875</ele>
        <time>2019-11-05T09:42:50.000Z</time>
      </trkpt>
      <trkpt lat="36.1364178545773029327392578125" lon="-5.78610529191792011260986328125">
        <ele>35.200000762939453125</ele>
        <time>2019-11-05T09:45:34.000Z</time>
      </trkpt>
      <trkpt lat="36.13638726063072681427001953125" lon="-5.7860721834003925323486328125">
        <ele>35.40000152587890625</ele>
        <time>2019-11-05T09:45:40.000Z</time>
      </trkpt>
      <trkpt lat="36.13635038025677204132080078125" lon="-5.78600152395665645599365234375">
        <ele>35.200000762939453125</ele>
        <time>2019-11-05T09:45:46.000Z</time>
      </trkpt>
      <trkpt lat="36.1362663097679615020751953125" lon="-5.785776637494564056396484375">
        <ele>34.799999237060546875</ele>
        <time>2019-11-05T09:45:56.000Z</time>
      </trkpt>
      <trkpt lat="36.136192046105861663818359375" lon="-5.78554035164415836334228515625">
        <ele>34.40000152587890625</ele>
        <time>2019-11-05T09:46:02.000Z</time>
      </trkpt>
      <trkpt lat="36.13610814325511455535888671875" lon="-5.78532326035201549530029296875">
        <ele>33.200000762939453125</ele>
        <time>2019-11-05T09:46:06.000Z</time>
      </trkpt>
      <trkpt lat="36.136017702519893646240234375" lon="-5.78508370555937290191650390625">
        <ele>32</ele>
        <time>2019-11-05T09:46:10.000Z</time>
      </trkpt>
      <trkpt lat="36.13593153655529022216796875" lon="-5.78488044440746307373046875">
        <ele>32.799999237060546875</ele>
        <time>2019-11-05T09:46:14.000Z</time>
      </trkpt>
      <trkpt lat="36.13588392734527587890625" lon="-5.78480257652699947357177734375">
        <ele>33</ele>
        <time>2019-11-05T09:46:16.000Z</time>
      </trkpt>
      <trkpt lat="36.13573095761239528656005859375" lon="-5.7846330106258392333984375">
        <ele>34</ele>
        <time>2019-11-05T09:46:22.000Z</time>
      </trkpt>
      <trkpt lat="36.135588549077510833740234375" lon="-5.7844769395887851715087890625">
        <ele>34</ele>
        <time>2019-11-05T09:46:27.000Z</time>
      </trkpt>
      <trkpt lat="36.13555979914963245391845703125" lon="-5.78444533981382846832275390625">
        <ele>34</ele>
        <time>2019-11-05T09:46:28.000Z</time>
      </trkpt>
      <trkpt lat="36.1354480683803558349609375" lon="-5.784328915178775787353515625">
        <ele>33.40000152587890625</ele>
        <time>2019-11-05T09:46:32.000Z</time>
      </trkpt>
      <trkpt lat="36.13534681499004364013671875" lon="-5.7842201180756092071533203125">
        <ele>33.40000152587890625</ele>
        <time>2019-11-05T09:46:36.000Z</time>
      </trkpt>
      <trkpt lat="36.1352822743356227874755859375" lon="-5.7841368019580841064453125">
        <ele>33.59999847412109375</ele>
        <time>2019-11-05T09:46:39.000Z</time>
      </trkpt>
      <trkpt lat="36.1351840384304523468017578125" lon="-5.78393622301518917083740234375">
        <ele>33</ele>
        <time>2019-11-05T09:46:45.000Z</time>
      </trkpt>
      <trkpt lat="36.1351354233920574188232421875" lon="-5.783715359866619110107421875">
        <ele>33.40000152587890625</ele>
        <time>2019-11-05T09:46:51.000Z</time>
      </trkpt>
      <trkpt lat="36.13512343727052211761474609375" lon="-5.78348309732973575592041015625">
        <ele>34.200000762939453125</ele>
        <time>2019-11-05T09:46:57.000Z</time>
      </trkpt>
      <trkpt lat="36.135189570486545562744140625" lon="-5.7832716219127178192138671875">
        <ele>34.40000152587890625</ele>
        <time>2019-11-05T09:47:03.000Z</time>
      </trkpt>
      <trkpt lat="36.13529828377068042755126953125" lon="-5.78304849565029144287109375">
        <ele>34.799999237060546875</ele>
        <time>2019-11-05T09:47:10.000Z</time>
      </trkpt>
      <trkpt lat="36.13540976308286190032958984375" lon="-5.7828495092689990997314453125">
        <ele>35.200000762939453125</ele>
        <time>2019-11-05T09:47:16.000Z</time>
      </trkpt>
      <trkpt lat="36.1355367489159107208251953125" lon="-5.78267675824463367462158203125">
        <ele>35.40000152587890625</ele>
        <time>2019-11-05T09:47:22.000Z</time>
      </trkpt>
      <trkpt lat="36.1356483958661556243896484375" lon="-5.78249386511743068695068359375">
        <ele>35.40000152587890625</ele>
        <time>2019-11-05T09:47:28.000Z</time>
      </trkpt>
      <trkpt lat="36.13575325347483158111572265625" lon="-5.78228683210909366607666015625">
        <ele>35</ele>
        <time>2019-11-05T09:47:34.000Z</time>
      </trkpt>
      <trkpt lat="36.13586456514894962310791015625" lon="-5.78208717517554759979248046875">
        <ele>35</ele>
        <time>2019-11-05T09:47:40.000Z</time>
      </trkpt>
      <trkpt lat="36.13597973249852657318115234375" lon="-5.78189237974584102630615234375">
        <ele>35.40000152587890625</ele>
        <time>2019-11-05T09:47:47.000Z</time>
      </trkpt>
      <trkpt lat="36.13610059954226016998291015625" lon="-5.781699009239673614501953125">
        <ele>36.40000152587890625</ele>
        <time>2019-11-05T09:47:54.000Z</time>
      </trkpt>
      <trkpt lat="36.1362073011696338653564453125" lon="-5.7814842648804187774658203125">
        <ele>37</ele>
        <time>2019-11-05T09:48:01.000Z</time>
      </trkpt>
      <trkpt lat="36.13627527840435504913330078125" lon="-5.78127865679562091827392578125">
        <ele>37.59999847412109375</ele>
        <time>2019-11-05T09:48:07.000Z</time>
      </trkpt>
      <trkpt lat="36.13632238470017910003662109375" lon="-5.78104622662067413330078125">
        <ele>38.59999847412109375</ele>
        <time>2019-11-05T09:48:14.000Z</time>
      </trkpt>
      <trkpt lat="36.1363930441439151763916015625" lon="-5.78081228770315647125244140625">
        <ele>39</ele>
        <time>2019-11-05T09:48:21.000Z</time>
      </trkpt>
      <trkpt lat="36.13651282154023647308349609375" lon="-5.7806413806974887847900390625">
        <ele>39.200000762939453125</ele>
        <time>2019-11-05T09:48:27.000Z</time>
      </trkpt>
      <trkpt lat="36.13661281764507293701171875" lon="-5.78045345842838287353515625">
        <ele>39.200000762939453125</ele>
        <time>2019-11-05T09:48:33.000Z</time>
      </trkpt>
      <trkpt lat="36.13672488369047641754150390625" lon="-5.78026997856795787811279296875">
        <ele>38.200000762939453125</ele>
        <time>2019-11-05T09:48:39.000Z</time>
      </trkpt>
      <trkpt lat="36.13685823976993560791015625" lon="-5.780076943337917327880859375">
        <ele>37</ele>
        <time>2019-11-05T09:48:46.000Z</time>
      </trkpt>
      <trkpt lat="36.136994697153568267822265625" lon="-5.77988793142139911651611328125">
        <ele>37</ele>
        <time>2019-11-05T09:48:53.000Z</time>
      </trkpt>
      <trkpt lat="36.137126795947551727294921875" lon="-5.7796865142881870269775390625">
        <ele>37.40000152587890625</ele>
        <time>2019-11-05T09:49:00.000Z</time>
      </trkpt>
      <trkpt lat="36.13724581897258758544921875" lon="-5.7794917188584804534912109375">
        <ele>37.59999847412109375</ele>
        <time>2019-11-05T09:49:07.000Z</time>
      </trkpt>
      <trkpt lat="36.13738135434687137603759765625" lon="-5.779326260089874267578125">
        <ele>37.799999237060546875</ele>
        <time>2019-11-05T09:49:15.000Z</time>
      </trkpt>
      <trkpt lat="36.13753172568976879119873046875" lon="-5.77919156290590763092041015625">
        <ele>38</ele>
        <time>2019-11-05T09:49:23.000Z</time>
      </trkpt>
      <trkpt lat="36.1376791633665561676025390625" lon="-5.7790099270641803741455078125">
        <ele>38.59999847412109375</ele>
        <time>2019-11-05T09:49:30.000Z</time>
      </trkpt>
      <trkpt lat="36.1378327198326587677001953125" lon="-5.77888143248856067657470703125">
        <ele>39.40000152587890625</ele>
        <time>2019-11-05T09:49:36.000Z</time>
      </trkpt>
      <trkpt lat="36.137980408966541290283203125" lon="-5.77870641835033893585205078125">
        <ele>40</ele>
        <time>2019-11-05T09:49:43.000Z</time>
      </trkpt>
      <trkpt lat="36.13810638897120952606201171875" lon="-5.77852495014667510986328125">
        <ele>40.59999847412109375</ele>
        <time>2019-11-05T09:49:50.000Z</time>
      </trkpt>
      <trkpt lat="36.1382729373872280120849609375" lon="-5.7784003950655460357666015625">
        <ele>40.799999237060546875</ele>
        <time>2019-11-05T09:49:58.000Z</time>
      </trkpt>
      <trkpt lat="36.13842959515750408172607421875" lon="-5.77826603315770626068115234375">
        <ele>40.799999237060546875</ele>
        <time>2019-11-05T09:50:05.000Z</time>
      </trkpt>
      <trkpt lat="36.13860175944864749908447265625" lon="-5.77815857715904712677001953125">
        <ele>40.59999847412109375</ele>
        <time>2019-11-05T09:50:12.000Z</time>
      </trkpt>
      <trkpt lat="36.138781718909740447998046875" lon="-5.7781040109694004058837890625">
        <ele>40</ele>
        <time>2019-11-05T09:50:20.000Z</time>
      </trkpt>
      <trkpt lat="36.13895036280155181884765625" lon="-5.7781479321420192718505859375">
        <ele>40</ele>
        <time>2019-11-05T09:50:28.000Z</time>
      </trkpt>
      <trkpt lat="36.13911741413176059722900390625" lon="-5.77807023189961910247802734375">
        <ele>40.200000762939453125</ele>
        <time>2019-11-05T09:50:37.000Z</time>
      </trkpt>
      <trkpt lat="36.13919151015579700469970703125" lon="-5.77796931378543376922607421875">
        <ele>40.40000152587890625</ele>
        <time>2019-11-05T09:50:42.000Z</time>
      </trkpt>
      <trkpt lat="36.139340959489345550537109375" lon="-5.77784207649528980255126953125">
        <ele>41</ele>
        <time>2019-11-05T09:50:51.000Z</time>
      </trkpt>
      <trkpt lat="36.1394326575100421905517578125" lon="-5.77775792218744754791259765625">
        <ele>41.40000152587890625</ele>
        <time>2019-11-05T09:50:59.000Z</time>
      </trkpt>
      <trkpt lat="36.139432154595851898193359375" lon="-5.777759514749050140380859375">
        <ele>41.40000152587890625</ele>
        <time>2019-11-05T09:51:01.000Z</time>
      </trkpt>
      <trkpt lat="36.1398695223033428192138671875" lon="-5.77712760306894779205322265625">
        <ele>41.200000762939453125</ele>
        <time>2019-11-05T09:57:37.000Z</time>
      </trkpt>
      <trkpt lat="36.1399407684803009033203125" lon="-5.77692308463156223297119140625">
        <ele>42</ele>
        <time>2019-11-05T09:57:50.000Z</time>
      </trkpt>
      <trkpt lat="36.1400348134338855743408203125" lon="-5.7767193205654621124267578125">
        <ele>43.59999847412109375</ele>
        <time>2019-11-05T09:58:05.000Z</time>
      </trkpt>
      <trkpt lat="36.14017839543521404266357421875" lon="-5.7765845395624637603759765625">
        <ele>44.200000762939453125</ele>
        <time>2019-11-05T09:58:18.000Z</time>
      </trkpt>
      <trkpt lat="36.140303872525691986083984375" lon="-5.7764262892305850982666015625">
        <ele>44.40000152587890625</ele>
        <time>2019-11-05T09:58:34.000Z</time>
      </trkpt>
      <trkpt lat="36.14032172597944736480712890625" lon="-5.7764118723571300506591796875">
        <ele>44.40000152587890625</ele>
        <time>2019-11-05T09:58:39.000Z</time>
      </trkpt>
      <trkpt lat="36.14086353220045566558837890625" lon="-5.77562774531543254852294921875">
        <ele>46.59999847412109375</ele>
        <time>2019-11-05T10:03:51.000Z</time>
      </trkpt>
      <trkpt lat="36.14090208895504474639892578125" lon="-5.775507800281047821044921875">
        <ele>46.799999237060546875</ele>
        <time>2019-11-05T10:04:01.000Z</time>
      </trkpt>
      <trkpt lat="36.14089840091764926910400390625" lon="-5.77551291324198246002197265625">
        <ele>46.799999237060546875</ele>
        <time>2019-11-05T10:04:03.000Z</time>
      </trkpt>
      <trkpt lat="36.141049861907958984375" lon="-5.7751755416393280029296875">
        <ele>48</ele>
        <time>2019-11-05T10:06:48.000Z</time>
      </trkpt>
      <trkpt lat="36.14106436260044574737548828125" lon="-5.77499692328274250030517578125">
        <ele>49</ele>
        <time>2019-11-05T10:06:59.000Z</time>
      </trkpt>
      <trkpt lat="36.14110023714601993560791015625" lon="-5.774764157831668853759765625">
        <ele>49.40000152587890625</ele>
        <time>2019-11-05T10:07:12.000Z</time>
      </trkpt>
      <trkpt lat="36.14113829098641872406005859375" lon="-5.7745447196066379547119140625">
        <ele>50</ele>
        <time>2019-11-05T10:07:26.000Z</time>
      </trkpt>
      <trkpt lat="36.14109369926154613494873046875" lon="-5.7743281312286853790283203125">
        <ele>51.200000762939453125</ele>
        <time>2019-11-05T10:07:40.000Z</time>
      </trkpt>
      <trkpt lat="36.141095124185085296630859375" lon="-5.774271301925182342529296875">
        <ele>51.200000762939453125</ele>
        <time>2019-11-05T10:07:45.000Z</time>
      </trkpt>
      <trkpt lat="36.14109755493700504302978515625" lon="-5.77427222393453121185302734375">
        <ele>51.200000762939453125</ele>
        <time>2019-11-05T10:07:47.000Z</time>
      </trkpt>
      <trkpt lat="36.14108003675937652587890625" lon="-5.77406175434589385986328125">
        <ele>51.200000762939453125</ele>
        <time>2019-11-05T10:09:56.000Z</time>
      </trkpt>
      <trkpt lat="36.14110928960144519805908203125" lon="-5.7738765142858028411865234375">
        <ele>50.59999847412109375</ele>
        <time>2019-11-05T10:10:13.000Z</time>
      </trkpt>
      <trkpt lat="36.1412243731319904327392578125" lon="-5.77338055707514286041259765625">
        <ele>47.799999237060546875</ele>
        <time>2019-11-05T10:13:49.000Z</time>
      </trkpt>
      <trkpt lat="36.14124189130961894989013671875" lon="-5.77328483574092388153076171875">
        <ele>47.59999847412109375</ele>
        <time>2019-11-05T10:13:55.000Z</time>
      </trkpt>
      <trkpt lat="36.14124658517539501190185546875" lon="-5.7732716761529445648193359375">
        <ele>47.40000152587890625</ele>
        <time>2019-11-05T10:13:57.000Z</time>
      </trkpt>
      <trkpt lat="36.14124624989926815032958984375" lon="-5.77327662147581577301025390625">
        <ele>47.40000152587890625</ele>
        <time>2019-11-05T10:14:00.000Z</time>
      </trkpt>
      <trkpt lat="36.14125664345920085906982421875" lon="-5.77314049936830997467041015625">
        <ele>47.40000152587890625</ele>
        <time>2019-11-05T10:15:14.000Z</time>
      </trkpt>
      <trkpt lat="36.14125044085085391998291015625" lon="-5.77308945357799530029296875">
        <ele>47.59999847412109375</ele>
        <time>2019-11-05T10:15:18.000Z</time>
      </trkpt>
      <trkpt lat="36.14124792627990245819091796875" lon="-5.77308970503509044647216796875">
        <ele>47.59999847412109375</ele>
        <time>2019-11-05T10:15:21.000Z</time>
      </trkpt>
      <trkpt lat="36.141148768365383148193359375" lon="-5.7728167064487934112548828125">
        <ele>48.59999847412109375</ele>
        <time>2019-11-05T10:16:15.000Z</time>
      </trkpt>
      <trkpt lat="36.14107894711196422576904296875" lon="-5.772599615156650543212890625">
        <ele>48.40000152587890625</ele>
        <time>2019-11-05T10:16:20.000Z</time>
      </trkpt>
      <trkpt lat="36.14101256243884563446044921875" lon="-5.77237196266651153564453125">
        <ele>48</ele>
        <time>2019-11-05T10:16:26.000Z</time>
      </trkpt>
      <trkpt lat="36.1409869976341724395751953125" lon="-5.7721339166164398193359375">
        <ele>48.59999847412109375</ele>
        <time>2019-11-05T10:16:35.000Z</time>
      </trkpt>
      <trkpt lat="36.1409383825957775115966796875" lon="-5.77189293690025806427001953125">
        <ele>48.799999237060546875</ele>
        <time>2019-11-05T10:16:43.000Z</time>
      </trkpt>
      <trkpt lat="36.1409564875066280364990234375" lon="-5.77166360802948474884033203125">
        <ele>49</ele>
        <time>2019-11-05T10:16:50.000Z</time>
      </trkpt>
      <trkpt lat="36.1409900151193141937255859375" lon="-5.77144333161413669586181640625">
        <ele>50</ele>
        <time>2019-11-05T10:16:57.000Z</time>
      </trkpt>
      <trkpt lat="36.1410610936582088470458984375" lon="-5.77121383510529994964599609375">
        <ele>51.200000762939453125</ele>
        <time>2019-11-05T10:17:05.000Z</time>
      </trkpt>
      <trkpt lat="36.1411325074732303619384765625" lon="-5.77098785899579524993896484375">
        <ele>51.799999237060546875</ele>
        <time>2019-11-05T10:17:14.000Z</time>
      </trkpt>
      <trkpt lat="36.14116377197206020355224609375" lon="-5.7707681693136692047119140625">
        <ele>52.59999847412109375</ele>
        <time>2019-11-05T10:17:22.000Z</time>
      </trkpt>
      <trkpt lat="36.14111423492431640625" lon="-5.7705338113009929656982421875">
        <ele>52.40000152587890625</ele>
        <time>2019-11-05T10:17:28.000Z</time>
      </trkpt>
      <trkpt lat="36.14112504757940769195556640625" lon="-5.7703073322772979736328125">
        <ele>53.40000152587890625</ele>
        <time>2019-11-05T10:17:34.000Z</time>
      </trkpt>
      <trkpt lat="36.14114332012832164764404296875" lon="-5.77007104642689228057861328125">
        <ele>54.40000152587890625</ele>
        <time>2019-11-05T10:17:40.000Z</time>
      </trkpt>
      <trkpt lat="36.14117433317005634307861328125" lon="-5.76982310973107814788818359375">
        <ele>55.40000152587890625</ele>
        <time>2019-11-05T10:17:47.000Z</time>
      </trkpt>
      <trkpt lat="36.141227893531322479248046875" lon="-5.76959855854511260986328125">
        <ele>56.200000762939453125</ele>
        <time>2019-11-05T10:17:54.000Z</time>
      </trkpt>
      <trkpt lat="36.141322441399097442626953125" lon="-5.76940284110605716705322265625">
        <ele>57.200000762939453125</ele>
        <time>2019-11-05T10:18:02.000Z</time>
      </trkpt>
      <trkpt lat="36.14147893153131008148193359375" lon="-5.76928297989070415496826171875">
        <ele>57.59999847412109375</ele>
        <time>2019-11-05T10:18:10.000Z</time>
      </trkpt>
      <trkpt lat="36.1415733955800533294677734375" lon="-5.7690917886793613433837890625">
        <ele>58</ele>
        <time>2019-11-05T10:18:17.000Z</time>
      </trkpt>
      <trkpt lat="36.14165595732629299163818359375" lon="-5.7688614539802074432373046875">
        <ele>58.59999847412109375</ele>
        <time>2019-11-05T10:18:26.000Z</time>
      </trkpt>
      <trkpt lat="36.14174514077603816986083984375" lon="-5.7686586119234561920166015625">
        <ele>59.200000762939453125</ele>
        <time>2019-11-05T10:18:34.000Z</time>
      </trkpt>
      <trkpt lat="36.14169317297637462615966796875" lon="-5.768506564199924468994140625">
        <ele>58.200000762939453125</ele>
        <time>2019-11-05T10:18:42.000Z</time>
      </trkpt>
      <trkpt lat="36.1416895687580108642578125" lon="-5.76829022727906703948974609375">
        <ele>57.40000152587890625</ele>
        <time>2019-11-05T10:18:50.000Z</time>
      </trkpt>
      <trkpt lat="36.14162192679941654205322265625" lon="-5.7680765725672245025634765625">
        <ele>56.40000152587890625</ele>
        <time>2019-11-05T10:18:58.000Z</time>
      </trkpt>
      <trkpt lat="36.141568534076213836669921875" lon="-5.7678562961518764495849609375">
        <ele>56</ele>
        <time>2019-11-05T10:19:05.000Z</time>
      </trkpt>
      <trkpt lat="36.141525618731975555419921875" lon="-5.76762906275689601898193359375">
        <ele>56</ele>
        <time>2019-11-05T10:19:16.000Z</time>
      </trkpt>
      <trkpt lat="36.14154028706252574920654296875" lon="-5.76743996702134609222412109375">
        <ele>56.59999847412109375</ele>
        <time>2019-11-05T10:19:25.000Z</time>
      </trkpt>
      <trkpt lat="36.14165377803146839141845703125" lon="-5.7672450877726078033447265625">
        <ele>57.40000152587890625</ele>
        <time>2019-11-05T10:19:36.000Z</time>
      </trkpt>
      <trkpt lat="36.1417192406952381134033203125" lon="-5.76702154241502285003662109375">
        <ele>58</ele>
        <time>2019-11-05T10:19:44.000Z</time>
      </trkpt>
      <trkpt lat="36.141831390559673309326171875" lon="-5.76684929430484771728515625">
        <ele>58</ele>
        <time>2019-11-05T10:19:53.000Z</time>
      </trkpt>
      <trkpt lat="36.14197011105716228485107421875" lon="-5.76670386828482151031494140625">
        <ele>58.40000152587890625</ele>
        <time>2019-11-05T10:20:01.000Z</time>
      </trkpt>
      <trkpt lat="36.1420769803225994110107421875" lon="-5.76652164570987224578857421875">
        <ele>58.799999237060546875</ele>
        <time>2019-11-05T10:20:08.000Z</time>
      </trkpt>
      <trkpt lat="36.1421777307987213134765625" lon="-5.7663260959088802337646484375">
        <ele>59.200000762939453125</ele>
        <time>2019-11-05T10:20:15.000Z</time>
      </trkpt>
      <trkpt lat="36.1423066444694995880126953125" lon="-5.76614261604845523834228515625">
        <ele>59.799999237060546875</ele>
        <time>2019-11-05T10:20:22.000Z</time>
      </trkpt>
      <trkpt lat="36.142469085752964019775390625" lon="-5.76600599102675914764404296875">
        <ele>60.59999847412109375</ele>
        <time>2019-11-05T10:20:30.000Z</time>
      </trkpt>
      <trkpt lat="36.1426057107746601104736328125" lon="-5.7658345811069011688232421875">
        <ele>61.200000762939453125</ele>
        <time>2019-11-05T10:20:39.000Z</time>
      </trkpt>
      <trkpt lat="36.1426845006644725799560546875" lon="-5.76562411151826381683349609375">
        <ele>62</ele>
        <time>2019-11-05T10:20:47.000Z</time>
      </trkpt>
      <trkpt lat="36.14278726279735565185546875" lon="-5.7654402963817119598388671875">
        <ele>61.59999847412109375</ele>
        <time>2019-11-05T10:20:55.000Z</time>
      </trkpt>
      <trkpt lat="36.14296831190586090087890625" lon="-5.76535304076969623565673828125">
        <ele>61</ele>
        <time>2019-11-05T10:21:04.000Z</time>
      </trkpt>
      <trkpt lat="36.143128238618373870849609375" lon="-5.76522295363247394561767578125">
        <ele>61.59999847412109375</ele>
        <time>2019-11-05T10:21:13.000Z</time>
      </trkpt>
      <trkpt lat="36.1432504467666149139404296875" lon="-5.76505179516971111297607421875">
        <ele>62.200000762939453125</ele>
        <time>2019-11-05T10:21:22.000Z</time>
      </trkpt>
      <trkpt lat="36.14328338764607906341552734375" lon="-5.76497384347021579742431640625">
        <ele>62.799999237060546875</ele>
        <time>2019-11-05T10:21:27.000Z</time>
      </trkpt>
      <trkpt lat="36.14327701739966869354248046875" lon="-5.764975436031818389892578125">
        <ele>62.59999847412109375</ele>
        <time>2019-11-05T10:21:30.000Z</time>
      </trkpt>
      <trkpt lat="36.14330601878464221954345703125" lon="-5.7648713327944278717041015625">
        <ele>63</ele>
        <time>2019-11-05T10:23:22.000Z</time>
      </trkpt>
      <trkpt lat="36.14340408705174922943115234375" lon="-5.76467134058475494384765625">
        <ele>64.40000152587890625</ele>
        <time>2019-11-05T10:23:30.000Z</time>
      </trkpt>
      <trkpt lat="36.143472231924533843994140625" lon="-5.7644666545093059539794921875">
        <ele>66</ele>
        <time>2019-11-05T10:23:38.000Z</time>
      </trkpt>
      <trkpt lat="36.14348958246409893035888671875" lon="-5.7642289437353610992431640625">
        <ele>67.8000030517578125</ele>
        <time>2019-11-05T10:23:46.000Z</time>
      </trkpt>
      <trkpt lat="36.143498718738555908203125" lon="-5.76405283994972705841064453125">
        <ele>67.8000030517578125</ele>
        <time>2019-11-05T10:23:53.000Z</time>
      </trkpt>
      <trkpt lat="36.1434640176594257354736328125" lon="-5.76381378807127475738525390625">
        <ele>67.59999847412109375</ele>
        <time>2019-11-05T10:24:01.000Z</time>
      </trkpt>
      <trkpt lat="36.14343342371284961700439453125" lon="-5.76359434984624385833740234375">
        <ele>67.40000152587890625</ele>
        <time>2019-11-05T10:24:07.000Z</time>
      </trkpt>
      <trkpt lat="36.1434257961809635162353515625" lon="-5.76334775425493717193603515625">
        <ele>67.40000152587890625</ele>
        <time>2019-11-05T10:24:14.000Z</time>
      </trkpt>
      <trkpt lat="36.14344842731952667236328125" lon="-5.76310224831104278564453125">
        <ele>66.8000030517578125</ele>
        <time>2019-11-05T10:24:22.000Z</time>
      </trkpt>
      <trkpt lat="36.14350701682269573211669921875" lon="-5.76288926415145397186279296875">
        <ele>67</ele>
        <time>2019-11-05T10:24:30.000Z</time>
      </trkpt>
      <trkpt lat="36.143574155867099761962890625" lon="-5.76266865245997905731201171875">
        <ele>67.40000152587890625</ele>
        <time>2019-11-05T10:24:37.000Z</time>
      </trkpt>
      <trkpt lat="36.143615059554576873779296875" lon="-5.76243027113378047943115234375">
        <ele>66.8000030517578125</ele>
        <time>2019-11-05T10:24:44.000Z</time>
      </trkpt>
      <trkpt lat="36.14365923218429088592529296875" lon="-5.7621918059885501861572265625">
        <ele>66.1999969482421875</ele>
        <time>2019-11-05T10:24:52.000Z</time>
      </trkpt>
      <trkpt lat="36.14370063878595829010009765625" lon="-5.76195535250008106231689453125">
        <ele>66</ele>
        <time>2019-11-05T10:25:00.000Z</time>
      </trkpt>
      <trkpt lat="36.14375822246074676513671875" lon="-5.76172250322997570037841796875">
        <ele>66</ele>
        <time>2019-11-05T10:25:07.000Z</time>
      </trkpt>
      <trkpt lat="36.143819577991962432861328125" lon="-5.76148864813148975372314453125">
        <ele>67.1999969482421875</ele>
        <time>2019-11-05T10:25:15.000Z</time>
      </trkpt>
      <trkpt lat="36.14381723105907440185546875" lon="-5.76123970560729503631591796875">
        <ele>68</ele>
        <time>2019-11-05T10:25:23.000Z</time>
      </trkpt>
      <trkpt lat="36.14377004094421863555908203125" lon="-5.76100409030914306640625">
        <ele>69.1999969482421875</ele>
        <time>2019-11-05T10:25:31.000Z</time>
      </trkpt>
      <trkpt lat="36.14373701624572277069091796875" lon="-5.760760009288787841796875">
        <ele>70.40000152587890625</ele>
        <time>2019-11-05T10:25:39.000Z</time>
      </trkpt>
      <trkpt lat="36.143705584108829498291015625" lon="-5.76054065488278865814208984375">
        <ele>70.8000030517578125</ele>
        <time>2019-11-05T10:25:46.000Z</time>
      </trkpt>
      <trkpt lat="36.14366074092686176300048828125" lon="-5.76029389165341854095458984375">
        <ele>71.40000152587890625</ele>
        <time>2019-11-05T10:25:53.000Z</time>
      </trkpt>
      <trkpt lat="36.14364691078662872314453125" lon="-5.76006774790585041046142578125">
        <ele>72.40000152587890625</ele>
        <time>2019-11-05T10:26:00.000Z</time>
      </trkpt>
      <trkpt lat="36.14363207481801509857177734375" lon="-5.75982769019901752471923828125">
        <ele>72.8000030517578125</ele>
        <time>2019-11-05T10:26:08.000Z</time>
      </trkpt>
      <trkpt lat="36.143601648509502410888671875" lon="-5.75958947651088237762451171875">
        <ele>72.1999969482421875</ele>
        <time>2019-11-05T10:26:16.000Z</time>
      </trkpt>
      <trkpt lat="36.1435837112367153167724609375" lon="-5.75936727225780487060546875">
        <ele>71.8000030517578125</ele>
        <time>2019-11-05T10:26:23.000Z</time>
      </trkpt>
      <trkpt lat="36.1435639299452304840087890625" lon="-5.7591324113309383392333984375">
        <ele>71.59999847412109375</ele>
        <time>2019-11-05T10:26:30.000Z</time>
      </trkpt>
      <trkpt lat="36.1435461603105068206787109375" lon="-5.7588997296988964080810546875">
        <ele>71.1999969482421875</ele>
        <time>2019-11-05T10:26:38.000Z</time>
      </trkpt>
      <trkpt lat="36.14346125163137912750244140625" lon="-5.75869646854698657989501953125">
        <ele>71.1999969482421875</ele>
        <time>2019-11-05T10:26:45.000Z</time>
      </trkpt>
      <trkpt lat="36.14333183504641056060791015625" lon="-5.758501924574375152587890625">
        <ele>72.59999847412109375</ele>
        <time>2019-11-05T10:26:52.000Z</time>
      </trkpt>
      <trkpt lat="36.14327584393322467803955078125" lon="-5.7582680694758892059326171875">
        <ele>73</ele>
        <time>2019-11-05T10:26:59.000Z</time>
      </trkpt>
      <trkpt lat="36.14320099353790283203125" lon="-5.758061371743679046630859375">
        <ele>73</ele>
        <time>2019-11-05T10:27:06.000Z</time>
      </trkpt>
      <trkpt lat="36.14314340986311435699462890625" lon="-5.75782173313200473785400390625">
        <ele>72.8000030517578125</ele>
        <time>2019-11-05T10:27:14.000Z</time>
      </trkpt>
      <trkpt lat="36.14304877817630767822265625" lon="-5.75762744061648845672607421875">
        <ele>72.59999847412109375</ele>
        <time>2019-11-05T10:27:21.000Z</time>
      </trkpt>
      <trkpt lat="36.14293788559734821319580078125" lon="-5.75742577202618122100830078125">
        <ele>72</ele>
        <time>2019-11-05T10:27:29.000Z</time>
      </trkpt>
      <trkpt lat="36.1428357101976871490478515625" lon="-5.7572020590305328369140625">
        <ele>71.8000030517578125</ele>
        <time>2019-11-05T10:27:37.000Z</time>
      </trkpt>
      <trkpt lat="36.142752058804035186767578125" lon="-5.75699946843087673187255859375">
        <ele>72.40000152587890625</ele>
        <time>2019-11-05T10:27:44.000Z</time>
      </trkpt>
      <trkpt lat="36.14264854229986667633056640625" lon="-5.75677868910133838653564453125">
        <ele>72.8000030517578125</ele>
        <time>2019-11-05T10:27:52.000Z</time>
      </trkpt>
      <trkpt lat="36.14255868829786777496337890625" lon="-5.756579451262950897216796875">
        <ele>72.8000030517578125</ele>
        <time>2019-11-05T10:27:59.000Z</time>
      </trkpt>
      <trkpt lat="36.14247168414294719696044921875" lon="-5.75638440437614917755126953125">
        <ele>71.8000030517578125</ele>
        <time>2019-11-05T10:28:06.000Z</time>
      </trkpt>
      <trkpt lat="36.1423949897289276123046875" lon="-5.7561786286532878875732421875">
        <ele>72</ele>
        <time>2019-11-05T10:28:13.000Z</time>
      </trkpt>
      <trkpt lat="36.1423351429402828216552734375" lon="-5.75594879686832427978515625">
        <ele>72.1999969482421875</ele>
        <time>2019-11-05T10:28:21.000Z</time>
      </trkpt>
      <trkpt lat="36.14229851402342319488525390625" lon="-5.75572089292109012603759765625">
        <ele>72.59999847412109375</ele>
        <time>2019-11-05T10:28:29.000Z</time>
      </trkpt>
      <trkpt lat="36.1422700993716716766357421875" lon="-5.755480416119098663330078125">
        <ele>73.59999847412109375</ele>
        <time>2019-11-05T10:28:37.000Z</time>
      </trkpt>
      <trkpt lat="36.14223062060773372650146484375" lon="-5.75523759238421916961669921875">
        <ele>74.59999847412109375</ele>
        <time>2019-11-05T10:28:45.000Z</time>
      </trkpt>
      <trkpt lat="36.1422003619372844696044921875" lon="-5.75498948805034160614013671875">
        <ele>75.1999969482421875</ele>
        <time>2019-11-05T10:28:53.000Z</time>
      </trkpt>
      <trkpt lat="36.14217848517000675201416015625" lon="-5.7547547109425067901611328125">
        <ele>76.59999847412109375</ele>
        <time>2019-11-05T10:29:01.000Z</time>
      </trkpt>
      <trkpt lat="36.1421648226678371429443359375" lon="-5.7545156590640544891357421875">
        <ele>77.40000152587890625</ele>
        <time>2019-11-05T10:29:09.000Z</time>
      </trkpt>
      <trkpt lat="36.1421383358538150787353515625" lon="-5.754278115928173065185546875">
        <ele>77.1999969482421875</ele>
        <time>2019-11-05T10:29:17.000Z</time>
      </trkpt>
      <trkpt lat="36.14212810993194580078125" lon="-5.75404417701065540313720703125">
        <ele>77</ele>
        <time>2019-11-05T10:29:25.000Z</time>
      </trkpt>
      <trkpt lat="36.14215962588787078857421875" lon="-5.75381585396826267242431640625">
        <ele>76.8000030517578125</ele>
        <time>2019-11-05T10:29:33.000Z</time>
      </trkpt>
      <trkpt lat="36.14224545657634735107421875" lon="-5.7536025345325469970703125">
        <ele>76.8000030517578125</ele>
        <time>2019-11-05T10:29:41.000Z</time>
      </trkpt>
      <trkpt lat="36.14234344102442264556884765625" lon="-5.7534122653305530548095703125">
        <ele>77.59999847412109375</ele>
        <time>2019-11-05T10:29:49.000Z</time>
      </trkpt>
      <trkpt lat="36.14245592616498470306396484375" lon="-5.7532275281846523284912109375">
        <ele>78.40000152587890625</ele>
        <time>2019-11-05T10:29:57.000Z</time>
      </trkpt>
      <trkpt lat="36.14257042296230792999267578125" lon="-5.75305310077965259552001953125">
        <ele>79.1999969482421875</ele>
        <time>2019-11-05T10:30:05.000Z</time>
      </trkpt>
      <trkpt lat="36.14270369522273540496826171875" lon="-5.75286920182406902313232421875">
        <ele>80.1999969482421875</ele>
        <time>2019-11-05T10:30:14.000Z</time>
      </trkpt>
      <trkpt lat="36.1428201198577880859375" lon="-5.7526857219636440277099609375">
        <ele>80</ele>
        <time>2019-11-05T10:30:23.000Z</time>
      </trkpt>
      <trkpt lat="36.14294408820569515228271484375" lon="-5.75250291265547275543212890625">
        <ele>79.1999969482421875</ele>
        <time>2019-11-05T10:30:32.000Z</time>
      </trkpt>
      <trkpt lat="36.1431203596293926239013671875" lon="-5.75243904255330562591552734375">
        <ele>78.1999969482421875</ele>
        <time>2019-11-05T10:30:41.000Z</time>
      </trkpt>
      <trkpt lat="36.14331699907779693603515625" lon="-5.75244088657200336456298828125">
        <ele>77.8000030517578125</ele>
        <time>2019-11-05T10:30:50.000Z</time>
      </trkpt>
      <trkpt lat="36.14349980838596820831298828125" lon="-5.75244851410388946533203125">
        <ele>76.8000030517578125</ele>
        <time>2019-11-05T10:30:59.000Z</time>
      </trkpt>
      <trkpt lat="36.14369292743504047393798828125" lon="-5.75244122184813022613525390625">
        <ele>75.40000152587890625</ele>
        <time>2019-11-05T10:31:07.000Z</time>
      </trkpt>
      <trkpt lat="36.14388168789446353912353515625" lon="-5.75240501202642917633056640625">
        <ele>75</ele>
        <time>2019-11-05T10:31:15.000Z</time>
      </trkpt>
      <trkpt lat="36.14408419467508792877197265625" lon="-5.75236075557768344879150390625">
        <ele>74.59999847412109375</ele>
        <time>2019-11-05T10:31:24.000Z</time>
      </trkpt>
      <trkpt lat="36.144231297075748443603515625" lon="-5.75236293487250804901123046875">
        <ele>74.1999969482421875</ele>
        <time>2019-11-05T10:31:32.000Z</time>
      </trkpt>
      <trkpt lat="36.14422920159995555877685546875" lon="-5.75235664844512939453125">
        <ele>74.1999969482421875</ele>
        <time>2019-11-05T10:31:34.000Z</time>
      </trkpt>
      <trkpt lat="36.14432819187641143798828125" lon="-5.75236125849187374114990234375">
        <ele>73.8000030517578125</ele>
        <time>2019-11-05T10:32:23.000Z</time>
      </trkpt>
      <trkpt lat="36.14451552741229534149169921875" lon="-5.7523548044264316558837890625">
        <ele>71.8000030517578125</ele>
        <time>2019-11-05T10:32:28.000Z</time>
      </trkpt>
      <trkpt lat="36.14459297619760036468505859375" lon="-5.752352289855480194091796875">
        <ele>71</ele>
        <time>2019-11-05T10:32:30.000Z</time>
      </trkpt>
      <trkpt lat="36.14472222514450550079345703125" lon="-5.75234315358102321624755859375">
        <ele>69.40000152587890625</ele>
        <time>2019-11-05T10:32:34.000Z</time>
      </trkpt>
      <trkpt lat="36.1449050344526767730712890625" lon="-5.75231482274830341339111328125">
        <ele>67.1999969482421875</ele>
        <time>2019-11-05T10:32:38.000Z</time>
      </trkpt>
      <trkpt lat="36.1451035179197788238525390625" lon="-5.75226335786283016204833984375">
        <ele>64.8000030517578125</ele>
        <time>2019-11-05T10:32:42.000Z</time>
      </trkpt>
      <trkpt lat="36.1452004127204418182373046875" lon="-5.75225162319839000701904296875">
        <ele>63.799999237060546875</ele>
        <time>2019-11-05T10:32:44.000Z</time>
      </trkpt>
      <trkpt lat="36.1454096250236034393310546875" lon="-5.75228816829621791839599609375">
        <ele>63.200000762939453125</ele>
        <time>2019-11-05T10:32:48.000Z</time>
      </trkpt>
      <trkpt lat="36.14563367329537868499755859375" lon="-5.75234591960906982421875">
        <ele>62.59999847412109375</ele>
        <time>2019-11-05T10:32:52.000Z</time>
      </trkpt>
      <trkpt lat="36.14575101993978023529052734375" lon="-5.75236804783344268798828125">
        <ele>61.799999237060546875</ele>
        <time>2019-11-05T10:32:54.000Z</time>
      </trkpt>
      <trkpt lat="36.14598470740020275115966796875" lon="-5.752418003976345062255859375">
        <ele>59.799999237060546875</ele>
        <time>2019-11-05T10:32:58.000Z</time>
      </trkpt>
      <trkpt lat="36.14620976150035858154296875" lon="-5.75244189240038394927978515625">
        <ele>57.799999237060546875</ele>
        <time>2019-11-05T10:33:02.000Z</time>
      </trkpt>
      <trkpt lat="36.14632233045995235443115234375" lon="-5.75243820436298847198486328125">
        <ele>56.59999847412109375</ele>
        <time>2019-11-05T10:33:04.000Z</time>
      </trkpt>
      <trkpt lat="36.146537326276302337646484375" lon="-5.75233812443912029266357421875">
        <ele>55</ele>
        <time>2019-11-05T10:33:08.000Z</time>
      </trkpt>
      <trkpt lat="36.1465881206095218658447265625" lon="-5.75230233371257781982421875">
        <ele>54.799999237060546875</ele>
        <time>2019-11-05T10:33:09.000Z</time>
      </trkpt>
      <trkpt lat="36.146719716489315032958984375" lon="-5.752181299030780792236328125">
        <ele>53.59999847412109375</ele>
        <time>2019-11-05T10:33:12.000Z</time>
      </trkpt>
      <trkpt lat="36.14685944281518459320068359375" lon="-5.75199714861810207366943359375">
        <ele>51.799999237060546875</ele>
        <time>2019-11-05T10:33:16.000Z</time>
      </trkpt>
      <trkpt lat="36.14698357880115509033203125" lon="-5.75180754996836185455322265625">
        <ele>50.799999237060546875</ele>
        <time>2019-11-05T10:33:21.000Z</time>
      </trkpt>
      <trkpt lat="36.147067062556743621826171875" lon="-5.7516793906688690185546875">
        <ele>50.200000762939453125</ele>
        <time>2019-11-05T10:33:27.000Z</time>
      </trkpt>
      <trkpt lat="36.1470692418515682220458984375" lon="-5.751676373183727264404296875">
        <ele>50.200000762939453125</ele>
        <time>2019-11-05T10:33:30.000Z</time>
      </trkpt>
      <trkpt lat="36.1471664719283580780029296875" lon="-5.7515789754688739776611328125">
        <ele>50.200000762939453125</ele>
        <time>2019-11-05T10:35:16.000Z</time>
      </trkpt>
      <trkpt lat="36.147325225174427032470703125" lon="-5.75142164714634418487548828125">
        <ele>50.799999237060546875</ele>
        <time>2019-11-05T10:35:25.000Z</time>
      </trkpt>
      <trkpt lat="36.14750401116907596588134765625" lon="-5.7513251714408397674560546875">
        <ele>51.200000762939453125</ele>
        <time>2019-11-05T10:35:34.000Z</time>
      </trkpt>
      <trkpt lat="36.14768791012465953826904296875" lon="-5.75128401629626750946044921875">
        <ele>51</ele>
        <time>2019-11-05T10:35:41.000Z</time>
      </trkpt>
      <trkpt lat="36.147858314216136932373046875" lon="-5.75119969435036182403564453125">
        <ele>49.799999237060546875</ele>
        <time>2019-11-05T10:35:48.000Z</time>
      </trkpt>
      <trkpt lat="36.14803760312497615814208984375" lon="-5.75113515369594097137451171875">
        <ele>48.799999237060546875</ele>
        <time>2019-11-05T10:35:56.000Z</time>
      </trkpt>
      <trkpt lat="36.1482256092131137847900390625" lon="-5.75106239877641201019287109375">
        <ele>48</ele>
        <time>2019-11-05T10:36:04.000Z</time>
      </trkpt>
      <trkpt lat="36.14839048124849796295166015625" lon="-5.75096416287124156951904296875">
        <ele>48</ele>
        <time>2019-11-05T10:36:12.000Z</time>
      </trkpt>
      <trkpt lat="36.14856742322444915771484375" lon="-5.75086466968059539794921875">
        <ele>47.799999237060546875</ele>
        <time>2019-11-05T10:36:21.000Z</time>
      </trkpt>
      <trkpt lat="36.1487464606761932373046875" lon="-5.75074338354170322418212890625">
        <ele>47.200000762939453125</ele>
        <time>2019-11-05T10:36:29.000Z</time>
      </trkpt>
      <trkpt lat="36.14889741875231266021728515625" lon="-5.750599801540374755859375">
        <ele>46.59999847412109375</ele>
        <time>2019-11-05T10:36:36.000Z</time>
      </trkpt>
      <trkpt lat="36.1490654759109020233154296875" lon="-5.75046627782285213470458984375">
        <ele>46</ele>
        <time>2019-11-05T10:36:44.000Z</time>
      </trkpt>
      <trkpt lat="36.14924333989620208740234375" lon="-5.75034323148429393768310546875">
        <ele>45.40000152587890625</ele>
        <time>2019-11-05T10:36:52.000Z</time>
      </trkpt>
      <trkpt lat="36.14940133877098560333251953125" lon="-5.750229656696319580078125">
        <ele>45</ele>
        <time>2019-11-05T10:37:00.000Z</time>
      </trkpt>
      <trkpt lat="36.149576269090175628662109375" lon="-5.75015597976744174957275390625">
        <ele>44.40000152587890625</ele>
        <time>2019-11-05T10:37:08.000Z</time>
      </trkpt>
      <trkpt lat="36.14976192824542522430419921875" lon="-5.75007216073572635650634765625">
        <ele>44</ele>
        <time>2019-11-05T10:37:16.000Z</time>
      </trkpt>
      <trkpt lat="36.14991766400635242462158203125" lon="-5.74994475580751895904541015625">
        <ele>44</ele>
        <time>2019-11-05T10:37:22.000Z</time>
      </trkpt>
      <trkpt lat="36.15009552799165248870849609375" lon="-5.74980913661420345306396484375">
        <ele>44</ele>
        <time>2019-11-05T10:37:28.000Z</time>
      </trkpt>
      <trkpt lat="36.150252521038055419921875" lon="-5.74964292347431182861328125">
        <ele>43.799999237060546875</ele>
        <time>2019-11-05T10:37:34.000Z</time>
      </trkpt>
      <trkpt lat="36.15039132535457611083984375" lon="-5.74946883134543895721435546875">
        <ele>43.200000762939453125</ele>
        <time>2019-11-05T10:37:41.000Z</time>
      </trkpt>
      <trkpt lat="36.15052870474755764007568359375" lon="-5.749291218817234039306640625">
        <ele>42.799999237060546875</ele>
        <time>2019-11-05T10:37:48.000Z</time>
      </trkpt>
      <trkpt lat="36.150663234293460845947265625" lon="-5.7491205632686614990234375">
        <ele>41.799999237060546875</ele>
        <time>2019-11-05T10:37:54.000Z</time>
      </trkpt>
      <trkpt lat="36.15082659758627414703369140625" lon="-5.748978741466999053955078125">
        <ele>41.40000152587890625</ele>
        <time>2019-11-05T10:38:01.000Z</time>
      </trkpt>
      <trkpt lat="36.15099172107875347137451171875" lon="-5.7488649152219295501708984375">
        <ele>41.200000762939453125</ele>
        <time>2019-11-05T10:38:09.000Z</time>
      </trkpt>
      <trkpt lat="36.15116891451179981231689453125" lon="-5.74876307509839534759521484375">
        <ele>40.59999847412109375</ele>
        <time>2019-11-05T10:38:16.000Z</time>
      </trkpt>
      <trkpt lat="36.151336133480072021484375" lon="-5.74867791496217250823974609375">
        <ele>39.799999237060546875</ele>
        <time>2019-11-05T10:38:22.000Z</time>
      </trkpt>
      <trkpt lat="36.1515227146446704864501953125" lon="-5.74859459884464740753173828125">
        <ele>39.200000762939453125</ele>
        <time>2019-11-05T10:38:28.000Z</time>
      </trkpt>
      <trkpt lat="36.15170099772512912750244140625" lon="-5.7485329918563365936279296875">
        <ele>38.59999847412109375</ele>
        <time>2019-11-05T10:38:35.000Z</time>
      </trkpt>
      <trkpt lat="36.15187835879623889923095703125" lon="-5.74849133379757404327392578125">
        <ele>38.40000152587890625</ele>
        <time>2019-11-05T10:38:41.000Z</time>
      </trkpt>
      <trkpt lat="36.15207600407302379608154296875" lon="-5.74847809039056301116943359375">
        <ele>38.200000762939453125</ele>
        <time>2019-11-05T10:38:48.000Z</time>
      </trkpt>
      <trkpt lat="36.152258813381195068359375" lon="-5.74846048839390277862548828125">
        <ele>38.200000762939453125</ele>
        <time>2019-11-05T10:38:55.000Z</time>
      </trkpt>
      <trkpt lat="36.15245788358151912689208984375" lon="-5.7484119571745395660400390625">
        <ele>38.40000152587890625</ele>
        <time>2019-11-05T10:39:03.000Z</time>
      </trkpt>
      <trkpt lat="36.1526579596102237701416015625" lon="-5.7483641803264617919921875">
        <ele>39.59999847412109375</ele>
        <time>2019-11-05T10:39:11.000Z</time>
      </trkpt>
      <trkpt lat="36.15284345112740993499755859375" lon="-5.7483432255685329437255859375">
        <ele>40.40000152587890625</ele>
        <time>2019-11-05T10:39:18.000Z</time>
      </trkpt>
      <trkpt lat="36.15304444916546344757080078125" lon="-5.748293101787567138671875">
        <ele>40</ele>
        <time>2019-11-05T10:39:26.000Z</time>
      </trkpt>
      <trkpt lat="36.15321711637079715728759765625" lon="-5.74821724556386470794677734375">
        <ele>38.799999237060546875</ele>
        <time>2019-11-05T10:39:33.000Z</time>
      </trkpt>
      <trkpt lat="36.1534086428582668304443359375" lon="-5.74815354309976100921630859375">
        <ele>37.59999847412109375</ele>
        <time>2019-11-05T10:39:40.000Z</time>
      </trkpt>
      <trkpt lat="36.15359933115541934967041015625" lon="-5.74814264662563800811767578125">
        <ele>36.40000152587890625</ele>
        <time>2019-11-05T10:39:46.000Z</time>
      </trkpt>
      <trkpt lat="36.15381139330565929412841796875" lon="-5.748196877539157867431640625">
        <ele>35.200000762939453125</ele>
        <time>2019-11-05T10:39:52.000Z</time>
      </trkpt>
      <trkpt lat="36.15385363809764385223388671875" lon="-5.7482139766216278076171875">
        <ele>35.200000762939453125</ele>
        <time>2019-11-05T10:39:53.000Z</time>
      </trkpt>
      <trkpt lat="36.15405161865055561065673828125" lon="-5.74830123223364353179931640625">
        <ele>34.200000762939453125</ele>
        <time>2019-11-05T10:39:58.000Z</time>
      </trkpt>
      <trkpt lat="36.1542337574064731597900390625" lon="-5.74837499298155307769775390625">
        <ele>33.59999847412109375</ele>
        <time>2019-11-05T10:40:03.000Z</time>
      </trkpt>
      <trkpt lat="36.154421679675579071044921875" lon="-5.74846015311777591705322265625">
        <ele>33.40000152587890625</ele>
        <time>2019-11-05T10:40:09.000Z</time>
      </trkpt>
      <trkpt lat="36.154610104858875274658203125" lon="-5.74854397214949131011962890625">
        <ele>33.59999847412109375</ele>
        <time>2019-11-05T10:40:16.000Z</time>
      </trkpt>
      <trkpt lat="36.15479961968958377838134765625" lon="-5.74860180728137493133544921875">
        <ele>33</ele>
        <time>2019-11-05T10:40:22.000Z</time>
      </trkpt>
      <trkpt lat="36.15498184226453304290771484375" lon="-5.7486781664192676544189453125">
        <ele>33</ele>
        <time>2019-11-05T10:40:28.000Z</time>
      </trkpt>
      <trkpt lat="36.1551688425242900848388671875" lon="-5.74874228797852993011474609375">
        <ele>33.200000762939453125</ele>
        <time>2019-11-05T10:40:35.000Z</time>
      </trkpt>
      <trkpt lat="36.15535818971693515777587890625" lon="-5.7488149590790271759033203125">
        <ele>32.799999237060546875</ele>
        <time>2019-11-05T10:40:42.000Z</time>
      </trkpt>
      <trkpt lat="36.1555557511746883392333984375" lon="-5.74888746254146099090576171875">
        <ele>32.40000152587890625</ele>
        <time>2019-11-05T10:40:49.000Z</time>
      </trkpt>
      <trkpt lat="36.1557565815746784210205078125" lon="-5.7489567808806896209716796875">
        <ele>31</ele>
        <time>2019-11-05T10:40:56.000Z</time>
      </trkpt>
      <trkpt lat="36.1559285782277584075927734375" lon="-5.74903699569404125213623046875">
        <ele>30.799999237060546875</ele>
        <time>2019-11-05T10:41:01.000Z</time>
      </trkpt>
      <trkpt lat="36.15612848661839962005615234375" lon="-5.74911310337483882904052734375">
        <ele>31.6000003814697265625</ele>
        <time>2019-11-05T10:41:07.000Z</time>
      </trkpt>
      <trkpt lat="36.15631305612623691558837890625" lon="-5.74914135038852691650390625">
        <ele>31.3999996185302734375</ele>
        <time>2019-11-05T10:41:14.000Z</time>
      </trkpt>
      <trkpt lat="36.15649159066379070281982421875" lon="-5.7491110078990459442138671875">
        <ele>31.200000762939453125</ele>
        <time>2019-11-05T10:41:22.000Z</time>
      </trkpt>
      <trkpt lat="36.15667733363807201385498046875" lon="-5.74904856272041797637939453125">
        <ele>31</ele>
        <time>2019-11-05T10:41:28.000Z</time>
      </trkpt>
      <trkpt lat="36.15686592645943164825439453125" lon="-5.74901528656482696533203125">
        <ele>31.200000762939453125</ele>
        <time>2019-11-05T10:41:35.000Z</time>
      </trkpt>
      <trkpt lat="36.15705116651952266693115234375" lon="-5.74901889078319072723388671875">
        <ele>32</ele>
        <time>2019-11-05T10:41:42.000Z</time>
      </trkpt>
      <trkpt lat="36.15725333802402019500732421875" lon="-5.7489946670830249786376953125">
        <ele>32</ele>
        <time>2019-11-05T10:41:50.000Z</time>
      </trkpt>
      <trkpt lat="36.1574395000934600830078125" lon="-5.7489782385528087615966796875">
        <ele>31.799999237060546875</ele>
        <time>2019-11-05T10:41:56.000Z</time>
      </trkpt>
      <trkpt lat="36.157586686313152313232421875" lon="-5.7488488219678401947021484375">
        <ele>31.3999996185302734375</ele>
        <time>2019-11-05T10:42:03.000Z</time>
      </trkpt>
      <trkpt lat="36.15762163884937763214111328125" lon="-5.7486178167164325714111328125">
        <ele>31</ele>
        <time>2019-11-05T10:42:10.000Z</time>
      </trkpt>
      <trkpt lat="36.15766690112650394439697265625" lon="-5.7483827881515026092529296875">
        <ele>30</ele>
        <time>2019-11-05T10:42:16.000Z</time>
      </trkpt>
      <trkpt lat="36.1577219702303409576416015625" lon="-5.74817114509642124176025390625">
        <ele>28.200000762939453125</ele>
        <time>2019-11-05T10:42:21.000Z</time>
      </trkpt>
      <trkpt lat="36.15779464133083820343017578125" lon="-5.7479365356266498565673828125">
        <ele>27</ele>
        <time>2019-11-05T10:42:26.000Z</time>
      </trkpt>
      <trkpt lat="36.15782104432582855224609375" lon="-5.74770946986973285675048828125">
        <ele>27</ele>
        <time>2019-11-05T10:42:31.000Z</time>
      </trkpt>
      <trkpt lat="36.15786655806005001068115234375" lon="-5.7474798895418643951416015625">
        <ele>26.6000003814697265625</ele>
        <time>2019-11-05T10:42:38.000Z</time>
      </trkpt>
      <trkpt lat="36.157869659364223480224609375" lon="-5.7474745251238346099853515625">
        <ele>26.6000003814697265625</ele>
        <time>2019-11-05T10:42:39.000Z</time>
      </trkpt>
      <trkpt lat="36.15787091664969921112060546875" lon="-5.74747226200997829437255859375">
        <ele>26.6000003814697265625</ele>
        <time>2019-11-05T10:42:42.000Z</time>
      </trkpt>
      <trkpt lat="36.1579228006303310394287109375" lon="-5.7473409175872802734375">
        <ele>26.799999237060546875</ele>
        <time>2019-11-05T10:44:18.000Z</time>
      </trkpt>
      <trkpt lat="36.15795792080461978912353515625" lon="-5.7472431845963001251220703125">
        <ele>27.200000762939453125</ele>
        <time>2019-11-05T10:44:22.000Z</time>
      </trkpt>
      <trkpt lat="36.1580183543264865875244140625" lon="-5.7470128498971462249755859375">
        <ele>28</ele>
        <time>2019-11-05T10:44:32.000Z</time>
      </trkpt>
      <trkpt lat="36.15809387527406215667724609375" lon="-5.7468066550791263580322265625">
        <ele>27.799999237060546875</ele>
        <time>2019-11-05T10:44:39.000Z</time>
      </trkpt>
      <trkpt lat="36.1581524647772312164306640625" lon="-5.7465847022831439971923828125">
        <ele>27.6000003814697265625</ele>
        <time>2019-11-05T10:44:46.000Z</time>
      </trkpt>
      <trkpt lat="36.158200241625308990478515625" lon="-5.746337436139583587646484375">
        <ele>27.799999237060546875</ele>
        <time>2019-11-05T10:44:53.000Z</time>
      </trkpt>
      <trkpt lat="36.158209629356861114501953125" lon="-5.74609109200537204742431640625">
        <ele>28.200000762939453125</ele>
        <time>2019-11-05T10:45:00.000Z</time>
      </trkpt>
      <trkpt lat="36.1582305841147899627685546875" lon="-5.74584868736565113067626953125">
        <ele>29</ele>
        <time>2019-11-05T10:45:07.000Z</time>
      </trkpt>
      <trkpt lat="36.15825061686336994171142578125" lon="-5.74561181478202342987060546875">
        <ele>29</ele>
        <time>2019-11-05T10:45:14.000Z</time>
      </trkpt>
      <trkpt lat="36.15824944339692592620849609375" lon="-5.7453539036214351654052734375">
        <ele>30</ele>
        <time>2019-11-05T10:45:21.000Z</time>
      </trkpt>
      <trkpt lat="36.15818423219025135040283203125" lon="-5.74511795304715633392333984375">
        <ele>30.799999237060546875</ele>
        <time>2019-11-05T10:45:28.000Z</time>
      </trkpt>
      <trkpt lat="36.15817132405936717987060546875" lon="-5.74487806297838687896728515625">
        <ele>31.6000003814697265625</ele>
        <time>2019-11-05T10:45:34.000Z</time>
      </trkpt>
      <trkpt lat="36.15815724246203899383544921875" lon="-5.74464454315602779388427734375">
        <ele>32.799999237060546875</ele>
        <time>2019-11-05T10:45:41.000Z</time>
      </trkpt>
      <trkpt lat="36.1581357009708881378173828125" lon="-5.7443953491747379302978515625">
        <ele>34.40000152587890625</ele>
        <time>2019-11-05T10:45:49.000Z</time>
      </trkpt>
      <trkpt lat="36.15811566822230815887451171875" lon="-5.7441469095647335052490234375">
        <ele>35.799999237060546875</ele>
        <time>2019-11-05T10:45:57.000Z</time>
      </trkpt>
      <trkpt lat="36.1581021733582019805908203125" lon="-5.74391012080013751983642578125">
        <ele>37.200000762939453125</ele>
        <time>2019-11-05T10:46:05.000Z</time>
      </trkpt>
      <trkpt lat="36.1580803804099559783935546875" lon="-5.743685401976108551025390625">
        <ele>37.799999237060546875</ele>
        <time>2019-11-05T10:46:13.000Z</time>
      </trkpt>
      <trkpt lat="36.15805707871913909912109375" lon="-5.74345464818179607391357421875">
        <ele>38.59999847412109375</ele>
        <time>2019-11-05T10:46:21.000Z</time>
      </trkpt>
      <trkpt lat="36.15802480839192867279052734375" lon="-5.743230767548084259033203125">
        <ele>39</ele>
        <time>2019-11-05T10:46:29.000Z</time>
      </trkpt>
      <trkpt lat="36.1579858325421810150146484375" lon="-5.743012167513370513916015625">
        <ele>40</ele>
        <time>2019-11-05T10:46:37.000Z</time>
      </trkpt>
      <trkpt lat="36.15794367156922817230224609375" lon="-5.74278652667999267578125">
        <ele>41.40000152587890625</ele>
        <time>2019-11-05T10:46:45.000Z</time>
      </trkpt>
      <trkpt lat="36.1578989960253238677978515625" lon="-5.7425449602305889129638671875">
        <ele>42.40000152587890625</ele>
        <time>2019-11-05T10:46:54.000Z</time>
      </trkpt>
      <trkpt lat="36.15783043205738067626953125" lon="-5.74233130551874637603759765625">
        <ele>43</ele>
        <time>2019-11-05T10:47:02.000Z</time>
      </trkpt>
      <trkpt lat="36.157750301063060760498046875" lon="-5.7421251945197582244873046875">
        <ele>44.40000152587890625</ele>
        <time>2019-11-05T10:47:10.000Z</time>
      </trkpt>
      <trkpt lat="36.15763370878994464874267578125" lon="-5.74193500913679599761962890625">
        <ele>45.799999237060546875</ele>
        <time>2019-11-05T10:47:18.000Z</time>
      </trkpt>
      <trkpt lat="36.157523654401302337646484375" lon="-5.741751194000244140625">
        <ele>47</ele>
        <time>2019-11-05T10:47:26.000Z</time>
      </trkpt>
      <trkpt lat="36.1573987640440464019775390625" lon="-5.74155413545668125152587890625">
        <ele>47.799999237060546875</ele>
        <time>2019-11-05T10:47:35.000Z</time>
      </trkpt>
      <trkpt lat="36.15730346180498600006103515625" lon="-5.74135816656053066253662109375">
        <ele>48.59999847412109375</ele>
        <time>2019-11-05T10:47:43.000Z</time>
      </trkpt>
      <trkpt lat="36.15719432942569255828857421875" lon="-5.7411505468189716339111328125">
        <ele>49.59999847412109375</ele>
        <time>2019-11-05T10:47:52.000Z</time>
      </trkpt>
      <trkpt lat="36.15709684789180755615234375" lon="-5.74094862677156925201416015625">
        <ele>51.200000762939453125</ele>
        <time>2019-11-05T10:48:00.000Z</time>
      </trkpt>
      <trkpt lat="36.157041527330875396728515625" lon="-5.7407311163842678070068359375">
        <ele>52.59999847412109375</ele>
        <time>2019-11-05T10:48:08.000Z</time>
      </trkpt>
      <trkpt lat="36.15700288675725460052490234375" lon="-5.7405131869018077850341796875">
        <ele>53</ele>
        <time>2019-11-05T10:48:16.000Z</time>
      </trkpt>
      <trkpt lat="36.1569783277809619903564453125" lon="-5.74027874507009983062744140625">
        <ele>53.59999847412109375</ele>
        <time>2019-11-05T10:48:24.000Z</time>
      </trkpt>
      <trkpt lat="36.1569414474070072174072265625" lon="-5.7400320656597614288330078125">
        <ele>53.40000152587890625</ele>
        <time>2019-11-05T10:48:33.000Z</time>
      </trkpt>
      <trkpt lat="36.1569079197943210601806640625" lon="-5.7398084364831447601318359375">
        <ele>54</ele>
        <time>2019-11-05T10:48:41.000Z</time>
      </trkpt>
      <trkpt lat="36.15686953067779541015625" lon="-5.7395797781646251678466796875">
        <ele>54.59999847412109375</ele>
        <time>2019-11-05T10:48:49.000Z</time>
      </trkpt>
      <trkpt lat="36.15683340467512607574462890625" lon="-5.73934013955295085906982421875">
        <ele>55.59999847412109375</ele>
        <time>2019-11-05T10:48:57.000Z</time>
      </trkpt>
      <trkpt lat="36.15679685957729816436767578125" lon="-5.7391016744077205657958984375">
        <ele>56</ele>
        <time>2019-11-05T10:49:05.000Z</time>
      </trkpt>
      <trkpt lat="36.1567288823425769805908203125" lon="-5.73887377046048641204833984375">
        <ele>56</ele>
        <time>2019-11-05T10:49:13.000Z</time>
      </trkpt>
      <trkpt lat="36.15671270526945590972900390625" lon="-5.7386376522481441497802734375">
        <ele>57.200000762939453125</ele>
        <time>2019-11-05T10:49:21.000Z</time>
      </trkpt>
      <trkpt lat="36.15666727535426616668701171875" lon="-5.73842148296535015106201171875">
        <ele>59.200000762939453125</ele>
        <time>2019-11-05T10:49:29.000Z</time>
      </trkpt>
      <trkpt lat="36.15662477910518646240234375" lon="-5.7381960935890674591064453125">
        <ele>60.40000152587890625</ele>
        <time>2019-11-05T10:49:38.000Z</time>
      </trkpt>
      <trkpt lat="36.156596951186656951904296875" lon="-5.73797288350760936737060546875">
        <ele>60.799999237060546875</ele>
        <time>2019-11-05T10:49:46.000Z</time>
      </trkpt>
      <trkpt lat="36.15652126260101795196533203125" lon="-5.73775059543550014495849609375">
        <ele>60.40000152587890625</ele>
        <time>2019-11-05T10:49:54.000Z</time>
      </trkpt>
      <trkpt lat="36.15650868974626064300537109375" lon="-5.73752830736339092254638671875">
        <ele>58.799999237060546875</ele>
        <time>2019-11-05T10:50:01.000Z</time>
      </trkpt>
      <trkpt lat="36.156535260379314422607421875" lon="-5.73729042895138263702392578125">
        <ele>57.200000762939453125</ele>
        <time>2019-11-05T10:50:07.000Z</time>
      </trkpt>
      <trkpt lat="36.15656903944909572601318359375" lon="-5.737032853066921234130859375">
        <ele>56</ele>
        <time>2019-11-05T10:50:12.000Z</time>
      </trkpt>
      <trkpt lat="36.15660960786044597625732421875" lon="-5.73679673485457897186279296875">
        <ele>55.799999237060546875</ele>
        <time>2019-11-05T10:50:16.000Z</time>
      </trkpt>
      <trkpt lat="36.15666425786912441253662109375" lon="-5.7365679927170276641845703125">
        <ele>56.200000762939453125</ele>
        <time>2019-11-05T10:50:20.000Z</time>
      </trkpt>
      <trkpt lat="36.15670382045209407806396484375" lon="-5.73633925057947635650634765625">
        <ele>56.59999847412109375</ele>
        <time>2019-11-05T10:50:24.000Z</time>
      </trkpt>
      <trkpt lat="36.15670918487012386322021484375" lon="-5.7362327165901660919189453125">
        <ele>56.59999847412109375</ele>
        <time>2019-11-05T10:50:26.000Z</time>
      </trkpt>
      <trkpt lat="36.1567064188420772552490234375" lon="-5.7361358217895030975341796875">
        <ele>56.59999847412109375</ele>
        <time>2019-11-05T10:50:28.000Z</time>
      </trkpt>
      <trkpt lat="36.156743466854095458984375" lon="-5.73589392006397247314453125">
        <ele>57</ele>
        <time>2019-11-05T10:50:34.000Z</time>
      </trkpt>
      <trkpt lat="36.15678261034190654754638671875" lon="-5.7357599772512912750244140625">
        <ele>56.59999847412109375</ele>
        <time>2019-11-05T10:50:38.000Z</time>
      </trkpt>
      <trkpt lat="36.15679702721536159515380859375" lon="-5.73569082655012607574462890625">
        <ele>56.200000762939453125</ele>
        <time>2019-11-05T10:50:40.000Z</time>
      </trkpt>
      <trkpt lat="36.15684195421636104583740234375" lon="-5.735501982271671295166015625">
        <ele>55.59999847412109375</ele>
        <time>2019-11-05T10:50:45.000Z</time>
      </trkpt>
      <trkpt lat="36.15690506994724273681640625" lon="-5.735258571803569793701171875">
        <ele>54</ele>
        <time>2019-11-05T10:50:51.000Z</time>
      </trkpt>
      <trkpt lat="36.15695293061435222625732421875" lon="-5.73503033258020877838134765625">
        <ele>52</ele>
        <time>2019-11-05T10:50:56.000Z</time>
      </trkpt>
      <trkpt lat="36.157012023031711578369140625" lon="-5.73480385355651378631591796875">
        <ele>50</ele>
        <time>2019-11-05T10:51:02.000Z</time>
      </trkpt>
      <trkpt lat="36.157045550644397735595703125" lon="-5.73458408005535602569580078125">
        <ele>48.799999237060546875</ele>
        <time>2019-11-05T10:51:07.000Z</time>
      </trkpt>
      <trkpt lat="36.1570718698203563690185546875" lon="-5.73435164988040924072265625">
        <ele>47.59999847412109375</ele>
        <time>2019-11-05T10:51:12.000Z</time>
      </trkpt>
      <trkpt lat="36.15710749290883541107177734375" lon="-5.734079070389270782470703125">
        <ele>47.200000762939453125</ele>
        <time>2019-11-05T10:51:17.000Z</time>
      </trkpt>
      <trkpt lat="36.1571292020380496978759765625" lon="-5.73383289389312267303466796875">
        <ele>47.40000152587890625</ele>
        <time>2019-11-05T10:51:21.000Z</time>
      </trkpt>
      <trkpt lat="36.15716599859297275543212890625" lon="-5.73356836102902889251708984375">
        <ele>47.799999237060546875</ele>
        <time>2019-11-05T10:51:25.000Z</time>
      </trkpt>
      <trkpt lat="36.1572096683084964752197265625" lon="-5.7332849688827991485595703125">
        <ele>46.799999237060546875</ele>
        <time>2019-11-05T10:51:29.000Z</time>
      </trkpt>
      <trkpt lat="36.1572861112654209136962890625" lon="-5.73300912044942378997802734375">
        <ele>45.799999237060546875</ele>
        <time>2019-11-05T10:51:33.000Z</time>
      </trkpt>
      <trkpt lat="36.15731813013553619384765625" lon="-5.73294885456562042236328125">
        <ele>45.799999237060546875</ele>
        <time>2019-11-05T10:51:34.000Z</time>
      </trkpt>
      <trkpt lat="36.1574480496346950531005859375" lon="-5.732765458524227142333984375">
        <ele>46.200000762939453125</ele>
        <time>2019-11-05T10:51:38.000Z</time>
      </trkpt>
      <trkpt lat="36.15747143514454364776611328125" lon="-5.73272145353257656097412109375">
        <ele>46.200000762939453125</ele>
        <time>2019-11-05T10:51:39.000Z</time>
      </trkpt>
      <trkpt lat="36.15749138407409191131591796875" lon="-5.73253788985311985015869140625">
        <ele>46.40000152587890625</ele>
        <time>2019-11-05T10:51:43.000Z</time>
      </trkpt>
      <trkpt lat="36.15750186145305633544921875" lon="-5.73231853544712066650390625">
        <ele>46.40000152587890625</ele>
        <time>2019-11-05T10:51:49.000Z</time>
      </trkpt>
      <trkpt lat="36.15743924863636493682861328125" lon="-5.73224284686148166656494140625">
        <ele>46.200000762939453125</ele>
        <time>2019-11-05T10:51:52.000Z</time>
      </trkpt>
      <trkpt lat="36.1572871170938014984130859375" lon="-5.7320984266698360443115234375">
        <ele>46.200000762939453125</ele>
        <time>2019-11-05T10:51:57.000Z</time>
      </trkpt>
      <trkpt lat="36.157116629183292388916015625" lon="-5.7319281063973903656005859375">
        <ele>46.200000762939453125</ele>
        <time>2019-11-05T10:52:02.000Z</time>
      </trkpt>
      <trkpt lat="36.15697681903839111328125" lon="-5.73177765123546123504638671875">
        <ele>45.799999237060546875</ele>
        <time>2019-11-05T10:52:06.000Z</time>
      </trkpt>
      <trkpt lat="36.156828962266445159912109375" lon="-5.7316240109503269195556640625">
        <ele>45.40000152587890625</ele>
        <time>2019-11-05T10:52:10.000Z</time>
      </trkpt>
      <trkpt lat="36.1567895673215389251708984375" lon="-5.731585957109928131103515625">
        <ele>45.40000152587890625</ele>
        <time>2019-11-05T10:52:11.000Z</time>
      </trkpt>
      <trkpt lat="36.15663123317062854766845703125" lon="-5.73141555301845073699951171875">
        <ele>44.40000152587890625</ele>
        <time>2019-11-05T10:52:15.000Z</time>
      </trkpt>
      <trkpt lat="36.15645990706980228424072265625" lon="-5.731233917176723480224609375">
        <ele>43.40000152587890625</ele>
        <time>2019-11-05T10:52:19.000Z</time>
      </trkpt>
      <trkpt lat="36.15632495842874050140380859375" lon="-5.73108480311930179595947265625">
        <ele>42.40000152587890625</ele>
        <time>2019-11-05T10:52:22.000Z</time>
      </trkpt>
      <trkpt lat="36.1561922729015350341796875" lon="-5.7309219427406787872314453125">
        <ele>42.59999847412109375</ele>
        <time>2019-11-05T10:52:25.000Z</time>
      </trkpt>
      <trkpt lat="36.15605858154594898223876953125" lon="-5.73073242790997028350830078125">
        <ele>41.59999847412109375</ele>
        <time>2019-11-05T10:52:28.000Z</time>
      </trkpt>
      <trkpt lat="36.155927740037441253662109375" lon="-5.7305182702839374542236328125">
        <ele>40.59999847412109375</ele>
        <time>2019-11-05T10:52:31.000Z</time>
      </trkpt>
      <trkpt lat="36.15579656325280666351318359375" lon="-5.7302835769951343536376953125">
        <ele>39.799999237060546875</ele>
        <time>2019-11-05T10:52:34.000Z</time>
      </trkpt>
      <trkpt lat="36.155660189688205718994140625" lon="-5.73002566583454608917236328125">
        <ele>38.59999847412109375</ele>
        <time>2019-11-05T10:52:37.000Z</time>
      </trkpt>
      <trkpt lat="36.1555104888975620269775390625" lon="-5.72975895367562770843505859375">
        <ele>38</ele>
        <time>2019-11-05T10:52:40.000Z</time>
      </trkpt>
      <trkpt lat="36.15540697239339351654052734375" lon="-5.72957455180585384368896484375">
        <ele>37</ele>
        <time>2019-11-05T10:52:42.000Z</time>
      </trkpt>
      <trkpt lat="36.15530085749924182891845703125" lon="-5.72938579134643077850341796875">
        <ele>36.59999847412109375</ele>
        <time>2019-11-05T10:52:44.000Z</time>
      </trkpt>
      <trkpt lat="36.1551956646144390106201171875" lon="-5.729193426668643951416015625">
        <ele>36</ele>
        <time>2019-11-05T10:52:46.000Z</time>
      </trkpt>
      <trkpt lat="36.155084855854511260986328125" lon="-5.72900273837149143218994140625">
        <ele>35.200000762939453125</ele>
        <time>2019-11-05T10:52:48.000Z</time>
      </trkpt>
      <trkpt lat="36.154978908598423004150390625" lon="-5.728813894093036651611328125">
        <ele>35</ele>
        <time>2019-11-05T10:52:50.000Z</time>
      </trkpt>
      <trkpt lat="36.15487673319876194000244140625" lon="-5.7286293245851993560791015625">
        <ele>35</ele>
        <time>2019-11-05T10:52:52.000Z</time>
      </trkpt>
      <trkpt lat="36.15472435019910335540771484375" lon="-5.72836403734982013702392578125">
        <ele>35</ele>
        <time>2019-11-05T10:52:55.000Z</time>
      </trkpt>
      <trkpt lat="36.1545790918171405792236328125" lon="-5.728107802569866180419921875">
        <ele>35.200000762939453125</ele>
        <time>2019-11-05T10:52:58.000Z</time>
      </trkpt>
      <trkpt lat="36.154443807899951934814453125" lon="-5.7278736121952533721923828125">
        <ele>35.40000152587890625</ele>
        <time>2019-11-05T10:53:01.000Z</time>
      </trkpt>
      <trkpt lat="36.15431900136172771453857421875" lon="-5.7276499830186367034912109375">
        <ele>35.40000152587890625</ele>
        <time>2019-11-05T10:53:04.000Z</time>
      </trkpt>
      <trkpt lat="36.1542019061744213104248046875" lon="-5.72744554840028285980224609375">
        <ele>35.200000762939453125</ele>
        <time>2019-11-05T10:53:07.000Z</time>
      </trkpt>
      <trkpt lat="36.15409503690898418426513671875" lon="-5.72724622674286365509033203125">
        <ele>35.59999847412109375</ele>
        <time>2019-11-05T10:53:10.000Z</time>
      </trkpt>
      <trkpt lat="36.153989173471927642822265625" lon="-5.727061741054058074951171875">
        <ele>34.40000152587890625</ele>
        <time>2019-11-05T10:53:13.000Z</time>
      </trkpt>
      <trkpt lat="36.15386051125824451446533203125" lon="-5.7268295623362064361572265625">
        <ele>34.200000762939453125</ele>
        <time>2019-11-05T10:53:17.000Z</time>
      </trkpt>
      <trkpt lat="36.15373478271067142486572265625" lon="-5.72661171667277812957763671875">
        <ele>33.799999237060546875</ele>
        <time>2019-11-05T10:53:21.000Z</time>
      </trkpt>
      <trkpt lat="36.1536128260195255279541015625" lon="-5.72639596648514270782470703125">
        <ele>33.799999237060546875</ele>
        <time>2019-11-05T10:53:25.000Z</time>
      </trkpt>
      <trkpt lat="36.1534877680242061614990234375" lon="-5.72617761790752410888671875">
        <ele>34.200000762939453125</ele>
        <time>2019-11-05T10:53:29.000Z</time>
      </trkpt>
      <trkpt lat="36.15336011163890361785888671875" lon="-5.72596010752022266387939453125">
        <ele>35.40000152587890625</ele>
        <time>2019-11-05T10:53:33.000Z</time>
      </trkpt>
      <trkpt lat="36.15323421545326709747314453125" lon="-5.72573983110487461090087890625">
        <ele>36</ele>
        <time>2019-11-05T10:53:37.000Z</time>
      </trkpt>
      <trkpt lat="36.1531075648963451385498046875" lon="-5.725517459213733673095703125">
        <ele>36.200000762939453125</ele>
        <time>2019-11-05T10:53:41.000Z</time>
      </trkpt>
      <trkpt lat="36.15297689102590084075927734375" lon="-5.7252909801900386810302734375">
        <ele>36.59999847412109375</ele>
        <time>2019-11-05T10:53:45.000Z</time>
      </trkpt>
      <trkpt lat="36.1528480611741542816162109375" lon="-5.72506408207118511199951171875">
        <ele>36.799999237060546875</ele>
        <time>2019-11-05T10:53:49.000Z</time>
      </trkpt>
      <trkpt lat="36.1527256853878498077392578125" lon="-5.72483860887587070465087890625">
        <ele>37</ele>
        <time>2019-11-05T10:53:53.000Z</time>
      </trkpt>
      <trkpt lat="36.15259652025997638702392578125" lon="-5.72461799718439579010009765625">
        <ele>37</ele>
        <time>2019-11-05T10:53:57.000Z</time>
      </trkpt>
      <trkpt lat="36.1524732224643230438232421875" lon="-5.7243959605693817138671875">
        <ele>37.40000152587890625</ele>
        <time>2019-11-05T10:54:01.000Z</time>
      </trkpt>
      <trkpt lat="36.15234808064997196197509765625" lon="-5.724168978631496429443359375">
        <ele>38</ele>
        <time>2019-11-05T10:54:05.000Z</time>
      </trkpt>
      <trkpt lat="36.15221665240824222564697265625" lon="-5.7239418290555477142333984375">
        <ele>38.59999847412109375</ele>
        <time>2019-11-05T10:54:09.000Z</time>
      </trkpt>
      <trkpt lat="36.15208254195749759674072265625" lon="-5.72371073998510837554931640625">
        <ele>38.200000762939453125</ele>
        <time>2019-11-05T10:54:13.000Z</time>
      </trkpt>
      <trkpt lat="36.15194893442094326019287109375" lon="-5.72347621433436870574951171875">
        <ele>38.59999847412109375</ele>
        <time>2019-11-05T10:54:17.000Z</time>
      </trkpt>
      <trkpt lat="36.1518234573304653167724609375" lon="-5.72324931621551513671875">
        <ele>38.59999847412109375</ele>
        <time>2019-11-05T10:54:21.000Z</time>
      </trkpt>
      <trkpt lat="36.151697896420955657958984375" lon="-5.7230293750762939453125">
        <ele>39</ele>
        <time>2019-11-05T10:54:25.000Z</time>
      </trkpt>
      <trkpt lat="36.15157040767371654510498046875" lon="-5.7228072546422481536865234375">
        <ele>39</ele>
        <time>2019-11-05T10:54:29.000Z</time>
      </trkpt>
      <trkpt lat="36.15144677460193634033203125" lon="-5.72258077561855316162109375">
        <ele>39.799999237060546875</ele>
        <time>2019-11-05T10:54:33.000Z</time>
      </trkpt>
      <trkpt lat="36.15131828002631664276123046875" lon="-5.72234717197716236114501953125">
        <ele>40.200000762939453125</ele>
        <time>2019-11-05T10:54:37.000Z</time>
      </trkpt>
      <trkpt lat="36.15117930807173252105712890625" lon="-5.72210862301290035247802734375">
        <ele>39.799999237060546875</ele>
        <time>2019-11-05T10:54:41.000Z</time>
      </trkpt>
      <trkpt lat="36.15107595920562744140625" lon="-5.72192489169538021087646484375">
        <ele>39.40000152587890625</ele>
        <time>2019-11-05T10:54:44.000Z</time>
      </trkpt>
      <trkpt lat="36.15097227506339550018310546875" lon="-5.72174199856817722320556640625">
        <ele>38.200000762939453125</ele>
        <time>2019-11-05T10:54:47.000Z</time>
      </trkpt>
      <trkpt lat="36.15083648823201656341552734375" lon="-5.72150076739490032196044921875">
        <ele>37.40000152587890625</ele>
        <time>2019-11-05T10:54:51.000Z</time>
      </trkpt>
      <trkpt lat="36.1507073231041431427001953125" lon="-5.72126909159123897552490234375">
        <ele>37.200000762939453125</ele>
        <time>2019-11-05T10:54:55.000Z</time>
      </trkpt>
      <trkpt lat="36.1505812592804431915283203125" lon="-5.72104311548173427581787109375">
        <ele>36.59999847412109375</ele>
        <time>2019-11-05T10:54:59.000Z</time>
      </trkpt>
      <trkpt lat="36.1504471488296985626220703125" lon="-5.720810182392597198486328125">
        <ele>35.59999847412109375</ele>
        <time>2019-11-05T10:55:03.000Z</time>
      </trkpt>
      <trkpt lat="36.1503408662974834442138671875" lon="-5.72062670253217220306396484375">
        <ele>35</ele>
        <time>2019-11-05T10:55:06.000Z</time>
      </trkpt>
      <trkpt lat="36.1502055823802947998046875" lon="-5.72038865648210048675537109375">
        <ele>34.200000762939453125</ele>
        <time>2019-11-05T10:55:10.000Z</time>
      </trkpt>
      <trkpt lat="36.15007239393889904022216796875" lon="-5.72015010751783847808837890625">
        <ele>34.40000152587890625</ele>
        <time>2019-11-05T10:55:14.000Z</time>
      </trkpt>
      <trkpt lat="36.1499677039682865142822265625" lon="-5.719966627657413482666015625">
        <ele>34.799999237060546875</ele>
        <time>2019-11-05T10:55:17.000Z</time>
      </trkpt>
      <trkpt lat="36.14986083470284938812255859375" lon="-5.719785578548908233642578125">
        <ele>35.200000762939453125</ele>
        <time>2019-11-05T10:55:20.000Z</time>
      </trkpt>
      <trkpt lat="36.149731837213039398193359375" lon="-5.719546191394329071044921875">
        <ele>35.59999847412109375</ele>
        <time>2019-11-05T10:55:24.000Z</time>
      </trkpt>
      <trkpt lat="36.14960015751421451568603515625" lon="-5.71932348422706127166748046875">
        <ele>36.799999237060546875</ele>
        <time>2019-11-05T10:55:28.000Z</time>
      </trkpt>
      <trkpt lat="36.1494704894721508026123046875" lon="-5.719108991324901580810546875">
        <ele>38</ele>
        <time>2019-11-05T10:55:32.000Z</time>
      </trkpt>
      <trkpt lat="36.14933176897466182708740234375" lon="-5.71889785118401050567626953125">
        <ele>38.200000762939453125</ele>
        <time>2019-11-05T10:55:36.000Z</time>
      </trkpt>
      <trkpt lat="36.14918374456465244293212890625" lon="-5.718691237270832061767578125">
        <ele>39.59999847412109375</ele>
        <time>2019-11-05T10:55:40.000Z</time>
      </trkpt>
      <trkpt lat="36.14902742207050323486328125" lon="-5.71849484927952289581298828125">
        <ele>39.40000152587890625</ele>
        <time>2019-11-05T10:55:44.000Z</time>
      </trkpt>
      <trkpt lat="36.148863136768341064453125" lon="-5.71831069886684417724609375">
        <ele>39</ele>
        <time>2019-11-05T10:55:48.000Z</time>
      </trkpt>
      <trkpt lat="36.1486963368952274322509765625" lon="-5.718137361109256744384765625">
        <ele>39.40000152587890625</ele>
        <time>2019-11-05T10:55:52.000Z</time>
      </trkpt>
      <trkpt lat="36.14852325059473514556884765625" lon="-5.7179772667586803436279296875">
        <ele>40</ele>
        <time>2019-11-05T10:55:56.000Z</time>
      </trkpt>
      <trkpt lat="36.14834337495267391204833984375" lon="-5.71782656013965606689453125">
        <ele>40</ele>
        <time>2019-11-05T10:56:00.000Z</time>
      </trkpt>
      <trkpt lat="36.14815729670226573944091796875" lon="-5.7176959700882434844970703125">
        <ele>40.799999237060546875</ele>
        <time>2019-11-05T10:56:04.000Z</time>
      </trkpt>
      <trkpt lat="36.14797105081379413604736328125" lon="-5.71756730787456035614013671875">
        <ele>41</ele>
        <time>2019-11-05T10:56:08.000Z</time>
      </trkpt>
      <trkpt lat="36.14777139388024806976318359375" lon="-5.71745297871530055999755859375">
        <ele>41</ele>
        <time>2019-11-05T10:56:12.000Z</time>
      </trkpt>
      <trkpt lat="36.14756293594837188720703125" lon="-5.717331357300281524658203125">
        <ele>40.799999237060546875</ele>
        <time>2019-11-05T10:56:16.000Z</time>
      </trkpt>
      <trkpt lat="36.1473455093801021575927734375" lon="-5.7172041200101375579833984375">
        <ele>39.59999847412109375</ele>
        <time>2019-11-05T10:56:20.000Z</time>
      </trkpt>
      <trkpt lat="36.147175021469593048095703125" lon="-5.71710881777107715606689453125">
        <ele>39.59999847412109375</ele>
        <time>2019-11-05T10:56:23.000Z</time>
      </trkpt>
      <trkpt lat="36.146996654570102691650390625" lon="-5.71701653301715850830078125">
        <ele>39</ele>
        <time>2019-11-05T10:56:26.000Z</time>
      </trkpt>
      <trkpt lat="36.146812923252582550048828125" lon="-5.71691854856908321380615234375">
        <ele>38.799999237060546875</ele>
        <time>2019-11-05T10:56:29.000Z</time>
      </trkpt>
      <trkpt lat="36.146624498069286346435546875" lon="-5.71682031266391277313232421875">
        <ele>39.200000762939453125</ele>
        <time>2019-11-05T10:56:32.000Z</time>
      </trkpt>
      <trkpt lat="36.14643464796245098114013671875" lon="-5.71671704761683940887451171875">
        <ele>39.40000152587890625</ele>
        <time>2019-11-05T10:56:35.000Z</time>
      </trkpt>
      <trkpt lat="36.14624974317848682403564453125" lon="-5.71661143563687801361083984375">
        <ele>39.799999237060546875</ele>
        <time>2019-11-05T10:56:38.000Z</time>
      </trkpt>
      <trkpt lat="36.1460711248219013214111328125" lon="-5.71650967933237552642822265625">
        <ele>39.40000152587890625</ele>
        <time>2019-11-05T10:56:41.000Z</time>
      </trkpt>
      <trkpt lat="36.14589116536080837249755859375" lon="-5.7164182327687740325927734375">
        <ele>38.799999237060546875</ele>
        <time>2019-11-05T10:56:44.000Z</time>
      </trkpt>
      <trkpt lat="36.1457102000713348388671875" lon="-5.71633030660450458526611328125">
        <ele>38.40000152587890625</ele>
        <time>2019-11-05T10:56:47.000Z</time>
      </trkpt>
      <trkpt lat="36.14553510211408138275146484375" lon="-5.71623735129833221435546875">
        <ele>38</ele>
        <time>2019-11-05T10:56:50.000Z</time>
      </trkpt>
      <trkpt lat="36.145363859832286834716796875" lon="-5.71614255197346210479736328125">
        <ele>37.59999847412109375</ele>
        <time>2019-11-05T10:56:53.000Z</time>
      </trkpt>
      <trkpt lat="36.1451967246830463409423828125" lon="-5.71605487726628780364990234375">
        <ele>37</ele>
        <time>2019-11-05T10:56:56.000Z</time>
      </trkpt>
      <trkpt lat="36.14497887901961803436279296875" lon="-5.7159344293177127838134765625">
        <ele>36.40000152587890625</ele>
        <time>2019-11-05T10:57:00.000Z</time>
      </trkpt>
      <trkpt lat="36.14476497285068035125732421875" lon="-5.71581699885427951812744140625">
        <ele>36</ele>
        <time>2019-11-05T10:57:04.000Z</time>
      </trkpt>
      <trkpt lat="36.14456380717456340789794921875" lon="-5.71570090949535369873046875">
        <ele>35.40000152587890625</ele>
        <time>2019-11-05T10:57:08.000Z</time>
      </trkpt>
      <trkpt lat="36.1443689279258251190185546875" lon="-5.715577192604541778564453125">
        <ele>34.799999237060546875</ele>
        <time>2019-11-05T10:57:12.000Z</time>
      </trkpt>
      <trkpt lat="36.14417706616222858428955078125" lon="-5.71547158062458038330078125">
        <ele>34.59999847412109375</ele>
        <time>2019-11-05T10:57:16.000Z</time>
      </trkpt>
      <trkpt lat="36.14399936981499195098876953125" lon="-5.7153671421110630035400390625">
        <ele>35.59999847412109375</ele>
        <time>2019-11-05T10:57:20.000Z</time>
      </trkpt>
      <trkpt lat="36.1438244394958019256591796875" lon="-5.71526915766298770904541015625">
        <ele>36.40000152587890625</ele>
        <time>2019-11-05T10:57:24.000Z</time>
      </trkpt>
      <trkpt lat="36.14365386776626110076904296875" lon="-5.71516983211040496826171875">
        <ele>37.40000152587890625</ele>
        <time>2019-11-05T10:57:28.000Z</time>
      </trkpt>
      <trkpt lat="36.1434750817716121673583984375" lon="-5.7150737755000591278076171875">
        <ele>38.200000762939453125</ele>
        <time>2019-11-05T10:57:32.000Z</time>
      </trkpt>
      <trkpt lat="36.143301911652088165283203125" lon="-5.7149735279381275177001953125">
        <ele>38.200000762939453125</ele>
        <time>2019-11-05T10:57:36.000Z</time>
      </trkpt>
      <trkpt lat="36.14312966354191303253173828125" lon="-5.7148794829845428466796875">
        <ele>38.799999237060546875</ele>
        <time>2019-11-05T10:57:40.000Z</time>
      </trkpt>
      <trkpt lat="36.14295733161270618438720703125" lon="-5.71478418074548244476318359375">
        <ele>40</ele>
        <time>2019-11-05T10:57:44.000Z</time>
      </trkpt>
      <trkpt lat="36.1427877657115459442138671875" lon="-5.7146878726780414581298828125">
        <ele>40.59999847412109375</ele>
        <time>2019-11-05T10:57:48.000Z</time>
      </trkpt>
      <trkpt lat="36.14261853508651256561279296875" lon="-5.7145916484296321868896484375">
        <ele>40.200000762939453125</ele>
        <time>2019-11-05T10:57:52.000Z</time>
      </trkpt>
      <trkpt lat="36.142446286976337432861328125" lon="-5.71449458599090576171875">
        <ele>39.799999237060546875</ele>
        <time>2019-11-05T10:57:56.000Z</time>
      </trkpt>
      <trkpt lat="36.1422774754464626312255859375" lon="-5.714399032294750213623046875">
        <ele>38.799999237060546875</ele>
        <time>2019-11-05T10:58:00.000Z</time>
      </trkpt>
      <trkpt lat="36.14209927618503570556640625" lon="-5.71430574171245098114013671875">
        <ele>38.59999847412109375</ele>
        <time>2019-11-05T10:58:04.000Z</time>
      </trkpt>
      <trkpt lat="36.1419244296848773956298828125" lon="-5.71421228349208831787109375">
        <ele>38</ele>
        <time>2019-11-05T10:58:08.000Z</time>
      </trkpt>
      <trkpt lat="36.14175436086952686309814453125" lon="-5.71411170065402984619140625">
        <ele>37.59999847412109375</ele>
        <time>2019-11-05T10:58:12.000Z</time>
      </trkpt>
      <trkpt lat="36.1415742337703704833984375" lon="-5.7140122912824153900146484375">
        <ele>37.200000762939453125</ele>
        <time>2019-11-05T10:58:16.000Z</time>
      </trkpt>
      <trkpt lat="36.1413806118071079254150390625" lon="-5.71390978060662746429443359375">
        <ele>38.40000152587890625</ele>
        <time>2019-11-05T10:58:20.000Z</time>
      </trkpt>
      <trkpt lat="36.1411911807954311370849609375" lon="-5.713808275759220123291015625">
        <ele>39.200000762939453125</ele>
        <time>2019-11-05T10:58:24.000Z</time>
      </trkpt>
      <trkpt lat="36.14101256243884563446044921875" lon="-5.71371330879628658294677734375">
        <ele>40.200000762939453125</ele>
        <time>2019-11-05T10:58:28.000Z</time>
      </trkpt>
      <trkpt lat="36.14083352498710155487060546875" lon="-5.71361641399562358856201171875">
        <ele>41</ele>
        <time>2019-11-05T10:58:32.000Z</time>
      </trkpt>
      <trkpt lat="36.1406647972762584686279296875" lon="-5.71352153085172176361083984375">
        <ele>42</ele>
        <time>2019-11-05T10:58:36.000Z</time>
      </trkpt>
      <trkpt lat="36.14048232324421405792236328125" lon="-5.7134268991649150848388671875">
        <ele>43</ele>
        <time>2019-11-05T10:58:41.000Z</time>
      </trkpt>
      <trkpt lat="36.14029071293771266937255859375" lon="-5.7133232988417148590087890625">
        <ele>43.40000152587890625</ele>
        <time>2019-11-05T10:58:47.000Z</time>
      </trkpt>
      <trkpt lat="36.14010765217244625091552734375" lon="-5.71321877650916576385498046875">
        <ele>43.799999237060546875</ele>
        <time>2019-11-05T10:58:53.000Z</time>
      </trkpt>
      <trkpt lat="36.13993263803422451019287109375" lon="-5.71311928331851959228515625">
        <ele>44.799999237060546875</ele>
        <time>2019-11-05T10:58:59.000Z</time>
      </trkpt>
      <trkpt lat="36.13975527696311473846435546875" lon="-5.713025070726871490478515625">
        <ele>46.59999847412109375</ele>
        <time>2019-11-05T10:59:05.000Z</time>
      </trkpt>
      <trkpt lat="36.13957934081554412841796875" lon="-5.7129239849746227264404296875">
        <ele>47.40000152587890625</ele>
        <time>2019-11-05T10:59:11.000Z</time>
      </trkpt>
      <trkpt lat="36.1394028179347515106201171875" lon="-5.71282851509749889373779296875">
        <ele>47.799999237060546875</ele>
        <time>2019-11-05T10:59:17.000Z</time>
      </trkpt>
      <trkpt lat="36.1392299830913543701171875" lon="-5.71273480542004108428955078125">
        <ele>48</ele>
        <time>2019-11-05T10:59:23.000Z</time>
      </trkpt>
      <trkpt lat="36.1390464194118976593017578125" lon="-5.71263648569583892822265625">
        <ele>48.40000152587890625</ele>
        <time>2019-11-05T10:59:30.000Z</time>
      </trkpt>
      <trkpt lat="36.1388596706092357635498046875" lon="-5.71253783069550991058349609375">
        <ele>50.200000762939453125</ele>
        <time>2019-11-05T10:59:37.000Z</time>
      </trkpt>
      <trkpt lat="36.13867971114814281463623046875" lon="-5.71243858896195888519287109375">
        <ele>51.40000152587890625</ele>
        <time>2019-11-05T10:59:44.000Z</time>
      </trkpt>
      <trkpt lat="36.13849530927836894989013671875" lon="-5.71233012713491916656494140625">
        <ele>52.200000762939453125</ele>
        <time>2019-11-05T10:59:51.000Z</time>
      </trkpt>
      <trkpt lat="36.138307638466358184814453125" lon="-5.71223122067749500274658203125">
        <ele>52.59999847412109375</ele>
        <time>2019-11-05T10:59:58.000Z</time>
      </trkpt>
      <trkpt lat="36.138126589357852935791015625" lon="-5.71212552487850189208984375">
        <ele>53.200000762939453125</ele>
        <time>2019-11-05T11:00:05.000Z</time>
      </trkpt>
      <trkpt lat="36.1379463784396648406982421875" lon="-5.71202569641172885894775390625">
        <ele>54.200000762939453125</ele>
        <time>2019-11-05T11:00:12.000Z</time>
      </trkpt>
      <trkpt lat="36.1377639882266521453857421875" lon="-5.7119251973927021026611328125">
        <ele>55.40000152587890625</ele>
        <time>2019-11-05T11:00:19.000Z</time>
      </trkpt>
      <trkpt lat="36.137582771480083465576171875" lon="-5.7118236087262630462646484375">
        <ele>57.59999847412109375</ele>
        <time>2019-11-05T11:00:26.000Z</time>
      </trkpt>
      <trkpt lat="36.1374052427709102630615234375" lon="-5.711729228496551513671875">
        <ele>59</ele>
        <time>2019-11-05T11:00:33.000Z</time>
      </trkpt>
      <trkpt lat="36.1372263729572296142578125" lon="-5.711626298725605010986328125">
        <ele>59.59999847412109375</ele>
        <time>2019-11-05T11:00:40.000Z</time>
      </trkpt>
      <trkpt lat="36.13704255782067775726318359375" lon="-5.711523033678531646728515625">
        <ele>59.200000762939453125</ele>
        <time>2019-11-05T11:00:47.000Z</time>
      </trkpt>
      <trkpt lat="36.13686385564506053924560546875" lon="-5.71141918189823627471923828125">
        <ele>59</ele>
        <time>2019-11-05T11:00:54.000Z</time>
      </trkpt>
      <trkpt lat="36.1366874165832996368408203125" lon="-5.71130921132862567901611328125">
        <ele>59.59999847412109375</ele>
        <time>2019-11-05T11:01:01.000Z</time>
      </trkpt>
      <trkpt lat="36.13651198334991931915283203125" lon="-5.71118935011327266693115234375">
        <ele>60.200000762939453125</ele>
        <time>2019-11-05T11:01:08.000Z</time>
      </trkpt>
      <trkpt lat="36.13634451292455196380615234375" lon="-5.71105574257671833038330078125">
        <ele>60.799999237060546875</ele>
        <time>2019-11-05T11:01:15.000Z</time>
      </trkpt>
      <trkpt lat="36.1361804790794849395751953125" lon="-5.71091475896537303924560546875">
        <ele>61.799999237060546875</ele>
        <time>2019-11-05T11:01:22.000Z</time>
      </trkpt>
      <trkpt lat="36.1360269226133823394775390625" lon="-5.71075499989092350006103515625">
        <ele>63.40000152587890625</ele>
        <time>2019-11-05T11:01:29.000Z</time>
      </trkpt>
      <trkpt lat="36.13587386906147003173828125" lon="-5.71058996021747589111328125">
        <ele>65.8000030517578125</ele>
        <time>2019-11-05T11:01:36.000Z</time>
      </trkpt>
      <trkpt lat="36.13572978414595127105712890625" lon="-5.710420310497283935546875">
        <ele>67.40000152587890625</ele>
        <time>2019-11-05T11:01:43.000Z</time>
      </trkpt>
      <trkpt lat="36.1355836875736713409423828125" lon="-5.71024772711098194122314453125">
        <ele>68</ele>
        <time>2019-11-05T11:01:50.000Z</time>
      </trkpt>
      <trkpt lat="36.135435998439788818359375" lon="-5.7100741378962993621826171875">
        <ele>69.40000152587890625</ele>
        <time>2019-11-05T11:01:57.000Z</time>
      </trkpt>
      <trkpt lat="36.13528939895331859588623046875" lon="-5.70990423671901226043701171875">
        <ele>70.8000030517578125</ele>
        <time>2019-11-05T11:02:04.000Z</time>
      </trkpt>
      <trkpt lat="36.13513718359172344207763671875" lon="-5.70974498055875301361083984375">
        <ele>72.59999847412109375</ele>
        <time>2019-11-05T11:02:11.000Z</time>
      </trkpt>
      <trkpt lat="36.134972982108592987060546875" lon="-5.70960349403321743011474609375">
        <ele>74.40000152587890625</ele>
        <time>2019-11-05T11:02:18.000Z</time>
      </trkpt>
      <trkpt lat="36.134805344045162200927734375" lon="-5.70948162116110324859619140625">
        <ele>75.40000152587890625</ele>
        <time>2019-11-05T11:02:25.000Z</time>
      </trkpt>
      <trkpt lat="36.13462253473699092864990234375" lon="-5.709369890391826629638671875">
        <ele>76</ele>
        <time>2019-11-05T11:02:32.000Z</time>
      </trkpt>
      <trkpt lat="36.134440898895263671875" lon="-5.709278024733066558837890625">
        <ele>77.1999969482421875</ele>
        <time>2019-11-05T11:02:39.000Z</time>
      </trkpt>
      <trkpt lat="36.1342499591410160064697265625" lon="-5.70920870639383792877197265625">
        <ele>78.8000030517578125</ele>
        <time>2019-11-05T11:02:46.000Z</time>
      </trkpt>
      <trkpt lat="36.1340588517487049102783203125" lon="-5.709160678088665008544921875">
        <ele>80.1999969482421875</ele>
        <time>2019-11-05T11:02:53.000Z</time>
      </trkpt>
      <trkpt lat="36.133867241442203521728515625" lon="-5.7091152481734752655029296875">
        <ele>82.59999847412109375</ele>
        <time>2019-11-05T11:03:00.000Z</time>
      </trkpt>
      <trkpt lat="36.13366951234638690948486328125" lon="-5.70907191373407840728759765625">
        <ele>84.8000030517578125</ele>
        <time>2019-11-05T11:03:07.000Z</time>
      </trkpt>
      <trkpt lat="36.133466251194477081298828125" lon="-5.70903637446463108062744140625">
        <ele>87</ele>
        <time>2019-11-05T11:03:14.000Z</time>
      </trkpt>
      <trkpt lat="36.13325871527194976806640625" lon="-5.708996392786502838134765625">
        <ele>88.59999847412109375</ele>
        <time>2019-11-05T11:03:21.000Z</time>
      </trkpt>
      <trkpt lat="36.1330528557300567626953125" lon="-5.70894735865294933319091796875">
        <ele>89</ele>
        <time>2019-11-05T11:03:28.000Z</time>
      </trkpt>
      <trkpt lat="36.13287155516445636749267578125" lon="-5.70891232229769229888916015625">
        <ele>89.1999969482421875</ele>
        <time>2019-11-05T11:03:34.000Z</time>
      </trkpt>
      <trkpt lat="36.13268815912306308746337890625" lon="-5.70888415910303592681884765625">
        <ele>89.1999969482421875</ele>
        <time>2019-11-05T11:03:40.000Z</time>
      </trkpt>
      <trkpt lat="36.1324840597808361053466796875" lon="-5.70885230787098407745361328125">
        <ele>89.40000152587890625</ele>
        <time>2019-11-05T11:03:46.000Z</time>
      </trkpt>
      <trkpt lat="36.13229580223560333251953125" lon="-5.70882196538150310516357421875">
        <ele>88.59999847412109375</ele>
        <time>2019-11-05T11:03:51.000Z</time>
      </trkpt>
      <trkpt lat="36.13209354691207408905029296875" lon="-5.70879598148167133331298828125">
        <ele>88</ele>
        <time>2019-11-05T11:03:56.000Z</time>
      </trkpt>
      <trkpt lat="36.1318698339164257049560546875" lon="-5.70878307335078716278076171875">
        <ele>87</ele>
        <time>2019-11-05T11:04:01.000Z</time>
      </trkpt>
      <trkpt lat="36.131653077900409698486328125" lon="-5.70877318270504474639892578125">
        <ele>85.59999847412109375</ele>
        <time>2019-11-05T11:04:05.000Z</time>
      </trkpt>
      <trkpt lat="36.131463982164859771728515625" lon="-5.70876874029636383056640625">
        <ele>84.59999847412109375</ele>
        <time>2019-11-05T11:04:08.000Z</time>
      </trkpt>
      <trkpt lat="36.131263487040996551513671875" lon="-5.7087739370763301849365234375">
        <ele>83.1999969482421875</ele>
        <time>2019-11-05T11:04:11.000Z</time>
      </trkpt>
      <trkpt lat="36.13106626085937023162841796875" lon="-5.7087846659123897552490234375">
        <ele>82.59999847412109375</ele>
        <time>2019-11-05T11:04:14.000Z</time>
      </trkpt>
      <trkpt lat="36.1308861337602138519287109375" lon="-5.70879547856748104095458984375">
        <ele>81.59999847412109375</ele>
        <time>2019-11-05T11:04:17.000Z</time>
      </trkpt>
      <trkpt lat="36.13077406771481037139892578125" lon="-5.708814673125743865966796875">
        <ele>80.59999847412109375</ele>
        <time>2019-11-05T11:04:19.000Z</time>
      </trkpt>
      <trkpt lat="36.1305825412273406982421875" lon="-5.70890058763325214385986328125">
        <ele>79.59999847412109375</ele>
        <time>2019-11-05T11:04:23.000Z</time>
      </trkpt>
      <trkpt lat="36.1304806172847747802734375" lon="-5.70898532867431640625">
        <ele>79.59999847412109375</ele>
        <time>2019-11-05T11:04:26.000Z</time>
      </trkpt>
      <trkpt lat="36.130444742739200592041015625" lon="-5.70901810191571712493896484375">
        <ele>79.59999847412109375</ele>
        <time>2019-11-05T11:04:28.000Z</time>
      </trkpt>
      <trkpt lat="36.1304402165114879608154296875" lon="-5.70901206694543361663818359375">
        <ele>79.59999847412109375</ele>
        <time>2019-11-05T11:04:32.000Z</time>
      </trkpt>
      <trkpt lat="36.13034851849079132080078125" lon="-5.70893093012273311614990234375">
        <ele>78.1999969482421875</ele>
        <time>2019-11-05T11:21:59.000Z</time>
      </trkpt>
      <trkpt lat="36.13016520626842975616455078125" lon="-5.7088362984359264373779296875">
        <ele>76.59999847412109375</ele>
        <time>2019-11-05T11:22:06.000Z</time>
      </trkpt>
      <trkpt lat="36.12994191236793994903564453125" lon="-5.70884677581489086151123046875">
        <ele>76</ele>
        <time>2019-11-05T11:22:11.000Z</time>
      </trkpt>
      <trkpt lat="36.1297242343425750732421875" lon="-5.70885884575545787811279296875">
        <ele>76</ele>
        <time>2019-11-05T11:22:15.000Z</time>
      </trkpt>
      <trkpt lat="36.12948576919734477996826171875" lon="-5.708871670067310333251953125">
        <ele>75.8000030517578125</ele>
        <time>2019-11-05T11:22:19.000Z</time>
      </trkpt>
      <trkpt lat="36.12929985858500003814697265625" lon="-5.7088795490562915802001953125">
        <ele>75.8000030517578125</ele>
        <time>2019-11-05T11:22:22.000Z</time>
      </trkpt>
      <trkpt lat="36.12910958938300609588623046875" lon="-5.70888432674109935760498046875">
        <ele>75.8000030517578125</ele>
        <time>2019-11-05T11:22:25.000Z</time>
      </trkpt>
      <trkpt lat="36.1289249360561370849609375" lon="-5.7088902778923511505126953125">
        <ele>74.59999847412109375</ele>
        <time>2019-11-05T11:22:28.000Z</time>
      </trkpt>
      <trkpt lat="36.128740869462490081787109375" lon="-5.70889270864427089691162109375">
        <ele>73.59999847412109375</ele>
        <time>2019-11-05T11:22:31.000Z</time>
      </trkpt>
      <trkpt lat="36.1285559646785259246826171875" lon="-5.70888566784560680389404296875">
        <ele>73</ele>
        <time>2019-11-05T11:22:34.000Z</time>
      </trkpt>
      <trkpt lat="36.12836762331426143646240234375" lon="-5.7088632881641387939453125">
        <ele>72.1999969482421875</ele>
        <time>2019-11-05T11:22:37.000Z</time>
      </trkpt>
      <trkpt lat="36.1281760968267917633056640625" lon="-5.70883235894143581390380859375">
        <ele>71.59999847412109375</ele>
        <time>2019-11-05T11:22:40.000Z</time>
      </trkpt>
      <trkpt lat="36.1279789544641971588134765625" lon="-5.70878994651138782501220703125">
        <ele>71.40000152587890625</ele>
        <time>2019-11-05T11:22:43.000Z</time>
      </trkpt>
      <trkpt lat="36.12777887843549251556396484375" lon="-5.70873496122658252716064453125">
        <ele>72</ele>
        <time>2019-11-05T11:22:46.000Z</time>
      </trkpt>
      <trkpt lat="36.127569414675235748291015625" lon="-5.708675198256969451904296875">
        <ele>72.8000030517578125</ele>
        <time>2019-11-05T11:22:49.000Z</time>
      </trkpt>
      <trkpt lat="36.12734687514603137969970703125" lon="-5.708619542419910430908203125">
        <ele>73.40000152587890625</ele>
        <time>2019-11-05T11:22:52.000Z</time>
      </trkpt>
      <trkpt lat="36.12710497342050075531005859375" lon="-5.70858676917850971221923828125">
        <ele>73.40000152587890625</ele>
        <time>2019-11-05T11:22:55.000Z</time>
      </trkpt>
      <trkpt lat="36.12683658488094806671142578125" lon="-5.70858140476047992706298828125">
        <ele>73.40000152587890625</ele>
        <time>2019-11-05T11:22:58.000Z</time>
      </trkpt>
      <trkpt lat="36.1266512610018253326416015625" lon="-5.70858023129403591156005859375">
        <ele>72</ele>
        <time>2019-11-05T11:23:00.000Z</time>
      </trkpt>
      <trkpt lat="36.12646493129432201385498046875" lon="-5.7085861824452877044677734375">
        <ele>70.59999847412109375</ele>
        <time>2019-11-05T11:23:02.000Z</time>
      </trkpt>
      <trkpt lat="36.126272566616535186767578125" lon="-5.70859431289136409759521484375">
        <ele>68.59999847412109375</ele>
        <time>2019-11-05T11:23:04.000Z</time>
      </trkpt>
      <trkpt lat="36.126076094806194305419921875" lon="-5.708602108061313629150390625">
        <ele>67.1999969482421875</ele>
        <time>2019-11-05T11:23:06.000Z</time>
      </trkpt>
      <trkpt lat="36.1258801259100437164306640625" lon="-5.70861493237316608428955078125">
        <ele>66</ele>
        <time>2019-11-05T11:23:08.000Z</time>
      </trkpt>
      <trkpt lat="36.12567887641489505767822265625" lon="-5.708628594875335693359375">
        <ele>64.8000030517578125</ele>
        <time>2019-11-05T11:23:10.000Z</time>
      </trkpt>
      <trkpt lat="36.1254791356623172760009765625" lon="-5.70863521657884120941162109375">
        <ele>64</ele>
        <time>2019-11-05T11:23:12.000Z</time>
      </trkpt>
      <trkpt lat="36.1252793110907077789306640625" lon="-5.7086461968719959259033203125">
        <ele>63.200000762939453125</ele>
        <time>2019-11-05T11:23:14.000Z</time>
      </trkpt>
      <trkpt lat="36.12508468329906463623046875" lon="-5.70865600369870662689208984375">
        <ele>62.40000152587890625</ele>
        <time>2019-11-05T11:23:16.000Z</time>
      </trkpt>
      <trkpt lat="36.12489265389740467071533203125" lon="-5.708660446107387542724609375">
        <ele>61</ele>
        <time>2019-11-05T11:23:18.000Z</time>
      </trkpt>
      <trkpt lat="36.12471043132245540618896484375" lon="-5.7086569257080554962158203125">
        <ele>60.40000152587890625</ele>
        <time>2019-11-05T11:23:20.000Z</time>
      </trkpt>
      <trkpt lat="36.1244612373411655426025390625" lon="-5.7086445204913616180419921875">
        <ele>60</ele>
        <time>2019-11-05T11:23:23.000Z</time>
      </trkpt>
      <trkpt lat="36.1242258735001087188720703125" lon="-5.7086237333714962005615234375">
        <ele>60.59999847412109375</ele>
        <time>2019-11-05T11:23:26.000Z</time>
      </trkpt>
      <trkpt lat="36.12400517798960208892822265625" lon="-5.7085948996245861053466796875">
        <ele>62.200000762939453125</ele>
        <time>2019-11-05T11:23:29.000Z</time>
      </trkpt>
      <trkpt lat="36.123802922666072845458984375" lon="-5.708549804985523223876953125">
        <ele>63</ele>
        <time>2019-11-05T11:23:32.000Z</time>
      </trkpt>
      <trkpt lat="36.12361508421599864959716796875" lon="-5.708492137491703033447265625">
        <ele>64.59999847412109375</ele>
        <time>2019-11-05T11:23:35.000Z</time>
      </trkpt>
      <trkpt lat="36.12343470565974712371826171875" lon="-5.70842667482793331146240234375">
        <ele>66</ele>
        <time>2019-11-05T11:23:38.000Z</time>
      </trkpt>
      <trkpt lat="36.1232589371502399444580078125" lon="-5.7083548419177532196044921875">
        <ele>66.40000152587890625</ele>
        <time>2019-11-05T11:23:41.000Z</time>
      </trkpt>
      <trkpt lat="36.12308585084974765777587890625" lon="-5.7082733698189258575439453125">
        <ele>65.1999969482421875</ele>
        <time>2019-11-05T11:23:44.000Z</time>
      </trkpt>
      <trkpt lat="36.122913099825382232666015625" lon="-5.70818058215081691741943359375">
        <ele>64.59999847412109375</ele>
        <time>2019-11-05T11:23:47.000Z</time>
      </trkpt>
      <trkpt lat="36.12273666076362133026123046875" lon="-5.708079077303409576416015625">
        <ele>63.799999237060546875</ele>
        <time>2019-11-05T11:23:50.000Z</time>
      </trkpt>
      <trkpt lat="36.12255561165511608123779296875" lon="-5.7079727947711944580078125">
        <ele>63</ele>
        <time>2019-11-05T11:23:53.000Z</time>
      </trkpt>
      <trkpt lat="36.122368611395359039306640625" lon="-5.7078494131565093994140625">
        <ele>62.200000762939453125</ele>
        <time>2019-11-05T11:23:56.000Z</time>
      </trkpt>
      <trkpt lat="36.122169457376003265380859375" lon="-5.707723014056682586669921875">
        <ele>62</ele>
        <time>2019-11-05T11:23:59.000Z</time>
      </trkpt>
      <trkpt lat="36.12196451984345912933349609375" lon="-5.707587562501430511474609375">
        <ele>60.799999237060546875</ele>
        <time>2019-11-05T11:24:02.000Z</time>
      </trkpt>
      <trkpt lat="36.1217431537806987762451171875" lon="-5.707451440393924713134765625">
        <ele>60.200000762939453125</ele>
        <time>2019-11-05T11:24:05.000Z</time>
      </trkpt>
      <trkpt lat="36.1215051077306270599365234375" lon="-5.70731875486671924591064453125">
        <ele>59.40000152587890625</ele>
        <time>2019-11-05T11:24:08.000Z</time>
      </trkpt>
      <trkpt lat="36.12125205807387828826904296875" lon="-5.70720040239393711090087890625">
        <ele>58.40000152587890625</ele>
        <time>2019-11-05T11:24:11.000Z</time>
      </trkpt>
      <trkpt lat="36.12107075750827789306640625" lon="-5.70713368244469165802001953125">
        <ele>57.200000762939453125</ele>
        <time>2019-11-05T11:24:13.000Z</time>
      </trkpt>
      <trkpt lat="36.12088434398174285888671875" lon="-5.70707282982766628265380859375">
        <ele>56.40000152587890625</ele>
        <time>2019-11-05T11:24:15.000Z</time>
      </trkpt>
      <trkpt lat="36.12069122493267059326171875" lon="-5.7070211134850978851318359375">
        <ele>55.200000762939453125</ele>
        <time>2019-11-05T11:24:17.000Z</time>
      </trkpt>
      <trkpt lat="36.12049500457942485809326171875" lon="-5.70698012597858905792236328125">
        <ele>54.799999237060546875</ele>
        <time>2019-11-05T11:24:19.000Z</time>
      </trkpt>
      <trkpt lat="36.1203011311590671539306640625" lon="-5.70694877766072750091552734375">
        <ele>54</ele>
        <time>2019-11-05T11:24:21.000Z</time>
      </trkpt>
      <trkpt lat="36.120104826986789703369140625" lon="-5.70692832581698894500732421875">
        <ele>53</ele>
        <time>2019-11-05T11:24:23.000Z</time>
      </trkpt>
      <trkpt lat="36.11991162411868572235107421875" lon="-5.7069218717515468597412109375">
        <ele>51.59999847412109375</ele>
        <time>2019-11-05T11:24:25.000Z</time>
      </trkpt>
      <trkpt lat="36.1197217740118503570556640625" lon="-5.70692606270313262939453125">
        <ele>50.799999237060546875</ele>
        <time>2019-11-05T11:24:27.000Z</time>
      </trkpt>
      <trkpt lat="36.11953477375209331512451171875" lon="-5.70693385787308216094970703125">
        <ele>50.799999237060546875</ele>
        <time>2019-11-05T11:24:29.000Z</time>
      </trkpt>
      <trkpt lat="36.11934936605393886566162109375" lon="-5.70694760419428348541259765625">
        <ele>50.799999237060546875</ele>
        <time>2019-11-05T11:24:31.000Z</time>
      </trkpt>
      <trkpt lat="36.11916881985962390899658203125" lon="-5.706976354122161865234375">
        <ele>51</ele>
        <time>2019-11-05T11:24:33.000Z</time>
      </trkpt>
      <trkpt lat="36.118989698588848114013671875" lon="-5.7070140726864337921142578125">
        <ele>50.799999237060546875</ele>
        <time>2019-11-05T11:24:35.000Z</time>
      </trkpt>
      <trkpt lat="36.11880990676581859588623046875" lon="-5.70706059224903583526611328125">
        <ele>50.59999847412109375</ele>
        <time>2019-11-05T11:24:37.000Z</time>
      </trkpt>
      <trkpt lat="36.11863053403794765472412109375" lon="-5.7071126438677310943603515625">
        <ele>50</ele>
        <time>2019-11-05T11:24:39.000Z</time>
      </trkpt>
      <trkpt lat="36.1184534244239330291748046875" lon="-5.70717358030378818511962890625">
        <ele>49.59999847412109375</ele>
        <time>2019-11-05T11:24:41.000Z</time>
      </trkpt>
      <trkpt lat="36.11827597953379154205322265625" lon="-5.70724667049944400787353515625">
        <ele>49.799999237060546875</ele>
        <time>2019-11-05T11:24:43.000Z</time>
      </trkpt>
      <trkpt lat="36.11809342168271541595458984375" lon="-5.707337446510791778564453125">
        <ele>49.200000762939453125</ele>
        <time>2019-11-05T11:24:45.000Z</time>
      </trkpt>
      <trkpt lat="36.1179136298596858978271484375" lon="-5.7074351795017719268798828125">
        <ele>48.40000152587890625</ele>
        <time>2019-11-05T11:24:47.000Z</time>
      </trkpt>
      <trkpt lat="36.11773601733148097991943359375" lon="-5.70753970183432102203369140625">
        <ele>47.40000152587890625</ele>
        <time>2019-11-05T11:24:49.000Z</time>
      </trkpt>
      <trkpt lat="36.11755329184234142303466796875" lon="-5.70764799602329730987548828125">
        <ele>46</ele>
        <time>2019-11-05T11:24:51.000Z</time>
      </trkpt>
      <trkpt lat="36.11736721359193325042724609375" lon="-5.70775176398456096649169921875">
        <ele>44.59999847412109375</ele>
        <time>2019-11-05T11:24:53.000Z</time>
      </trkpt>
      <trkpt lat="36.1171793751418590545654296875" lon="-5.7078586332499980926513671875">
        <ele>43.59999847412109375</ele>
        <time>2019-11-05T11:24:55.000Z</time>
      </trkpt>
      <trkpt lat="36.1169943027198314666748046875" lon="-5.70797002874314785003662109375">
        <ele>43</ele>
        <time>2019-11-05T11:24:57.000Z</time>
      </trkpt>
      <trkpt lat="36.1168135888874530792236328125" lon="-5.70807849057018756866455078125">
        <ele>42.59999847412109375</ele>
        <time>2019-11-05T11:24:59.000Z</time>
      </trkpt>
      <trkpt lat="36.116636060178279876708984375" lon="-5.70818376727402210235595703125">
        <ele>42.59999847412109375</ele>
        <time>2019-11-05T11:25:01.000Z</time>
      </trkpt>
      <trkpt lat="36.116459034383296966552734375" lon="-5.7082861103117465972900390625">
        <ele>41.799999237060546875</ele>
        <time>2019-11-05T11:25:03.000Z</time>
      </trkpt>
      <trkpt lat="36.11628477461636066436767578125" lon="-5.708388201892375946044921875">
        <ele>41</ele>
        <time>2019-11-05T11:25:05.000Z</time>
      </trkpt>
      <trkpt lat="36.11611193977296352386474609375" lon="-5.7084916345775127410888671875">
        <ele>39.59999847412109375</ele>
        <time>2019-11-05T11:25:07.000Z</time>
      </trkpt>
      <trkpt lat="36.11594212241470813751220703125" lon="-5.7085895352065563201904296875">
        <ele>38.40000152587890625</ele>
        <time>2019-11-05T11:25:09.000Z</time>
      </trkpt>
      <trkpt lat="36.11577381379902362823486328125" lon="-5.708689950406551361083984375">
        <ele>38.200000762939453125</ele>
        <time>2019-11-05T11:25:11.000Z</time>
      </trkpt>
      <trkpt lat="36.11560651101171970367431640625" lon="-5.70879128761589527130126953125">
        <ele>38</ele>
        <time>2019-11-05T11:25:13.000Z</time>
      </trkpt>
      <trkpt lat="36.11536645330488681793212890625" lon="-5.7089338637888431549072265625">
        <ele>38</ele>
        <time>2019-11-05T11:25:16.000Z</time>
      </trkpt>
      <trkpt lat="36.1151355318725109100341796875" lon="-5.709074847400188446044921875">
        <ele>38.40000152587890625</ele>
        <time>2019-11-05T11:25:19.000Z</time>
      </trkpt>
      <trkpt lat="36.1149176023900508880615234375" lon="-5.70920451544225215911865234375">
        <ele>38</ele>
        <time>2019-11-05T11:25:22.000Z</time>
      </trkpt>
      <trkpt lat="36.1147093959152698516845703125" lon="-5.7093284837901592254638671875">
        <ele>37.40000152587890625</ele>
        <time>2019-11-05T11:25:25.000Z</time>
      </trkpt>
      <trkpt lat="36.11450605094432830810546875" lon="-5.70943786762654781341552734375">
        <ele>37.200000762939453125</ele>
        <time>2019-11-05T11:25:28.000Z</time>
      </trkpt>
      <trkpt lat="36.11430086195468902587890625" lon="-5.70952369831502437591552734375">
        <ele>37</ele>
        <time>2019-11-05T11:25:31.000Z</time>
      </trkpt>
      <trkpt lat="36.114091984927654266357421875" lon="-5.709604583680629730224609375">
        <ele>37.40000152587890625</ele>
        <time>2019-11-05T11:25:34.000Z</time>
      </trkpt>
      <trkpt lat="36.1138792522251605987548828125" lon="-5.70966996252536773681640625">
        <ele>37</ele>
        <time>2019-11-05T11:25:37.000Z</time>
      </trkpt>
      <trkpt lat="36.11366174183785915374755859375" lon="-5.70972084067761898040771484375">
        <ele>36.200000762939453125</ele>
        <time>2019-11-05T11:25:40.000Z</time>
      </trkpt>
      <trkpt lat="36.11344465054571628570556640625" lon="-5.70976207964122295379638671875">
        <ele>35.59999847412109375</ele>
        <time>2019-11-05T11:25:43.000Z</time>
      </trkpt>
      <trkpt lat="36.11322537995874881744384765625" lon="-5.70979543961584568023681640625">
        <ele>35.200000762939453125</ele>
        <time>2019-11-05T11:25:46.000Z</time>
      </trkpt>
      <trkpt lat="36.1130035109817981719970703125" lon="-5.70981211960315704345703125">
        <ele>36</ele>
        <time>2019-11-05T11:25:49.000Z</time>
      </trkpt>
      <trkpt lat="36.11277996562421321868896484375" lon="-5.70981186814606189727783203125">
        <ele>36.200000762939453125</ele>
        <time>2019-11-05T11:25:52.000Z</time>
      </trkpt>
      <trkpt lat="36.112551726400852203369140625" lon="-5.709808766841888427734375">
        <ele>35.59999847412109375</ele>
        <time>2019-11-05T11:25:55.000Z</time>
      </trkpt>
      <trkpt lat="36.11231795512139797210693359375" lon="-5.70980164222419261932373046875">
        <ele>34.799999237060546875</ele>
        <time>2019-11-05T11:25:58.000Z</time>
      </trkpt>
      <trkpt lat="36.1120804958045482635498046875" lon="-5.7097854651510715484619140625">
        <ele>34</ele>
        <time>2019-11-05T11:26:01.000Z</time>
      </trkpt>
      <trkpt lat="36.11184395849704742431640625" lon="-5.7097747363150119781494140625">
        <ele>33</ele>
        <time>2019-11-05T11:26:04.000Z</time>
      </trkpt>
      <trkpt lat="36.11160649918019771575927734375" lon="-5.7097576372325420379638671875">
        <ele>32.799999237060546875</ele>
        <time>2019-11-05T11:26:07.000Z</time>
      </trkpt>
      <trkpt lat="36.11136862076818943023681640625" lon="-5.70974732749164104461669921875">
        <ele>34.200000762939453125</ele>
        <time>2019-11-05T11:26:10.000Z</time>
      </trkpt>
      <trkpt lat="36.111140884459018707275390625" lon="-5.7097376883029937744140625">
        <ele>34.59999847412109375</ele>
        <time>2019-11-05T11:26:13.000Z</time>
      </trkpt>
      <trkpt lat="36.1109227873384952545166015625" lon="-5.7097288034856319427490234375">
        <ele>34.40000152587890625</ele>
        <time>2019-11-05T11:26:16.000Z</time>
      </trkpt>
      <trkpt lat="36.11070259474217891693115234375" lon="-5.7097224332392215728759765625">
        <ele>33.200000762939453125</ele>
        <time>2019-11-05T11:26:19.000Z</time>
      </trkpt>
      <trkpt lat="36.110479049384593963623046875" lon="-5.70971564389765262603759765625">
        <ele>30.799999237060546875</ele>
        <time>2019-11-05T11:26:22.000Z</time>
      </trkpt>
      <trkpt lat="36.1102619580924510955810546875" lon="-5.70971078239381313323974609375">
        <ele>27.799999237060546875</ele>
        <time>2019-11-05T11:26:25.000Z</time>
      </trkpt>
      <trkpt lat="36.11005014739930629730224609375" lon="-5.7097073458135128021240234375">
        <ele>26.3999996185302734375</ele>
        <time>2019-11-05T11:26:28.000Z</time>
      </trkpt>
      <trkpt lat="36.10984294675290584564208984375" lon="-5.7097013108432292938232421875">
        <ele>25.6000003814697265625</ele>
        <time>2019-11-05T11:26:31.000Z</time>
      </trkpt>
      <trkpt lat="36.10963876359164714813232421875" lon="-5.70968932472169399261474609375">
        <ele>24.799999237060546875</ele>
        <time>2019-11-05T11:26:34.000Z</time>
      </trkpt>
      <trkpt lat="36.1094360053539276123046875" lon="-5.7096733152866363525390625">
        <ele>24.6000003814697265625</ele>
        <time>2019-11-05T11:26:37.000Z</time>
      </trkpt>
      <trkpt lat="36.10923710279166698455810546875" lon="-5.7096553780138492584228515625">
        <ele>25.799999237060546875</ele>
        <time>2019-11-05T11:26:40.000Z</time>
      </trkpt>
      <trkpt lat="36.10903702676296234130859375" lon="-5.70961296558380126953125">
        <ele>26.3999996185302734375</ele>
        <time>2019-11-05T11:26:43.000Z</time>
      </trkpt>
      <trkpt lat="36.10883007757365703582763671875" lon="-5.7095490954816341400146484375">
        <ele>27.6000003814697265625</ele>
        <time>2019-11-05T11:26:46.000Z</time>
      </trkpt>
      <trkpt lat="36.10862405039370059967041015625" lon="-5.7094656117260456085205078125">
        <ele>28.200000762939453125</ele>
        <time>2019-11-05T11:26:49.000Z</time>
      </trkpt>
      <trkpt lat="36.10841919668018817901611328125" lon="-5.709367878735065460205078125">
        <ele>29.200000762939453125</ele>
        <time>2019-11-05T11:26:52.000Z</time>
      </trkpt>
      <trkpt lat="36.10821358859539031982421875" lon="-5.7092688046395778656005859375">
        <ele>30.200000762939453125</ele>
        <time>2019-11-05T11:26:55.000Z</time>
      </trkpt>
      <trkpt lat="36.10800848342478275299072265625" lon="-5.7091799564659595489501953125">
        <ele>30.6000003814697265625</ele>
        <time>2019-11-05T11:26:58.000Z</time>
      </trkpt>
      <trkpt lat="36.1078117601573467254638671875" lon="-5.7090874202549457550048828125">
        <ele>29.6000003814697265625</ele>
        <time>2019-11-05T11:27:01.000Z</time>
      </trkpt>
      <trkpt lat="36.10762375406920909881591796875" lon="-5.7089878432452678680419921875">
        <ele>28.6000003814697265625</ele>
        <time>2019-11-05T11:27:04.000Z</time>
      </trkpt>
      <trkpt lat="36.1074402742087841033935546875" lon="-5.70888650603592395782470703125">
        <ele>27.200000762939453125</ele>
        <time>2019-11-05T11:27:07.000Z</time>
      </trkpt>
      <trkpt lat="36.10725880600512027740478515625" lon="-5.70878684520721435546875">
        <ele>26.6000003814697265625</ele>
        <time>2019-11-05T11:27:10.000Z</time>
      </trkpt>
      <trkpt lat="36.1070768348872661590576171875" lon="-5.70867955684661865234375">
        <ele>26</ele>
        <time>2019-11-05T11:27:13.000Z</time>
      </trkpt>
      <trkpt lat="36.106891594827175140380859375" lon="-5.70857302285730838775634765625">
        <ele>26</ele>
        <time>2019-11-05T11:27:16.000Z</time>
      </trkpt>
      <trkpt lat="36.10670073889195919036865234375" lon="-5.708469338715076446533203125">
        <ele>26</ele>
        <time>2019-11-05T11:27:19.000Z</time>
      </trkpt>
      <trkpt lat="36.10651038587093353271484375" lon="-5.70836867205798625946044921875">
        <ele>25.799999237060546875</ele>
        <time>2019-11-05T11:27:22.000Z</time>
      </trkpt>
      <trkpt lat="36.106317937374114990234375" lon="-5.70826658047735691070556640625">
        <ele>25</ele>
        <time>2019-11-05T11:27:25.000Z</time>
      </trkpt>
      <trkpt lat="36.10613026656210422515869140625" lon="-5.7081677578389644622802734375">
        <ele>25.200000762939453125</ele>
        <time>2019-11-05T11:27:28.000Z</time>
      </trkpt>
      <trkpt lat="36.10594536177814006805419921875" lon="-5.7080711983144283294677734375">
        <ele>24.799999237060546875</ele>
        <time>2019-11-05T11:27:31.000Z</time>
      </trkpt>
      <trkpt lat="36.10575995407998561859130859375" lon="-5.70798218250274658203125">
        <ele>24.6000003814697265625</ele>
        <time>2019-11-05T11:27:34.000Z</time>
      </trkpt>
      <trkpt lat="36.10557739622890949249267578125" lon="-5.707886628806591033935546875">
        <ele>24.3999996185302734375</ele>
        <time>2019-11-05T11:27:37.000Z</time>
      </trkpt>
      <trkpt lat="36.1053992807865142822265625" lon="-5.7077949307858943939208984375">
        <ele>24.799999237060546875</ele>
        <time>2019-11-05T11:27:40.000Z</time>
      </trkpt>
      <trkpt lat="36.10521965660154819488525390625" lon="-5.70770080201327800750732421875">
        <ele>25.200000762939453125</ele>
        <time>2019-11-05T11:27:43.000Z</time>
      </trkpt>
      <trkpt lat="36.10503776930272579193115234375" lon="-5.70761078037321567535400390625">
        <ele>25</ele>
        <time>2019-11-05T11:27:46.000Z</time>
      </trkpt>
      <trkpt lat="36.10485839657485485076904296875" lon="-5.70752142928540706634521484375">
        <ele>24.799999237060546875</ele>
        <time>2019-11-05T11:27:49.000Z</time>
      </trkpt>
      <trkpt lat="36.10468648374080657958984375" lon="-5.707428641617298126220703125">
        <ele>23.799999237060546875</ele>
        <time>2019-11-05T11:27:52.000Z</time>
      </trkpt>
      <trkpt lat="36.10451457090675830841064453125" lon="-5.70733987726271152496337890625">
        <ele>23</ele>
        <time>2019-11-05T11:27:55.000Z</time>
      </trkpt>
      <trkpt lat="36.104342155158519744873046875" lon="-5.70724792778491973876953125">
        <ele>23</ele>
        <time>2019-11-05T11:27:58.000Z</time>
      </trkpt>
      <trkpt lat="36.1041693203151226043701171875" lon="-5.707161426544189453125">
        <ele>22.6000003814697265625</ele>
        <time>2019-11-05T11:28:01.000Z</time>
      </trkpt>
      <trkpt lat="36.10399908386170864105224609375" lon="-5.70707433857023715972900390625">
        <ele>23.200000762939453125</ele>
        <time>2019-11-05T11:28:04.000Z</time>
      </trkpt>
      <trkpt lat="36.10382876358926296234130859375" lon="-5.70699018426239490509033203125">
        <ele>23</ele>
        <time>2019-11-05T11:28:07.000Z</time>
      </trkpt>
      <trkpt lat="36.1036607064306735992431640625" lon="-5.70690502412617206573486328125">
        <ele>23</ele>
        <time>2019-11-05T11:28:10.000Z</time>
      </trkpt>
      <trkpt lat="36.1034897156059741973876953125" lon="-5.706818439066410064697265625">
        <ele>23.3999996185302734375</ele>
        <time>2019-11-05T11:28:13.000Z</time>
      </trkpt>
      <trkpt lat="36.103314869105815887451171875" lon="-5.70672816596925258636474609375">
        <ele>23.6000003814697265625</ele>
        <time>2019-11-05T11:28:16.000Z</time>
      </trkpt>
      <trkpt lat="36.10314027406275272369384765625" lon="-5.706641413271427154541015625">
        <ele>23.799999237060546875</ele>
        <time>2019-11-05T11:28:19.000Z</time>
      </trkpt>
      <trkpt lat="36.10296794213354587554931640625" lon="-5.70655197836458683013916015625">
        <ele>24</ele>
        <time>2019-11-05T11:28:22.000Z</time>
      </trkpt>
      <trkpt lat="36.1028023995459079742431640625" lon="-5.706459693610668182373046875">
        <ele>24.6000003814697265625</ele>
        <time>2019-11-05T11:28:25.000Z</time>
      </trkpt>
      <trkpt lat="36.10259125940501689910888671875" lon="-5.70632281713187694549560546875">
        <ele>25.6000003814697265625</ele>
        <time>2019-11-05T11:28:29.000Z</time>
      </trkpt>
      <trkpt lat="36.1024399660527706146240234375" lon="-5.7062016986310482025146484375">
        <ele>26.6000003814697265625</ele>
        <time>2019-11-05T11:28:32.000Z</time>
      </trkpt>
      <trkpt lat="36.10229923389852046966552734375" lon="-5.70606146939098834991455078125">
        <ele>26.6000003814697265625</ele>
        <time>2019-11-05T11:28:35.000Z</time>
      </trkpt>
      <trkpt lat="36.10216545872390270233154296875" lon="-5.70590707473456859588623046875">
        <ele>26.799999237060546875</ele>
        <time>2019-11-05T11:28:38.000Z</time>
      </trkpt>
      <trkpt lat="36.102042496204376220703125" lon="-5.70573373697698116302490234375">
        <ele>26.6000003814697265625</ele>
        <time>2019-11-05T11:28:41.000Z</time>
      </trkpt>
      <trkpt lat="36.10192405991256237030029296875" lon="-5.705553106963634490966796875">
        <ele>26.3999996185302734375</ele>
        <time>2019-11-05T11:28:44.000Z</time>
      </trkpt>
      <trkpt lat="36.10180671326816082000732421875" lon="-5.70536761544644832611083984375">
        <ele>26.200000762939453125</ele>
        <time>2019-11-05T11:28:47.000Z</time>
      </trkpt>
      <trkpt lat="36.10168383456766605377197265625" lon="-5.7051734067499637603759765625">
        <ele>24.799999237060546875</ele>
        <time>2019-11-05T11:28:50.000Z</time>
      </trkpt>
      <trkpt lat="36.10155525617301464080810546875" lon="-5.7049702294170856475830078125">
        <ele>23.3999996185302734375</ele>
        <time>2019-11-05T11:28:53.000Z</time>
      </trkpt>
      <trkpt lat="36.10142651014029979705810546875" lon="-5.70476613007485866546630859375">
        <ele>22.799999237060546875</ele>
        <time>2019-11-05T11:28:56.000Z</time>
      </trkpt>
      <trkpt lat="36.10129876993596553802490234375" lon="-5.7045595161616802215576171875">
        <ele>22.3999996185302734375</ele>
        <time>2019-11-05T11:28:59.000Z</time>
      </trkpt>
      <trkpt lat="36.10116918571293354034423828125" lon="-5.7043526507914066314697265625">
        <ele>21.799999237060546875</ele>
        <time>2019-11-05T11:29:02.000Z</time>
      </trkpt>
      <trkpt lat="36.10104127787053585052490234375" lon="-5.7041427679359912872314453125">
        <ele>21.200000762939453125</ele>
        <time>2019-11-05T11:29:05.000Z</time>
      </trkpt>
      <trkpt lat="36.10091068781912326812744140625" lon="-5.7039325498044490814208984375">
        <ele>20</ele>
        <time>2019-11-05T11:29:08.000Z</time>
      </trkpt>
      <trkpt lat="36.10077674500644207000732421875" lon="-5.7037186436355113983154296875">
        <ele>20</ele>
        <time>2019-11-05T11:29:11.000Z</time>
      </trkpt>
      <trkpt lat="36.10063768923282623291015625" lon="-5.7035047374665737152099609375">
        <ele>21.200000762939453125</ele>
        <time>2019-11-05T11:29:14.000Z</time>
      </trkpt>
      <trkpt lat="36.100495867431163787841796875" lon="-5.70329342968761920928955078125">
        <ele>21.200000762939453125</ele>
        <time>2019-11-05T11:29:17.000Z</time>
      </trkpt>
      <trkpt lat="36.1003299057483673095703125" lon="-5.7030906714498996734619140625">
        <ele>21.200000762939453125</ele>
        <time>2019-11-05T11:29:20.000Z</time>
      </trkpt>
      <trkpt lat="36.10015111975371837615966796875" lon="-5.70289914496243000030517578125">
        <ele>20.3999996185302734375</ele>
        <time>2019-11-05T11:29:23.000Z</time>
      </trkpt>
      <trkpt lat="36.09996621496975421905517578125" lon="-5.702722035348415374755859375">
        <ele>19.3999996185302734375</ele>
        <time>2019-11-05T11:29:26.000Z</time>
      </trkpt>
      <trkpt lat="36.09978047199547290802001953125" lon="-5.70255112834274768829345703125">
        <ele>19.3999996185302734375</ele>
        <time>2019-11-05T11:29:29.000Z</time>
      </trkpt>
      <trkpt lat="36.09960830770432949066162109375" lon="-5.702386088669300079345703125">
        <ele>19.3999996185302734375</ele>
        <time>2019-11-05T11:29:32.000Z</time>
      </trkpt>
      <trkpt lat="36.099442429840564727783203125" lon="-5.7022206299006938934326171875">
        <ele>19.6000003814697265625</ele>
        <time>2019-11-05T11:29:35.000Z</time>
      </trkpt>
      <trkpt lat="36.09928141348063945770263671875" lon="-5.7020590268075466156005859375">
        <ele>19.200000762939453125</ele>
        <time>2019-11-05T11:29:38.000Z</time>
      </trkpt>
      <trkpt lat="36.0991321317851543426513671875" lon="-5.70190371014177799224853515625">
        <ele>18.799999237060546875</ele>
        <time>2019-11-05T11:29:41.000Z</time>
      </trkpt>
      <trkpt lat="36.0989872924983501434326171875" lon="-5.70174545980989933013916015625">
        <ele>18.799999237060546875</ele>
        <time>2019-11-05T11:29:44.000Z</time>
      </trkpt>
      <trkpt lat="36.09884337522089481353759765625" lon="-5.7015792466700077056884765625">
        <ele>18.200000762939453125</ele>
        <time>2019-11-05T11:29:47.000Z</time>
      </trkpt>
      <trkpt lat="36.09870054759085178375244140625" lon="-5.70141521282494068145751953125">
        <ele>17.3999996185302734375</ele>
        <time>2019-11-05T11:29:50.000Z</time>
      </trkpt>
      <trkpt lat="36.098559983074665069580078125" lon="-5.70125143043696880340576171875">
        <ele>15.80000019073486328125</ele>
        <time>2019-11-05T11:29:53.000Z</time>
      </trkpt>
      <trkpt lat="36.098426878452301025390625" lon="-5.70108211599290370941162109375">
        <ele>15.3999996185302734375</ele>
        <time>2019-11-05T11:29:56.000Z</time>
      </trkpt>
      <trkpt lat="36.0982892476022243499755859375" lon="-5.70091565139591693878173828125">
        <ele>16</ele>
        <time>2019-11-05T11:29:59.000Z</time>
      </trkpt>
      <trkpt lat="36.0981487669050693511962890625" lon="-5.700749270617961883544921875">
        <ele>16.6000003814697265625</ele>
        <time>2019-11-05T11:30:02.000Z</time>
      </trkpt>
      <trkpt lat="36.09800920821726322174072265625" lon="-5.70058439858257770538330078125">
        <ele>17.200000762939453125</ele>
        <time>2019-11-05T11:30:05.000Z</time>
      </trkpt>
      <trkpt lat="36.09786721877753734588623046875" lon="-5.70041810162365436553955078125">
        <ele>18.3999996185302734375</ele>
        <time>2019-11-05T11:30:08.000Z</time>
      </trkpt>
      <trkpt lat="36.097725816071033477783203125" lon="-5.70025247521698474884033203125">
        <ele>18.799999237060546875</ele>
        <time>2019-11-05T11:30:11.000Z</time>
      </trkpt>
      <trkpt lat="36.097582988440990447998046875" lon="-5.7000876031816005706787109375">
        <ele>19.3999996185302734375</ele>
        <time>2019-11-05T11:30:14.000Z</time>
      </trkpt>
      <trkpt lat="36.09744091518223285675048828125" lon="-5.6999253295361995697021484375">
        <ele>19.6000003814697265625</ele>
        <time>2019-11-05T11:30:17.000Z</time>
      </trkpt>
      <trkpt lat="36.0972991771996021270751953125" lon="-5.69976188242435455322265625">
        <ele>19.3999996185302734375</ele>
        <time>2019-11-05T11:30:20.000Z</time>
      </trkpt>
      <trkpt lat="36.09714654274284839630126953125" lon="-5.69960229098796844482421875">
        <ele>18.200000762939453125</ele>
        <time>2019-11-05T11:30:23.000Z</time>
      </trkpt>
      <trkpt lat="36.0969779826700687408447265625" lon="-5.69945753552019596099853515625">
        <ele>18.200000762939453125</ele>
        <time>2019-11-05T11:30:26.000Z</time>
      </trkpt>
      <trkpt lat="36.096795760095119476318359375" lon="-5.6993387639522552490234375">
        <ele>18.799999237060546875</ele>
        <time>2019-11-05T11:30:29.000Z</time>
      </trkpt>
      <trkpt lat="36.096610017120838165283203125" lon="-5.69924463517963886260986328125">
        <ele>19</ele>
        <time>2019-11-05T11:30:32.000Z</time>
      </trkpt>
      <trkpt lat="36.0964224301278591156005859375" lon="-5.6991672702133655548095703125">
        <ele>19.200000762939453125</ele>
        <time>2019-11-05T11:30:35.000Z</time>
      </trkpt>
      <trkpt lat="36.09623392112553119659423828125" lon="-5.69909543730318546295166015625">
        <ele>19.200000762939453125</ele>
        <time>2019-11-05T11:30:38.000Z</time>
      </trkpt>
      <trkpt lat="36.096044741570949554443359375" lon="-5.69902385585010051727294921875">
        <ele>18.6000003814697265625</ele>
        <time>2019-11-05T11:30:41.000Z</time>
      </trkpt>
      <trkpt lat="36.09585271216928958892822265625" lon="-5.6989496760070323944091796875">
        <ele>19</ele>
        <time>2019-11-05T11:30:44.000Z</time>
      </trkpt>
      <trkpt lat="36.09565422870218753814697265625" lon="-5.69887675344944000244140625">
        <ele>19.3999996185302734375</ele>
        <time>2019-11-05T11:30:47.000Z</time>
      </trkpt>
      <trkpt lat="36.0954548232257366180419921875" lon="-5.6987969577312469482421875">
        <ele>19</ele>
        <time>2019-11-05T11:30:50.000Z</time>
      </trkpt>
      <trkpt lat="36.09526078216731548309326171875" lon="-5.6987206824123859405517578125">
        <ele>18</ele>
        <time>2019-11-05T11:30:53.000Z</time>
      </trkpt>
      <trkpt lat="36.0950712673366069793701171875" lon="-5.698644407093524932861328125">
        <ele>17.3999996185302734375</ele>
        <time>2019-11-05T11:30:56.000Z</time>
      </trkpt>
      <trkpt lat="36.09488963149487972259521484375" lon="-5.698558576405048370361328125">
        <ele>16.799999237060546875</ele>
        <time>2019-11-05T11:30:59.000Z</time>
      </trkpt>
      <trkpt lat="36.09472149051725864410400390625" lon="-5.6984517909586429595947265625">
        <ele>17.200000762939453125</ele>
        <time>2019-11-05T11:31:02.000Z</time>
      </trkpt>
      <trkpt lat="36.09455645084381103515625" lon="-5.6983250565826892852783203125">
        <ele>17</ele>
        <time>2019-11-05T11:31:05.000Z</time>
      </trkpt>
      <trkpt lat="36.09439350664615631103515625" lon="-5.69817443378269672393798828125">
        <ele>17</ele>
        <time>2019-11-05T11:31:08.000Z</time>
      </trkpt>
      <trkpt lat="36.09422410838305950164794921875" lon="-5.698016099631786346435546875">
        <ele>17.200000762939453125</ele>
        <time>2019-11-05T11:31:11.000Z</time>
      </trkpt>
      <trkpt lat="36.09405362047255039215087890625" lon="-5.6978528201580047607421875">
        <ele>16.799999237060546875</ele>
        <time>2019-11-05T11:31:14.000Z</time>
      </trkpt>
      <trkpt lat="36.09388531185686588287353515625" lon="-5.6976878643035888671875">
        <ele>17.200000762939453125</ele>
        <time>2019-11-05T11:31:17.000Z</time>
      </trkpt>
      <trkpt lat="36.09371935017406940460205078125" lon="-5.69752701558172702789306640625">
        <ele>17.200000762939453125</ele>
        <time>2019-11-05T11:31:20.000Z</time>
      </trkpt>
      <trkpt lat="36.093554981052875518798828125" lon="-5.69736675359308719635009765625">
        <ele>18</ele>
        <time>2019-11-05T11:31:23.000Z</time>
      </trkpt>
      <trkpt lat="36.09338642098009586334228515625" lon="-5.6972065754234790802001953125">
        <ele>17.6000003814697265625</ele>
        <time>2019-11-05T11:31:26.000Z</time>
      </trkpt>
      <trkpt lat="36.09321878291666507720947265625" lon="-5.69704639725387096405029296875">
        <ele>16.6000003814697265625</ele>
        <time>2019-11-05T11:31:29.000Z</time>
      </trkpt>
      <trkpt lat="36.093053407967090606689453125" lon="-5.69689451716840267181396484375">
        <ele>15.3999996185302734375</ele>
        <time>2019-11-05T11:31:32.000Z</time>
      </trkpt>
      <trkpt lat="36.09289675019681453704833984375" lon="-5.6967532820999622344970703125">
        <ele>16.3999996185302734375</ele>
        <time>2019-11-05T11:31:35.000Z</time>
      </trkpt>
      <trkpt lat="36.09274721704423427581787109375" lon="-5.6966248713433742523193359375">
        <ele>17.3999996185302734375</ele>
        <time>2019-11-05T11:31:38.000Z</time>
      </trkpt>
      <trkpt lat="36.09255527146160602569580078125" lon="-5.696486569941043853759765625">
        <ele>18.200000762939453125</ele>
        <time>2019-11-05T11:31:42.000Z</time>
      </trkpt>
      <trkpt lat="36.09237891621887683868408203125" lon="-5.6963734142482280731201171875">
        <ele>18.799999237060546875</ele>
        <time>2019-11-05T11:31:46.000Z</time>
      </trkpt>
      <trkpt lat="36.092209853231906890869140625" lon="-5.6962822191417217254638671875">
        <ele>19.200000762939453125</ele>
        <time>2019-11-05T11:31:50.000Z</time>
      </trkpt>
      <trkpt lat="36.0920088551938533782958984375" lon="-5.69618071429431438446044921875">
        <ele>19.799999237060546875</ele>
        <time>2019-11-05T11:31:55.000Z</time>
      </trkpt>
      <trkpt lat="36.09180810861289501190185546875" lon="-5.69608465768396854400634765625">
        <ele>21.799999237060546875</ele>
        <time>2019-11-05T11:32:00.000Z</time>
      </trkpt>
      <trkpt lat="36.091632507741451263427734375" lon="-5.6959994137287139892578125">
        <ele>23.200000762939453125</ele>
        <time>2019-11-05T11:32:04.000Z</time>
      </trkpt>
      <trkpt lat="36.09145204536616802215576171875" lon="-5.69591232575476169586181640625">
        <ele>23.6000003814697265625</ele>
        <time>2019-11-05T11:32:08.000Z</time>
      </trkpt>
      <trkpt lat="36.09127434901893138885498046875" lon="-5.6958289258182048797607421875">
        <ele>22.6000003814697265625</ele>
        <time>2019-11-05T11:32:12.000Z</time>
      </trkpt>
      <trkpt lat="36.09109899960458278656005859375" lon="-5.69574384950101375579833984375">
        <ele>22.200000762939453125</ele>
        <time>2019-11-05T11:32:16.000Z</time>
      </trkpt>
      <trkpt lat="36.09092247672379016876220703125" lon="-5.695648379623889923095703125">
        <ele>22</ele>
        <time>2019-11-05T11:32:20.000Z</time>
      </trkpt>
      <trkpt lat="36.09073757193982601165771484375" lon="-5.69553161971271038055419921875">
        <ele>21.3999996185302734375</ele>
        <time>2019-11-05T11:32:24.000Z</time>
      </trkpt>
      <trkpt lat="36.090538501739501953125" lon="-5.69538988173007965087890625">
        <ele>20.799999237060546875</ele>
        <time>2019-11-05T11:32:28.000Z</time>
      </trkpt>
      <trkpt lat="36.09037220478057861328125" lon="-5.69526054896414279937744140625">
        <ele>19.6000003814697265625</ele>
        <time>2019-11-05T11:32:31.000Z</time>
      </trkpt>
      <trkpt lat="36.090190820395946502685546875" lon="-5.6951033882796764373779296875">
        <ele>18</ele>
        <time>2019-11-05T11:32:34.000Z</time>
      </trkpt>
      <trkpt lat="36.09000264666974544525146484375" lon="-5.69491915404796600341796875">
        <ele>17.6000003814697265625</ele>
        <time>2019-11-05T11:32:37.000Z</time>
      </trkpt>
      <trkpt lat="36.089811958372592926025390625" lon="-5.694698207080364227294921875">
        <ele>16.3999996185302734375</ele>
        <time>2019-11-05T11:32:40.000Z</time>
      </trkpt>
      <trkpt lat="36.08969067223370075225830078125" lon="-5.6945310719311237335205078125">
        <ele>15.80000019073486328125</ele>
        <time>2019-11-05T11:32:42.000Z</time>
      </trkpt>
      <trkpt lat="36.089566536247730255126953125" lon="-5.69435798563063144683837890625">
        <ele>15</ele>
        <time>2019-11-05T11:32:44.000Z</time>
      </trkpt>
      <trkpt lat="36.0894466750323772430419921875" lon="-5.69418163038790225982666015625">
        <ele>14.19999980926513671875</ele>
        <time>2019-11-05T11:32:46.000Z</time>
      </trkpt>
      <trkpt lat="36.08933511190116405487060546875" lon="-5.69400309585034847259521484375">
        <ele>12.19999980926513671875</ele>
        <time>2019-11-05T11:32:48.000Z</time>
      </trkpt>
      <trkpt lat="36.08917484991252422332763671875" lon="-5.6937503814697265625">
        <ele>12.19999980926513671875</ele>
        <time>2019-11-05T11:32:51.000Z</time>
      </trkpt>
      <trkpt lat="36.08901676721870899200439453125" lon="-5.693519376218318939208984375">
        <ele>12.3999996185302734375</ele>
        <time>2019-11-05T11:32:54.000Z</time>
      </trkpt>
      <trkpt lat="36.08886337839066982269287109375" lon="-5.69330639205873012542724609375">
        <ele>12.3999996185302734375</ele>
        <time>2019-11-05T11:32:57.000Z</time>
      </trkpt>
      <trkpt lat="36.088705547153949737548828125" lon="-5.69311796687543392181396484375">
        <ele>12.6000003814697265625</ele>
        <time>2019-11-05T11:33:00.000Z</time>
      </trkpt>
      <trkpt lat="36.08854872174561023712158203125" lon="-5.69294814951717853546142578125">
        <ele>12.80000019073486328125</ele>
        <time>2019-11-05T11:33:03.000Z</time>
      </trkpt>
      <trkpt lat="36.08838745392858982086181640625" lon="-5.6928054057061672210693359375">
        <ele>12.80000019073486328125</ele>
        <time>2019-11-05T11:33:06.000Z</time>
      </trkpt>
      <trkpt lat="36.08822082169353961944580078125" lon="-5.69266953505575656890869140625">
        <ele>13.19999980926513671875</ele>
        <time>2019-11-05T11:33:09.000Z</time>
      </trkpt>
      <trkpt lat="36.088050417602062225341796875" lon="-5.692539028823375701904296875">
        <ele>12.80000019073486328125</ele>
        <time>2019-11-05T11:33:12.000Z</time>
      </trkpt>
      <trkpt lat="36.087872050702571868896484375" lon="-5.6924258731305599212646484375">
        <ele>12.6000003814697265625</ele>
        <time>2019-11-05T11:33:15.000Z</time>
      </trkpt>
      <trkpt lat="36.08768672682344913482666015625" lon="-5.69233023561537265777587890625">
        <ele>12.6000003814697265625</ele>
        <time>2019-11-05T11:33:18.000Z</time>
      </trkpt>
      <trkpt lat="36.087496541440486907958984375" lon="-5.6922443211078643798828125">
        <ele>12.6000003814697265625</ele>
        <time>2019-11-05T11:33:21.000Z</time>
      </trkpt>
      <trkpt lat="36.08730484731495380401611328125" lon="-5.69216720759868621826171875">
        <ele>13.19999980926513671875</ele>
        <time>2019-11-05T11:33:24.000Z</time>
      </trkpt>
      <trkpt lat="36.0871087945997714996337890625" lon="-5.69210761226713657379150390625">
        <ele>13.80000019073486328125</ele>
        <time>2019-11-05T11:33:27.000Z</time>
      </trkpt>
      <trkpt lat="36.0869134962558746337890625" lon="-5.69205916486680507659912109375">
        <ele>13.80000019073486328125</ele>
        <time>2019-11-05T11:33:30.000Z</time>
      </trkpt>
      <trkpt lat="36.086718030273914337158203125" lon="-5.6920242123305797576904296875">
        <ele>13</ele>
        <time>2019-11-05T11:33:33.000Z</time>
      </trkpt>
      <trkpt lat="36.0865230672061443328857421875" lon="-5.69200359284877777099609375">
        <ele>11.80000019073486328125</ele>
        <time>2019-11-05T11:33:36.000Z</time>
      </trkpt>
      <trkpt lat="36.08633212745189666748046875" lon="-5.691995210945606231689453125">
        <ele>10.3999996185302734375</ele>
        <time>2019-11-05T11:33:39.000Z</time>
      </trkpt>
      <trkpt lat="36.08614169061183929443359375" lon="-5.69199428893625736236572265625">
        <ele>10</ele>
        <time>2019-11-05T11:33:42.000Z</time>
      </trkpt>
      <trkpt lat="36.08595435507595539093017578125" lon="-5.69200401194393634796142578125">
        <ele>10</ele>
        <time>2019-11-05T11:33:45.000Z</time>
      </trkpt>
      <trkpt lat="36.085762493312358856201171875" lon="-5.69201725535094738006591796875">
        <ele>10</ele>
        <time>2019-11-05T11:33:48.000Z</time>
      </trkpt>
      <trkpt lat="36.085568703711032867431640625" lon="-5.692032091319561004638671875">
        <ele>9.80000019073486328125</ele>
        <time>2019-11-05T11:33:51.000Z</time>
      </trkpt>
      <trkpt lat="36.0853811167180538177490234375" lon="-5.6920416466891765594482421875">
        <ele>9.80000019073486328125</ele>
        <time>2019-11-05T11:33:54.000Z</time>
      </trkpt>
      <trkpt lat="36.0851460881531238555908203125" lon="-5.69205430336296558380126953125">
        <ele>9.80000019073486328125</ele>
        <time>2019-11-05T11:33:58.000Z</time>
      </trkpt>
      <trkpt lat="36.084928996860980987548828125" lon="-5.6920631043612957000732421875">
        <ele>10.6000003814697265625</ele>
        <time>2019-11-05T11:34:02.000Z</time>
      </trkpt>
      <trkpt lat="36.08472816646099090576171875" lon="-5.6920654512941837310791015625">
        <ele>11</ele>
        <time>2019-11-05T11:34:06.000Z</time>
      </trkpt>
      <trkpt lat="36.084533035755157470703125" lon="-5.69206654094159603118896484375">
        <ele>11.6000003814697265625</ele>
        <time>2019-11-05T11:34:10.000Z</time>
      </trkpt>
      <trkpt lat="36.08433329500257968902587890625" lon="-5.69205966778099536895751953125">
        <ele>11.6000003814697265625</ele>
        <time>2019-11-05T11:34:14.000Z</time>
      </trkpt>
      <trkpt lat="36.0841320455074310302734375" lon="-5.69204491563141345977783203125">
        <ele>11.19999980926513671875</ele>
        <time>2019-11-05T11:34:18.000Z</time>
      </trkpt>
      <trkpt lat="36.0839162953197956085205078125" lon="-5.69201834499835968017578125">
        <ele>11</ele>
        <time>2019-11-05T11:34:22.000Z</time>
      </trkpt>
      <trkpt lat="36.08368336223065853118896484375" lon="-5.6919873319566249847412109375">
        <ele>10.6000003814697265625</ele>
        <time>2019-11-05T11:34:26.000Z</time>
      </trkpt>
      <trkpt lat="36.08349694870412349700927734375" lon="-5.6919631920754909515380859375">
        <ele>10.19999980926513671875</ele>
        <time>2019-11-05T11:34:29.000Z</time>
      </trkpt>
      <trkpt lat="36.0833027400076389312744140625" lon="-5.6919387169182300567626953125">
        <ele>10.19999980926513671875</ele>
        <time>2019-11-05T11:34:32.000Z</time>
      </trkpt>
      <trkpt lat="36.08310534618794918060302734375" lon="-5.69190946407616138458251953125">
        <ele>10.80000019073486328125</ele>
        <time>2019-11-05T11:34:35.000Z</time>
      </trkpt>
      <trkpt lat="36.08290384523570537567138671875" lon="-5.691878534853458404541015625">
        <ele>12</ele>
        <time>2019-11-05T11:34:38.000Z</time>
      </trkpt>
      <trkpt lat="36.08270988799631595611572265625" lon="-5.69184056483209133148193359375">
        <ele>12.3999996185302734375</ele>
        <time>2019-11-05T11:34:41.000Z</time>
      </trkpt>
      <trkpt lat="36.08251207508146762847900390625" lon="-5.6918059475719928741455078125">
        <ele>12.3999996185302734375</ele>
        <time>2019-11-05T11:34:44.000Z</time>
      </trkpt>
      <trkpt lat="36.08231258578598499298095703125" lon="-5.69176915101706981658935546875">
        <ele>12</ele>
        <time>2019-11-05T11:34:47.000Z</time>
      </trkpt>
      <trkpt lat="36.08212667517364025115966796875" lon="-5.6917251460254192352294921875">
        <ele>12</ele>
        <time>2019-11-05T11:34:50.000Z</time>
      </trkpt>
      <trkpt lat="36.08194210566580295562744140625" lon="-5.69168030284345149993896484375">
        <ele>10.80000019073486328125</ele>
        <time>2019-11-05T11:34:53.000Z</time>
      </trkpt>
      <trkpt lat="36.08175921253859996795654296875" lon="-5.691626407206058502197265625">
        <ele>10.6000003814697265625</ele>
        <time>2019-11-05T11:34:56.000Z</time>
      </trkpt>
      <trkpt lat="36.081577241420745849609375" lon="-5.69156815297901630401611328125">
        <ele>10.6000003814697265625</ele>
        <time>2019-11-05T11:34:59.000Z</time>
      </trkpt>
      <trkpt lat="36.0813940130174160003662109375" lon="-5.69150528870522975921630859375">
        <ele>10.19999980926513671875</ele>
        <time>2019-11-05T11:35:02.000Z</time>
      </trkpt>
      <trkpt lat="36.08121036551892757415771484375" lon="-5.691444016993045806884765625">
        <ele>9.6000003814697265625</ele>
        <time>2019-11-05T11:35:05.000Z</time>
      </trkpt>
      <trkpt lat="36.0810221917927265167236328125" lon="-5.69137989543378353118896484375">
        <ele>8.19999980926513671875</ele>
        <time>2019-11-05T11:35:08.000Z</time>
      </trkpt>
      <trkpt lat="36.0808250494301319122314453125" lon="-5.6913110800087451934814453125">
        <ele>6.19999980926513671875</ele>
        <time>2019-11-05T11:35:11.000Z</time>
      </trkpt>
      <trkpt lat="36.08062061481177806854248046875" lon="-5.6912423484027385711669921875">
        <ele>5</ele>
        <time>2019-11-05T11:35:14.000Z</time>
      </trkpt>
      <trkpt lat="36.0804109834134578704833984375" lon="-5.69117210805416107177734375">
        <ele>3.7999999523162841796875</ele>
        <time>2019-11-05T11:35:17.000Z</time>
      </trkpt>
      <trkpt lat="36.08019632287323474884033203125" lon="-5.69109658710658550262451171875">
        <ele>3.400000095367431640625</ele>
        <time>2019-11-05T11:35:20.000Z</time>
      </trkpt>
      <trkpt lat="36.07997554354369640350341796875" lon="-5.6910267658531665802001953125">
        <ele>4.599999904632568359375</ele>
        <time>2019-11-05T11:35:23.000Z</time>
      </trkpt>
      <trkpt lat="36.0797575302422046661376953125" lon="-5.69095350801944732666015625">
        <ele>5.80000019073486328125</ele>
        <time>2019-11-05T11:35:26.000Z</time>
      </trkpt>
      <trkpt lat="36.0795382596552371978759765625" lon="-5.6908795796334743499755859375">
        <ele>6</ele>
        <time>2019-11-05T11:35:29.000Z</time>
      </trkpt>
      <trkpt lat="36.07931622304022312164306640625" lon="-5.690809674561023712158203125">
        <ele>6.19999980926513671875</ele>
        <time>2019-11-05T11:35:32.000Z</time>
      </trkpt>
      <trkpt lat="36.079089827835559844970703125" lon="-5.69073230959475040435791015625">
        <ele>5.19999980926513671875</ele>
        <time>2019-11-05T11:35:35.000Z</time>
      </trkpt>
      <trkpt lat="36.07886259444057941436767578125" lon="-5.690655447542667388916015625">
        <ele>4.400000095367431640625</ele>
        <time>2019-11-05T11:35:38.000Z</time>
      </trkpt>
      <trkpt lat="36.0786373727023601531982421875" lon="-5.69057741202414035797119140625">
        <ele>4.19999980926513671875</ele>
        <time>2019-11-05T11:35:41.000Z</time>
      </trkpt>
      <trkpt lat="36.07841600663959980010986328125" lon="-5.6904990412294864654541015625">
        <ele>4.400000095367431640625</ele>
        <time>2019-11-05T11:35:44.000Z</time>
      </trkpt>
      <trkpt lat="36.07819422148168087005615234375" lon="-5.69042377173900604248046875">
        <ele>4.80000019073486328125</ele>
        <time>2019-11-05T11:35:47.000Z</time>
      </trkpt>
      <trkpt lat="36.07797562144696712493896484375" lon="-5.69034598767757415771484375">
        <ele>5</ele>
        <time>2019-11-05T11:35:50.000Z</time>
      </trkpt>
      <trkpt lat="36.077763475477695465087890625" lon="-5.69027029909193515777587890625">
        <ele>4.400000095367431640625</ele>
        <time>2019-11-05T11:35:53.000Z</time>
      </trkpt>
      <trkpt lat="36.07756054960191249847412109375" lon="-5.69019637070596218109130859375">
        <ele>4.80000019073486328125</ele>
        <time>2019-11-05T11:35:56.000Z</time>
      </trkpt>
      <trkpt lat="36.07737245969474315643310546875" lon="-5.690120346844196319580078125">
        <ele>5.80000019073486328125</ele>
        <time>2019-11-05T11:35:59.000Z</time>
      </trkpt>
      <trkpt lat="36.077194847166538238525390625" lon="-5.6900400482118129730224609375">
        <ele>6.80000019073486328125</ele>
        <time>2019-11-05T11:36:02.000Z</time>
      </trkpt>
      <trkpt lat="36.07702243141829967498779296875" lon="-5.68996050395071506500244140625">
        <ele>8</ele>
        <time>2019-11-05T11:36:05.000Z</time>
      </trkpt>
      <trkpt lat="36.07681405730545520782470703125" lon="-5.689826644957065582275390625">
        <ele>8.80000019073486328125</ele>
        <time>2019-11-05T11:36:09.000Z</time>
      </trkpt>
      <trkpt lat="36.076616160571575164794921875" lon="-5.68967367522418498992919921875">
        <ele>8.80000019073486328125</ele>
        <time>2019-11-05T11:36:13.000Z</time>
      </trkpt>
      <trkpt lat="36.076434440910816192626953125" lon="-5.6895099766552448272705078125">
        <ele>7.599999904632568359375</ele>
        <time>2019-11-05T11:36:17.000Z</time>
      </trkpt>
      <trkpt lat="36.07626101933419704437255859375" lon="-5.68935491144657135009765625">
        <ele>7.400000095367431640625</ele>
        <time>2019-11-05T11:36:21.000Z</time>
      </trkpt>
      <trkpt lat="36.076085753738880157470703125" lon="-5.68919138051569461822509765625">
        <ele>8.19999980926513671875</ele>
        <time>2019-11-05T11:36:25.000Z</time>
      </trkpt>
      <trkpt lat="36.0759152658283710479736328125" lon="-5.68903706967830657958984375">
        <ele>8.6000003814697265625</ele>
        <time>2019-11-05T11:36:29.000Z</time>
      </trkpt>
      <trkpt lat="36.07575617730617523193359375" lon="-5.68889030255377292633056640625">
        <ele>9</ele>
        <time>2019-11-05T11:36:33.000Z</time>
      </trkpt>
      <trkpt lat="36.07560354284942150115966796875" lon="-5.688748061656951904296875">
        <ele>9.3999996185302734375</ele>
        <time>2019-11-05T11:36:37.000Z</time>
      </trkpt>
      <trkpt lat="36.075456105172634124755859375" lon="-5.68860615603625774383544921875">
        <ele>10</ele>
        <time>2019-11-05T11:36:41.000Z</time>
      </trkpt>
      <trkpt lat="36.07530062086880207061767578125" lon="-5.6884702853858470916748046875">
        <ele>9</ele>
        <time>2019-11-05T11:36:45.000Z</time>
      </trkpt>
      <trkpt lat="36.0751364193856716156005859375" lon="-5.68831765092909336090087890625">
        <ele>8.3999996185302734375</ele>
        <time>2019-11-05T11:36:49.000Z</time>
      </trkpt>
      <trkpt lat="36.074961908161640167236328125" lon="-5.6881651841104030609130859375">
        <ele>9.6000003814697265625</ele>
        <time>2019-11-05T11:36:53.000Z</time>
      </trkpt>
      <trkpt lat="36.07478831894695758819580078125" lon="-5.68800098262727260589599609375">
        <ele>10.3999996185302734375</ele>
        <time>2019-11-05T11:36:57.000Z</time>
      </trkpt>
      <trkpt lat="36.074608862400054931640625" lon="-5.68784809671342372894287109375">
        <ele>11</ele>
        <time>2019-11-05T11:37:01.000Z</time>
      </trkpt>
      <trkpt lat="36.0744346864521503448486328125" lon="-5.6876753456890583038330078125">
        <ele>11</ele>
        <time>2019-11-05T11:37:05.000Z</time>
      </trkpt>
      <trkpt lat="36.07426822185516357421875" lon="-5.68751516751945018768310546875">
        <ele>10.80000019073486328125</ele>
        <time>2019-11-05T11:37:09.000Z</time>
      </trkpt>
      <trkpt lat="36.0741000808775424957275390625" lon="-5.6873571686446666717529296875">
        <ele>10.19999980926513671875</ele>
        <time>2019-11-05T11:37:13.000Z</time>
      </trkpt>
      <trkpt lat="36.07392288744449615478515625" lon="-5.6871942244470119476318359375">
        <ele>10</ele>
        <time>2019-11-05T11:37:17.000Z</time>
      </trkpt>
      <trkpt lat="36.0737443529069423675537109375" lon="-5.6870289333164691925048828125">
        <ele>10.80000019073486328125</ele>
        <time>2019-11-05T11:37:21.000Z</time>
      </trkpt>
      <trkpt lat="36.073571182787418365478515625" lon="-5.68686858750879764556884765625">
        <ele>10.80000019073486328125</ele>
        <time>2019-11-05T11:37:25.000Z</time>
      </trkpt>
      <trkpt lat="36.07340111397206783294677734375" lon="-5.68670832552015781402587890625">
        <ele>10</ele>
        <time>2019-11-05T11:37:29.000Z</time>
      </trkpt>
      <trkpt lat="36.07323548756539821624755859375" lon="-5.68655627779662609100341796875">
        <ele>8.19999980926513671875</ele>
        <time>2019-11-05T11:37:33.000Z</time>
      </trkpt>
      <trkpt lat="36.07306399382650852203369140625" lon="-5.68640087731182575225830078125">
        <ele>8</ele>
        <time>2019-11-05T11:37:37.000Z</time>
      </trkpt>
      <trkpt lat="36.07289560139179229736328125" lon="-5.68624480627477169036865234375">
        <ele>8</ele>
        <time>2019-11-05T11:37:41.000Z</time>
      </trkpt>
      <trkpt lat="36.0727294720709323883056640625" lon="-5.6860908307135105133056640625">
        <ele>9</ele>
        <time>2019-11-05T11:37:45.000Z</time>
      </trkpt>
      <trkpt lat="36.07255839742720127105712890625" lon="-5.685942806303501129150390625">
        <ele>9</ele>
        <time>2019-11-05T11:37:49.000Z</time>
      </trkpt>
      <trkpt lat="36.07239277102053165435791015625" lon="-5.68578665144741535186767578125">
        <ele>8.6000003814697265625</ele>
        <time>2019-11-05T11:37:53.000Z</time>
      </trkpt>
      <trkpt lat="36.07222161255776882171630859375" lon="-5.68563200533390045166015625">
        <ele>7.599999904632568359375</ele>
        <time>2019-11-05T11:37:57.000Z</time>
      </trkpt>
      <trkpt lat="36.072051711380481719970703125" lon="-5.68547383882105350494384765625">
        <ele>6.80000019073486328125</ele>
        <time>2019-11-05T11:38:01.000Z</time>
      </trkpt>
      <trkpt lat="36.071881391108036041259765625" lon="-5.6853161752223968505859375">
        <ele>6.19999980926513671875</ele>
        <time>2019-11-05T11:38:05.000Z</time>
      </trkpt>
      <trkpt lat="36.0717093944549560546875" lon="-5.6851621158421039581298828125">
        <ele>7.19999980926513671875</ele>
        <time>2019-11-05T11:38:09.000Z</time>
      </trkpt>
      <trkpt lat="36.0715395770967006683349609375" lon="-5.68501249887049198150634765625">
        <ele>8.19999980926513671875</ele>
        <time>2019-11-05T11:38:13.000Z</time>
      </trkpt>
      <trkpt lat="36.07137344777584075927734375" lon="-5.6848580203950405120849609375">
        <ele>8.3999996185302734375</ele>
        <time>2019-11-05T11:38:17.000Z</time>
      </trkpt>
      <trkpt lat="36.07121008448302745819091796875" lon="-5.684704296290874481201171875">
        <ele>9.80000019073486328125</ele>
        <time>2019-11-05T11:38:21.000Z</time>
      </trkpt>
      <trkpt lat="36.07105283997952938079833984375" lon="-5.684549398720264434814453125">
        <ele>11.3999996185302734375</ele>
        <time>2019-11-05T11:38:25.000Z</time>
      </trkpt>
      <trkpt lat="36.070900373160839080810546875" lon="-5.68438720889389514923095703125">
        <ele>13.19999980926513671875</ele>
        <time>2019-11-05T11:38:29.000Z</time>
      </trkpt>
      <trkpt lat="36.07076114974915981292724609375" lon="-5.68420867435634136199951171875">
        <ele>14</ele>
        <time>2019-11-05T11:38:33.000Z</time>
      </trkpt>
      <trkpt lat="36.0706239379942417144775390625" lon="-5.6840158067643642425537109375">
        <ele>13.3999996185302734375</ele>
        <time>2019-11-05T11:38:37.000Z</time>
      </trkpt>
      <trkpt lat="36.07049527578055858612060546875" lon="-5.68380801938474178314208984375">
        <ele>12.19999980926513671875</ele>
        <time>2019-11-05T11:38:41.000Z</time>
      </trkpt>
      <trkpt lat="36.070365272462368011474609375" lon="-5.6835906766355037689208984375">
        <ele>10.80000019073486328125</ele>
        <time>2019-11-05T11:38:45.000Z</time>
      </trkpt>
      <trkpt lat="36.07024021446704864501953125" lon="-5.6833653710782527923583984375">
        <ele>10.19999980926513671875</ele>
        <time>2019-11-05T11:38:49.000Z</time>
      </trkpt>
      <trkpt lat="36.07011423446238040924072265625" lon="-5.683147273957729339599609375">
        <ele>10.3999996185302734375</ele>
        <time>2019-11-05T11:38:53.000Z</time>
      </trkpt>
      <trkpt lat="36.06999537907540798187255859375" lon="-5.68292289040982723236083984375">
        <ele>11.6000003814697265625</ele>
        <time>2019-11-05T11:38:57.000Z</time>
      </trkpt>
      <trkpt lat="36.0698600113391876220703125" lon="-5.6826901249587535858154296875">
        <ele>12</ele>
        <time>2019-11-05T11:39:01.000Z</time>
      </trkpt>
      <trkpt lat="36.069728247821331024169921875" lon="-5.68244495429098606109619140625">
        <ele>11.6000003814697265625</ele>
        <time>2019-11-05T11:39:05.000Z</time>
      </trkpt>
      <trkpt lat="36.06962255202233791351318359375" lon="-5.6822613067924976348876953125">
        <ele>12</ele>
        <time>2019-11-05T11:39:08.000Z</time>
      </trkpt>
      <trkpt lat="36.0695094801485538482666015625" lon="-5.6820748932659626007080078125">
        <ele>12</ele>
        <time>2019-11-05T11:39:11.000Z</time>
      </trkpt>
      <trkpt lat="36.0694018565118312835693359375" lon="-5.68188252858817577362060546875">
        <ele>12</ele>
        <time>2019-11-05T11:39:14.000Z</time>
      </trkpt>
      <trkpt lat="36.0692918859422206878662109375" lon="-5.6816883198916912078857421875">
        <ele>12</ele>
        <time>2019-11-05T11:39:17.000Z</time>
      </trkpt>
      <trkpt lat="36.0691812448203563690185546875" lon="-5.68150366656482219696044921875">
        <ele>12</ele>
        <time>2019-11-05T11:39:20.000Z</time>
      </trkpt>
      <trkpt lat="36.06907202862203121185302734375" lon="-5.681315325200557708740234375">
        <ele>12.3999996185302734375</ele>
        <time>2019-11-05T11:39:23.000Z</time>
      </trkpt>
      <trkpt lat="36.06897328980267047882080078125" lon="-5.6811292469501495361328125">
        <ele>13</ele>
        <time>2019-11-05T11:39:26.000Z</time>
      </trkpt>
      <trkpt lat="36.0688345693051815032958984375" lon="-5.68088893778622150421142578125">
        <ele>13</ele>
        <time>2019-11-05T11:39:30.000Z</time>
      </trkpt>
      <trkpt lat="36.0687308013439178466796875" lon="-5.680705122649669647216796875">
        <ele>13.6000003814697265625</ele>
        <time>2019-11-05T11:39:33.000Z</time>
      </trkpt>
      <trkpt lat="36.06861806474626064300537109375" lon="-5.6805284321308135986328125">
        <ele>14.19999980926513671875</ele>
        <time>2019-11-05T11:39:36.000Z</time>
      </trkpt>
      <trkpt lat="36.06846752576529979705810546875" lon="-5.68030857481062412261962890625">
        <ele>15</ele>
        <time>2019-11-05T11:39:40.000Z</time>
      </trkpt>
      <trkpt lat="36.068316064774990081787109375" lon="-5.68009232170879840850830078125">
        <ele>15.3999996185302734375</ele>
        <time>2019-11-05T11:39:44.000Z</time>
      </trkpt>
      <trkpt lat="36.06815974228084087371826171875" lon="-5.67988495342433452606201171875">
        <ele>14.80000019073486328125</ele>
        <time>2019-11-05T11:39:48.000Z</time>
      </trkpt>
      <trkpt lat="36.06800534762442111968994140625" lon="-5.67968144081532955169677734375">
        <ele>15</ele>
        <time>2019-11-05T11:39:52.000Z</time>
      </trkpt>
      <trkpt lat="36.067857407033443450927734375" lon="-5.67948144860565662384033203125">
        <ele>15.80000019073486328125</ele>
        <time>2019-11-05T11:39:56.000Z</time>
      </trkpt>
      <trkpt lat="36.06770477257668972015380859375" lon="-5.679285228252410888671875">
        <ele>16</ele>
        <time>2019-11-05T11:40:00.000Z</time>
      </trkpt>
      <trkpt lat="36.067554317414760589599609375" lon="-5.67908615805208683013916015625">
        <ele>16</ele>
        <time>2019-11-05T11:40:04.000Z</time>
      </trkpt>
      <trkpt lat="36.06740084476768970489501953125" lon="-5.67888499237596988677978515625">
        <ele>16.200000762939453125</ele>
        <time>2019-11-05T11:40:08.000Z</time>
      </trkpt>
      <trkpt lat="36.06724561192095279693603515625" lon="-5.67868047393858432769775390625">
        <ele>16</ele>
        <time>2019-11-05T11:40:12.000Z</time>
      </trkpt>
      <trkpt lat="36.06709741987287998199462890625" lon="-5.67847997881472110748291015625">
        <ele>16.200000762939453125</ele>
        <time>2019-11-05T11:40:16.000Z</time>
      </trkpt>
      <trkpt lat="36.06696465052664279937744140625" lon="-5.67830898799002170562744140625">
        <ele>16.200000762939453125</ele>
        <time>2019-11-05T11:40:20.000Z</time>
      </trkpt>
      <trkpt lat="36.06692676432430744171142578125" lon="-5.67826070822775363922119140625">
        <ele>16.200000762939453125</ele>
        <time>2019-11-05T11:40:23.000Z</time>
      </trkpt>
      <trkpt lat="36.0669312067329883575439453125" lon="-5.67826741375029087066650390625">
        <ele>16.200000762939453125</ele>
        <time>2019-11-05T11:40:27.000Z</time>
      </trkpt>
      <trkpt lat="36.0670163668692111968994140625" lon="-5.678379647433757781982421875">
        <ele>16.3999996185302734375</ele>
        <time>2019-11-05T11:40:38.000Z</time>
      </trkpt>
      <trkpt lat="36.06710848398506641387939453125" lon="-5.678566060960292816162109375">
        <ele>15.80000019073486328125</ele>
        <time>2019-11-05T11:40:54.000Z</time>
      </trkpt>
      <trkpt lat="36.067106723785400390625" lon="-5.67858777008950710296630859375">
        <ele>15.6000003814697265625</ele>
        <time>2019-11-05T11:40:56.000Z</time>
      </trkpt>
      <trkpt lat="36.0671109147369861602783203125" lon="-5.678613670170307159423828125">
        <ele>15.3999996185302734375</ele>
        <time>2019-11-05T11:40:59.000Z</time>
      </trkpt>
      <trkpt lat="36.06711166910827159881591796875" lon="-5.67861895076930522918701171875">
        <ele>15.3999996185302734375</ele>
        <time>2019-11-05T11:41:01.000Z</time>
      </trkpt>
      <trkpt lat="36.0670316219329833984375" lon="-5.6783653981983661651611328125">
        <ele>16.6000003814697265625</ele>
        <time>2019-11-05T11:45:32.000Z</time>
      </trkpt>
      <trkpt lat="36.06690480373799800872802734375" lon="-5.67819398827850818634033203125">
        <ele>16.6000003814697265625</ele>
        <time>2019-11-05T11:45:39.000Z</time>
      </trkpt>
      <trkpt lat="36.066786535084247589111328125" lon="-5.67802391946315765380859375">
        <ele>17</ele>
        <time>2019-11-05T11:45:44.000Z</time>
      </trkpt>
      <trkpt lat="36.06665007770061492919921875" lon="-5.67783926613628864288330078125">
        <ele>16.799999237060546875</ele>
        <time>2019-11-05T11:45:49.000Z</time>
      </trkpt>
      <trkpt lat="36.06651051901280879974365234375" lon="-5.6776557862758636474609375">
        <ele>17</ele>
        <time>2019-11-05T11:45:54.000Z</time>
      </trkpt>
      <trkpt lat="36.0663639195263385772705078125" lon="-5.6774517707526683807373046875">
        <ele>17.3999996185302734375</ele>
        <time>2019-11-05T11:45:59.000Z</time>
      </trkpt>
      <trkpt lat="36.06623567640781402587890625" lon="-5.6772841326892375946044921875">
        <ele>18.6000003814697265625</ele>
        <time>2019-11-05T11:46:03.000Z</time>
      </trkpt>
      <trkpt lat="36.06610852293670177459716796875" lon="-5.67711188457906246185302734375">
        <ele>18.200000762939453125</ele>
        <time>2019-11-05T11:46:07.000Z</time>
      </trkpt>
      <trkpt lat="36.0659827105700969696044921875" lon="-5.67693267948925495147705078125">
        <ele>19.200000762939453125</ele>
        <time>2019-11-05T11:46:11.000Z</time>
      </trkpt>
      <trkpt lat="36.06584516353905200958251953125" lon="-5.67675196565687656402587890625">
        <ele>18.799999237060546875</ele>
        <time>2019-11-05T11:46:15.000Z</time>
      </trkpt>
      <trkpt lat="36.0657064430415630340576171875" lon="-5.67656882107257843017578125">
        <ele>18.6000003814697265625</ele>
        <time>2019-11-05T11:46:19.000Z</time>
      </trkpt>
      <trkpt lat="36.06556956656277179718017578125" lon="-5.6763790547847747802734375">
        <ele>18</ele>
        <time>2019-11-05T11:46:23.000Z</time>
      </trkpt>
      <trkpt lat="36.06543361209332942962646484375" lon="-5.676194988191127777099609375">
        <ele>17</ele>
        <time>2019-11-05T11:46:27.000Z</time>
      </trkpt>
      <trkpt lat="36.06529883109033107757568359375" lon="-5.67601502873003482818603515625">
        <ele>17</ele>
        <time>2019-11-05T11:46:31.000Z</time>
      </trkpt>
      <trkpt lat="36.0651643015444278717041015625" lon="-5.67582978866994380950927734375">
        <ele>17.200000762939453125</ele>
        <time>2019-11-05T11:46:35.000Z</time>
      </trkpt>
      <trkpt lat="36.06502105481922626495361328125" lon="-5.675638429820537567138671875">
        <ele>17</ele>
        <time>2019-11-05T11:46:39.000Z</time>
      </trkpt>
      <trkpt lat="36.0648803226649761199951171875" lon="-5.67544229328632354736328125">
        <ele>16.6000003814697265625</ele>
        <time>2019-11-05T11:46:43.000Z</time>
      </trkpt>
      <trkpt lat="36.06473028659820556640625" lon="-5.675252191722393035888671875">
        <ele>17</ele>
        <time>2019-11-05T11:46:47.000Z</time>
      </trkpt>
      <trkpt lat="36.06457807123661041259765625" lon="-5.67505463026463985443115234375">
        <ele>17</ele>
        <time>2019-11-05T11:46:51.000Z</time>
      </trkpt>
      <trkpt lat="36.0644307173788547515869140625" lon="-5.67485463805496692657470703125">
        <ele>17</ele>
        <time>2019-11-05T11:46:55.000Z</time>
      </trkpt>
      <trkpt lat="36.0642801783978939056396484375" lon="-5.67465112544596195220947265625">
        <ele>16.6000003814697265625</ele>
        <time>2019-11-05T11:46:59.000Z</time>
      </trkpt>
      <trkpt lat="36.06413106434047222137451171875" lon="-5.6744450144469738006591796875">
        <ele>16.3999996185302734375</ele>
        <time>2019-11-05T11:47:03.000Z</time>
      </trkpt>
      <trkpt lat="36.0639804415404796600341796875" lon="-5.67423370666801929473876953125">
        <ele>16</ele>
        <time>2019-11-05T11:47:07.000Z</time>
      </trkpt>
      <trkpt lat="36.0638235323131084442138671875" lon="-5.6740222312510013580322265625">
        <ele>16</ele>
        <time>2019-11-05T11:47:11.000Z</time>
      </trkpt>
      <trkpt lat="36.0636652819812297821044921875" lon="-5.67380480468273162841796875">
        <ele>15.6000003814697265625</ele>
        <time>2019-11-05T11:47:15.000Z</time>
      </trkpt>
      <trkpt lat="36.063508205115795135498046875" lon="-5.67359198816120624542236328125">
        <ele>15.19999980926513671875</ele>
        <time>2019-11-05T11:47:19.000Z</time>
      </trkpt>
      <trkpt lat="36.0633494518697261810302734375" lon="-5.6733781658113002777099609375">
        <ele>15</ele>
        <time>2019-11-05T11:47:23.000Z</time>
      </trkpt>
      <trkpt lat="36.06319514103233814239501953125" lon="-5.67316786386072635650634765625">
        <ele>15.80000019073486328125</ele>
        <time>2019-11-05T11:47:27.000Z</time>
      </trkpt>
      <trkpt lat="36.06304242275655269622802734375" lon="-5.6729640997946262359619140625">
        <ele>16.200000762939453125</ele>
        <time>2019-11-05T11:47:31.000Z</time>
      </trkpt>
      <trkpt lat="36.0628928057849407196044921875" lon="-5.67276737652719020843505859375">
        <ele>17.200000762939453125</ele>
        <time>2019-11-05T11:47:35.000Z</time>
      </trkpt>
      <trkpt lat="36.06275006197392940521240234375" lon="-5.67257903516292572021484375">
        <ele>18.3999996185302734375</ele>
        <time>2019-11-05T11:47:39.000Z</time>
      </trkpt>
      <trkpt lat="36.06260706670582294464111328125" lon="-5.67238859832286834716796875">
        <ele>18.3999996185302734375</ele>
        <time>2019-11-05T11:47:43.000Z</time>
      </trkpt>
      <trkpt lat="36.06245954521000385284423828125" lon="-5.67218584008514881134033203125">
        <ele>16.799999237060546875</ele>
        <time>2019-11-05T11:47:47.000Z</time>
      </trkpt>
      <trkpt lat="36.06230892241001129150390625" lon="-5.67199205048382282257080078125">
        <ele>16.799999237060546875</ele>
        <time>2019-11-05T11:47:51.000Z</time>
      </trkpt>
      <trkpt lat="36.0621652565896511077880859375" lon="-5.6718006916344165802001953125">
        <ele>17.6000003814697265625</ele>
        <time>2019-11-05T11:47:55.000Z</time>
      </trkpt>
      <trkpt lat="36.0620225965976715087890625" lon="-5.67161084152758121490478515625">
        <ele>19.200000762939453125</ele>
        <time>2019-11-05T11:47:59.000Z</time>
      </trkpt>
      <trkpt lat="36.061881445348262786865234375" lon="-5.67142006941139698028564453125">
        <ele>20.6000003814697265625</ele>
        <time>2019-11-05T11:48:03.000Z</time>
      </trkpt>
      <trkpt lat="36.06173769570887088775634765625" lon="-5.6712327338755130767822265625">
        <ele>20.799999237060546875</ele>
        <time>2019-11-05T11:48:07.000Z</time>
      </trkpt>
      <trkpt lat="36.06159537099301815032958984375" lon="-5.67104388959705829620361328125">
        <ele>20.6000003814697265625</ele>
        <time>2019-11-05T11:48:11.000Z</time>
      </trkpt>
      <trkpt lat="36.0614568181335926055908203125" lon="-5.6708394549787044525146484375">
        <ele>20</ele>
        <time>2019-11-05T11:48:15.000Z</time>
      </trkpt>
      <trkpt lat="36.0613156668841838836669921875" lon="-5.670631416141986846923828125">
        <ele>20.200000762939453125</ele>
        <time>2019-11-05T11:48:19.000Z</time>
      </trkpt>
      <trkpt lat="36.06117971241474151611328125" lon="-5.67041507922112941741943359375">
        <ele>22.3999996185302734375</ele>
        <time>2019-11-05T11:48:23.000Z</time>
      </trkpt>
      <trkpt lat="36.061040572822093963623046875" lon="-5.67019052803516387939453125">
        <ele>22.799999237060546875</ele>
        <time>2019-11-05T11:48:27.000Z</time>
      </trkpt>
      <trkpt lat="36.0609026066958904266357421875" lon="-5.6699479557573795318603515625">
        <ele>22.3999996185302734375</ele>
        <time>2019-11-05T11:48:31.000Z</time>
      </trkpt>
      <trkpt lat="36.06079506687819957733154296875" lon="-5.66975592635571956634521484375">
        <ele>21.6000003814697265625</ele>
        <time>2019-11-05T11:48:34.000Z</time>
      </trkpt>
      <trkpt lat="36.06068090535700321197509765625" lon="-5.66955878399312496185302734375">
        <ele>20.6000003814697265625</ele>
        <time>2019-11-05T11:48:37.000Z</time>
      </trkpt>
      <trkpt lat="36.06056204997003078460693359375" lon="-5.669357366859912872314453125">
        <ele>19.799999237060546875</ele>
        <time>2019-11-05T11:48:40.000Z</time>
      </trkpt>
      <trkpt lat="36.06044453568756580352783203125" lon="-5.6691486574709415435791015625">
        <ele>19.3999996185302734375</ele>
        <time>2019-11-05T11:48:43.000Z</time>
      </trkpt>
      <trkpt lat="36.06032702140510082244873046875" lon="-5.66893500275909900665283203125">
        <ele>19.6000003814697265625</ele>
        <time>2019-11-05T11:48:46.000Z</time>
      </trkpt>
      <trkpt lat="36.060208417475223541259765625" lon="-5.6687255389988422393798828125">
        <ele>19.6000003814697265625</ele>
        <time>2019-11-05T11:48:49.000Z</time>
      </trkpt>
      <trkpt lat="36.06008277274668216705322265625" lon="-5.668514482676982879638671875">
        <ele>18.799999237060546875</ele>
        <time>2019-11-05T11:48:52.000Z</time>
      </trkpt>
      <trkpt lat="36.05996039696037769317626953125" lon="-5.668300576508045196533203125">
        <ele>18.6000003814697265625</ele>
        <time>2019-11-05T11:48:55.000Z</time>
      </trkpt>
      <trkpt lat="36.05983600951731204986572265625" lon="-5.66808071918785572052001953125">
        <ele>17.799999237060546875</ele>
        <time>2019-11-05T11:48:58.000Z</time>
      </trkpt>
      <trkpt lat="36.05970910750329494476318359375" lon="-5.66786513663828372955322265625">
        <ele>17.3999996185302734375</ele>
        <time>2019-11-05T11:49:01.000Z</time>
      </trkpt>
      <trkpt lat="36.0595839656889438629150390625" lon="-5.6676405854523181915283203125">
        <ele>17.6000003814697265625</ele>
        <time>2019-11-05T11:49:04.000Z</time>
      </trkpt>
      <trkpt lat="36.05945773422718048095703125" lon="-5.667422153055667877197265625">
        <ele>17.3999996185302734375</ele>
        <time>2019-11-05T11:49:07.000Z</time>
      </trkpt>
      <trkpt lat="36.0593378730118274688720703125" lon="-5.66720413975417613983154296875">
        <ele>18.200000762939453125</ele>
        <time>2019-11-05T11:49:10.000Z</time>
      </trkpt>
      <trkpt lat="36.059220023453235626220703125" lon="-5.6669886410236358642578125">
        <ele>18.200000762939453125</ele>
        <time>2019-11-05T11:49:13.000Z</time>
      </trkpt>
      <trkpt lat="36.0590984858572483062744140625" lon="-5.6667732261121273040771484375">
        <ele>18</ele>
        <time>2019-11-05T11:49:16.000Z</time>
      </trkpt>
      <trkpt lat="36.058975942432880401611328125" lon="-5.66655755974352359771728515625">
        <ele>17.799999237060546875</ele>
        <time>2019-11-05T11:49:19.000Z</time>
      </trkpt>
      <trkpt lat="36.0588577575981616973876953125" lon="-5.66633912734687328338623046875">
        <ele>18</ele>
        <time>2019-11-05T11:49:22.000Z</time>
      </trkpt>
      <trkpt lat="36.05873412452638149261474609375" lon="-5.6661268137395381927490234375">
        <ele>18.799999237060546875</ele>
        <time>2019-11-05T11:49:25.000Z</time>
      </trkpt>
      <trkpt lat="36.05861417949199676513671875" lon="-5.66591215319931507110595703125">
        <ele>18.799999237060546875</ele>
        <time>2019-11-05T11:49:28.000Z</time>
      </trkpt>
      <trkpt lat="36.05848719365894794464111328125" lon="-5.665697157382965087890625">
        <ele>19.6000003814697265625</ele>
        <time>2019-11-05T11:49:31.000Z</time>
      </trkpt>
      <trkpt lat="36.058361716568470001220703125" lon="-5.66548115573823451995849609375">
        <ele>19.6000003814697265625</ele>
        <time>2019-11-05T11:49:34.000Z</time>
      </trkpt>
      <trkpt lat="36.05823841877281665802001953125" lon="-5.66526154987514019012451171875">
        <ele>20.3999996185302734375</ele>
        <time>2019-11-05T11:49:37.000Z</time>
      </trkpt>
      <trkpt lat="36.05811201967298984527587890625" lon="-5.6650445424020290374755859375">
        <ele>20</ele>
        <time>2019-11-05T11:49:40.000Z</time>
      </trkpt>
      <trkpt lat="36.05798184871673583984375" lon="-5.664823092520236968994140625">
        <ele>18.3999996185302734375</ele>
        <time>2019-11-05T11:49:43.000Z</time>
      </trkpt>
      <trkpt lat="36.05785377323627471923828125" lon="-5.66460625268518924713134765625">
        <ele>16.6000003814697265625</ele>
        <time>2019-11-05T11:49:46.000Z</time>
      </trkpt>
      <trkpt lat="36.0577283799648284912109375" lon="-5.66438614390790462493896484375">
        <ele>15.6000003814697265625</ele>
        <time>2019-11-05T11:49:49.000Z</time>
      </trkpt>
      <trkpt lat="36.0576041601598262786865234375" lon="-5.66416687332093715667724609375">
        <ele>15</ele>
        <time>2019-11-05T11:49:52.000Z</time>
      </trkpt>
      <trkpt lat="36.05749192647635936737060546875" lon="-5.66395170986652374267578125">
        <ele>15.6000003814697265625</ele>
        <time>2019-11-05T11:49:55.000Z</time>
      </trkpt>
      <trkpt lat="36.05737977661192417144775390625" lon="-5.6637275777757167816162109375">
        <ele>16.799999237060546875</ele>
        <time>2019-11-05T11:49:58.000Z</time>
      </trkpt>
      <trkpt lat="36.05727315880358219146728515625" lon="-5.66349129192531108856201171875">
        <ele>17.799999237060546875</ele>
        <time>2019-11-05T11:50:01.000Z</time>
      </trkpt>
      <trkpt lat="36.05717123486101627349853515625" lon="-5.66324385814368724822998046875">
        <ele>20</ele>
        <time>2019-11-05T11:50:04.000Z</time>
      </trkpt>
      <trkpt lat="36.05708238668739795684814453125" lon="-5.66298837773501873016357421875">
        <ele>21.200000762939453125</ele>
        <time>2019-11-05T11:50:07.000Z</time>
      </trkpt>
      <trkpt lat="36.05700762011110782623291015625" lon="-5.662724263966083526611328125">
        <ele>21</ele>
        <time>2019-11-05T11:50:10.000Z</time>
      </trkpt>
      <trkpt lat="36.0569433309137821197509765625" lon="-5.6624484993517398834228515625">
        <ele>21</ele>
        <time>2019-11-05T11:50:13.000Z</time>
      </trkpt>
      <trkpt lat="36.05688071809709072113037109375" lon="-5.6621685437858104705810546875">
        <ele>20.6000003814697265625</ele>
        <time>2019-11-05T11:50:16.000Z</time>
      </trkpt>
      <trkpt lat="36.05682372115552425384521484375" lon="-5.66190174780786037445068359375">
        <ele>21.3999996185302734375</ele>
        <time>2019-11-05T11:50:19.000Z</time>
      </trkpt>
      <trkpt lat="36.05677125044167041778564453125" lon="-5.6616429984569549560546875">
        <ele>21.3999996185302734375</ele>
        <time>2019-11-05T11:50:22.000Z</time>
      </trkpt>
      <trkpt lat="36.05672766454517841339111328125" lon="-5.6613886915147304534912109375">
        <ele>21.3999996185302734375</ele>
        <time>2019-11-05T11:50:25.000Z</time>
      </trkpt>
      <trkpt lat="36.0566838271915912628173828125" lon="-5.66114368848502635955810546875">
        <ele>21</ele>
        <time>2019-11-05T11:50:28.000Z</time>
      </trkpt>
      <trkpt lat="36.05663831345736980438232421875" lon="-5.66092525608837604522705078125">
        <ele>21.799999237060546875</ele>
        <time>2019-11-05T11:50:31.000Z</time>
      </trkpt>
      <trkpt lat="36.0565886087715625762939453125" lon="-5.66065167076885700225830078125">
        <ele>23.200000762939453125</ele>
        <time>2019-11-05T11:50:35.000Z</time>
      </trkpt>
      <trkpt lat="36.0565436817705631256103515625" lon="-5.66038730554282665252685546875">
        <ele>22.200000762939453125</ele>
        <time>2019-11-05T11:50:39.000Z</time>
      </trkpt>
      <trkpt lat="36.05650772340595722198486328125" lon="-5.66010676324367523193359375">
        <ele>20.6000003814697265625</ele>
        <time>2019-11-05T11:50:43.000Z</time>
      </trkpt>
      <trkpt lat="36.0564883612096309661865234375" lon="-5.65988522954285144805908203125">
        <ele>19.3999996185302734375</ele>
        <time>2019-11-05T11:50:46.000Z</time>
      </trkpt>
      <trkpt lat="36.05647645890712738037109375" lon="-5.659655146300792694091796875">
        <ele>18.799999237060546875</ele>
        <time>2019-11-05T11:50:49.000Z</time>
      </trkpt>
      <trkpt lat="36.05646279640495777130126953125" lon="-5.65941768698394298553466796875">
        <ele>18.6000003814697265625</ele>
        <time>2019-11-05T11:50:52.000Z</time>
      </trkpt>
      <trkpt lat="36.05645474977791309356689453125" lon="-5.65912918187677860260009765625">
        <ele>19.6000003814697265625</ele>
        <time>2019-11-05T11:50:56.000Z</time>
      </trkpt>
      <trkpt lat="36.05643982999026775360107421875" lon="-5.65884889103472232818603515625">
        <ele>19.799999237060546875</ele>
        <time>2019-11-05T11:51:00.000Z</time>
      </trkpt>
      <trkpt lat="36.05643345974385738372802734375" lon="-5.65857899375259876251220703125">
        <ele>18.200000762939453125</ele>
        <time>2019-11-05T11:51:04.000Z</time>
      </trkpt>
      <trkpt lat="36.05642608366906642913818359375" lon="-5.65830725245177745819091796875">
        <ele>16</ele>
        <time>2019-11-05T11:51:08.000Z</time>
      </trkpt>
      <trkpt lat="36.0564092360436916351318359375" lon="-5.6580329127609729766845703125">
        <ele>16.6000003814697265625</ele>
        <time>2019-11-05T11:51:12.000Z</time>
      </trkpt>
      <trkpt lat="36.05638668872416019439697265625" lon="-5.65775773487985134124755859375">
        <ele>17.3999996185302734375</ele>
        <time>2019-11-05T11:51:16.000Z</time>
      </trkpt>
      <trkpt lat="36.0563787259161472320556640625" lon="-5.65750191919505596160888671875">
        <ele>18.3999996185302734375</ele>
        <time>2019-11-05T11:51:20.000Z</time>
      </trkpt>
      <trkpt lat="36.0563827492296695709228515625" lon="-5.65724643878638744354248046875">
        <ele>19</ele>
        <time>2019-11-05T11:51:24.000Z</time>
      </trkpt>
      <trkpt lat="36.05637981556355953216552734375" lon="-5.65697704441845417022705078125">
        <ele>18.6000003814697265625</ele>
        <time>2019-11-05T11:51:28.000Z</time>
      </trkpt>
      <trkpt lat="36.05638786219060420989990234375" lon="-5.65670379437506198883056640625">
        <ele>19</ele>
        <time>2019-11-05T11:51:32.000Z</time>
      </trkpt>
      <trkpt lat="36.0563807375729084014892578125" lon="-5.65641310997307300567626953125">
        <ele>19.3999996185302734375</ele>
        <time>2019-11-05T11:51:36.000Z</time>
      </trkpt>
      <trkpt lat="36.0563747026026248931884765625" lon="-5.6561878882348537445068359375">
        <ele>20.799999237060546875</ele>
        <time>2019-11-05T11:51:39.000Z</time>
      </trkpt>
      <trkpt lat="36.05637847445905208587646484375" lon="-5.655904076993465423583984375">
        <ele>21.799999237060546875</ele>
        <time>2019-11-05T11:51:43.000Z</time>
      </trkpt>
      <trkpt lat="36.056382916867733001708984375" lon="-5.65561565570533275604248046875">
        <ele>22.3999996185302734375</ele>
        <time>2019-11-05T11:51:47.000Z</time>
      </trkpt>
      <trkpt lat="36.05639406479895114898681640625" lon="-5.65541180782020092010498046875">
        <ele>21.799999237060546875</ele>
        <time>2019-11-05T11:51:50.000Z</time>
      </trkpt>
      <trkpt lat="36.056380569934844970703125" lon="-5.65513788722455501556396484375">
        <ele>20</ele>
        <time>2019-11-05T11:51:54.000Z</time>
      </trkpt>
      <trkpt lat="36.0563599504530429840087890625" lon="-5.65486765466630458831787109375">
        <ele>19.3999996185302734375</ele>
        <time>2019-11-05T11:51:58.000Z</time>
      </trkpt>
      <trkpt lat="36.05635282583534717559814453125" lon="-5.6545943208038806915283203125">
        <ele>19.6000003814697265625</ele>
        <time>2019-11-05T11:52:02.000Z</time>
      </trkpt>
      <trkpt lat="36.056347377598285675048828125" lon="-5.654321573674678802490234375">
        <ele>19</ele>
        <time>2019-11-05T11:52:06.000Z</time>
      </trkpt>
      <trkpt lat="36.056340001523494720458984375" lon="-5.65403935499489307403564453125">
        <ele>17</ele>
        <time>2019-11-05T11:52:10.000Z</time>
      </trkpt>
      <trkpt lat="36.05633539147675037384033203125" lon="-5.65376811660826206207275390625">
        <ele>15.3999996185302734375</ele>
        <time>2019-11-05T11:52:14.000Z</time>
      </trkpt>
      <trkpt lat="36.056331954896450042724609375" lon="-5.653489418327808380126953125">
        <ele>14.19999980926513671875</ele>
        <time>2019-11-05T11:52:18.000Z</time>
      </trkpt>
      <trkpt lat="36.056323237717151641845703125" lon="-5.6532664597034454345703125">
        <ele>13.3999996185302734375</ele>
        <time>2019-11-05T11:52:21.000Z</time>
      </trkpt>
      <trkpt lat="36.05630882084369659423828125" lon="-5.6530356220901012420654296875">
        <ele>12.80000019073486328125</ele>
        <time>2019-11-05T11:52:24.000Z</time>
      </trkpt>
      <trkpt lat="36.0562939010560512542724609375" lon="-5.6528049521148204803466796875">
        <ele>12</ele>
        <time>2019-11-05T11:52:27.000Z</time>
      </trkpt>
      <trkpt lat="36.0562801547348499298095703125" lon="-5.65257118083536624908447265625">
        <ele>12.80000019073486328125</ele>
        <time>2019-11-05T11:52:30.000Z</time>
      </trkpt>
      <trkpt lat="36.0562506504356861114501953125" lon="-5.6523342244327068328857421875">
        <ele>12.3999996185302734375</ele>
        <time>2019-11-05T11:52:33.000Z</time>
      </trkpt>
      <trkpt lat="36.05620346032083034515380859375" lon="-5.65210967324674129486083984375">
        <ele>12.80000019073486328125</ele>
        <time>2019-11-05T11:52:36.000Z</time>
      </trkpt>
      <trkpt lat="36.0561512410640716552734375" lon="-5.65189459361135959625244140625">
        <ele>13.19999980926513671875</ele>
        <time>2019-11-05T11:52:39.000Z</time>
      </trkpt>
      <trkpt lat="36.05608343146741390228271484375" lon="-5.6516858004033565521240234375">
        <ele>13.3999996185302734375</ele>
        <time>2019-11-05T11:52:42.000Z</time>
      </trkpt>
      <trkpt lat="36.0559737123548984527587890625" lon="-5.65143291838467121124267578125">
        <ele>14</ele>
        <time>2019-11-05T11:52:46.000Z</time>
      </trkpt>
      <trkpt lat="36.0558516718447208404541015625" lon="-5.651190094649791717529296875">
        <ele>13.19999980926513671875</ele>
        <time>2019-11-05T11:52:50.000Z</time>
      </trkpt>
      <trkpt lat="36.055715717375278472900390625" lon="-5.6509689800441265106201171875">
        <ele>13</ele>
        <time>2019-11-05T11:52:54.000Z</time>
      </trkpt>
      <trkpt lat="36.0555717162787914276123046875" lon="-5.6507500447332859039306640625">
        <ele>12</ele>
        <time>2019-11-05T11:52:58.000Z</time>
      </trkpt>
      <trkpt lat="36.05542830191552639007568359375" lon="-5.65053270198404788970947265625">
        <ele>12.80000019073486328125</ele>
        <time>2019-11-05T11:53:02.000Z</time>
      </trkpt>
      <trkpt lat="36.05528178624808788299560546875" lon="-5.65031426958739757537841796875">
        <ele>13.19999980926513671875</ele>
        <time>2019-11-05T11:53:06.000Z</time>
      </trkpt>
      <trkpt lat="36.05514214374125003814697265625" lon="-5.6500965915620326995849609375">
        <ele>14.80000019073486328125</ele>
        <time>2019-11-05T11:53:10.000Z</time>
      </trkpt>
      <trkpt lat="36.0549950413405895233154296875" lon="-5.649881847202777862548828125">
        <ele>15</ele>
        <time>2019-11-05T11:53:14.000Z</time>
      </trkpt>
      <trkpt lat="36.0548535548150539398193359375" lon="-5.6496655941009521484375">
        <ele>15</ele>
        <time>2019-11-05T11:53:18.000Z</time>
      </trkpt>
      <trkpt lat="36.05471684597432613372802734375" lon="-5.6494501791894435882568359375">
        <ele>15</ele>
        <time>2019-11-05T11:53:22.000Z</time>
      </trkpt>
      <trkpt lat="36.05457519181072711944580078125" lon="-5.64924205653369426727294921875">
        <ele>16</ele>
        <time>2019-11-05T11:53:26.000Z</time>
      </trkpt>
      <trkpt lat="36.0544292628765106201171875" lon="-5.64902379177510738372802734375">
        <ele>15.80000019073486328125</ele>
        <time>2019-11-05T11:53:30.000Z</time>
      </trkpt>
      <trkpt lat="36.0543228127062320709228515625" lon="-5.64884425140917301177978515625">
        <ele>14.80000019073486328125</ele>
        <time>2019-11-05T11:53:33.000Z</time>
      </trkpt>
      <trkpt lat="36.05420353822410106658935546875" lon="-5.648666806519031524658203125">
        <ele>13.6000003814697265625</ele>
        <time>2019-11-05T11:53:36.000Z</time>
      </trkpt>
      <trkpt lat="36.05408065952360630035400390625" lon="-5.64848701469600200653076171875">
        <ele>12.6000003814697265625</ele>
        <time>2019-11-05T11:53:39.000Z</time>
      </trkpt>
      <trkpt lat="36.053965575993061065673828125" lon="-5.6483015231788158416748046875">
        <ele>12</ele>
        <time>2019-11-05T11:53:42.000Z</time>
      </trkpt>
      <trkpt lat="36.053853929042816162109375" lon="-5.648112595081329345703125">
        <ele>12.3999996185302734375</ele>
        <time>2019-11-05T11:53:45.000Z</time>
      </trkpt>
      <trkpt lat="36.05373834259808063507080078125" lon="-5.64792391844093799591064453125">
        <ele>13</ele>
        <time>2019-11-05T11:53:48.000Z</time>
      </trkpt>
      <trkpt lat="36.05361881665885448455810546875" lon="-5.647736750543117523193359375">
        <ele>14.19999980926513671875</ele>
        <time>2019-11-05T11:53:51.000Z</time>
      </trkpt>
      <trkpt lat="36.05350297875702381134033203125" lon="-5.6475533545017242431640625">
        <ele>13.19999980926513671875</ele>
        <time>2019-11-05T11:53:54.000Z</time>
      </trkpt>
      <trkpt lat="36.05338655412197113037109375" lon="-5.6473687849938869476318359375">
        <ele>14</ele>
        <time>2019-11-05T11:53:57.000Z</time>
      </trkpt>
      <trkpt lat="36.0532676987349987030029296875" lon="-5.64718379639089107513427734375">
        <ele>13.19999980926513671875</ele>
        <time>2019-11-05T11:54:00.000Z</time>
      </trkpt>
      <trkpt lat="36.05314926244318485260009765625" lon="-5.646995790302753448486328125">
        <ele>13</ele>
        <time>2019-11-05T11:54:03.000Z</time>
      </trkpt>
      <trkpt lat="36.05302789248526096343994140625" lon="-5.64680241979658603668212890625">
        <ele>13.6000003814697265625</ele>
        <time>2019-11-05T11:54:06.000Z</time>
      </trkpt>
      <trkpt lat="36.05290518142282962799072265625" lon="-5.6466073729097843170166015625">
        <ele>14.3999996185302734375</ele>
        <time>2019-11-05T11:54:09.000Z</time>
      </trkpt>
      <trkpt lat="36.05278364382684230804443359375" lon="-5.6464105658233165740966796875">
        <ele>15.6000003814697265625</ele>
        <time>2019-11-05T11:54:12.000Z</time>
      </trkpt>
      <trkpt lat="36.05266235768795013427734375" lon="-5.6462204642593860626220703125">
        <ele>16</ele>
        <time>2019-11-05T11:54:15.000Z</time>
      </trkpt>
      <trkpt lat="36.0525401495397090911865234375" lon="-5.64602960832417011260986328125">
        <ele>14.80000019073486328125</ele>
        <time>2019-11-05T11:54:18.000Z</time>
      </trkpt>
      <trkpt lat="36.0524191148579120635986328125" lon="-5.64584009349346160888671875">
        <ele>13</ele>
        <time>2019-11-05T11:54:21.000Z</time>
      </trkpt>
      <trkpt lat="36.05230000801384449005126953125" lon="-5.64565393142402172088623046875">
        <ele>12.19999980926513671875</ele>
        <time>2019-11-05T11:54:24.000Z</time>
      </trkpt>
      <trkpt lat="36.0521780513226985931396484375" lon="-5.645465590059757232666015625">
        <ele>11.6000003814697265625</ele>
        <time>2019-11-05T11:54:27.000Z</time>
      </trkpt>
      <trkpt lat="36.05206045322120189666748046875" lon="-5.64527473412454128265380859375">
        <ele>11.19999980926513671875</ele>
        <time>2019-11-05T11:54:30.000Z</time>
      </trkpt>
      <trkpt lat="36.0519386641681194305419921875" lon="-5.64508446492254734039306640625">
        <ele>11.19999980926513671875</ele>
        <time>2019-11-05T11:54:33.000Z</time>
      </trkpt>
      <trkpt lat="36.05181570164859294891357421875" lon="-5.6448926031589508056640625">
        <ele>11.6000003814697265625</ele>
        <time>2019-11-05T11:54:36.000Z</time>
      </trkpt>
      <trkpt lat="36.05169273912906646728515625" lon="-5.644699148833751678466796875">
        <ele>12</ele>
        <time>2019-11-05T11:54:39.000Z</time>
      </trkpt>
      <trkpt lat="36.0515673458576202392578125" lon="-5.64450141973793506622314453125">
        <ele>12</ele>
        <time>2019-11-05T11:54:42.000Z</time>
      </trkpt>
      <trkpt lat="36.0514431260526180267333984375" lon="-5.64429975114762783050537109375">
        <ele>11.6000003814697265625</ele>
        <time>2019-11-05T11:54:45.000Z</time>
      </trkpt>
      <trkpt lat="36.05131647549569606781005859375" lon="-5.6441001780331134796142578125">
        <ele>12.19999980926513671875</ele>
        <time>2019-11-05T11:54:48.000Z</time>
      </trkpt>
      <trkpt lat="36.0511909984052181243896484375" lon="-5.643912255764007568359375">
        <ele>11.6000003814697265625</ele>
        <time>2019-11-05T11:54:51.000Z</time>
      </trkpt>
      <trkpt lat="36.05107222683727741241455078125" lon="-5.64372441731393337249755859375">
        <ele>11</ele>
        <time>2019-11-05T11:54:54.000Z</time>
      </trkpt>
      <trkpt lat="36.05095353908836841583251953125" lon="-5.64353783614933490753173828125">
        <ele>11</ele>
        <time>2019-11-05T11:54:57.000Z</time>
      </trkpt>
      <trkpt lat="36.05083703063428401947021484375" lon="-5.6433511711657047271728515625">
        <ele>10.3999996185302734375</ele>
        <time>2019-11-05T11:55:00.000Z</time>
      </trkpt>
      <trkpt lat="36.0507155768573284149169921875" lon="-5.643156878650188446044921875">
        <ele>10</ele>
        <time>2019-11-05T11:55:03.000Z</time>
      </trkpt>
      <trkpt lat="36.05058641172945499420166015625" lon="-5.6429585628211498260498046875">
        <ele>8.6000003814697265625</ele>
        <time>2019-11-05T11:55:06.000Z</time>
      </trkpt>
      <trkpt lat="36.05045548640191555023193359375" lon="-5.64276066608726978302001953125">
        <ele>7</ele>
        <time>2019-11-05T11:55:09.000Z</time>
      </trkpt>
      <trkpt lat="36.0503254830837249755859375" lon="-5.642558746039867401123046875">
        <ele>5.599999904632568359375</ele>
        <time>2019-11-05T11:55:12.000Z</time>
      </trkpt>
      <trkpt lat="36.0501995868980884552001953125" lon="-5.64236302860081195831298828125">
        <ele>5.19999980926513671875</ele>
        <time>2019-11-05T11:55:15.000Z</time>
      </trkpt>
      <trkpt lat="36.0500733554363250732421875" lon="-5.6421647965908050537109375">
        <ele>5.400000095367431640625</ele>
        <time>2019-11-05T11:55:18.000Z</time>
      </trkpt>
      <trkpt lat="36.049943603575229644775390625" lon="-5.64195893704891204833984375">
        <ele>5.400000095367431640625</ele>
        <time>2019-11-05T11:55:21.000Z</time>
      </trkpt>
      <trkpt lat="36.04981519281864166259765625" lon="-5.64175433479249477386474609375">
        <ele>6</ele>
        <time>2019-11-05T11:55:24.000Z</time>
      </trkpt>
      <trkpt lat="36.04968200437724590301513671875" lon="-5.64154721796512603759765625">
        <ele>5.599999904632568359375</ele>
        <time>2019-11-05T11:55:27.000Z</time>
      </trkpt>
      <trkpt lat="36.04954923503100872039794921875" lon="-5.64133959822356700897216796875">
        <ele>5.400000095367431640625</ele>
        <time>2019-11-05T11:55:30.000Z</time>
      </trkpt>
      <trkpt lat="36.04941495694220066070556640625" lon="-5.641137845814228057861328125">
        <ele>6</ele>
        <time>2019-11-05T11:55:33.000Z</time>
      </trkpt>
      <trkpt lat="36.0492873005568981170654296875" lon="-5.64093701541423797607421875">
        <ele>5.400000095367431640625</ele>
        <time>2019-11-05T11:55:36.000Z</time>
      </trkpt>
      <trkpt lat="36.04916098527610301971435546875" lon="-5.640744902193546295166015625">
        <ele>5</ele>
        <time>2019-11-05T11:55:39.000Z</time>
      </trkpt>
      <trkpt lat="36.04904196225106716156005859375" lon="-5.64055823720991611480712890625">
        <ele>3.7999999523162841796875</ele>
        <time>2019-11-05T11:55:42.000Z</time>
      </trkpt>
      <trkpt lat="36.04892478324472904205322265625" lon="-5.64037618227303028106689453125">
        <ele>2.7999999523162841796875</ele>
        <time>2019-11-05T11:55:45.000Z</time>
      </trkpt>
      <trkpt lat="36.04880576021969318389892578125" lon="-5.64018666744232177734375">
        <ele>2.400000095367431640625</ele>
        <time>2019-11-05T11:55:48.000Z</time>
      </trkpt>
      <trkpt lat="36.04869310744106769561767578125" lon="-5.639998577535152435302734375">
        <ele>3</ele>
        <time>2019-11-05T11:55:51.000Z</time>
      </trkpt>
      <trkpt lat="36.04857609607279300689697265625" lon="-5.63981375657021999359130859375">
        <ele>4.400000095367431640625</ele>
        <time>2019-11-05T11:55:54.000Z</time>
      </trkpt>
      <trkpt lat="36.04845908470451831817626953125" lon="-5.63963136635720729827880859375">
        <ele>5</ele>
        <time>2019-11-05T11:55:57.000Z</time>
      </trkpt>
      <trkpt lat="36.0483498685061931610107421875" lon="-5.6394512392580509185791015625">
        <ele>4.80000019073486328125</ele>
        <time>2019-11-05T11:56:00.000Z</time>
      </trkpt>
      <trkpt lat="36.04823612608015537261962890625" lon="-5.63927195034921169281005859375">
        <ele>4.80000019073486328125</ele>
        <time>2019-11-05T11:56:03.000Z</time>
      </trkpt>
      <trkpt lat="36.04812313802540302276611328125" lon="-5.63909056596457958221435546875">
        <ele>5</ele>
        <time>2019-11-05T11:56:06.000Z</time>
      </trkpt>
      <trkpt lat="36.0480129159986972808837890625" lon="-5.6389114446938037872314453125">
        <ele>5</ele>
        <time>2019-11-05T11:56:09.000Z</time>
      </trkpt>
      <trkpt lat="36.04790302924811840057373046875" lon="-5.63872796483337879180908203125">
        <ele>5</ele>
        <time>2019-11-05T11:56:12.000Z</time>
      </trkpt>
      <trkpt lat="36.04779389686882495880126953125" lon="-5.63854138366878032684326171875">
        <ele>3.2000000476837158203125</ele>
        <time>2019-11-05T11:56:15.000Z</time>
      </trkpt>
      <trkpt lat="36.04767319746315479278564453125" lon="-5.63835631124675273895263671875">
        <ele>1</ele>
        <time>2019-11-05T11:56:18.000Z</time>
      </trkpt>
      <trkpt lat="36.047549732029438018798828125" lon="-5.638177357614040374755859375">
        <ele>1.39999997615814208984375</ele>
        <time>2019-11-05T11:56:21.000Z</time>
      </trkpt>
      <trkpt lat="36.04742509312927722930908203125" lon="-5.63798901624977588653564453125">
        <ele>1.7999999523162841796875</ele>
        <time>2019-11-05T11:56:24.000Z</time>
      </trkpt>
      <trkpt lat="36.04730456136167049407958984375" lon="-5.637801177799701690673828125">
        <ele>3.400000095367431640625</ele>
        <time>2019-11-05T11:56:27.000Z</time>
      </trkpt>
      <trkpt lat="36.04718805290758609771728515625" lon="-5.6376125849783420562744140625">
        <ele>4.80000019073486328125</ele>
        <time>2019-11-05T11:56:30.000Z</time>
      </trkpt>
      <trkpt lat="36.047068275511264801025390625" lon="-5.6374268420040607452392578125">
        <ele>4.400000095367431640625</ele>
        <time>2019-11-05T11:56:33.000Z</time>
      </trkpt>
      <trkpt lat="36.04694933630526065826416015625" lon="-5.63724118284881114959716796875">
        <ele>4</ele>
        <time>2019-11-05T11:56:36.000Z</time>
      </trkpt>
      <trkpt lat="36.0468303970992565155029296875" lon="-5.6370593793690204620361328125">
        <ele>3.2000000476837158203125</ele>
        <time>2019-11-05T11:56:39.000Z</time>
      </trkpt>
      <trkpt lat="36.046716906130313873291015625" lon="-5.63687539659440517425537109375">
        <ele>3</ele>
        <time>2019-11-05T11:56:42.000Z</time>
      </trkpt>
      <trkpt lat="36.04660182259976863861083984375" lon="-5.63669116236269474029541015625">
        <ele>3</ele>
        <time>2019-11-05T11:56:45.000Z</time>
      </trkpt>
      <trkpt lat="36.0464914329349994659423828125" lon="-5.63651137053966522216796875">
        <ele>3.400000095367431640625</ele>
        <time>2019-11-05T11:56:48.000Z</time>
      </trkpt>
      <trkpt lat="36.04637534357607364654541015625" lon="-5.63632973469793796539306640625">
        <ele>4.599999904632568359375</ele>
        <time>2019-11-05T11:56:51.000Z</time>
      </trkpt>
      <trkpt lat="36.046262271702289581298828125" lon="-5.63614583574235439300537109375">
        <ele>5</ele>
        <time>2019-11-05T11:56:54.000Z</time>
      </trkpt>
      <trkpt lat="36.04614727199077606201171875" lon="-5.635970570147037506103515625">
        <ele>6.400000095367431640625</ele>
        <time>2019-11-05T11:56:57.000Z</time>
      </trkpt>
      <trkpt lat="36.0460312664508819580078125" lon="-5.63578658737242221832275390625">
        <ele>5.599999904632568359375</ele>
        <time>2019-11-05T11:57:00.000Z</time>
      </trkpt>
      <trkpt lat="36.04591517709195613861083984375" lon="-5.63560537062585353851318359375">
        <ele>4.80000019073486328125</ele>
        <time>2019-11-05T11:57:03.000Z</time>
      </trkpt>
      <trkpt lat="36.0457970760762691497802734375" lon="-5.635425411164760589599609375">
        <ele>3.7999999523162841796875</ele>
        <time>2019-11-05T11:57:06.000Z</time>
      </trkpt>
      <trkpt lat="36.04567696340382099151611328125" lon="-5.6352482177317142486572265625">
        <ele>3.2000000476837158203125</ele>
        <time>2019-11-05T11:57:09.000Z</time>
      </trkpt>
      <trkpt lat="36.04556011967360973358154296875" lon="-5.63506658188998699188232421875">
        <ele>3.2000000476837158203125</ele>
        <time>2019-11-05T11:57:12.000Z</time>
      </trkpt>
      <trkpt lat="36.045445539057254791259765625" lon="-5.63488502986729145050048828125">
        <ele>3</ele>
        <time>2019-11-05T11:57:15.000Z</time>
      </trkpt>
      <trkpt lat="36.045336239039897918701171875" lon="-5.634699873626232147216796875">
        <ele>3.2000000476837158203125</ele>
        <time>2019-11-05T11:57:18.000Z</time>
      </trkpt>
      <trkpt lat="36.04522853158414363861083984375" lon="-5.63451874069869518280029296875">
        <ele>2.2000000476837158203125</ele>
        <time>2019-11-05T11:57:21.000Z</time>
      </trkpt>
      <trkpt lat="36.04512442834675312042236328125" lon="-5.634335763752460479736328125">
        <ele>1.60000002384185791015625</ele>
        <time>2019-11-05T11:57:24.000Z</time>
      </trkpt>
      <trkpt lat="36.0449920780956745147705078125" lon="-5.6340931914746761322021484375">
        <ele>1.60000002384185791015625</ele>
        <time>2019-11-05T11:57:28.000Z</time>
      </trkpt>
      <trkpt lat="36.04487665928900241851806640625" lon="-5.63383695669472217559814453125">
        <ele>3.2000000476837158203125</ele>
        <time>2019-11-05T11:57:32.000Z</time>
      </trkpt>
      <trkpt lat="36.04477607645094394683837890625" lon="-5.63357879407703876495361328125">
        <ele>4.400000095367431640625</ele>
        <time>2019-11-05T11:57:36.000Z</time>
      </trkpt>
      <trkpt lat="36.0446802712976932525634765625" lon="-5.63332490622997283935546875">
        <ele>3.7999999523162841796875</ele>
        <time>2019-11-05T11:57:40.000Z</time>
      </trkpt>
      <trkpt lat="36.0445833764970302581787109375" lon="-5.63306380994617938995361328125">
        <ele>4</ele>
        <time>2019-11-05T11:57:44.000Z</time>
      </trkpt>
      <trkpt lat="36.04448069818317890167236328125" lon="-5.63279961235821247100830078125">
        <ele>4</ele>
        <time>2019-11-05T11:57:48.000Z</time>
      </trkpt>
      <trkpt lat="36.04438162408769130706787109375" lon="-5.63252669759094715118408203125">
        <ele>4</ele>
        <time>2019-11-05T11:57:52.000Z</time>
      </trkpt>
      <trkpt lat="36.0443057678639888763427734375" lon="-5.6323195807635784149169921875">
        <ele>3.2000000476837158203125</ele>
        <time>2019-11-05T11:57:55.000Z</time>
      </trkpt>
      <trkpt lat="36.04423058219254016876220703125" lon="-5.63211430795490741729736328125">
        <ele>3.599999904632568359375</ele>
        <time>2019-11-05T11:57:58.000Z</time>
      </trkpt>
      <trkpt lat="36.04413519613444805145263671875" lon="-5.631856732070446014404296875">
        <ele>2.599999904632568359375</ele>
        <time>2019-11-05T11:58:02.000Z</time>
      </trkpt>
      <trkpt lat="36.04403746314346790313720703125" lon="-5.63161089085042476654052734375">
        <ele>2</ele>
        <time>2019-11-05T11:58:06.000Z</time>
      </trkpt>
      <trkpt lat="36.043942160904407501220703125" lon="-5.63135557807981967926025390625">
        <ele>2.599999904632568359375</ele>
        <time>2019-11-05T11:58:10.000Z</time>
      </trkpt>
      <trkpt lat="36.043869070708751678466796875" lon="-5.63115231692790985107421875">
        <ele>3</ele>
        <time>2019-11-05T11:58:13.000Z</time>
      </trkpt>
      <trkpt lat="36.0437921248376369476318359375" lon="-5.63093447126448154449462890625">
        <ele>3.7999999523162841796875</ele>
        <time>2019-11-05T11:58:16.000Z</time>
      </trkpt>
      <trkpt lat="36.04371828027069568634033203125" lon="-5.63070975244045257568359375">
        <ele>3.7999999523162841796875</ele>
        <time>2019-11-05T11:58:19.000Z</time>
      </trkpt>
      <trkpt lat="36.0436419211328029632568359375" lon="-5.63047899864614009857177734375">
        <ele>2.7999999523162841796875</ele>
        <time>2019-11-05T11:58:22.000Z</time>
      </trkpt>
      <trkpt lat="36.04357260279357433319091796875" lon="-5.6302361749112606048583984375">
        <ele>1.7999999523162841796875</ele>
        <time>2019-11-05T11:58:25.000Z</time>
      </trkpt>
      <trkpt lat="36.04350085370242595672607421875" lon="-5.6299887411296367645263671875">
        <ele>1</ele>
        <time>2019-11-05T11:58:28.000Z</time>
      </trkpt>
      <trkpt lat="36.04343161918222904205322265625" lon="-5.629737116396427154541015625">
        <ele>0.800000011920928955078125</ele>
        <time>2019-11-05T11:58:31.000Z</time>
      </trkpt>
      <trkpt lat="36.04336054064333438873291015625" lon="-5.629487670958042144775390625">
        <ele>-1</ele>
        <time>2019-11-05T11:58:34.000Z</time>
      </trkpt>
      <trkpt lat="36.04328443296253681182861328125" lon="-5.629238225519657135009765625">
        <ele>-1.2000000476837158203125</ele>
        <time>2019-11-05T11:58:37.000Z</time>
      </trkpt>
      <trkpt lat="36.0432003624737262725830078125" lon="-5.6289946474134922027587890625">
        <ele>-1</ele>
        <time>2019-11-05T11:58:40.000Z</time>
      </trkpt>
      <trkpt lat="36.04311360977590084075927734375" lon="-5.62875819392502307891845703125">
        <ele>0</ele>
        <time>2019-11-05T11:58:43.000Z</time>
      </trkpt>
      <trkpt lat="36.04301872663199901580810546875" lon="-5.6285393424332141876220703125">
        <ele>2</ele>
        <time>2019-11-05T11:58:46.000Z</time>
      </trkpt>
      <trkpt lat="36.0429237596690654754638671875" lon="-5.6283341534435749053955078125">
        <ele>3.2000000476837158203125</ele>
        <time>2019-11-05T11:58:49.000Z</time>
      </trkpt>
      <trkpt lat="36.042801551520824432373046875" lon="-5.628084205090999603271484375">
        <ele>4</ele>
        <time>2019-11-05T11:58:53.000Z</time>
      </trkpt>
      <trkpt lat="36.0426771640777587890625" lon="-5.62785529531538486480712890625">
        <ele>4</ele>
        <time>2019-11-05T11:58:57.000Z</time>
      </trkpt>
      <trkpt lat="36.042550094425678253173828125" lon="-5.62762512825429439544677734375">
        <ele>3.599999904632568359375</ele>
        <time>2019-11-05T11:59:01.000Z</time>
      </trkpt>
      <trkpt lat="36.0424138046801090240478515625" lon="-5.627393536269664764404296875">
        <ele>3.599999904632568359375</ele>
        <time>2019-11-05T11:59:05.000Z</time>
      </trkpt>
      <trkpt lat="36.04228313080966472625732421875" lon="-5.6271529756486415863037109375">
        <ele>3.599999904632568359375</ele>
        <time>2019-11-05T11:59:09.000Z</time>
      </trkpt>
      <trkpt lat="36.04214030317962169647216796875" lon="-5.626912079751491546630859375">
        <ele>3</ele>
        <time>2019-11-05T11:59:13.000Z</time>
      </trkpt>
      <trkpt lat="36.04203267954289913177490234375" lon="-5.6267318688333034515380859375">
        <ele>2</ele>
        <time>2019-11-05T11:59:16.000Z</time>
      </trkpt>
      <trkpt lat="36.04192488826811313629150390625" lon="-5.62654889188706874847412109375">
        <ele>2.599999904632568359375</ele>
        <time>2019-11-05T11:59:19.000Z</time>
      </trkpt>
      <trkpt lat="36.041786670684814453125" lon="-5.62630581669509410858154296875">
        <ele>3.599999904632568359375</ele>
        <time>2019-11-05T11:59:23.000Z</time>
      </trkpt>
      <trkpt lat="36.04167929850518703460693359375" lon="-5.6261171400547027587890625">
        <ele>4.599999904632568359375</ele>
        <time>2019-11-05T11:59:26.000Z</time>
      </trkpt>
      <trkpt lat="36.04156698100268840789794921875" lon="-5.62592980451881885528564453125">
        <ele>5</ele>
        <time>2019-11-05T11:59:29.000Z</time>
      </trkpt>
      <trkpt lat="36.04145164601504802703857421875" lon="-5.62574691139161586761474609375">
        <ele>5</ele>
        <time>2019-11-05T11:59:32.000Z</time>
      </trkpt>
      <trkpt lat="36.04133983142673969268798828125" lon="-5.62555815093219280242919921875">
        <ele>5</ele>
        <time>2019-11-05T11:59:35.000Z</time>
      </trkpt>
      <trkpt lat="36.0412289388477802276611328125" lon="-5.625366456806659698486328125">
        <ele>3.2000000476837158203125</ele>
        <time>2019-11-05T11:59:38.000Z</time>
      </trkpt>
      <trkpt lat="36.041117794811725616455078125" lon="-5.62517593614757061004638671875">
        <ele>2</ele>
        <time>2019-11-05T11:59:41.000Z</time>
      </trkpt>
      <trkpt lat="36.0410043038427829742431640625" lon="-5.62498063780367374420166015625">
        <ele>2</ele>
        <time>2019-11-05T11:59:44.000Z</time>
      </trkpt>
      <trkpt lat="36.0408906452357769012451171875" lon="-5.62478207051753997802734375">
        <ele>2.2000000476837158203125</ele>
        <time>2019-11-05T11:59:47.000Z</time>
      </trkpt>
      <trkpt lat="36.040773801505565643310546875" lon="-5.62458300031721591949462890625">
        <ele>3</ele>
        <time>2019-11-05T11:59:50.000Z</time>
      </trkpt>
      <trkpt lat="36.0406572930514812469482421875" lon="-5.62438434921205043792724609375">
        <ele>3.2000000476837158203125</ele>
        <time>2019-11-05T11:59:53.000Z</time>
      </trkpt>
      <trkpt lat="36.04054254479706287384033203125" lon="-5.62418787740170955657958984375">
        <ele>3.400000095367431640625</ele>
        <time>2019-11-05T11:59:56.000Z</time>
      </trkpt>
      <trkpt lat="36.0404282994568347930908203125" lon="-5.62399392016232013702392578125">
        <ele>3.7999999523162841796875</ele>
        <time>2019-11-05T11:59:59.000Z</time>
      </trkpt>
      <trkpt lat="36.0403179936110973358154296875" lon="-5.62380314804613590240478515625">
        <ele>2.7999999523162841796875</ele>
        <time>2019-11-05T12:00:02.000Z</time>
      </trkpt>
      <trkpt lat="36.040208525955677032470703125" lon="-5.62361438758671283721923828125">
        <ele>2</ele>
        <time>2019-11-05T12:00:05.000Z</time>
      </trkpt>
      <trkpt lat="36.04009830392897129058837890625" lon="-5.6234260462224483489990234375">
        <ele>0.800000011920928955078125</ele>
        <time>2019-11-05T12:00:08.000Z</time>
      </trkpt>
      <trkpt lat="36.0399884171783924102783203125" lon="-5.6232356093823909759521484375">
        <ele>-0.20000000298023223876953125</ele>
        <time>2019-11-05T12:00:11.000Z</time>
      </trkpt>
      <trkpt lat="36.03987760841846466064453125" lon="-5.62304408289492130279541015625">
        <ele>0.20000000298023223876953125</ele>
        <time>2019-11-05T12:00:14.000Z</time>
      </trkpt>
      <trkpt lat="36.039759255945682525634765625" lon="-5.6228594295680522918701171875">
        <ele>0.4000000059604644775390625</ele>
        <time>2019-11-05T12:00:17.000Z</time>
      </trkpt>
      <trkpt lat="36.03963763453066349029541015625" lon="-5.62267653644084930419921875">
        <ele>1.2000000476837158203125</ele>
        <time>2019-11-05T12:00:20.000Z</time>
      </trkpt>
      <trkpt lat="36.03951022960245609283447265625" lon="-5.62250194139778614044189453125">
        <ele>2.2000000476837158203125</ele>
        <time>2019-11-05T12:00:23.000Z</time>
      </trkpt>
      <trkpt lat="36.0393748618662357330322265625" lon="-5.62234721146523952484130859375">
        <ele>2.599999904632568359375</ele>
        <time>2019-11-05T12:00:26.000Z</time>
      </trkpt>
      <trkpt lat="36.03918652050197124481201171875" lon="-5.6221667490899562835693359375">
        <ele>3</ele>
        <time>2019-11-05T12:00:30.000Z</time>
      </trkpt>
      <trkpt lat="36.03898719884455204010009765625" lon="-5.62200791202485561370849609375">
        <ele>3</ele>
        <time>2019-11-05T12:00:34.000Z</time>
      </trkpt>
      <trkpt lat="36.03882811032235622406005859375" lon="-5.62188872136175632476806640625">
        <ele>2.599999904632568359375</ele>
        <time>2019-11-05T12:00:37.000Z</time>
      </trkpt>
      <trkpt lat="36.0386691056191921234130859375" lon="-5.62176735140383243560791015625">
        <ele>2.2000000476837158203125</ele>
        <time>2019-11-05T12:00:40.000Z</time>
      </trkpt>
      <trkpt lat="36.0385054908692836761474609375" lon="-5.62165436334908008575439453125">
        <ele>2</ele>
        <time>2019-11-05T12:00:43.000Z</time>
      </trkpt>
      <trkpt lat="36.0383485816419124603271484375" lon="-5.621540285646915435791015625">
        <ele>2.599999904632568359375</ele>
        <time>2019-11-05T12:00:46.000Z</time>
      </trkpt>
      <trkpt lat="36.03814532049000263214111328125" lon="-5.621401481330394744873046875">
        <ele>4.19999980926513671875</ele>
        <time>2019-11-05T12:00:50.000Z</time>
      </trkpt>
      <trkpt lat="36.03794314898550510406494140625" lon="-5.6212516129016876220703125">
        <ele>4.400000095367431640625</ele>
        <time>2019-11-05T12:00:54.000Z</time>
      </trkpt>
      <trkpt lat="36.0377390496432781219482421875" lon="-5.62109545804560184478759765625">
        <ele>4.400000095367431640625</ele>
        <time>2019-11-05T12:00:58.000Z</time>
      </trkpt>
      <trkpt lat="36.037586666643619537353515625" lon="-5.6209698133170604705810546875">
        <ele>4.19999980926513671875</ele>
        <time>2019-11-05T12:01:01.000Z</time>
      </trkpt>
      <trkpt lat="36.0374393127858638763427734375" lon="-5.62083478085696697235107421875">
        <ele>4.19999980926513671875</ele>
        <time>2019-11-05T12:01:04.000Z</time>
      </trkpt>
      <trkpt lat="36.03729606606066226959228515625" lon="-5.620692707598209381103515625">
        <ele>4.400000095367431640625</ele>
        <time>2019-11-05T12:01:07.000Z</time>
      </trkpt>
      <trkpt lat="36.03715575300157070159912109375" lon="-5.62054074369370937347412109375">
        <ele>5.400000095367431640625</ele>
        <time>2019-11-05T12:01:10.000Z</time>
      </trkpt>
      <trkpt lat="36.037018708884716033935546875" lon="-5.6203857623040676116943359375">
        <ele>6.400000095367431640625</ele>
        <time>2019-11-05T12:01:13.000Z</time>
      </trkpt>
      <trkpt lat="36.03688820265233516693115234375" lon="-5.6202305294573307037353515625">
        <ele>6.19999980926513671875</ele>
        <time>2019-11-05T12:01:16.000Z</time>
      </trkpt>
      <trkpt lat="36.03672559373080730438232421875" lon="-5.62004637904465198516845703125">
        <ele>4.400000095367431640625</ele>
        <time>2019-11-05T12:01:20.000Z</time>
      </trkpt>
      <trkpt lat="36.03655544109642505645751953125" lon="-5.619855858385562896728515625">
        <ele>3</ele>
        <time>2019-11-05T12:01:24.000Z</time>
      </trkpt>
      <trkpt lat="36.03637757711112499237060546875" lon="-5.619656033813953399658203125">
        <ele>3.599999904632568359375</ele>
        <time>2019-11-05T12:01:28.000Z</time>
      </trkpt>
      <trkpt lat="36.036240868270397186279296875" lon="-5.61950356699526309967041015625">
        <ele>3</ele>
        <time>2019-11-05T12:01:31.000Z</time>
      </trkpt>
      <trkpt lat="36.03610374033451080322265625" lon="-5.6193521060049533843994140625">
        <ele>3</ele>
        <time>2019-11-05T12:01:34.000Z</time>
      </trkpt>
      <trkpt lat="36.0359684564173221588134765625" lon="-5.619200728833675384521484375">
        <ele>2</ele>
        <time>2019-11-05T12:01:37.000Z</time>
      </trkpt>
      <trkpt lat="36.0358316637575626373291015625" lon="-5.6190493516623973846435546875">
        <ele>2</ele>
        <time>2019-11-05T12:01:40.000Z</time>
      </trkpt>
      <trkpt lat="36.035697720944881439208984375" lon="-5.6188978068530559539794921875">
        <ele>1</ele>
        <time>2019-11-05T12:01:43.000Z</time>
      </trkpt>
      <trkpt lat="36.03556486777961254119873046875" lon="-5.6187442503869533538818359375">
        <ele>1.60000002384185791015625</ele>
        <time>2019-11-05T12:01:46.000Z</time>
      </trkpt>
      <trkpt lat="36.035428158938884735107421875" lon="-5.6185908615589141845703125">
        <ele>3.2000000476837158203125</ele>
        <time>2019-11-05T12:01:49.000Z</time>
      </trkpt>
      <trkpt lat="36.03529295884072780609130859375" lon="-5.61843571253120899200439453125">
        <ele>4.400000095367431640625</ele>
        <time>2019-11-05T12:01:52.000Z</time>
      </trkpt>
      <trkpt lat="36.035153567790985107421875" lon="-5.6182797253131866455078125">
        <ele>5.19999980926513671875</ele>
        <time>2019-11-05T12:01:55.000Z</time>
      </trkpt>
      <trkpt lat="36.03501300327479839324951171875" lon="-5.618123151361942291259765625">
        <ele>5.80000019073486328125</ele>
        <time>2019-11-05T12:01:58.000Z</time>
      </trkpt>
      <trkpt lat="36.03487470187246799468994140625" lon="-5.617967583239078521728515625">
        <ele>6.80000019073486328125</ele>
        <time>2019-11-05T12:02:01.000Z</time>
      </trkpt>
      <trkpt lat="36.03470589034259319305419921875" lon="-5.61777287162840366363525390625">
        <ele>7.400000095367431640625</ele>
        <time>2019-11-05T12:02:05.000Z</time>
      </trkpt>
      <trkpt lat="36.03455786593258380889892578125" lon="-5.61761118471622467041015625">
        <ele>5.19999980926513671875</ele>
        <time>2019-11-05T12:02:09.000Z</time>
      </trkpt>
      <trkpt lat="36.03440799750387668609619140625" lon="-5.61744949780404567718505859375">
        <ele>4</ele>
        <time>2019-11-05T12:02:15.000Z</time>
      </trkpt>
      <trkpt lat="36.03439559228718280792236328125" lon="-5.61743826605379581451416015625">
        <ele>4</ele>
        <time>2019-11-05T12:02:16.000Z</time>
      </trkpt>
      <trkpt lat="36.03439190424978733062744140625" lon="-5.617433823645114898681640625">
        <ele>4</ele>
        <time>2019-11-05T12:02:20.000Z</time>
      </trkpt>
      <trkpt lat="36.03432920761406421661376953125" lon="-5.61737506650388240814208984375">
        <ele>4</ele>
        <time>2019-11-05T12:03:13.000Z</time>
      </trkpt>
      <trkpt lat="36.03419375605881214141845703125" lon="-5.61722536571323871612548828125">
        <ele>3.599999904632568359375</ele>
        <time>2019-11-05T12:03:19.000Z</time>
      </trkpt>
      <trkpt lat="36.034039445221424102783203125" lon="-5.61705538071691989898681640625">
        <ele>3.7999999523162841796875</ele>
        <time>2019-11-05T12:03:24.000Z</time>
      </trkpt>
      <trkpt lat="36.03389653377234935760498046875" lon="-5.61689235270023345947265625">
        <ele>4</ele>
        <time>2019-11-05T12:03:28.000Z</time>
      </trkpt>
      <trkpt lat="36.0337516106665134429931640625" lon="-5.6167294085025787353515625">
        <ele>4</ele>
        <time>2019-11-05T12:03:32.000Z</time>
      </trkpt>
      <trkpt lat="36.033617667853832244873046875" lon="-5.6165686435997486114501953125">
        <ele>4.599999904632568359375</ele>
        <time>2019-11-05T12:03:36.000Z</time>
      </trkpt>
      <trkpt lat="36.03345346637070178985595703125" lon="-5.6163818947970867156982421875">
        <ele>4.19999980926513671875</ele>
        <time>2019-11-05T12:03:41.000Z</time>
      </trkpt>
      <trkpt lat="36.03328934870660305023193359375" lon="-5.6162048690021038055419921875">
        <ele>5</ele>
        <time>2019-11-05T12:03:46.000Z</time>
      </trkpt>
      <trkpt lat="36.03314953856170177459716796875" lon="-5.61604687012732028961181640625">
        <ele>5.19999980926513671875</ele>
        <time>2019-11-05T12:03:50.000Z</time>
      </trkpt>
      <trkpt lat="36.0330019332468509674072265625" lon="-5.6158769689500331878662109375">
        <ele>5.19999980926513671875</ele>
        <time>2019-11-05T12:03:54.000Z</time>
      </trkpt>
      <trkpt lat="36.0328487120568752288818359375" lon="-5.61570421792566776275634765625">
        <ele>4.80000019073486328125</ele>
        <time>2019-11-05T12:03:58.000Z</time>
      </trkpt>
      <trkpt lat="36.032687611877918243408203125" lon="-5.61552601866424083709716796875">
        <ele>5.19999980926513671875</ele>
        <time>2019-11-05T12:04:02.000Z</time>
      </trkpt>
      <trkpt lat="36.03252030909061431884765625" lon="-5.61533960513770580291748046875">
        <ele>5.80000019073486328125</ele>
        <time>2019-11-05T12:04:06.000Z</time>
      </trkpt>
      <trkpt lat="36.0323521681129932403564453125" lon="-5.615149922668933868408203125">
        <ele>5.80000019073486328125</ele>
        <time>2019-11-05T12:04:10.000Z</time>
      </trkpt>
      <trkpt lat="36.0321902297437191009521484375" lon="-5.614967532455921173095703125">
        <ele>4.80000019073486328125</ele>
        <time>2019-11-05T12:04:14.000Z</time>
      </trkpt>
      <trkpt lat="36.03202820755541324615478515625" lon="-5.61478472314774990081787109375">
        <ele>3.7999999523162841796875</ele>
        <time>2019-11-05T12:04:18.000Z</time>
      </trkpt>
      <trkpt lat="36.031858138740062713623046875" lon="-5.61459361575543880462646484375">
        <ele>3.2000000476837158203125</ele>
        <time>2019-11-05T12:04:22.000Z</time>
      </trkpt>
      <trkpt lat="36.0316841304302215576171875" lon="-5.6143990717828273773193359375">
        <ele>3.7999999523162841796875</ele>
        <time>2019-11-05T12:04:26.000Z</time>
      </trkpt>
      <trkpt lat="36.03151573799550533294677734375" lon="-5.61420318670570850372314453125">
        <ele>4</ele>
        <time>2019-11-05T12:04:30.000Z</time>
      </trkpt>
      <trkpt lat="36.03134877048432826995849609375" lon="-5.61402196995913982391357421875">
        <ele>3.599999904632568359375</ele>
        <time>2019-11-05T12:04:34.000Z</time>
      </trkpt>
      <trkpt lat="36.03119194507598876953125" lon="-5.61384025029838085174560546875">
        <ele>3.2000000476837158203125</ele>
        <time>2019-11-05T12:04:38.000Z</time>
      </trkpt>
      <trkpt lat="36.03102606721222400665283203125" lon="-5.61365819536149501800537109375">
        <ele>4.599999904632568359375</ele>
        <time>2019-11-05T12:04:42.000Z</time>
      </trkpt>
      <trkpt lat="36.0308568365871906280517578125" lon="-5.61346692033112049102783203125">
        <ele>5.19999980926513671875</ele>
        <time>2019-11-05T12:04:46.000Z</time>
      </trkpt>
      <trkpt lat="36.03068257682025432586669921875" lon="-5.61327715404331684112548828125">
        <ele>4.80000019073486328125</ele>
        <time>2019-11-05T12:04:50.000Z</time>
      </trkpt>
      <trkpt lat="36.03051426820456981658935546875" lon="-5.61308805830776691436767578125">
        <ele>4.400000095367431640625</ele>
        <time>2019-11-05T12:04:54.000Z</time>
      </trkpt>
      <trkpt lat="36.03033992461860179901123046875" lon="-5.61291153542697429656982421875">
        <ele>3.599999904632568359375</ele>
        <time>2019-11-05T12:04:58.000Z</time>
      </trkpt>
      <trkpt lat="36.030168347060680389404296875" lon="-5.61273249797523021697998046875">
        <ele>4</ele>
        <time>2019-11-05T12:05:02.000Z</time>
      </trkpt>
      <trkpt lat="36.03000171482563018798828125" lon="-5.61255429871380329132080078125">
        <ele>4</ele>
        <time>2019-11-05T12:05:06.000Z</time>
      </trkpt>
      <trkpt lat="36.02985092438757419586181640625" lon="-5.6123860739171504974365234375">
        <ele>4</ele>
        <time>2019-11-05T12:05:10.000Z</time>
      </trkpt>
      <trkpt lat="36.02970725856721401214599609375" lon="-5.61222690157592296600341796875">
        <ele>3</ele>
        <time>2019-11-05T12:05:14.000Z</time>
      </trkpt>
      <trkpt lat="36.0295613296329975128173828125" lon="-5.61206705868244171142578125">
        <ele>2</ele>
        <time>2019-11-05T12:05:18.000Z</time>
      </trkpt>
      <trkpt lat="36.0293987207114696502685546875" lon="-5.6119280867278575897216796875">
        <ele>2</ele>
        <time>2019-11-05T12:05:22.000Z</time>
      </trkpt>
      <trkpt lat="36.02921071462333202362060546875" lon="-5.6118261627852916717529296875">
        <ele>3.2000000476837158203125</ele>
        <time>2019-11-05T12:05:26.000Z</time>
      </trkpt>
      <trkpt lat="36.02902161888778209686279296875" lon="-5.611760281026363372802734375">
        <ele>4.80000019073486328125</ele>
        <time>2019-11-05T12:05:30.000Z</time>
      </trkpt>
      <trkpt lat="36.028840653598308563232421875" lon="-5.61174175702035427093505859375">
        <ele>4.80000019073486328125</ele>
        <time>2019-11-05T12:05:34.000Z</time>
      </trkpt>
      <trkpt lat="36.02862062864005565643310546875" lon="-5.61175818555057048797607421875">
        <ele>4.599999904632568359375</ele>
        <time>2019-11-05T12:05:39.000Z</time>
      </trkpt>
      <trkpt lat="36.0284923017024993896484375" lon="-5.61177930794656276702880859375">
        <ele>4</ele>
        <time>2019-11-05T12:05:42.000Z</time>
      </trkpt>
      <trkpt lat="36.02831326425075531005859375" lon="-5.61181627213954925537109375">
        <ele>4</ele>
        <time>2019-11-05T12:05:46.000Z</time>
      </trkpt>
      <trkpt lat="36.02812509052455425262451171875" lon="-5.61186245642602443695068359375">
        <ele>4.19999980926513671875</ele>
        <time>2019-11-05T12:05:50.000Z</time>
      </trkpt>
      <trkpt lat="36.0279389284551143646240234375" lon="-5.6118945591151714324951171875">
        <ele>5</ele>
        <time>2019-11-05T12:05:54.000Z</time>
      </trkpt>
      <trkpt lat="36.02775041945278644561767578125" lon="-5.61192356050014495849609375">
        <ele>4.400000095367431640625</ele>
        <time>2019-11-05T12:05:58.000Z</time>
      </trkpt>
      <trkpt lat="36.027557551860809326171875" lon="-5.6119368039071559906005859375">
        <ele>4</ele>
        <time>2019-11-05T12:06:02.000Z</time>
      </trkpt>
      <trkpt lat="36.0273605771362781524658203125" lon="-5.6119354628026485443115234375">
        <ele>4</ele>
        <time>2019-11-05T12:06:06.000Z</time>
      </trkpt>
      <trkpt lat="36.02716620080173015594482421875" lon="-5.61191827990114688873291015625">
        <ele>4.80000019073486328125</ele>
        <time>2019-11-05T12:06:10.000Z</time>
      </trkpt>
      <trkpt lat="36.02697174064815044403076171875" lon="-5.61189933679997920989990234375">
        <ele>5</ele>
        <time>2019-11-05T12:06:14.000Z</time>
      </trkpt>
      <trkpt lat="36.02677577175199985504150390625" lon="-5.611876957118511199951171875">
        <ele>4.80000019073486328125</ele>
        <time>2019-11-05T12:06:18.000Z</time>
      </trkpt>
      <trkpt lat="36.0265934653580188751220703125" lon="-5.61185440979897975921630859375">
        <ele>4</ele>
        <time>2019-11-05T12:06:22.000Z</time>
      </trkpt>
      <trkpt lat="36.0263867676258087158203125" lon="-5.61185340397059917449951171875">
        <ele>3.599999904632568359375</ele>
        <time>2019-11-05T12:06:28.000Z</time>
      </trkpt>
      <trkpt lat="36.0263376496732234954833984375" lon="-5.61184602789580821990966796875">
        <ele>3.599999904632568359375</ele>
        <time>2019-11-05T12:06:34.000Z</time>
      </trkpt>
      <trkpt lat="36.02622776292264461517333984375" lon="-5.61185759492218494415283203125">
        <ele>3.599999904632568359375</ele>
        <time>2019-11-05T12:09:49.000Z</time>
      </trkpt>
      <trkpt lat="36.02604771964251995086669921875" lon="-5.61183848418295383453369140625">
        <ele>3.7999999523162841796875</ele>
        <time>2019-11-05T12:09:55.000Z</time>
      </trkpt>
      <trkpt lat="36.02585493586957454681396484375" lon="-5.61173773370683193206787109375">
        <ele>3.599999904632568359375</ele>
        <time>2019-11-05T12:10:01.000Z</time>
      </trkpt>
      <trkpt lat="36.02566449902951717376708984375" lon="-5.61170353554189205169677734375">
        <ele>2.7999999523162841796875</ele>
        <time>2019-11-05T12:10:06.000Z</time>
      </trkpt>
      <trkpt lat="36.02547607384622097015380859375" lon="-5.6116890348494052886962890625">
        <ele>2.2000000476837158203125</ele>
        <time>2019-11-05T12:10:11.000Z</time>
      </trkpt>
      <trkpt lat="36.0252801887691020965576171875" lon="-5.6116645596921443939208984375">
        <ele>2.599999904632568359375</ele>
        <time>2019-11-05T12:10:16.000Z</time>
      </trkpt>
      <trkpt lat="36.02509452961385250091552734375" lon="-5.6116434372961521148681640625">
        <ele>3.2000000476837158203125</ele>
        <time>2019-11-05T12:10:21.000Z</time>
      </trkpt>
      <trkpt lat="36.0248989798128604888916015625" lon="-5.6116303615272045135498046875">
        <ele>3.7999999523162841796875</ele>
        <time>2019-11-05T12:10:26.000Z</time>
      </trkpt>
      <trkpt lat="36.02470024488866329193115234375" lon="-5.6116068921983242034912109375">
        <ele>3.599999904632568359375</ele>
        <time>2019-11-05T12:10:31.000Z</time>
      </trkpt>
      <trkpt lat="36.02449773810803890228271484375" lon="-5.611635558307170867919921875">
        <ele>4</ele>
        <time>2019-11-05T12:10:36.000Z</time>
      </trkpt>
      <trkpt lat="36.02431249804794788360595703125" lon="-5.61165659688413143157958984375">
        <ele>4</ele>
        <time>2019-11-05T12:10:41.000Z</time>
      </trkpt>
      <trkpt lat="36.02412072010338306427001953125" lon="-5.61164553277194499969482421875">
        <ele>4</ele>
        <time>2019-11-05T12:10:46.000Z</time>
      </trkpt>
      <trkpt lat="36.023933887481689453125" lon="-5.61164620332419872283935546875">
        <ele>4.599999904632568359375</ele>
        <time>2019-11-05T12:10:51.000Z</time>
      </trkpt>
      <trkpt lat="36.02372274734079837799072265625" lon="-5.611655674874782562255859375">
        <ele>5.599999904632568359375</ele>
        <time>2019-11-05T12:10:57.000Z</time>
      </trkpt>
      <trkpt lat="36.02351806126534938812255859375" lon="-5.61167067848145961761474609375">
        <ele>7</ele>
        <time>2019-11-05T12:11:03.000Z</time>
      </trkpt>
      <trkpt lat="36.02331840433180332183837890625" lon="-5.6116922199726104736328125">
        <ele>8.80000019073486328125</ele>
        <time>2019-11-05T12:11:10.000Z</time>
      </trkpt>
      <trkpt lat="36.0231102816760540008544921875" lon="-5.611741840839385986328125">
        <ele>11.3999996185302734375</ele>
        <time>2019-11-05T12:11:17.000Z</time>
      </trkpt>
      <trkpt lat="36.022914312779903411865234375" lon="-5.61176505871117115020751953125">
        <ele>14.6000003814697265625</ele>
        <time>2019-11-05T12:11:24.000Z</time>
      </trkpt>
      <trkpt lat="36.0227334313094615936279296875" lon="-5.6117557547986507415771484375">
        <ele>15.80000019073486328125</ele>
        <time>2019-11-05T12:11:29.000Z</time>
      </trkpt>
      <trkpt lat="36.02253452874720096588134765625" lon="-5.61170286498963832855224609375">
        <ele>17</ele>
        <time>2019-11-05T12:11:36.000Z</time>
      </trkpt>
      <trkpt lat="36.0223538987338542938232421875" lon="-5.61162851750850677490234375">
        <ele>17.200000762939453125</ele>
        <time>2019-11-05T12:11:43.000Z</time>
      </trkpt>
      <trkpt lat="36.0221879370510578155517578125" lon="-5.611512176692485809326171875">
        <ele>17</ele>
        <time>2019-11-05T12:11:50.000Z</time>
      </trkpt>
      <trkpt lat="36.0220241546630859375" lon="-5.6113949976861476898193359375">
        <ele>17.200000762939453125</ele>
        <time>2019-11-05T12:11:57.000Z</time>
      </trkpt>
      <trkpt lat="36.02187470532953739166259765625" lon="-5.611266754567623138427734375">
        <ele>18.200000762939453125</ele>
        <time>2019-11-05T12:12:03.000Z</time>
      </trkpt>
      <trkpt lat="36.021719388663768768310546875" lon="-5.61114664189517498016357421875">
        <ele>19.6000003814697265625</ele>
        <time>2019-11-05T12:12:09.000Z</time>
      </trkpt>
      <trkpt lat="36.02155216969549655914306640625" lon="-5.61101689003407955169677734375">
        <ele>21.3999996185302734375</ele>
        <time>2019-11-05T12:12:16.000Z</time>
      </trkpt>
      <trkpt lat="36.021396853029727935791015625" lon="-5.610897950828075408935546875">
        <ele>22.6000003814697265625</ele>
        <time>2019-11-05T12:12:22.000Z</time>
      </trkpt>
      <trkpt lat="36.0212267003953456878662109375" lon="-5.6107628345489501953125">
        <ele>23.6000003814697265625</ele>
        <time>2019-11-05T12:12:28.000Z</time>
      </trkpt>
      <trkpt lat="36.02105981670320034027099609375" lon="-5.6106523610651493072509765625">
        <ele>24.200000762939453125</ele>
        <time>2019-11-05T12:12:33.000Z</time>
      </trkpt>
      <trkpt lat="36.02090458385646343231201171875" lon="-5.6105306558310985565185546875">
        <ele>24.3999996185302734375</ele>
        <time>2019-11-05T12:12:37.000Z</time>
      </trkpt>
      <trkpt lat="36.02072663605213165283203125" lon="-5.6103967130184173583984375">
        <ele>24.3999996185302734375</ele>
        <time>2019-11-05T12:12:41.000Z</time>
      </trkpt>
      <trkpt lat="36.02053225971758365631103515625" lon="-5.61024240218102931976318359375">
        <ele>22.6000003814697265625</ele>
        <time>2019-11-05T12:12:45.000Z</time>
      </trkpt>
      <trkpt lat="36.02037660777568817138671875" lon="-5.610126145184040069580078125">
        <ele>21.6000003814697265625</ele>
        <time>2019-11-05T12:12:48.000Z</time>
      </trkpt>
      <trkpt lat="36.02021156810224056243896484375" lon="-5.6100051105022430419921875">
        <ele>20.6000003814697265625</ele>
        <time>2019-11-05T12:12:51.000Z</time>
      </trkpt>
      <trkpt lat="36.02003102190792560577392578125" lon="-5.609884746372699737548828125">
        <ele>19.799999237060546875</ele>
        <time>2019-11-05T12:12:54.000Z</time>
      </trkpt>
      <trkpt lat="36.01985902525484561920166015625" lon="-5.609759353101253509521484375">
        <ele>18</ele>
        <time>2019-11-05T12:12:57.000Z</time>
      </trkpt>
      <trkpt lat="36.019678227603435516357421875" lon="-5.6096334569156169891357421875">
        <ele>17.200000762939453125</ele>
        <time>2019-11-05T12:13:00.000Z</time>
      </trkpt>
      <trkpt lat="36.019502542912960052490234375" lon="-5.60950915329158306121826171875">
        <ele>16</ele>
        <time>2019-11-05T12:13:03.000Z</time>
      </trkpt>
      <trkpt lat="36.019331552088260650634765625" lon="-5.60938091017305850982666015625">
        <ele>15.6000003814697265625</ele>
        <time>2019-11-05T12:13:06.000Z</time>
      </trkpt>
      <trkpt lat="36.01916232146322727203369140625" lon="-5.609252415597438812255859375">
        <ele>15</ele>
        <time>2019-11-05T12:13:09.000Z</time>
      </trkpt>
      <trkpt lat="36.01899635978043079376220703125" lon="-5.60912576504051685333251953125">
        <ele>14.6000003814697265625</ele>
        <time>2019-11-05T12:13:12.000Z</time>
      </trkpt>
      <trkpt lat="36.01880106143653392791748046875" lon="-5.6089655868709087371826171875">
        <ele>14.6000003814697265625</ele>
        <time>2019-11-05T12:13:16.000Z</time>
      </trkpt>
      <trkpt lat="36.01862420327961444854736328125" lon="-5.60881982557475566864013671875">
        <ele>15.80000019073486328125</ele>
        <time>2019-11-05T12:13:20.000Z</time>
      </trkpt>
      <trkpt lat="36.01845338009297847747802734375" lon="-5.60868789441883563995361328125">
        <ele>15.80000019073486328125</ele>
        <time>2019-11-05T12:13:24.000Z</time>
      </trkpt>
      <trkpt lat="36.0183014161884784698486328125" lon="-5.60856233350932598114013671875">
        <ele>16.6000003814697265625</ele>
        <time>2019-11-05T12:13:28.000Z</time>
      </trkpt>
      <trkpt lat="36.01815733127295970916748046875" lon="-5.608421601355075836181640625">
        <ele>17</ele>
        <time>2019-11-05T12:13:33.000Z</time>
      </trkpt>
      <trkpt lat="36.01800913922488689422607421875" lon="-5.60829293914139270782470703125">
        <ele>18.200000762939453125</ele>
        <time>2019-11-05T12:13:39.000Z</time>
      </trkpt>
      <trkpt lat="36.01795457303524017333984375" lon="-5.6082482635974884033203125">
        <ele>18.3999996185302734375</ele>
        <time>2019-11-05T12:13:41.000Z</time>
      </trkpt>
      <trkpt lat="36.01787385530769824981689453125" lon="-5.60816838406026363372802734375">
        <ele>18.799999237060546875</ele>
        <time>2019-11-05T12:13:44.000Z</time>
      </trkpt>
      <trkpt lat="36.01772700436413288116455078125" lon="-5.6080449186265468597412109375">
        <ele>19.200000762939453125</ele>
        <time>2019-11-05T12:13:49.000Z</time>
      </trkpt>
      <trkpt lat="36.017558611929416656494140625" lon="-5.60788373462855815887451171875">
        <ele>20</ele>
        <time>2019-11-05T12:13:55.000Z</time>
      </trkpt>
      <trkpt lat="36.017480157315731048583984375" lon="-5.60780310072004795074462890625">
        <ele>20</ele>
        <time>2019-11-05T12:13:58.000Z</time>
      </trkpt>
      <trkpt lat="36.0173056460916996002197265625" lon="-5.60764920897781848907470703125">
        <ele>20.200000762939453125</ele>
        <time>2019-11-05T12:14:04.000Z</time>
      </trkpt>
      <trkpt lat="36.01725292392075061798095703125" lon="-5.60758433304727077484130859375">
        <ele>20.3999996185302734375</ele>
        <time>2019-11-05T12:14:06.000Z</time>
      </trkpt>
      <trkpt lat="36.01714446209371089935302734375" lon="-5.607464723289012908935546875">
        <ele>21</ele>
        <time>2019-11-05T12:14:10.000Z</time>
      </trkpt>
      <trkpt lat="36.01702242158353328704833984375" lon="-5.6073669902980327606201171875">
        <ele>20.6000003814697265625</ele>
        <time>2019-11-05T12:14:14.000Z</time>
      </trkpt>
      <trkpt lat="36.01686785928905010223388671875" lon="-5.6072084046900272369384765625">
        <ele>20.799999237060546875</ele>
        <time>2019-11-05T12:14:20.000Z</time>
      </trkpt>
      <trkpt lat="36.01671363227069377899169921875" lon="-5.60705174691975116729736328125">
        <ele>21.6000003814697265625</ele>
        <time>2019-11-05T12:14:26.000Z</time>
      </trkpt>
      <trkpt lat="36.01656409911811351776123046875" lon="-5.60686499811708927154541015625">
        <ele>21.799999237060546875</ele>
        <time>2019-11-05T12:14:32.000Z</time>
      </trkpt>
      <trkpt lat="36.01639981381595134735107421875" lon="-5.606711693108081817626953125">
        <ele>22.3999996185302734375</ele>
        <time>2019-11-05T12:14:38.000Z</time>
      </trkpt>
      <trkpt lat="36.0162431560456752777099609375" lon="-5.6065247766673564910888671875">
        <ele>23.6000003814697265625</ele>
        <time>2019-11-05T12:14:44.000Z</time>
      </trkpt>
      <trkpt lat="36.0160912759602069854736328125" lon="-5.6063923425972461700439453125">
        <ele>24.6000003814697265625</ele>
        <time>2019-11-05T12:14:49.000Z</time>
      </trkpt>
      <trkpt lat="36.01593528874218463897705078125" lon="-5.60623970814049243927001953125">
        <ele>25</ele>
        <time>2019-11-05T12:14:54.000Z</time>
      </trkpt>
      <trkpt lat="36.0157824866473674774169921875" lon="-5.60612286441028118133544921875">
        <ele>25</ele>
        <time>2019-11-05T12:14:58.000Z</time>
      </trkpt>
      <trkpt lat="36.01562641561031341552734375" lon="-5.60595086775720119476318359375">
        <ele>24</ele>
        <time>2019-11-05T12:15:03.000Z</time>
      </trkpt>
      <trkpt lat="36.01545869372785091400146484375" lon="-5.60579747892916202545166015625">
        <ele>24</ele>
        <time>2019-11-05T12:15:08.000Z</time>
      </trkpt>
      <trkpt lat="36.0153288580477237701416015625" lon="-5.6056304275989532470703125">
        <ele>23.799999237060546875</ele>
        <time>2019-11-05T12:15:14.000Z</time>
      </trkpt>
      <trkpt lat="36.0151974298059940338134765625" lon="-5.6054713390767574310302734375">
        <ele>24.3999996185302734375</ele>
        <time>2019-11-05T12:15:20.000Z</time>
      </trkpt>
      <trkpt lat="36.01505778729915618896484375" lon="-5.605341084301471710205078125">
        <ele>25.200000762939453125</ele>
        <time>2019-11-05T12:15:27.000Z</time>
      </trkpt>
      <trkpt lat="36.01490397937595844268798828125" lon="-5.60549505986273288726806640625">
        <ele>25.200000762939453125</ele>
        <time>2019-11-05T12:15:35.000Z</time>
      </trkpt>
      <trkpt lat="36.0147619061172008514404296875" lon="-5.60564207844436168670654296875">
        <ele>24.6000003814697265625</ele>
        <time>2019-11-05T12:15:42.000Z</time>
      </trkpt>
      <trkpt lat="36.014628298580646514892578125" lon="-5.6058072857558727264404296875">
        <ele>23.3999996185302734375</ele>
        <time>2019-11-05T12:15:48.000Z</time>
      </trkpt>
      <trkpt lat="36.01451690308749675750732421875" lon="-5.6059960462152957916259765625">
        <ele>22.799999237060546875</ele>
        <time>2019-11-05T12:15:55.000Z</time>
      </trkpt>
      <trkpt lat="36.0143934376537799835205078125" lon="-5.60616360045969486236572265625">
        <ele>22.6000003814697265625</ele>
        <time>2019-11-05T12:16:04.000Z</time>
      </trkpt>
      <trkpt lat="36.01436804048717021942138671875" lon="-5.60618841089308261871337890625">
        <ele>22.6000003814697265625</ele>
        <time>2019-11-05T12:16:06.000Z</time>
      </trkpt>
      <trkpt lat="36.01431389339268207550048828125" lon="-5.606244988739490509033203125">
        <ele>22.6000003814697265625</ele>
        <time>2019-11-05T12:16:10.000Z</time>
      </trkpt>
      <trkpt lat="36.01418917067348957061767578125" lon="-5.60642008669674396514892578125">
        <ele>22.799999237060546875</ele>
        <time>2019-11-05T12:16:17.000Z</time>
      </trkpt>
      <trkpt lat="36.01403720676898956298828125" lon="-5.60655771754682064056396484375">
        <ele>23</ele>
        <time>2019-11-05T12:16:25.000Z</time>
      </trkpt>
      <trkpt lat="36.01391340605914592742919921875" lon="-5.60672468505799770355224609375">
        <ele>22.6000003814697265625</ele>
        <time>2019-11-05T12:16:31.000Z</time>
      </trkpt>
      <trkpt lat="36.01378968916833400726318359375" lon="-5.60689316131174564361572265625">
        <ele>22.3999996185302734375</ele>
        <time>2019-11-05T12:16:36.000Z</time>
      </trkpt>
      <trkpt lat="36.01366630755364894866943359375" lon="-5.60705912299454212188720703125">
        <ele>21.6000003814697265625</ele>
        <time>2019-11-05T12:16:42.000Z</time>
      </trkpt>
      <trkpt lat="36.0135254077613353729248046875" lon="-5.60722625814378261566162109375">
        <ele>21</ele>
        <time>2019-11-05T12:16:51.000Z</time>
      </trkpt>
      <trkpt lat="36.0134047083556652069091796875" lon="-5.60738936997950077056884765625">
        <ele>20.6000003814697265625</ele>
        <time>2019-11-05T12:16:59.000Z</time>
      </trkpt>
      <trkpt lat="36.0132833383977413177490234375" lon="-5.6075819022953510284423828125">
        <ele>19.799999237060546875</ele>
        <time>2019-11-05T12:17:07.000Z</time>
      </trkpt>
      <trkpt lat="36.01315652020275592803955078125" lon="-5.6077227182686328887939453125">
        <ele>19.200000762939453125</ele>
        <time>2019-11-05T12:17:15.000Z</time>
      </trkpt>
      <trkpt lat="36.01309600286185741424560546875" lon="-5.60778893530368804931640625">
        <ele>18.6000003814697265625</ele>
        <time>2019-11-05T12:17:20.000Z</time>
      </trkpt>
      <trkpt lat="36.0130811668932437896728515625" lon="-5.607807375490665435791015625">
        <ele>18.6000003814697265625</ele>
        <time>2019-11-05T12:17:21.000Z</time>
      </trkpt>
      <trkpt lat="36.01301662623882293701171875" lon="-5.607897900044918060302734375">
        <ele>17.6000003814697265625</ele>
        <time>2019-11-05T12:17:26.000Z</time>
      </trkpt>
      <trkpt lat="36.012953259050846099853515625" lon="-5.608009882271289825439453125">
        <ele>16.6000003814697265625</ele>
        <time>2019-11-05T12:17:32.000Z</time>
      </trkpt>
      <trkpt lat="36.0130989365279674530029296875" lon="-5.60816369019448757171630859375">
        <ele>15.80000019073486328125</ele>
        <time>2019-11-05T12:17:42.000Z</time>
      </trkpt>
      <trkpt lat="36.01323028095066547393798828125" lon="-5.60826997272670269012451171875">
        <ele>15</ele>
        <time>2019-11-05T12:17:49.000Z</time>
      </trkpt>
      <trkpt lat="36.01331393234431743621826171875" lon="-5.6082155741751194000244140625">
        <ele>15.6000003814697265625</ele>
        <time>2019-11-05T12:17:54.000Z</time>
      </trkpt>
      <trkpt lat="36.013328097760677337646484375" lon="-5.60819352976977825164794921875">
        <ele>15.80000019073486328125</ele>
        <time>2019-11-05T12:17:55.000Z</time>
      </trkpt>
      <trkpt lat="36.01338467560708522796630859375" lon="-5.60813435353338718414306640625">
        <ele>16.3999996185302734375</ele>
        <time>2019-11-05T12:17:59.000Z</time>
      </trkpt>
      <trkpt lat="36.01340512745082378387451171875" lon="-5.6081253848969936370849609375">
        <ele>16.6000003814697265625</ele>
        <time>2019-11-05T12:18:01.000Z</time>
      </trkpt>
      <trkpt lat="36.0135389864444732666015625" lon="-5.6079466827213764190673828125">
        <ele>17.799999237060546875</ele>
        <time>2019-11-05T12:18:13.000Z</time>
      </trkpt>
      <trkpt lat="36.0136370547115802764892578125" lon="-5.60775046236813068389892578125">
        <ele>18.6000003814697265625</ele>
        <time>2019-11-05T12:18:22.000Z</time>
      </trkpt>
      <trkpt lat="36.013756580650806427001953125" lon="-5.607553236186504364013671875">
        <ele>19</ele>
        <time>2019-11-05T12:18:31.000Z</time>
      </trkpt>
      <trkpt lat="36.01390217430889606475830078125" lon="-5.607403032481670379638671875">
        <ele>19.3999996185302734375</ele>
        <time>2019-11-05T12:18:42.000Z</time>
      </trkpt>
      <trkpt lat="36.01404684595763683319091796875" lon="-5.607252158224582672119140625">
        <ele>20</ele>
        <time>2019-11-05T12:18:53.000Z</time>
      </trkpt>
      <trkpt lat="36.01405975408852100372314453125" lon="-5.6072379089891910552978515625">
        <ele>20</ele>
        <time>2019-11-05T12:18:55.000Z</time>
      </trkpt>
      <trkpt lat="36.01406645961105823516845703125" lon="-5.6072392500936985015869140625">
        <ele>20</ele>
        <time>2019-11-05T12:18:58.000Z</time>
      </trkpt>
      <trkpt lat="36.0141175054013729095458984375" lon="-5.60721670277416706085205078125">
        <ele>19.799999237060546875</ele>
        <time>2019-11-05T12:19:53.000Z</time>
      </trkpt>
      <trkpt lat="36.01411725394427776336669921875" lon="-5.60721770860254764556884765625">
        <ele>19.799999237060546875</ele>
        <time>2019-11-05T12:19:54.000Z</time>
      </trkpt>
    </trkseg>
  </trk>
</gpx>
